<?xml version="1.0" encoding="UTF-8"?>
<gpx version="1.1" creator="https://www.youtrack.es" xsi:schemaLocation="http://www.topografix.com/GPX/1/1 http://www.topografix.com/GPX/1/1/gpx.xsd http://www.garmin.com/xmlschemas/GpxExtensions/v3 http://www.garmin.com/xmlschemas/GpxExtensionsv3.xsd http://www.garmin.com/xmlschemas/TrackPointExtension/v1 http://www.garmin.com/xmlschemas/TrackPointExtensionv1.xsd" xmlns:gpxtpx="http://www.garmin.com/xmlschemas/TrackPointExtension/v1" xmlns:gpxx="http://www.garmin.com/xmlschemas/GpxExtensions/v3" xmlns:xsi="http://www.w3.org/2001/XMLSchema-instance">
  <metadata>
    <link href="https://www.youtrack.es">
      <text>YouTrack.es</text>
    </link>
    <time>2026-05-08T01:29:29Z</time>
  </metadata>
  <trk>
    <src>https://www.youtrack.es</src>
    <link href="https://www.youtrack.es/ruta/26444-camino-de-santiago-desde-zaragoza">
      <text>YouTrack.es</text>
    </link>
    <trkseg>
      <trkpt lat="41.6407730" lon="-0.8951300">
        <ele>221.2</ele>
        <time>2021-09-28T14:21:25Z</time>
      </trkpt>
      <trkpt lat="41.6407400" lon="-0.8951580">
        <ele>221.6</ele>
        <time>2021-09-28T14:21:26Z</time>
      </trkpt>
      <trkpt lat="41.6407070" lon="-0.8951840">
        <ele>221.6</ele>
        <time>2021-09-28T14:21:27Z</time>
      </trkpt>
      <trkpt lat="41.6405870" lon="-0.8952980">
        <ele>221.8</ele>
        <time>2021-09-28T14:21:31Z</time>
      </trkpt>
      <trkpt lat="41.6404830" lon="-0.8954060">
        <ele>222.0</ele>
        <time>2021-09-28T14:21:34Z</time>
      </trkpt>
      <trkpt lat="41.6400500" lon="-0.8957980">
        <ele>222.4</ele>
        <time>2021-09-28T14:21:46Z</time>
      </trkpt>
      <trkpt lat="41.6395820" lon="-0.8961770">
        <ele>222.8</ele>
        <time>2021-09-28T14:21:58Z</time>
      </trkpt>
      <trkpt lat="41.6394600" lon="-0.8962760">
        <ele>223.0</ele>
        <time>2021-09-28T14:22:01Z</time>
      </trkpt>
      <trkpt lat="41.6391200" lon="-0.8965020">
        <ele>223.2</ele>
        <time>2021-09-28T14:22:09Z</time>
      </trkpt>
      <trkpt lat="41.6390080" lon="-0.8965980">
        <ele>223.2</ele>
        <time>2021-09-28T14:22:12Z</time>
      </trkpt>
      <trkpt lat="41.6386530" lon="-0.8969590">
        <ele>223.2</ele>
        <time>2021-09-28T14:22:21Z</time>
      </trkpt>
      <trkpt lat="41.6383390" lon="-0.8972210">
        <ele>223.2</ele>
        <time>2021-09-28T14:22:29Z</time>
      </trkpt>
      <trkpt lat="41.6380220" lon="-0.8974740">
        <ele>223.4</ele>
        <time>2021-09-28T14:22:37Z</time>
      </trkpt>
      <trkpt lat="41.6378720" lon="-0.8976010">
        <ele>223.4</ele>
        <time>2021-09-28T14:22:41Z</time>
      </trkpt>
      <trkpt lat="41.6376510" lon="-0.8978480">
        <ele>223.2</ele>
        <time>2021-09-28T14:22:48Z</time>
      </trkpt>
      <trkpt lat="41.6376300" lon="-0.8979470">
        <ele>223.2</ele>
        <time>2021-09-28T14:22:50Z</time>
      </trkpt>
      <trkpt lat="41.6377010" lon="-0.8981240">
        <ele>223.2</ele>
        <time>2021-09-28T14:22:54Z</time>
      </trkpt>
      <trkpt lat="41.6376400" lon="-0.8982540">
        <ele>223.4</ele>
        <time>2021-09-28T14:22:58Z</time>
      </trkpt>
      <trkpt lat="41.6375090" lon="-0.8983950">
        <ele>223.8</ele>
        <time>2021-09-28T14:23:06Z</time>
      </trkpt>
      <trkpt lat="41.6373610" lon="-0.8985510">
        <ele>223.8</ele>
        <time>2021-09-28T14:23:11Z</time>
      </trkpt>
      <trkpt lat="41.6371780" lon="-0.8988080">
        <ele>223.4</ele>
        <time>2021-09-28T14:23:17Z</time>
      </trkpt>
      <trkpt lat="41.6370270" lon="-0.8990310">
        <ele>223.4</ele>
        <time>2021-09-28T14:23:22Z</time>
      </trkpt>
      <trkpt lat="41.6369930" lon="-0.8990760">
        <ele>223.4</ele>
        <time>2021-09-28T14:23:23Z</time>
      </trkpt>
      <trkpt lat="41.6367970" lon="-0.8993440">
        <ele>224.0</ele>
        <time>2021-09-28T14:23:29Z</time>
      </trkpt>
      <trkpt lat="41.6367320" lon="-0.8994290">
        <ele>224.4</ele>
        <time>2021-09-28T14:23:31Z</time>
      </trkpt>
      <trkpt lat="41.6366800" lon="-0.8995970">
        <ele>224.4</ele>
        <time>2021-09-28T14:23:34Z</time>
      </trkpt>
      <trkpt lat="41.6365520" lon="-0.8997810">
        <ele>225.0</ele>
        <time>2021-09-28T14:23:38Z</time>
      </trkpt>
      <trkpt lat="41.6365210" lon="-0.8998320">
        <ele>225.2</ele>
        <time>2021-09-28T14:23:39Z</time>
      </trkpt>
      <trkpt lat="41.6362850" lon="-0.9001570">
        <ele>226.2</ele>
        <time>2021-09-28T14:23:46Z</time>
      </trkpt>
      <trkpt lat="41.6359500" lon="-0.9005930">
        <ele>227.2</ele>
        <time>2021-09-28T14:23:56Z</time>
      </trkpt>
      <trkpt lat="41.6355700" lon="-0.9011210">
        <ele>227.8</ele>
        <time>2021-09-28T14:24:08Z</time>
      </trkpt>
      <trkpt lat="41.6353860" lon="-0.9013770">
        <ele>228.2</ele>
        <time>2021-09-28T14:24:14Z</time>
      </trkpt>
      <trkpt lat="41.6351540" lon="-0.9016210">
        <ele>229.0</ele>
        <time>2021-09-28T14:24:24Z</time>
      </trkpt>
      <trkpt lat="41.6351230" lon="-0.9016460">
        <ele>229.4</ele>
        <time>2021-09-28T14:24:26Z</time>
      </trkpt>
      <trkpt lat="41.6350740" lon="-0.9017040">
        <ele>229.4</ele>
        <time>2021-09-28T14:24:28Z</time>
      </trkpt>
      <trkpt lat="41.6349730" lon="-0.9018410">
        <ele>229.6</ele>
        <time>2021-09-28T14:24:31Z</time>
      </trkpt>
      <trkpt lat="41.6345640" lon="-0.9024040">
        <ele>228.8</ele>
        <time>2021-09-28T14:24:42Z</time>
      </trkpt>
      <trkpt lat="41.6341860" lon="-0.9029190">
        <ele>229.8</ele>
        <time>2021-09-28T14:24:53Z</time>
      </trkpt>
      <trkpt lat="41.6341200" lon="-0.9030080">
        <ele>230.2</ele>
        <time>2021-09-28T14:24:55Z</time>
      </trkpt>
      <trkpt lat="41.6339530" lon="-0.9032290">
        <ele>231.4</ele>
        <time>2021-09-28T14:25:00Z</time>
      </trkpt>
      <trkpt lat="41.6337480" lon="-0.9035000">
        <ele>232.4</ele>
        <time>2021-09-28T14:25:06Z</time>
      </trkpt>
      <trkpt lat="41.6336830" lon="-0.9035910">
        <ele>232.8</ele>
        <time>2021-09-28T14:25:08Z</time>
      </trkpt>
      <trkpt lat="41.6335630" lon="-0.9037960">
        <ele>233.0</ele>
        <time>2021-09-28T14:25:12Z</time>
      </trkpt>
      <trkpt lat="41.6335340" lon="-0.9038450">
        <ele>233.2</ele>
        <time>2021-09-28T14:25:13Z</time>
      </trkpt>
      <trkpt lat="41.6333760" lon="-0.9040820">
        <ele>233.4</ele>
        <time>2021-09-28T14:25:18Z</time>
      </trkpt>
      <trkpt lat="41.6333420" lon="-0.9041290">
        <ele>233.4</ele>
        <time>2021-09-28T14:25:19Z</time>
      </trkpt>
      <trkpt lat="41.6332820" lon="-0.9042310">
        <ele>233.4</ele>
        <time>2021-09-28T14:25:21Z</time>
      </trkpt>
      <trkpt lat="41.6330370" lon="-0.9049220">
        <ele>234.4</ele>
        <time>2021-09-28T14:25:33Z</time>
      </trkpt>
      <trkpt lat="41.6330170" lon="-0.9050450">
        <ele>234.8</ele>
        <time>2021-09-28T14:25:35Z</time>
      </trkpt>
      <trkpt lat="41.6329850" lon="-0.9053670">
        <ele>235.4</ele>
        <time>2021-09-28T14:25:41Z</time>
      </trkpt>
      <trkpt lat="41.6329400" lon="-0.9054960">
        <ele>235.8</ele>
        <time>2021-09-28T14:25:44Z</time>
      </trkpt>
      <trkpt lat="41.6328350" lon="-0.9055640">
        <ele>235.8</ele>
        <time>2021-09-28T14:25:47Z</time>
      </trkpt>
      <trkpt lat="41.6327990" lon="-0.9055800">
        <ele>236.0</ele>
        <time>2021-09-28T14:25:48Z</time>
      </trkpt>
      <trkpt lat="41.6326520" lon="-0.9056650">
        <ele>236.0</ele>
        <time>2021-09-28T14:25:52Z</time>
      </trkpt>
      <trkpt lat="41.6325010" lon="-0.9057130">
        <ele>236.2</ele>
        <time>2021-09-28T14:25:55Z</time>
      </trkpt>
      <trkpt lat="41.6323880" lon="-0.9057460">
        <ele>236.4</ele>
        <time>2021-09-28T14:25:57Z</time>
      </trkpt>
      <trkpt lat="41.6321330" lon="-0.9056620">
        <ele>236.6</ele>
        <time>2021-09-28T14:26:02Z</time>
      </trkpt>
      <trkpt lat="41.6320270" lon="-0.9056060">
        <ele>236.6</ele>
        <time>2021-09-28T14:26:05Z</time>
      </trkpt>
      <trkpt lat="41.6318990" lon="-0.9055890">
        <ele>236.8</ele>
        <time>2021-09-28T14:26:08Z</time>
      </trkpt>
      <trkpt lat="41.6317170" lon="-0.9056350">
        <ele>236.6</ele>
        <time>2021-09-28T14:26:12Z</time>
      </trkpt>
      <trkpt lat="41.6312310" lon="-0.9059730">
        <ele>236.6</ele>
        <time>2021-09-28T14:26:24Z</time>
      </trkpt>
      <trkpt lat="41.6309490" lon="-0.9061690">
        <ele>236.6</ele>
        <time>2021-09-28T14:26:31Z</time>
      </trkpt>
      <trkpt lat="41.6307760" lon="-0.9062550">
        <ele>236.8</ele>
        <time>2021-09-28T14:26:35Z</time>
      </trkpt>
      <trkpt lat="41.6302590" lon="-0.9065940">
        <ele>237.6</ele>
        <time>2021-09-28T14:26:48Z</time>
      </trkpt>
      <trkpt lat="41.6299100" lon="-0.9068370">
        <ele>238.0</ele>
        <time>2021-09-28T14:26:57Z</time>
      </trkpt>
      <trkpt lat="41.6297670" lon="-0.9069670">
        <ele>238.6</ele>
        <time>2021-09-28T14:27:01Z</time>
      </trkpt>
      <trkpt lat="41.6296520" lon="-0.9070480">
        <ele>239.0</ele>
        <time>2021-09-28T14:27:04Z</time>
      </trkpt>
      <trkpt lat="41.6295250" lon="-0.9071410">
        <ele>239.2</ele>
        <time>2021-09-28T14:27:10Z</time>
      </trkpt>
      <trkpt lat="41.6295030" lon="-0.9071520">
        <ele>239.8</ele>
        <time>2021-09-28T14:27:14Z</time>
      </trkpt>
      <trkpt lat="41.6294700" lon="-0.9071960">
        <ele>241.0</ele>
        <time>2021-09-28T14:27:31Z</time>
      </trkpt>
      <trkpt lat="41.6294530" lon="-0.9072140">
        <ele>241.0</ele>
        <time>2021-09-28T14:27:32Z</time>
      </trkpt>
      <trkpt lat="41.6294170" lon="-0.9072560">
        <ele>241.0</ele>
        <time>2021-09-28T14:27:34Z</time>
      </trkpt>
      <trkpt lat="41.6290540" lon="-0.9075610">
        <ele>241.0</ele>
        <time>2021-09-28T14:27:47Z</time>
      </trkpt>
      <trkpt lat="41.6287680" lon="-0.9077800">
        <ele>241.8</ele>
        <time>2021-09-28T14:27:57Z</time>
      </trkpt>
      <trkpt lat="41.6287450" lon="-0.9078420">
        <ele>242.2</ele>
        <time>2021-09-28T14:28:00Z</time>
      </trkpt>
      <trkpt lat="41.6287330" lon="-0.9078730">
        <ele>242.4</ele>
        <time>2021-09-28T14:28:02Z</time>
      </trkpt>
      <trkpt lat="41.6287170" lon="-0.9078820">
        <ele>243.4</ele>
        <time>2021-09-28T14:29:28Z</time>
      </trkpt>
      <trkpt lat="41.6287390" lon="-0.9078860">
        <ele>243.4</ele>
        <time>2021-09-28T14:29:29Z</time>
      </trkpt>
      <trkpt lat="41.6288110" lon="-0.9079470">
        <ele>243.4</ele>
        <time>2021-09-28T14:29:32Z</time>
      </trkpt>
      <trkpt lat="41.6288330" lon="-0.9079780">
        <ele>243.2</ele>
        <time>2021-09-28T14:29:33Z</time>
      </trkpt>
      <trkpt lat="41.6291290" lon="-0.9084550">
        <ele>243.0</ele>
        <time>2021-09-28T14:29:46Z</time>
      </trkpt>
      <trkpt lat="41.6292000" lon="-0.9087700">
        <ele>243.4</ele>
        <time>2021-09-28T14:29:53Z</time>
      </trkpt>
      <trkpt lat="41.6293700" lon="-0.9091860">
        <ele>244.2</ele>
        <time>2021-09-28T14:30:03Z</time>
      </trkpt>
      <trkpt lat="41.6295370" lon="-0.9095730">
        <ele>244.4</ele>
        <time>2021-09-28T14:30:12Z</time>
      </trkpt>
      <trkpt lat="41.6298290" lon="-0.9101700">
        <ele>244.8</ele>
        <time>2021-09-28T14:30:29Z</time>
      </trkpt>
      <trkpt lat="41.6298710" lon="-0.9102260">
        <ele>245.0</ele>
        <time>2021-09-28T14:30:32Z</time>
      </trkpt>
      <trkpt lat="41.6299300" lon="-0.9103330">
        <ele>245.2</ele>
        <time>2021-09-28T14:30:37Z</time>
      </trkpt>
      <trkpt lat="41.6299590" lon="-0.9104200">
        <ele>245.4</ele>
        <time>2021-09-28T14:30:41Z</time>
      </trkpt>
      <trkpt lat="41.6299740" lon="-0.9104390">
        <ele>245.4</ele>
        <time>2021-09-28T14:30:42Z</time>
      </trkpt>
      <trkpt lat="41.6301490" lon="-0.9105460">
        <ele>245.4</ele>
        <time>2021-09-28T14:30:48Z</time>
      </trkpt>
      <trkpt lat="41.6302950" lon="-0.9106600">
        <ele>245.2</ele>
        <time>2021-09-28T14:30:52Z</time>
      </trkpt>
      <trkpt lat="41.6306520" lon="-0.9109410">
        <ele>244.4</ele>
        <time>2021-09-28T14:31:01Z</time>
      </trkpt>
      <trkpt lat="41.6311230" lon="-0.9113380">
        <ele>244.4</ele>
        <time>2021-09-28T14:31:12Z</time>
      </trkpt>
      <trkpt lat="41.6315680" lon="-0.9116850">
        <ele>244.4</ele>
        <time>2021-09-28T14:31:22Z</time>
      </trkpt>
      <trkpt lat="41.6319000" lon="-0.9119640">
        <ele>243.8</ele>
        <time>2021-09-28T14:31:29Z</time>
      </trkpt>
      <trkpt lat="41.6324020" lon="-0.9123590">
        <ele>243.8</ele>
        <time>2021-09-28T14:31:40Z</time>
      </trkpt>
      <trkpt lat="41.6328740" lon="-0.9127600">
        <ele>244.2</ele>
        <time>2021-09-28T14:31:51Z</time>
      </trkpt>
      <trkpt lat="41.6330410" lon="-0.9128950">
        <ele>244.4</ele>
        <time>2021-09-28T14:31:55Z</time>
      </trkpt>
      <trkpt lat="41.6335350" lon="-0.9132910">
        <ele>244.6</ele>
        <time>2021-09-28T14:32:08Z</time>
      </trkpt>
      <trkpt lat="41.6336870" lon="-0.9134160">
        <ele>244.6</ele>
        <time>2021-09-28T14:32:12Z</time>
      </trkpt>
      <trkpt lat="41.6341700" lon="-0.9137680">
        <ele>244.6</ele>
        <time>2021-09-28T14:32:24Z</time>
      </trkpt>
      <trkpt lat="41.6346670" lon="-0.9140940">
        <ele>244.4</ele>
        <time>2021-09-28T14:32:36Z</time>
      </trkpt>
      <trkpt lat="41.6351730" lon="-0.9143950">
        <ele>244.6</ele>
        <time>2021-09-28T14:32:48Z</time>
      </trkpt>
      <trkpt lat="41.6352150" lon="-0.9144240">
        <ele>244.8</ele>
        <time>2021-09-28T14:32:49Z</time>
      </trkpt>
      <trkpt lat="41.6355690" lon="-0.9146570">
        <ele>245.2</ele>
        <time>2021-09-28T14:32:57Z</time>
      </trkpt>
      <trkpt lat="41.6357050" lon="-0.9148520">
        <ele>245.2</ele>
        <time>2021-09-28T14:33:01Z</time>
      </trkpt>
      <trkpt lat="41.6358200" lon="-0.9150770">
        <ele>245.2</ele>
        <time>2021-09-28T14:33:05Z</time>
      </trkpt>
      <trkpt lat="41.6360930" lon="-0.9157550">
        <ele>245.0</ele>
        <time>2021-09-28T14:33:16Z</time>
      </trkpt>
      <trkpt lat="41.6361420" lon="-0.9158760">
        <ele>245.0</ele>
        <time>2021-09-28T14:33:18Z</time>
      </trkpt>
      <trkpt lat="41.6363940" lon="-0.9165560">
        <ele>244.8</ele>
        <time>2021-09-28T14:33:29Z</time>
      </trkpt>
      <trkpt lat="41.6366590" lon="-0.9172450">
        <ele>244.6</ele>
        <time>2021-09-28T14:33:40Z</time>
      </trkpt>
      <trkpt lat="41.6367780" lon="-0.9179980">
        <ele>245.2</ele>
        <time>2021-09-28T14:33:52Z</time>
      </trkpt>
      <trkpt lat="41.6367740" lon="-0.9181920">
        <ele>245.2</ele>
        <time>2021-09-28T14:33:55Z</time>
      </trkpt>
      <trkpt lat="41.6367830" lon="-0.9189300">
        <ele>245.2</ele>
        <time>2021-09-28T14:34:06Z</time>
      </trkpt>
      <trkpt lat="41.6367630" lon="-0.9193850">
        <ele>245.2</ele>
        <time>2021-09-28T14:34:14Z</time>
      </trkpt>
      <trkpt lat="41.6367640" lon="-0.9198210">
        <ele>245.2</ele>
        <time>2021-09-28T14:34:20Z</time>
      </trkpt>
      <trkpt lat="41.6367630" lon="-0.9201080">
        <ele>245.2</ele>
        <time>2021-09-28T14:34:24Z</time>
      </trkpt>
      <trkpt lat="41.6367000" lon="-0.9208320">
        <ele>244.8</ele>
        <time>2021-09-28T14:34:34Z</time>
      </trkpt>
      <trkpt lat="41.6366640" lon="-0.9214210">
        <ele>244.8</ele>
        <time>2021-09-28T14:34:42Z</time>
      </trkpt>
      <trkpt lat="41.6364450" lon="-0.9220860">
        <ele>244.8</ele>
        <time>2021-09-28T14:34:52Z</time>
      </trkpt>
      <trkpt lat="41.6360970" lon="-0.9226960">
        <ele>245.6</ele>
        <time>2021-09-28T14:35:03Z</time>
      </trkpt>
      <trkpt lat="41.6359840" lon="-0.9228530">
        <ele>245.8</ele>
        <time>2021-09-28T14:35:07Z</time>
      </trkpt>
      <trkpt lat="41.6358610" lon="-0.9230800">
        <ele>246.0</ele>
        <time>2021-09-28T14:35:12Z</time>
      </trkpt>
      <trkpt lat="41.6357580" lon="-0.9232820">
        <ele>246.0</ele>
        <time>2021-09-28T14:35:16Z</time>
      </trkpt>
      <trkpt lat="41.6356620" lon="-0.9234890">
        <ele>246.0</ele>
        <time>2021-09-28T14:35:20Z</time>
      </trkpt>
      <trkpt lat="41.6355440" lon="-0.9236650">
        <ele>246.0</ele>
        <time>2021-09-28T14:35:24Z</time>
      </trkpt>
      <trkpt lat="41.6353070" lon="-0.9243650">
        <ele>245.8</ele>
        <time>2021-09-28T14:35:35Z</time>
      </trkpt>
      <trkpt lat="41.6351760" lon="-0.9250910">
        <ele>245.2</ele>
        <time>2021-09-28T14:35:46Z</time>
      </trkpt>
      <trkpt lat="41.6350270" lon="-0.9258500">
        <ele>245.8</ele>
        <time>2021-09-28T14:35:58Z</time>
      </trkpt>
      <trkpt lat="41.6350020" lon="-0.9261050">
        <ele>245.8</ele>
        <time>2021-09-28T14:36:02Z</time>
      </trkpt>
      <trkpt lat="41.6350230" lon="-0.9263450">
        <ele>246.0</ele>
        <time>2021-09-28T14:36:06Z</time>
      </trkpt>
      <trkpt lat="41.6350500" lon="-0.9266290">
        <ele>246.0</ele>
        <time>2021-09-28T14:36:11Z</time>
      </trkpt>
      <trkpt lat="41.6350960" lon="-0.9273990">
        <ele>246.6</ele>
        <time>2021-09-28T14:36:23Z</time>
      </trkpt>
      <trkpt lat="41.6351260" lon="-0.9281190">
        <ele>246.2</ele>
        <time>2021-09-28T14:36:34Z</time>
      </trkpt>
      <trkpt lat="41.6351380" lon="-0.9288980">
        <ele>246.0</ele>
        <time>2021-09-28T14:36:46Z</time>
      </trkpt>
      <trkpt lat="41.6350970" lon="-0.9291390">
        <ele>246.0</ele>
        <time>2021-09-28T14:36:50Z</time>
      </trkpt>
      <trkpt lat="41.6348780" lon="-0.9298160">
        <ele>245.6</ele>
        <time>2021-09-28T14:37:02Z</time>
      </trkpt>
      <trkpt lat="41.6346550" lon="-0.9304730">
        <ele>245.6</ele>
        <time>2021-09-28T14:37:13Z</time>
      </trkpt>
      <trkpt lat="41.6345600" lon="-0.9307080">
        <ele>245.8</ele>
        <time>2021-09-28T14:37:17Z</time>
      </trkpt>
      <trkpt lat="41.6343280" lon="-0.9313780">
        <ele>245.8</ele>
        <time>2021-09-28T14:37:28Z</time>
      </trkpt>
      <trkpt lat="41.6341380" lon="-0.9320740">
        <ele>245.8</ele>
        <time>2021-09-28T14:37:39Z</time>
      </trkpt>
      <trkpt lat="41.6341860" lon="-0.9325700">
        <ele>245.6</ele>
        <time>2021-09-28T14:37:46Z</time>
      </trkpt>
      <trkpt lat="41.6343590" lon="-0.9329950">
        <ele>245.4</ele>
        <time>2021-09-28T14:37:53Z</time>
      </trkpt>
      <trkpt lat="41.6344230" lon="-0.9330950">
        <ele>245.4</ele>
        <time>2021-09-28T14:37:55Z</time>
      </trkpt>
      <trkpt lat="41.6345940" lon="-0.9332060">
        <ele>245.4</ele>
        <time>2021-09-28T14:37:59Z</time>
      </trkpt>
      <trkpt lat="41.6346400" lon="-0.9332310">
        <ele>245.4</ele>
        <time>2021-09-28T14:38:00Z</time>
      </trkpt>
      <trkpt lat="41.6350790" lon="-0.9336640">
        <ele>245.8</ele>
        <time>2021-09-28T14:38:11Z</time>
      </trkpt>
      <trkpt lat="41.6354560" lon="-0.9340400">
        <ele>246.0</ele>
        <time>2021-09-28T14:38:21Z</time>
      </trkpt>
      <trkpt lat="41.6354940" lon="-0.9340780">
        <ele>246.0</ele>
        <time>2021-09-28T14:38:22Z</time>
      </trkpt>
      <trkpt lat="41.6358490" lon="-0.9346790">
        <ele>246.6</ele>
        <time>2021-09-28T14:38:34Z</time>
      </trkpt>
      <trkpt lat="41.6360830" lon="-0.9351700">
        <ele>246.8</ele>
        <time>2021-09-28T14:38:43Z</time>
      </trkpt>
      <trkpt lat="41.6363870" lon="-0.9357810">
        <ele>246.8</ele>
        <time>2021-09-28T14:38:54Z</time>
      </trkpt>
      <trkpt lat="41.6367200" lon="-0.9364290">
        <ele>246.4</ele>
        <time>2021-09-28T14:39:05Z</time>
      </trkpt>
      <trkpt lat="41.6368100" lon="-0.9366070">
        <ele>246.4</ele>
        <time>2021-09-28T14:39:08Z</time>
      </trkpt>
      <trkpt lat="41.6371330" lon="-0.9372340">
        <ele>246.2</ele>
        <time>2021-09-28T14:39:19Z</time>
      </trkpt>
      <trkpt lat="41.6374700" lon="-0.9378450">
        <ele>246.0</ele>
        <time>2021-09-28T14:39:30Z</time>
      </trkpt>
      <trkpt lat="41.6375940" lon="-0.9380710">
        <ele>246.0</ele>
        <time>2021-09-28T14:39:34Z</time>
      </trkpt>
      <trkpt lat="41.6379980" lon="-0.9385830">
        <ele>246.0</ele>
        <time>2021-09-28T14:39:45Z</time>
      </trkpt>
      <trkpt lat="41.6384580" lon="-0.9390200">
        <ele>246.2</ele>
        <time>2021-09-28T14:39:56Z</time>
      </trkpt>
      <trkpt lat="41.6388730" lon="-0.9395500">
        <ele>246.0</ele>
        <time>2021-09-28T14:40:07Z</time>
      </trkpt>
      <trkpt lat="41.6392400" lon="-0.9401010">
        <ele>245.6</ele>
        <time>2021-09-28T14:40:18Z</time>
      </trkpt>
      <trkpt lat="41.6393730" lon="-0.9402970">
        <ele>245.6</ele>
        <time>2021-09-28T14:40:22Z</time>
      </trkpt>
      <trkpt lat="41.6397080" lon="-0.9408870">
        <ele>245.6</ele>
        <time>2021-09-28T14:40:33Z</time>
      </trkpt>
      <trkpt lat="41.6398090" lon="-0.9410370">
        <ele>245.6</ele>
        <time>2021-09-28T14:40:36Z</time>
      </trkpt>
      <trkpt lat="41.6399210" lon="-0.9411750">
        <ele>245.6</ele>
        <time>2021-09-28T14:40:39Z</time>
      </trkpt>
      <trkpt lat="41.6400840" lon="-0.9414440">
        <ele>245.4</ele>
        <time>2021-09-28T14:40:44Z</time>
      </trkpt>
      <trkpt lat="41.6402260" lon="-0.9416520">
        <ele>245.4</ele>
        <time>2021-09-28T14:40:48Z</time>
      </trkpt>
      <trkpt lat="41.6405810" lon="-0.9422360">
        <ele>245.8</ele>
        <time>2021-09-28T14:40:59Z</time>
      </trkpt>
      <trkpt lat="41.6409060" lon="-0.9428590">
        <ele>246.2</ele>
        <time>2021-09-28T14:41:10Z</time>
      </trkpt>
      <trkpt lat="41.6409290" lon="-0.9429220">
        <ele>246.2</ele>
        <time>2021-09-28T14:41:11Z</time>
      </trkpt>
      <trkpt lat="41.6410510" lon="-0.9436650">
        <ele>246.4</ele>
        <time>2021-09-28T14:41:22Z</time>
      </trkpt>
      <trkpt lat="41.6411180" lon="-0.9444360">
        <ele>245.8</ele>
        <time>2021-09-28T14:41:33Z</time>
      </trkpt>
      <trkpt lat="41.6411430" lon="-0.9450860">
        <ele>245.4</ele>
        <time>2021-09-28T14:41:42Z</time>
      </trkpt>
      <trkpt lat="41.6411640" lon="-0.9452970">
        <ele>245.4</ele>
        <time>2021-09-28T14:41:45Z</time>
      </trkpt>
      <trkpt lat="41.6411630" lon="-0.9455160">
        <ele>245.4</ele>
        <time>2021-09-28T14:41:48Z</time>
      </trkpt>
      <trkpt lat="41.6411810" lon="-0.9461070">
        <ele>245.2</ele>
        <time>2021-09-28T14:41:56Z</time>
      </trkpt>
      <trkpt lat="41.6412200" lon="-0.9468970">
        <ele>245.4</ele>
        <time>2021-09-28T14:42:07Z</time>
      </trkpt>
      <trkpt lat="41.6411570" lon="-0.9476390">
        <ele>245.2</ele>
        <time>2021-09-28T14:42:17Z</time>
      </trkpt>
      <trkpt lat="41.6411000" lon="-0.9480940">
        <ele>245.0</ele>
        <time>2021-09-28T14:42:23Z</time>
      </trkpt>
      <trkpt lat="41.6409900" lon="-0.9488460">
        <ele>244.8</ele>
        <time>2021-09-28T14:42:33Z</time>
      </trkpt>
      <trkpt lat="41.6408900" lon="-0.9495880">
        <ele>245.8</ele>
        <time>2021-09-28T14:42:44Z</time>
      </trkpt>
      <trkpt lat="41.6407840" lon="-0.9503000">
        <ele>246.2</ele>
        <time>2021-09-28T14:42:55Z</time>
      </trkpt>
      <trkpt lat="41.6406730" lon="-0.9510340">
        <ele>246.6</ele>
        <time>2021-09-28T14:43:07Z</time>
      </trkpt>
      <trkpt lat="41.6405980" lon="-0.9516680">
        <ele>246.8</ele>
        <time>2021-09-28T14:43:17Z</time>
      </trkpt>
      <trkpt lat="41.6404990" lon="-0.9524190">
        <ele>246.8</ele>
        <time>2021-09-28T14:43:29Z</time>
      </trkpt>
      <trkpt lat="41.6404800" lon="-0.9526020">
        <ele>246.8</ele>
        <time>2021-09-28T14:43:32Z</time>
      </trkpt>
      <trkpt lat="41.6403720" lon="-0.9533680">
        <ele>246.6</ele>
        <time>2021-09-28T14:43:44Z</time>
      </trkpt>
      <trkpt lat="41.6402910" lon="-0.9541280">
        <ele>246.4</ele>
        <time>2021-09-28T14:43:56Z</time>
      </trkpt>
      <trkpt lat="41.6402710" lon="-0.9543210">
        <ele>246.4</ele>
        <time>2021-09-28T14:43:59Z</time>
      </trkpt>
      <trkpt lat="41.6402920" lon="-0.9545640">
        <ele>246.0</ele>
        <time>2021-09-28T14:44:03Z</time>
      </trkpt>
      <trkpt lat="41.6403260" lon="-0.9546890">
        <ele>245.8</ele>
        <time>2021-09-28T14:44:05Z</time>
      </trkpt>
      <trkpt lat="41.6403730" lon="-0.9548060">
        <ele>245.8</ele>
        <time>2021-09-28T14:44:07Z</time>
      </trkpt>
      <trkpt lat="41.6404250" lon="-0.9548420">
        <ele>245.8</ele>
        <time>2021-09-28T14:44:08Z</time>
      </trkpt>
      <trkpt lat="41.6406280" lon="-0.9549770">
        <ele>245.4</ele>
        <time>2021-09-28T14:44:12Z</time>
      </trkpt>
      <trkpt lat="41.6409020" lon="-0.9551340">
        <ele>245.2</ele>
        <time>2021-09-28T14:44:17Z</time>
      </trkpt>
      <trkpt lat="41.6412070" lon="-0.9552970">
        <ele>245.0</ele>
        <time>2021-09-28T14:44:23Z</time>
      </trkpt>
      <trkpt lat="41.6414600" lon="-0.9554370">
        <ele>245.4</ele>
        <time>2021-09-28T14:44:28Z</time>
      </trkpt>
      <trkpt lat="41.6419750" lon="-0.9557490">
        <ele>245.8</ele>
        <time>2021-09-28T14:44:38Z</time>
      </trkpt>
      <trkpt lat="41.6423650" lon="-0.9560670">
        <ele>245.6</ele>
        <time>2021-09-28T14:44:46Z</time>
      </trkpt>
      <trkpt lat="41.6425690" lon="-0.9563400">
        <ele>245.4</ele>
        <time>2021-09-28T14:44:51Z</time>
      </trkpt>
      <trkpt lat="41.6428530" lon="-0.9570300">
        <ele>245.2</ele>
        <time>2021-09-28T14:45:01Z</time>
      </trkpt>
      <trkpt lat="41.6430900" lon="-0.9577400">
        <ele>245.2</ele>
        <time>2021-09-28T14:45:11Z</time>
      </trkpt>
      <trkpt lat="41.6432660" lon="-0.9583620">
        <ele>245.2</ele>
        <time>2021-09-28T14:45:19Z</time>
      </trkpt>
      <trkpt lat="41.6435210" lon="-0.9590580">
        <ele>245.0</ele>
        <time>2021-09-28T14:45:28Z</time>
      </trkpt>
      <trkpt lat="41.6436050" lon="-0.9592940">
        <ele>244.8</ele>
        <time>2021-09-28T14:45:31Z</time>
      </trkpt>
      <trkpt lat="41.6438520" lon="-0.9600060">
        <ele>244.4</ele>
        <time>2021-09-28T14:45:40Z</time>
      </trkpt>
      <trkpt lat="41.6441010" lon="-0.9607210">
        <ele>244.4</ele>
        <time>2021-09-28T14:45:49Z</time>
      </trkpt>
      <trkpt lat="41.6443520" lon="-0.9614190">
        <ele>244.6</ele>
        <time>2021-09-28T14:45:58Z</time>
      </trkpt>
      <trkpt lat="41.6445250" lon="-0.9619670">
        <ele>244.8</ele>
        <time>2021-09-28T14:46:05Z</time>
      </trkpt>
      <trkpt lat="41.6447990" lon="-0.9626700">
        <ele>244.8</ele>
        <time>2021-09-28T14:46:14Z</time>
      </trkpt>
      <trkpt lat="41.6452420" lon="-0.9632130">
        <ele>244.8</ele>
        <time>2021-09-28T14:46:23Z</time>
      </trkpt>
      <trkpt lat="41.6456590" lon="-0.9636690">
        <ele>244.6</ele>
        <time>2021-09-28T14:46:31Z</time>
      </trkpt>
      <trkpt lat="41.6461130" lon="-0.9641820">
        <ele>244.6</ele>
        <time>2021-09-28T14:46:40Z</time>
      </trkpt>
      <trkpt lat="41.6465610" lon="-0.9647010">
        <ele>244.8</ele>
        <time>2021-09-28T14:46:49Z</time>
      </trkpt>
      <trkpt lat="41.6467650" lon="-0.9649180">
        <ele>244.6</ele>
        <time>2021-09-28T14:46:53Z</time>
      </trkpt>
      <trkpt lat="41.6469230" lon="-0.9650890">
        <ele>244.6</ele>
        <time>2021-09-28T14:46:56Z</time>
      </trkpt>
      <trkpt lat="41.6470570" lon="-0.9652910">
        <ele>244.2</ele>
        <time>2021-09-28T14:46:59Z</time>
      </trkpt>
      <trkpt lat="41.6471000" lon="-0.9653600">
        <ele>243.6</ele>
        <time>2021-09-28T14:47:00Z</time>
      </trkpt>
      <trkpt lat="41.6473270" lon="-0.9656260">
        <ele>242.8</ele>
        <time>2021-09-28T14:47:05Z</time>
      </trkpt>
      <trkpt lat="41.6474510" lon="-0.9657460">
        <ele>242.8</ele>
        <time>2021-09-28T14:47:08Z</time>
      </trkpt>
      <trkpt lat="41.6476290" lon="-0.9659950">
        <ele>243.2</ele>
        <time>2021-09-28T14:47:13Z</time>
      </trkpt>
      <trkpt lat="41.6476940" lon="-0.9661020">
        <ele>243.8</ele>
        <time>2021-09-28T14:47:15Z</time>
      </trkpt>
      <trkpt lat="41.6477840" lon="-0.9662700">
        <ele>244.4</ele>
        <time>2021-09-28T14:47:18Z</time>
      </trkpt>
      <trkpt lat="41.6479330" lon="-0.9664690">
        <ele>244.4</ele>
        <time>2021-09-28T14:47:22Z</time>
      </trkpt>
      <trkpt lat="41.6480740" lon="-0.9666880">
        <ele>244.8</ele>
        <time>2021-09-28T14:47:26Z</time>
      </trkpt>
      <trkpt lat="41.6484310" lon="-0.9672650">
        <ele>245.2</ele>
        <time>2021-09-28T14:47:36Z</time>
      </trkpt>
      <trkpt lat="41.6485620" lon="-0.9675080">
        <ele>245.2</ele>
        <time>2021-09-28T14:47:40Z</time>
      </trkpt>
      <trkpt lat="41.6488690" lon="-0.9681130">
        <ele>245.0</ele>
        <time>2021-09-28T14:47:50Z</time>
      </trkpt>
      <trkpt lat="41.6491670" lon="-0.9687330">
        <ele>245.0</ele>
        <time>2021-09-28T14:48:00Z</time>
      </trkpt>
      <trkpt lat="41.6494910" lon="-0.9693920">
        <ele>245.0</ele>
        <time>2021-09-28T14:48:11Z</time>
      </trkpt>
      <trkpt lat="41.6497890" lon="-0.9700420">
        <ele>244.6</ele>
        <time>2021-09-28T14:48:21Z</time>
      </trkpt>
      <trkpt lat="41.6499870" lon="-0.9704920">
        <ele>244.6</ele>
        <time>2021-09-28T14:48:28Z</time>
      </trkpt>
      <trkpt lat="41.6502100" lon="-0.9711850">
        <ele>244.6</ele>
        <time>2021-09-28T14:48:38Z</time>
      </trkpt>
      <trkpt lat="41.6504160" lon="-0.9718700">
        <ele>244.6</ele>
        <time>2021-09-28T14:48:48Z</time>
      </trkpt>
      <trkpt lat="41.6506230" lon="-0.9725780">
        <ele>244.6</ele>
        <time>2021-09-28T14:48:58Z</time>
      </trkpt>
      <trkpt lat="41.6508430" lon="-0.9732740">
        <ele>244.6</ele>
        <time>2021-09-28T14:49:08Z</time>
      </trkpt>
      <trkpt lat="41.6510410" lon="-0.9738160">
        <ele>244.4</ele>
        <time>2021-09-28T14:49:16Z</time>
      </trkpt>
      <trkpt lat="41.6513030" lon="-0.9744760">
        <ele>244.4</ele>
        <time>2021-09-28T14:49:26Z</time>
      </trkpt>
      <trkpt lat="41.6515890" lon="-0.9751230">
        <ele>244.6</ele>
        <time>2021-09-28T14:49:36Z</time>
      </trkpt>
      <trkpt lat="41.6518190" lon="-0.9756340">
        <ele>244.8</ele>
        <time>2021-09-28T14:49:44Z</time>
      </trkpt>
      <trkpt lat="41.6520660" lon="-0.9762590">
        <ele>245.0</ele>
        <time>2021-09-28T14:49:53Z</time>
      </trkpt>
      <trkpt lat="41.6523110" lon="-0.9769390">
        <ele>244.6</ele>
        <time>2021-09-28T14:50:03Z</time>
      </trkpt>
      <trkpt lat="41.6525540" lon="-0.9776250">
        <ele>244.6</ele>
        <time>2021-09-28T14:50:13Z</time>
      </trkpt>
      <trkpt lat="41.6528290" lon="-0.9782970">
        <ele>244.6</ele>
        <time>2021-09-28T14:50:23Z</time>
      </trkpt>
      <trkpt lat="41.6531960" lon="-0.9788970">
        <ele>244.4</ele>
        <time>2021-09-28T14:50:33Z</time>
      </trkpt>
      <trkpt lat="41.6535800" lon="-0.9794670">
        <ele>244.6</ele>
        <time>2021-09-28T14:50:43Z</time>
      </trkpt>
      <trkpt lat="41.6538790" lon="-0.9798950">
        <ele>244.6</ele>
        <time>2021-09-28T14:50:51Z</time>
      </trkpt>
      <trkpt lat="41.6541790" lon="-0.9804010">
        <ele>244.8</ele>
        <time>2021-09-28T14:51:00Z</time>
      </trkpt>
      <trkpt lat="41.6544970" lon="-0.9810630">
        <ele>244.8</ele>
        <time>2021-09-28T14:51:11Z</time>
      </trkpt>
      <trkpt lat="41.6547820" lon="-0.9817090">
        <ele>244.8</ele>
        <time>2021-09-28T14:51:22Z</time>
      </trkpt>
      <trkpt lat="41.6550900" lon="-0.9823790">
        <ele>240.0</ele>
        <time>2021-09-28T14:51:33Z</time>
      </trkpt>
      <trkpt lat="41.6553910" lon="-0.9829980">
        <ele>244.8</ele>
        <time>2021-09-28T14:51:43Z</time>
      </trkpt>
      <trkpt lat="41.6556560" lon="-0.9836660">
        <ele>244.6</ele>
        <time>2021-09-28T14:51:53Z</time>
      </trkpt>
      <trkpt lat="41.6558250" lon="-0.9843790">
        <ele>244.6</ele>
        <time>2021-09-28T14:52:03Z</time>
      </trkpt>
      <trkpt lat="41.6559870" lon="-0.9851200">
        <ele>244.4</ele>
        <time>2021-09-28T14:52:13Z</time>
      </trkpt>
      <trkpt lat="41.6560730" lon="-0.9854910">
        <ele>244.4</ele>
        <time>2021-09-28T14:52:18Z</time>
      </trkpt>
      <trkpt lat="41.6560900" lon="-0.9855650">
        <ele>244.4</ele>
        <time>2021-09-28T14:52:19Z</time>
      </trkpt>
      <trkpt lat="41.6562530" lon="-0.9863090">
        <ele>244.2</ele>
        <time>2021-09-28T14:52:29Z</time>
      </trkpt>
      <trkpt lat="41.6564010" lon="-0.9870360">
        <ele>244.2</ele>
        <time>2021-09-28T14:52:39Z</time>
      </trkpt>
      <trkpt lat="41.6565590" lon="-0.9877640">
        <ele>244.6</ele>
        <time>2021-09-28T14:52:49Z</time>
      </trkpt>
      <trkpt lat="41.6567320" lon="-0.9884970">
        <ele>244.6</ele>
        <time>2021-09-28T14:52:59Z</time>
      </trkpt>
      <trkpt lat="41.6569120" lon="-0.9892260">
        <ele>244.4</ele>
        <time>2021-09-28T14:53:09Z</time>
      </trkpt>
      <trkpt lat="41.6571020" lon="-0.9899570">
        <ele>244.4</ele>
        <time>2021-09-28T14:53:19Z</time>
      </trkpt>
      <trkpt lat="41.6571990" lon="-0.9903340">
        <ele>244.4</ele>
        <time>2021-09-28T14:53:24Z</time>
      </trkpt>
      <trkpt lat="41.6572820" lon="-0.9906320">
        <ele>244.4</ele>
        <time>2021-09-28T14:53:28Z</time>
      </trkpt>
      <trkpt lat="41.6574850" lon="-0.9913610">
        <ele>244.4</ele>
        <time>2021-09-28T14:53:38Z</time>
      </trkpt>
      <trkpt lat="41.6577080" lon="-0.9920890">
        <ele>244.6</ele>
        <time>2021-09-28T14:53:48Z</time>
      </trkpt>
      <trkpt lat="41.6579480" lon="-0.9928060">
        <ele>244.6</ele>
        <time>2021-09-28T14:53:58Z</time>
      </trkpt>
      <trkpt lat="41.6582050" lon="-0.9935160">
        <ele>244.6</ele>
        <time>2021-09-28T14:54:08Z</time>
      </trkpt>
      <trkpt lat="41.6584910" lon="-0.9942060">
        <ele>244.6</ele>
        <time>2021-09-28T14:54:18Z</time>
      </trkpt>
      <trkpt lat="41.6586080" lon="-0.9944720">
        <ele>244.6</ele>
        <time>2021-09-28T14:54:22Z</time>
      </trkpt>
      <trkpt lat="41.6589170" lon="-0.9951500">
        <ele>244.6</ele>
        <time>2021-09-28T14:54:32Z</time>
      </trkpt>
      <trkpt lat="41.6591970" lon="-0.9957720">
        <ele>244.4</ele>
        <time>2021-09-28T14:54:41Z</time>
      </trkpt>
      <trkpt lat="41.6594920" lon="-0.9964570">
        <ele>244.2</ele>
        <time>2021-09-28T14:54:51Z</time>
      </trkpt>
      <trkpt lat="41.6597880" lon="-0.9971310">
        <ele>244.4</ele>
        <time>2021-09-28T14:55:01Z</time>
      </trkpt>
      <trkpt lat="41.6600740" lon="-0.9977470">
        <ele>244.6</ele>
        <time>2021-09-28T14:55:10Z</time>
      </trkpt>
      <trkpt lat="41.6604130" lon="-0.9984050">
        <ele>244.6</ele>
        <time>2021-09-28T14:55:20Z</time>
      </trkpt>
      <trkpt lat="41.6607520" lon="-0.9990610">
        <ele>244.6</ele>
        <time>2021-09-28T14:55:30Z</time>
      </trkpt>
      <trkpt lat="41.6610700" lon="-0.9996460">
        <ele>244.8</ele>
        <time>2021-09-28T14:55:39Z</time>
      </trkpt>
      <trkpt lat="41.6614350" lon="-1.0002710">
        <ele>245.0</ele>
        <time>2021-09-28T14:55:49Z</time>
      </trkpt>
      <trkpt lat="41.6618000" lon="-1.0008770">
        <ele>245.0</ele>
        <time>2021-09-28T14:55:59Z</time>
      </trkpt>
      <trkpt lat="41.6621670" lon="-1.0014790">
        <ele>245.0</ele>
        <time>2021-09-28T14:56:09Z</time>
      </trkpt>
      <trkpt lat="41.6625460" lon="-1.0021000">
        <ele>245.0</ele>
        <time>2021-09-28T14:56:19Z</time>
      </trkpt>
      <trkpt lat="41.6627560" lon="-1.0024050">
        <ele>244.8</ele>
        <time>2021-09-28T14:56:24Z</time>
      </trkpt>
      <trkpt lat="41.6631110" lon="-1.0029760">
        <ele>244.6</ele>
        <time>2021-09-28T14:56:33Z</time>
      </trkpt>
      <trkpt lat="41.6634740" lon="-1.0035900">
        <ele>244.4</ele>
        <time>2021-09-28T14:56:42Z</time>
      </trkpt>
      <trkpt lat="41.6638670" lon="-1.0041820">
        <ele>244.2</ele>
        <time>2021-09-28T14:56:51Z</time>
      </trkpt>
      <trkpt lat="41.6642980" lon="-1.0047380">
        <ele>244.0</ele>
        <time>2021-09-28T14:57:00Z</time>
      </trkpt>
      <trkpt lat="41.6647280" lon="-1.0052990">
        <ele>244.2</ele>
        <time>2021-09-28T14:57:09Z</time>
      </trkpt>
      <trkpt lat="41.6651550" lon="-1.0058470">
        <ele>244.2</ele>
        <time>2021-09-28T14:57:18Z</time>
      </trkpt>
      <trkpt lat="41.6655020" lon="-1.0064640">
        <ele>244.2</ele>
        <time>2021-09-28T14:57:27Z</time>
      </trkpt>
      <trkpt lat="41.6657910" lon="-1.0071350">
        <ele>244.0</ele>
        <time>2021-09-28T14:57:36Z</time>
      </trkpt>
      <trkpt lat="41.6660810" lon="-1.0078040">
        <ele>243.8</ele>
        <time>2021-09-28T14:57:45Z</time>
      </trkpt>
      <trkpt lat="41.6661770" lon="-1.0080270">
        <ele>243.8</ele>
        <time>2021-09-28T14:57:48Z</time>
      </trkpt>
      <trkpt lat="41.6664670" lon="-1.0087030">
        <ele>243.8</ele>
        <time>2021-09-28T14:57:57Z</time>
      </trkpt>
      <trkpt lat="41.6667600" lon="-1.0093810">
        <ele>243.8</ele>
        <time>2021-09-28T14:58:06Z</time>
      </trkpt>
      <trkpt lat="41.6670560" lon="-1.0100530">
        <ele>243.6</ele>
        <time>2021-09-28T14:58:15Z</time>
      </trkpt>
      <trkpt lat="41.6673470" lon="-1.0107250">
        <ele>243.6</ele>
        <time>2021-09-28T14:58:24Z</time>
      </trkpt>
      <trkpt lat="41.6676430" lon="-1.0114100">
        <ele>244.0</ele>
        <time>2021-09-28T14:58:33Z</time>
      </trkpt>
      <trkpt lat="41.6679420" lon="-1.0120830">
        <ele>244.0</ele>
        <time>2021-09-28T14:58:42Z</time>
      </trkpt>
      <trkpt lat="41.6682320" lon="-1.0127560">
        <ele>244.2</ele>
        <time>2021-09-28T14:58:51Z</time>
      </trkpt>
      <trkpt lat="41.6685180" lon="-1.0134090">
        <ele>244.2</ele>
        <time>2021-09-28T14:59:00Z</time>
      </trkpt>
      <trkpt lat="41.6686780" lon="-1.0137710">
        <ele>244.2</ele>
        <time>2021-09-28T14:59:05Z</time>
      </trkpt>
      <trkpt lat="41.6689800" lon="-1.0144580">
        <ele>244.0</ele>
        <time>2021-09-28T14:59:14Z</time>
      </trkpt>
      <trkpt lat="41.6691210" lon="-1.0147730">
        <ele>244.0</ele>
        <time>2021-09-28T14:59:18Z</time>
      </trkpt>
      <trkpt lat="41.6692880" lon="-1.0151540">
        <ele>243.6</ele>
        <time>2021-09-28T14:59:23Z</time>
      </trkpt>
      <trkpt lat="41.6695810" lon="-1.0158190">
        <ele>243.4</ele>
        <time>2021-09-28T14:59:32Z</time>
      </trkpt>
      <trkpt lat="41.6698770" lon="-1.0164960">
        <ele>243.4</ele>
        <time>2021-09-28T14:59:41Z</time>
      </trkpt>
      <trkpt lat="41.6701080" lon="-1.0170210">
        <ele>243.4</ele>
        <time>2021-09-28T14:59:48Z</time>
      </trkpt>
      <trkpt lat="41.6704140" lon="-1.0177000">
        <ele>243.4</ele>
        <time>2021-09-28T14:59:57Z</time>
      </trkpt>
      <trkpt lat="41.6706610" lon="-1.0184150">
        <ele>243.4</ele>
        <time>2021-09-28T15:00:06Z</time>
      </trkpt>
      <trkpt lat="41.6708300" lon="-1.0191620">
        <ele>243.4</ele>
        <time>2021-09-28T15:00:15Z</time>
      </trkpt>
      <trkpt lat="41.6709850" lon="-1.0199220">
        <ele>243.6</ele>
        <time>2021-09-28T15:00:24Z</time>
      </trkpt>
      <trkpt lat="41.6711350" lon="-1.0206720">
        <ele>243.6</ele>
        <time>2021-09-28T15:00:33Z</time>
      </trkpt>
      <trkpt lat="41.6712930" lon="-1.0214210">
        <ele>243.6</ele>
        <time>2021-09-28T15:00:42Z</time>
      </trkpt>
      <trkpt lat="41.6714720" lon="-1.0221810">
        <ele>243.6</ele>
        <time>2021-09-28T15:00:51Z</time>
      </trkpt>
      <trkpt lat="41.6716630" lon="-1.0229300">
        <ele>243.6</ele>
        <time>2021-09-28T15:01:00Z</time>
      </trkpt>
      <trkpt lat="41.6718590" lon="-1.0236660">
        <ele>243.8</ele>
        <time>2021-09-28T15:01:09Z</time>
      </trkpt>
      <trkpt lat="41.6720600" lon="-1.0244040">
        <ele>244.0</ele>
        <time>2021-09-28T15:01:18Z</time>
      </trkpt>
      <trkpt lat="41.6722630" lon="-1.0251420">
        <ele>243.8</ele>
        <time>2021-09-28T15:01:27Z</time>
      </trkpt>
      <trkpt lat="41.6724640" lon="-1.0258560">
        <ele>243.4</ele>
        <time>2021-09-28T15:01:36Z</time>
      </trkpt>
      <trkpt lat="41.6726630" lon="-1.0263960">
        <ele>243.6</ele>
        <time>2021-09-28T15:01:43Z</time>
      </trkpt>
      <trkpt lat="41.6729800" lon="-1.0270680">
        <ele>243.6</ele>
        <time>2021-09-28T15:01:52Z</time>
      </trkpt>
      <trkpt lat="41.6733020" lon="-1.0277100">
        <ele>243.4</ele>
        <time>2021-09-28T15:02:01Z</time>
      </trkpt>
      <trkpt lat="41.6735980" lon="-1.0283670">
        <ele>243.4</ele>
        <time>2021-09-28T15:02:10Z</time>
      </trkpt>
      <trkpt lat="41.6738830" lon="-1.0290440">
        <ele>243.2</ele>
        <time>2021-09-28T15:02:19Z</time>
      </trkpt>
      <trkpt lat="41.6740760" lon="-1.0295010">
        <ele>243.4</ele>
        <time>2021-09-28T15:02:25Z</time>
      </trkpt>
      <trkpt lat="41.6743440" lon="-1.0302210">
        <ele>243.4</ele>
        <time>2021-09-28T15:02:34Z</time>
      </trkpt>
      <trkpt lat="41.6745100" lon="-1.0309080">
        <ele>243.2</ele>
        <time>2021-09-28T15:02:42Z</time>
      </trkpt>
      <trkpt lat="41.6746720" lon="-1.0316640">
        <ele>243.0</ele>
        <time>2021-09-28T15:02:51Z</time>
      </trkpt>
      <trkpt lat="41.6748180" lon="-1.0324310">
        <ele>243.2</ele>
        <time>2021-09-28T15:03:00Z</time>
      </trkpt>
      <trkpt lat="41.6749310" lon="-1.0332010">
        <ele>243.4</ele>
        <time>2021-09-28T15:03:09Z</time>
      </trkpt>
      <trkpt lat="41.6749580" lon="-1.0335320">
        <ele>243.6</ele>
        <time>2021-09-28T15:03:13Z</time>
      </trkpt>
      <trkpt lat="41.6751320" lon="-1.0342340">
        <ele>243.6</ele>
        <time>2021-09-28T15:03:22Z</time>
      </trkpt>
      <trkpt lat="41.6752440" lon="-1.0349830">
        <ele>243.4</ele>
        <time>2021-09-28T15:03:31Z</time>
      </trkpt>
      <trkpt lat="41.6753310" lon="-1.0357500">
        <ele>243.4</ele>
        <time>2021-09-28T15:03:40Z</time>
      </trkpt>
      <trkpt lat="41.6753890" lon="-1.0362650">
        <ele>243.4</ele>
        <time>2021-09-28T15:03:46Z</time>
      </trkpt>
      <trkpt lat="41.6754280" lon="-1.0366090">
        <ele>243.4</ele>
        <time>2021-09-28T15:03:50Z</time>
      </trkpt>
      <trkpt lat="41.6755130" lon="-1.0373810">
        <ele>243.4</ele>
        <time>2021-09-28T15:03:59Z</time>
      </trkpt>
      <trkpt lat="41.6755980" lon="-1.0381460">
        <ele>243.4</ele>
        <time>2021-09-28T15:04:08Z</time>
      </trkpt>
      <trkpt lat="41.6756860" lon="-1.0389080">
        <ele>243.4</ele>
        <time>2021-09-28T15:04:17Z</time>
      </trkpt>
      <trkpt lat="41.6757730" lon="-1.0396780">
        <ele>243.4</ele>
        <time>2021-09-28T15:04:26Z</time>
      </trkpt>
      <trkpt lat="41.6758590" lon="-1.0404550">
        <ele>243.4</ele>
        <time>2021-09-28T15:04:35Z</time>
      </trkpt>
      <trkpt lat="41.6758890" lon="-1.0407140">
        <ele>243.4</ele>
        <time>2021-09-28T15:04:38Z</time>
      </trkpt>
      <trkpt lat="41.6759680" lon="-1.0414840">
        <ele>243.4</ele>
        <time>2021-09-28T15:04:47Z</time>
      </trkpt>
      <trkpt lat="41.6760310" lon="-1.0422680">
        <ele>243.6</ele>
        <time>2021-09-28T15:04:56Z</time>
      </trkpt>
      <trkpt lat="41.6760680" lon="-1.0430570">
        <ele>243.4</ele>
        <time>2021-09-28T15:05:05Z</time>
      </trkpt>
      <trkpt lat="41.6760790" lon="-1.0433050">
        <ele>243.4</ele>
        <time>2021-09-28T15:05:08Z</time>
      </trkpt>
      <trkpt lat="41.6761210" lon="-1.0440570">
        <ele>243.6</ele>
        <time>2021-09-28T15:05:17Z</time>
      </trkpt>
      <trkpt lat="41.6761930" lon="-1.0448150">
        <ele>243.4</ele>
        <time>2021-09-28T15:05:26Z</time>
      </trkpt>
      <trkpt lat="41.6763340" lon="-1.0453660">
        <ele>243.4</ele>
        <time>2021-09-28T15:05:33Z</time>
      </trkpt>
      <trkpt lat="41.6766610" lon="-1.0459880">
        <ele>243.6</ele>
        <time>2021-09-28T15:05:42Z</time>
      </trkpt>
      <trkpt lat="41.6768790" lon="-1.0463170">
        <ele>243.6</ele>
        <time>2021-09-28T15:05:47Z</time>
      </trkpt>
      <trkpt lat="41.6772730" lon="-1.0469080">
        <ele>243.4</ele>
        <time>2021-09-28T15:05:56Z</time>
      </trkpt>
      <trkpt lat="41.6776200" lon="-1.0475490">
        <ele>243.4</ele>
        <time>2021-09-28T15:06:05Z</time>
      </trkpt>
      <trkpt lat="41.6778850" lon="-1.0481770">
        <ele>243.4</ele>
        <time>2021-09-28T15:06:13Z</time>
      </trkpt>
      <trkpt lat="41.6781370" lon="-1.0488240">
        <ele>243.4</ele>
        <time>2021-09-28T15:06:21Z</time>
      </trkpt>
      <trkpt lat="41.6783280" lon="-1.0492970">
        <ele>243.2</ele>
        <time>2021-09-28T15:06:27Z</time>
      </trkpt>
      <trkpt lat="41.6786000" lon="-1.0500180">
        <ele>242.6</ele>
        <time>2021-09-28T15:06:36Z</time>
      </trkpt>
      <trkpt lat="41.6788500" lon="-1.0506700">
        <ele>242.4</ele>
        <time>2021-09-28T15:06:44Z</time>
      </trkpt>
      <trkpt lat="41.6791200" lon="-1.0513770">
        <ele>242.4</ele>
        <time>2021-09-28T15:06:53Z</time>
      </trkpt>
      <trkpt lat="41.6793860" lon="-1.0520740">
        <ele>242.8</ele>
        <time>2021-09-28T15:07:02Z</time>
      </trkpt>
      <trkpt lat="41.6796570" lon="-1.0527920">
        <ele>242.8</ele>
        <time>2021-09-28T15:07:11Z</time>
      </trkpt>
      <trkpt lat="41.6798670" lon="-1.0533430">
        <ele>242.8</ele>
        <time>2021-09-28T15:07:18Z</time>
      </trkpt>
      <trkpt lat="41.6800170" lon="-1.0537400">
        <ele>242.6</ele>
        <time>2021-09-28T15:07:23Z</time>
      </trkpt>
      <trkpt lat="41.6802800" lon="-1.0544450">
        <ele>242.8</ele>
        <time>2021-09-28T15:07:32Z</time>
      </trkpt>
      <trkpt lat="41.6805460" lon="-1.0551460">
        <ele>243.0</ele>
        <time>2021-09-28T15:07:41Z</time>
      </trkpt>
      <trkpt lat="41.6808270" lon="-1.0558300">
        <ele>243.0</ele>
        <time>2021-09-28T15:07:50Z</time>
      </trkpt>
      <trkpt lat="41.6811750" lon="-1.0564780">
        <ele>243.0</ele>
        <time>2021-09-28T15:07:59Z</time>
      </trkpt>
      <trkpt lat="41.6815140" lon="-1.0571260">
        <ele>242.8</ele>
        <time>2021-09-28T15:08:08Z</time>
      </trkpt>
      <trkpt lat="41.6818080" lon="-1.0578050">
        <ele>242.8</ele>
        <time>2021-09-28T15:08:17Z</time>
      </trkpt>
      <trkpt lat="41.6821830" lon="-1.0583860">
        <ele>243.0</ele>
        <time>2021-09-28T15:08:26Z</time>
      </trkpt>
      <trkpt lat="41.6823970" lon="-1.0585770">
        <ele>243.0</ele>
        <time>2021-09-28T15:08:30Z</time>
      </trkpt>
      <trkpt lat="41.6826490" lon="-1.0586780">
        <ele>243.0</ele>
        <time>2021-09-28T15:08:34Z</time>
      </trkpt>
      <trkpt lat="41.6832310" lon="-1.0588450">
        <ele>242.8</ele>
        <time>2021-09-28T15:08:43Z</time>
      </trkpt>
      <trkpt lat="41.6832930" lon="-1.0588780">
        <ele>242.8</ele>
        <time>2021-09-28T15:08:44Z</time>
      </trkpt>
      <trkpt lat="41.6835620" lon="-1.0591350">
        <ele>242.8</ele>
        <time>2021-09-28T15:08:49Z</time>
      </trkpt>
      <trkpt lat="41.6839010" lon="-1.0597870">
        <ele>242.8</ele>
        <time>2021-09-28T15:08:58Z</time>
      </trkpt>
      <trkpt lat="41.6841100" lon="-1.0604160">
        <ele>243.0</ele>
        <time>2021-09-28T15:09:06Z</time>
      </trkpt>
      <trkpt lat="41.6843510" lon="-1.0611190">
        <ele>242.8</ele>
        <time>2021-09-28T15:09:15Z</time>
      </trkpt>
      <trkpt lat="41.6844860" lon="-1.0618920">
        <ele>242.6</ele>
        <time>2021-09-28T15:09:24Z</time>
      </trkpt>
      <trkpt lat="41.6845890" lon="-1.0626630">
        <ele>242.8</ele>
        <time>2021-09-28T15:09:33Z</time>
      </trkpt>
      <trkpt lat="41.6845160" lon="-1.0634370">
        <ele>242.8</ele>
        <time>2021-09-28T15:09:42Z</time>
      </trkpt>
      <trkpt lat="41.6842510" lon="-1.0640420">
        <ele>243.0</ele>
        <time>2021-09-28T15:09:50Z</time>
      </trkpt>
      <trkpt lat="41.6839650" lon="-1.0647030">
        <ele>243.2</ele>
        <time>2021-09-28T15:09:59Z</time>
      </trkpt>
      <trkpt lat="41.6839170" lon="-1.0654610">
        <ele>243.2</ele>
        <time>2021-09-28T15:10:08Z</time>
      </trkpt>
      <trkpt lat="41.6841620" lon="-1.0661590">
        <ele>242.6</ele>
        <time>2021-09-28T15:10:17Z</time>
      </trkpt>
      <trkpt lat="41.6844960" lon="-1.0667910">
        <ele>242.4</ele>
        <time>2021-09-28T15:10:26Z</time>
      </trkpt>
      <trkpt lat="41.6848260" lon="-1.0674160">
        <ele>242.6</ele>
        <time>2021-09-28T15:10:35Z</time>
      </trkpt>
      <trkpt lat="41.6851510" lon="-1.0680400">
        <ele>242.2</ele>
        <time>2021-09-28T15:10:44Z</time>
      </trkpt>
      <trkpt lat="41.6853080" lon="-1.0687680">
        <ele>242.4</ele>
        <time>2021-09-28T15:10:53Z</time>
      </trkpt>
      <trkpt lat="41.6853060" lon="-1.0689370">
        <ele>242.4</ele>
        <time>2021-09-28T15:10:55Z</time>
      </trkpt>
      <trkpt lat="41.6852760" lon="-1.0691090">
        <ele>242.0</ele>
        <time>2021-09-28T15:10:57Z</time>
      </trkpt>
      <trkpt lat="41.6852320" lon="-1.0692770">
        <ele>242.4</ele>
        <time>2021-09-28T15:10:59Z</time>
      </trkpt>
      <trkpt lat="41.6850040" lon="-1.0699490">
        <ele>243.0</ele>
        <time>2021-09-28T15:11:08Z</time>
      </trkpt>
      <trkpt lat="41.6849210" lon="-1.0704280">
        <ele>243.2</ele>
        <time>2021-09-28T15:11:14Z</time>
      </trkpt>
      <trkpt lat="41.6850200" lon="-1.0711480">
        <ele>243.0</ele>
        <time>2021-09-28T15:11:23Z</time>
      </trkpt>
      <trkpt lat="41.6850870" lon="-1.0717810">
        <ele>243.0</ele>
        <time>2021-09-28T15:11:31Z</time>
      </trkpt>
      <trkpt lat="41.6850340" lon="-1.0725660">
        <ele>243.2</ele>
        <time>2021-09-28T15:11:41Z</time>
      </trkpt>
      <trkpt lat="41.6850140" lon="-1.0729670">
        <ele>243.4</ele>
        <time>2021-09-28T15:11:46Z</time>
      </trkpt>
      <trkpt lat="41.6850690" lon="-1.0736120">
        <ele>243.4</ele>
        <time>2021-09-28T15:11:54Z</time>
      </trkpt>
      <trkpt lat="41.6852200" lon="-1.0743840">
        <ele>243.6</ele>
        <time>2021-09-28T15:12:04Z</time>
      </trkpt>
      <trkpt lat="41.6853630" lon="-1.0750810">
        <ele>243.8</ele>
        <time>2021-09-28T15:12:13Z</time>
      </trkpt>
      <trkpt lat="41.6855090" lon="-1.0757790">
        <ele>243.6</ele>
        <time>2021-09-28T15:12:22Z</time>
      </trkpt>
      <trkpt lat="41.6855730" lon="-1.0760880">
        <ele>243.4</ele>
        <time>2021-09-28T15:12:26Z</time>
      </trkpt>
      <trkpt lat="41.6857180" lon="-1.0767860">
        <ele>243.4</ele>
        <time>2021-09-28T15:12:35Z</time>
      </trkpt>
      <trkpt lat="41.6859150" lon="-1.0774430">
        <ele>243.4</ele>
        <time>2021-09-28T15:12:44Z</time>
      </trkpt>
      <trkpt lat="41.6860700" lon="-1.0776820">
        <ele>243.8</ele>
        <time>2021-09-28T15:12:48Z</time>
      </trkpt>
      <trkpt lat="41.6863210" lon="-1.0779130">
        <ele>243.8</ele>
        <time>2021-09-28T15:12:53Z</time>
      </trkpt>
      <trkpt lat="41.6868350" lon="-1.0782220">
        <ele>243.6</ele>
        <time>2021-09-28T15:13:02Z</time>
      </trkpt>
      <trkpt lat="41.6873320" lon="-1.0785660">
        <ele>243.0</ele>
        <time>2021-09-28T15:13:11Z</time>
      </trkpt>
      <trkpt lat="41.6877910" lon="-1.0790710">
        <ele>243.0</ele>
        <time>2021-09-28T15:13:21Z</time>
      </trkpt>
      <trkpt lat="41.6881310" lon="-1.0796690">
        <ele>243.6</ele>
        <time>2021-09-28T15:13:31Z</time>
      </trkpt>
      <trkpt lat="41.6884280" lon="-1.0802900">
        <ele>243.6</ele>
        <time>2021-09-28T15:13:40Z</time>
      </trkpt>
      <trkpt lat="41.6887340" lon="-1.0809300">
        <ele>243.2</ele>
        <time>2021-09-28T15:13:49Z</time>
      </trkpt>
      <trkpt lat="41.6890240" lon="-1.0815560">
        <ele>243.4</ele>
        <time>2021-09-28T15:13:58Z</time>
      </trkpt>
      <trkpt lat="41.6893320" lon="-1.0821720">
        <ele>244.0</ele>
        <time>2021-09-28T15:14:07Z</time>
      </trkpt>
      <trkpt lat="41.6895520" lon="-1.0828730">
        <ele>243.6</ele>
        <time>2021-09-28T15:14:16Z</time>
      </trkpt>
      <trkpt lat="41.6896640" lon="-1.0833460">
        <ele>243.4</ele>
        <time>2021-09-28T15:14:22Z</time>
      </trkpt>
      <trkpt lat="41.6898270" lon="-1.0840670">
        <ele>243.4</ele>
        <time>2021-09-28T15:14:31Z</time>
      </trkpt>
      <trkpt lat="41.6899960" lon="-1.0847820">
        <ele>243.4</ele>
        <time>2021-09-28T15:14:40Z</time>
      </trkpt>
      <trkpt lat="41.6901660" lon="-1.0854990">
        <ele>243.4</ele>
        <time>2021-09-28T15:14:49Z</time>
      </trkpt>
      <trkpt lat="41.6903360" lon="-1.0862130">
        <ele>243.4</ele>
        <time>2021-09-28T15:14:58Z</time>
      </trkpt>
      <trkpt lat="41.6905040" lon="-1.0869320">
        <ele>243.4</ele>
        <time>2021-09-28T15:15:07Z</time>
      </trkpt>
      <trkpt lat="41.6906730" lon="-1.0876560">
        <ele>243.4</ele>
        <time>2021-09-28T15:15:16Z</time>
      </trkpt>
      <trkpt lat="41.6908570" lon="-1.0883630">
        <ele>243.2</ele>
        <time>2021-09-28T15:15:25Z</time>
      </trkpt>
      <trkpt lat="41.6911010" lon="-1.0890250">
        <ele>243.0</ele>
        <time>2021-09-28T15:15:34Z</time>
      </trkpt>
      <trkpt lat="41.6914040" lon="-1.0896480">
        <ele>243.4</ele>
        <time>2021-09-28T15:15:43Z</time>
      </trkpt>
      <trkpt lat="41.6917170" lon="-1.0902810">
        <ele>243.4</ele>
        <time>2021-09-28T15:15:52Z</time>
      </trkpt>
      <trkpt lat="41.6920290" lon="-1.0909020">
        <ele>243.2</ele>
        <time>2021-09-28T15:16:01Z</time>
      </trkpt>
      <trkpt lat="41.6923320" lon="-1.0915150">
        <ele>243.2</ele>
        <time>2021-09-28T15:16:10Z</time>
      </trkpt>
      <trkpt lat="41.6926880" lon="-1.0920590">
        <ele>243.2</ele>
        <time>2021-09-28T15:16:19Z</time>
      </trkpt>
      <trkpt lat="41.6931290" lon="-1.0924990">
        <ele>243.0</ele>
        <time>2021-09-28T15:16:28Z</time>
      </trkpt>
      <trkpt lat="41.6935950" lon="-1.0929160">
        <ele>243.0</ele>
        <time>2021-09-28T15:16:37Z</time>
      </trkpt>
      <trkpt lat="41.6940640" lon="-1.0933320">
        <ele>242.8</ele>
        <time>2021-09-28T15:16:46Z</time>
      </trkpt>
      <trkpt lat="41.6944310" lon="-1.0936580">
        <ele>242.8</ele>
        <time>2021-09-28T15:16:53Z</time>
      </trkpt>
      <trkpt lat="41.6948990" lon="-1.0940740">
        <ele>243.2</ele>
        <time>2021-09-28T15:17:02Z</time>
      </trkpt>
      <trkpt lat="41.6953630" lon="-1.0944930">
        <ele>243.2</ele>
        <time>2021-09-28T15:17:11Z</time>
      </trkpt>
      <trkpt lat="41.6958290" lon="-1.0949100">
        <ele>243.2</ele>
        <time>2021-09-28T15:17:20Z</time>
      </trkpt>
      <trkpt lat="41.6962880" lon="-1.0953200">
        <ele>243.0</ele>
        <time>2021-09-28T15:17:29Z</time>
      </trkpt>
      <trkpt lat="41.6967820" lon="-1.0957620">
        <ele>242.8</ele>
        <time>2021-09-28T15:17:39Z</time>
      </trkpt>
      <trkpt lat="41.6972290" lon="-1.0961670">
        <ele>243.0</ele>
        <time>2021-09-28T15:17:48Z</time>
      </trkpt>
      <trkpt lat="41.6976770" lon="-1.0965750">
        <ele>243.0</ele>
        <time>2021-09-28T15:17:57Z</time>
      </trkpt>
      <trkpt lat="41.6979330" lon="-1.0968050">
        <ele>243.0</ele>
        <time>2021-09-28T15:18:02Z</time>
      </trkpt>
      <trkpt lat="41.6981920" lon="-1.0970410">
        <ele>243.0</ele>
        <time>2021-09-28T15:18:07Z</time>
      </trkpt>
      <trkpt lat="41.6986700" lon="-1.0974710">
        <ele>243.0</ele>
        <time>2021-09-28T15:18:16Z</time>
      </trkpt>
      <trkpt lat="41.6991370" lon="-1.0978890">
        <ele>243.0</ele>
        <time>2021-09-28T15:18:25Z</time>
      </trkpt>
      <trkpt lat="41.6995940" lon="-1.0982910">
        <ele>243.0</ele>
        <time>2021-09-28T15:18:34Z</time>
      </trkpt>
      <trkpt lat="41.7000780" lon="-1.0986490">
        <ele>243.4</ele>
        <time>2021-09-28T15:18:43Z</time>
      </trkpt>
      <trkpt lat="41.7005600" lon="-1.0990140">
        <ele>243.2</ele>
        <time>2021-09-28T15:18:52Z</time>
      </trkpt>
      <trkpt lat="41.7009520" lon="-1.0995450">
        <ele>243.2</ele>
        <time>2021-09-28T15:19:01Z</time>
      </trkpt>
      <trkpt lat="41.7013910" lon="-1.1000070">
        <ele>243.2</ele>
        <time>2021-09-28T15:19:10Z</time>
      </trkpt>
      <trkpt lat="41.7018690" lon="-1.1003820">
        <ele>243.4</ele>
        <time>2021-09-28T15:19:19Z</time>
      </trkpt>
      <trkpt lat="41.7022800" lon="-1.1008920">
        <ele>243.4</ele>
        <time>2021-09-28T15:19:28Z</time>
      </trkpt>
      <trkpt lat="41.7026750" lon="-1.1014230">
        <ele>243.2</ele>
        <time>2021-09-28T15:19:37Z</time>
      </trkpt>
      <trkpt lat="41.7031450" lon="-1.1018520">
        <ele>243.2</ele>
        <time>2021-09-28T15:19:46Z</time>
      </trkpt>
      <trkpt lat="41.7036470" lon="-1.1022270">
        <ele>243.0</ele>
        <time>2021-09-28T15:19:55Z</time>
      </trkpt>
      <trkpt lat="41.7041450" lon="-1.1025950">
        <ele>243.0</ele>
        <time>2021-09-28T15:20:04Z</time>
      </trkpt>
      <trkpt lat="41.7046430" lon="-1.1029550">
        <ele>243.2</ele>
        <time>2021-09-28T15:20:13Z</time>
      </trkpt>
      <trkpt lat="41.7051490" lon="-1.1033030">
        <ele>243.4</ele>
        <time>2021-09-28T15:20:22Z</time>
      </trkpt>
      <trkpt lat="41.7055410" lon="-1.1035630">
        <ele>243.4</ele>
        <time>2021-09-28T15:20:29Z</time>
      </trkpt>
      <trkpt lat="41.7060690" lon="-1.1038130">
        <ele>243.4</ele>
        <time>2021-09-28T15:20:38Z</time>
      </trkpt>
      <trkpt lat="41.7063120" lon="-1.1038590">
        <ele>243.4</ele>
        <time>2021-09-28T15:20:42Z</time>
      </trkpt>
      <trkpt lat="41.7068650" lon="-1.1038030">
        <ele>243.2</ele>
        <time>2021-09-28T15:20:51Z</time>
      </trkpt>
      <trkpt lat="41.7074080" lon="-1.1037240">
        <ele>242.8</ele>
        <time>2021-09-28T15:21:00Z</time>
      </trkpt>
      <trkpt lat="41.7079850" lon="-1.1036730">
        <ele>242.8</ele>
        <time>2021-09-28T15:21:10Z</time>
      </trkpt>
      <trkpt lat="41.7082180" lon="-1.1036110">
        <ele>243.0</ele>
        <time>2021-09-28T15:21:14Z</time>
      </trkpt>
      <trkpt lat="41.7087600" lon="-1.1035600">
        <ele>243.2</ele>
        <time>2021-09-28T15:21:23Z</time>
      </trkpt>
      <trkpt lat="41.7093060" lon="-1.1034980">
        <ele>243.4</ele>
        <time>2021-09-28T15:21:32Z</time>
      </trkpt>
      <trkpt lat="41.7098560" lon="-1.1034310">
        <ele>243.4</ele>
        <time>2021-09-28T15:21:41Z</time>
      </trkpt>
      <trkpt lat="41.7103940" lon="-1.1033640">
        <ele>243.2</ele>
        <time>2021-09-28T15:21:50Z</time>
      </trkpt>
      <trkpt lat="41.7109880" lon="-1.1032880">
        <ele>243.0</ele>
        <time>2021-09-28T15:22:00Z</time>
      </trkpt>
      <trkpt lat="41.7115340" lon="-1.1032200">
        <ele>243.0</ele>
        <time>2021-09-28T15:22:09Z</time>
      </trkpt>
      <trkpt lat="41.7120760" lon="-1.1031540">
        <ele>242.8</ele>
        <time>2021-09-28T15:22:18Z</time>
      </trkpt>
      <trkpt lat="41.7125490" lon="-1.1031060">
        <ele>242.6</ele>
        <time>2021-09-28T15:22:26Z</time>
      </trkpt>
      <trkpt lat="41.7131350" lon="-1.1030370">
        <ele>241.4</ele>
        <time>2021-09-28T15:22:36Z</time>
      </trkpt>
      <trkpt lat="41.7137110" lon="-1.1030520">
        <ele>241.6</ele>
        <time>2021-09-28T15:22:46Z</time>
      </trkpt>
      <trkpt lat="41.7142850" lon="-1.1031340">
        <ele>241.8</ele>
        <time>2021-09-28T15:22:56Z</time>
      </trkpt>
      <trkpt lat="41.7148510" lon="-1.1032130">
        <ele>242.2</ele>
        <time>2021-09-28T15:23:06Z</time>
      </trkpt>
      <trkpt lat="41.7154240" lon="-1.1032880">
        <ele>242.4</ele>
        <time>2021-09-28T15:23:16Z</time>
      </trkpt>
      <trkpt lat="41.7158310" lon="-1.1033400">
        <ele>242.4</ele>
        <time>2021-09-28T15:23:23Z</time>
      </trkpt>
      <trkpt lat="41.7163510" lon="-1.1034120">
        <ele>242.6</ele>
        <time>2021-09-28T15:23:32Z</time>
      </trkpt>
      <trkpt lat="41.7169240" lon="-1.1034990">
        <ele>242.4</ele>
        <time>2021-09-28T15:23:42Z</time>
      </trkpt>
      <trkpt lat="41.7174960" lon="-1.1035840">
        <ele>242.2</ele>
        <time>2021-09-28T15:23:52Z</time>
      </trkpt>
      <trkpt lat="41.7180770" lon="-1.1036590">
        <ele>242.2</ele>
        <time>2021-09-28T15:24:02Z</time>
      </trkpt>
      <trkpt lat="41.7186700" lon="-1.1037390">
        <ele>242.6</ele>
        <time>2021-09-28T15:24:12Z</time>
      </trkpt>
      <trkpt lat="41.7191990" lon="-1.1038080">
        <ele>242.8</ele>
        <time>2021-09-28T15:24:21Z</time>
      </trkpt>
      <trkpt lat="41.7197860" lon="-1.1038830">
        <ele>242.0</ele>
        <time>2021-09-28T15:24:31Z</time>
      </trkpt>
      <trkpt lat="41.7203740" lon="-1.1039490">
        <ele>242.0</ele>
        <time>2021-09-28T15:24:41Z</time>
      </trkpt>
      <trkpt lat="41.7207190" lon="-1.1039850">
        <ele>242.0</ele>
        <time>2021-09-28T15:24:47Z</time>
      </trkpt>
      <trkpt lat="41.7212800" lon="-1.1041550">
        <ele>242.4</ele>
        <time>2021-09-28T15:24:57Z</time>
      </trkpt>
      <trkpt lat="41.7217660" lon="-1.1045720">
        <ele>241.6</ele>
        <time>2021-09-28T15:25:07Z</time>
      </trkpt>
      <trkpt lat="41.7221020" lon="-1.1052100">
        <ele>242.0</ele>
        <time>2021-09-28T15:25:17Z</time>
      </trkpt>
      <trkpt lat="41.7224040" lon="-1.1058740">
        <ele>242.6</ele>
        <time>2021-09-28T15:25:27Z</time>
      </trkpt>
      <trkpt lat="41.7227150" lon="-1.1065370">
        <ele>242.6</ele>
        <time>2021-09-28T15:25:37Z</time>
      </trkpt>
      <trkpt lat="41.7230200" lon="-1.1072040">
        <ele>242.6</ele>
        <time>2021-09-28T15:25:47Z</time>
      </trkpt>
      <trkpt lat="41.7233210" lon="-1.1078710">
        <ele>242.6</ele>
        <time>2021-09-28T15:25:57Z</time>
      </trkpt>
      <trkpt lat="41.7237160" lon="-1.1084250">
        <ele>242.4</ele>
        <time>2021-09-28T15:26:07Z</time>
      </trkpt>
      <trkpt lat="41.7242590" lon="-1.1086700">
        <ele>241.6</ele>
        <time>2021-09-28T15:26:17Z</time>
      </trkpt>
      <trkpt lat="41.7247600" lon="-1.1086660">
        <ele>242.2</ele>
        <time>2021-09-28T15:26:26Z</time>
      </trkpt>
      <trkpt lat="41.7253140" lon="-1.1087470">
        <ele>242.6</ele>
        <time>2021-09-28T15:26:36Z</time>
      </trkpt>
      <trkpt lat="41.7253640" lon="-1.1087810">
        <ele>242.6</ele>
        <time>2021-09-28T15:26:37Z</time>
      </trkpt>
      <trkpt lat="41.7255330" lon="-1.1089740">
        <ele>242.6</ele>
        <time>2021-09-28T15:26:41Z</time>
      </trkpt>
      <trkpt lat="41.7256030" lon="-1.1090890">
        <ele>242.6</ele>
        <time>2021-09-28T15:26:43Z</time>
      </trkpt>
      <trkpt lat="41.7258020" lon="-1.1095260">
        <ele>243.0</ele>
        <time>2021-09-28T15:26:50Z</time>
      </trkpt>
      <trkpt lat="41.7261630" lon="-1.1101150">
        <ele>243.2</ele>
        <time>2021-09-28T15:27:00Z</time>
      </trkpt>
      <trkpt lat="41.7266730" lon="-1.1104540">
        <ele>243.2</ele>
        <time>2021-09-28T15:27:10Z</time>
      </trkpt>
      <trkpt lat="41.7272210" lon="-1.1107030">
        <ele>242.8</ele>
        <time>2021-09-28T15:27:20Z</time>
      </trkpt>
      <trkpt lat="41.7277710" lon="-1.1109670">
        <ele>242.6</ele>
        <time>2021-09-28T15:27:30Z</time>
      </trkpt>
      <trkpt lat="41.7283240" lon="-1.1112040">
        <ele>242.4</ele>
        <time>2021-09-28T15:27:40Z</time>
      </trkpt>
      <trkpt lat="41.7288840" lon="-1.1113540">
        <ele>243.2</ele>
        <time>2021-09-28T15:27:50Z</time>
      </trkpt>
      <trkpt lat="41.7294270" lon="-1.1114000">
        <ele>243.4</ele>
        <time>2021-09-28T15:28:00Z</time>
      </trkpt>
      <trkpt lat="41.7298080" lon="-1.1113030">
        <ele>243.8</ele>
        <time>2021-09-28T15:28:07Z</time>
      </trkpt>
      <trkpt lat="41.7302850" lon="-1.1108670">
        <ele>244.4</ele>
        <time>2021-09-28T15:28:17Z</time>
      </trkpt>
      <trkpt lat="41.7304640" lon="-1.1103430">
        <ele>244.4</ele>
        <time>2021-09-28T15:28:24Z</time>
      </trkpt>
      <trkpt lat="41.7305570" lon="-1.1100250">
        <ele>244.8</ele>
        <time>2021-09-28T15:28:28Z</time>
      </trkpt>
      <trkpt lat="41.7306820" lon="-1.1097410">
        <ele>245.2</ele>
        <time>2021-09-28T15:28:32Z</time>
      </trkpt>
      <trkpt lat="41.7310690" lon="-1.1094110">
        <ele>245.0</ele>
        <time>2021-09-28T15:28:40Z</time>
      </trkpt>
      <trkpt lat="41.7312940" lon="-1.1093690">
        <ele>244.6</ele>
        <time>2021-09-28T15:28:44Z</time>
      </trkpt>
      <trkpt lat="41.7315610" lon="-1.1094540">
        <ele>244.2</ele>
        <time>2021-09-28T15:28:49Z</time>
      </trkpt>
      <trkpt lat="41.7317600" lon="-1.1095880">
        <ele>243.8</ele>
        <time>2021-09-28T15:28:53Z</time>
      </trkpt>
      <trkpt lat="41.7322340" lon="-1.1099850">
        <ele>243.4</ele>
        <time>2021-09-28T15:29:03Z</time>
      </trkpt>
      <trkpt lat="41.7327440" lon="-1.1103440">
        <ele>243.4</ele>
        <time>2021-09-28T15:29:13Z</time>
      </trkpt>
      <trkpt lat="41.7328520" lon="-1.1103920">
        <ele>243.4</ele>
        <time>2021-09-28T15:29:15Z</time>
      </trkpt>
      <trkpt lat="41.7334120" lon="-1.1103880">
        <ele>243.6</ele>
        <time>2021-09-28T15:29:25Z</time>
      </trkpt>
      <trkpt lat="41.7339960" lon="-1.1103250">
        <ele>243.8</ele>
        <time>2021-09-28T15:29:35Z</time>
      </trkpt>
      <trkpt lat="41.7345660" lon="-1.1103870">
        <ele>243.6</ele>
        <time>2021-09-28T15:29:45Z</time>
      </trkpt>
      <trkpt lat="41.7349300" lon="-1.1104380">
        <ele>244.0</ele>
        <time>2021-09-28T15:29:52Z</time>
      </trkpt>
      <trkpt lat="41.7351820" lon="-1.1104660">
        <ele>244.6</ele>
        <time>2021-09-28T15:29:57Z</time>
      </trkpt>
      <trkpt lat="41.7352360" lon="-1.1104690">
        <ele>244.8</ele>
        <time>2021-09-28T15:29:58Z</time>
      </trkpt>
      <trkpt lat="41.7357760" lon="-1.1103980">
        <ele>245.2</ele>
        <time>2021-09-28T15:30:07Z</time>
      </trkpt>
      <trkpt lat="41.7363500" lon="-1.1101680">
        <ele>244.2</ele>
        <time>2021-09-28T15:30:17Z</time>
      </trkpt>
      <trkpt lat="41.7369340" lon="-1.1100110">
        <ele>244.0</ele>
        <time>2021-09-28T15:30:27Z</time>
      </trkpt>
      <trkpt lat="41.7371670" lon="-1.1099920">
        <ele>243.8</ele>
        <time>2021-09-28T15:30:31Z</time>
      </trkpt>
      <trkpt lat="41.7377450" lon="-1.1099600">
        <ele>243.8</ele>
        <time>2021-09-28T15:30:41Z</time>
      </trkpt>
      <trkpt lat="41.7383340" lon="-1.1099180">
        <ele>244.4</ele>
        <time>2021-09-28T15:30:51Z</time>
      </trkpt>
      <trkpt lat="41.7385720" lon="-1.1099280">
        <ele>244.4</ele>
        <time>2021-09-28T15:30:55Z</time>
      </trkpt>
      <trkpt lat="41.7388980" lon="-1.1101030">
        <ele>244.4</ele>
        <time>2021-09-28T15:31:01Z</time>
      </trkpt>
      <trkpt lat="41.7392830" lon="-1.1106110">
        <ele>244.2</ele>
        <time>2021-09-28T15:31:10Z</time>
      </trkpt>
      <trkpt lat="41.7395390" lon="-1.1112490">
        <ele>244.2</ele>
        <time>2021-09-28T15:31:19Z</time>
      </trkpt>
      <trkpt lat="41.7397790" lon="-1.1119630">
        <ele>244.2</ele>
        <time>2021-09-28T15:31:29Z</time>
      </trkpt>
      <trkpt lat="41.7399090" lon="-1.1127420">
        <ele>244.6</ele>
        <time>2021-09-28T15:31:39Z</time>
      </trkpt>
      <trkpt lat="41.7400260" lon="-1.1134490">
        <ele>244.6</ele>
        <time>2021-09-28T15:31:48Z</time>
      </trkpt>
      <trkpt lat="41.7402470" lon="-1.1141150">
        <ele>244.4</ele>
        <time>2021-09-28T15:31:57Z</time>
      </trkpt>
      <trkpt lat="41.7405300" lon="-1.1148130">
        <ele>244.4</ele>
        <time>2021-09-28T15:32:07Z</time>
      </trkpt>
      <trkpt lat="41.7408020" lon="-1.1155000">
        <ele>244.4</ele>
        <time>2021-09-28T15:32:17Z</time>
      </trkpt>
      <trkpt lat="41.7410270" lon="-1.1159610">
        <ele>244.6</ele>
        <time>2021-09-28T15:32:24Z</time>
      </trkpt>
      <trkpt lat="41.7414640" lon="-1.1164850">
        <ele>244.2</ele>
        <time>2021-09-28T15:32:34Z</time>
      </trkpt>
      <trkpt lat="41.7416310" lon="-1.1167110">
        <ele>244.0</ele>
        <time>2021-09-28T15:32:38Z</time>
      </trkpt>
      <trkpt lat="41.7420070" lon="-1.1173220">
        <ele>244.2</ele>
        <time>2021-09-28T15:32:48Z</time>
      </trkpt>
      <trkpt lat="41.7424300" lon="-1.1178650">
        <ele>244.2</ele>
        <time>2021-09-28T15:32:58Z</time>
      </trkpt>
      <trkpt lat="41.7428570" lon="-1.1184050">
        <ele>244.2</ele>
        <time>2021-09-28T15:33:08Z</time>
      </trkpt>
      <trkpt lat="41.7432050" lon="-1.1190350">
        <ele>244.6</ele>
        <time>2021-09-28T15:33:18Z</time>
      </trkpt>
      <trkpt lat="41.7434940" lon="-1.1194970">
        <ele>244.6</ele>
        <time>2021-09-28T15:33:26Z</time>
      </trkpt>
      <trkpt lat="41.7438240" lon="-1.1200130">
        <ele>244.8</ele>
        <time>2021-09-28T15:33:35Z</time>
      </trkpt>
      <trkpt lat="41.7442720" lon="-1.1205320">
        <ele>245.0</ele>
        <time>2021-09-28T15:33:45Z</time>
      </trkpt>
      <trkpt lat="41.7447820" lon="-1.1207730">
        <ele>245.0</ele>
        <time>2021-09-28T15:33:54Z</time>
      </trkpt>
      <trkpt lat="41.7453190" lon="-1.1209250">
        <ele>245.0</ele>
        <time>2021-09-28T15:34:03Z</time>
      </trkpt>
      <trkpt lat="41.7458820" lon="-1.1211450">
        <ele>244.6</ele>
        <time>2021-09-28T15:34:13Z</time>
      </trkpt>
      <trkpt lat="41.7464280" lon="-1.1213640">
        <ele>244.2</ele>
        <time>2021-09-28T15:34:23Z</time>
      </trkpt>
      <trkpt lat="41.7466490" lon="-1.1214520">
        <ele>244.4</ele>
        <time>2021-09-28T15:34:27Z</time>
      </trkpt>
      <trkpt lat="41.7471780" lon="-1.1217350">
        <ele>244.6</ele>
        <time>2021-09-28T15:34:37Z</time>
      </trkpt>
      <trkpt lat="41.7475380" lon="-1.1223570">
        <ele>244.8</ele>
        <time>2021-09-28T15:34:47Z</time>
      </trkpt>
      <trkpt lat="41.7477270" lon="-1.1231070">
        <ele>244.4</ele>
        <time>2021-09-28T15:34:57Z</time>
      </trkpt>
      <trkpt lat="41.7476530" lon="-1.1238920">
        <ele>244.6</ele>
        <time>2021-09-28T15:35:07Z</time>
      </trkpt>
      <trkpt lat="41.7474690" lon="-1.1246180">
        <ele>245.8</ele>
        <time>2021-09-28T15:35:18Z</time>
      </trkpt>
      <trkpt lat="41.7472420" lon="-1.1253470">
        <ele>245.4</ele>
        <time>2021-09-28T15:35:28Z</time>
      </trkpt>
      <trkpt lat="41.7469600" lon="-1.1260280">
        <ele>245.4</ele>
        <time>2021-09-28T15:35:38Z</time>
      </trkpt>
      <trkpt lat="41.7466320" lon="-1.1266680">
        <ele>245.6</ele>
        <time>2021-09-28T15:35:48Z</time>
      </trkpt>
      <trkpt lat="41.7463100" lon="-1.1272940">
        <ele>245.6</ele>
        <time>2021-09-28T15:35:58Z</time>
      </trkpt>
      <trkpt lat="41.7459920" lon="-1.1278220">
        <ele>245.8</ele>
        <time>2021-09-28T15:36:07Z</time>
      </trkpt>
      <trkpt lat="41.7455110" lon="-1.1282450">
        <ele>245.8</ele>
        <time>2021-09-28T15:36:17Z</time>
      </trkpt>
      <trkpt lat="41.7454340" lon="-1.1283560">
        <ele>245.8</ele>
        <time>2021-09-28T15:36:19Z</time>
      </trkpt>
      <trkpt lat="41.7452220" lon="-1.1290800">
        <ele>245.8</ele>
        <time>2021-09-28T15:36:29Z</time>
      </trkpt>
      <trkpt lat="41.7450750" lon="-1.1298380">
        <ele>245.6</ele>
        <time>2021-09-28T15:36:39Z</time>
      </trkpt>
      <trkpt lat="41.7448590" lon="-1.1305840">
        <ele>245.4</ele>
        <time>2021-09-28T15:36:49Z</time>
      </trkpt>
      <trkpt lat="41.7445190" lon="-1.1312330">
        <ele>245.2</ele>
        <time>2021-09-28T15:36:59Z</time>
      </trkpt>
      <trkpt lat="41.7440740" lon="-1.1317400">
        <ele>245.4</ele>
        <time>2021-09-28T15:37:09Z</time>
      </trkpt>
      <trkpt lat="41.7440040" lon="-1.1318660">
        <ele>245.4</ele>
        <time>2021-09-28T15:37:11Z</time>
      </trkpt>
      <trkpt lat="41.7437350" lon="-1.1325750">
        <ele>245.4</ele>
        <time>2021-09-28T15:37:21Z</time>
      </trkpt>
      <trkpt lat="41.7433770" lon="-1.1332160">
        <ele>245.4</ele>
        <time>2021-09-28T15:37:31Z</time>
      </trkpt>
      <trkpt lat="41.7429930" lon="-1.1337280">
        <ele>245.4</ele>
        <time>2021-09-28T15:37:40Z</time>
      </trkpt>
      <trkpt lat="41.7425520" lon="-1.1342560">
        <ele>245.4</ele>
        <time>2021-09-28T15:37:50Z</time>
      </trkpt>
      <trkpt lat="41.7420500" lon="-1.1346790">
        <ele>245.4</ele>
        <time>2021-09-28T15:38:00Z</time>
      </trkpt>
      <trkpt lat="41.7415140" lon="-1.1350100">
        <ele>245.2</ele>
        <time>2021-09-28T15:38:10Z</time>
      </trkpt>
      <trkpt lat="41.7413550" lon="-1.1352550">
        <ele>245.2</ele>
        <time>2021-09-28T15:38:14Z</time>
      </trkpt>
      <trkpt lat="41.7412970" lon="-1.1353860">
        <ele>245.4</ele>
        <time>2021-09-28T15:38:16Z</time>
      </trkpt>
      <trkpt lat="41.7411360" lon="-1.1359810">
        <ele>246.2</ele>
        <time>2021-09-28T15:38:30Z</time>
      </trkpt>
      <trkpt lat="41.7411060" lon="-1.1361070">
        <ele>246.4</ele>
        <time>2021-09-28T15:38:33Z</time>
      </trkpt>
      <trkpt lat="41.7410800" lon="-1.1362220">
        <ele>246.4</ele>
        <time>2021-09-28T15:38:37Z</time>
      </trkpt>
      <trkpt lat="41.7410790" lon="-1.1362230">
        <ele>246.4</ele>
        <time>2021-09-28T15:38:38Z</time>
      </trkpt>
      <trkpt lat="41.7410710" lon="-1.1362600">
        <ele>246.4</ele>
        <time>2021-09-28T15:38:41Z</time>
      </trkpt>
      <trkpt lat="41.7409590" lon="-1.1366100">
        <ele>246.4</ele>
        <time>2021-09-28T15:38:51Z</time>
      </trkpt>
      <trkpt lat="41.7409600" lon="-1.1366110">
        <ele>246.4</ele>
        <time>2021-09-28T15:38:52Z</time>
      </trkpt>
      <trkpt lat="41.7413420" lon="-1.1356850">
        <ele>246.2</ele>
        <time>2021-09-28T15:39:25Z</time>
      </trkpt>
      <trkpt lat="41.7412970" lon="-1.1359510">
        <ele>246.2</ele>
        <time>2021-09-28T15:39:30Z</time>
      </trkpt>
      <trkpt lat="41.7412450" lon="-1.1361600">
        <ele>246.2</ele>
        <time>2021-09-28T15:39:33Z</time>
      </trkpt>
      <trkpt lat="41.7412030" lon="-1.1364760">
        <ele>244.6</ele>
        <time>2021-09-28T15:39:37Z</time>
      </trkpt>
      <trkpt lat="41.7411880" lon="-1.1365590">
        <ele>244.0</ele>
        <time>2021-09-28T15:39:38Z</time>
      </trkpt>
      <trkpt lat="41.7411720" lon="-1.1366420">
        <ele>243.4</ele>
        <time>2021-09-28T15:39:39Z</time>
      </trkpt>
      <trkpt lat="41.7411400" lon="-1.1368120">
        <ele>242.6</ele>
        <time>2021-09-28T15:39:41Z</time>
      </trkpt>
      <trkpt lat="41.7411270" lon="-1.1368990">
        <ele>242.2</ele>
        <time>2021-09-28T15:39:42Z</time>
      </trkpt>
      <trkpt lat="41.7411100" lon="-1.1372620">
        <ele>241.0</ele>
        <time>2021-09-28T15:39:46Z</time>
      </trkpt>
      <trkpt lat="41.7411360" lon="-1.1375390">
        <ele>239.8</ele>
        <time>2021-09-28T15:39:49Z</time>
      </trkpt>
      <trkpt lat="41.7412300" lon="-1.1379750">
        <ele>238.2</ele>
        <time>2021-09-28T15:39:54Z</time>
      </trkpt>
      <trkpt lat="41.7413230" lon="-1.1382850">
        <ele>237.0</ele>
        <time>2021-09-28T15:39:58Z</time>
      </trkpt>
      <trkpt lat="41.7415270" lon="-1.1389900">
        <ele>237.0</ele>
        <time>2021-09-28T15:40:08Z</time>
      </trkpt>
      <trkpt lat="41.7417280" lon="-1.1396750">
        <ele>237.2</ele>
        <time>2021-09-28T15:40:18Z</time>
      </trkpt>
      <trkpt lat="41.7419390" lon="-1.1403750">
        <ele>237.2</ele>
        <time>2021-09-28T15:40:29Z</time>
      </trkpt>
      <trkpt lat="41.7421380" lon="-1.1410620">
        <ele>237.4</ele>
        <time>2021-09-28T15:40:40Z</time>
      </trkpt>
      <trkpt lat="41.7423550" lon="-1.1417870">
        <ele>237.2</ele>
        <time>2021-09-28T15:40:51Z</time>
      </trkpt>
      <trkpt lat="41.7425740" lon="-1.1424880">
        <ele>236.8</ele>
        <time>2021-09-28T15:41:01Z</time>
      </trkpt>
      <trkpt lat="41.7427560" lon="-1.1430930">
        <ele>236.4</ele>
        <time>2021-09-28T15:41:10Z</time>
      </trkpt>
      <trkpt lat="41.7428500" lon="-1.1434950">
        <ele>236.8</ele>
        <time>2021-09-28T15:41:18Z</time>
      </trkpt>
      <trkpt lat="41.7429290" lon="-1.1435350">
        <ele>237.0</ele>
        <time>2021-09-28T15:41:22Z</time>
      </trkpt>
      <trkpt lat="41.7431040" lon="-1.1434730">
        <ele>237.4</ele>
        <time>2021-09-28T15:41:27Z</time>
      </trkpt>
      <trkpt lat="41.7433130" lon="-1.1433530">
        <ele>237.4</ele>
        <time>2021-09-28T15:41:32Z</time>
      </trkpt>
      <trkpt lat="41.7437870" lon="-1.1434330">
        <ele>237.0</ele>
        <time>2021-09-28T15:41:46Z</time>
      </trkpt>
      <trkpt lat="41.7439460" lon="-1.1435380">
        <ele>237.2</ele>
        <time>2021-09-28T15:41:51Z</time>
      </trkpt>
      <trkpt lat="41.7439930" lon="-1.1436210">
        <ele>237.2</ele>
        <time>2021-09-28T15:41:54Z</time>
      </trkpt>
      <trkpt lat="41.7439050" lon="-1.1437980">
        <ele>237.2</ele>
        <time>2021-09-28T15:41:59Z</time>
      </trkpt>
      <trkpt lat="41.7438740" lon="-1.1438380">
        <ele>237.2</ele>
        <time>2021-09-28T15:42:00Z</time>
      </trkpt>
      <trkpt lat="41.7438050" lon="-1.1440090">
        <ele>237.2</ele>
        <time>2021-09-28T15:42:05Z</time>
      </trkpt>
      <trkpt lat="41.7438000" lon="-1.1440390">
        <ele>237.2</ele>
        <time>2021-09-28T15:42:08Z</time>
      </trkpt>
      <trkpt lat="41.7438010" lon="-1.1439540">
        <ele>237.4</ele>
        <time>2021-09-28T15:42:17Z</time>
      </trkpt>
      <trkpt lat="41.7438130" lon="-1.1439240">
        <ele>237.4</ele>
        <time>2021-09-28T15:42:18Z</time>
      </trkpt>
      <trkpt lat="41.7440340" lon="-1.1435900">
        <ele>237.6</ele>
        <time>2021-09-28T15:42:30Z</time>
      </trkpt>
      <trkpt lat="41.7443120" lon="-1.1436620">
        <ele>237.8</ele>
        <time>2021-09-28T15:42:40Z</time>
      </trkpt>
      <trkpt lat="41.7425940" lon="-1.1438060">
        <ele>238.8</ele>
        <time>2021-09-28T15:44:03Z</time>
      </trkpt>
      <trkpt lat="41.7424550" lon="-1.1440180">
        <ele>238.4</ele>
        <time>2021-09-28T15:44:08Z</time>
      </trkpt>
      <trkpt lat="41.7423780" lon="-1.1443600">
        <ele>238.4</ele>
        <time>2021-09-28T15:44:16Z</time>
      </trkpt>
      <trkpt lat="41.7424410" lon="-1.1444310">
        <ele>239.0</ele>
        <time>2021-09-28T15:44:20Z</time>
      </trkpt>
      <trkpt lat="41.7425080" lon="-1.1444490">
        <ele>239.4</ele>
        <time>2021-09-28T15:44:23Z</time>
      </trkpt>
      <trkpt lat="41.7425760" lon="-1.1444430">
        <ele>240.0</ele>
        <time>2021-09-28T15:44:26Z</time>
      </trkpt>
      <trkpt lat="41.7426440" lon="-1.1444110">
        <ele>241.0</ele>
        <time>2021-09-28T15:44:29Z</time>
      </trkpt>
      <trkpt lat="41.7426650" lon="-1.1444030">
        <ele>241.2</ele>
        <time>2021-09-28T15:44:30Z</time>
      </trkpt>
      <trkpt lat="41.7427400" lon="-1.1443700">
        <ele>242.2</ele>
        <time>2021-09-28T15:44:34Z</time>
      </trkpt>
      <trkpt lat="41.7427990" lon="-1.1443300">
        <ele>243.2</ele>
        <time>2021-09-28T15:44:38Z</time>
      </trkpt>
      <trkpt lat="41.7428230" lon="-1.1443340">
        <ele>243.8</ele>
        <time>2021-09-28T15:44:40Z</time>
      </trkpt>
      <trkpt lat="41.7428410" lon="-1.1443510">
        <ele>244.2</ele>
        <time>2021-09-28T15:44:42Z</time>
      </trkpt>
      <trkpt lat="41.7428490" lon="-1.1443660">
        <ele>244.2</ele>
        <time>2021-09-28T15:44:43Z</time>
      </trkpt>
      <trkpt lat="41.7428800" lon="-1.1444580">
        <ele>245.6</ele>
        <time>2021-09-28T15:44:47Z</time>
      </trkpt>
      <trkpt lat="41.7429190" lon="-1.1445810">
        <ele>245.8</ele>
        <time>2021-09-28T15:44:51Z</time>
      </trkpt>
      <trkpt lat="41.7429340" lon="-1.1446030">
        <ele>245.8</ele>
        <time>2021-09-28T15:44:52Z</time>
      </trkpt>
      <trkpt lat="41.7429890" lon="-1.1446880">
        <ele>245.8</ele>
        <time>2021-09-28T15:44:56Z</time>
      </trkpt>
      <trkpt lat="41.7430470" lon="-1.1448900">
        <ele>245.8</ele>
        <time>2021-09-28T15:45:02Z</time>
      </trkpt>
      <trkpt lat="41.7430940" lon="-1.1450590">
        <ele>245.8</ele>
        <time>2021-09-28T15:45:07Z</time>
      </trkpt>
      <trkpt lat="41.7431320" lon="-1.1451830">
        <ele>245.8</ele>
        <time>2021-09-28T15:45:11Z</time>
      </trkpt>
      <trkpt lat="41.7431490" lon="-1.1452860">
        <ele>245.8</ele>
        <time>2021-09-28T15:45:15Z</time>
      </trkpt>
      <trkpt lat="41.7431550" lon="-1.1453860">
        <ele>246.0</ele>
        <time>2021-09-28T15:45:19Z</time>
      </trkpt>
      <trkpt lat="41.7431780" lon="-1.1454710">
        <ele>246.0</ele>
        <time>2021-09-28T15:45:22Z</time>
      </trkpt>
      <trkpt lat="41.7432560" lon="-1.1457280">
        <ele>246.0</ele>
        <time>2021-09-28T15:45:30Z</time>
      </trkpt>
      <trkpt lat="41.7434540" lon="-1.1464080">
        <ele>246.0</ele>
        <time>2021-09-28T15:45:50Z</time>
      </trkpt>
      <trkpt lat="41.7436600" lon="-1.1470900">
        <ele>245.6</ele>
        <time>2021-09-28T15:46:09Z</time>
      </trkpt>
      <trkpt lat="41.7438610" lon="-1.1477610">
        <ele>245.2</ele>
        <time>2021-09-28T15:46:27Z</time>
      </trkpt>
      <trkpt lat="41.7440350" lon="-1.1483480">
        <ele>245.6</ele>
        <time>2021-09-28T15:46:45Z</time>
      </trkpt>
      <trkpt lat="41.7441340" lon="-1.1486670">
        <ele>245.8</ele>
        <time>2021-09-28T15:46:57Z</time>
      </trkpt>
      <trkpt lat="41.7441920" lon="-1.1488700">
        <ele>245.8</ele>
        <time>2021-09-28T15:47:05Z</time>
      </trkpt>
      <trkpt lat="41.7442880" lon="-1.1492050">
        <ele>245.4</ele>
        <time>2021-09-28T15:47:18Z</time>
      </trkpt>
      <trkpt lat="41.7443180" lon="-1.1493010">
        <ele>246.0</ele>
        <time>2021-09-28T15:47:26Z</time>
      </trkpt>
      <trkpt lat="41.7445170" lon="-1.1499860">
        <ele>246.4</ele>
        <time>2021-09-28T15:47:56Z</time>
      </trkpt>
      <trkpt lat="41.7445990" lon="-1.1502700">
        <ele>246.0</ele>
        <time>2021-09-28T15:48:05Z</time>
      </trkpt>
      <trkpt lat="41.7446330" lon="-1.1503770">
        <ele>245.8</ele>
        <time>2021-09-28T15:48:08Z</time>
      </trkpt>
      <trkpt lat="41.7446670" lon="-1.1504930">
        <ele>245.8</ele>
        <time>2021-09-28T15:48:11Z</time>
      </trkpt>
      <trkpt lat="41.7447370" lon="-1.1507240">
        <ele>245.8</ele>
        <time>2021-09-28T15:48:17Z</time>
      </trkpt>
      <trkpt lat="41.7449420" lon="-1.1514080">
        <ele>245.6</ele>
        <time>2021-09-28T15:48:35Z</time>
      </trkpt>
      <trkpt lat="41.7451440" lon="-1.1521030">
        <ele>245.8</ele>
        <time>2021-09-28T15:48:53Z</time>
      </trkpt>
      <trkpt lat="41.7452370" lon="-1.1524230">
        <ele>246.0</ele>
        <time>2021-09-28T15:49:04Z</time>
      </trkpt>
      <trkpt lat="41.7452660" lon="-1.1525310">
        <ele>246.4</ele>
        <time>2021-09-28T15:49:12Z</time>
      </trkpt>
      <trkpt lat="41.7452500" lon="-1.1526280">
        <ele>246.4</ele>
        <time>2021-09-28T15:49:16Z</time>
      </trkpt>
      <trkpt lat="41.7452280" lon="-1.1526930">
        <ele>247.2</ele>
        <time>2021-09-28T15:54:04Z</time>
      </trkpt>
      <trkpt lat="41.7452360" lon="-1.1527020">
        <ele>247.2</ele>
        <time>2021-09-28T15:54:05Z</time>
      </trkpt>
      <trkpt lat="41.7452630" lon="-1.1527300">
        <ele>247.0</ele>
        <time>2021-09-28T15:54:07Z</time>
      </trkpt>
      <trkpt lat="41.7452950" lon="-1.1527770">
        <ele>247.0</ele>
        <time>2021-09-28T15:54:09Z</time>
      </trkpt>
      <trkpt lat="41.7453190" lon="-1.1528390">
        <ele>247.0</ele>
        <time>2021-09-28T15:54:11Z</time>
      </trkpt>
      <trkpt lat="41.7453580" lon="-1.1530020">
        <ele>246.8</ele>
        <time>2021-09-28T15:54:15Z</time>
      </trkpt>
      <trkpt lat="41.7454940" lon="-1.1535330">
        <ele>246.2</ele>
        <time>2021-09-28T15:54:25Z</time>
      </trkpt>
      <trkpt lat="41.7456690" lon="-1.1542570">
        <ele>246.0</ele>
        <time>2021-09-28T15:54:36Z</time>
      </trkpt>
      <trkpt lat="41.7458480" lon="-1.1549980">
        <ele>245.6</ele>
        <time>2021-09-28T15:54:47Z</time>
      </trkpt>
      <trkpt lat="41.7458930" lon="-1.1552160">
        <ele>245.4</ele>
        <time>2021-09-28T15:54:50Z</time>
      </trkpt>
      <trkpt lat="41.7459440" lon="-1.1554430">
        <ele>245.2</ele>
        <time>2021-09-28T15:54:53Z</time>
      </trkpt>
      <trkpt lat="41.7460170" lon="-1.1557470">
        <ele>245.0</ele>
        <time>2021-09-28T15:54:57Z</time>
      </trkpt>
      <trkpt lat="41.7461890" lon="-1.1564390">
        <ele>244.6</ele>
        <time>2021-09-28T15:55:06Z</time>
      </trkpt>
      <trkpt lat="41.7463370" lon="-1.1571490">
        <ele>244.4</ele>
        <time>2021-09-28T15:55:15Z</time>
      </trkpt>
      <trkpt lat="41.7464990" lon="-1.1578970">
        <ele>244.6</ele>
        <time>2021-09-28T15:55:25Z</time>
      </trkpt>
      <trkpt lat="41.7467110" lon="-1.1586350">
        <ele>245.0</ele>
        <time>2021-09-28T15:55:36Z</time>
      </trkpt>
      <trkpt lat="41.7467960" lon="-1.1588200">
        <ele>245.0</ele>
        <time>2021-09-28T15:55:39Z</time>
      </trkpt>
      <trkpt lat="41.7469440" lon="-1.1589890">
        <ele>245.2</ele>
        <time>2021-09-28T15:55:43Z</time>
      </trkpt>
      <trkpt lat="41.7472040" lon="-1.1593110">
        <ele>246.0</ele>
        <time>2021-09-28T15:55:53Z</time>
      </trkpt>
      <trkpt lat="41.7473890" lon="-1.1594800">
        <ele>246.4</ele>
        <time>2021-09-28T15:55:59Z</time>
      </trkpt>
      <trkpt lat="41.7475470" lon="-1.1595980">
        <ele>246.6</ele>
        <time>2021-09-28T15:56:04Z</time>
      </trkpt>
      <trkpt lat="41.7475840" lon="-1.1596400">
        <ele>247.0</ele>
        <time>2021-09-28T15:56:10Z</time>
      </trkpt>
      <trkpt lat="41.7475050" lon="-1.1595690">
        <ele>247.2</ele>
        <time>2021-09-28T15:56:15Z</time>
      </trkpt>
      <trkpt lat="41.7472460" lon="-1.1593530">
        <ele>247.2</ele>
        <time>2021-09-28T15:56:23Z</time>
      </trkpt>
      <trkpt lat="41.7471150" lon="-1.1592270">
        <ele>247.0</ele>
        <time>2021-09-28T15:56:27Z</time>
      </trkpt>
      <trkpt lat="41.7470020" lon="-1.1590610">
        <ele>247.0</ele>
        <time>2021-09-28T15:56:31Z</time>
      </trkpt>
      <trkpt lat="41.7469770" lon="-1.1590170">
        <ele>247.0</ele>
        <time>2021-09-28T15:56:32Z</time>
      </trkpt>
      <trkpt lat="41.7467790" lon="-1.1591270">
        <ele>246.8</ele>
        <time>2021-09-28T15:56:41Z</time>
      </trkpt>
      <trkpt lat="41.7467440" lon="-1.1592120">
        <ele>246.6</ele>
        <time>2021-09-28T15:56:44Z</time>
      </trkpt>
      <trkpt lat="41.7463470" lon="-1.1595300">
        <ele>245.6</ele>
        <time>2021-09-28T15:56:57Z</time>
      </trkpt>
      <trkpt lat="41.7461970" lon="-1.1597290">
        <ele>245.2</ele>
        <time>2021-09-28T15:57:02Z</time>
      </trkpt>
      <trkpt lat="41.7460370" lon="-1.1600160">
        <ele>245.0</ele>
        <time>2021-09-28T15:57:10Z</time>
      </trkpt>
      <trkpt lat="41.7460330" lon="-1.1606580">
        <ele>245.2</ele>
        <time>2021-09-28T15:57:29Z</time>
      </trkpt>
      <trkpt lat="41.7456670" lon="-1.1612210">
        <ele>245.2</ele>
        <time>2021-09-28T15:57:44Z</time>
      </trkpt>
      <trkpt lat="41.7454530" lon="-1.1616650">
        <ele>245.2</ele>
        <time>2021-09-28T15:57:54Z</time>
      </trkpt>
      <trkpt lat="41.7454790" lon="-1.1617540">
        <ele>245.2</ele>
        <time>2021-09-28T15:57:56Z</time>
      </trkpt>
      <trkpt lat="41.7455310" lon="-1.1618280">
        <ele>245.2</ele>
        <time>2021-09-28T15:57:58Z</time>
      </trkpt>
      <trkpt lat="41.7455580" lon="-1.1618630">
        <ele>245.0</ele>
        <time>2021-09-28T15:57:59Z</time>
      </trkpt>
      <trkpt lat="41.7456770" lon="-1.1620030">
        <ele>244.6</ele>
        <time>2021-09-28T15:58:03Z</time>
      </trkpt>
      <trkpt lat="41.7457820" lon="-1.1620990">
        <ele>244.4</ele>
        <time>2021-09-28T15:58:06Z</time>
      </trkpt>
      <trkpt lat="41.7458160" lon="-1.1621350">
        <ele>244.2</ele>
        <time>2021-09-28T15:58:07Z</time>
      </trkpt>
      <trkpt lat="41.7459130" lon="-1.1622400">
        <ele>244.0</ele>
        <time>2021-09-28T15:58:10Z</time>
      </trkpt>
      <trkpt lat="41.7460390" lon="-1.1623970">
        <ele>243.8</ele>
        <time>2021-09-28T15:58:14Z</time>
      </trkpt>
      <trkpt lat="41.7463360" lon="-1.1628510">
        <ele>243.2</ele>
        <time>2021-09-28T15:58:24Z</time>
      </trkpt>
      <trkpt lat="41.7464750" lon="-1.1630570">
        <ele>243.0</ele>
        <time>2021-09-28T15:58:29Z</time>
      </trkpt>
      <trkpt lat="41.7465320" lon="-1.1631430">
        <ele>243.0</ele>
        <time>2021-09-28T15:58:31Z</time>
      </trkpt>
      <trkpt lat="41.7467080" lon="-1.1634040">
        <ele>242.8</ele>
        <time>2021-09-28T15:58:37Z</time>
      </trkpt>
      <trkpt lat="41.7467760" lon="-1.1635220">
        <ele>242.6</ele>
        <time>2021-09-28T15:58:40Z</time>
      </trkpt>
      <trkpt lat="41.7468280" lon="-1.1636510">
        <ele>242.6</ele>
        <time>2021-09-28T15:58:43Z</time>
      </trkpt>
      <trkpt lat="41.7468770" lon="-1.1637830">
        <ele>242.6</ele>
        <time>2021-09-28T15:58:46Z</time>
      </trkpt>
      <trkpt lat="41.7469050" lon="-1.1640100">
        <ele>244.0</ele>
        <time>2021-09-28T15:58:52Z</time>
      </trkpt>
      <trkpt lat="41.7468870" lon="-1.1640330">
        <ele>244.2</ele>
        <time>2021-09-28T15:58:53Z</time>
      </trkpt>
      <trkpt lat="41.7468120" lon="-1.1641600">
        <ele>245.0</ele>
        <time>2021-09-28T15:58:57Z</time>
      </trkpt>
      <trkpt lat="41.7467970" lon="-1.1642030">
        <ele>245.4</ele>
        <time>2021-09-28T15:58:58Z</time>
      </trkpt>
      <trkpt lat="41.7467190" lon="-1.1643660">
        <ele>246.2</ele>
        <time>2021-09-28T15:59:02Z</time>
      </trkpt>
      <trkpt lat="41.7466250" lon="-1.1646180">
        <ele>246.6</ele>
        <time>2021-09-28T15:59:08Z</time>
      </trkpt>
      <trkpt lat="41.7464290" lon="-1.1651810">
        <ele>247.2</ele>
        <time>2021-09-28T15:59:21Z</time>
      </trkpt>
      <trkpt lat="41.7462880" lon="-1.1656290">
        <ele>247.4</ele>
        <time>2021-09-28T15:59:32Z</time>
      </trkpt>
      <trkpt lat="41.7461590" lon="-1.1660530">
        <ele>247.4</ele>
        <time>2021-09-28T15:59:41Z</time>
      </trkpt>
      <trkpt lat="41.7459100" lon="-1.1666120">
        <ele>246.6</ele>
        <time>2021-09-28T15:59:53Z</time>
      </trkpt>
      <trkpt lat="41.7458580" lon="-1.1667340">
        <ele>246.6</ele>
        <time>2021-09-28T15:59:56Z</time>
      </trkpt>
      <trkpt lat="41.7457220" lon="-1.1670800">
        <ele>247.2</ele>
        <time>2021-09-28T16:00:06Z</time>
      </trkpt>
      <trkpt lat="41.7458090" lon="-1.1671490">
        <ele>247.6</ele>
        <time>2021-09-28T16:00:11Z</time>
      </trkpt>
      <trkpt lat="41.7458320" lon="-1.1671750">
        <ele>247.6</ele>
        <time>2021-09-28T16:00:12Z</time>
      </trkpt>
      <trkpt lat="41.7458810" lon="-1.1672270">
        <ele>247.6</ele>
        <time>2021-09-28T16:00:14Z</time>
      </trkpt>
      <trkpt lat="41.7461640" lon="-1.1675260">
        <ele>248.6</ele>
        <time>2021-09-28T16:00:28Z</time>
      </trkpt>
      <trkpt lat="41.7463180" lon="-1.1676810">
        <ele>249.4</ele>
        <time>2021-09-28T16:00:36Z</time>
      </trkpt>
      <trkpt lat="41.7463910" lon="-1.1677250">
        <ele>249.4</ele>
        <time>2021-09-28T16:00:40Z</time>
      </trkpt>
      <trkpt lat="41.7464300" lon="-1.1677510">
        <ele>249.8</ele>
        <time>2021-09-28T16:00:42Z</time>
      </trkpt>
      <trkpt lat="41.7465040" lon="-1.1678090">
        <ele>250.2</ele>
        <time>2021-09-28T16:00:46Z</time>
      </trkpt>
      <trkpt lat="41.7467160" lon="-1.1679720">
        <ele>250.8</ele>
        <time>2021-09-28T16:00:59Z</time>
      </trkpt>
      <trkpt lat="41.7467390" lon="-1.1679810">
        <ele>250.8</ele>
        <time>2021-09-28T16:01:02Z</time>
      </trkpt>
      <trkpt lat="41.7467200" lon="-1.1680220">
        <ele>252.4</ele>
        <time>2021-09-28T16:02:41Z</time>
      </trkpt>
      <trkpt lat="41.7466200" lon="-1.1679560">
        <ele>252.4</ele>
        <time>2021-09-28T16:02:45Z</time>
      </trkpt>
      <trkpt lat="41.7461860" lon="-1.1675650">
        <ele>252.2</ele>
        <time>2021-09-28T16:02:55Z</time>
      </trkpt>
      <trkpt lat="41.7460440" lon="-1.1674210">
        <ele>251.4</ele>
        <time>2021-09-28T16:02:58Z</time>
      </trkpt>
      <trkpt lat="41.7459940" lon="-1.1673700">
        <ele>251.2</ele>
        <time>2021-09-28T16:02:59Z</time>
      </trkpt>
      <trkpt lat="41.7457810" lon="-1.1671650">
        <ele>250.8</ele>
        <time>2021-09-28T16:03:04Z</time>
      </trkpt>
      <trkpt lat="41.7457260" lon="-1.1671010">
        <ele>250.2</ele>
        <time>2021-09-28T16:03:06Z</time>
      </trkpt>
      <trkpt lat="41.7457690" lon="-1.1668830">
        <ele>249.2</ele>
        <time>2021-09-28T16:03:10Z</time>
      </trkpt>
      <trkpt lat="41.7457980" lon="-1.1668220">
        <ele>249.2</ele>
        <time>2021-09-28T16:03:11Z</time>
      </trkpt>
      <trkpt lat="41.7458820" lon="-1.1666450">
        <ele>249.0</ele>
        <time>2021-09-28T16:03:14Z</time>
      </trkpt>
      <trkpt lat="41.7459400" lon="-1.1665340">
        <ele>247.6</ele>
        <time>2021-09-28T16:03:16Z</time>
      </trkpt>
      <trkpt lat="41.7459940" lon="-1.1664170">
        <ele>246.8</ele>
        <time>2021-09-28T16:03:18Z</time>
      </trkpt>
      <trkpt lat="41.7460400" lon="-1.1662940">
        <ele>246.4</ele>
        <time>2021-09-28T16:03:20Z</time>
      </trkpt>
      <trkpt lat="41.7461390" lon="-1.1660490">
        <ele>246.0</ele>
        <time>2021-09-28T16:03:24Z</time>
      </trkpt>
      <trkpt lat="41.7462070" lon="-1.1658650">
        <ele>246.0</ele>
        <time>2021-09-28T16:03:27Z</time>
      </trkpt>
      <trkpt lat="41.7464370" lon="-1.1651600">
        <ele>246.2</ele>
        <time>2021-09-28T16:03:38Z</time>
      </trkpt>
      <trkpt lat="41.7464590" lon="-1.1651000">
        <ele>246.2</ele>
        <time>2021-09-28T16:03:39Z</time>
      </trkpt>
      <trkpt lat="41.7465800" lon="-1.1647300">
        <ele>246.4</ele>
        <time>2021-09-28T16:03:45Z</time>
      </trkpt>
      <trkpt lat="41.7467110" lon="-1.1643220">
        <ele>246.8</ele>
        <time>2021-09-28T16:03:52Z</time>
      </trkpt>
      <trkpt lat="41.7468150" lon="-1.1640760">
        <ele>246.8</ele>
        <time>2021-09-28T16:03:57Z</time>
      </trkpt>
      <trkpt lat="41.7468560" lon="-1.1639630">
        <ele>246.6</ele>
        <time>2021-09-28T16:04:00Z</time>
      </trkpt>
      <trkpt lat="41.7468450" lon="-1.1637790">
        <ele>246.6</ele>
        <time>2021-09-28T16:04:04Z</time>
      </trkpt>
      <trkpt lat="41.7468460" lon="-1.1635320">
        <ele>246.4</ele>
        <time>2021-09-28T16:04:09Z</time>
      </trkpt>
      <trkpt lat="41.7469070" lon="-1.1634670">
        <ele>246.2</ele>
        <time>2021-09-28T16:04:11Z</time>
      </trkpt>
      <trkpt lat="41.7469770" lon="-1.1634030">
        <ele>245.6</ele>
        <time>2021-09-28T16:04:13Z</time>
      </trkpt>
      <trkpt lat="41.7470490" lon="-1.1633350">
        <ele>245.0</ele>
        <time>2021-09-28T16:04:15Z</time>
      </trkpt>
      <trkpt lat="41.7471960" lon="-1.1631880">
        <ele>244.6</ele>
        <time>2021-09-28T16:04:19Z</time>
      </trkpt>
      <trkpt lat="41.7474450" lon="-1.1629180">
        <ele>244.2</ele>
        <time>2021-09-28T16:04:26Z</time>
      </trkpt>
      <trkpt lat="41.7475480" lon="-1.1628080">
        <ele>244.2</ele>
        <time>2021-09-28T16:04:29Z</time>
      </trkpt>
      <trkpt lat="41.7477500" lon="-1.1628120">
        <ele>244.2</ele>
        <time>2021-09-28T16:04:34Z</time>
      </trkpt>
      <trkpt lat="41.7481710" lon="-1.1625910">
        <ele>245.4</ele>
        <time>2021-09-28T16:04:46Z</time>
      </trkpt>
      <trkpt lat="41.7482250" lon="-1.1625130">
        <ele>245.6</ele>
        <time>2021-09-28T16:04:48Z</time>
      </trkpt>
      <trkpt lat="41.7482520" lon="-1.1624780">
        <ele>245.6</ele>
        <time>2021-09-28T16:04:49Z</time>
      </trkpt>
      <trkpt lat="41.7483540" lon="-1.1623810">
        <ele>246.0</ele>
        <time>2021-09-28T16:04:53Z</time>
      </trkpt>
      <trkpt lat="41.7483630" lon="-1.1624130">
        <ele>246.6</ele>
        <time>2021-09-28T16:05:00Z</time>
      </trkpt>
      <trkpt lat="41.7483880" lon="-1.1622390">
        <ele>246.8</ele>
        <time>2021-09-28T16:05:04Z</time>
      </trkpt>
      <trkpt lat="41.7484080" lon="-1.1621900">
        <ele>246.8</ele>
        <time>2021-09-28T16:05:05Z</time>
      </trkpt>
      <trkpt lat="41.7485030" lon="-1.1619960">
        <ele>246.8</ele>
        <time>2021-09-28T16:05:09Z</time>
      </trkpt>
      <trkpt lat="41.7485950" lon="-1.1618640">
        <ele>246.6</ele>
        <time>2021-09-28T16:05:12Z</time>
      </trkpt>
      <trkpt lat="41.7488290" lon="-1.1616520">
        <ele>246.2</ele>
        <time>2021-09-28T16:05:18Z</time>
      </trkpt>
      <trkpt lat="41.7489690" lon="-1.1615120">
        <ele>246.0</ele>
        <time>2021-09-28T16:05:22Z</time>
      </trkpt>
      <trkpt lat="41.7490980" lon="-1.1613780">
        <ele>246.0</ele>
        <time>2021-09-28T16:05:26Z</time>
      </trkpt>
      <trkpt lat="41.7491290" lon="-1.1613380">
        <ele>246.0</ele>
        <time>2021-09-28T16:05:27Z</time>
      </trkpt>
      <trkpt lat="41.7491950" lon="-1.1612580">
        <ele>245.8</ele>
        <time>2021-09-28T16:05:29Z</time>
      </trkpt>
      <trkpt lat="41.7492540" lon="-1.1611750">
        <ele>245.8</ele>
        <time>2021-09-28T16:05:31Z</time>
      </trkpt>
      <trkpt lat="41.7495220" lon="-1.1609040">
        <ele>246.0</ele>
        <time>2021-09-28T16:05:39Z</time>
      </trkpt>
      <trkpt lat="41.7496640" lon="-1.1607410">
        <ele>246.2</ele>
        <time>2021-09-28T16:05:44Z</time>
      </trkpt>
      <trkpt lat="41.7497810" lon="-1.1606440">
        <ele>247.0</ele>
        <time>2021-09-28T16:05:50Z</time>
      </trkpt>
      <trkpt lat="41.7497510" lon="-1.1605380">
        <ele>247.2</ele>
        <time>2021-09-28T16:05:54Z</time>
      </trkpt>
      <trkpt lat="41.7497370" lon="-1.1603980">
        <ele>247.6</ele>
        <time>2021-09-28T16:05:57Z</time>
      </trkpt>
      <trkpt lat="41.7497690" lon="-1.1602170">
        <ele>247.6</ele>
        <time>2021-09-28T16:06:01Z</time>
      </trkpt>
      <trkpt lat="41.7498760" lon="-1.1601660">
        <ele>247.6</ele>
        <time>2021-09-28T16:06:04Z</time>
      </trkpt>
      <trkpt lat="41.7500180" lon="-1.1601840">
        <ele>247.6</ele>
        <time>2021-09-28T16:06:07Z</time>
      </trkpt>
      <trkpt lat="41.7502210" lon="-1.1602590">
        <ele>246.8</ele>
        <time>2021-09-28T16:06:11Z</time>
      </trkpt>
      <trkpt lat="41.7503260" lon="-1.1603080">
        <ele>245.4</ele>
        <time>2021-09-28T16:06:13Z</time>
      </trkpt>
      <trkpt lat="41.7504840" lon="-1.1603880">
        <ele>244.2</ele>
        <time>2021-09-28T16:06:16Z</time>
      </trkpt>
      <trkpt lat="41.7509200" lon="-1.1606780">
        <ele>243.6</ele>
        <time>2021-09-28T16:06:25Z</time>
      </trkpt>
      <trkpt lat="41.7514700" lon="-1.1608830">
        <ele>243.8</ele>
        <time>2021-09-28T16:06:36Z</time>
      </trkpt>
      <trkpt lat="41.7517810" lon="-1.1607950">
        <ele>244.2</ele>
        <time>2021-09-28T16:06:42Z</time>
      </trkpt>
      <trkpt lat="41.7522790" lon="-1.1605130">
        <ele>244.2</ele>
        <time>2021-09-28T16:06:52Z</time>
      </trkpt>
      <trkpt lat="41.7527500" lon="-1.1600750">
        <ele>244.6</ele>
        <time>2021-09-28T16:07:03Z</time>
      </trkpt>
      <trkpt lat="41.7530410" lon="-1.1597800">
        <ele>244.8</ele>
        <time>2021-09-28T16:07:10Z</time>
      </trkpt>
      <trkpt lat="41.7532640" lon="-1.1595420">
        <ele>244.8</ele>
        <time>2021-09-28T16:07:15Z</time>
      </trkpt>
      <trkpt lat="41.7536690" lon="-1.1590580">
        <ele>244.8</ele>
        <time>2021-09-28T16:07:24Z</time>
      </trkpt>
      <trkpt lat="41.7537910" lon="-1.1588750">
        <ele>245.0</ele>
        <time>2021-09-28T16:07:27Z</time>
      </trkpt>
      <trkpt lat="41.7541580" lon="-1.1583160">
        <ele>244.8</ele>
        <time>2021-09-28T16:07:36Z</time>
      </trkpt>
      <trkpt lat="41.7544460" lon="-1.1578720">
        <ele>244.8</ele>
        <time>2021-09-28T16:07:43Z</time>
      </trkpt>
      <trkpt lat="41.7546070" lon="-1.1576170">
        <ele>244.6</ele>
        <time>2021-09-28T16:07:47Z</time>
      </trkpt>
      <trkpt lat="41.7550220" lon="-1.1571120">
        <ele>244.8</ele>
        <time>2021-09-28T16:07:56Z</time>
      </trkpt>
      <trkpt lat="41.7555030" lon="-1.1567430">
        <ele>244.6</ele>
        <time>2021-09-28T16:08:05Z</time>
      </trkpt>
      <trkpt lat="41.7560290" lon="-1.1563860">
        <ele>244.2</ele>
        <time>2021-09-28T16:08:15Z</time>
      </trkpt>
      <trkpt lat="41.7565010" lon="-1.1560160">
        <ele>244.6</ele>
        <time>2021-09-28T16:08:25Z</time>
      </trkpt>
      <trkpt lat="41.7569530" lon="-1.1555850">
        <ele>245.0</ele>
        <time>2021-09-28T16:08:35Z</time>
      </trkpt>
      <trkpt lat="41.7573670" lon="-1.1551150">
        <ele>245.2</ele>
        <time>2021-09-28T16:08:44Z</time>
      </trkpt>
      <trkpt lat="41.7575770" lon="-1.1548380">
        <ele>245.4</ele>
        <time>2021-09-28T16:08:49Z</time>
      </trkpt>
      <trkpt lat="41.7577290" lon="-1.1546100">
        <ele>245.4</ele>
        <time>2021-09-28T16:08:53Z</time>
      </trkpt>
      <trkpt lat="41.7577920" lon="-1.1544950">
        <ele>245.6</ele>
        <time>2021-09-28T16:08:55Z</time>
      </trkpt>
      <trkpt lat="41.7579280" lon="-1.1541610">
        <ele>245.4</ele>
        <time>2021-09-28T16:09:00Z</time>
      </trkpt>
      <trkpt lat="41.7580230" lon="-1.1538480">
        <ele>245.4</ele>
        <time>2021-09-28T16:09:04Z</time>
      </trkpt>
      <trkpt lat="41.7582580" lon="-1.1531020">
        <ele>245.2</ele>
        <time>2021-09-28T16:09:13Z</time>
      </trkpt>
      <trkpt lat="41.7585330" lon="-1.1524000">
        <ele>245.4</ele>
        <time>2021-09-28T16:09:22Z</time>
      </trkpt>
      <trkpt lat="41.7588530" lon="-1.1517340">
        <ele>245.6</ele>
        <time>2021-09-28T16:09:31Z</time>
      </trkpt>
      <trkpt lat="41.7591790" lon="-1.1510880">
        <ele>245.6</ele>
        <time>2021-09-28T16:09:40Z</time>
      </trkpt>
      <trkpt lat="41.7595180" lon="-1.1504380">
        <ele>245.4</ele>
        <time>2021-09-28T16:09:49Z</time>
      </trkpt>
      <trkpt lat="41.7598570" lon="-1.1498010">
        <ele>245.2</ele>
        <time>2021-09-28T16:09:58Z</time>
      </trkpt>
      <trkpt lat="41.7601800" lon="-1.1491660">
        <ele>245.4</ele>
        <time>2021-09-28T16:10:07Z</time>
      </trkpt>
      <trkpt lat="41.7604540" lon="-1.1484930">
        <ele>246.0</ele>
        <time>2021-09-28T16:10:16Z</time>
      </trkpt>
      <trkpt lat="41.7606530" lon="-1.1480830">
        <ele>246.0</ele>
        <time>2021-09-28T16:10:22Z</time>
      </trkpt>
      <trkpt lat="41.7607130" lon="-1.1479560">
        <ele>246.0</ele>
        <time>2021-09-28T16:10:24Z</time>
      </trkpt>
      <trkpt lat="41.7608180" lon="-1.1476820">
        <ele>246.2</ele>
        <time>2021-09-28T16:10:29Z</time>
      </trkpt>
      <trkpt lat="41.7609610" lon="-1.1475440">
        <ele>246.2</ele>
        <time>2021-09-28T16:10:33Z</time>
      </trkpt>
      <trkpt lat="41.7613360" lon="-1.1474550">
        <ele>246.2</ele>
        <time>2021-09-28T16:10:40Z</time>
      </trkpt>
      <trkpt lat="41.7615250" lon="-1.1474660">
        <ele>246.4</ele>
        <time>2021-09-28T16:10:44Z</time>
      </trkpt>
      <trkpt lat="41.7615700" lon="-1.1474670">
        <ele>246.4</ele>
        <time>2021-09-28T16:10:45Z</time>
      </trkpt>
      <trkpt lat="41.7619700" lon="-1.1474980">
        <ele>245.8</ele>
        <time>2021-09-28T16:10:53Z</time>
      </trkpt>
      <trkpt lat="41.7621620" lon="-1.1475560">
        <ele>246.2</ele>
        <time>2021-09-28T16:10:57Z</time>
      </trkpt>
      <trkpt lat="41.7623330" lon="-1.1477180">
        <ele>246.2</ele>
        <time>2021-09-28T16:11:01Z</time>
      </trkpt>
      <trkpt lat="41.7625000" lon="-1.1479630">
        <ele>245.6</ele>
        <time>2021-09-28T16:11:05Z</time>
      </trkpt>
      <trkpt lat="41.7626200" lon="-1.1481670">
        <ele>245.4</ele>
        <time>2021-09-28T16:11:08Z</time>
      </trkpt>
      <trkpt lat="41.7627570" lon="-1.1484750">
        <ele>245.0</ele>
        <time>2021-09-28T16:11:12Z</time>
      </trkpt>
      <trkpt lat="41.7628770" lon="-1.1489050">
        <ele>244.4</ele>
        <time>2021-09-28T16:11:17Z</time>
      </trkpt>
      <trkpt lat="41.7628950" lon="-1.1489950">
        <ele>244.4</ele>
        <time>2021-09-28T16:11:18Z</time>
      </trkpt>
      <trkpt lat="41.7630260" lon="-1.1497380">
        <ele>244.2</ele>
        <time>2021-09-28T16:11:26Z</time>
      </trkpt>
      <trkpt lat="41.7631360" lon="-1.1504590">
        <ele>244.2</ele>
        <time>2021-09-28T16:11:34Z</time>
      </trkpt>
      <trkpt lat="41.7633090" lon="-1.1512280">
        <ele>244.2</ele>
        <time>2021-09-28T16:11:43Z</time>
      </trkpt>
      <trkpt lat="41.7634790" lon="-1.1519150">
        <ele>244.2</ele>
        <time>2021-09-28T16:11:51Z</time>
      </trkpt>
      <trkpt lat="41.7635790" lon="-1.1526330">
        <ele>244.0</ele>
        <time>2021-09-28T16:11:59Z</time>
      </trkpt>
      <trkpt lat="41.7636370" lon="-1.1530870">
        <ele>244.0</ele>
        <time>2021-09-28T16:12:04Z</time>
      </trkpt>
      <trkpt lat="41.7637260" lon="-1.1537990">
        <ele>243.8</ele>
        <time>2021-09-28T16:12:12Z</time>
      </trkpt>
      <trkpt lat="41.7638850" lon="-1.1545580">
        <ele>243.8</ele>
        <time>2021-09-28T16:12:21Z</time>
      </trkpt>
      <trkpt lat="41.7641160" lon="-1.1552650">
        <ele>243.8</ele>
        <time>2021-09-28T16:12:30Z</time>
      </trkpt>
      <trkpt lat="41.7643630" lon="-1.1559720">
        <ele>243.6</ele>
        <time>2021-09-28T16:12:39Z</time>
      </trkpt>
      <trkpt lat="41.7645910" lon="-1.1566700">
        <ele>243.6</ele>
        <time>2021-09-28T16:12:48Z</time>
      </trkpt>
      <trkpt lat="41.7648160" lon="-1.1573560">
        <ele>244.0</ele>
        <time>2021-09-28T16:12:57Z</time>
      </trkpt>
      <trkpt lat="41.7650470" lon="-1.1580430">
        <ele>244.2</ele>
        <time>2021-09-28T16:13:06Z</time>
      </trkpt>
      <trkpt lat="41.7654240" lon="-1.1586600">
        <ele>244.2</ele>
        <time>2021-09-28T16:13:15Z</time>
      </trkpt>
      <trkpt lat="41.7658070" lon="-1.1592080">
        <ele>243.8</ele>
        <time>2021-09-28T16:13:23Z</time>
      </trkpt>
      <trkpt lat="41.7661840" lon="-1.1597500">
        <ele>243.2</ele>
        <time>2021-09-28T16:13:31Z</time>
      </trkpt>
      <trkpt lat="41.7663640" lon="-1.1600210">
        <ele>243.2</ele>
        <time>2021-09-28T16:13:35Z</time>
      </trkpt>
      <trkpt lat="41.7666810" lon="-1.1606990">
        <ele>243.2</ele>
        <time>2021-09-28T16:13:44Z</time>
      </trkpt>
      <trkpt lat="41.7668170" lon="-1.1614730">
        <ele>243.8</ele>
        <time>2021-09-28T16:13:53Z</time>
      </trkpt>
      <trkpt lat="41.7670520" lon="-1.1622060">
        <ele>243.8</ele>
        <time>2021-09-28T16:14:02Z</time>
      </trkpt>
      <trkpt lat="41.7672000" lon="-1.1626980">
        <ele>243.8</ele>
        <time>2021-09-28T16:14:08Z</time>
      </trkpt>
      <trkpt lat="41.7672830" lon="-1.1633070">
        <ele>244.0</ele>
        <time>2021-09-28T16:14:15Z</time>
      </trkpt>
      <trkpt lat="41.7672430" lon="-1.1636580">
        <ele>244.2</ele>
        <time>2021-09-28T16:14:19Z</time>
      </trkpt>
      <trkpt lat="41.7671860" lon="-1.1643470">
        <ele>244.6</ele>
        <time>2021-09-28T16:14:27Z</time>
      </trkpt>
      <trkpt lat="41.7673070" lon="-1.1651310">
        <ele>244.6</ele>
        <time>2021-09-28T16:14:36Z</time>
      </trkpt>
      <trkpt lat="41.7673200" lon="-1.1659210">
        <ele>244.4</ele>
        <time>2021-09-28T16:14:45Z</time>
      </trkpt>
      <trkpt lat="41.7674290" lon="-1.1666810">
        <ele>245.0</ele>
        <time>2021-09-28T16:14:54Z</time>
      </trkpt>
      <trkpt lat="41.7675840" lon="-1.1674270">
        <ele>245.0</ele>
        <time>2021-09-28T16:15:03Z</time>
      </trkpt>
      <trkpt lat="41.7676600" lon="-1.1681900">
        <ele>245.0</ele>
        <time>2021-09-28T16:15:12Z</time>
      </trkpt>
      <trkpt lat="41.7677100" lon="-1.1689560">
        <ele>245.0</ele>
        <time>2021-09-28T16:15:22Z</time>
      </trkpt>
      <trkpt lat="41.7677290" lon="-1.1692210">
        <ele>245.4</ele>
        <time>2021-09-28T16:15:26Z</time>
      </trkpt>
      <trkpt lat="41.7677550" lon="-1.1695690">
        <ele>245.8</ele>
        <time>2021-09-28T16:15:31Z</time>
      </trkpt>
      <trkpt lat="41.7678100" lon="-1.1703490">
        <ele>245.8</ele>
        <time>2021-09-28T16:15:41Z</time>
      </trkpt>
      <trkpt lat="41.7679330" lon="-1.1711020">
        <ele>245.4</ele>
        <time>2021-09-28T16:15:51Z</time>
      </trkpt>
      <trkpt lat="41.7680510" lon="-1.1713570">
        <ele>245.4</ele>
        <time>2021-09-28T16:15:55Z</time>
      </trkpt>
      <trkpt lat="41.7682940" lon="-1.1716700">
        <ele>245.6</ele>
        <time>2021-09-28T16:16:01Z</time>
      </trkpt>
      <trkpt lat="41.7684760" lon="-1.1721760">
        <ele>245.4</ele>
        <time>2021-09-28T16:16:08Z</time>
      </trkpt>
      <trkpt lat="41.7686910" lon="-1.1728660">
        <ele>245.4</ele>
        <time>2021-09-28T16:16:17Z</time>
      </trkpt>
      <trkpt lat="41.7689170" lon="-1.1735800">
        <ele>245.2</ele>
        <time>2021-09-28T16:16:26Z</time>
      </trkpt>
      <trkpt lat="41.7690960" lon="-1.1743290">
        <ele>244.6</ele>
        <time>2021-09-28T16:16:35Z</time>
      </trkpt>
      <trkpt lat="41.7691240" lon="-1.1750310">
        <ele>244.4</ele>
        <time>2021-09-28T16:16:43Z</time>
      </trkpt>
      <trkpt lat="41.7690890" lon="-1.1757980">
        <ele>244.6</ele>
        <time>2021-09-28T16:16:52Z</time>
      </trkpt>
      <trkpt lat="41.7690400" lon="-1.1765190">
        <ele>245.0</ele>
        <time>2021-09-28T16:17:01Z</time>
      </trkpt>
      <trkpt lat="41.7690200" lon="-1.1769010">
        <ele>245.2</ele>
        <time>2021-09-28T16:17:06Z</time>
      </trkpt>
      <trkpt lat="41.7690140" lon="-1.1769720">
        <ele>245.4</ele>
        <time>2021-09-28T16:17:07Z</time>
      </trkpt>
      <trkpt lat="41.7689810" lon="-1.1775180">
        <ele>245.8</ele>
        <time>2021-09-28T16:17:15Z</time>
      </trkpt>
      <trkpt lat="41.7689780" lon="-1.1777420">
        <ele>245.8</ele>
        <time>2021-09-28T16:17:18Z</time>
      </trkpt>
      <trkpt lat="41.7689260" lon="-1.1784660">
        <ele>246.0</ele>
        <time>2021-09-28T16:17:27Z</time>
      </trkpt>
      <trkpt lat="41.7688960" lon="-1.1789660">
        <ele>245.8</ele>
        <time>2021-09-28T16:17:33Z</time>
      </trkpt>
      <trkpt lat="41.7688560" lon="-1.1797110">
        <ele>245.8</ele>
        <time>2021-09-28T16:17:42Z</time>
      </trkpt>
      <trkpt lat="41.7688120" lon="-1.1804520">
        <ele>245.6</ele>
        <time>2021-09-28T16:17:51Z</time>
      </trkpt>
      <trkpt lat="41.7687360" lon="-1.1811980">
        <ele>245.8</ele>
        <time>2021-09-28T16:18:00Z</time>
      </trkpt>
      <trkpt lat="41.7684410" lon="-1.1818630">
        <ele>246.0</ele>
        <time>2021-09-28T16:18:09Z</time>
      </trkpt>
      <trkpt lat="41.7682770" lon="-1.1823340">
        <ele>246.0</ele>
        <time>2021-09-28T16:18:15Z</time>
      </trkpt>
      <trkpt lat="41.7682870" lon="-1.1827640">
        <ele>246.0</ele>
        <time>2021-09-28T16:18:20Z</time>
      </trkpt>
      <trkpt lat="41.7684100" lon="-1.1835460">
        <ele>246.0</ele>
        <time>2021-09-28T16:18:29Z</time>
      </trkpt>
      <trkpt lat="41.7684110" lon="-1.1843200">
        <ele>245.6</ele>
        <time>2021-09-28T16:18:37Z</time>
      </trkpt>
      <trkpt lat="41.7683040" lon="-1.1851210">
        <ele>244.8</ele>
        <time>2021-09-28T16:18:45Z</time>
      </trkpt>
      <trkpt lat="41.7681750" lon="-1.1858820">
        <ele>244.8</ele>
        <time>2021-09-28T16:18:53Z</time>
      </trkpt>
      <trkpt lat="41.7680430" lon="-1.1866270">
        <ele>245.2</ele>
        <time>2021-09-28T16:19:01Z</time>
      </trkpt>
      <trkpt lat="41.7679030" lon="-1.1873520">
        <ele>245.4</ele>
        <time>2021-09-28T16:19:09Z</time>
      </trkpt>
      <trkpt lat="41.7676590" lon="-1.1880250">
        <ele>245.6</ele>
        <time>2021-09-28T16:19:17Z</time>
      </trkpt>
      <trkpt lat="41.7673030" lon="-1.1886290">
        <ele>245.6</ele>
        <time>2021-09-28T16:19:26Z</time>
      </trkpt>
      <trkpt lat="41.7671590" lon="-1.1889090">
        <ele>245.8</ele>
        <time>2021-09-28T16:19:30Z</time>
      </trkpt>
      <trkpt lat="41.7669970" lon="-1.1895710">
        <ele>245.8</ele>
        <time>2021-09-28T16:19:38Z</time>
      </trkpt>
      <trkpt lat="41.7669860" lon="-1.1897440">
        <ele>245.8</ele>
        <time>2021-09-28T16:19:40Z</time>
      </trkpt>
      <trkpt lat="41.7670220" lon="-1.1900920">
        <ele>245.8</ele>
        <time>2021-09-28T16:19:44Z</time>
      </trkpt>
      <trkpt lat="41.7671520" lon="-1.1907130">
        <ele>245.6</ele>
        <time>2021-09-28T16:19:51Z</time>
      </trkpt>
      <trkpt lat="41.7672150" lon="-1.1909880">
        <ele>245.6</ele>
        <time>2021-09-28T16:19:54Z</time>
      </trkpt>
      <trkpt lat="41.7673740" lon="-1.1917420">
        <ele>245.2</ele>
        <time>2021-09-28T16:20:02Z</time>
      </trkpt>
      <trkpt lat="41.7675250" lon="-1.1924950">
        <ele>244.8</ele>
        <time>2021-09-28T16:20:10Z</time>
      </trkpt>
      <trkpt lat="41.7675960" lon="-1.1932450">
        <ele>245.0</ele>
        <time>2021-09-28T16:20:18Z</time>
      </trkpt>
      <trkpt lat="41.7675710" lon="-1.1939760">
        <ele>245.2</ele>
        <time>2021-09-28T16:20:26Z</time>
      </trkpt>
      <trkpt lat="41.7675480" lon="-1.1942850">
        <ele>245.6</ele>
        <time>2021-09-28T16:20:30Z</time>
      </trkpt>
      <trkpt lat="41.7676130" lon="-1.1945480">
        <ele>246.4</ele>
        <time>2021-09-28T16:20:35Z</time>
      </trkpt>
      <trkpt lat="41.7677260" lon="-1.1946830">
        <ele>247.4</ele>
        <time>2021-09-28T16:20:39Z</time>
      </trkpt>
      <trkpt lat="41.7677610" lon="-1.1947110">
        <ele>247.6</ele>
        <time>2021-09-28T16:20:40Z</time>
      </trkpt>
      <trkpt lat="41.7678690" lon="-1.1947920">
        <ele>248.8</ele>
        <time>2021-09-28T16:20:43Z</time>
      </trkpt>
      <trkpt lat="41.7679720" lon="-1.1948680">
        <ele>249.6</ele>
        <time>2021-09-28T16:20:46Z</time>
      </trkpt>
      <trkpt lat="41.7680020" lon="-1.1948930">
        <ele>249.8</ele>
        <time>2021-09-28T16:20:47Z</time>
      </trkpt>
      <trkpt lat="41.7680910" lon="-1.1949670">
        <ele>251.0</ele>
        <time>2021-09-28T16:20:50Z</time>
      </trkpt>
      <trkpt lat="41.7681850" lon="-1.1950230">
        <ele>252.2</ele>
        <time>2021-09-28T16:20:53Z</time>
      </trkpt>
      <trkpt lat="41.7682530" lon="-1.1950600">
        <ele>253.4</ele>
        <time>2021-09-28T16:20:55Z</time>
      </trkpt>
      <trkpt lat="41.7683260" lon="-1.1951080">
        <ele>253.6</ele>
        <time>2021-09-28T16:20:57Z</time>
      </trkpt>
      <trkpt lat="41.7684020" lon="-1.1951650">
        <ele>254.0</ele>
        <time>2021-09-28T16:20:59Z</time>
      </trkpt>
      <trkpt lat="41.7686530" lon="-1.1953150">
        <ele>254.2</ele>
        <time>2021-09-28T16:21:05Z</time>
      </trkpt>
      <trkpt lat="41.7686960" lon="-1.1953430">
        <ele>254.2</ele>
        <time>2021-09-28T16:21:06Z</time>
      </trkpt>
      <trkpt lat="41.7687930" lon="-1.1955000">
        <ele>254.2</ele>
        <time>2021-09-28T16:21:09Z</time>
      </trkpt>
      <trkpt lat="41.7687850" lon="-1.1957430">
        <ele>254.2</ele>
        <time>2021-09-28T16:21:12Z</time>
      </trkpt>
      <trkpt lat="41.7687630" lon="-1.1958330">
        <ele>254.2</ele>
        <time>2021-09-28T16:21:13Z</time>
      </trkpt>
      <trkpt lat="41.7686780" lon="-1.1961190">
        <ele>253.6</ele>
        <time>2021-09-28T16:21:16Z</time>
      </trkpt>
      <trkpt lat="41.7685650" lon="-1.1964060">
        <ele>252.4</ele>
        <time>2021-09-28T16:21:19Z</time>
      </trkpt>
      <trkpt lat="41.7684940" lon="-1.1965780">
        <ele>251.0</ele>
        <time>2021-09-28T16:21:21Z</time>
      </trkpt>
      <trkpt lat="41.7684420" lon="-1.1967350">
        <ele>249.4</ele>
        <time>2021-09-28T16:21:23Z</time>
      </trkpt>
      <trkpt lat="41.7684250" lon="-1.1968130">
        <ele>248.6</ele>
        <time>2021-09-28T16:21:24Z</time>
      </trkpt>
      <trkpt lat="41.7684150" lon="-1.1968880">
        <ele>247.8</ele>
        <time>2021-09-28T16:21:25Z</time>
      </trkpt>
      <trkpt lat="41.7684190" lon="-1.1970290">
        <ele>247.2</ele>
        <time>2021-09-28T16:21:27Z</time>
      </trkpt>
      <trkpt lat="41.7685870" lon="-1.1972530">
        <ele>246.6</ele>
        <time>2021-09-28T16:21:32Z</time>
      </trkpt>
      <trkpt lat="41.7691120" lon="-1.1976370">
        <ele>245.6</ele>
        <time>2021-09-28T16:21:42Z</time>
      </trkpt>
      <trkpt lat="41.7694530" lon="-1.1978530">
        <ele>245.0</ele>
        <time>2021-09-28T16:21:48Z</time>
      </trkpt>
      <trkpt lat="41.7696920" lon="-1.1979960">
        <ele>245.0</ele>
        <time>2021-09-28T16:21:52Z</time>
      </trkpt>
      <trkpt lat="41.7699460" lon="-1.1981150">
        <ele>244.8</ele>
        <time>2021-09-28T16:21:56Z</time>
      </trkpt>
      <trkpt lat="41.7705340" lon="-1.1982870">
        <ele>244.6</ele>
        <time>2021-09-28T16:22:05Z</time>
      </trkpt>
      <trkpt lat="41.7711300" lon="-1.1983640">
        <ele>244.4</ele>
        <time>2021-09-28T16:22:14Z</time>
      </trkpt>
      <trkpt lat="41.7715310" lon="-1.1984050">
        <ele>244.4</ele>
        <time>2021-09-28T16:22:20Z</time>
      </trkpt>
      <trkpt lat="41.7721120" lon="-1.1985580">
        <ele>244.4</ele>
        <time>2021-09-28T16:22:29Z</time>
      </trkpt>
      <trkpt lat="41.7726880" lon="-1.1985660">
        <ele>244.2</ele>
        <time>2021-09-28T16:22:38Z</time>
      </trkpt>
      <trkpt lat="41.7732440" lon="-1.1983680">
        <ele>245.0</ele>
        <time>2021-09-28T16:22:47Z</time>
      </trkpt>
      <trkpt lat="41.7733790" lon="-1.1983560">
        <ele>245.0</ele>
        <time>2021-09-28T16:22:49Z</time>
      </trkpt>
      <trkpt lat="41.7736960" lon="-1.1984990">
        <ele>245.2</ele>
        <time>2021-09-28T16:22:54Z</time>
      </trkpt>
      <trkpt lat="41.7738060" lon="-1.1986000">
        <ele>245.2</ele>
        <time>2021-09-28T16:22:56Z</time>
      </trkpt>
      <trkpt lat="41.7741920" lon="-1.1991240">
        <ele>244.4</ele>
        <time>2021-09-28T16:23:04Z</time>
      </trkpt>
      <trkpt lat="41.7745960" lon="-1.1996900">
        <ele>244.6</ele>
        <time>2021-09-28T16:23:13Z</time>
      </trkpt>
      <trkpt lat="41.7750370" lon="-1.2000380">
        <ele>244.6</ele>
        <time>2021-09-28T16:23:21Z</time>
      </trkpt>
      <trkpt lat="41.7753400" lon="-1.2001580">
        <ele>244.6</ele>
        <time>2021-09-28T16:23:26Z</time>
      </trkpt>
      <trkpt lat="41.7759020" lon="-1.2003010">
        <ele>244.4</ele>
        <time>2021-09-28T16:23:35Z</time>
      </trkpt>
      <trkpt lat="41.7762700" lon="-1.2004400">
        <ele>244.4</ele>
        <time>2021-09-28T16:23:41Z</time>
      </trkpt>
      <trkpt lat="41.7766330" lon="-1.2006130">
        <ele>244.4</ele>
        <time>2021-09-28T16:23:47Z</time>
      </trkpt>
      <trkpt lat="41.7771490" lon="-1.2009040">
        <ele>244.6</ele>
        <time>2021-09-28T16:23:56Z</time>
      </trkpt>
      <trkpt lat="41.7773970" lon="-1.2011200">
        <ele>245.0</ele>
        <time>2021-09-28T16:24:01Z</time>
      </trkpt>
      <trkpt lat="41.7776320" lon="-1.2014760">
        <ele>245.2</ele>
        <time>2021-09-28T16:24:07Z</time>
      </trkpt>
      <trkpt lat="41.7779820" lon="-1.2020930">
        <ele>244.8</ele>
        <time>2021-09-28T16:24:17Z</time>
      </trkpt>
      <trkpt lat="41.7783280" lon="-1.2027100">
        <ele>245.2</ele>
        <time>2021-09-28T16:24:27Z</time>
      </trkpt>
      <trkpt lat="41.7783960" lon="-1.2028340">
        <ele>245.4</ele>
        <time>2021-09-28T16:24:29Z</time>
      </trkpt>
      <trkpt lat="41.7785700" lon="-1.2031440">
        <ele>245.4</ele>
        <time>2021-09-28T16:24:34Z</time>
      </trkpt>
      <trkpt lat="41.7788690" lon="-1.2035990">
        <ele>245.4</ele>
        <time>2021-09-28T16:24:42Z</time>
      </trkpt>
      <trkpt lat="41.7792420" lon="-1.2041690">
        <ele>245.2</ele>
        <time>2021-09-28T16:24:52Z</time>
      </trkpt>
      <trkpt lat="41.7794260" lon="-1.2044730">
        <ele>245.0</ele>
        <time>2021-09-28T16:24:57Z</time>
      </trkpt>
      <trkpt lat="41.7796940" lon="-1.2049530">
        <ele>245.0</ele>
        <time>2021-09-28T16:25:06Z</time>
      </trkpt>
      <trkpt lat="41.7800540" lon="-1.2055190">
        <ele>246.4</ele>
        <time>2021-09-28T16:25:17Z</time>
      </trkpt>
      <trkpt lat="41.7802990" lon="-1.2058900">
        <ele>246.4</ele>
        <time>2021-09-28T16:25:24Z</time>
      </trkpt>
      <trkpt lat="41.7806610" lon="-1.2064560">
        <ele>246.0</ele>
        <time>2021-09-28T16:25:35Z</time>
      </trkpt>
      <trkpt lat="41.7810340" lon="-1.2070000">
        <ele>245.4</ele>
        <time>2021-09-28T16:25:45Z</time>
      </trkpt>
      <trkpt lat="41.7812370" lon="-1.2073070">
        <ele>244.8</ele>
        <time>2021-09-28T16:25:50Z</time>
      </trkpt>
      <trkpt lat="41.7815920" lon="-1.2078740">
        <ele>244.4</ele>
        <time>2021-09-28T16:25:59Z</time>
      </trkpt>
      <trkpt lat="41.7817900" lon="-1.2081980">
        <ele>244.2</ele>
        <time>2021-09-28T16:26:04Z</time>
      </trkpt>
      <trkpt lat="41.7821530" lon="-1.2087860">
        <ele>244.2</ele>
        <time>2021-09-28T16:26:13Z</time>
      </trkpt>
      <trkpt lat="41.7825820" lon="-1.2093340">
        <ele>244.2</ele>
        <time>2021-09-28T16:26:22Z</time>
      </trkpt>
      <trkpt lat="41.7830220" lon="-1.2098700">
        <ele>244.0</ele>
        <time>2021-09-28T16:26:31Z</time>
      </trkpt>
      <trkpt lat="41.7834490" lon="-1.2103930">
        <ele>244.2</ele>
        <time>2021-09-28T16:26:40Z</time>
      </trkpt>
      <trkpt lat="41.7837640" lon="-1.2109150">
        <ele>244.6</ele>
        <time>2021-09-28T16:26:48Z</time>
      </trkpt>
      <trkpt lat="41.7839440" lon="-1.2113320">
        <ele>244.8</ele>
        <time>2021-09-28T16:26:54Z</time>
      </trkpt>
      <trkpt lat="41.7840090" lon="-1.2121090">
        <ele>245.0</ele>
        <time>2021-09-28T16:27:04Z</time>
      </trkpt>
      <trkpt lat="41.7840450" lon="-1.2126730">
        <ele>245.2</ele>
        <time>2021-09-28T16:27:11Z</time>
      </trkpt>
      <trkpt lat="41.7840800" lon="-1.2133910">
        <ele>245.2</ele>
        <time>2021-09-28T16:27:21Z</time>
      </trkpt>
      <trkpt lat="41.7840780" lon="-1.2134590">
        <ele>245.2</ele>
        <time>2021-09-28T16:27:22Z</time>
      </trkpt>
      <trkpt lat="41.7840900" lon="-1.2136690">
        <ele>245.4</ele>
        <time>2021-09-28T16:27:25Z</time>
      </trkpt>
      <trkpt lat="41.7841360" lon="-1.2144490">
        <ele>246.0</ele>
        <time>2021-09-28T16:27:36Z</time>
      </trkpt>
      <trkpt lat="41.7841420" lon="-1.2152200">
        <ele>245.8</ele>
        <time>2021-09-28T16:27:47Z</time>
      </trkpt>
      <trkpt lat="41.7841340" lon="-1.2152840">
        <ele>245.6</ele>
        <time>2021-09-28T16:27:48Z</time>
      </trkpt>
      <trkpt lat="41.7840990" lon="-1.2154780">
        <ele>245.8</ele>
        <time>2021-09-28T16:27:51Z</time>
      </trkpt>
      <trkpt lat="41.7840100" lon="-1.2160160">
        <ele>246.0</ele>
        <time>2021-09-28T16:27:59Z</time>
      </trkpt>
      <trkpt lat="41.7839090" lon="-1.2164990">
        <ele>246.2</ele>
        <time>2021-09-28T16:28:07Z</time>
      </trkpt>
      <trkpt lat="41.7838560" lon="-1.2168190">
        <ele>246.2</ele>
        <time>2021-09-28T16:28:13Z</time>
      </trkpt>
      <trkpt lat="41.7836430" lon="-1.2175410">
        <ele>246.8</ele>
        <time>2021-09-28T16:28:27Z</time>
      </trkpt>
      <trkpt lat="41.7833910" lon="-1.2180760">
        <ele>245.2</ele>
        <time>2021-09-28T16:28:35Z</time>
      </trkpt>
      <trkpt lat="41.7831070" lon="-1.2187290">
        <ele>245.0</ele>
        <time>2021-09-28T16:28:45Z</time>
      </trkpt>
      <trkpt lat="41.7829520" lon="-1.2190580">
        <ele>245.0</ele>
        <time>2021-09-28T16:28:50Z</time>
      </trkpt>
      <trkpt lat="41.7826670" lon="-1.2197280">
        <ele>245.0</ele>
        <time>2021-09-28T16:29:00Z</time>
      </trkpt>
      <trkpt lat="41.7826090" lon="-1.2200250">
        <ele>245.0</ele>
        <time>2021-09-28T16:29:04Z</time>
      </trkpt>
      <trkpt lat="41.7826660" lon="-1.2203830">
        <ele>244.8</ele>
        <time>2021-09-28T16:29:09Z</time>
      </trkpt>
      <trkpt lat="41.7827090" lon="-1.2205160">
        <ele>244.8</ele>
        <time>2021-09-28T16:29:11Z</time>
      </trkpt>
      <trkpt lat="41.7829800" lon="-1.2211620">
        <ele>244.8</ele>
        <time>2021-09-28T16:29:22Z</time>
      </trkpt>
      <trkpt lat="41.7832390" lon="-1.2218650">
        <ele>244.6</ele>
        <time>2021-09-28T16:29:32Z</time>
      </trkpt>
      <trkpt lat="41.7833560" lon="-1.2221570">
        <ele>244.6</ele>
        <time>2021-09-28T16:29:36Z</time>
      </trkpt>
      <trkpt lat="41.7835790" lon="-1.2226480">
        <ele>244.4</ele>
        <time>2021-09-28T16:29:43Z</time>
      </trkpt>
      <trkpt lat="41.7838740" lon="-1.2232580">
        <ele>244.6</ele>
        <time>2021-09-28T16:29:54Z</time>
      </trkpt>
      <trkpt lat="41.7841460" lon="-1.2238900">
        <ele>246.4</ele>
        <time>2021-09-28T16:30:07Z</time>
      </trkpt>
      <trkpt lat="41.7843950" lon="-1.2244650">
        <ele>244.4</ele>
        <time>2021-09-28T16:30:15Z</time>
      </trkpt>
      <trkpt lat="41.7845330" lon="-1.2247420">
        <ele>243.8</ele>
        <time>2021-09-28T16:30:19Z</time>
      </trkpt>
      <trkpt lat="41.7848690" lon="-1.2253310">
        <ele>243.6</ele>
        <time>2021-09-28T16:30:28Z</time>
      </trkpt>
      <trkpt lat="41.7852890" lon="-1.2257970">
        <ele>243.8</ele>
        <time>2021-09-28T16:30:37Z</time>
      </trkpt>
      <trkpt lat="41.7857580" lon="-1.2261830">
        <ele>243.8</ele>
        <time>2021-09-28T16:30:46Z</time>
      </trkpt>
      <trkpt lat="41.7861600" lon="-1.2267200">
        <ele>243.8</ele>
        <time>2021-09-28T16:30:55Z</time>
      </trkpt>
      <trkpt lat="41.7865140" lon="-1.2273360">
        <ele>243.8</ele>
        <time>2021-09-28T16:31:04Z</time>
      </trkpt>
      <trkpt lat="41.7867550" lon="-1.2278580">
        <ele>244.0</ele>
        <time>2021-09-28T16:31:11Z</time>
      </trkpt>
      <trkpt lat="41.7869730" lon="-1.2284240">
        <ele>244.0</ele>
        <time>2021-09-28T16:31:18Z</time>
      </trkpt>
      <trkpt lat="41.7872760" lon="-1.2290350">
        <ele>243.4</ele>
        <time>2021-09-28T16:31:26Z</time>
      </trkpt>
      <trkpt lat="41.7876150" lon="-1.2296080">
        <ele>243.2</ele>
        <time>2021-09-28T16:31:34Z</time>
      </trkpt>
      <trkpt lat="41.7876600" lon="-1.2296770">
        <ele>243.2</ele>
        <time>2021-09-28T16:31:35Z</time>
      </trkpt>
      <trkpt lat="41.7880230" lon="-1.2302220">
        <ele>242.8</ele>
        <time>2021-09-28T16:31:43Z</time>
      </trkpt>
      <trkpt lat="41.7883140" lon="-1.2308230">
        <ele>242.8</ele>
        <time>2021-09-28T16:31:51Z</time>
      </trkpt>
      <trkpt lat="41.7884060" lon="-1.2314550">
        <ele>243.0</ele>
        <time>2021-09-28T16:31:58Z</time>
      </trkpt>
      <trkpt lat="41.7884740" lon="-1.2320790">
        <ele>243.6</ele>
        <time>2021-09-28T16:32:05Z</time>
      </trkpt>
      <trkpt lat="41.7887870" lon="-1.2326430">
        <ele>243.6</ele>
        <time>2021-09-28T16:32:13Z</time>
      </trkpt>
      <trkpt lat="41.7892550" lon="-1.2331310">
        <ele>243.0</ele>
        <time>2021-09-28T16:32:22Z</time>
      </trkpt>
      <trkpt lat="41.7894260" lon="-1.2332510">
        <ele>243.0</ele>
        <time>2021-09-28T16:32:25Z</time>
      </trkpt>
      <trkpt lat="41.7898150" lon="-1.2332970">
        <ele>243.0</ele>
        <time>2021-09-28T16:32:31Z</time>
      </trkpt>
      <trkpt lat="41.7903980" lon="-1.2331200">
        <ele>243.4</ele>
        <time>2021-09-28T16:32:40Z</time>
      </trkpt>
      <trkpt lat="41.7909850" lon="-1.2330520">
        <ele>243.4</ele>
        <time>2021-09-28T16:32:49Z</time>
      </trkpt>
      <trkpt lat="41.7915180" lon="-1.2332090">
        <ele>243.0</ele>
        <time>2021-09-28T16:32:57Z</time>
      </trkpt>
      <trkpt lat="41.7920000" lon="-1.2335380">
        <ele>243.0</ele>
        <time>2021-09-28T16:33:05Z</time>
      </trkpt>
      <trkpt lat="41.7924440" lon="-1.2339640">
        <ele>243.0</ele>
        <time>2021-09-28T16:33:13Z</time>
      </trkpt>
      <trkpt lat="41.7928370" lon="-1.2344780">
        <ele>243.0</ele>
        <time>2021-09-28T16:33:21Z</time>
      </trkpt>
      <trkpt lat="41.7932640" lon="-1.2349370">
        <ele>242.8</ele>
        <time>2021-09-28T16:33:29Z</time>
      </trkpt>
      <trkpt lat="41.7937790" lon="-1.2353600">
        <ele>242.8</ele>
        <time>2021-09-28T16:33:38Z</time>
      </trkpt>
      <trkpt lat="41.7942920" lon="-1.2357470">
        <ele>243.0</ele>
        <time>2021-09-28T16:33:47Z</time>
      </trkpt>
      <trkpt lat="41.7947940" lon="-1.2361420">
        <ele>243.2</ele>
        <time>2021-09-28T16:33:56Z</time>
      </trkpt>
      <trkpt lat="41.7952760" lon="-1.2366110">
        <ele>243.2</ele>
        <time>2021-09-28T16:34:05Z</time>
      </trkpt>
      <trkpt lat="41.7957430" lon="-1.2371170">
        <ele>243.4</ele>
        <time>2021-09-28T16:34:14Z</time>
      </trkpt>
      <trkpt lat="41.7962470" lon="-1.2375360">
        <ele>243.4</ele>
        <time>2021-09-28T16:34:23Z</time>
      </trkpt>
      <trkpt lat="41.7963700" lon="-1.2375940">
        <ele>243.2</ele>
        <time>2021-09-28T16:34:25Z</time>
      </trkpt>
      <trkpt lat="41.7969580" lon="-1.2376170">
        <ele>243.0</ele>
        <time>2021-09-28T16:34:34Z</time>
      </trkpt>
      <trkpt lat="41.7975480" lon="-1.2374300">
        <ele>243.0</ele>
        <time>2021-09-28T16:34:43Z</time>
      </trkpt>
      <trkpt lat="41.7979420" lon="-1.2373680">
        <ele>243.0</ele>
        <time>2021-09-28T16:34:49Z</time>
      </trkpt>
      <trkpt lat="41.7982370" lon="-1.2375400">
        <ele>243.0</ele>
        <time>2021-09-28T16:34:54Z</time>
      </trkpt>
      <trkpt lat="41.7986590" lon="-1.2381190">
        <ele>243.2</ele>
        <time>2021-09-28T16:35:03Z</time>
      </trkpt>
      <trkpt lat="41.7989800" lon="-1.2387310">
        <ele>243.2</ele>
        <time>2021-09-28T16:35:11Z</time>
      </trkpt>
      <trkpt lat="41.7992540" lon="-1.2393720">
        <ele>243.0</ele>
        <time>2021-09-28T16:35:19Z</time>
      </trkpt>
      <trkpt lat="41.7995620" lon="-1.2400230">
        <ele>242.8</ele>
        <time>2021-09-28T16:35:27Z</time>
      </trkpt>
      <trkpt lat="41.7998830" lon="-1.2406500">
        <ele>242.2</ele>
        <time>2021-09-28T16:35:35Z</time>
      </trkpt>
      <trkpt lat="41.8002100" lon="-1.2412260">
        <ele>242.2</ele>
        <time>2021-09-28T16:35:43Z</time>
      </trkpt>
      <trkpt lat="41.8006530" lon="-1.2417340">
        <ele>242.2</ele>
        <time>2021-09-28T16:35:52Z</time>
      </trkpt>
      <trkpt lat="41.8011000" lon="-1.2420310">
        <ele>242.2</ele>
        <time>2021-09-28T16:36:00Z</time>
      </trkpt>
      <trkpt lat="41.8016580" lon="-1.2421210">
        <ele>242.4</ele>
        <time>2021-09-28T16:36:09Z</time>
      </trkpt>
      <trkpt lat="41.8022410" lon="-1.2420760">
        <ele>242.6</ele>
        <time>2021-09-28T16:36:18Z</time>
      </trkpt>
      <trkpt lat="41.8028250" lon="-1.2419870">
        <ele>243.0</ele>
        <time>2021-09-28T16:36:27Z</time>
      </trkpt>
      <trkpt lat="41.8033970" lon="-1.2419180">
        <ele>243.2</ele>
        <time>2021-09-28T16:36:36Z</time>
      </trkpt>
      <trkpt lat="41.8037760" lon="-1.2419020">
        <ele>243.2</ele>
        <time>2021-09-28T16:36:42Z</time>
      </trkpt>
      <trkpt lat="41.8043720" lon="-1.2418480">
        <ele>243.0</ele>
        <time>2021-09-28T16:36:52Z</time>
      </trkpt>
      <trkpt lat="41.8049330" lon="-1.2418700">
        <ele>243.2</ele>
        <time>2021-09-28T16:37:01Z</time>
      </trkpt>
      <trkpt lat="41.8055130" lon="-1.2418660">
        <ele>243.0</ele>
        <time>2021-09-28T16:37:10Z</time>
      </trkpt>
      <trkpt lat="41.8060890" lon="-1.2419500">
        <ele>243.0</ele>
        <time>2021-09-28T16:37:19Z</time>
      </trkpt>
      <trkpt lat="41.8066470" lon="-1.2422040">
        <ele>242.6</ele>
        <time>2021-09-28T16:37:28Z</time>
      </trkpt>
      <trkpt lat="41.8070730" lon="-1.2424010">
        <ele>242.4</ele>
        <time>2021-09-28T16:37:35Z</time>
      </trkpt>
      <trkpt lat="41.8073730" lon="-1.2425650">
        <ele>241.8</ele>
        <time>2021-09-28T16:37:40Z</time>
      </trkpt>
      <trkpt lat="41.8079210" lon="-1.2428710">
        <ele>241.8</ele>
        <time>2021-09-28T16:37:49Z</time>
      </trkpt>
      <trkpt lat="41.8084300" lon="-1.2431970">
        <ele>241.8</ele>
        <time>2021-09-28T16:37:58Z</time>
      </trkpt>
      <trkpt lat="41.8089270" lon="-1.2434930">
        <ele>242.0</ele>
        <time>2021-09-28T16:38:07Z</time>
      </trkpt>
      <trkpt lat="41.8094300" lon="-1.2438380">
        <ele>241.8</ele>
        <time>2021-09-28T16:38:16Z</time>
      </trkpt>
      <trkpt lat="41.8096430" lon="-1.2440120">
        <ele>241.4</ele>
        <time>2021-09-28T16:38:20Z</time>
      </trkpt>
      <trkpt lat="41.8101100" lon="-1.2443840">
        <ele>241.6</ele>
        <time>2021-09-28T16:38:29Z</time>
      </trkpt>
      <trkpt lat="41.8105960" lon="-1.2448140">
        <ele>242.6</ele>
        <time>2021-09-28T16:38:39Z</time>
      </trkpt>
      <trkpt lat="41.8106380" lon="-1.2448650">
        <ele>242.6</ele>
        <time>2021-09-28T16:38:40Z</time>
      </trkpt>
      <trkpt lat="41.8107660" lon="-1.2451170">
        <ele>242.6</ele>
        <time>2021-09-28T16:38:44Z</time>
      </trkpt>
      <trkpt lat="41.8108170" lon="-1.2455770">
        <ele>242.8</ele>
        <time>2021-09-28T16:38:50Z</time>
      </trkpt>
      <trkpt lat="41.8107940" lon="-1.2463670">
        <ele>243.4</ele>
        <time>2021-09-28T16:39:00Z</time>
      </trkpt>
      <trkpt lat="41.8107950" lon="-1.2467300">
        <ele>243.6</ele>
        <time>2021-09-28T16:39:05Z</time>
      </trkpt>
      <trkpt lat="41.8108020" lon="-1.2471510">
        <ele>244.6</ele>
        <time>2021-09-28T16:39:11Z</time>
      </trkpt>
      <trkpt lat="41.8108650" lon="-1.2478070">
        <ele>245.6</ele>
        <time>2021-09-28T16:39:21Z</time>
      </trkpt>
      <trkpt lat="41.8108990" lon="-1.2480010">
        <ele>246.8</ele>
        <time>2021-09-28T16:39:25Z</time>
      </trkpt>
      <trkpt lat="41.8109280" lon="-1.2481170">
        <ele>247.8</ele>
        <time>2021-09-28T16:39:28Z</time>
      </trkpt>
      <trkpt lat="41.8109710" lon="-1.2482600">
        <ele>249.0</ele>
        <time>2021-09-28T16:39:31Z</time>
      </trkpt>
      <trkpt lat="41.8110740" lon="-1.2485190">
        <ele>249.2</ele>
        <time>2021-09-28T16:39:35Z</time>
      </trkpt>
      <trkpt lat="41.8112910" lon="-1.2490170">
        <ele>248.8</ele>
        <time>2021-09-28T16:39:41Z</time>
      </trkpt>
      <trkpt lat="41.8113330" lon="-1.2491030">
        <ele>247.2</ele>
        <time>2021-09-28T16:39:42Z</time>
      </trkpt>
      <trkpt lat="41.8114230" lon="-1.2492650">
        <ele>245.6</ele>
        <time>2021-09-28T16:39:44Z</time>
      </trkpt>
      <trkpt lat="41.8115130" lon="-1.2494140">
        <ele>244.2</ele>
        <time>2021-09-28T16:39:46Z</time>
      </trkpt>
      <trkpt lat="41.8116010" lon="-1.2495550">
        <ele>242.8</ele>
        <time>2021-09-28T16:39:48Z</time>
      </trkpt>
      <trkpt lat="41.8117240" lon="-1.2497580">
        <ele>241.6</ele>
        <time>2021-09-28T16:39:51Z</time>
      </trkpt>
      <trkpt lat="41.8120790" lon="-1.2503370">
        <ele>241.4</ele>
        <time>2021-09-28T16:40:00Z</time>
      </trkpt>
      <trkpt lat="41.8124070" lon="-1.2509510">
        <ele>242.0</ele>
        <time>2021-09-28T16:40:09Z</time>
      </trkpt>
      <trkpt lat="41.8126340" lon="-1.2514460">
        <ele>242.4</ele>
        <time>2021-09-28T16:40:16Z</time>
      </trkpt>
      <trkpt lat="41.8129310" lon="-1.2520990">
        <ele>243.0</ele>
        <time>2021-09-28T16:40:25Z</time>
      </trkpt>
      <trkpt lat="41.8131700" lon="-1.2526120">
        <ele>243.0</ele>
        <time>2021-09-28T16:40:32Z</time>
      </trkpt>
      <trkpt lat="41.8134850" lon="-1.2532660">
        <ele>243.0</ele>
        <time>2021-09-28T16:40:41Z</time>
      </trkpt>
      <trkpt lat="41.8137890" lon="-1.2539240">
        <ele>242.6</ele>
        <time>2021-09-28T16:40:50Z</time>
      </trkpt>
      <trkpt lat="41.8140590" lon="-1.2546210">
        <ele>242.4</ele>
        <time>2021-09-28T16:40:59Z</time>
      </trkpt>
      <trkpt lat="41.8142930" lon="-1.2553140">
        <ele>242.4</ele>
        <time>2021-09-28T16:41:08Z</time>
      </trkpt>
      <trkpt lat="41.8143390" lon="-1.2560980">
        <ele>242.6</ele>
        <time>2021-09-28T16:41:17Z</time>
      </trkpt>
      <trkpt lat="41.8142490" lon="-1.2568760">
        <ele>243.0</ele>
        <time>2021-09-28T16:41:26Z</time>
      </trkpt>
      <trkpt lat="41.8141310" lon="-1.2575810">
        <ele>243.0</ele>
        <time>2021-09-28T16:41:34Z</time>
      </trkpt>
      <trkpt lat="41.8141140" lon="-1.2578400">
        <ele>242.8</ele>
        <time>2021-09-28T16:41:37Z</time>
      </trkpt>
      <trkpt lat="41.8142710" lon="-1.2585840">
        <ele>242.8</ele>
        <time>2021-09-28T16:41:46Z</time>
      </trkpt>
      <trkpt lat="41.8145190" lon="-1.2593190">
        <ele>243.0</ele>
        <time>2021-09-28T16:41:55Z</time>
      </trkpt>
      <trkpt lat="41.8147310" lon="-1.2599930">
        <ele>242.8</ele>
        <time>2021-09-28T16:42:03Z</time>
      </trkpt>
      <trkpt lat="41.8148570" lon="-1.2605830">
        <ele>243.0</ele>
        <time>2021-09-28T16:42:10Z</time>
      </trkpt>
      <trkpt lat="41.8149370" lon="-1.2612350">
        <ele>243.4</ele>
        <time>2021-09-28T16:42:18Z</time>
      </trkpt>
      <trkpt lat="41.8148830" lon="-1.2619810">
        <ele>244.0</ele>
        <time>2021-09-28T16:42:27Z</time>
      </trkpt>
      <trkpt lat="41.8147990" lon="-1.2624880">
        <ele>243.8</ele>
        <time>2021-09-28T16:42:33Z</time>
      </trkpt>
      <trkpt lat="41.8147230" lon="-1.2632570">
        <ele>243.6</ele>
        <time>2021-09-28T16:42:42Z</time>
      </trkpt>
      <trkpt lat="41.8148310" lon="-1.2640170">
        <ele>243.6</ele>
        <time>2021-09-28T16:42:51Z</time>
      </trkpt>
      <trkpt lat="41.8150080" lon="-1.2644780">
        <ele>243.6</ele>
        <time>2021-09-28T16:42:57Z</time>
      </trkpt>
      <trkpt lat="41.8154580" lon="-1.2649870">
        <ele>243.2</ele>
        <time>2021-09-28T16:43:06Z</time>
      </trkpt>
      <trkpt lat="41.8158470" lon="-1.2655610">
        <ele>243.2</ele>
        <time>2021-09-28T16:43:15Z</time>
      </trkpt>
      <trkpt lat="41.8158970" lon="-1.2657250">
        <ele>243.2</ele>
        <time>2021-09-28T16:43:17Z</time>
      </trkpt>
      <trkpt lat="41.8160250" lon="-1.2665130">
        <ele>243.8</ele>
        <time>2021-09-28T16:43:26Z</time>
      </trkpt>
      <trkpt lat="41.8163220" lon="-1.2671230">
        <ele>243.8</ele>
        <time>2021-09-28T16:43:34Z</time>
      </trkpt>
      <trkpt lat="41.8166740" lon="-1.2676790">
        <ele>243.6</ele>
        <time>2021-09-28T16:43:42Z</time>
      </trkpt>
      <trkpt lat="41.8169830" lon="-1.2681690">
        <ele>244.2</ele>
        <time>2021-09-28T16:43:49Z</time>
      </trkpt>
      <trkpt lat="41.8174090" lon="-1.2687350">
        <ele>244.4</ele>
        <time>2021-09-28T16:43:58Z</time>
      </trkpt>
      <trkpt lat="41.8177410" lon="-1.2693010">
        <ele>244.4</ele>
        <time>2021-09-28T16:44:06Z</time>
      </trkpt>
      <trkpt lat="41.8179690" lon="-1.2698510">
        <ele>244.4</ele>
        <time>2021-09-28T16:44:13Z</time>
      </trkpt>
      <trkpt lat="41.8183130" lon="-1.2705160">
        <ele>244.8</ele>
        <time>2021-09-28T16:44:22Z</time>
      </trkpt>
      <trkpt lat="41.8185580" lon="-1.2711700">
        <ele>244.8</ele>
        <time>2021-09-28T16:44:30Z</time>
      </trkpt>
      <trkpt lat="41.8188380" lon="-1.2718050">
        <ele>244.8</ele>
        <time>2021-09-28T16:44:38Z</time>
      </trkpt>
      <trkpt lat="41.8191200" lon="-1.2722170">
        <ele>244.8</ele>
        <time>2021-09-28T16:44:44Z</time>
      </trkpt>
      <trkpt lat="41.8195270" lon="-1.2727320">
        <ele>244.4</ele>
        <time>2021-09-28T16:44:52Z</time>
      </trkpt>
      <trkpt lat="41.8199110" lon="-1.2732570">
        <ele>244.0</ele>
        <time>2021-09-28T16:45:00Z</time>
      </trkpt>
      <trkpt lat="41.8203270" lon="-1.2737270">
        <ele>244.0</ele>
        <time>2021-09-28T16:45:08Z</time>
      </trkpt>
      <trkpt lat="41.8208240" lon="-1.2740120">
        <ele>243.8</ele>
        <time>2021-09-28T16:45:16Z</time>
      </trkpt>
      <trkpt lat="41.8213780" lon="-1.2742900">
        <ele>243.4</ele>
        <time>2021-09-28T16:45:25Z</time>
      </trkpt>
      <trkpt lat="41.8219260" lon="-1.2745610">
        <ele>243.2</ele>
        <time>2021-09-28T16:45:34Z</time>
      </trkpt>
      <trkpt lat="41.8224870" lon="-1.2748730">
        <ele>243.6</ele>
        <time>2021-09-28T16:45:43Z</time>
      </trkpt>
      <trkpt lat="41.8229470" lon="-1.2752950">
        <ele>244.0</ele>
        <time>2021-09-28T16:45:51Z</time>
      </trkpt>
      <trkpt lat="41.8233830" lon="-1.2757450">
        <ele>244.0</ele>
        <time>2021-09-28T16:45:59Z</time>
      </trkpt>
      <trkpt lat="41.8238060" lon="-1.2762070">
        <ele>244.0</ele>
        <time>2021-09-28T16:46:07Z</time>
      </trkpt>
      <trkpt lat="41.8242530" lon="-1.2767030">
        <ele>244.0</ele>
        <time>2021-09-28T16:46:16Z</time>
      </trkpt>
      <trkpt lat="41.8246630" lon="-1.2771920">
        <ele>244.4</ele>
        <time>2021-09-28T16:46:25Z</time>
      </trkpt>
      <trkpt lat="41.8250740" lon="-1.2777280">
        <ele>244.6</ele>
        <time>2021-09-28T16:46:34Z</time>
      </trkpt>
      <trkpt lat="41.8253270" lon="-1.2782400">
        <ele>244.6</ele>
        <time>2021-09-28T16:46:41Z</time>
      </trkpt>
      <trkpt lat="41.8253670" lon="-1.2783100">
        <ele>244.6</ele>
        <time>2021-09-28T16:46:42Z</time>
      </trkpt>
      <trkpt lat="41.8254130" lon="-1.2783750">
        <ele>244.6</ele>
        <time>2021-09-28T16:46:43Z</time>
      </trkpt>
      <trkpt lat="41.8258550" lon="-1.2787970">
        <ele>244.2</ele>
        <time>2021-09-28T16:46:51Z</time>
      </trkpt>
      <trkpt lat="41.8263530" lon="-1.2792570">
        <ele>243.6</ele>
        <time>2021-09-28T16:47:00Z</time>
      </trkpt>
      <trkpt lat="41.8267910" lon="-1.2796790">
        <ele>243.6</ele>
        <time>2021-09-28T16:47:08Z</time>
      </trkpt>
      <trkpt lat="41.8272230" lon="-1.2801390">
        <ele>244.0</ele>
        <time>2021-09-28T16:47:16Z</time>
      </trkpt>
      <trkpt lat="41.8276550" lon="-1.2806040">
        <ele>244.0</ele>
        <time>2021-09-28T16:47:24Z</time>
      </trkpt>
      <trkpt lat="41.8280980" lon="-1.2810840">
        <ele>243.8</ele>
        <time>2021-09-28T16:47:32Z</time>
      </trkpt>
      <trkpt lat="41.8284810" lon="-1.2816100">
        <ele>243.6</ele>
        <time>2021-09-28T16:47:40Z</time>
      </trkpt>
      <trkpt lat="41.8287490" lon="-1.2822490">
        <ele>243.8</ele>
        <time>2021-09-28T16:47:48Z</time>
      </trkpt>
      <trkpt lat="41.8289400" lon="-1.2826280">
        <ele>243.8</ele>
        <time>2021-09-28T16:47:53Z</time>
      </trkpt>
      <trkpt lat="41.8293100" lon="-1.2828060">
        <ele>243.8</ele>
        <time>2021-09-28T16:47:59Z</time>
      </trkpt>
      <trkpt lat="41.8298490" lon="-1.2828730">
        <ele>243.2</ele>
        <time>2021-09-28T16:48:07Z</time>
      </trkpt>
      <trkpt lat="41.8304030" lon="-1.2831780">
        <ele>243.0</ele>
        <time>2021-09-28T16:48:16Z</time>
      </trkpt>
      <trkpt lat="41.8305730" lon="-1.2832960">
        <ele>242.6</ele>
        <time>2021-09-28T16:48:19Z</time>
      </trkpt>
      <trkpt lat="41.8310870" lon="-1.2836480">
        <ele>242.4</ele>
        <time>2021-09-28T16:48:28Z</time>
      </trkpt>
      <trkpt lat="41.8315820" lon="-1.2840540">
        <ele>242.8</ele>
        <time>2021-09-28T16:48:37Z</time>
      </trkpt>
      <trkpt lat="41.8319240" lon="-1.2845980">
        <ele>243.0</ele>
        <time>2021-09-28T16:48:45Z</time>
      </trkpt>
      <trkpt lat="41.8320090" lon="-1.2847400">
        <ele>243.0</ele>
        <time>2021-09-28T16:48:47Z</time>
      </trkpt>
      <trkpt lat="41.8324060" lon="-1.2853460">
        <ele>242.8</ele>
        <time>2021-09-28T16:48:56Z</time>
      </trkpt>
      <trkpt lat="41.8327920" lon="-1.2859550">
        <ele>242.6</ele>
        <time>2021-09-28T16:49:05Z</time>
      </trkpt>
      <trkpt lat="41.8331560" lon="-1.2865710">
        <ele>242.4</ele>
        <time>2021-09-28T16:49:14Z</time>
      </trkpt>
      <trkpt lat="41.8333240" lon="-1.2873030">
        <ele>242.2</ele>
        <time>2021-09-28T16:49:23Z</time>
      </trkpt>
      <trkpt lat="41.8335410" lon="-1.2880240">
        <ele>243.0</ele>
        <time>2021-09-28T16:49:32Z</time>
      </trkpt>
      <trkpt lat="41.8338630" lon="-1.2886820">
        <ele>242.8</ele>
        <time>2021-09-28T16:49:41Z</time>
      </trkpt>
      <trkpt lat="41.8342260" lon="-1.2892780">
        <ele>242.6</ele>
        <time>2021-09-28T16:49:50Z</time>
      </trkpt>
      <trkpt lat="41.8346090" lon="-1.2898330">
        <ele>242.6</ele>
        <time>2021-09-28T16:49:59Z</time>
      </trkpt>
      <trkpt lat="41.8350890" lon="-1.2902880">
        <ele>242.4</ele>
        <time>2021-09-28T16:50:08Z</time>
      </trkpt>
      <trkpt lat="41.8355780" lon="-1.2906990">
        <ele>242.0</ele>
        <time>2021-09-28T16:50:17Z</time>
      </trkpt>
      <trkpt lat="41.8360740" lon="-1.2911300">
        <ele>242.2</ele>
        <time>2021-09-28T16:50:26Z</time>
      </trkpt>
      <trkpt lat="41.8365490" lon="-1.2915360">
        <ele>242.4</ele>
        <time>2021-09-28T16:50:35Z</time>
      </trkpt>
      <trkpt lat="41.8370550" lon="-1.2919070">
        <ele>242.2</ele>
        <time>2021-09-28T16:50:44Z</time>
      </trkpt>
      <trkpt lat="41.8375470" lon="-1.2922990">
        <ele>242.0</ele>
        <time>2021-09-28T16:50:53Z</time>
      </trkpt>
      <trkpt lat="41.8375970" lon="-1.2923500">
        <ele>242.2</ele>
        <time>2021-09-28T16:50:54Z</time>
      </trkpt>
      <trkpt lat="41.8379460" lon="-1.2929480">
        <ele>242.4</ele>
        <time>2021-09-28T16:51:03Z</time>
      </trkpt>
      <trkpt lat="41.8382550" lon="-1.2935910">
        <ele>242.6</ele>
        <time>2021-09-28T16:51:12Z</time>
      </trkpt>
      <trkpt lat="41.8386930" lon="-1.2940780">
        <ele>242.6</ele>
        <time>2021-09-28T16:51:21Z</time>
      </trkpt>
      <trkpt lat="41.8391790" lon="-1.2944700">
        <ele>242.0</ele>
        <time>2021-09-28T16:51:30Z</time>
      </trkpt>
      <trkpt lat="41.8396920" lon="-1.2948100">
        <ele>242.0</ele>
        <time>2021-09-28T16:51:39Z</time>
      </trkpt>
      <trkpt lat="41.8402210" lon="-1.2950940">
        <ele>242.4</ele>
        <time>2021-09-28T16:51:48Z</time>
      </trkpt>
      <trkpt lat="41.8407080" lon="-1.2953490">
        <ele>242.6</ele>
        <time>2021-09-28T16:51:57Z</time>
      </trkpt>
      <trkpt lat="41.8412330" lon="-1.2955380">
        <ele>242.8</ele>
        <time>2021-09-28T16:52:06Z</time>
      </trkpt>
      <trkpt lat="41.8415250" lon="-1.2956610">
        <ele>243.0</ele>
        <time>2021-09-28T16:52:11Z</time>
      </trkpt>
      <trkpt lat="41.8420480" lon="-1.2958790">
        <ele>242.6</ele>
        <time>2021-09-28T16:52:20Z</time>
      </trkpt>
      <trkpt lat="41.8425810" lon="-1.2960940">
        <ele>242.4</ele>
        <time>2021-09-28T16:52:29Z</time>
      </trkpt>
      <trkpt lat="41.8431290" lon="-1.2963280">
        <ele>242.2</ele>
        <time>2021-09-28T16:52:38Z</time>
      </trkpt>
      <trkpt lat="41.8436630" lon="-1.2965790">
        <ele>242.0</ele>
        <time>2021-09-28T16:52:47Z</time>
      </trkpt>
      <trkpt lat="41.8441950" lon="-1.2968250">
        <ele>242.2</ele>
        <time>2021-09-28T16:52:56Z</time>
      </trkpt>
      <trkpt lat="41.8447150" lon="-1.2970580">
        <ele>242.4</ele>
        <time>2021-09-28T16:53:05Z</time>
      </trkpt>
      <trkpt lat="41.8452290" lon="-1.2972930">
        <ele>242.4</ele>
        <time>2021-09-28T16:53:14Z</time>
      </trkpt>
      <trkpt lat="41.8453380" lon="-1.2973700">
        <ele>242.4</ele>
        <time>2021-09-28T16:53:16Z</time>
      </trkpt>
      <trkpt lat="41.8457710" lon="-1.2978430">
        <ele>242.8</ele>
        <time>2021-09-28T16:53:25Z</time>
      </trkpt>
      <trkpt lat="41.8462010" lon="-1.2983510">
        <ele>242.8</ele>
        <time>2021-09-28T16:53:34Z</time>
      </trkpt>
      <trkpt lat="41.8466390" lon="-1.2988570">
        <ele>242.6</ele>
        <time>2021-09-28T16:53:43Z</time>
      </trkpt>
      <trkpt lat="41.8470670" lon="-1.2993630">
        <ele>242.4</ele>
        <time>2021-09-28T16:53:52Z</time>
      </trkpt>
      <trkpt lat="41.8474510" lon="-1.2999130">
        <ele>242.6</ele>
        <time>2021-09-28T16:54:01Z</time>
      </trkpt>
      <trkpt lat="41.8478510" lon="-1.3004400">
        <ele>242.6</ele>
        <time>2021-09-28T16:54:10Z</time>
      </trkpt>
      <trkpt lat="41.8479380" lon="-1.3005610">
        <ele>242.6</ele>
        <time>2021-09-28T16:54:12Z</time>
      </trkpt>
      <trkpt lat="41.8483310" lon="-1.3011120">
        <ele>242.8</ele>
        <time>2021-09-28T16:54:21Z</time>
      </trkpt>
      <trkpt lat="41.8488090" lon="-1.3015460">
        <ele>243.0</ele>
        <time>2021-09-28T16:54:30Z</time>
      </trkpt>
      <trkpt lat="41.8493460" lon="-1.3018870">
        <ele>243.0</ele>
        <time>2021-09-28T16:54:39Z</time>
      </trkpt>
      <trkpt lat="41.8498660" lon="-1.3022320">
        <ele>243.0</ele>
        <time>2021-09-28T16:54:48Z</time>
      </trkpt>
      <trkpt lat="41.8503930" lon="-1.3025640">
        <ele>243.2</ele>
        <time>2021-09-28T16:54:57Z</time>
      </trkpt>
      <trkpt lat="41.8509550" lon="-1.3027710">
        <ele>243.6</ele>
        <time>2021-09-28T16:55:06Z</time>
      </trkpt>
      <trkpt lat="41.8510150" lon="-1.3028020">
        <ele>243.8</ele>
        <time>2021-09-28T16:55:07Z</time>
      </trkpt>
      <trkpt lat="41.8515400" lon="-1.3031500">
        <ele>243.6</ele>
        <time>2021-09-28T16:55:16Z</time>
      </trkpt>
      <trkpt lat="41.8520720" lon="-1.3034090">
        <ele>243.0</ele>
        <time>2021-09-28T16:55:25Z</time>
      </trkpt>
      <trkpt lat="41.8526060" lon="-1.3036150">
        <ele>243.2</ele>
        <time>2021-09-28T16:55:34Z</time>
      </trkpt>
      <trkpt lat="41.8531310" lon="-1.3038190">
        <ele>243.6</ele>
        <time>2021-09-28T16:55:43Z</time>
      </trkpt>
      <trkpt lat="41.8536590" lon="-1.3040070">
        <ele>243.8</ele>
        <time>2021-09-28T16:55:52Z</time>
      </trkpt>
      <trkpt lat="41.8541340" lon="-1.3043640">
        <ele>243.8</ele>
        <time>2021-09-28T16:56:01Z</time>
      </trkpt>
      <trkpt lat="41.8541780" lon="-1.3044190">
        <ele>243.8</ele>
        <time>2021-09-28T16:56:02Z</time>
      </trkpt>
      <trkpt lat="41.8545710" lon="-1.3050140">
        <ele>243.6</ele>
        <time>2021-09-28T16:56:12Z</time>
      </trkpt>
      <trkpt lat="41.8549030" lon="-1.3055950">
        <ele>243.6</ele>
        <time>2021-09-28T16:56:21Z</time>
      </trkpt>
      <trkpt lat="41.8552490" lon="-1.3061690">
        <ele>243.4</ele>
        <time>2021-09-28T16:56:30Z</time>
      </trkpt>
      <trkpt lat="41.8556210" lon="-1.3067100">
        <ele>243.2</ele>
        <time>2021-09-28T16:56:39Z</time>
      </trkpt>
      <trkpt lat="41.8560340" lon="-1.3071940">
        <ele>243.4</ele>
        <time>2021-09-28T16:56:48Z</time>
      </trkpt>
      <trkpt lat="41.8564250" lon="-1.3075700">
        <ele>243.6</ele>
        <time>2021-09-28T16:56:56Z</time>
      </trkpt>
      <trkpt lat="41.8569540" lon="-1.3079010">
        <ele>243.8</ele>
        <time>2021-09-28T16:57:06Z</time>
      </trkpt>
      <trkpt lat="41.8575310" lon="-1.3080210">
        <ele>244.0</ele>
        <time>2021-09-28T16:57:16Z</time>
      </trkpt>
      <trkpt lat="41.8581120" lon="-1.3081470">
        <ele>244.0</ele>
        <time>2021-09-28T16:57:26Z</time>
      </trkpt>
      <trkpt lat="41.8582210" lon="-1.3082070">
        <ele>244.0</ele>
        <time>2021-09-28T16:57:28Z</time>
      </trkpt>
      <trkpt lat="41.8583280" lon="-1.3082740">
        <ele>244.0</ele>
        <time>2021-09-28T16:57:30Z</time>
      </trkpt>
      <trkpt lat="41.8587430" lon="-1.3084380">
        <ele>244.0</ele>
        <time>2021-09-28T16:57:38Z</time>
      </trkpt>
      <trkpt lat="41.8592650" lon="-1.3088170">
        <ele>243.4</ele>
        <time>2021-09-28T16:57:48Z</time>
      </trkpt>
      <trkpt lat="41.8597290" lon="-1.3092110">
        <ele>243.0</ele>
        <time>2021-09-28T16:57:57Z</time>
      </trkpt>
      <trkpt lat="41.8602010" lon="-1.3096250">
        <ele>242.8</ele>
        <time>2021-09-28T16:58:06Z</time>
      </trkpt>
      <trkpt lat="41.8606200" lon="-1.3099790">
        <ele>242.8</ele>
        <time>2021-09-28T16:58:14Z</time>
      </trkpt>
      <trkpt lat="41.8611010" lon="-1.3104160">
        <ele>242.8</ele>
        <time>2021-09-28T16:58:24Z</time>
      </trkpt>
      <trkpt lat="41.8611480" lon="-1.3104550">
        <ele>242.8</ele>
        <time>2021-09-28T16:58:25Z</time>
      </trkpt>
      <trkpt lat="41.8616360" lon="-1.3108550">
        <ele>243.0</ele>
        <time>2021-09-28T16:58:35Z</time>
      </trkpt>
      <trkpt lat="41.8621350" lon="-1.3112340">
        <ele>242.8</ele>
        <time>2021-09-28T16:58:45Z</time>
      </trkpt>
      <trkpt lat="41.8626530" lon="-1.3115340">
        <ele>243.0</ele>
        <time>2021-09-28T16:58:55Z</time>
      </trkpt>
      <trkpt lat="41.8631940" lon="-1.3118190">
        <ele>243.2</ele>
        <time>2021-09-28T16:59:05Z</time>
      </trkpt>
      <trkpt lat="41.8637350" lon="-1.3120750">
        <ele>243.2</ele>
        <time>2021-09-28T16:59:15Z</time>
      </trkpt>
      <trkpt lat="41.8642950" lon="-1.3123390">
        <ele>243.0</ele>
        <time>2021-09-28T16:59:25Z</time>
      </trkpt>
      <trkpt lat="41.8648490" lon="-1.3125880">
        <ele>242.8</ele>
        <time>2021-09-28T16:59:35Z</time>
      </trkpt>
      <trkpt lat="41.8653660" lon="-1.3128730">
        <ele>243.0</ele>
        <time>2021-09-28T16:59:45Z</time>
      </trkpt>
      <trkpt lat="41.8657180" lon="-1.3130980">
        <ele>243.2</ele>
        <time>2021-09-28T16:59:52Z</time>
      </trkpt>
      <trkpt lat="41.8659800" lon="-1.3133550">
        <ele>243.2</ele>
        <time>2021-09-28T16:59:58Z</time>
      </trkpt>
      <trkpt lat="41.8661590" lon="-1.3135130">
        <ele>243.2</ele>
        <time>2021-09-28T17:00:02Z</time>
      </trkpt>
      <trkpt lat="41.8663870" lon="-1.3138260">
        <ele>243.4</ele>
        <time>2021-09-28T17:00:08Z</time>
      </trkpt>
      <trkpt lat="41.8667760" lon="-1.3144160">
        <ele>243.6</ele>
        <time>2021-09-28T17:00:19Z</time>
      </trkpt>
      <trkpt lat="41.8670080" lon="-1.3147370">
        <ele>244.4</ele>
        <time>2021-09-28T17:00:25Z</time>
      </trkpt>
      <trkpt lat="41.8673390" lon="-1.3151740">
        <ele>244.4</ele>
        <time>2021-09-28T17:00:33Z</time>
      </trkpt>
      <trkpt lat="41.8675080" lon="-1.3154450">
        <ele>244.2</ele>
        <time>2021-09-28T17:00:38Z</time>
      </trkpt>
      <trkpt lat="41.8676480" lon="-1.3156560">
        <ele>244.0</ele>
        <time>2021-09-28T17:00:42Z</time>
      </trkpt>
      <trkpt lat="41.8677910" lon="-1.3159650">
        <ele>243.8</ele>
        <time>2021-09-28T17:00:47Z</time>
      </trkpt>
      <trkpt lat="41.8679160" lon="-1.3164410">
        <ele>243.8</ele>
        <time>2021-09-28T17:00:53Z</time>
      </trkpt>
      <trkpt lat="41.8680150" lon="-1.3169250">
        <ele>243.2</ele>
        <time>2021-09-28T17:00:59Z</time>
      </trkpt>
      <trkpt lat="41.8681420" lon="-1.3177000">
        <ele>243.0</ele>
        <time>2021-09-28T17:01:08Z</time>
      </trkpt>
      <trkpt lat="41.8682940" lon="-1.3184510">
        <ele>243.2</ele>
        <time>2021-09-28T17:01:17Z</time>
      </trkpt>
      <trkpt lat="41.8684910" lon="-1.3191990">
        <ele>243.2</ele>
        <time>2021-09-28T17:01:27Z</time>
      </trkpt>
      <trkpt lat="41.8686360" lon="-1.3199010">
        <ele>243.2</ele>
        <time>2021-09-28T17:01:36Z</time>
      </trkpt>
      <trkpt lat="41.8687900" lon="-1.3206580">
        <ele>243.0</ele>
        <time>2021-09-28T17:01:45Z</time>
      </trkpt>
      <trkpt lat="41.8688830" lon="-1.3214280">
        <ele>242.6</ele>
        <time>2021-09-28T17:01:54Z</time>
      </trkpt>
      <trkpt lat="41.8687810" lon="-1.3222110">
        <ele>242.6</ele>
        <time>2021-09-28T17:02:03Z</time>
      </trkpt>
      <trkpt lat="41.8687660" lon="-1.3229990">
        <ele>242.6</ele>
        <time>2021-09-28T17:02:12Z</time>
      </trkpt>
      <trkpt lat="41.8688500" lon="-1.3234290">
        <ele>242.4</ele>
        <time>2021-09-28T17:02:17Z</time>
      </trkpt>
      <trkpt lat="41.8690880" lon="-1.3239440">
        <ele>242.2</ele>
        <time>2021-09-28T17:02:24Z</time>
      </trkpt>
      <trkpt lat="41.8692990" lon="-1.3244910">
        <ele>241.8</ele>
        <time>2021-09-28T17:02:31Z</time>
      </trkpt>
      <trkpt lat="41.8694790" lon="-1.3251510">
        <ele>242.0</ele>
        <time>2021-09-28T17:02:39Z</time>
      </trkpt>
      <trkpt lat="41.8696570" lon="-1.3258370">
        <ele>242.0</ele>
        <time>2021-09-28T17:02:47Z</time>
      </trkpt>
      <trkpt lat="41.8699680" lon="-1.3265230">
        <ele>242.0</ele>
        <time>2021-09-28T17:02:56Z</time>
      </trkpt>
      <trkpt lat="41.8703210" lon="-1.3271600">
        <ele>241.8</ele>
        <time>2021-09-28T17:03:05Z</time>
      </trkpt>
      <trkpt lat="41.8706770" lon="-1.3278040">
        <ele>241.6</ele>
        <time>2021-09-28T17:03:14Z</time>
      </trkpt>
      <trkpt lat="41.8710870" lon="-1.3283780">
        <ele>241.6</ele>
        <time>2021-09-28T17:03:23Z</time>
      </trkpt>
      <trkpt lat="41.8715190" lon="-1.3289130">
        <ele>241.6</ele>
        <time>2021-09-28T17:03:32Z</time>
      </trkpt>
      <trkpt lat="41.8719410" lon="-1.3294200">
        <ele>241.6</ele>
        <time>2021-09-28T17:03:41Z</time>
      </trkpt>
      <trkpt lat="41.8723790" lon="-1.3298880">
        <ele>241.6</ele>
        <time>2021-09-28T17:03:50Z</time>
      </trkpt>
      <trkpt lat="41.8728590" lon="-1.3302590">
        <ele>241.6</ele>
        <time>2021-09-28T17:03:59Z</time>
      </trkpt>
      <trkpt lat="41.8733760" lon="-1.3304990">
        <ele>242.0</ele>
        <time>2021-09-28T17:04:08Z</time>
      </trkpt>
      <trkpt lat="41.8739070" lon="-1.3306680">
        <ele>242.2</ele>
        <time>2021-09-28T17:04:17Z</time>
      </trkpt>
      <trkpt lat="41.8744860" lon="-1.3308530">
        <ele>242.2</ele>
        <time>2021-09-28T17:04:27Z</time>
      </trkpt>
      <trkpt lat="41.8750610" lon="-1.3310360">
        <ele>242.6</ele>
        <time>2021-09-28T17:04:37Z</time>
      </trkpt>
      <trkpt lat="41.8752130" lon="-1.3311180">
        <ele>242.8</ele>
        <time>2021-09-28T17:04:40Z</time>
      </trkpt>
      <trkpt lat="41.8753460" lon="-1.3312490">
        <ele>243.0</ele>
        <time>2021-09-28T17:04:43Z</time>
      </trkpt>
      <trkpt lat="41.8754710" lon="-1.3314090">
        <ele>243.4</ele>
        <time>2021-09-28T17:04:46Z</time>
      </trkpt>
      <trkpt lat="41.8756190" lon="-1.3318200">
        <ele>243.6</ele>
        <time>2021-09-28T17:04:52Z</time>
      </trkpt>
      <trkpt lat="41.8757150" lon="-1.3324070">
        <ele>243.6</ele>
        <time>2021-09-28T17:05:00Z</time>
      </trkpt>
      <trkpt lat="41.8757680" lon="-1.3325540">
        <ele>243.4</ele>
        <time>2021-09-28T17:05:02Z</time>
      </trkpt>
      <trkpt lat="41.8761130" lon="-1.3331190">
        <ele>242.8</ele>
        <time>2021-09-28T17:05:11Z</time>
      </trkpt>
      <trkpt lat="41.8762530" lon="-1.3335760">
        <ele>242.2</ele>
        <time>2021-09-28T17:05:17Z</time>
      </trkpt>
      <trkpt lat="41.8762800" lon="-1.3343270">
        <ele>242.0</ele>
        <time>2021-09-28T17:05:26Z</time>
      </trkpt>
      <trkpt lat="41.8762620" lon="-1.3350720">
        <ele>242.0</ele>
        <time>2021-09-28T17:05:35Z</time>
      </trkpt>
      <trkpt lat="41.8762280" lon="-1.3358100">
        <ele>242.0</ele>
        <time>2021-09-28T17:05:44Z</time>
      </trkpt>
      <trkpt lat="41.8762280" lon="-1.3365620">
        <ele>242.4</ele>
        <time>2021-09-28T17:05:53Z</time>
      </trkpt>
      <trkpt lat="41.8763270" lon="-1.3373100">
        <ele>242.6</ele>
        <time>2021-09-28T17:06:02Z</time>
      </trkpt>
      <trkpt lat="41.8764580" lon="-1.3379780">
        <ele>242.2</ele>
        <time>2021-09-28T17:06:10Z</time>
      </trkpt>
      <trkpt lat="41.8765440" lon="-1.3387240">
        <ele>242.0</ele>
        <time>2021-09-28T17:06:19Z</time>
      </trkpt>
      <trkpt lat="41.8765270" lon="-1.3391490">
        <ele>242.0</ele>
        <time>2021-09-28T17:06:24Z</time>
      </trkpt>
      <trkpt lat="41.8765880" lon="-1.3394770">
        <ele>242.0</ele>
        <time>2021-09-28T17:06:28Z</time>
      </trkpt>
      <trkpt lat="41.8767120" lon="-1.3398590">
        <ele>242.0</ele>
        <time>2021-09-28T17:06:33Z</time>
      </trkpt>
      <trkpt lat="41.8770790" lon="-1.3404300">
        <ele>241.8</ele>
        <time>2021-09-28T17:06:42Z</time>
      </trkpt>
      <trkpt lat="41.8772850" lon="-1.3408520">
        <ele>241.6</ele>
        <time>2021-09-28T17:06:48Z</time>
      </trkpt>
      <trkpt lat="41.8776520" lon="-1.3414130">
        <ele>241.6</ele>
        <time>2021-09-28T17:06:57Z</time>
      </trkpt>
      <trkpt lat="41.8779730" lon="-1.3420320">
        <ele>241.4</ele>
        <time>2021-09-28T17:07:06Z</time>
      </trkpt>
      <trkpt lat="41.8783310" lon="-1.3425940">
        <ele>241.4</ele>
        <time>2021-09-28T17:07:15Z</time>
      </trkpt>
      <trkpt lat="41.8786210" lon="-1.3432500">
        <ele>241.4</ele>
        <time>2021-09-28T17:07:24Z</time>
      </trkpt>
      <trkpt lat="41.8788760" lon="-1.3439240">
        <ele>241.4</ele>
        <time>2021-09-28T17:07:33Z</time>
      </trkpt>
      <trkpt lat="41.8791500" lon="-1.3445920">
        <ele>241.8</ele>
        <time>2021-09-28T17:07:42Z</time>
      </trkpt>
      <trkpt lat="41.8792850" lon="-1.3452970">
        <ele>242.0</ele>
        <time>2021-09-28T17:07:51Z</time>
      </trkpt>
      <trkpt lat="41.8793860" lon="-1.3457590">
        <ele>242.4</ele>
        <time>2021-09-28T17:07:57Z</time>
      </trkpt>
      <trkpt lat="41.8795280" lon="-1.3460330">
        <ele>242.4</ele>
        <time>2021-09-28T17:08:01Z</time>
      </trkpt>
      <trkpt lat="41.8799460" lon="-1.3465060">
        <ele>242.0</ele>
        <time>2021-09-28T17:08:10Z</time>
      </trkpt>
      <trkpt lat="41.8802810" lon="-1.3468530">
        <ele>241.6</ele>
        <time>2021-09-28T17:08:17Z</time>
      </trkpt>
      <trkpt lat="41.8807240" lon="-1.3472810">
        <ele>241.6</ele>
        <time>2021-09-28T17:08:26Z</time>
      </trkpt>
      <trkpt lat="41.8811900" lon="-1.3474730">
        <ele>241.8</ele>
        <time>2021-09-28T17:08:34Z</time>
      </trkpt>
      <trkpt lat="41.8816870" lon="-1.3477450">
        <ele>241.8</ele>
        <time>2021-09-28T17:08:43Z</time>
      </trkpt>
      <trkpt lat="41.8820710" lon="-1.3482790">
        <ele>242.0</ele>
        <time>2021-09-28T17:08:52Z</time>
      </trkpt>
      <trkpt lat="41.8821710" lon="-1.3484780">
        <ele>242.0</ele>
        <time>2021-09-28T17:08:55Z</time>
      </trkpt>
      <trkpt lat="41.8826050" lon="-1.3489860">
        <ele>242.2</ele>
        <time>2021-09-28T17:09:05Z</time>
      </trkpt>
      <trkpt lat="41.8830610" lon="-1.3495020">
        <ele>242.2</ele>
        <time>2021-09-28T17:09:15Z</time>
      </trkpt>
      <trkpt lat="41.8833180" lon="-1.3499430">
        <ele>242.0</ele>
        <time>2021-09-28T17:09:22Z</time>
      </trkpt>
      <trkpt lat="41.8836480" lon="-1.3506070">
        <ele>242.0</ele>
        <time>2021-09-28T17:09:32Z</time>
      </trkpt>
      <trkpt lat="41.8840210" lon="-1.3511410">
        <ele>242.0</ele>
        <time>2021-09-28T17:09:41Z</time>
      </trkpt>
      <trkpt lat="41.8843990" lon="-1.3516810">
        <ele>241.8</ele>
        <time>2021-09-28T17:09:50Z</time>
      </trkpt>
      <trkpt lat="41.8847070" lon="-1.3522930">
        <ele>241.8</ele>
        <time>2021-09-28T17:09:59Z</time>
      </trkpt>
      <trkpt lat="41.8849980" lon="-1.3529430">
        <ele>241.4</ele>
        <time>2021-09-28T17:10:08Z</time>
      </trkpt>
      <trkpt lat="41.8852790" lon="-1.3535750">
        <ele>241.8</ele>
        <time>2021-09-28T17:10:17Z</time>
      </trkpt>
      <trkpt lat="41.8855690" lon="-1.3542240">
        <ele>242.0</ele>
        <time>2021-09-28T17:10:26Z</time>
      </trkpt>
      <trkpt lat="41.8858550" lon="-1.3548780">
        <ele>241.2</ele>
        <time>2021-09-28T17:10:35Z</time>
      </trkpt>
      <trkpt lat="41.8861430" lon="-1.3555190">
        <ele>241.2</ele>
        <time>2021-09-28T17:10:44Z</time>
      </trkpt>
      <trkpt lat="41.8864260" lon="-1.3561620">
        <ele>241.8</ele>
        <time>2021-09-28T17:10:53Z</time>
      </trkpt>
      <trkpt lat="41.8866930" lon="-1.3568460">
        <ele>241.8</ele>
        <time>2021-09-28T17:11:02Z</time>
      </trkpt>
      <trkpt lat="41.8868770" lon="-1.3572730">
        <ele>241.0</ele>
        <time>2021-09-28T17:11:08Z</time>
      </trkpt>
      <trkpt lat="41.8869110" lon="-1.3573430">
        <ele>240.8</ele>
        <time>2021-09-28T17:11:09Z</time>
      </trkpt>
      <trkpt lat="41.8872700" lon="-1.3579080">
        <ele>240.6</ele>
        <time>2021-09-28T17:11:18Z</time>
      </trkpt>
      <trkpt lat="41.8877000" lon="-1.3584500">
        <ele>240.8</ele>
        <time>2021-09-28T17:11:28Z</time>
      </trkpt>
      <trkpt lat="41.8881430" lon="-1.3589420">
        <ele>241.2</ele>
        <time>2021-09-28T17:11:38Z</time>
      </trkpt>
      <trkpt lat="41.8885940" lon="-1.3594370">
        <ele>241.0</ele>
        <time>2021-09-28T17:11:48Z</time>
      </trkpt>
      <trkpt lat="41.8889560" lon="-1.3599480">
        <ele>240.8</ele>
        <time>2021-09-28T17:11:57Z</time>
      </trkpt>
      <trkpt lat="41.8892160" lon="-1.3606190">
        <ele>241.6</ele>
        <time>2021-09-28T17:12:07Z</time>
      </trkpt>
      <trkpt lat="41.8894550" lon="-1.3613400">
        <ele>241.2</ele>
        <time>2021-09-28T17:12:17Z</time>
      </trkpt>
      <trkpt lat="41.8897420" lon="-1.3620160">
        <ele>240.2</ele>
        <time>2021-09-28T17:12:27Z</time>
      </trkpt>
      <trkpt lat="41.8900170" lon="-1.3626740">
        <ele>240.0</ele>
        <time>2021-09-28T17:12:37Z</time>
      </trkpt>
      <trkpt lat="41.8903250" lon="-1.3632920">
        <ele>240.4</ele>
        <time>2021-09-28T17:12:47Z</time>
      </trkpt>
      <trkpt lat="41.8906520" lon="-1.3638880">
        <ele>240.4</ele>
        <time>2021-09-28T17:12:57Z</time>
      </trkpt>
      <trkpt lat="41.8909320" lon="-1.3642570">
        <ele>240.4</ele>
        <time>2021-09-28T17:13:04Z</time>
      </trkpt>
      <trkpt lat="41.8913370" lon="-1.3648040">
        <ele>240.4</ele>
        <time>2021-09-28T17:13:14Z</time>
      </trkpt>
      <trkpt lat="41.8916790" lon="-1.3654190">
        <ele>240.4</ele>
        <time>2021-09-28T17:13:24Z</time>
      </trkpt>
      <trkpt lat="41.8920040" lon="-1.3658190">
        <ele>240.4</ele>
        <time>2021-09-28T17:13:32Z</time>
      </trkpt>
      <trkpt lat="41.8923550" lon="-1.3664360">
        <ele>240.6</ele>
        <time>2021-09-28T17:13:42Z</time>
      </trkpt>
      <trkpt lat="41.8925770" lon="-1.3671570">
        <ele>240.8</ele>
        <time>2021-09-28T17:13:52Z</time>
      </trkpt>
      <trkpt lat="41.8927770" lon="-1.3678860">
        <ele>241.0</ele>
        <time>2021-09-28T17:14:02Z</time>
      </trkpt>
      <trkpt lat="41.8929460" lon="-1.3686510">
        <ele>241.0</ele>
        <time>2021-09-28T17:14:12Z</time>
      </trkpt>
      <trkpt lat="41.8930190" lon="-1.3693760">
        <ele>240.8</ele>
        <time>2021-09-28T17:14:21Z</time>
      </trkpt>
      <trkpt lat="41.8931650" lon="-1.3700690">
        <ele>240.6</ele>
        <time>2021-09-28T17:14:30Z</time>
      </trkpt>
      <trkpt lat="41.8934440" lon="-1.3707770">
        <ele>240.6</ele>
        <time>2021-09-28T17:14:40Z</time>
      </trkpt>
      <trkpt lat="41.8935860" lon="-1.3715430">
        <ele>240.6</ele>
        <time>2021-09-28T17:14:50Z</time>
      </trkpt>
      <trkpt lat="41.8936930" lon="-1.3723270">
        <ele>241.0</ele>
        <time>2021-09-28T17:15:00Z</time>
      </trkpt>
      <trkpt lat="41.8938890" lon="-1.3730290">
        <ele>241.0</ele>
        <time>2021-09-28T17:15:09Z</time>
      </trkpt>
      <trkpt lat="41.8940030" lon="-1.3737800">
        <ele>240.6</ele>
        <time>2021-09-28T17:15:18Z</time>
      </trkpt>
      <trkpt lat="41.8940030" lon="-1.3738680">
        <ele>240.6</ele>
        <time>2021-09-28T17:15:19Z</time>
      </trkpt>
      <trkpt lat="41.8938650" lon="-1.3746100">
        <ele>240.4</ele>
        <time>2021-09-28T17:15:28Z</time>
      </trkpt>
      <trkpt lat="41.8936950" lon="-1.3753390">
        <ele>240.2</ele>
        <time>2021-09-28T17:15:37Z</time>
      </trkpt>
      <trkpt lat="41.8936370" lon="-1.3761000">
        <ele>240.2</ele>
        <time>2021-09-28T17:15:46Z</time>
      </trkpt>
      <trkpt lat="41.8935660" lon="-1.3768640">
        <ele>240.2</ele>
        <time>2021-09-28T17:15:55Z</time>
      </trkpt>
      <trkpt lat="41.8934400" lon="-1.3776040">
        <ele>240.2</ele>
        <time>2021-09-28T17:16:04Z</time>
      </trkpt>
      <trkpt lat="41.8934420" lon="-1.3782770">
        <ele>240.6</ele>
        <time>2021-09-28T17:16:12Z</time>
      </trkpt>
      <trkpt lat="41.8936980" lon="-1.3789810">
        <ele>240.4</ele>
        <time>2021-09-28T17:16:21Z</time>
      </trkpt>
      <trkpt lat="41.8940060" lon="-1.3796330">
        <ele>240.6</ele>
        <time>2021-09-28T17:16:30Z</time>
      </trkpt>
      <trkpt lat="41.8940870" lon="-1.3798720">
        <ele>240.6</ele>
        <time>2021-09-28T17:16:33Z</time>
      </trkpt>
      <trkpt lat="41.8942990" lon="-1.3805730">
        <ele>241.0</ele>
        <time>2021-09-28T17:16:42Z</time>
      </trkpt>
      <trkpt lat="41.8945300" lon="-1.3813130">
        <ele>241.0</ele>
        <time>2021-09-28T17:16:51Z</time>
      </trkpt>
      <trkpt lat="41.8947780" lon="-1.3820320">
        <ele>240.2</ele>
        <time>2021-09-28T17:17:00Z</time>
      </trkpt>
      <trkpt lat="41.8950390" lon="-1.3827160">
        <ele>240.2</ele>
        <time>2021-09-28T17:17:09Z</time>
      </trkpt>
      <trkpt lat="41.8952940" lon="-1.3834170">
        <ele>240.0</ele>
        <time>2021-09-28T17:17:18Z</time>
      </trkpt>
      <trkpt lat="41.8955700" lon="-1.3840820">
        <ele>239.6</ele>
        <time>2021-09-28T17:17:27Z</time>
      </trkpt>
      <trkpt lat="41.8958750" lon="-1.3847240">
        <ele>239.6</ele>
        <time>2021-09-28T17:17:36Z</time>
      </trkpt>
      <trkpt lat="41.8961160" lon="-1.3853950">
        <ele>240.0</ele>
        <time>2021-09-28T17:17:45Z</time>
      </trkpt>
      <trkpt lat="41.8963300" lon="-1.3860950">
        <ele>240.2</ele>
        <time>2021-09-28T17:17:54Z</time>
      </trkpt>
      <trkpt lat="41.8966780" lon="-1.3866620">
        <ele>239.8</ele>
        <time>2021-09-28T17:18:03Z</time>
      </trkpt>
      <trkpt lat="41.8970590" lon="-1.3872370">
        <ele>239.8</ele>
        <time>2021-09-28T17:18:12Z</time>
      </trkpt>
      <trkpt lat="41.8974100" lon="-1.3878450">
        <ele>239.8</ele>
        <time>2021-09-28T17:18:21Z</time>
      </trkpt>
      <trkpt lat="41.8977110" lon="-1.3885030">
        <ele>240.2</ele>
        <time>2021-09-28T17:18:30Z</time>
      </trkpt>
      <trkpt lat="41.8979940" lon="-1.3891660">
        <ele>240.6</ele>
        <time>2021-09-28T17:18:39Z</time>
      </trkpt>
      <trkpt lat="41.8982970" lon="-1.3898410">
        <ele>240.6</ele>
        <time>2021-09-28T17:18:48Z</time>
      </trkpt>
      <trkpt lat="41.8987030" lon="-1.3904090">
        <ele>239.6</ele>
        <time>2021-09-28T17:18:57Z</time>
      </trkpt>
      <trkpt lat="41.8990660" lon="-1.3907200">
        <ele>239.6</ele>
        <time>2021-09-28T17:19:04Z</time>
      </trkpt>
      <trkpt lat="41.8992970" lon="-1.3907980">
        <ele>239.8</ele>
        <time>2021-09-28T17:19:08Z</time>
      </trkpt>
      <trkpt lat="41.8993480" lon="-1.3908110">
        <ele>239.8</ele>
        <time>2021-09-28T17:19:09Z</time>
      </trkpt>
      <trkpt lat="41.8995270" lon="-1.3909750">
        <ele>241.0</ele>
        <time>2021-09-28T17:19:14Z</time>
      </trkpt>
      <trkpt lat="41.8998500" lon="-1.3913970">
        <ele>241.6</ele>
        <time>2021-09-28T17:19:22Z</time>
      </trkpt>
      <trkpt lat="41.9000990" lon="-1.3916320">
        <ele>241.4</ele>
        <time>2021-09-28T17:19:27Z</time>
      </trkpt>
      <trkpt lat="41.9006180" lon="-1.3918410">
        <ele>240.8</ele>
        <time>2021-09-28T17:19:36Z</time>
      </trkpt>
      <trkpt lat="41.9011580" lon="-1.3919810">
        <ele>240.6</ele>
        <time>2021-09-28T17:19:45Z</time>
      </trkpt>
      <trkpt lat="41.9016800" lon="-1.3922090">
        <ele>240.4</ele>
        <time>2021-09-28T17:19:54Z</time>
      </trkpt>
      <trkpt lat="41.9021830" lon="-1.3925150">
        <ele>240.2</ele>
        <time>2021-09-28T17:20:03Z</time>
      </trkpt>
      <trkpt lat="41.9023410" lon="-1.3926440">
        <ele>240.2</ele>
        <time>2021-09-28T17:20:06Z</time>
      </trkpt>
      <trkpt lat="41.9028140" lon="-1.3930300">
        <ele>240.0</ele>
        <time>2021-09-28T17:20:15Z</time>
      </trkpt>
      <trkpt lat="41.9033410" lon="-1.3932710">
        <ele>240.0</ele>
        <time>2021-09-28T17:20:24Z</time>
      </trkpt>
      <trkpt lat="41.9038360" lon="-1.3936040">
        <ele>240.4</ele>
        <time>2021-09-28T17:20:33Z</time>
      </trkpt>
      <trkpt lat="41.9040580" lon="-1.3939020">
        <ele>240.6</ele>
        <time>2021-09-28T17:20:38Z</time>
      </trkpt>
      <trkpt lat="41.9041980" lon="-1.3941650">
        <ele>240.6</ele>
        <time>2021-09-28T17:20:42Z</time>
      </trkpt>
      <trkpt lat="41.9045390" lon="-1.3947770">
        <ele>240.6</ele>
        <time>2021-09-28T17:20:51Z</time>
      </trkpt>
      <trkpt lat="41.9047940" lon="-1.3950270">
        <ele>240.4</ele>
        <time>2021-09-28T17:20:56Z</time>
      </trkpt>
      <trkpt lat="41.9052200" lon="-1.3951470">
        <ele>240.4</ele>
        <time>2021-09-28T17:21:03Z</time>
      </trkpt>
      <trkpt lat="41.9057510" lon="-1.3949830">
        <ele>240.6</ele>
        <time>2021-09-28T17:21:12Z</time>
      </trkpt>
      <trkpt lat="41.9062960" lon="-1.3947330">
        <ele>241.6</ele>
        <time>2021-09-28T17:21:22Z</time>
      </trkpt>
      <trkpt lat="41.9063540" lon="-1.3947150">
        <ele>241.6</ele>
        <time>2021-09-28T17:21:23Z</time>
      </trkpt>
      <trkpt lat="41.9068920" lon="-1.3946700">
        <ele>241.6</ele>
        <time>2021-09-28T17:21:32Z</time>
      </trkpt>
      <trkpt lat="41.9074750" lon="-1.3947920">
        <ele>240.8</ele>
        <time>2021-09-28T17:21:42Z</time>
      </trkpt>
      <trkpt lat="41.9080600" lon="-1.3948460">
        <ele>240.8</ele>
        <time>2021-09-28T17:21:52Z</time>
      </trkpt>
      <trkpt lat="41.9085050" lon="-1.3949250">
        <ele>241.0</ele>
        <time>2021-09-28T17:22:00Z</time>
      </trkpt>
      <trkpt lat="41.9090110" lon="-1.3952350">
        <ele>241.4</ele>
        <time>2021-09-28T17:22:10Z</time>
      </trkpt>
      <trkpt lat="41.9094320" lon="-1.3957560">
        <ele>241.2</ele>
        <time>2021-09-28T17:22:20Z</time>
      </trkpt>
      <trkpt lat="41.9097690" lon="-1.3964180">
        <ele>241.2</ele>
        <time>2021-09-28T17:22:30Z</time>
      </trkpt>
      <trkpt lat="41.9100270" lon="-1.3970580">
        <ele>241.4</ele>
        <time>2021-09-28T17:22:39Z</time>
      </trkpt>
      <trkpt lat="41.9104460" lon="-1.3976140">
        <ele>241.4</ele>
        <time>2021-09-28T17:22:49Z</time>
      </trkpt>
      <trkpt lat="41.9109050" lon="-1.3980950">
        <ele>241.4</ele>
        <time>2021-09-28T17:22:59Z</time>
      </trkpt>
      <trkpt lat="41.9113730" lon="-1.3985800">
        <ele>241.4</ele>
        <time>2021-09-28T17:23:09Z</time>
      </trkpt>
      <trkpt lat="41.9118510" lon="-1.3990330">
        <ele>241.6</ele>
        <time>2021-09-28T17:23:19Z</time>
      </trkpt>
      <trkpt lat="41.9123410" lon="-1.3993880">
        <ele>242.0</ele>
        <time>2021-09-28T17:23:28Z</time>
      </trkpt>
      <trkpt lat="41.9128520" lon="-1.3997350">
        <ele>241.6</ele>
        <time>2021-09-28T17:23:37Z</time>
      </trkpt>
      <trkpt lat="41.9133490" lon="-1.4000770">
        <ele>241.6</ele>
        <time>2021-09-28T17:23:46Z</time>
      </trkpt>
      <trkpt lat="41.9138740" lon="-1.4004360">
        <ele>241.8</ele>
        <time>2021-09-28T17:23:56Z</time>
      </trkpt>
      <trkpt lat="41.9143910" lon="-1.4007990">
        <ele>241.6</ele>
        <time>2021-09-28T17:24:06Z</time>
      </trkpt>
      <trkpt lat="41.9149210" lon="-1.4011540">
        <ele>241.6</ele>
        <time>2021-09-28T17:24:16Z</time>
      </trkpt>
      <trkpt lat="41.9154370" lon="-1.4013740">
        <ele>241.4</ele>
        <time>2021-09-28T17:24:25Z</time>
      </trkpt>
      <trkpt lat="41.9160070" lon="-1.4014100">
        <ele>241.4</ele>
        <time>2021-09-28T17:24:34Z</time>
      </trkpt>
      <trkpt lat="41.9165670" lon="-1.4013570">
        <ele>241.6</ele>
        <time>2021-09-28T17:24:43Z</time>
      </trkpt>
      <trkpt lat="41.9171120" lon="-1.4012290">
        <ele>241.6</ele>
        <time>2021-09-28T17:24:52Z</time>
      </trkpt>
      <trkpt lat="41.9175320" lon="-1.4011030">
        <ele>241.8</ele>
        <time>2021-09-28T17:24:59Z</time>
      </trkpt>
      <trkpt lat="41.9180010" lon="-1.4009600">
        <ele>241.6</ele>
        <time>2021-09-28T17:25:07Z</time>
      </trkpt>
      <trkpt lat="41.9183110" lon="-1.4007590">
        <ele>241.6</ele>
        <time>2021-09-28T17:25:13Z</time>
      </trkpt>
      <trkpt lat="41.9185500" lon="-1.4005360">
        <ele>241.6</ele>
        <time>2021-09-28T17:25:18Z</time>
      </trkpt>
      <trkpt lat="41.9190040" lon="-1.4000520">
        <ele>242.2</ele>
        <time>2021-09-28T17:25:28Z</time>
      </trkpt>
      <trkpt lat="41.9195160" lon="-1.3996630">
        <ele>242.0</ele>
        <time>2021-09-28T17:25:38Z</time>
      </trkpt>
      <trkpt lat="41.9200900" lon="-1.3995220">
        <ele>241.8</ele>
        <time>2021-09-28T17:25:48Z</time>
      </trkpt>
      <trkpt lat="41.9206630" lon="-1.3996600">
        <ele>242.4</ele>
        <time>2021-09-28T17:25:58Z</time>
      </trkpt>
      <trkpt lat="41.9212340" lon="-1.3997920">
        <ele>242.6</ele>
        <time>2021-09-28T17:26:08Z</time>
      </trkpt>
      <trkpt lat="41.9216740" lon="-1.3999900">
        <ele>242.6</ele>
        <time>2021-09-28T17:26:16Z</time>
      </trkpt>
      <trkpt lat="41.9218800" lon="-1.4001250">
        <ele>242.4</ele>
        <time>2021-09-28T17:26:20Z</time>
      </trkpt>
      <trkpt lat="41.9223910" lon="-1.4004460">
        <ele>242.4</ele>
        <time>2021-09-28T17:26:30Z</time>
      </trkpt>
      <trkpt lat="41.9227720" lon="-1.4006460">
        <ele>242.0</ele>
        <time>2021-09-28T17:26:37Z</time>
      </trkpt>
      <trkpt lat="41.9233180" lon="-1.4009220">
        <ele>242.0</ele>
        <time>2021-09-28T17:26:47Z</time>
      </trkpt>
      <trkpt lat="41.9237080" lon="-1.4011210">
        <ele>242.0</ele>
        <time>2021-09-28T17:26:54Z</time>
      </trkpt>
      <trkpt lat="41.9242610" lon="-1.4014220">
        <ele>242.2</ele>
        <time>2021-09-28T17:27:04Z</time>
      </trkpt>
      <trkpt lat="41.9247720" lon="-1.4017010">
        <ele>242.2</ele>
        <time>2021-09-28T17:27:13Z</time>
      </trkpt>
      <trkpt lat="41.9251210" lon="-1.4018790">
        <ele>242.2</ele>
        <time>2021-09-28T17:27:19Z</time>
      </trkpt>
      <trkpt lat="41.9255250" lon="-1.4021000">
        <ele>242.4</ele>
        <time>2021-09-28T17:27:26Z</time>
      </trkpt>
      <trkpt lat="41.9260290" lon="-1.4023750">
        <ele>242.4</ele>
        <time>2021-09-28T17:27:35Z</time>
      </trkpt>
      <trkpt lat="41.9265460" lon="-1.4026610">
        <ele>242.2</ele>
        <time>2021-09-28T17:27:44Z</time>
      </trkpt>
      <trkpt lat="41.9270470" lon="-1.4029640">
        <ele>242.0</ele>
        <time>2021-09-28T17:27:53Z</time>
      </trkpt>
      <trkpt lat="41.9275470" lon="-1.4032700">
        <ele>241.8</ele>
        <time>2021-09-28T17:28:02Z</time>
      </trkpt>
      <trkpt lat="41.9280510" lon="-1.4035970">
        <ele>241.6</ele>
        <time>2021-09-28T17:28:11Z</time>
      </trkpt>
      <trkpt lat="41.9284760" lon="-1.4038780">
        <ele>241.8</ele>
        <time>2021-09-28T17:28:19Z</time>
      </trkpt>
      <trkpt lat="41.9290010" lon="-1.4042310">
        <ele>241.8</ele>
        <time>2021-09-28T17:28:29Z</time>
      </trkpt>
      <trkpt lat="41.9295330" lon="-1.4045820">
        <ele>241.8</ele>
        <time>2021-09-28T17:28:39Z</time>
      </trkpt>
      <trkpt lat="41.9300560" lon="-1.4049530">
        <ele>241.8</ele>
        <time>2021-09-28T17:28:49Z</time>
      </trkpt>
      <trkpt lat="41.9301060" lon="-1.4049960">
        <ele>241.8</ele>
        <time>2021-09-28T17:28:50Z</time>
      </trkpt>
      <trkpt lat="41.9305140" lon="-1.4054760">
        <ele>241.2</ele>
        <time>2021-09-28T17:28:59Z</time>
      </trkpt>
      <trkpt lat="41.9308210" lon="-1.4060890">
        <ele>241.2</ele>
        <time>2021-09-28T17:29:08Z</time>
      </trkpt>
      <trkpt lat="41.9311030" lon="-1.4067420">
        <ele>241.2</ele>
        <time>2021-09-28T17:29:17Z</time>
      </trkpt>
      <trkpt lat="41.9313990" lon="-1.4073950">
        <ele>241.2</ele>
        <time>2021-09-28T17:29:26Z</time>
      </trkpt>
      <trkpt lat="41.9317060" lon="-1.4080350">
        <ele>241.6</ele>
        <time>2021-09-28T17:29:35Z</time>
      </trkpt>
      <trkpt lat="41.9319980" lon="-1.4086520">
        <ele>241.8</ele>
        <time>2021-09-28T17:29:44Z</time>
      </trkpt>
      <trkpt lat="41.9322970" lon="-1.4092770">
        <ele>241.6</ele>
        <time>2021-09-28T17:29:53Z</time>
      </trkpt>
      <trkpt lat="41.9327190" lon="-1.4097770">
        <ele>241.0</ele>
        <time>2021-09-28T17:30:02Z</time>
      </trkpt>
      <trkpt lat="41.9331490" lon="-1.4102420">
        <ele>240.8</ele>
        <time>2021-09-28T17:30:11Z</time>
      </trkpt>
      <trkpt lat="41.9335720" lon="-1.4107070">
        <ele>240.8</ele>
        <time>2021-09-28T17:30:20Z</time>
      </trkpt>
      <trkpt lat="41.9339740" lon="-1.4111920">
        <ele>241.0</ele>
        <time>2021-09-28T17:30:29Z</time>
      </trkpt>
      <trkpt lat="41.9343530" lon="-1.4117200">
        <ele>241.2</ele>
        <time>2021-09-28T17:30:38Z</time>
      </trkpt>
      <trkpt lat="41.9347340" lon="-1.4122780">
        <ele>241.2</ele>
        <time>2021-09-28T17:30:47Z</time>
      </trkpt>
      <trkpt lat="41.9350960" lon="-1.4128660">
        <ele>240.8</ele>
        <time>2021-09-28T17:30:56Z</time>
      </trkpt>
      <trkpt lat="41.9353020" lon="-1.4131960">
        <ele>240.8</ele>
        <time>2021-09-28T17:31:01Z</time>
      </trkpt>
      <trkpt lat="41.9356830" lon="-1.4137850">
        <ele>240.6</ele>
        <time>2021-09-28T17:31:10Z</time>
      </trkpt>
      <trkpt lat="41.9360820" lon="-1.4143930">
        <ele>240.2</ele>
        <time>2021-09-28T17:31:19Z</time>
      </trkpt>
      <trkpt lat="41.9364970" lon="-1.4149380">
        <ele>240.2</ele>
        <time>2021-09-28T17:31:28Z</time>
      </trkpt>
      <trkpt lat="41.9369160" lon="-1.4154460">
        <ele>240.4</ele>
        <time>2021-09-28T17:31:37Z</time>
      </trkpt>
      <trkpt lat="41.9373120" lon="-1.4159720">
        <ele>240.6</ele>
        <time>2021-09-28T17:31:46Z</time>
      </trkpt>
      <trkpt lat="41.9377370" lon="-1.4165080">
        <ele>240.6</ele>
        <time>2021-09-28T17:31:55Z</time>
      </trkpt>
      <trkpt lat="41.9381300" lon="-1.4170350">
        <ele>240.6</ele>
        <time>2021-09-28T17:32:04Z</time>
      </trkpt>
      <trkpt lat="41.9385150" lon="-1.4175540">
        <ele>240.8</ele>
        <time>2021-09-28T17:32:13Z</time>
      </trkpt>
      <trkpt lat="41.9389020" lon="-1.4180920">
        <ele>241.0</ele>
        <time>2021-09-28T17:32:22Z</time>
      </trkpt>
      <trkpt lat="41.9392990" lon="-1.4186430">
        <ele>240.8</ele>
        <time>2021-09-28T17:32:31Z</time>
      </trkpt>
      <trkpt lat="41.9396460" lon="-1.4192170">
        <ele>240.8</ele>
        <time>2021-09-28T17:32:40Z</time>
      </trkpt>
      <trkpt lat="41.9399310" lon="-1.4199060">
        <ele>240.8</ele>
        <time>2021-09-28T17:32:50Z</time>
      </trkpt>
      <trkpt lat="41.9401870" lon="-1.4205610">
        <ele>240.6</ele>
        <time>2021-09-28T17:32:59Z</time>
      </trkpt>
      <trkpt lat="41.9404370" lon="-1.4212150">
        <ele>240.6</ele>
        <time>2021-09-28T17:33:08Z</time>
      </trkpt>
      <trkpt lat="41.9406830" lon="-1.4218790">
        <ele>240.8</ele>
        <time>2021-09-28T17:33:17Z</time>
      </trkpt>
      <trkpt lat="41.9409110" lon="-1.4225510">
        <ele>241.0</ele>
        <time>2021-09-28T17:33:26Z</time>
      </trkpt>
      <trkpt lat="41.9410110" lon="-1.4229230">
        <ele>240.8</ele>
        <time>2021-09-28T17:33:31Z</time>
      </trkpt>
      <trkpt lat="41.9410280" lon="-1.4231350">
        <ele>240.8</ele>
        <time>2021-09-28T17:33:34Z</time>
      </trkpt>
      <trkpt lat="41.9410340" lon="-1.4232010">
        <ele>240.8</ele>
        <time>2021-09-28T17:33:35Z</time>
      </trkpt>
      <trkpt lat="41.9411430" lon="-1.4234200">
        <ele>241.2</ele>
        <time>2021-09-28T17:33:39Z</time>
      </trkpt>
      <trkpt lat="41.9411730" lon="-1.4234740">
        <ele>241.2</ele>
        <time>2021-09-28T17:33:40Z</time>
      </trkpt>
      <trkpt lat="41.9414010" lon="-1.4241790">
        <ele>241.2</ele>
        <time>2021-09-28T17:33:51Z</time>
      </trkpt>
      <trkpt lat="41.9415410" lon="-1.4245660">
        <ele>241.2</ele>
        <time>2021-09-28T17:33:57Z</time>
      </trkpt>
      <trkpt lat="41.9418400" lon="-1.4252440">
        <ele>241.2</ele>
        <time>2021-09-28T17:34:08Z</time>
      </trkpt>
      <trkpt lat="41.9419610" lon="-1.4254730">
        <ele>241.4</ele>
        <time>2021-09-28T17:34:12Z</time>
      </trkpt>
      <trkpt lat="41.9422890" lon="-1.4260820">
        <ele>241.4</ele>
        <time>2021-09-28T17:34:23Z</time>
      </trkpt>
      <trkpt lat="41.9426250" lon="-1.4266940">
        <ele>241.4</ele>
        <time>2021-09-28T17:34:34Z</time>
      </trkpt>
      <trkpt lat="41.9429740" lon="-1.4273280">
        <ele>241.2</ele>
        <time>2021-09-28T17:34:45Z</time>
      </trkpt>
      <trkpt lat="41.9432890" lon="-1.4279170">
        <ele>241.2</ele>
        <time>2021-09-28T17:34:55Z</time>
      </trkpt>
      <trkpt lat="41.9433850" lon="-1.4280870">
        <ele>241.2</ele>
        <time>2021-09-28T17:34:58Z</time>
      </trkpt>
      <trkpt lat="41.9436430" lon="-1.4286870">
        <ele>241.2</ele>
        <time>2021-09-28T17:35:08Z</time>
      </trkpt>
      <trkpt lat="41.9438170" lon="-1.4293100">
        <ele>241.0</ele>
        <time>2021-09-28T17:35:17Z</time>
      </trkpt>
      <trkpt lat="41.9439910" lon="-1.4300060">
        <ele>240.8</ele>
        <time>2021-09-28T17:35:27Z</time>
      </trkpt>
      <trkpt lat="41.9441690" lon="-1.4307160">
        <ele>240.8</ele>
        <time>2021-09-28T17:35:37Z</time>
      </trkpt>
      <trkpt lat="41.9443490" lon="-1.4314080">
        <ele>240.6</ele>
        <time>2021-09-28T17:35:47Z</time>
      </trkpt>
      <trkpt lat="41.9445380" lon="-1.4321490">
        <ele>240.6</ele>
        <time>2021-09-28T17:35:58Z</time>
      </trkpt>
      <trkpt lat="41.9447500" lon="-1.4328620">
        <ele>240.6</ele>
        <time>2021-09-28T17:36:09Z</time>
      </trkpt>
      <trkpt lat="41.9450090" lon="-1.4335210">
        <ele>240.6</ele>
        <time>2021-09-28T17:36:19Z</time>
      </trkpt>
      <trkpt lat="41.9452460" lon="-1.4341840">
        <ele>240.4</ele>
        <time>2021-09-28T17:36:29Z</time>
      </trkpt>
      <trkpt lat="41.9454210" lon="-1.4348730">
        <ele>240.6</ele>
        <time>2021-09-28T17:36:39Z</time>
      </trkpt>
      <trkpt lat="41.9456140" lon="-1.4356220">
        <ele>240.6</ele>
        <time>2021-09-28T17:36:50Z</time>
      </trkpt>
      <trkpt lat="41.9459840" lon="-1.4362350">
        <ele>240.8</ele>
        <time>2021-09-28T17:37:01Z</time>
      </trkpt>
      <trkpt lat="41.9463800" lon="-1.4367310">
        <ele>240.4</ele>
        <time>2021-09-28T17:37:11Z</time>
      </trkpt>
      <trkpt lat="41.9468090" lon="-1.4372770">
        <ele>240.4</ele>
        <time>2021-09-28T17:37:22Z</time>
      </trkpt>
      <trkpt lat="41.9472010" lon="-1.4377770">
        <ele>240.4</ele>
        <time>2021-09-28T17:37:32Z</time>
      </trkpt>
      <trkpt lat="41.9475990" lon="-1.4382820">
        <ele>240.4</ele>
        <time>2021-09-28T17:37:42Z</time>
      </trkpt>
      <trkpt lat="41.9480350" lon="-1.4388000">
        <ele>240.8</ele>
        <time>2021-09-28T17:37:53Z</time>
      </trkpt>
      <trkpt lat="41.9485200" lon="-1.4392370">
        <ele>240.8</ele>
        <time>2021-09-28T17:38:04Z</time>
      </trkpt>
      <trkpt lat="41.9490240" lon="-1.4396400">
        <ele>240.8</ele>
        <time>2021-09-28T17:38:15Z</time>
      </trkpt>
      <trkpt lat="41.9494950" lon="-1.4400150">
        <ele>240.8</ele>
        <time>2021-09-28T17:38:25Z</time>
      </trkpt>
      <trkpt lat="41.9499850" lon="-1.4403600">
        <ele>240.6</ele>
        <time>2021-09-28T17:38:35Z</time>
      </trkpt>
      <trkpt lat="41.9502890" lon="-1.4405340">
        <ele>240.6</ele>
        <time>2021-09-28T17:38:41Z</time>
      </trkpt>
      <trkpt lat="41.9508370" lon="-1.4407920">
        <ele>240.8</ele>
        <time>2021-09-28T17:38:52Z</time>
      </trkpt>
      <trkpt lat="41.9513810" lon="-1.4410320">
        <ele>240.8</ele>
        <time>2021-09-28T17:39:03Z</time>
      </trkpt>
      <trkpt lat="41.9516300" lon="-1.4411410">
        <ele>241.0</ele>
        <time>2021-09-28T17:39:08Z</time>
      </trkpt>
      <trkpt lat="41.9521280" lon="-1.4415400">
        <ele>240.6</ele>
        <time>2021-09-28T17:39:19Z</time>
      </trkpt>
      <trkpt lat="41.9525120" lon="-1.4421430">
        <ele>240.6</ele>
        <time>2021-09-28T17:39:30Z</time>
      </trkpt>
      <trkpt lat="41.9528590" lon="-1.4427860">
        <ele>240.4</ele>
        <time>2021-09-28T17:39:41Z</time>
      </trkpt>
      <trkpt lat="41.9531760" lon="-1.4433940">
        <ele>240.2</ele>
        <time>2021-09-28T17:39:51Z</time>
      </trkpt>
      <trkpt lat="41.9533970" lon="-1.4437980">
        <ele>240.2</ele>
        <time>2021-09-28T17:39:58Z</time>
      </trkpt>
      <trkpt lat="41.9536810" lon="-1.4441240">
        <ele>240.4</ele>
        <time>2021-09-28T17:40:05Z</time>
      </trkpt>
      <trkpt lat="41.9540200" lon="-1.4443430">
        <ele>240.6</ele>
        <time>2021-09-28T17:40:12Z</time>
      </trkpt>
      <trkpt lat="41.9545610" lon="-1.4446560">
        <ele>240.4</ele>
        <time>2021-09-28T17:40:23Z</time>
      </trkpt>
      <trkpt lat="41.9551020" lon="-1.4449760">
        <ele>240.4</ele>
        <time>2021-09-28T17:40:34Z</time>
      </trkpt>
      <trkpt lat="41.9551500" lon="-1.4450080">
        <ele>240.4</ele>
        <time>2021-09-28T17:40:35Z</time>
      </trkpt>
      <trkpt lat="41.9556060" lon="-1.4454650">
        <ele>240.4</ele>
        <time>2021-09-28T17:40:45Z</time>
      </trkpt>
      <trkpt lat="41.9558840" lon="-1.4461150">
        <ele>240.4</ele>
        <time>2021-09-28T17:40:55Z</time>
      </trkpt>
      <trkpt lat="41.9559700" lon="-1.4465030">
        <ele>240.4</ele>
        <time>2021-09-28T17:41:00Z</time>
      </trkpt>
      <trkpt lat="41.9561100" lon="-1.4472130">
        <ele>240.4</ele>
        <time>2021-09-28T17:41:09Z</time>
      </trkpt>
      <trkpt lat="41.9561450" lon="-1.4473690">
        <ele>240.4</ele>
        <time>2021-09-28T17:41:11Z</time>
      </trkpt>
      <trkpt lat="41.9562890" lon="-1.4481440">
        <ele>240.4</ele>
        <time>2021-09-28T17:41:21Z</time>
      </trkpt>
      <trkpt lat="41.9564150" lon="-1.4488500">
        <ele>240.4</ele>
        <time>2021-09-28T17:41:30Z</time>
      </trkpt>
      <trkpt lat="41.9565480" lon="-1.4495610">
        <ele>240.4</ele>
        <time>2021-09-28T17:41:39Z</time>
      </trkpt>
      <trkpt lat="41.9567280" lon="-1.4502540">
        <ele>240.4</ele>
        <time>2021-09-28T17:41:48Z</time>
      </trkpt>
      <trkpt lat="41.9569900" lon="-1.4509000">
        <ele>240.2</ele>
        <time>2021-09-28T17:41:57Z</time>
      </trkpt>
      <trkpt lat="41.9572630" lon="-1.4515480">
        <ele>240.0</ele>
        <time>2021-09-28T17:42:06Z</time>
      </trkpt>
      <trkpt lat="41.9576030" lon="-1.4521390">
        <ele>240.0</ele>
        <time>2021-09-28T17:42:15Z</time>
      </trkpt>
      <trkpt lat="41.9580290" lon="-1.4526320">
        <ele>239.6</ele>
        <time>2021-09-28T17:42:24Z</time>
      </trkpt>
      <trkpt lat="41.9584680" lon="-1.4531050">
        <ele>239.4</ele>
        <time>2021-09-28T17:42:33Z</time>
      </trkpt>
      <trkpt lat="41.9588800" lon="-1.4536100">
        <ele>239.4</ele>
        <time>2021-09-28T17:42:42Z</time>
      </trkpt>
      <trkpt lat="41.9592770" lon="-1.4541680">
        <ele>239.6</ele>
        <time>2021-09-28T17:42:51Z</time>
      </trkpt>
      <trkpt lat="41.9596550" lon="-1.4547230">
        <ele>239.6</ele>
        <time>2021-09-28T17:43:00Z</time>
      </trkpt>
      <trkpt lat="41.9600450" lon="-1.4552790">
        <ele>239.6</ele>
        <time>2021-09-28T17:43:09Z</time>
      </trkpt>
      <trkpt lat="41.9604390" lon="-1.4558460">
        <ele>239.6</ele>
        <time>2021-09-28T17:43:18Z</time>
      </trkpt>
      <trkpt lat="41.9608320" lon="-1.4564100">
        <ele>239.6</ele>
        <time>2021-09-28T17:43:27Z</time>
      </trkpt>
      <trkpt lat="41.9612290" lon="-1.4569830">
        <ele>239.4</ele>
        <time>2021-09-28T17:43:36Z</time>
      </trkpt>
      <trkpt lat="41.9616180" lon="-1.4575350">
        <ele>239.4</ele>
        <time>2021-09-28T17:43:45Z</time>
      </trkpt>
      <trkpt lat="41.9619900" lon="-1.4580750">
        <ele>239.6</ele>
        <time>2021-09-28T17:43:54Z</time>
      </trkpt>
      <trkpt lat="41.9623680" lon="-1.4586240">
        <ele>239.6</ele>
        <time>2021-09-28T17:44:03Z</time>
      </trkpt>
      <trkpt lat="41.9627380" lon="-1.4591710">
        <ele>239.6</ele>
        <time>2021-09-28T17:44:12Z</time>
      </trkpt>
      <trkpt lat="41.9631130" lon="-1.4597130">
        <ele>239.4</ele>
        <time>2021-09-28T17:44:21Z</time>
      </trkpt>
      <trkpt lat="41.9634070" lon="-1.4601280">
        <ele>239.2</ele>
        <time>2021-09-28T17:44:28Z</time>
      </trkpt>
      <trkpt lat="41.9636100" lon="-1.4603990">
        <ele>239.2</ele>
        <time>2021-09-28T17:44:33Z</time>
      </trkpt>
      <trkpt lat="41.9640910" lon="-1.4608180">
        <ele>239.2</ele>
        <time>2021-09-28T17:44:43Z</time>
      </trkpt>
      <trkpt lat="41.9645440" lon="-1.4610360">
        <ele>239.0</ele>
        <time>2021-09-28T17:44:51Z</time>
      </trkpt>
      <trkpt lat="41.9650700" lon="-1.4612270">
        <ele>238.8</ele>
        <time>2021-09-28T17:45:00Z</time>
      </trkpt>
      <trkpt lat="41.9655300" lon="-1.4616270">
        <ele>239.0</ele>
        <time>2021-09-28T17:45:09Z</time>
      </trkpt>
      <trkpt lat="41.9659330" lon="-1.4621530">
        <ele>239.0</ele>
        <time>2021-09-28T17:45:18Z</time>
      </trkpt>
      <trkpt lat="41.9663070" lon="-1.4627000">
        <ele>239.0</ele>
        <time>2021-09-28T17:45:27Z</time>
      </trkpt>
      <trkpt lat="41.9666410" lon="-1.4632770">
        <ele>239.2</ele>
        <time>2021-09-28T17:45:36Z</time>
      </trkpt>
      <trkpt lat="41.9669320" lon="-1.4638960">
        <ele>239.2</ele>
        <time>2021-09-28T17:45:45Z</time>
      </trkpt>
      <trkpt lat="41.9672450" lon="-1.4645670">
        <ele>239.6</ele>
        <time>2021-09-28T17:45:55Z</time>
      </trkpt>
      <trkpt lat="41.9675510" lon="-1.4651680">
        <ele>239.6</ele>
        <time>2021-09-28T17:46:04Z</time>
      </trkpt>
      <trkpt lat="41.9679280" lon="-1.4657860">
        <ele>239.0</ele>
        <time>2021-09-28T17:46:14Z</time>
      </trkpt>
      <trkpt lat="41.9683040" lon="-1.4663200">
        <ele>238.8</ele>
        <time>2021-09-28T17:46:23Z</time>
      </trkpt>
      <trkpt lat="41.9687090" lon="-1.4668360">
        <ele>238.4</ele>
        <time>2021-09-28T17:46:32Z</time>
      </trkpt>
      <trkpt lat="41.9691220" lon="-1.4673510">
        <ele>238.4</ele>
        <time>2021-09-28T17:46:41Z</time>
      </trkpt>
      <trkpt lat="41.9695280" lon="-1.4678830">
        <ele>238.4</ele>
        <time>2021-09-28T17:46:50Z</time>
      </trkpt>
      <trkpt lat="41.9698930" lon="-1.4684370">
        <ele>238.6</ele>
        <time>2021-09-28T17:46:59Z</time>
      </trkpt>
      <trkpt lat="41.9702280" lon="-1.4690140">
        <ele>238.8</ele>
        <time>2021-09-28T17:47:08Z</time>
      </trkpt>
      <trkpt lat="41.9705420" lon="-1.4696050">
        <ele>239.0</ele>
        <time>2021-09-28T17:47:17Z</time>
      </trkpt>
      <trkpt lat="41.9708360" lon="-1.4702200">
        <ele>239.2</ele>
        <time>2021-09-28T17:47:26Z</time>
      </trkpt>
      <trkpt lat="41.9711350" lon="-1.4708240">
        <ele>239.2</ele>
        <time>2021-09-28T17:47:35Z</time>
      </trkpt>
      <trkpt lat="41.9712620" lon="-1.4710800">
        <ele>239.2</ele>
        <time>2021-09-28T17:47:39Z</time>
      </trkpt>
      <trkpt lat="41.9715870" lon="-1.4716970">
        <ele>239.2</ele>
        <time>2021-09-28T17:47:49Z</time>
      </trkpt>
      <trkpt lat="41.9719970" lon="-1.4722580">
        <ele>239.2</ele>
        <time>2021-09-28T17:48:00Z</time>
      </trkpt>
      <trkpt lat="41.9724310" lon="-1.4727200">
        <ele>239.2</ele>
        <time>2021-09-28T17:48:10Z</time>
      </trkpt>
      <trkpt lat="41.9728620" lon="-1.4731790">
        <ele>239.4</ele>
        <time>2021-09-28T17:48:20Z</time>
      </trkpt>
      <trkpt lat="41.9733110" lon="-1.4736560">
        <ele>239.6</ele>
        <time>2021-09-28T17:48:30Z</time>
      </trkpt>
      <trkpt lat="41.9737530" lon="-1.4741530">
        <ele>239.6</ele>
        <time>2021-09-28T17:48:40Z</time>
      </trkpt>
      <trkpt lat="41.9741940" lon="-1.4746230">
        <ele>239.6</ele>
        <time>2021-09-28T17:48:50Z</time>
      </trkpt>
      <trkpt lat="41.9746240" lon="-1.4751050">
        <ele>239.8</ele>
        <time>2021-09-28T17:49:00Z</time>
      </trkpt>
      <trkpt lat="41.9750070" lon="-1.4755350">
        <ele>239.8</ele>
        <time>2021-09-28T17:49:09Z</time>
      </trkpt>
      <trkpt lat="41.9754350" lon="-1.4760170">
        <ele>239.8</ele>
        <time>2021-09-28T17:49:19Z</time>
      </trkpt>
      <trkpt lat="41.9758710" lon="-1.4764920">
        <ele>240.0</ele>
        <time>2021-09-28T17:49:29Z</time>
      </trkpt>
      <trkpt lat="41.9763750" lon="-1.4768430">
        <ele>240.0</ele>
        <time>2021-09-28T17:49:39Z</time>
      </trkpt>
      <trkpt lat="41.9769240" lon="-1.4770760">
        <ele>240.0</ele>
        <time>2021-09-28T17:49:49Z</time>
      </trkpt>
      <trkpt lat="41.9774840" lon="-1.4773000">
        <ele>239.8</ele>
        <time>2021-09-28T17:49:59Z</time>
      </trkpt>
      <trkpt lat="41.9780530" lon="-1.4775220">
        <ele>239.8</ele>
        <time>2021-09-28T17:50:09Z</time>
      </trkpt>
      <trkpt lat="41.9786270" lon="-1.4777370">
        <ele>239.6</ele>
        <time>2021-09-28T17:50:19Z</time>
      </trkpt>
      <trkpt lat="41.9792200" lon="-1.4778540">
        <ele>239.6</ele>
        <time>2021-09-28T17:50:29Z</time>
      </trkpt>
      <trkpt lat="41.9797890" lon="-1.4778670">
        <ele>239.8</ele>
        <time>2021-09-28T17:50:39Z</time>
      </trkpt>
      <trkpt lat="41.9803470" lon="-1.4778650">
        <ele>240.0</ele>
        <time>2021-09-28T17:50:49Z</time>
      </trkpt>
      <trkpt lat="41.9809030" lon="-1.4778530">
        <ele>240.0</ele>
        <time>2021-09-28T17:50:59Z</time>
      </trkpt>
      <trkpt lat="41.9814830" lon="-1.4778530">
        <ele>240.0</ele>
        <time>2021-09-28T17:51:09Z</time>
      </trkpt>
      <trkpt lat="41.9820670" lon="-1.4779540">
        <ele>239.8</ele>
        <time>2021-09-28T17:51:19Z</time>
      </trkpt>
      <trkpt lat="41.9826290" lon="-1.4781000">
        <ele>239.8</ele>
        <time>2021-09-28T17:51:29Z</time>
      </trkpt>
      <trkpt lat="41.9831950" lon="-1.4782370">
        <ele>239.8</ele>
        <time>2021-09-28T17:51:39Z</time>
      </trkpt>
      <trkpt lat="41.9837630" lon="-1.4783700">
        <ele>239.6</ele>
        <time>2021-09-28T17:51:49Z</time>
      </trkpt>
      <trkpt lat="41.9843410" lon="-1.4784730">
        <ele>239.6</ele>
        <time>2021-09-28T17:51:59Z</time>
      </trkpt>
      <trkpt lat="41.9849170" lon="-1.4784840">
        <ele>239.8</ele>
        <time>2021-09-28T17:52:09Z</time>
      </trkpt>
      <trkpt lat="41.9854870" lon="-1.4784650">
        <ele>240.0</ele>
        <time>2021-09-28T17:52:19Z</time>
      </trkpt>
      <trkpt lat="41.9860640" lon="-1.4784440">
        <ele>240.0</ele>
        <time>2021-09-28T17:52:29Z</time>
      </trkpt>
      <trkpt lat="41.9866630" lon="-1.4784480">
        <ele>240.0</ele>
        <time>2021-09-28T17:52:39Z</time>
      </trkpt>
      <trkpt lat="41.9872030" lon="-1.4784830">
        <ele>240.0</ele>
        <time>2021-09-28T17:52:48Z</time>
      </trkpt>
      <trkpt lat="41.9877940" lon="-1.4785200">
        <ele>240.0</ele>
        <time>2021-09-28T17:52:58Z</time>
      </trkpt>
      <trkpt lat="41.9883580" lon="-1.4787320">
        <ele>240.0</ele>
        <time>2021-09-28T17:53:08Z</time>
      </trkpt>
      <trkpt lat="41.9888470" lon="-1.4791380">
        <ele>240.0</ele>
        <time>2021-09-28T17:53:18Z</time>
      </trkpt>
      <trkpt lat="41.9891440" lon="-1.4793860">
        <ele>240.0</ele>
        <time>2021-09-28T17:53:24Z</time>
      </trkpt>
      <trkpt lat="41.9896310" lon="-1.4797920">
        <ele>240.0</ele>
        <time>2021-09-28T17:53:34Z</time>
      </trkpt>
      <trkpt lat="41.9900950" lon="-1.4802730">
        <ele>240.0</ele>
        <time>2021-09-28T17:53:44Z</time>
      </trkpt>
      <trkpt lat="41.9903920" lon="-1.4808600">
        <ele>239.8</ele>
        <time>2021-09-28T17:53:53Z</time>
      </trkpt>
      <trkpt lat="41.9904420" lon="-1.4810990">
        <ele>239.8</ele>
        <time>2021-09-28T17:53:56Z</time>
      </trkpt>
      <trkpt lat="41.9903830" lon="-1.4818210">
        <ele>239.8</ele>
        <time>2021-09-28T17:54:05Z</time>
      </trkpt>
      <trkpt lat="41.9901280" lon="-1.4824690">
        <ele>240.0</ele>
        <time>2021-09-28T17:54:14Z</time>
      </trkpt>
      <trkpt lat="41.9897760" lon="-1.4830480">
        <ele>240.0</ele>
        <time>2021-09-28T17:54:23Z</time>
      </trkpt>
      <trkpt lat="41.9894550" lon="-1.4836360">
        <ele>240.2</ele>
        <time>2021-09-28T17:54:32Z</time>
      </trkpt>
      <trkpt lat="41.9891430" lon="-1.4843260">
        <ele>240.2</ele>
        <time>2021-09-28T17:54:42Z</time>
      </trkpt>
      <trkpt lat="41.9888520" lon="-1.4849420">
        <ele>240.2</ele>
        <time>2021-09-28T17:54:51Z</time>
      </trkpt>
      <trkpt lat="41.9885340" lon="-1.4855900">
        <ele>240.4</ele>
        <time>2021-09-28T17:55:01Z</time>
      </trkpt>
      <trkpt lat="41.9882370" lon="-1.4862640">
        <ele>240.2</ele>
        <time>2021-09-28T17:55:11Z</time>
      </trkpt>
      <trkpt lat="41.9882030" lon="-1.4868080">
        <ele>240.2</ele>
        <time>2021-09-28T17:55:18Z</time>
      </trkpt>
      <trkpt lat="41.9883810" lon="-1.4875600">
        <ele>240.0</ele>
        <time>2021-09-28T17:55:28Z</time>
      </trkpt>
      <trkpt lat="41.9885790" lon="-1.4882440">
        <ele>240.0</ele>
        <time>2021-09-28T17:55:37Z</time>
      </trkpt>
      <trkpt lat="41.9886710" lon="-1.4886310">
        <ele>240.0</ele>
        <time>2021-09-28T17:55:42Z</time>
      </trkpt>
      <trkpt lat="41.9887060" lon="-1.4893640">
        <ele>239.6</ele>
        <time>2021-09-28T17:55:51Z</time>
      </trkpt>
      <trkpt lat="41.9886830" lon="-1.4901100">
        <ele>239.6</ele>
        <time>2021-09-28T17:56:00Z</time>
      </trkpt>
      <trkpt lat="41.9886620" lon="-1.4909050">
        <ele>239.8</ele>
        <time>2021-09-28T17:56:10Z</time>
      </trkpt>
      <trkpt lat="41.9888490" lon="-1.4916640">
        <ele>239.8</ele>
        <time>2021-09-28T17:56:20Z</time>
      </trkpt>
      <trkpt lat="41.9889890" lon="-1.4922670">
        <ele>239.8</ele>
        <time>2021-09-28T17:56:28Z</time>
      </trkpt>
      <trkpt lat="41.9892220" lon="-1.4929970">
        <ele>239.8</ele>
        <time>2021-09-28T17:56:38Z</time>
      </trkpt>
      <trkpt lat="41.9893920" lon="-1.4934040">
        <ele>239.8</ele>
        <time>2021-09-28T17:56:44Z</time>
      </trkpt>
      <trkpt lat="41.9895650" lon="-1.4938010">
        <ele>239.8</ele>
        <time>2021-09-28T17:56:50Z</time>
      </trkpt>
      <trkpt lat="41.9898130" lon="-1.4945140">
        <ele>240.0</ele>
        <time>2021-09-28T17:57:00Z</time>
      </trkpt>
      <trkpt lat="41.9899510" lon="-1.4949710">
        <ele>239.8</ele>
        <time>2021-09-28T17:57:06Z</time>
      </trkpt>
      <trkpt lat="41.9901210" lon="-1.4955060">
        <ele>239.6</ele>
        <time>2021-09-28T17:57:13Z</time>
      </trkpt>
      <trkpt lat="41.9904100" lon="-1.4961240">
        <ele>239.6</ele>
        <time>2021-09-28T17:57:22Z</time>
      </trkpt>
      <trkpt lat="41.9907450" lon="-1.4967830">
        <ele>239.4</ele>
        <time>2021-09-28T17:57:32Z</time>
      </trkpt>
      <trkpt lat="41.9909730" lon="-1.4972400">
        <ele>239.6</ele>
        <time>2021-09-28T17:57:39Z</time>
      </trkpt>
      <trkpt lat="41.9912990" lon="-1.4978940">
        <ele>240.2</ele>
        <time>2021-09-28T17:57:49Z</time>
      </trkpt>
      <trkpt lat="41.9916490" lon="-1.4985400">
        <ele>240.2</ele>
        <time>2021-09-28T17:57:59Z</time>
      </trkpt>
      <trkpt lat="41.9920030" lon="-1.4991590">
        <ele>240.0</ele>
        <time>2021-09-28T17:58:09Z</time>
      </trkpt>
      <trkpt lat="41.9923650" lon="-1.4997900">
        <ele>239.8</ele>
        <time>2021-09-28T17:58:19Z</time>
      </trkpt>
      <trkpt lat="41.9927030" lon="-1.5003590">
        <ele>239.6</ele>
        <time>2021-09-28T17:58:28Z</time>
      </trkpt>
      <trkpt lat="41.9930760" lon="-1.5009790">
        <ele>239.6</ele>
        <time>2021-09-28T17:58:38Z</time>
      </trkpt>
      <trkpt lat="41.9934100" lon="-1.5015430">
        <ele>239.8</ele>
        <time>2021-09-28T17:58:47Z</time>
      </trkpt>
      <trkpt lat="41.9937750" lon="-1.5021640">
        <ele>240.0</ele>
        <time>2021-09-28T17:58:57Z</time>
      </trkpt>
      <trkpt lat="41.9941330" lon="-1.5027700">
        <ele>240.0</ele>
        <time>2021-09-28T17:59:07Z</time>
      </trkpt>
      <trkpt lat="41.9944880" lon="-1.5033920">
        <ele>240.0</ele>
        <time>2021-09-28T17:59:17Z</time>
      </trkpt>
      <trkpt lat="41.9948560" lon="-1.5039910">
        <ele>239.8</ele>
        <time>2021-09-28T17:59:27Z</time>
      </trkpt>
      <trkpt lat="41.9952680" lon="-1.5045280">
        <ele>239.8</ele>
        <time>2021-09-28T17:59:37Z</time>
      </trkpt>
      <trkpt lat="41.9956800" lon="-1.5050180">
        <ele>239.8</ele>
        <time>2021-09-28T17:59:47Z</time>
      </trkpt>
      <trkpt lat="41.9960360" lon="-1.5055800">
        <ele>239.8</ele>
        <time>2021-09-28T17:59:57Z</time>
      </trkpt>
      <trkpt lat="41.9964350" lon="-1.5061660">
        <ele>239.8</ele>
        <time>2021-09-28T18:00:08Z</time>
      </trkpt>
      <trkpt lat="41.9968650" lon="-1.5066120">
        <ele>240.0</ele>
        <time>2021-09-28T18:00:18Z</time>
      </trkpt>
      <trkpt lat="41.9973360" lon="-1.5069940">
        <ele>239.6</ele>
        <time>2021-09-28T18:00:28Z</time>
      </trkpt>
      <trkpt lat="41.9978250" lon="-1.5073760">
        <ele>239.4</ele>
        <time>2021-09-28T18:00:38Z</time>
      </trkpt>
      <trkpt lat="41.9983050" lon="-1.5077670">
        <ele>239.4</ele>
        <time>2021-09-28T18:00:48Z</time>
      </trkpt>
      <trkpt lat="41.9987410" lon="-1.5082110">
        <ele>239.4</ele>
        <time>2021-09-28T18:00:58Z</time>
      </trkpt>
      <trkpt lat="41.9990030" lon="-1.5085450">
        <ele>239.8</ele>
        <time>2021-09-28T18:01:05Z</time>
      </trkpt>
      <trkpt lat="41.9991310" lon="-1.5087490">
        <ele>240.4</ele>
        <time>2021-09-28T18:01:09Z</time>
      </trkpt>
      <trkpt lat="41.9993240" lon="-1.5089420">
        <ele>240.4</ele>
        <time>2021-09-28T18:01:14Z</time>
      </trkpt>
      <trkpt lat="41.9997780" lon="-1.5093890">
        <ele>240.0</ele>
        <time>2021-09-28T18:01:25Z</time>
      </trkpt>
      <trkpt lat="42.0000380" lon="-1.5096450">
        <ele>239.4</ele>
        <time>2021-09-28T18:01:31Z</time>
      </trkpt>
      <trkpt lat="42.0004460" lon="-1.5100270">
        <ele>239.0</ele>
        <time>2021-09-28T18:01:40Z</time>
      </trkpt>
      <trkpt lat="42.0008590" lon="-1.5104240">
        <ele>239.2</ele>
        <time>2021-09-28T18:01:49Z</time>
      </trkpt>
      <trkpt lat="42.0012830" lon="-1.5108910">
        <ele>239.2</ele>
        <time>2021-09-28T18:01:59Z</time>
      </trkpt>
      <trkpt lat="42.0016580" lon="-1.5114330">
        <ele>239.0</ele>
        <time>2021-09-28T18:02:09Z</time>
      </trkpt>
      <trkpt lat="42.0019800" lon="-1.5120510">
        <ele>239.0</ele>
        <time>2021-09-28T18:02:19Z</time>
      </trkpt>
      <trkpt lat="42.0022920" lon="-1.5126710">
        <ele>239.2</ele>
        <time>2021-09-28T18:02:29Z</time>
      </trkpt>
      <trkpt lat="42.0025870" lon="-1.5133060">
        <ele>239.0</ele>
        <time>2021-09-28T18:02:39Z</time>
      </trkpt>
      <trkpt lat="42.0027970" lon="-1.5138240">
        <ele>239.2</ele>
        <time>2021-09-28T18:02:47Z</time>
      </trkpt>
      <trkpt lat="42.0030390" lon="-1.5144790">
        <ele>239.2</ele>
        <time>2021-09-28T18:02:57Z</time>
      </trkpt>
      <trkpt lat="42.0033060" lon="-1.5151850">
        <ele>239.2</ele>
        <time>2021-09-28T18:03:08Z</time>
      </trkpt>
      <trkpt lat="42.0033330" lon="-1.5152520">
        <ele>239.2</ele>
        <time>2021-09-28T18:03:09Z</time>
      </trkpt>
      <trkpt lat="42.0035870" lon="-1.5158600">
        <ele>239.0</ele>
        <time>2021-09-28T18:03:18Z</time>
      </trkpt>
      <trkpt lat="42.0038370" lon="-1.5165030">
        <ele>239.0</ele>
        <time>2021-09-28T18:03:28Z</time>
      </trkpt>
      <trkpt lat="42.0039880" lon="-1.5172070">
        <ele>239.2</ele>
        <time>2021-09-28T18:03:38Z</time>
      </trkpt>
      <trkpt lat="42.0041170" lon="-1.5179160">
        <ele>239.2</ele>
        <time>2021-09-28T18:03:48Z</time>
      </trkpt>
      <trkpt lat="42.0042510" lon="-1.5186820">
        <ele>239.2</ele>
        <time>2021-09-28T18:03:59Z</time>
      </trkpt>
      <trkpt lat="42.0043750" lon="-1.5193880">
        <ele>239.2</ele>
        <time>2021-09-28T18:04:09Z</time>
      </trkpt>
      <trkpt lat="42.0045270" lon="-1.5200950">
        <ele>239.4</ele>
        <time>2021-09-28T18:04:19Z</time>
      </trkpt>
      <trkpt lat="42.0045450" lon="-1.5201660">
        <ele>239.4</ele>
        <time>2021-09-28T18:04:20Z</time>
      </trkpt>
      <trkpt lat="42.0047010" lon="-1.5207960">
        <ele>239.4</ele>
        <time>2021-09-28T18:04:29Z</time>
      </trkpt>
      <trkpt lat="42.0047890" lon="-1.5211370">
        <ele>239.6</ele>
        <time>2021-09-28T18:04:34Z</time>
      </trkpt>
      <trkpt lat="42.0049360" lon="-1.5218840">
        <ele>239.6</ele>
        <time>2021-09-28T18:04:45Z</time>
      </trkpt>
      <trkpt lat="42.0050040" lon="-1.5223100">
        <ele>239.6</ele>
        <time>2021-09-28T18:04:51Z</time>
      </trkpt>
      <trkpt lat="42.0051800" lon="-1.5230030">
        <ele>239.6</ele>
        <time>2021-09-28T18:05:01Z</time>
      </trkpt>
      <trkpt lat="42.0053780" lon="-1.5237030">
        <ele>239.4</ele>
        <time>2021-09-28T18:05:11Z</time>
      </trkpt>
      <trkpt lat="42.0055480" lon="-1.5244110">
        <ele>239.4</ele>
        <time>2021-09-28T18:05:21Z</time>
      </trkpt>
      <trkpt lat="42.0056780" lon="-1.5251750">
        <ele>239.6</ele>
        <time>2021-09-28T18:05:32Z</time>
      </trkpt>
      <trkpt lat="42.0058140" lon="-1.5259490">
        <ele>239.4</ele>
        <time>2021-09-28T18:05:43Z</time>
      </trkpt>
      <trkpt lat="42.0060110" lon="-1.5266260">
        <ele>239.0</ele>
        <time>2021-09-28T18:05:53Z</time>
      </trkpt>
      <trkpt lat="42.0061170" lon="-1.5268790">
        <ele>239.2</ele>
        <time>2021-09-28T18:05:57Z</time>
      </trkpt>
      <trkpt lat="42.0064830" lon="-1.5274910">
        <ele>239.4</ele>
        <time>2021-09-28T18:06:08Z</time>
      </trkpt>
      <trkpt lat="42.0069120" lon="-1.5280320">
        <ele>239.6</ele>
        <time>2021-09-28T18:06:19Z</time>
      </trkpt>
      <trkpt lat="42.0073660" lon="-1.5284850">
        <ele>239.6</ele>
        <time>2021-09-28T18:06:29Z</time>
      </trkpt>
      <trkpt lat="42.0077940" lon="-1.5289490">
        <ele>239.8</ele>
        <time>2021-09-28T18:06:39Z</time>
      </trkpt>
      <trkpt lat="42.0081950" lon="-1.5295200">
        <ele>240.0</ele>
        <time>2021-09-28T18:06:50Z</time>
      </trkpt>
      <trkpt lat="42.0085120" lon="-1.5301220">
        <ele>239.8</ele>
        <time>2021-09-28T18:07:00Z</time>
      </trkpt>
      <trkpt lat="42.0088180" lon="-1.5307410">
        <ele>239.8</ele>
        <time>2021-09-28T18:07:10Z</time>
      </trkpt>
      <trkpt lat="42.0091270" lon="-1.5313380">
        <ele>240.0</ele>
        <time>2021-09-28T18:07:20Z</time>
      </trkpt>
      <trkpt lat="42.0094310" lon="-1.5319230">
        <ele>240.0</ele>
        <time>2021-09-28T18:07:30Z</time>
      </trkpt>
      <trkpt lat="42.0097420" lon="-1.5325290">
        <ele>240.2</ele>
        <time>2021-09-28T18:07:40Z</time>
      </trkpt>
      <trkpt lat="42.0100610" lon="-1.5331770">
        <ele>240.0</ele>
        <time>2021-09-28T18:07:50Z</time>
      </trkpt>
      <trkpt lat="42.0103680" lon="-1.5338350">
        <ele>239.8</ele>
        <time>2021-09-28T18:08:00Z</time>
      </trkpt>
      <trkpt lat="42.0106450" lon="-1.5344990">
        <ele>239.8</ele>
        <time>2021-09-28T18:08:10Z</time>
      </trkpt>
      <trkpt lat="42.0108920" lon="-1.5351890">
        <ele>240.0</ele>
        <time>2021-09-28T18:08:20Z</time>
      </trkpt>
      <trkpt lat="42.0111190" lon="-1.5358510">
        <ele>240.0</ele>
        <time>2021-09-28T18:08:29Z</time>
      </trkpt>
      <trkpt lat="42.0112800" lon="-1.5364000">
        <ele>239.4</ele>
        <time>2021-09-28T18:08:36Z</time>
      </trkpt>
      <trkpt lat="42.0114440" lon="-1.5371690">
        <ele>239.4</ele>
        <time>2021-09-28T18:08:46Z</time>
      </trkpt>
      <trkpt lat="42.0115330" lon="-1.5377010">
        <ele>239.6</ele>
        <time>2021-09-28T18:08:53Z</time>
      </trkpt>
      <trkpt lat="42.0116540" lon="-1.5384440">
        <ele>239.8</ele>
        <time>2021-09-28T18:09:03Z</time>
      </trkpt>
      <trkpt lat="42.0117680" lon="-1.5391830">
        <ele>239.8</ele>
        <time>2021-09-28T18:09:13Z</time>
      </trkpt>
      <trkpt lat="42.0118550" lon="-1.5396430">
        <ele>239.6</ele>
        <time>2021-09-28T18:09:19Z</time>
      </trkpt>
      <trkpt lat="42.0120430" lon="-1.5403250">
        <ele>239.4</ele>
        <time>2021-09-28T18:09:28Z</time>
      </trkpt>
      <trkpt lat="42.0123130" lon="-1.5410280">
        <ele>239.4</ele>
        <time>2021-09-28T18:09:38Z</time>
      </trkpt>
      <trkpt lat="42.0126230" lon="-1.5416760">
        <ele>239.6</ele>
        <time>2021-09-28T18:09:48Z</time>
      </trkpt>
      <trkpt lat="42.0127820" lon="-1.5419920">
        <ele>239.8</ele>
        <time>2021-09-28T18:09:53Z</time>
      </trkpt>
      <trkpt lat="42.0130720" lon="-1.5426620">
        <ele>240.0</ele>
        <time>2021-09-28T18:10:03Z</time>
      </trkpt>
      <trkpt lat="42.0133090" lon="-1.5433830">
        <ele>240.0</ele>
        <time>2021-09-28T18:10:13Z</time>
      </trkpt>
      <trkpt lat="42.0134930" lon="-1.5440600">
        <ele>239.8</ele>
        <time>2021-09-28T18:10:22Z</time>
      </trkpt>
      <trkpt lat="42.0136750" lon="-1.5447530">
        <ele>239.6</ele>
        <time>2021-09-28T18:10:31Z</time>
      </trkpt>
      <trkpt lat="42.0138480" lon="-1.5454340">
        <ele>239.6</ele>
        <time>2021-09-28T18:10:40Z</time>
      </trkpt>
      <trkpt lat="42.0140380" lon="-1.5461890">
        <ele>239.6</ele>
        <time>2021-09-28T18:10:50Z</time>
      </trkpt>
      <trkpt lat="42.0142050" lon="-1.5468820">
        <ele>239.6</ele>
        <time>2021-09-28T18:10:59Z</time>
      </trkpt>
      <trkpt lat="42.0143960" lon="-1.5476390">
        <ele>239.4</ele>
        <time>2021-09-28T18:11:09Z</time>
      </trkpt>
      <trkpt lat="42.0145540" lon="-1.5483390">
        <ele>239.4</ele>
        <time>2021-09-28T18:11:18Z</time>
      </trkpt>
      <trkpt lat="42.0147140" lon="-1.5490600">
        <ele>239.4</ele>
        <time>2021-09-28T18:11:27Z</time>
      </trkpt>
      <trkpt lat="42.0149130" lon="-1.5496800">
        <ele>239.2</ele>
        <time>2021-09-28T18:11:35Z</time>
      </trkpt>
      <trkpt lat="42.0151630" lon="-1.5503510">
        <ele>239.2</ele>
        <time>2021-09-28T18:11:44Z</time>
      </trkpt>
      <trkpt lat="42.0154170" lon="-1.5510030">
        <ele>239.2</ele>
        <time>2021-09-28T18:11:53Z</time>
      </trkpt>
      <trkpt lat="42.0156820" lon="-1.5517260">
        <ele>239.2</ele>
        <time>2021-09-28T18:12:03Z</time>
      </trkpt>
      <trkpt lat="42.0159680" lon="-1.5522000">
        <ele>239.6</ele>
        <time>2021-09-28T18:12:13Z</time>
      </trkpt>
      <trkpt lat="42.0160560" lon="-1.5523270">
        <ele>241.0</ele>
        <time>2021-09-28T18:12:16Z</time>
      </trkpt>
      <trkpt lat="42.0161210" lon="-1.5524190">
        <ele>242.0</ele>
        <time>2021-09-28T18:12:18Z</time>
      </trkpt>
      <trkpt lat="42.0165210" lon="-1.5529550">
        <ele>242.4</ele>
        <time>2021-09-28T18:12:29Z</time>
      </trkpt>
      <trkpt lat="42.0169070" lon="-1.5534700">
        <ele>242.4</ele>
        <time>2021-09-28T18:12:39Z</time>
      </trkpt>
      <trkpt lat="42.0173020" lon="-1.5539800">
        <ele>242.2</ele>
        <time>2021-09-28T18:12:49Z</time>
      </trkpt>
      <trkpt lat="42.0175280" lon="-1.5544230">
        <ele>242.4</ele>
        <time>2021-09-28T18:12:56Z</time>
      </trkpt>
      <trkpt lat="42.0175790" lon="-1.5547140">
        <ele>242.4</ele>
        <time>2021-09-28T18:13:00Z</time>
      </trkpt>
      <trkpt lat="42.0175950" lon="-1.5550740">
        <ele>242.4</ele>
        <time>2021-09-28T18:13:05Z</time>
      </trkpt>
      <trkpt lat="42.0175920" lon="-1.5552600">
        <ele>242.4</ele>
        <time>2021-09-28T18:13:08Z</time>
      </trkpt>
      <trkpt lat="42.0175620" lon="-1.5555160">
        <ele>243.0</ele>
        <time>2021-09-28T18:13:14Z</time>
      </trkpt>
      <trkpt lat="42.0174470" lon="-1.5556430">
        <ele>244.2</ele>
        <time>2021-09-28T18:13:18Z</time>
      </trkpt>
      <trkpt lat="42.0173790" lon="-1.5557040">
        <ele>244.4</ele>
        <time>2021-09-28T18:13:20Z</time>
      </trkpt>
      <trkpt lat="42.0172090" lon="-1.5558750">
        <ele>244.4</ele>
        <time>2021-09-28T18:13:25Z</time>
      </trkpt>
      <trkpt lat="42.0171280" lon="-1.5560990">
        <ele>244.2</ele>
        <time>2021-09-28T18:13:29Z</time>
      </trkpt>
      <trkpt lat="42.0173390" lon="-1.5565580">
        <ele>243.4</ele>
        <time>2021-09-28T18:13:36Z</time>
      </trkpt>
      <trkpt lat="42.0174440" lon="-1.5566850">
        <ele>242.8</ele>
        <time>2021-09-28T18:13:38Z</time>
      </trkpt>
      <trkpt lat="42.0175870" lon="-1.5568790">
        <ele>241.6</ele>
        <time>2021-09-28T18:13:41Z</time>
      </trkpt>
      <trkpt lat="42.0176810" lon="-1.5569950">
        <ele>240.6</ele>
        <time>2021-09-28T18:13:43Z</time>
      </trkpt>
      <trkpt lat="42.0177680" lon="-1.5571240">
        <ele>239.8</ele>
        <time>2021-09-28T18:13:45Z</time>
      </trkpt>
      <trkpt lat="42.0180200" lon="-1.5576140">
        <ele>239.4</ele>
        <time>2021-09-28T18:13:52Z</time>
      </trkpt>
      <trkpt lat="42.0182060" lon="-1.5579830">
        <ele>239.4</ele>
        <time>2021-09-28T18:13:57Z</time>
      </trkpt>
      <trkpt lat="42.0185160" lon="-1.5585970">
        <ele>239.0</ele>
        <time>2021-09-28T18:14:05Z</time>
      </trkpt>
      <trkpt lat="42.0188190" lon="-1.5592010">
        <ele>238.8</ele>
        <time>2021-09-28T18:14:13Z</time>
      </trkpt>
      <trkpt lat="42.0191390" lon="-1.5598400">
        <ele>239.0</ele>
        <time>2021-09-28T18:14:22Z</time>
      </trkpt>
      <trkpt lat="42.0194180" lon="-1.5603970">
        <ele>239.0</ele>
        <time>2021-09-28T18:14:30Z</time>
      </trkpt>
      <trkpt lat="42.0197250" lon="-1.5610080">
        <ele>239.0</ele>
        <time>2021-09-28T18:14:39Z</time>
      </trkpt>
      <trkpt lat="42.0200350" lon="-1.5616250">
        <ele>239.0</ele>
        <time>2021-09-28T18:14:48Z</time>
      </trkpt>
      <trkpt lat="42.0203490" lon="-1.5622480">
        <ele>238.8</ele>
        <time>2021-09-28T18:14:57Z</time>
      </trkpt>
      <trkpt lat="42.0206600" lon="-1.5628780">
        <ele>238.8</ele>
        <time>2021-09-28T18:15:06Z</time>
      </trkpt>
      <trkpt lat="42.0209920" lon="-1.5634550">
        <ele>238.8</ele>
        <time>2021-09-28T18:15:15Z</time>
      </trkpt>
      <trkpt lat="42.0214130" lon="-1.5639260">
        <ele>238.8</ele>
        <time>2021-09-28T18:15:24Z</time>
      </trkpt>
      <trkpt lat="42.0219120" lon="-1.5642430">
        <ele>238.8</ele>
        <time>2021-09-28T18:15:33Z</time>
      </trkpt>
      <trkpt lat="42.0224360" lon="-1.5645190">
        <ele>238.8</ele>
        <time>2021-09-28T18:15:42Z</time>
      </trkpt>
      <trkpt lat="42.0227900" lon="-1.5647000">
        <ele>239.0</ele>
        <time>2021-09-28T18:15:48Z</time>
      </trkpt>
      <trkpt lat="42.0231600" lon="-1.5648630">
        <ele>239.0</ele>
        <time>2021-09-28T18:15:54Z</time>
      </trkpt>
      <trkpt lat="42.0234100" lon="-1.5649390">
        <ele>239.2</ele>
        <time>2021-09-28T18:15:58Z</time>
      </trkpt>
      <trkpt lat="42.0237160" lon="-1.5649600">
        <ele>239.4</ele>
        <time>2021-09-28T18:16:03Z</time>
      </trkpt>
      <trkpt lat="42.0239440" lon="-1.5649370">
        <ele>240.0</ele>
        <time>2021-09-28T18:16:07Z</time>
      </trkpt>
      <trkpt lat="42.0239970" lon="-1.5649390">
        <ele>240.4</ele>
        <time>2021-09-28T18:16:08Z</time>
      </trkpt>
      <trkpt lat="42.0240990" lon="-1.5649460">
        <ele>241.6</ele>
        <time>2021-09-28T18:16:10Z</time>
      </trkpt>
      <trkpt lat="42.0241940" lon="-1.5649630">
        <ele>242.8</ele>
        <time>2021-09-28T18:16:12Z</time>
      </trkpt>
      <trkpt lat="42.0243350" lon="-1.5649890">
        <ele>244.2</ele>
        <time>2021-09-28T18:16:15Z</time>
      </trkpt>
      <trkpt lat="42.0244790" lon="-1.5650320">
        <ele>245.6</ele>
        <time>2021-09-28T18:16:18Z</time>
      </trkpt>
      <trkpt lat="42.0245680" lon="-1.5650790">
        <ele>246.4</ele>
        <time>2021-09-28T18:16:20Z</time>
      </trkpt>
      <trkpt lat="42.0246090" lon="-1.5651100">
        <ele>246.8</ele>
        <time>2021-09-28T18:16:21Z</time>
      </trkpt>
      <trkpt lat="42.0247220" lon="-1.5652240">
        <ele>247.2</ele>
        <time>2021-09-28T18:16:24Z</time>
      </trkpt>
      <trkpt lat="42.0248350" lon="-1.5653780">
        <ele>247.0</ele>
        <time>2021-09-28T18:16:28Z</time>
      </trkpt>
      <trkpt lat="42.0248630" lon="-1.5653850">
        <ele>247.0</ele>
        <time>2021-09-28T18:16:29Z</time>
      </trkpt>
      <trkpt lat="42.0249380" lon="-1.5653890">
        <ele>247.2</ele>
        <time>2021-09-28T18:16:33Z</time>
      </trkpt>
      <trkpt lat="42.0249430" lon="-1.5653960">
        <ele>247.2</ele>
        <time>2021-09-28T18:16:35Z</time>
      </trkpt>
      <trkpt lat="42.0249600" lon="-1.5654020">
        <ele>247.6</ele>
        <time>2021-09-28T18:17:12Z</time>
      </trkpt>
      <trkpt lat="42.0249760" lon="-1.5653990">
        <ele>247.6</ele>
        <time>2021-09-28T18:17:13Z</time>
      </trkpt>
      <trkpt lat="42.0251510" lon="-1.5653470">
        <ele>247.6</ele>
        <time>2021-09-28T18:17:20Z</time>
      </trkpt>
      <trkpt lat="42.0254200" lon="-1.5653130">
        <ele>247.4</ele>
        <time>2021-09-28T18:17:28Z</time>
      </trkpt>
      <trkpt lat="42.0256540" lon="-1.5651910">
        <ele>247.2</ele>
        <time>2021-09-28T18:17:34Z</time>
      </trkpt>
      <trkpt lat="42.0257570" lon="-1.5651030">
        <ele>247.2</ele>
        <time>2021-09-28T18:17:38Z</time>
      </trkpt>
      <trkpt lat="42.0258870" lon="-1.5650020">
        <ele>247.2</ele>
        <time>2021-09-28T18:17:43Z</time>
      </trkpt>
      <trkpt lat="42.0259640" lon="-1.5649410">
        <ele>247.0</ele>
        <time>2021-09-28T18:17:45Z</time>
      </trkpt>
      <trkpt lat="42.0262600" lon="-1.5647510">
        <ele>246.8</ele>
        <time>2021-09-28T18:17:51Z</time>
      </trkpt>
      <trkpt lat="42.0265490" lon="-1.5646610">
        <ele>245.6</ele>
        <time>2021-09-28T18:17:56Z</time>
      </trkpt>
      <trkpt lat="42.0266120" lon="-1.5646540">
        <ele>245.4</ele>
        <time>2021-09-28T18:17:57Z</time>
      </trkpt>
      <trkpt lat="42.0268750" lon="-1.5647250">
        <ele>244.6</ele>
        <time>2021-09-28T18:18:01Z</time>
      </trkpt>
      <trkpt lat="42.0270760" lon="-1.5647900">
        <ele>243.0</ele>
        <time>2021-09-28T18:18:04Z</time>
      </trkpt>
      <trkpt lat="42.0273430" lon="-1.5648550">
        <ele>241.8</ele>
        <time>2021-09-28T18:18:08Z</time>
      </trkpt>
      <trkpt lat="42.0279320" lon="-1.5649920">
        <ele>241.8</ele>
        <time>2021-09-28T18:18:17Z</time>
      </trkpt>
      <trkpt lat="42.0284510" lon="-1.5652470">
        <ele>242.0</ele>
        <time>2021-09-28T18:18:25Z</time>
      </trkpt>
      <trkpt lat="42.0286890" lon="-1.5653930">
        <ele>242.2</ele>
        <time>2021-09-28T18:18:29Z</time>
      </trkpt>
      <trkpt lat="42.0288940" lon="-1.5656130">
        <ele>242.4</ele>
        <time>2021-09-28T18:18:33Z</time>
      </trkpt>
      <trkpt lat="42.0293260" lon="-1.5661170">
        <ele>242.6</ele>
        <time>2021-09-28T18:18:41Z</time>
      </trkpt>
      <trkpt lat="42.0296990" lon="-1.5667250">
        <ele>241.2</ele>
        <time>2021-09-28T18:18:49Z</time>
      </trkpt>
      <trkpt lat="42.0297790" lon="-1.5668750">
        <ele>241.2</ele>
        <time>2021-09-28T18:18:51Z</time>
      </trkpt>
      <trkpt lat="42.0299220" lon="-1.5672860">
        <ele>241.4</ele>
        <time>2021-09-28T18:18:56Z</time>
      </trkpt>
      <trkpt lat="42.0301730" lon="-1.5680080">
        <ele>242.0</ele>
        <time>2021-09-28T18:19:04Z</time>
      </trkpt>
      <trkpt lat="42.0304380" lon="-1.5685600">
        <ele>242.2</ele>
        <time>2021-09-28T18:19:11Z</time>
      </trkpt>
      <trkpt lat="42.0304480" lon="-1.5690910">
        <ele>242.4</ele>
        <time>2021-09-28T18:19:18Z</time>
      </trkpt>
      <trkpt lat="42.0305250" lon="-1.5691890">
        <ele>242.8</ele>
        <time>2021-09-28T18:19:20Z</time>
      </trkpt>
      <trkpt lat="42.0306400" lon="-1.5692430">
        <ele>242.8</ele>
        <time>2021-09-28T18:19:22Z</time>
      </trkpt>
      <trkpt lat="42.0309600" lon="-1.5693170">
        <ele>242.8</ele>
        <time>2021-09-28T18:19:27Z</time>
      </trkpt>
      <trkpt lat="42.0313440" lon="-1.5692070">
        <ele>243.2</ele>
        <time>2021-09-28T18:19:33Z</time>
      </trkpt>
      <trkpt lat="42.0314650" lon="-1.5691710">
        <ele>243.4</ele>
        <time>2021-09-28T18:19:35Z</time>
      </trkpt>
      <trkpt lat="42.0316380" lon="-1.5691670">
        <ele>243.4</ele>
        <time>2021-09-28T18:19:38Z</time>
      </trkpt>
      <trkpt lat="42.0317490" lon="-1.5692090">
        <ele>243.6</ele>
        <time>2021-09-28T18:19:40Z</time>
      </trkpt>
      <trkpt lat="42.0318030" lon="-1.5692400">
        <ele>243.8</ele>
        <time>2021-09-28T18:19:41Z</time>
      </trkpt>
      <trkpt lat="42.0319120" lon="-1.5693050">
        <ele>245.0</ele>
        <time>2021-09-28T18:19:43Z</time>
      </trkpt>
      <trkpt lat="42.0320660" lon="-1.5694200">
        <ele>246.8</ele>
        <time>2021-09-28T18:19:46Z</time>
      </trkpt>
      <trkpt lat="42.0323620" lon="-1.5696690">
        <ele>247.8</ele>
        <time>2021-09-28T18:19:52Z</time>
      </trkpt>
      <trkpt lat="42.0326680" lon="-1.5699020">
        <ele>249.0</ele>
        <time>2021-09-28T18:19:58Z</time>
      </trkpt>
      <trkpt lat="42.0331660" lon="-1.5703100">
        <ele>249.4</ele>
        <time>2021-09-28T18:20:08Z</time>
      </trkpt>
      <trkpt lat="42.0336270" lon="-1.5708220">
        <ele>249.6</ele>
        <time>2021-09-28T18:20:18Z</time>
      </trkpt>
      <trkpt lat="42.0340550" lon="-1.5713480">
        <ele>249.6</ele>
        <time>2021-09-28T18:20:27Z</time>
      </trkpt>
      <trkpt lat="42.0344640" lon="-1.5718750">
        <ele>249.4</ele>
        <time>2021-09-28T18:20:36Z</time>
      </trkpt>
      <trkpt lat="42.0344610" lon="-1.5722460">
        <ele>249.6</ele>
        <time>2021-09-28T18:20:41Z</time>
      </trkpt>
      <trkpt lat="42.0344370" lon="-1.5723170">
        <ele>249.6</ele>
        <time>2021-09-28T18:20:42Z</time>
      </trkpt>
      <trkpt lat="42.0343410" lon="-1.5725220">
        <ele>250.0</ele>
        <time>2021-09-28T18:20:45Z</time>
      </trkpt>
      <trkpt lat="42.0341410" lon="-1.5729160">
        <ele>251.0</ele>
        <time>2021-09-28T18:20:51Z</time>
      </trkpt>
      <trkpt lat="42.0342570" lon="-1.5733770">
        <ele>251.6</ele>
        <time>2021-09-28T18:20:58Z</time>
      </trkpt>
      <trkpt lat="42.0347270" lon="-1.5738110">
        <ele>252.0</ele>
        <time>2021-09-28T18:21:07Z</time>
      </trkpt>
      <trkpt lat="42.0347800" lon="-1.5738600">
        <ele>252.0</ele>
        <time>2021-09-28T18:21:08Z</time>
      </trkpt>
      <trkpt lat="42.0351490" lon="-1.5742060">
        <ele>251.8</ele>
        <time>2021-09-28T18:21:15Z</time>
      </trkpt>
      <trkpt lat="42.0355980" lon="-1.5745960">
        <ele>251.6</ele>
        <time>2021-09-28T18:21:23Z</time>
      </trkpt>
      <trkpt lat="42.0357840" lon="-1.5747160">
        <ele>251.2</ele>
        <time>2021-09-28T18:21:26Z</time>
      </trkpt>
      <trkpt lat="42.0359690" lon="-1.5748410">
        <ele>250.8</ele>
        <time>2021-09-28T18:21:29Z</time>
      </trkpt>
      <trkpt lat="42.0364460" lon="-1.5752510">
        <ele>249.6</ele>
        <time>2021-09-28T18:21:37Z</time>
      </trkpt>
      <trkpt lat="42.0368910" lon="-1.5757210">
        <ele>249.2</ele>
        <time>2021-09-28T18:21:46Z</time>
      </trkpt>
      <trkpt lat="42.0370670" lon="-1.5759080">
        <ele>249.6</ele>
        <time>2021-09-28T18:21:50Z</time>
      </trkpt>
      <trkpt lat="42.0372450" lon="-1.5760930">
        <ele>250.8</ele>
        <time>2021-09-28T18:21:54Z</time>
      </trkpt>
      <trkpt lat="42.0375770" lon="-1.5763940">
        <ele>251.8</ele>
        <time>2021-09-28T18:22:01Z</time>
      </trkpt>
      <trkpt lat="42.0380250" lon="-1.5767700">
        <ele>252.2</ele>
        <time>2021-09-28T18:22:10Z</time>
      </trkpt>
      <trkpt lat="42.0382580" lon="-1.5767780">
        <ele>251.8</ele>
        <time>2021-09-28T18:22:14Z</time>
      </trkpt>
      <trkpt lat="42.0384510" lon="-1.5766200">
        <ele>251.4</ele>
        <time>2021-09-28T18:22:18Z</time>
      </trkpt>
      <trkpt lat="42.0386180" lon="-1.5766170">
        <ele>251.2</ele>
        <time>2021-09-28T18:22:21Z</time>
      </trkpt>
      <trkpt lat="42.0387280" lon="-1.5766920">
        <ele>251.2</ele>
        <time>2021-09-28T18:22:23Z</time>
      </trkpt>
      <trkpt lat="42.0390640" lon="-1.5769190">
        <ele>250.2</ele>
        <time>2021-09-28T18:22:29Z</time>
      </trkpt>
      <trkpt lat="42.0392970" lon="-1.5770060">
        <ele>249.2</ele>
        <time>2021-09-28T18:22:33Z</time>
      </trkpt>
      <trkpt lat="42.0398550" lon="-1.5771140">
        <ele>249.2</ele>
        <time>2021-09-28T18:22:43Z</time>
      </trkpt>
      <trkpt lat="42.0403190" lon="-1.5773130">
        <ele>250.4</ele>
        <time>2021-09-28T18:22:52Z</time>
      </trkpt>
      <trkpt lat="42.0408130" lon="-1.5776210">
        <ele>251.0</ele>
        <time>2021-09-28T18:23:02Z</time>
      </trkpt>
      <trkpt lat="42.0413410" lon="-1.5779780">
        <ele>251.2</ele>
        <time>2021-09-28T18:23:13Z</time>
      </trkpt>
      <trkpt lat="42.0418420" lon="-1.5783800">
        <ele>251.4</ele>
        <time>2021-09-28T18:23:24Z</time>
      </trkpt>
      <trkpt lat="42.0419760" lon="-1.5784950">
        <ele>251.4</ele>
        <time>2021-09-28T18:23:27Z</time>
      </trkpt>
      <trkpt lat="42.0424150" lon="-1.5788870">
        <ele>251.6</ele>
        <time>2021-09-28T18:23:38Z</time>
      </trkpt>
      <trkpt lat="42.0422680" lon="-1.5791130">
        <ele>252.8</ele>
        <time>2021-09-28T18:23:45Z</time>
      </trkpt>
      <trkpt lat="42.0422220" lon="-1.5791220">
        <ele>253.4</ele>
        <time>2021-09-28T18:23:46Z</time>
      </trkpt>
      <trkpt lat="42.0421230" lon="-1.5791390">
        <ele>254.0</ele>
        <time>2021-09-28T18:23:48Z</time>
      </trkpt>
      <trkpt lat="42.0415860" lon="-1.5792650">
        <ele>254.0</ele>
        <time>2021-09-28T18:23:58Z</time>
      </trkpt>
      <trkpt lat="42.0412760" lon="-1.5793900">
        <ele>253.8</ele>
        <time>2021-09-28T18:24:04Z</time>
      </trkpt>
      <trkpt lat="42.0412730" lon="-1.5798980">
        <ele>253.6</ele>
        <time>2021-09-28T18:24:15Z</time>
      </trkpt>
      <trkpt lat="42.0413970" lon="-1.5799830">
        <ele>253.6</ele>
        <time>2021-09-28T18:24:18Z</time>
      </trkpt>
      <trkpt lat="42.0416920" lon="-1.5799730">
        <ele>253.8</ele>
        <time>2021-09-28T18:24:24Z</time>
      </trkpt>
      <trkpt lat="42.0419560" lon="-1.5798460">
        <ele>254.0</ele>
        <time>2021-09-28T18:24:29Z</time>
      </trkpt>
      <trkpt lat="42.0424950" lon="-1.5795510">
        <ele>254.0</ele>
        <time>2021-09-28T18:24:39Z</time>
      </trkpt>
      <trkpt lat="42.0428640" lon="-1.5793830">
        <ele>254.0</ele>
        <time>2021-09-28T18:24:46Z</time>
      </trkpt>
      <trkpt lat="42.0431680" lon="-1.5795480">
        <ele>253.8</ele>
        <time>2021-09-28T18:24:52Z</time>
      </trkpt>
      <trkpt lat="42.0436260" lon="-1.5799850">
        <ele>253.4</ele>
        <time>2021-09-28T18:25:02Z</time>
      </trkpt>
      <trkpt lat="42.0439320" lon="-1.5802640">
        <ele>253.0</ele>
        <time>2021-09-28T18:25:08Z</time>
      </trkpt>
      <trkpt lat="42.0443950" lon="-1.5806930">
        <ele>253.0</ele>
        <time>2021-09-28T18:25:17Z</time>
      </trkpt>
      <trkpt lat="42.0448310" lon="-1.5811220">
        <ele>253.4</ele>
        <time>2021-09-28T18:25:26Z</time>
      </trkpt>
      <trkpt lat="42.0453150" lon="-1.5815630">
        <ele>253.8</ele>
        <time>2021-09-28T18:25:36Z</time>
      </trkpt>
      <trkpt lat="42.0457720" lon="-1.5819510">
        <ele>254.0</ele>
        <time>2021-09-28T18:25:45Z</time>
      </trkpt>
      <trkpt lat="42.0462510" lon="-1.5824070">
        <ele>254.0</ele>
        <time>2021-09-28T18:25:55Z</time>
      </trkpt>
      <trkpt lat="42.0466090" lon="-1.5827880">
        <ele>254.6</ele>
        <time>2021-09-28T18:26:03Z</time>
      </trkpt>
      <trkpt lat="42.0469180" lon="-1.5831790">
        <ele>254.8</ele>
        <time>2021-09-28T18:26:11Z</time>
      </trkpt>
      <trkpt lat="42.0473460" lon="-1.5836420">
        <ele>255.0</ele>
        <time>2021-09-28T18:26:21Z</time>
      </trkpt>
      <trkpt lat="42.0477800" lon="-1.5840810">
        <ele>255.0</ele>
        <time>2021-09-28T18:26:31Z</time>
      </trkpt>
      <trkpt lat="42.0481660" lon="-1.5846150">
        <ele>255.0</ele>
        <time>2021-09-28T18:26:41Z</time>
      </trkpt>
      <trkpt lat="42.0485880" lon="-1.5850770">
        <ele>255.2</ele>
        <time>2021-09-28T18:26:51Z</time>
      </trkpt>
      <trkpt lat="42.0490120" lon="-1.5855440">
        <ele>255.0</ele>
        <time>2021-09-28T18:27:01Z</time>
      </trkpt>
      <trkpt lat="42.0494990" lon="-1.5859510">
        <ele>255.4</ele>
        <time>2021-09-28T18:27:12Z</time>
      </trkpt>
      <trkpt lat="42.0499460" lon="-1.5863800">
        <ele>255.8</ele>
        <time>2021-09-28T18:27:22Z</time>
      </trkpt>
      <trkpt lat="42.0503760" lon="-1.5869360">
        <ele>255.6</ele>
        <time>2021-09-28T18:27:33Z</time>
      </trkpt>
      <trkpt lat="42.0507720" lon="-1.5875120">
        <ele>254.8</ele>
        <time>2021-09-28T18:27:42Z</time>
      </trkpt>
      <trkpt lat="42.0508710" lon="-1.5876310">
        <ele>254.4</ele>
        <time>2021-09-28T18:27:44Z</time>
      </trkpt>
      <trkpt lat="42.0512070" lon="-1.5880260">
        <ele>254.2</ele>
        <time>2021-09-28T18:27:51Z</time>
      </trkpt>
      <trkpt lat="42.0514460" lon="-1.5882810">
        <ele>254.2</ele>
        <time>2021-09-28T18:27:56Z</time>
      </trkpt>
      <trkpt lat="42.0518570" lon="-1.5887650">
        <ele>254.0</ele>
        <time>2021-09-28T18:28:05Z</time>
      </trkpt>
      <trkpt lat="42.0522060" lon="-1.5891970">
        <ele>253.2</ele>
        <time>2021-09-28T18:28:13Z</time>
      </trkpt>
      <trkpt lat="42.0526050" lon="-1.5896610">
        <ele>252.2</ele>
        <time>2021-09-28T18:28:22Z</time>
      </trkpt>
      <trkpt lat="42.0527070" lon="-1.5897540">
        <ele>251.8</ele>
        <time>2021-09-28T18:28:24Z</time>
      </trkpt>
      <trkpt lat="42.0528110" lon="-1.5898440">
        <ele>251.2</ele>
        <time>2021-09-28T18:28:26Z</time>
      </trkpt>
      <trkpt lat="42.0529960" lon="-1.5900440">
        <ele>250.0</ele>
        <time>2021-09-28T18:28:30Z</time>
      </trkpt>
      <trkpt lat="42.0531630" lon="-1.5902500">
        <ele>249.0</ele>
        <time>2021-09-28T18:28:34Z</time>
      </trkpt>
      <trkpt lat="42.0533700" lon="-1.5905540">
        <ele>247.6</ele>
        <time>2021-09-28T18:28:40Z</time>
      </trkpt>
      <trkpt lat="42.0534710" lon="-1.5907690">
        <ele>247.4</ele>
        <time>2021-09-28T18:28:44Z</time>
      </trkpt>
      <trkpt lat="42.0535640" lon="-1.5909130">
        <ele>247.4</ele>
        <time>2021-09-28T18:28:47Z</time>
      </trkpt>
      <trkpt lat="42.0539250" lon="-1.5913050">
        <ele>247.6</ele>
        <time>2021-09-28T18:28:57Z</time>
      </trkpt>
      <trkpt lat="42.0539850" lon="-1.5913680">
        <ele>247.6</ele>
        <time>2021-09-28T18:28:59Z</time>
      </trkpt>
      <trkpt lat="42.0541510" lon="-1.5915820">
        <ele>249.0</ele>
        <time>2021-09-28T18:29:07Z</time>
      </trkpt>
      <trkpt lat="42.0542090" lon="-1.5916930">
        <ele>250.0</ele>
        <time>2021-09-28T18:29:11Z</time>
      </trkpt>
      <trkpt lat="42.0542700" lon="-1.5918280">
        <ele>251.0</ele>
        <time>2021-09-28T18:29:16Z</time>
      </trkpt>
      <trkpt lat="42.0543260" lon="-1.5919310">
        <ele>252.0</ele>
        <time>2021-09-28T18:29:20Z</time>
      </trkpt>
      <trkpt lat="42.0543440" lon="-1.5919570">
        <ele>252.2</ele>
        <time>2021-09-28T18:29:21Z</time>
      </trkpt>
      <trkpt lat="42.0544250" lon="-1.5920280">
        <ele>253.2</ele>
        <time>2021-09-28T18:29:25Z</time>
      </trkpt>
      <trkpt lat="42.0544470" lon="-1.5920200">
        <ele>253.2</ele>
        <time>2021-09-28T18:29:26Z</time>
      </trkpt>
      <trkpt lat="42.0545200" lon="-1.5918520">
        <ele>254.0</ele>
        <time>2021-09-28T18:29:31Z</time>
      </trkpt>
      <trkpt lat="42.0546440" lon="-1.5916160">
        <ele>254.4</ele>
        <time>2021-09-28T18:29:38Z</time>
      </trkpt>
      <trkpt lat="42.0548000" lon="-1.5914550">
        <ele>254.4</ele>
        <time>2021-09-28T18:29:44Z</time>
      </trkpt>
      <trkpt lat="42.0550240" lon="-1.5913840">
        <ele>254.6</ele>
        <time>2021-09-28T18:29:52Z</time>
      </trkpt>
      <trkpt lat="42.0549340" lon="-1.5915540">
        <ele>255.0</ele>
        <time>2021-09-28T18:29:58Z</time>
      </trkpt>
      <trkpt lat="42.0547690" lon="-1.5916970">
        <ele>255.4</ele>
        <time>2021-09-28T18:30:03Z</time>
      </trkpt>
      <trkpt lat="42.0547020" lon="-1.5918280">
        <ele>255.6</ele>
        <time>2021-09-28T18:30:06Z</time>
      </trkpt>
      <trkpt lat="42.0546490" lon="-1.5919830">
        <ele>256.4</ele>
        <time>2021-09-28T18:30:09Z</time>
      </trkpt>
      <trkpt lat="42.0546320" lon="-1.5920340">
        <ele>256.4</ele>
        <time>2021-09-28T18:30:10Z</time>
      </trkpt>
      <trkpt lat="42.0545860" lon="-1.5921800">
        <ele>257.2</ele>
        <time>2021-09-28T18:30:13Z</time>
      </trkpt>
      <trkpt lat="42.0545720" lon="-1.5922280">
        <ele>257.4</ele>
        <time>2021-09-28T18:30:14Z</time>
      </trkpt>
      <trkpt lat="42.0545250" lon="-1.5923690">
        <ele>258.4</ele>
        <time>2021-09-28T18:30:17Z</time>
      </trkpt>
      <trkpt lat="42.0544830" lon="-1.5925080">
        <ele>259.8</ele>
        <time>2021-09-28T18:30:20Z</time>
      </trkpt>
      <trkpt lat="42.0544380" lon="-1.5926450">
        <ele>260.8</ele>
        <time>2021-09-28T18:30:23Z</time>
      </trkpt>
      <trkpt lat="42.0543620" lon="-1.5928960">
        <ele>262.0</ele>
        <time>2021-09-28T18:30:28Z</time>
      </trkpt>
      <trkpt lat="42.0542390" lon="-1.5932550">
        <ele>263.0</ele>
        <time>2021-09-28T18:30:35Z</time>
      </trkpt>
      <trkpt lat="42.0541590" lon="-1.5934780">
        <ele>263.0</ele>
        <time>2021-09-28T18:30:39Z</time>
      </trkpt>
      <trkpt lat="42.0540050" lon="-1.5939080">
        <ele>262.8</ele>
        <time>2021-09-28T18:30:45Z</time>
      </trkpt>
      <trkpt lat="42.0538850" lon="-1.5942640">
        <ele>261.8</ele>
        <time>2021-09-28T18:30:49Z</time>
      </trkpt>
      <trkpt lat="42.0537860" lon="-1.5945470">
        <ele>260.0</ele>
        <time>2021-09-28T18:30:52Z</time>
      </trkpt>
      <trkpt lat="42.0537290" lon="-1.5947250">
        <ele>258.6</ele>
        <time>2021-09-28T18:30:54Z</time>
      </trkpt>
      <trkpt lat="42.0536720" lon="-1.5948900">
        <ele>257.4</ele>
        <time>2021-09-28T18:30:56Z</time>
      </trkpt>
      <trkpt lat="42.0536190" lon="-1.5950490">
        <ele>256.2</ele>
        <time>2021-09-28T18:30:58Z</time>
      </trkpt>
      <trkpt lat="42.0535810" lon="-1.5952040">
        <ele>255.8</ele>
        <time>2021-09-28T18:31:00Z</time>
      </trkpt>
      <trkpt lat="42.0538040" lon="-1.5957170">
        <ele>255.8</ele>
        <time>2021-09-28T18:31:09Z</time>
      </trkpt>
      <trkpt lat="42.0540250" lon="-1.5958820">
        <ele>256.0</ele>
        <time>2021-09-28T18:31:14Z</time>
      </trkpt>
      <trkpt lat="42.0541240" lon="-1.5959660">
        <ele>256.2</ele>
        <time>2021-09-28T18:31:17Z</time>
      </trkpt>
      <trkpt lat="42.0541970" lon="-1.5960080">
        <ele>256.2</ele>
        <time>2021-09-28T18:31:20Z</time>
      </trkpt>
      <trkpt lat="42.0543150" lon="-1.5959620">
        <ele>256.4</ele>
        <time>2021-09-28T18:31:24Z</time>
      </trkpt>
      <trkpt lat="42.0543640" lon="-1.5958780">
        <ele>256.4</ele>
        <time>2021-09-28T18:31:26Z</time>
      </trkpt>
      <trkpt lat="42.0544310" lon="-1.5957210">
        <ele>256.4</ele>
        <time>2021-09-28T18:31:29Z</time>
      </trkpt>
      <trkpt lat="42.0545240" lon="-1.5955080">
        <ele>256.4</ele>
        <time>2021-09-28T18:31:33Z</time>
      </trkpt>
      <trkpt lat="42.0546330" lon="-1.5952260">
        <ele>256.2</ele>
        <time>2021-09-28T18:31:38Z</time>
      </trkpt>
      <trkpt lat="42.0549080" lon="-1.5945970">
        <ele>256.0</ele>
        <time>2021-09-28T18:31:49Z</time>
      </trkpt>
      <trkpt lat="42.0549990" lon="-1.5943780">
        <ele>256.0</ele>
        <time>2021-09-28T18:31:53Z</time>
      </trkpt>
      <trkpt lat="42.0550940" lon="-1.5943040">
        <ele>256.0</ele>
        <time>2021-09-28T18:31:56Z</time>
      </trkpt>
      <trkpt lat="42.0551820" lon="-1.5943400">
        <ele>256.2</ele>
        <time>2021-09-28T18:31:59Z</time>
      </trkpt>
      <trkpt lat="42.0552720" lon="-1.5944640">
        <ele>256.4</ele>
        <time>2021-09-28T18:32:03Z</time>
      </trkpt>
      <trkpt lat="42.0554370" lon="-1.5948000">
        <ele>257.0</ele>
        <time>2021-09-28T18:32:13Z</time>
      </trkpt>
      <trkpt lat="42.0660090" lon="-1.6090700">
        <ele>275.8</ele>
        <time>2021-09-29T07:41:13Z</time>
      </trkpt>
      <trkpt lat="42.0660880" lon="-1.6090800">
        <ele>277.2</ele>
        <time>2021-09-29T07:41:16Z</time>
      </trkpt>
      <trkpt lat="42.0661620" lon="-1.6090810">
        <ele>278.4</ele>
        <time>2021-09-29T07:41:19Z</time>
      </trkpt>
      <trkpt lat="42.0662320" lon="-1.6090840">
        <ele>279.6</ele>
        <time>2021-09-29T07:41:22Z</time>
      </trkpt>
      <trkpt lat="42.0662730" lon="-1.6091030">
        <ele>279.8</ele>
        <time>2021-09-29T07:41:25Z</time>
      </trkpt>
      <trkpt lat="42.0664560" lon="-1.6092430">
        <ele>279.8</ele>
        <time>2021-09-29T07:41:32Z</time>
      </trkpt>
      <trkpt lat="42.0668400" lon="-1.6092070">
        <ele>280.6</ele>
        <time>2021-09-29T07:41:43Z</time>
      </trkpt>
      <trkpt lat="42.0670060" lon="-1.6091960">
        <ele>281.4</ele>
        <time>2021-09-29T07:41:48Z</time>
      </trkpt>
      <trkpt lat="42.0675750" lon="-1.6091350">
        <ele>281.8</ele>
        <time>2021-09-29T07:42:03Z</time>
      </trkpt>
      <trkpt lat="42.0677950" lon="-1.6088990">
        <ele>282.6</ele>
        <time>2021-09-29T07:42:10Z</time>
      </trkpt>
      <trkpt lat="42.0679280" lon="-1.6086950">
        <ele>283.6</ele>
        <time>2021-09-29T07:42:15Z</time>
      </trkpt>
      <trkpt lat="42.0683420" lon="-1.6081750">
        <ele>284.4</ele>
        <time>2021-09-29T07:42:29Z</time>
      </trkpt>
      <trkpt lat="42.0684550" lon="-1.6080210">
        <ele>284.6</ele>
        <time>2021-09-29T07:42:33Z</time>
      </trkpt>
      <trkpt lat="42.0685730" lon="-1.6078710">
        <ele>285.2</ele>
        <time>2021-09-29T07:42:37Z</time>
      </trkpt>
      <trkpt lat="42.0686980" lon="-1.6077270">
        <ele>285.6</ele>
        <time>2021-09-29T07:42:41Z</time>
      </trkpt>
      <trkpt lat="42.0687950" lon="-1.6076290">
        <ele>286.2</ele>
        <time>2021-09-29T07:42:44Z</time>
      </trkpt>
      <trkpt lat="42.0688600" lon="-1.6075800">
        <ele>286.2</ele>
        <time>2021-09-29T07:42:46Z</time>
      </trkpt>
      <trkpt lat="42.0690930" lon="-1.6074250">
        <ele>286.4</ele>
        <time>2021-09-29T07:42:52Z</time>
      </trkpt>
      <trkpt lat="42.0691860" lon="-1.6073710">
        <ele>286.4</ele>
        <time>2021-09-29T07:42:54Z</time>
      </trkpt>
      <trkpt lat="42.0692940" lon="-1.6073260">
        <ele>286.2</ele>
        <time>2021-09-29T07:42:56Z</time>
      </trkpt>
      <trkpt lat="42.0694210" lon="-1.6072930">
        <ele>286.2</ele>
        <time>2021-09-29T07:42:58Z</time>
      </trkpt>
      <trkpt lat="42.0694920" lon="-1.6072850">
        <ele>285.6</ele>
        <time>2021-09-29T07:42:59Z</time>
      </trkpt>
      <trkpt lat="42.0696460" lon="-1.6072900">
        <ele>284.6</ele>
        <time>2021-09-29T07:43:01Z</time>
      </trkpt>
      <trkpt lat="42.0698120" lon="-1.6073180">
        <ele>283.4</ele>
        <time>2021-09-29T07:43:03Z</time>
      </trkpt>
      <trkpt lat="42.0699930" lon="-1.6073480">
        <ele>281.6</ele>
        <time>2021-09-29T07:43:05Z</time>
      </trkpt>
      <trkpt lat="42.0700880" lon="-1.6073620">
        <ele>280.6</ele>
        <time>2021-09-29T07:43:06Z</time>
      </trkpt>
      <trkpt lat="42.0701850" lon="-1.6073770">
        <ele>279.4</ele>
        <time>2021-09-29T07:43:07Z</time>
      </trkpt>
      <trkpt lat="42.0702830" lon="-1.6073950">
        <ele>278.4</ele>
        <time>2021-09-29T07:43:08Z</time>
      </trkpt>
      <trkpt lat="42.0704820" lon="-1.6074340">
        <ele>276.4</ele>
        <time>2021-09-29T07:43:10Z</time>
      </trkpt>
      <trkpt lat="42.0706810" lon="-1.6074710">
        <ele>274.6</ele>
        <time>2021-09-29T07:43:12Z</time>
      </trkpt>
      <trkpt lat="42.0708800" lon="-1.6075040">
        <ele>273.0</ele>
        <time>2021-09-29T07:43:14Z</time>
      </trkpt>
      <trkpt lat="42.0710760" lon="-1.6075330">
        <ele>271.6</ele>
        <time>2021-09-29T07:43:16Z</time>
      </trkpt>
      <trkpt lat="42.0712730" lon="-1.6075360">
        <ele>270.2</ele>
        <time>2021-09-29T07:43:18Z</time>
      </trkpt>
      <trkpt lat="42.0714650" lon="-1.6075130">
        <ele>268.8</ele>
        <time>2021-09-29T07:43:20Z</time>
      </trkpt>
      <trkpt lat="42.0716520" lon="-1.6075090">
        <ele>268.0</ele>
        <time>2021-09-29T07:43:22Z</time>
      </trkpt>
      <trkpt lat="42.0717400" lon="-1.6075320">
        <ele>267.8</ele>
        <time>2021-09-29T07:43:23Z</time>
      </trkpt>
      <trkpt lat="42.0719390" lon="-1.6077530">
        <ele>266.4</ele>
        <time>2021-09-29T07:43:26Z</time>
      </trkpt>
      <trkpt lat="42.0719760" lon="-1.6078570">
        <ele>265.0</ele>
        <time>2021-09-29T07:43:27Z</time>
      </trkpt>
      <trkpt lat="42.0720030" lon="-1.6079570">
        <ele>263.6</ele>
        <time>2021-09-29T07:43:28Z</time>
      </trkpt>
      <trkpt lat="42.0720270" lon="-1.6080510">
        <ele>262.2</ele>
        <time>2021-09-29T07:43:29Z</time>
      </trkpt>
      <trkpt lat="42.0720710" lon="-1.6082040">
        <ele>261.2</ele>
        <time>2021-09-29T07:43:31Z</time>
      </trkpt>
      <trkpt lat="42.0722020" lon="-1.6080850">
        <ele>260.8</ele>
        <time>2021-09-29T07:43:38Z</time>
      </trkpt>
      <trkpt lat="42.0721350" lon="-1.6073380">
        <ele>260.0</ele>
        <time>2021-09-29T07:43:50Z</time>
      </trkpt>
      <trkpt lat="42.0721610" lon="-1.6072120">
        <ele>259.4</ele>
        <time>2021-09-29T07:43:55Z</time>
      </trkpt>
      <trkpt lat="42.0722060" lon="-1.6071530">
        <ele>259.4</ele>
        <time>2021-09-29T07:43:57Z</time>
      </trkpt>
      <trkpt lat="42.0722610" lon="-1.6071150">
        <ele>259.4</ele>
        <time>2021-09-29T07:43:59Z</time>
      </trkpt>
      <trkpt lat="42.0722850" lon="-1.6070940">
        <ele>259.2</ele>
        <time>2021-09-29T07:44:00Z</time>
      </trkpt>
      <trkpt lat="42.0723080" lon="-1.6070720">
        <ele>259.2</ele>
        <time>2021-09-29T07:44:01Z</time>
      </trkpt>
      <trkpt lat="42.0723350" lon="-1.6070510">
        <ele>259.0</ele>
        <time>2021-09-29T07:44:02Z</time>
      </trkpt>
      <trkpt lat="42.0724080" lon="-1.6070270">
        <ele>258.6</ele>
        <time>2021-09-29T07:44:04Z</time>
      </trkpt>
      <trkpt lat="42.0724940" lon="-1.6070150">
        <ele>258.4</ele>
        <time>2021-09-29T07:44:06Z</time>
      </trkpt>
      <trkpt lat="42.0726830" lon="-1.6070010">
        <ele>257.8</ele>
        <time>2021-09-29T07:44:10Z</time>
      </trkpt>
      <trkpt lat="42.0728200" lon="-1.6069690">
        <ele>257.6</ele>
        <time>2021-09-29T07:44:13Z</time>
      </trkpt>
      <trkpt lat="42.0730690" lon="-1.6069280">
        <ele>257.4</ele>
        <time>2021-09-29T07:44:18Z</time>
      </trkpt>
      <trkpt lat="42.0731220" lon="-1.6069280">
        <ele>257.2</ele>
        <time>2021-09-29T07:44:19Z</time>
      </trkpt>
      <trkpt lat="42.0736960" lon="-1.6070060">
        <ele>257.4</ele>
        <time>2021-09-29T07:44:30Z</time>
      </trkpt>
      <trkpt lat="42.0742640" lon="-1.6068640">
        <ele>257.2</ele>
        <time>2021-09-29T07:44:41Z</time>
      </trkpt>
      <trkpt lat="42.0743700" lon="-1.6068400">
        <ele>257.2</ele>
        <time>2021-09-29T07:44:43Z</time>
      </trkpt>
      <trkpt lat="42.0747450" lon="-1.6068560">
        <ele>257.4</ele>
        <time>2021-09-29T07:44:50Z</time>
      </trkpt>
      <trkpt lat="42.0750320" lon="-1.6067650">
        <ele>257.4</ele>
        <time>2021-09-29T07:44:55Z</time>
      </trkpt>
      <trkpt lat="42.0752760" lon="-1.6066840">
        <ele>256.8</ele>
        <time>2021-09-29T07:44:59Z</time>
      </trkpt>
      <trkpt lat="42.0755170" lon="-1.6066030">
        <ele>256.4</ele>
        <time>2021-09-29T07:45:03Z</time>
      </trkpt>
      <trkpt lat="42.0760580" lon="-1.6064160">
        <ele>256.4</ele>
        <time>2021-09-29T07:45:12Z</time>
      </trkpt>
      <trkpt lat="42.0766010" lon="-1.6062560">
        <ele>257.2</ele>
        <time>2021-09-29T07:45:21Z</time>
      </trkpt>
      <trkpt lat="42.0771460" lon="-1.6061130">
        <ele>257.4</ele>
        <time>2021-09-29T07:45:30Z</time>
      </trkpt>
      <trkpt lat="42.0776960" lon="-1.6060150">
        <ele>257.2</ele>
        <time>2021-09-29T07:45:39Z</time>
      </trkpt>
      <trkpt lat="42.0782520" lon="-1.6058300">
        <ele>257.2</ele>
        <time>2021-09-29T07:45:48Z</time>
      </trkpt>
      <trkpt lat="42.0788050" lon="-1.6057130">
        <ele>256.8</ele>
        <time>2021-09-29T07:45:57Z</time>
      </trkpt>
      <trkpt lat="42.0788680" lon="-1.6057020">
        <ele>256.8</ele>
        <time>2021-09-29T07:45:58Z</time>
      </trkpt>
      <trkpt lat="42.0794140" lon="-1.6055560">
        <ele>256.4</ele>
        <time>2021-09-29T07:46:07Z</time>
      </trkpt>
      <trkpt lat="42.0800050" lon="-1.6054430">
        <ele>256.4</ele>
        <time>2021-09-29T07:46:17Z</time>
      </trkpt>
      <trkpt lat="42.0802480" lon="-1.6054310">
        <ele>256.2</ele>
        <time>2021-09-29T07:46:21Z</time>
      </trkpt>
      <trkpt lat="42.0808370" lon="-1.6055510">
        <ele>256.6</ele>
        <time>2021-09-29T07:46:31Z</time>
      </trkpt>
      <trkpt lat="42.0810620" lon="-1.6056290">
        <ele>256.8</ele>
        <time>2021-09-29T07:46:35Z</time>
      </trkpt>
      <trkpt lat="42.0811180" lon="-1.6056390">
        <ele>256.8</ele>
        <time>2021-09-29T07:46:36Z</time>
      </trkpt>
      <trkpt lat="42.0814550" lon="-1.6056390">
        <ele>257.2</ele>
        <time>2021-09-29T07:46:42Z</time>
      </trkpt>
      <trkpt lat="42.0817840" lon="-1.6055480">
        <ele>257.4</ele>
        <time>2021-09-29T07:46:48Z</time>
      </trkpt>
      <trkpt lat="42.0820050" lon="-1.6054360">
        <ele>257.6</ele>
        <time>2021-09-29T07:46:52Z</time>
      </trkpt>
      <trkpt lat="42.0825280" lon="-1.6051820">
        <ele>257.4</ele>
        <time>2021-09-29T07:47:01Z</time>
      </trkpt>
      <trkpt lat="42.0829590" lon="-1.6049770">
        <ele>257.0</ele>
        <time>2021-09-29T07:47:08Z</time>
      </trkpt>
      <trkpt lat="42.0833740" lon="-1.6047700">
        <ele>256.6</ele>
        <time>2021-09-29T07:47:15Z</time>
      </trkpt>
      <trkpt lat="42.0838890" lon="-1.6045290">
        <ele>256.6</ele>
        <time>2021-09-29T07:47:24Z</time>
      </trkpt>
      <trkpt lat="42.0841650" lon="-1.6044220">
        <ele>256.6</ele>
        <time>2021-09-29T07:47:29Z</time>
      </trkpt>
      <trkpt lat="42.0844500" lon="-1.6044240">
        <ele>256.8</ele>
        <time>2021-09-29T07:47:34Z</time>
      </trkpt>
      <trkpt lat="42.0848460" lon="-1.6044940">
        <ele>256.6</ele>
        <time>2021-09-29T07:47:41Z</time>
      </trkpt>
      <trkpt lat="42.0853450" lon="-1.6046270">
        <ele>256.8</ele>
        <time>2021-09-29T07:47:50Z</time>
      </trkpt>
      <trkpt lat="42.0857160" lon="-1.6047880">
        <ele>257.2</ele>
        <time>2021-09-29T07:47:57Z</time>
      </trkpt>
      <trkpt lat="42.0858700" lon="-1.6050040">
        <ele>257.6</ele>
        <time>2021-09-29T07:48:01Z</time>
      </trkpt>
      <trkpt lat="42.0859280" lon="-1.6051370">
        <ele>257.6</ele>
        <time>2021-09-29T07:48:03Z</time>
      </trkpt>
      <trkpt lat="42.0859590" lon="-1.6052020">
        <ele>257.6</ele>
        <time>2021-09-29T07:48:04Z</time>
      </trkpt>
      <trkpt lat="42.0863640" lon="-1.6053520">
        <ele>258.0</ele>
        <time>2021-09-29T07:48:12Z</time>
      </trkpt>
      <trkpt lat="42.0866360" lon="-1.6052520">
        <ele>258.2</ele>
        <time>2021-09-29T07:48:17Z</time>
      </trkpt>
      <trkpt lat="42.0868440" lon="-1.6052100">
        <ele>258.4</ele>
        <time>2021-09-29T07:48:21Z</time>
      </trkpt>
      <trkpt lat="42.0869950" lon="-1.6051930">
        <ele>258.6</ele>
        <time>2021-09-29T07:48:24Z</time>
      </trkpt>
      <trkpt lat="42.0872880" lon="-1.6051550">
        <ele>259.2</ele>
        <time>2021-09-29T07:48:30Z</time>
      </trkpt>
      <trkpt lat="42.0873840" lon="-1.6051510">
        <ele>260.0</ele>
        <time>2021-09-29T07:48:32Z</time>
      </trkpt>
      <trkpt lat="42.0876180" lon="-1.6051470">
        <ele>260.6</ele>
        <time>2021-09-29T07:48:37Z</time>
      </trkpt>
      <trkpt lat="42.0878000" lon="-1.6051600">
        <ele>261.2</ele>
        <time>2021-09-29T07:48:41Z</time>
      </trkpt>
      <trkpt lat="42.0879360" lon="-1.6051740">
        <ele>261.6</ele>
        <time>2021-09-29T07:48:44Z</time>
      </trkpt>
      <trkpt lat="42.0880260" lon="-1.6051810">
        <ele>262.8</ele>
        <time>2021-09-29T07:48:46Z</time>
      </trkpt>
      <trkpt lat="42.0882040" lon="-1.6051940">
        <ele>263.8</ele>
        <time>2021-09-29T07:48:50Z</time>
      </trkpt>
      <trkpt lat="42.0884760" lon="-1.6052040">
        <ele>264.8</ele>
        <time>2021-09-29T07:48:56Z</time>
      </trkpt>
      <trkpt lat="42.0887020" lon="-1.6052080">
        <ele>265.8</ele>
        <time>2021-09-29T07:49:01Z</time>
      </trkpt>
      <trkpt lat="42.0890650" lon="-1.6052100">
        <ele>268.0</ele>
        <time>2021-09-29T07:49:09Z</time>
      </trkpt>
      <trkpt lat="42.0892020" lon="-1.6052100">
        <ele>269.2</ele>
        <time>2021-09-29T07:49:12Z</time>
      </trkpt>
      <trkpt lat="42.0895710" lon="-1.6052290">
        <ele>270.2</ele>
        <time>2021-09-29T07:49:20Z</time>
      </trkpt>
      <trkpt lat="42.0900060" lon="-1.6054110">
        <ele>271.2</ele>
        <time>2021-09-29T07:49:30Z</time>
      </trkpt>
      <trkpt lat="42.0903440" lon="-1.6057080">
        <ele>271.4</ele>
        <time>2021-09-29T07:49:38Z</time>
      </trkpt>
      <trkpt lat="42.0905150" lon="-1.6059130">
        <ele>271.0</ele>
        <time>2021-09-29T07:49:42Z</time>
      </trkpt>
      <trkpt lat="42.0905570" lon="-1.6059670">
        <ele>270.2</ele>
        <time>2021-09-29T07:49:43Z</time>
      </trkpt>
      <trkpt lat="42.0907240" lon="-1.6061790">
        <ele>269.2</ele>
        <time>2021-09-29T07:49:47Z</time>
      </trkpt>
      <trkpt lat="42.0907670" lon="-1.6062270">
        <ele>268.4</ele>
        <time>2021-09-29T07:49:48Z</time>
      </trkpt>
      <trkpt lat="42.0908550" lon="-1.6063160">
        <ele>267.4</ele>
        <time>2021-09-29T07:49:50Z</time>
      </trkpt>
      <trkpt lat="42.0909490" lon="-1.6063910">
        <ele>267.2</ele>
        <time>2021-09-29T07:49:52Z</time>
      </trkpt>
      <trkpt lat="42.0911050" lon="-1.6064670">
        <ele>267.0</ele>
        <time>2021-09-29T07:49:55Z</time>
      </trkpt>
      <trkpt lat="42.0913210" lon="-1.6065120">
        <ele>267.0</ele>
        <time>2021-09-29T07:49:59Z</time>
      </trkpt>
      <trkpt lat="42.0918660" lon="-1.6065310">
        <ele>267.8</ele>
        <time>2021-09-29T07:50:09Z</time>
      </trkpt>
      <trkpt lat="42.0920710" lon="-1.6065430">
        <ele>268.6</ele>
        <time>2021-09-29T07:50:13Z</time>
      </trkpt>
      <trkpt lat="42.0923320" lon="-1.6065540">
        <ele>269.8</ele>
        <time>2021-09-29T07:50:18Z</time>
      </trkpt>
      <trkpt lat="42.0925370" lon="-1.6065560">
        <ele>270.8</ele>
        <time>2021-09-29T07:50:22Z</time>
      </trkpt>
      <trkpt lat="42.0931230" lon="-1.6065310">
        <ele>272.0</ele>
        <time>2021-09-29T07:50:33Z</time>
      </trkpt>
      <trkpt lat="42.0937040" lon="-1.6064750">
        <ele>272.0</ele>
        <time>2021-09-29T07:50:43Z</time>
      </trkpt>
      <trkpt lat="42.0941320" lon="-1.6064320">
        <ele>270.8</ele>
        <time>2021-09-29T07:50:50Z</time>
      </trkpt>
      <trkpt lat="42.0946770" lon="-1.6063700">
        <ele>270.4</ele>
        <time>2021-09-29T07:50:59Z</time>
      </trkpt>
      <trkpt lat="42.0952610" lon="-1.6063060">
        <ele>270.6</ele>
        <time>2021-09-29T07:51:09Z</time>
      </trkpt>
      <trkpt lat="42.0958300" lon="-1.6062480">
        <ele>271.0</ele>
        <time>2021-09-29T07:51:19Z</time>
      </trkpt>
      <trkpt lat="42.0964200" lon="-1.6061830">
        <ele>271.0</ele>
        <time>2021-09-29T07:51:29Z</time>
      </trkpt>
      <trkpt lat="42.0970130" lon="-1.6061170">
        <ele>271.0</ele>
        <time>2021-09-29T07:51:39Z</time>
      </trkpt>
      <trkpt lat="42.0976040" lon="-1.6060610">
        <ele>270.8</ele>
        <time>2021-09-29T07:51:49Z</time>
      </trkpt>
      <trkpt lat="42.0981840" lon="-1.6059900">
        <ele>270.4</ele>
        <time>2021-09-29T07:51:59Z</time>
      </trkpt>
      <trkpt lat="42.0987620" lon="-1.6059310">
        <ele>270.0</ele>
        <time>2021-09-29T07:52:09Z</time>
      </trkpt>
      <trkpt lat="42.0992320" lon="-1.6058820">
        <ele>270.4</ele>
        <time>2021-09-29T07:52:17Z</time>
      </trkpt>
      <trkpt lat="42.0998210" lon="-1.6058120">
        <ele>271.0</ele>
        <time>2021-09-29T07:52:27Z</time>
      </trkpt>
      <trkpt lat="42.1004000" lon="-1.6057490">
        <ele>271.2</ele>
        <time>2021-09-29T07:52:37Z</time>
      </trkpt>
      <trkpt lat="42.1009890" lon="-1.6056890">
        <ele>271.8</ele>
        <time>2021-09-29T07:52:47Z</time>
      </trkpt>
      <trkpt lat="42.1015760" lon="-1.6056280">
        <ele>271.8</ele>
        <time>2021-09-29T07:52:57Z</time>
      </trkpt>
      <trkpt lat="42.1020910" lon="-1.6055700">
        <ele>271.8</ele>
        <time>2021-09-29T07:53:06Z</time>
      </trkpt>
      <trkpt lat="42.1026800" lon="-1.6055060">
        <ele>272.6</ele>
        <time>2021-09-29T07:53:16Z</time>
      </trkpt>
      <trkpt lat="42.1032620" lon="-1.6054490">
        <ele>272.4</ele>
        <time>2021-09-29T07:53:26Z</time>
      </trkpt>
      <trkpt lat="42.1038480" lon="-1.6054220">
        <ele>272.4</ele>
        <time>2021-09-29T07:53:36Z</time>
      </trkpt>
      <trkpt lat="42.1044370" lon="-1.6054290">
        <ele>272.4</ele>
        <time>2021-09-29T07:53:46Z</time>
      </trkpt>
      <trkpt lat="42.1050170" lon="-1.6054650">
        <ele>272.2</ele>
        <time>2021-09-29T07:53:56Z</time>
      </trkpt>
      <trkpt lat="42.1055980" lon="-1.6055150">
        <ele>273.0</ele>
        <time>2021-09-29T07:54:06Z</time>
      </trkpt>
      <trkpt lat="42.1061680" lon="-1.6055890">
        <ele>273.0</ele>
        <time>2021-09-29T07:54:16Z</time>
      </trkpt>
      <trkpt lat="42.1067190" lon="-1.6057370">
        <ele>272.8</ele>
        <time>2021-09-29T07:54:26Z</time>
      </trkpt>
      <trkpt lat="42.1072810" lon="-1.6058940">
        <ele>273.0</ele>
        <time>2021-09-29T07:54:36Z</time>
      </trkpt>
      <trkpt lat="42.1078350" lon="-1.6060580">
        <ele>273.0</ele>
        <time>2021-09-29T07:54:46Z</time>
      </trkpt>
      <trkpt lat="42.1083860" lon="-1.6062200">
        <ele>273.0</ele>
        <time>2021-09-29T07:54:56Z</time>
      </trkpt>
      <trkpt lat="42.1089300" lon="-1.6063960">
        <ele>273.8</ele>
        <time>2021-09-29T07:55:06Z</time>
      </trkpt>
      <trkpt lat="42.1089840" lon="-1.6064170">
        <ele>274.0</ele>
        <time>2021-09-29T07:55:07Z</time>
      </trkpt>
      <trkpt lat="42.1095220" lon="-1.6066910">
        <ele>274.2</ele>
        <time>2021-09-29T07:55:17Z</time>
      </trkpt>
      <trkpt lat="42.1100370" lon="-1.6070170">
        <ele>273.6</ele>
        <time>2021-09-29T07:55:27Z</time>
      </trkpt>
      <trkpt lat="42.1105540" lon="-1.6073400">
        <ele>273.8</ele>
        <time>2021-09-29T07:55:37Z</time>
      </trkpt>
      <trkpt lat="42.1110700" lon="-1.6076660">
        <ele>274.0</ele>
        <time>2021-09-29T07:55:47Z</time>
      </trkpt>
      <trkpt lat="42.1116000" lon="-1.6080020">
        <ele>274.4</ele>
        <time>2021-09-29T07:55:57Z</time>
      </trkpt>
      <trkpt lat="42.1121310" lon="-1.6083300">
        <ele>274.0</ele>
        <time>2021-09-29T07:56:07Z</time>
      </trkpt>
      <trkpt lat="42.1126670" lon="-1.6086640">
        <ele>274.4</ele>
        <time>2021-09-29T07:56:17Z</time>
      </trkpt>
      <trkpt lat="42.1131930" lon="-1.6089940">
        <ele>274.8</ele>
        <time>2021-09-29T07:56:27Z</time>
      </trkpt>
      <trkpt lat="42.1137030" lon="-1.6093180">
        <ele>274.8</ele>
        <time>2021-09-29T07:56:37Z</time>
      </trkpt>
      <trkpt lat="42.1139610" lon="-1.6094830">
        <ele>275.0</ele>
        <time>2021-09-29T07:56:42Z</time>
      </trkpt>
      <trkpt lat="42.1144830" lon="-1.6098150">
        <ele>275.2</ele>
        <time>2021-09-29T07:56:52Z</time>
      </trkpt>
      <trkpt lat="42.1150070" lon="-1.6101450">
        <ele>275.2</ele>
        <time>2021-09-29T07:57:02Z</time>
      </trkpt>
      <trkpt lat="42.1155470" lon="-1.6104760">
        <ele>275.0</ele>
        <time>2021-09-29T07:57:12Z</time>
      </trkpt>
      <trkpt lat="42.1160820" lon="-1.6108090">
        <ele>274.8</ele>
        <time>2021-09-29T07:57:22Z</time>
      </trkpt>
      <trkpt lat="42.1166150" lon="-1.6111410">
        <ele>275.2</ele>
        <time>2021-09-29T07:57:32Z</time>
      </trkpt>
      <trkpt lat="42.1171450" lon="-1.6114740">
        <ele>275.2</ele>
        <time>2021-09-29T07:57:42Z</time>
      </trkpt>
      <trkpt lat="42.1176590" lon="-1.6117960">
        <ele>274.2</ele>
        <time>2021-09-29T07:57:52Z</time>
      </trkpt>
      <trkpt lat="42.1178120" lon="-1.6118930">
        <ele>273.8</ele>
        <time>2021-09-29T07:57:55Z</time>
      </trkpt>
      <trkpt lat="42.1183180" lon="-1.6122030">
        <ele>273.2</ele>
        <time>2021-09-29T07:58:05Z</time>
      </trkpt>
      <trkpt lat="42.1188370" lon="-1.6125250">
        <ele>273.4</ele>
        <time>2021-09-29T07:58:15Z</time>
      </trkpt>
      <trkpt lat="42.1190440" lon="-1.6126540">
        <ele>273.8</ele>
        <time>2021-09-29T07:58:19Z</time>
      </trkpt>
      <trkpt lat="42.1195480" lon="-1.6129750">
        <ele>274.0</ele>
        <time>2021-09-29T07:58:29Z</time>
      </trkpt>
      <trkpt lat="42.1200630" lon="-1.6132980">
        <ele>274.2</ele>
        <time>2021-09-29T07:58:39Z</time>
      </trkpt>
      <trkpt lat="42.1205710" lon="-1.6136110">
        <ele>273.8</ele>
        <time>2021-09-29T07:58:49Z</time>
      </trkpt>
      <trkpt lat="42.1210650" lon="-1.6139270">
        <ele>273.8</ele>
        <time>2021-09-29T07:58:59Z</time>
      </trkpt>
      <trkpt lat="42.1215780" lon="-1.6142370">
        <ele>273.8</ele>
        <time>2021-09-29T07:59:09Z</time>
      </trkpt>
      <trkpt lat="42.1220940" lon="-1.6145520">
        <ele>273.8</ele>
        <time>2021-09-29T07:59:19Z</time>
      </trkpt>
      <trkpt lat="42.1225980" lon="-1.6148670">
        <ele>273.4</ele>
        <time>2021-09-29T07:59:29Z</time>
      </trkpt>
      <trkpt lat="42.1231000" lon="-1.6151780">
        <ele>273.8</ele>
        <time>2021-09-29T07:59:39Z</time>
      </trkpt>
      <trkpt lat="42.1234980" lon="-1.6154200">
        <ele>274.4</ele>
        <time>2021-09-29T07:59:47Z</time>
      </trkpt>
      <trkpt lat="42.1237490" lon="-1.6155740">
        <ele>274.6</ele>
        <time>2021-09-29T07:59:52Z</time>
      </trkpt>
      <trkpt lat="42.1241160" lon="-1.6157940">
        <ele>274.6</ele>
        <time>2021-09-29T07:59:59Z</time>
      </trkpt>
      <trkpt lat="42.1246250" lon="-1.6161100">
        <ele>274.4</ele>
        <time>2021-09-29T08:00:09Z</time>
      </trkpt>
      <trkpt lat="42.1251220" lon="-1.6164250">
        <ele>274.8</ele>
        <time>2021-09-29T08:00:19Z</time>
      </trkpt>
      <trkpt lat="42.1255280" lon="-1.6166730">
        <ele>274.8</ele>
        <time>2021-09-29T08:00:27Z</time>
      </trkpt>
      <trkpt lat="42.1260350" lon="-1.6169850">
        <ele>275.2</ele>
        <time>2021-09-29T08:00:37Z</time>
      </trkpt>
      <trkpt lat="42.1265510" lon="-1.6173050">
        <ele>275.6</ele>
        <time>2021-09-29T08:00:47Z</time>
      </trkpt>
      <trkpt lat="42.1266540" lon="-1.6173700">
        <ele>275.6</ele>
        <time>2021-09-29T08:00:49Z</time>
      </trkpt>
      <trkpt lat="42.1271830" lon="-1.6177010">
        <ele>275.8</ele>
        <time>2021-09-29T08:00:59Z</time>
      </trkpt>
      <trkpt lat="42.1275980" lon="-1.6179660">
        <ele>276.2</ele>
        <time>2021-09-29T08:01:07Z</time>
      </trkpt>
      <trkpt lat="42.1278500" lon="-1.6181170">
        <ele>276.4</ele>
        <time>2021-09-29T08:01:12Z</time>
      </trkpt>
      <trkpt lat="42.1281520" lon="-1.6183030">
        <ele>276.8</ele>
        <time>2021-09-29T08:01:18Z</time>
      </trkpt>
      <trkpt lat="42.1286720" lon="-1.6186210">
        <ele>276.8</ele>
        <time>2021-09-29T08:01:28Z</time>
      </trkpt>
      <trkpt lat="42.1292060" lon="-1.6189550">
        <ele>276.6</ele>
        <time>2021-09-29T08:01:38Z</time>
      </trkpt>
      <trkpt lat="42.1297390" lon="-1.6192830">
        <ele>276.0</ele>
        <time>2021-09-29T08:01:48Z</time>
      </trkpt>
      <trkpt lat="42.1302730" lon="-1.6196150">
        <ele>276.0</ele>
        <time>2021-09-29T08:01:58Z</time>
      </trkpt>
      <trkpt lat="42.1308080" lon="-1.6199440">
        <ele>276.0</ele>
        <time>2021-09-29T08:02:08Z</time>
      </trkpt>
      <trkpt lat="42.1313310" lon="-1.6202670">
        <ele>275.8</ele>
        <time>2021-09-29T08:02:18Z</time>
      </trkpt>
      <trkpt lat="42.1318460" lon="-1.6205830">
        <ele>275.8</ele>
        <time>2021-09-29T08:02:28Z</time>
      </trkpt>
      <trkpt lat="42.1323530" lon="-1.6209060">
        <ele>276.0</ele>
        <time>2021-09-29T08:02:38Z</time>
      </trkpt>
      <trkpt lat="42.1328600" lon="-1.6212150">
        <ele>275.8</ele>
        <time>2021-09-29T08:02:48Z</time>
      </trkpt>
      <trkpt lat="42.1331130" lon="-1.6213700">
        <ele>275.6</ele>
        <time>2021-09-29T08:02:53Z</time>
      </trkpt>
      <trkpt lat="42.1336220" lon="-1.6216810">
        <ele>275.4</ele>
        <time>2021-09-29T08:03:03Z</time>
      </trkpt>
      <trkpt lat="42.1341360" lon="-1.6219870">
        <ele>275.8</ele>
        <time>2021-09-29T08:03:13Z</time>
      </trkpt>
      <trkpt lat="42.1344550" lon="-1.6221760">
        <ele>276.2</ele>
        <time>2021-09-29T08:03:19Z</time>
      </trkpt>
      <trkpt lat="42.1350010" lon="-1.6224950">
        <ele>276.0</ele>
        <time>2021-09-29T08:03:29Z</time>
      </trkpt>
      <trkpt lat="42.1355360" lon="-1.6228110">
        <ele>275.8</ele>
        <time>2021-09-29T08:03:39Z</time>
      </trkpt>
      <trkpt lat="42.1360540" lon="-1.6231180">
        <ele>276.0</ele>
        <time>2021-09-29T08:03:49Z</time>
      </trkpt>
      <trkpt lat="42.1362080" lon="-1.6232050">
        <ele>276.0</ele>
        <time>2021-09-29T08:03:52Z</time>
      </trkpt>
      <trkpt lat="42.1365720" lon="-1.6234270">
        <ele>276.4</ele>
        <time>2021-09-29T08:03:59Z</time>
      </trkpt>
      <trkpt lat="42.1370820" lon="-1.6237820">
        <ele>276.8</ele>
        <time>2021-09-29T08:04:09Z</time>
      </trkpt>
      <trkpt lat="42.1375950" lon="-1.6241770">
        <ele>276.6</ele>
        <time>2021-09-29T08:04:19Z</time>
      </trkpt>
      <trkpt lat="42.1381040" lon="-1.6245790">
        <ele>276.4</ele>
        <time>2021-09-29T08:04:29Z</time>
      </trkpt>
      <trkpt lat="42.1382080" lon="-1.6246520">
        <ele>276.6</ele>
        <time>2021-09-29T08:04:31Z</time>
      </trkpt>
      <trkpt lat="42.1384870" lon="-1.6247680">
        <ele>276.6</ele>
        <time>2021-09-29T08:04:36Z</time>
      </trkpt>
      <trkpt lat="42.1386510" lon="-1.6248160">
        <ele>276.8</ele>
        <time>2021-09-29T08:04:39Z</time>
      </trkpt>
      <trkpt lat="42.1388000" lon="-1.6248880">
        <ele>277.6</ele>
        <time>2021-09-29T08:04:42Z</time>
      </trkpt>
      <trkpt lat="42.1389230" lon="-1.6250060">
        <ele>278.8</ele>
        <time>2021-09-29T08:04:45Z</time>
      </trkpt>
      <trkpt lat="42.1389930" lon="-1.6250920">
        <ele>280.0</ele>
        <time>2021-09-29T08:04:47Z</time>
      </trkpt>
      <trkpt lat="42.1391420" lon="-1.6253380">
        <ele>281.0</ele>
        <time>2021-09-29T08:04:52Z</time>
      </trkpt>
      <trkpt lat="42.1391650" lon="-1.6253910">
        <ele>282.0</ele>
        <time>2021-09-29T08:04:53Z</time>
      </trkpt>
      <trkpt lat="42.1391830" lon="-1.6254470">
        <ele>282.8</ele>
        <time>2021-09-29T08:04:54Z</time>
      </trkpt>
      <trkpt lat="42.1392140" lon="-1.6256240">
        <ele>284.0</ele>
        <time>2021-09-29T08:04:57Z</time>
      </trkpt>
      <trkpt lat="42.1392330" lon="-1.6258620">
        <ele>285.4</ele>
        <time>2021-09-29T08:05:01Z</time>
      </trkpt>
      <trkpt lat="42.1392960" lon="-1.6264450">
        <ele>286.2</ele>
        <time>2021-09-29T08:05:10Z</time>
      </trkpt>
      <trkpt lat="42.1393280" lon="-1.6265850">
        <ele>286.0</ele>
        <time>2021-09-29T08:05:12Z</time>
      </trkpt>
      <trkpt lat="42.1394170" lon="-1.6267880">
        <ele>286.0</ele>
        <time>2021-09-29T08:05:15Z</time>
      </trkpt>
      <trkpt lat="42.1395090" lon="-1.6269060">
        <ele>285.8</ele>
        <time>2021-09-29T08:05:17Z</time>
      </trkpt>
      <trkpt lat="42.1397680" lon="-1.6270660">
        <ele>284.6</ele>
        <time>2021-09-29T08:05:21Z</time>
      </trkpt>
      <trkpt lat="42.1398450" lon="-1.6270880">
        <ele>284.0</ele>
        <time>2021-09-29T08:05:22Z</time>
      </trkpt>
      <trkpt lat="42.1399250" lon="-1.6271030">
        <ele>282.8</ele>
        <time>2021-09-29T08:05:23Z</time>
      </trkpt>
      <trkpt lat="42.1400080" lon="-1.6271170">
        <ele>281.6</ele>
        <time>2021-09-29T08:05:24Z</time>
      </trkpt>
      <trkpt lat="42.1401740" lon="-1.6271500">
        <ele>280.2</ele>
        <time>2021-09-29T08:05:26Z</time>
      </trkpt>
      <trkpt lat="42.1404140" lon="-1.6272300">
        <ele>278.8</ele>
        <time>2021-09-29T08:05:29Z</time>
      </trkpt>
      <trkpt lat="42.1405580" lon="-1.6273050">
        <ele>277.8</ele>
        <time>2021-09-29T08:05:31Z</time>
      </trkpt>
      <trkpt lat="42.1406880" lon="-1.6273980">
        <ele>276.0</ele>
        <time>2021-09-29T08:05:33Z</time>
      </trkpt>
      <trkpt lat="42.1408100" lon="-1.6274980">
        <ele>275.0</ele>
        <time>2021-09-29T08:05:35Z</time>
      </trkpt>
      <trkpt lat="42.1413060" lon="-1.6279530">
        <ele>274.8</ele>
        <time>2021-09-29T08:05:44Z</time>
      </trkpt>
      <trkpt lat="42.1416140" lon="-1.6282400">
        <ele>275.6</ele>
        <time>2021-09-29T08:05:50Z</time>
      </trkpt>
      <trkpt lat="42.1418180" lon="-1.6284170">
        <ele>276.0</ele>
        <time>2021-09-29T08:05:54Z</time>
      </trkpt>
      <trkpt lat="42.1423030" lon="-1.6288620">
        <ele>276.4</ele>
        <time>2021-09-29T08:06:04Z</time>
      </trkpt>
      <trkpt lat="42.1427780" lon="-1.6293130">
        <ele>276.6</ele>
        <time>2021-09-29T08:06:14Z</time>
      </trkpt>
      <trkpt lat="42.1432420" lon="-1.6297100">
        <ele>275.8</ele>
        <time>2021-09-29T08:06:23Z</time>
      </trkpt>
      <trkpt lat="42.1436940" lon="-1.6301130">
        <ele>275.8</ele>
        <time>2021-09-29T08:06:32Z</time>
      </trkpt>
      <trkpt lat="42.1441700" lon="-1.6305630">
        <ele>275.8</ele>
        <time>2021-09-29T08:06:42Z</time>
      </trkpt>
      <trkpt lat="42.1446340" lon="-1.6310160">
        <ele>275.2</ele>
        <time>2021-09-29T08:06:52Z</time>
      </trkpt>
      <trkpt lat="42.1450650" lon="-1.6314850">
        <ele>276.0</ele>
        <time>2021-09-29T08:07:02Z</time>
      </trkpt>
      <trkpt lat="42.1455200" lon="-1.6319450">
        <ele>276.0</ele>
        <time>2021-09-29T08:07:12Z</time>
      </trkpt>
      <trkpt lat="42.1460490" lon="-1.6323130">
        <ele>275.8</ele>
        <time>2021-09-29T08:07:22Z</time>
      </trkpt>
      <trkpt lat="42.1463110" lon="-1.6324880">
        <ele>275.0</ele>
        <time>2021-09-29T08:07:27Z</time>
      </trkpt>
      <trkpt lat="42.1467230" lon="-1.6327790">
        <ele>273.8</ele>
        <time>2021-09-29T08:07:35Z</time>
      </trkpt>
      <trkpt lat="42.1469830" lon="-1.6329850">
        <ele>272.4</ele>
        <time>2021-09-29T08:07:40Z</time>
      </trkpt>
      <trkpt lat="42.1474330" lon="-1.6333890">
        <ele>271.6</ele>
        <time>2021-09-29T08:07:49Z</time>
      </trkpt>
      <trkpt lat="42.1476190" lon="-1.6335690">
        <ele>271.4</ele>
        <time>2021-09-29T08:07:53Z</time>
      </trkpt>
      <trkpt lat="42.1480800" lon="-1.6340030">
        <ele>271.2</ele>
        <time>2021-09-29T08:08:03Z</time>
      </trkpt>
      <trkpt lat="42.1485150" lon="-1.6345360">
        <ele>271.2</ele>
        <time>2021-09-29T08:08:13Z</time>
      </trkpt>
      <trkpt lat="42.1488160" lon="-1.6349090">
        <ele>271.0</ele>
        <time>2021-09-29T08:08:20Z</time>
      </trkpt>
      <trkpt lat="42.1489850" lon="-1.6351170">
        <ele>270.6</ele>
        <time>2021-09-29T08:08:24Z</time>
      </trkpt>
      <trkpt lat="42.1490840" lon="-1.6353110">
        <ele>270.4</ele>
        <time>2021-09-29T08:08:27Z</time>
      </trkpt>
      <trkpt lat="42.1493050" lon="-1.6360390">
        <ele>269.6</ele>
        <time>2021-09-29T08:08:37Z</time>
      </trkpt>
      <trkpt lat="42.1494940" lon="-1.6367680">
        <ele>269.4</ele>
        <time>2021-09-29T08:08:47Z</time>
      </trkpt>
      <trkpt lat="42.1495910" lon="-1.6370510">
        <ele>269.4</ele>
        <time>2021-09-29T08:08:51Z</time>
      </trkpt>
      <trkpt lat="42.1497680" lon="-1.6375150">
        <ele>269.0</ele>
        <time>2021-09-29T08:08:57Z</time>
      </trkpt>
      <trkpt lat="42.1499550" lon="-1.6379180">
        <ele>268.2</ele>
        <time>2021-09-29T08:09:02Z</time>
      </trkpt>
      <trkpt lat="42.1500340" lon="-1.6380770">
        <ele>267.2</ele>
        <time>2021-09-29T08:09:04Z</time>
      </trkpt>
      <trkpt lat="42.1501130" lon="-1.6382350">
        <ele>266.0</ele>
        <time>2021-09-29T08:09:06Z</time>
      </trkpt>
      <trkpt lat="42.1502350" lon="-1.6384740">
        <ele>264.8</ele>
        <time>2021-09-29T08:09:09Z</time>
      </trkpt>
      <trkpt lat="42.1504100" lon="-1.6387720">
        <ele>263.6</ele>
        <time>2021-09-29T08:09:13Z</time>
      </trkpt>
      <trkpt lat="42.1505600" lon="-1.6389540">
        <ele>262.8</ele>
        <time>2021-09-29T08:09:16Z</time>
      </trkpt>
      <trkpt lat="42.1506150" lon="-1.6390010">
        <ele>262.6</ele>
        <time>2021-09-29T08:09:17Z</time>
      </trkpt>
      <trkpt lat="42.1508510" lon="-1.6391230">
        <ele>262.4</ele>
        <time>2021-09-29T08:09:21Z</time>
      </trkpt>
      <trkpt lat="42.1513860" lon="-1.6392300">
        <ele>263.0</ele>
        <time>2021-09-29T08:09:30Z</time>
      </trkpt>
      <trkpt lat="42.1517830" lon="-1.6392970">
        <ele>263.6</ele>
        <time>2021-09-29T08:09:37Z</time>
      </trkpt>
      <trkpt lat="42.1522810" lon="-1.6396330">
        <ele>263.8</ele>
        <time>2021-09-29T08:09:47Z</time>
      </trkpt>
      <trkpt lat="42.1527830" lon="-1.6399770">
        <ele>264.2</ele>
        <time>2021-09-29T08:09:57Z</time>
      </trkpt>
      <trkpt lat="42.1531540" lon="-1.6402440">
        <ele>264.4</ele>
        <time>2021-09-29T08:10:05Z</time>
      </trkpt>
      <trkpt lat="42.1532320" lon="-1.6403290">
        <ele>264.8</ele>
        <time>2021-09-29T08:10:07Z</time>
      </trkpt>
      <trkpt lat="42.1532670" lon="-1.6403750">
        <ele>264.8</ele>
        <time>2021-09-29T08:10:08Z</time>
      </trkpt>
      <trkpt lat="42.1533890" lon="-1.6405740">
        <ele>265.0</ele>
        <time>2021-09-29T08:10:12Z</time>
      </trkpt>
      <trkpt lat="42.1534890" lon="-1.6408250">
        <ele>265.8</ele>
        <time>2021-09-29T08:10:17Z</time>
      </trkpt>
      <trkpt lat="42.1535410" lon="-1.6410700">
        <ele>267.2</ele>
        <time>2021-09-29T08:10:22Z</time>
      </trkpt>
      <trkpt lat="42.1535550" lon="-1.6411710">
        <ele>268.2</ele>
        <time>2021-09-29T08:10:24Z</time>
      </trkpt>
      <trkpt lat="42.1535760" lon="-1.6413160">
        <ele>269.6</ele>
        <time>2021-09-29T08:10:27Z</time>
      </trkpt>
      <trkpt lat="42.1536320" lon="-1.6415340">
        <ele>270.6</ele>
        <time>2021-09-29T08:10:32Z</time>
      </trkpt>
      <trkpt lat="42.1536960" lon="-1.6417040">
        <ele>271.8</ele>
        <time>2021-09-29T08:10:36Z</time>
      </trkpt>
      <trkpt lat="42.1537580" lon="-1.6418330">
        <ele>273.0</ele>
        <time>2021-09-29T08:10:39Z</time>
      </trkpt>
      <trkpt lat="42.1538530" lon="-1.6420020">
        <ele>274.2</ele>
        <time>2021-09-29T08:10:43Z</time>
      </trkpt>
      <trkpt lat="42.1542170" lon="-1.6426230">
        <ele>275.0</ele>
        <time>2021-09-29T08:10:55Z</time>
      </trkpt>
      <trkpt lat="42.1543730" lon="-1.6428510">
        <ele>274.8</ele>
        <time>2021-09-29T08:10:59Z</time>
      </trkpt>
      <trkpt lat="42.1546210" lon="-1.6432490">
        <ele>273.2</ele>
        <time>2021-09-29T08:11:06Z</time>
      </trkpt>
      <trkpt lat="42.1546760" lon="-1.6433750">
        <ele>273.2</ele>
        <time>2021-09-29T08:11:08Z</time>
      </trkpt>
      <trkpt lat="42.1547580" lon="-1.6435820">
        <ele>272.8</ele>
        <time>2021-09-29T08:11:11Z</time>
      </trkpt>
      <trkpt lat="42.1548450" lon="-1.6438370">
        <ele>273.4</ele>
        <time>2021-09-29T08:11:14Z</time>
      </trkpt>
      <trkpt lat="42.1549120" lon="-1.6440250">
        <ele>271.8</ele>
        <time>2021-09-29T08:11:16Z</time>
      </trkpt>
      <trkpt lat="42.1550230" lon="-1.6443180">
        <ele>270.8</ele>
        <time>2021-09-29T08:11:19Z</time>
      </trkpt>
      <trkpt lat="42.1550980" lon="-1.6445150">
        <ele>269.2</ele>
        <time>2021-09-29T08:11:21Z</time>
      </trkpt>
      <trkpt lat="42.1551720" lon="-1.6447040">
        <ele>267.8</ele>
        <time>2021-09-29T08:11:23Z</time>
      </trkpt>
      <trkpt lat="42.1552420" lon="-1.6448860">
        <ele>266.2</ele>
        <time>2021-09-29T08:11:25Z</time>
      </trkpt>
      <trkpt lat="42.1552770" lon="-1.6449760">
        <ele>265.2</ele>
        <time>2021-09-29T08:11:26Z</time>
      </trkpt>
      <trkpt lat="42.1554360" lon="-1.6454050">
        <ele>264.0</ele>
        <time>2021-09-29T08:11:31Z</time>
      </trkpt>
      <trkpt lat="42.1555770" lon="-1.6457670">
        <ele>264.0</ele>
        <time>2021-09-29T08:11:36Z</time>
      </trkpt>
      <trkpt lat="42.1557450" lon="-1.6462790">
        <ele>264.4</ele>
        <time>2021-09-29T08:11:43Z</time>
      </trkpt>
      <trkpt lat="42.1560130" lon="-1.6469860">
        <ele>265.0</ele>
        <time>2021-09-29T08:11:53Z</time>
      </trkpt>
      <trkpt lat="42.1562400" lon="-1.6475510">
        <ele>265.0</ele>
        <time>2021-09-29T08:12:01Z</time>
      </trkpt>
      <trkpt lat="42.1562680" lon="-1.6476210">
        <ele>265.2</ele>
        <time>2021-09-29T08:12:02Z</time>
      </trkpt>
      <trkpt lat="42.1565440" lon="-1.6482970">
        <ele>265.4</ele>
        <time>2021-09-29T08:12:12Z</time>
      </trkpt>
      <trkpt lat="42.1568400" lon="-1.6489540">
        <ele>266.2</ele>
        <time>2021-09-29T08:12:22Z</time>
      </trkpt>
      <trkpt lat="42.1570160" lon="-1.6495120">
        <ele>266.4</ele>
        <time>2021-09-29T08:12:30Z</time>
      </trkpt>
      <trkpt lat="42.1573270" lon="-1.6501700">
        <ele>266.8</ele>
        <time>2021-09-29T08:12:41Z</time>
      </trkpt>
      <trkpt lat="42.1575930" lon="-1.6508300">
        <ele>267.4</ele>
        <time>2021-09-29T08:12:52Z</time>
      </trkpt>
      <trkpt lat="42.1578230" lon="-1.6514960">
        <ele>268.0</ele>
        <time>2021-09-29T08:13:03Z</time>
      </trkpt>
      <trkpt lat="42.1580130" lon="-1.6519850">
        <ele>268.4</ele>
        <time>2021-09-29T08:13:11Z</time>
      </trkpt>
      <trkpt lat="42.1582750" lon="-1.6526640">
        <ele>269.4</ele>
        <time>2021-09-29T08:13:22Z</time>
      </trkpt>
      <trkpt lat="42.1582970" lon="-1.6527260">
        <ele>269.4</ele>
        <time>2021-09-29T08:13:23Z</time>
      </trkpt>
      <trkpt lat="42.1585160" lon="-1.6533990">
        <ele>270.0</ele>
        <time>2021-09-29T08:13:34Z</time>
      </trkpt>
      <trkpt lat="42.1586530" lon="-1.6538380">
        <ele>270.8</ele>
        <time>2021-09-29T08:13:41Z</time>
      </trkpt>
      <trkpt lat="42.1587320" lon="-1.6540960">
        <ele>271.8</ele>
        <time>2021-09-29T08:13:45Z</time>
      </trkpt>
      <trkpt lat="42.1589660" lon="-1.6547650">
        <ele>271.8</ele>
        <time>2021-09-29T08:13:55Z</time>
      </trkpt>
      <trkpt lat="42.1590620" lon="-1.6550390">
        <ele>271.4</ele>
        <time>2021-09-29T08:13:59Z</time>
      </trkpt>
      <trkpt lat="42.1592770" lon="-1.6557320">
        <ele>271.2</ele>
        <time>2021-09-29T08:14:09Z</time>
      </trkpt>
      <trkpt lat="42.1593700" lon="-1.6561720">
        <ele>270.8</ele>
        <time>2021-09-29T08:14:15Z</time>
      </trkpt>
      <trkpt lat="42.1594310" lon="-1.6564780">
        <ele>270.4</ele>
        <time>2021-09-29T08:14:19Z</time>
      </trkpt>
      <trkpt lat="42.1594940" lon="-1.6566920">
        <ele>269.6</ele>
        <time>2021-09-29T08:14:22Z</time>
      </trkpt>
      <trkpt lat="42.1597710" lon="-1.6573180">
        <ele>269.0</ele>
        <time>2021-09-29T08:14:32Z</time>
      </trkpt>
      <trkpt lat="42.1601290" lon="-1.6578840">
        <ele>268.6</ele>
        <time>2021-09-29T08:14:42Z</time>
      </trkpt>
      <trkpt lat="42.1603890" lon="-1.6584610">
        <ele>268.4</ele>
        <time>2021-09-29T08:14:51Z</time>
      </trkpt>
      <trkpt lat="42.1606420" lon="-1.6591760">
        <ele>268.8</ele>
        <time>2021-09-29T08:15:02Z</time>
      </trkpt>
      <trkpt lat="42.1609040" lon="-1.6598840">
        <ele>269.2</ele>
        <time>2021-09-29T08:15:13Z</time>
      </trkpt>
      <trkpt lat="42.1610940" lon="-1.6603980">
        <ele>269.4</ele>
        <time>2021-09-29T08:15:21Z</time>
      </trkpt>
      <trkpt lat="42.1612590" lon="-1.6608470">
        <ele>269.4</ele>
        <time>2021-09-29T08:15:28Z</time>
      </trkpt>
      <trkpt lat="42.1614980" lon="-1.6615500">
        <ele>270.0</ele>
        <time>2021-09-29T08:15:39Z</time>
      </trkpt>
      <trkpt lat="42.1616280" lon="-1.6619210">
        <ele>270.4</ele>
        <time>2021-09-29T08:15:45Z</time>
      </trkpt>
      <trkpt lat="42.1616530" lon="-1.6619790">
        <ele>270.4</ele>
        <time>2021-09-29T08:15:46Z</time>
      </trkpt>
      <trkpt lat="42.1617580" lon="-1.6622040">
        <ele>270.4</ele>
        <time>2021-09-29T08:15:50Z</time>
      </trkpt>
      <trkpt lat="42.1619450" lon="-1.6627130">
        <ele>270.4</ele>
        <time>2021-09-29T08:15:58Z</time>
      </trkpt>
      <trkpt lat="42.1620320" lon="-1.6629700">
        <ele>270.6</ele>
        <time>2021-09-29T08:16:04Z</time>
      </trkpt>
      <trkpt lat="42.1620390" lon="-1.6629840">
        <ele>273.0</ele>
        <time>2021-09-29T08:16:44Z</time>
      </trkpt>
      <trkpt lat="42.1620520" lon="-1.6630180">
        <ele>272.8</ele>
        <time>2021-09-29T08:16:45Z</time>
      </trkpt>
      <trkpt lat="42.1622320" lon="-1.6634890">
        <ele>271.8</ele>
        <time>2021-09-29T08:16:55Z</time>
      </trkpt>
      <trkpt lat="42.1623900" lon="-1.6639100">
        <ele>271.4</ele>
        <time>2021-09-29T08:17:02Z</time>
      </trkpt>
      <trkpt lat="42.1626160" lon="-1.6645220">
        <ele>271.4</ele>
        <time>2021-09-29T08:17:12Z</time>
      </trkpt>
      <trkpt lat="42.1628260" lon="-1.6651510">
        <ele>272.0</ele>
        <time>2021-09-29T08:17:22Z</time>
      </trkpt>
      <trkpt lat="42.1630700" lon="-1.6656960">
        <ele>271.6</ele>
        <time>2021-09-29T08:17:32Z</time>
      </trkpt>
      <trkpt lat="42.1632580" lon="-1.6663900">
        <ele>271.6</ele>
        <time>2021-09-29T08:17:45Z</time>
      </trkpt>
      <trkpt lat="42.1632870" lon="-1.6664990">
        <ele>271.8</ele>
        <time>2021-09-29T08:17:49Z</time>
      </trkpt>
      <trkpt lat="42.1632870" lon="-1.6665060">
        <ele>272.0</ele>
        <time>2021-09-29T08:17:50Z</time>
      </trkpt>
      <trkpt lat="42.1633020" lon="-1.6665330">
        <ele>273.6</ele>
        <time>2021-09-29T08:18:06Z</time>
      </trkpt>
      <trkpt lat="42.1633160" lon="-1.6665560">
        <ele>273.6</ele>
        <time>2021-09-29T08:18:07Z</time>
      </trkpt>
      <trkpt lat="42.1634040" lon="-1.6667810">
        <ele>273.2</ele>
        <time>2021-09-29T08:18:13Z</time>
      </trkpt>
      <trkpt lat="42.1634890" lon="-1.6670040">
        <ele>272.6</ele>
        <time>2021-09-29T08:18:17Z</time>
      </trkpt>
      <trkpt lat="42.1637200" lon="-1.6676180">
        <ele>271.6</ele>
        <time>2021-09-29T08:18:27Z</time>
      </trkpt>
      <trkpt lat="42.1639400" lon="-1.6682130">
        <ele>271.4</ele>
        <time>2021-09-29T08:18:36Z</time>
      </trkpt>
      <trkpt lat="42.1641850" lon="-1.6688860">
        <ele>271.6</ele>
        <time>2021-09-29T08:18:46Z</time>
      </trkpt>
      <trkpt lat="42.1643640" lon="-1.6693440">
        <ele>271.6</ele>
        <time>2021-09-29T08:18:53Z</time>
      </trkpt>
      <trkpt lat="42.1646290" lon="-1.6700560">
        <ele>271.8</ele>
        <time>2021-09-29T08:19:04Z</time>
      </trkpt>
      <trkpt lat="42.1648730" lon="-1.6707100">
        <ele>271.6</ele>
        <time>2021-09-29T08:19:14Z</time>
      </trkpt>
      <trkpt lat="42.1651340" lon="-1.6714260">
        <ele>271.4</ele>
        <time>2021-09-29T08:19:25Z</time>
      </trkpt>
      <trkpt lat="42.1653780" lon="-1.6720850">
        <ele>272.0</ele>
        <time>2021-09-29T08:19:35Z</time>
      </trkpt>
      <trkpt lat="42.1656790" lon="-1.6727610">
        <ele>272.0</ele>
        <time>2021-09-29T08:19:46Z</time>
      </trkpt>
      <trkpt lat="42.1657870" lon="-1.6730520">
        <ele>272.0</ele>
        <time>2021-09-29T08:19:51Z</time>
      </trkpt>
      <trkpt lat="42.1659310" lon="-1.6734350">
        <ele>272.6</ele>
        <time>2021-09-29T08:19:57Z</time>
      </trkpt>
      <trkpt lat="42.1660100" lon="-1.6737240">
        <ele>272.6</ele>
        <time>2021-09-29T08:20:01Z</time>
      </trkpt>
      <trkpt lat="42.1662390" lon="-1.6744500">
        <ele>272.4</ele>
        <time>2021-09-29T08:20:11Z</time>
      </trkpt>
      <trkpt lat="42.1664410" lon="-1.6751710">
        <ele>271.6</ele>
        <time>2021-09-29T08:20:21Z</time>
      </trkpt>
      <trkpt lat="42.1666150" lon="-1.6759070">
        <ele>271.8</ele>
        <time>2021-09-29T08:20:31Z</time>
      </trkpt>
      <trkpt lat="42.1668720" lon="-1.6765980">
        <ele>271.6</ele>
        <time>2021-09-29T08:20:41Z</time>
      </trkpt>
      <trkpt lat="42.1671710" lon="-1.6772520">
        <ele>270.4</ele>
        <time>2021-09-29T08:20:51Z</time>
      </trkpt>
      <trkpt lat="42.1673820" lon="-1.6779730">
        <ele>270.4</ele>
        <time>2021-09-29T08:21:01Z</time>
      </trkpt>
      <trkpt lat="42.1675630" lon="-1.6786130">
        <ele>270.8</ele>
        <time>2021-09-29T08:21:10Z</time>
      </trkpt>
      <trkpt lat="42.1678450" lon="-1.6790910">
        <ele>270.8</ele>
        <time>2021-09-29T08:21:18Z</time>
      </trkpt>
      <trkpt lat="42.1681170" lon="-1.6796510">
        <ele>270.2</ele>
        <time>2021-09-29T08:21:27Z</time>
      </trkpt>
      <trkpt lat="42.1684090" lon="-1.6803390">
        <ele>270.2</ele>
        <time>2021-09-29T08:21:38Z</time>
      </trkpt>
      <trkpt lat="42.1686840" lon="-1.6810430">
        <ele>270.8</ele>
        <time>2021-09-29T08:21:49Z</time>
      </trkpt>
      <trkpt lat="42.1689300" lon="-1.6816910">
        <ele>271.4</ele>
        <time>2021-09-29T08:22:00Z</time>
      </trkpt>
      <trkpt lat="42.1690840" lon="-1.6821010">
        <ele>272.6</ele>
        <time>2021-09-29T08:22:07Z</time>
      </trkpt>
      <trkpt lat="42.1691890" lon="-1.6823920">
        <ele>273.6</ele>
        <time>2021-09-29T08:22:12Z</time>
      </trkpt>
      <trkpt lat="42.1692620" lon="-1.6826180">
        <ele>274.8</ele>
        <time>2021-09-29T08:22:16Z</time>
      </trkpt>
      <trkpt lat="42.1693100" lon="-1.6827800">
        <ele>276.0</ele>
        <time>2021-09-29T08:22:19Z</time>
      </trkpt>
      <trkpt lat="42.1693500" lon="-1.6829440">
        <ele>277.0</ele>
        <time>2021-09-29T08:22:22Z</time>
      </trkpt>
      <trkpt lat="42.1694050" lon="-1.6832030">
        <ele>278.6</ele>
        <time>2021-09-29T08:22:27Z</time>
      </trkpt>
      <trkpt lat="42.1694310" lon="-1.6833460">
        <ele>279.6</ele>
        <time>2021-09-29T08:22:30Z</time>
      </trkpt>
      <trkpt lat="42.1694280" lon="-1.6834880">
        <ele>281.0</ele>
        <time>2021-09-29T08:22:33Z</time>
      </trkpt>
      <trkpt lat="42.1694090" lon="-1.6835350">
        <ele>281.4</ele>
        <time>2021-09-29T08:22:34Z</time>
      </trkpt>
      <trkpt lat="42.1692530" lon="-1.6836710">
        <ele>282.0</ele>
        <time>2021-09-29T08:22:38Z</time>
      </trkpt>
      <trkpt lat="42.1690490" lon="-1.6838180">
        <ele>282.0</ele>
        <time>2021-09-29T08:22:42Z</time>
      </trkpt>
      <trkpt lat="42.1686010" lon="-1.6841470">
        <ele>279.2</ele>
        <time>2021-09-29T08:22:49Z</time>
      </trkpt>
      <trkpt lat="42.1684640" lon="-1.6842660">
        <ele>278.0</ele>
        <time>2021-09-29T08:22:51Z</time>
      </trkpt>
      <trkpt lat="42.1683340" lon="-1.6843920">
        <ele>276.6</ele>
        <time>2021-09-29T08:22:53Z</time>
      </trkpt>
      <trkpt lat="42.1682140" lon="-1.6845140">
        <ele>274.8</ele>
        <time>2021-09-29T08:22:55Z</time>
      </trkpt>
      <trkpt lat="42.1681560" lon="-1.6845680">
        <ele>274.2</ele>
        <time>2021-09-29T08:22:56Z</time>
      </trkpt>
      <trkpt lat="42.1680980" lon="-1.6846180">
        <ele>273.8</ele>
        <time>2021-09-29T08:22:57Z</time>
      </trkpt>
      <trkpt lat="42.1679410" lon="-1.6847470">
        <ele>273.4</ele>
        <time>2021-09-29T08:23:00Z</time>
      </trkpt>
      <trkpt lat="42.1674770" lon="-1.6851260">
        <ele>274.6</ele>
        <time>2021-09-29T08:23:10Z</time>
      </trkpt>
      <trkpt lat="42.1674460" lon="-1.6851780">
        <ele>275.0</ele>
        <time>2021-09-29T08:23:11Z</time>
      </trkpt>
      <trkpt lat="42.1674470" lon="-1.6853640">
        <ele>275.0</ele>
        <time>2021-09-29T08:23:14Z</time>
      </trkpt>
      <trkpt lat="42.1675010" lon="-1.6854810">
        <ele>275.2</ele>
        <time>2021-09-29T08:23:16Z</time>
      </trkpt>
      <trkpt lat="42.1677030" lon="-1.6858720">
        <ele>274.2</ele>
        <time>2021-09-29T08:23:23Z</time>
      </trkpt>
      <trkpt lat="42.1677300" lon="-1.6859310">
        <ele>273.8</ele>
        <time>2021-09-29T08:23:24Z</time>
      </trkpt>
      <trkpt lat="42.1680370" lon="-1.6865880">
        <ele>273.4</ele>
        <time>2021-09-29T08:23:35Z</time>
      </trkpt>
      <trkpt lat="42.1683400" lon="-1.6872350">
        <ele>274.0</ele>
        <time>2021-09-29T08:23:46Z</time>
      </trkpt>
      <trkpt lat="42.1686520" lon="-1.6879030">
        <ele>274.2</ele>
        <time>2021-09-29T08:23:57Z</time>
      </trkpt>
      <trkpt lat="42.1689560" lon="-1.6885760">
        <ele>274.0</ele>
        <time>2021-09-29T08:24:08Z</time>
      </trkpt>
      <trkpt lat="42.1692220" lon="-1.6891420">
        <ele>274.2</ele>
        <time>2021-09-29T08:24:18Z</time>
      </trkpt>
      <trkpt lat="42.1692860" lon="-1.6892740">
        <ele>274.4</ele>
        <time>2021-09-29T08:24:21Z</time>
      </trkpt>
      <trkpt lat="42.1693390" lon="-1.6893940">
        <ele>274.6</ele>
        <time>2021-09-29T08:24:24Z</time>
      </trkpt>
      <trkpt lat="42.1693910" lon="-1.6894900">
        <ele>275.2</ele>
        <time>2021-09-29T08:24:26Z</time>
      </trkpt>
      <trkpt lat="42.1696790" lon="-1.6901250">
        <ele>275.4</ele>
        <time>2021-09-29T08:24:37Z</time>
      </trkpt>
      <trkpt lat="42.1697360" lon="-1.6902400">
        <ele>275.4</ele>
        <time>2021-09-29T08:24:39Z</time>
      </trkpt>
      <trkpt lat="42.1700310" lon="-1.6908940">
        <ele>275.2</ele>
        <time>2021-09-29T08:24:50Z</time>
      </trkpt>
      <trkpt lat="42.1702900" lon="-1.6914360">
        <ele>275.0</ele>
        <time>2021-09-29T08:25:00Z</time>
      </trkpt>
      <trkpt lat="42.1703680" lon="-1.6916210">
        <ele>275.0</ele>
        <time>2021-09-29T08:25:04Z</time>
      </trkpt>
      <trkpt lat="42.1704960" lon="-1.6919740">
        <ele>275.6</ele>
        <time>2021-09-29T08:25:12Z</time>
      </trkpt>
      <trkpt lat="42.1706540" lon="-1.6923130">
        <ele>276.2</ele>
        <time>2021-09-29T08:25:20Z</time>
      </trkpt>
      <trkpt lat="42.1707710" lon="-1.6925760">
        <ele>276.2</ele>
        <time>2021-09-29T08:25:27Z</time>
      </trkpt>
      <trkpt lat="42.1708280" lon="-1.6926830">
        <ele>276.2</ele>
        <time>2021-09-29T08:25:29Z</time>
      </trkpt>
      <trkpt lat="42.1709330" lon="-1.6928930">
        <ele>276.2</ele>
        <time>2021-09-29T08:25:33Z</time>
      </trkpt>
      <trkpt lat="42.1710000" lon="-1.6930260">
        <ele>275.8</ele>
        <time>2021-09-29T08:25:36Z</time>
      </trkpt>
      <trkpt lat="42.1711230" lon="-1.6930190">
        <ele>275.8</ele>
        <time>2021-09-29T08:25:40Z</time>
      </trkpt>
      <trkpt lat="42.1714020" lon="-1.6929430">
        <ele>275.8</ele>
        <time>2021-09-29T08:25:47Z</time>
      </trkpt>
      <trkpt lat="42.1716490" lon="-1.6928170">
        <ele>275.8</ele>
        <time>2021-09-29T08:25:53Z</time>
      </trkpt>
      <trkpt lat="42.1717460" lon="-1.6927820">
        <ele>276.2</ele>
        <time>2021-09-29T08:25:56Z</time>
      </trkpt>
      <trkpt lat="42.1718350" lon="-1.6929260">
        <ele>276.0</ele>
        <time>2021-09-29T08:26:00Z</time>
      </trkpt>
      <trkpt lat="42.1718520" lon="-1.6929870">
        <ele>275.8</ele>
        <time>2021-09-29T08:26:01Z</time>
      </trkpt>
      <trkpt lat="42.1719200" lon="-1.6931880">
        <ele>275.6</ele>
        <time>2021-09-29T08:26:04Z</time>
      </trkpt>
      <trkpt lat="42.1720290" lon="-1.6936170">
        <ele>275.0</ele>
        <time>2021-09-29T08:26:10Z</time>
      </trkpt>
      <trkpt lat="42.1721140" lon="-1.6939000">
        <ele>273.8</ele>
        <time>2021-09-29T08:26:14Z</time>
      </trkpt>
      <trkpt lat="42.1721530" lon="-1.6940420">
        <ele>272.6</ele>
        <time>2021-09-29T08:26:16Z</time>
      </trkpt>
      <trkpt lat="42.1723090" lon="-1.6946250">
        <ele>271.6</ele>
        <time>2021-09-29T08:26:24Z</time>
      </trkpt>
      <trkpt lat="42.1723240" lon="-1.6947020">
        <ele>271.6</ele>
        <time>2021-09-29T08:26:25Z</time>
      </trkpt>
      <trkpt lat="42.1722970" lon="-1.6950100">
        <ele>271.0</ele>
        <time>2021-09-29T08:26:29Z</time>
      </trkpt>
      <trkpt lat="42.1722640" lon="-1.6955480">
        <ele>270.8</ele>
        <time>2021-09-29T08:26:37Z</time>
      </trkpt>
      <trkpt lat="42.1723590" lon="-1.6957510">
        <ele>270.8</ele>
        <time>2021-09-29T08:26:40Z</time>
      </trkpt>
      <trkpt lat="42.1726280" lon="-1.6963880">
        <ele>270.8</ele>
        <time>2021-09-29T08:26:49Z</time>
      </trkpt>
      <trkpt lat="42.1729170" lon="-1.6970880">
        <ele>271.4</ele>
        <time>2021-09-29T08:26:59Z</time>
      </trkpt>
      <trkpt lat="42.1732040" lon="-1.6977810">
        <ele>272.2</ele>
        <time>2021-09-29T08:27:09Z</time>
      </trkpt>
      <trkpt lat="42.1734370" lon="-1.6983170">
        <ele>271.8</ele>
        <time>2021-09-29T08:27:17Z</time>
      </trkpt>
      <trkpt lat="42.1736570" lon="-1.6985510">
        <ele>271.6</ele>
        <time>2021-09-29T08:27:22Z</time>
      </trkpt>
      <trkpt lat="42.1737430" lon="-1.6986420">
        <ele>271.6</ele>
        <time>2021-09-29T08:27:24Z</time>
      </trkpt>
      <trkpt lat="42.1736790" lon="-1.6989080">
        <ele>271.6</ele>
        <time>2021-09-29T08:27:30Z</time>
      </trkpt>
      <trkpt lat="42.1738340" lon="-1.6985520">
        <ele>272.4</ele>
        <time>2021-09-29T08:27:40Z</time>
      </trkpt>
      <trkpt lat="42.1740720" lon="-1.6985580">
        <ele>272.2</ele>
        <time>2021-09-29T08:27:44Z</time>
      </trkpt>
      <trkpt lat="42.1745880" lon="-1.6988210">
        <ele>271.0</ele>
        <time>2021-09-29T08:27:53Z</time>
      </trkpt>
      <trkpt lat="42.1748830" lon="-1.6993490">
        <ele>270.6</ele>
        <time>2021-09-29T08:28:01Z</time>
      </trkpt>
      <trkpt lat="42.1749650" lon="-1.7001220">
        <ele>270.6</ele>
        <time>2021-09-29T08:28:11Z</time>
      </trkpt>
      <trkpt lat="42.1748970" lon="-1.7004840">
        <ele>271.8</ele>
        <time>2021-09-29T08:28:16Z</time>
      </trkpt>
      <trkpt lat="42.1747660" lon="-1.7009300">
        <ele>272.4</ele>
        <time>2021-09-29T08:28:23Z</time>
      </trkpt>
      <trkpt lat="42.1747460" lon="-1.7009880">
        <ele>272.4</ele>
        <time>2021-09-29T08:28:24Z</time>
      </trkpt>
      <trkpt lat="42.1747060" lon="-1.7010780">
        <ele>272.6</ele>
        <time>2021-09-29T08:28:26Z</time>
      </trkpt>
      <trkpt lat="42.1747560" lon="-1.7011530">
        <ele>272.8</ele>
        <time>2021-09-29T08:28:29Z</time>
      </trkpt>
      <trkpt lat="42.1746910" lon="-1.7011640">
        <ele>273.8</ele>
        <time>2021-09-29T08:28:39Z</time>
      </trkpt>
      <trkpt lat="42.1747000" lon="-1.7011480">
        <ele>274.2</ele>
        <time>2021-09-29T08:28:41Z</time>
      </trkpt>
      <trkpt lat="42.1747640" lon="-1.7011740">
        <ele>274.4</ele>
        <time>2021-09-29T08:29:20Z</time>
      </trkpt>
      <trkpt lat="42.1748200" lon="-1.7013330">
        <ele>274.4</ele>
        <time>2021-09-29T08:29:24Z</time>
      </trkpt>
      <trkpt lat="42.1749160" lon="-1.7015560">
        <ele>274.0</ele>
        <time>2021-09-29T08:29:28Z</time>
      </trkpt>
      <trkpt lat="42.1750200" lon="-1.7018750">
        <ele>272.8</ele>
        <time>2021-09-29T08:29:33Z</time>
      </trkpt>
      <trkpt lat="42.1750370" lon="-1.7019410">
        <ele>272.6</ele>
        <time>2021-09-29T08:29:34Z</time>
      </trkpt>
      <trkpt lat="42.1750740" lon="-1.7021450">
        <ele>272.2</ele>
        <time>2021-09-29T08:29:37Z</time>
      </trkpt>
      <trkpt lat="42.1750550" lon="-1.7024160">
        <ele>271.8</ele>
        <time>2021-09-29T08:29:41Z</time>
      </trkpt>
      <trkpt lat="42.1750250" lon="-1.7025410">
        <ele>271.8</ele>
        <time>2021-09-29T08:29:43Z</time>
      </trkpt>
      <trkpt lat="42.1750340" lon="-1.7028090">
        <ele>271.8</ele>
        <time>2021-09-29T08:29:47Z</time>
      </trkpt>
      <trkpt lat="42.1750370" lon="-1.7029480">
        <ele>271.8</ele>
        <time>2021-09-29T08:29:49Z</time>
      </trkpt>
      <trkpt lat="42.1750380" lon="-1.7032290">
        <ele>271.6</ele>
        <time>2021-09-29T08:29:53Z</time>
      </trkpt>
      <trkpt lat="42.1750360" lon="-1.7035310">
        <ele>271.4</ele>
        <time>2021-09-29T08:29:57Z</time>
      </trkpt>
      <trkpt lat="42.1750350" lon="-1.7038370">
        <ele>271.6</ele>
        <time>2021-09-29T08:30:01Z</time>
      </trkpt>
      <trkpt lat="42.1750340" lon="-1.7043010">
        <ele>271.6</ele>
        <time>2021-09-29T08:30:07Z</time>
      </trkpt>
      <trkpt lat="42.1750340" lon="-1.7050640">
        <ele>271.8</ele>
        <time>2021-09-29T08:30:17Z</time>
      </trkpt>
      <trkpt lat="42.1750270" lon="-1.7057960">
        <ele>271.6</ele>
        <time>2021-09-29T08:30:27Z</time>
      </trkpt>
      <trkpt lat="42.1750030" lon="-1.7065570">
        <ele>271.6</ele>
        <time>2021-09-29T08:30:39Z</time>
      </trkpt>
      <trkpt lat="42.1749720" lon="-1.7067600">
        <ele>271.8</ele>
        <time>2021-09-29T08:30:43Z</time>
      </trkpt>
      <trkpt lat="42.1749800" lon="-1.7071060">
        <ele>272.0</ele>
        <time>2021-09-29T08:30:48Z</time>
      </trkpt>
      <trkpt lat="42.1749920" lon="-1.7074080">
        <ele>272.0</ele>
        <time>2021-09-29T08:30:52Z</time>
      </trkpt>
      <trkpt lat="42.1750090" lon="-1.7080370">
        <ele>271.8</ele>
        <time>2021-09-29T08:31:00Z</time>
      </trkpt>
      <trkpt lat="42.1750450" lon="-1.7088100">
        <ele>271.4</ele>
        <time>2021-09-29T08:31:10Z</time>
      </trkpt>
      <trkpt lat="42.1751120" lon="-1.7095450">
        <ele>271.4</ele>
        <time>2021-09-29T08:31:20Z</time>
      </trkpt>
      <trkpt lat="42.1751580" lon="-1.7101110">
        <ele>271.4</ele>
        <time>2021-09-29T08:31:28Z</time>
      </trkpt>
      <trkpt lat="42.1751660" lon="-1.7101790">
        <ele>271.4</ele>
        <time>2021-09-29T08:31:29Z</time>
      </trkpt>
      <trkpt lat="42.1753230" lon="-1.7109250">
        <ele>270.8</ele>
        <time>2021-09-29T08:31:40Z</time>
      </trkpt>
      <trkpt lat="42.1754800" lon="-1.7116250">
        <ele>271.0</ele>
        <time>2021-09-29T08:31:51Z</time>
      </trkpt>
      <trkpt lat="42.1755510" lon="-1.7117450">
        <ele>271.2</ele>
        <time>2021-09-29T08:31:54Z</time>
      </trkpt>
      <trkpt lat="42.1756160" lon="-1.7118270">
        <ele>271.2</ele>
        <time>2021-09-29T08:31:56Z</time>
      </trkpt>
      <trkpt lat="42.1757110" lon="-1.7120670">
        <ele>272.0</ele>
        <time>2021-09-29T08:32:00Z</time>
      </trkpt>
      <trkpt lat="42.1757730" lon="-1.7122760">
        <ele>272.4</ele>
        <time>2021-09-29T08:32:03Z</time>
      </trkpt>
      <trkpt lat="42.1759870" lon="-1.7129540">
        <ele>272.6</ele>
        <time>2021-09-29T08:32:12Z</time>
      </trkpt>
      <trkpt lat="42.1762190" lon="-1.7136220">
        <ele>272.2</ele>
        <time>2021-09-29T08:32:21Z</time>
      </trkpt>
      <trkpt lat="42.1764750" lon="-1.7142790">
        <ele>271.8</ele>
        <time>2021-09-29T08:32:30Z</time>
      </trkpt>
      <trkpt lat="42.1767580" lon="-1.7149300">
        <ele>272.0</ele>
        <time>2021-09-29T08:32:39Z</time>
      </trkpt>
      <trkpt lat="42.1770520" lon="-1.7155720">
        <ele>272.4</ele>
        <time>2021-09-29T08:32:48Z</time>
      </trkpt>
      <trkpt lat="42.1773440" lon="-1.7162040">
        <ele>272.8</ele>
        <time>2021-09-29T08:32:57Z</time>
      </trkpt>
      <trkpt lat="42.1776150" lon="-1.7168460">
        <ele>272.8</ele>
        <time>2021-09-29T08:33:06Z</time>
      </trkpt>
      <trkpt lat="42.1778840" lon="-1.7175090">
        <ele>273.0</ele>
        <time>2021-09-29T08:33:15Z</time>
      </trkpt>
      <trkpt lat="42.1780190" lon="-1.7178890">
        <ele>273.4</ele>
        <time>2021-09-29T08:33:20Z</time>
      </trkpt>
      <trkpt lat="42.1782130" lon="-1.7185900">
        <ele>273.2</ele>
        <time>2021-09-29T08:33:29Z</time>
      </trkpt>
      <trkpt lat="42.1784100" lon="-1.7193310">
        <ele>272.6</ele>
        <time>2021-09-29T08:33:39Z</time>
      </trkpt>
      <trkpt lat="42.1786410" lon="-1.7200520">
        <ele>273.4</ele>
        <time>2021-09-29T08:33:49Z</time>
      </trkpt>
      <trkpt lat="42.1789260" lon="-1.7206790">
        <ele>274.0</ele>
        <time>2021-09-29T08:33:58Z</time>
      </trkpt>
      <trkpt lat="42.1792250" lon="-1.7213020">
        <ele>274.2</ele>
        <time>2021-09-29T08:34:07Z</time>
      </trkpt>
      <trkpt lat="42.1794750" lon="-1.7220290">
        <ele>274.2</ele>
        <time>2021-09-29T08:34:17Z</time>
      </trkpt>
      <trkpt lat="42.1796580" lon="-1.7227140">
        <ele>274.2</ele>
        <time>2021-09-29T08:34:26Z</time>
      </trkpt>
      <trkpt lat="42.1797850" lon="-1.7234290">
        <ele>274.0</ele>
        <time>2021-09-29T08:34:35Z</time>
      </trkpt>
      <trkpt lat="42.1798380" lon="-1.7239240">
        <ele>274.4</ele>
        <time>2021-09-29T08:34:41Z</time>
      </trkpt>
      <trkpt lat="42.1799340" lon="-1.7246630">
        <ele>274.8</ele>
        <time>2021-09-29T08:34:50Z</time>
      </trkpt>
      <trkpt lat="42.1800530" lon="-1.7252020">
        <ele>274.4</ele>
        <time>2021-09-29T08:34:57Z</time>
      </trkpt>
      <trkpt lat="42.1802290" lon="-1.7258970">
        <ele>274.6</ele>
        <time>2021-09-29T08:35:06Z</time>
      </trkpt>
      <trkpt lat="42.1804500" lon="-1.7266430">
        <ele>275.2</ele>
        <time>2021-09-29T08:35:16Z</time>
      </trkpt>
      <trkpt lat="42.1804760" lon="-1.7267180">
        <ele>275.2</ele>
        <time>2021-09-29T08:35:17Z</time>
      </trkpt>
      <trkpt lat="42.1807090" lon="-1.7273820">
        <ele>276.0</ele>
        <time>2021-09-29T08:35:26Z</time>
      </trkpt>
      <trkpt lat="42.1808020" lon="-1.7279360">
        <ele>276.2</ele>
        <time>2021-09-29T08:35:33Z</time>
      </trkpt>
      <trkpt lat="42.1808350" lon="-1.7286720">
        <ele>277.2</ele>
        <time>2021-09-29T08:35:42Z</time>
      </trkpt>
      <trkpt lat="42.1808410" lon="-1.7289190">
        <ele>277.4</ele>
        <time>2021-09-29T08:35:45Z</time>
      </trkpt>
      <trkpt lat="42.1809350" lon="-1.7297040">
        <ele>277.6</ele>
        <time>2021-09-29T08:35:55Z</time>
      </trkpt>
      <trkpt lat="42.1810780" lon="-1.7304690">
        <ele>278.0</ele>
        <time>2021-09-29T08:36:05Z</time>
      </trkpt>
      <trkpt lat="42.1812200" lon="-1.7312330">
        <ele>278.2</ele>
        <time>2021-09-29T08:36:15Z</time>
      </trkpt>
      <trkpt lat="42.1812790" lon="-1.7315410">
        <ele>278.4</ele>
        <time>2021-09-29T08:36:19Z</time>
      </trkpt>
      <trkpt lat="42.1812960" lon="-1.7316180">
        <ele>278.4</ele>
        <time>2021-09-29T08:36:20Z</time>
      </trkpt>
      <trkpt lat="42.1814280" lon="-1.7323950">
        <ele>278.4</ele>
        <time>2021-09-29T08:36:30Z</time>
      </trkpt>
      <trkpt lat="42.1814590" lon="-1.7327710">
        <ele>278.8</ele>
        <time>2021-09-29T08:36:35Z</time>
      </trkpt>
      <trkpt lat="42.1814670" lon="-1.7330690">
        <ele>279.2</ele>
        <time>2021-09-29T08:36:39Z</time>
      </trkpt>
      <trkpt lat="42.1814670" lon="-1.7331420">
        <ele>279.4</ele>
        <time>2021-09-29T08:36:40Z</time>
      </trkpt>
      <trkpt lat="42.1814560" lon="-1.7335080">
        <ele>280.2</ele>
        <time>2021-09-29T08:36:45Z</time>
      </trkpt>
      <trkpt lat="42.1814370" lon="-1.7338010">
        <ele>280.6</ele>
        <time>2021-09-29T08:36:49Z</time>
      </trkpt>
      <trkpt lat="42.1814170" lon="-1.7340940">
        <ele>281.6</ele>
        <time>2021-09-29T08:36:53Z</time>
      </trkpt>
      <trkpt lat="42.1813920" lon="-1.7345230">
        <ele>282.8</ele>
        <time>2021-09-29T08:36:59Z</time>
      </trkpt>
      <trkpt lat="42.1813970" lon="-1.7350200">
        <ele>283.4</ele>
        <time>2021-09-29T08:37:06Z</time>
      </trkpt>
      <trkpt lat="42.1814010" lon="-1.7351620">
        <ele>284.0</ele>
        <time>2021-09-29T08:37:08Z</time>
      </trkpt>
      <trkpt lat="42.1814240" lon="-1.7357130">
        <ele>284.8</ele>
        <time>2021-09-29T08:37:16Z</time>
      </trkpt>
      <trkpt lat="42.1814310" lon="-1.7358480">
        <ele>285.0</ele>
        <time>2021-09-29T08:37:18Z</time>
      </trkpt>
      <trkpt lat="42.1814490" lon="-1.7362530">
        <ele>286.2</ele>
        <time>2021-09-29T08:37:24Z</time>
      </trkpt>
      <trkpt lat="42.1814700" lon="-1.7367200">
        <ele>287.2</ele>
        <time>2021-09-29T08:37:31Z</time>
      </trkpt>
      <trkpt lat="42.1814820" lon="-1.7371230">
        <ele>288.2</ele>
        <time>2021-09-29T08:37:37Z</time>
      </trkpt>
      <trkpt lat="42.1814810" lon="-1.7371890">
        <ele>288.4</ele>
        <time>2021-09-29T08:37:38Z</time>
      </trkpt>
      <trkpt lat="42.1814940" lon="-1.7373840">
        <ele>289.6</ele>
        <time>2021-09-29T08:37:41Z</time>
      </trkpt>
      <trkpt lat="42.1815270" lon="-1.7381660">
        <ele>290.4</ele>
        <time>2021-09-29T08:37:53Z</time>
      </trkpt>
      <trkpt lat="42.1815300" lon="-1.7382290">
        <ele>290.4</ele>
        <time>2021-09-29T08:37:54Z</time>
      </trkpt>
      <trkpt lat="42.1815410" lon="-1.7384200">
        <ele>290.6</ele>
        <time>2021-09-29T08:37:57Z</time>
      </trkpt>
      <trkpt lat="42.1815490" lon="-1.7386200">
        <ele>291.4</ele>
        <time>2021-09-29T08:38:00Z</time>
      </trkpt>
      <trkpt lat="42.1815590" lon="-1.7388220">
        <ele>291.8</ele>
        <time>2021-09-29T08:38:03Z</time>
      </trkpt>
      <trkpt lat="42.1815660" lon="-1.7389550">
        <ele>292.2</ele>
        <time>2021-09-29T08:38:05Z</time>
      </trkpt>
      <trkpt lat="42.1815780" lon="-1.7392880">
        <ele>292.8</ele>
        <time>2021-09-29T08:38:10Z</time>
      </trkpt>
      <trkpt lat="42.1815980" lon="-1.7397750">
        <ele>293.2</ele>
        <time>2021-09-29T08:38:17Z</time>
      </trkpt>
      <trkpt lat="42.1816130" lon="-1.7401990">
        <ele>293.8</ele>
        <time>2021-09-29T08:38:23Z</time>
      </trkpt>
      <trkpt lat="42.1816290" lon="-1.7406160">
        <ele>294.6</ele>
        <time>2021-09-29T08:38:29Z</time>
      </trkpt>
      <trkpt lat="42.1816500" lon="-1.7412930">
        <ele>295.8</ele>
        <time>2021-09-29T08:38:39Z</time>
      </trkpt>
      <trkpt lat="42.1816630" lon="-1.7416990">
        <ele>296.0</ele>
        <time>2021-09-29T08:38:45Z</time>
      </trkpt>
      <trkpt lat="42.1816240" lon="-1.7422270">
        <ele>296.0</ele>
        <time>2021-09-29T08:38:53Z</time>
      </trkpt>
      <trkpt lat="42.1816250" lon="-1.7424170">
        <ele>295.8</ele>
        <time>2021-09-29T08:38:56Z</time>
      </trkpt>
      <trkpt lat="42.1815720" lon="-1.7426580">
        <ele>295.8</ele>
        <time>2021-09-29T08:39:00Z</time>
      </trkpt>
      <trkpt lat="42.1813160" lon="-1.7433000">
        <ele>296.6</ele>
        <time>2021-09-29T08:39:12Z</time>
      </trkpt>
      <trkpt lat="42.1812950" lon="-1.7433530">
        <ele>296.8</ele>
        <time>2021-09-29T08:39:13Z</time>
      </trkpt>
      <trkpt lat="42.1811480" lon="-1.7439120">
        <ele>298.0</ele>
        <time>2021-09-29T08:39:24Z</time>
      </trkpt>
      <trkpt lat="42.1811500" lon="-1.7439660">
        <ele>298.2</ele>
        <time>2021-09-29T08:39:25Z</time>
      </trkpt>
      <trkpt lat="42.1811500" lon="-1.7441200">
        <ele>298.4</ele>
        <time>2021-09-29T08:39:28Z</time>
      </trkpt>
      <trkpt lat="42.1812150" lon="-1.7442730">
        <ele>299.0</ele>
        <time>2021-09-29T08:39:32Z</time>
      </trkpt>
      <trkpt lat="42.1812880" lon="-1.7443380">
        <ele>299.0</ele>
        <time>2021-09-29T08:39:34Z</time>
      </trkpt>
      <trkpt lat="42.1817590" lon="-1.7447780">
        <ele>299.6</ele>
        <time>2021-09-29T08:39:46Z</time>
      </trkpt>
      <trkpt lat="42.1819620" lon="-1.7449290">
        <ele>299.0</ele>
        <time>2021-09-29T08:39:50Z</time>
      </trkpt>
      <trkpt lat="42.1821160" lon="-1.7450440">
        <ele>298.2</ele>
        <time>2021-09-29T08:39:53Z</time>
      </trkpt>
      <trkpt lat="42.1822130" lon="-1.7451330">
        <ele>298.0</ele>
        <time>2021-09-29T08:39:55Z</time>
      </trkpt>
      <trkpt lat="42.1823460" lon="-1.7454360">
        <ele>296.8</ele>
        <time>2021-09-29T08:39:59Z</time>
      </trkpt>
      <trkpt lat="42.1824220" lon="-1.7456870">
        <ele>295.8</ele>
        <time>2021-09-29T08:40:02Z</time>
      </trkpt>
      <trkpt lat="42.1824300" lon="-1.7457800">
        <ele>295.2</ele>
        <time>2021-09-29T08:40:03Z</time>
      </trkpt>
      <trkpt lat="42.1824010" lon="-1.7459690">
        <ele>293.8</ele>
        <time>2021-09-29T08:40:05Z</time>
      </trkpt>
      <trkpt lat="42.1823410" lon="-1.7461460">
        <ele>292.6</ele>
        <time>2021-09-29T08:40:07Z</time>
      </trkpt>
      <trkpt lat="42.1823070" lon="-1.7462280">
        <ele>292.2</ele>
        <time>2021-09-29T08:40:08Z</time>
      </trkpt>
      <trkpt lat="42.1822490" lon="-1.7463850">
        <ele>291.6</ele>
        <time>2021-09-29T08:40:10Z</time>
      </trkpt>
      <trkpt lat="42.1822290" lon="-1.7464630">
        <ele>291.0</ele>
        <time>2021-09-29T08:40:11Z</time>
      </trkpt>
      <trkpt lat="42.1822270" lon="-1.7465490">
        <ele>290.2</ele>
        <time>2021-09-29T08:40:12Z</time>
      </trkpt>
      <trkpt lat="42.1822500" lon="-1.7467220">
        <ele>288.8</ele>
        <time>2021-09-29T08:40:14Z</time>
      </trkpt>
      <trkpt lat="42.1822740" lon="-1.7469030">
        <ele>287.8</ele>
        <time>2021-09-29T08:40:16Z</time>
      </trkpt>
      <trkpt lat="42.1823020" lon="-1.7471810">
        <ele>286.0</ele>
        <time>2021-09-29T08:40:19Z</time>
      </trkpt>
      <trkpt lat="42.1823100" lon="-1.7473760">
        <ele>284.2</ele>
        <time>2021-09-29T08:40:21Z</time>
      </trkpt>
      <trkpt lat="42.1823140" lon="-1.7475700">
        <ele>282.6</ele>
        <time>2021-09-29T08:40:23Z</time>
      </trkpt>
      <trkpt lat="42.1823180" lon="-1.7481080">
        <ele>282.0</ele>
        <time>2021-09-29T08:40:29Z</time>
      </trkpt>
      <trkpt lat="42.1823180" lon="-1.7483430">
        <ele>282.0</ele>
        <time>2021-09-29T08:40:32Z</time>
      </trkpt>
      <trkpt lat="42.1824070" lon="-1.7487760">
        <ele>283.4</ele>
        <time>2021-09-29T08:40:41Z</time>
      </trkpt>
      <trkpt lat="42.1825480" lon="-1.7487500">
        <ele>283.6</ele>
        <time>2021-09-29T08:40:44Z</time>
      </trkpt>
      <trkpt lat="42.1825980" lon="-1.7487230">
        <ele>283.6</ele>
        <time>2021-09-29T08:40:45Z</time>
      </trkpt>
      <trkpt lat="42.1831230" lon="-1.7484620">
        <ele>283.6</ele>
        <time>2021-09-29T08:40:54Z</time>
      </trkpt>
      <trkpt lat="42.1834370" lon="-1.7483210">
        <ele>282.2</ele>
        <time>2021-09-29T08:40:59Z</time>
      </trkpt>
      <trkpt lat="42.1836360" lon="-1.7482440">
        <ele>281.6</ele>
        <time>2021-09-29T08:41:02Z</time>
      </trkpt>
      <trkpt lat="42.1837720" lon="-1.7481990">
        <ele>281.4</ele>
        <time>2021-09-29T08:41:04Z</time>
      </trkpt>
      <trkpt lat="42.1839060" lon="-1.7481650">
        <ele>280.8</ele>
        <time>2021-09-29T08:41:06Z</time>
      </trkpt>
      <trkpt lat="42.1840360" lon="-1.7481390">
        <ele>280.4</ele>
        <time>2021-09-29T08:41:08Z</time>
      </trkpt>
      <trkpt lat="42.1842280" lon="-1.7481120">
        <ele>279.0</ele>
        <time>2021-09-29T08:41:11Z</time>
      </trkpt>
      <trkpt lat="42.1845560" lon="-1.7481060">
        <ele>278.0</ele>
        <time>2021-09-29T08:41:16Z</time>
      </trkpt>
      <trkpt lat="42.1846210" lon="-1.7481060">
        <ele>278.0</ele>
        <time>2021-09-29T08:41:17Z</time>
      </trkpt>
      <trkpt lat="42.1850430" lon="-1.7481200">
        <ele>277.6</ele>
        <time>2021-09-29T08:41:24Z</time>
      </trkpt>
      <trkpt lat="42.1854960" lon="-1.7481490">
        <ele>277.6</ele>
        <time>2021-09-29T08:41:33Z</time>
      </trkpt>
      <trkpt lat="42.1860530" lon="-1.7481680">
        <ele>277.8</ele>
        <time>2021-09-29T08:41:46Z</time>
      </trkpt>
      <trkpt lat="42.1861590" lon="-1.7481040">
        <ele>278.0</ele>
        <time>2021-09-29T08:41:50Z</time>
      </trkpt>
      <trkpt lat="42.1861230" lon="-1.7482640">
        <ele>279.0</ele>
        <time>2021-09-29T08:41:56Z</time>
      </trkpt>
      <trkpt lat="42.1859890" lon="-1.7482750">
        <ele>279.2</ele>
        <time>2021-09-29T08:41:59Z</time>
      </trkpt>
      <trkpt lat="42.1856130" lon="-1.7482740">
        <ele>279.2</ele>
        <time>2021-09-29T08:42:06Z</time>
      </trkpt>
      <trkpt lat="42.1850370" lon="-1.7482370">
        <ele>278.6</ele>
        <time>2021-09-29T08:42:16Z</time>
      </trkpt>
      <trkpt lat="42.1844740" lon="-1.7481990">
        <ele>278.2</ele>
        <time>2021-09-29T08:42:26Z</time>
      </trkpt>
      <trkpt lat="42.1841030" lon="-1.7482370">
        <ele>278.6</ele>
        <time>2021-09-29T08:42:34Z</time>
      </trkpt>
      <trkpt lat="42.1842880" lon="-1.7485240">
        <ele>279.6</ele>
        <time>2021-09-29T08:42:43Z</time>
      </trkpt>
      <trkpt lat="42.1844960" lon="-1.7487050">
        <ele>279.6</ele>
        <time>2021-09-29T08:42:48Z</time>
      </trkpt>
      <trkpt lat="42.1846990" lon="-1.7487840">
        <ele>279.6</ele>
        <time>2021-09-29T08:42:52Z</time>
      </trkpt>
      <trkpt lat="42.1849640" lon="-1.7488520">
        <ele>279.6</ele>
        <time>2021-09-29T08:42:57Z</time>
      </trkpt>
      <trkpt lat="42.1852950" lon="-1.7489270">
        <ele>279.4</ele>
        <time>2021-09-29T08:43:03Z</time>
      </trkpt>
      <trkpt lat="42.1853490" lon="-1.7489500">
        <ele>279.6</ele>
        <time>2021-09-29T08:43:04Z</time>
      </trkpt>
      <trkpt lat="42.1858580" lon="-1.7492650">
        <ele>279.4</ele>
        <time>2021-09-29T08:43:14Z</time>
      </trkpt>
      <trkpt lat="42.1862540" lon="-1.7495750">
        <ele>280.0</ele>
        <time>2021-09-29T08:43:22Z</time>
      </trkpt>
      <trkpt lat="42.1867620" lon="-1.7499400">
        <ele>280.2</ele>
        <time>2021-09-29T08:43:32Z</time>
      </trkpt>
      <trkpt lat="42.1870090" lon="-1.7500700">
        <ele>280.2</ele>
        <time>2021-09-29T08:43:37Z</time>
      </trkpt>
      <trkpt lat="42.1871620" lon="-1.7501030">
        <ele>280.2</ele>
        <time>2021-09-29T08:43:40Z</time>
      </trkpt>
      <trkpt lat="42.1872610" lon="-1.7500980">
        <ele>280.2</ele>
        <time>2021-09-29T08:43:42Z</time>
      </trkpt>
      <trkpt lat="42.1873750" lon="-1.7500100">
        <ele>280.2</ele>
        <time>2021-09-29T08:43:45Z</time>
      </trkpt>
      <trkpt lat="42.1874340" lon="-1.7499030">
        <ele>280.8</ele>
        <time>2021-09-29T08:43:47Z</time>
      </trkpt>
      <trkpt lat="42.1874620" lon="-1.7498320">
        <ele>281.4</ele>
        <time>2021-09-29T08:43:48Z</time>
      </trkpt>
      <trkpt lat="42.1875610" lon="-1.7496060">
        <ele>281.8</ele>
        <time>2021-09-29T08:43:51Z</time>
      </trkpt>
      <trkpt lat="42.1876300" lon="-1.7494700">
        <ele>281.8</ele>
        <time>2021-09-29T08:43:53Z</time>
      </trkpt>
      <trkpt lat="42.1876650" lon="-1.7494020">
        <ele>281.8</ele>
        <time>2021-09-29T08:43:54Z</time>
      </trkpt>
      <trkpt lat="42.1879060" lon="-1.7489480">
        <ele>280.6</ele>
        <time>2021-09-29T08:44:00Z</time>
      </trkpt>
      <trkpt lat="42.1879410" lon="-1.7488640">
        <ele>280.2</ele>
        <time>2021-09-29T08:44:01Z</time>
      </trkpt>
      <trkpt lat="42.1879900" lon="-1.7486880">
        <ele>279.8</ele>
        <time>2021-09-29T08:44:03Z</time>
      </trkpt>
      <trkpt lat="42.1880210" lon="-1.7485130">
        <ele>279.4</ele>
        <time>2021-09-29T08:44:05Z</time>
      </trkpt>
      <trkpt lat="42.1880480" lon="-1.7481640">
        <ele>278.8</ele>
        <time>2021-09-29T08:44:09Z</time>
      </trkpt>
      <trkpt lat="42.1880140" lon="-1.7476470">
        <ele>278.8</ele>
        <time>2021-09-29T08:44:16Z</time>
      </trkpt>
      <trkpt lat="42.1880150" lon="-1.7475340">
        <ele>278.8</ele>
        <time>2021-09-29T08:44:19Z</time>
      </trkpt>
      <trkpt lat="42.1880250" lon="-1.7475210">
        <ele>279.2</ele>
        <time>2021-09-29T08:44:20Z</time>
      </trkpt>
      <trkpt lat="42.1880500" lon="-1.7475280">
        <ele>279.8</ele>
        <time>2021-09-29T08:44:22Z</time>
      </trkpt>
      <trkpt lat="42.1880470" lon="-1.7476380">
        <ele>280.2</ele>
        <time>2021-09-29T08:44:26Z</time>
      </trkpt>
      <trkpt lat="42.1880430" lon="-1.7478230">
        <ele>280.2</ele>
        <time>2021-09-29T08:44:30Z</time>
      </trkpt>
      <trkpt lat="42.1880450" lon="-1.7478780">
        <ele>280.2</ele>
        <time>2021-09-29T08:44:31Z</time>
      </trkpt>
      <trkpt lat="42.1880690" lon="-1.7481740">
        <ele>279.8</ele>
        <time>2021-09-29T08:44:36Z</time>
      </trkpt>
      <trkpt lat="42.1880560" lon="-1.7484760">
        <ele>279.4</ele>
        <time>2021-09-29T08:44:41Z</time>
      </trkpt>
      <trkpt lat="42.1880310" lon="-1.7486400">
        <ele>279.4</ele>
        <time>2021-09-29T08:44:44Z</time>
      </trkpt>
      <trkpt lat="42.1880200" lon="-1.7487200">
        <ele>279.6</ele>
        <time>2021-09-29T08:44:46Z</time>
      </trkpt>
      <trkpt lat="42.1880140" lon="-1.7487990">
        <ele>279.6</ele>
        <time>2021-09-29T08:44:49Z</time>
      </trkpt>
      <trkpt lat="42.1880700" lon="-1.7488040">
        <ele>279.8</ele>
        <time>2021-09-29T08:44:52Z</time>
      </trkpt>
      <trkpt lat="42.1881420" lon="-1.7487740">
        <ele>280.0</ele>
        <time>2021-09-29T08:44:54Z</time>
      </trkpt>
      <trkpt lat="42.1882350" lon="-1.7487660">
        <ele>280.0</ele>
        <time>2021-09-29T08:44:56Z</time>
      </trkpt>
      <trkpt lat="42.1884480" lon="-1.7487900">
        <ele>280.0</ele>
        <time>2021-09-29T08:45:00Z</time>
      </trkpt>
      <trkpt lat="42.1886050" lon="-1.7488840">
        <ele>279.0</ele>
        <time>2021-09-29T08:45:03Z</time>
      </trkpt>
      <trkpt lat="42.1887000" lon="-1.7489720">
        <ele>278.4</ele>
        <time>2021-09-29T08:45:05Z</time>
      </trkpt>
      <trkpt lat="42.1887860" lon="-1.7490800">
        <ele>277.6</ele>
        <time>2021-09-29T08:45:07Z</time>
      </trkpt>
      <trkpt lat="42.1888270" lon="-1.7491380">
        <ele>277.4</ele>
        <time>2021-09-29T08:45:08Z</time>
      </trkpt>
      <trkpt lat="42.1891790" lon="-1.7497710">
        <ele>276.8</ele>
        <time>2021-09-29T08:45:18Z</time>
      </trkpt>
      <trkpt lat="42.1893600" lon="-1.7500870">
        <ele>276.2</ele>
        <time>2021-09-29T08:45:23Z</time>
      </trkpt>
      <trkpt lat="42.1896700" lon="-1.7505660">
        <ele>275.8</ele>
        <time>2021-09-29T08:45:31Z</time>
      </trkpt>
      <trkpt lat="42.1899870" lon="-1.7509290">
        <ele>275.6</ele>
        <time>2021-09-29T08:45:38Z</time>
      </trkpt>
      <trkpt lat="42.1902090" lon="-1.7509880">
        <ele>275.6</ele>
        <time>2021-09-29T08:45:42Z</time>
      </trkpt>
      <trkpt lat="42.1903580" lon="-1.7510220">
        <ele>275.6</ele>
        <time>2021-09-29T08:45:45Z</time>
      </trkpt>
      <trkpt lat="42.1904870" lon="-1.7510720">
        <ele>275.6</ele>
        <time>2021-09-29T08:45:49Z</time>
      </trkpt>
      <trkpt lat="42.1904720" lon="-1.7510960">
        <ele>275.6</ele>
        <time>2021-09-29T08:45:51Z</time>
      </trkpt>
      <trkpt lat="42.1903020" lon="-1.7510280">
        <ele>277.4</ele>
        <time>2021-09-29T08:45:57Z</time>
      </trkpt>
      <trkpt lat="42.1901670" lon="-1.7510070">
        <ele>278.4</ele>
        <time>2021-09-29T08:46:01Z</time>
      </trkpt>
      <trkpt lat="42.1902010" lon="-1.7512560">
        <ele>278.6</ele>
        <time>2021-09-29T08:46:07Z</time>
      </trkpt>
      <trkpt lat="42.1902290" lon="-1.7513090">
        <ele>278.6</ele>
        <time>2021-09-29T08:46:08Z</time>
      </trkpt>
      <trkpt lat="42.1902980" lon="-1.7514920">
        <ele>278.0</ele>
        <time>2021-09-29T08:46:11Z</time>
      </trkpt>
      <trkpt lat="42.1903310" lon="-1.7516240">
        <ele>276.8</ele>
        <time>2021-09-29T08:46:13Z</time>
      </trkpt>
      <trkpt lat="42.1904870" lon="-1.7523770">
        <ele>276.0</ele>
        <time>2021-09-29T08:46:24Z</time>
      </trkpt>
      <trkpt lat="42.1906320" lon="-1.7526880">
        <ele>276.2</ele>
        <time>2021-09-29T08:46:29Z</time>
      </trkpt>
      <trkpt lat="42.1907710" lon="-1.7529220">
        <ele>276.8</ele>
        <time>2021-09-29T08:46:33Z</time>
      </trkpt>
      <trkpt lat="42.1911610" lon="-1.7534820">
        <ele>277.0</ele>
        <time>2021-09-29T08:46:43Z</time>
      </trkpt>
      <trkpt lat="42.1913780" lon="-1.7537350">
        <ele>277.0</ele>
        <time>2021-09-29T08:46:48Z</time>
      </trkpt>
      <trkpt lat="42.1918250" lon="-1.7541680">
        <ele>276.6</ele>
        <time>2021-09-29T08:46:58Z</time>
      </trkpt>
      <trkpt lat="42.1920040" lon="-1.7544650">
        <ele>276.2</ele>
        <time>2021-09-29T08:47:03Z</time>
      </trkpt>
      <trkpt lat="42.1920720" lon="-1.7545960">
        <ele>275.8</ele>
        <time>2021-09-29T08:47:05Z</time>
      </trkpt>
      <trkpt lat="42.1923930" lon="-1.7551990">
        <ele>275.2</ele>
        <time>2021-09-29T08:47:14Z</time>
      </trkpt>
      <trkpt lat="42.1925710" lon="-1.7556280">
        <ele>275.0</ele>
        <time>2021-09-29T08:47:20Z</time>
      </trkpt>
      <trkpt lat="42.1928350" lon="-1.7559690">
        <ele>274.6</ele>
        <time>2021-09-29T08:47:26Z</time>
      </trkpt>
      <trkpt lat="42.1932920" lon="-1.7564240">
        <ele>274.2</ele>
        <time>2021-09-29T08:47:35Z</time>
      </trkpt>
      <trkpt lat="42.1937520" lon="-1.7568960">
        <ele>273.8</ele>
        <time>2021-09-29T08:47:44Z</time>
      </trkpt>
      <trkpt lat="42.1940200" lon="-1.7572380">
        <ele>273.6</ele>
        <time>2021-09-29T08:47:50Z</time>
      </trkpt>
      <trkpt lat="42.1941330" lon="-1.7577150">
        <ele>273.0</ele>
        <time>2021-09-29T08:47:56Z</time>
      </trkpt>
      <trkpt lat="42.1941990" lon="-1.7580390">
        <ele>273.0</ele>
        <time>2021-09-29T08:48:00Z</time>
      </trkpt>
      <trkpt lat="42.1944740" lon="-1.7583500">
        <ele>272.8</ele>
        <time>2021-09-29T08:48:06Z</time>
      </trkpt>
      <trkpt lat="42.1945330" lon="-1.7583760">
        <ele>272.8</ele>
        <time>2021-09-29T08:48:07Z</time>
      </trkpt>
      <trkpt lat="42.1947190" lon="-1.7585930">
        <ele>272.6</ele>
        <time>2021-09-29T08:48:11Z</time>
      </trkpt>
      <trkpt lat="42.1949100" lon="-1.7589450">
        <ele>272.6</ele>
        <time>2021-09-29T08:48:16Z</time>
      </trkpt>
      <trkpt lat="42.1950090" lon="-1.7590630">
        <ele>272.4</ele>
        <time>2021-09-29T08:48:18Z</time>
      </trkpt>
      <trkpt lat="42.1954530" lon="-1.7595680">
        <ele>271.6</ele>
        <time>2021-09-29T08:48:27Z</time>
      </trkpt>
      <trkpt lat="42.1958210" lon="-1.7601590">
        <ele>271.6</ele>
        <time>2021-09-29T08:48:36Z</time>
      </trkpt>
      <trkpt lat="42.1962290" lon="-1.7607430">
        <ele>271.6</ele>
        <time>2021-09-29T08:48:45Z</time>
      </trkpt>
      <trkpt lat="42.1965860" lon="-1.7613380">
        <ele>271.4</ele>
        <time>2021-09-29T08:48:54Z</time>
      </trkpt>
      <trkpt lat="42.1966320" lon="-1.7613950">
        <ele>271.2</ele>
        <time>2021-09-29T08:48:55Z</time>
      </trkpt>
      <trkpt lat="42.1969680" lon="-1.7619760">
        <ele>270.4</ele>
        <time>2021-09-29T08:49:04Z</time>
      </trkpt>
      <trkpt lat="42.1972520" lon="-1.7626040">
        <ele>270.2</ele>
        <time>2021-09-29T08:49:13Z</time>
      </trkpt>
      <trkpt lat="42.1974020" lon="-1.7628740">
        <ele>270.2</ele>
        <time>2021-09-29T08:49:17Z</time>
      </trkpt>
      <trkpt lat="42.1975780" lon="-1.7631200">
        <ele>270.2</ele>
        <time>2021-09-29T08:49:21Z</time>
      </trkpt>
      <trkpt lat="42.1977110" lon="-1.7632890">
        <ele>270.0</ele>
        <time>2021-09-29T08:49:24Z</time>
      </trkpt>
      <trkpt lat="42.1980770" lon="-1.7638330">
        <ele>270.0</ele>
        <time>2021-09-29T08:49:33Z</time>
      </trkpt>
      <trkpt lat="42.1983780" lon="-1.7644500">
        <ele>270.6</ele>
        <time>2021-09-29T08:49:42Z</time>
      </trkpt>
      <trkpt lat="42.1987100" lon="-1.7651150">
        <ele>271.0</ele>
        <time>2021-09-29T08:49:52Z</time>
      </trkpt>
      <trkpt lat="42.1987470" lon="-1.7651780">
        <ele>271.2</ele>
        <time>2021-09-29T08:49:53Z</time>
      </trkpt>
      <trkpt lat="42.1990930" lon="-1.7658140">
        <ele>271.4</ele>
        <time>2021-09-29T08:50:03Z</time>
      </trkpt>
      <trkpt lat="42.1992220" lon="-1.7660840">
        <ele>271.6</ele>
        <time>2021-09-29T08:50:07Z</time>
      </trkpt>
      <trkpt lat="42.1992150" lon="-1.7665020">
        <ele>271.6</ele>
        <time>2021-09-29T08:50:12Z</time>
      </trkpt>
      <trkpt lat="42.1989920" lon="-1.7672390">
        <ele>271.8</ele>
        <time>2021-09-29T08:50:21Z</time>
      </trkpt>
      <trkpt lat="42.1987740" lon="-1.7678560">
        <ele>272.0</ele>
        <time>2021-09-29T08:50:29Z</time>
      </trkpt>
      <trkpt lat="42.1985460" lon="-1.7685170">
        <ele>272.2</ele>
        <time>2021-09-29T08:50:38Z</time>
      </trkpt>
      <trkpt lat="42.1984700" lon="-1.7687220">
        <ele>272.4</ele>
        <time>2021-09-29T08:50:41Z</time>
      </trkpt>
      <trkpt lat="42.1985910" lon="-1.7690700">
        <ele>273.2</ele>
        <time>2021-09-29T08:50:47Z</time>
      </trkpt>
      <trkpt lat="42.1989390" lon="-1.7694620">
        <ele>273.4</ele>
        <time>2021-09-29T08:50:55Z</time>
      </trkpt>
      <trkpt lat="42.1993980" lon="-1.7699350">
        <ele>273.2</ele>
        <time>2021-09-29T08:51:05Z</time>
      </trkpt>
      <trkpt lat="42.1996950" lon="-1.7702590">
        <ele>273.0</ele>
        <time>2021-09-29T08:51:12Z</time>
      </trkpt>
      <trkpt lat="42.2000610" lon="-1.7708540">
        <ele>272.6</ele>
        <time>2021-09-29T08:51:22Z</time>
      </trkpt>
      <trkpt lat="42.2003340" lon="-1.7715660">
        <ele>272.2</ele>
        <time>2021-09-29T08:51:32Z</time>
      </trkpt>
      <trkpt lat="42.2005230" lon="-1.7720730">
        <ele>272.2</ele>
        <time>2021-09-29T08:51:39Z</time>
      </trkpt>
      <trkpt lat="42.2006360" lon="-1.7724410">
        <ele>271.8</ele>
        <time>2021-09-29T08:51:44Z</time>
      </trkpt>
      <trkpt lat="42.2005710" lon="-1.7730640">
        <ele>271.8</ele>
        <time>2021-09-29T08:51:52Z</time>
      </trkpt>
      <trkpt lat="42.2003250" lon="-1.7736960">
        <ele>272.8</ele>
        <time>2021-09-29T08:52:01Z</time>
      </trkpt>
      <trkpt lat="42.2003430" lon="-1.7740830">
        <ele>272.8</ele>
        <time>2021-09-29T08:52:06Z</time>
      </trkpt>
      <trkpt lat="42.2003930" lon="-1.7742380">
        <ele>272.8</ele>
        <time>2021-09-29T08:52:08Z</time>
      </trkpt>
      <trkpt lat="42.2004830" lon="-1.7745440">
        <ele>272.8</ele>
        <time>2021-09-29T08:52:12Z</time>
      </trkpt>
      <trkpt lat="42.2005790" lon="-1.7750130">
        <ele>273.0</ele>
        <time>2021-09-29T08:52:18Z</time>
      </trkpt>
      <trkpt lat="42.2007260" lon="-1.7757270">
        <ele>273.4</ele>
        <time>2021-09-29T08:52:27Z</time>
      </trkpt>
      <trkpt lat="42.2008300" lon="-1.7762650">
        <ele>273.4</ele>
        <time>2021-09-29T08:52:34Z</time>
      </trkpt>
      <trkpt lat="42.2009950" lon="-1.7770190">
        <ele>273.8</ele>
        <time>2021-09-29T08:52:44Z</time>
      </trkpt>
      <trkpt lat="42.2010100" lon="-1.7770960">
        <ele>274.0</ele>
        <time>2021-09-29T08:52:45Z</time>
      </trkpt>
      <trkpt lat="42.2010660" lon="-1.7774160">
        <ele>274.2</ele>
        <time>2021-09-29T08:52:49Z</time>
      </trkpt>
      <trkpt lat="42.2011950" lon="-1.7781270">
        <ele>274.6</ele>
        <time>2021-09-29T08:52:58Z</time>
      </trkpt>
      <trkpt lat="42.2014030" lon="-1.7788080">
        <ele>275.0</ele>
        <time>2021-09-29T08:53:07Z</time>
      </trkpt>
      <trkpt lat="42.2014250" lon="-1.7788820">
        <ele>275.0</ele>
        <time>2021-09-29T08:53:08Z</time>
      </trkpt>
      <trkpt lat="42.2016380" lon="-1.7795820">
        <ele>274.8</ele>
        <time>2021-09-29T08:53:18Z</time>
      </trkpt>
      <trkpt lat="42.2019220" lon="-1.7802470">
        <ele>274.8</ele>
        <time>2021-09-29T08:53:28Z</time>
      </trkpt>
      <trkpt lat="42.2022340" lon="-1.7808800">
        <ele>274.0</ele>
        <time>2021-09-29T08:53:38Z</time>
      </trkpt>
      <trkpt lat="42.2023010" lon="-1.7810050">
        <ele>274.0</ele>
        <time>2021-09-29T08:53:40Z</time>
      </trkpt>
      <trkpt lat="42.2026440" lon="-1.7816180">
        <ele>274.0</ele>
        <time>2021-09-29T08:53:50Z</time>
      </trkpt>
      <trkpt lat="42.2030100" lon="-1.7821540">
        <ele>274.4</ele>
        <time>2021-09-29T08:54:00Z</time>
      </trkpt>
      <trkpt lat="42.2030840" lon="-1.7822550">
        <ele>274.6</ele>
        <time>2021-09-29T08:54:02Z</time>
      </trkpt>
      <trkpt lat="42.2031650" lon="-1.7823460">
        <ele>274.6</ele>
        <time>2021-09-29T08:54:04Z</time>
      </trkpt>
      <trkpt lat="42.2032990" lon="-1.7826480">
        <ele>274.6</ele>
        <time>2021-09-29T08:54:09Z</time>
      </trkpt>
      <trkpt lat="42.2034650" lon="-1.7830970">
        <ele>274.0</ele>
        <time>2021-09-29T08:54:16Z</time>
      </trkpt>
      <trkpt lat="42.2035280" lon="-1.7832090">
        <ele>273.8</ele>
        <time>2021-09-29T08:54:18Z</time>
      </trkpt>
      <trkpt lat="42.2038390" lon="-1.7838720">
        <ele>273.4</ele>
        <time>2021-09-29T08:54:29Z</time>
      </trkpt>
      <trkpt lat="42.2039150" lon="-1.7840590">
        <ele>273.4</ele>
        <time>2021-09-29T08:54:32Z</time>
      </trkpt>
      <trkpt lat="42.2041390" lon="-1.7847960">
        <ele>273.2</ele>
        <time>2021-09-29T08:54:43Z</time>
      </trkpt>
      <trkpt lat="42.2043660" lon="-1.7855140">
        <ele>272.8</ele>
        <time>2021-09-29T08:54:54Z</time>
      </trkpt>
      <trkpt lat="42.2044090" lon="-1.7856450">
        <ele>272.8</ele>
        <time>2021-09-29T08:54:56Z</time>
      </trkpt>
      <trkpt lat="42.2046180" lon="-1.7863650">
        <ele>273.0</ele>
        <time>2021-09-29T08:55:07Z</time>
      </trkpt>
      <trkpt lat="42.2047330" lon="-1.7867600">
        <ele>273.4</ele>
        <time>2021-09-29T08:55:13Z</time>
      </trkpt>
      <trkpt lat="42.2047910" lon="-1.7870120">
        <ele>273.8</ele>
        <time>2021-09-29T08:55:17Z</time>
      </trkpt>
      <trkpt lat="42.2049200" lon="-1.7874740">
        <ele>274.6</ele>
        <time>2021-09-29T08:55:24Z</time>
      </trkpt>
      <trkpt lat="42.2051480" lon="-1.7881040">
        <ele>274.4</ele>
        <time>2021-09-29T08:55:33Z</time>
      </trkpt>
      <trkpt lat="42.2053280" lon="-1.7886750">
        <ele>272.6</ele>
        <time>2021-09-29T08:55:41Z</time>
      </trkpt>
      <trkpt lat="42.2055120" lon="-1.7894290">
        <ele>271.8</ele>
        <time>2021-09-29T08:55:52Z</time>
      </trkpt>
      <trkpt lat="42.2056190" lon="-1.7899180">
        <ele>272.2</ele>
        <time>2021-09-29T08:56:00Z</time>
      </trkpt>
      <trkpt lat="42.2056810" lon="-1.7901460">
        <ele>273.6</ele>
        <time>2021-09-29T08:56:04Z</time>
      </trkpt>
      <trkpt lat="42.2057410" lon="-1.7903160">
        <ele>274.8</ele>
        <time>2021-09-29T08:56:07Z</time>
      </trkpt>
      <trkpt lat="42.2058380" lon="-1.7906550">
        <ele>275.4</ele>
        <time>2021-09-29T08:56:12Z</time>
      </trkpt>
      <trkpt lat="42.2058960" lon="-1.7908720">
        <ele>275.4</ele>
        <time>2021-09-29T08:56:15Z</time>
      </trkpt>
      <trkpt lat="42.2060010" lon="-1.7912440">
        <ele>273.8</ele>
        <time>2021-09-29T08:56:20Z</time>
      </trkpt>
      <trkpt lat="42.2060760" lon="-1.7915400">
        <ele>272.6</ele>
        <time>2021-09-29T08:56:24Z</time>
      </trkpt>
      <trkpt lat="42.2062330" lon="-1.7920390">
        <ele>272.4</ele>
        <time>2021-09-29T08:56:32Z</time>
      </trkpt>
      <trkpt lat="42.2063250" lon="-1.7922750">
        <ele>273.4</ele>
        <time>2021-09-29T08:56:36Z</time>
      </trkpt>
      <trkpt lat="42.2063640" lon="-1.7924000">
        <ele>274.0</ele>
        <time>2021-09-29T08:56:38Z</time>
      </trkpt>
      <trkpt lat="42.2065140" lon="-1.7931000">
        <ele>274.8</ele>
        <time>2021-09-29T08:56:49Z</time>
      </trkpt>
      <trkpt lat="42.2065670" lon="-1.7932930">
        <ele>275.0</ele>
        <time>2021-09-29T08:56:52Z</time>
      </trkpt>
      <trkpt lat="42.2067400" lon="-1.7939940">
        <ele>275.2</ele>
        <time>2021-09-29T08:57:02Z</time>
      </trkpt>
      <trkpt lat="42.2067580" lon="-1.7940650">
        <ele>275.2</ele>
        <time>2021-09-29T08:57:03Z</time>
      </trkpt>
      <trkpt lat="42.2069040" lon="-1.7943620">
        <ele>274.6</ele>
        <time>2021-09-29T08:57:08Z</time>
      </trkpt>
      <trkpt lat="42.2069670" lon="-1.7944690">
        <ele>274.4</ele>
        <time>2021-09-29T08:57:10Z</time>
      </trkpt>
      <trkpt lat="42.2070360" lon="-1.7946440">
        <ele>274.4</ele>
        <time>2021-09-29T08:57:13Z</time>
      </trkpt>
      <trkpt lat="42.2070580" lon="-1.7948890">
        <ele>274.6</ele>
        <time>2021-09-29T08:57:17Z</time>
      </trkpt>
      <trkpt lat="42.2071030" lon="-1.7952680">
        <ele>276.2</ele>
        <time>2021-09-29T08:57:23Z</time>
      </trkpt>
      <trkpt lat="42.2071280" lon="-1.7953870">
        <ele>276.4</ele>
        <time>2021-09-29T08:57:25Z</time>
      </trkpt>
      <trkpt lat="42.2073450" lon="-1.7960040">
        <ele>276.6</ele>
        <time>2021-09-29T08:57:35Z</time>
      </trkpt>
      <trkpt lat="42.2075030" lon="-1.7966300">
        <ele>276.2</ele>
        <time>2021-09-29T08:57:44Z</time>
      </trkpt>
      <trkpt lat="42.2076260" lon="-1.7970670">
        <ele>275.0</ele>
        <time>2021-09-29T08:57:50Z</time>
      </trkpt>
      <trkpt lat="42.2077500" lon="-1.7975120">
        <ele>274.0</ele>
        <time>2021-09-29T08:57:56Z</time>
      </trkpt>
      <trkpt lat="42.2078130" lon="-1.7977430">
        <ele>274.0</ele>
        <time>2021-09-29T08:57:59Z</time>
      </trkpt>
      <trkpt lat="42.2078510" lon="-1.7979020">
        <ele>273.8</ele>
        <time>2021-09-29T08:58:01Z</time>
      </trkpt>
      <trkpt lat="42.2079200" lon="-1.7982010">
        <ele>273.0</ele>
        <time>2021-09-29T08:58:05Z</time>
      </trkpt>
      <trkpt lat="42.2079680" lon="-1.7984210">
        <ele>272.4</ele>
        <time>2021-09-29T08:58:08Z</time>
      </trkpt>
      <trkpt lat="42.2080100" lon="-1.7985660">
        <ele>272.0</ele>
        <time>2021-09-29T08:58:10Z</time>
      </trkpt>
      <trkpt lat="42.2080340" lon="-1.7986410">
        <ele>272.0</ele>
        <time>2021-09-29T08:58:11Z</time>
      </trkpt>
      <trkpt lat="42.2081530" lon="-1.7990410">
        <ele>271.2</ele>
        <time>2021-09-29T08:58:16Z</time>
      </trkpt>
      <trkpt lat="42.2081720" lon="-1.7991250">
        <ele>270.8</ele>
        <time>2021-09-29T08:58:17Z</time>
      </trkpt>
      <trkpt lat="42.2082760" lon="-1.7995270">
        <ele>270.0</ele>
        <time>2021-09-29T08:58:22Z</time>
      </trkpt>
      <trkpt lat="42.2083560" lon="-1.7998470">
        <ele>270.0</ele>
        <time>2021-09-29T08:58:26Z</time>
      </trkpt>
      <trkpt lat="42.2084800" lon="-1.8002920">
        <ele>270.6</ele>
        <time>2021-09-29T08:58:32Z</time>
      </trkpt>
      <trkpt lat="42.2087100" lon="-1.8004790">
        <ele>270.8</ele>
        <time>2021-09-29T08:58:37Z</time>
      </trkpt>
      <trkpt lat="42.2087600" lon="-1.8005010">
        <ele>270.8</ele>
        <time>2021-09-29T08:58:38Z</time>
      </trkpt>
      <trkpt lat="42.2089120" lon="-1.8006770">
        <ele>271.0</ele>
        <time>2021-09-29T08:58:42Z</time>
      </trkpt>
      <trkpt lat="42.2090360" lon="-1.8009150">
        <ele>271.6</ele>
        <time>2021-09-29T08:58:46Z</time>
      </trkpt>
      <trkpt lat="42.2090970" lon="-1.8010410">
        <ele>272.2</ele>
        <time>2021-09-29T08:58:48Z</time>
      </trkpt>
      <trkpt lat="42.2092400" lon="-1.8014520">
        <ele>272.8</ele>
        <time>2021-09-29T08:58:54Z</time>
      </trkpt>
      <trkpt lat="42.2093760" lon="-1.8020260">
        <ele>272.8</ele>
        <time>2021-09-29T08:59:02Z</time>
      </trkpt>
      <trkpt lat="42.2095020" lon="-1.8027480">
        <ele>272.6</ele>
        <time>2021-09-29T08:59:12Z</time>
      </trkpt>
      <trkpt lat="42.2095070" lon="-1.8028200">
        <ele>272.8</ele>
        <time>2021-09-29T08:59:13Z</time>
      </trkpt>
      <trkpt lat="42.2095080" lon="-1.8031980">
        <ele>273.4</ele>
        <time>2021-09-29T08:59:18Z</time>
      </trkpt>
      <trkpt lat="42.2096440" lon="-1.8039830">
        <ele>273.4</ele>
        <time>2021-09-29T08:59:28Z</time>
      </trkpt>
      <trkpt lat="42.2098180" lon="-1.8046860">
        <ele>272.4</ele>
        <time>2021-09-29T08:59:37Z</time>
      </trkpt>
      <trkpt lat="42.2098400" lon="-1.8047620">
        <ele>272.2</ele>
        <time>2021-09-29T08:59:38Z</time>
      </trkpt>
      <trkpt lat="42.2099640" lon="-1.8050570">
        <ele>271.2</ele>
        <time>2021-09-29T08:59:42Z</time>
      </trkpt>
      <trkpt lat="42.2100040" lon="-1.8051240">
        <ele>270.8</ele>
        <time>2021-09-29T08:59:43Z</time>
      </trkpt>
      <trkpt lat="42.2101400" lon="-1.8053110">
        <ele>270.0</ele>
        <time>2021-09-29T08:59:46Z</time>
      </trkpt>
      <trkpt lat="42.2103530" lon="-1.8056310">
        <ele>268.8</ele>
        <time>2021-09-29T08:59:51Z</time>
      </trkpt>
      <trkpt lat="42.2106930" lon="-1.8062190">
        <ele>268.2</ele>
        <time>2021-09-29T09:00:00Z</time>
      </trkpt>
      <trkpt lat="42.2109140" lon="-1.8065970">
        <ele>267.8</ele>
        <time>2021-09-29T09:00:06Z</time>
      </trkpt>
      <trkpt lat="42.2112620" lon="-1.8072340">
        <ele>268.0</ele>
        <time>2021-09-29T09:00:16Z</time>
      </trkpt>
      <trkpt lat="42.2115020" lon="-1.8077970">
        <ele>269.0</ele>
        <time>2021-09-29T09:00:25Z</time>
      </trkpt>
      <trkpt lat="42.2115440" lon="-1.8079220">
        <ele>270.2</ele>
        <time>2021-09-29T09:00:27Z</time>
      </trkpt>
      <trkpt lat="42.2115660" lon="-1.8081730">
        <ele>271.2</ele>
        <time>2021-09-29T09:00:31Z</time>
      </trkpt>
      <trkpt lat="42.2115740" lon="-1.8082840">
        <ele>271.8</ele>
        <time>2021-09-29T09:00:33Z</time>
      </trkpt>
      <trkpt lat="42.2116370" lon="-1.8084340">
        <ele>272.2</ele>
        <time>2021-09-29T09:00:36Z</time>
      </trkpt>
      <trkpt lat="42.2116640" lon="-1.8084800">
        <ele>272.6</ele>
        <time>2021-09-29T09:00:37Z</time>
      </trkpt>
      <trkpt lat="42.2117170" lon="-1.8085720">
        <ele>273.4</ele>
        <time>2021-09-29T09:00:39Z</time>
      </trkpt>
      <trkpt lat="42.2118470" lon="-1.8088050">
        <ele>274.4</ele>
        <time>2021-09-29T09:00:44Z</time>
      </trkpt>
      <trkpt lat="42.2119740" lon="-1.8090320">
        <ele>274.4</ele>
        <time>2021-09-29T09:00:49Z</time>
      </trkpt>
      <trkpt lat="42.2123500" lon="-1.8096090">
        <ele>274.8</ele>
        <time>2021-09-29T09:01:02Z</time>
      </trkpt>
      <trkpt lat="42.2124440" lon="-1.8097270">
        <ele>275.0</ele>
        <time>2021-09-29T09:01:05Z</time>
      </trkpt>
      <trkpt lat="42.2125270" lon="-1.8099830">
        <ele>275.4</ele>
        <time>2021-09-29T09:01:10Z</time>
      </trkpt>
      <trkpt lat="42.2125670" lon="-1.8100950">
        <ele>275.6</ele>
        <time>2021-09-29T09:01:12Z</time>
      </trkpt>
      <trkpt lat="42.2127950" lon="-1.8105020">
        <ele>276.4</ele>
        <time>2021-09-29T09:01:20Z</time>
      </trkpt>
      <trkpt lat="42.2131060" lon="-1.8111300">
        <ele>276.4</ele>
        <time>2021-09-29T09:01:31Z</time>
      </trkpt>
      <trkpt lat="42.2134080" lon="-1.8117910">
        <ele>276.4</ele>
        <time>2021-09-29T09:01:42Z</time>
      </trkpt>
      <trkpt lat="42.2137030" lon="-1.8124250">
        <ele>276.2</ele>
        <time>2021-09-29T09:01:53Z</time>
      </trkpt>
      <trkpt lat="42.2139910" lon="-1.8131070">
        <ele>276.2</ele>
        <time>2021-09-29T09:02:04Z</time>
      </trkpt>
      <trkpt lat="42.2141880" lon="-1.8135590">
        <ele>277.4</ele>
        <time>2021-09-29T09:02:11Z</time>
      </trkpt>
      <trkpt lat="42.2142510" lon="-1.8136800">
        <ele>277.6</ele>
        <time>2021-09-29T09:02:13Z</time>
      </trkpt>
      <trkpt lat="42.2144390" lon="-1.8139260">
        <ele>277.6</ele>
        <time>2021-09-29T09:02:18Z</time>
      </trkpt>
      <trkpt lat="42.2147160" lon="-1.8145810">
        <ele>277.6</ele>
        <time>2021-09-29T09:02:28Z</time>
      </trkpt>
      <trkpt lat="42.2150320" lon="-1.8152010">
        <ele>277.4</ele>
        <time>2021-09-29T09:02:38Z</time>
      </trkpt>
      <trkpt lat="42.2153230" lon="-1.8156430">
        <ele>276.4</ele>
        <time>2021-09-29T09:02:46Z</time>
      </trkpt>
      <trkpt lat="42.2153600" lon="-1.8156950">
        <ele>276.0</ele>
        <time>2021-09-29T09:02:47Z</time>
      </trkpt>
      <trkpt lat="42.2154330" lon="-1.8157960">
        <ele>275.2</ele>
        <time>2021-09-29T09:02:49Z</time>
      </trkpt>
      <trkpt lat="42.2157850" lon="-1.8164200">
        <ele>275.0</ele>
        <time>2021-09-29T09:03:00Z</time>
      </trkpt>
      <trkpt lat="42.2158940" lon="-1.8166790">
        <ele>276.2</ele>
        <time>2021-09-29T09:03:04Z</time>
      </trkpt>
      <trkpt lat="42.2160020" lon="-1.8172460">
        <ele>277.2</ele>
        <time>2021-09-29T09:03:12Z</time>
      </trkpt>
      <trkpt lat="42.2159920" lon="-1.8174660">
        <ele>277.4</ele>
        <time>2021-09-29T09:03:15Z</time>
      </trkpt>
      <trkpt lat="42.2159930" lon="-1.8175410">
        <ele>277.4</ele>
        <time>2021-09-29T09:03:16Z</time>
      </trkpt>
      <trkpt lat="42.2160980" lon="-1.8178940">
        <ele>277.2</ele>
        <time>2021-09-29T09:03:21Z</time>
      </trkpt>
      <trkpt lat="42.2163980" lon="-1.8185520">
        <ele>276.8</ele>
        <time>2021-09-29T09:03:31Z</time>
      </trkpt>
      <trkpt lat="42.2167020" lon="-1.8191870">
        <ele>276.8</ele>
        <time>2021-09-29T09:03:41Z</time>
      </trkpt>
      <trkpt lat="42.2170120" lon="-1.8197960">
        <ele>276.6</ele>
        <time>2021-09-29T09:03:51Z</time>
      </trkpt>
      <trkpt lat="42.2173180" lon="-1.8204630">
        <ele>276.6</ele>
        <time>2021-09-29T09:04:02Z</time>
      </trkpt>
      <trkpt lat="42.2176190" lon="-1.8211090">
        <ele>276.4</ele>
        <time>2021-09-29T09:04:12Z</time>
      </trkpt>
      <trkpt lat="42.2176530" lon="-1.8211710">
        <ele>276.4</ele>
        <time>2021-09-29T09:04:13Z</time>
      </trkpt>
      <trkpt lat="42.2180280" lon="-1.8217270">
        <ele>276.4</ele>
        <time>2021-09-29T09:04:23Z</time>
      </trkpt>
      <trkpt lat="42.2184800" lon="-1.8221430">
        <ele>276.4</ele>
        <time>2021-09-29T09:04:33Z</time>
      </trkpt>
      <trkpt lat="42.2189660" lon="-1.8224630">
        <ele>276.6</ele>
        <time>2021-09-29T09:04:43Z</time>
      </trkpt>
      <trkpt lat="42.2191380" lon="-1.8226330">
        <ele>276.4</ele>
        <time>2021-09-29T09:04:47Z</time>
      </trkpt>
      <trkpt lat="42.2194880" lon="-1.8232060">
        <ele>275.6</ele>
        <time>2021-09-29T09:04:57Z</time>
      </trkpt>
      <trkpt lat="42.2198080" lon="-1.8236970">
        <ele>275.4</ele>
        <time>2021-09-29T09:05:06Z</time>
      </trkpt>
      <trkpt lat="42.2201950" lon="-1.8242650">
        <ele>275.6</ele>
        <time>2021-09-29T09:05:17Z</time>
      </trkpt>
      <trkpt lat="42.2205820" lon="-1.8248680">
        <ele>276.4</ele>
        <time>2021-09-29T09:05:28Z</time>
      </trkpt>
      <trkpt lat="42.2209480" lon="-1.8254180">
        <ele>277.0</ele>
        <time>2021-09-29T09:05:38Z</time>
      </trkpt>
      <trkpt lat="42.2210200" lon="-1.8255260">
        <ele>277.2</ele>
        <time>2021-09-29T09:05:40Z</time>
      </trkpt>
      <trkpt lat="42.2214290" lon="-1.8261010">
        <ele>277.2</ele>
        <time>2021-09-29T09:05:51Z</time>
      </trkpt>
      <trkpt lat="42.2216150" lon="-1.8263780">
        <ele>278.2</ele>
        <time>2021-09-29T09:05:56Z</time>
      </trkpt>
      <trkpt lat="42.2219690" lon="-1.8269340">
        <ele>278.6</ele>
        <time>2021-09-29T09:06:06Z</time>
      </trkpt>
      <trkpt lat="42.2220290" lon="-1.8270530">
        <ele>278.6</ele>
        <time>2021-09-29T09:06:08Z</time>
      </trkpt>
      <trkpt lat="42.2222690" lon="-1.8277810">
        <ele>278.8</ele>
        <time>2021-09-29T09:06:19Z</time>
      </trkpt>
      <trkpt lat="42.2225060" lon="-1.8285000">
        <ele>278.6</ele>
        <time>2021-09-29T09:06:30Z</time>
      </trkpt>
      <trkpt lat="42.2227150" lon="-1.8292370">
        <ele>278.4</ele>
        <time>2021-09-29T09:06:41Z</time>
      </trkpt>
      <trkpt lat="42.2230110" lon="-1.8298620">
        <ele>277.8</ele>
        <time>2021-09-29T09:06:51Z</time>
      </trkpt>
      <trkpt lat="42.2233820" lon="-1.8304170">
        <ele>277.2</ele>
        <time>2021-09-29T09:07:01Z</time>
      </trkpt>
      <trkpt lat="42.2234520" lon="-1.8305310">
        <ele>277.0</ele>
        <time>2021-09-29T09:07:03Z</time>
      </trkpt>
      <trkpt lat="42.2235130" lon="-1.8306530">
        <ele>277.0</ele>
        <time>2021-09-29T09:07:05Z</time>
      </trkpt>
      <trkpt lat="42.2237830" lon="-1.8312950">
        <ele>277.2</ele>
        <time>2021-09-29T09:07:15Z</time>
      </trkpt>
      <trkpt lat="42.2241110" lon="-1.8319680">
        <ele>276.8</ele>
        <time>2021-09-29T09:07:26Z</time>
      </trkpt>
      <trkpt lat="42.2243660" lon="-1.8326620">
        <ele>277.4</ele>
        <time>2021-09-29T09:07:36Z</time>
      </trkpt>
      <trkpt lat="42.2244990" lon="-1.8330900">
        <ele>277.6</ele>
        <time>2021-09-29T09:07:42Z</time>
      </trkpt>
      <trkpt lat="42.2247590" lon="-1.8337780">
        <ele>277.6</ele>
        <time>2021-09-29T09:07:52Z</time>
      </trkpt>
      <trkpt lat="42.2249100" lon="-1.8344140">
        <ele>277.4</ele>
        <time>2021-09-29T09:08:01Z</time>
      </trkpt>
      <trkpt lat="42.2251720" lon="-1.8350930">
        <ele>277.4</ele>
        <time>2021-09-29T09:08:11Z</time>
      </trkpt>
      <trkpt lat="42.2254250" lon="-1.8357070">
        <ele>277.8</ele>
        <time>2021-09-29T09:08:20Z</time>
      </trkpt>
      <trkpt lat="42.2257180" lon="-1.8363900">
        <ele>277.8</ele>
        <time>2021-09-29T09:08:30Z</time>
      </trkpt>
      <trkpt lat="42.2260310" lon="-1.8370590">
        <ele>277.4</ele>
        <time>2021-09-29T09:08:40Z</time>
      </trkpt>
      <trkpt lat="42.2261960" lon="-1.8374080">
        <ele>276.8</ele>
        <time>2021-09-29T09:08:45Z</time>
      </trkpt>
      <trkpt lat="42.2263720" lon="-1.8378020">
        <ele>276.6</ele>
        <time>2021-09-29T09:08:50Z</time>
      </trkpt>
      <trkpt lat="42.2266890" lon="-1.8384660">
        <ele>277.8</ele>
        <time>2021-09-29T09:08:59Z</time>
      </trkpt>
      <trkpt lat="42.2270040" lon="-1.8391460">
        <ele>278.6</ele>
        <time>2021-09-29T09:09:08Z</time>
      </trkpt>
      <trkpt lat="42.2273260" lon="-1.8398110">
        <ele>278.8</ele>
        <time>2021-09-29T09:09:17Z</time>
      </trkpt>
      <trkpt lat="42.2276330" lon="-1.8404650">
        <ele>278.8</ele>
        <time>2021-09-29T09:09:26Z</time>
      </trkpt>
      <trkpt lat="42.2279220" lon="-1.8410200">
        <ele>278.8</ele>
        <time>2021-09-29T09:09:34Z</time>
      </trkpt>
      <trkpt lat="42.2282440" lon="-1.8416740">
        <ele>278.6</ele>
        <time>2021-09-29T09:09:43Z</time>
      </trkpt>
      <trkpt lat="42.2285760" lon="-1.8423270">
        <ele>278.6</ele>
        <time>2021-09-29T09:09:52Z</time>
      </trkpt>
      <trkpt lat="42.2288940" lon="-1.8429940">
        <ele>278.4</ele>
        <time>2021-09-29T09:10:01Z</time>
      </trkpt>
      <trkpt lat="42.2292130" lon="-1.8435810">
        <ele>277.2</ele>
        <time>2021-09-29T09:10:09Z</time>
      </trkpt>
      <trkpt lat="42.2295420" lon="-1.8442410">
        <ele>277.2</ele>
        <time>2021-09-29T09:10:18Z</time>
      </trkpt>
      <trkpt lat="42.2298940" lon="-1.8448340">
        <ele>277.2</ele>
        <time>2021-09-29T09:10:27Z</time>
      </trkpt>
      <trkpt lat="42.2299290" lon="-1.8448980">
        <ele>276.8</ele>
        <time>2021-09-29T09:10:28Z</time>
      </trkpt>
      <trkpt lat="42.2302380" lon="-1.8455530">
        <ele>276.4</ele>
        <time>2021-09-29T09:10:38Z</time>
      </trkpt>
      <trkpt lat="42.2305260" lon="-1.8462210">
        <ele>277.8</ele>
        <time>2021-09-29T09:10:48Z</time>
      </trkpt>
      <trkpt lat="42.2305530" lon="-1.8462900">
        <ele>278.0</ele>
        <time>2021-09-29T09:10:49Z</time>
      </trkpt>
      <trkpt lat="42.2307330" lon="-1.8466800">
        <ele>278.8</ele>
        <time>2021-09-29T09:10:55Z</time>
      </trkpt>
      <trkpt lat="42.2308990" lon="-1.8468920">
        <ele>279.0</ele>
        <time>2021-09-29T09:10:59Z</time>
      </trkpt>
      <trkpt lat="42.2310490" lon="-1.8472220">
        <ele>279.0</ele>
        <time>2021-09-29T09:11:04Z</time>
      </trkpt>
      <trkpt lat="42.2311100" lon="-1.8474280">
        <ele>279.0</ele>
        <time>2021-09-29T09:11:07Z</time>
      </trkpt>
      <trkpt lat="42.2311460" lon="-1.8475590">
        <ele>279.0</ele>
        <time>2021-09-29T09:11:09Z</time>
      </trkpt>
      <trkpt lat="42.2311810" lon="-1.8476740">
        <ele>279.0</ele>
        <time>2021-09-29T09:11:11Z</time>
      </trkpt>
      <trkpt lat="42.2313140" lon="-1.8477220">
        <ele>279.0</ele>
        <time>2021-09-29T09:11:14Z</time>
      </trkpt>
      <trkpt lat="42.2316010" lon="-1.8479700">
        <ele>278.8</ele>
        <time>2021-09-29T09:11:21Z</time>
      </trkpt>
      <trkpt lat="42.2317790" lon="-1.8481560">
        <ele>278.6</ele>
        <time>2021-09-29T09:11:26Z</time>
      </trkpt>
      <trkpt lat="42.2319820" lon="-1.8482580">
        <ele>278.4</ele>
        <time>2021-09-29T09:11:31Z</time>
      </trkpt>
      <trkpt lat="42.2320840" lon="-1.8483380">
        <ele>278.2</ele>
        <time>2021-09-29T09:11:34Z</time>
      </trkpt>
      <trkpt lat="42.2321010" lon="-1.8483780">
        <ele>278.2</ele>
        <time>2021-09-29T09:11:35Z</time>
      </trkpt>
      <trkpt lat="42.2320910" lon="-1.8485260">
        <ele>278.4</ele>
        <time>2021-09-29T09:11:38Z</time>
      </trkpt>
      <trkpt lat="42.2320470" lon="-1.8487450">
        <ele>278.4</ele>
        <time>2021-09-29T09:11:42Z</time>
      </trkpt>
      <trkpt lat="42.2320160" lon="-1.8489110">
        <ele>279.2</ele>
        <time>2021-09-29T09:11:45Z</time>
      </trkpt>
      <trkpt lat="42.2319950" lon="-1.8490760">
        <ele>280.0</ele>
        <time>2021-09-29T09:11:48Z</time>
      </trkpt>
      <trkpt lat="42.2319800" lon="-1.8491270">
        <ele>280.6</ele>
        <time>2021-09-29T09:11:49Z</time>
      </trkpt>
      <trkpt lat="42.2316820" lon="-1.8490930">
        <ele>281.2</ele>
        <time>2021-09-29T09:11:58Z</time>
      </trkpt>
      <trkpt lat="42.2314130" lon="-1.8488940">
        <ele>281.4</ele>
        <time>2021-09-29T09:12:03Z</time>
      </trkpt>
      <trkpt lat="42.2309960" lon="-1.8485870">
        <ele>281.4</ele>
        <time>2021-09-29T09:12:11Z</time>
      </trkpt>
      <trkpt lat="42.2308570" lon="-1.8484880">
        <ele>281.4</ele>
        <time>2021-09-29T09:12:14Z</time>
      </trkpt>
      <trkpt lat="42.2306380" lon="-1.8485210">
        <ele>281.6</ele>
        <time>2021-09-29T09:12:19Z</time>
      </trkpt>
      <trkpt lat="42.2305430" lon="-1.8486210">
        <ele>282.0</ele>
        <time>2021-09-29T09:12:22Z</time>
      </trkpt>
      <trkpt lat="42.2302940" lon="-1.8490720">
        <ele>282.6</ele>
        <time>2021-09-29T09:12:31Z</time>
      </trkpt>
      <trkpt lat="42.2302330" lon="-1.8493820">
        <ele>282.6</ele>
        <time>2021-09-29T09:12:36Z</time>
      </trkpt>
      <trkpt lat="42.2302280" lon="-1.8494300">
        <ele>282.6</ele>
        <time>2021-09-29T09:12:37Z</time>
      </trkpt>
      <trkpt lat="42.2302060" lon="-1.8494910">
        <ele>282.6</ele>
        <time>2021-09-29T09:12:39Z</time>
      </trkpt>
      <trkpt lat="42.2301740" lon="-1.8493900">
        <ele>282.8</ele>
        <time>2021-09-29T09:12:43Z</time>
      </trkpt>
      <trkpt lat="42.2302680" lon="-1.8489820">
        <ele>283.6</ele>
        <time>2021-09-29T09:12:50Z</time>
      </trkpt>
      <trkpt lat="42.2303770" lon="-1.8487910">
        <ele>283.8</ele>
        <time>2021-09-29T09:12:55Z</time>
      </trkpt>
      <trkpt lat="42.2304400" lon="-1.8488360">
        <ele>283.6</ele>
        <time>2021-09-29T09:12:58Z</time>
      </trkpt>
      <trkpt lat="42.2305220" lon="-1.8488350">
        <ele>284.6</ele>
        <time>2021-09-29T09:18:20Z</time>
      </trkpt>
      <trkpt lat="42.2305380" lon="-1.8488440">
        <ele>284.6</ele>
        <time>2021-09-29T09:18:21Z</time>
      </trkpt>
      <trkpt lat="42.2305740" lon="-1.8488830">
        <ele>284.6</ele>
        <time>2021-09-29T09:18:23Z</time>
      </trkpt>
      <trkpt lat="42.2306720" lon="-1.8489840">
        <ele>283.4</ele>
        <time>2021-09-29T09:18:27Z</time>
      </trkpt>
      <trkpt lat="42.2307610" lon="-1.8490840">
        <ele>283.0</ele>
        <time>2021-09-29T09:18:30Z</time>
      </trkpt>
      <trkpt lat="42.2308280" lon="-1.8491610">
        <ele>282.8</ele>
        <time>2021-09-29T09:18:32Z</time>
      </trkpt>
      <trkpt lat="42.2309000" lon="-1.8492460">
        <ele>282.6</ele>
        <time>2021-09-29T09:18:34Z</time>
      </trkpt>
      <trkpt lat="42.2309720" lon="-1.8493370">
        <ele>282.2</ele>
        <time>2021-09-29T09:18:36Z</time>
      </trkpt>
      <trkpt lat="42.2310100" lon="-1.8493840">
        <ele>282.2</ele>
        <time>2021-09-29T09:18:37Z</time>
      </trkpt>
      <trkpt lat="42.2311300" lon="-1.8495290">
        <ele>281.8</ele>
        <time>2021-09-29T09:18:40Z</time>
      </trkpt>
      <trkpt lat="42.2312920" lon="-1.8497260">
        <ele>281.4</ele>
        <time>2021-09-29T09:18:44Z</time>
      </trkpt>
      <trkpt lat="42.2316850" lon="-1.8502510">
        <ele>281.2</ele>
        <time>2021-09-29T09:18:54Z</time>
      </trkpt>
      <trkpt lat="42.2319150" lon="-1.8505680">
        <ele>281.0</ele>
        <time>2021-09-29T09:19:00Z</time>
      </trkpt>
      <trkpt lat="42.2320300" lon="-1.8507280">
        <ele>280.8</ele>
        <time>2021-09-29T09:19:03Z</time>
      </trkpt>
      <trkpt lat="42.2322580" lon="-1.8510580">
        <ele>280.6</ele>
        <time>2021-09-29T09:19:09Z</time>
      </trkpt>
      <trkpt lat="42.2326330" lon="-1.8516100">
        <ele>280.8</ele>
        <time>2021-09-29T09:19:19Z</time>
      </trkpt>
      <trkpt lat="42.2330370" lon="-1.8521840">
        <ele>279.8</ele>
        <time>2021-09-29T09:19:30Z</time>
      </trkpt>
      <trkpt lat="42.2332530" lon="-1.8524990">
        <ele>279.8</ele>
        <time>2021-09-29T09:19:36Z</time>
      </trkpt>
      <trkpt lat="42.2332880" lon="-1.8525500">
        <ele>279.6</ele>
        <time>2021-09-29T09:19:37Z</time>
      </trkpt>
      <trkpt lat="42.2336840" lon="-1.8530960">
        <ele>280.2</ele>
        <time>2021-09-29T09:19:48Z</time>
      </trkpt>
      <trkpt lat="42.2340750" lon="-1.8536350">
        <ele>280.6</ele>
        <time>2021-09-29T09:19:59Z</time>
      </trkpt>
      <trkpt lat="42.2341120" lon="-1.8536840">
        <ele>280.6</ele>
        <time>2021-09-29T09:20:00Z</time>
      </trkpt>
      <trkpt lat="42.2344850" lon="-1.8542090">
        <ele>281.0</ele>
        <time>2021-09-29T09:20:11Z</time>
      </trkpt>
      <trkpt lat="42.2345390" lon="-1.8542940">
        <ele>281.2</ele>
        <time>2021-09-29T09:20:13Z</time>
      </trkpt>
      <trkpt lat="42.2345640" lon="-1.8543750">
        <ele>281.4</ele>
        <time>2021-09-29T09:20:15Z</time>
      </trkpt>
      <trkpt lat="42.2345600" lon="-1.8544160">
        <ele>281.6</ele>
        <time>2021-09-29T09:20:16Z</time>
      </trkpt>
      <trkpt lat="42.2344490" lon="-1.8545580">
        <ele>282.0</ele>
        <time>2021-09-29T09:20:20Z</time>
      </trkpt>
      <trkpt lat="42.2344150" lon="-1.8545930">
        <ele>282.0</ele>
        <time>2021-09-29T09:20:21Z</time>
      </trkpt>
      <trkpt lat="42.2343440" lon="-1.8546720">
        <ele>283.2</ele>
        <time>2021-09-29T09:20:23Z</time>
      </trkpt>
      <trkpt lat="42.2341900" lon="-1.8548500">
        <ele>284.6</ele>
        <time>2021-09-29T09:20:27Z</time>
      </trkpt>
      <trkpt lat="42.2339700" lon="-1.8550530">
        <ele>285.4</ele>
        <time>2021-09-29T09:20:32Z</time>
      </trkpt>
      <trkpt lat="42.2338800" lon="-1.8551320">
        <ele>285.6</ele>
        <time>2021-09-29T09:20:34Z</time>
      </trkpt>
      <trkpt lat="42.2333990" lon="-1.8555770">
        <ele>285.4</ele>
        <time>2021-09-29T09:20:45Z</time>
      </trkpt>
      <trkpt lat="42.2332740" lon="-1.8556830">
        <ele>284.6</ele>
        <time>2021-09-29T09:20:48Z</time>
      </trkpt>
      <trkpt lat="42.2332350" lon="-1.8557210">
        <ele>284.4</ele>
        <time>2021-09-29T09:20:49Z</time>
      </trkpt>
      <trkpt lat="42.2329080" lon="-1.8561050">
        <ele>284.4</ele>
        <time>2021-09-29T09:20:58Z</time>
      </trkpt>
      <trkpt lat="42.2328480" lon="-1.8563980">
        <ele>284.8</ele>
        <time>2021-09-29T09:21:03Z</time>
      </trkpt>
      <trkpt lat="42.2328510" lon="-1.8564620">
        <ele>284.8</ele>
        <time>2021-09-29T09:21:04Z</time>
      </trkpt>
      <trkpt lat="42.2329910" lon="-1.8571240">
        <ele>284.8</ele>
        <time>2021-09-29T09:21:14Z</time>
      </trkpt>
      <trkpt lat="42.2330620" lon="-1.8574120">
        <ele>284.6</ele>
        <time>2021-09-29T09:21:18Z</time>
      </trkpt>
      <trkpt lat="42.2331330" lon="-1.8577070">
        <ele>284.2</ele>
        <time>2021-09-29T09:21:22Z</time>
      </trkpt>
      <trkpt lat="42.2332250" lon="-1.8584810">
        <ele>284.0</ele>
        <time>2021-09-29T09:21:32Z</time>
      </trkpt>
      <trkpt lat="42.2333800" lon="-1.8592390">
        <ele>284.2</ele>
        <time>2021-09-29T09:21:42Z</time>
      </trkpt>
      <trkpt lat="42.2335210" lon="-1.8599120">
        <ele>283.0</ele>
        <time>2021-09-29T09:21:51Z</time>
      </trkpt>
      <trkpt lat="42.2335300" lon="-1.8599840">
        <ele>283.0</ele>
        <time>2021-09-29T09:21:52Z</time>
      </trkpt>
      <trkpt lat="42.2335850" lon="-1.8603430">
        <ele>283.0</ele>
        <time>2021-09-29T09:21:57Z</time>
      </trkpt>
      <trkpt lat="42.2337490" lon="-1.8610900">
        <ele>283.8</ele>
        <time>2021-09-29T09:22:08Z</time>
      </trkpt>
      <trkpt lat="42.2337700" lon="-1.8612370">
        <ele>284.2</ele>
        <time>2021-09-29T09:22:10Z</time>
      </trkpt>
      <trkpt lat="42.2338090" lon="-1.8615450">
        <ele>284.4</ele>
        <time>2021-09-29T09:22:14Z</time>
      </trkpt>
      <trkpt lat="42.2339340" lon="-1.8622850">
        <ele>284.8</ele>
        <time>2021-09-29T09:22:24Z</time>
      </trkpt>
      <trkpt lat="42.2339480" lon="-1.8623560">
        <ele>284.8</ele>
        <time>2021-09-29T09:22:25Z</time>
      </trkpt>
      <trkpt lat="42.2340350" lon="-1.8629370">
        <ele>285.0</ele>
        <time>2021-09-29T09:22:33Z</time>
      </trkpt>
      <trkpt lat="42.2340530" lon="-1.8633210">
        <ele>286.2</ele>
        <time>2021-09-29T09:22:38Z</time>
      </trkpt>
      <trkpt lat="42.2340530" lon="-1.8635440">
        <ele>287.2</ele>
        <time>2021-09-29T09:22:41Z</time>
      </trkpt>
      <trkpt lat="42.2339410" lon="-1.8642850">
        <ele>287.6</ele>
        <time>2021-09-29T09:22:52Z</time>
      </trkpt>
      <trkpt lat="42.2339170" lon="-1.8644710">
        <ele>288.0</ele>
        <time>2021-09-29T09:22:55Z</time>
      </trkpt>
      <trkpt lat="42.2339150" lon="-1.8645290">
        <ele>288.2</ele>
        <time>2021-09-29T09:22:56Z</time>
      </trkpt>
      <trkpt lat="42.2339120" lon="-1.8645850">
        <ele>288.4</ele>
        <time>2021-09-29T09:22:57Z</time>
      </trkpt>
      <trkpt lat="42.2338910" lon="-1.8647800">
        <ele>288.8</ele>
        <time>2021-09-29T09:23:01Z</time>
      </trkpt>
      <trkpt lat="42.2338790" lon="-1.8648380">
        <ele>289.2</ele>
        <time>2021-09-29T09:23:03Z</time>
      </trkpt>
      <trkpt lat="42.2338810" lon="-1.8648600">
        <ele>289.4</ele>
        <time>2021-09-29T09:23:04Z</time>
      </trkpt>
      <trkpt lat="42.2339030" lon="-1.8649610">
        <ele>290.4</ele>
        <time>2021-09-29T09:23:08Z</time>
      </trkpt>
      <trkpt lat="42.2338800" lon="-1.8651280">
        <ele>291.2</ele>
        <time>2021-09-29T09:23:12Z</time>
      </trkpt>
      <trkpt lat="42.2338310" lon="-1.8658300">
        <ele>290.6</ele>
        <time>2021-09-29T09:23:23Z</time>
      </trkpt>
      <trkpt lat="42.2338160" lon="-1.8661520">
        <ele>290.6</ele>
        <time>2021-09-29T09:23:28Z</time>
      </trkpt>
      <trkpt lat="42.2338250" lon="-1.8662860">
        <ele>290.6</ele>
        <time>2021-09-29T09:23:30Z</time>
      </trkpt>
      <trkpt lat="42.2338290" lon="-1.8663550">
        <ele>290.4</ele>
        <time>2021-09-29T09:23:31Z</time>
      </trkpt>
      <trkpt lat="42.2338820" lon="-1.8670910">
        <ele>291.2</ele>
        <time>2021-09-29T09:23:42Z</time>
      </trkpt>
      <trkpt lat="42.2339080" lon="-1.8674060">
        <ele>291.4</ele>
        <time>2021-09-29T09:23:47Z</time>
      </trkpt>
      <trkpt lat="42.2340000" lon="-1.8680250">
        <ele>292.6</ele>
        <time>2021-09-29T09:23:57Z</time>
      </trkpt>
      <trkpt lat="42.2340650" lon="-1.8685270">
        <ele>293.4</ele>
        <time>2021-09-29T09:24:05Z</time>
      </trkpt>
      <trkpt lat="42.2341210" lon="-1.8688260">
        <ele>293.8</ele>
        <time>2021-09-29T09:24:10Z</time>
      </trkpt>
      <trkpt lat="42.2341800" lon="-1.8695250">
        <ele>295.0</ele>
        <time>2021-09-29T09:24:21Z</time>
      </trkpt>
      <trkpt lat="42.2342100" lon="-1.8700200">
        <ele>296.0</ele>
        <time>2021-09-29T09:24:29Z</time>
      </trkpt>
      <trkpt lat="42.2342510" lon="-1.8707760">
        <ele>297.0</ele>
        <time>2021-09-29T09:24:41Z</time>
      </trkpt>
      <trkpt lat="42.2342790" lon="-1.8712300">
        <ele>297.0</ele>
        <time>2021-09-29T09:24:48Z</time>
      </trkpt>
      <trkpt lat="42.2342910" lon="-1.8720070">
        <ele>298.0</ele>
        <time>2021-09-29T09:25:00Z</time>
      </trkpt>
      <trkpt lat="42.2342930" lon="-1.8720710">
        <ele>298.0</ele>
        <time>2021-09-29T09:25:01Z</time>
      </trkpt>
      <trkpt lat="42.2343080" lon="-1.8727210">
        <ele>299.0</ele>
        <time>2021-09-29T09:25:11Z</time>
      </trkpt>
      <trkpt lat="42.2342630" lon="-1.8735040">
        <ele>299.4</ele>
        <time>2021-09-29T09:25:23Z</time>
      </trkpt>
      <trkpt lat="42.2341940" lon="-1.8741720">
        <ele>300.4</ele>
        <time>2021-09-29T09:25:34Z</time>
      </trkpt>
      <trkpt lat="42.2341770" lon="-1.8742980">
        <ele>301.4</ele>
        <time>2021-09-29T09:25:36Z</time>
      </trkpt>
      <trkpt lat="42.2341220" lon="-1.8750060">
        <ele>302.4</ele>
        <time>2021-09-29T09:25:47Z</time>
      </trkpt>
      <trkpt lat="42.2341130" lon="-1.8751360">
        <ele>302.4</ele>
        <time>2021-09-29T09:25:49Z</time>
      </trkpt>
      <trkpt lat="42.2340690" lon="-1.8758300">
        <ele>303.0</ele>
        <time>2021-09-29T09:26:00Z</time>
      </trkpt>
      <trkpt lat="42.2340390" lon="-1.8760610">
        <ele>303.6</ele>
        <time>2021-09-29T09:26:04Z</time>
      </trkpt>
      <trkpt lat="42.2339670" lon="-1.8764110">
        <ele>304.8</ele>
        <time>2021-09-29T09:26:10Z</time>
      </trkpt>
      <trkpt lat="42.2339580" lon="-1.8764660">
        <ele>305.0</ele>
        <time>2021-09-29T09:26:11Z</time>
      </trkpt>
      <trkpt lat="42.2340730" lon="-1.8766760">
        <ele>305.4</ele>
        <time>2021-09-29T09:26:16Z</time>
      </trkpt>
      <trkpt lat="42.2342170" lon="-1.8768060">
        <ele>305.4</ele>
        <time>2021-09-29T09:26:20Z</time>
      </trkpt>
      <trkpt lat="42.2344230" lon="-1.8769890">
        <ele>305.0</ele>
        <time>2021-09-29T09:26:26Z</time>
      </trkpt>
      <trkpt lat="42.2349440" lon="-1.8773440">
        <ele>304.6</ele>
        <time>2021-09-29T09:26:39Z</time>
      </trkpt>
      <trkpt lat="42.2354370" lon="-1.8776510">
        <ele>304.6</ele>
        <time>2021-09-29T09:26:51Z</time>
      </trkpt>
      <trkpt lat="42.2359120" lon="-1.8780150">
        <ele>305.4</ele>
        <time>2021-09-29T09:27:03Z</time>
      </trkpt>
      <trkpt lat="42.2360980" lon="-1.8782880">
        <ele>305.6</ele>
        <time>2021-09-29T09:27:09Z</time>
      </trkpt>
      <trkpt lat="42.2361790" lon="-1.8785200">
        <ele>305.8</ele>
        <time>2021-09-29T09:27:13Z</time>
      </trkpt>
      <trkpt lat="42.2362540" lon="-1.8788170">
        <ele>305.8</ele>
        <time>2021-09-29T09:27:18Z</time>
      </trkpt>
      <trkpt lat="42.2363330" lon="-1.8792540">
        <ele>306.4</ele>
        <time>2021-09-29T09:27:26Z</time>
      </trkpt>
      <trkpt lat="42.2364330" lon="-1.8799340">
        <ele>306.8</ele>
        <time>2021-09-29T09:27:36Z</time>
      </trkpt>
      <trkpt lat="42.2365820" lon="-1.8802220">
        <ele>306.8</ele>
        <time>2021-09-29T09:27:41Z</time>
      </trkpt>
      <trkpt lat="42.2367000" lon="-1.8803560">
        <ele>306.2</ele>
        <time>2021-09-29T09:27:44Z</time>
      </trkpt>
      <trkpt lat="42.2369360" lon="-1.8804950">
        <ele>304.8</ele>
        <time>2021-09-29T09:27:49Z</time>
      </trkpt>
      <trkpt lat="42.2375030" lon="-1.8804810">
        <ele>305.0</ele>
        <time>2021-09-29T09:28:00Z</time>
      </trkpt>
      <trkpt lat="42.2380700" lon="-1.8802630">
        <ele>305.0</ele>
        <time>2021-09-29T09:28:11Z</time>
      </trkpt>
      <trkpt lat="42.2386020" lon="-1.8799990">
        <ele>305.6</ele>
        <time>2021-09-29T09:28:22Z</time>
      </trkpt>
      <trkpt lat="42.2386500" lon="-1.8799810">
        <ele>305.8</ele>
        <time>2021-09-29T09:28:23Z</time>
      </trkpt>
      <trkpt lat="42.2387020" lon="-1.8799690">
        <ele>305.8</ele>
        <time>2021-09-29T09:28:24Z</time>
      </trkpt>
      <trkpt lat="42.2389650" lon="-1.8799460">
        <ele>305.8</ele>
        <time>2021-09-29T09:28:29Z</time>
      </trkpt>
      <trkpt lat="42.2391190" lon="-1.8799790">
        <ele>305.6</ele>
        <time>2021-09-29T09:28:32Z</time>
      </trkpt>
      <trkpt lat="42.2394450" lon="-1.8802070">
        <ele>305.4</ele>
        <time>2021-09-29T09:28:39Z</time>
      </trkpt>
      <trkpt lat="42.2398410" lon="-1.8807110">
        <ele>305.4</ele>
        <time>2021-09-29T09:28:49Z</time>
      </trkpt>
      <trkpt lat="42.2401050" lon="-1.8811690">
        <ele>306.8</ele>
        <time>2021-09-29T09:28:57Z</time>
      </trkpt>
      <trkpt lat="42.2401850" lon="-1.8814460">
        <ele>307.0</ele>
        <time>2021-09-29T09:29:01Z</time>
      </trkpt>
      <trkpt lat="42.2402120" lon="-1.8817410">
        <ele>307.0</ele>
        <time>2021-09-29T09:29:05Z</time>
      </trkpt>
      <trkpt lat="42.2402130" lon="-1.8819590">
        <ele>306.8</ele>
        <time>2021-09-29T09:29:08Z</time>
      </trkpt>
      <trkpt lat="42.2401740" lon="-1.8827560">
        <ele>306.8</ele>
        <time>2021-09-29T09:29:19Z</time>
      </trkpt>
      <trkpt lat="42.2401920" lon="-1.8830670">
        <ele>306.8</ele>
        <time>2021-09-29T09:29:23Z</time>
      </trkpt>
      <trkpt lat="42.2404110" lon="-1.8835980">
        <ele>305.8</ele>
        <time>2021-09-29T09:29:31Z</time>
      </trkpt>
      <trkpt lat="42.2406470" lon="-1.8840400">
        <ele>305.6</ele>
        <time>2021-09-29T09:29:40Z</time>
      </trkpt>
      <trkpt lat="42.2409560" lon="-1.8846520">
        <ele>305.8</ele>
        <time>2021-09-29T09:29:50Z</time>
      </trkpt>
      <trkpt lat="42.2411850" lon="-1.8853180">
        <ele>305.8</ele>
        <time>2021-09-29T09:30:00Z</time>
      </trkpt>
      <trkpt lat="42.2413580" lon="-1.8856630">
        <ele>306.0</ele>
        <time>2021-09-29T09:30:06Z</time>
      </trkpt>
      <trkpt lat="42.2415900" lon="-1.8858500">
        <ele>306.4</ele>
        <time>2021-09-29T09:30:11Z</time>
      </trkpt>
      <trkpt lat="42.2420540" lon="-1.8862060">
        <ele>306.6</ele>
        <time>2021-09-29T09:30:21Z</time>
      </trkpt>
      <trkpt lat="42.2421250" lon="-1.8863120">
        <ele>306.6</ele>
        <time>2021-09-29T09:30:23Z</time>
      </trkpt>
      <trkpt lat="42.2423160" lon="-1.8867210">
        <ele>306.8</ele>
        <time>2021-09-29T09:30:30Z</time>
      </trkpt>
      <trkpt lat="42.2423860" lon="-1.8868900">
        <ele>306.8</ele>
        <time>2021-09-29T09:30:33Z</time>
      </trkpt>
      <trkpt lat="42.2424550" lon="-1.8870410">
        <ele>306.8</ele>
        <time>2021-09-29T09:30:36Z</time>
      </trkpt>
      <trkpt lat="42.2427410" lon="-1.8877030">
        <ele>307.6</ele>
        <time>2021-09-29T09:30:50Z</time>
      </trkpt>
      <trkpt lat="42.2428250" lon="-1.8879010">
        <ele>307.8</ele>
        <time>2021-09-29T09:30:54Z</time>
      </trkpt>
      <trkpt lat="42.2428810" lon="-1.8880180">
        <ele>307.8</ele>
        <time>2021-09-29T09:30:57Z</time>
      </trkpt>
      <trkpt lat="42.2428990" lon="-1.8880630">
        <ele>308.0</ele>
        <time>2021-09-29T09:31:01Z</time>
      </trkpt>
      <trkpt lat="42.2428520" lon="-1.8879810">
        <ele>308.4</ele>
        <time>2021-09-29T09:31:06Z</time>
      </trkpt>
      <trkpt lat="42.2427730" lon="-1.8878120">
        <ele>308.4</ele>
        <time>2021-09-29T09:31:10Z</time>
      </trkpt>
      <trkpt lat="42.2425950" lon="-1.8874100">
        <ele>308.0</ele>
        <time>2021-09-29T09:31:18Z</time>
      </trkpt>
      <trkpt lat="42.2425150" lon="-1.8872340">
        <ele>308.0</ele>
        <time>2021-09-29T09:31:22Z</time>
      </trkpt>
      <trkpt lat="42.2424020" lon="-1.8869780">
        <ele>308.0</ele>
        <time>2021-09-29T09:31:28Z</time>
      </trkpt>
      <trkpt lat="42.2421400" lon="-1.8863750">
        <ele>308.2</ele>
        <time>2021-09-29T09:31:41Z</time>
      </trkpt>
      <trkpt lat="42.2420270" lon="-1.8861990">
        <ele>308.2</ele>
        <time>2021-09-29T09:31:48Z</time>
      </trkpt>
      <trkpt lat="42.2419980" lon="-1.8861510">
        <ele>308.8</ele>
        <time>2021-09-29T09:32:34Z</time>
      </trkpt>
      <trkpt lat="42.2419580" lon="-1.8861070">
        <ele>308.8</ele>
        <time>2021-09-29T09:32:36Z</time>
      </trkpt>
      <trkpt lat="42.2418990" lon="-1.8860570">
        <ele>308.8</ele>
        <time>2021-09-29T09:32:38Z</time>
      </trkpt>
      <trkpt lat="42.2417320" lon="-1.8859390">
        <ele>308.6</ele>
        <time>2021-09-29T09:32:42Z</time>
      </trkpt>
      <trkpt lat="42.2414910" lon="-1.8857960">
        <ele>308.4</ele>
        <time>2021-09-29T09:32:47Z</time>
      </trkpt>
      <trkpt lat="42.2413180" lon="-1.8856370">
        <ele>308.2</ele>
        <time>2021-09-29T09:32:51Z</time>
      </trkpt>
      <trkpt lat="42.2411250" lon="-1.8852080">
        <ele>307.8</ele>
        <time>2021-09-29T09:32:58Z</time>
      </trkpt>
      <trkpt lat="42.2409210" lon="-1.8846250">
        <ele>307.2</ele>
        <time>2021-09-29T09:33:07Z</time>
      </trkpt>
      <trkpt lat="42.2408990" lon="-1.8845720">
        <ele>307.2</ele>
        <time>2021-09-29T09:33:08Z</time>
      </trkpt>
      <trkpt lat="42.2408280" lon="-1.8844210">
        <ele>307.2</ele>
        <time>2021-09-29T09:33:11Z</time>
      </trkpt>
      <trkpt lat="42.2405750" lon="-1.8839370">
        <ele>307.2</ele>
        <time>2021-09-29T09:33:21Z</time>
      </trkpt>
      <trkpt lat="42.2405730" lon="-1.8839040">
        <ele>307.2</ele>
        <time>2021-09-29T09:33:22Z</time>
      </trkpt>
      <trkpt lat="42.2408060" lon="-1.8839990">
        <ele>307.0</ele>
        <time>2021-09-29T09:33:29Z</time>
      </trkpt>
      <trkpt lat="42.2408420" lon="-1.8840650">
        <ele>307.0</ele>
        <time>2021-09-29T09:33:30Z</time>
      </trkpt>
      <trkpt lat="42.2409540" lon="-1.8842880">
        <ele>306.4</ele>
        <time>2021-09-29T09:33:33Z</time>
      </trkpt>
      <trkpt lat="42.2409890" lon="-1.8843680">
        <ele>305.4</ele>
        <time>2021-09-29T09:33:34Z</time>
      </trkpt>
      <trkpt lat="42.2410600" lon="-1.8845300">
        <ele>303.8</ele>
        <time>2021-09-29T09:33:36Z</time>
      </trkpt>
      <trkpt lat="42.2411310" lon="-1.8846940">
        <ele>302.6</ele>
        <time>2021-09-29T09:33:38Z</time>
      </trkpt>
      <trkpt lat="42.2414070" lon="-1.8853470">
        <ele>301.8</ele>
        <time>2021-09-29T09:33:46Z</time>
      </trkpt>
      <trkpt lat="42.2414870" lon="-1.8854910">
        <ele>301.8</ele>
        <time>2021-09-29T09:33:48Z</time>
      </trkpt>
      <trkpt lat="42.2417400" lon="-1.8855380">
        <ele>301.8</ele>
        <time>2021-09-29T09:33:52Z</time>
      </trkpt>
      <trkpt lat="42.2418760" lon="-1.8855310">
        <ele>301.8</ele>
        <time>2021-09-29T09:33:54Z</time>
      </trkpt>
      <trkpt lat="42.2421110" lon="-1.8855770">
        <ele>301.4</ele>
        <time>2021-09-29T09:33:57Z</time>
      </trkpt>
      <trkpt lat="42.2421920" lon="-1.8855980">
        <ele>300.2</ele>
        <time>2021-09-29T09:33:58Z</time>
      </trkpt>
      <trkpt lat="42.2423560" lon="-1.8856440">
        <ele>298.8</ele>
        <time>2021-09-29T09:34:00Z</time>
      </trkpt>
      <trkpt lat="42.2425160" lon="-1.8856870">
        <ele>298.2</ele>
        <time>2021-09-29T09:34:02Z</time>
      </trkpt>
      <trkpt lat="42.2425950" lon="-1.8857090">
        <ele>296.6</ele>
        <time>2021-09-29T09:34:03Z</time>
      </trkpt>
      <trkpt lat="42.2427520" lon="-1.8857590">
        <ele>295.0</ele>
        <time>2021-09-29T09:34:05Z</time>
      </trkpt>
      <trkpt lat="42.2429050" lon="-1.8858110">
        <ele>294.0</ele>
        <time>2021-09-29T09:34:07Z</time>
      </trkpt>
      <trkpt lat="42.2434340" lon="-1.8860310">
        <ele>293.0</ele>
        <time>2021-09-29T09:34:14Z</time>
      </trkpt>
      <trkpt lat="42.2435090" lon="-1.8860620">
        <ele>292.8</ele>
        <time>2021-09-29T09:34:15Z</time>
      </trkpt>
      <trkpt lat="42.2436560" lon="-1.8861250">
        <ele>291.8</ele>
        <time>2021-09-29T09:34:17Z</time>
      </trkpt>
      <trkpt lat="42.2437960" lon="-1.8861850">
        <ele>291.0</ele>
        <time>2021-09-29T09:34:19Z</time>
      </trkpt>
      <trkpt lat="42.2438630" lon="-1.8862140">
        <ele>290.8</ele>
        <time>2021-09-29T09:34:20Z</time>
      </trkpt>
      <trkpt lat="42.2442110" lon="-1.8863500">
        <ele>290.4</ele>
        <time>2021-09-29T09:34:28Z</time>
      </trkpt>
      <trkpt lat="42.2442880" lon="-1.8863380">
        <ele>292.2</ele>
        <time>2021-09-29T09:34:34Z</time>
      </trkpt>
      <trkpt lat="42.2443440" lon="-1.8863100">
        <ele>293.4</ele>
        <time>2021-09-29T09:34:36Z</time>
      </trkpt>
      <trkpt lat="42.2444180" lon="-1.8863010">
        <ele>293.6</ele>
        <time>2021-09-29T09:34:38Z</time>
      </trkpt>
      <trkpt lat="42.2444550" lon="-1.8863150">
        <ele>293.6</ele>
        <time>2021-09-29T09:34:39Z</time>
      </trkpt>
      <trkpt lat="42.2445370" lon="-1.8864430">
        <ele>293.8</ele>
        <time>2021-09-29T09:34:42Z</time>
      </trkpt>
      <trkpt lat="42.2445600" lon="-1.8864980">
        <ele>293.8</ele>
        <time>2021-09-29T09:34:43Z</time>
      </trkpt>
      <trkpt lat="42.2446400" lon="-1.8866600">
        <ele>293.2</ele>
        <time>2021-09-29T09:34:46Z</time>
      </trkpt>
      <trkpt lat="42.2447170" lon="-1.8867260">
        <ele>292.2</ele>
        <time>2021-09-29T09:34:48Z</time>
      </trkpt>
      <trkpt lat="42.2448130" lon="-1.8867500">
        <ele>291.4</ele>
        <time>2021-09-29T09:34:50Z</time>
      </trkpt>
      <trkpt lat="42.2449170" lon="-1.8867650">
        <ele>291.0</ele>
        <time>2021-09-29T09:34:52Z</time>
      </trkpt>
      <trkpt lat="42.2451430" lon="-1.8867700">
        <ele>290.6</ele>
        <time>2021-09-29T09:34:56Z</time>
      </trkpt>
      <trkpt lat="42.2453180" lon="-1.8867530">
        <ele>290.2</ele>
        <time>2021-09-29T09:34:59Z</time>
      </trkpt>
      <trkpt lat="42.2453760" lon="-1.8867480">
        <ele>290.0</ele>
        <time>2021-09-29T09:35:00Z</time>
      </trkpt>
      <trkpt lat="42.2455460" lon="-1.8867280">
        <ele>289.6</ele>
        <time>2021-09-29T09:35:03Z</time>
      </trkpt>
      <trkpt lat="42.2457770" lon="-1.8867100">
        <ele>289.0</ele>
        <time>2021-09-29T09:35:07Z</time>
      </trkpt>
      <trkpt lat="42.2461890" lon="-1.8867030">
        <ele>289.2</ele>
        <time>2021-09-29T09:35:14Z</time>
      </trkpt>
      <trkpt lat="42.2465860" lon="-1.8867780">
        <ele>289.4</ele>
        <time>2021-09-29T09:35:21Z</time>
      </trkpt>
      <trkpt lat="42.2469320" lon="-1.8870750">
        <ele>289.2</ele>
        <time>2021-09-29T09:35:28Z</time>
      </trkpt>
      <trkpt lat="42.2471200" lon="-1.8872740">
        <ele>289.2</ele>
        <time>2021-09-29T09:35:32Z</time>
      </trkpt>
      <trkpt lat="42.2473010" lon="-1.8874610">
        <ele>288.8</ele>
        <time>2021-09-29T09:35:36Z</time>
      </trkpt>
      <trkpt lat="42.2477300" lon="-1.8879290">
        <ele>288.0</ele>
        <time>2021-09-29T09:35:46Z</time>
      </trkpt>
      <trkpt lat="42.2481510" lon="-1.8884030">
        <ele>288.4</ele>
        <time>2021-09-29T09:35:56Z</time>
      </trkpt>
      <trkpt lat="42.2482480" lon="-1.8884740">
        <ele>288.6</ele>
        <time>2021-09-29T09:35:58Z</time>
      </trkpt>
      <trkpt lat="42.2487750" lon="-1.8886290">
        <ele>288.8</ele>
        <time>2021-09-29T09:36:08Z</time>
      </trkpt>
      <trkpt lat="42.2489640" lon="-1.8887330">
        <ele>288.8</ele>
        <time>2021-09-29T09:36:12Z</time>
      </trkpt>
      <trkpt lat="42.2490480" lon="-1.8888040">
        <ele>288.8</ele>
        <time>2021-09-29T09:36:14Z</time>
      </trkpt>
      <trkpt lat="42.2491930" lon="-1.8889940">
        <ele>288.8</ele>
        <time>2021-09-29T09:36:18Z</time>
      </trkpt>
      <trkpt lat="42.2493470" lon="-1.8891660">
        <ele>288.8</ele>
        <time>2021-09-29T09:36:22Z</time>
      </trkpt>
      <trkpt lat="42.2497250" lon="-1.8893260">
        <ele>288.4</ele>
        <time>2021-09-29T09:36:30Z</time>
      </trkpt>
      <trkpt lat="42.2502680" lon="-1.8893480">
        <ele>288.0</ele>
        <time>2021-09-29T09:36:41Z</time>
      </trkpt>
      <trkpt lat="42.2508180" lon="-1.8893230">
        <ele>288.2</ele>
        <time>2021-09-29T09:36:52Z</time>
      </trkpt>
      <trkpt lat="42.2513650" lon="-1.8893190">
        <ele>288.4</ele>
        <time>2021-09-29T09:37:03Z</time>
      </trkpt>
      <trkpt lat="42.2516120" lon="-1.8893570">
        <ele>289.4</ele>
        <time>2021-09-29T09:37:08Z</time>
      </trkpt>
      <trkpt lat="42.2517060" lon="-1.8894010">
        <ele>289.6</ele>
        <time>2021-09-29T09:37:10Z</time>
      </trkpt>
      <trkpt lat="42.2520830" lon="-1.8895970">
        <ele>290.0</ele>
        <time>2021-09-29T09:37:18Z</time>
      </trkpt>
      <trkpt lat="42.2522410" lon="-1.8894150">
        <ele>290.0</ele>
        <time>2021-09-29T09:37:23Z</time>
      </trkpt>
      <trkpt lat="42.2523290" lon="-1.8890910">
        <ele>291.2</ele>
        <time>2021-09-29T09:37:28Z</time>
      </trkpt>
      <trkpt lat="42.2523690" lon="-1.8889570">
        <ele>292.4</ele>
        <time>2021-09-29T09:37:30Z</time>
      </trkpt>
      <trkpt lat="42.2525460" lon="-1.8885110">
        <ele>292.8</ele>
        <time>2021-09-29T09:37:37Z</time>
      </trkpt>
      <trkpt lat="42.2526600" lon="-1.8883690">
        <ele>292.6</ele>
        <time>2021-09-29T09:37:40Z</time>
      </trkpt>
      <trkpt lat="42.2530030" lon="-1.8883630">
        <ele>292.2</ele>
        <time>2021-09-29T09:37:47Z</time>
      </trkpt>
      <trkpt lat="42.2531040" lon="-1.8883990">
        <ele>291.2</ele>
        <time>2021-09-29T09:37:49Z</time>
      </trkpt>
      <trkpt lat="42.2532620" lon="-1.8884270">
        <ele>290.0</ele>
        <time>2021-09-29T09:37:52Z</time>
      </trkpt>
      <trkpt lat="42.2535320" lon="-1.8883660">
        <ele>288.8</ele>
        <time>2021-09-29T09:37:57Z</time>
      </trkpt>
      <trkpt lat="42.2539680" lon="-1.8881420">
        <ele>288.4</ele>
        <time>2021-09-29T09:38:06Z</time>
      </trkpt>
      <trkpt lat="42.2541150" lon="-1.8879460">
        <ele>288.4</ele>
        <time>2021-09-29T09:38:10Z</time>
      </trkpt>
      <trkpt lat="42.2541460" lon="-1.8878900">
        <ele>288.6</ele>
        <time>2021-09-29T09:38:11Z</time>
      </trkpt>
      <trkpt lat="42.2542410" lon="-1.8876300">
        <ele>290.0</ele>
        <time>2021-09-29T09:38:15Z</time>
      </trkpt>
      <trkpt lat="42.2543810" lon="-1.8872230">
        <ele>291.0</ele>
        <time>2021-09-29T09:38:21Z</time>
      </trkpt>
      <trkpt lat="42.2545230" lon="-1.8869120">
        <ele>291.2</ele>
        <time>2021-09-29T09:38:26Z</time>
      </trkpt>
      <trkpt lat="42.2547430" lon="-1.8868370">
        <ele>291.0</ele>
        <time>2021-09-29T09:38:31Z</time>
      </trkpt>
      <trkpt lat="42.2548630" lon="-1.8869620">
        <ele>290.8</ele>
        <time>2021-09-29T09:38:34Z</time>
      </trkpt>
      <trkpt lat="42.2549670" lon="-1.8871080">
        <ele>289.2</ele>
        <time>2021-09-29T09:38:37Z</time>
      </trkpt>
      <trkpt lat="42.2550000" lon="-1.8871580">
        <ele>288.2</ele>
        <time>2021-09-29T09:38:38Z</time>
      </trkpt>
      <trkpt lat="42.2550640" lon="-1.8872590">
        <ele>287.2</ele>
        <time>2021-09-29T09:38:40Z</time>
      </trkpt>
      <trkpt lat="42.2551320" lon="-1.8873510">
        <ele>286.8</ele>
        <time>2021-09-29T09:38:42Z</time>
      </trkpt>
      <trkpt lat="42.2554450" lon="-1.8873870">
        <ele>286.6</ele>
        <time>2021-09-29T09:38:49Z</time>
      </trkpt>
      <trkpt lat="42.2556720" lon="-1.8873970">
        <ele>287.0</ele>
        <time>2021-09-29T09:38:54Z</time>
      </trkpt>
      <trkpt lat="42.2557590" lon="-1.8874370">
        <ele>288.0</ele>
        <time>2021-09-29T09:38:56Z</time>
      </trkpt>
      <trkpt lat="42.2558000" lon="-1.8874580">
        <ele>288.4</ele>
        <time>2021-09-29T09:38:57Z</time>
      </trkpt>
      <trkpt lat="42.2558850" lon="-1.8875010">
        <ele>288.8</ele>
        <time>2021-09-29T09:38:59Z</time>
      </trkpt>
      <trkpt lat="42.2560060" lon="-1.8875690">
        <ele>289.2</ele>
        <time>2021-09-29T09:39:02Z</time>
      </trkpt>
      <trkpt lat="42.2560740" lon="-1.8875990">
        <ele>289.6</ele>
        <time>2021-09-29T09:39:04Z</time>
      </trkpt>
      <trkpt lat="42.2562120" lon="-1.8876670">
        <ele>291.6</ele>
        <time>2021-09-29T09:39:09Z</time>
      </trkpt>
      <trkpt lat="42.2562720" lon="-1.8876790">
        <ele>293.0</ele>
        <time>2021-09-29T09:39:11Z</time>
      </trkpt>
      <trkpt lat="42.2563310" lon="-1.8876770">
        <ele>294.6</ele>
        <time>2021-09-29T09:39:13Z</time>
      </trkpt>
      <trkpt lat="42.2564170" lon="-1.8876590">
        <ele>295.6</ele>
        <time>2021-09-29T09:39:16Z</time>
      </trkpt>
      <trkpt lat="42.2565040" lon="-1.8876260">
        <ele>296.8</ele>
        <time>2021-09-29T09:39:19Z</time>
      </trkpt>
      <trkpt lat="42.2566120" lon="-1.8875380">
        <ele>298.0</ele>
        <time>2021-09-29T09:39:25Z</time>
      </trkpt>
      <trkpt lat="42.2566460" lon="-1.8874790">
        <ele>299.2</ele>
        <time>2021-09-29T09:39:28Z</time>
      </trkpt>
      <trkpt lat="42.2566790" lon="-1.8874150">
        <ele>300.2</ele>
        <time>2021-09-29T09:39:31Z</time>
      </trkpt>
      <trkpt lat="42.2566890" lon="-1.8874010">
        <ele>300.6</ele>
        <time>2021-09-29T09:39:33Z</time>
      </trkpt>
      <trkpt lat="42.2567510" lon="-1.8873680">
        <ele>301.8</ele>
        <time>2021-09-29T09:41:37Z</time>
      </trkpt>
      <trkpt lat="42.2567680" lon="-1.8873470">
        <ele>301.8</ele>
        <time>2021-09-29T09:41:38Z</time>
      </trkpt>
      <trkpt lat="42.2570400" lon="-1.8870360">
        <ele>300.6</ele>
        <time>2021-09-29T09:41:49Z</time>
      </trkpt>
      <trkpt lat="42.2571270" lon="-1.8869340">
        <ele>300.2</ele>
        <time>2021-09-29T09:41:52Z</time>
      </trkpt>
      <trkpt lat="42.2571900" lon="-1.8868480">
        <ele>300.0</ele>
        <time>2021-09-29T09:41:56Z</time>
      </trkpt>
      <trkpt lat="42.2572220" lon="-1.8867770">
        <ele>299.6</ele>
        <time>2021-09-29T09:41:59Z</time>
      </trkpt>
      <trkpt lat="42.2573220" lon="-1.8865450">
        <ele>298.8</ele>
        <time>2021-09-29T09:42:04Z</time>
      </trkpt>
      <trkpt lat="42.2573800" lon="-1.8863790">
        <ele>298.4</ele>
        <time>2021-09-29T09:42:07Z</time>
      </trkpt>
      <trkpt lat="42.2574090" lon="-1.8862630">
        <ele>297.0</ele>
        <time>2021-09-29T09:42:09Z</time>
      </trkpt>
      <trkpt lat="42.2574620" lon="-1.8860360">
        <ele>295.8</ele>
        <time>2021-09-29T09:42:13Z</time>
      </trkpt>
      <trkpt lat="42.2575240" lon="-1.8857520">
        <ele>294.6</ele>
        <time>2021-09-29T09:42:18Z</time>
      </trkpt>
      <trkpt lat="42.2575390" lon="-1.8855980">
        <ele>293.2</ele>
        <time>2021-09-29T09:42:21Z</time>
      </trkpt>
      <trkpt lat="42.2575170" lon="-1.8855130">
        <ele>292.6</ele>
        <time>2021-09-29T09:42:24Z</time>
      </trkpt>
      <trkpt lat="42.2574670" lon="-1.8854730">
        <ele>291.8</ele>
        <time>2021-09-29T09:42:26Z</time>
      </trkpt>
      <trkpt lat="42.2573720" lon="-1.8854930">
        <ele>290.6</ele>
        <time>2021-09-29T09:42:29Z</time>
      </trkpt>
      <trkpt lat="42.2572990" lon="-1.8855210">
        <ele>290.0</ele>
        <time>2021-09-29T09:42:31Z</time>
      </trkpt>
      <trkpt lat="42.2572160" lon="-1.8855480">
        <ele>289.4</ele>
        <time>2021-09-29T09:42:33Z</time>
      </trkpt>
      <trkpt lat="42.2568330" lon="-1.8856640">
        <ele>288.6</ele>
        <time>2021-09-29T09:42:41Z</time>
      </trkpt>
      <trkpt lat="42.2567860" lon="-1.8856830">
        <ele>288.4</ele>
        <time>2021-09-29T09:42:42Z</time>
      </trkpt>
      <trkpt lat="42.2567420" lon="-1.8857050">
        <ele>288.2</ele>
        <time>2021-09-29T09:42:43Z</time>
      </trkpt>
      <trkpt lat="42.2566660" lon="-1.8857720">
        <ele>288.0</ele>
        <time>2021-09-29T09:42:45Z</time>
      </trkpt>
      <trkpt lat="42.2565580" lon="-1.8859070">
        <ele>288.0</ele>
        <time>2021-09-29T09:42:48Z</time>
      </trkpt>
      <trkpt lat="42.2563880" lon="-1.8861540">
        <ele>287.8</ele>
        <time>2021-09-29T09:42:53Z</time>
      </trkpt>
      <trkpt lat="42.2562950" lon="-1.8863000">
        <ele>288.0</ele>
        <time>2021-09-29T09:42:56Z</time>
      </trkpt>
      <trkpt lat="42.2562510" lon="-1.8864430">
        <ele>288.2</ele>
        <time>2021-09-29T09:42:59Z</time>
      </trkpt>
      <trkpt lat="42.2563080" lon="-1.8865840">
        <ele>288.6</ele>
        <time>2021-09-29T09:43:02Z</time>
      </trkpt>
      <trkpt lat="42.2563370" lon="-1.8866340">
        <ele>288.8</ele>
        <time>2021-09-29T09:43:03Z</time>
      </trkpt>
      <trkpt lat="42.2564300" lon="-1.8867980">
        <ele>289.2</ele>
        <time>2021-09-29T09:43:06Z</time>
      </trkpt>
      <trkpt lat="42.2564930" lon="-1.8869100">
        <ele>289.4</ele>
        <time>2021-09-29T09:43:08Z</time>
      </trkpt>
      <trkpt lat="42.2568470" lon="-1.8875010">
        <ele>288.4</ele>
        <time>2021-09-29T09:43:20Z</time>
      </trkpt>
      <trkpt lat="42.2572020" lon="-1.8880840">
        <ele>288.2</ele>
        <time>2021-09-29T09:43:32Z</time>
      </trkpt>
      <trkpt lat="42.2574720" lon="-1.8885580">
        <ele>288.8</ele>
        <time>2021-09-29T09:43:42Z</time>
      </trkpt>
      <trkpt lat="42.2576030" lon="-1.8887270">
        <ele>289.2</ele>
        <time>2021-09-29T09:43:47Z</time>
      </trkpt>
      <trkpt lat="42.2576140" lon="-1.8887430">
        <ele>289.2</ele>
        <time>2021-09-29T09:43:49Z</time>
      </trkpt>
      <trkpt lat="42.2576310" lon="-1.8887770">
        <ele>290.0</ele>
        <time>2021-09-29T09:45:35Z</time>
      </trkpt>
      <trkpt lat="42.2576450" lon="-1.8887990">
        <ele>290.0</ele>
        <time>2021-09-29T09:45:36Z</time>
      </trkpt>
      <trkpt lat="42.2578850" lon="-1.8891950">
        <ele>289.0</ele>
        <time>2021-09-29T09:45:47Z</time>
      </trkpt>
      <trkpt lat="42.2580110" lon="-1.8894000">
        <ele>288.6</ele>
        <time>2021-09-29T09:45:52Z</time>
      </trkpt>
      <trkpt lat="42.2581000" lon="-1.8895270">
        <ele>288.6</ele>
        <time>2021-09-29T09:45:55Z</time>
      </trkpt>
      <trkpt lat="42.2581960" lon="-1.8896640">
        <ele>288.6</ele>
        <time>2021-09-29T09:45:58Z</time>
      </trkpt>
      <trkpt lat="42.2582640" lon="-1.8897600">
        <ele>288.8</ele>
        <time>2021-09-29T09:46:00Z</time>
      </trkpt>
      <trkpt lat="42.2583720" lon="-1.8899160">
        <ele>288.6</ele>
        <time>2021-09-29T09:46:03Z</time>
      </trkpt>
      <trkpt lat="42.2584460" lon="-1.8900220">
        <ele>288.6</ele>
        <time>2021-09-29T09:46:05Z</time>
      </trkpt>
      <trkpt lat="42.2585530" lon="-1.8901830">
        <ele>288.8</ele>
        <time>2021-09-29T09:46:08Z</time>
      </trkpt>
      <trkpt lat="42.2586530" lon="-1.8903500">
        <ele>288.8</ele>
        <time>2021-09-29T09:46:11Z</time>
      </trkpt>
      <trkpt lat="42.2588790" lon="-1.8907320">
        <ele>288.8</ele>
        <time>2021-09-29T09:46:18Z</time>
      </trkpt>
      <trkpt lat="42.2592200" lon="-1.8913250">
        <ele>289.2</ele>
        <time>2021-09-29T09:46:29Z</time>
      </trkpt>
      <trkpt lat="42.2595590" lon="-1.8919240">
        <ele>289.2</ele>
        <time>2021-09-29T09:46:40Z</time>
      </trkpt>
      <trkpt lat="42.2597510" lon="-1.8922390">
        <ele>290.0</ele>
        <time>2021-09-29T09:46:46Z</time>
      </trkpt>
      <trkpt lat="42.2601310" lon="-1.8927820">
        <ele>290.4</ele>
        <time>2021-09-29T09:46:57Z</time>
      </trkpt>
      <trkpt lat="42.2604750" lon="-1.8933550">
        <ele>290.0</ele>
        <time>2021-09-29T09:47:08Z</time>
      </trkpt>
      <trkpt lat="42.2605380" lon="-1.8934540">
        <ele>290.0</ele>
        <time>2021-09-29T09:47:10Z</time>
      </trkpt>
      <trkpt lat="42.2608790" lon="-1.8934890">
        <ele>290.2</ele>
        <time>2021-09-29T09:47:17Z</time>
      </trkpt>
      <trkpt lat="42.2614010" lon="-1.8933030">
        <ele>290.4</ele>
        <time>2021-09-29T09:47:27Z</time>
      </trkpt>
      <trkpt lat="42.2615830" lon="-1.8931160">
        <ele>290.8</ele>
        <time>2021-09-29T09:47:31Z</time>
      </trkpt>
      <trkpt lat="42.2618520" lon="-1.8928130">
        <ele>291.0</ele>
        <time>2021-09-29T09:47:37Z</time>
      </trkpt>
      <trkpt lat="42.2622770" lon="-1.8924700">
        <ele>291.0</ele>
        <time>2021-09-29T09:47:46Z</time>
      </trkpt>
      <trkpt lat="42.2624160" lon="-1.8923600">
        <ele>291.0</ele>
        <time>2021-09-29T09:47:49Z</time>
      </trkpt>
      <trkpt lat="42.2625100" lon="-1.8922920">
        <ele>290.8</ele>
        <time>2021-09-29T09:47:51Z</time>
      </trkpt>
      <trkpt lat="42.2626080" lon="-1.8922340">
        <ele>290.6</ele>
        <time>2021-09-29T09:47:53Z</time>
      </trkpt>
      <trkpt lat="42.2626600" lon="-1.8922170">
        <ele>290.6</ele>
        <time>2021-09-29T09:47:54Z</time>
      </trkpt>
      <trkpt lat="42.2629260" lon="-1.8923070">
        <ele>290.2</ele>
        <time>2021-09-29T09:47:59Z</time>
      </trkpt>
      <trkpt lat="42.2630350" lon="-1.8923620">
        <ele>289.2</ele>
        <time>2021-09-29T09:48:01Z</time>
      </trkpt>
      <trkpt lat="42.2630930" lon="-1.8923730">
        <ele>288.8</ele>
        <time>2021-09-29T09:48:02Z</time>
      </trkpt>
      <trkpt lat="42.2632060" lon="-1.8923480">
        <ele>286.8</ele>
        <time>2021-09-29T09:48:04Z</time>
      </trkpt>
      <trkpt lat="42.2632600" lon="-1.8923240">
        <ele>286.2</ele>
        <time>2021-09-29T09:48:05Z</time>
      </trkpt>
      <trkpt lat="42.2633710" lon="-1.8922710">
        <ele>285.8</ele>
        <time>2021-09-29T09:48:07Z</time>
      </trkpt>
      <trkpt lat="42.2634850" lon="-1.8922270">
        <ele>285.6</ele>
        <time>2021-09-29T09:48:09Z</time>
      </trkpt>
      <trkpt lat="42.2640710" lon="-1.8921850">
        <ele>285.8</ele>
        <time>2021-09-29T09:48:19Z</time>
      </trkpt>
      <trkpt lat="42.2641820" lon="-1.8922040">
        <ele>286.0</ele>
        <time>2021-09-29T09:48:21Z</time>
      </trkpt>
      <trkpt lat="42.2643830" lon="-1.8924080">
        <ele>286.2</ele>
        <time>2021-09-29T09:48:26Z</time>
      </trkpt>
      <trkpt lat="42.2645270" lon="-1.8926130">
        <ele>286.4</ele>
        <time>2021-09-29T09:48:30Z</time>
      </trkpt>
      <trkpt lat="42.2647580" lon="-1.8929960">
        <ele>285.6</ele>
        <time>2021-09-29T09:48:37Z</time>
      </trkpt>
      <trkpt lat="42.2651050" lon="-1.8935940">
        <ele>285.2</ele>
        <time>2021-09-29T09:48:48Z</time>
      </trkpt>
      <trkpt lat="42.2653560" lon="-1.8939230">
        <ele>286.8</ele>
        <time>2021-09-29T09:48:55Z</time>
      </trkpt>
      <trkpt lat="42.2653950" lon="-1.8939560">
        <ele>286.8</ele>
        <time>2021-09-29T09:48:56Z</time>
      </trkpt>
      <trkpt lat="42.2654780" lon="-1.8940110">
        <ele>287.2</ele>
        <time>2021-09-29T09:48:58Z</time>
      </trkpt>
      <trkpt lat="42.2657050" lon="-1.8940920">
        <ele>288.0</ele>
        <time>2021-09-29T09:49:03Z</time>
      </trkpt>
      <trkpt lat="42.2661230" lon="-1.8942800">
        <ele>288.4</ele>
        <time>2021-09-29T09:49:12Z</time>
      </trkpt>
      <trkpt lat="42.2663230" lon="-1.8945730">
        <ele>288.4</ele>
        <time>2021-09-29T09:49:18Z</time>
      </trkpt>
      <trkpt lat="42.2665240" lon="-1.8951180">
        <ele>287.6</ele>
        <time>2021-09-29T09:49:27Z</time>
      </trkpt>
      <trkpt lat="42.2667780" lon="-1.8953160">
        <ele>287.0</ele>
        <time>2021-09-29T09:49:33Z</time>
      </trkpt>
      <trkpt lat="42.2668250" lon="-1.8953370">
        <ele>286.8</ele>
        <time>2021-09-29T09:49:34Z</time>
      </trkpt>
      <trkpt lat="42.2670120" lon="-1.8954210">
        <ele>286.6</ele>
        <time>2021-09-29T09:49:38Z</time>
      </trkpt>
      <trkpt lat="42.2671760" lon="-1.8955530">
        <ele>286.6</ele>
        <time>2021-09-29T09:49:42Z</time>
      </trkpt>
      <trkpt lat="42.2673660" lon="-1.8957720">
        <ele>286.6</ele>
        <time>2021-09-29T09:49:47Z</time>
      </trkpt>
      <trkpt lat="42.2675550" lon="-1.8958770">
        <ele>286.6</ele>
        <time>2021-09-29T09:49:51Z</time>
      </trkpt>
      <trkpt lat="42.2680930" lon="-1.8961580">
        <ele>287.0</ele>
        <time>2021-09-29T09:50:02Z</time>
      </trkpt>
      <trkpt lat="42.2683230" lon="-1.8963230">
        <ele>287.0</ele>
        <time>2021-09-29T09:50:07Z</time>
      </trkpt>
      <trkpt lat="42.2684530" lon="-1.8965420">
        <ele>286.6</ele>
        <time>2021-09-29T09:50:11Z</time>
      </trkpt>
      <trkpt lat="42.2687190" lon="-1.8972480">
        <ele>286.2</ele>
        <time>2021-09-29T09:50:22Z</time>
      </trkpt>
      <trkpt lat="42.2690820" lon="-1.8978410">
        <ele>286.0</ele>
        <time>2021-09-29T09:50:33Z</time>
      </trkpt>
      <trkpt lat="42.2691770" lon="-1.8980090">
        <ele>285.6</ele>
        <time>2021-09-29T09:50:36Z</time>
      </trkpt>
      <trkpt lat="42.2693760" lon="-1.8983120">
        <ele>285.4</ele>
        <time>2021-09-29T09:50:42Z</time>
      </trkpt>
      <trkpt lat="42.2697030" lon="-1.8984120">
        <ele>286.0</ele>
        <time>2021-09-29T09:50:49Z</time>
      </trkpt>
      <trkpt lat="42.2698090" lon="-1.8983980">
        <ele>287.0</ele>
        <time>2021-09-29T09:50:51Z</time>
      </trkpt>
      <trkpt lat="42.2699160" lon="-1.8983740">
        <ele>288.2</ele>
        <time>2021-09-29T09:50:53Z</time>
      </trkpt>
      <trkpt lat="42.2702960" lon="-1.8982750">
        <ele>289.0</ele>
        <time>2021-09-29T09:51:00Z</time>
      </trkpt>
      <trkpt lat="42.2708480" lon="-1.8982240">
        <ele>288.2</ele>
        <time>2021-09-29T09:51:10Z</time>
      </trkpt>
      <trkpt lat="42.2713200" lon="-1.8982120">
        <ele>287.8</ele>
        <time>2021-09-29T09:51:19Z</time>
      </trkpt>
      <trkpt lat="42.2717190" lon="-1.8982080">
        <ele>287.6</ele>
        <time>2021-09-29T09:51:27Z</time>
      </trkpt>
      <trkpt lat="42.2719010" lon="-1.8982130">
        <ele>287.6</ele>
        <time>2021-09-29T09:51:31Z</time>
      </trkpt>
      <trkpt lat="42.2720840" lon="-1.8983630">
        <ele>287.6</ele>
        <time>2021-09-29T09:51:36Z</time>
      </trkpt>
      <trkpt lat="42.2722610" lon="-1.8986110">
        <ele>287.6</ele>
        <time>2021-09-29T09:51:41Z</time>
      </trkpt>
      <trkpt lat="42.2726060" lon="-1.8989340">
        <ele>287.4</ele>
        <time>2021-09-29T09:51:49Z</time>
      </trkpt>
      <trkpt lat="42.2726880" lon="-1.8990260">
        <ele>287.2</ele>
        <time>2021-09-29T09:51:51Z</time>
      </trkpt>
      <trkpt lat="42.2730370" lon="-1.8995990">
        <ele>287.8</ele>
        <time>2021-09-29T09:52:01Z</time>
      </trkpt>
      <trkpt lat="42.2733800" lon="-1.9001900">
        <ele>288.0</ele>
        <time>2021-09-29T09:52:11Z</time>
      </trkpt>
      <trkpt lat="42.2737980" lon="-1.9006710">
        <ele>288.2</ele>
        <time>2021-09-29T09:52:21Z</time>
      </trkpt>
      <trkpt lat="42.2738430" lon="-1.9007160">
        <ele>288.2</ele>
        <time>2021-09-29T09:52:22Z</time>
      </trkpt>
      <trkpt lat="42.2742450" lon="-1.9012570">
        <ele>289.0</ele>
        <time>2021-09-29T09:52:32Z</time>
      </trkpt>
      <trkpt lat="42.2746940" lon="-1.9017690">
        <ele>289.2</ele>
        <time>2021-09-29T09:52:42Z</time>
      </trkpt>
      <trkpt lat="42.2751210" lon="-1.9022200">
        <ele>289.2</ele>
        <time>2021-09-29T09:52:51Z</time>
      </trkpt>
      <trkpt lat="42.2752640" lon="-1.9023690">
        <ele>289.4</ele>
        <time>2021-09-29T09:52:54Z</time>
      </trkpt>
      <trkpt lat="42.2756320" lon="-1.9028990">
        <ele>289.6</ele>
        <time>2021-09-29T09:53:03Z</time>
      </trkpt>
      <trkpt lat="42.2759540" lon="-1.9035630">
        <ele>289.8</ele>
        <time>2021-09-29T09:53:13Z</time>
      </trkpt>
      <trkpt lat="42.2762360" lon="-1.9042480">
        <ele>290.0</ele>
        <time>2021-09-29T09:53:23Z</time>
      </trkpt>
      <trkpt lat="42.2763800" lon="-1.9045990">
        <ele>290.0</ele>
        <time>2021-09-29T09:53:28Z</time>
      </trkpt>
      <trkpt lat="42.2767630" lon="-1.9052140">
        <ele>289.8</ele>
        <time>2021-09-29T09:53:38Z</time>
      </trkpt>
      <trkpt lat="42.2771220" lon="-1.9058090">
        <ele>289.6</ele>
        <time>2021-09-29T09:53:48Z</time>
      </trkpt>
      <trkpt lat="42.2774880" lon="-1.9063940">
        <ele>289.8</ele>
        <time>2021-09-29T09:53:58Z</time>
      </trkpt>
      <trkpt lat="42.2778580" lon="-1.9069740">
        <ele>289.2</ele>
        <time>2021-09-29T09:54:08Z</time>
      </trkpt>
      <trkpt lat="42.2779260" lon="-1.9070960">
        <ele>289.2</ele>
        <time>2021-09-29T09:54:10Z</time>
      </trkpt>
      <trkpt lat="42.2781320" lon="-1.9078370">
        <ele>289.2</ele>
        <time>2021-09-29T09:54:20Z</time>
      </trkpt>
      <trkpt lat="42.2782390" lon="-1.9081340">
        <ele>290.4</ele>
        <time>2021-09-29T09:54:24Z</time>
      </trkpt>
      <trkpt lat="42.2785780" lon="-1.9087270">
        <ele>290.8</ele>
        <time>2021-09-29T09:54:33Z</time>
      </trkpt>
      <trkpt lat="42.2789370" lon="-1.9093540">
        <ele>289.8</ele>
        <time>2021-09-29T09:54:43Z</time>
      </trkpt>
      <trkpt lat="42.2792840" lon="-1.9099180">
        <ele>289.6</ele>
        <time>2021-09-29T09:54:52Z</time>
      </trkpt>
      <trkpt lat="42.2793630" lon="-1.9100390">
        <ele>289.2</ele>
        <time>2021-09-29T09:54:54Z</time>
      </trkpt>
      <trkpt lat="42.2794840" lon="-1.9102160">
        <ele>289.0</ele>
        <time>2021-09-29T09:54:57Z</time>
      </trkpt>
      <trkpt lat="42.2796310" lon="-1.9104780">
        <ele>288.8</ele>
        <time>2021-09-29T09:55:01Z</time>
      </trkpt>
      <trkpt lat="42.2800040" lon="-1.9110620">
        <ele>290.0</ele>
        <time>2021-09-29T09:55:10Z</time>
      </trkpt>
      <trkpt lat="42.2803180" lon="-1.9114740">
        <ele>290.2</ele>
        <time>2021-09-29T09:55:17Z</time>
      </trkpt>
      <trkpt lat="42.2807020" lon="-1.9120120">
        <ele>290.6</ele>
        <time>2021-09-29T09:55:26Z</time>
      </trkpt>
      <trkpt lat="42.2810100" lon="-1.9124280">
        <ele>291.0</ele>
        <time>2021-09-29T09:55:33Z</time>
      </trkpt>
      <trkpt lat="42.2813940" lon="-1.9129710">
        <ele>291.0</ele>
        <time>2021-09-29T09:55:42Z</time>
      </trkpt>
      <trkpt lat="42.2816890" lon="-1.9135920">
        <ele>290.4</ele>
        <time>2021-09-29T09:55:51Z</time>
      </trkpt>
      <trkpt lat="42.2820100" lon="-1.9142570">
        <ele>290.8</ele>
        <time>2021-09-29T09:56:01Z</time>
      </trkpt>
      <trkpt lat="42.2821110" lon="-1.9144470">
        <ele>291.0</ele>
        <time>2021-09-29T09:56:04Z</time>
      </trkpt>
      <trkpt lat="42.2824480" lon="-1.9150740">
        <ele>292.0</ele>
        <time>2021-09-29T09:56:14Z</time>
      </trkpt>
      <trkpt lat="42.2824820" lon="-1.9151340">
        <ele>292.2</ele>
        <time>2021-09-29T09:56:15Z</time>
      </trkpt>
      <trkpt lat="42.2828070" lon="-1.9157500">
        <ele>292.2</ele>
        <time>2021-09-29T09:56:25Z</time>
      </trkpt>
      <trkpt lat="42.2830930" lon="-1.9163900">
        <ele>292.8</ele>
        <time>2021-09-29T09:56:35Z</time>
      </trkpt>
      <trkpt lat="42.2831770" lon="-1.9165810">
        <ele>293.2</ele>
        <time>2021-09-29T09:56:38Z</time>
      </trkpt>
      <trkpt lat="42.2834710" lon="-1.9172050">
        <ele>293.8</ele>
        <time>2021-09-29T09:56:48Z</time>
      </trkpt>
      <trkpt lat="42.2835920" lon="-1.9174550">
        <ele>294.2</ele>
        <time>2021-09-29T09:56:52Z</time>
      </trkpt>
      <trkpt lat="42.2838510" lon="-1.9181170">
        <ele>294.6</ele>
        <time>2021-09-29T09:57:02Z</time>
      </trkpt>
      <trkpt lat="42.2840040" lon="-1.9185200">
        <ele>295.2</ele>
        <time>2021-09-29T09:57:08Z</time>
      </trkpt>
      <trkpt lat="42.2842070" lon="-1.9189830">
        <ele>295.8</ele>
        <time>2021-09-29T09:57:15Z</time>
      </trkpt>
      <trkpt lat="42.2845530" lon="-1.9196250">
        <ele>295.8</ele>
        <time>2021-09-29T09:57:25Z</time>
      </trkpt>
      <trkpt lat="42.2848430" lon="-1.9201910">
        <ele>294.2</ele>
        <time>2021-09-29T09:57:34Z</time>
      </trkpt>
      <trkpt lat="42.2851470" lon="-1.9208430">
        <ele>293.6</ele>
        <time>2021-09-29T09:57:44Z</time>
      </trkpt>
      <trkpt lat="42.2854540" lon="-1.9214960">
        <ele>294.4</ele>
        <time>2021-09-29T09:57:54Z</time>
      </trkpt>
      <trkpt lat="42.2856640" lon="-1.9219680">
        <ele>295.2</ele>
        <time>2021-09-29T09:58:01Z</time>
      </trkpt>
      <trkpt lat="42.2859700" lon="-1.9226050">
        <ele>295.6</ele>
        <time>2021-09-29T09:58:11Z</time>
      </trkpt>
      <trkpt lat="42.2862840" lon="-1.9232270">
        <ele>295.8</ele>
        <time>2021-09-29T09:58:21Z</time>
      </trkpt>
      <trkpt lat="42.2863690" lon="-1.9234150">
        <ele>296.2</ele>
        <time>2021-09-29T09:58:24Z</time>
      </trkpt>
      <trkpt lat="42.2867310" lon="-1.9240450">
        <ele>296.8</ele>
        <time>2021-09-29T09:58:35Z</time>
      </trkpt>
      <trkpt lat="42.2870410" lon="-1.9246420">
        <ele>296.4</ele>
        <time>2021-09-29T09:58:45Z</time>
      </trkpt>
      <trkpt lat="42.2872550" lon="-1.9251440">
        <ele>296.2</ele>
        <time>2021-09-29T09:58:53Z</time>
      </trkpt>
      <trkpt lat="42.2874680" lon="-1.9256660">
        <ele>297.2</ele>
        <time>2021-09-29T09:59:01Z</time>
      </trkpt>
      <trkpt lat="42.2877330" lon="-1.9263040">
        <ele>297.8</ele>
        <time>2021-09-29T09:59:11Z</time>
      </trkpt>
      <trkpt lat="42.2878910" lon="-1.9266050">
        <ele>297.6</ele>
        <time>2021-09-29T09:59:16Z</time>
      </trkpt>
      <trkpt lat="42.2882120" lon="-1.9272060">
        <ele>297.0</ele>
        <time>2021-09-29T09:59:26Z</time>
      </trkpt>
      <trkpt lat="42.2884360" lon="-1.9276250">
        <ele>296.8</ele>
        <time>2021-09-29T09:59:33Z</time>
      </trkpt>
      <trkpt lat="42.2887240" lon="-1.9282680">
        <ele>297.4</ele>
        <time>2021-09-29T09:59:43Z</time>
      </trkpt>
      <trkpt lat="42.2889670" lon="-1.9289450">
        <ele>298.0</ele>
        <time>2021-09-29T09:59:53Z</time>
      </trkpt>
      <trkpt lat="42.2890690" lon="-1.9292030">
        <ele>298.2</ele>
        <time>2021-09-29T09:59:57Z</time>
      </trkpt>
      <trkpt lat="42.2893710" lon="-1.9298410">
        <ele>298.4</ele>
        <time>2021-09-29T10:00:07Z</time>
      </trkpt>
      <trkpt lat="42.2896670" lon="-1.9304730">
        <ele>298.4</ele>
        <time>2021-09-29T10:00:17Z</time>
      </trkpt>
      <trkpt lat="42.2898350" lon="-1.9308450">
        <ele>299.2</ele>
        <time>2021-09-29T10:00:23Z</time>
      </trkpt>
      <trkpt lat="42.2900370" lon="-1.9312990">
        <ele>299.8</ele>
        <time>2021-09-29T10:00:30Z</time>
      </trkpt>
      <trkpt lat="42.2901490" lon="-1.9315650">
        <ele>300.4</ele>
        <time>2021-09-29T10:00:34Z</time>
      </trkpt>
      <trkpt lat="42.2903930" lon="-1.9322500">
        <ele>301.4</ele>
        <time>2021-09-29T10:00:44Z</time>
      </trkpt>
      <trkpt lat="42.2905000" lon="-1.9326030">
        <ele>302.6</ele>
        <time>2021-09-29T10:00:49Z</time>
      </trkpt>
      <trkpt lat="42.2907270" lon="-1.9332910">
        <ele>303.4</ele>
        <time>2021-09-29T10:00:59Z</time>
      </trkpt>
      <trkpt lat="42.2910180" lon="-1.9339190">
        <ele>303.4</ele>
        <time>2021-09-29T10:01:09Z</time>
      </trkpt>
      <trkpt lat="42.2912140" lon="-1.9343640">
        <ele>303.4</ele>
        <time>2021-09-29T10:01:16Z</time>
      </trkpt>
      <trkpt lat="42.2914180" lon="-1.9350070">
        <ele>303.6</ele>
        <time>2021-09-29T10:01:26Z</time>
      </trkpt>
      <trkpt lat="42.2914300" lon="-1.9350690">
        <ele>303.6</ele>
        <time>2021-09-29T10:01:29Z</time>
      </trkpt>
      <trkpt lat="42.2914340" lon="-1.9350910">
        <ele>306.6</ele>
        <time>2021-09-29T10:02:01Z</time>
      </trkpt>
      <trkpt lat="42.2914390" lon="-1.9351120">
        <ele>306.6</ele>
        <time>2021-09-29T10:02:02Z</time>
      </trkpt>
      <trkpt lat="42.2915840" lon="-1.9355690">
        <ele>305.4</ele>
        <time>2021-09-29T10:02:13Z</time>
      </trkpt>
      <trkpt lat="42.2917490" lon="-1.9362590">
        <ele>304.4</ele>
        <time>2021-09-29T10:02:25Z</time>
      </trkpt>
      <trkpt lat="42.2917510" lon="-1.9366800">
        <ele>304.4</ele>
        <time>2021-09-29T10:02:31Z</time>
      </trkpt>
      <trkpt lat="42.2917530" lon="-1.9367510">
        <ele>304.4</ele>
        <time>2021-09-29T10:02:32Z</time>
      </trkpt>
      <trkpt lat="42.2917860" lon="-1.9370330">
        <ele>304.2</ele>
        <time>2021-09-29T10:02:36Z</time>
      </trkpt>
      <trkpt lat="42.2918770" lon="-1.9374460">
        <ele>304.0</ele>
        <time>2021-09-29T10:02:42Z</time>
      </trkpt>
      <trkpt lat="42.2920780" lon="-1.9381310">
        <ele>304.0</ele>
        <time>2021-09-29T10:02:52Z</time>
      </trkpt>
      <trkpt lat="42.2923440" lon="-1.9388440">
        <ele>304.2</ele>
        <time>2021-09-29T10:03:02Z</time>
      </trkpt>
      <trkpt lat="42.2925690" lon="-1.9395750">
        <ele>304.4</ele>
        <time>2021-09-29T10:03:12Z</time>
      </trkpt>
      <trkpt lat="42.2928000" lon="-1.9402020">
        <ele>304.4</ele>
        <time>2021-09-29T10:03:21Z</time>
      </trkpt>
      <trkpt lat="42.2929560" lon="-1.9406150">
        <ele>304.6</ele>
        <time>2021-09-29T10:03:27Z</time>
      </trkpt>
      <trkpt lat="42.2931370" lon="-1.9411830">
        <ele>305.4</ele>
        <time>2021-09-29T10:03:35Z</time>
      </trkpt>
      <trkpt lat="42.2932560" lon="-1.9416520">
        <ele>306.2</ele>
        <time>2021-09-29T10:03:41Z</time>
      </trkpt>
      <trkpt lat="42.2933080" lon="-1.9420070">
        <ele>306.4</ele>
        <time>2021-09-29T10:03:46Z</time>
      </trkpt>
      <trkpt lat="42.2932580" lon="-1.9422700">
        <ele>307.0</ele>
        <time>2021-09-29T10:03:50Z</time>
      </trkpt>
      <trkpt lat="42.2932270" lon="-1.9424010">
        <ele>307.4</ele>
        <time>2021-09-29T10:03:52Z</time>
      </trkpt>
      <trkpt lat="42.2932180" lon="-1.9424680">
        <ele>307.6</ele>
        <time>2021-09-29T10:03:53Z</time>
      </trkpt>
      <trkpt lat="42.2932960" lon="-1.9426890">
        <ele>308.2</ele>
        <time>2021-09-29T10:03:57Z</time>
      </trkpt>
      <trkpt lat="42.2936150" lon="-1.9432900">
        <ele>307.6</ele>
        <time>2021-09-29T10:04:07Z</time>
      </trkpt>
      <trkpt lat="42.2938420" lon="-1.9437090">
        <ele>307.6</ele>
        <time>2021-09-29T10:04:14Z</time>
      </trkpt>
      <trkpt lat="42.2942240" lon="-1.9442560">
        <ele>307.2</ele>
        <time>2021-09-29T10:04:24Z</time>
      </trkpt>
      <trkpt lat="42.2944510" lon="-1.9445900">
        <ele>306.4</ele>
        <time>2021-09-29T10:04:30Z</time>
      </trkpt>
      <trkpt lat="42.2946460" lon="-1.9448600">
        <ele>306.2</ele>
        <time>2021-09-29T10:04:35Z</time>
      </trkpt>
      <trkpt lat="42.2950350" lon="-1.9454280">
        <ele>307.2</ele>
        <time>2021-09-29T10:04:45Z</time>
      </trkpt>
      <trkpt lat="42.2950740" lon="-1.9454820">
        <ele>307.4</ele>
        <time>2021-09-29T10:04:46Z</time>
      </trkpt>
      <trkpt lat="42.2954440" lon="-1.9460240">
        <ele>307.6</ele>
        <time>2021-09-29T10:04:56Z</time>
      </trkpt>
      <trkpt lat="42.2957950" lon="-1.9464970">
        <ele>307.4</ele>
        <time>2021-09-29T10:05:05Z</time>
      </trkpt>
      <trkpt lat="42.2961930" lon="-1.9470220">
        <ele>307.6</ele>
        <time>2021-09-29T10:05:15Z</time>
      </trkpt>
      <trkpt lat="42.2966180" lon="-1.9474970">
        <ele>308.0</ele>
        <time>2021-09-29T10:05:25Z</time>
      </trkpt>
      <trkpt lat="42.2970780" lon="-1.9479560">
        <ele>307.8</ele>
        <time>2021-09-29T10:05:35Z</time>
      </trkpt>
      <trkpt lat="42.2975150" lon="-1.9483010">
        <ele>307.2</ele>
        <time>2021-09-29T10:05:44Z</time>
      </trkpt>
      <trkpt lat="42.2978410" lon="-1.9482630">
        <ele>307.4</ele>
        <time>2021-09-29T10:05:50Z</time>
      </trkpt>
      <trkpt lat="42.2980930" lon="-1.9481490">
        <ele>308.2</ele>
        <time>2021-09-29T10:05:55Z</time>
      </trkpt>
      <trkpt lat="42.2982360" lon="-1.9480810">
        <ele>309.2</ele>
        <time>2021-09-29T10:05:58Z</time>
      </trkpt>
      <trkpt lat="42.2982850" lon="-1.9480700">
        <ele>309.6</ele>
        <time>2021-09-29T10:05:59Z</time>
      </trkpt>
      <trkpt lat="42.2984320" lon="-1.9480640">
        <ele>310.2</ele>
        <time>2021-09-29T10:06:02Z</time>
      </trkpt>
      <trkpt lat="42.2986240" lon="-1.9481090">
        <ele>310.2</ele>
        <time>2021-09-29T10:06:06Z</time>
      </trkpt>
      <trkpt lat="42.2987500" lon="-1.9482500">
        <ele>310.2</ele>
        <time>2021-09-29T10:06:09Z</time>
      </trkpt>
      <trkpt lat="42.2987850" lon="-1.9483110">
        <ele>310.0</ele>
        <time>2021-09-29T10:06:10Z</time>
      </trkpt>
      <trkpt lat="42.2988200" lon="-1.9483750">
        <ele>309.6</ele>
        <time>2021-09-29T10:06:11Z</time>
      </trkpt>
      <trkpt lat="42.2989030" lon="-1.9486000">
        <ele>308.2</ele>
        <time>2021-09-29T10:06:14Z</time>
      </trkpt>
      <trkpt lat="42.2989250" lon="-1.9486830">
        <ele>307.6</ele>
        <time>2021-09-29T10:06:15Z</time>
      </trkpt>
      <trkpt lat="42.2989620" lon="-1.9488520">
        <ele>307.0</ele>
        <time>2021-09-29T10:06:17Z</time>
      </trkpt>
      <trkpt lat="42.2989810" lon="-1.9490270">
        <ele>306.4</ele>
        <time>2021-09-29T10:06:19Z</time>
      </trkpt>
      <trkpt lat="42.2989710" lon="-1.9492930">
        <ele>305.6</ele>
        <time>2021-09-29T10:06:22Z</time>
      </trkpt>
      <trkpt lat="42.2988890" lon="-1.9496210">
        <ele>304.6</ele>
        <time>2021-09-29T10:06:26Z</time>
      </trkpt>
      <trkpt lat="42.2988640" lon="-1.9497010">
        <ele>304.6</ele>
        <time>2021-09-29T10:06:27Z</time>
      </trkpt>
      <trkpt lat="42.2987840" lon="-1.9499440">
        <ele>304.6</ele>
        <time>2021-09-29T10:06:30Z</time>
      </trkpt>
      <trkpt lat="42.2987300" lon="-1.9501030">
        <ele>304.6</ele>
        <time>2021-09-29T10:06:32Z</time>
      </trkpt>
      <trkpt lat="42.2986500" lon="-1.9503340">
        <ele>304.6</ele>
        <time>2021-09-29T10:06:35Z</time>
      </trkpt>
      <trkpt lat="42.2985750" lon="-1.9505580">
        <ele>305.2</ele>
        <time>2021-09-29T10:06:38Z</time>
      </trkpt>
      <trkpt lat="42.2985500" lon="-1.9506300">
        <ele>305.6</ele>
        <time>2021-09-29T10:06:39Z</time>
      </trkpt>
      <trkpt lat="42.2984770" lon="-1.9508500">
        <ele>306.2</ele>
        <time>2021-09-29T10:06:42Z</time>
      </trkpt>
      <trkpt lat="42.2984060" lon="-1.9510630">
        <ele>306.8</ele>
        <time>2021-09-29T10:06:45Z</time>
      </trkpt>
      <trkpt lat="42.2983600" lon="-1.9512010">
        <ele>308.0</ele>
        <time>2021-09-29T10:06:47Z</time>
      </trkpt>
      <trkpt lat="42.2982790" lon="-1.9514730">
        <ele>309.0</ele>
        <time>2021-09-29T10:06:51Z</time>
      </trkpt>
      <trkpt lat="42.2981230" lon="-1.9519790">
        <ele>310.0</ele>
        <time>2021-09-29T10:06:59Z</time>
      </trkpt>
      <trkpt lat="42.2980280" lon="-1.9522330">
        <ele>311.2</ele>
        <time>2021-09-29T10:07:03Z</time>
      </trkpt>
      <trkpt lat="42.2978430" lon="-1.9527600">
        <ele>311.8</ele>
        <time>2021-09-29T10:07:11Z</time>
      </trkpt>
      <trkpt lat="42.2976120" lon="-1.9534240">
        <ele>311.8</ele>
        <time>2021-09-29T10:07:21Z</time>
      </trkpt>
      <trkpt lat="42.2975440" lon="-1.9535940">
        <ele>312.0</ele>
        <time>2021-09-29T10:07:24Z</time>
      </trkpt>
      <trkpt lat="42.2974910" lon="-1.9535630">
        <ele>312.2</ele>
        <time>2021-09-29T10:07:27Z</time>
      </trkpt>
      <trkpt lat="42.2974520" lon="-1.9535310">
        <ele>312.6</ele>
        <time>2021-09-29T10:07:30Z</time>
      </trkpt>
      <trkpt lat="42.2973980" lon="-1.9535680">
        <ele>313.4</ele>
        <time>2021-09-29T10:07:33Z</time>
      </trkpt>
      <trkpt lat="42.2973780" lon="-1.9535800">
        <ele>314.2</ele>
        <time>2021-09-29T10:07:35Z</time>
      </trkpt>
      <trkpt lat="42.2973760" lon="-1.9535810">
        <ele>314.2</ele>
        <time>2021-09-29T10:07:36Z</time>
      </trkpt>
      <trkpt lat="42.2974470" lon="-1.9535200">
        <ele>314.6</ele>
        <time>2021-09-29T10:11:03Z</time>
      </trkpt>
      <trkpt lat="42.2974630" lon="-1.9535080">
        <ele>314.6</ele>
        <time>2021-09-29T10:11:04Z</time>
      </trkpt>
      <trkpt lat="42.2974960" lon="-1.9535040">
        <ele>314.8</ele>
        <time>2021-09-29T10:11:06Z</time>
      </trkpt>
      <trkpt lat="42.2975160" lon="-1.9535950">
        <ele>314.8</ele>
        <time>2021-09-29T10:11:10Z</time>
      </trkpt>
      <trkpt lat="42.2975170" lon="-1.9536310">
        <ele>314.8</ele>
        <time>2021-09-29T10:11:11Z</time>
      </trkpt>
      <trkpt lat="42.2974990" lon="-1.9537410">
        <ele>314.6</ele>
        <time>2021-09-29T10:11:14Z</time>
      </trkpt>
      <trkpt lat="42.2974540" lon="-1.9538640">
        <ele>314.2</ele>
        <time>2021-09-29T10:11:17Z</time>
      </trkpt>
      <trkpt lat="42.2974020" lon="-1.9540130">
        <ele>313.6</ele>
        <time>2021-09-29T10:11:20Z</time>
      </trkpt>
      <trkpt lat="42.2973690" lon="-1.9541220">
        <ele>313.4</ele>
        <time>2021-09-29T10:11:22Z</time>
      </trkpt>
      <trkpt lat="42.2973450" lon="-1.9542390">
        <ele>313.2</ele>
        <time>2021-09-29T10:11:24Z</time>
      </trkpt>
      <trkpt lat="42.2973230" lon="-1.9544220">
        <ele>312.8</ele>
        <time>2021-09-29T10:11:27Z</time>
      </trkpt>
      <trkpt lat="42.2973180" lon="-1.9544830">
        <ele>312.6</ele>
        <time>2021-09-29T10:11:28Z</time>
      </trkpt>
      <trkpt lat="42.2972960" lon="-1.9547970">
        <ele>312.2</ele>
        <time>2021-09-29T10:11:33Z</time>
      </trkpt>
      <trkpt lat="42.2972710" lon="-1.9551240">
        <ele>312.0</ele>
        <time>2021-09-29T10:11:38Z</time>
      </trkpt>
      <trkpt lat="42.2972160" lon="-1.9555320">
        <ele>312.6</ele>
        <time>2021-09-29T10:11:44Z</time>
      </trkpt>
      <trkpt lat="42.2970380" lon="-1.9560140">
        <ele>313.8</ele>
        <time>2021-09-29T10:11:52Z</time>
      </trkpt>
      <trkpt lat="42.2968890" lon="-1.9564000">
        <ele>315.0</ele>
        <time>2021-09-29T10:11:58Z</time>
      </trkpt>
      <trkpt lat="42.2967070" lon="-1.9568640">
        <ele>315.6</ele>
        <time>2021-09-29T10:12:06Z</time>
      </trkpt>
      <trkpt lat="42.2968600" lon="-1.9570840">
        <ele>315.6</ele>
        <time>2021-09-29T10:12:12Z</time>
      </trkpt>
      <trkpt lat="42.2973890" lon="-1.9572790">
        <ele>315.8</ele>
        <time>2021-09-29T10:12:22Z</time>
      </trkpt>
      <trkpt lat="42.2977240" lon="-1.9574250">
        <ele>315.2</ele>
        <time>2021-09-29T10:12:28Z</time>
      </trkpt>
      <trkpt lat="42.2981580" lon="-1.9577510">
        <ele>314.8</ele>
        <time>2021-09-29T10:12:36Z</time>
      </trkpt>
      <trkpt lat="42.2983760" lon="-1.9579210">
        <ele>314.6</ele>
        <time>2021-09-29T10:12:40Z</time>
      </trkpt>
      <trkpt lat="42.2986820" lon="-1.9581480">
        <ele>314.6</ele>
        <time>2021-09-29T10:12:46Z</time>
      </trkpt>
      <trkpt lat="42.2987780" lon="-1.9581920">
        <ele>314.6</ele>
        <time>2021-09-29T10:12:51Z</time>
      </trkpt>
      <trkpt lat="42.2988070" lon="-1.9582230">
        <ele>317.0</ele>
        <time>2021-09-29T10:13:21Z</time>
      </trkpt>
      <trkpt lat="42.2988220" lon="-1.9582340">
        <ele>317.0</ele>
        <time>2021-09-29T10:13:22Z</time>
      </trkpt>
      <trkpt lat="42.2989040" lon="-1.9582950">
        <ele>317.0</ele>
        <time>2021-09-29T10:13:26Z</time>
      </trkpt>
      <trkpt lat="42.2990110" lon="-1.9584300">
        <ele>316.8</ele>
        <time>2021-09-29T10:13:30Z</time>
      </trkpt>
      <trkpt lat="42.2991110" lon="-1.9585480">
        <ele>316.6</ele>
        <time>2021-09-29T10:13:33Z</time>
      </trkpt>
      <trkpt lat="42.2991950" lon="-1.9586950">
        <ele>316.2</ele>
        <time>2021-09-29T10:13:36Z</time>
      </trkpt>
      <trkpt lat="42.2992960" lon="-1.9589300">
        <ele>315.8</ele>
        <time>2021-09-29T10:13:40Z</time>
      </trkpt>
      <trkpt lat="42.2994190" lon="-1.9592190">
        <ele>315.6</ele>
        <time>2021-09-29T10:13:45Z</time>
      </trkpt>
      <trkpt lat="42.2994980" lon="-1.9593870">
        <ele>315.6</ele>
        <time>2021-09-29T10:13:48Z</time>
      </trkpt>
      <trkpt lat="42.2996340" lon="-1.9596540">
        <ele>315.8</ele>
        <time>2021-09-29T10:13:53Z</time>
      </trkpt>
      <trkpt lat="42.2997220" lon="-1.9597990">
        <ele>316.2</ele>
        <time>2021-09-29T10:13:56Z</time>
      </trkpt>
      <trkpt lat="42.2998100" lon="-1.9599460">
        <ele>317.4</ele>
        <time>2021-09-29T10:13:59Z</time>
      </trkpt>
      <trkpt lat="42.2998630" lon="-1.9600440">
        <ele>318.6</ele>
        <time>2021-09-29T10:14:01Z</time>
      </trkpt>
      <trkpt lat="42.2999410" lon="-1.9601970">
        <ele>319.4</ele>
        <time>2021-09-29T10:14:04Z</time>
      </trkpt>
      <trkpt lat="42.3000150" lon="-1.9603530">
        <ele>319.6</ele>
        <time>2021-09-29T10:14:07Z</time>
      </trkpt>
      <trkpt lat="42.3000850" lon="-1.9605170">
        <ele>320.4</ele>
        <time>2021-09-29T10:14:10Z</time>
      </trkpt>
      <trkpt lat="42.3001080" lon="-1.9605740">
        <ele>320.8</ele>
        <time>2021-09-29T10:14:11Z</time>
      </trkpt>
      <trkpt lat="42.3001730" lon="-1.9607450">
        <ele>322.0</ele>
        <time>2021-09-29T10:14:14Z</time>
      </trkpt>
      <trkpt lat="42.3002430" lon="-1.9609190">
        <ele>323.0</ele>
        <time>2021-09-29T10:14:17Z</time>
      </trkpt>
      <trkpt lat="42.3002660" lon="-1.9609770">
        <ele>323.2</ele>
        <time>2021-09-29T10:14:18Z</time>
      </trkpt>
      <trkpt lat="42.3003720" lon="-1.9612300">
        <ele>324.4</ele>
        <time>2021-09-29T10:14:23Z</time>
      </trkpt>
      <trkpt lat="42.3004020" lon="-1.9613350">
        <ele>325.6</ele>
        <time>2021-09-29T10:14:25Z</time>
      </trkpt>
      <trkpt lat="42.3004970" lon="-1.9616580">
        <ele>326.6</ele>
        <time>2021-09-29T10:14:31Z</time>
      </trkpt>
      <trkpt lat="42.3007070" lon="-1.9622550">
        <ele>327.6</ele>
        <time>2021-09-29T10:14:42Z</time>
      </trkpt>
      <trkpt lat="42.3007870" lon="-1.9624720">
        <ele>328.6</ele>
        <time>2021-09-29T10:14:46Z</time>
      </trkpt>
      <trkpt lat="42.3008980" lon="-1.9628140">
        <ele>329.8</ele>
        <time>2021-09-29T10:14:52Z</time>
      </trkpt>
      <trkpt lat="42.3010380" lon="-1.9632570">
        <ele>330.2</ele>
        <time>2021-09-29T10:14:59Z</time>
      </trkpt>
      <trkpt lat="42.3011950" lon="-1.9636660">
        <ele>330.4</ele>
        <time>2021-09-29T10:15:06Z</time>
      </trkpt>
      <trkpt lat="42.3013350" lon="-1.9638330">
        <ele>330.6</ele>
        <time>2021-09-29T10:15:10Z</time>
      </trkpt>
      <trkpt lat="42.3013740" lon="-1.9638640">
        <ele>330.8</ele>
        <time>2021-09-29T10:15:11Z</time>
      </trkpt>
      <trkpt lat="42.3014130" lon="-1.9638900">
        <ele>330.8</ele>
        <time>2021-09-29T10:15:12Z</time>
      </trkpt>
      <trkpt lat="42.3014520" lon="-1.9639110">
        <ele>331.0</ele>
        <time>2021-09-29T10:15:13Z</time>
      </trkpt>
      <trkpt lat="42.3017080" lon="-1.9639780">
        <ele>332.0</ele>
        <time>2021-09-29T10:15:19Z</time>
      </trkpt>
      <trkpt lat="42.3018360" lon="-1.9640040">
        <ele>333.2</ele>
        <time>2021-09-29T10:15:22Z</time>
      </trkpt>
      <trkpt lat="42.3021230" lon="-1.9640580">
        <ele>334.6</ele>
        <time>2021-09-29T10:15:29Z</time>
      </trkpt>
      <trkpt lat="42.3021650" lon="-1.9640650">
        <ele>335.0</ele>
        <time>2021-09-29T10:15:30Z</time>
      </trkpt>
      <trkpt lat="42.3022530" lon="-1.9640940">
        <ele>336.0</ele>
        <time>2021-09-29T10:15:32Z</time>
      </trkpt>
      <trkpt lat="42.3023780" lon="-1.9641560">
        <ele>337.0</ele>
        <time>2021-09-29T10:15:35Z</time>
      </trkpt>
      <trkpt lat="42.3026460" lon="-1.9642990">
        <ele>337.4</ele>
        <time>2021-09-29T10:15:42Z</time>
      </trkpt>
      <trkpt lat="42.3027310" lon="-1.9643470">
        <ele>337.4</ele>
        <time>2021-09-29T10:15:45Z</time>
      </trkpt>
      <trkpt lat="42.3027980" lon="-1.9643880">
        <ele>337.4</ele>
        <time>2021-09-29T10:15:48Z</time>
      </trkpt>
      <trkpt lat="42.3028970" lon="-1.9644360">
        <ele>337.6</ele>
        <time>2021-09-29T10:15:52Z</time>
      </trkpt>
      <trkpt lat="42.3029460" lon="-1.9644570">
        <ele>337.6</ele>
        <time>2021-09-29T10:15:54Z</time>
      </trkpt>
      <trkpt lat="42.3030610" lon="-1.9645560">
        <ele>337.8</ele>
        <time>2021-09-29T10:15:58Z</time>
      </trkpt>
      <trkpt lat="42.3031320" lon="-1.9646070">
        <ele>338.6</ele>
        <time>2021-09-29T10:16:02Z</time>
      </trkpt>
      <trkpt lat="42.3031390" lon="-1.9646400">
        <ele>339.0</ele>
        <time>2021-09-29T10:16:03Z</time>
      </trkpt>
      <trkpt lat="42.3033200" lon="-1.9645540">
        <ele>340.0</ele>
        <time>2021-09-29T10:16:10Z</time>
      </trkpt>
      <trkpt lat="42.3033650" lon="-1.9645200">
        <ele>340.0</ele>
        <time>2021-09-29T10:16:11Z</time>
      </trkpt>
      <trkpt lat="42.3034040" lon="-1.9644850">
        <ele>340.0</ele>
        <time>2021-09-29T10:16:12Z</time>
      </trkpt>
      <trkpt lat="42.3035360" lon="-1.9643080">
        <ele>340.2</ele>
        <time>2021-09-29T10:16:16Z</time>
      </trkpt>
      <trkpt lat="42.3036900" lon="-1.9640620">
        <ele>340.2</ele>
        <time>2021-09-29T10:16:21Z</time>
      </trkpt>
      <trkpt lat="42.3037640" lon="-1.9639670">
        <ele>340.2</ele>
        <time>2021-09-29T10:16:24Z</time>
      </trkpt>
      <trkpt lat="42.3037600" lon="-1.9639790">
        <ele>340.4</ele>
        <time>2021-09-29T10:16:26Z</time>
      </trkpt>
      <trkpt lat="42.3035180" lon="-1.9645110">
        <ele>340.2</ele>
        <time>2021-09-29T10:16:40Z</time>
      </trkpt>
      <trkpt lat="42.3036480" lon="-1.9647540">
        <ele>340.2</ele>
        <time>2021-09-29T10:16:45Z</time>
      </trkpt>
      <trkpt lat="42.3037800" lon="-1.9649290">
        <ele>340.4</ele>
        <time>2021-09-29T10:16:50Z</time>
      </trkpt>
      <trkpt lat="42.3041880" lon="-1.9654990">
        <ele>340.6</ele>
        <time>2021-09-29T10:17:06Z</time>
      </trkpt>
      <trkpt lat="42.3045620" lon="-1.9659420">
        <ele>340.6</ele>
        <time>2021-09-29T10:17:16Z</time>
      </trkpt>
      <trkpt lat="42.3047280" lon="-1.9661080">
        <ele>340.8</ele>
        <time>2021-09-29T10:17:21Z</time>
      </trkpt>
      <trkpt lat="42.3047690" lon="-1.9661880">
        <ele>341.2</ele>
        <time>2021-09-29T10:17:24Z</time>
      </trkpt>
      <trkpt lat="42.3048890" lon="-1.9663650">
        <ele>341.6</ele>
        <time>2021-09-29T10:17:32Z</time>
      </trkpt>
      <trkpt lat="42.3049310" lon="-1.9664060">
        <ele>341.6</ele>
        <time>2021-09-29T10:17:33Z</time>
      </trkpt>
      <trkpt lat="42.3050130" lon="-1.9664990">
        <ele>341.6</ele>
        <time>2021-09-29T10:17:35Z</time>
      </trkpt>
      <trkpt lat="42.3051390" lon="-1.9666340">
        <ele>341.6</ele>
        <time>2021-09-29T10:17:38Z</time>
      </trkpt>
      <trkpt lat="42.3055650" lon="-1.9671210">
        <ele>341.8</ele>
        <time>2021-09-29T10:17:48Z</time>
      </trkpt>
      <trkpt lat="42.3056570" lon="-1.9672130">
        <ele>342.0</ele>
        <time>2021-09-29T10:17:50Z</time>
      </trkpt>
      <trkpt lat="42.3058130" lon="-1.9673960">
        <ele>342.0</ele>
        <time>2021-09-29T10:17:54Z</time>
      </trkpt>
      <trkpt lat="42.3059140" lon="-1.9675460">
        <ele>342.0</ele>
        <time>2021-09-29T10:17:57Z</time>
      </trkpt>
      <trkpt lat="42.3060630" lon="-1.9677410">
        <ele>341.8</ele>
        <time>2021-09-29T10:18:01Z</time>
      </trkpt>
      <trkpt lat="42.3061960" lon="-1.9679130">
        <ele>341.4</ele>
        <time>2021-09-29T10:18:04Z</time>
      </trkpt>
      <trkpt lat="42.3063220" lon="-1.9680890">
        <ele>341.2</ele>
        <time>2021-09-29T10:18:07Z</time>
      </trkpt>
      <trkpt lat="42.3065150" lon="-1.9683400">
        <ele>341.0</ele>
        <time>2021-09-29T10:18:12Z</time>
      </trkpt>
      <trkpt lat="42.3069530" lon="-1.9688170">
        <ele>342.4</ele>
        <time>2021-09-29T10:18:24Z</time>
      </trkpt>
      <trkpt lat="42.3070930" lon="-1.9689590">
        <ele>343.4</ele>
        <time>2021-09-29T10:18:27Z</time>
      </trkpt>
      <trkpt lat="42.3073940" lon="-1.9693120">
        <ele>344.2</ele>
        <time>2021-09-29T10:18:35Z</time>
      </trkpt>
      <trkpt lat="42.3074290" lon="-1.9693100">
        <ele>344.2</ele>
        <time>2021-09-29T10:18:36Z</time>
      </trkpt>
      <trkpt lat="42.3075330" lon="-1.9691960">
        <ele>344.2</ele>
        <time>2021-09-29T10:18:39Z</time>
      </trkpt>
      <trkpt lat="42.3078300" lon="-1.9687020">
        <ele>344.2</ele>
        <time>2021-09-29T10:18:48Z</time>
      </trkpt>
      <trkpt lat="42.3080250" lon="-1.9683860">
        <ele>344.2</ele>
        <time>2021-09-29T10:18:54Z</time>
      </trkpt>
      <trkpt lat="42.3082690" lon="-1.9680080">
        <ele>344.6</ele>
        <time>2021-09-29T10:19:01Z</time>
      </trkpt>
      <trkpt lat="42.3083440" lon="-1.9679020">
        <ele>345.0</ele>
        <time>2021-09-29T10:19:03Z</time>
      </trkpt>
      <trkpt lat="42.3083850" lon="-1.9678530">
        <ele>345.6</ele>
        <time>2021-09-29T10:19:04Z</time>
      </trkpt>
      <trkpt lat="42.3085110" lon="-1.9676890">
        <ele>345.8</ele>
        <time>2021-09-29T10:19:07Z</time>
      </trkpt>
      <trkpt lat="42.3086360" lon="-1.9675310">
        <ele>346.0</ele>
        <time>2021-09-29T10:19:10Z</time>
      </trkpt>
      <trkpt lat="42.3086730" lon="-1.9674790">
        <ele>346.0</ele>
        <time>2021-09-29T10:19:11Z</time>
      </trkpt>
      <trkpt lat="42.3089270" lon="-1.9670760">
        <ele>346.6</ele>
        <time>2021-09-29T10:19:19Z</time>
      </trkpt>
      <trkpt lat="42.3089590" lon="-1.9670230">
        <ele>346.6</ele>
        <time>2021-09-29T10:19:20Z</time>
      </trkpt>
      <trkpt lat="42.3090250" lon="-1.9669120">
        <ele>347.0</ele>
        <time>2021-09-29T10:19:23Z</time>
      </trkpt>
      <trkpt lat="42.3090610" lon="-1.9668740">
        <ele>347.2</ele>
        <time>2021-09-29T10:19:25Z</time>
      </trkpt>
      <trkpt lat="42.3091920" lon="-1.9669320">
        <ele>347.2</ele>
        <time>2021-09-29T10:19:31Z</time>
      </trkpt>
      <trkpt lat="42.3092450" lon="-1.9670210">
        <ele>347.4</ele>
        <time>2021-09-29T10:19:33Z</time>
      </trkpt>
      <trkpt lat="42.3093180" lon="-1.9671270">
        <ele>347.4</ele>
        <time>2021-09-29T10:19:35Z</time>
      </trkpt>
      <trkpt lat="42.3094200" lon="-1.9672910">
        <ele>347.4</ele>
        <time>2021-09-29T10:19:38Z</time>
      </trkpt>
      <trkpt lat="42.3097240" lon="-1.9676960">
        <ele>347.2</ele>
        <time>2021-09-29T10:19:46Z</time>
      </trkpt>
      <trkpt lat="42.3098720" lon="-1.9678010">
        <ele>347.4</ele>
        <time>2021-09-29T10:19:49Z</time>
      </trkpt>
      <trkpt lat="42.3102380" lon="-1.9679920">
        <ele>347.8</ele>
        <time>2021-09-29T10:19:56Z</time>
      </trkpt>
      <trkpt lat="42.3102920" lon="-1.9680170">
        <ele>348.0</ele>
        <time>2021-09-29T10:19:57Z</time>
      </trkpt>
      <trkpt lat="42.3104000" lon="-1.9680550">
        <ele>348.2</ele>
        <time>2021-09-29T10:19:59Z</time>
      </trkpt>
      <trkpt lat="42.3108600" lon="-1.9682630">
        <ele>348.8</ele>
        <time>2021-09-29T10:20:08Z</time>
      </trkpt>
      <trkpt lat="42.3112130" lon="-1.9684230">
        <ele>348.8</ele>
        <time>2021-09-29T10:20:15Z</time>
      </trkpt>
      <trkpt lat="42.3114980" lon="-1.9685610">
        <ele>347.8</ele>
        <time>2021-09-29T10:20:20Z</time>
      </trkpt>
      <trkpt lat="42.3117220" lon="-1.9686480">
        <ele>346.8</ele>
        <time>2021-09-29T10:20:23Z</time>
      </trkpt>
      <trkpt lat="42.3118870" lon="-1.9686910">
        <ele>345.4</ele>
        <time>2021-09-29T10:20:25Z</time>
      </trkpt>
      <trkpt lat="42.3120580" lon="-1.9687330">
        <ele>343.8</ele>
        <time>2021-09-29T10:20:27Z</time>
      </trkpt>
      <trkpt lat="42.3123170" lon="-1.9687990">
        <ele>342.6</ele>
        <time>2021-09-29T10:20:30Z</time>
      </trkpt>
      <trkpt lat="42.3124920" lon="-1.9688410">
        <ele>340.4</ele>
        <time>2021-09-29T10:20:32Z</time>
      </trkpt>
      <trkpt lat="42.3125830" lon="-1.9688610">
        <ele>339.0</ele>
        <time>2021-09-29T10:20:33Z</time>
      </trkpt>
      <trkpt lat="42.3126780" lon="-1.9688820">
        <ele>337.8</ele>
        <time>2021-09-29T10:20:34Z</time>
      </trkpt>
      <trkpt lat="42.3127720" lon="-1.9689060">
        <ele>336.2</ele>
        <time>2021-09-29T10:20:35Z</time>
      </trkpt>
      <trkpt lat="42.3128660" lon="-1.9689360">
        <ele>335.0</ele>
        <time>2021-09-29T10:20:36Z</time>
      </trkpt>
      <trkpt lat="42.3130550" lon="-1.9690100">
        <ele>333.2</ele>
        <time>2021-09-29T10:20:38Z</time>
      </trkpt>
      <trkpt lat="42.3132420" lon="-1.9690980">
        <ele>332.0</ele>
        <time>2021-09-29T10:20:40Z</time>
      </trkpt>
      <trkpt lat="42.3135210" lon="-1.9692610">
        <ele>330.4</ele>
        <time>2021-09-29T10:20:43Z</time>
      </trkpt>
      <trkpt lat="42.3136120" lon="-1.9693280">
        <ele>329.4</ele>
        <time>2021-09-29T10:20:44Z</time>
      </trkpt>
      <trkpt lat="42.3136990" lon="-1.9693990">
        <ele>328.2</ele>
        <time>2021-09-29T10:20:45Z</time>
      </trkpt>
      <trkpt lat="42.3138590" lon="-1.9695600">
        <ele>326.0</ele>
        <time>2021-09-29T10:20:47Z</time>
      </trkpt>
      <trkpt lat="42.3139930" lon="-1.9697540">
        <ele>324.8</ele>
        <time>2021-09-29T10:20:49Z</time>
      </trkpt>
      <trkpt lat="42.3143420" lon="-1.9704050">
        <ele>323.6</ele>
        <time>2021-09-29T10:20:56Z</time>
      </trkpt>
      <trkpt lat="42.3143860" lon="-1.9704910">
        <ele>323.4</ele>
        <time>2021-09-29T10:20:57Z</time>
      </trkpt>
      <trkpt lat="42.3145120" lon="-1.9707390">
        <ele>323.2</ele>
        <time>2021-09-29T10:21:00Z</time>
      </trkpt>
      <trkpt lat="42.3147240" lon="-1.9710930">
        <ele>323.4</ele>
        <time>2021-09-29T10:21:05Z</time>
      </trkpt>
      <trkpt lat="42.3151250" lon="-1.9709200">
        <ele>324.0</ele>
        <time>2021-09-29T10:21:14Z</time>
      </trkpt>
      <trkpt lat="42.3151450" lon="-1.9708680">
        <ele>324.4</ele>
        <time>2021-09-29T10:21:15Z</time>
      </trkpt>
      <trkpt lat="42.3151560" lon="-1.9708300">
        <ele>325.6</ele>
        <time>2021-09-29T10:21:16Z</time>
      </trkpt>
      <trkpt lat="42.3151600" lon="-1.9708100">
        <ele>327.2</ele>
        <time>2021-09-29T10:21:18Z</time>
      </trkpt>
      <trkpt lat="42.3151650" lon="-1.9707830">
        <ele>329.2</ele>
        <time>2021-09-29T10:22:03Z</time>
      </trkpt>
      <trkpt lat="42.3152710" lon="-1.9704440">
        <ele>329.0</ele>
        <time>2021-09-29T10:22:14Z</time>
      </trkpt>
      <trkpt lat="42.3153010" lon="-1.9705810">
        <ele>328.8</ele>
        <time>2021-09-29T10:22:19Z</time>
      </trkpt>
      <trkpt lat="42.3152680" lon="-1.9707220">
        <ele>328.4</ele>
        <time>2021-09-29T10:22:22Z</time>
      </trkpt>
      <trkpt lat="42.3152470" lon="-1.9708260">
        <ele>328.2</ele>
        <time>2021-09-29T10:22:24Z</time>
      </trkpt>
      <trkpt lat="42.3152310" lon="-1.9713620">
        <ele>327.6</ele>
        <time>2021-09-29T10:22:33Z</time>
      </trkpt>
      <trkpt lat="42.3152440" lon="-1.9714870">
        <ele>327.4</ele>
        <time>2021-09-29T10:22:35Z</time>
      </trkpt>
      <trkpt lat="42.3152480" lon="-1.9717490">
        <ele>327.6</ele>
        <time>2021-09-29T10:22:42Z</time>
      </trkpt>
      <trkpt lat="42.3152380" lon="-1.9717730">
        <ele>330.2</ele>
        <time>2021-09-29T10:24:57Z</time>
      </trkpt>
      <trkpt lat="42.3152350" lon="-1.9717960">
        <ele>330.2</ele>
        <time>2021-09-29T10:24:58Z</time>
      </trkpt>
      <trkpt lat="42.3152470" lon="-1.9718980">
        <ele>330.2</ele>
        <time>2021-09-29T10:25:01Z</time>
      </trkpt>
      <trkpt lat="42.3153090" lon="-1.9720770">
        <ele>330.2</ele>
        <time>2021-09-29T10:25:05Z</time>
      </trkpt>
      <trkpt lat="42.3153860" lon="-1.9722290">
        <ele>329.2</ele>
        <time>2021-09-29T10:25:08Z</time>
      </trkpt>
      <trkpt lat="42.3155430" lon="-1.9724880">
        <ele>327.6</ele>
        <time>2021-09-29T10:25:13Z</time>
      </trkpt>
      <trkpt lat="42.3156690" lon="-1.9726860">
        <ele>326.6</ele>
        <time>2021-09-29T10:25:17Z</time>
      </trkpt>
      <trkpt lat="42.3160020" lon="-1.9731530">
        <ele>325.8</ele>
        <time>2021-09-29T10:25:26Z</time>
      </trkpt>
      <trkpt lat="42.3161670" lon="-1.9733970">
        <ele>325.6</ele>
        <time>2021-09-29T10:25:30Z</time>
      </trkpt>
      <trkpt lat="42.3162490" lon="-1.9735230">
        <ele>325.4</ele>
        <time>2021-09-29T10:25:32Z</time>
      </trkpt>
      <trkpt lat="42.3163810" lon="-1.9737110">
        <ele>324.6</ele>
        <time>2021-09-29T10:25:35Z</time>
      </trkpt>
      <trkpt lat="42.3164220" lon="-1.9737790">
        <ele>324.4</ele>
        <time>2021-09-29T10:25:36Z</time>
      </trkpt>
      <trkpt lat="42.3168450" lon="-1.9742900">
        <ele>324.0</ele>
        <time>2021-09-29T10:25:45Z</time>
      </trkpt>
      <trkpt lat="42.3171730" lon="-1.9745580">
        <ele>324.0</ele>
        <time>2021-09-29T10:25:51Z</time>
      </trkpt>
      <trkpt lat="42.3173900" lon="-1.9747450">
        <ele>324.0</ele>
        <time>2021-09-29T10:25:55Z</time>
      </trkpt>
      <trkpt lat="42.3178820" lon="-1.9751520">
        <ele>324.0</ele>
        <time>2021-09-29T10:26:04Z</time>
      </trkpt>
      <trkpt lat="42.3183830" lon="-1.9754510">
        <ele>323.6</ele>
        <time>2021-09-29T10:26:13Z</time>
      </trkpt>
      <trkpt lat="42.3189470" lon="-1.9757190">
        <ele>324.0</ele>
        <time>2021-09-29T10:26:23Z</time>
      </trkpt>
      <trkpt lat="42.3194620" lon="-1.9759710">
        <ele>324.0</ele>
        <time>2021-09-29T10:26:32Z</time>
      </trkpt>
      <trkpt lat="42.3198740" lon="-1.9761030">
        <ele>323.6</ele>
        <time>2021-09-29T10:26:39Z</time>
      </trkpt>
      <trkpt lat="42.3199890" lon="-1.9761370">
        <ele>323.0</ele>
        <time>2021-09-29T10:26:41Z</time>
      </trkpt>
      <trkpt lat="42.3203770" lon="-1.9762250">
        <ele>322.6</ele>
        <time>2021-09-29T10:26:48Z</time>
      </trkpt>
      <trkpt lat="42.3206310" lon="-1.9763240">
        <ele>324.6</ele>
        <time>2021-09-29T10:26:53Z</time>
      </trkpt>
      <trkpt lat="42.3207390" lon="-1.9763630">
        <ele>325.6</ele>
        <time>2021-09-29T10:26:55Z</time>
      </trkpt>
      <trkpt lat="42.3213000" lon="-1.9766260">
        <ele>326.0</ele>
        <time>2021-09-29T10:27:05Z</time>
      </trkpt>
      <trkpt lat="42.3217840" lon="-1.9769940">
        <ele>325.6</ele>
        <time>2021-09-29T10:27:14Z</time>
      </trkpt>
      <trkpt lat="42.3222130" lon="-1.9772520">
        <ele>324.6</ele>
        <time>2021-09-29T10:27:21Z</time>
      </trkpt>
      <trkpt lat="42.3224690" lon="-1.9774290">
        <ele>324.0</ele>
        <time>2021-09-29T10:27:25Z</time>
      </trkpt>
      <trkpt lat="42.3227950" lon="-1.9777830">
        <ele>323.6</ele>
        <time>2021-09-29T10:27:31Z</time>
      </trkpt>
      <trkpt lat="42.3228910" lon="-1.9779160">
        <ele>322.4</ele>
        <time>2021-09-29T10:27:33Z</time>
      </trkpt>
      <trkpt lat="42.3229890" lon="-1.9780510">
        <ele>321.4</ele>
        <time>2021-09-29T10:27:35Z</time>
      </trkpt>
      <trkpt lat="42.3232420" lon="-1.9783930">
        <ele>320.2</ele>
        <time>2021-09-29T10:27:40Z</time>
      </trkpt>
      <trkpt lat="42.3236020" lon="-1.9789740">
        <ele>319.0</ele>
        <time>2021-09-29T10:27:48Z</time>
      </trkpt>
      <trkpt lat="42.3236410" lon="-1.9790520">
        <ele>319.0</ele>
        <time>2021-09-29T10:27:49Z</time>
      </trkpt>
      <trkpt lat="42.3238520" lon="-1.9795150">
        <ele>318.6</ele>
        <time>2021-09-29T10:27:55Z</time>
      </trkpt>
      <trkpt lat="42.3239660" lon="-1.9800030">
        <ele>318.2</ele>
        <time>2021-09-29T10:28:01Z</time>
      </trkpt>
      <trkpt lat="42.3240670" lon="-1.9807220">
        <ele>319.0</ele>
        <time>2021-09-29T10:28:10Z</time>
      </trkpt>
      <trkpt lat="42.3241200" lon="-1.9809500">
        <ele>319.2</ele>
        <time>2021-09-29T10:28:13Z</time>
      </trkpt>
      <trkpt lat="42.3242230" lon="-1.9812070">
        <ele>319.8</ele>
        <time>2021-09-29T10:28:17Z</time>
      </trkpt>
      <trkpt lat="42.3242540" lon="-1.9812620">
        <ele>320.0</ele>
        <time>2021-09-29T10:28:18Z</time>
      </trkpt>
      <trkpt lat="42.3243620" lon="-1.9814000">
        <ele>320.8</ele>
        <time>2021-09-29T10:28:21Z</time>
      </trkpt>
      <trkpt lat="42.3244000" lon="-1.9814400">
        <ele>321.0</ele>
        <time>2021-09-29T10:28:22Z</time>
      </trkpt>
      <trkpt lat="42.3244780" lon="-1.9815120">
        <ele>322.4</ele>
        <time>2021-09-29T10:28:24Z</time>
      </trkpt>
      <trkpt lat="42.3245610" lon="-1.9815720">
        <ele>323.6</ele>
        <time>2021-09-29T10:28:26Z</time>
      </trkpt>
      <trkpt lat="42.3246890" lon="-1.9816430">
        <ele>324.8</ele>
        <time>2021-09-29T10:28:29Z</time>
      </trkpt>
      <trkpt lat="42.3251980" lon="-1.9819420">
        <ele>325.6</ele>
        <time>2021-09-29T10:28:40Z</time>
      </trkpt>
      <trkpt lat="42.3253760" lon="-1.9820550">
        <ele>325.6</ele>
        <time>2021-09-29T10:28:43Z</time>
      </trkpt>
      <trkpt lat="42.3255070" lon="-1.9821410">
        <ele>325.6</ele>
        <time>2021-09-29T10:28:45Z</time>
      </trkpt>
      <trkpt lat="42.3256420" lon="-1.9822380">
        <ele>325.2</ele>
        <time>2021-09-29T10:28:47Z</time>
      </trkpt>
      <trkpt lat="42.3258390" lon="-1.9824230">
        <ele>324.6</ele>
        <time>2021-09-29T10:28:50Z</time>
      </trkpt>
      <trkpt lat="42.3259020" lon="-1.9824940">
        <ele>323.8</ele>
        <time>2021-09-29T10:28:51Z</time>
      </trkpt>
      <trkpt lat="42.3259650" lon="-1.9825700">
        <ele>322.6</ele>
        <time>2021-09-29T10:28:52Z</time>
      </trkpt>
      <trkpt lat="42.3260280" lon="-1.9826490">
        <ele>321.4</ele>
        <time>2021-09-29T10:28:53Z</time>
      </trkpt>
      <trkpt lat="42.3260920" lon="-1.9827280">
        <ele>320.2</ele>
        <time>2021-09-29T10:28:54Z</time>
      </trkpt>
      <trkpt lat="42.3261550" lon="-1.9828110">
        <ele>318.8</ele>
        <time>2021-09-29T10:28:55Z</time>
      </trkpt>
      <trkpt lat="42.3262810" lon="-1.9829820">
        <ele>317.0</ele>
        <time>2021-09-29T10:28:57Z</time>
      </trkpt>
      <trkpt lat="42.3264070" lon="-1.9831540">
        <ele>315.6</ele>
        <time>2021-09-29T10:28:59Z</time>
      </trkpt>
      <trkpt lat="42.3265880" lon="-1.9834070">
        <ele>313.8</ele>
        <time>2021-09-29T10:29:02Z</time>
      </trkpt>
      <trkpt lat="42.3266440" lon="-1.9834900">
        <ele>312.6</ele>
        <time>2021-09-29T10:29:03Z</time>
      </trkpt>
      <trkpt lat="42.3267520" lon="-1.9836490">
        <ele>311.0</ele>
        <time>2021-09-29T10:29:05Z</time>
      </trkpt>
      <trkpt lat="42.3269130" lon="-1.9838740">
        <ele>310.4</ele>
        <time>2021-09-29T10:29:08Z</time>
      </trkpt>
      <trkpt lat="42.3270200" lon="-1.9840170">
        <ele>310.4</ele>
        <time>2021-09-29T10:29:10Z</time>
      </trkpt>
      <trkpt lat="42.3272280" lon="-1.9843040">
        <ele>309.8</ele>
        <time>2021-09-29T10:29:14Z</time>
      </trkpt>
      <trkpt lat="42.3272810" lon="-1.9843740">
        <ele>309.8</ele>
        <time>2021-09-29T10:29:15Z</time>
      </trkpt>
      <trkpt lat="42.3274880" lon="-1.9846610">
        <ele>310.0</ele>
        <time>2021-09-29T10:29:19Z</time>
      </trkpt>
      <trkpt lat="42.3277880" lon="-1.9850810">
        <ele>310.4</ele>
        <time>2021-09-29T10:29:25Z</time>
      </trkpt>
      <trkpt lat="42.3281650" lon="-1.9856330">
        <ele>310.6</ele>
        <time>2021-09-29T10:29:33Z</time>
      </trkpt>
      <trkpt lat="42.3284080" lon="-1.9860490">
        <ele>310.8</ele>
        <time>2021-09-29T10:29:39Z</time>
      </trkpt>
      <trkpt lat="42.3288020" lon="-1.9865960">
        <ele>311.0</ele>
        <time>2021-09-29T10:29:48Z</time>
      </trkpt>
      <trkpt lat="42.3291950" lon="-1.9869820">
        <ele>312.0</ele>
        <time>2021-09-29T10:29:56Z</time>
      </trkpt>
      <trkpt lat="42.3293890" lon="-1.9871740">
        <ele>313.0</ele>
        <time>2021-09-29T10:30:00Z</time>
      </trkpt>
      <trkpt lat="42.3298280" lon="-1.9876530">
        <ele>313.2</ele>
        <time>2021-09-29T10:30:09Z</time>
      </trkpt>
      <trkpt lat="42.3302540" lon="-1.9882160">
        <ele>313.0</ele>
        <time>2021-09-29T10:30:18Z</time>
      </trkpt>
      <trkpt lat="42.3306580" lon="-1.9887160">
        <ele>312.4</ele>
        <time>2021-09-29T10:30:26Z</time>
      </trkpt>
      <trkpt lat="42.3307610" lon="-1.9888290">
        <ele>311.6</ele>
        <time>2021-09-29T10:30:28Z</time>
      </trkpt>
      <trkpt lat="42.3309610" lon="-1.9890460">
        <ele>310.6</ele>
        <time>2021-09-29T10:30:32Z</time>
      </trkpt>
      <trkpt lat="42.3313870" lon="-1.9894930">
        <ele>309.6</ele>
        <time>2021-09-29T10:30:41Z</time>
      </trkpt>
      <trkpt lat="42.3315770" lon="-1.9896540">
        <ele>309.4</ele>
        <time>2021-09-29T10:30:45Z</time>
      </trkpt>
      <trkpt lat="42.3317210" lon="-1.9897590">
        <ele>309.4</ele>
        <time>2021-09-29T10:30:48Z</time>
      </trkpt>
      <trkpt lat="42.3318160" lon="-1.9898470">
        <ele>309.4</ele>
        <time>2021-09-29T10:30:50Z</time>
      </trkpt>
      <trkpt lat="42.3320410" lon="-1.9900920">
        <ele>310.6</ele>
        <time>2021-09-29T10:30:55Z</time>
      </trkpt>
      <trkpt lat="42.3325150" lon="-1.9905220">
        <ele>310.4</ele>
        <time>2021-09-29T10:31:05Z</time>
      </trkpt>
      <trkpt lat="42.3329920" lon="-1.9909220">
        <ele>310.0</ele>
        <time>2021-09-29T10:31:15Z</time>
      </trkpt>
      <trkpt lat="42.3333270" lon="-1.9912130">
        <ele>309.6</ele>
        <time>2021-09-29T10:31:22Z</time>
      </trkpt>
      <trkpt lat="42.3337460" lon="-1.9915850">
        <ele>309.2</ele>
        <time>2021-09-29T10:31:31Z</time>
      </trkpt>
      <trkpt lat="42.3341950" lon="-1.9920130">
        <ele>310.2</ele>
        <time>2021-09-29T10:31:41Z</time>
      </trkpt>
      <trkpt lat="42.3343150" lon="-1.9921590">
        <ele>310.6</ele>
        <time>2021-09-29T10:31:44Z</time>
      </trkpt>
      <trkpt lat="42.3343590" lon="-1.9921980">
        <ele>310.6</ele>
        <time>2021-09-29T10:31:45Z</time>
      </trkpt>
      <trkpt lat="42.3345490" lon="-1.9922000">
        <ele>311.2</ele>
        <time>2021-09-29T10:31:49Z</time>
      </trkpt>
      <trkpt lat="42.3345960" lon="-1.9921860">
        <ele>311.2</ele>
        <time>2021-09-29T10:31:50Z</time>
      </trkpt>
      <trkpt lat="42.3346940" lon="-1.9921950">
        <ele>311.4</ele>
        <time>2021-09-29T10:31:52Z</time>
      </trkpt>
      <trkpt lat="42.3349110" lon="-1.9923830">
        <ele>311.6</ele>
        <time>2021-09-29T10:31:57Z</time>
      </trkpt>
      <trkpt lat="42.3350990" lon="-1.9927330">
        <ele>310.6</ele>
        <time>2021-09-29T10:32:03Z</time>
      </trkpt>
      <trkpt lat="42.3352440" lon="-1.9930430">
        <ele>309.2</ele>
        <time>2021-09-29T10:32:08Z</time>
      </trkpt>
      <trkpt lat="42.3354350" lon="-1.9933410">
        <ele>308.6</ele>
        <time>2021-09-29T10:32:13Z</time>
      </trkpt>
      <trkpt lat="42.3356560" lon="-1.9936630">
        <ele>308.0</ele>
        <time>2021-09-29T10:32:18Z</time>
      </trkpt>
      <trkpt lat="42.3357490" lon="-1.9937940">
        <ele>306.8</ele>
        <time>2021-09-29T10:32:20Z</time>
      </trkpt>
      <trkpt lat="42.3359260" lon="-1.9940600">
        <ele>305.6</ele>
        <time>2021-09-29T10:32:24Z</time>
      </trkpt>
      <trkpt lat="42.3363040" lon="-1.9945800">
        <ele>305.4</ele>
        <time>2021-09-29T10:32:33Z</time>
      </trkpt>
      <trkpt lat="42.3366250" lon="-1.9950190">
        <ele>305.6</ele>
        <time>2021-09-29T10:32:41Z</time>
      </trkpt>
      <trkpt lat="42.3369040" lon="-1.9956840">
        <ele>306.2</ele>
        <time>2021-09-29T10:32:51Z</time>
      </trkpt>
      <trkpt lat="42.3369720" lon="-1.9958700">
        <ele>306.8</ele>
        <time>2021-09-29T10:32:54Z</time>
      </trkpt>
      <trkpt lat="42.3370220" lon="-1.9960490">
        <ele>307.0</ele>
        <time>2021-09-29T10:32:57Z</time>
      </trkpt>
      <trkpt lat="42.3370790" lon="-1.9961960">
        <ele>307.2</ele>
        <time>2021-09-29T10:33:00Z</time>
      </trkpt>
      <trkpt lat="42.3371300" lon="-1.9962700">
        <ele>307.4</ele>
        <time>2021-09-29T10:33:03Z</time>
      </trkpt>
      <trkpt lat="42.3371420" lon="-1.9962820">
        <ele>307.6</ele>
        <time>2021-09-29T10:33:05Z</time>
      </trkpt>
      <trkpt lat="42.3371510" lon="-1.9962930">
        <ele>310.2</ele>
        <time>2021-09-29T10:34:42Z</time>
      </trkpt>
      <trkpt lat="42.3371650" lon="-1.9963100">
        <ele>310.2</ele>
        <time>2021-09-29T10:34:43Z</time>
      </trkpt>
      <trkpt lat="42.3374150" lon="-1.9964690">
        <ele>310.0</ele>
        <time>2021-09-29T10:34:50Z</time>
      </trkpt>
      <trkpt lat="42.3375620" lon="-1.9965690">
        <ele>309.0</ele>
        <time>2021-09-29T10:34:53Z</time>
      </trkpt>
      <trkpt lat="42.3377160" lon="-1.9966920">
        <ele>307.8</ele>
        <time>2021-09-29T10:34:56Z</time>
      </trkpt>
      <trkpt lat="42.3378850" lon="-1.9968310">
        <ele>306.4</ele>
        <time>2021-09-29T10:34:59Z</time>
      </trkpt>
      <trkpt lat="42.3380460" lon="-1.9970160">
        <ele>304.6</ele>
        <time>2021-09-29T10:35:02Z</time>
      </trkpt>
      <trkpt lat="42.3381550" lon="-1.9971510">
        <ele>303.4</ele>
        <time>2021-09-29T10:35:04Z</time>
      </trkpt>
      <trkpt lat="42.3382700" lon="-1.9972940">
        <ele>302.0</ele>
        <time>2021-09-29T10:35:06Z</time>
      </trkpt>
      <trkpt lat="42.3383910" lon="-1.9974380">
        <ele>300.6</ele>
        <time>2021-09-29T10:35:08Z</time>
      </trkpt>
      <trkpt lat="42.3385760" lon="-1.9976520">
        <ele>299.4</ele>
        <time>2021-09-29T10:35:11Z</time>
      </trkpt>
      <trkpt lat="42.3386390" lon="-1.9977170">
        <ele>299.2</ele>
        <time>2021-09-29T10:35:12Z</time>
      </trkpt>
      <trkpt lat="42.3387740" lon="-1.9978330">
        <ele>298.0</ele>
        <time>2021-09-29T10:35:14Z</time>
      </trkpt>
      <trkpt lat="42.3389120" lon="-1.9979380">
        <ele>296.4</ele>
        <time>2021-09-29T10:35:16Z</time>
      </trkpt>
      <trkpt lat="42.3390520" lon="-1.9980220">
        <ele>295.4</ele>
        <time>2021-09-29T10:35:18Z</time>
      </trkpt>
      <trkpt lat="42.3391870" lon="-1.9981090">
        <ele>295.2</ele>
        <time>2021-09-29T10:35:20Z</time>
      </trkpt>
      <trkpt lat="42.3393140" lon="-1.9982040">
        <ele>295.0</ele>
        <time>2021-09-29T10:35:22Z</time>
      </trkpt>
      <trkpt lat="42.3394920" lon="-1.9983540">
        <ele>295.0</ele>
        <time>2021-09-29T10:35:25Z</time>
      </trkpt>
      <trkpt lat="42.3396640" lon="-1.9984950">
        <ele>295.0</ele>
        <time>2021-09-29T10:35:28Z</time>
      </trkpt>
      <trkpt lat="42.3397260" lon="-1.9985330">
        <ele>295.0</ele>
        <time>2021-09-29T10:35:29Z</time>
      </trkpt>
      <trkpt lat="42.3402660" lon="-1.9986550">
        <ele>296.2</ele>
        <time>2021-09-29T10:35:39Z</time>
      </trkpt>
      <trkpt lat="42.3403030" lon="-1.9986610">
        <ele>296.6</ele>
        <time>2021-09-29T10:35:40Z</time>
      </trkpt>
      <trkpt lat="42.3404500" lon="-1.9987240">
        <ele>297.2</ele>
        <time>2021-09-29T10:35:44Z</time>
      </trkpt>
      <trkpt lat="42.3406720" lon="-1.9987450">
        <ele>297.4</ele>
        <time>2021-09-29T10:35:49Z</time>
      </trkpt>
      <trkpt lat="42.3407680" lon="-1.9987540">
        <ele>297.6</ele>
        <time>2021-09-29T10:35:51Z</time>
      </trkpt>
      <trkpt lat="42.3410180" lon="-1.9987690">
        <ele>297.6</ele>
        <time>2021-09-29T10:35:56Z</time>
      </trkpt>
      <trkpt lat="42.3410660" lon="-1.9987690">
        <ele>297.6</ele>
        <time>2021-09-29T10:35:57Z</time>
      </trkpt>
      <trkpt lat="42.3415360" lon="-1.9987760">
        <ele>297.8</ele>
        <time>2021-09-29T10:36:06Z</time>
      </trkpt>
      <trkpt lat="42.3420750" lon="-1.9989290">
        <ele>297.8</ele>
        <time>2021-09-29T10:36:16Z</time>
      </trkpt>
      <trkpt lat="42.3425850" lon="-1.9992200">
        <ele>297.8</ele>
        <time>2021-09-29T10:36:26Z</time>
      </trkpt>
      <trkpt lat="42.3430680" lon="-1.9995540">
        <ele>297.8</ele>
        <time>2021-09-29T10:36:36Z</time>
      </trkpt>
      <trkpt lat="42.3434980" lon="-1.9999950">
        <ele>298.4</ele>
        <time>2021-09-29T10:36:46Z</time>
      </trkpt>
      <trkpt lat="42.3436040" lon="-2.0001550">
        <ele>298.6</ele>
        <time>2021-09-29T10:36:49Z</time>
      </trkpt>
      <trkpt lat="42.3439780" lon="-2.0007420">
        <ele>299.0</ele>
        <time>2021-09-29T10:37:00Z</time>
      </trkpt>
      <trkpt lat="42.3442100" lon="-2.0011070">
        <ele>299.0</ele>
        <time>2021-09-29T10:37:07Z</time>
      </trkpt>
      <trkpt lat="42.3445690" lon="-2.0016930">
        <ele>299.0</ele>
        <time>2021-09-29T10:37:18Z</time>
      </trkpt>
      <trkpt lat="42.3448780" lon="-2.0022200">
        <ele>297.6</ele>
        <time>2021-09-29T10:37:27Z</time>
      </trkpt>
      <trkpt lat="42.3452630" lon="-2.0027560">
        <ele>297.4</ele>
        <time>2021-09-29T10:37:38Z</time>
      </trkpt>
      <trkpt lat="42.3456470" lon="-2.0033310">
        <ele>297.8</ele>
        <time>2021-09-29T10:37:49Z</time>
      </trkpt>
      <trkpt lat="42.3459920" lon="-2.0039370">
        <ele>298.2</ele>
        <time>2021-09-29T10:38:00Z</time>
      </trkpt>
      <trkpt lat="42.3461760" lon="-2.0043540">
        <ele>298.4</ele>
        <time>2021-09-29T10:38:07Z</time>
      </trkpt>
      <trkpt lat="42.3464770" lon="-2.0050050">
        <ele>298.2</ele>
        <time>2021-09-29T10:38:18Z</time>
      </trkpt>
      <trkpt lat="42.3467390" lon="-2.0056860">
        <ele>298.0</ele>
        <time>2021-09-29T10:38:29Z</time>
      </trkpt>
      <trkpt lat="42.3469690" lon="-2.0063960">
        <ele>298.0</ele>
        <time>2021-09-29T10:38:40Z</time>
      </trkpt>
      <trkpt lat="42.3472610" lon="-2.0070750">
        <ele>297.8</ele>
        <time>2021-09-29T10:38:51Z</time>
      </trkpt>
      <trkpt lat="42.3475640" lon="-2.0077380">
        <ele>297.4</ele>
        <time>2021-09-29T10:39:02Z</time>
      </trkpt>
      <trkpt lat="42.3478730" lon="-2.0083850">
        <ele>297.8</ele>
        <time>2021-09-29T10:39:13Z</time>
      </trkpt>
      <trkpt lat="42.3481860" lon="-2.0090160">
        <ele>297.2</ele>
        <time>2021-09-29T10:39:24Z</time>
      </trkpt>
      <trkpt lat="42.3484910" lon="-2.0096660">
        <ele>297.0</ele>
        <time>2021-09-29T10:39:36Z</time>
      </trkpt>
      <trkpt lat="42.3485990" lon="-2.0098630">
        <ele>297.8</ele>
        <time>2021-09-29T10:39:40Z</time>
      </trkpt>
      <trkpt lat="42.3489870" lon="-2.0103750">
        <ele>297.6</ele>
        <time>2021-09-29T10:39:50Z</time>
      </trkpt>
      <trkpt lat="42.3491860" lon="-2.0106570">
        <ele>296.6</ele>
        <time>2021-09-29T10:39:55Z</time>
      </trkpt>
      <trkpt lat="42.3496160" lon="-2.0111470">
        <ele>296.2</ele>
        <time>2021-09-29T10:40:05Z</time>
      </trkpt>
      <trkpt lat="42.3500400" lon="-2.0116040">
        <ele>296.8</ele>
        <time>2021-09-29T10:40:15Z</time>
      </trkpt>
      <trkpt lat="42.3503790" lon="-2.0120620">
        <ele>296.8</ele>
        <time>2021-09-29T10:40:25Z</time>
      </trkpt>
      <trkpt lat="42.3505600" lon="-2.0123860">
        <ele>297.0</ele>
        <time>2021-09-29T10:40:31Z</time>
      </trkpt>
      <trkpt lat="42.3506710" lon="-2.0126250">
        <ele>296.8</ele>
        <time>2021-09-29T10:40:35Z</time>
      </trkpt>
      <trkpt lat="42.3508140" lon="-2.0131110">
        <ele>296.2</ele>
        <time>2021-09-29T10:40:42Z</time>
      </trkpt>
      <trkpt lat="42.3510270" lon="-2.0138320">
        <ele>296.2</ele>
        <time>2021-09-29T10:40:53Z</time>
      </trkpt>
      <trkpt lat="42.3512560" lon="-2.0145430">
        <ele>296.2</ele>
        <time>2021-09-29T10:41:04Z</time>
      </trkpt>
      <trkpt lat="42.3514770" lon="-2.0152310">
        <ele>295.6</ele>
        <time>2021-09-29T10:41:15Z</time>
      </trkpt>
      <trkpt lat="42.3517140" lon="-2.0158410">
        <ele>295.6</ele>
        <time>2021-09-29T10:41:25Z</time>
      </trkpt>
      <trkpt lat="42.3518090" lon="-2.0162410">
        <ele>295.4</ele>
        <time>2021-09-29T10:41:31Z</time>
      </trkpt>
      <trkpt lat="42.3520840" lon="-2.0168700">
        <ele>295.8</ele>
        <time>2021-09-29T10:41:42Z</time>
      </trkpt>
      <trkpt lat="42.3524020" lon="-2.0174990">
        <ele>296.2</ele>
        <time>2021-09-29T10:41:53Z</time>
      </trkpt>
      <trkpt lat="42.3525550" lon="-2.0177850">
        <ele>295.8</ele>
        <time>2021-09-29T10:41:58Z</time>
      </trkpt>
      <trkpt lat="42.3528660" lon="-2.0181170">
        <ele>296.0</ele>
        <time>2021-09-29T10:42:06Z</time>
      </trkpt>
      <trkpt lat="42.3530550" lon="-2.0184920">
        <ele>296.2</ele>
        <time>2021-09-29T10:42:13Z</time>
      </trkpt>
      <trkpt lat="42.3531600" lon="-2.0186210">
        <ele>296.4</ele>
        <time>2021-09-29T10:42:16Z</time>
      </trkpt>
      <trkpt lat="42.3533130" lon="-2.0187640">
        <ele>296.8</ele>
        <time>2021-09-29T10:42:20Z</time>
      </trkpt>
      <trkpt lat="42.3536490" lon="-2.0190230">
        <ele>297.8</ele>
        <time>2021-09-29T10:42:28Z</time>
      </trkpt>
      <trkpt lat="42.3538030" lon="-2.0191460">
        <ele>298.2</ele>
        <time>2021-09-29T10:42:32Z</time>
      </trkpt>
      <trkpt lat="42.3540370" lon="-2.0194360">
        <ele>299.0</ele>
        <time>2021-09-29T10:42:39Z</time>
      </trkpt>
      <trkpt lat="42.3541110" lon="-2.0195090">
        <ele>299.8</ele>
        <time>2021-09-29T10:42:41Z</time>
      </trkpt>
      <trkpt lat="42.3542790" lon="-2.0195840">
        <ele>300.0</ele>
        <time>2021-09-29T10:42:45Z</time>
      </trkpt>
      <trkpt lat="42.3543250" lon="-2.0195980">
        <ele>300.2</ele>
        <time>2021-09-29T10:42:46Z</time>
      </trkpt>
      <trkpt lat="42.3545140" lon="-2.0196520">
        <ele>300.2</ele>
        <time>2021-09-29T10:42:50Z</time>
      </trkpt>
      <trkpt lat="42.3550400" lon="-2.0198770">
        <ele>299.6</ele>
        <time>2021-09-29T10:43:01Z</time>
      </trkpt>
      <trkpt lat="42.3553280" lon="-2.0200210">
        <ele>300.0</ele>
        <time>2021-09-29T10:43:07Z</time>
      </trkpt>
      <trkpt lat="42.3555230" lon="-2.0200910">
        <ele>300.4</ele>
        <time>2021-09-29T10:43:11Z</time>
      </trkpt>
      <trkpt lat="42.3557200" lon="-2.0201370">
        <ele>300.4</ele>
        <time>2021-09-29T10:43:15Z</time>
      </trkpt>
      <trkpt lat="42.3559690" lon="-2.0202300">
        <ele>300.0</ele>
        <time>2021-09-29T10:43:20Z</time>
      </trkpt>
      <trkpt lat="42.3564570" lon="-2.0206230">
        <ele>299.4</ele>
        <time>2021-09-29T10:43:32Z</time>
      </trkpt>
      <trkpt lat="42.3564920" lon="-2.0206630">
        <ele>299.4</ele>
        <time>2021-09-29T10:43:33Z</time>
      </trkpt>
      <trkpt lat="42.3570060" lon="-2.0210110">
        <ele>299.8</ele>
        <time>2021-09-29T10:43:45Z</time>
      </trkpt>
      <trkpt lat="42.3575330" lon="-2.0212640">
        <ele>300.0</ele>
        <time>2021-09-29T10:43:57Z</time>
      </trkpt>
      <trkpt lat="42.3577200" lon="-2.0214230">
        <ele>300.0</ele>
        <time>2021-09-29T10:44:02Z</time>
      </trkpt>
      <trkpt lat="42.3579390" lon="-2.0216250">
        <ele>300.4</ele>
        <time>2021-09-29T10:44:08Z</time>
      </trkpt>
      <trkpt lat="42.3581620" lon="-2.0218170">
        <ele>300.4</ele>
        <time>2021-09-29T10:44:14Z</time>
      </trkpt>
      <trkpt lat="42.3585980" lon="-2.0222970">
        <ele>301.0</ele>
        <time>2021-09-29T10:44:27Z</time>
      </trkpt>
      <trkpt lat="42.3587540" lon="-2.0225400">
        <ele>301.4</ele>
        <time>2021-09-29T10:44:33Z</time>
      </trkpt>
      <trkpt lat="42.3589330" lon="-2.0228700">
        <ele>302.4</ele>
        <time>2021-09-29T10:44:41Z</time>
      </trkpt>
      <trkpt lat="42.3589540" lon="-2.0229120">
        <ele>302.6</ele>
        <time>2021-09-29T10:44:42Z</time>
      </trkpt>
      <trkpt lat="42.3590190" lon="-2.0230270">
        <ele>303.2</ele>
        <time>2021-09-29T10:44:45Z</time>
      </trkpt>
      <trkpt lat="42.3590620" lon="-2.0231020">
        <ele>303.8</ele>
        <time>2021-09-29T10:44:47Z</time>
      </trkpt>
      <trkpt lat="42.3592590" lon="-2.0233170">
        <ele>304.8</ele>
        <time>2021-09-29T10:44:54Z</time>
      </trkpt>
      <trkpt lat="42.3593700" lon="-2.0233640">
        <ele>304.8</ele>
        <time>2021-09-29T10:44:57Z</time>
      </trkpt>
      <trkpt lat="42.3594470" lon="-2.0234090">
        <ele>304.6</ele>
        <time>2021-09-29T10:44:59Z</time>
      </trkpt>
      <trkpt lat="42.3596440" lon="-2.0236450">
        <ele>304.0</ele>
        <time>2021-09-29T10:45:05Z</time>
      </trkpt>
      <trkpt lat="42.3598250" lon="-2.0239290">
        <ele>304.0</ele>
        <time>2021-09-29T10:45:11Z</time>
      </trkpt>
      <trkpt lat="42.3600240" lon="-2.0242000">
        <ele>305.0</ele>
        <time>2021-09-29T10:45:18Z</time>
      </trkpt>
      <trkpt lat="42.3601690" lon="-2.0244420">
        <ele>305.2</ele>
        <time>2021-09-29T10:45:25Z</time>
      </trkpt>
      <trkpt lat="42.3601900" lon="-2.0244820">
        <ele>305.4</ele>
        <time>2021-09-29T10:45:28Z</time>
      </trkpt>
      <trkpt lat="42.3602050" lon="-2.0245140">
        <ele>307.4</ele>
        <time>2021-09-29T10:46:11Z</time>
      </trkpt>
      <trkpt lat="42.3602190" lon="-2.0245410">
        <ele>307.2</ele>
        <time>2021-09-29T10:46:12Z</time>
      </trkpt>
      <trkpt lat="42.3602600" lon="-2.0246360">
        <ele>307.2</ele>
        <time>2021-09-29T10:46:15Z</time>
      </trkpt>
      <trkpt lat="42.3603110" lon="-2.0247480">
        <ele>306.8</ele>
        <time>2021-09-29T10:46:18Z</time>
      </trkpt>
      <trkpt lat="42.3603910" lon="-2.0249240">
        <ele>306.2</ele>
        <time>2021-09-29T10:46:22Z</time>
      </trkpt>
      <trkpt lat="42.3606510" lon="-2.0253830">
        <ele>305.2</ele>
        <time>2021-09-29T10:46:32Z</time>
      </trkpt>
      <trkpt lat="42.3608960" lon="-2.0258340">
        <ele>304.6</ele>
        <time>2021-09-29T10:46:41Z</time>
      </trkpt>
      <trkpt lat="42.3612710" lon="-2.0264100">
        <ele>305.0</ele>
        <time>2021-09-29T10:46:53Z</time>
      </trkpt>
      <trkpt lat="42.3616760" lon="-2.0269550">
        <ele>305.0</ele>
        <time>2021-09-29T10:47:05Z</time>
      </trkpt>
      <trkpt lat="42.3618000" lon="-2.0271410">
        <ele>305.0</ele>
        <time>2021-09-29T10:47:09Z</time>
      </trkpt>
      <trkpt lat="42.3618940" lon="-2.0274230">
        <ele>305.6</ele>
        <time>2021-09-29T10:47:14Z</time>
      </trkpt>
      <trkpt lat="42.3618980" lon="-2.0276020">
        <ele>306.0</ele>
        <time>2021-09-29T10:47:17Z</time>
      </trkpt>
      <trkpt lat="42.3618870" lon="-2.0276570">
        <ele>306.2</ele>
        <time>2021-09-29T10:47:18Z</time>
      </trkpt>
      <trkpt lat="42.3617860" lon="-2.0278270">
        <ele>306.8</ele>
        <time>2021-09-29T10:47:22Z</time>
      </trkpt>
      <trkpt lat="42.3617370" lon="-2.0279220">
        <ele>307.0</ele>
        <time>2021-09-29T10:47:24Z</time>
      </trkpt>
      <trkpt lat="42.3617140" lon="-2.0279690">
        <ele>307.4</ele>
        <time>2021-09-29T10:47:25Z</time>
      </trkpt>
      <trkpt lat="42.3616820" lon="-2.0280430">
        <ele>307.6</ele>
        <time>2021-09-29T10:47:27Z</time>
      </trkpt>
      <trkpt lat="42.3616760" lon="-2.0280780">
        <ele>307.8</ele>
        <time>2021-09-29T10:47:30Z</time>
      </trkpt>
      <trkpt lat="42.3616780" lon="-2.0281060">
        <ele>308.0</ele>
        <time>2021-09-29T10:47:52Z</time>
      </trkpt>
      <trkpt lat="42.3616740" lon="-2.0281390">
        <ele>308.0</ele>
        <time>2021-09-29T10:47:53Z</time>
      </trkpt>
      <trkpt lat="42.3615980" lon="-2.0282440">
        <ele>308.0</ele>
        <time>2021-09-29T10:47:56Z</time>
      </trkpt>
      <trkpt lat="42.3615240" lon="-2.0283220">
        <ele>308.0</ele>
        <time>2021-09-29T10:47:58Z</time>
      </trkpt>
      <trkpt lat="42.3613960" lon="-2.0284580">
        <ele>307.6</ele>
        <time>2021-09-29T10:48:01Z</time>
      </trkpt>
      <trkpt lat="42.3612130" lon="-2.0286790">
        <ele>306.8</ele>
        <time>2021-09-29T10:48:05Z</time>
      </trkpt>
      <trkpt lat="42.3611730" lon="-2.0287480">
        <ele>306.6</ele>
        <time>2021-09-29T10:48:06Z</time>
      </trkpt>
      <trkpt lat="42.3608470" lon="-2.0293760">
        <ele>305.6</ele>
        <time>2021-09-29T10:48:15Z</time>
      </trkpt>
      <trkpt lat="42.3608090" lon="-2.0294480">
        <ele>305.4</ele>
        <time>2021-09-29T10:48:16Z</time>
      </trkpt>
      <trkpt lat="42.3606200" lon="-2.0297770">
        <ele>305.4</ele>
        <time>2021-09-29T10:48:21Z</time>
      </trkpt>
      <trkpt lat="42.3604470" lon="-2.0299600">
        <ele>305.8</ele>
        <time>2021-09-29T10:48:25Z</time>
      </trkpt>
      <trkpt lat="42.3602620" lon="-2.0300980">
        <ele>306.0</ele>
        <time>2021-09-29T10:48:29Z</time>
      </trkpt>
      <trkpt lat="42.3601070" lon="-2.0303090">
        <ele>306.6</ele>
        <time>2021-09-29T10:48:33Z</time>
      </trkpt>
      <trkpt lat="42.3600730" lon="-2.0303710">
        <ele>306.6</ele>
        <time>2021-09-29T10:48:34Z</time>
      </trkpt>
      <trkpt lat="42.3598860" lon="-2.0307600">
        <ele>307.2</ele>
        <time>2021-09-29T10:48:40Z</time>
      </trkpt>
      <trkpt lat="42.3597990" lon="-2.0309480">
        <ele>307.6</ele>
        <time>2021-09-29T10:48:43Z</time>
      </trkpt>
      <trkpt lat="42.3596750" lon="-2.0311980">
        <ele>308.0</ele>
        <time>2021-09-29T10:48:47Z</time>
      </trkpt>
      <trkpt lat="42.3595850" lon="-2.0313820">
        <ele>309.0</ele>
        <time>2021-09-29T10:48:50Z</time>
      </trkpt>
      <trkpt lat="42.3595280" lon="-2.0314990">
        <ele>310.4</ele>
        <time>2021-09-29T10:48:52Z</time>
      </trkpt>
      <trkpt lat="42.3594770" lon="-2.0316100">
        <ele>311.4</ele>
        <time>2021-09-29T10:48:54Z</time>
      </trkpt>
      <trkpt lat="42.3593570" lon="-2.0318930">
        <ele>312.6</ele>
        <time>2021-09-29T10:48:59Z</time>
      </trkpt>
      <trkpt lat="42.3590700" lon="-2.0325710">
        <ele>313.4</ele>
        <time>2021-09-29T10:49:11Z</time>
      </trkpt>
      <trkpt lat="42.3589700" lon="-2.0328450">
        <ele>313.6</ele>
        <time>2021-09-29T10:49:16Z</time>
      </trkpt>
      <trkpt lat="42.3589350" lon="-2.0329530">
        <ele>313.8</ele>
        <time>2021-09-29T10:49:18Z</time>
      </trkpt>
      <trkpt lat="42.3589050" lon="-2.0330660">
        <ele>314.0</ele>
        <time>2021-09-29T10:49:20Z</time>
      </trkpt>
      <trkpt lat="42.3588870" lon="-2.0331830">
        <ele>314.8</ele>
        <time>2021-09-29T10:49:22Z</time>
      </trkpt>
      <trkpt lat="42.3588690" lon="-2.0333010">
        <ele>316.2</ele>
        <time>2021-09-29T10:49:24Z</time>
      </trkpt>
      <trkpt lat="42.3588340" lon="-2.0335490">
        <ele>317.4</ele>
        <time>2021-09-29T10:49:28Z</time>
      </trkpt>
      <trkpt lat="42.3587650" lon="-2.0338610">
        <ele>318.4</ele>
        <time>2021-09-29T10:49:33Z</time>
      </trkpt>
      <trkpt lat="42.3587000" lon="-2.0340890">
        <ele>319.6</ele>
        <time>2021-09-29T10:49:37Z</time>
      </trkpt>
      <trkpt lat="42.3584850" lon="-2.0347650">
        <ele>320.4</ele>
        <time>2021-09-29T10:49:48Z</time>
      </trkpt>
      <trkpt lat="42.3583870" lon="-2.0350150">
        <ele>320.6</ele>
        <time>2021-09-29T10:49:52Z</time>
      </trkpt>
      <trkpt lat="42.3582310" lon="-2.0353980">
        <ele>320.4</ele>
        <time>2021-09-29T10:49:58Z</time>
      </trkpt>
      <trkpt lat="42.3580440" lon="-2.0358690">
        <ele>320.4</ele>
        <time>2021-09-29T10:50:05Z</time>
      </trkpt>
      <trkpt lat="42.3577830" lon="-2.0365320">
        <ele>320.4</ele>
        <time>2021-09-29T10:50:15Z</time>
      </trkpt>
      <trkpt lat="42.3576210" lon="-2.0368550">
        <ele>320.2</ele>
        <time>2021-09-29T10:50:20Z</time>
      </trkpt>
      <trkpt lat="42.3575120" lon="-2.0370390">
        <ele>320.2</ele>
        <time>2021-09-29T10:50:23Z</time>
      </trkpt>
      <trkpt lat="42.3574330" lon="-2.0371490">
        <ele>320.0</ele>
        <time>2021-09-29T10:50:25Z</time>
      </trkpt>
      <trkpt lat="42.3572080" lon="-2.0373980">
        <ele>320.0</ele>
        <time>2021-09-29T10:50:30Z</time>
      </trkpt>
      <trkpt lat="42.3569780" lon="-2.0376400">
        <ele>320.0</ele>
        <time>2021-09-29T10:50:35Z</time>
      </trkpt>
      <trkpt lat="42.3565950" lon="-2.0380080">
        <ele>320.2</ele>
        <time>2021-09-29T10:50:43Z</time>
      </trkpt>
      <trkpt lat="42.3560610" lon="-2.0383730">
        <ele>320.2</ele>
        <time>2021-09-29T10:50:53Z</time>
      </trkpt>
      <trkpt lat="42.3555080" lon="-2.0386490">
        <ele>320.2</ele>
        <time>2021-09-29T10:51:03Z</time>
      </trkpt>
      <trkpt lat="42.3550240" lon="-2.0389520">
        <ele>320.8</ele>
        <time>2021-09-29T10:51:12Z</time>
      </trkpt>
      <trkpt lat="42.3544970" lon="-2.0392720">
        <ele>321.0</ele>
        <time>2021-09-29T10:51:22Z</time>
      </trkpt>
      <trkpt lat="42.3543650" lon="-2.0393510">
        <ele>321.2</ele>
        <time>2021-09-29T10:51:25Z</time>
      </trkpt>
      <trkpt lat="42.3543430" lon="-2.0393760">
        <ele>321.2</ele>
        <time>2021-09-29T10:51:26Z</time>
      </trkpt>
      <trkpt lat="42.3543390" lon="-2.0394280">
        <ele>321.6</ele>
        <time>2021-09-29T10:51:30Z</time>
      </trkpt>
      <trkpt lat="42.3542930" lon="-2.0394350">
        <ele>322.0</ele>
        <time>2021-09-29T10:51:34Z</time>
      </trkpt>
      <trkpt lat="42.3541170" lon="-2.0395420">
        <ele>322.2</ele>
        <time>2021-09-29T10:51:41Z</time>
      </trkpt>
      <trkpt lat="42.3539690" lon="-2.0397150">
        <ele>321.4</ele>
        <time>2021-09-29T10:51:46Z</time>
      </trkpt>
      <trkpt lat="42.3539810" lon="-2.0398550">
        <ele>321.2</ele>
        <time>2021-09-29T10:51:50Z</time>
      </trkpt>
      <trkpt lat="42.3540120" lon="-2.0399260">
        <ele>320.8</ele>
        <time>2021-09-29T10:51:52Z</time>
      </trkpt>
      <trkpt lat="42.3542250" lon="-2.0403070">
        <ele>320.4</ele>
        <time>2021-09-29T10:52:01Z</time>
      </trkpt>
      <trkpt lat="42.3542820" lon="-2.0404070">
        <ele>320.0</ele>
        <time>2021-09-29T10:52:03Z</time>
      </trkpt>
      <trkpt lat="42.3545100" lon="-2.0408230">
        <ele>319.8</ele>
        <time>2021-09-29T10:52:11Z</time>
      </trkpt>
      <trkpt lat="42.3546640" lon="-2.0411000">
        <ele>319.8</ele>
        <time>2021-09-29T10:52:16Z</time>
      </trkpt>
      <trkpt lat="42.3547610" lon="-2.0412720">
        <ele>319.8</ele>
        <time>2021-09-29T10:52:19Z</time>
      </trkpt>
      <trkpt lat="42.3549880" lon="-2.0416560">
        <ele>319.8</ele>
        <time>2021-09-29T10:52:26Z</time>
      </trkpt>
      <trkpt lat="42.3553420" lon="-2.0422710">
        <ele>320.2</ele>
        <time>2021-09-29T10:52:38Z</time>
      </trkpt>
      <trkpt lat="42.3554840" lon="-2.0424780">
        <ele>320.6</ele>
        <time>2021-09-29T10:52:44Z</time>
      </trkpt>
      <trkpt lat="42.3555680" lon="-2.0425720">
        <ele>321.2</ele>
        <time>2021-09-29T10:52:48Z</time>
      </trkpt>
      <trkpt lat="42.3558610" lon="-2.0432060">
        <ele>322.2</ele>
        <time>2021-09-29T10:53:00Z</time>
      </trkpt>
      <trkpt lat="42.3559520" lon="-2.0434940">
        <ele>321.6</ele>
        <time>2021-09-29T10:53:04Z</time>
      </trkpt>
      <trkpt lat="42.3560440" lon="-2.0441870">
        <ele>320.2</ele>
        <time>2021-09-29T10:53:13Z</time>
      </trkpt>
      <trkpt lat="42.3560490" lon="-2.0442640">
        <ele>320.2</ele>
        <time>2021-09-29T10:53:14Z</time>
      </trkpt>
      <trkpt lat="42.3560620" lon="-2.0445160">
        <ele>320.2</ele>
        <time>2021-09-29T10:53:17Z</time>
      </trkpt>
      <trkpt lat="42.3560740" lon="-2.0448160">
        <ele>320.2</ele>
        <time>2021-09-29T10:53:20Z</time>
      </trkpt>
      <trkpt lat="42.3560950" lon="-2.0450460">
        <ele>319.2</ele>
        <time>2021-09-29T10:53:22Z</time>
      </trkpt>
      <trkpt lat="42.3561110" lon="-2.0451690">
        <ele>318.6</ele>
        <time>2021-09-29T10:53:23Z</time>
      </trkpt>
      <trkpt lat="42.3561870" lon="-2.0455250">
        <ele>317.4</ele>
        <time>2021-09-29T10:53:26Z</time>
      </trkpt>
      <trkpt lat="42.3562340" lon="-2.0457440">
        <ele>315.8</ele>
        <time>2021-09-29T10:53:28Z</time>
      </trkpt>
      <trkpt lat="42.3562530" lon="-2.0458510">
        <ele>314.4</ele>
        <time>2021-09-29T10:53:29Z</time>
      </trkpt>
      <trkpt lat="42.3562700" lon="-2.0459580">
        <ele>313.2</ele>
        <time>2021-09-29T10:53:30Z</time>
      </trkpt>
      <trkpt lat="42.3562920" lon="-2.0461740">
        <ele>312.0</ele>
        <time>2021-09-29T10:53:32Z</time>
      </trkpt>
      <trkpt lat="42.3563120" lon="-2.0466100">
        <ele>311.2</ele>
        <time>2021-09-29T10:53:36Z</time>
      </trkpt>
      <trkpt lat="42.3563280" lon="-2.0469510">
        <ele>311.2</ele>
        <time>2021-09-29T10:53:39Z</time>
      </trkpt>
      <trkpt lat="42.3563370" lon="-2.0471720">
        <ele>311.2</ele>
        <time>2021-09-29T10:53:41Z</time>
      </trkpt>
      <trkpt lat="42.3563580" lon="-2.0478000">
        <ele>311.8</ele>
        <time>2021-09-29T10:53:47Z</time>
      </trkpt>
      <trkpt lat="42.3563810" lon="-2.0486080">
        <ele>312.4</ele>
        <time>2021-09-29T10:53:55Z</time>
      </trkpt>
      <trkpt lat="42.3564020" lon="-2.0493870">
        <ele>312.4</ele>
        <time>2021-09-29T10:54:03Z</time>
      </trkpt>
      <trkpt lat="42.3564190" lon="-2.0500620">
        <ele>312.6</ele>
        <time>2021-09-29T10:54:10Z</time>
      </trkpt>
      <trkpt lat="42.3564260" lon="-2.0508140">
        <ele>312.6</ele>
        <time>2021-09-29T10:54:18Z</time>
      </trkpt>
      <trkpt lat="42.3564410" lon="-2.0515890">
        <ele>312.4</ele>
        <time>2021-09-29T10:54:27Z</time>
      </trkpt>
      <trkpt lat="42.3564340" lon="-2.0520190">
        <ele>312.4</ele>
        <time>2021-09-29T10:54:33Z</time>
      </trkpt>
      <trkpt lat="42.3564310" lon="-2.0521380">
        <ele>312.6</ele>
        <time>2021-09-29T10:54:35Z</time>
      </trkpt>
      <trkpt lat="42.3564480" lon="-2.0522980">
        <ele>312.8</ele>
        <time>2021-09-29T10:54:38Z</time>
      </trkpt>
      <trkpt lat="42.3564460" lon="-2.0524080">
        <ele>313.2</ele>
        <time>2021-09-29T10:54:40Z</time>
      </trkpt>
      <trkpt lat="42.3564510" lon="-2.0525700">
        <ele>314.6</ele>
        <time>2021-09-29T10:54:43Z</time>
      </trkpt>
      <trkpt lat="42.3564490" lon="-2.0526740">
        <ele>315.0</ele>
        <time>2021-09-29T10:54:45Z</time>
      </trkpt>
      <trkpt lat="42.3564620" lon="-2.0528470">
        <ele>315.2</ele>
        <time>2021-09-29T10:54:49Z</time>
      </trkpt>
      <trkpt lat="42.3564780" lon="-2.0531810">
        <ele>315.2</ele>
        <time>2021-09-29T10:54:54Z</time>
      </trkpt>
      <trkpt lat="42.3564990" lon="-2.0535360">
        <ele>313.6</ele>
        <time>2021-09-29T10:54:59Z</time>
      </trkpt>
      <trkpt lat="42.3565050" lon="-2.0536790">
        <ele>312.2</ele>
        <time>2021-09-29T10:55:01Z</time>
      </trkpt>
      <trkpt lat="42.3565830" lon="-2.0543250">
        <ele>311.2</ele>
        <time>2021-09-29T10:55:10Z</time>
      </trkpt>
      <trkpt lat="42.3567370" lon="-2.0550890">
        <ele>311.0</ele>
        <time>2021-09-29T10:55:21Z</time>
      </trkpt>
      <trkpt lat="42.3569370" lon="-2.0557760">
        <ele>311.2</ele>
        <time>2021-09-29T10:55:31Z</time>
      </trkpt>
      <trkpt lat="42.3571900" lon="-2.0564470">
        <ele>312.0</ele>
        <time>2021-09-29T10:55:41Z</time>
      </trkpt>
      <trkpt lat="42.3572500" lon="-2.0565760">
        <ele>312.2</ele>
        <time>2021-09-29T10:55:43Z</time>
      </trkpt>
      <trkpt lat="42.3575830" lon="-2.0571940">
        <ele>312.6</ele>
        <time>2021-09-29T10:55:53Z</time>
      </trkpt>
      <trkpt lat="42.3579470" lon="-2.0577770">
        <ele>312.4</ele>
        <time>2021-09-29T10:56:03Z</time>
      </trkpt>
      <trkpt lat="42.3583360" lon="-2.0583730">
        <ele>311.4</ele>
        <time>2021-09-29T10:56:14Z</time>
      </trkpt>
      <trkpt lat="42.3584890" lon="-2.0585930">
        <ele>311.0</ele>
        <time>2021-09-29T10:56:18Z</time>
      </trkpt>
      <trkpt lat="42.3588370" lon="-2.0591080">
        <ele>311.2</ele>
        <time>2021-09-29T10:56:27Z</time>
      </trkpt>
      <trkpt lat="42.3592250" lon="-2.0597050">
        <ele>311.0</ele>
        <time>2021-09-29T10:56:38Z</time>
      </trkpt>
      <trkpt lat="42.3596060" lon="-2.0602810">
        <ele>311.0</ele>
        <time>2021-09-29T10:56:49Z</time>
      </trkpt>
      <trkpt lat="42.3598540" lon="-2.0606570">
        <ele>312.2</ele>
        <time>2021-09-29T10:56:56Z</time>
      </trkpt>
      <trkpt lat="42.3602200" lon="-2.0611990">
        <ele>312.8</ele>
        <time>2021-09-29T10:57:06Z</time>
      </trkpt>
      <trkpt lat="42.3606360" lon="-2.0616870">
        <ele>312.8</ele>
        <time>2021-09-29T10:57:16Z</time>
      </trkpt>
      <trkpt lat="42.3610940" lon="-2.0621440">
        <ele>313.0</ele>
        <time>2021-09-29T10:57:26Z</time>
      </trkpt>
      <trkpt lat="42.3615870" lon="-2.0624820">
        <ele>312.4</ele>
        <time>2021-09-29T10:57:36Z</time>
      </trkpt>
      <trkpt lat="42.3621210" lon="-2.0627440">
        <ele>312.4</ele>
        <time>2021-09-29T10:57:46Z</time>
      </trkpt>
      <trkpt lat="42.3626170" lon="-2.0629040">
        <ele>313.2</ele>
        <time>2021-09-29T10:57:55Z</time>
      </trkpt>
      <trkpt lat="42.3630550" lon="-2.0630000">
        <ele>313.2</ele>
        <time>2021-09-29T10:58:03Z</time>
      </trkpt>
      <trkpt lat="42.3636050" lon="-2.0631190">
        <ele>313.2</ele>
        <time>2021-09-29T10:58:13Z</time>
      </trkpt>
      <trkpt lat="42.3641560" lon="-2.0632470">
        <ele>312.8</ele>
        <time>2021-09-29T10:58:23Z</time>
      </trkpt>
      <trkpt lat="42.3647330" lon="-2.0633960">
        <ele>312.4</ele>
        <time>2021-09-29T10:58:34Z</time>
      </trkpt>
      <trkpt lat="42.3649100" lon="-2.0634840">
        <ele>312.8</ele>
        <time>2021-09-29T10:58:38Z</time>
      </trkpt>
      <trkpt lat="42.3649810" lon="-2.0635430">
        <ele>312.8</ele>
        <time>2021-09-29T10:58:40Z</time>
      </trkpt>
      <trkpt lat="42.3650390" lon="-2.0636060">
        <ele>313.2</ele>
        <time>2021-09-29T10:58:42Z</time>
      </trkpt>
      <trkpt lat="42.3650690" lon="-2.0636230">
        <ele>313.8</ele>
        <time>2021-09-29T10:58:43Z</time>
      </trkpt>
      <trkpt lat="42.3651860" lon="-2.0636120">
        <ele>314.4</ele>
        <time>2021-09-29T10:58:47Z</time>
      </trkpt>
      <trkpt lat="42.3653610" lon="-2.0636570">
        <ele>314.8</ele>
        <time>2021-09-29T10:58:53Z</time>
      </trkpt>
      <trkpt lat="42.3655450" lon="-2.0636930">
        <ele>314.8</ele>
        <time>2021-09-29T10:58:57Z</time>
      </trkpt>
      <trkpt lat="42.3656290" lon="-2.0636990">
        <ele>314.4</ele>
        <time>2021-09-29T10:58:59Z</time>
      </trkpt>
      <trkpt lat="42.3658120" lon="-2.0637520">
        <ele>313.8</ele>
        <time>2021-09-29T10:59:03Z</time>
      </trkpt>
      <trkpt lat="42.3659660" lon="-2.0637880">
        <ele>313.4</ele>
        <time>2021-09-29T10:59:06Z</time>
      </trkpt>
      <trkpt lat="42.3661730" lon="-2.0638400">
        <ele>313.2</ele>
        <time>2021-09-29T10:59:10Z</time>
      </trkpt>
      <trkpt lat="42.3667190" lon="-2.0639640">
        <ele>312.6</ele>
        <time>2021-09-29T10:59:20Z</time>
      </trkpt>
      <trkpt lat="42.3672680" lon="-2.0641360">
        <ele>312.8</ele>
        <time>2021-09-29T10:59:30Z</time>
      </trkpt>
      <trkpt lat="42.3677160" lon="-2.0645140">
        <ele>312.2</ele>
        <time>2021-09-29T10:59:40Z</time>
      </trkpt>
      <trkpt lat="42.3677580" lon="-2.0645530">
        <ele>312.0</ele>
        <time>2021-09-29T10:59:41Z</time>
      </trkpt>
      <trkpt lat="42.3682150" lon="-2.0650100">
        <ele>311.2</ele>
        <time>2021-09-29T10:59:52Z</time>
      </trkpt>
      <trkpt lat="42.3686860" lon="-2.0654690">
        <ele>311.2</ele>
        <time>2021-09-29T11:00:03Z</time>
      </trkpt>
      <trkpt lat="42.3687300" lon="-2.0655130">
        <ele>311.2</ele>
        <time>2021-09-29T11:00:04Z</time>
      </trkpt>
      <trkpt lat="42.3691720" lon="-2.0659620">
        <ele>310.8</ele>
        <time>2021-09-29T11:00:14Z</time>
      </trkpt>
      <trkpt lat="42.3696250" lon="-2.0664140">
        <ele>311.4</ele>
        <time>2021-09-29T11:00:24Z</time>
      </trkpt>
      <trkpt lat="42.3701120" lon="-2.0668000">
        <ele>311.4</ele>
        <time>2021-09-29T11:00:34Z</time>
      </trkpt>
      <trkpt lat="42.3706140" lon="-2.0670820">
        <ele>310.8</ele>
        <time>2021-09-29T11:00:44Z</time>
      </trkpt>
      <trkpt lat="42.3711260" lon="-2.0673410">
        <ele>311.2</ele>
        <time>2021-09-29T11:00:54Z</time>
      </trkpt>
      <trkpt lat="42.3712910" lon="-2.0674230">
        <ele>312.2</ele>
        <time>2021-09-29T11:00:57Z</time>
      </trkpt>
      <trkpt lat="42.3718530" lon="-2.0676710">
        <ele>312.8</ele>
        <time>2021-09-29T11:01:07Z</time>
      </trkpt>
      <trkpt lat="42.3719690" lon="-2.0677070">
        <ele>312.8</ele>
        <time>2021-09-29T11:01:09Z</time>
      </trkpt>
      <trkpt lat="42.3725490" lon="-2.0677690">
        <ele>312.6</ele>
        <time>2021-09-29T11:01:19Z</time>
      </trkpt>
      <trkpt lat="42.3731210" lon="-2.0677060">
        <ele>312.4</ele>
        <time>2021-09-29T11:01:29Z</time>
      </trkpt>
      <trkpt lat="42.3737040" lon="-2.0676240">
        <ele>312.8</ele>
        <time>2021-09-29T11:01:39Z</time>
      </trkpt>
      <trkpt lat="42.3742910" lon="-2.0675640">
        <ele>312.6</ele>
        <time>2021-09-29T11:01:49Z</time>
      </trkpt>
      <trkpt lat="42.3745300" lon="-2.0675310">
        <ele>312.4</ele>
        <time>2021-09-29T11:01:53Z</time>
      </trkpt>
      <trkpt lat="42.3751270" lon="-2.0674700">
        <ele>311.8</ele>
        <time>2021-09-29T11:02:03Z</time>
      </trkpt>
      <trkpt lat="42.3754760" lon="-2.0674420">
        <ele>311.2</ele>
        <time>2021-09-29T11:02:09Z</time>
      </trkpt>
      <trkpt lat="42.3760250" lon="-2.0675160">
        <ele>311.2</ele>
        <time>2021-09-29T11:02:19Z</time>
      </trkpt>
      <trkpt lat="42.3765730" lon="-2.0676700">
        <ele>311.8</ele>
        <time>2021-09-29T11:02:30Z</time>
      </trkpt>
      <trkpt lat="42.3769550" lon="-2.0678790">
        <ele>311.8</ele>
        <time>2021-09-29T11:02:39Z</time>
      </trkpt>
      <trkpt lat="42.3770500" lon="-2.0679600">
        <ele>312.0</ele>
        <time>2021-09-29T11:02:42Z</time>
      </trkpt>
      <trkpt lat="42.3770900" lon="-2.0679590">
        <ele>312.2</ele>
        <time>2021-09-29T11:02:43Z</time>
      </trkpt>
      <trkpt lat="42.3773290" lon="-2.0679060">
        <ele>312.4</ele>
        <time>2021-09-29T11:02:48Z</time>
      </trkpt>
      <trkpt lat="42.3778650" lon="-2.0680420">
        <ele>312.8</ele>
        <time>2021-09-29T11:02:59Z</time>
      </trkpt>
      <trkpt lat="42.3783620" lon="-2.0681790">
        <ele>311.4</ele>
        <time>2021-09-29T11:03:09Z</time>
      </trkpt>
      <trkpt lat="42.3789000" lon="-2.0683330">
        <ele>311.0</ele>
        <time>2021-09-29T11:03:20Z</time>
      </trkpt>
      <trkpt lat="42.3794590" lon="-2.0684940">
        <ele>312.2</ele>
        <time>2021-09-29T11:03:31Z</time>
      </trkpt>
      <trkpt lat="42.3795120" lon="-2.0685080">
        <ele>312.4</ele>
        <time>2021-09-29T11:03:32Z</time>
      </trkpt>
      <trkpt lat="42.3800600" lon="-2.0686770">
        <ele>312.2</ele>
        <time>2021-09-29T11:03:43Z</time>
      </trkpt>
      <trkpt lat="42.3804830" lon="-2.0687970">
        <ele>313.4</ele>
        <time>2021-09-29T11:03:54Z</time>
      </trkpt>
      <trkpt lat="42.3805180" lon="-2.0688040">
        <ele>313.4</ele>
        <time>2021-09-29T11:03:55Z</time>
      </trkpt>
      <trkpt lat="42.3806530" lon="-2.0688380">
        <ele>313.8</ele>
        <time>2021-09-29T11:03:59Z</time>
      </trkpt>
      <trkpt lat="42.3808190" lon="-2.0688860">
        <ele>314.2</ele>
        <time>2021-09-29T11:04:05Z</time>
      </trkpt>
      <trkpt lat="42.3809180" lon="-2.0689370">
        <ele>314.4</ele>
        <time>2021-09-29T11:04:10Z</time>
      </trkpt>
      <trkpt lat="42.3809300" lon="-2.0689550">
        <ele>314.6</ele>
        <time>2021-09-29T11:04:11Z</time>
      </trkpt>
      <trkpt lat="42.3809440" lon="-2.0690130">
        <ele>315.2</ele>
        <time>2021-09-29T11:04:15Z</time>
      </trkpt>
      <trkpt lat="42.3808760" lon="-2.0689360">
        <ele>315.4</ele>
        <time>2021-09-29T11:04:33Z</time>
      </trkpt>
      <trkpt lat="42.3807570" lon="-2.0688890">
        <ele>315.4</ele>
        <time>2021-09-29T11:04:38Z</time>
      </trkpt>
      <trkpt lat="42.3802190" lon="-2.0687450">
        <ele>314.8</ele>
        <time>2021-09-29T11:04:55Z</time>
      </trkpt>
      <trkpt lat="42.3796800" lon="-2.0685710">
        <ele>314.8</ele>
        <time>2021-09-29T11:05:08Z</time>
      </trkpt>
      <trkpt lat="42.3791200" lon="-2.0683940">
        <ele>314.2</ele>
        <time>2021-09-29T11:05:20Z</time>
      </trkpt>
      <trkpt lat="42.3785550" lon="-2.0682310">
        <ele>314.6</ele>
        <time>2021-09-29T11:05:30Z</time>
      </trkpt>
      <trkpt lat="42.3780520" lon="-2.0680880">
        <ele>314.8</ele>
        <time>2021-09-29T11:05:39Z</time>
      </trkpt>
      <trkpt lat="42.3775150" lon="-2.0679360">
        <ele>315.0</ele>
        <time>2021-09-29T11:05:49Z</time>
      </trkpt>
      <trkpt lat="42.3773630" lon="-2.0678920">
        <ele>315.0</ele>
        <time>2021-09-29T11:05:52Z</time>
      </trkpt>
      <trkpt lat="42.3773140" lon="-2.0678870">
        <ele>315.0</ele>
        <time>2021-09-29T11:05:53Z</time>
      </trkpt>
      <trkpt lat="42.3769840" lon="-2.0679310">
        <ele>315.2</ele>
        <time>2021-09-29T11:06:02Z</time>
      </trkpt>
      <trkpt lat="42.3769830" lon="-2.0677270">
        <ele>315.6</ele>
        <time>2021-09-29T11:06:06Z</time>
      </trkpt>
      <trkpt lat="42.3772270" lon="-2.0675980">
        <ele>315.8</ele>
        <time>2021-09-29T11:06:13Z</time>
      </trkpt>
      <trkpt lat="42.3775230" lon="-2.0677000">
        <ele>314.4</ele>
        <time>2021-09-29T11:06:19Z</time>
      </trkpt>
      <trkpt lat="42.3776260" lon="-2.0677280">
        <ele>313.6</ele>
        <time>2021-09-29T11:06:21Z</time>
      </trkpt>
      <trkpt lat="42.3778980" lon="-2.0678090">
        <ele>312.8</ele>
        <time>2021-09-29T11:06:26Z</time>
      </trkpt>
      <trkpt lat="42.3784410" lon="-2.0679770">
        <ele>313.0</ele>
        <time>2021-09-29T11:06:36Z</time>
      </trkpt>
      <trkpt lat="42.3787600" lon="-2.0680570">
        <ele>312.8</ele>
        <time>2021-09-29T11:06:42Z</time>
      </trkpt>
      <trkpt lat="42.3790180" lon="-2.0681280">
        <ele>311.8</ele>
        <time>2021-09-29T11:06:47Z</time>
      </trkpt>
      <trkpt lat="42.3793910" lon="-2.0682170">
        <ele>310.8</ele>
        <time>2021-09-29T11:06:54Z</time>
      </trkpt>
      <trkpt lat="42.3799620" lon="-2.0683610">
        <ele>311.2</ele>
        <time>2021-09-29T11:07:05Z</time>
      </trkpt>
      <trkpt lat="42.3805140" lon="-2.0685150">
        <ele>312.0</ele>
        <time>2021-09-29T11:07:16Z</time>
      </trkpt>
      <trkpt lat="42.3808330" lon="-2.0685710">
        <ele>312.0</ele>
        <time>2021-09-29T11:07:22Z</time>
      </trkpt>
      <trkpt lat="42.3809810" lon="-2.0685680">
        <ele>312.0</ele>
        <time>2021-09-29T11:07:25Z</time>
      </trkpt>
      <trkpt lat="42.3812710" lon="-2.0687420">
        <ele>312.4</ele>
        <time>2021-09-29T11:07:32Z</time>
      </trkpt>
      <trkpt lat="42.3817900" lon="-2.0687480">
        <ele>312.4</ele>
        <time>2021-09-29T11:07:41Z</time>
      </trkpt>
      <trkpt lat="42.3820560" lon="-2.0688140">
        <ele>311.2</ele>
        <time>2021-09-29T11:07:45Z</time>
      </trkpt>
      <trkpt lat="42.3821270" lon="-2.0688380">
        <ele>310.6</ele>
        <time>2021-09-29T11:07:46Z</time>
      </trkpt>
      <trkpt lat="42.3824190" lon="-2.0689880">
        <ele>309.6</ele>
        <time>2021-09-29T11:07:50Z</time>
      </trkpt>
      <trkpt lat="42.3826810" lon="-2.0691400">
        <ele>308.2</ele>
        <time>2021-09-29T11:07:54Z</time>
      </trkpt>
      <trkpt lat="42.3827930" lon="-2.0692040">
        <ele>307.0</ele>
        <time>2021-09-29T11:07:56Z</time>
      </trkpt>
      <trkpt lat="42.3832400" lon="-2.0694580">
        <ele>306.8</ele>
        <time>2021-09-29T11:08:05Z</time>
      </trkpt>
      <trkpt lat="42.3834300" lon="-2.0696720">
        <ele>307.8</ele>
        <time>2021-09-29T11:08:10Z</time>
      </trkpt>
      <trkpt lat="42.3834680" lon="-2.0697060">
        <ele>307.8</ele>
        <time>2021-09-29T11:08:11Z</time>
      </trkpt>
      <trkpt lat="42.3836330" lon="-2.0697870">
        <ele>308.2</ele>
        <time>2021-09-29T11:08:15Z</time>
      </trkpt>
      <trkpt lat="42.3841710" lon="-2.0699230">
        <ele>307.4</ele>
        <time>2021-09-29T11:08:26Z</time>
      </trkpt>
      <trkpt lat="42.3842730" lon="-2.0699610">
        <ele>307.4</ele>
        <time>2021-09-29T11:08:29Z</time>
      </trkpt>
      <trkpt lat="42.3840820" lon="-2.0699750">
        <ele>307.4</ele>
        <time>2021-09-29T11:08:35Z</time>
      </trkpt>
      <trkpt lat="42.3838920" lon="-2.0699310">
        <ele>309.2</ele>
        <time>2021-09-29T11:08:39Z</time>
      </trkpt>
      <trkpt lat="42.3837300" lon="-2.0699040">
        <ele>309.8</ele>
        <time>2021-09-29T11:08:43Z</time>
      </trkpt>
      <trkpt lat="42.3837330" lon="-2.0700630">
        <ele>310.0</ele>
        <time>2021-09-29T11:08:48Z</time>
      </trkpt>
      <trkpt lat="42.3837750" lon="-2.0701220">
        <ele>310.0</ele>
        <time>2021-09-29T11:08:50Z</time>
      </trkpt>
      <trkpt lat="42.3838200" lon="-2.0701780">
        <ele>310.2</ele>
        <time>2021-09-29T11:08:52Z</time>
      </trkpt>
      <trkpt lat="42.3841910" lon="-2.0707160">
        <ele>310.4</ele>
        <time>2021-09-29T11:09:07Z</time>
      </trkpt>
      <trkpt lat="42.3844060" lon="-2.0713920">
        <ele>310.0</ele>
        <time>2021-09-29T11:09:19Z</time>
      </trkpt>
      <trkpt lat="42.3844450" lon="-2.0719620">
        <ele>310.4</ele>
        <time>2021-09-29T11:09:30Z</time>
      </trkpt>
      <trkpt lat="42.3844680" lon="-2.0721540">
        <ele>311.2</ele>
        <time>2021-09-29T11:09:34Z</time>
      </trkpt>
      <trkpt lat="42.3845230" lon="-2.0728070">
        <ele>312.4</ele>
        <time>2021-09-29T11:09:49Z</time>
      </trkpt>
      <trkpt lat="42.3846440" lon="-2.0730450">
        <ele>313.6</ele>
        <time>2021-09-29T11:09:56Z</time>
      </trkpt>
      <trkpt lat="42.3850300" lon="-2.0736340">
        <ele>313.8</ele>
        <time>2021-09-29T11:10:08Z</time>
      </trkpt>
      <trkpt lat="42.3854290" lon="-2.0741410">
        <ele>313.6</ele>
        <time>2021-09-29T11:10:18Z</time>
      </trkpt>
      <trkpt lat="42.3858840" lon="-2.0746530">
        <ele>312.6</ele>
        <time>2021-09-29T11:10:28Z</time>
      </trkpt>
      <trkpt lat="42.3859710" lon="-2.0747630">
        <ele>312.6</ele>
        <time>2021-09-29T11:10:30Z</time>
      </trkpt>
      <trkpt lat="42.3862550" lon="-2.0751380">
        <ele>312.2</ele>
        <time>2021-09-29T11:10:37Z</time>
      </trkpt>
      <trkpt lat="42.3866840" lon="-2.0756930">
        <ele>311.4</ele>
        <time>2021-09-29T11:10:48Z</time>
      </trkpt>
      <trkpt lat="42.3870840" lon="-2.0762000">
        <ele>310.6</ele>
        <time>2021-09-29T11:10:58Z</time>
      </trkpt>
      <trkpt lat="42.3874820" lon="-2.0767170">
        <ele>311.4</ele>
        <time>2021-09-29T11:11:08Z</time>
      </trkpt>
      <trkpt lat="42.3878800" lon="-2.0772570">
        <ele>311.8</ele>
        <time>2021-09-29T11:11:18Z</time>
      </trkpt>
      <trkpt lat="42.3882850" lon="-2.0777830">
        <ele>311.6</ele>
        <time>2021-09-29T11:11:28Z</time>
      </trkpt>
      <trkpt lat="42.3886760" lon="-2.0783200">
        <ele>311.6</ele>
        <time>2021-09-29T11:11:38Z</time>
      </trkpt>
      <trkpt lat="42.3890640" lon="-2.0788470">
        <ele>311.8</ele>
        <time>2021-09-29T11:11:48Z</time>
      </trkpt>
      <trkpt lat="42.3894510" lon="-2.0793790">
        <ele>311.8</ele>
        <time>2021-09-29T11:11:58Z</time>
      </trkpt>
      <trkpt lat="42.3898590" lon="-2.0799190">
        <ele>311.8</ele>
        <time>2021-09-29T11:12:08Z</time>
      </trkpt>
      <trkpt lat="42.3902770" lon="-2.0804710">
        <ele>311.8</ele>
        <time>2021-09-29T11:12:18Z</time>
      </trkpt>
      <trkpt lat="42.3906650" lon="-2.0809910">
        <ele>311.6</ele>
        <time>2021-09-29T11:12:28Z</time>
      </trkpt>
      <trkpt lat="42.3910560" lon="-2.0815150">
        <ele>311.8</ele>
        <time>2021-09-29T11:12:38Z</time>
      </trkpt>
      <trkpt lat="42.3914470" lon="-2.0820210">
        <ele>312.0</ele>
        <time>2021-09-29T11:12:48Z</time>
      </trkpt>
      <trkpt lat="42.3917850" lon="-2.0824770">
        <ele>312.6</ele>
        <time>2021-09-29T11:12:57Z</time>
      </trkpt>
      <trkpt lat="42.3918230" lon="-2.0825290">
        <ele>312.8</ele>
        <time>2021-09-29T11:12:58Z</time>
      </trkpt>
      <trkpt lat="42.3922470" lon="-2.0830910">
        <ele>313.4</ele>
        <time>2021-09-29T11:13:09Z</time>
      </trkpt>
      <trkpt lat="42.3926390" lon="-2.0836120">
        <ele>313.4</ele>
        <time>2021-09-29T11:13:19Z</time>
      </trkpt>
      <trkpt lat="42.3930570" lon="-2.0841490">
        <ele>313.4</ele>
        <time>2021-09-29T11:13:30Z</time>
      </trkpt>
      <trkpt lat="42.3932730" lon="-2.0844020">
        <ele>313.8</ele>
        <time>2021-09-29T11:13:37Z</time>
      </trkpt>
      <trkpt lat="42.3932770" lon="-2.0844390">
        <ele>313.8</ele>
        <time>2021-09-29T11:13:38Z</time>
      </trkpt>
      <trkpt lat="42.3932500" lon="-2.0845430">
        <ele>314.2</ele>
        <time>2021-09-29T11:13:42Z</time>
      </trkpt>
      <trkpt lat="42.3932240" lon="-2.0845800">
        <ele>315.2</ele>
        <time>2021-09-29T11:13:44Z</time>
      </trkpt>
      <trkpt lat="42.3931860" lon="-2.0846050">
        <ele>316.6</ele>
        <time>2021-09-29T11:13:46Z</time>
      </trkpt>
      <trkpt lat="42.3930900" lon="-2.0845740">
        <ele>317.6</ele>
        <time>2021-09-29T11:13:49Z</time>
      </trkpt>
      <trkpt lat="42.3930070" lon="-2.0845100">
        <ele>318.0</ele>
        <time>2021-09-29T11:13:51Z</time>
      </trkpt>
      <trkpt lat="42.3925730" lon="-2.0840110">
        <ele>318.0</ele>
        <time>2021-09-29T11:14:02Z</time>
      </trkpt>
      <trkpt lat="42.3924290" lon="-2.0838270">
        <ele>318.0</ele>
        <time>2021-09-29T11:14:06Z</time>
      </trkpt>
      <trkpt lat="42.3923030" lon="-2.0837520">
        <ele>318.0</ele>
        <time>2021-09-29T11:14:09Z</time>
      </trkpt>
      <trkpt lat="42.3921390" lon="-2.0838170">
        <ele>318.0</ele>
        <time>2021-09-29T11:14:14Z</time>
      </trkpt>
      <trkpt lat="42.3920910" lon="-2.0839020">
        <ele>318.0</ele>
        <time>2021-09-29T11:14:16Z</time>
      </trkpt>
      <trkpt lat="42.3920210" lon="-2.0840970">
        <ele>317.2</ele>
        <time>2021-09-29T11:14:21Z</time>
      </trkpt>
      <trkpt lat="42.3920170" lon="-2.0842130">
        <ele>317.2</ele>
        <time>2021-09-29T11:14:24Z</time>
      </trkpt>
      <trkpt lat="42.3920650" lon="-2.0843420">
        <ele>317.6</ele>
        <time>2021-09-29T11:14:28Z</time>
      </trkpt>
      <trkpt lat="42.3921170" lon="-2.0844300">
        <ele>318.0</ele>
        <time>2021-09-29T11:14:31Z</time>
      </trkpt>
      <trkpt lat="42.3921690" lon="-2.0845120">
        <ele>318.2</ele>
        <time>2021-09-29T11:14:34Z</time>
      </trkpt>
      <trkpt lat="42.3922270" lon="-2.0845910">
        <ele>318.8</ele>
        <time>2021-09-29T11:14:37Z</time>
      </trkpt>
      <trkpt lat="42.3922470" lon="-2.0846190">
        <ele>319.4</ele>
        <time>2021-09-29T11:14:38Z</time>
      </trkpt>
      <trkpt lat="42.3923080" lon="-2.0847000">
        <ele>320.6</ele>
        <time>2021-09-29T11:14:41Z</time>
      </trkpt>
      <trkpt lat="42.3924310" lon="-2.0848740">
        <ele>322.0</ele>
        <time>2021-09-29T11:14:47Z</time>
      </trkpt>
      <trkpt lat="42.3924930" lon="-2.0849590">
        <ele>323.4</ele>
        <time>2021-09-29T11:14:50Z</time>
      </trkpt>
      <trkpt lat="42.3925540" lon="-2.0850440">
        <ele>324.4</ele>
        <time>2021-09-29T11:14:53Z</time>
      </trkpt>
      <trkpt lat="42.3926760" lon="-2.0853210">
        <ele>325.6</ele>
        <time>2021-09-29T11:15:02Z</time>
      </trkpt>
      <trkpt lat="42.3926780" lon="-2.0853880">
        <ele>326.6</ele>
        <time>2021-09-29T11:15:05Z</time>
      </trkpt>
      <trkpt lat="42.3926560" lon="-2.0854160">
        <ele>327.8</ele>
        <time>2021-09-29T11:15:08Z</time>
      </trkpt>
      <trkpt lat="42.3926440" lon="-2.0854190">
        <ele>328.8</ele>
        <time>2021-09-29T11:15:10Z</time>
      </trkpt>
      <trkpt lat="42.3926420" lon="-2.0854200">
        <ele>329.2</ele>
        <time>2021-09-29T11:15:11Z</time>
      </trkpt>
      <trkpt lat="42.3926830" lon="-2.0853970">
        <ele>331.2</ele>
        <time>2021-09-29T11:24:38Z</time>
      </trkpt>
      <trkpt lat="42.3926960" lon="-2.0853890">
        <ele>331.2</ele>
        <time>2021-09-29T11:24:39Z</time>
      </trkpt>
      <trkpt lat="42.3928120" lon="-2.0853870">
        <ele>331.0</ele>
        <time>2021-09-29T11:24:45Z</time>
      </trkpt>
      <trkpt lat="42.3928700" lon="-2.0854540">
        <ele>331.0</ele>
        <time>2021-09-29T11:24:48Z</time>
      </trkpt>
      <trkpt lat="42.3932000" lon="-2.0858950">
        <ele>330.6</ele>
        <time>2021-09-29T11:25:02Z</time>
      </trkpt>
      <trkpt lat="42.3932390" lon="-2.0859640">
        <ele>330.4</ele>
        <time>2021-09-29T11:25:04Z</time>
      </trkpt>
      <trkpt lat="42.3932810" lon="-2.0860250">
        <ele>330.2</ele>
        <time>2021-09-29T11:25:06Z</time>
      </trkpt>
      <trkpt lat="42.3933680" lon="-2.0861390">
        <ele>330.2</ele>
        <time>2021-09-29T11:25:10Z</time>
      </trkpt>
      <trkpt lat="42.3935350" lon="-2.0863590">
        <ele>330.0</ele>
        <time>2021-09-29T11:25:16Z</time>
      </trkpt>
      <trkpt lat="42.3937100" lon="-2.0865830">
        <ele>329.4</ele>
        <time>2021-09-29T11:25:21Z</time>
      </trkpt>
      <trkpt lat="42.3938150" lon="-2.0866970">
        <ele>328.0</ele>
        <time>2021-09-29T11:25:24Z</time>
      </trkpt>
      <trkpt lat="42.3939460" lon="-2.0868040">
        <ele>326.8</ele>
        <time>2021-09-29T11:25:27Z</time>
      </trkpt>
      <trkpt lat="42.3940410" lon="-2.0868630">
        <ele>326.2</ele>
        <time>2021-09-29T11:25:29Z</time>
      </trkpt>
      <trkpt lat="42.3941180" lon="-2.0869100">
        <ele>325.4</ele>
        <time>2021-09-29T11:25:31Z</time>
      </trkpt>
      <trkpt lat="42.3941910" lon="-2.0870060">
        <ele>324.8</ele>
        <time>2021-09-29T11:25:35Z</time>
      </trkpt>
      <trkpt lat="42.3942430" lon="-2.0870790">
        <ele>324.8</ele>
        <time>2021-09-29T11:25:38Z</time>
      </trkpt>
      <trkpt lat="42.3943070" lon="-2.0871660">
        <ele>324.8</ele>
        <time>2021-09-29T11:25:41Z</time>
      </trkpt>
      <trkpt lat="42.3944120" lon="-2.0873020">
        <ele>325.2</ele>
        <time>2021-09-29T11:25:45Z</time>
      </trkpt>
      <trkpt lat="42.3947990" lon="-2.0878600">
        <ele>325.6</ele>
        <time>2021-09-29T11:26:00Z</time>
      </trkpt>
      <trkpt lat="42.3949000" lon="-2.0879900">
        <ele>325.8</ele>
        <time>2021-09-29T11:26:05Z</time>
      </trkpt>
      <trkpt lat="42.3949570" lon="-2.0880730">
        <ele>325.8</ele>
        <time>2021-09-29T11:26:08Z</time>
      </trkpt>
      <trkpt lat="42.3950850" lon="-2.0883270">
        <ele>325.6</ele>
        <time>2021-09-29T11:26:15Z</time>
      </trkpt>
      <trkpt lat="42.3952770" lon="-2.0885040">
        <ele>325.2</ele>
        <time>2021-09-29T11:26:22Z</time>
      </trkpt>
      <trkpt lat="42.3953550" lon="-2.0886260">
        <ele>325.2</ele>
        <time>2021-09-29T11:26:26Z</time>
      </trkpt>
      <trkpt lat="42.3956150" lon="-2.0889380">
        <ele>325.6</ele>
        <time>2021-09-29T11:26:36Z</time>
      </trkpt>
      <trkpt lat="42.3958660" lon="-2.0892140">
        <ele>325.6</ele>
        <time>2021-09-29T11:26:45Z</time>
      </trkpt>
      <trkpt lat="42.3960690" lon="-2.0894560">
        <ele>325.4</ele>
        <time>2021-09-29T11:26:53Z</time>
      </trkpt>
      <trkpt lat="42.3961730" lon="-2.0895680">
        <ele>325.4</ele>
        <time>2021-09-29T11:26:57Z</time>
      </trkpt>
      <trkpt lat="42.3962650" lon="-2.0896400">
        <ele>325.2</ele>
        <time>2021-09-29T11:27:00Z</time>
      </trkpt>
      <trkpt lat="42.3964430" lon="-2.0898170">
        <ele>324.6</ele>
        <time>2021-09-29T11:27:06Z</time>
      </trkpt>
      <trkpt lat="42.3965120" lon="-2.0898840">
        <ele>324.2</ele>
        <time>2021-09-29T11:27:08Z</time>
      </trkpt>
      <trkpt lat="42.3966140" lon="-2.0899650">
        <ele>323.6</ele>
        <time>2021-09-29T11:27:11Z</time>
      </trkpt>
      <trkpt lat="42.3967170" lon="-2.0900890">
        <ele>323.0</ele>
        <time>2021-09-29T11:27:15Z</time>
      </trkpt>
      <trkpt lat="42.3967610" lon="-2.0901420">
        <ele>323.0</ele>
        <time>2021-09-29T11:27:17Z</time>
      </trkpt>
      <trkpt lat="42.3969350" lon="-2.0902750">
        <ele>323.4</ele>
        <time>2021-09-29T11:27:24Z</time>
      </trkpt>
      <trkpt lat="42.3970800" lon="-2.0903940">
        <ele>323.8</ele>
        <time>2021-09-29T11:27:30Z</time>
      </trkpt>
      <trkpt lat="42.3971700" lon="-2.0904900">
        <ele>324.0</ele>
        <time>2021-09-29T11:27:34Z</time>
      </trkpt>
      <trkpt lat="42.3972570" lon="-2.0905730">
        <ele>324.6</ele>
        <time>2021-09-29T11:27:38Z</time>
      </trkpt>
      <trkpt lat="42.3973450" lon="-2.0906480">
        <ele>325.6</ele>
        <time>2021-09-29T11:27:42Z</time>
      </trkpt>
      <trkpt lat="42.3973670" lon="-2.0906660">
        <ele>326.0</ele>
        <time>2021-09-29T11:27:43Z</time>
      </trkpt>
      <trkpt lat="42.3974620" lon="-2.0907420">
        <ele>327.0</ele>
        <time>2021-09-29T11:27:47Z</time>
      </trkpt>
      <trkpt lat="42.3977750" lon="-2.0909330">
        <ele>327.8</ele>
        <time>2021-09-29T11:27:57Z</time>
      </trkpt>
      <trkpt lat="42.3978990" lon="-2.0910180">
        <ele>327.4</ele>
        <time>2021-09-29T11:28:00Z</time>
      </trkpt>
      <trkpt lat="42.3980350" lon="-2.0911190">
        <ele>325.4</ele>
        <time>2021-09-29T11:28:04Z</time>
      </trkpt>
      <trkpt lat="42.3982450" lon="-2.0912790">
        <ele>324.6</ele>
        <time>2021-09-29T11:28:11Z</time>
      </trkpt>
      <trkpt lat="42.3983030" lon="-2.0913240">
        <ele>324.4</ele>
        <time>2021-09-29T11:28:13Z</time>
      </trkpt>
      <trkpt lat="42.3986790" lon="-2.0916230">
        <ele>325.0</ele>
        <time>2021-09-29T11:28:24Z</time>
      </trkpt>
      <trkpt lat="42.3987440" lon="-2.0916780">
        <ele>324.8</ele>
        <time>2021-09-29T11:28:26Z</time>
      </trkpt>
      <trkpt lat="42.3988050" lon="-2.0917320">
        <ele>324.6</ele>
        <time>2021-09-29T11:28:28Z</time>
      </trkpt>
      <trkpt lat="42.3991370" lon="-2.0921580">
        <ele>324.0</ele>
        <time>2021-09-29T11:28:43Z</time>
      </trkpt>
      <trkpt lat="42.3991750" lon="-2.0922130">
        <ele>324.0</ele>
        <time>2021-09-29T11:28:47Z</time>
      </trkpt>
      <trkpt lat="42.3992940" lon="-2.0923760">
        <ele>324.4</ele>
        <time>2021-09-29T11:28:57Z</time>
      </trkpt>
      <trkpt lat="42.3993070" lon="-2.0924000">
        <ele>324.6</ele>
        <time>2021-09-29T11:29:00Z</time>
      </trkpt>
      <trkpt lat="42.3992760" lon="-2.0923430">
        <ele>326.0</ele>
        <time>2021-09-29T11:31:40Z</time>
      </trkpt>
      <trkpt lat="42.3992560" lon="-2.0923180">
        <ele>325.8</ele>
        <time>2021-09-29T11:31:41Z</time>
      </trkpt>
      <trkpt lat="42.3990980" lon="-2.0922220">
        <ele>325.6</ele>
        <time>2021-09-29T11:31:47Z</time>
      </trkpt>
      <trkpt lat="42.3990310" lon="-2.0922100">
        <ele>325.8</ele>
        <time>2021-09-29T11:31:51Z</time>
      </trkpt>
      <trkpt lat="42.3989570" lon="-2.0922090">
        <ele>326.2</ele>
        <time>2021-09-29T11:31:55Z</time>
      </trkpt>
      <trkpt lat="42.3989150" lon="-2.0922050">
        <ele>326.6</ele>
        <time>2021-09-29T11:31:57Z</time>
      </trkpt>
      <trkpt lat="42.3988450" lon="-2.0921960">
        <ele>327.2</ele>
        <time>2021-09-29T11:32:00Z</time>
      </trkpt>
      <trkpt lat="42.3987900" lon="-2.0921920">
        <ele>327.4</ele>
        <time>2021-09-29T11:32:02Z</time>
      </trkpt>
      <trkpt lat="42.3987360" lon="-2.0921870">
        <ele>327.8</ele>
        <time>2021-09-29T11:32:04Z</time>
      </trkpt>
      <trkpt lat="42.3986600" lon="-2.0921840">
        <ele>328.4</ele>
        <time>2021-09-29T11:32:07Z</time>
      </trkpt>
      <trkpt lat="42.3985890" lon="-2.0921780">
        <ele>329.2</ele>
        <time>2021-09-29T11:32:10Z</time>
      </trkpt>
      <trkpt lat="42.3985430" lon="-2.0921720">
        <ele>329.6</ele>
        <time>2021-09-29T11:32:12Z</time>
      </trkpt>
      <trkpt lat="42.3984730" lon="-2.0921670">
        <ele>330.8</ele>
        <time>2021-09-29T11:32:15Z</time>
      </trkpt>
      <trkpt lat="42.3983720" lon="-2.0921580">
        <ele>332.0</ele>
        <time>2021-09-29T11:32:19Z</time>
      </trkpt>
      <trkpt lat="42.3982590" lon="-2.0921510">
        <ele>333.4</ele>
        <time>2021-09-29T11:32:23Z</time>
      </trkpt>
      <trkpt lat="42.3981740" lon="-2.0921530">
        <ele>334.4</ele>
        <time>2021-09-29T11:32:26Z</time>
      </trkpt>
      <trkpt lat="42.3980960" lon="-2.0921630">
        <ele>335.6</ele>
        <time>2021-09-29T11:32:29Z</time>
      </trkpt>
      <trkpt lat="42.3979460" lon="-2.0921980">
        <ele>336.6</ele>
        <time>2021-09-29T11:32:35Z</time>
      </trkpt>
      <trkpt lat="42.3978180" lon="-2.0922320">
        <ele>337.8</ele>
        <time>2021-09-29T11:32:40Z</time>
      </trkpt>
      <trkpt lat="42.3977140" lon="-2.0922730">
        <ele>338.8</ele>
        <time>2021-09-29T11:32:44Z</time>
      </trkpt>
      <trkpt lat="42.3974820" lon="-2.0923870">
        <ele>339.8</ele>
        <time>2021-09-29T11:32:53Z</time>
      </trkpt>
      <trkpt lat="42.3972670" lon="-2.0924880">
        <ele>341.0</ele>
        <time>2021-09-29T11:33:01Z</time>
      </trkpt>
      <trkpt lat="42.3970770" lon="-2.0925700">
        <ele>342.2</ele>
        <time>2021-09-29T11:33:08Z</time>
      </trkpt>
      <trkpt lat="42.3969390" lon="-2.0926370">
        <ele>343.2</ele>
        <time>2021-09-29T11:33:13Z</time>
      </trkpt>
      <trkpt lat="42.3967420" lon="-2.0927280">
        <ele>344.4</ele>
        <time>2021-09-29T11:33:20Z</time>
      </trkpt>
      <trkpt lat="42.3963350" lon="-2.0929800">
        <ele>345.4</ele>
        <time>2021-09-29T11:33:35Z</time>
      </trkpt>
      <trkpt lat="42.3961530" lon="-2.0930450">
        <ele>346.6</ele>
        <time>2021-09-29T11:33:42Z</time>
      </trkpt>
      <trkpt lat="42.3960110" lon="-2.0930800">
        <ele>347.8</ele>
        <time>2021-09-29T11:33:48Z</time>
      </trkpt>
      <trkpt lat="42.3959590" lon="-2.0931570">
        <ele>348.6</ele>
        <time>2021-09-29T11:33:51Z</time>
      </trkpt>
      <trkpt lat="42.3959670" lon="-2.0932250">
        <ele>348.8</ele>
        <time>2021-09-29T11:33:53Z</time>
      </trkpt>
      <trkpt lat="42.3960650" lon="-2.0936040">
        <ele>349.8</ele>
        <time>2021-09-29T11:34:05Z</time>
      </trkpt>
      <trkpt lat="42.3960630" lon="-2.0937620">
        <ele>351.2</ele>
        <time>2021-09-29T11:34:10Z</time>
      </trkpt>
      <trkpt lat="42.3960560" lon="-2.0938540">
        <ele>352.4</ele>
        <time>2021-09-29T11:34:13Z</time>
      </trkpt>
      <trkpt lat="42.3960400" lon="-2.0940070">
        <ele>353.6</ele>
        <time>2021-09-29T11:34:18Z</time>
      </trkpt>
      <trkpt lat="42.3960250" lon="-2.0941910">
        <ele>354.8</ele>
        <time>2021-09-29T11:34:24Z</time>
      </trkpt>
      <trkpt lat="42.3960130" lon="-2.0943430">
        <ele>356.0</ele>
        <time>2021-09-29T11:34:29Z</time>
      </trkpt>
      <trkpt lat="42.3960010" lon="-2.0944900">
        <ele>357.2</ele>
        <time>2021-09-29T11:34:34Z</time>
      </trkpt>
      <trkpt lat="42.3959960" lon="-2.0945540">
        <ele>358.2</ele>
        <time>2021-09-29T11:34:36Z</time>
      </trkpt>
      <trkpt lat="42.3959780" lon="-2.0947510">
        <ele>359.6</ele>
        <time>2021-09-29T11:34:42Z</time>
      </trkpt>
      <trkpt lat="42.3959700" lon="-2.0948500">
        <ele>360.8</ele>
        <time>2021-09-29T11:34:45Z</time>
      </trkpt>
      <trkpt lat="42.3959550" lon="-2.0950180">
        <ele>361.8</ele>
        <time>2021-09-29T11:34:50Z</time>
      </trkpt>
      <trkpt lat="42.3959390" lon="-2.0951840">
        <ele>363.0</ele>
        <time>2021-09-29T11:34:55Z</time>
      </trkpt>
      <trkpt lat="42.3959140" lon="-2.0953430">
        <ele>364.0</ele>
        <time>2021-09-29T11:35:00Z</time>
      </trkpt>
      <trkpt lat="42.3958930" lon="-2.0954290">
        <ele>365.2</ele>
        <time>2021-09-29T11:35:03Z</time>
      </trkpt>
      <trkpt lat="42.3958780" lon="-2.0955290">
        <ele>366.2</ele>
        <time>2021-09-29T11:35:07Z</time>
      </trkpt>
      <trkpt lat="42.3958270" lon="-2.0955100">
        <ele>367.4</ele>
        <time>2021-09-29T11:35:13Z</time>
      </trkpt>
      <trkpt lat="42.3958040" lon="-2.0954750">
        <ele>367.8</ele>
        <time>2021-09-29T11:35:17Z</time>
      </trkpt>
      <trkpt lat="42.3957830" lon="-2.0954380">
        <ele>367.4</ele>
        <time>2021-09-29T11:35:54Z</time>
      </trkpt>
      <trkpt lat="42.3957320" lon="-2.0953950">
        <ele>367.4</ele>
        <time>2021-09-29T11:35:57Z</time>
      </trkpt>
      <trkpt lat="42.3956760" lon="-2.0953460">
        <ele>367.4</ele>
        <time>2021-09-29T11:36:00Z</time>
      </trkpt>
      <trkpt lat="42.3954550" lon="-2.0951580">
        <ele>367.4</ele>
        <time>2021-09-29T11:36:07Z</time>
      </trkpt>
      <trkpt lat="42.3952990" lon="-2.0950240">
        <ele>367.4</ele>
        <time>2021-09-29T11:36:11Z</time>
      </trkpt>
      <trkpt lat="42.3950980" lon="-2.0948530">
        <ele>366.2</ele>
        <time>2021-09-29T11:36:16Z</time>
      </trkpt>
      <trkpt lat="42.3949390" lon="-2.0947140">
        <ele>366.2</ele>
        <time>2021-09-29T11:36:20Z</time>
      </trkpt>
      <trkpt lat="42.3948160" lon="-2.0946080">
        <ele>366.2</ele>
        <time>2021-09-29T11:36:23Z</time>
      </trkpt>
      <trkpt lat="42.3946510" lon="-2.0944660">
        <ele>366.4</ele>
        <time>2021-09-29T11:36:27Z</time>
      </trkpt>
      <trkpt lat="42.3944470" lon="-2.0942900">
        <ele>367.2</ele>
        <time>2021-09-29T11:36:32Z</time>
      </trkpt>
      <trkpt lat="42.3941720" lon="-2.0940580">
        <ele>367.8</ele>
        <time>2021-09-29T11:36:39Z</time>
      </trkpt>
      <trkpt lat="42.3939280" lon="-2.0938530">
        <ele>368.2</ele>
        <time>2021-09-29T11:36:45Z</time>
      </trkpt>
      <trkpt lat="42.3938420" lon="-2.0937840">
        <ele>368.4</ele>
        <time>2021-09-29T11:36:48Z</time>
      </trkpt>
      <trkpt lat="42.3937790" lon="-2.0937460">
        <ele>368.8</ele>
        <time>2021-09-29T11:36:54Z</time>
      </trkpt>
      <trkpt lat="42.3938020" lon="-2.0937500">
        <ele>368.2</ele>
        <time>2021-09-29T11:37:45Z</time>
      </trkpt>
      <trkpt lat="42.3938160" lon="-2.0937630">
        <ele>368.0</ele>
        <time>2021-09-29T11:37:46Z</time>
      </trkpt>
      <trkpt lat="42.3938880" lon="-2.0938240">
        <ele>368.0</ele>
        <time>2021-09-29T11:37:49Z</time>
      </trkpt>
      <trkpt lat="42.3940180" lon="-2.0939340">
        <ele>367.8</ele>
        <time>2021-09-29T11:37:53Z</time>
      </trkpt>
      <trkpt lat="42.3940920" lon="-2.0939950">
        <ele>367.4</ele>
        <time>2021-09-29T11:37:55Z</time>
      </trkpt>
      <trkpt lat="42.3942550" lon="-2.0941320">
        <ele>366.4</ele>
        <time>2021-09-29T11:37:59Z</time>
      </trkpt>
      <trkpt lat="42.3946560" lon="-2.0944690">
        <ele>365.4</ele>
        <time>2021-09-29T11:38:08Z</time>
      </trkpt>
      <trkpt lat="42.3951440" lon="-2.0948840">
        <ele>364.6</ele>
        <time>2021-09-29T11:38:18Z</time>
      </trkpt>
      <trkpt lat="42.3951960" lon="-2.0949280">
        <ele>364.4</ele>
        <time>2021-09-29T11:38:19Z</time>
      </trkpt>
      <trkpt lat="42.3956770" lon="-2.0953250">
        <ele>364.2</ele>
        <time>2021-09-29T11:38:29Z</time>
      </trkpt>
      <trkpt lat="42.3958260" lon="-2.0954590">
        <ele>364.6</ele>
        <time>2021-09-29T11:38:33Z</time>
      </trkpt>
      <trkpt lat="42.3959000" lon="-2.0957980">
        <ele>365.6</ele>
        <time>2021-09-29T11:38:39Z</time>
      </trkpt>
      <trkpt lat="42.3958970" lon="-2.0958610">
        <ele>365.8</ele>
        <time>2021-09-29T11:38:40Z</time>
      </trkpt>
      <trkpt lat="42.3958740" lon="-2.0961260">
        <ele>366.4</ele>
        <time>2021-09-29T11:38:44Z</time>
      </trkpt>
      <trkpt lat="42.3958650" lon="-2.0961950">
        <ele>366.6</ele>
        <time>2021-09-29T11:38:45Z</time>
      </trkpt>
      <trkpt lat="42.3957750" lon="-2.0969740">
        <ele>366.8</ele>
        <time>2021-09-29T11:38:56Z</time>
      </trkpt>
      <trkpt lat="42.3957070" lon="-2.0977420">
        <ele>366.6</ele>
        <time>2021-09-29T11:39:07Z</time>
      </trkpt>
      <trkpt lat="42.3956670" lon="-2.0980860">
        <ele>367.0</ele>
        <time>2021-09-29T11:39:12Z</time>
      </trkpt>
      <trkpt lat="42.3956250" lon="-2.0982780">
        <ele>367.4</ele>
        <time>2021-09-29T11:39:15Z</time>
      </trkpt>
      <trkpt lat="42.3955670" lon="-2.0984650">
        <ele>367.6</ele>
        <time>2021-09-29T11:39:18Z</time>
      </trkpt>
      <trkpt lat="42.3954330" lon="-2.0988370">
        <ele>368.8</ele>
        <time>2021-09-29T11:39:24Z</time>
      </trkpt>
      <trkpt lat="42.3952130" lon="-2.0994870">
        <ele>369.8</ele>
        <time>2021-09-29T11:39:35Z</time>
      </trkpt>
      <trkpt lat="42.3950930" lon="-2.0999730">
        <ele>370.8</ele>
        <time>2021-09-29T11:39:45Z</time>
      </trkpt>
      <trkpt lat="42.3949730" lon="-2.1000460">
        <ele>371.8</ele>
        <time>2021-09-29T11:39:49Z</time>
      </trkpt>
      <trkpt lat="42.3948330" lon="-2.1000860">
        <ele>373.0</ele>
        <time>2021-09-29T11:39:53Z</time>
      </trkpt>
      <trkpt lat="42.3946610" lon="-2.1001340">
        <ele>374.2</ele>
        <time>2021-09-29T11:39:58Z</time>
      </trkpt>
      <trkpt lat="42.3944750" lon="-2.1001960">
        <ele>375.2</ele>
        <time>2021-09-29T11:40:03Z</time>
      </trkpt>
      <trkpt lat="42.3944370" lon="-2.1002090">
        <ele>375.4</ele>
        <time>2021-09-29T11:40:04Z</time>
      </trkpt>
      <trkpt lat="42.3942920" lon="-2.1002590">
        <ele>376.8</ele>
        <time>2021-09-29T11:40:08Z</time>
      </trkpt>
      <trkpt lat="42.3941540" lon="-2.1002960">
        <ele>377.8</ele>
        <time>2021-09-29T11:40:12Z</time>
      </trkpt>
      <trkpt lat="42.3940210" lon="-2.1003410">
        <ele>379.2</ele>
        <time>2021-09-29T11:40:16Z</time>
      </trkpt>
      <trkpt lat="42.3938940" lon="-2.1003850">
        <ele>380.2</ele>
        <time>2021-09-29T11:40:20Z</time>
      </trkpt>
      <trkpt lat="42.3937850" lon="-2.1004210">
        <ele>381.2</ele>
        <time>2021-09-29T11:40:24Z</time>
      </trkpt>
      <trkpt lat="42.3936530" lon="-2.1004650">
        <ele>382.4</ele>
        <time>2021-09-29T11:40:29Z</time>
      </trkpt>
      <trkpt lat="42.3935510" lon="-2.1005010">
        <ele>383.6</ele>
        <time>2021-09-29T11:40:33Z</time>
      </trkpt>
      <trkpt lat="42.3934200" lon="-2.1005510">
        <ele>384.6</ele>
        <time>2021-09-29T11:40:38Z</time>
      </trkpt>
      <trkpt lat="42.3932840" lon="-2.1005930">
        <ele>385.8</ele>
        <time>2021-09-29T11:40:43Z</time>
      </trkpt>
      <trkpt lat="42.3931470" lon="-2.1006350">
        <ele>386.8</ele>
        <time>2021-09-29T11:40:48Z</time>
      </trkpt>
      <trkpt lat="42.3929830" lon="-2.1006940">
        <ele>387.8</ele>
        <time>2021-09-29T11:40:54Z</time>
      </trkpt>
      <trkpt lat="42.3927400" lon="-2.1007750">
        <ele>388.6</ele>
        <time>2021-09-29T11:41:02Z</time>
      </trkpt>
      <trkpt lat="42.3925910" lon="-2.1009230">
        <ele>388.4</ele>
        <time>2021-09-29T11:41:07Z</time>
      </trkpt>
      <trkpt lat="42.3925390" lon="-2.1012660">
        <ele>387.0</ele>
        <time>2021-09-29T11:41:14Z</time>
      </trkpt>
      <trkpt lat="42.3924970" lon="-2.1015630">
        <ele>386.8</ele>
        <time>2021-09-29T11:41:20Z</time>
      </trkpt>
      <trkpt lat="42.3924550" lon="-2.1019110">
        <ele>386.8</ele>
        <time>2021-09-29T11:41:27Z</time>
      </trkpt>
      <trkpt lat="42.3924850" lon="-2.1025140">
        <ele>388.0</ele>
        <time>2021-09-29T11:41:39Z</time>
      </trkpt>
      <trkpt lat="42.3925350" lon="-2.1029080">
        <ele>389.2</ele>
        <time>2021-09-29T11:41:47Z</time>
      </trkpt>
      <trkpt lat="42.3925480" lon="-2.1030040">
        <ele>390.2</ele>
        <time>2021-09-29T11:41:49Z</time>
      </trkpt>
      <trkpt lat="42.3926140" lon="-2.1034770">
        <ele>391.2</ele>
        <time>2021-09-29T11:41:59Z</time>
      </trkpt>
      <trkpt lat="42.3926830" lon="-2.1039590">
        <ele>392.2</ele>
        <time>2021-09-29T11:42:09Z</time>
      </trkpt>
      <trkpt lat="42.3927010" lon="-2.1040960">
        <ele>392.4</ele>
        <time>2021-09-29T11:42:12Z</time>
      </trkpt>
      <trkpt lat="42.3927390" lon="-2.1043800">
        <ele>393.4</ele>
        <time>2021-09-29T11:42:18Z</time>
      </trkpt>
      <trkpt lat="42.3927600" lon="-2.1045270">
        <ele>394.6</ele>
        <time>2021-09-29T11:42:21Z</time>
      </trkpt>
      <trkpt lat="42.3928300" lon="-2.1050650">
        <ele>395.6</ele>
        <time>2021-09-29T11:42:32Z</time>
      </trkpt>
      <trkpt lat="42.3928650" lon="-2.1053240">
        <ele>396.8</ele>
        <time>2021-09-29T11:42:37Z</time>
      </trkpt>
      <trkpt lat="42.3929350" lon="-2.1056800">
        <ele>397.8</ele>
        <time>2021-09-29T11:42:44Z</time>
      </trkpt>
      <trkpt lat="42.3929380" lon="-2.1057340">
        <ele>398.0</ele>
        <time>2021-09-29T11:42:45Z</time>
      </trkpt>
      <trkpt lat="42.3930090" lon="-2.1061740">
        <ele>397.6</ele>
        <time>2021-09-29T11:42:53Z</time>
      </trkpt>
      <trkpt lat="42.3931330" lon="-2.1064960">
        <ele>397.0</ele>
        <time>2021-09-29T11:42:59Z</time>
      </trkpt>
      <trkpt lat="42.3931880" lon="-2.1065950">
        <ele>396.8</ele>
        <time>2021-09-29T11:43:01Z</time>
      </trkpt>
      <trkpt lat="42.3934850" lon="-2.1070680">
        <ele>396.4</ele>
        <time>2021-09-29T11:43:11Z</time>
      </trkpt>
      <trkpt lat="42.3936680" lon="-2.1073520">
        <ele>396.4</ele>
        <time>2021-09-29T11:43:17Z</time>
      </trkpt>
      <trkpt lat="42.3940220" lon="-2.1079120">
        <ele>396.6</ele>
        <time>2021-09-29T11:43:29Z</time>
      </trkpt>
      <trkpt lat="42.3943170" lon="-2.1083240">
        <ele>397.0</ele>
        <time>2021-09-29T11:43:39Z</time>
      </trkpt>
      <trkpt lat="42.3944620" lon="-2.1084490">
        <ele>397.6</ele>
        <time>2021-09-29T11:43:43Z</time>
      </trkpt>
      <trkpt lat="42.3945790" lon="-2.1085210">
        <ele>398.0</ele>
        <time>2021-09-29T11:43:46Z</time>
      </trkpt>
      <trkpt lat="42.3951150" lon="-2.1087400">
        <ele>397.8</ele>
        <time>2021-09-29T11:43:59Z</time>
      </trkpt>
      <trkpt lat="42.3955810" lon="-2.1089350">
        <ele>399.0</ele>
        <time>2021-09-29T11:44:11Z</time>
      </trkpt>
      <trkpt lat="42.3956570" lon="-2.1089770">
        <ele>399.2</ele>
        <time>2021-09-29T11:44:13Z</time>
      </trkpt>
      <trkpt lat="42.3957760" lon="-2.1091110">
        <ele>400.2</ele>
        <time>2021-09-29T11:44:17Z</time>
      </trkpt>
      <trkpt lat="42.3958400" lon="-2.1094160">
        <ele>400.6</ele>
        <time>2021-09-29T11:44:23Z</time>
      </trkpt>
      <trkpt lat="42.3958700" lon="-2.1100210">
        <ele>401.2</ele>
        <time>2021-09-29T11:44:35Z</time>
      </trkpt>
      <trkpt lat="42.3958940" lon="-2.1103070">
        <ele>402.4</ele>
        <time>2021-09-29T11:44:41Z</time>
      </trkpt>
      <trkpt lat="42.3959160" lon="-2.1106190">
        <ele>403.6</ele>
        <time>2021-09-29T11:44:48Z</time>
      </trkpt>
      <trkpt lat="42.3958740" lon="-2.1107660">
        <ele>404.8</ele>
        <time>2021-09-29T11:44:53Z</time>
      </trkpt>
      <trkpt lat="42.3957720" lon="-2.1108010">
        <ele>405.8</ele>
        <time>2021-09-29T11:44:57Z</time>
      </trkpt>
      <trkpt lat="42.3956910" lon="-2.1108220">
        <ele>407.0</ele>
        <time>2021-09-29T11:45:00Z</time>
      </trkpt>
      <trkpt lat="42.3955930" lon="-2.1109410">
        <ele>407.6</ele>
        <time>2021-09-29T11:45:05Z</time>
      </trkpt>
      <trkpt lat="42.3954040" lon="-2.1111860">
        <ele>407.2</ele>
        <time>2021-09-29T11:45:14Z</time>
      </trkpt>
      <trkpt lat="42.3953330" lon="-2.1111450">
        <ele>407.0</ele>
        <time>2021-09-29T11:45:16Z</time>
      </trkpt>
      <trkpt lat="42.3952550" lon="-2.1110910">
        <ele>407.0</ele>
        <time>2021-09-29T11:45:18Z</time>
      </trkpt>
      <trkpt lat="42.3951240" lon="-2.1111580">
        <ele>406.6</ele>
        <time>2021-09-29T11:45:22Z</time>
      </trkpt>
      <trkpt lat="42.3950720" lon="-2.1113090">
        <ele>405.8</ele>
        <time>2021-09-29T11:45:25Z</time>
      </trkpt>
      <trkpt lat="42.3950520" lon="-2.1113620">
        <ele>405.0</ele>
        <time>2021-09-29T11:45:26Z</time>
      </trkpt>
      <trkpt lat="42.3950330" lon="-2.1114160">
        <ele>404.4</ele>
        <time>2021-09-29T11:45:27Z</time>
      </trkpt>
      <trkpt lat="42.3950180" lon="-2.1114720">
        <ele>404.2</ele>
        <time>2021-09-29T11:45:28Z</time>
      </trkpt>
      <trkpt lat="42.3950150" lon="-2.1115830">
        <ele>403.8</ele>
        <time>2021-09-29T11:45:30Z</time>
      </trkpt>
      <trkpt lat="42.3950370" lon="-2.1116940">
        <ele>403.6</ele>
        <time>2021-09-29T11:45:32Z</time>
      </trkpt>
      <trkpt lat="42.3950550" lon="-2.1117540">
        <ele>403.4</ele>
        <time>2021-09-29T11:45:33Z</time>
      </trkpt>
      <trkpt lat="42.3951550" lon="-2.1120170">
        <ele>402.8</ele>
        <time>2021-09-29T11:45:37Z</time>
      </trkpt>
      <trkpt lat="42.3951830" lon="-2.1120850">
        <ele>402.4</ele>
        <time>2021-09-29T11:45:38Z</time>
      </trkpt>
      <trkpt lat="42.3952340" lon="-2.1122260">
        <ele>401.6</ele>
        <time>2021-09-29T11:45:40Z</time>
      </trkpt>
      <trkpt lat="42.3952580" lon="-2.1122970">
        <ele>401.4</ele>
        <time>2021-09-29T11:45:41Z</time>
      </trkpt>
      <trkpt lat="42.3953260" lon="-2.1125310">
        <ele>399.6</ele>
        <time>2021-09-29T11:45:44Z</time>
      </trkpt>
      <trkpt lat="42.3953530" lon="-2.1126180">
        <ele>398.4</ele>
        <time>2021-09-29T11:45:45Z</time>
      </trkpt>
      <trkpt lat="42.3954200" lon="-2.1128040">
        <ele>397.0</ele>
        <time>2021-09-29T11:45:47Z</time>
      </trkpt>
      <trkpt lat="42.3954970" lon="-2.1130030">
        <ele>396.0</ele>
        <time>2021-09-29T11:45:49Z</time>
      </trkpt>
      <trkpt lat="42.3955640" lon="-2.1132120">
        <ele>395.6</ele>
        <time>2021-09-29T11:45:51Z</time>
      </trkpt>
      <trkpt lat="42.3956110" lon="-2.1134270">
        <ele>393.8</ele>
        <time>2021-09-29T11:45:53Z</time>
      </trkpt>
      <trkpt lat="42.3956320" lon="-2.1135320">
        <ele>392.6</ele>
        <time>2021-09-29T11:45:54Z</time>
      </trkpt>
      <trkpt lat="42.3956610" lon="-2.1136330">
        <ele>390.8</ele>
        <time>2021-09-29T11:45:55Z</time>
      </trkpt>
      <trkpt lat="42.3957010" lon="-2.1137250">
        <ele>389.8</ele>
        <time>2021-09-29T11:45:56Z</time>
      </trkpt>
      <trkpt lat="42.3958110" lon="-2.1138710">
        <ele>387.8</ele>
        <time>2021-09-29T11:45:58Z</time>
      </trkpt>
      <trkpt lat="42.3958760" lon="-2.1139280">
        <ele>386.8</ele>
        <time>2021-09-29T11:45:59Z</time>
      </trkpt>
      <trkpt lat="42.3959420" lon="-2.1139810">
        <ele>386.2</ele>
        <time>2021-09-29T11:46:00Z</time>
      </trkpt>
      <trkpt lat="42.3960050" lon="-2.1140400">
        <ele>385.6</ele>
        <time>2021-09-29T11:46:01Z</time>
      </trkpt>
      <trkpt lat="42.3961090" lon="-2.1141920">
        <ele>385.2</ele>
        <time>2021-09-29T11:46:03Z</time>
      </trkpt>
      <trkpt lat="42.3962850" lon="-2.1145250">
        <ele>384.6</ele>
        <time>2021-09-29T11:46:07Z</time>
      </trkpt>
      <trkpt lat="42.3965040" lon="-2.1148190">
        <ele>383.0</ele>
        <time>2021-09-29T11:46:11Z</time>
      </trkpt>
      <trkpt lat="42.3966050" lon="-2.1149630">
        <ele>381.8</ele>
        <time>2021-09-29T11:46:13Z</time>
      </trkpt>
      <trkpt lat="42.3967540" lon="-2.1153100">
        <ele>380.2</ele>
        <time>2021-09-29T11:46:17Z</time>
      </trkpt>
      <trkpt lat="42.3967960" lon="-2.1153980">
        <ele>379.6</ele>
        <time>2021-09-29T11:46:18Z</time>
      </trkpt>
      <trkpt lat="42.3968460" lon="-2.1154840">
        <ele>379.0</ele>
        <time>2021-09-29T11:46:19Z</time>
      </trkpt>
      <trkpt lat="42.3971050" lon="-2.1158040">
        <ele>377.8</ele>
        <time>2021-09-29T11:46:23Z</time>
      </trkpt>
      <trkpt lat="42.3972900" lon="-2.1160380">
        <ele>376.4</ele>
        <time>2021-09-29T11:46:26Z</time>
      </trkpt>
      <trkpt lat="42.3973430" lon="-2.1161180">
        <ele>375.2</ele>
        <time>2021-09-29T11:46:27Z</time>
      </trkpt>
      <trkpt lat="42.3973970" lon="-2.1161930">
        <ele>373.6</ele>
        <time>2021-09-29T11:46:28Z</time>
      </trkpt>
      <trkpt lat="42.3974540" lon="-2.1162610">
        <ele>371.2</ele>
        <time>2021-09-29T11:46:29Z</time>
      </trkpt>
      <trkpt lat="42.3975140" lon="-2.1163230">
        <ele>370.0</ele>
        <time>2021-09-29T11:46:30Z</time>
      </trkpt>
      <trkpt lat="42.3976360" lon="-2.1164370">
        <ele>368.6</ele>
        <time>2021-09-29T11:46:32Z</time>
      </trkpt>
      <trkpt lat="42.3978650" lon="-2.1166560">
        <ele>367.4</ele>
        <time>2021-09-29T11:46:36Z</time>
      </trkpt>
      <trkpt lat="42.3979610" lon="-2.1167770">
        <ele>367.0</ele>
        <time>2021-09-29T11:46:38Z</time>
      </trkpt>
      <trkpt lat="42.3980470" lon="-2.1169150">
        <ele>367.0</ele>
        <time>2021-09-29T11:46:40Z</time>
      </trkpt>
      <trkpt lat="42.3982140" lon="-2.1172100">
        <ele>366.2</ele>
        <time>2021-09-29T11:46:44Z</time>
      </trkpt>
      <trkpt lat="42.3983180" lon="-2.1173560">
        <ele>365.6</ele>
        <time>2021-09-29T11:46:46Z</time>
      </trkpt>
      <trkpt lat="42.3984210" lon="-2.1175070">
        <ele>364.8</ele>
        <time>2021-09-29T11:46:48Z</time>
      </trkpt>
      <trkpt lat="42.3985060" lon="-2.1176700">
        <ele>363.8</ele>
        <time>2021-09-29T11:46:50Z</time>
      </trkpt>
      <trkpt lat="42.3985880" lon="-2.1178280">
        <ele>362.6</ele>
        <time>2021-09-29T11:46:52Z</time>
      </trkpt>
      <trkpt lat="42.3986840" lon="-2.1179590">
        <ele>361.4</ele>
        <time>2021-09-29T11:46:54Z</time>
      </trkpt>
      <trkpt lat="42.3987880" lon="-2.1180750">
        <ele>359.8</ele>
        <time>2021-09-29T11:46:56Z</time>
      </trkpt>
      <trkpt lat="42.3988980" lon="-2.1181940">
        <ele>358.6</ele>
        <time>2021-09-29T11:46:58Z</time>
      </trkpt>
      <trkpt lat="42.3990090" lon="-2.1183210">
        <ele>358.2</ele>
        <time>2021-09-29T11:47:00Z</time>
      </trkpt>
      <trkpt lat="42.3991220" lon="-2.1184550">
        <ele>357.6</ele>
        <time>2021-09-29T11:47:02Z</time>
      </trkpt>
      <trkpt lat="42.3992930" lon="-2.1186690">
        <ele>356.4</ele>
        <time>2021-09-29T11:47:05Z</time>
      </trkpt>
      <trkpt lat="42.3995310" lon="-2.1189480">
        <ele>355.2</ele>
        <time>2021-09-29T11:47:09Z</time>
      </trkpt>
      <trkpt lat="42.3996480" lon="-2.1190720">
        <ele>354.0</ele>
        <time>2021-09-29T11:47:11Z</time>
      </trkpt>
      <trkpt lat="42.3997680" lon="-2.1191730">
        <ele>352.6</ele>
        <time>2021-09-29T11:47:13Z</time>
      </trkpt>
      <trkpt lat="42.3999670" lon="-2.1192470">
        <ele>351.4</ele>
        <time>2021-09-29T11:47:16Z</time>
      </trkpt>
      <trkpt lat="42.4000360" lon="-2.1192590">
        <ele>351.4</ele>
        <time>2021-09-29T11:47:17Z</time>
      </trkpt>
      <trkpt lat="42.4001740" lon="-2.1192840">
        <ele>351.2</ele>
        <time>2021-09-29T11:47:19Z</time>
      </trkpt>
      <trkpt lat="42.4004400" lon="-2.1195250">
        <ele>350.8</ele>
        <time>2021-09-29T11:47:24Z</time>
      </trkpt>
      <trkpt lat="42.4006190" lon="-2.1197510">
        <ele>350.4</ele>
        <time>2021-09-29T11:47:28Z</time>
      </trkpt>
      <trkpt lat="42.4007590" lon="-2.1199030">
        <ele>349.6</ele>
        <time>2021-09-29T11:47:31Z</time>
      </trkpt>
      <trkpt lat="42.4008530" lon="-2.1200020">
        <ele>349.4</ele>
        <time>2021-09-29T11:47:33Z</time>
      </trkpt>
      <trkpt lat="42.4011290" lon="-2.1202510">
        <ele>348.8</ele>
        <time>2021-09-29T11:47:39Z</time>
      </trkpt>
      <trkpt lat="42.4015400" lon="-2.1203530">
        <ele>348.6</ele>
        <time>2021-09-29T11:47:47Z</time>
      </trkpt>
      <trkpt lat="42.4018100" lon="-2.1204120">
        <ele>348.4</ele>
        <time>2021-09-29T11:47:52Z</time>
      </trkpt>
      <trkpt lat="42.4019740" lon="-2.1204320">
        <ele>348.2</ele>
        <time>2021-09-29T11:47:55Z</time>
      </trkpt>
      <trkpt lat="42.4020830" lon="-2.1204460">
        <ele>347.4</ele>
        <time>2021-09-29T11:47:57Z</time>
      </trkpt>
      <trkpt lat="42.4021940" lon="-2.1204580">
        <ele>347.0</ele>
        <time>2021-09-29T11:47:59Z</time>
      </trkpt>
      <trkpt lat="42.4024190" lon="-2.1204760">
        <ele>346.0</ele>
        <time>2021-09-29T11:48:03Z</time>
      </trkpt>
      <trkpt lat="42.4026820" lon="-2.1204930">
        <ele>345.4</ele>
        <time>2021-09-29T11:48:08Z</time>
      </trkpt>
      <trkpt lat="42.4028370" lon="-2.1205060">
        <ele>345.4</ele>
        <time>2021-09-29T11:48:11Z</time>
      </trkpt>
      <trkpt lat="42.4028870" lon="-2.1205130">
        <ele>345.6</ele>
        <time>2021-09-29T11:48:12Z</time>
      </trkpt>
      <trkpt lat="42.4032630" lon="-2.1205570">
        <ele>345.4</ele>
        <time>2021-09-29T11:48:21Z</time>
      </trkpt>
      <trkpt lat="42.4033500" lon="-2.1205610">
        <ele>345.4</ele>
        <time>2021-09-29T11:48:23Z</time>
      </trkpt>
      <trkpt lat="42.4036410" lon="-2.1205900">
        <ele>344.8</ele>
        <time>2021-09-29T11:48:30Z</time>
      </trkpt>
      <trkpt lat="42.4039220" lon="-2.1206000">
        <ele>344.2</ele>
        <time>2021-09-29T11:48:37Z</time>
      </trkpt>
      <trkpt lat="42.4040080" lon="-2.1206200">
        <ele>343.8</ele>
        <time>2021-09-29T11:48:39Z</time>
      </trkpt>
      <trkpt lat="42.4041400" lon="-2.1206510">
        <ele>343.4</ele>
        <time>2021-09-29T11:48:42Z</time>
      </trkpt>
      <trkpt lat="42.4042540" lon="-2.1207060">
        <ele>342.8</ele>
        <time>2021-09-29T11:48:45Z</time>
      </trkpt>
      <trkpt lat="42.4043180" lon="-2.1207680">
        <ele>342.6</ele>
        <time>2021-09-29T11:48:47Z</time>
      </trkpt>
      <trkpt lat="42.4043990" lon="-2.1208920">
        <ele>342.6</ele>
        <time>2021-09-29T11:48:50Z</time>
      </trkpt>
      <trkpt lat="42.4045390" lon="-2.1211190">
        <ele>342.6</ele>
        <time>2021-09-29T11:48:55Z</time>
      </trkpt>
      <trkpt lat="42.4046000" lon="-2.1212080">
        <ele>342.6</ele>
        <time>2021-09-29T11:48:57Z</time>
      </trkpt>
      <trkpt lat="42.4047870" lon="-2.1213270">
        <ele>342.2</ele>
        <time>2021-09-29T11:49:01Z</time>
      </trkpt>
      <trkpt lat="42.4049620" lon="-2.1213920">
        <ele>342.0</ele>
        <time>2021-09-29T11:49:04Z</time>
      </trkpt>
      <trkpt lat="42.4051730" lon="-2.1214530">
        <ele>341.6</ele>
        <time>2021-09-29T11:49:08Z</time>
      </trkpt>
      <trkpt lat="42.4052740" lon="-2.1214850">
        <ele>340.8</ele>
        <time>2021-09-29T11:49:10Z</time>
      </trkpt>
      <trkpt lat="42.4053700" lon="-2.1215170">
        <ele>340.2</ele>
        <time>2021-09-29T11:49:12Z</time>
      </trkpt>
      <trkpt lat="42.4054680" lon="-2.1215400">
        <ele>339.8</ele>
        <time>2021-09-29T11:49:14Z</time>
      </trkpt>
      <trkpt lat="42.4057070" lon="-2.1215730">
        <ele>338.4</ele>
        <time>2021-09-29T11:49:19Z</time>
      </trkpt>
      <trkpt lat="42.4057550" lon="-2.1215710">
        <ele>338.2</ele>
        <time>2021-09-29T11:49:20Z</time>
      </trkpt>
      <trkpt lat="42.4059850" lon="-2.1215030">
        <ele>337.6</ele>
        <time>2021-09-29T11:49:24Z</time>
      </trkpt>
      <trkpt lat="42.4060510" lon="-2.1214790">
        <ele>337.4</ele>
        <time>2021-09-29T11:49:25Z</time>
      </trkpt>
      <trkpt lat="42.4062510" lon="-2.1213870">
        <ele>336.8</ele>
        <time>2021-09-29T11:49:28Z</time>
      </trkpt>
      <trkpt lat="42.4063120" lon="-2.1213560">
        <ele>336.6</ele>
        <time>2021-09-29T11:49:29Z</time>
      </trkpt>
      <trkpt lat="42.4064290" lon="-2.1212940">
        <ele>336.6</ele>
        <time>2021-09-29T11:49:31Z</time>
      </trkpt>
      <trkpt lat="42.4064910" lon="-2.1212640">
        <ele>336.2</ele>
        <time>2021-09-29T11:49:32Z</time>
      </trkpt>
      <trkpt lat="42.4066220" lon="-2.1211950">
        <ele>335.0</ele>
        <time>2021-09-29T11:49:34Z</time>
      </trkpt>
      <trkpt lat="42.4068200" lon="-2.1210920">
        <ele>333.2</ele>
        <time>2021-09-29T11:49:37Z</time>
      </trkpt>
      <trkpt lat="42.4068840" lon="-2.1210660">
        <ele>332.0</ele>
        <time>2021-09-29T11:49:38Z</time>
      </trkpt>
      <trkpt lat="42.4069440" lon="-2.1210430">
        <ele>331.0</ele>
        <time>2021-09-29T11:49:39Z</time>
      </trkpt>
      <trkpt lat="42.4070020" lon="-2.1210230">
        <ele>329.6</ele>
        <time>2021-09-29T11:49:40Z</time>
      </trkpt>
      <trkpt lat="42.4070590" lon="-2.1210020">
        <ele>328.4</ele>
        <time>2021-09-29T11:49:41Z</time>
      </trkpt>
      <trkpt lat="42.4071580" lon="-2.1209570">
        <ele>327.4</ele>
        <time>2021-09-29T11:49:43Z</time>
      </trkpt>
      <trkpt lat="42.4072470" lon="-2.1209060">
        <ele>326.0</ele>
        <time>2021-09-29T11:49:45Z</time>
      </trkpt>
      <trkpt lat="42.4073330" lon="-2.1208630">
        <ele>325.0</ele>
        <time>2021-09-29T11:49:47Z</time>
      </trkpt>
      <trkpt lat="42.4073710" lon="-2.1208500">
        <ele>324.8</ele>
        <time>2021-09-29T11:49:48Z</time>
      </trkpt>
      <trkpt lat="42.4075020" lon="-2.1209670">
        <ele>324.2</ele>
        <time>2021-09-29T11:49:52Z</time>
      </trkpt>
      <trkpt lat="42.4075350" lon="-2.1210920">
        <ele>324.2</ele>
        <time>2021-09-29T11:49:54Z</time>
      </trkpt>
      <trkpt lat="42.4075850" lon="-2.1212880">
        <ele>324.0</ele>
        <time>2021-09-29T11:49:57Z</time>
      </trkpt>
      <trkpt lat="42.4076220" lon="-2.1214220">
        <ele>322.8</ele>
        <time>2021-09-29T11:49:59Z</time>
      </trkpt>
      <trkpt lat="42.4076780" lon="-2.1216240">
        <ele>322.0</ele>
        <time>2021-09-29T11:50:02Z</time>
      </trkpt>
      <trkpt lat="42.4077150" lon="-2.1217630">
        <ele>321.8</ele>
        <time>2021-09-29T11:50:04Z</time>
      </trkpt>
      <trkpt lat="42.4077540" lon="-2.1219040">
        <ele>321.6</ele>
        <time>2021-09-29T11:50:06Z</time>
      </trkpt>
      <trkpt lat="42.4078260" lon="-2.1221940">
        <ele>321.4</ele>
        <time>2021-09-29T11:50:10Z</time>
      </trkpt>
      <trkpt lat="42.4079430" lon="-2.1226070">
        <ele>321.2</ele>
        <time>2021-09-29T11:50:16Z</time>
      </trkpt>
      <trkpt lat="42.4080450" lon="-2.1230120">
        <ele>321.2</ele>
        <time>2021-09-29T11:50:22Z</time>
      </trkpt>
      <trkpt lat="42.4080970" lon="-2.1232160">
        <ele>320.8</ele>
        <time>2021-09-29T11:50:25Z</time>
      </trkpt>
      <trkpt lat="42.4081430" lon="-2.1234200">
        <ele>320.8</ele>
        <time>2021-09-29T11:50:28Z</time>
      </trkpt>
      <trkpt lat="42.4082030" lon="-2.1236950">
        <ele>320.8</ele>
        <time>2021-09-29T11:50:32Z</time>
      </trkpt>
      <trkpt lat="42.4082630" lon="-2.1238910">
        <ele>321.0</ele>
        <time>2021-09-29T11:50:35Z</time>
      </trkpt>
      <trkpt lat="42.4083920" lon="-2.1240780">
        <ele>321.4</ele>
        <time>2021-09-29T11:50:39Z</time>
      </trkpt>
      <trkpt lat="42.4085640" lon="-2.1242390">
        <ele>322.8</ele>
        <time>2021-09-29T11:50:46Z</time>
      </trkpt>
      <trkpt lat="42.4085960" lon="-2.1242620">
        <ele>323.6</ele>
        <time>2021-09-29T11:50:50Z</time>
      </trkpt>
      <trkpt lat="42.4086300" lon="-2.1242440">
        <ele>324.4</ele>
        <time>2021-09-29T11:50:52Z</time>
      </trkpt>
      <trkpt lat="42.4087300" lon="-2.1241450">
        <ele>325.0</ele>
        <time>2021-09-29T11:50:56Z</time>
      </trkpt>
      <trkpt lat="42.4088260" lon="-2.1240520">
        <ele>325.0</ele>
        <time>2021-09-29T11:50:59Z</time>
      </trkpt>
      <trkpt lat="42.4089000" lon="-2.1240040">
        <ele>324.8</ele>
        <time>2021-09-29T11:51:01Z</time>
      </trkpt>
      <trkpt lat="42.4090420" lon="-2.1240040">
        <ele>323.4</ele>
        <time>2021-09-29T11:51:05Z</time>
      </trkpt>
      <trkpt lat="42.4090690" lon="-2.1240330">
        <ele>323.2</ele>
        <time>2021-09-29T11:51:06Z</time>
      </trkpt>
      <trkpt lat="42.4091490" lon="-2.1242020">
        <ele>322.4</ele>
        <time>2021-09-29T11:51:10Z</time>
      </trkpt>
      <trkpt lat="42.4091780" lon="-2.1242810">
        <ele>322.4</ele>
        <time>2021-09-29T11:51:14Z</time>
      </trkpt>
      <trkpt lat="42.4091400" lon="-2.1241950">
        <ele>323.2</ele>
        <time>2021-09-29T11:51:26Z</time>
      </trkpt>
      <trkpt lat="42.4090270" lon="-2.1240220">
        <ele>323.2</ele>
        <time>2021-09-29T11:51:31Z</time>
      </trkpt>
      <trkpt lat="42.4089100" lon="-2.1240330">
        <ele>323.2</ele>
        <time>2021-09-29T11:51:34Z</time>
      </trkpt>
      <trkpt lat="42.4087980" lon="-2.1241120">
        <ele>323.2</ele>
        <time>2021-09-29T11:51:37Z</time>
      </trkpt>
      <trkpt lat="42.4086370" lon="-2.1242260">
        <ele>323.2</ele>
        <time>2021-09-29T11:51:42Z</time>
      </trkpt>
      <trkpt lat="42.4085060" lon="-2.1245620">
        <ele>323.6</ele>
        <time>2021-09-29T11:51:51Z</time>
      </trkpt>
      <trkpt lat="42.4086730" lon="-2.1250060">
        <ele>322.4</ele>
        <time>2021-09-29T11:51:59Z</time>
      </trkpt>
      <trkpt lat="42.4087680" lon="-2.1252350">
        <ele>321.2</ele>
        <time>2021-09-29T11:52:03Z</time>
      </trkpt>
      <trkpt lat="42.4088740" lon="-2.1255500">
        <ele>320.2</ele>
        <time>2021-09-29T11:52:08Z</time>
      </trkpt>
      <trkpt lat="42.4089440" lon="-2.1259080">
        <ele>320.0</ele>
        <time>2021-09-29T11:52:13Z</time>
      </trkpt>
      <trkpt lat="42.4090810" lon="-2.1266390">
        <ele>320.0</ele>
        <time>2021-09-29T11:52:23Z</time>
      </trkpt>
      <trkpt lat="42.4091310" lon="-2.1270870">
        <ele>320.0</ele>
        <time>2021-09-29T11:52:29Z</time>
      </trkpt>
      <trkpt lat="42.4091650" lon="-2.1275120">
        <ele>320.2</ele>
        <time>2021-09-29T11:52:35Z</time>
      </trkpt>
      <trkpt lat="42.4093650" lon="-2.1282150">
        <ele>320.8</ele>
        <time>2021-09-29T11:52:45Z</time>
      </trkpt>
      <trkpt lat="42.4095430" lon="-2.1287060">
        <ele>320.6</ele>
        <time>2021-09-29T11:52:53Z</time>
      </trkpt>
      <trkpt lat="42.4095960" lon="-2.1288870">
        <ele>320.4</ele>
        <time>2021-09-29T11:52:56Z</time>
      </trkpt>
      <trkpt lat="42.4098100" lon="-2.1295850">
        <ele>319.6</ele>
        <time>2021-09-29T11:53:07Z</time>
      </trkpt>
      <trkpt lat="42.4098310" lon="-2.1296520">
        <ele>319.4</ele>
        <time>2021-09-29T11:53:08Z</time>
      </trkpt>
      <trkpt lat="42.4099170" lon="-2.1298790">
        <ele>319.4</ele>
        <time>2021-09-29T11:53:13Z</time>
      </trkpt>
      <trkpt lat="42.4099440" lon="-2.1298770">
        <ele>319.8</ele>
        <time>2021-09-29T11:53:17Z</time>
      </trkpt>
      <trkpt lat="42.4099660" lon="-2.1300000">
        <ele>322.0</ele>
        <time>2021-09-29T11:56:05Z</time>
      </trkpt>
      <trkpt lat="42.4099780" lon="-2.1300310">
        <ele>322.0</ele>
        <time>2021-09-29T11:56:06Z</time>
      </trkpt>
      <trkpt lat="42.4100600" lon="-2.1302780">
        <ele>321.4</ele>
        <time>2021-09-29T11:56:12Z</time>
      </trkpt>
      <trkpt lat="42.4101340" lon="-2.1304820">
        <ele>321.0</ele>
        <time>2021-09-29T11:56:16Z</time>
      </trkpt>
      <trkpt lat="42.4102020" lon="-2.1306400">
        <ele>320.8</ele>
        <time>2021-09-29T11:56:19Z</time>
      </trkpt>
      <trkpt lat="42.4103090" lon="-2.1309200">
        <ele>320.0</ele>
        <time>2021-09-29T11:56:24Z</time>
      </trkpt>
      <trkpt lat="42.4103290" lon="-2.1309780">
        <ele>320.0</ele>
        <time>2021-09-29T11:56:25Z</time>
      </trkpt>
      <trkpt lat="42.4104670" lon="-2.1313840">
        <ele>319.6</ele>
        <time>2021-09-29T11:56:32Z</time>
      </trkpt>
      <trkpt lat="42.4106070" lon="-2.1317440">
        <ele>319.6</ele>
        <time>2021-09-29T11:56:38Z</time>
      </trkpt>
      <trkpt lat="42.4108920" lon="-2.1324390">
        <ele>319.8</ele>
        <time>2021-09-29T11:56:50Z</time>
      </trkpt>
      <trkpt lat="42.4109770" lon="-2.1326850">
        <ele>320.0</ele>
        <time>2021-09-29T11:56:54Z</time>
      </trkpt>
      <trkpt lat="42.4110310" lon="-2.1329450">
        <ele>320.0</ele>
        <time>2021-09-29T11:56:58Z</time>
      </trkpt>
      <trkpt lat="42.4112230" lon="-2.1336300">
        <ele>320.2</ele>
        <time>2021-09-29T11:57:09Z</time>
      </trkpt>
      <trkpt lat="42.4113570" lon="-2.1341830">
        <ele>320.8</ele>
        <time>2021-09-29T11:57:19Z</time>
      </trkpt>
      <trkpt lat="42.4114500" lon="-2.1348990">
        <ele>321.0</ele>
        <time>2021-09-29T11:57:31Z</time>
      </trkpt>
      <trkpt lat="42.4114570" lon="-2.1350810">
        <ele>321.0</ele>
        <time>2021-09-29T11:57:34Z</time>
      </trkpt>
      <trkpt lat="42.4114530" lon="-2.1352560">
        <ele>321.2</ele>
        <time>2021-09-29T11:57:37Z</time>
      </trkpt>
      <trkpt lat="42.4114610" lon="-2.1353140">
        <ele>321.2</ele>
        <time>2021-09-29T11:57:38Z</time>
      </trkpt>
      <trkpt lat="42.4115330" lon="-2.1359980">
        <ele>321.0</ele>
        <time>2021-09-29T11:57:49Z</time>
      </trkpt>
      <trkpt lat="42.4115040" lon="-2.1365540">
        <ele>321.6</ele>
        <time>2021-09-29T11:57:58Z</time>
      </trkpt>
      <trkpt lat="42.4114260" lon="-2.1369960">
        <ele>322.8</ele>
        <time>2021-09-29T11:58:08Z</time>
      </trkpt>
      <trkpt lat="42.4114660" lon="-2.1377470">
        <ele>323.6</ele>
        <time>2021-09-29T11:58:22Z</time>
      </trkpt>
      <trkpt lat="42.4115090" lon="-2.1385060">
        <ele>323.2</ele>
        <time>2021-09-29T11:58:35Z</time>
      </trkpt>
      <trkpt lat="42.4115540" lon="-2.1392700">
        <ele>323.4</ele>
        <time>2021-09-29T11:58:48Z</time>
      </trkpt>
      <trkpt lat="42.4116080" lon="-2.1400040">
        <ele>323.4</ele>
        <time>2021-09-29T11:59:00Z</time>
      </trkpt>
      <trkpt lat="42.4116520" lon="-2.1406060">
        <ele>323.6</ele>
        <time>2021-09-29T11:59:10Z</time>
      </trkpt>
      <trkpt lat="42.4116880" lon="-2.1410570">
        <ele>323.2</ele>
        <time>2021-09-29T11:59:17Z</time>
      </trkpt>
      <trkpt lat="42.4117010" lon="-2.1413820">
        <ele>323.2</ele>
        <time>2021-09-29T11:59:22Z</time>
      </trkpt>
      <trkpt lat="42.4117710" lon="-2.1421570">
        <ele>323.8</ele>
        <time>2021-09-29T11:59:33Z</time>
      </trkpt>
      <trkpt lat="42.4118330" lon="-2.1426560">
        <ele>323.6</ele>
        <time>2021-09-29T11:59:40Z</time>
      </trkpt>
      <trkpt lat="42.4118560" lon="-2.1427900">
        <ele>323.4</ele>
        <time>2021-09-29T11:59:42Z</time>
      </trkpt>
      <trkpt lat="42.4119730" lon="-2.1435030">
        <ele>322.8</ele>
        <time>2021-09-29T11:59:53Z</time>
      </trkpt>
      <trkpt lat="42.4120030" lon="-2.1437700">
        <ele>322.0</ele>
        <time>2021-09-29T11:59:57Z</time>
      </trkpt>
      <trkpt lat="42.4120670" lon="-2.1442410">
        <ele>322.4</ele>
        <time>2021-09-29T12:00:04Z</time>
      </trkpt>
      <trkpt lat="42.4120980" lon="-2.1443770">
        <ele>322.0</ele>
        <time>2021-09-29T12:00:06Z</time>
      </trkpt>
      <trkpt lat="42.4120980" lon="-2.1445970">
        <ele>321.8</ele>
        <time>2021-09-29T12:00:09Z</time>
      </trkpt>
      <trkpt lat="42.4120590" lon="-2.1448920">
        <ele>320.8</ele>
        <time>2021-09-29T12:00:13Z</time>
      </trkpt>
      <trkpt lat="42.4120020" lon="-2.1454760">
        <ele>320.0</ele>
        <time>2021-09-29T12:00:21Z</time>
      </trkpt>
      <trkpt lat="42.4118950" lon="-2.1462500">
        <ele>320.0</ele>
        <time>2021-09-29T12:00:32Z</time>
      </trkpt>
      <trkpt lat="42.4118860" lon="-2.1463780">
        <ele>320.0</ele>
        <time>2021-09-29T12:00:34Z</time>
      </trkpt>
      <trkpt lat="42.4120400" lon="-2.1467640">
        <ele>320.6</ele>
        <time>2021-09-29T12:00:41Z</time>
      </trkpt>
      <trkpt lat="42.4121060" lon="-2.1468640">
        <ele>320.6</ele>
        <time>2021-09-29T12:00:43Z</time>
      </trkpt>
      <trkpt lat="42.4121830" lon="-2.1470460">
        <ele>320.6</ele>
        <time>2021-09-29T12:00:46Z</time>
      </trkpt>
      <trkpt lat="42.4122340" lon="-2.1472480">
        <ele>320.8</ele>
        <time>2021-09-29T12:00:49Z</time>
      </trkpt>
      <trkpt lat="42.4123050" lon="-2.1475840">
        <ele>321.0</ele>
        <time>2021-09-29T12:00:54Z</time>
      </trkpt>
      <trkpt lat="42.4123850" lon="-2.1479580">
        <ele>321.0</ele>
        <time>2021-09-29T12:01:00Z</time>
      </trkpt>
      <trkpt lat="42.4124330" lon="-2.1481880">
        <ele>321.0</ele>
        <time>2021-09-29T12:01:04Z</time>
      </trkpt>
      <trkpt lat="42.4124450" lon="-2.1482540">
        <ele>321.0</ele>
        <time>2021-09-29T12:01:05Z</time>
      </trkpt>
      <trkpt lat="42.4125110" lon="-2.1489150">
        <ele>321.0</ele>
        <time>2021-09-29T12:01:15Z</time>
      </trkpt>
      <trkpt lat="42.4125530" lon="-2.1491630">
        <ele>321.0</ele>
        <time>2021-09-29T12:01:19Z</time>
      </trkpt>
      <trkpt lat="42.4124880" lon="-2.1499230">
        <ele>320.6</ele>
        <time>2021-09-29T12:01:31Z</time>
      </trkpt>
      <trkpt lat="42.4124660" lon="-2.1501040">
        <ele>320.6</ele>
        <time>2021-09-29T12:01:36Z</time>
      </trkpt>
      <trkpt lat="42.4124680" lon="-2.1501660">
        <ele>323.0</ele>
        <time>2021-09-29T12:08:21Z</time>
      </trkpt>
      <trkpt lat="42.4124650" lon="-2.1501900">
        <ele>323.0</ele>
        <time>2021-09-29T12:08:22Z</time>
      </trkpt>
      <trkpt lat="42.4124260" lon="-2.1503770">
        <ele>322.8</ele>
        <time>2021-09-29T12:08:27Z</time>
      </trkpt>
      <trkpt lat="42.4124090" lon="-2.1504710">
        <ele>322.8</ele>
        <time>2021-09-29T12:08:29Z</time>
      </trkpt>
      <trkpt lat="42.4123510" lon="-2.1507050">
        <ele>321.4</ele>
        <time>2021-09-29T12:08:34Z</time>
      </trkpt>
      <trkpt lat="42.4122520" lon="-2.1510740">
        <ele>321.0</ele>
        <time>2021-09-29T12:08:41Z</time>
      </trkpt>
      <trkpt lat="42.4121450" lon="-2.1514040">
        <ele>321.2</ele>
        <time>2021-09-29T12:08:47Z</time>
      </trkpt>
      <trkpt lat="42.4120580" lon="-2.1517560">
        <ele>321.8</ele>
        <time>2021-09-29T12:08:53Z</time>
      </trkpt>
      <trkpt lat="42.4119320" lon="-2.1520860">
        <ele>322.2</ele>
        <time>2021-09-29T12:08:59Z</time>
      </trkpt>
      <trkpt lat="42.4116630" lon="-2.1527670">
        <ele>322.4</ele>
        <time>2021-09-29T12:09:11Z</time>
      </trkpt>
      <trkpt lat="42.4113570" lon="-2.1534370">
        <ele>322.2</ele>
        <time>2021-09-29T12:09:23Z</time>
      </trkpt>
      <trkpt lat="42.4109870" lon="-2.1539850">
        <ele>323.0</ele>
        <time>2021-09-29T12:09:35Z</time>
      </trkpt>
      <trkpt lat="42.4108850" lon="-2.1541640">
        <ele>323.2</ele>
        <time>2021-09-29T12:09:39Z</time>
      </trkpt>
      <trkpt lat="42.4108610" lon="-2.1542100">
        <ele>323.2</ele>
        <time>2021-09-29T12:09:40Z</time>
      </trkpt>
      <trkpt lat="42.4107890" lon="-2.1543280">
        <ele>323.8</ele>
        <time>2021-09-29T12:09:43Z</time>
      </trkpt>
      <trkpt lat="42.4106360" lon="-2.1545720">
        <ele>324.0</ele>
        <time>2021-09-29T12:09:50Z</time>
      </trkpt>
      <trkpt lat="42.4102060" lon="-2.1549850">
        <ele>324.2</ele>
        <time>2021-09-29T12:10:09Z</time>
      </trkpt>
      <trkpt lat="42.4101790" lon="-2.1549900">
        <ele>324.2</ele>
        <time>2021-09-29T12:10:10Z</time>
      </trkpt>
      <trkpt lat="42.4100350" lon="-2.1549930">
        <ele>324.8</ele>
        <time>2021-09-29T12:10:15Z</time>
      </trkpt>
      <trkpt lat="42.4099730" lon="-2.1549930">
        <ele>325.4</ele>
        <time>2021-09-29T12:10:17Z</time>
      </trkpt>
      <trkpt lat="42.4096270" lon="-2.1554850">
        <ele>325.8</ele>
        <time>2021-09-29T12:10:33Z</time>
      </trkpt>
      <trkpt lat="42.4095000" lon="-2.1560260">
        <ele>325.2</ele>
        <time>2021-09-29T12:10:43Z</time>
      </trkpt>
      <trkpt lat="42.4093770" lon="-2.1565440">
        <ele>324.2</ele>
        <time>2021-09-29T12:10:51Z</time>
      </trkpt>
      <trkpt lat="42.4092100" lon="-2.1572470">
        <ele>323.8</ele>
        <time>2021-09-29T12:11:05Z</time>
      </trkpt>
      <trkpt lat="42.4090800" lon="-2.1577380">
        <ele>324.4</ele>
        <time>2021-09-29T12:11:15Z</time>
      </trkpt>
      <trkpt lat="42.4090030" lon="-2.1580320">
        <ele>325.4</ele>
        <time>2021-09-29T12:11:21Z</time>
      </trkpt>
      <trkpt lat="42.4091240" lon="-2.1586240">
        <ele>326.0</ele>
        <time>2021-09-29T12:11:36Z</time>
      </trkpt>
      <trkpt lat="42.4092250" lon="-2.1587330">
        <ele>326.2</ele>
        <time>2021-09-29T12:11:40Z</time>
      </trkpt>
      <trkpt lat="42.4092350" lon="-2.1588030">
        <ele>326.2</ele>
        <time>2021-09-29T12:11:43Z</time>
      </trkpt>
      <trkpt lat="42.4090390" lon="-2.1590410">
        <ele>325.6</ele>
        <time>2021-09-29T12:11:52Z</time>
      </trkpt>
      <trkpt lat="42.4087330" lon="-2.1592240">
        <ele>324.8</ele>
        <time>2021-09-29T12:12:04Z</time>
      </trkpt>
      <trkpt lat="42.4087420" lon="-2.1592470">
        <ele>325.0</ele>
        <time>2021-09-29T12:12:06Z</time>
      </trkpt>
      <trkpt lat="42.4087530" lon="-2.1592430">
        <ele>325.0</ele>
        <time>2021-09-29T12:12:07Z</time>
      </trkpt>
      <trkpt lat="42.4087880" lon="-2.1591170">
        <ele>326.6</ele>
        <time>2021-09-29T12:12:12Z</time>
      </trkpt>
      <trkpt lat="42.4087980" lon="-2.1590810">
        <ele>326.8</ele>
        <time>2021-09-29T12:12:15Z</time>
      </trkpt>
      <trkpt lat="42.4087700" lon="-2.1591460">
        <ele>326.4</ele>
        <time>2021-09-29T12:12:41Z</time>
      </trkpt>
      <trkpt lat="42.4087320" lon="-2.1592950">
        <ele>326.4</ele>
        <time>2021-09-29T12:12:45Z</time>
      </trkpt>
      <trkpt lat="42.4087260" lon="-2.1593480">
        <ele>326.4</ele>
        <time>2021-09-29T12:12:46Z</time>
      </trkpt>
      <trkpt lat="42.4087170" lon="-2.1594610">
        <ele>326.0</ele>
        <time>2021-09-29T12:12:48Z</time>
      </trkpt>
      <trkpt lat="42.4087120" lon="-2.1595780">
        <ele>325.4</ele>
        <time>2021-09-29T12:12:50Z</time>
      </trkpt>
      <trkpt lat="42.4087020" lon="-2.1597590">
        <ele>325.2</ele>
        <time>2021-09-29T12:12:53Z</time>
      </trkpt>
      <trkpt lat="42.4086420" lon="-2.1599680">
        <ele>325.0</ele>
        <time>2021-09-29T12:12:57Z</time>
      </trkpt>
      <trkpt lat="42.4085430" lon="-2.1601640">
        <ele>324.8</ele>
        <time>2021-09-29T12:13:01Z</time>
      </trkpt>
      <trkpt lat="42.4084530" lon="-2.1607590">
        <ele>325.0</ele>
        <time>2021-09-29T12:13:11Z</time>
      </trkpt>
      <trkpt lat="42.4084110" lon="-2.1610110">
        <ele>324.8</ele>
        <time>2021-09-29T12:13:15Z</time>
      </trkpt>
      <trkpt lat="42.4082660" lon="-2.1614250">
        <ele>325.2</ele>
        <time>2021-09-29T12:13:23Z</time>
      </trkpt>
      <trkpt lat="42.4082430" lon="-2.1615440">
        <ele>325.2</ele>
        <time>2021-09-29T12:13:25Z</time>
      </trkpt>
      <trkpt lat="42.4082220" lon="-2.1617360">
        <ele>325.4</ele>
        <time>2021-09-29T12:13:28Z</time>
      </trkpt>
      <trkpt lat="42.4081440" lon="-2.1621270">
        <ele>325.2</ele>
        <time>2021-09-29T12:13:34Z</time>
      </trkpt>
      <trkpt lat="42.4080970" lon="-2.1623740">
        <ele>325.2</ele>
        <time>2021-09-29T12:13:38Z</time>
      </trkpt>
      <trkpt lat="42.4080310" lon="-2.1628790">
        <ele>325.0</ele>
        <time>2021-09-29T12:13:46Z</time>
      </trkpt>
      <trkpt lat="42.4079890" lon="-2.1631940">
        <ele>325.0</ele>
        <time>2021-09-29T12:13:51Z</time>
      </trkpt>
      <trkpt lat="42.4079230" lon="-2.1639720">
        <ele>325.2</ele>
        <time>2021-09-29T12:14:03Z</time>
      </trkpt>
      <trkpt lat="42.4078470" lon="-2.1645850">
        <ele>325.0</ele>
        <time>2021-09-29T12:14:13Z</time>
      </trkpt>
      <trkpt lat="42.4078380" lon="-2.1648390">
        <ele>325.0</ele>
        <time>2021-09-29T12:14:17Z</time>
      </trkpt>
      <trkpt lat="42.4078230" lon="-2.1649650">
        <ele>324.8</ele>
        <time>2021-09-29T12:14:19Z</time>
      </trkpt>
      <trkpt lat="42.4078200" lon="-2.1650250">
        <ele>324.8</ele>
        <time>2021-09-29T12:14:20Z</time>
      </trkpt>
      <trkpt lat="42.4077500" lon="-2.1656280">
        <ele>324.6</ele>
        <time>2021-09-29T12:14:29Z</time>
      </trkpt>
      <trkpt lat="42.4076760" lon="-2.1663630">
        <ele>324.6</ele>
        <time>2021-09-29T12:14:40Z</time>
      </trkpt>
      <trkpt lat="42.4076500" lon="-2.1666050">
        <ele>324.8</ele>
        <time>2021-09-29T12:14:44Z</time>
      </trkpt>
      <trkpt lat="42.4076390" lon="-2.1671850">
        <ele>325.0</ele>
        <time>2021-09-29T12:14:52Z</time>
      </trkpt>
      <trkpt lat="42.4076640" lon="-2.1677560">
        <ele>323.8</ele>
        <time>2021-09-29T12:14:59Z</time>
      </trkpt>
      <trkpt lat="42.4076800" lon="-2.1683330">
        <ele>323.4</ele>
        <time>2021-09-29T12:15:07Z</time>
      </trkpt>
      <trkpt lat="42.4076690" lon="-2.1687500">
        <ele>323.6</ele>
        <time>2021-09-29T12:15:13Z</time>
      </trkpt>
      <trkpt lat="42.4076700" lon="-2.1690460">
        <ele>324.2</ele>
        <time>2021-09-29T12:15:17Z</time>
      </trkpt>
      <trkpt lat="42.4076720" lon="-2.1697780">
        <ele>324.8</ele>
        <time>2021-09-29T12:15:27Z</time>
      </trkpt>
      <trkpt lat="42.4076350" lon="-2.1705410">
        <ele>324.6</ele>
        <time>2021-09-29T12:15:38Z</time>
      </trkpt>
      <trkpt lat="42.4076160" lon="-2.1707950">
        <ele>324.6</ele>
        <time>2021-09-29T12:15:42Z</time>
      </trkpt>
      <trkpt lat="42.4076180" lon="-2.1715300">
        <ele>323.6</ele>
        <time>2021-09-29T12:15:52Z</time>
      </trkpt>
      <trkpt lat="42.4076130" lon="-2.1717270">
        <ele>323.6</ele>
        <time>2021-09-29T12:15:55Z</time>
      </trkpt>
      <trkpt lat="42.4076560" lon="-2.1719670">
        <ele>323.6</ele>
        <time>2021-09-29T12:15:59Z</time>
      </trkpt>
      <trkpt lat="42.4076470" lon="-2.1722240">
        <ele>325.2</ele>
        <time>2021-09-29T12:16:04Z</time>
      </trkpt>
      <trkpt lat="42.4076440" lon="-2.1724900">
        <ele>326.2</ele>
        <time>2021-09-29T12:16:10Z</time>
      </trkpt>
      <trkpt lat="42.4075810" lon="-2.1729860">
        <ele>327.2</ele>
        <time>2021-09-29T12:16:19Z</time>
      </trkpt>
      <trkpt lat="42.4075640" lon="-2.1730630">
        <ele>327.2</ele>
        <time>2021-09-29T12:16:21Z</time>
      </trkpt>
      <trkpt lat="42.4075580" lon="-2.1730850">
        <ele>327.4</ele>
        <time>2021-09-29T12:16:22Z</time>
      </trkpt>
      <trkpt lat="42.4075540" lon="-2.1730930">
        <ele>327.4</ele>
        <time>2021-09-29T12:16:23Z</time>
      </trkpt>
      <trkpt lat="42.4075420" lon="-2.1731310">
        <ele>328.4</ele>
        <time>2021-09-29T12:17:03Z</time>
      </trkpt>
      <trkpt lat="42.4075430" lon="-2.1731540">
        <ele>328.4</ele>
        <time>2021-09-29T12:17:04Z</time>
      </trkpt>
      <trkpt lat="42.4075340" lon="-2.1732660">
        <ele>328.2</ele>
        <time>2021-09-29T12:17:07Z</time>
      </trkpt>
      <trkpt lat="42.4075220" lon="-2.1733520">
        <ele>328.2</ele>
        <time>2021-09-29T12:17:09Z</time>
      </trkpt>
      <trkpt lat="42.4074950" lon="-2.1737100">
        <ele>327.4</ele>
        <time>2021-09-29T12:17:16Z</time>
      </trkpt>
      <trkpt lat="42.4074540" lon="-2.1744370">
        <ele>326.8</ele>
        <time>2021-09-29T12:17:29Z</time>
      </trkpt>
      <trkpt lat="42.4074540" lon="-2.1744980">
        <ele>326.8</ele>
        <time>2021-09-29T12:17:30Z</time>
      </trkpt>
      <trkpt lat="42.4074550" lon="-2.1746240">
        <ele>326.4</ele>
        <time>2021-09-29T12:17:32Z</time>
      </trkpt>
      <trkpt lat="42.4074550" lon="-2.1748120">
        <ele>326.2</ele>
        <time>2021-09-29T12:17:35Z</time>
      </trkpt>
      <trkpt lat="42.4074510" lon="-2.1749850">
        <ele>326.0</ele>
        <time>2021-09-29T12:17:38Z</time>
      </trkpt>
      <trkpt lat="42.4074700" lon="-2.1752270">
        <ele>326.4</ele>
        <time>2021-09-29T12:17:42Z</time>
      </trkpt>
      <trkpt lat="42.4074720" lon="-2.1752880">
        <ele>326.2</ele>
        <time>2021-09-29T12:17:43Z</time>
      </trkpt>
      <trkpt lat="42.4075440" lon="-2.1760540">
        <ele>326.0</ele>
        <time>2021-09-29T12:17:55Z</time>
      </trkpt>
      <trkpt lat="42.4077210" lon="-2.1766570">
        <ele>326.0</ele>
        <time>2021-09-29T12:18:07Z</time>
      </trkpt>
      <trkpt lat="42.4077900" lon="-2.1768130">
        <ele>326.2</ele>
        <time>2021-09-29T12:18:10Z</time>
      </trkpt>
      <trkpt lat="42.4078120" lon="-2.1768720">
        <ele>326.4</ele>
        <time>2021-09-29T12:18:11Z</time>
      </trkpt>
      <trkpt lat="42.4080990" lon="-2.1775530">
        <ele>326.4</ele>
        <time>2021-09-29T12:18:22Z</time>
      </trkpt>
      <trkpt lat="42.4084140" lon="-2.1782210">
        <ele>326.4</ele>
        <time>2021-09-29T12:18:33Z</time>
      </trkpt>
      <trkpt lat="42.4084810" lon="-2.1783410">
        <ele>326.6</ele>
        <time>2021-09-29T12:18:36Z</time>
      </trkpt>
      <trkpt lat="42.4086450" lon="-2.1785920">
        <ele>326.8</ele>
        <time>2021-09-29T12:18:43Z</time>
      </trkpt>
      <trkpt lat="42.4086730" lon="-2.1786170">
        <ele>327.0</ele>
        <time>2021-09-29T12:18:46Z</time>
      </trkpt>
      <trkpt lat="42.4086790" lon="-2.1786460">
        <ele>329.0</ele>
        <time>2021-09-29T12:19:10Z</time>
      </trkpt>
      <trkpt lat="42.4086900" lon="-2.1786650">
        <ele>328.8</ele>
        <time>2021-09-29T12:19:11Z</time>
      </trkpt>
      <trkpt lat="42.4087490" lon="-2.1787630">
        <ele>328.8</ele>
        <time>2021-09-29T12:19:14Z</time>
      </trkpt>
      <trkpt lat="42.4088250" lon="-2.1788940">
        <ele>328.6</ele>
        <time>2021-09-29T12:19:17Z</time>
      </trkpt>
      <trkpt lat="42.4089550" lon="-2.1791450">
        <ele>327.8</ele>
        <time>2021-09-29T12:19:22Z</time>
      </trkpt>
      <trkpt lat="42.4090650" lon="-2.1793740">
        <ele>326.8</ele>
        <time>2021-09-29T12:19:26Z</time>
      </trkpt>
      <trkpt lat="42.4093710" lon="-2.1799960">
        <ele>325.8</ele>
        <time>2021-09-29T12:19:36Z</time>
      </trkpt>
      <trkpt lat="42.4095100" lon="-2.1803070">
        <ele>325.8</ele>
        <time>2021-09-29T12:19:41Z</time>
      </trkpt>
      <trkpt lat="42.4096560" lon="-2.1804860">
        <ele>326.0</ele>
        <time>2021-09-29T12:19:46Z</time>
      </trkpt>
      <trkpt lat="42.4097030" lon="-2.1805380">
        <ele>326.0</ele>
        <time>2021-09-29T12:19:50Z</time>
      </trkpt>
      <trkpt lat="42.4093800" lon="-2.1807660">
        <ele>330.8</ele>
        <time>2021-09-29T12:22:21Z</time>
      </trkpt>
      <trkpt lat="42.4093900" lon="-2.1807900">
        <ele>330.8</ele>
        <time>2021-09-29T12:22:22Z</time>
      </trkpt>
      <trkpt lat="42.4094790" lon="-2.1809560">
        <ele>330.8</ele>
        <time>2021-09-29T12:22:26Z</time>
      </trkpt>
      <trkpt lat="42.4095290" lon="-2.1810640">
        <ele>330.6</ele>
        <time>2021-09-29T12:22:28Z</time>
      </trkpt>
      <trkpt lat="42.4096020" lon="-2.1812270">
        <ele>330.2</ele>
        <time>2021-09-29T12:22:31Z</time>
      </trkpt>
      <trkpt lat="42.4096540" lon="-2.1813310">
        <ele>329.8</ele>
        <time>2021-09-29T12:22:33Z</time>
      </trkpt>
      <trkpt lat="42.4096850" lon="-2.1813810">
        <ele>329.6</ele>
        <time>2021-09-29T12:22:34Z</time>
      </trkpt>
      <trkpt lat="42.4098140" lon="-2.1815880">
        <ele>329.2</ele>
        <time>2021-09-29T12:22:38Z</time>
      </trkpt>
      <trkpt lat="42.4099130" lon="-2.1817490">
        <ele>328.8</ele>
        <time>2021-09-29T12:22:41Z</time>
      </trkpt>
      <trkpt lat="42.4099820" lon="-2.1818600">
        <ele>328.0</ele>
        <time>2021-09-29T12:22:43Z</time>
      </trkpt>
      <trkpt lat="42.4100490" lon="-2.1819710">
        <ele>327.6</ele>
        <time>2021-09-29T12:22:45Z</time>
      </trkpt>
      <trkpt lat="42.4101490" lon="-2.1821310">
        <ele>327.0</ele>
        <time>2021-09-29T12:22:48Z</time>
      </trkpt>
      <trkpt lat="42.4101820" lon="-2.1821820">
        <ele>326.6</ele>
        <time>2021-09-29T12:22:49Z</time>
      </trkpt>
      <trkpt lat="42.4102480" lon="-2.1822800">
        <ele>325.8</ele>
        <time>2021-09-29T12:22:51Z</time>
      </trkpt>
      <trkpt lat="42.4106140" lon="-2.1828540">
        <ele>325.8</ele>
        <time>2021-09-29T12:23:05Z</time>
      </trkpt>
      <trkpt lat="42.4107320" lon="-2.1830160">
        <ele>326.0</ele>
        <time>2021-09-29T12:23:09Z</time>
      </trkpt>
      <trkpt lat="42.4108300" lon="-2.1831470">
        <ele>326.0</ele>
        <time>2021-09-29T12:23:12Z</time>
      </trkpt>
      <trkpt lat="42.4109480" lon="-2.1832800">
        <ele>325.8</ele>
        <time>2021-09-29T12:23:15Z</time>
      </trkpt>
      <trkpt lat="42.4110310" lon="-2.1833770">
        <ele>325.4</ele>
        <time>2021-09-29T12:23:17Z</time>
      </trkpt>
      <trkpt lat="42.4111140" lon="-2.1834740">
        <ele>325.2</ele>
        <time>2021-09-29T12:23:19Z</time>
      </trkpt>
      <trkpt lat="42.4112240" lon="-2.1836200">
        <ele>324.6</ele>
        <time>2021-09-29T12:23:22Z</time>
      </trkpt>
      <trkpt lat="42.4113590" lon="-2.1838160">
        <ele>324.4</ele>
        <time>2021-09-29T12:23:26Z</time>
      </trkpt>
      <trkpt lat="42.4114770" lon="-2.1839440">
        <ele>324.4</ele>
        <time>2021-09-29T12:23:29Z</time>
      </trkpt>
      <trkpt lat="42.4115370" lon="-2.1840540">
        <ele>324.4</ele>
        <time>2021-09-29T12:23:31Z</time>
      </trkpt>
      <trkpt lat="42.4115670" lon="-2.1841070">
        <ele>324.4</ele>
        <time>2021-09-29T12:23:32Z</time>
      </trkpt>
      <trkpt lat="42.4119800" lon="-2.1846300">
        <ele>324.2</ele>
        <time>2021-09-29T12:23:43Z</time>
      </trkpt>
      <trkpt lat="42.4123370" lon="-2.1850610">
        <ele>324.4</ele>
        <time>2021-09-29T12:23:53Z</time>
      </trkpt>
      <trkpt lat="42.4125940" lon="-2.1853970">
        <ele>325.0</ele>
        <time>2021-09-29T12:24:01Z</time>
      </trkpt>
      <trkpt lat="42.4130010" lon="-2.1859700">
        <ele>324.4</ele>
        <time>2021-09-29T12:24:15Z</time>
      </trkpt>
      <trkpt lat="42.4131820" lon="-2.1862930">
        <ele>324.4</ele>
        <time>2021-09-29T12:24:21Z</time>
      </trkpt>
      <trkpt lat="42.4135360" lon="-2.1869060">
        <ele>325.0</ele>
        <time>2021-09-29T12:24:32Z</time>
      </trkpt>
      <trkpt lat="42.4135890" lon="-2.1870270">
        <ele>325.2</ele>
        <time>2021-09-29T12:24:34Z</time>
      </trkpt>
      <trkpt lat="42.4137140" lon="-2.1873270">
        <ele>324.6</ele>
        <time>2021-09-29T12:24:39Z</time>
      </trkpt>
      <trkpt lat="42.4139770" lon="-2.1879700">
        <ele>324.0</ele>
        <time>2021-09-29T12:24:50Z</time>
      </trkpt>
      <trkpt lat="42.4142340" lon="-2.1886290">
        <ele>324.4</ele>
        <time>2021-09-29T12:25:01Z</time>
      </trkpt>
      <trkpt lat="42.4144560" lon="-2.1893050">
        <ele>324.6</ele>
        <time>2021-09-29T12:25:12Z</time>
      </trkpt>
      <trkpt lat="42.4146330" lon="-2.1900610">
        <ele>324.2</ele>
        <time>2021-09-29T12:25:24Z</time>
      </trkpt>
      <trkpt lat="42.4147470" lon="-2.1905680">
        <ele>324.2</ele>
        <time>2021-09-29T12:25:32Z</time>
      </trkpt>
      <trkpt lat="42.4148920" lon="-2.1912570">
        <ele>325.6</ele>
        <time>2021-09-29T12:25:43Z</time>
      </trkpt>
      <trkpt lat="42.4149970" lon="-2.1918220">
        <ele>326.0</ele>
        <time>2021-09-29T12:25:52Z</time>
      </trkpt>
      <trkpt lat="42.4150510" lon="-2.1921340">
        <ele>326.0</ele>
        <time>2021-09-29T12:25:57Z</time>
      </trkpt>
      <trkpt lat="42.4150880" lon="-2.1923620">
        <ele>326.2</ele>
        <time>2021-09-29T12:26:01Z</time>
      </trkpt>
      <trkpt lat="42.4151160" lon="-2.1925490">
        <ele>326.6</ele>
        <time>2021-09-29T12:26:05Z</time>
      </trkpt>
      <trkpt lat="42.4151370" lon="-2.1926290">
        <ele>326.6</ele>
        <time>2021-09-29T12:26:07Z</time>
      </trkpt>
      <trkpt lat="42.4152320" lon="-2.1932610">
        <ele>326.4</ele>
        <time>2021-09-29T12:26:18Z</time>
      </trkpt>
      <trkpt lat="42.4153650" lon="-2.1940090">
        <ele>326.0</ele>
        <time>2021-09-29T12:26:30Z</time>
      </trkpt>
      <trkpt lat="42.4154830" lon="-2.1947040">
        <ele>326.6</ele>
        <time>2021-09-29T12:26:41Z</time>
      </trkpt>
      <trkpt lat="42.4155110" lon="-2.1948860">
        <ele>326.6</ele>
        <time>2021-09-29T12:26:44Z</time>
      </trkpt>
      <trkpt lat="42.4156230" lon="-2.1954000">
        <ele>326.6</ele>
        <time>2021-09-29T12:26:53Z</time>
      </trkpt>
      <trkpt lat="42.4156520" lon="-2.1956350">
        <ele>326.8</ele>
        <time>2021-09-29T12:26:57Z</time>
      </trkpt>
      <trkpt lat="42.4156780" lon="-2.1957520">
        <ele>326.8</ele>
        <time>2021-09-29T12:26:59Z</time>
      </trkpt>
      <trkpt lat="42.4157420" lon="-2.1965290">
        <ele>327.2</ele>
        <time>2021-09-29T12:27:12Z</time>
      </trkpt>
      <trkpt lat="42.4157830" lon="-2.1969360">
        <ele>327.6</ele>
        <time>2021-09-29T12:27:19Z</time>
      </trkpt>
      <trkpt lat="42.4157840" lon="-2.1970550">
        <ele>328.2</ele>
        <time>2021-09-29T12:27:21Z</time>
      </trkpt>
      <trkpt lat="42.4157660" lon="-2.1972310">
        <ele>328.4</ele>
        <time>2021-09-29T12:27:24Z</time>
      </trkpt>
      <trkpt lat="42.4156670" lon="-2.1979680">
        <ele>328.8</ele>
        <time>2021-09-29T12:27:36Z</time>
      </trkpt>
      <trkpt lat="42.4156650" lon="-2.1980270">
        <ele>329.0</ele>
        <time>2021-09-29T12:27:37Z</time>
      </trkpt>
      <trkpt lat="42.4156710" lon="-2.1981790">
        <ele>329.4</ele>
        <time>2021-09-29T12:27:42Z</time>
      </trkpt>
      <trkpt lat="42.4156700" lon="-2.1981810">
        <ele>329.6</ele>
        <time>2021-09-29T12:27:43Z</time>
      </trkpt>
      <trkpt lat="42.4156990" lon="-2.1983630">
        <ele>331.0</ele>
        <time>2021-09-29T12:28:11Z</time>
      </trkpt>
      <trkpt lat="42.4157050" lon="-2.1983980">
        <ele>331.0</ele>
        <time>2021-09-29T12:28:12Z</time>
      </trkpt>
      <trkpt lat="42.4157420" lon="-2.1988490">
        <ele>330.4</ele>
        <time>2021-09-29T12:28:21Z</time>
      </trkpt>
      <trkpt lat="42.4157320" lon="-2.1990990">
        <ele>330.0</ele>
        <time>2021-09-29T12:28:25Z</time>
      </trkpt>
      <trkpt lat="42.4156400" lon="-2.1998360">
        <ele>329.4</ele>
        <time>2021-09-29T12:28:36Z</time>
      </trkpt>
      <trkpt lat="42.4155620" lon="-2.2002220">
        <ele>329.2</ele>
        <time>2021-09-29T12:28:42Z</time>
      </trkpt>
      <trkpt lat="42.4153940" lon="-2.2009650">
        <ele>329.2</ele>
        <time>2021-09-29T12:28:55Z</time>
      </trkpt>
      <trkpt lat="42.4153120" lon="-2.2012040">
        <ele>329.6</ele>
        <time>2021-09-29T12:29:00Z</time>
      </trkpt>
      <trkpt lat="42.4153250" lon="-2.2013290">
        <ele>329.8</ele>
        <time>2021-09-29T12:29:03Z</time>
      </trkpt>
      <trkpt lat="42.4153720" lon="-2.2013950">
        <ele>330.0</ele>
        <time>2021-09-29T12:29:05Z</time>
      </trkpt>
      <trkpt lat="42.4154140" lon="-2.2014740">
        <ele>330.6</ele>
        <time>2021-09-29T12:29:07Z</time>
      </trkpt>
      <trkpt lat="42.4154030" lon="-2.2016710">
        <ele>330.8</ele>
        <time>2021-09-29T12:29:11Z</time>
      </trkpt>
      <trkpt lat="42.4153250" lon="-2.2018870">
        <ele>330.8</ele>
        <time>2021-09-29T12:29:15Z</time>
      </trkpt>
      <trkpt lat="42.4152340" lon="-2.2022070">
        <ele>330.6</ele>
        <time>2021-09-29T12:29:20Z</time>
      </trkpt>
      <trkpt lat="42.4151090" lon="-2.2026860">
        <ele>330.2</ele>
        <time>2021-09-29T12:29:27Z</time>
      </trkpt>
      <trkpt lat="42.4150320" lon="-2.2030330">
        <ele>330.2</ele>
        <time>2021-09-29T12:29:32Z</time>
      </trkpt>
      <trkpt lat="42.4149970" lon="-2.2032380">
        <ele>330.2</ele>
        <time>2021-09-29T12:29:35Z</time>
      </trkpt>
      <trkpt lat="42.4148140" lon="-2.2039790">
        <ele>330.2</ele>
        <time>2021-09-29T12:29:46Z</time>
      </trkpt>
      <trkpt lat="42.4147450" lon="-2.2043940">
        <ele>330.4</ele>
        <time>2021-09-29T12:29:52Z</time>
      </trkpt>
      <trkpt lat="42.4147240" lon="-2.2045230">
        <ele>330.4</ele>
        <time>2021-09-29T12:29:54Z</time>
      </trkpt>
      <trkpt lat="42.4145860" lon="-2.2052480">
        <ele>330.6</ele>
        <time>2021-09-29T12:30:07Z</time>
      </trkpt>
      <trkpt lat="42.4145810" lon="-2.2053010">
        <ele>330.4</ele>
        <time>2021-09-29T12:30:08Z</time>
      </trkpt>
      <trkpt lat="42.4145790" lon="-2.2055020">
        <ele>330.4</ele>
        <time>2021-09-29T12:30:12Z</time>
      </trkpt>
      <trkpt lat="42.4145700" lon="-2.2057690">
        <ele>330.2</ele>
        <time>2021-09-29T12:30:16Z</time>
      </trkpt>
      <trkpt lat="42.4144960" lon="-2.2064770">
        <ele>329.2</ele>
        <time>2021-09-29T12:30:27Z</time>
      </trkpt>
      <trkpt lat="42.4144660" lon="-2.2067350">
        <ele>329.2</ele>
        <time>2021-09-29T12:30:31Z</time>
      </trkpt>
      <trkpt lat="42.4144490" lon="-2.2068730">
        <ele>329.2</ele>
        <time>2021-09-29T12:30:33Z</time>
      </trkpt>
      <trkpt lat="42.4144140" lon="-2.2072040">
        <ele>329.0</ele>
        <time>2021-09-29T12:30:38Z</time>
      </trkpt>
      <trkpt lat="42.4143530" lon="-2.2079670">
        <ele>329.8</ele>
        <time>2021-09-29T12:30:50Z</time>
      </trkpt>
      <trkpt lat="42.4143550" lon="-2.2087520">
        <ele>330.0</ele>
        <time>2021-09-29T12:31:02Z</time>
      </trkpt>
      <trkpt lat="42.4143670" lon="-2.2094820">
        <ele>329.0</ele>
        <time>2021-09-29T12:31:12Z</time>
      </trkpt>
      <trkpt lat="42.4143800" lon="-2.2099250">
        <ele>328.8</ele>
        <time>2021-09-29T12:31:18Z</time>
      </trkpt>
      <trkpt lat="42.4144160" lon="-2.2107350">
        <ele>328.4</ele>
        <time>2021-09-29T12:31:28Z</time>
      </trkpt>
      <trkpt lat="42.4144160" lon="-2.2108190">
        <ele>328.4</ele>
        <time>2021-09-29T12:31:29Z</time>
      </trkpt>
      <trkpt lat="42.4144140" lon="-2.2111310">
        <ele>328.2</ele>
        <time>2021-09-29T12:31:33Z</time>
      </trkpt>
      <trkpt lat="42.4144090" lon="-2.2113490">
        <ele>328.0</ele>
        <time>2021-09-29T12:31:36Z</time>
      </trkpt>
      <trkpt lat="42.4144820" lon="-2.2120780">
        <ele>327.4</ele>
        <time>2021-09-29T12:31:47Z</time>
      </trkpt>
      <trkpt lat="42.4145230" lon="-2.2126100">
        <ele>328.2</ele>
        <time>2021-09-29T12:31:58Z</time>
      </trkpt>
      <trkpt lat="42.4145410" lon="-2.2127350">
        <ele>328.2</ele>
        <time>2021-09-29T12:32:00Z</time>
      </trkpt>
      <trkpt lat="42.4145870" lon="-2.2130080">
        <ele>328.2</ele>
        <time>2021-09-29T12:32:04Z</time>
      </trkpt>
      <trkpt lat="42.4146700" lon="-2.2135820">
        <ele>328.4</ele>
        <time>2021-09-29T12:32:13Z</time>
      </trkpt>
      <trkpt lat="42.4147630" lon="-2.2143160">
        <ele>328.8</ele>
        <time>2021-09-29T12:32:25Z</time>
      </trkpt>
      <trkpt lat="42.4147720" lon="-2.2143790">
        <ele>328.8</ele>
        <time>2021-09-29T12:32:26Z</time>
      </trkpt>
      <trkpt lat="42.4149130" lon="-2.2151130">
        <ele>327.8</ele>
        <time>2021-09-29T12:32:37Z</time>
      </trkpt>
      <trkpt lat="42.4149840" lon="-2.2153720">
        <ele>328.0</ele>
        <time>2021-09-29T12:32:41Z</time>
      </trkpt>
      <trkpt lat="42.4152190" lon="-2.2160560">
        <ele>328.4</ele>
        <time>2021-09-29T12:32:52Z</time>
      </trkpt>
      <trkpt lat="42.4152480" lon="-2.2161110">
        <ele>328.4</ele>
        <time>2021-09-29T12:32:53Z</time>
      </trkpt>
      <trkpt lat="42.4154280" lon="-2.2163050">
        <ele>328.4</ele>
        <time>2021-09-29T12:32:58Z</time>
      </trkpt>
      <trkpt lat="42.4156850" lon="-2.2169990">
        <ele>327.8</ele>
        <time>2021-09-29T12:33:11Z</time>
      </trkpt>
      <trkpt lat="42.4157310" lon="-2.2173330">
        <ele>328.2</ele>
        <time>2021-09-29T12:33:17Z</time>
      </trkpt>
      <trkpt lat="42.4158090" lon="-2.2176270">
        <ele>328.2</ele>
        <time>2021-09-29T12:33:22Z</time>
      </trkpt>
      <trkpt lat="42.4158310" lon="-2.2176880">
        <ele>328.2</ele>
        <time>2021-09-29T12:33:23Z</time>
      </trkpt>
      <trkpt lat="42.4158980" lon="-2.2178750">
        <ele>328.4</ele>
        <time>2021-09-29T12:33:26Z</time>
      </trkpt>
      <trkpt lat="42.4160450" lon="-2.2182450">
        <ele>328.4</ele>
        <time>2021-09-29T12:33:32Z</time>
      </trkpt>
      <trkpt lat="42.4161360" lon="-2.2185740">
        <ele>328.4</ele>
        <time>2021-09-29T12:33:37Z</time>
      </trkpt>
      <trkpt lat="42.4162770" lon="-2.2188530">
        <ele>328.6</ele>
        <time>2021-09-29T12:33:42Z</time>
      </trkpt>
      <trkpt lat="42.4163810" lon="-2.2190000">
        <ele>328.6</ele>
        <time>2021-09-29T12:33:45Z</time>
      </trkpt>
      <trkpt lat="42.4167210" lon="-2.2194730">
        <ele>328.6</ele>
        <time>2021-09-29T12:33:55Z</time>
      </trkpt>
      <trkpt lat="42.4171250" lon="-2.2199990">
        <ele>328.6</ele>
        <time>2021-09-29T12:34:06Z</time>
      </trkpt>
      <trkpt lat="42.4173230" lon="-2.2202430">
        <ele>328.4</ele>
        <time>2021-09-29T12:34:11Z</time>
      </trkpt>
      <trkpt lat="42.4174360" lon="-2.2203910">
        <ele>328.6</ele>
        <time>2021-09-29T12:34:14Z</time>
      </trkpt>
      <trkpt lat="42.4175040" lon="-2.2204960">
        <ele>328.6</ele>
        <time>2021-09-29T12:34:16Z</time>
      </trkpt>
      <trkpt lat="42.4179140" lon="-2.2209840">
        <ele>329.0</ele>
        <time>2021-09-29T12:34:27Z</time>
      </trkpt>
      <trkpt lat="42.4183320" lon="-2.2214680">
        <ele>329.2</ele>
        <time>2021-09-29T12:34:38Z</time>
      </trkpt>
      <trkpt lat="42.4187680" lon="-2.2219180">
        <ele>329.6</ele>
        <time>2021-09-29T12:34:49Z</time>
      </trkpt>
      <trkpt lat="42.4191590" lon="-2.2223060">
        <ele>329.8</ele>
        <time>2021-09-29T12:34:59Z</time>
      </trkpt>
      <trkpt lat="42.4191980" lon="-2.2223430">
        <ele>329.8</ele>
        <time>2021-09-29T12:35:00Z</time>
      </trkpt>
      <trkpt lat="42.4196670" lon="-2.2228070">
        <ele>329.0</ele>
        <time>2021-09-29T12:35:12Z</time>
      </trkpt>
      <trkpt lat="42.4201300" lon="-2.2232040">
        <ele>329.0</ele>
        <time>2021-09-29T12:35:23Z</time>
      </trkpt>
      <trkpt lat="42.4204430" lon="-2.2234760">
        <ele>329.0</ele>
        <time>2021-09-29T12:35:31Z</time>
      </trkpt>
      <trkpt lat="42.4208370" lon="-2.2240250">
        <ele>330.0</ele>
        <time>2021-09-29T12:35:43Z</time>
      </trkpt>
      <trkpt lat="42.4211360" lon="-2.2244510">
        <ele>330.2</ele>
        <time>2021-09-29T12:35:52Z</time>
      </trkpt>
      <trkpt lat="42.4214930" lon="-2.2250010">
        <ele>330.2</ele>
        <time>2021-09-29T12:36:04Z</time>
      </trkpt>
      <trkpt lat="42.4216320" lon="-2.2252400">
        <ele>330.0</ele>
        <time>2021-09-29T12:36:09Z</time>
      </trkpt>
      <trkpt lat="42.4217220" lon="-2.2254510">
        <ele>330.2</ele>
        <time>2021-09-29T12:36:13Z</time>
      </trkpt>
      <trkpt lat="42.4217780" lon="-2.2255540">
        <ele>330.6</ele>
        <time>2021-09-29T12:36:15Z</time>
      </trkpt>
      <trkpt lat="42.4221310" lon="-2.2261680">
        <ele>331.0</ele>
        <time>2021-09-29T12:36:27Z</time>
      </trkpt>
      <trkpt lat="42.4225050" lon="-2.2267070">
        <ele>330.8</ele>
        <time>2021-09-29T12:36:38Z</time>
      </trkpt>
      <trkpt lat="42.4225960" lon="-2.2268520">
        <ele>330.8</ele>
        <time>2021-09-29T12:36:41Z</time>
      </trkpt>
      <trkpt lat="42.4227640" lon="-2.2272040">
        <ele>331.0</ele>
        <time>2021-09-29T12:36:48Z</time>
      </trkpt>
      <trkpt lat="42.4227900" lon="-2.2272470">
        <ele>331.0</ele>
        <time>2021-09-29T12:36:49Z</time>
      </trkpt>
      <trkpt lat="42.4228300" lon="-2.2273980">
        <ele>331.2</ele>
        <time>2021-09-29T12:36:52Z</time>
      </trkpt>
      <trkpt lat="42.4228310" lon="-2.2276250">
        <ele>332.0</ele>
        <time>2021-09-29T12:36:56Z</time>
      </trkpt>
      <trkpt lat="42.4228370" lon="-2.2276820">
        <ele>332.4</ele>
        <time>2021-09-29T12:36:57Z</time>
      </trkpt>
      <trkpt lat="42.4228570" lon="-2.2277960">
        <ele>332.8</ele>
        <time>2021-09-29T12:36:59Z</time>
      </trkpt>
      <trkpt lat="42.4229780" lon="-2.2281970">
        <ele>333.2</ele>
        <time>2021-09-29T12:37:06Z</time>
      </trkpt>
      <trkpt lat="42.4230680" lon="-2.2286120">
        <ele>334.0</ele>
        <time>2021-09-29T12:37:13Z</time>
      </trkpt>
      <trkpt lat="42.4231150" lon="-2.2291400">
        <ele>334.2</ele>
        <time>2021-09-29T12:37:22Z</time>
      </trkpt>
      <trkpt lat="42.4230260" lon="-2.2294020">
        <ele>334.2</ele>
        <time>2021-09-29T12:37:27Z</time>
      </trkpt>
      <trkpt lat="42.4229670" lon="-2.2300430">
        <ele>335.6</ele>
        <time>2021-09-29T12:37:40Z</time>
      </trkpt>
      <trkpt lat="42.4230000" lon="-2.2302380">
        <ele>337.0</ele>
        <time>2021-09-29T12:37:44Z</time>
      </trkpt>
      <trkpt lat="42.4230590" lon="-2.2304700">
        <ele>338.0</ele>
        <time>2021-09-29T12:37:49Z</time>
      </trkpt>
      <trkpt lat="42.4230820" lon="-2.2307100">
        <ele>338.8</ele>
        <time>2021-09-29T12:37:54Z</time>
      </trkpt>
      <trkpt lat="42.4230930" lon="-2.2307530">
        <ele>339.4</ele>
        <time>2021-09-29T12:37:55Z</time>
      </trkpt>
      <trkpt lat="42.4231900" lon="-2.2308540">
        <ele>340.6</ele>
        <time>2021-09-29T12:37:59Z</time>
      </trkpt>
      <trkpt lat="42.4233180" lon="-2.2308650">
        <ele>341.6</ele>
        <time>2021-09-29T12:38:03Z</time>
      </trkpt>
      <trkpt lat="42.4236560" lon="-2.2309470">
        <ele>342.6</ele>
        <time>2021-09-29T12:38:13Z</time>
      </trkpt>
      <trkpt lat="42.4238300" lon="-2.2311370">
        <ele>342.8</ele>
        <time>2021-09-29T12:38:19Z</time>
      </trkpt>
      <trkpt lat="42.4238860" lon="-2.2312820">
        <ele>343.0</ele>
        <time>2021-09-29T12:38:22Z</time>
      </trkpt>
      <trkpt lat="42.4241020" lon="-2.2315420">
        <ele>343.6</ele>
        <time>2021-09-29T12:38:29Z</time>
      </trkpt>
      <trkpt lat="42.4243220" lon="-2.2318370">
        <ele>344.0</ele>
        <time>2021-09-29T12:38:37Z</time>
      </trkpt>
      <trkpt lat="42.4243890" lon="-2.2320740">
        <ele>344.0</ele>
        <time>2021-09-29T12:38:41Z</time>
      </trkpt>
      <trkpt lat="42.4245470" lon="-2.2326160">
        <ele>343.8</ele>
        <time>2021-09-29T12:38:50Z</time>
      </trkpt>
      <trkpt lat="42.4247740" lon="-2.2332910">
        <ele>343.6</ele>
        <time>2021-09-29T12:39:02Z</time>
      </trkpt>
      <trkpt lat="42.4248740" lon="-2.2340470">
        <ele>344.8</ele>
        <time>2021-09-29T12:39:15Z</time>
      </trkpt>
      <trkpt lat="42.4248900" lon="-2.2344280">
        <ele>345.8</ele>
        <time>2021-09-29T12:39:21Z</time>
      </trkpt>
      <trkpt lat="42.4249120" lon="-2.2345480">
        <ele>346.6</ele>
        <time>2021-09-29T12:39:23Z</time>
      </trkpt>
      <trkpt lat="42.4250010" lon="-2.2348260">
        <ele>347.0</ele>
        <time>2021-09-29T12:39:28Z</time>
      </trkpt>
      <trkpt lat="42.4250920" lon="-2.2350840">
        <ele>347.0</ele>
        <time>2021-09-29T12:39:33Z</time>
      </trkpt>
      <trkpt lat="42.4251880" lon="-2.2355260">
        <ele>346.8</ele>
        <time>2021-09-29T12:39:41Z</time>
      </trkpt>
      <trkpt lat="42.4254280" lon="-2.2362010">
        <ele>346.8</ele>
        <time>2021-09-29T12:39:54Z</time>
      </trkpt>
      <trkpt lat="42.4255100" lon="-2.2364670">
        <ele>347.0</ele>
        <time>2021-09-29T12:39:59Z</time>
      </trkpt>
      <trkpt lat="42.4255460" lon="-2.2365740">
        <ele>347.0</ele>
        <time>2021-09-29T12:40:01Z</time>
      </trkpt>
      <trkpt lat="42.4256950" lon="-2.2369930">
        <ele>348.0</ele>
        <time>2021-09-29T12:40:09Z</time>
      </trkpt>
      <trkpt lat="42.4257410" lon="-2.2371540">
        <ele>348.2</ele>
        <time>2021-09-29T12:40:12Z</time>
      </trkpt>
      <trkpt lat="42.4257690" lon="-2.2373840">
        <ele>348.6</ele>
        <time>2021-09-29T12:40:16Z</time>
      </trkpt>
      <trkpt lat="42.4258430" lon="-2.2376080">
        <ele>349.0</ele>
        <time>2021-09-29T12:40:20Z</time>
      </trkpt>
      <trkpt lat="42.4260640" lon="-2.2382780">
        <ele>350.0</ele>
        <time>2021-09-29T12:40:32Z</time>
      </trkpt>
      <trkpt lat="42.4261330" lon="-2.2385050">
        <ele>350.0</ele>
        <time>2021-09-29T12:40:36Z</time>
      </trkpt>
      <trkpt lat="42.4262950" lon="-2.2390900">
        <ele>350.2</ele>
        <time>2021-09-29T12:40:46Z</time>
      </trkpt>
      <trkpt lat="42.4265280" lon="-2.2397650">
        <ele>350.6</ele>
        <time>2021-09-29T12:40:58Z</time>
      </trkpt>
      <trkpt lat="42.4266550" lon="-2.2402490">
        <ele>350.8</ele>
        <time>2021-09-29T12:41:06Z</time>
      </trkpt>
      <trkpt lat="42.4268240" lon="-2.2407520">
        <ele>350.6</ele>
        <time>2021-09-29T12:41:14Z</time>
      </trkpt>
      <trkpt lat="42.4270860" lon="-2.2413560">
        <ele>351.2</ele>
        <time>2021-09-29T12:41:25Z</time>
      </trkpt>
      <trkpt lat="42.4271880" lon="-2.2416350">
        <ele>351.4</ele>
        <time>2021-09-29T12:41:30Z</time>
      </trkpt>
      <trkpt lat="42.4273880" lon="-2.2423320">
        <ele>352.2</ele>
        <time>2021-09-29T12:41:42Z</time>
      </trkpt>
      <trkpt lat="42.4274560" lon="-2.2425060">
        <ele>352.4</ele>
        <time>2021-09-29T12:41:45Z</time>
      </trkpt>
      <trkpt lat="42.4276330" lon="-2.2427140">
        <ele>352.4</ele>
        <time>2021-09-29T12:41:50Z</time>
      </trkpt>
      <trkpt lat="42.4279920" lon="-2.2429790">
        <ele>351.8</ele>
        <time>2021-09-29T12:41:59Z</time>
      </trkpt>
      <trkpt lat="42.4285520" lon="-2.2432050">
        <ele>352.0</ele>
        <time>2021-09-29T12:42:11Z</time>
      </trkpt>
      <trkpt lat="42.4289540" lon="-2.2432700">
        <ele>352.0</ele>
        <time>2021-09-29T12:42:19Z</time>
      </trkpt>
      <trkpt lat="42.4290860" lon="-2.2433200">
        <ele>351.8</ele>
        <time>2021-09-29T12:42:22Z</time>
      </trkpt>
      <trkpt lat="42.4292580" lon="-2.2435100">
        <ele>351.8</ele>
        <time>2021-09-29T12:42:27Z</time>
      </trkpt>
      <trkpt lat="42.4295370" lon="-2.2441700">
        <ele>352.6</ele>
        <time>2021-09-29T12:42:38Z</time>
      </trkpt>
      <trkpt lat="42.4297620" lon="-2.2448230">
        <ele>353.2</ele>
        <time>2021-09-29T12:42:48Z</time>
      </trkpt>
      <trkpt lat="42.4297820" lon="-2.2448930">
        <ele>353.2</ele>
        <time>2021-09-29T12:42:49Z</time>
      </trkpt>
      <trkpt lat="42.4300210" lon="-2.2455910">
        <ele>353.4</ele>
        <time>2021-09-29T12:42:59Z</time>
      </trkpt>
      <trkpt lat="42.4302690" lon="-2.2462390">
        <ele>353.4</ele>
        <time>2021-09-29T12:43:08Z</time>
      </trkpt>
      <trkpt lat="42.4305410" lon="-2.2469550">
        <ele>353.0</ele>
        <time>2021-09-29T12:43:18Z</time>
      </trkpt>
      <trkpt lat="42.4307960" lon="-2.2476550">
        <ele>353.6</ele>
        <time>2021-09-29T12:43:28Z</time>
      </trkpt>
      <trkpt lat="42.4311720" lon="-2.2481980">
        <ele>353.2</ele>
        <time>2021-09-29T12:43:38Z</time>
      </trkpt>
      <trkpt lat="42.4313140" lon="-2.2483030">
        <ele>352.8</ele>
        <time>2021-09-29T12:43:41Z</time>
      </trkpt>
      <trkpt lat="42.4315420" lon="-2.2487030">
        <ele>352.6</ele>
        <time>2021-09-29T12:43:48Z</time>
      </trkpt>
      <trkpt lat="42.4317640" lon="-2.2494490">
        <ele>353.2</ele>
        <time>2021-09-29T12:43:59Z</time>
      </trkpt>
      <trkpt lat="42.4318560" lon="-2.2498070">
        <ele>353.6</ele>
        <time>2021-09-29T12:44:04Z</time>
      </trkpt>
      <trkpt lat="42.4318740" lon="-2.2498800">
        <ele>353.8</ele>
        <time>2021-09-29T12:44:05Z</time>
      </trkpt>
      <trkpt lat="42.4320030" lon="-2.2503790">
        <ele>354.4</ele>
        <time>2021-09-29T12:44:12Z</time>
      </trkpt>
      <trkpt lat="42.4320840" lon="-2.2507260">
        <ele>355.0</ele>
        <time>2021-09-29T12:44:17Z</time>
      </trkpt>
      <trkpt lat="42.4321750" lon="-2.2511140">
        <ele>355.4</ele>
        <time>2021-09-29T12:44:23Z</time>
      </trkpt>
      <trkpt lat="42.4322920" lon="-2.2515520">
        <ele>355.4</ele>
        <time>2021-09-29T12:44:30Z</time>
      </trkpt>
      <trkpt lat="42.4323380" lon="-2.2517240">
        <ele>355.4</ele>
        <time>2021-09-29T12:44:33Z</time>
      </trkpt>
      <trkpt lat="42.4324180" lon="-2.2520140">
        <ele>355.6</ele>
        <time>2021-09-29T12:44:38Z</time>
      </trkpt>
      <trkpt lat="42.4325400" lon="-2.2525370">
        <ele>355.6</ele>
        <time>2021-09-29T12:44:47Z</time>
      </trkpt>
      <trkpt lat="42.4325770" lon="-2.2526860">
        <ele>355.6</ele>
        <time>2021-09-29T12:44:50Z</time>
      </trkpt>
      <trkpt lat="42.4325960" lon="-2.2527230">
        <ele>355.6</ele>
        <time>2021-09-29T12:44:51Z</time>
      </trkpt>
      <trkpt lat="42.4327270" lon="-2.2527420">
        <ele>355.6</ele>
        <time>2021-09-29T12:44:55Z</time>
      </trkpt>
      <trkpt lat="42.4329820" lon="-2.2526670">
        <ele>356.4</ele>
        <time>2021-09-29T12:45:02Z</time>
      </trkpt>
      <trkpt lat="42.4334450" lon="-2.2524870">
        <ele>356.2</ele>
        <time>2021-09-29T12:45:15Z</time>
      </trkpt>
      <trkpt lat="42.4337390" lon="-2.2523630">
        <ele>355.6</ele>
        <time>2021-09-29T12:45:22Z</time>
      </trkpt>
      <trkpt lat="42.4339520" lon="-2.2522820">
        <ele>355.4</ele>
        <time>2021-09-29T12:45:27Z</time>
      </trkpt>
      <trkpt lat="42.4345080" lon="-2.2520720">
        <ele>354.6</ele>
        <time>2021-09-29T12:45:39Z</time>
      </trkpt>
      <trkpt lat="42.4347360" lon="-2.2519840">
        <ele>354.4</ele>
        <time>2021-09-29T12:45:44Z</time>
      </trkpt>
      <trkpt lat="42.4351320" lon="-2.2517960">
        <ele>354.2</ele>
        <time>2021-09-29T12:45:54Z</time>
      </trkpt>
      <trkpt lat="42.4353260" lon="-2.2517350">
        <ele>354.6</ele>
        <time>2021-09-29T12:45:59Z</time>
      </trkpt>
      <trkpt lat="42.4353900" lon="-2.2518010">
        <ele>354.8</ele>
        <time>2021-09-29T12:46:03Z</time>
      </trkpt>
      <trkpt lat="42.4353950" lon="-2.2518130">
        <ele>354.8</ele>
        <time>2021-09-29T12:46:05Z</time>
      </trkpt>
      <trkpt lat="42.4353870" lon="-2.2517410">
        <ele>356.8</ele>
        <time>2021-09-29T12:47:24Z</time>
      </trkpt>
      <trkpt lat="42.4354030" lon="-2.2517130">
        <ele>356.8</ele>
        <time>2021-09-29T12:47:25Z</time>
      </trkpt>
      <trkpt lat="42.4355060" lon="-2.2516210">
        <ele>356.8</ele>
        <time>2021-09-29T12:47:29Z</time>
      </trkpt>
      <trkpt lat="42.4358430" lon="-2.2514170">
        <ele>355.6</ele>
        <time>2021-09-29T12:47:40Z</time>
      </trkpt>
      <trkpt lat="42.4360030" lon="-2.2513200">
        <ele>355.6</ele>
        <time>2021-09-29T12:47:45Z</time>
      </trkpt>
      <trkpt lat="42.4361870" lon="-2.2511790">
        <ele>354.6</ele>
        <time>2021-09-29T12:47:52Z</time>
      </trkpt>
      <trkpt lat="42.4362440" lon="-2.2511110">
        <ele>354.2</ele>
        <time>2021-09-29T12:47:55Z</time>
      </trkpt>
      <trkpt lat="42.4362700" lon="-2.2508330">
        <ele>353.4</ele>
        <time>2021-09-29T12:48:04Z</time>
      </trkpt>
      <trkpt lat="42.4362740" lon="-2.2508280">
        <ele>352.4</ele>
        <time>2021-09-29T12:48:06Z</time>
      </trkpt>
      <trkpt lat="42.4363120" lon="-2.2508600">
        <ele>350.8</ele>
        <time>2021-09-29T12:49:00Z</time>
      </trkpt>
      <trkpt lat="42.4365280" lon="-2.2511310">
        <ele>350.4</ele>
        <time>2021-09-29T12:49:06Z</time>
      </trkpt>
      <trkpt lat="42.4366130" lon="-2.2512670">
        <ele>349.6</ele>
        <time>2021-09-29T12:49:08Z</time>
      </trkpt>
      <trkpt lat="42.4366980" lon="-2.2513890">
        <ele>348.0</ele>
        <time>2021-09-29T12:49:10Z</time>
      </trkpt>
      <trkpt lat="42.4367680" lon="-2.2514850">
        <ele>346.2</ele>
        <time>2021-09-29T12:49:12Z</time>
      </trkpt>
      <trkpt lat="42.4368060" lon="-2.2515230">
        <ele>345.0</ele>
        <time>2021-09-29T12:49:13Z</time>
      </trkpt>
      <trkpt lat="42.4368500" lon="-2.2515630">
        <ele>343.4</ele>
        <time>2021-09-29T12:49:14Z</time>
      </trkpt>
      <trkpt lat="42.4368990" lon="-2.2516010">
        <ele>341.8</ele>
        <time>2021-09-29T12:49:15Z</time>
      </trkpt>
      <trkpt lat="42.4369510" lon="-2.2516360">
        <ele>340.4</ele>
        <time>2021-09-29T12:49:16Z</time>
      </trkpt>
      <trkpt lat="42.4369970" lon="-2.2516740">
        <ele>339.6</ele>
        <time>2021-09-29T12:49:17Z</time>
      </trkpt>
      <trkpt lat="42.4370370" lon="-2.2517190">
        <ele>339.0</ele>
        <time>2021-09-29T12:49:18Z</time>
      </trkpt>
      <trkpt lat="42.4371090" lon="-2.2519490">
        <ele>338.0</ele>
        <time>2021-09-29T12:49:22Z</time>
      </trkpt>
      <trkpt lat="42.4370870" lon="-2.2520780">
        <ele>337.4</ele>
        <time>2021-09-29T12:49:24Z</time>
      </trkpt>
      <trkpt lat="42.4370390" lon="-2.2521980">
        <ele>337.0</ele>
        <time>2021-09-29T12:49:26Z</time>
      </trkpt>
      <trkpt lat="42.4369830" lon="-2.2523090">
        <ele>337.0</ele>
        <time>2021-09-29T12:49:28Z</time>
      </trkpt>
      <trkpt lat="42.4368920" lon="-2.2524720">
        <ele>337.0</ele>
        <time>2021-09-29T12:49:31Z</time>
      </trkpt>
      <trkpt lat="42.4367920" lon="-2.2526280">
        <ele>337.0</ele>
        <time>2021-09-29T12:49:34Z</time>
      </trkpt>
      <trkpt lat="42.4365490" lon="-2.2529810">
        <ele>337.6</ele>
        <time>2021-09-29T12:49:41Z</time>
      </trkpt>
      <trkpt lat="42.4362010" lon="-2.2533760">
        <ele>338.0</ele>
        <time>2021-09-29T12:49:50Z</time>
      </trkpt>
      <trkpt lat="42.4359370" lon="-2.2536480">
        <ele>338.4</ele>
        <time>2021-09-29T12:49:56Z</time>
      </trkpt>
      <trkpt lat="42.4359260" lon="-2.2541040">
        <ele>338.6</ele>
        <time>2021-09-29T12:50:03Z</time>
      </trkpt>
      <trkpt lat="42.4360180" lon="-2.2544530">
        <ele>338.4</ele>
        <time>2021-09-29T12:50:08Z</time>
      </trkpt>
      <trkpt lat="42.4361140" lon="-2.2548200">
        <ele>337.2</ele>
        <time>2021-09-29T12:50:13Z</time>
      </trkpt>
      <trkpt lat="42.4361690" lon="-2.2550460">
        <ele>336.8</ele>
        <time>2021-09-29T12:50:16Z</time>
      </trkpt>
      <trkpt lat="42.4362390" lon="-2.2553480">
        <ele>335.8</ele>
        <time>2021-09-29T12:50:20Z</time>
      </trkpt>
      <trkpt lat="42.4362580" lon="-2.2554240">
        <ele>335.6</ele>
        <time>2021-09-29T12:50:21Z</time>
      </trkpt>
      <trkpt lat="42.4364430" lon="-2.2561680">
        <ele>335.4</ele>
        <time>2021-09-29T12:50:31Z</time>
      </trkpt>
      <trkpt lat="42.4365690" lon="-2.2566870">
        <ele>335.6</ele>
        <time>2021-09-29T12:50:38Z</time>
      </trkpt>
      <trkpt lat="42.4367170" lon="-2.2572800">
        <ele>335.8</ele>
        <time>2021-09-29T12:50:46Z</time>
      </trkpt>
      <trkpt lat="42.4368710" lon="-2.2580630">
        <ele>336.8</ele>
        <time>2021-09-29T12:50:56Z</time>
      </trkpt>
      <trkpt lat="42.4369470" lon="-2.2587200">
        <ele>337.6</ele>
        <time>2021-09-29T12:51:04Z</time>
      </trkpt>
      <trkpt lat="42.4369870" lon="-2.2595170">
        <ele>337.6</ele>
        <time>2021-09-29T12:51:14Z</time>
      </trkpt>
      <trkpt lat="42.4369940" lon="-2.2599910">
        <ele>337.6</ele>
        <time>2021-09-29T12:51:20Z</time>
      </trkpt>
      <trkpt lat="42.4370150" lon="-2.2601440">
        <ele>337.8</ele>
        <time>2021-09-29T12:51:22Z</time>
      </trkpt>
      <trkpt lat="42.4370740" lon="-2.2609180">
        <ele>338.4</ele>
        <time>2021-09-29T12:51:32Z</time>
      </trkpt>
      <trkpt lat="42.4371100" lon="-2.2617140">
        <ele>338.4</ele>
        <time>2021-09-29T12:51:42Z</time>
      </trkpt>
      <trkpt lat="42.4371890" lon="-2.2624620">
        <ele>338.2</ele>
        <time>2021-09-29T12:51:51Z</time>
      </trkpt>
      <trkpt lat="42.4373230" lon="-2.2632290">
        <ele>338.2</ele>
        <time>2021-09-29T12:52:00Z</time>
      </trkpt>
      <trkpt lat="42.4374430" lon="-2.2639790">
        <ele>337.8</ele>
        <time>2021-09-29T12:52:09Z</time>
      </trkpt>
      <trkpt lat="42.4374850" lon="-2.2647650">
        <ele>337.6</ele>
        <time>2021-09-29T12:52:18Z</time>
      </trkpt>
      <trkpt lat="42.4375070" lon="-2.2652740">
        <ele>337.8</ele>
        <time>2021-09-29T12:52:24Z</time>
      </trkpt>
      <trkpt lat="42.4377070" lon="-2.2660160">
        <ele>338.0</ele>
        <time>2021-09-29T12:52:33Z</time>
      </trkpt>
      <trkpt lat="42.4378960" lon="-2.2667580">
        <ele>338.0</ele>
        <time>2021-09-29T12:52:42Z</time>
      </trkpt>
      <trkpt lat="42.4380710" lon="-2.2674760">
        <ele>338.0</ele>
        <time>2021-09-29T12:52:51Z</time>
      </trkpt>
      <trkpt lat="42.4381680" lon="-2.2679640">
        <ele>338.6</ele>
        <time>2021-09-29T12:52:57Z</time>
      </trkpt>
      <trkpt lat="42.4382690" lon="-2.2683520">
        <ele>339.0</ele>
        <time>2021-09-29T12:53:02Z</time>
      </trkpt>
      <trkpt lat="42.4383230" lon="-2.2686530">
        <ele>339.0</ele>
        <time>2021-09-29T12:53:06Z</time>
      </trkpt>
      <trkpt lat="42.4384790" lon="-2.2691740">
        <ele>339.0</ele>
        <time>2021-09-29T12:53:13Z</time>
      </trkpt>
      <trkpt lat="42.4386460" lon="-2.2698790">
        <ele>339.0</ele>
        <time>2021-09-29T12:53:22Z</time>
      </trkpt>
      <trkpt lat="42.4387720" lon="-2.2706060">
        <ele>339.2</ele>
        <time>2021-09-29T12:53:31Z</time>
      </trkpt>
      <trkpt lat="42.4388210" lon="-2.2713550">
        <ele>339.4</ele>
        <time>2021-09-29T12:53:40Z</time>
      </trkpt>
      <trkpt lat="42.4388320" lon="-2.2714380">
        <ele>339.4</ele>
        <time>2021-09-29T12:53:41Z</time>
      </trkpt>
      <trkpt lat="42.4390150" lon="-2.2721400">
        <ele>339.0</ele>
        <time>2021-09-29T12:53:50Z</time>
      </trkpt>
      <trkpt lat="42.4391150" lon="-2.2725270">
        <ele>339.0</ele>
        <time>2021-09-29T12:53:55Z</time>
      </trkpt>
      <trkpt lat="42.4392130" lon="-2.2732630">
        <ele>339.6</ele>
        <time>2021-09-29T12:54:04Z</time>
      </trkpt>
      <trkpt lat="42.4392240" lon="-2.2733450">
        <ele>339.8</ele>
        <time>2021-09-29T12:54:05Z</time>
      </trkpt>
      <trkpt lat="42.4393360" lon="-2.2738240">
        <ele>340.0</ele>
        <time>2021-09-29T12:54:11Z</time>
      </trkpt>
      <trkpt lat="42.4396510" lon="-2.2744500">
        <ele>340.2</ele>
        <time>2021-09-29T12:54:20Z</time>
      </trkpt>
      <trkpt lat="42.4398000" lon="-2.2748210">
        <ele>340.8</ele>
        <time>2021-09-29T12:54:25Z</time>
      </trkpt>
      <trkpt lat="42.4400010" lon="-2.2755440">
        <ele>341.4</ele>
        <time>2021-09-29T12:54:34Z</time>
      </trkpt>
      <trkpt lat="42.4400290" lon="-2.2758060">
        <ele>341.4</ele>
        <time>2021-09-29T12:54:37Z</time>
      </trkpt>
      <trkpt lat="42.4403340" lon="-2.2764650">
        <ele>341.6</ele>
        <time>2021-09-29T12:54:46Z</time>
      </trkpt>
      <trkpt lat="42.4405680" lon="-2.2769860">
        <ele>341.4</ele>
        <time>2021-09-29T12:54:53Z</time>
      </trkpt>
      <trkpt lat="42.4407550" lon="-2.2776960">
        <ele>341.2</ele>
        <time>2021-09-29T12:55:02Z</time>
      </trkpt>
      <trkpt lat="42.4409140" lon="-2.2782110">
        <ele>341.4</ele>
        <time>2021-09-29T12:55:09Z</time>
      </trkpt>
      <trkpt lat="42.4409800" lon="-2.2788900">
        <ele>340.4</ele>
        <time>2021-09-29T12:55:18Z</time>
      </trkpt>
      <trkpt lat="42.4410520" lon="-2.2791100">
        <ele>339.8</ele>
        <time>2021-09-29T12:55:21Z</time>
      </trkpt>
      <trkpt lat="42.4413320" lon="-2.2798000">
        <ele>339.6</ele>
        <time>2021-09-29T12:55:31Z</time>
      </trkpt>
      <trkpt lat="42.4414140" lon="-2.2800810">
        <ele>339.6</ele>
        <time>2021-09-29T12:55:35Z</time>
      </trkpt>
      <trkpt lat="42.4414860" lon="-2.2808450">
        <ele>340.0</ele>
        <time>2021-09-29T12:55:45Z</time>
      </trkpt>
      <trkpt lat="42.4415470" lon="-2.2813110">
        <ele>340.2</ele>
        <time>2021-09-29T12:55:51Z</time>
      </trkpt>
      <trkpt lat="42.4416440" lon="-2.2816050">
        <ele>340.2</ele>
        <time>2021-09-29T12:55:55Z</time>
      </trkpt>
      <trkpt lat="42.4419690" lon="-2.2821890">
        <ele>339.8</ele>
        <time>2021-09-29T12:56:04Z</time>
      </trkpt>
      <trkpt lat="42.4422230" lon="-2.2826030">
        <ele>339.8</ele>
        <time>2021-09-29T12:56:11Z</time>
      </trkpt>
      <trkpt lat="42.4424750" lon="-2.2828050">
        <ele>339.8</ele>
        <time>2021-09-29T12:56:16Z</time>
      </trkpt>
      <trkpt lat="42.4427110" lon="-2.2830670">
        <ele>340.8</ele>
        <time>2021-09-29T12:56:21Z</time>
      </trkpt>
      <trkpt lat="42.4430110" lon="-2.2834470">
        <ele>340.8</ele>
        <time>2021-09-29T12:56:28Z</time>
      </trkpt>
      <trkpt lat="42.4431400" lon="-2.2840010">
        <ele>340.8</ele>
        <time>2021-09-29T12:56:35Z</time>
      </trkpt>
      <trkpt lat="42.4431490" lon="-2.2847920">
        <ele>340.6</ele>
        <time>2021-09-29T12:56:44Z</time>
      </trkpt>
      <trkpt lat="42.4432630" lon="-2.2853480">
        <ele>340.8</ele>
        <time>2021-09-29T12:56:51Z</time>
      </trkpt>
      <trkpt lat="42.4434500" lon="-2.2856220">
        <ele>340.8</ele>
        <time>2021-09-29T12:56:56Z</time>
      </trkpt>
      <trkpt lat="42.4435750" lon="-2.2857790">
        <ele>340.8</ele>
        <time>2021-09-29T12:56:59Z</time>
      </trkpt>
      <trkpt lat="42.4437340" lon="-2.2862120">
        <ele>340.8</ele>
        <time>2021-09-29T12:57:05Z</time>
      </trkpt>
      <trkpt lat="42.4439200" lon="-2.2869260">
        <ele>341.0</ele>
        <time>2021-09-29T12:57:15Z</time>
      </trkpt>
      <trkpt lat="42.4443090" lon="-2.2875070">
        <ele>341.4</ele>
        <time>2021-09-29T12:57:25Z</time>
      </trkpt>
      <trkpt lat="42.4445040" lon="-2.2878950">
        <ele>341.6</ele>
        <time>2021-09-29T12:57:31Z</time>
      </trkpt>
      <trkpt lat="42.4445190" lon="-2.2879690">
        <ele>341.8</ele>
        <time>2021-09-29T12:57:32Z</time>
      </trkpt>
      <trkpt lat="42.4445060" lon="-2.2883530">
        <ele>342.6</ele>
        <time>2021-09-29T12:57:37Z</time>
      </trkpt>
      <trkpt lat="42.4445150" lon="-2.2891070">
        <ele>342.8</ele>
        <time>2021-09-29T12:57:47Z</time>
      </trkpt>
      <trkpt lat="42.4445280" lon="-2.2891780">
        <ele>342.8</ele>
        <time>2021-09-29T12:57:48Z</time>
      </trkpt>
      <trkpt lat="42.4445920" lon="-2.2893780">
        <ele>342.8</ele>
        <time>2021-09-29T12:57:51Z</time>
      </trkpt>
      <trkpt lat="42.4446180" lon="-2.2894410">
        <ele>342.8</ele>
        <time>2021-09-29T12:57:52Z</time>
      </trkpt>
      <trkpt lat="42.4446420" lon="-2.2895030">
        <ele>342.8</ele>
        <time>2021-09-29T12:57:53Z</time>
      </trkpt>
      <trkpt lat="42.4447190" lon="-2.2898070">
        <ele>343.8</ele>
        <time>2021-09-29T12:57:58Z</time>
      </trkpt>
      <trkpt lat="42.4447530" lon="-2.2900990">
        <ele>344.6</ele>
        <time>2021-09-29T12:58:03Z</time>
      </trkpt>
      <trkpt lat="42.4447330" lon="-2.2902710">
        <ele>344.8</ele>
        <time>2021-09-29T12:58:06Z</time>
      </trkpt>
      <trkpt lat="42.4447180" lon="-2.2904260">
        <ele>345.0</ele>
        <time>2021-09-29T12:58:09Z</time>
      </trkpt>
      <trkpt lat="42.4447180" lon="-2.2905670">
        <ele>345.4</ele>
        <time>2021-09-29T12:58:12Z</time>
      </trkpt>
      <trkpt lat="42.4448020" lon="-2.2908390">
        <ele>346.0</ele>
        <time>2021-09-29T12:58:18Z</time>
      </trkpt>
      <trkpt lat="42.4450850" lon="-2.2912470">
        <ele>345.6</ele>
        <time>2021-09-29T12:58:28Z</time>
      </trkpt>
      <trkpt lat="42.4451510" lon="-2.2913180">
        <ele>345.6</ele>
        <time>2021-09-29T12:58:30Z</time>
      </trkpt>
      <trkpt lat="42.4451880" lon="-2.2913450">
        <ele>345.6</ele>
        <time>2021-09-29T12:58:31Z</time>
      </trkpt>
      <trkpt lat="42.4453420" lon="-2.2913750">
        <ele>345.6</ele>
        <time>2021-09-29T12:58:35Z</time>
      </trkpt>
      <trkpt lat="42.4453810" lon="-2.2913790">
        <ele>345.6</ele>
        <time>2021-09-29T12:58:36Z</time>
      </trkpt>
      <trkpt lat="42.4458090" lon="-2.2915960">
        <ele>345.2</ele>
        <time>2021-09-29T12:58:50Z</time>
      </trkpt>
      <trkpt lat="42.4459590" lon="-2.2916340">
        <ele>343.6</ele>
        <time>2021-09-29T13:25:47Z</time>
      </trkpt>
      <trkpt lat="42.4459790" lon="-2.2916650">
        <ele>343.6</ele>
        <time>2021-09-29T13:25:48Z</time>
      </trkpt>
      <trkpt lat="42.4460670" lon="-2.2917930">
        <ele>343.8</ele>
        <time>2021-09-29T13:25:52Z</time>
      </trkpt>
      <trkpt lat="42.4462080" lon="-2.2919720">
        <ele>344.0</ele>
        <time>2021-09-29T13:25:59Z</time>
      </trkpt>
      <trkpt lat="42.4462320" lon="-2.2920290">
        <ele>345.4</ele>
        <time>2021-09-29T13:26:37Z</time>
      </trkpt>
      <trkpt lat="42.4462390" lon="-2.2920490">
        <ele>345.4</ele>
        <time>2021-09-29T13:26:38Z</time>
      </trkpt>
      <trkpt lat="42.4462510" lon="-2.2920760">
        <ele>345.4</ele>
        <time>2021-09-29T13:26:39Z</time>
      </trkpt>
      <trkpt lat="42.4462820" lon="-2.2921380">
        <ele>345.4</ele>
        <time>2021-09-29T13:26:41Z</time>
      </trkpt>
      <trkpt lat="42.4463050" lon="-2.2922170">
        <ele>345.2</ele>
        <time>2021-09-29T13:26:43Z</time>
      </trkpt>
      <trkpt lat="42.4463290" lon="-2.2923420">
        <ele>345.2</ele>
        <time>2021-09-29T13:26:45Z</time>
      </trkpt>
      <trkpt lat="42.4463700" lon="-2.2925230">
        <ele>344.6</ele>
        <time>2021-09-29T13:26:48Z</time>
      </trkpt>
      <trkpt lat="42.4463830" lon="-2.2925870">
        <ele>344.4</ele>
        <time>2021-09-29T13:26:49Z</time>
      </trkpt>
      <trkpt lat="42.4463990" lon="-2.2926510">
        <ele>344.0</ele>
        <time>2021-09-29T13:26:50Z</time>
      </trkpt>
      <trkpt lat="42.4464390" lon="-2.2927750">
        <ele>343.2</ele>
        <time>2021-09-29T13:26:52Z</time>
      </trkpt>
      <trkpt lat="42.4464900" lon="-2.2929610">
        <ele>342.8</ele>
        <time>2021-09-29T13:26:55Z</time>
      </trkpt>
      <trkpt lat="42.4465400" lon="-2.2931680">
        <ele>342.8</ele>
        <time>2021-09-29T13:26:58Z</time>
      </trkpt>
      <trkpt lat="42.4466060" lon="-2.2934570">
        <ele>342.6</ele>
        <time>2021-09-29T13:27:02Z</time>
      </trkpt>
      <trkpt lat="42.4467890" lon="-2.2942060">
        <ele>342.8</ele>
        <time>2021-09-29T13:27:13Z</time>
      </trkpt>
      <trkpt lat="42.4468700" lon="-2.2945260">
        <ele>342.8</ele>
        <time>2021-09-29T13:27:18Z</time>
      </trkpt>
      <trkpt lat="42.4469780" lon="-2.2948460">
        <ele>343.0</ele>
        <time>2021-09-29T13:27:23Z</time>
      </trkpt>
      <trkpt lat="42.4472740" lon="-2.2954710">
        <ele>344.0</ele>
        <time>2021-09-29T13:27:34Z</time>
      </trkpt>
      <trkpt lat="42.4473530" lon="-2.2956290">
        <ele>344.2</ele>
        <time>2021-09-29T13:27:37Z</time>
      </trkpt>
      <trkpt lat="42.4474110" lon="-2.2957940">
        <ele>344.4</ele>
        <time>2021-09-29T13:27:40Z</time>
      </trkpt>
      <trkpt lat="42.4474540" lon="-2.2958990">
        <ele>345.2</ele>
        <time>2021-09-29T13:27:42Z</time>
      </trkpt>
      <trkpt lat="42.4474800" lon="-2.2959520">
        <ele>345.4</ele>
        <time>2021-09-29T13:27:43Z</time>
      </trkpt>
      <trkpt lat="42.4475580" lon="-2.2961180">
        <ele>346.6</ele>
        <time>2021-09-29T13:27:46Z</time>
      </trkpt>
      <trkpt lat="42.4477070" lon="-2.2963870">
        <ele>347.0</ele>
        <time>2021-09-29T13:27:51Z</time>
      </trkpt>
      <trkpt lat="42.4480890" lon="-2.2968100">
        <ele>346.6</ele>
        <time>2021-09-29T13:28:00Z</time>
      </trkpt>
      <trkpt lat="42.4485110" lon="-2.2973660">
        <ele>346.0</ele>
        <time>2021-09-29T13:28:10Z</time>
      </trkpt>
      <trkpt lat="42.4486540" lon="-2.2976090">
        <ele>345.8</ele>
        <time>2021-09-29T13:28:14Z</time>
      </trkpt>
      <trkpt lat="42.4487510" lon="-2.2977670">
        <ele>345.8</ele>
        <time>2021-09-29T13:28:17Z</time>
      </trkpt>
      <trkpt lat="42.4488730" lon="-2.2980030">
        <ele>346.2</ele>
        <time>2021-09-29T13:28:22Z</time>
      </trkpt>
      <trkpt lat="42.4489440" lon="-2.2981420">
        <ele>346.4</ele>
        <time>2021-09-29T13:28:25Z</time>
      </trkpt>
      <trkpt lat="42.4490700" lon="-2.2983360">
        <ele>347.0</ele>
        <time>2021-09-29T13:28:29Z</time>
      </trkpt>
      <trkpt lat="42.4491880" lon="-2.2984730">
        <ele>347.2</ele>
        <time>2021-09-29T13:28:32Z</time>
      </trkpt>
      <trkpt lat="42.4496500" lon="-2.2988700">
        <ele>348.2</ele>
        <time>2021-09-29T13:28:42Z</time>
      </trkpt>
      <trkpt lat="42.4500400" lon="-2.2992780">
        <ele>348.4</ele>
        <time>2021-09-29T13:28:51Z</time>
      </trkpt>
      <trkpt lat="42.4503690" lon="-2.2998580">
        <ele>348.6</ele>
        <time>2021-09-29T13:29:01Z</time>
      </trkpt>
      <trkpt lat="42.4505540" lon="-2.3003220">
        <ele>349.2</ele>
        <time>2021-09-29T13:29:08Z</time>
      </trkpt>
      <trkpt lat="42.4506870" lon="-2.3006670">
        <ele>349.2</ele>
        <time>2021-09-29T13:29:13Z</time>
      </trkpt>
      <trkpt lat="42.4509210" lon="-2.3012910">
        <ele>350.0</ele>
        <time>2021-09-29T13:29:23Z</time>
      </trkpt>
      <trkpt lat="42.4509690" lon="-2.3014640">
        <ele>350.4</ele>
        <time>2021-09-29T13:29:26Z</time>
      </trkpt>
      <trkpt lat="42.4510000" lon="-2.3015760">
        <ele>351.6</ele>
        <time>2021-09-29T13:29:28Z</time>
      </trkpt>
      <trkpt lat="42.4510260" lon="-2.3016920">
        <ele>353.0</ele>
        <time>2021-09-29T13:29:30Z</time>
      </trkpt>
      <trkpt lat="42.4510430" lon="-2.3018080">
        <ele>354.0</ele>
        <time>2021-09-29T13:29:32Z</time>
      </trkpt>
      <trkpt lat="42.4510430" lon="-2.3018670">
        <ele>354.2</ele>
        <time>2021-09-29T13:29:33Z</time>
      </trkpt>
      <trkpt lat="42.4509970" lon="-2.3020840">
        <ele>355.4</ele>
        <time>2021-09-29T13:29:37Z</time>
      </trkpt>
      <trkpt lat="42.4509540" lon="-2.3021880">
        <ele>355.6</ele>
        <time>2021-09-29T13:29:39Z</time>
      </trkpt>
      <trkpt lat="42.4507880" lon="-2.3025800">
        <ele>356.4</ele>
        <time>2021-09-29T13:29:46Z</time>
      </trkpt>
      <trkpt lat="42.4505380" lon="-2.3032300">
        <ele>357.4</ele>
        <time>2021-09-29T13:29:57Z</time>
      </trkpt>
      <trkpt lat="42.4504900" lon="-2.3033490">
        <ele>357.4</ele>
        <time>2021-09-29T13:29:59Z</time>
      </trkpt>
      <trkpt lat="42.4502240" lon="-2.3040190">
        <ele>357.8</ele>
        <time>2021-09-29T13:30:10Z</time>
      </trkpt>
      <trkpt lat="42.4499090" lon="-2.3046720">
        <ele>357.8</ele>
        <time>2021-09-29T13:30:21Z</time>
      </trkpt>
      <trkpt lat="42.4496120" lon="-2.3049850">
        <ele>358.0</ele>
        <time>2021-09-29T13:30:28Z</time>
      </trkpt>
      <trkpt lat="42.4494610" lon="-2.3050620">
        <ele>358.0</ele>
        <time>2021-09-29T13:30:31Z</time>
      </trkpt>
      <trkpt lat="42.4492550" lon="-2.3051590">
        <ele>358.2</ele>
        <time>2021-09-29T13:30:35Z</time>
      </trkpt>
      <trkpt lat="42.4490360" lon="-2.3052110">
        <ele>358.2</ele>
        <time>2021-09-29T13:30:39Z</time>
      </trkpt>
      <trkpt lat="42.4489180" lon="-2.3052260">
        <ele>358.2</ele>
        <time>2021-09-29T13:30:41Z</time>
      </trkpt>
      <trkpt lat="42.4488560" lon="-2.3052400">
        <ele>358.2</ele>
        <time>2021-09-29T13:30:42Z</time>
      </trkpt>
      <trkpt lat="42.4486140" lon="-2.3054250">
        <ele>358.0</ele>
        <time>2021-09-29T13:30:46Z</time>
      </trkpt>
      <trkpt lat="42.4485590" lon="-2.3054900">
        <ele>357.8</ele>
        <time>2021-09-29T13:30:47Z</time>
      </trkpt>
      <trkpt lat="42.4485040" lon="-2.3055570">
        <ele>357.4</ele>
        <time>2021-09-29T13:30:48Z</time>
      </trkpt>
      <trkpt lat="42.4484460" lon="-2.3056250">
        <ele>356.6</ele>
        <time>2021-09-29T13:30:49Z</time>
      </trkpt>
      <trkpt lat="42.4483870" lon="-2.3056930">
        <ele>355.2</ele>
        <time>2021-09-29T13:30:50Z</time>
      </trkpt>
      <trkpt lat="42.4482580" lon="-2.3058260">
        <ele>354.2</ele>
        <time>2021-09-29T13:30:52Z</time>
      </trkpt>
      <trkpt lat="42.4480100" lon="-2.3061290">
        <ele>353.6</ele>
        <time>2021-09-29T13:30:56Z</time>
      </trkpt>
      <trkpt lat="42.4479210" lon="-2.3063110">
        <ele>352.6</ele>
        <time>2021-09-29T13:30:58Z</time>
      </trkpt>
      <trkpt lat="42.4478810" lon="-2.3063910">
        <ele>352.0</ele>
        <time>2021-09-29T13:30:59Z</time>
      </trkpt>
      <trkpt lat="42.4477860" lon="-2.3065080">
        <ele>351.6</ele>
        <time>2021-09-29T13:31:02Z</time>
      </trkpt>
      <trkpt lat="42.4477500" lon="-2.3065200">
        <ele>351.4</ele>
        <time>2021-09-29T13:31:04Z</time>
      </trkpt>
      <trkpt lat="42.4477290" lon="-2.3065190">
        <ele>351.4</ele>
        <time>2021-09-29T13:31:05Z</time>
      </trkpt>
      <trkpt lat="42.4476210" lon="-2.3065260">
        <ele>352.6</ele>
        <time>2021-09-29T13:31:10Z</time>
      </trkpt>
      <trkpt lat="42.4475370" lon="-2.3065450">
        <ele>352.8</ele>
        <time>2021-09-29T13:31:13Z</time>
      </trkpt>
      <trkpt lat="42.4474560" lon="-2.3066700">
        <ele>352.8</ele>
        <time>2021-09-29T13:31:16Z</time>
      </trkpt>
      <trkpt lat="42.4473300" lon="-2.3068960">
        <ele>352.8</ele>
        <time>2021-09-29T13:31:20Z</time>
      </trkpt>
      <trkpt lat="42.4472370" lon="-2.3070610">
        <ele>352.6</ele>
        <time>2021-09-29T13:31:23Z</time>
      </trkpt>
      <trkpt lat="42.4471710" lon="-2.3071790">
        <ele>352.4</ele>
        <time>2021-09-29T13:31:25Z</time>
      </trkpt>
      <trkpt lat="42.4469460" lon="-2.3074850">
        <ele>352.4</ele>
        <time>2021-09-29T13:31:31Z</time>
      </trkpt>
      <trkpt lat="42.4465030" lon="-2.3079260">
        <ele>352.8</ele>
        <time>2021-09-29T13:31:41Z</time>
      </trkpt>
      <trkpt lat="42.4460430" lon="-2.3083570">
        <ele>353.0</ele>
        <time>2021-09-29T13:31:51Z</time>
      </trkpt>
      <trkpt lat="42.4459290" lon="-2.3085140">
        <ele>353.2</ele>
        <time>2021-09-29T13:31:54Z</time>
      </trkpt>
      <trkpt lat="42.4458570" lon="-2.3089340">
        <ele>353.2</ele>
        <time>2021-09-29T13:32:00Z</time>
      </trkpt>
      <trkpt lat="42.4460420" lon="-2.3091650">
        <ele>353.2</ele>
        <time>2021-09-29T13:32:05Z</time>
      </trkpt>
      <trkpt lat="42.4460900" lon="-2.3092000">
        <ele>353.2</ele>
        <time>2021-09-29T13:32:06Z</time>
      </trkpt>
      <trkpt lat="42.4462350" lon="-2.3094110">
        <ele>353.0</ele>
        <time>2021-09-29T13:32:10Z</time>
      </trkpt>
      <trkpt lat="42.4463570" lon="-2.3096400">
        <ele>352.8</ele>
        <time>2021-09-29T13:32:15Z</time>
      </trkpt>
      <trkpt lat="42.4463990" lon="-2.3097030">
        <ele>352.8</ele>
        <time>2021-09-29T13:32:17Z</time>
      </trkpt>
      <trkpt lat="42.4464370" lon="-2.3097430">
        <ele>352.8</ele>
        <time>2021-09-29T13:32:19Z</time>
      </trkpt>
      <trkpt lat="42.4464490" lon="-2.3097670">
        <ele>352.8</ele>
        <time>2021-09-29T13:32:20Z</time>
      </trkpt>
      <trkpt lat="42.4463910" lon="-2.3097250">
        <ele>353.6</ele>
        <time>2021-09-29T13:32:26Z</time>
      </trkpt>
      <trkpt lat="42.4463130" lon="-2.3095370">
        <ele>353.6</ele>
        <time>2021-09-29T13:32:30Z</time>
      </trkpt>
      <trkpt lat="42.4462650" lon="-2.3094230">
        <ele>353.6</ele>
        <time>2021-09-29T13:32:32Z</time>
      </trkpt>
      <trkpt lat="42.4458450" lon="-2.3090760">
        <ele>353.4</ele>
        <time>2021-09-29T13:32:44Z</time>
      </trkpt>
      <trkpt lat="42.4458310" lon="-2.3092930">
        <ele>353.6</ele>
        <time>2021-09-29T13:32:49Z</time>
      </trkpt>
      <trkpt lat="42.4458580" lon="-2.3093940">
        <ele>353.8</ele>
        <time>2021-09-29T13:32:51Z</time>
      </trkpt>
      <trkpt lat="42.4458740" lon="-2.3094430">
        <ele>354.0</ele>
        <time>2021-09-29T13:32:52Z</time>
      </trkpt>
      <trkpt lat="42.4459020" lon="-2.3095500">
        <ele>354.2</ele>
        <time>2021-09-29T13:32:54Z</time>
      </trkpt>
      <trkpt lat="42.4459240" lon="-2.3096550">
        <ele>354.4</ele>
        <time>2021-09-29T13:32:56Z</time>
      </trkpt>
      <trkpt lat="42.4459520" lon="-2.3097980">
        <ele>355.0</ele>
        <time>2021-09-29T13:32:59Z</time>
      </trkpt>
      <trkpt lat="42.4459890" lon="-2.3099820">
        <ele>356.2</ele>
        <time>2021-09-29T13:33:03Z</time>
      </trkpt>
      <trkpt lat="42.4460050" lon="-2.3101230">
        <ele>357.4</ele>
        <time>2021-09-29T13:33:06Z</time>
      </trkpt>
      <trkpt lat="42.4460050" lon="-2.3103260">
        <ele>358.4</ele>
        <time>2021-09-29T13:33:11Z</time>
      </trkpt>
      <trkpt lat="42.4459930" lon="-2.3104150">
        <ele>359.6</ele>
        <time>2021-09-29T13:33:15Z</time>
      </trkpt>
      <trkpt lat="42.4459930" lon="-2.3104360">
        <ele>360.6</ele>
        <time>2021-09-29T13:33:19Z</time>
      </trkpt>
      <trkpt lat="42.4459780" lon="-2.3104830">
        <ele>361.2</ele>
        <time>2021-09-29T13:34:10Z</time>
      </trkpt>
      <trkpt lat="42.4459790" lon="-2.3105130">
        <ele>361.4</ele>
        <time>2021-09-29T13:34:11Z</time>
      </trkpt>
      <trkpt lat="42.4459800" lon="-2.3105920">
        <ele>361.4</ele>
        <time>2021-09-29T13:34:13Z</time>
      </trkpt>
      <trkpt lat="42.4459750" lon="-2.3107010">
        <ele>361.2</ele>
        <time>2021-09-29T13:34:15Z</time>
      </trkpt>
      <trkpt lat="42.4459730" lon="-2.3108340">
        <ele>361.2</ele>
        <time>2021-09-29T13:34:17Z</time>
      </trkpt>
      <trkpt lat="42.4459710" lon="-2.3110600">
        <ele>360.8</ele>
        <time>2021-09-29T13:34:20Z</time>
      </trkpt>
      <trkpt lat="42.4459730" lon="-2.3113010">
        <ele>360.0</ele>
        <time>2021-09-29T13:34:23Z</time>
      </trkpt>
      <trkpt lat="42.4459760" lon="-2.3116270">
        <ele>359.0</ele>
        <time>2021-09-29T13:34:27Z</time>
      </trkpt>
      <trkpt lat="42.4460920" lon="-2.3121910">
        <ele>358.4</ele>
        <time>2021-09-29T13:34:34Z</time>
      </trkpt>
      <trkpt lat="42.4462180" lon="-2.3124760">
        <ele>358.4</ele>
        <time>2021-09-29T13:34:38Z</time>
      </trkpt>
      <trkpt lat="42.4463610" lon="-2.3127250">
        <ele>358.4</ele>
        <time>2021-09-29T13:34:42Z</time>
      </trkpt>
      <trkpt lat="42.4467110" lon="-2.3132420">
        <ele>359.0</ele>
        <time>2021-09-29T13:34:51Z</time>
      </trkpt>
      <trkpt lat="42.4468670" lon="-2.3134700">
        <ele>360.0</ele>
        <time>2021-09-29T13:34:55Z</time>
      </trkpt>
      <trkpt lat="42.4471020" lon="-2.3138110">
        <ele>361.0</ele>
        <time>2021-09-29T13:35:01Z</time>
      </trkpt>
      <trkpt lat="42.4473690" lon="-2.3142110">
        <ele>362.2</ele>
        <time>2021-09-29T13:35:08Z</time>
      </trkpt>
      <trkpt lat="42.4477580" lon="-2.3147590">
        <ele>362.8</ele>
        <time>2021-09-29T13:35:18Z</time>
      </trkpt>
      <trkpt lat="42.4481710" lon="-2.3153220">
        <ele>363.0</ele>
        <time>2021-09-29T13:35:28Z</time>
      </trkpt>
      <trkpt lat="42.4485450" lon="-2.3158610">
        <ele>363.0</ele>
        <time>2021-09-29T13:35:37Z</time>
      </trkpt>
      <trkpt lat="42.4489480" lon="-2.3164450">
        <ele>363.0</ele>
        <time>2021-09-29T13:35:47Z</time>
      </trkpt>
      <trkpt lat="42.4493060" lon="-2.3168510">
        <ele>363.4</ele>
        <time>2021-09-29T13:35:55Z</time>
      </trkpt>
      <trkpt lat="42.4495250" lon="-2.3170450">
        <ele>364.2</ele>
        <time>2021-09-29T13:36:00Z</time>
      </trkpt>
      <trkpt lat="42.4496010" lon="-2.3171050">
        <ele>364.6</ele>
        <time>2021-09-29T13:36:02Z</time>
      </trkpt>
      <trkpt lat="42.4496720" lon="-2.3171580">
        <ele>365.6</ele>
        <time>2021-09-29T13:36:04Z</time>
      </trkpt>
      <trkpt lat="42.4497700" lon="-2.3172300">
        <ele>366.6</ele>
        <time>2021-09-29T13:36:07Z</time>
      </trkpt>
      <trkpt lat="42.4498400" lon="-2.3173240">
        <ele>368.0</ele>
        <time>2021-09-29T13:36:10Z</time>
      </trkpt>
      <trkpt lat="42.4498490" lon="-2.3174090">
        <ele>369.0</ele>
        <time>2021-09-29T13:36:12Z</time>
      </trkpt>
      <trkpt lat="42.4498330" lon="-2.3176270">
        <ele>370.2</ele>
        <time>2021-09-29T13:36:17Z</time>
      </trkpt>
      <trkpt lat="42.4498710" lon="-2.3177810">
        <ele>370.8</ele>
        <time>2021-09-29T13:36:20Z</time>
      </trkpt>
      <trkpt lat="42.4498390" lon="-2.3181020">
        <ele>371.4</ele>
        <time>2021-09-29T13:36:25Z</time>
      </trkpt>
      <trkpt lat="42.4497570" lon="-2.3186050">
        <ele>371.0</ele>
        <time>2021-09-29T13:36:31Z</time>
      </trkpt>
      <trkpt lat="42.4497250" lon="-2.3189050">
        <ele>370.6</ele>
        <time>2021-09-29T13:36:34Z</time>
      </trkpt>
      <trkpt lat="42.4497040" lon="-2.3191170">
        <ele>370.0</ele>
        <time>2021-09-29T13:36:36Z</time>
      </trkpt>
      <trkpt lat="42.4496840" lon="-2.3193270">
        <ele>369.0</ele>
        <time>2021-09-29T13:36:38Z</time>
      </trkpt>
      <trkpt lat="42.4496710" lon="-2.3195320">
        <ele>367.2</ele>
        <time>2021-09-29T13:36:40Z</time>
      </trkpt>
      <trkpt lat="42.4496540" lon="-2.3197390">
        <ele>366.0</ele>
        <time>2021-09-29T13:36:42Z</time>
      </trkpt>
      <trkpt lat="42.4496350" lon="-2.3199460">
        <ele>364.8</ele>
        <time>2021-09-29T13:36:44Z</time>
      </trkpt>
      <trkpt lat="42.4495870" lon="-2.3204730">
        <ele>363.6</ele>
        <time>2021-09-29T13:36:49Z</time>
      </trkpt>
      <trkpt lat="42.4495360" lon="-2.3210060">
        <ele>362.6</ele>
        <time>2021-09-29T13:36:54Z</time>
      </trkpt>
      <trkpt lat="42.4494930" lon="-2.3214290">
        <ele>361.2</ele>
        <time>2021-09-29T13:36:58Z</time>
      </trkpt>
      <trkpt lat="42.4494240" lon="-2.3220620">
        <ele>360.4</ele>
        <time>2021-09-29T13:37:04Z</time>
      </trkpt>
      <trkpt lat="42.4494130" lon="-2.3221670">
        <ele>360.2</ele>
        <time>2021-09-29T13:37:05Z</time>
      </trkpt>
      <trkpt lat="42.4493290" lon="-2.3229120">
        <ele>359.8</ele>
        <time>2021-09-29T13:37:12Z</time>
      </trkpt>
      <trkpt lat="42.4492590" lon="-2.3236680">
        <ele>359.2</ele>
        <time>2021-09-29T13:37:19Z</time>
      </trkpt>
      <trkpt lat="42.4492480" lon="-2.3237770">
        <ele>359.0</ele>
        <time>2021-09-29T13:37:20Z</time>
      </trkpt>
      <trkpt lat="42.4492050" lon="-2.3244090">
        <ele>358.0</ele>
        <time>2021-09-29T13:37:26Z</time>
      </trkpt>
      <trkpt lat="42.4491930" lon="-2.3247140">
        <ele>356.6</ele>
        <time>2021-09-29T13:37:29Z</time>
      </trkpt>
      <trkpt lat="42.4491980" lon="-2.3254930">
        <ele>355.8</ele>
        <time>2021-09-29T13:37:37Z</time>
      </trkpt>
      <trkpt lat="42.4492220" lon="-2.3259760">
        <ele>356.6</ele>
        <time>2021-09-29T13:37:42Z</time>
      </trkpt>
      <trkpt lat="42.4492410" lon="-2.3262590">
        <ele>357.6</ele>
        <time>2021-09-29T13:37:45Z</time>
      </trkpt>
      <trkpt lat="42.4492900" lon="-2.3270000">
        <ele>358.4</ele>
        <time>2021-09-29T13:37:53Z</time>
      </trkpt>
      <trkpt lat="42.4493000" lon="-2.3271890">
        <ele>358.6</ele>
        <time>2021-09-29T13:37:55Z</time>
      </trkpt>
      <trkpt lat="42.4493310" lon="-2.3276790">
        <ele>359.8</ele>
        <time>2021-09-29T13:38:00Z</time>
      </trkpt>
      <trkpt lat="42.4493730" lon="-2.3284970">
        <ele>360.6</ele>
        <time>2021-09-29T13:38:08Z</time>
      </trkpt>
      <trkpt lat="42.4494010" lon="-2.3292110">
        <ele>360.0</ele>
        <time>2021-09-29T13:38:15Z</time>
      </trkpt>
      <trkpt lat="42.4494290" lon="-2.3299680">
        <ele>359.0</ele>
        <time>2021-09-29T13:38:23Z</time>
      </trkpt>
      <trkpt lat="42.4494430" lon="-2.3304150">
        <ele>358.0</ele>
        <time>2021-09-29T13:38:28Z</time>
      </trkpt>
      <trkpt lat="42.4494560" lon="-2.3311940">
        <ele>358.0</ele>
        <time>2021-09-29T13:38:37Z</time>
      </trkpt>
      <trkpt lat="42.4494610" lon="-2.3316150">
        <ele>359.0</ele>
        <time>2021-09-29T13:38:42Z</time>
      </trkpt>
      <trkpt lat="42.4494750" lon="-2.3323600">
        <ele>359.2</ele>
        <time>2021-09-29T13:38:51Z</time>
      </trkpt>
      <trkpt lat="42.4494810" lon="-2.3329240">
        <ele>360.2</ele>
        <time>2021-09-29T13:38:58Z</time>
      </trkpt>
      <trkpt lat="42.4494900" lon="-2.3336630">
        <ele>361.0</ele>
        <time>2021-09-29T13:39:07Z</time>
      </trkpt>
      <trkpt lat="42.4494990" lon="-2.3343340">
        <ele>359.8</ele>
        <time>2021-09-29T13:39:15Z</time>
      </trkpt>
      <trkpt lat="42.4495040" lon="-2.3345860">
        <ele>359.2</ele>
        <time>2021-09-29T13:39:18Z</time>
      </trkpt>
      <trkpt lat="42.4495200" lon="-2.3352690">
        <ele>358.6</ele>
        <time>2021-09-29T13:39:26Z</time>
      </trkpt>
      <trkpt lat="42.4495230" lon="-2.3360430">
        <ele>358.4</ele>
        <time>2021-09-29T13:39:35Z</time>
      </trkpt>
      <trkpt lat="42.4495260" lon="-2.3363030">
        <ele>358.2</ele>
        <time>2021-09-29T13:39:38Z</time>
      </trkpt>
      <trkpt lat="42.4495360" lon="-2.3370770">
        <ele>358.0</ele>
        <time>2021-09-29T13:39:47Z</time>
      </trkpt>
      <trkpt lat="42.4495500" lon="-2.3378560">
        <ele>357.6</ele>
        <time>2021-09-29T13:39:56Z</time>
      </trkpt>
      <trkpt lat="42.4495600" lon="-2.3384440">
        <ele>357.2</ele>
        <time>2021-09-29T13:40:03Z</time>
      </trkpt>
      <trkpt lat="42.4495610" lon="-2.3385250">
        <ele>357.0</ele>
        <time>2021-09-29T13:40:04Z</time>
      </trkpt>
      <trkpt lat="42.4495730" lon="-2.3392830">
        <ele>357.2</ele>
        <time>2021-09-29T13:40:13Z</time>
      </trkpt>
      <trkpt lat="42.4495840" lon="-2.3400450">
        <ele>357.6</ele>
        <time>2021-09-29T13:40:22Z</time>
      </trkpt>
      <trkpt lat="42.4495900" lon="-2.3408190">
        <ele>357.6</ele>
        <time>2021-09-29T13:40:31Z</time>
      </trkpt>
      <trkpt lat="42.4496020" lon="-2.3416140">
        <ele>357.4</ele>
        <time>2021-09-29T13:40:40Z</time>
      </trkpt>
      <trkpt lat="42.4496090" lon="-2.3424220">
        <ele>356.6</ele>
        <time>2021-09-29T13:40:49Z</time>
      </trkpt>
      <trkpt lat="42.4496190" lon="-2.3432360">
        <ele>356.6</ele>
        <time>2021-09-29T13:40:58Z</time>
      </trkpt>
      <trkpt lat="42.4496300" lon="-2.3440470">
        <ele>356.8</ele>
        <time>2021-09-29T13:41:07Z</time>
      </trkpt>
      <trkpt lat="42.4496390" lon="-2.3448400">
        <ele>357.2</ele>
        <time>2021-09-29T13:41:16Z</time>
      </trkpt>
      <trkpt lat="42.4496520" lon="-2.3456170">
        <ele>357.8</ele>
        <time>2021-09-29T13:41:25Z</time>
      </trkpt>
      <trkpt lat="42.4496590" lon="-2.3458750">
        <ele>358.2</ele>
        <time>2021-09-29T13:41:28Z</time>
      </trkpt>
      <trkpt lat="42.4496610" lon="-2.3466620">
        <ele>358.2</ele>
        <time>2021-09-29T13:41:37Z</time>
      </trkpt>
      <trkpt lat="42.4496780" lon="-2.3474330">
        <ele>358.2</ele>
        <time>2021-09-29T13:41:46Z</time>
      </trkpt>
      <trkpt lat="42.4497140" lon="-2.3481610">
        <ele>358.4</ele>
        <time>2021-09-29T13:41:55Z</time>
      </trkpt>
      <trkpt lat="42.4497540" lon="-2.3487630">
        <ele>359.4</ele>
        <time>2021-09-29T13:42:03Z</time>
      </trkpt>
      <trkpt lat="42.4498080" lon="-2.3495080">
        <ele>360.4</ele>
        <time>2021-09-29T13:42:13Z</time>
      </trkpt>
      <trkpt lat="42.4498240" lon="-2.3497350">
        <ele>361.6</ele>
        <time>2021-09-29T13:42:16Z</time>
      </trkpt>
      <trkpt lat="42.4498940" lon="-2.3505080">
        <ele>362.4</ele>
        <time>2021-09-29T13:42:25Z</time>
      </trkpt>
      <trkpt lat="42.4499870" lon="-2.3513010">
        <ele>362.4</ele>
        <time>2021-09-29T13:42:36Z</time>
      </trkpt>
      <trkpt lat="42.4501010" lon="-2.3519910">
        <ele>362.6</ele>
        <time>2021-09-29T13:42:45Z</time>
      </trkpt>
      <trkpt lat="42.4501590" lon="-2.3522880">
        <ele>364.0</ele>
        <time>2021-09-29T13:42:49Z</time>
      </trkpt>
      <trkpt lat="42.4502350" lon="-2.3526370">
        <ele>364.8</ele>
        <time>2021-09-29T13:42:54Z</time>
      </trkpt>
      <trkpt lat="42.4502650" lon="-2.3527700">
        <ele>365.2</ele>
        <time>2021-09-29T13:42:56Z</time>
      </trkpt>
      <trkpt lat="42.4503560" lon="-2.3530950">
        <ele>366.0</ele>
        <time>2021-09-29T13:43:01Z</time>
      </trkpt>
      <trkpt lat="42.4504180" lon="-2.3532160">
        <ele>366.2</ele>
        <time>2021-09-29T13:43:03Z</time>
      </trkpt>
      <trkpt lat="42.4505440" lon="-2.3535470">
        <ele>367.0</ele>
        <time>2021-09-29T13:43:08Z</time>
      </trkpt>
      <trkpt lat="42.4506170" lon="-2.3538180">
        <ele>367.4</ele>
        <time>2021-09-29T13:43:12Z</time>
      </trkpt>
      <trkpt lat="42.4507450" lon="-2.3542280">
        <ele>368.2</ele>
        <time>2021-09-29T13:43:18Z</time>
      </trkpt>
      <trkpt lat="42.4507690" lon="-2.3542960">
        <ele>368.4</ele>
        <time>2021-09-29T13:43:19Z</time>
      </trkpt>
      <trkpt lat="42.4509480" lon="-2.3547690">
        <ele>369.6</ele>
        <time>2021-09-29T13:43:26Z</time>
      </trkpt>
      <trkpt lat="42.4511470" lon="-2.3552480">
        <ele>370.6</ele>
        <time>2021-09-29T13:43:33Z</time>
      </trkpt>
      <trkpt lat="42.4513910" lon="-2.3557760">
        <ele>371.6</ele>
        <time>2021-09-29T13:43:41Z</time>
      </trkpt>
      <trkpt lat="42.4517260" lon="-2.3564220">
        <ele>371.6</ele>
        <time>2021-09-29T13:43:51Z</time>
      </trkpt>
      <trkpt lat="42.4520810" lon="-2.3570040">
        <ele>372.4</ele>
        <time>2021-09-29T13:43:59Z</time>
      </trkpt>
      <trkpt lat="42.4524760" lon="-2.3575590">
        <ele>372.8</ele>
        <time>2021-09-29T13:44:09Z</time>
      </trkpt>
      <trkpt lat="42.4527180" lon="-2.3578730">
        <ele>372.8</ele>
        <time>2021-09-29T13:44:14Z</time>
      </trkpt>
      <trkpt lat="42.4528690" lon="-2.3580570">
        <ele>372.8</ele>
        <time>2021-09-29T13:44:17Z</time>
      </trkpt>
      <trkpt lat="42.4530250" lon="-2.3582320">
        <ele>372.8</ele>
        <time>2021-09-29T13:44:20Z</time>
      </trkpt>
      <trkpt lat="42.4532980" lon="-2.3585310">
        <ele>372.6</ele>
        <time>2021-09-29T13:44:25Z</time>
      </trkpt>
      <trkpt lat="42.4534630" lon="-2.3587010">
        <ele>372.6</ele>
        <time>2021-09-29T13:44:28Z</time>
      </trkpt>
      <trkpt lat="42.4539180" lon="-2.3591260">
        <ele>371.4</ele>
        <time>2021-09-29T13:44:36Z</time>
      </trkpt>
      <trkpt lat="42.4540280" lon="-2.3592250">
        <ele>371.2</ele>
        <time>2021-09-29T13:44:38Z</time>
      </trkpt>
      <trkpt lat="42.4542380" lon="-2.3594080">
        <ele>370.6</ele>
        <time>2021-09-29T13:44:42Z</time>
      </trkpt>
      <trkpt lat="42.4545020" lon="-2.3596330">
        <ele>369.4</ele>
        <time>2021-09-29T13:44:47Z</time>
      </trkpt>
      <trkpt lat="42.4547780" lon="-2.3598650">
        <ele>368.6</ele>
        <time>2021-09-29T13:44:52Z</time>
      </trkpt>
      <trkpt lat="42.4550600" lon="-2.3601080">
        <ele>368.4</ele>
        <time>2021-09-29T13:44:57Z</time>
      </trkpt>
      <trkpt lat="42.4555540" lon="-2.3605660">
        <ele>368.0</ele>
        <time>2021-09-29T13:45:06Z</time>
      </trkpt>
      <trkpt lat="42.4559890" lon="-2.3610140">
        <ele>367.6</ele>
        <time>2021-09-29T13:45:14Z</time>
      </trkpt>
      <trkpt lat="42.4562540" lon="-2.3613140">
        <ele>367.4</ele>
        <time>2021-09-29T13:45:19Z</time>
      </trkpt>
      <trkpt lat="42.4566580" lon="-2.3618290">
        <ele>367.0</ele>
        <time>2021-09-29T13:45:27Z</time>
      </trkpt>
      <trkpt lat="42.4568980" lon="-2.3621600">
        <ele>366.6</ele>
        <time>2021-09-29T13:45:32Z</time>
      </trkpt>
      <trkpt lat="42.4571720" lon="-2.3625650">
        <ele>365.6</ele>
        <time>2021-09-29T13:45:38Z</time>
      </trkpt>
      <trkpt lat="42.4573870" lon="-2.3629180">
        <ele>364.4</ele>
        <time>2021-09-29T13:45:43Z</time>
      </trkpt>
      <trkpt lat="42.4577090" lon="-2.3635120">
        <ele>364.2</ele>
        <time>2021-09-29T13:45:51Z</time>
      </trkpt>
      <trkpt lat="42.4577850" lon="-2.3636640">
        <ele>364.2</ele>
        <time>2021-09-29T13:45:53Z</time>
      </trkpt>
      <trkpt lat="42.4581070" lon="-2.3643480">
        <ele>363.8</ele>
        <time>2021-09-29T13:46:02Z</time>
      </trkpt>
      <trkpt lat="42.4581740" lon="-2.3645050">
        <ele>363.4</ele>
        <time>2021-09-29T13:46:04Z</time>
      </trkpt>
      <trkpt lat="42.4583900" lon="-2.3650500">
        <ele>362.4</ele>
        <time>2021-09-29T13:46:11Z</time>
      </trkpt>
      <trkpt lat="42.4586390" lon="-2.3657670">
        <ele>361.6</ele>
        <time>2021-09-29T13:46:20Z</time>
      </trkpt>
      <trkpt lat="42.4587430" lon="-2.3660850">
        <ele>361.4</ele>
        <time>2021-09-29T13:46:24Z</time>
      </trkpt>
      <trkpt lat="42.4589730" lon="-2.3667990">
        <ele>361.0</ele>
        <time>2021-09-29T13:46:33Z</time>
      </trkpt>
      <trkpt lat="42.4591600" lon="-2.3673790">
        <ele>361.0</ele>
        <time>2021-09-29T13:46:40Z</time>
      </trkpt>
      <trkpt lat="42.4593600" lon="-2.3679660">
        <ele>360.8</ele>
        <time>2021-09-29T13:46:47Z</time>
      </trkpt>
      <trkpt lat="42.4594380" lon="-2.3682010">
        <ele>360.6</ele>
        <time>2021-09-29T13:46:50Z</time>
      </trkpt>
      <trkpt lat="42.4595550" lon="-2.3686390">
        <ele>360.4</ele>
        <time>2021-09-29T13:46:55Z</time>
      </trkpt>
      <trkpt lat="42.4596410" lon="-2.3689180">
        <ele>360.4</ele>
        <time>2021-09-29T13:46:58Z</time>
      </trkpt>
      <trkpt lat="42.4597000" lon="-2.3691000">
        <ele>360.2</ele>
        <time>2021-09-29T13:47:00Z</time>
      </trkpt>
      <trkpt lat="42.4598160" lon="-2.3694570">
        <ele>360.2</ele>
        <time>2021-09-29T13:47:04Z</time>
      </trkpt>
      <trkpt lat="42.4600050" lon="-2.3700230">
        <ele>360.2</ele>
        <time>2021-09-29T13:47:11Z</time>
      </trkpt>
      <trkpt lat="42.4602070" lon="-2.3706840">
        <ele>361.4</ele>
        <time>2021-09-29T13:47:20Z</time>
      </trkpt>
      <trkpt lat="42.4602860" lon="-2.3709770">
        <ele>362.4</ele>
        <time>2021-09-29T13:47:24Z</time>
      </trkpt>
      <trkpt lat="42.4603810" lon="-2.3713540">
        <ele>363.4</ele>
        <time>2021-09-29T13:47:29Z</time>
      </trkpt>
      <trkpt lat="42.4605280" lon="-2.3721000">
        <ele>364.0</ele>
        <time>2021-09-29T13:47:39Z</time>
      </trkpt>
      <trkpt lat="42.4605590" lon="-2.3723140">
        <ele>364.6</ele>
        <time>2021-09-29T13:47:42Z</time>
      </trkpt>
      <trkpt lat="42.4606160" lon="-2.3727590">
        <ele>365.8</ele>
        <time>2021-09-29T13:47:48Z</time>
      </trkpt>
      <trkpt lat="42.4606690" lon="-2.3733700">
        <ele>367.2</ele>
        <time>2021-09-29T13:47:56Z</time>
      </trkpt>
      <trkpt lat="42.4606920" lon="-2.3740580">
        <ele>368.2</ele>
        <time>2021-09-29T13:48:05Z</time>
      </trkpt>
      <trkpt lat="42.4606860" lon="-2.3745440">
        <ele>369.2</ele>
        <time>2021-09-29T13:48:12Z</time>
      </trkpt>
      <trkpt lat="42.4606830" lon="-2.3746110">
        <ele>369.2</ele>
        <time>2021-09-29T13:48:13Z</time>
      </trkpt>
      <trkpt lat="42.4606720" lon="-2.3748250">
        <ele>370.4</ele>
        <time>2021-09-29T13:48:16Z</time>
      </trkpt>
      <trkpt lat="42.4606700" lon="-2.3750450">
        <ele>370.8</ele>
        <time>2021-09-29T13:48:19Z</time>
      </trkpt>
      <trkpt lat="42.4607090" lon="-2.3752800">
        <ele>371.2</ele>
        <time>2021-09-29T13:48:22Z</time>
      </trkpt>
      <trkpt lat="42.4607070" lon="-2.3754370">
        <ele>371.6</ele>
        <time>2021-09-29T13:48:24Z</time>
      </trkpt>
      <trkpt lat="42.4606250" lon="-2.3759820">
        <ele>372.6</ele>
        <time>2021-09-29T13:48:31Z</time>
      </trkpt>
      <trkpt lat="42.4604880" lon="-2.3767080">
        <ele>373.0</ele>
        <time>2021-09-29T13:48:40Z</time>
      </trkpt>
      <trkpt lat="42.4603310" lon="-2.3773410">
        <ele>373.6</ele>
        <time>2021-09-29T13:48:48Z</time>
      </trkpt>
      <trkpt lat="42.4601180" lon="-2.3780260">
        <ele>374.6</ele>
        <time>2021-09-29T13:48:57Z</time>
      </trkpt>
      <trkpt lat="42.4600080" lon="-2.3783270">
        <ele>374.6</ele>
        <time>2021-09-29T13:49:01Z</time>
      </trkpt>
      <trkpt lat="42.4597470" lon="-2.3790050">
        <ele>374.8</ele>
        <time>2021-09-29T13:49:10Z</time>
      </trkpt>
      <trkpt lat="42.4594970" lon="-2.3797040">
        <ele>375.0</ele>
        <time>2021-09-29T13:49:19Z</time>
      </trkpt>
      <trkpt lat="42.4592710" lon="-2.3804090">
        <ele>375.6</ele>
        <time>2021-09-29T13:49:28Z</time>
      </trkpt>
      <trkpt lat="42.4592490" lon="-2.3804880">
        <ele>375.8</ele>
        <time>2021-09-29T13:49:29Z</time>
      </trkpt>
      <trkpt lat="42.4591170" lon="-2.3809660">
        <ele>376.8</ele>
        <time>2021-09-29T13:49:35Z</time>
      </trkpt>
      <trkpt lat="42.4590030" lon="-2.3814460">
        <ele>377.8</ele>
        <time>2021-09-29T13:49:41Z</time>
      </trkpt>
      <trkpt lat="42.4589070" lon="-2.3819480">
        <ele>379.0</ele>
        <time>2021-09-29T13:49:47Z</time>
      </trkpt>
      <trkpt lat="42.4587960" lon="-2.3827100">
        <ele>379.8</ele>
        <time>2021-09-29T13:49:56Z</time>
      </trkpt>
      <trkpt lat="42.4587770" lon="-2.3828840">
        <ele>380.0</ele>
        <time>2021-09-29T13:49:58Z</time>
      </trkpt>
      <trkpt lat="42.4587230" lon="-2.3834290">
        <ele>381.4</ele>
        <time>2021-09-29T13:50:04Z</time>
      </trkpt>
      <trkpt lat="42.4586910" lon="-2.3841990">
        <ele>381.6</ele>
        <time>2021-09-29T13:50:12Z</time>
      </trkpt>
      <trkpt lat="42.4586910" lon="-2.3847880">
        <ele>380.8</ele>
        <time>2021-09-29T13:50:18Z</time>
      </trkpt>
      <trkpt lat="42.4586940" lon="-2.3848870">
        <ele>380.2</ele>
        <time>2021-09-29T13:50:19Z</time>
      </trkpt>
      <trkpt lat="42.4587070" lon="-2.3852780">
        <ele>379.2</ele>
        <time>2021-09-29T13:50:23Z</time>
      </trkpt>
      <trkpt lat="42.4587260" lon="-2.3856650">
        <ele>378.4</ele>
        <time>2021-09-29T13:50:27Z</time>
      </trkpt>
      <trkpt lat="42.4587320" lon="-2.3857610">
        <ele>378.2</ele>
        <time>2021-09-29T13:50:28Z</time>
      </trkpt>
      <trkpt lat="42.4587850" lon="-2.3865610">
        <ele>377.6</ele>
        <time>2021-09-29T13:50:36Z</time>
      </trkpt>
      <trkpt lat="42.4588040" lon="-2.3868710">
        <ele>377.0</ele>
        <time>2021-09-29T13:50:39Z</time>
      </trkpt>
      <trkpt lat="42.4588480" lon="-2.3876030">
        <ele>376.6</ele>
        <time>2021-09-29T13:50:46Z</time>
      </trkpt>
      <trkpt lat="42.4588870" lon="-2.3883370">
        <ele>376.0</ele>
        <time>2021-09-29T13:50:53Z</time>
      </trkpt>
      <trkpt lat="42.4589250" lon="-2.3891280">
        <ele>375.4</ele>
        <time>2021-09-29T13:51:01Z</time>
      </trkpt>
      <trkpt lat="42.4589560" lon="-2.3898590">
        <ele>375.4</ele>
        <time>2021-09-29T13:51:09Z</time>
      </trkpt>
      <trkpt lat="42.4589830" lon="-2.3904950">
        <ele>376.8</ele>
        <time>2021-09-29T13:51:16Z</time>
      </trkpt>
      <trkpt lat="42.4590070" lon="-2.3912220">
        <ele>378.0</ele>
        <time>2021-09-29T13:51:24Z</time>
      </trkpt>
      <trkpt lat="42.4590250" lon="-2.3918480">
        <ele>378.4</ele>
        <time>2021-09-29T13:51:31Z</time>
      </trkpt>
      <trkpt lat="42.4590420" lon="-2.3924860">
        <ele>378.4</ele>
        <time>2021-09-29T13:51:38Z</time>
      </trkpt>
      <trkpt lat="42.4590630" lon="-2.3932350">
        <ele>378.4</ele>
        <time>2021-09-29T13:51:46Z</time>
      </trkpt>
      <trkpt lat="42.4590840" lon="-2.3939970">
        <ele>378.6</ele>
        <time>2021-09-29T13:51:54Z</time>
      </trkpt>
      <trkpt lat="42.4590920" lon="-2.3943760">
        <ele>378.2</ele>
        <time>2021-09-29T13:51:58Z</time>
      </trkpt>
      <trkpt lat="42.4591160" lon="-2.3951320">
        <ele>378.2</ele>
        <time>2021-09-29T13:52:06Z</time>
      </trkpt>
      <trkpt lat="42.4591300" lon="-2.3956960">
        <ele>378.4</ele>
        <time>2021-09-29T13:52:12Z</time>
      </trkpt>
      <trkpt lat="42.4591410" lon="-2.3962830">
        <ele>379.2</ele>
        <time>2021-09-29T13:52:18Z</time>
      </trkpt>
      <trkpt lat="42.4591530" lon="-2.3967140">
        <ele>379.6</ele>
        <time>2021-09-29T13:52:22Z</time>
      </trkpt>
      <trkpt lat="42.4591700" lon="-2.3972580">
        <ele>379.6</ele>
        <time>2021-09-29T13:52:27Z</time>
      </trkpt>
      <trkpt lat="42.4591910" lon="-2.3980030">
        <ele>379.6</ele>
        <time>2021-09-29T13:52:34Z</time>
      </trkpt>
      <trkpt lat="42.4592170" lon="-2.3988090">
        <ele>380.0</ele>
        <time>2021-09-29T13:52:42Z</time>
      </trkpt>
      <trkpt lat="42.4592160" lon="-2.3991910">
        <ele>380.2</ele>
        <time>2021-09-29T13:52:46Z</time>
      </trkpt>
      <trkpt lat="42.4592900" lon="-2.3999350">
        <ele>381.0</ele>
        <time>2021-09-29T13:52:54Z</time>
      </trkpt>
      <trkpt lat="42.4595540" lon="-2.4004790">
        <ele>381.2</ele>
        <time>2021-09-29T13:53:01Z</time>
      </trkpt>
      <trkpt lat="42.4599340" lon="-2.4008820">
        <ele>381.0</ele>
        <time>2021-09-29T13:53:08Z</time>
      </trkpt>
      <trkpt lat="42.4602060" lon="-2.4011540">
        <ele>381.2</ele>
        <time>2021-09-29T13:53:13Z</time>
      </trkpt>
      <trkpt lat="42.4605130" lon="-2.4015080">
        <ele>381.0</ele>
        <time>2021-09-29T13:53:19Z</time>
      </trkpt>
      <trkpt lat="42.4606560" lon="-2.4018310">
        <ele>380.4</ele>
        <time>2021-09-29T13:53:23Z</time>
      </trkpt>
      <trkpt lat="42.4607020" lon="-2.4020150">
        <ele>380.2</ele>
        <time>2021-09-29T13:53:25Z</time>
      </trkpt>
      <trkpt lat="42.4607240" lon="-2.4024250">
        <ele>379.2</ele>
        <time>2021-09-29T13:53:29Z</time>
      </trkpt>
      <trkpt lat="42.4607160" lon="-2.4025310">
        <ele>379.0</ele>
        <time>2021-09-29T13:53:30Z</time>
      </trkpt>
      <trkpt lat="42.4607030" lon="-2.4026370">
        <ele>379.0</ele>
        <time>2021-09-29T13:53:31Z</time>
      </trkpt>
      <trkpt lat="42.4606530" lon="-2.4029560">
        <ele>378.6</ele>
        <time>2021-09-29T13:53:34Z</time>
      </trkpt>
      <trkpt lat="42.4606190" lon="-2.4031710">
        <ele>378.0</ele>
        <time>2021-09-29T13:53:36Z</time>
      </trkpt>
      <trkpt lat="42.4605900" lon="-2.4033790">
        <ele>376.6</ele>
        <time>2021-09-29T13:53:38Z</time>
      </trkpt>
      <trkpt lat="42.4608400" lon="-2.4035400">
        <ele>375.8</ele>
        <time>2021-09-29T13:53:46Z</time>
      </trkpt>
      <trkpt lat="42.4609170" lon="-2.4034950">
        <ele>375.8</ele>
        <time>2021-09-29T13:53:48Z</time>
      </trkpt>
      <trkpt lat="42.4609670" lon="-2.4034840">
        <ele>375.8</ele>
        <time>2021-09-29T13:53:50Z</time>
      </trkpt>
      <trkpt lat="42.4609760" lon="-2.4034880">
        <ele>375.8</ele>
        <time>2021-09-29T13:53:51Z</time>
      </trkpt>
      <trkpt lat="42.4609850" lon="-2.4034900">
        <ele>376.0</ele>
        <time>2021-09-29T13:53:53Z</time>
      </trkpt>
      <trkpt lat="42.4609890" lon="-2.4034940">
        <ele>376.0</ele>
        <time>2021-09-29T13:53:54Z</time>
      </trkpt>
      <trkpt lat="42.4610180" lon="-2.4035540">
        <ele>376.8</ele>
        <time>2021-09-29T13:53:57Z</time>
      </trkpt>
      <trkpt lat="42.4610360" lon="-2.4036290">
        <ele>377.4</ele>
        <time>2021-09-29T13:53:59Z</time>
      </trkpt>
      <trkpt lat="42.4610590" lon="-2.4038330">
        <ele>377.6</ele>
        <time>2021-09-29T13:54:03Z</time>
      </trkpt>
      <trkpt lat="42.4610780" lon="-2.4042480">
        <ele>377.4</ele>
        <time>2021-09-29T13:54:09Z</time>
      </trkpt>
      <trkpt lat="42.4611090" lon="-2.4049880">
        <ele>376.8</ele>
        <time>2021-09-29T13:54:19Z</time>
      </trkpt>
      <trkpt lat="42.4611500" lon="-2.4057460">
        <ele>375.8</ele>
        <time>2021-09-29T13:54:29Z</time>
      </trkpt>
      <trkpt lat="42.4611590" lon="-2.4058960">
        <ele>375.6</ele>
        <time>2021-09-29T13:54:31Z</time>
      </trkpt>
      <trkpt lat="42.4612040" lon="-2.4066080">
        <ele>375.6</ele>
        <time>2021-09-29T13:54:40Z</time>
      </trkpt>
      <trkpt lat="42.4612440" lon="-2.4071840">
        <ele>375.6</ele>
        <time>2021-09-29T13:54:47Z</time>
      </trkpt>
      <trkpt lat="42.4613010" lon="-2.4079540">
        <ele>376.0</ele>
        <time>2021-09-29T13:54:57Z</time>
      </trkpt>
      <trkpt lat="42.4613460" lon="-2.4086870">
        <ele>376.4</ele>
        <time>2021-09-29T13:55:07Z</time>
      </trkpt>
      <trkpt lat="42.4613560" lon="-2.4088980">
        <ele>376.6</ele>
        <time>2021-09-29T13:55:10Z</time>
      </trkpt>
      <trkpt lat="42.4613770" lon="-2.4093800">
        <ele>377.0</ele>
        <time>2021-09-29T13:55:17Z</time>
      </trkpt>
      <trkpt lat="42.4614060" lon="-2.4099960">
        <ele>377.2</ele>
        <time>2021-09-29T13:55:26Z</time>
      </trkpt>
      <trkpt lat="42.4614370" lon="-2.4105140">
        <ele>377.0</ele>
        <time>2021-09-29T13:55:34Z</time>
      </trkpt>
      <trkpt lat="42.4614460" lon="-2.4106830">
        <ele>376.8</ele>
        <time>2021-09-29T13:55:37Z</time>
      </trkpt>
      <trkpt lat="42.4614460" lon="-2.4109580">
        <ele>376.4</ele>
        <time>2021-09-29T13:55:42Z</time>
      </trkpt>
      <trkpt lat="42.4614210" lon="-2.4112790">
        <ele>372.8</ele>
        <time>2021-09-29T13:55:48Z</time>
      </trkpt>
      <trkpt lat="42.4614590" lon="-2.4113090">
        <ele>375.0</ele>
        <time>2021-09-29T13:55:49Z</time>
      </trkpt>
      <trkpt lat="42.4614970" lon="-2.4113410">
        <ele>374.8</ele>
        <time>2021-09-29T13:55:50Z</time>
      </trkpt>
      <trkpt lat="42.4615280" lon="-2.4113800">
        <ele>374.4</ele>
        <time>2021-09-29T13:55:51Z</time>
      </trkpt>
      <trkpt lat="42.4615280" lon="-2.4116180">
        <ele>373.8</ele>
        <time>2021-09-29T13:55:55Z</time>
      </trkpt>
      <trkpt lat="42.4615060" lon="-2.4116710">
        <ele>373.4</ele>
        <time>2021-09-29T13:55:56Z</time>
      </trkpt>
      <trkpt lat="42.4614840" lon="-2.4117200">
        <ele>372.6</ele>
        <time>2021-09-29T13:55:57Z</time>
      </trkpt>
      <trkpt lat="42.4614630" lon="-2.4117700">
        <ele>372.2</ele>
        <time>2021-09-29T13:55:58Z</time>
      </trkpt>
      <trkpt lat="42.4614020" lon="-2.4119070">
        <ele>372.0</ele>
        <time>2021-09-29T13:56:01Z</time>
      </trkpt>
      <trkpt lat="42.4612590" lon="-2.4121730">
        <ele>371.6</ele>
        <time>2021-09-29T13:56:11Z</time>
      </trkpt>
      <trkpt lat="42.4612710" lon="-2.4120890">
        <ele>371.8</ele>
        <time>2021-09-29T13:56:15Z</time>
      </trkpt>
      <trkpt lat="42.4612940" lon="-2.4120490">
        <ele>372.4</ele>
        <time>2021-09-29T13:56:18Z</time>
      </trkpt>
      <trkpt lat="42.4613190" lon="-2.4120360">
        <ele>372.6</ele>
        <time>2021-09-29T13:56:20Z</time>
      </trkpt>
      <trkpt lat="42.4613650" lon="-2.4119410">
        <ele>372.8</ele>
        <time>2021-09-29T13:56:26Z</time>
      </trkpt>
      <trkpt lat="42.4614410" lon="-2.4118010">
        <ele>372.8</ele>
        <time>2021-09-29T13:56:32Z</time>
      </trkpt>
      <trkpt lat="42.4614540" lon="-2.4119120">
        <ele>372.8</ele>
        <time>2021-09-29T13:56:39Z</time>
      </trkpt>
      <trkpt lat="42.4614730" lon="-2.4120940">
        <ele>372.6</ele>
        <time>2021-09-29T13:56:46Z</time>
      </trkpt>
      <trkpt lat="42.4613760" lon="-2.4124270">
        <ele>371.6</ele>
        <time>2021-09-29T13:56:53Z</time>
      </trkpt>
      <trkpt lat="42.4613440" lon="-2.4125160">
        <ele>371.2</ele>
        <time>2021-09-29T13:56:55Z</time>
      </trkpt>
      <trkpt lat="42.4612860" lon="-2.4127760">
        <ele>370.6</ele>
        <time>2021-09-29T13:57:03Z</time>
      </trkpt>
      <trkpt lat="42.4612190" lon="-2.4128070">
        <ele>370.6</ele>
        <time>2021-09-29T13:57:06Z</time>
      </trkpt>
      <trkpt lat="42.4611600" lon="-2.4128260">
        <ele>370.6</ele>
        <time>2021-09-29T13:57:08Z</time>
      </trkpt>
      <trkpt lat="42.4611290" lon="-2.4128410">
        <ele>370.6</ele>
        <time>2021-09-29T13:57:09Z</time>
      </trkpt>
      <trkpt lat="42.4610630" lon="-2.4128760">
        <ele>370.6</ele>
        <time>2021-09-29T13:57:11Z</time>
      </trkpt>
      <trkpt lat="42.4609160" lon="-2.4129420">
        <ele>370.8</ele>
        <time>2021-09-29T13:57:15Z</time>
      </trkpt>
      <trkpt lat="42.4606490" lon="-2.4130790">
        <ele>372.2</ele>
        <time>2021-09-29T13:57:23Z</time>
      </trkpt>
      <trkpt lat="42.4605590" lon="-2.4133110">
        <ele>372.8</ele>
        <time>2021-09-29T13:57:29Z</time>
      </trkpt>
      <trkpt lat="42.4604360" lon="-2.4135060">
        <ele>373.4</ele>
        <time>2021-09-29T13:57:37Z</time>
      </trkpt>
      <trkpt lat="42.4604360" lon="-2.4135050">
        <ele>373.4</ele>
        <time>2021-09-29T13:57:38Z</time>
      </trkpt>
      <trkpt lat="42.4603860" lon="-2.4135130">
        <ele>373.0</ele>
        <time>2021-09-29T14:01:45Z</time>
      </trkpt>
      <trkpt lat="42.4603720" lon="-2.4135190">
        <ele>373.0</ele>
        <time>2021-09-29T14:01:46Z</time>
      </trkpt>
      <trkpt lat="42.4602970" lon="-2.4135430">
        <ele>373.0</ele>
        <time>2021-09-29T14:01:49Z</time>
      </trkpt>
      <trkpt lat="42.4601970" lon="-2.4135750">
        <ele>373.0</ele>
        <time>2021-09-29T14:01:52Z</time>
      </trkpt>
      <trkpt lat="42.4599590" lon="-2.4136380">
        <ele>372.8</ele>
        <time>2021-09-29T14:01:59Z</time>
      </trkpt>
      <trkpt lat="42.4598520" lon="-2.4136910">
        <ele>372.8</ele>
        <time>2021-09-29T14:02:02Z</time>
      </trkpt>
      <trkpt lat="42.4597240" lon="-2.4138230">
        <ele>372.8</ele>
        <time>2021-09-29T14:02:06Z</time>
      </trkpt>
      <trkpt lat="42.4596730" lon="-2.4138820">
        <ele>372.8</ele>
        <time>2021-09-29T14:02:08Z</time>
      </trkpt>
      <trkpt lat="42.4596350" lon="-2.4139880">
        <ele>372.8</ele>
        <time>2021-09-29T14:02:11Z</time>
      </trkpt>
      <trkpt lat="42.4596220" lon="-2.4140600">
        <ele>372.8</ele>
        <time>2021-09-29T14:02:13Z</time>
      </trkpt>
      <trkpt lat="42.4596170" lon="-2.4141250">
        <ele>373.6</ele>
        <time>2021-09-29T14:02:15Z</time>
      </trkpt>
      <trkpt lat="42.4596180" lon="-2.4141500">
        <ele>374.0</ele>
        <time>2021-09-29T14:02:16Z</time>
      </trkpt>
      <trkpt lat="42.4596170" lon="-2.4141850">
        <ele>375.0</ele>
        <time>2021-09-29T14:02:19Z</time>
      </trkpt>
      <trkpt lat="42.4596160" lon="-2.4141900">
        <ele>375.4</ele>
        <time>2021-09-29T14:02:21Z</time>
      </trkpt>
      <trkpt lat="42.4596190" lon="-2.4142350">
        <ele>376.0</ele>
        <time>2021-09-29T14:02:25Z</time>
      </trkpt>
      <trkpt lat="42.4596620" lon="-2.4144450">
        <ele>376.0</ele>
        <time>2021-09-29T14:02:31Z</time>
      </trkpt>
      <trkpt lat="42.4597200" lon="-2.4147220">
        <ele>376.0</ele>
        <time>2021-09-29T14:02:38Z</time>
      </trkpt>
      <trkpt lat="42.4597330" lon="-2.4147790">
        <ele>376.0</ele>
        <time>2021-09-29T14:02:40Z</time>
      </trkpt>
      <trkpt lat="42.4597400" lon="-2.4148060">
        <ele>376.0</ele>
        <time>2021-09-29T14:02:43Z</time>
      </trkpt>
      <trkpt lat="42.4597480" lon="-2.4148650">
        <ele>376.4</ele>
        <time>2021-09-29T14:02:48Z</time>
      </trkpt>
      <trkpt lat="42.4598760" lon="-2.4150630">
        <ele>376.4</ele>
        <time>2021-09-29T14:02:55Z</time>
      </trkpt>
      <trkpt lat="42.4600330" lon="-2.4157850">
        <ele>376.2</ele>
        <time>2021-09-29T14:03:10Z</time>
      </trkpt>
      <trkpt lat="42.4600730" lon="-2.4159460">
        <ele>376.4</ele>
        <time>2021-09-29T14:03:15Z</time>
      </trkpt>
      <trkpt lat="42.4601380" lon="-2.4162640">
        <ele>377.6</ele>
        <time>2021-09-29T14:03:27Z</time>
      </trkpt>
      <trkpt lat="42.4602490" lon="-2.4166070">
        <ele>378.6</ele>
        <time>2021-09-29T14:03:41Z</time>
      </trkpt>
      <trkpt lat="42.4602400" lon="-2.4167500">
        <ele>378.8</ele>
        <time>2021-09-29T14:03:46Z</time>
      </trkpt>
      <trkpt lat="42.4602720" lon="-2.4168640">
        <ele>378.8</ele>
        <time>2021-09-29T14:03:49Z</time>
      </trkpt>
      <trkpt lat="42.4603210" lon="-2.4170240">
        <ele>379.2</ele>
        <time>2021-09-29T14:03:54Z</time>
      </trkpt>
      <trkpt lat="42.4604000" lon="-2.4172290">
        <ele>379.6</ele>
        <time>2021-09-29T14:03:59Z</time>
      </trkpt>
      <trkpt lat="42.4604410" lon="-2.4173830">
        <ele>379.8</ele>
        <time>2021-09-29T14:04:02Z</time>
      </trkpt>
      <trkpt lat="42.4604770" lon="-2.4175410">
        <ele>380.0</ele>
        <time>2021-09-29T14:04:05Z</time>
      </trkpt>
      <trkpt lat="42.4605010" lon="-2.4176450">
        <ele>380.6</ele>
        <time>2021-09-29T14:04:07Z</time>
      </trkpt>
      <trkpt lat="42.4605500" lon="-2.4178480">
        <ele>381.2</ele>
        <time>2021-09-29T14:04:11Z</time>
      </trkpt>
      <trkpt lat="42.4606040" lon="-2.4181590">
        <ele>381.6</ele>
        <time>2021-09-29T14:04:17Z</time>
      </trkpt>
      <trkpt lat="42.4606980" lon="-2.4184640">
        <ele>382.8</ele>
        <time>2021-09-29T14:04:24Z</time>
      </trkpt>
      <trkpt lat="42.4608130" lon="-2.4187160">
        <ele>383.4</ele>
        <time>2021-09-29T14:04:31Z</time>
      </trkpt>
      <trkpt lat="42.4609260" lon="-2.4187880">
        <ele>383.6</ele>
        <time>2021-09-29T14:04:35Z</time>
      </trkpt>
      <trkpt lat="42.4609640" lon="-2.4188900">
        <ele>383.6</ele>
        <time>2021-09-29T14:04:38Z</time>
      </trkpt>
      <trkpt lat="42.4609670" lon="-2.4189590">
        <ele>383.8</ele>
        <time>2021-09-29T14:04:41Z</time>
      </trkpt>
      <trkpt lat="42.4610220" lon="-2.4190250">
        <ele>384.4</ele>
        <time>2021-09-29T14:05:57Z</time>
      </trkpt>
      <trkpt lat="42.4610470" lon="-2.4190300">
        <ele>384.4</ele>
        <time>2021-09-29T14:05:58Z</time>
      </trkpt>
      <trkpt lat="42.4611430" lon="-2.4189950">
        <ele>384.4</ele>
        <time>2021-09-29T14:06:01Z</time>
      </trkpt>
      <trkpt lat="42.4612640" lon="-2.4189430">
        <ele>384.2</ele>
        <time>2021-09-29T14:06:04Z</time>
      </trkpt>
      <trkpt lat="42.4613970" lon="-2.4188880">
        <ele>383.4</ele>
        <time>2021-09-29T14:06:07Z</time>
      </trkpt>
      <trkpt lat="42.4616180" lon="-2.4187940">
        <ele>382.2</ele>
        <time>2021-09-29T14:06:12Z</time>
      </trkpt>
      <trkpt lat="42.4620080" lon="-2.4186150">
        <ele>381.2</ele>
        <time>2021-09-29T14:06:20Z</time>
      </trkpt>
      <trkpt lat="42.4624910" lon="-2.4184500">
        <ele>380.0</ele>
        <time>2021-09-29T14:06:28Z</time>
      </trkpt>
      <trkpt lat="42.4627060" lon="-2.4183930">
        <ele>379.6</ele>
        <time>2021-09-29T14:06:31Z</time>
      </trkpt>
      <trkpt lat="42.4627760" lon="-2.4183620">
        <ele>379.4</ele>
        <time>2021-09-29T14:06:32Z</time>
      </trkpt>
      <trkpt lat="42.4628450" lon="-2.4183250">
        <ele>379.0</ele>
        <time>2021-09-29T14:06:33Z</time>
      </trkpt>
      <trkpt lat="42.4629140" lon="-2.4182890">
        <ele>378.4</ele>
        <time>2021-09-29T14:06:34Z</time>
      </trkpt>
      <trkpt lat="42.4630580" lon="-2.4182900">
        <ele>377.8</ele>
        <time>2021-09-29T14:06:36Z</time>
      </trkpt>
      <trkpt lat="42.4631920" lon="-2.4183680">
        <ele>376.8</ele>
        <time>2021-09-29T14:06:38Z</time>
      </trkpt>
      <trkpt lat="42.4634060" lon="-2.4184360">
        <ele>375.6</ele>
        <time>2021-09-29T14:06:41Z</time>
      </trkpt>
      <trkpt lat="42.4636230" lon="-2.4185030">
        <ele>375.0</ele>
        <time>2021-09-29T14:06:44Z</time>
      </trkpt>
      <trkpt lat="42.4637650" lon="-2.4185720">
        <ele>374.0</ele>
        <time>2021-09-29T14:06:46Z</time>
      </trkpt>
      <trkpt lat="42.4641510" lon="-2.4189210">
        <ele>372.8</ele>
        <time>2021-09-29T14:06:52Z</time>
      </trkpt>
      <trkpt lat="42.4643030" lon="-2.4191650">
        <ele>372.2</ele>
        <time>2021-09-29T14:06:55Z</time>
      </trkpt>
      <trkpt lat="42.4643440" lon="-2.4192560">
        <ele>371.4</ele>
        <time>2021-09-29T14:06:56Z</time>
      </trkpt>
      <trkpt lat="42.4644200" lon="-2.4194460">
        <ele>370.4</ele>
        <time>2021-09-29T14:06:58Z</time>
      </trkpt>
      <trkpt lat="42.4644590" lon="-2.4195400">
        <ele>370.2</ele>
        <time>2021-09-29T14:06:59Z</time>
      </trkpt>
      <trkpt lat="42.4645380" lon="-2.4197280">
        <ele>369.8</ele>
        <time>2021-09-29T14:07:01Z</time>
      </trkpt>
      <trkpt lat="42.4646150" lon="-2.4199200">
        <ele>368.4</ele>
        <time>2021-09-29T14:07:03Z</time>
      </trkpt>
      <trkpt lat="42.4647670" lon="-2.4203000">
        <ele>367.4</ele>
        <time>2021-09-29T14:07:07Z</time>
      </trkpt>
      <trkpt lat="42.4648440" lon="-2.4204820">
        <ele>367.0</ele>
        <time>2021-09-29T14:07:09Z</time>
      </trkpt>
      <trkpt lat="42.4649570" lon="-2.4207650">
        <ele>366.6</ele>
        <time>2021-09-29T14:07:12Z</time>
      </trkpt>
      <trkpt lat="42.4650350" lon="-2.4209510">
        <ele>366.2</ele>
        <time>2021-09-29T14:07:14Z</time>
      </trkpt>
      <trkpt lat="42.4650740" lon="-2.4210440">
        <ele>366.2</ele>
        <time>2021-09-29T14:07:15Z</time>
      </trkpt>
      <trkpt lat="42.4651500" lon="-2.4212300">
        <ele>366.0</ele>
        <time>2021-09-29T14:07:17Z</time>
      </trkpt>
      <trkpt lat="42.4652220" lon="-2.4214090">
        <ele>366.0</ele>
        <time>2021-09-29T14:07:19Z</time>
      </trkpt>
      <trkpt lat="42.4652920" lon="-2.4215820">
        <ele>366.0</ele>
        <time>2021-09-29T14:07:21Z</time>
      </trkpt>
      <trkpt lat="42.4653640" lon="-2.4217440">
        <ele>366.2</ele>
        <time>2021-09-29T14:07:23Z</time>
      </trkpt>
      <trkpt lat="42.4654290" lon="-2.4219080">
        <ele>366.4</ele>
        <time>2021-09-29T14:07:25Z</time>
      </trkpt>
      <trkpt lat="42.4654930" lon="-2.4220640">
        <ele>367.2</ele>
        <time>2021-09-29T14:07:27Z</time>
      </trkpt>
      <trkpt lat="42.4655530" lon="-2.4222150">
        <ele>368.2</ele>
        <time>2021-09-29T14:07:29Z</time>
      </trkpt>
      <trkpt lat="42.4656120" lon="-2.4223560">
        <ele>369.8</ele>
        <time>2021-09-29T14:07:31Z</time>
      </trkpt>
      <trkpt lat="42.4657020" lon="-2.4225740">
        <ele>371.0</ele>
        <time>2021-09-29T14:07:34Z</time>
      </trkpt>
      <trkpt lat="42.4659950" lon="-2.4232550">
        <ele>371.6</ele>
        <time>2021-09-29T14:07:43Z</time>
      </trkpt>
      <trkpt lat="42.4661810" lon="-2.4236880">
        <ele>370.4</ele>
        <time>2021-09-29T14:07:49Z</time>
      </trkpt>
      <trkpt lat="42.4662970" lon="-2.4239510">
        <ele>370.2</ele>
        <time>2021-09-29T14:07:53Z</time>
      </trkpt>
      <trkpt lat="42.4664360" lon="-2.4242650">
        <ele>370.4</ele>
        <time>2021-09-29T14:07:59Z</time>
      </trkpt>
      <trkpt lat="42.4664450" lon="-2.4242810">
        <ele>370.4</ele>
        <time>2021-09-29T14:08:02Z</time>
      </trkpt>
      <trkpt lat="42.4664250" lon="-2.4241880">
        <ele>373.0</ele>
        <time>2021-09-29T14:08:17Z</time>
      </trkpt>
      <trkpt lat="42.4664140" lon="-2.4241680">
        <ele>373.0</ele>
        <time>2021-09-29T14:08:18Z</time>
      </trkpt>
      <trkpt lat="42.4663900" lon="-2.4241370">
        <ele>373.0</ele>
        <time>2021-09-29T14:08:20Z</time>
      </trkpt>
      <trkpt lat="42.4663500" lon="-2.4240930">
        <ele>373.0</ele>
        <time>2021-09-29T14:08:24Z</time>
      </trkpt>
      <trkpt lat="42.4663150" lon="-2.4241020">
        <ele>372.4</ele>
        <time>2021-09-29T14:11:04Z</time>
      </trkpt>
      <trkpt lat="42.4663270" lon="-2.4241210">
        <ele>372.4</ele>
        <time>2021-09-29T14:11:05Z</time>
      </trkpt>
      <trkpt lat="42.4663840" lon="-2.4242470">
        <ele>372.4</ele>
        <time>2021-09-29T14:11:09Z</time>
      </trkpt>
      <trkpt lat="42.4664520" lon="-2.4243840">
        <ele>372.0</ele>
        <time>2021-09-29T14:11:12Z</time>
      </trkpt>
      <trkpt lat="42.4664780" lon="-2.4244350">
        <ele>372.0</ele>
        <time>2021-09-29T14:11:13Z</time>
      </trkpt>
      <trkpt lat="42.4665600" lon="-2.4246030">
        <ele>371.4</ele>
        <time>2021-09-29T14:11:16Z</time>
      </trkpt>
      <trkpt lat="42.4666180" lon="-2.4247190">
        <ele>371.2</ele>
        <time>2021-09-29T14:11:18Z</time>
      </trkpt>
      <trkpt lat="42.4667670" lon="-2.4250390">
        <ele>371.0</ele>
        <time>2021-09-29T14:11:23Z</time>
      </trkpt>
      <trkpt lat="42.4669410" lon="-2.4255940">
        <ele>371.0</ele>
        <time>2021-09-29T14:11:31Z</time>
      </trkpt>
      <trkpt lat="42.4670860" lon="-2.4261950">
        <ele>371.8</ele>
        <time>2021-09-29T14:11:40Z</time>
      </trkpt>
      <trkpt lat="42.4671260" lon="-2.4263510">
        <ele>372.0</ele>
        <time>2021-09-29T14:11:43Z</time>
      </trkpt>
      <trkpt lat="42.4671450" lon="-2.4264290">
        <ele>372.2</ele>
        <time>2021-09-29T14:11:45Z</time>
      </trkpt>
      <trkpt lat="42.4672150" lon="-2.4266200">
        <ele>373.0</ele>
        <time>2021-09-29T14:11:50Z</time>
      </trkpt>
      <trkpt lat="42.4672390" lon="-2.4268080">
        <ele>373.0</ele>
        <time>2021-09-29T14:11:53Z</time>
      </trkpt>
      <trkpt lat="42.4672700" lon="-2.4270900">
        <ele>373.2</ele>
        <time>2021-09-29T14:11:57Z</time>
      </trkpt>
      <trkpt lat="42.4673290" lon="-2.4273290">
        <ele>373.2</ele>
        <time>2021-09-29T14:12:00Z</time>
      </trkpt>
      <trkpt lat="42.4673740" lon="-2.4274880">
        <ele>373.0</ele>
        <time>2021-09-29T14:12:02Z</time>
      </trkpt>
      <trkpt lat="42.4675840" lon="-2.4282340">
        <ele>372.0</ele>
        <time>2021-09-29T14:12:12Z</time>
      </trkpt>
      <trkpt lat="42.4678240" lon="-2.4289440">
        <ele>372.4</ele>
        <time>2021-09-29T14:12:22Z</time>
      </trkpt>
      <trkpt lat="42.4679260" lon="-2.4292620">
        <ele>372.6</ele>
        <time>2021-09-29T14:12:27Z</time>
      </trkpt>
      <trkpt lat="42.4681430" lon="-2.4299420">
        <ele>372.6</ele>
        <time>2021-09-29T14:12:37Z</time>
      </trkpt>
      <trkpt lat="42.4683580" lon="-2.4306500">
        <ele>372.4</ele>
        <time>2021-09-29T14:12:47Z</time>
      </trkpt>
      <trkpt lat="42.4683770" lon="-2.4307180">
        <ele>372.2</ele>
        <time>2021-09-29T14:12:48Z</time>
      </trkpt>
      <trkpt lat="42.4684990" lon="-2.4310890">
        <ele>372.0</ele>
        <time>2021-09-29T14:12:53Z</time>
      </trkpt>
      <trkpt lat="42.4685310" lon="-2.4311600">
        <ele>372.0</ele>
        <time>2021-09-29T14:12:54Z</time>
      </trkpt>
      <trkpt lat="42.4685740" lon="-2.4312190">
        <ele>372.0</ele>
        <time>2021-09-29T14:12:55Z</time>
      </trkpt>
      <trkpt lat="42.4687220" lon="-2.4313780">
        <ele>371.8</ele>
        <time>2021-09-29T14:12:58Z</time>
      </trkpt>
      <trkpt lat="42.4688060" lon="-2.4317740">
        <ele>371.6</ele>
        <time>2021-09-29T14:13:03Z</time>
      </trkpt>
      <trkpt lat="42.4688120" lon="-2.4320210">
        <ele>371.2</ele>
        <time>2021-09-29T14:13:06Z</time>
      </trkpt>
      <trkpt lat="42.4690070" lon="-2.4326520">
        <ele>371.6</ele>
        <time>2021-09-29T14:13:15Z</time>
      </trkpt>
      <trkpt lat="42.4690520" lon="-2.4328440">
        <ele>371.8</ele>
        <time>2021-09-29T14:13:18Z</time>
      </trkpt>
      <trkpt lat="42.4690860" lon="-2.4332260">
        <ele>372.6</ele>
        <time>2021-09-29T14:13:24Z</time>
      </trkpt>
      <trkpt lat="42.4690950" lon="-2.4332850">
        <ele>372.8</ele>
        <time>2021-09-29T14:13:25Z</time>
      </trkpt>
      <trkpt lat="42.4688910" lon="-2.4337020">
        <ele>373.0</ele>
        <time>2021-09-29T14:13:33Z</time>
      </trkpt>
      <trkpt lat="42.4688210" lon="-2.4339570">
        <ele>373.0</ele>
        <time>2021-09-29T14:13:37Z</time>
      </trkpt>
      <trkpt lat="42.4687540" lon="-2.4347480">
        <ele>373.8</ele>
        <time>2021-09-29T14:13:48Z</time>
      </trkpt>
      <trkpt lat="42.4686830" lon="-2.4353490">
        <ele>373.8</ele>
        <time>2021-09-29T14:13:57Z</time>
      </trkpt>
      <trkpt lat="42.4686750" lon="-2.4354060">
        <ele>373.8</ele>
        <time>2021-09-29T14:13:58Z</time>
      </trkpt>
      <trkpt lat="42.4686680" lon="-2.4354590">
        <ele>373.8</ele>
        <time>2021-09-29T14:13:59Z</time>
      </trkpt>
      <trkpt lat="42.4686540" lon="-2.4355720">
        <ele>374.0</ele>
        <time>2021-09-29T14:14:01Z</time>
      </trkpt>
      <trkpt lat="42.4686250" lon="-2.4358420">
        <ele>374.4</ele>
        <time>2021-09-29T14:14:05Z</time>
      </trkpt>
      <trkpt lat="42.4685990" lon="-2.4363150">
        <ele>374.8</ele>
        <time>2021-09-29T14:14:12Z</time>
      </trkpt>
      <trkpt lat="42.4685870" lon="-2.4364400">
        <ele>375.0</ele>
        <time>2021-09-29T14:14:14Z</time>
      </trkpt>
      <trkpt lat="42.4685740" lon="-2.4365450">
        <ele>375.0</ele>
        <time>2021-09-29T14:14:16Z</time>
      </trkpt>
      <trkpt lat="42.4685350" lon="-2.4366320">
        <ele>375.2</ele>
        <time>2021-09-29T14:14:18Z</time>
      </trkpt>
      <trkpt lat="42.4654030" lon="-2.4536410">
        <ele>393.6</ele>
        <time>2021-09-30T07:16:36Z</time>
      </trkpt>
      <trkpt lat="42.4654010" lon="-2.4536770">
        <ele>393.8</ele>
        <time>2021-09-30T07:16:37Z</time>
      </trkpt>
      <trkpt lat="42.4653940" lon="-2.4537210">
        <ele>393.6</ele>
        <time>2021-09-30T07:16:38Z</time>
      </trkpt>
      <trkpt lat="42.4653750" lon="-2.4538500">
        <ele>394.0</ele>
        <time>2021-09-30T07:16:41Z</time>
      </trkpt>
      <trkpt lat="42.4653330" lon="-2.4540730">
        <ele>394.2</ele>
        <time>2021-09-30T07:16:45Z</time>
      </trkpt>
      <trkpt lat="42.4653020" lon="-2.4541680">
        <ele>394.0</ele>
        <time>2021-09-30T07:16:47Z</time>
      </trkpt>
      <trkpt lat="42.4653190" lon="-2.4545740">
        <ele>393.0</ele>
        <time>2021-09-30T07:16:52Z</time>
      </trkpt>
      <trkpt lat="42.4653150" lon="-2.4546530">
        <ele>393.0</ele>
        <time>2021-09-30T07:16:53Z</time>
      </trkpt>
      <trkpt lat="42.4651160" lon="-2.4552420">
        <ele>394.4</ele>
        <time>2021-09-30T07:17:03Z</time>
      </trkpt>
      <trkpt lat="42.4650400" lon="-2.4556570">
        <ele>395.0</ele>
        <time>2021-09-30T07:17:10Z</time>
      </trkpt>
      <trkpt lat="42.4650150" lon="-2.4557660">
        <ele>395.2</ele>
        <time>2021-09-30T07:17:12Z</time>
      </trkpt>
      <trkpt lat="42.4649960" lon="-2.4558800">
        <ele>395.2</ele>
        <time>2021-09-30T07:17:14Z</time>
      </trkpt>
      <trkpt lat="42.4649470" lon="-2.4562000">
        <ele>395.2</ele>
        <time>2021-09-30T07:17:21Z</time>
      </trkpt>
      <trkpt lat="42.4648960" lon="-2.4565180">
        <ele>395.0</ele>
        <time>2021-09-30T07:17:29Z</time>
      </trkpt>
      <trkpt lat="42.4648440" lon="-2.4566970">
        <ele>395.0</ele>
        <time>2021-09-30T07:17:32Z</time>
      </trkpt>
      <trkpt lat="42.4647700" lon="-2.4569890">
        <ele>395.0</ele>
        <time>2021-09-30T07:17:36Z</time>
      </trkpt>
      <trkpt lat="42.4645800" lon="-2.4577030">
        <ele>394.8</ele>
        <time>2021-09-30T07:17:48Z</time>
      </trkpt>
      <trkpt lat="42.4645420" lon="-2.4578070">
        <ele>395.4</ele>
        <time>2021-09-30T07:17:52Z</time>
      </trkpt>
      <trkpt lat="42.4643410" lon="-2.4584960">
        <ele>395.4</ele>
        <time>2021-09-30T07:18:04Z</time>
      </trkpt>
      <trkpt lat="42.4641860" lon="-2.4592140">
        <ele>394.6</ele>
        <time>2021-09-30T07:18:15Z</time>
      </trkpt>
      <trkpt lat="42.4641480" lon="-2.4594680">
        <ele>394.6</ele>
        <time>2021-09-30T07:18:19Z</time>
      </trkpt>
      <trkpt lat="42.4641070" lon="-2.4597210">
        <ele>394.6</ele>
        <time>2021-09-30T07:18:23Z</time>
      </trkpt>
      <trkpt lat="42.4640400" lon="-2.4600250">
        <ele>394.6</ele>
        <time>2021-09-30T07:18:28Z</time>
      </trkpt>
      <trkpt lat="42.4639020" lon="-2.4605260">
        <ele>395.2</ele>
        <time>2021-09-30T07:18:36Z</time>
      </trkpt>
      <trkpt lat="42.4637820" lon="-2.4610120">
        <ele>395.2</ele>
        <time>2021-09-30T07:18:43Z</time>
      </trkpt>
      <trkpt lat="42.4635970" lon="-2.4617350">
        <ele>395.6</ele>
        <time>2021-09-30T07:18:54Z</time>
      </trkpt>
      <trkpt lat="42.4635500" lon="-2.4620880">
        <ele>396.4</ele>
        <time>2021-09-30T07:19:02Z</time>
      </trkpt>
      <trkpt lat="42.4635030" lon="-2.4622880">
        <ele>397.2</ele>
        <time>2021-09-30T07:19:06Z</time>
      </trkpt>
      <trkpt lat="42.4634540" lon="-2.4623770">
        <ele>397.4</ele>
        <time>2021-09-30T07:19:08Z</time>
      </trkpt>
      <trkpt lat="42.4633740" lon="-2.4625720">
        <ele>397.6</ele>
        <time>2021-09-30T07:19:13Z</time>
      </trkpt>
      <trkpt lat="42.4633620" lon="-2.4626860">
        <ele>398.0</ele>
        <time>2021-09-30T07:19:17Z</time>
      </trkpt>
      <trkpt lat="42.4633650" lon="-2.4626920">
        <ele>398.6</ele>
        <time>2021-09-30T07:19:19Z</time>
      </trkpt>
      <trkpt lat="42.4633290" lon="-2.4626380">
        <ele>400.0</ele>
        <time>2021-09-30T07:20:37Z</time>
      </trkpt>
      <trkpt lat="42.4633220" lon="-2.4626220">
        <ele>400.0</ele>
        <time>2021-09-30T07:20:38Z</time>
      </trkpt>
      <trkpt lat="42.4633190" lon="-2.4626070">
        <ele>400.0</ele>
        <time>2021-09-30T07:20:41Z</time>
      </trkpt>
      <trkpt lat="42.4633070" lon="-2.4625750">
        <ele>400.0</ele>
        <time>2021-09-30T07:20:45Z</time>
      </trkpt>
      <trkpt lat="42.4633000" lon="-2.4625460">
        <ele>400.0</ele>
        <time>2021-09-30T07:20:46Z</time>
      </trkpt>
      <trkpt lat="42.4633100" lon="-2.4623610">
        <ele>399.8</ele>
        <time>2021-09-30T07:20:52Z</time>
      </trkpt>
      <trkpt lat="42.4632630" lon="-2.4622450">
        <ele>399.6</ele>
        <time>2021-09-30T07:20:55Z</time>
      </trkpt>
      <trkpt lat="42.4631490" lon="-2.4621500">
        <ele>399.4</ele>
        <time>2021-09-30T07:20:58Z</time>
      </trkpt>
      <trkpt lat="42.4631030" lon="-2.4621270">
        <ele>399.4</ele>
        <time>2021-09-30T07:20:59Z</time>
      </trkpt>
      <trkpt lat="42.4629620" lon="-2.4620620">
        <ele>398.8</ele>
        <time>2021-09-30T07:21:02Z</time>
      </trkpt>
      <trkpt lat="42.4628200" lon="-2.4620010">
        <ele>397.2</ele>
        <time>2021-09-30T07:21:05Z</time>
      </trkpt>
      <trkpt lat="42.4624710" lon="-2.4618560">
        <ele>396.4</ele>
        <time>2021-09-30T07:21:12Z</time>
      </trkpt>
      <trkpt lat="42.4620790" lon="-2.4616950">
        <ele>396.2</ele>
        <time>2021-09-30T07:21:20Z</time>
      </trkpt>
      <trkpt lat="42.4615580" lon="-2.4615270">
        <ele>396.4</ele>
        <time>2021-09-30T07:21:31Z</time>
      </trkpt>
      <trkpt lat="42.4611340" lon="-2.4612880">
        <ele>397.0</ele>
        <time>2021-09-30T07:21:42Z</time>
      </trkpt>
      <trkpt lat="42.4608190" lon="-2.4618740">
        <ele>398.0</ele>
        <time>2021-09-30T07:21:57Z</time>
      </trkpt>
      <trkpt lat="42.4607450" lon="-2.4619810">
        <ele>398.2</ele>
        <time>2021-09-30T07:22:00Z</time>
      </trkpt>
      <trkpt lat="42.4606550" lon="-2.4621220">
        <ele>398.6</ele>
        <time>2021-09-30T07:22:04Z</time>
      </trkpt>
      <trkpt lat="42.4605490" lon="-2.4620860">
        <ele>399.2</ele>
        <time>2021-09-30T07:22:08Z</time>
      </trkpt>
      <trkpt lat="42.4605210" lon="-2.4620630">
        <ele>399.2</ele>
        <time>2021-09-30T07:22:09Z</time>
      </trkpt>
      <trkpt lat="42.4604670" lon="-2.4620390">
        <ele>399.6</ele>
        <time>2021-09-30T07:22:11Z</time>
      </trkpt>
      <trkpt lat="42.4603660" lon="-2.4621210">
        <ele>400.0</ele>
        <time>2021-09-30T07:22:15Z</time>
      </trkpt>
      <trkpt lat="42.4603240" lon="-2.4621850">
        <ele>400.6</ele>
        <time>2021-09-30T07:22:17Z</time>
      </trkpt>
      <trkpt lat="42.4602480" lon="-2.4623220">
        <ele>401.6</ele>
        <time>2021-09-30T07:22:21Z</time>
      </trkpt>
      <trkpt lat="42.4601950" lon="-2.4625010">
        <ele>402.4</ele>
        <time>2021-09-30T07:22:25Z</time>
      </trkpt>
      <trkpt lat="42.4601560" lon="-2.4626400">
        <ele>402.8</ele>
        <time>2021-09-30T07:22:28Z</time>
      </trkpt>
      <trkpt lat="42.4600840" lon="-2.4628770">
        <ele>403.6</ele>
        <time>2021-09-30T07:22:33Z</time>
      </trkpt>
      <trkpt lat="42.4600580" lon="-2.4629730">
        <ele>404.0</ele>
        <time>2021-09-30T07:22:35Z</time>
      </trkpt>
      <trkpt lat="42.4599930" lon="-2.4632060">
        <ele>405.2</ele>
        <time>2021-09-30T07:22:40Z</time>
      </trkpt>
      <trkpt lat="42.4599240" lon="-2.4634850">
        <ele>406.2</ele>
        <time>2021-09-30T07:22:46Z</time>
      </trkpt>
      <trkpt lat="42.4597640" lon="-2.4641380">
        <ele>407.6</ele>
        <time>2021-09-30T07:23:00Z</time>
      </trkpt>
      <trkpt lat="42.4595880" lon="-2.4648700">
        <ele>408.2</ele>
        <time>2021-09-30T07:23:14Z</time>
      </trkpt>
      <trkpt lat="42.4595590" lon="-2.4649700">
        <ele>408.6</ele>
        <time>2021-09-30T07:23:16Z</time>
      </trkpt>
      <trkpt lat="42.4594670" lon="-2.4653640">
        <ele>410.0</ele>
        <time>2021-09-30T07:23:24Z</time>
      </trkpt>
      <trkpt lat="42.4593770" lon="-2.4657370">
        <ele>411.0</ele>
        <time>2021-09-30T07:23:33Z</time>
      </trkpt>
      <trkpt lat="42.4593400" lon="-2.4659360">
        <ele>412.0</ele>
        <time>2021-09-30T07:23:38Z</time>
      </trkpt>
      <trkpt lat="42.4592960" lon="-2.4662040">
        <ele>412.4</ele>
        <time>2021-09-30T07:23:44Z</time>
      </trkpt>
      <trkpt lat="42.4592220" lon="-2.4664730">
        <ele>412.4</ele>
        <time>2021-09-30T07:23:50Z</time>
      </trkpt>
      <trkpt lat="42.4591400" lon="-2.4667200">
        <ele>412.2</ele>
        <time>2021-09-30T07:23:56Z</time>
      </trkpt>
      <trkpt lat="42.4591300" lon="-2.4668060">
        <ele>412.2</ele>
        <time>2021-09-30T07:23:58Z</time>
      </trkpt>
      <trkpt lat="42.4591310" lon="-2.4669120">
        <ele>412.4</ele>
        <time>2021-09-30T07:24:01Z</time>
      </trkpt>
      <trkpt lat="42.4591330" lon="-2.4669480">
        <ele>412.4</ele>
        <time>2021-09-30T07:24:04Z</time>
      </trkpt>
      <trkpt lat="42.4591350" lon="-2.4670310">
        <ele>413.8</ele>
        <time>2021-09-30T07:27:24Z</time>
      </trkpt>
      <trkpt lat="42.4591390" lon="-2.4670570">
        <ele>413.8</ele>
        <time>2021-09-30T07:27:25Z</time>
      </trkpt>
      <trkpt lat="42.4591450" lon="-2.4671160">
        <ele>413.8</ele>
        <time>2021-09-30T07:27:27Z</time>
      </trkpt>
      <trkpt lat="42.4591500" lon="-2.4672320">
        <ele>413.6</ele>
        <time>2021-09-30T07:27:31Z</time>
      </trkpt>
      <trkpt lat="42.4591480" lon="-2.4673900">
        <ele>413.4</ele>
        <time>2021-09-30T07:27:35Z</time>
      </trkpt>
      <trkpt lat="42.4591470" lon="-2.4675250">
        <ele>413.4</ele>
        <time>2021-09-30T07:27:38Z</time>
      </trkpt>
      <trkpt lat="42.4591340" lon="-2.4676640">
        <ele>413.6</ele>
        <time>2021-09-30T07:27:41Z</time>
      </trkpt>
      <trkpt lat="42.4590850" lon="-2.4677910">
        <ele>413.6</ele>
        <time>2021-09-30T07:27:44Z</time>
      </trkpt>
      <trkpt lat="42.4589650" lon="-2.4679090">
        <ele>413.8</ele>
        <time>2021-09-30T07:27:48Z</time>
      </trkpt>
      <trkpt lat="42.4588830" lon="-2.4679450">
        <ele>414.0</ele>
        <time>2021-09-30T07:27:50Z</time>
      </trkpt>
      <trkpt lat="42.4588410" lon="-2.4679600">
        <ele>414.2</ele>
        <time>2021-09-30T07:27:51Z</time>
      </trkpt>
      <trkpt lat="42.4586840" lon="-2.4680020">
        <ele>414.8</ele>
        <time>2021-09-30T07:27:55Z</time>
      </trkpt>
      <trkpt lat="42.4584650" lon="-2.4680430">
        <ele>415.4</ele>
        <time>2021-09-30T07:28:01Z</time>
      </trkpt>
      <trkpt lat="42.4582760" lon="-2.4683030">
        <ele>416.2</ele>
        <time>2021-09-30T07:28:09Z</time>
      </trkpt>
      <trkpt lat="42.4582800" lon="-2.4684760">
        <ele>416.4</ele>
        <time>2021-09-30T07:28:12Z</time>
      </trkpt>
      <trkpt lat="42.4582820" lon="-2.4685320">
        <ele>416.4</ele>
        <time>2021-09-30T07:28:13Z</time>
      </trkpt>
      <trkpt lat="42.4583330" lon="-2.4689360">
        <ele>417.0</ele>
        <time>2021-09-30T07:28:21Z</time>
      </trkpt>
      <trkpt lat="42.4583640" lon="-2.4695560">
        <ele>417.4</ele>
        <time>2021-09-30T07:28:31Z</time>
      </trkpt>
      <trkpt lat="42.4583590" lon="-2.4697540">
        <ele>417.4</ele>
        <time>2021-09-30T07:28:34Z</time>
      </trkpt>
      <trkpt lat="42.4583390" lon="-2.4699570">
        <ele>417.2</ele>
        <time>2021-09-30T07:28:37Z</time>
      </trkpt>
      <trkpt lat="42.4583030" lon="-2.4701510">
        <ele>417.2</ele>
        <time>2021-09-30T07:28:40Z</time>
      </trkpt>
      <trkpt lat="42.4580520" lon="-2.4707890">
        <ele>417.0</ele>
        <time>2021-09-30T07:28:52Z</time>
      </trkpt>
      <trkpt lat="42.4577990" lon="-2.4713560">
        <ele>417.8</ele>
        <time>2021-09-30T07:29:04Z</time>
      </trkpt>
      <trkpt lat="42.4577510" lon="-2.4715090">
        <ele>418.0</ele>
        <time>2021-09-30T07:29:07Z</time>
      </trkpt>
      <trkpt lat="42.4577050" lon="-2.4716590">
        <ele>418.2</ele>
        <time>2021-09-30T07:29:10Z</time>
      </trkpt>
      <trkpt lat="42.4576680" lon="-2.4718170">
        <ele>417.8</ele>
        <time>2021-09-30T07:29:13Z</time>
      </trkpt>
      <trkpt lat="42.4575260" lon="-2.4720200">
        <ele>417.8</ele>
        <time>2021-09-30T07:29:19Z</time>
      </trkpt>
      <trkpt lat="42.4574630" lon="-2.4720880">
        <ele>417.4</ele>
        <time>2021-09-30T07:29:21Z</time>
      </trkpt>
      <trkpt lat="42.4574370" lon="-2.4721890">
        <ele>417.0</ele>
        <time>2021-09-30T07:29:23Z</time>
      </trkpt>
      <trkpt lat="42.4573880" lon="-2.4723180">
        <ele>416.2</ele>
        <time>2021-09-30T07:29:26Z</time>
      </trkpt>
      <trkpt lat="42.4573530" lon="-2.4723380">
        <ele>415.6</ele>
        <time>2021-09-30T07:29:27Z</time>
      </trkpt>
      <trkpt lat="42.4572330" lon="-2.4723480">
        <ele>415.2</ele>
        <time>2021-09-30T07:29:30Z</time>
      </trkpt>
      <trkpt lat="42.4569790" lon="-2.4724830">
        <ele>415.0</ele>
        <time>2021-09-30T07:29:37Z</time>
      </trkpt>
      <trkpt lat="42.4568750" lon="-2.4726760">
        <ele>415.0</ele>
        <time>2021-09-30T07:29:41Z</time>
      </trkpt>
      <trkpt lat="42.4568440" lon="-2.4727800">
        <ele>415.0</ele>
        <time>2021-09-30T07:29:43Z</time>
      </trkpt>
      <trkpt lat="42.4568330" lon="-2.4728780">
        <ele>415.0</ele>
        <time>2021-09-30T07:29:45Z</time>
      </trkpt>
      <trkpt lat="42.4568150" lon="-2.4729710">
        <ele>415.0</ele>
        <time>2021-09-30T07:29:47Z</time>
      </trkpt>
      <trkpt lat="42.4567660" lon="-2.4730480">
        <ele>415.2</ele>
        <time>2021-09-30T07:29:49Z</time>
      </trkpt>
      <trkpt lat="42.4567110" lon="-2.4731250">
        <ele>415.4</ele>
        <time>2021-09-30T07:29:51Z</time>
      </trkpt>
      <trkpt lat="42.4566320" lon="-2.4732460">
        <ele>416.6</ele>
        <time>2021-09-30T07:29:54Z</time>
      </trkpt>
      <trkpt lat="42.4566090" lon="-2.4732900">
        <ele>416.8</ele>
        <time>2021-09-30T07:29:55Z</time>
      </trkpt>
      <trkpt lat="42.4565070" lon="-2.4735990">
        <ele>418.0</ele>
        <time>2021-09-30T07:30:01Z</time>
      </trkpt>
      <trkpt lat="42.4564470" lon="-2.4739940">
        <ele>419.0</ele>
        <time>2021-09-30T07:30:08Z</time>
      </trkpt>
      <trkpt lat="42.4564370" lon="-2.4741640">
        <ele>419.6</ele>
        <time>2021-09-30T07:30:11Z</time>
      </trkpt>
      <trkpt lat="42.4564360" lon="-2.4742790">
        <ele>420.0</ele>
        <time>2021-09-30T07:30:13Z</time>
      </trkpt>
      <trkpt lat="42.4564330" lon="-2.4743360">
        <ele>420.4</ele>
        <time>2021-09-30T07:30:14Z</time>
      </trkpt>
      <trkpt lat="42.4563640" lon="-2.4749050">
        <ele>421.4</ele>
        <time>2021-09-30T07:30:24Z</time>
      </trkpt>
      <trkpt lat="42.4563290" lon="-2.4750130">
        <ele>421.8</ele>
        <time>2021-09-30T07:30:26Z</time>
      </trkpt>
      <trkpt lat="42.4562270" lon="-2.4752610">
        <ele>422.0</ele>
        <time>2021-09-30T07:30:31Z</time>
      </trkpt>
      <trkpt lat="42.4561460" lon="-2.4754500">
        <ele>422.0</ele>
        <time>2021-09-30T07:30:35Z</time>
      </trkpt>
      <trkpt lat="42.4560990" lon="-2.4755950">
        <ele>422.0</ele>
        <time>2021-09-30T07:30:38Z</time>
      </trkpt>
      <trkpt lat="42.4560880" lon="-2.4756480">
        <ele>422.0</ele>
        <time>2021-09-30T07:30:39Z</time>
      </trkpt>
      <trkpt lat="42.4560730" lon="-2.4758670">
        <ele>422.0</ele>
        <time>2021-09-30T07:30:43Z</time>
      </trkpt>
      <trkpt lat="42.4560650" lon="-2.4759750">
        <ele>421.8</ele>
        <time>2021-09-30T07:30:45Z</time>
      </trkpt>
      <trkpt lat="42.4560510" lon="-2.4760790">
        <ele>421.6</ele>
        <time>2021-09-30T07:30:47Z</time>
      </trkpt>
      <trkpt lat="42.4560420" lon="-2.4761630">
        <ele>421.6</ele>
        <time>2021-09-30T07:30:49Z</time>
      </trkpt>
      <trkpt lat="42.4560320" lon="-2.4762290">
        <ele>421.4</ele>
        <time>2021-09-30T07:30:51Z</time>
      </trkpt>
      <trkpt lat="42.4559800" lon="-2.4766290">
        <ele>421.0</ele>
        <time>2021-09-30T07:31:00Z</time>
      </trkpt>
      <trkpt lat="42.4559610" lon="-2.4766950">
        <ele>421.0</ele>
        <time>2021-09-30T07:31:01Z</time>
      </trkpt>
      <trkpt lat="42.4559280" lon="-2.4768370">
        <ele>420.4</ele>
        <time>2021-09-30T07:31:03Z</time>
      </trkpt>
      <trkpt lat="42.4558900" lon="-2.4770650">
        <ele>419.2</ele>
        <time>2021-09-30T07:31:06Z</time>
      </trkpt>
      <trkpt lat="42.4558590" lon="-2.4772070">
        <ele>417.6</ele>
        <time>2021-09-30T07:31:08Z</time>
      </trkpt>
      <trkpt lat="42.4558280" lon="-2.4773360">
        <ele>416.4</ele>
        <time>2021-09-30T07:31:10Z</time>
      </trkpt>
      <trkpt lat="42.4557820" lon="-2.4774340">
        <ele>415.2</ele>
        <time>2021-09-30T07:31:12Z</time>
      </trkpt>
      <trkpt lat="42.4556610" lon="-2.4774910">
        <ele>414.0</ele>
        <time>2021-09-30T07:31:15Z</time>
      </trkpt>
      <trkpt lat="42.4555880" lon="-2.4775380">
        <ele>413.6</ele>
        <time>2021-09-30T07:31:17Z</time>
      </trkpt>
      <trkpt lat="42.4555000" lon="-2.4775640">
        <ele>413.6</ele>
        <time>2021-09-30T07:31:19Z</time>
      </trkpt>
      <trkpt lat="42.4554200" lon="-2.4775500">
        <ele>413.2</ele>
        <time>2021-09-30T07:31:21Z</time>
      </trkpt>
      <trkpt lat="42.4553510" lon="-2.4775640">
        <ele>413.2</ele>
        <time>2021-09-30T07:31:23Z</time>
      </trkpt>
      <trkpt lat="42.4553100" lon="-2.4776430">
        <ele>413.2</ele>
        <time>2021-09-30T07:31:25Z</time>
      </trkpt>
      <trkpt lat="42.4552760" lon="-2.4777300">
        <ele>413.2</ele>
        <time>2021-09-30T07:31:27Z</time>
      </trkpt>
      <trkpt lat="42.4552560" lon="-2.4777760">
        <ele>413.2</ele>
        <time>2021-09-30T07:31:28Z</time>
      </trkpt>
      <trkpt lat="42.4552160" lon="-2.4778770">
        <ele>413.2</ele>
        <time>2021-09-30T07:31:30Z</time>
      </trkpt>
      <trkpt lat="42.4551900" lon="-2.4779890">
        <ele>413.4</ele>
        <time>2021-09-30T07:31:32Z</time>
      </trkpt>
      <trkpt lat="42.4551660" lon="-2.4781140">
        <ele>413.8</ele>
        <time>2021-09-30T07:31:34Z</time>
      </trkpt>
      <trkpt lat="42.4551450" lon="-2.4782430">
        <ele>414.2</ele>
        <time>2021-09-30T07:31:36Z</time>
      </trkpt>
      <trkpt lat="42.4551080" lon="-2.4784520">
        <ele>414.6</ele>
        <time>2021-09-30T07:31:39Z</time>
      </trkpt>
      <trkpt lat="42.4550070" lon="-2.4790440">
        <ele>414.6</ele>
        <time>2021-09-30T07:31:47Z</time>
      </trkpt>
      <trkpt lat="42.4549240" lon="-2.4795920">
        <ele>414.4</ele>
        <time>2021-09-30T07:31:54Z</time>
      </trkpt>
      <trkpt lat="42.4546130" lon="-2.4802790">
        <ele>414.6</ele>
        <time>2021-09-30T07:32:04Z</time>
      </trkpt>
      <trkpt lat="42.4544100" lon="-2.4806760">
        <ele>414.6</ele>
        <time>2021-09-30T07:32:10Z</time>
      </trkpt>
      <trkpt lat="42.4541010" lon="-2.4813310">
        <ele>414.6</ele>
        <time>2021-09-30T07:32:20Z</time>
      </trkpt>
      <trkpt lat="42.4538360" lon="-2.4820310">
        <ele>414.8</ele>
        <time>2021-09-30T07:32:30Z</time>
      </trkpt>
      <trkpt lat="42.4535880" lon="-2.4827630">
        <ele>414.8</ele>
        <time>2021-09-30T07:32:40Z</time>
      </trkpt>
      <trkpt lat="42.4534230" lon="-2.4833670">
        <ele>415.0</ele>
        <time>2021-09-30T07:32:48Z</time>
      </trkpt>
      <trkpt lat="42.4533110" lon="-2.4841080">
        <ele>415.0</ele>
        <time>2021-09-30T07:32:57Z</time>
      </trkpt>
      <trkpt lat="42.4532220" lon="-2.4846680">
        <ele>415.0</ele>
        <time>2021-09-30T07:33:04Z</time>
      </trkpt>
      <trkpt lat="42.4531000" lon="-2.4854370">
        <ele>415.4</ele>
        <time>2021-09-30T07:33:14Z</time>
      </trkpt>
      <trkpt lat="42.4530790" lon="-2.4855910">
        <ele>415.4</ele>
        <time>2021-09-30T07:33:16Z</time>
      </trkpt>
      <trkpt lat="42.4530080" lon="-2.4863900">
        <ele>416.0</ele>
        <time>2021-09-30T07:33:26Z</time>
      </trkpt>
      <trkpt lat="42.4529460" lon="-2.4868740">
        <ele>416.2</ele>
        <time>2021-09-30T07:33:32Z</time>
      </trkpt>
      <trkpt lat="42.4527870" lon="-2.4873020">
        <ele>416.4</ele>
        <time>2021-09-30T07:33:38Z</time>
      </trkpt>
      <trkpt lat="42.4524930" lon="-2.4880050">
        <ele>417.0</ele>
        <time>2021-09-30T07:33:48Z</time>
      </trkpt>
      <trkpt lat="42.4522170" lon="-2.4887170">
        <ele>417.4</ele>
        <time>2021-09-30T07:33:58Z</time>
      </trkpt>
      <trkpt lat="42.4521640" lon="-2.4888580">
        <ele>417.4</ele>
        <time>2021-09-30T07:34:00Z</time>
      </trkpt>
      <trkpt lat="42.4518920" lon="-2.4895530">
        <ele>418.0</ele>
        <time>2021-09-30T07:34:10Z</time>
      </trkpt>
      <trkpt lat="42.4516780" lon="-2.4900880">
        <ele>418.6</ele>
        <time>2021-09-30T07:34:18Z</time>
      </trkpt>
      <trkpt lat="42.4515460" lon="-2.4905720">
        <ele>419.6</ele>
        <time>2021-09-30T07:34:25Z</time>
      </trkpt>
      <trkpt lat="42.4513820" lon="-2.4913040">
        <ele>420.6</ele>
        <time>2021-09-30T07:34:35Z</time>
      </trkpt>
      <trkpt lat="42.4511850" lon="-2.4920180">
        <ele>421.0</ele>
        <time>2021-09-30T07:34:45Z</time>
      </trkpt>
      <trkpt lat="42.4511300" lon="-2.4922280">
        <ele>421.6</ele>
        <time>2021-09-30T07:34:48Z</time>
      </trkpt>
      <trkpt lat="42.4509460" lon="-2.4929630">
        <ele>422.6</ele>
        <time>2021-09-30T07:34:58Z</time>
      </trkpt>
      <trkpt lat="42.4509090" lon="-2.4931100">
        <ele>422.6</ele>
        <time>2021-09-30T07:35:00Z</time>
      </trkpt>
      <trkpt lat="42.4507100" lon="-2.4938180">
        <ele>423.4</ele>
        <time>2021-09-30T07:35:10Z</time>
      </trkpt>
      <trkpt lat="42.4506200" lon="-2.4940940">
        <ele>423.8</ele>
        <time>2021-09-30T07:35:14Z</time>
      </trkpt>
      <trkpt lat="42.4505600" lon="-2.4942220">
        <ele>424.0</ele>
        <time>2021-09-30T07:35:16Z</time>
      </trkpt>
      <trkpt lat="42.4503980" lon="-2.4943970">
        <ele>424.2</ele>
        <time>2021-09-30T07:35:20Z</time>
      </trkpt>
      <trkpt lat="42.4502290" lon="-2.4945370">
        <ele>424.6</ele>
        <time>2021-09-30T07:35:24Z</time>
      </trkpt>
      <trkpt lat="42.4501900" lon="-2.4945760">
        <ele>424.8</ele>
        <time>2021-09-30T07:35:25Z</time>
      </trkpt>
      <trkpt lat="42.4500260" lon="-2.4948000">
        <ele>426.0</ele>
        <time>2021-09-30T07:35:30Z</time>
      </trkpt>
      <trkpt lat="42.4499100" lon="-2.4951380">
        <ele>427.0</ele>
        <time>2021-09-30T07:35:36Z</time>
      </trkpt>
      <trkpt lat="42.4498930" lon="-2.4952610">
        <ele>427.6</ele>
        <time>2021-09-30T07:35:38Z</time>
      </trkpt>
      <trkpt lat="42.4498910" lon="-2.4955170">
        <ele>428.0</ele>
        <time>2021-09-30T07:35:42Z</time>
      </trkpt>
      <trkpt lat="42.4499070" lon="-2.4959650">
        <ele>429.2</ele>
        <time>2021-09-30T07:35:49Z</time>
      </trkpt>
      <trkpt lat="42.4499050" lon="-2.4963410">
        <ele>430.2</ele>
        <time>2021-09-30T07:35:55Z</time>
      </trkpt>
      <trkpt lat="42.4498710" lon="-2.4969080">
        <ele>431.4</ele>
        <time>2021-09-30T07:36:04Z</time>
      </trkpt>
      <trkpt lat="42.4498660" lon="-2.4972210">
        <ele>432.6</ele>
        <time>2021-09-30T07:36:09Z</time>
      </trkpt>
      <trkpt lat="42.4498370" lon="-2.4975160">
        <ele>433.6</ele>
        <time>2021-09-30T07:36:14Z</time>
      </trkpt>
      <trkpt lat="42.4497930" lon="-2.4976770">
        <ele>434.2</ele>
        <time>2021-09-30T07:36:17Z</time>
      </trkpt>
      <trkpt lat="42.4497530" lon="-2.4977700">
        <ele>434.8</ele>
        <time>2021-09-30T07:36:19Z</time>
      </trkpt>
      <trkpt lat="42.4496370" lon="-2.4979610">
        <ele>435.8</ele>
        <time>2021-09-30T07:36:24Z</time>
      </trkpt>
      <trkpt lat="42.4496000" lon="-2.4979860">
        <ele>436.0</ele>
        <time>2021-09-30T07:36:25Z</time>
      </trkpt>
      <trkpt lat="42.4494840" lon="-2.4980700">
        <ele>437.2</ele>
        <time>2021-09-30T07:36:28Z</time>
      </trkpt>
      <trkpt lat="42.4492440" lon="-2.4982540">
        <ele>438.0</ele>
        <time>2021-09-30T07:36:34Z</time>
      </trkpt>
      <trkpt lat="42.4490260" lon="-2.4982600">
        <ele>438.2</ele>
        <time>2021-09-30T07:36:38Z</time>
      </trkpt>
      <trkpt lat="42.4488970" lon="-2.4982620">
        <ele>438.2</ele>
        <time>2021-09-30T07:36:40Z</time>
      </trkpt>
      <trkpt lat="42.4487970" lon="-2.4983440">
        <ele>438.0</ele>
        <time>2021-09-30T07:36:42Z</time>
      </trkpt>
      <trkpt lat="42.4487510" lon="-2.4985690">
        <ele>436.8</ele>
        <time>2021-09-30T07:36:45Z</time>
      </trkpt>
      <trkpt lat="42.4487330" lon="-2.4986480">
        <ele>436.0</ele>
        <time>2021-09-30T07:36:46Z</time>
      </trkpt>
      <trkpt lat="42.4486760" lon="-2.4988020">
        <ele>435.4</ele>
        <time>2021-09-30T07:36:48Z</time>
      </trkpt>
      <trkpt lat="42.4486440" lon="-2.4988750">
        <ele>435.2</ele>
        <time>2021-09-30T07:36:49Z</time>
      </trkpt>
      <trkpt lat="42.4485600" lon="-2.4990020">
        <ele>435.0</ele>
        <time>2021-09-30T07:36:51Z</time>
      </trkpt>
      <trkpt lat="42.4484560" lon="-2.4990980">
        <ele>434.8</ele>
        <time>2021-09-30T07:36:53Z</time>
      </trkpt>
      <trkpt lat="42.4483590" lon="-2.4992000">
        <ele>434.2</ele>
        <time>2021-09-30T07:36:55Z</time>
      </trkpt>
      <trkpt lat="42.4482890" lon="-2.4993290">
        <ele>434.0</ele>
        <time>2021-09-30T07:36:57Z</time>
      </trkpt>
      <trkpt lat="42.4482360" lon="-2.4994860">
        <ele>433.8</ele>
        <time>2021-09-30T07:36:59Z</time>
      </trkpt>
      <trkpt lat="42.4481810" lon="-2.4996550">
        <ele>433.6</ele>
        <time>2021-09-30T07:37:01Z</time>
      </trkpt>
      <trkpt lat="42.4481440" lon="-2.4997370">
        <ele>433.6</ele>
        <time>2021-09-30T07:37:02Z</time>
      </trkpt>
      <trkpt lat="42.4479120" lon="-2.4999430">
        <ele>433.4</ele>
        <time>2021-09-30T07:37:06Z</time>
      </trkpt>
      <trkpt lat="42.4477490" lon="-2.4999350">
        <ele>433.2</ele>
        <time>2021-09-30T07:37:09Z</time>
      </trkpt>
      <trkpt lat="42.4477000" lon="-2.4999320">
        <ele>433.2</ele>
        <time>2021-09-30T07:37:10Z</time>
      </trkpt>
      <trkpt lat="42.4476130" lon="-2.4999910">
        <ele>433.2</ele>
        <time>2021-09-30T07:37:12Z</time>
      </trkpt>
      <trkpt lat="42.4475540" lon="-2.5001000">
        <ele>433.2</ele>
        <time>2021-09-30T07:37:14Z</time>
      </trkpt>
      <trkpt lat="42.4474980" lon="-2.5002080">
        <ele>433.4</ele>
        <time>2021-09-30T07:37:16Z</time>
      </trkpt>
      <trkpt lat="42.4474080" lon="-2.5003220">
        <ele>435.4</ele>
        <time>2021-09-30T07:37:19Z</time>
      </trkpt>
      <trkpt lat="42.4473160" lon="-2.5004180">
        <ele>436.6</ele>
        <time>2021-09-30T07:37:22Z</time>
      </trkpt>
      <trkpt lat="42.4472230" lon="-2.5005100">
        <ele>437.8</ele>
        <time>2021-09-30T07:37:25Z</time>
      </trkpt>
      <trkpt lat="42.4471700" lon="-2.5005860">
        <ele>438.8</ele>
        <time>2021-09-30T07:37:27Z</time>
      </trkpt>
      <trkpt lat="42.4471500" lon="-2.5006770">
        <ele>439.4</ele>
        <time>2021-09-30T07:37:29Z</time>
      </trkpt>
      <trkpt lat="42.4471700" lon="-2.5007720">
        <ele>440.0</ele>
        <time>2021-09-30T07:37:31Z</time>
      </trkpt>
      <trkpt lat="42.4472650" lon="-2.5010270">
        <ele>441.2</ele>
        <time>2021-09-30T07:37:36Z</time>
      </trkpt>
      <trkpt lat="42.4474220" lon="-2.5015310">
        <ele>441.6</ele>
        <time>2021-09-30T07:37:45Z</time>
      </trkpt>
      <trkpt lat="42.4475500" lon="-2.5018860">
        <ele>441.6</ele>
        <time>2021-09-30T07:37:51Z</time>
      </trkpt>
      <trkpt lat="42.4476580" lon="-2.5021930">
        <ele>441.6</ele>
        <time>2021-09-30T07:37:56Z</time>
      </trkpt>
      <trkpt lat="42.4478300" lon="-2.5026730">
        <ele>441.4</ele>
        <time>2021-09-30T07:38:04Z</time>
      </trkpt>
      <trkpt lat="42.4479120" lon="-2.5029060">
        <ele>441.6</ele>
        <time>2021-09-30T07:38:08Z</time>
      </trkpt>
      <trkpt lat="42.4480060" lon="-2.5031550">
        <ele>441.2</ele>
        <time>2021-09-30T07:38:13Z</time>
      </trkpt>
      <trkpt lat="42.4480420" lon="-2.5032410">
        <ele>441.4</ele>
        <time>2021-09-30T07:38:18Z</time>
      </trkpt>
      <trkpt lat="42.4480640" lon="-2.5032750">
        <ele>442.6</ele>
        <time>2021-09-30T07:39:35Z</time>
      </trkpt>
      <trkpt lat="42.4480740" lon="-2.5032980">
        <ele>442.6</ele>
        <time>2021-09-30T07:39:36Z</time>
      </trkpt>
      <trkpt lat="42.4481090" lon="-2.5033970">
        <ele>442.6</ele>
        <time>2021-09-30T07:39:39Z</time>
      </trkpt>
      <trkpt lat="42.4481500" lon="-2.5035470">
        <ele>442.6</ele>
        <time>2021-09-30T07:39:44Z</time>
      </trkpt>
      <trkpt lat="42.4481510" lon="-2.5036360">
        <ele>442.4</ele>
        <time>2021-09-30T07:39:47Z</time>
      </trkpt>
      <trkpt lat="42.4481010" lon="-2.5037320">
        <ele>442.4</ele>
        <time>2021-09-30T07:39:50Z</time>
      </trkpt>
      <trkpt lat="42.4480070" lon="-2.5038100">
        <ele>442.2</ele>
        <time>2021-09-30T07:39:54Z</time>
      </trkpt>
      <trkpt lat="42.4479000" lon="-2.5038600">
        <ele>442.2</ele>
        <time>2021-09-30T07:39:58Z</time>
      </trkpt>
      <trkpt lat="42.4476280" lon="-2.5038050">
        <ele>441.8</ele>
        <time>2021-09-30T07:40:07Z</time>
      </trkpt>
      <trkpt lat="42.4474530" lon="-2.5038520">
        <ele>441.6</ele>
        <time>2021-09-30T07:40:13Z</time>
      </trkpt>
      <trkpt lat="42.4473250" lon="-2.5039240">
        <ele>441.4</ele>
        <time>2021-09-30T07:40:17Z</time>
      </trkpt>
      <trkpt lat="42.4471340" lon="-2.5040090">
        <ele>441.2</ele>
        <time>2021-09-30T07:40:24Z</time>
      </trkpt>
      <trkpt lat="42.4471260" lon="-2.5041530">
        <ele>441.6</ele>
        <time>2021-09-30T07:40:29Z</time>
      </trkpt>
      <trkpt lat="42.4471640" lon="-2.5042970">
        <ele>442.6</ele>
        <time>2021-09-30T07:40:33Z</time>
      </trkpt>
      <trkpt lat="42.4471980" lon="-2.5043720">
        <ele>442.8</ele>
        <time>2021-09-30T07:40:35Z</time>
      </trkpt>
      <trkpt lat="42.4472230" lon="-2.5044490">
        <ele>443.2</ele>
        <time>2021-09-30T07:40:37Z</time>
      </trkpt>
      <trkpt lat="42.4472360" lon="-2.5045920">
        <ele>444.0</ele>
        <time>2021-09-30T07:40:41Z</time>
      </trkpt>
      <trkpt lat="42.4472270" lon="-2.5046840">
        <ele>444.6</ele>
        <time>2021-09-30T07:40:45Z</time>
      </trkpt>
      <trkpt lat="42.4472210" lon="-2.5046990">
        <ele>445.0</ele>
        <time>2021-09-30T07:40:47Z</time>
      </trkpt>
      <trkpt lat="42.4471780" lon="-2.5047730">
        <ele>447.4</ele>
        <time>2021-09-30T07:40:53Z</time>
      </trkpt>
      <trkpt lat="42.4468420" lon="-2.5052310">
        <ele>447.6</ele>
        <time>2021-09-30T07:41:08Z</time>
      </trkpt>
      <trkpt lat="42.4467990" lon="-2.5053300">
        <ele>447.6</ele>
        <time>2021-09-30T07:41:11Z</time>
      </trkpt>
      <trkpt lat="42.4467760" lon="-2.5054410">
        <ele>447.6</ele>
        <time>2021-09-30T07:41:13Z</time>
      </trkpt>
      <trkpt lat="42.4467550" lon="-2.5057740">
        <ele>447.4</ele>
        <time>2021-09-30T07:41:17Z</time>
      </trkpt>
      <trkpt lat="42.4467480" lon="-2.5060240">
        <ele>445.8</ele>
        <time>2021-09-30T07:41:20Z</time>
      </trkpt>
      <trkpt lat="42.4467410" lon="-2.5061860">
        <ele>444.0</ele>
        <time>2021-09-30T07:41:22Z</time>
      </trkpt>
      <trkpt lat="42.4467410" lon="-2.5063430">
        <ele>442.8</ele>
        <time>2021-09-30T07:41:24Z</time>
      </trkpt>
      <trkpt lat="42.4468080" lon="-2.5067750">
        <ele>442.2</ele>
        <time>2021-09-30T07:41:30Z</time>
      </trkpt>
      <trkpt lat="42.4468430" lon="-2.5069190">
        <ele>442.0</ele>
        <time>2021-09-30T07:41:32Z</time>
      </trkpt>
      <trkpt lat="42.4469250" lon="-2.5072020">
        <ele>442.0</ele>
        <time>2021-09-30T07:41:36Z</time>
      </trkpt>
      <trkpt lat="42.4470570" lon="-2.5075970">
        <ele>442.2</ele>
        <time>2021-09-30T07:41:42Z</time>
      </trkpt>
      <trkpt lat="42.4471290" lon="-2.5079900">
        <ele>443.0</ele>
        <time>2021-09-30T07:41:48Z</time>
      </trkpt>
      <trkpt lat="42.4470040" lon="-2.5086280">
        <ele>443.8</ele>
        <time>2021-09-30T07:41:57Z</time>
      </trkpt>
      <trkpt lat="42.4466820" lon="-2.5092690">
        <ele>443.6</ele>
        <time>2021-09-30T07:42:07Z</time>
      </trkpt>
      <trkpt lat="42.4464140" lon="-2.5099260">
        <ele>443.8</ele>
        <time>2021-09-30T07:42:18Z</time>
      </trkpt>
      <trkpt lat="42.4463390" lon="-2.5100960">
        <ele>444.4</ele>
        <time>2021-09-30T07:42:21Z</time>
      </trkpt>
      <trkpt lat="42.4463030" lon="-2.5101530">
        <ele>444.6</ele>
        <time>2021-09-30T07:42:22Z</time>
      </trkpt>
      <trkpt lat="42.4462340" lon="-2.5102720">
        <ele>444.8</ele>
        <time>2021-09-30T07:42:24Z</time>
      </trkpt>
      <trkpt lat="42.4462020" lon="-2.5103360">
        <ele>444.8</ele>
        <time>2021-09-30T07:42:25Z</time>
      </trkpt>
      <trkpt lat="42.4461260" lon="-2.5105430">
        <ele>445.4</ele>
        <time>2021-09-30T07:42:28Z</time>
      </trkpt>
      <trkpt lat="42.4460500" lon="-2.5107460">
        <ele>446.0</ele>
        <time>2021-09-30T07:42:31Z</time>
      </trkpt>
      <trkpt lat="42.4459540" lon="-2.5109150">
        <ele>446.0</ele>
        <time>2021-09-30T07:42:34Z</time>
      </trkpt>
      <trkpt lat="42.4458480" lon="-2.5110630">
        <ele>446.0</ele>
        <time>2021-09-30T07:42:37Z</time>
      </trkpt>
      <trkpt lat="42.4457090" lon="-2.5112830">
        <ele>446.2</ele>
        <time>2021-09-30T07:42:41Z</time>
      </trkpt>
      <trkpt lat="42.4454980" lon="-2.5117360">
        <ele>445.6</ele>
        <time>2021-09-30T07:42:48Z</time>
      </trkpt>
      <trkpt lat="42.4454050" lon="-2.5119410">
        <ele>445.4</ele>
        <time>2021-09-30T07:42:51Z</time>
      </trkpt>
      <trkpt lat="42.4452840" lon="-2.5122110">
        <ele>444.6</ele>
        <time>2021-09-30T07:42:55Z</time>
      </trkpt>
      <trkpt lat="42.4450370" lon="-2.5126930">
        <ele>444.4</ele>
        <time>2021-09-30T07:43:03Z</time>
      </trkpt>
      <trkpt lat="42.4449870" lon="-2.5128170">
        <ele>444.4</ele>
        <time>2021-09-30T07:43:05Z</time>
      </trkpt>
      <trkpt lat="42.4449110" lon="-2.5130940">
        <ele>444.6</ele>
        <time>2021-09-30T07:43:09Z</time>
      </trkpt>
      <trkpt lat="42.4444500" lon="-2.5133370">
        <ele>445.4</ele>
        <time>2021-09-30T07:43:20Z</time>
      </trkpt>
      <trkpt lat="42.4443820" lon="-2.5131520">
        <ele>445.6</ele>
        <time>2021-09-30T07:43:23Z</time>
      </trkpt>
      <trkpt lat="42.4443170" lon="-2.5128530">
        <ele>445.6</ele>
        <time>2021-09-30T07:43:27Z</time>
      </trkpt>
      <trkpt lat="42.4442960" lon="-2.5127780">
        <ele>445.6</ele>
        <time>2021-09-30T07:43:28Z</time>
      </trkpt>
      <trkpt lat="42.4441450" lon="-2.5123000">
        <ele>445.2</ele>
        <time>2021-09-30T07:43:34Z</time>
      </trkpt>
      <trkpt lat="42.4437970" lon="-2.5122750">
        <ele>444.6</ele>
        <time>2021-09-30T07:43:43Z</time>
      </trkpt>
      <trkpt lat="42.4434560" lon="-2.5129180">
        <ele>445.2</ele>
        <time>2021-09-30T07:43:54Z</time>
      </trkpt>
      <trkpt lat="42.4433680" lon="-2.5131010">
        <ele>445.4</ele>
        <time>2021-09-30T07:43:58Z</time>
      </trkpt>
      <trkpt lat="42.4432270" lon="-2.5132310">
        <ele>445.6</ele>
        <time>2021-09-30T07:44:03Z</time>
      </trkpt>
      <trkpt lat="42.4431840" lon="-2.5132380">
        <ele>445.6</ele>
        <time>2021-09-30T07:44:04Z</time>
      </trkpt>
      <trkpt lat="42.4430520" lon="-2.5132690">
        <ele>446.4</ele>
        <time>2021-09-30T07:44:07Z</time>
      </trkpt>
      <trkpt lat="42.4429610" lon="-2.5133030">
        <ele>446.4</ele>
        <time>2021-09-30T07:44:09Z</time>
      </trkpt>
      <trkpt lat="42.4428670" lon="-2.5133250">
        <ele>446.6</ele>
        <time>2021-09-30T07:44:11Z</time>
      </trkpt>
      <trkpt lat="42.4427720" lon="-2.5133220">
        <ele>446.6</ele>
        <time>2021-09-30T07:44:13Z</time>
      </trkpt>
      <trkpt lat="42.4427220" lon="-2.5133110">
        <ele>446.8</ele>
        <time>2021-09-30T07:44:14Z</time>
      </trkpt>
      <trkpt lat="42.4424000" lon="-2.5132380">
        <ele>447.8</ele>
        <time>2021-09-30T07:44:20Z</time>
      </trkpt>
      <trkpt lat="42.4421840" lon="-2.5132400">
        <ele>448.0</ele>
        <time>2021-09-30T07:44:24Z</time>
      </trkpt>
      <trkpt lat="42.4417710" lon="-2.5133960">
        <ele>447.4</ele>
        <time>2021-09-30T07:44:32Z</time>
      </trkpt>
      <trkpt lat="42.4416770" lon="-2.5134290">
        <ele>447.4</ele>
        <time>2021-09-30T07:44:34Z</time>
      </trkpt>
      <trkpt lat="42.4414970" lon="-2.5134100">
        <ele>447.4</ele>
        <time>2021-09-30T07:44:38Z</time>
      </trkpt>
      <trkpt lat="42.4414040" lon="-2.5133990">
        <ele>447.4</ele>
        <time>2021-09-30T07:44:41Z</time>
      </trkpt>
      <trkpt lat="42.4413750" lon="-2.5134060">
        <ele>447.4</ele>
        <time>2021-09-30T07:44:42Z</time>
      </trkpt>
      <trkpt lat="42.4413300" lon="-2.5135610">
        <ele>447.6</ele>
        <time>2021-09-30T07:44:46Z</time>
      </trkpt>
      <trkpt lat="42.4413200" lon="-2.5136650">
        <ele>447.6</ele>
        <time>2021-09-30T07:44:48Z</time>
      </trkpt>
      <trkpt lat="42.4413380" lon="-2.5138210">
        <ele>447.8</ele>
        <time>2021-09-30T07:44:51Z</time>
      </trkpt>
      <trkpt lat="42.4413730" lon="-2.5139370">
        <ele>448.0</ele>
        <time>2021-09-30T07:44:53Z</time>
      </trkpt>
      <trkpt lat="42.4414100" lon="-2.5140570">
        <ele>448.2</ele>
        <time>2021-09-30T07:44:55Z</time>
      </trkpt>
      <trkpt lat="42.4414550" lon="-2.5142440">
        <ele>448.4</ele>
        <time>2021-09-30T07:44:58Z</time>
      </trkpt>
      <trkpt lat="42.4415470" lon="-2.5146060">
        <ele>448.8</ele>
        <time>2021-09-30T07:45:04Z</time>
      </trkpt>
      <trkpt lat="42.4414110" lon="-2.5148300">
        <ele>450.0</ele>
        <time>2021-09-30T07:45:10Z</time>
      </trkpt>
      <trkpt lat="42.4413130" lon="-2.5148340">
        <ele>450.2</ele>
        <time>2021-09-30T07:45:12Z</time>
      </trkpt>
      <trkpt lat="42.4411040" lon="-2.5148410">
        <ele>451.2</ele>
        <time>2021-09-30T07:45:16Z</time>
      </trkpt>
      <trkpt lat="42.4405640" lon="-2.5148590">
        <ele>452.0</ele>
        <time>2021-09-30T07:45:26Z</time>
      </trkpt>
      <trkpt lat="42.4401790" lon="-2.5149190">
        <ele>452.2</ele>
        <time>2021-09-30T07:45:33Z</time>
      </trkpt>
      <trkpt lat="42.4396470" lon="-2.5150720">
        <ele>452.6</ele>
        <time>2021-09-30T07:45:43Z</time>
      </trkpt>
      <trkpt lat="42.4394120" lon="-2.5152300">
        <ele>452.8</ele>
        <time>2021-09-30T07:45:48Z</time>
      </trkpt>
      <trkpt lat="42.4391650" lon="-2.5153430">
        <ele>453.2</ele>
        <time>2021-09-30T07:45:53Z</time>
      </trkpt>
      <trkpt lat="42.4391100" lon="-2.5153470">
        <ele>453.2</ele>
        <time>2021-09-30T07:45:54Z</time>
      </trkpt>
      <trkpt lat="42.4386270" lon="-2.5150070">
        <ele>453.8</ele>
        <time>2021-09-30T07:46:04Z</time>
      </trkpt>
      <trkpt lat="42.4384450" lon="-2.5147830">
        <ele>454.4</ele>
        <time>2021-09-30T07:46:09Z</time>
      </trkpt>
      <trkpt lat="42.4383370" lon="-2.5146860">
        <ele>455.4</ele>
        <time>2021-09-30T07:46:12Z</time>
      </trkpt>
      <trkpt lat="42.4381830" lon="-2.5145790">
        <ele>457.2</ele>
        <time>2021-09-30T07:46:16Z</time>
      </trkpt>
      <trkpt lat="42.4381080" lon="-2.5145340">
        <ele>458.2</ele>
        <time>2021-09-30T07:46:18Z</time>
      </trkpt>
      <trkpt lat="42.4379960" lon="-2.5144590">
        <ele>459.6</ele>
        <time>2021-09-30T07:46:21Z</time>
      </trkpt>
      <trkpt lat="42.4379180" lon="-2.5144170">
        <ele>460.2</ele>
        <time>2021-09-30T07:46:23Z</time>
      </trkpt>
      <trkpt lat="42.4378360" lon="-2.5144030">
        <ele>460.8</ele>
        <time>2021-09-30T07:46:25Z</time>
      </trkpt>
      <trkpt lat="42.4377060" lon="-2.5145140">
        <ele>462.0</ele>
        <time>2021-09-30T07:46:29Z</time>
      </trkpt>
      <trkpt lat="42.4376830" lon="-2.5145540">
        <ele>462.4</ele>
        <time>2021-09-30T07:46:30Z</time>
      </trkpt>
      <trkpt lat="42.4376240" lon="-2.5146620">
        <ele>463.0</ele>
        <time>2021-09-30T07:46:33Z</time>
      </trkpt>
      <trkpt lat="42.4375490" lon="-2.5148300">
        <ele>455.0</ele>
        <time>2021-09-30T07:46:38Z</time>
      </trkpt>
      <trkpt lat="42.4375070" lon="-2.5149300">
        <ele>465.4</ele>
        <time>2021-09-30T07:46:41Z</time>
      </trkpt>
      <trkpt lat="42.4374500" lon="-2.5150610">
        <ele>466.6</ele>
        <time>2021-09-30T07:46:45Z</time>
      </trkpt>
      <trkpt lat="42.4374240" lon="-2.5151300">
        <ele>467.6</ele>
        <time>2021-09-30T07:46:47Z</time>
      </trkpt>
      <trkpt lat="42.4373940" lon="-2.5151990">
        <ele>468.8</ele>
        <time>2021-09-30T07:46:49Z</time>
      </trkpt>
      <trkpt lat="42.4373240" lon="-2.5153260">
        <ele>470.0</ele>
        <time>2021-09-30T07:46:53Z</time>
      </trkpt>
      <trkpt lat="42.4372000" lon="-2.5154840">
        <ele>471.0</ele>
        <time>2021-09-30T07:46:59Z</time>
      </trkpt>
      <trkpt lat="42.4371130" lon="-2.5155760">
        <ele>472.4</ele>
        <time>2021-09-30T07:47:03Z</time>
      </trkpt>
      <trkpt lat="42.4370220" lon="-2.5156530">
        <ele>473.6</ele>
        <time>2021-09-30T07:47:07Z</time>
      </trkpt>
      <trkpt lat="42.4369540" lon="-2.5157110">
        <ele>474.8</ele>
        <time>2021-09-30T07:47:10Z</time>
      </trkpt>
      <trkpt lat="42.4368850" lon="-2.5157590">
        <ele>476.0</ele>
        <time>2021-09-30T07:47:13Z</time>
      </trkpt>
      <trkpt lat="42.4368210" lon="-2.5158180">
        <ele>477.0</ele>
        <time>2021-09-30T07:47:16Z</time>
      </trkpt>
      <trkpt lat="42.4367480" lon="-2.5159150">
        <ele>478.2</ele>
        <time>2021-09-30T07:47:20Z</time>
      </trkpt>
      <trkpt lat="42.4366970" lon="-2.5159950">
        <ele>479.4</ele>
        <time>2021-09-30T07:47:23Z</time>
      </trkpt>
      <trkpt lat="42.4366290" lon="-2.5161040">
        <ele>480.6</ele>
        <time>2021-09-30T07:47:27Z</time>
      </trkpt>
      <trkpt lat="42.4365740" lon="-2.5162220">
        <ele>481.6</ele>
        <time>2021-09-30T07:47:31Z</time>
      </trkpt>
      <trkpt lat="42.4365640" lon="-2.5163630">
        <ele>482.6</ele>
        <time>2021-09-30T07:47:35Z</time>
      </trkpt>
      <trkpt lat="42.4366060" lon="-2.5164620">
        <ele>483.6</ele>
        <time>2021-09-30T07:47:38Z</time>
      </trkpt>
      <trkpt lat="42.4366930" lon="-2.5165710">
        <ele>484.8</ele>
        <time>2021-09-30T07:47:42Z</time>
      </trkpt>
      <trkpt lat="42.4367720" lon="-2.5166970">
        <ele>485.8</ele>
        <time>2021-09-30T07:47:46Z</time>
      </trkpt>
      <trkpt lat="42.4368310" lon="-2.5167990">
        <ele>487.0</ele>
        <time>2021-09-30T07:47:49Z</time>
      </trkpt>
      <trkpt lat="42.4369500" lon="-2.5169750">
        <ele>488.0</ele>
        <time>2021-09-30T07:47:54Z</time>
      </trkpt>
      <trkpt lat="42.4371030" lon="-2.5171810">
        <ele>488.2</ele>
        <time>2021-09-30T07:47:59Z</time>
      </trkpt>
      <trkpt lat="42.4372920" lon="-2.5174200">
        <ele>488.4</ele>
        <time>2021-09-30T07:48:05Z</time>
      </trkpt>
      <trkpt lat="42.4374460" lon="-2.5176410">
        <ele>488.4</ele>
        <time>2021-09-30T07:48:10Z</time>
      </trkpt>
      <trkpt lat="42.4376540" lon="-2.5179970">
        <ele>488.4</ele>
        <time>2021-09-30T07:48:17Z</time>
      </trkpt>
      <trkpt lat="42.4378760" lon="-2.5186570">
        <ele>489.0</ele>
        <time>2021-09-30T07:48:29Z</time>
      </trkpt>
      <trkpt lat="42.4379490" lon="-2.5188880">
        <ele>489.2</ele>
        <time>2021-09-30T07:48:33Z</time>
      </trkpt>
      <trkpt lat="42.4380010" lon="-2.5190510">
        <ele>490.4</ele>
        <time>2021-09-30T07:48:36Z</time>
      </trkpt>
      <trkpt lat="42.4380640" lon="-2.5192010">
        <ele>491.6</ele>
        <time>2021-09-30T07:48:39Z</time>
      </trkpt>
      <trkpt lat="42.4381590" lon="-2.5193880">
        <ele>492.8</ele>
        <time>2021-09-30T07:48:43Z</time>
      </trkpt>
      <trkpt lat="42.4383080" lon="-2.5196730">
        <ele>494.0</ele>
        <time>2021-09-30T07:48:50Z</time>
      </trkpt>
      <trkpt lat="42.4383880" lon="-2.5197780">
        <ele>495.2</ele>
        <time>2021-09-30T07:48:53Z</time>
      </trkpt>
      <trkpt lat="42.4384410" lon="-2.5198450">
        <ele>496.2</ele>
        <time>2021-09-30T07:48:55Z</time>
      </trkpt>
      <trkpt lat="42.4385060" lon="-2.5199560">
        <ele>497.4</ele>
        <time>2021-09-30T07:48:58Z</time>
      </trkpt>
      <trkpt lat="42.4385910" lon="-2.5201150">
        <ele>498.4</ele>
        <time>2021-09-30T07:49:02Z</time>
      </trkpt>
      <trkpt lat="42.4386510" lon="-2.5202440">
        <ele>499.6</ele>
        <time>2021-09-30T07:49:05Z</time>
      </trkpt>
      <trkpt lat="42.4387650" lon="-2.5205660">
        <ele>500.2</ele>
        <time>2021-09-30T07:49:12Z</time>
      </trkpt>
      <trkpt lat="42.4388400" lon="-2.5207730">
        <ele>500.6</ele>
        <time>2021-09-30T07:49:17Z</time>
      </trkpt>
      <trkpt lat="42.4389670" lon="-2.5210190">
        <ele>501.6</ele>
        <time>2021-09-30T07:49:24Z</time>
      </trkpt>
      <trkpt lat="42.4391130" lon="-2.5212420">
        <ele>502.8</ele>
        <time>2021-09-30T07:49:31Z</time>
      </trkpt>
      <trkpt lat="42.4391720" lon="-2.5213800">
        <ele>503.8</ele>
        <time>2021-09-30T07:49:35Z</time>
      </trkpt>
      <trkpt lat="42.4391940" lon="-2.5214580">
        <ele>505.2</ele>
        <time>2021-09-30T07:49:37Z</time>
      </trkpt>
      <trkpt lat="42.4392820" lon="-2.5217660">
        <ele>506.4</ele>
        <time>2021-09-30T07:49:45Z</time>
      </trkpt>
      <trkpt lat="42.4393320" lon="-2.5219190">
        <ele>507.4</ele>
        <time>2021-09-30T07:49:49Z</time>
      </trkpt>
      <trkpt lat="42.4393880" lon="-2.5221210">
        <ele>508.6</ele>
        <time>2021-09-30T07:49:54Z</time>
      </trkpt>
      <trkpt lat="42.4394160" lon="-2.5223340">
        <ele>509.6</ele>
        <time>2021-09-30T07:49:59Z</time>
      </trkpt>
      <trkpt lat="42.4394630" lon="-2.5224900">
        <ele>510.6</ele>
        <time>2021-09-30T07:50:03Z</time>
      </trkpt>
      <trkpt lat="42.4395420" lon="-2.5226740">
        <ele>511.6</ele>
        <time>2021-09-30T07:50:08Z</time>
      </trkpt>
      <trkpt lat="42.4396350" lon="-2.5228570">
        <ele>512.6</ele>
        <time>2021-09-30T07:50:13Z</time>
      </trkpt>
      <trkpt lat="42.4398290" lon="-2.5231310">
        <ele>513.8</ele>
        <time>2021-09-30T07:50:22Z</time>
      </trkpt>
      <trkpt lat="42.4399290" lon="-2.5233070">
        <ele>515.0</ele>
        <time>2021-09-30T07:50:27Z</time>
      </trkpt>
      <trkpt lat="42.4400300" lon="-2.5235560">
        <ele>516.0</ele>
        <time>2021-09-30T07:50:33Z</time>
      </trkpt>
      <trkpt lat="42.4400880" lon="-2.5238830">
        <ele>517.2</ele>
        <time>2021-09-30T07:50:40Z</time>
      </trkpt>
      <trkpt lat="42.4400650" lon="-2.5241070">
        <ele>518.0</ele>
        <time>2021-09-30T07:50:45Z</time>
      </trkpt>
      <trkpt lat="42.4400580" lon="-2.5241490">
        <ele>518.2</ele>
        <time>2021-09-30T07:50:46Z</time>
      </trkpt>
      <trkpt lat="42.4399970" lon="-2.5244900">
        <ele>519.2</ele>
        <time>2021-09-30T07:50:54Z</time>
      </trkpt>
      <trkpt lat="42.4399570" lon="-2.5246970">
        <ele>520.4</ele>
        <time>2021-09-30T07:50:59Z</time>
      </trkpt>
      <trkpt lat="42.4399230" lon="-2.5249120">
        <ele>521.6</ele>
        <time>2021-09-30T07:51:04Z</time>
      </trkpt>
      <trkpt lat="42.4399020" lon="-2.5250980">
        <ele>522.8</ele>
        <time>2021-09-30T07:51:08Z</time>
      </trkpt>
      <trkpt lat="42.4398870" lon="-2.5253160">
        <ele>523.8</ele>
        <time>2021-09-30T07:51:12Z</time>
      </trkpt>
      <trkpt lat="42.4398630" lon="-2.5256800">
        <ele>524.2</ele>
        <time>2021-09-30T07:51:18Z</time>
      </trkpt>
      <trkpt lat="42.4398480" lon="-2.5259420">
        <ele>524.2</ele>
        <time>2021-09-30T07:51:22Z</time>
      </trkpt>
      <trkpt lat="42.4398260" lon="-2.5262150">
        <ele>524.0</ele>
        <time>2021-09-30T07:51:26Z</time>
      </trkpt>
      <trkpt lat="42.4398070" lon="-2.5264260">
        <ele>523.8</ele>
        <time>2021-09-30T07:51:29Z</time>
      </trkpt>
      <trkpt lat="42.4397890" lon="-2.5267780">
        <ele>523.2</ele>
        <time>2021-09-30T07:51:34Z</time>
      </trkpt>
      <trkpt lat="42.4397860" lon="-2.5269290">
        <ele>523.0</ele>
        <time>2021-09-30T07:51:36Z</time>
      </trkpt>
      <trkpt lat="42.4397880" lon="-2.5270910">
        <ele>522.6</ele>
        <time>2021-09-30T07:51:38Z</time>
      </trkpt>
      <trkpt lat="42.4397680" lon="-2.5273310">
        <ele>522.2</ele>
        <time>2021-09-30T07:51:41Z</time>
      </trkpt>
      <trkpt lat="42.4397420" lon="-2.5274900">
        <ele>521.6</ele>
        <time>2021-09-30T07:51:43Z</time>
      </trkpt>
      <trkpt lat="42.4397080" lon="-2.5278630">
        <ele>520.0</ele>
        <time>2021-09-30T07:51:47Z</time>
      </trkpt>
      <trkpt lat="42.4396770" lon="-2.5281650">
        <ele>518.0</ele>
        <time>2021-09-30T07:51:50Z</time>
      </trkpt>
      <trkpt lat="42.4396470" lon="-2.5283670">
        <ele>516.4</ele>
        <time>2021-09-30T07:51:52Z</time>
      </trkpt>
      <trkpt lat="42.4396160" lon="-2.5285610">
        <ele>515.0</ele>
        <time>2021-09-30T07:51:54Z</time>
      </trkpt>
      <trkpt lat="42.4395650" lon="-2.5290850">
        <ele>514.0</ele>
        <time>2021-09-30T07:51:59Z</time>
      </trkpt>
      <trkpt lat="42.4394230" lon="-2.5297930">
        <ele>513.0</ele>
        <time>2021-09-30T07:52:05Z</time>
      </trkpt>
      <trkpt lat="42.4394000" lon="-2.5299070">
        <ele>512.0</ele>
        <time>2021-09-30T07:52:06Z</time>
      </trkpt>
      <trkpt lat="42.4393790" lon="-2.5300200">
        <ele>510.6</ele>
        <time>2021-09-30T07:52:07Z</time>
      </trkpt>
      <trkpt lat="42.4393600" lon="-2.5301340">
        <ele>509.4</ele>
        <time>2021-09-30T07:52:08Z</time>
      </trkpt>
      <trkpt lat="42.4393260" lon="-2.5303620">
        <ele>508.0</ele>
        <time>2021-09-30T07:52:10Z</time>
      </trkpt>
      <trkpt lat="42.4392620" lon="-2.5307070">
        <ele>506.8</ele>
        <time>2021-09-30T07:52:13Z</time>
      </trkpt>
      <trkpt lat="42.4391430" lon="-2.5312350">
        <ele>505.8</ele>
        <time>2021-09-30T07:52:18Z</time>
      </trkpt>
      <trkpt lat="42.4390410" lon="-2.5315980">
        <ele>505.2</ele>
        <time>2021-09-30T07:52:22Z</time>
      </trkpt>
      <trkpt lat="42.4389560" lon="-2.5318320">
        <ele>505.2</ele>
        <time>2021-09-30T07:52:25Z</time>
      </trkpt>
      <trkpt lat="42.4389320" lon="-2.5319060">
        <ele>505.2</ele>
        <time>2021-09-30T07:52:26Z</time>
      </trkpt>
      <trkpt lat="42.4388260" lon="-2.5326150">
        <ele>506.0</ele>
        <time>2021-09-30T07:52:35Z</time>
      </trkpt>
      <trkpt lat="42.4388090" lon="-2.5330580">
        <ele>506.0</ele>
        <time>2021-09-30T07:52:40Z</time>
      </trkpt>
      <trkpt lat="42.4388070" lon="-2.5332300">
        <ele>506.0</ele>
        <time>2021-09-30T07:52:42Z</time>
      </trkpt>
      <trkpt lat="42.4387670" lon="-2.5335080">
        <ele>504.6</ele>
        <time>2021-09-30T07:52:45Z</time>
      </trkpt>
      <trkpt lat="42.4386660" lon="-2.5340810">
        <ele>503.6</ele>
        <time>2021-09-30T07:52:52Z</time>
      </trkpt>
      <trkpt lat="42.4386270" lon="-2.5343080">
        <ele>503.4</ele>
        <time>2021-09-30T07:52:55Z</time>
      </trkpt>
      <trkpt lat="42.4386140" lon="-2.5345310">
        <ele>503.4</ele>
        <time>2021-09-30T07:52:58Z</time>
      </trkpt>
      <trkpt lat="42.4385600" lon="-2.5350550">
        <ele>503.4</ele>
        <time>2021-09-30T07:53:04Z</time>
      </trkpt>
      <trkpt lat="42.4384720" lon="-2.5356220">
        <ele>502.6</ele>
        <time>2021-09-30T07:53:10Z</time>
      </trkpt>
      <trkpt lat="42.4384420" lon="-2.5357100">
        <ele>502.2</ele>
        <time>2021-09-30T07:53:11Z</time>
      </trkpt>
      <trkpt lat="42.4383250" lon="-2.5360210">
        <ele>501.0</ele>
        <time>2021-09-30T07:53:15Z</time>
      </trkpt>
      <trkpt lat="42.4383010" lon="-2.5362060">
        <ele>500.8</ele>
        <time>2021-09-30T07:53:19Z</time>
      </trkpt>
      <trkpt lat="42.4383880" lon="-2.5363500">
        <ele>500.4</ele>
        <time>2021-09-30T07:53:23Z</time>
      </trkpt>
      <trkpt lat="42.4384450" lon="-2.5364370">
        <ele>500.2</ele>
        <time>2021-09-30T07:53:25Z</time>
      </trkpt>
      <trkpt lat="42.4386080" lon="-2.5368630">
        <ele>499.8</ele>
        <time>2021-09-30T07:53:31Z</time>
      </trkpt>
      <trkpt lat="42.4387700" lon="-2.5371520">
        <ele>498.4</ele>
        <time>2021-09-30T07:53:35Z</time>
      </trkpt>
      <trkpt lat="42.4388630" lon="-2.5374120">
        <ele>497.4</ele>
        <time>2021-09-30T07:53:38Z</time>
      </trkpt>
      <trkpt lat="42.4388830" lon="-2.5375100">
        <ele>497.2</ele>
        <time>2021-09-30T07:53:39Z</time>
      </trkpt>
      <trkpt lat="42.4389200" lon="-2.5377110">
        <ele>496.4</ele>
        <time>2021-09-30T07:53:41Z</time>
      </trkpt>
      <trkpt lat="42.4389780" lon="-2.5380140">
        <ele>494.8</ele>
        <time>2021-09-30T07:53:44Z</time>
      </trkpt>
      <trkpt lat="42.4390340" lon="-2.5383170">
        <ele>493.2</ele>
        <time>2021-09-30T07:53:47Z</time>
      </trkpt>
      <trkpt lat="42.4390680" lon="-2.5385150">
        <ele>492.2</ele>
        <time>2021-09-30T07:53:49Z</time>
      </trkpt>
      <trkpt lat="42.4390990" lon="-2.5386850">
        <ele>491.2</ele>
        <time>2021-09-30T07:53:51Z</time>
      </trkpt>
      <trkpt lat="42.4391110" lon="-2.5387540">
        <ele>491.2</ele>
        <time>2021-09-30T07:53:52Z</time>
      </trkpt>
      <trkpt lat="42.4391920" lon="-2.5391540">
        <ele>490.8</ele>
        <time>2021-09-30T07:53:58Z</time>
      </trkpt>
      <trkpt lat="42.4392230" lon="-2.5393250">
        <ele>490.6</ele>
        <time>2021-09-30T07:54:00Z</time>
      </trkpt>
      <trkpt lat="42.4392800" lon="-2.5396330">
        <ele>490.0</ele>
        <time>2021-09-30T07:54:04Z</time>
      </trkpt>
      <trkpt lat="42.4393370" lon="-2.5399250">
        <ele>489.0</ele>
        <time>2021-09-30T07:54:10Z</time>
      </trkpt>
      <trkpt lat="42.4393530" lon="-2.5399950">
        <ele>488.8</ele>
        <time>2021-09-30T07:54:11Z</time>
      </trkpt>
      <trkpt lat="42.4393890" lon="-2.5401550">
        <ele>488.4</ele>
        <time>2021-09-30T07:54:13Z</time>
      </trkpt>
      <trkpt lat="42.4394510" lon="-2.5404170">
        <ele>488.0</ele>
        <time>2021-09-30T07:54:16Z</time>
      </trkpt>
      <trkpt lat="42.4394960" lon="-2.5405950">
        <ele>487.6</ele>
        <time>2021-09-30T07:54:18Z</time>
      </trkpt>
      <trkpt lat="42.4395460" lon="-2.5407700">
        <ele>486.6</ele>
        <time>2021-09-30T07:54:20Z</time>
      </trkpt>
      <trkpt lat="42.4395970" lon="-2.5409300">
        <ele>485.4</ele>
        <time>2021-09-30T07:54:22Z</time>
      </trkpt>
      <trkpt lat="42.4397000" lon="-2.5412340">
        <ele>484.4</ele>
        <time>2021-09-30T07:54:26Z</time>
      </trkpt>
      <trkpt lat="42.4397480" lon="-2.5414130">
        <ele>484.2</ele>
        <time>2021-09-30T07:54:29Z</time>
      </trkpt>
      <trkpt lat="42.4395060" lon="-2.5415470">
        <ele>484.0</ele>
        <time>2021-09-30T07:54:37Z</time>
      </trkpt>
      <trkpt lat="42.4394630" lon="-2.5415520">
        <ele>484.0</ele>
        <time>2021-09-30T07:54:38Z</time>
      </trkpt>
      <trkpt lat="42.4394010" lon="-2.5416240">
        <ele>484.6</ele>
        <time>2021-09-30T07:54:40Z</time>
      </trkpt>
      <trkpt lat="42.4393840" lon="-2.5417930">
        <ele>485.2</ele>
        <time>2021-09-30T07:54:43Z</time>
      </trkpt>
      <trkpt lat="42.4394180" lon="-2.5419120">
        <ele>485.6</ele>
        <time>2021-09-30T07:54:45Z</time>
      </trkpt>
      <trkpt lat="42.4396050" lon="-2.5425370">
        <ele>486.0</ele>
        <time>2021-09-30T07:54:54Z</time>
      </trkpt>
      <trkpt lat="42.4395980" lon="-2.5427710">
        <ele>485.6</ele>
        <time>2021-09-30T07:54:57Z</time>
      </trkpt>
      <trkpt lat="42.4395970" lon="-2.5430110">
        <ele>484.4</ele>
        <time>2021-09-30T07:55:00Z</time>
      </trkpt>
      <trkpt lat="42.4396290" lon="-2.5432400">
        <ele>483.2</ele>
        <time>2021-09-30T07:55:03Z</time>
      </trkpt>
      <trkpt lat="42.4396400" lon="-2.5434380">
        <ele>482.4</ele>
        <time>2021-09-30T07:55:06Z</time>
      </trkpt>
      <trkpt lat="42.4396140" lon="-2.5435410">
        <ele>482.0</ele>
        <time>2021-09-30T07:55:08Z</time>
      </trkpt>
      <trkpt lat="42.4395040" lon="-2.5435850">
        <ele>481.2</ele>
        <time>2021-09-30T07:55:11Z</time>
      </trkpt>
      <trkpt lat="42.4394520" lon="-2.5435810">
        <ele>480.6</ele>
        <time>2021-09-30T07:55:12Z</time>
      </trkpt>
      <trkpt lat="42.4393350" lon="-2.5435660">
        <ele>478.4</ele>
        <time>2021-09-30T07:55:14Z</time>
      </trkpt>
      <trkpt lat="42.4392110" lon="-2.5435490">
        <ele>478.0</ele>
        <time>2021-09-30T07:55:16Z</time>
      </trkpt>
      <trkpt lat="42.4390830" lon="-2.5435210">
        <ele>477.8</ele>
        <time>2021-09-30T07:55:18Z</time>
      </trkpt>
      <trkpt lat="42.4389550" lon="-2.5434870">
        <ele>477.8</ele>
        <time>2021-09-30T07:55:20Z</time>
      </trkpt>
      <trkpt lat="42.4387670" lon="-2.5434240">
        <ele>477.8</ele>
        <time>2021-09-30T07:55:23Z</time>
      </trkpt>
      <trkpt lat="42.4384580" lon="-2.5432890">
        <ele>478.0</ele>
        <time>2021-09-30T07:55:28Z</time>
      </trkpt>
      <trkpt lat="42.4382090" lon="-2.5431820">
        <ele>478.4</ele>
        <time>2021-09-30T07:55:32Z</time>
      </trkpt>
      <trkpt lat="42.4377760" lon="-2.5429690">
        <ele>479.6</ele>
        <time>2021-09-30T07:55:39Z</time>
      </trkpt>
      <trkpt lat="42.4373280" lon="-2.5427650">
        <ele>480.6</ele>
        <time>2021-09-30T07:55:46Z</time>
      </trkpt>
      <trkpt lat="42.4369480" lon="-2.5425870">
        <ele>481.6</ele>
        <time>2021-09-30T07:55:52Z</time>
      </trkpt>
      <trkpt lat="42.4365720" lon="-2.5424970">
        <ele>482.6</ele>
        <time>2021-09-30T07:55:58Z</time>
      </trkpt>
      <trkpt lat="42.4363690" lon="-2.5427080">
        <ele>483.2</ele>
        <time>2021-09-30T07:56:03Z</time>
      </trkpt>
      <trkpt lat="42.4363320" lon="-2.5428710">
        <ele>483.2</ele>
        <time>2021-09-30T07:56:05Z</time>
      </trkpt>
      <trkpt lat="42.4363070" lon="-2.5430630">
        <ele>483.2</ele>
        <time>2021-09-30T07:56:07Z</time>
      </trkpt>
      <trkpt lat="42.4362790" lon="-2.5433760">
        <ele>483.2</ele>
        <time>2021-09-30T07:56:10Z</time>
      </trkpt>
      <trkpt lat="42.4362360" lon="-2.5436950">
        <ele>481.4</ele>
        <time>2021-09-30T07:56:13Z</time>
      </trkpt>
      <trkpt lat="42.4362070" lon="-2.5439080">
        <ele>479.6</ele>
        <time>2021-09-30T07:56:15Z</time>
      </trkpt>
      <trkpt lat="42.4361810" lon="-2.5441230">
        <ele>478.4</ele>
        <time>2021-09-30T07:56:17Z</time>
      </trkpt>
      <trkpt lat="42.4361440" lon="-2.5444060">
        <ele>476.6</ele>
        <time>2021-09-30T07:56:20Z</time>
      </trkpt>
      <trkpt lat="42.4361110" lon="-2.5446670">
        <ele>475.8</ele>
        <time>2021-09-30T07:56:23Z</time>
      </trkpt>
      <trkpt lat="42.4361040" lon="-2.5447510">
        <ele>475.8</ele>
        <time>2021-09-30T07:56:24Z</time>
      </trkpt>
      <trkpt lat="42.4360990" lon="-2.5449070">
        <ele>475.8</ele>
        <time>2021-09-30T07:56:26Z</time>
      </trkpt>
      <trkpt lat="42.4360920" lon="-2.5449810">
        <ele>475.8</ele>
        <time>2021-09-30T07:56:27Z</time>
      </trkpt>
      <trkpt lat="42.4359890" lon="-2.5455200">
        <ele>475.8</ele>
        <time>2021-09-30T07:56:34Z</time>
      </trkpt>
      <trkpt lat="42.4359040" lon="-2.5460160">
        <ele>475.8</ele>
        <time>2021-09-30T07:56:39Z</time>
      </trkpt>
      <trkpt lat="42.4358690" lon="-2.5462110">
        <ele>475.2</ele>
        <time>2021-09-30T07:56:41Z</time>
      </trkpt>
      <trkpt lat="42.4358390" lon="-2.5464000">
        <ele>474.2</ele>
        <time>2021-09-30T07:56:43Z</time>
      </trkpt>
      <trkpt lat="42.4358190" lon="-2.5465780">
        <ele>473.8</ele>
        <time>2021-09-30T07:56:45Z</time>
      </trkpt>
      <trkpt lat="42.4357690" lon="-2.5470080">
        <ele>473.4</ele>
        <time>2021-09-30T07:56:50Z</time>
      </trkpt>
      <trkpt lat="42.4357560" lon="-2.5471000">
        <ele>473.2</ele>
        <time>2021-09-30T07:56:51Z</time>
      </trkpt>
      <trkpt lat="42.4356480" lon="-2.5477660">
        <ele>472.6</ele>
        <time>2021-09-30T07:56:58Z</time>
      </trkpt>
      <trkpt lat="42.4356070" lon="-2.5479430">
        <ele>472.2</ele>
        <time>2021-09-30T07:57:00Z</time>
      </trkpt>
      <trkpt lat="42.4355560" lon="-2.5482620">
        <ele>472.0</ele>
        <time>2021-09-30T07:57:04Z</time>
      </trkpt>
      <trkpt lat="42.4356110" lon="-2.5486740">
        <ele>471.8</ele>
        <time>2021-09-30T07:57:09Z</time>
      </trkpt>
      <trkpt lat="42.4356810" lon="-2.5488130">
        <ele>472.0</ele>
        <time>2021-09-30T07:57:14Z</time>
      </trkpt>
      <trkpt lat="42.4356300" lon="-2.5488390">
        <ele>473.4</ele>
        <time>2021-09-30T07:57:21Z</time>
      </trkpt>
      <trkpt lat="42.4356340" lon="-2.5488660">
        <ele>473.6</ele>
        <time>2021-09-30T07:57:22Z</time>
      </trkpt>
      <trkpt lat="42.4356690" lon="-2.5489550">
        <ele>474.0</ele>
        <time>2021-09-30T07:57:25Z</time>
      </trkpt>
      <trkpt lat="42.4357090" lon="-2.5490690">
        <ele>474.4</ele>
        <time>2021-09-30T07:57:28Z</time>
      </trkpt>
      <trkpt lat="42.4357830" lon="-2.5492090">
        <ele>474.4</ele>
        <time>2021-09-30T07:57:31Z</time>
      </trkpt>
      <trkpt lat="42.4358960" lon="-2.5494730">
        <ele>474.8</ele>
        <time>2021-09-30T07:57:36Z</time>
      </trkpt>
      <trkpt lat="42.4359110" lon="-2.5495310">
        <ele>475.0</ele>
        <time>2021-09-30T07:57:37Z</time>
      </trkpt>
      <trkpt lat="42.4358990" lon="-2.5497560">
        <ele>475.8</ele>
        <time>2021-09-30T07:57:41Z</time>
      </trkpt>
      <trkpt lat="42.4358470" lon="-2.5498420">
        <ele>476.6</ele>
        <time>2021-09-30T07:57:43Z</time>
      </trkpt>
      <trkpt lat="42.4358190" lon="-2.5498830">
        <ele>476.8</ele>
        <time>2021-09-30T07:57:44Z</time>
      </trkpt>
      <trkpt lat="42.4357040" lon="-2.5500330">
        <ele>478.2</ele>
        <time>2021-09-30T07:57:48Z</time>
      </trkpt>
      <trkpt lat="42.4356090" lon="-2.5501600">
        <ele>479.2</ele>
        <time>2021-09-30T07:57:51Z</time>
      </trkpt>
      <trkpt lat="42.4351680" lon="-2.5507180">
        <ele>480.0</ele>
        <time>2021-09-30T07:58:01Z</time>
      </trkpt>
      <trkpt lat="42.4350560" lon="-2.5508980">
        <ele>479.6</ele>
        <time>2021-09-30T07:58:03Z</time>
      </trkpt>
      <trkpt lat="42.4349230" lon="-2.5512340">
        <ele>477.2</ele>
        <time>2021-09-30T07:58:06Z</time>
      </trkpt>
      <trkpt lat="42.4348860" lon="-2.5513520">
        <ele>476.2</ele>
        <time>2021-09-30T07:58:07Z</time>
      </trkpt>
      <trkpt lat="42.4348160" lon="-2.5515810">
        <ele>474.2</ele>
        <time>2021-09-30T07:58:09Z</time>
      </trkpt>
      <trkpt lat="42.4347510" lon="-2.5518040">
        <ele>472.0</ele>
        <time>2021-09-30T07:58:11Z</time>
      </trkpt>
      <trkpt lat="42.4347240" lon="-2.5519150">
        <ele>471.0</ele>
        <time>2021-09-30T07:58:12Z</time>
      </trkpt>
      <trkpt lat="42.4346500" lon="-2.5522360">
        <ele>469.8</ele>
        <time>2021-09-30T07:58:15Z</time>
      </trkpt>
      <trkpt lat="42.4344500" lon="-2.5529260">
        <ele>469.8</ele>
        <time>2021-09-30T07:58:22Z</time>
      </trkpt>
      <trkpt lat="42.4343600" lon="-2.5531910">
        <ele>470.4</ele>
        <time>2021-09-30T07:58:25Z</time>
      </trkpt>
      <trkpt lat="42.4342810" lon="-2.5534180">
        <ele>471.0</ele>
        <time>2021-09-30T07:58:28Z</time>
      </trkpt>
      <trkpt lat="42.4341580" lon="-2.5538420">
        <ele>471.4</ele>
        <time>2021-09-30T07:58:34Z</time>
      </trkpt>
      <trkpt lat="42.4340860" lon="-2.5541490">
        <ele>472.0</ele>
        <time>2021-09-30T07:58:38Z</time>
      </trkpt>
      <trkpt lat="42.4340430" lon="-2.5542570">
        <ele>472.2</ele>
        <time>2021-09-30T07:58:40Z</time>
      </trkpt>
      <trkpt lat="42.4338640" lon="-2.5548280">
        <ele>472.6</ele>
        <time>2021-09-30T07:58:48Z</time>
      </trkpt>
      <trkpt lat="42.4337620" lon="-2.5551640">
        <ele>472.8</ele>
        <time>2021-09-30T07:58:52Z</time>
      </trkpt>
      <trkpt lat="42.4335480" lon="-2.5559220">
        <ele>472.8</ele>
        <time>2021-09-30T07:59:01Z</time>
      </trkpt>
      <trkpt lat="42.4333550" lon="-2.5565830">
        <ele>473.0</ele>
        <time>2021-09-30T07:59:09Z</time>
      </trkpt>
      <trkpt lat="42.4332160" lon="-2.5570670">
        <ele>473.6</ele>
        <time>2021-09-30T07:59:15Z</time>
      </trkpt>
      <trkpt lat="42.4330160" lon="-2.5577640">
        <ele>474.0</ele>
        <time>2021-09-30T07:59:24Z</time>
      </trkpt>
      <trkpt lat="42.4329980" lon="-2.5578390">
        <ele>474.0</ele>
        <time>2021-09-30T07:59:25Z</time>
      </trkpt>
      <trkpt lat="42.4329460" lon="-2.5580560">
        <ele>474.4</ele>
        <time>2021-09-30T07:59:28Z</time>
      </trkpt>
      <trkpt lat="42.4328890" lon="-2.5582660">
        <ele>474.8</ele>
        <time>2021-09-30T07:59:31Z</time>
      </trkpt>
      <trkpt lat="42.4328740" lon="-2.5583350">
        <ele>475.2</ele>
        <time>2021-09-30T07:59:32Z</time>
      </trkpt>
      <trkpt lat="42.4328180" lon="-2.5585260">
        <ele>476.4</ele>
        <time>2021-09-30T07:59:35Z</time>
      </trkpt>
      <trkpt lat="42.4327730" lon="-2.5586460">
        <ele>477.4</ele>
        <time>2021-09-30T07:59:37Z</time>
      </trkpt>
      <trkpt lat="42.4327020" lon="-2.5588020">
        <ele>479.0</ele>
        <time>2021-09-30T07:59:40Z</time>
      </trkpt>
      <trkpt lat="42.4326560" lon="-2.5588930">
        <ele>480.0</ele>
        <time>2021-09-30T07:59:42Z</time>
      </trkpt>
      <trkpt lat="42.4326130" lon="-2.5589740">
        <ele>480.8</ele>
        <time>2021-09-30T07:59:44Z</time>
      </trkpt>
      <trkpt lat="42.4325680" lon="-2.5590880">
        <ele>482.0</ele>
        <time>2021-09-30T07:59:47Z</time>
      </trkpt>
      <trkpt lat="42.4325620" lon="-2.5591670">
        <ele>483.2</ele>
        <time>2021-09-30T07:59:49Z</time>
      </trkpt>
      <trkpt lat="42.4326050" lon="-2.5592750">
        <ele>484.4</ele>
        <time>2021-09-30T07:59:52Z</time>
      </trkpt>
      <trkpt lat="42.4326500" lon="-2.5593320">
        <ele>485.6</ele>
        <time>2021-09-30T07:59:54Z</time>
      </trkpt>
      <trkpt lat="42.4327440" lon="-2.5593700">
        <ele>486.8</ele>
        <time>2021-09-30T07:59:57Z</time>
      </trkpt>
      <trkpt lat="42.4328360" lon="-2.5593930">
        <ele>487.8</ele>
        <time>2021-09-30T08:00:00Z</time>
      </trkpt>
      <trkpt lat="42.4328610" lon="-2.5594140">
        <ele>488.2</ele>
        <time>2021-09-30T08:00:01Z</time>
      </trkpt>
      <trkpt lat="42.4328560" lon="-2.5595000">
        <ele>489.2</ele>
        <time>2021-09-30T08:00:04Z</time>
      </trkpt>
      <trkpt lat="42.4327530" lon="-2.5594930">
        <ele>490.4</ele>
        <time>2021-09-30T08:00:08Z</time>
      </trkpt>
      <trkpt lat="42.4326400" lon="-2.5594580">
        <ele>491.6</ele>
        <time>2021-09-30T08:00:12Z</time>
      </trkpt>
      <trkpt lat="42.4325240" lon="-2.5594240">
        <ele>492.6</ele>
        <time>2021-09-30T08:00:16Z</time>
      </trkpt>
      <trkpt lat="42.4323320" lon="-2.5593400">
        <ele>494.2</ele>
        <time>2021-09-30T08:00:23Z</time>
      </trkpt>
      <trkpt lat="42.4322180" lon="-2.5592770">
        <ele>494.4</ele>
        <time>2021-09-30T08:00:26Z</time>
      </trkpt>
      <trkpt lat="42.4319490" lon="-2.5592090">
        <ele>494.6</ele>
        <time>2021-09-30T08:00:33Z</time>
      </trkpt>
      <trkpt lat="42.4317230" lon="-2.5593740">
        <ele>495.2</ele>
        <time>2021-09-30T08:00:42Z</time>
      </trkpt>
      <trkpt lat="42.4315730" lon="-2.5594660">
        <ele>496.4</ele>
        <time>2021-09-30T08:00:48Z</time>
      </trkpt>
      <trkpt lat="42.4314960" lon="-2.5594880">
        <ele>497.6</ele>
        <time>2021-09-30T08:00:51Z</time>
      </trkpt>
      <trkpt lat="42.4313880" lon="-2.5594630">
        <ele>498.8</ele>
        <time>2021-09-30T08:00:55Z</time>
      </trkpt>
      <trkpt lat="42.4313320" lon="-2.5594580">
        <ele>500.0</ele>
        <time>2021-09-30T08:00:57Z</time>
      </trkpt>
      <trkpt lat="42.4312550" lon="-2.5594520">
        <ele>501.2</ele>
        <time>2021-09-30T08:01:00Z</time>
      </trkpt>
      <trkpt lat="42.4311540" lon="-2.5594590">
        <ele>502.6</ele>
        <time>2021-09-30T08:01:04Z</time>
      </trkpt>
      <trkpt lat="42.4310730" lon="-2.5594640">
        <ele>504.0</ele>
        <time>2021-09-30T08:01:07Z</time>
      </trkpt>
      <trkpt lat="42.4309980" lon="-2.5594440">
        <ele>505.0</ele>
        <time>2021-09-30T08:01:10Z</time>
      </trkpt>
      <trkpt lat="42.4309000" lon="-2.5594720">
        <ele>506.2</ele>
        <time>2021-09-30T08:01:14Z</time>
      </trkpt>
      <trkpt lat="42.4308050" lon="-2.5594860">
        <ele>507.2</ele>
        <time>2021-09-30T08:01:18Z</time>
      </trkpt>
      <trkpt lat="42.4306790" lon="-2.5595180">
        <ele>508.4</ele>
        <time>2021-09-30T08:01:23Z</time>
      </trkpt>
      <trkpt lat="42.4306030" lon="-2.5595340">
        <ele>509.0</ele>
        <time>2021-09-30T08:01:26Z</time>
      </trkpt>
      <trkpt lat="42.4305770" lon="-2.5595410">
        <ele>509.4</ele>
        <time>2021-09-30T08:01:27Z</time>
      </trkpt>
      <trkpt lat="42.4305260" lon="-2.5595560">
        <ele>510.0</ele>
        <time>2021-09-30T08:01:29Z</time>
      </trkpt>
      <trkpt lat="42.4304780" lon="-2.5595700">
        <ele>510.8</ele>
        <time>2021-09-30T08:01:31Z</time>
      </trkpt>
      <trkpt lat="42.4303470" lon="-2.5595910">
        <ele>512.0</ele>
        <time>2021-09-30T08:01:36Z</time>
      </trkpt>
      <trkpt lat="42.4301850" lon="-2.5596660">
        <ele>513.0</ele>
        <time>2021-09-30T08:01:42Z</time>
      </trkpt>
      <trkpt lat="42.4300630" lon="-2.5597540">
        <ele>514.0</ele>
        <time>2021-09-30T08:01:47Z</time>
      </trkpt>
      <trkpt lat="42.4299140" lon="-2.5598660">
        <ele>514.6</ele>
        <time>2021-09-30T08:01:53Z</time>
      </trkpt>
      <trkpt lat="42.4297950" lon="-2.5600490">
        <ele>515.0</ele>
        <time>2021-09-30T08:01:59Z</time>
      </trkpt>
      <trkpt lat="42.4297110" lon="-2.5602980">
        <ele>515.2</ele>
        <time>2021-09-30T08:02:05Z</time>
      </trkpt>
      <trkpt lat="42.4296830" lon="-2.5603790">
        <ele>515.2</ele>
        <time>2021-09-30T08:02:07Z</time>
      </trkpt>
      <trkpt lat="42.4296430" lon="-2.5604700">
        <ele>515.2</ele>
        <time>2021-09-30T08:02:09Z</time>
      </trkpt>
      <trkpt lat="42.4296180" lon="-2.5605190">
        <ele>515.2</ele>
        <time>2021-09-30T08:02:10Z</time>
      </trkpt>
      <trkpt lat="42.4295490" lon="-2.5606920">
        <ele>515.2</ele>
        <time>2021-09-30T08:02:14Z</time>
      </trkpt>
      <trkpt lat="42.4294650" lon="-2.5609900">
        <ele>515.2</ele>
        <time>2021-09-30T08:02:22Z</time>
      </trkpt>
      <trkpt lat="42.4294700" lon="-2.5611330">
        <ele>515.0</ele>
        <time>2021-09-30T08:02:24Z</time>
      </trkpt>
      <trkpt lat="42.4295000" lon="-2.5613470">
        <ele>515.0</ele>
        <time>2021-09-30T08:02:27Z</time>
      </trkpt>
      <trkpt lat="42.4295120" lon="-2.5617460">
        <ele>514.4</ele>
        <time>2021-09-30T08:02:36Z</time>
      </trkpt>
      <trkpt lat="42.4295250" lon="-2.5618830">
        <ele>514.6</ele>
        <time>2021-09-30T08:02:41Z</time>
      </trkpt>
      <trkpt lat="42.4295980" lon="-2.5620970">
        <ele>516.0</ele>
        <time>2021-09-30T08:02:47Z</time>
      </trkpt>
      <trkpt lat="42.4297970" lon="-2.5623250">
        <ele>517.2</ele>
        <time>2021-09-30T08:02:53Z</time>
      </trkpt>
      <trkpt lat="42.4299830" lon="-2.5624590">
        <ele>518.2</ele>
        <time>2021-09-30T08:02:59Z</time>
      </trkpt>
      <trkpt lat="42.4301350" lon="-2.5626040">
        <ele>519.6</ele>
        <time>2021-09-30T08:03:05Z</time>
      </trkpt>
      <trkpt lat="42.4303190" lon="-2.5627590">
        <ele>520.4</ele>
        <time>2021-09-30T08:03:11Z</time>
      </trkpt>
      <trkpt lat="42.4303960" lon="-2.5628130">
        <ele>520.4</ele>
        <time>2021-09-30T08:03:13Z</time>
      </trkpt>
      <trkpt lat="42.4305090" lon="-2.5629010">
        <ele>520.4</ele>
        <time>2021-09-30T08:03:16Z</time>
      </trkpt>
      <trkpt lat="42.4306560" lon="-2.5629340">
        <ele>520.0</ele>
        <time>2021-09-30T08:03:19Z</time>
      </trkpt>
      <trkpt lat="42.4307020" lon="-2.5629600">
        <ele>519.8</ele>
        <time>2021-09-30T08:03:20Z</time>
      </trkpt>
      <trkpt lat="42.4307980" lon="-2.5630470">
        <ele>519.2</ele>
        <time>2021-09-30T08:03:23Z</time>
      </trkpt>
      <trkpt lat="42.4308350" lon="-2.5630670">
        <ele>519.0</ele>
        <time>2021-09-30T08:03:25Z</time>
      </trkpt>
      <trkpt lat="42.4308490" lon="-2.5630710">
        <ele>519.0</ele>
        <time>2021-09-30T08:03:29Z</time>
      </trkpt>
      <trkpt lat="42.4308030" lon="-2.5631560">
        <ele>518.8</ele>
        <time>2021-09-30T08:03:34Z</time>
      </trkpt>
      <trkpt lat="42.4308140" lon="-2.5632110">
        <ele>518.6</ele>
        <time>2021-09-30T08:06:00Z</time>
      </trkpt>
      <trkpt lat="42.4308110" lon="-2.5632320">
        <ele>518.6</ele>
        <time>2021-09-30T08:06:01Z</time>
      </trkpt>
      <trkpt lat="42.4307980" lon="-2.5633990">
        <ele>518.6</ele>
        <time>2021-09-30T08:06:05Z</time>
      </trkpt>
      <trkpt lat="42.4307980" lon="-2.5636440">
        <ele>517.4</ele>
        <time>2021-09-30T08:06:09Z</time>
      </trkpt>
      <trkpt lat="42.4308010" lon="-2.5637670">
        <ele>516.2</ele>
        <time>2021-09-30T08:06:11Z</time>
      </trkpt>
      <trkpt lat="42.4307850" lon="-2.5638880">
        <ele>514.8</ele>
        <time>2021-09-30T08:06:13Z</time>
      </trkpt>
      <trkpt lat="42.4307640" lon="-2.5640270">
        <ele>513.4</ele>
        <time>2021-09-30T08:06:15Z</time>
      </trkpt>
      <trkpt lat="42.4307300" lon="-2.5642680">
        <ele>512.0</ele>
        <time>2021-09-30T08:06:18Z</time>
      </trkpt>
      <trkpt lat="42.4307090" lon="-2.5644170">
        <ele>510.8</ele>
        <time>2021-09-30T08:06:20Z</time>
      </trkpt>
      <trkpt lat="42.4306850" lon="-2.5645880">
        <ele>509.2</ele>
        <time>2021-09-30T08:06:23Z</time>
      </trkpt>
      <trkpt lat="42.4306810" lon="-2.5646510">
        <ele>508.2</ele>
        <time>2021-09-30T08:06:25Z</time>
      </trkpt>
      <trkpt lat="42.4306740" lon="-2.5647550">
        <ele>507.8</ele>
        <time>2021-09-30T08:06:27Z</time>
      </trkpt>
      <trkpt lat="42.4306390" lon="-2.5649470">
        <ele>507.4</ele>
        <time>2021-09-30T08:06:30Z</time>
      </trkpt>
      <trkpt lat="42.4306140" lon="-2.5650980">
        <ele>507.0</ele>
        <time>2021-09-30T08:06:32Z</time>
      </trkpt>
      <trkpt lat="42.4305490" lon="-2.5655110">
        <ele>506.4</ele>
        <time>2021-09-30T08:06:37Z</time>
      </trkpt>
      <trkpt lat="42.4305360" lon="-2.5655930">
        <ele>506.0</ele>
        <time>2021-09-30T08:06:38Z</time>
      </trkpt>
      <trkpt lat="42.4304670" lon="-2.5660670">
        <ele>504.8</ele>
        <time>2021-09-30T08:06:44Z</time>
      </trkpt>
      <trkpt lat="42.4303450" lon="-2.5668230">
        <ele>504.6</ele>
        <time>2021-09-30T08:06:54Z</time>
      </trkpt>
      <trkpt lat="42.4302820" lon="-2.5671940">
        <ele>504.8</ele>
        <time>2021-09-30T08:06:59Z</time>
      </trkpt>
      <trkpt lat="42.4301740" lon="-2.5678490">
        <ele>505.2</ele>
        <time>2021-09-30T08:07:09Z</time>
      </trkpt>
      <trkpt lat="42.4301370" lon="-2.5681060">
        <ele>505.8</ele>
        <time>2021-09-30T08:07:13Z</time>
      </trkpt>
      <trkpt lat="42.4301200" lon="-2.5681670">
        <ele>506.0</ele>
        <time>2021-09-30T08:07:14Z</time>
      </trkpt>
      <trkpt lat="42.4298450" lon="-2.5688060">
        <ele>506.8</ele>
        <time>2021-09-30T08:07:25Z</time>
      </trkpt>
      <trkpt lat="42.4297900" lon="-2.5689210">
        <ele>506.8</ele>
        <time>2021-09-30T08:07:27Z</time>
      </trkpt>
      <trkpt lat="42.4295860" lon="-2.5693510">
        <ele>507.4</ele>
        <time>2021-09-30T08:07:34Z</time>
      </trkpt>
      <trkpt lat="42.4293400" lon="-2.5698770">
        <ele>507.6</ele>
        <time>2021-09-30T08:07:42Z</time>
      </trkpt>
      <trkpt lat="42.4290470" lon="-2.5704970">
        <ele>507.4</ele>
        <time>2021-09-30T08:07:51Z</time>
      </trkpt>
      <trkpt lat="42.4288880" lon="-2.5708430">
        <ele>507.6</ele>
        <time>2021-09-30T08:07:56Z</time>
      </trkpt>
      <trkpt lat="42.4287250" lon="-2.5711830">
        <ele>508.0</ele>
        <time>2021-09-30T08:08:01Z</time>
      </trkpt>
      <trkpt lat="42.4284990" lon="-2.5716590">
        <ele>508.2</ele>
        <time>2021-09-30T08:08:08Z</time>
      </trkpt>
      <trkpt lat="42.4281820" lon="-2.5723270">
        <ele>508.6</ele>
        <time>2021-09-30T08:08:18Z</time>
      </trkpt>
      <trkpt lat="42.4280530" lon="-2.5725920">
        <ele>508.8</ele>
        <time>2021-09-30T08:08:22Z</time>
      </trkpt>
      <trkpt lat="42.4279500" lon="-2.5727800">
        <ele>509.0</ele>
        <time>2021-09-30T08:08:25Z</time>
      </trkpt>
      <trkpt lat="42.4277700" lon="-2.5730190">
        <ele>509.4</ele>
        <time>2021-09-30T08:08:29Z</time>
      </trkpt>
      <trkpt lat="42.4275860" lon="-2.5733520">
        <ele>509.6</ele>
        <time>2021-09-30T08:08:34Z</time>
      </trkpt>
      <trkpt lat="42.4275510" lon="-2.5734140">
        <ele>509.8</ele>
        <time>2021-09-30T08:08:35Z</time>
      </trkpt>
      <trkpt lat="42.4274150" lon="-2.5737150">
        <ele>509.8</ele>
        <time>2021-09-30T08:08:40Z</time>
      </trkpt>
      <trkpt lat="42.4273680" lon="-2.5738260">
        <ele>510.0</ele>
        <time>2021-09-30T08:08:42Z</time>
      </trkpt>
      <trkpt lat="42.4272380" lon="-2.5740210">
        <ele>511.0</ele>
        <time>2021-09-30T08:08:46Z</time>
      </trkpt>
      <trkpt lat="42.4271610" lon="-2.5741840">
        <ele>512.2</ele>
        <time>2021-09-30T08:08:49Z</time>
      </trkpt>
      <trkpt lat="42.4269880" lon="-2.5745560">
        <ele>513.2</ele>
        <time>2021-09-30T08:08:56Z</time>
      </trkpt>
      <trkpt lat="42.4269180" lon="-2.5747130">
        <ele>513.2</ele>
        <time>2021-09-30T08:08:59Z</time>
      </trkpt>
      <trkpt lat="42.4265980" lon="-2.5753700">
        <ele>514.4</ele>
        <time>2021-09-30T08:09:12Z</time>
      </trkpt>
      <trkpt lat="42.4264460" lon="-2.5757340">
        <ele>515.4</ele>
        <time>2021-09-30T08:09:19Z</time>
      </trkpt>
      <trkpt lat="42.4262920" lon="-2.5760920">
        <ele>516.6</ele>
        <time>2021-09-30T08:09:26Z</time>
      </trkpt>
      <trkpt lat="42.4261640" lon="-2.5763930">
        <ele>517.6</ele>
        <time>2021-09-30T08:09:32Z</time>
      </trkpt>
      <trkpt lat="42.4259510" lon="-2.5768700">
        <ele>518.8</ele>
        <time>2021-09-30T08:09:42Z</time>
      </trkpt>
      <trkpt lat="42.4258910" lon="-2.5771140">
        <ele>519.6</ele>
        <time>2021-09-30T08:09:48Z</time>
      </trkpt>
      <trkpt lat="42.4258990" lon="-2.5773070">
        <ele>519.8</ele>
        <time>2021-09-30T08:09:52Z</time>
      </trkpt>
      <trkpt lat="42.4257450" lon="-2.5777120">
        <ele>520.6</ele>
        <time>2021-09-30T08:09:59Z</time>
      </trkpt>
      <trkpt lat="42.4257000" lon="-2.5778340">
        <ele>520.8</ele>
        <time>2021-09-30T08:10:01Z</time>
      </trkpt>
      <trkpt lat="42.4254680" lon="-2.5783760">
        <ele>522.0</ele>
        <time>2021-09-30T08:10:10Z</time>
      </trkpt>
      <trkpt lat="42.4253150" lon="-2.5787330">
        <ele>523.0</ele>
        <time>2021-09-30T08:10:16Z</time>
      </trkpt>
      <trkpt lat="42.4251140" lon="-2.5792020">
        <ele>524.0</ele>
        <time>2021-09-30T08:10:24Z</time>
      </trkpt>
      <trkpt lat="42.4249870" lon="-2.5794990">
        <ele>525.2</ele>
        <time>2021-09-30T08:10:29Z</time>
      </trkpt>
      <trkpt lat="42.4248360" lon="-2.5798440">
        <ele>526.2</ele>
        <time>2021-09-30T08:10:35Z</time>
      </trkpt>
      <trkpt lat="42.4247150" lon="-2.5801290">
        <ele>527.0</ele>
        <time>2021-09-30T08:10:40Z</time>
      </trkpt>
      <trkpt lat="42.4246180" lon="-2.5803570">
        <ele>528.2</ele>
        <time>2021-09-30T08:10:44Z</time>
      </trkpt>
      <trkpt lat="42.4243810" lon="-2.5809140">
        <ele>529.2</ele>
        <time>2021-09-30T08:10:54Z</time>
      </trkpt>
      <trkpt lat="42.4242170" lon="-2.5813120">
        <ele>530.2</ele>
        <time>2021-09-30T08:11:01Z</time>
      </trkpt>
      <trkpt lat="42.4239810" lon="-2.5818620">
        <ele>531.2</ele>
        <time>2021-09-30T08:11:11Z</time>
      </trkpt>
      <trkpt lat="42.4239330" lon="-2.5819700">
        <ele>532.6</ele>
        <time>2021-09-30T08:11:13Z</time>
      </trkpt>
      <trkpt lat="42.4237710" lon="-2.5823450">
        <ele>533.6</ele>
        <time>2021-09-30T08:11:20Z</time>
      </trkpt>
      <trkpt lat="42.4236360" lon="-2.5826640">
        <ele>534.6</ele>
        <time>2021-09-30T08:11:26Z</time>
      </trkpt>
      <trkpt lat="42.4235030" lon="-2.5829740">
        <ele>535.6</ele>
        <time>2021-09-30T08:11:32Z</time>
      </trkpt>
      <trkpt lat="42.4233500" lon="-2.5833280">
        <ele>536.8</ele>
        <time>2021-09-30T08:11:39Z</time>
      </trkpt>
      <trkpt lat="42.4232180" lon="-2.5836370">
        <ele>537.8</ele>
        <time>2021-09-30T08:11:45Z</time>
      </trkpt>
      <trkpt lat="42.4230630" lon="-2.5839980">
        <ele>538.8</ele>
        <time>2021-09-30T08:11:52Z</time>
      </trkpt>
      <trkpt lat="42.4229070" lon="-2.5843580">
        <ele>540.0</ele>
        <time>2021-09-30T08:11:59Z</time>
      </trkpt>
      <trkpt lat="42.4228170" lon="-2.5845640">
        <ele>541.0</ele>
        <time>2021-09-30T08:12:03Z</time>
      </trkpt>
      <trkpt lat="42.4226830" lon="-2.5848840">
        <ele>542.2</ele>
        <time>2021-09-30T08:12:09Z</time>
      </trkpt>
      <trkpt lat="42.4224030" lon="-2.5855390">
        <ele>543.4</ele>
        <time>2021-09-30T08:12:21Z</time>
      </trkpt>
      <trkpt lat="42.4223100" lon="-2.5857540">
        <ele>544.4</ele>
        <time>2021-09-30T08:12:25Z</time>
      </trkpt>
      <trkpt lat="42.4222200" lon="-2.5859690">
        <ele>545.6</ele>
        <time>2021-09-30T08:12:29Z</time>
      </trkpt>
      <trkpt lat="42.4219700" lon="-2.5865500">
        <ele>546.6</ele>
        <time>2021-09-30T08:12:40Z</time>
      </trkpt>
      <trkpt lat="42.4217880" lon="-2.5869830">
        <ele>547.6</ele>
        <time>2021-09-30T08:12:48Z</time>
      </trkpt>
      <trkpt lat="42.4216530" lon="-2.5872990">
        <ele>548.8</ele>
        <time>2021-09-30T08:12:54Z</time>
      </trkpt>
      <trkpt lat="42.4215640" lon="-2.5875050">
        <ele>550.0</ele>
        <time>2021-09-30T08:12:58Z</time>
      </trkpt>
      <trkpt lat="42.4214790" lon="-2.5877130">
        <ele>551.0</ele>
        <time>2021-09-30T08:13:02Z</time>
      </trkpt>
      <trkpt lat="42.4212750" lon="-2.5881850">
        <ele>552.2</ele>
        <time>2021-09-30T08:13:11Z</time>
      </trkpt>
      <trkpt lat="42.4211660" lon="-2.5884540">
        <ele>553.2</ele>
        <time>2021-09-30T08:13:16Z</time>
      </trkpt>
      <trkpt lat="42.4209920" lon="-2.5888690">
        <ele>554.2</ele>
        <time>2021-09-30T08:13:24Z</time>
      </trkpt>
      <trkpt lat="42.4207680" lon="-2.5893950">
        <ele>555.4</ele>
        <time>2021-09-30T08:13:34Z</time>
      </trkpt>
      <trkpt lat="42.4207300" lon="-2.5895080">
        <ele>555.8</ele>
        <time>2021-09-30T08:13:36Z</time>
      </trkpt>
      <trkpt lat="42.4207600" lon="-2.5898360">
        <ele>556.0</ele>
        <time>2021-09-30T08:13:41Z</time>
      </trkpt>
      <trkpt lat="42.4205700" lon="-2.5904320">
        <ele>556.0</ele>
        <time>2021-09-30T08:13:50Z</time>
      </trkpt>
      <trkpt lat="42.4202160" lon="-2.5902330">
        <ele>556.2</ele>
        <time>2021-09-30T08:13:57Z</time>
      </trkpt>
      <trkpt lat="42.4200110" lon="-2.5902650">
        <ele>557.8</ele>
        <time>2021-09-30T08:14:01Z</time>
      </trkpt>
      <trkpt lat="42.4199670" lon="-2.5902980">
        <ele>558.0</ele>
        <time>2021-09-30T08:14:02Z</time>
      </trkpt>
      <trkpt lat="42.4197600" lon="-2.5904440">
        <ele>559.0</ele>
        <time>2021-09-30T08:14:07Z</time>
      </trkpt>
      <trkpt lat="42.4195600" lon="-2.5905780">
        <ele>560.0</ele>
        <time>2021-09-30T08:14:12Z</time>
      </trkpt>
      <trkpt lat="42.4193540" lon="-2.5907160">
        <ele>561.2</ele>
        <time>2021-09-30T08:14:17Z</time>
      </trkpt>
      <trkpt lat="42.4190280" lon="-2.5909250">
        <ele>562.2</ele>
        <time>2021-09-30T08:14:25Z</time>
      </trkpt>
      <trkpt lat="42.4187910" lon="-2.5910720">
        <ele>563.2</ele>
        <time>2021-09-30T08:14:31Z</time>
      </trkpt>
      <trkpt lat="42.4185140" lon="-2.5912470">
        <ele>564.6</ele>
        <time>2021-09-30T08:14:38Z</time>
      </trkpt>
      <trkpt lat="42.4183550" lon="-2.5913490">
        <ele>565.8</ele>
        <time>2021-09-30T08:14:42Z</time>
      </trkpt>
      <trkpt lat="42.4181180" lon="-2.5915000">
        <ele>567.0</ele>
        <time>2021-09-30T08:14:48Z</time>
      </trkpt>
      <trkpt lat="42.4177230" lon="-2.5917490">
        <ele>568.0</ele>
        <time>2021-09-30T08:14:58Z</time>
      </trkpt>
      <trkpt lat="42.4175280" lon="-2.5918590">
        <ele>569.2</ele>
        <time>2021-09-30T08:15:03Z</time>
      </trkpt>
      <trkpt lat="42.4171540" lon="-2.5920100">
        <ele>570.6</ele>
        <time>2021-09-30T08:15:12Z</time>
      </trkpt>
      <trkpt lat="42.4169860" lon="-2.5920680">
        <ele>571.6</ele>
        <time>2021-09-30T08:15:16Z</time>
      </trkpt>
      <trkpt lat="42.4166890" lon="-2.5921580">
        <ele>572.8</ele>
        <time>2021-09-30T08:15:23Z</time>
      </trkpt>
      <trkpt lat="42.4163920" lon="-2.5922560">
        <ele>573.8</ele>
        <time>2021-09-30T08:15:30Z</time>
      </trkpt>
      <trkpt lat="42.4160610" lon="-2.5923600">
        <ele>574.8</ele>
        <time>2021-09-30T08:15:38Z</time>
      </trkpt>
      <trkpt lat="42.4159000" lon="-2.5924090">
        <ele>576.2</ele>
        <time>2021-09-30T08:15:42Z</time>
      </trkpt>
      <trkpt lat="42.4156930" lon="-2.5924640">
        <ele>577.2</ele>
        <time>2021-09-30T08:15:47Z</time>
      </trkpt>
      <trkpt lat="42.4153850" lon="-2.5925230">
        <ele>578.4</ele>
        <time>2021-09-30T08:15:54Z</time>
      </trkpt>
      <trkpt lat="42.4151620" lon="-2.5925200">
        <ele>579.4</ele>
        <time>2021-09-30T08:15:59Z</time>
      </trkpt>
      <trkpt lat="42.4149860" lon="-2.5925040">
        <ele>580.4</ele>
        <time>2021-09-30T08:16:03Z</time>
      </trkpt>
      <trkpt lat="42.4147330" lon="-2.5924740">
        <ele>581.6</ele>
        <time>2021-09-30T08:16:09Z</time>
      </trkpt>
      <trkpt lat="42.4144980" lon="-2.5924850">
        <ele>582.8</ele>
        <time>2021-09-30T08:16:16Z</time>
      </trkpt>
      <trkpt lat="42.4144650" lon="-2.5924930">
        <ele>583.2</ele>
        <time>2021-09-30T08:16:18Z</time>
      </trkpt>
      <trkpt lat="42.4144440" lon="-2.5924670">
        <ele>583.8</ele>
        <time>2021-09-30T08:16:20Z</time>
      </trkpt>
      <trkpt lat="42.4145210" lon="-2.5923830">
        <ele>584.8</ele>
        <time>2021-09-30T08:16:25Z</time>
      </trkpt>
      <trkpt lat="42.4145570" lon="-2.5923830">
        <ele>585.0</ele>
        <time>2021-09-30T08:16:26Z</time>
      </trkpt>
      <trkpt lat="42.4146760" lon="-2.5923950">
        <ele>585.2</ele>
        <time>2021-09-30T08:16:29Z</time>
      </trkpt>
      <trkpt lat="42.4147160" lon="-2.5924120">
        <ele>585.2</ele>
        <time>2021-09-30T08:16:30Z</time>
      </trkpt>
      <trkpt lat="42.4147770" lon="-2.5925360">
        <ele>585.2</ele>
        <time>2021-09-30T08:16:33Z</time>
      </trkpt>
      <trkpt lat="42.4147680" lon="-2.5926310">
        <ele>585.0</ele>
        <time>2021-09-30T08:16:35Z</time>
      </trkpt>
      <trkpt lat="42.4147390" lon="-2.5927680">
        <ele>583.8</ele>
        <time>2021-09-30T08:16:40Z</time>
      </trkpt>
      <trkpt lat="42.4147330" lon="-2.5928130">
        <ele>583.6</ele>
        <time>2021-09-30T08:18:47Z</time>
      </trkpt>
      <trkpt lat="42.4147290" lon="-2.5928350">
        <ele>583.6</ele>
        <time>2021-09-30T08:18:48Z</time>
      </trkpt>
      <trkpt lat="42.4147070" lon="-2.5929590">
        <ele>583.6</ele>
        <time>2021-09-30T08:18:52Z</time>
      </trkpt>
      <trkpt lat="42.4146940" lon="-2.5931760">
        <ele>582.8</ele>
        <time>2021-09-30T08:18:58Z</time>
      </trkpt>
      <trkpt lat="42.4146900" lon="-2.5935070">
        <ele>582.0</ele>
        <time>2021-09-30T08:19:06Z</time>
      </trkpt>
      <trkpt lat="42.4146860" lon="-2.5935840">
        <ele>581.8</ele>
        <time>2021-09-30T08:19:08Z</time>
      </trkpt>
      <trkpt lat="42.4146800" lon="-2.5939830">
        <ele>581.2</ele>
        <time>2021-09-30T08:19:17Z</time>
      </trkpt>
      <trkpt lat="42.4146950" lon="-2.5940890">
        <ele>581.0</ele>
        <time>2021-09-30T08:19:19Z</time>
      </trkpt>
      <trkpt lat="42.4147390" lon="-2.5942470">
        <ele>580.4</ele>
        <time>2021-09-30T08:19:22Z</time>
      </trkpt>
      <trkpt lat="42.4148100" lon="-2.5944550">
        <ele>579.6</ele>
        <time>2021-09-30T08:19:26Z</time>
      </trkpt>
      <trkpt lat="42.4148540" lon="-2.5945590">
        <ele>579.4</ele>
        <time>2021-09-30T08:19:28Z</time>
      </trkpt>
      <trkpt lat="42.4149080" lon="-2.5946620">
        <ele>579.0</ele>
        <time>2021-09-30T08:19:30Z</time>
      </trkpt>
      <trkpt lat="42.4150040" lon="-2.5948080">
        <ele>578.4</ele>
        <time>2021-09-30T08:19:33Z</time>
      </trkpt>
      <trkpt lat="42.4150390" lon="-2.5948560">
        <ele>578.4</ele>
        <time>2021-09-30T08:19:34Z</time>
      </trkpt>
      <trkpt lat="42.4151740" lon="-2.5950570">
        <ele>577.6</ele>
        <time>2021-09-30T08:19:38Z</time>
      </trkpt>
      <trkpt lat="42.4152430" lon="-2.5951660">
        <ele>577.2</ele>
        <time>2021-09-30T08:19:40Z</time>
      </trkpt>
      <trkpt lat="42.4154280" lon="-2.5954410">
        <ele>576.0</ele>
        <time>2021-09-30T08:19:45Z</time>
      </trkpt>
      <trkpt lat="42.4155150" lon="-2.5955530">
        <ele>575.0</ele>
        <time>2021-09-30T08:19:47Z</time>
      </trkpt>
      <trkpt lat="42.4155650" lon="-2.5956100">
        <ele>574.6</ele>
        <time>2021-09-30T08:19:48Z</time>
      </trkpt>
      <trkpt lat="42.4156710" lon="-2.5957350">
        <ele>572.8</ele>
        <time>2021-09-30T08:19:50Z</time>
      </trkpt>
      <trkpt lat="42.4157190" lon="-2.5958050">
        <ele>571.8</ele>
        <time>2021-09-30T08:19:51Z</time>
      </trkpt>
      <trkpt lat="42.4157600" lon="-2.5958790">
        <ele>571.0</ele>
        <time>2021-09-30T08:19:52Z</time>
      </trkpt>
      <trkpt lat="42.4157950" lon="-2.5959530">
        <ele>570.2</ele>
        <time>2021-09-30T08:19:53Z</time>
      </trkpt>
      <trkpt lat="42.4158280" lon="-2.5960240">
        <ele>569.2</ele>
        <time>2021-09-30T08:19:54Z</time>
      </trkpt>
      <trkpt lat="42.4158590" lon="-2.5960920">
        <ele>568.4</ele>
        <time>2021-09-30T08:19:55Z</time>
      </trkpt>
      <trkpt lat="42.4159180" lon="-2.5962160">
        <ele>567.2</ele>
        <time>2021-09-30T08:19:57Z</time>
      </trkpt>
      <trkpt lat="42.4159700" lon="-2.5963240">
        <ele>567.0</ele>
        <time>2021-09-30T08:19:59Z</time>
      </trkpt>
      <trkpt lat="42.4160150" lon="-2.5964220">
        <ele>567.0</ele>
        <time>2021-09-30T08:20:01Z</time>
      </trkpt>
      <trkpt lat="42.4160570" lon="-2.5965140">
        <ele>567.0</ele>
        <time>2021-09-30T08:20:03Z</time>
      </trkpt>
      <trkpt lat="42.4160990" lon="-2.5966020">
        <ele>567.0</ele>
        <time>2021-09-30T08:20:05Z</time>
      </trkpt>
      <trkpt lat="42.4161370" lon="-2.5966920">
        <ele>567.6</ele>
        <time>2021-09-30T08:20:07Z</time>
      </trkpt>
      <trkpt lat="42.4161670" lon="-2.5967890">
        <ele>568.4</ele>
        <time>2021-09-30T08:20:09Z</time>
      </trkpt>
      <trkpt lat="42.4162100" lon="-2.5969460">
        <ele>570.0</ele>
        <time>2021-09-30T08:20:12Z</time>
      </trkpt>
      <trkpt lat="42.4162520" lon="-2.5971010">
        <ele>571.2</ele>
        <time>2021-09-30T08:20:15Z</time>
      </trkpt>
      <trkpt lat="42.4164500" lon="-2.5977120">
        <ele>571.8</ele>
        <time>2021-09-30T08:20:26Z</time>
      </trkpt>
      <trkpt lat="42.4164890" lon="-2.5978750">
        <ele>571.6</ele>
        <time>2021-09-30T08:20:29Z</time>
      </trkpt>
      <trkpt lat="42.4165220" lon="-2.5980460">
        <ele>571.4</ele>
        <time>2021-09-30T08:20:32Z</time>
      </trkpt>
      <trkpt lat="42.4166770" lon="-2.5981000">
        <ele>570.2</ele>
        <time>2021-09-30T08:20:36Z</time>
      </trkpt>
      <trkpt lat="42.4167270" lon="-2.5980780">
        <ele>569.4</ele>
        <time>2021-09-30T08:20:37Z</time>
      </trkpt>
      <trkpt lat="42.4167760" lon="-2.5980570">
        <ele>568.6</ele>
        <time>2021-09-30T08:20:38Z</time>
      </trkpt>
      <trkpt lat="42.4168280" lon="-2.5980400">
        <ele>567.6</ele>
        <time>2021-09-30T08:20:39Z</time>
      </trkpt>
      <trkpt lat="42.4169240" lon="-2.5980360">
        <ele>566.6</ele>
        <time>2021-09-30T08:20:41Z</time>
      </trkpt>
      <trkpt lat="42.4170470" lon="-2.5981040">
        <ele>565.4</ele>
        <time>2021-09-30T08:20:44Z</time>
      </trkpt>
      <trkpt lat="42.4171000" lon="-2.5981640">
        <ele>564.4</ele>
        <time>2021-09-30T08:20:46Z</time>
      </trkpt>
      <trkpt lat="42.4171200" lon="-2.5981900">
        <ele>564.2</ele>
        <time>2021-09-30T08:20:47Z</time>
      </trkpt>
      <trkpt lat="42.4171540" lon="-2.5982700">
        <ele>564.0</ele>
        <time>2021-09-30T08:20:51Z</time>
      </trkpt>
      <trkpt lat="42.4170930" lon="-2.5983770">
        <ele>564.2</ele>
        <time>2021-09-30T08:21:00Z</time>
      </trkpt>
      <trkpt lat="42.4170990" lon="-2.5983960">
        <ele>564.4</ele>
        <time>2021-09-30T08:21:04Z</time>
      </trkpt>
      <trkpt lat="42.4170610" lon="-2.5984590">
        <ele>564.6</ele>
        <time>2021-09-30T08:21:11Z</time>
      </trkpt>
      <trkpt lat="42.4170190" lon="-2.5985540">
        <ele>564.6</ele>
        <time>2021-09-30T08:21:14Z</time>
      </trkpt>
      <trkpt lat="42.4169410" lon="-2.5987210">
        <ele>564.6</ele>
        <time>2021-09-30T08:21:18Z</time>
      </trkpt>
      <trkpt lat="42.4168990" lon="-2.5988170">
        <ele>564.2</ele>
        <time>2021-09-30T08:21:20Z</time>
      </trkpt>
      <trkpt lat="42.4168540" lon="-2.5989160">
        <ele>564.0</ele>
        <time>2021-09-30T08:21:22Z</time>
      </trkpt>
      <trkpt lat="42.4168110" lon="-2.5990270">
        <ele>564.0</ele>
        <time>2021-09-30T08:21:24Z</time>
      </trkpt>
      <trkpt lat="42.4167300" lon="-2.5991970">
        <ele>564.0</ele>
        <time>2021-09-30T08:21:27Z</time>
      </trkpt>
      <trkpt lat="42.4166780" lon="-2.5993100">
        <ele>564.0</ele>
        <time>2021-09-30T08:21:29Z</time>
      </trkpt>
      <trkpt lat="42.4165760" lon="-2.5995340">
        <ele>564.6</ele>
        <time>2021-09-30T08:21:33Z</time>
      </trkpt>
      <trkpt lat="42.4164650" lon="-2.5997590">
        <ele>565.0</ele>
        <time>2021-09-30T08:21:37Z</time>
      </trkpt>
      <trkpt lat="42.4164080" lon="-2.5998750">
        <ele>565.4</ele>
        <time>2021-09-30T08:21:39Z</time>
      </trkpt>
      <trkpt lat="42.4162700" lon="-2.6001610">
        <ele>565.8</ele>
        <time>2021-09-30T08:21:44Z</time>
      </trkpt>
      <trkpt lat="42.4161410" lon="-2.6004470">
        <ele>566.2</ele>
        <time>2021-09-30T08:21:49Z</time>
      </trkpt>
      <trkpt lat="42.4161160" lon="-2.6005040">
        <ele>566.4</ele>
        <time>2021-09-30T08:21:50Z</time>
      </trkpt>
      <trkpt lat="42.4158690" lon="-2.6011420">
        <ele>567.4</ele>
        <time>2021-09-30T08:22:01Z</time>
      </trkpt>
      <trkpt lat="42.4157590" lon="-2.6014340">
        <ele>568.6</ele>
        <time>2021-09-30T08:22:06Z</time>
      </trkpt>
      <trkpt lat="42.4155160" lon="-2.6021400">
        <ele>569.4</ele>
        <time>2021-09-30T08:22:18Z</time>
      </trkpt>
      <trkpt lat="42.4154490" lon="-2.6023130">
        <ele>569.6</ele>
        <time>2021-09-30T08:22:21Z</time>
      </trkpt>
      <trkpt lat="42.4153630" lon="-2.6025390">
        <ele>570.4</ele>
        <time>2021-09-30T08:22:25Z</time>
      </trkpt>
      <trkpt lat="42.4153220" lon="-2.6026530">
        <ele>570.6</ele>
        <time>2021-09-30T08:22:27Z</time>
      </trkpt>
      <trkpt lat="42.4151110" lon="-2.6032420">
        <ele>571.6</ele>
        <time>2021-09-30T08:22:37Z</time>
      </trkpt>
      <trkpt lat="42.4148750" lon="-2.6038770">
        <ele>572.6</ele>
        <time>2021-09-30T08:22:48Z</time>
      </trkpt>
      <trkpt lat="42.4146690" lon="-2.6044420">
        <ele>573.8</ele>
        <time>2021-09-30T08:22:58Z</time>
      </trkpt>
      <trkpt lat="42.4145870" lon="-2.6046730">
        <ele>575.0</ele>
        <time>2021-09-30T08:23:02Z</time>
      </trkpt>
      <trkpt lat="42.4144380" lon="-2.6050940">
        <ele>576.0</ele>
        <time>2021-09-30T08:23:09Z</time>
      </trkpt>
      <trkpt lat="42.4142060" lon="-2.6057860">
        <ele>577.0</ele>
        <time>2021-09-30T08:23:20Z</time>
      </trkpt>
      <trkpt lat="42.4140960" lon="-2.6060830">
        <ele>577.0</ele>
        <time>2021-09-30T08:23:25Z</time>
      </trkpt>
      <trkpt lat="42.4138560" lon="-2.6067540">
        <ele>578.2</ele>
        <time>2021-09-30T08:23:37Z</time>
      </trkpt>
      <trkpt lat="42.4136820" lon="-2.6072030">
        <ele>579.2</ele>
        <time>2021-09-30T08:23:45Z</time>
      </trkpt>
      <trkpt lat="42.4135410" lon="-2.6075920">
        <ele>579.8</ele>
        <time>2021-09-30T08:23:52Z</time>
      </trkpt>
      <trkpt lat="42.4134490" lon="-2.6078530">
        <ele>580.4</ele>
        <time>2021-09-30T08:23:57Z</time>
      </trkpt>
      <trkpt lat="42.4132090" lon="-2.6085560">
        <ele>581.2</ele>
        <time>2021-09-30T08:24:10Z</time>
      </trkpt>
      <trkpt lat="42.4130380" lon="-2.6090750">
        <ele>582.4</ele>
        <time>2021-09-30T08:24:20Z</time>
      </trkpt>
      <trkpt lat="42.4130210" lon="-2.6091280">
        <ele>582.6</ele>
        <time>2021-09-30T08:24:21Z</time>
      </trkpt>
      <trkpt lat="42.4129870" lon="-2.6092310">
        <ele>583.0</ele>
        <time>2021-09-30T08:24:23Z</time>
      </trkpt>
      <trkpt lat="42.4129580" lon="-2.6093370">
        <ele>583.4</ele>
        <time>2021-09-30T08:24:25Z</time>
      </trkpt>
      <trkpt lat="42.4128460" lon="-2.6097690">
        <ele>584.4</ele>
        <time>2021-09-30T08:24:33Z</time>
      </trkpt>
      <trkpt lat="42.4127510" lon="-2.6101470">
        <ele>585.6</ele>
        <time>2021-09-30T08:24:40Z</time>
      </trkpt>
      <trkpt lat="42.4126780" lon="-2.6104530">
        <ele>586.6</ele>
        <time>2021-09-30T08:24:46Z</time>
      </trkpt>
      <trkpt lat="42.4125750" lon="-2.6108540">
        <ele>587.6</ele>
        <time>2021-09-30T08:24:54Z</time>
      </trkpt>
      <trkpt lat="42.4125630" lon="-2.6109060">
        <ele>588.0</ele>
        <time>2021-09-30T08:24:55Z</time>
      </trkpt>
      <trkpt lat="42.4124940" lon="-2.6112230">
        <ele>589.0</ele>
        <time>2021-09-30T08:25:01Z</time>
      </trkpt>
      <trkpt lat="42.4124480" lon="-2.6115480">
        <ele>589.2</ele>
        <time>2021-09-30T08:25:07Z</time>
      </trkpt>
      <trkpt lat="42.4123800" lon="-2.6119930">
        <ele>590.0</ele>
        <time>2021-09-30T08:25:15Z</time>
      </trkpt>
      <trkpt lat="42.4122760" lon="-2.6127560">
        <ele>590.6</ele>
        <time>2021-09-30T08:25:28Z</time>
      </trkpt>
      <trkpt lat="42.4122700" lon="-2.6128160">
        <ele>590.8</ele>
        <time>2021-09-30T08:25:29Z</time>
      </trkpt>
      <trkpt lat="42.4122380" lon="-2.6132380">
        <ele>592.0</ele>
        <time>2021-09-30T08:25:36Z</time>
      </trkpt>
      <trkpt lat="42.4122210" lon="-2.6136550">
        <ele>593.0</ele>
        <time>2021-09-30T08:25:43Z</time>
      </trkpt>
      <trkpt lat="42.4122150" lon="-2.6140210">
        <ele>594.0</ele>
        <time>2021-09-30T08:25:49Z</time>
      </trkpt>
      <trkpt lat="42.4122020" lon="-2.6144970">
        <ele>595.0</ele>
        <time>2021-09-30T08:25:59Z</time>
      </trkpt>
      <trkpt lat="42.4122000" lon="-2.6144900">
        <ele>595.0</ele>
        <time>2021-09-30T08:26:00Z</time>
      </trkpt>
      <trkpt lat="42.4122030" lon="-2.6144230">
        <ele>595.8</ele>
        <time>2021-09-30T08:26:03Z</time>
      </trkpt>
      <trkpt lat="42.4121740" lon="-2.6142110">
        <ele>596.8</ele>
        <time>2021-09-30T08:26:08Z</time>
      </trkpt>
      <trkpt lat="42.4120100" lon="-2.6141660">
        <ele>596.8</ele>
        <time>2021-09-30T08:26:13Z</time>
      </trkpt>
      <trkpt lat="42.4115720" lon="-2.6142410">
        <ele>596.6</ele>
        <time>2021-09-30T08:26:24Z</time>
      </trkpt>
      <trkpt lat="42.4114330" lon="-2.6144510">
        <ele>596.8</ele>
        <time>2021-09-30T08:26:29Z</time>
      </trkpt>
      <trkpt lat="42.4114150" lon="-2.6145040">
        <ele>596.8</ele>
        <time>2021-09-30T08:26:30Z</time>
      </trkpt>
      <trkpt lat="42.4113830" lon="-2.6146720">
        <ele>597.0</ele>
        <time>2021-09-30T08:26:33Z</time>
      </trkpt>
      <trkpt lat="42.4113100" lon="-2.6149390">
        <ele>598.2</ele>
        <time>2021-09-30T08:26:38Z</time>
      </trkpt>
      <trkpt lat="42.4112170" lon="-2.6151990">
        <ele>599.4</ele>
        <time>2021-09-30T08:26:43Z</time>
      </trkpt>
      <trkpt lat="42.4111040" lon="-2.6155050">
        <ele>600.2</ele>
        <time>2021-09-30T08:26:49Z</time>
      </trkpt>
      <trkpt lat="42.4110100" lon="-2.6157670">
        <ele>601.6</ele>
        <time>2021-09-30T08:26:54Z</time>
      </trkpt>
      <trkpt lat="42.4108150" lon="-2.6161730">
        <ele>602.6</ele>
        <time>2021-09-30T08:27:02Z</time>
      </trkpt>
      <trkpt lat="42.4107410" lon="-2.6163250">
        <ele>603.4</ele>
        <time>2021-09-30T08:27:05Z</time>
      </trkpt>
      <trkpt lat="42.4106510" lon="-2.6164720">
        <ele>603.8</ele>
        <time>2021-09-30T08:27:08Z</time>
      </trkpt>
      <trkpt lat="42.4103480" lon="-2.6169960">
        <ele>604.6</ele>
        <time>2021-09-30T08:27:18Z</time>
      </trkpt>
      <trkpt lat="42.4102820" lon="-2.6170990">
        <ele>604.6</ele>
        <time>2021-09-30T08:27:20Z</time>
      </trkpt>
      <trkpt lat="42.4101240" lon="-2.6174190">
        <ele>604.0</ele>
        <time>2021-09-30T08:27:26Z</time>
      </trkpt>
      <trkpt lat="42.4100710" lon="-2.6176460">
        <ele>604.0</ele>
        <time>2021-09-30T08:27:30Z</time>
      </trkpt>
      <trkpt lat="42.4100300" lon="-2.6179430">
        <ele>604.4</ele>
        <time>2021-09-30T08:27:35Z</time>
      </trkpt>
      <trkpt lat="42.4100120" lon="-2.6180620">
        <ele>604.8</ele>
        <time>2021-09-30T08:27:37Z</time>
      </trkpt>
      <trkpt lat="42.4098600" lon="-2.6186960">
        <ele>606.0</ele>
        <time>2021-09-30T08:27:49Z</time>
      </trkpt>
      <trkpt lat="42.4098070" lon="-2.6187820">
        <ele>606.4</ele>
        <time>2021-09-30T08:27:51Z</time>
      </trkpt>
      <trkpt lat="42.4097020" lon="-2.6188880">
        <ele>607.0</ele>
        <time>2021-09-30T08:27:54Z</time>
      </trkpt>
      <trkpt lat="42.4095260" lon="-2.6190390">
        <ele>608.4</ele>
        <time>2021-09-30T08:27:59Z</time>
      </trkpt>
      <trkpt lat="42.4094360" lon="-2.6191530">
        <ele>609.6</ele>
        <time>2021-09-30T08:28:02Z</time>
      </trkpt>
      <trkpt lat="42.4092270" lon="-2.6196210">
        <ele>610.6</ele>
        <time>2021-09-30T08:28:12Z</time>
      </trkpt>
      <trkpt lat="42.4092070" lon="-2.6196690">
        <ele>610.6</ele>
        <time>2021-09-30T08:28:13Z</time>
      </trkpt>
      <trkpt lat="42.4090740" lon="-2.6199580">
        <ele>611.8</ele>
        <time>2021-09-30T08:28:19Z</time>
      </trkpt>
      <trkpt lat="42.4087930" lon="-2.6204020">
        <ele>612.6</ele>
        <time>2021-09-30T08:28:29Z</time>
      </trkpt>
      <trkpt lat="42.4087320" lon="-2.6205550">
        <ele>613.0</ele>
        <time>2021-09-30T08:28:32Z</time>
      </trkpt>
      <trkpt lat="42.4087050" lon="-2.6206670">
        <ele>613.0</ele>
        <time>2021-09-30T08:28:34Z</time>
      </trkpt>
      <trkpt lat="42.4086010" lon="-2.6212470">
        <ele>613.8</ele>
        <time>2021-09-30T08:28:44Z</time>
      </trkpt>
      <trkpt lat="42.4085580" lon="-2.6213580">
        <ele>614.0</ele>
        <time>2021-09-30T08:28:46Z</time>
      </trkpt>
      <trkpt lat="42.4085010" lon="-2.6214630">
        <ele>614.4</ele>
        <time>2021-09-30T08:28:48Z</time>
      </trkpt>
      <trkpt lat="42.4084000" lon="-2.6215920">
        <ele>615.0</ele>
        <time>2021-09-30T08:28:51Z</time>
      </trkpt>
      <trkpt lat="42.4081510" lon="-2.6218880">
        <ele>615.8</ele>
        <time>2021-09-30T08:28:58Z</time>
      </trkpt>
      <trkpt lat="42.4081230" lon="-2.6219400">
        <ele>616.0</ele>
        <time>2021-09-30T08:28:59Z</time>
      </trkpt>
      <trkpt lat="42.4080290" lon="-2.6221700">
        <ele>616.0</ele>
        <time>2021-09-30T08:29:03Z</time>
      </trkpt>
      <trkpt lat="42.4078840" lon="-2.6224290">
        <ele>616.0</ele>
        <time>2021-09-30T08:29:08Z</time>
      </trkpt>
      <trkpt lat="42.4076500" lon="-2.6226570">
        <ele>616.0</ele>
        <time>2021-09-30T08:29:14Z</time>
      </trkpt>
      <trkpt lat="42.4076070" lon="-2.6226870">
        <ele>616.0</ele>
        <time>2021-09-30T08:29:15Z</time>
      </trkpt>
      <trkpt lat="42.4073070" lon="-2.6228520">
        <ele>617.0</ele>
        <time>2021-09-30T08:29:22Z</time>
      </trkpt>
      <trkpt lat="42.4071210" lon="-2.6229960">
        <ele>617.8</ele>
        <time>2021-09-30T08:29:27Z</time>
      </trkpt>
      <trkpt lat="42.4070860" lon="-2.6230260">
        <ele>618.0</ele>
        <time>2021-09-30T08:29:28Z</time>
      </trkpt>
      <trkpt lat="42.4069420" lon="-2.6231410">
        <ele>619.2</ele>
        <time>2021-09-30T08:29:32Z</time>
      </trkpt>
      <trkpt lat="42.4067560" lon="-2.6232830">
        <ele>620.4</ele>
        <time>2021-09-30T08:29:37Z</time>
      </trkpt>
      <trkpt lat="42.4064950" lon="-2.6234840">
        <ele>621.6</ele>
        <time>2021-09-30T08:29:44Z</time>
      </trkpt>
      <trkpt lat="42.4063040" lon="-2.6236790">
        <ele>622.6</ele>
        <time>2021-09-30T08:29:50Z</time>
      </trkpt>
      <trkpt lat="42.4061810" lon="-2.6238190">
        <ele>623.6</ele>
        <time>2021-09-30T08:29:54Z</time>
      </trkpt>
      <trkpt lat="42.4059930" lon="-2.6240300">
        <ele>624.6</ele>
        <time>2021-09-30T08:30:00Z</time>
      </trkpt>
      <trkpt lat="42.4058150" lon="-2.6242290">
        <ele>625.8</ele>
        <time>2021-09-30T08:30:06Z</time>
      </trkpt>
      <trkpt lat="42.4057380" lon="-2.6243320">
        <ele>627.0</ele>
        <time>2021-09-30T08:30:09Z</time>
      </trkpt>
      <trkpt lat="42.4056100" lon="-2.6245710">
        <ele>628.2</ele>
        <time>2021-09-30T08:30:15Z</time>
      </trkpt>
      <trkpt lat="42.4054760" lon="-2.6248470">
        <ele>629.2</ele>
        <time>2021-09-30T08:30:22Z</time>
      </trkpt>
      <trkpt lat="42.4054550" lon="-2.6250380">
        <ele>630.2</ele>
        <time>2021-09-30T08:30:27Z</time>
      </trkpt>
      <trkpt lat="42.4055830" lon="-2.6252620">
        <ele>631.2</ele>
        <time>2021-09-30T08:30:33Z</time>
      </trkpt>
      <trkpt lat="42.4056050" lon="-2.6253030">
        <ele>631.4</ele>
        <time>2021-09-30T08:30:34Z</time>
      </trkpt>
      <trkpt lat="42.4056940" lon="-2.6254710">
        <ele>632.0</ele>
        <time>2021-09-30T08:30:38Z</time>
      </trkpt>
      <trkpt lat="42.4057120" lon="-2.6255210">
        <ele>632.0</ele>
        <time>2021-09-30T08:30:39Z</time>
      </trkpt>
      <trkpt lat="42.4058200" lon="-2.6258610">
        <ele>632.0</ele>
        <time>2021-09-30T08:30:45Z</time>
      </trkpt>
      <trkpt lat="42.4059420" lon="-2.6261560">
        <ele>631.8</ele>
        <time>2021-09-30T08:30:50Z</time>
      </trkpt>
      <trkpt lat="42.4060960" lon="-2.6264860">
        <ele>631.6</ele>
        <time>2021-09-30T08:30:57Z</time>
      </trkpt>
      <trkpt lat="42.4061460" lon="-2.6265690">
        <ele>631.6</ele>
        <time>2021-09-30T08:30:59Z</time>
      </trkpt>
      <trkpt lat="42.4062460" lon="-2.6267040">
        <ele>631.4</ele>
        <time>2021-09-30T08:31:02Z</time>
      </trkpt>
      <trkpt lat="42.4063260" lon="-2.6268070">
        <ele>631.4</ele>
        <time>2021-09-30T08:31:04Z</time>
      </trkpt>
      <trkpt lat="42.4066380" lon="-2.6271090">
        <ele>630.0</ele>
        <time>2021-09-30T08:31:10Z</time>
      </trkpt>
      <trkpt lat="42.4068250" lon="-2.6272250">
        <ele>628.2</ele>
        <time>2021-09-30T08:31:13Z</time>
      </trkpt>
      <trkpt lat="42.4068890" lon="-2.6272640">
        <ele>627.6</ele>
        <time>2021-09-30T08:31:14Z</time>
      </trkpt>
      <trkpt lat="42.4069540" lon="-2.6273040">
        <ele>627.2</ele>
        <time>2021-09-30T08:31:15Z</time>
      </trkpt>
      <trkpt lat="42.4070820" lon="-2.6273780">
        <ele>626.6</ele>
        <time>2021-09-30T08:31:17Z</time>
      </trkpt>
      <trkpt lat="42.4072160" lon="-2.6274550">
        <ele>625.8</ele>
        <time>2021-09-30T08:31:19Z</time>
      </trkpt>
      <trkpt lat="42.4073560" lon="-2.6275480">
        <ele>624.6</ele>
        <time>2021-09-30T08:31:21Z</time>
      </trkpt>
      <trkpt lat="42.4074920" lon="-2.6276590">
        <ele>623.4</ele>
        <time>2021-09-30T08:31:23Z</time>
      </trkpt>
      <trkpt lat="42.4076270" lon="-2.6277760">
        <ele>622.4</ele>
        <time>2021-09-30T08:31:25Z</time>
      </trkpt>
      <trkpt lat="42.4077640" lon="-2.6279040">
        <ele>621.0</ele>
        <time>2021-09-30T08:31:27Z</time>
      </trkpt>
      <trkpt lat="42.4078920" lon="-2.6280320">
        <ele>619.6</ele>
        <time>2021-09-30T08:31:29Z</time>
      </trkpt>
      <trkpt lat="42.4080030" lon="-2.6281580">
        <ele>618.6</ele>
        <time>2021-09-30T08:31:31Z</time>
      </trkpt>
      <trkpt lat="42.4081860" lon="-2.6284180">
        <ele>617.8</ele>
        <time>2021-09-30T08:31:35Z</time>
      </trkpt>
      <trkpt lat="42.4082440" lon="-2.6286930">
        <ele>617.8</ele>
        <time>2021-09-30T08:31:39Z</time>
      </trkpt>
      <trkpt lat="42.4082270" lon="-2.6288290">
        <ele>617.8</ele>
        <time>2021-09-30T08:31:41Z</time>
      </trkpt>
      <trkpt lat="42.4082100" lon="-2.6289690">
        <ele>617.8</ele>
        <time>2021-09-30T08:31:43Z</time>
      </trkpt>
      <trkpt lat="42.4081910" lon="-2.6291080">
        <ele>618.0</ele>
        <time>2021-09-30T08:31:45Z</time>
      </trkpt>
      <trkpt lat="42.4081810" lon="-2.6292440">
        <ele>618.2</ele>
        <time>2021-09-30T08:31:47Z</time>
      </trkpt>
      <trkpt lat="42.4082300" lon="-2.6295180">
        <ele>618.4</ele>
        <time>2021-09-30T08:31:51Z</time>
      </trkpt>
      <trkpt lat="42.4082800" lon="-2.6297160">
        <ele>618.4</ele>
        <time>2021-09-30T08:31:54Z</time>
      </trkpt>
      <trkpt lat="42.4083310" lon="-2.6299680">
        <ele>618.8</ele>
        <time>2021-09-30T08:31:58Z</time>
      </trkpt>
      <trkpt lat="42.4083620" lon="-2.6302120">
        <ele>619.2</ele>
        <time>2021-09-30T08:32:02Z</time>
      </trkpt>
      <trkpt lat="42.4083890" lon="-2.6304510">
        <ele>619.4</ele>
        <time>2021-09-30T08:32:06Z</time>
      </trkpt>
      <trkpt lat="42.4083960" lon="-2.6305100">
        <ele>619.6</ele>
        <time>2021-09-30T08:32:07Z</time>
      </trkpt>
      <trkpt lat="42.4084280" lon="-2.6308010">
        <ele>620.6</ele>
        <time>2021-09-30T08:32:12Z</time>
      </trkpt>
      <trkpt lat="42.4084780" lon="-2.6311440">
        <ele>622.0</ele>
        <time>2021-09-30T08:32:18Z</time>
      </trkpt>
      <trkpt lat="42.4085150" lon="-2.6313000">
        <ele>622.6</ele>
        <time>2021-09-30T08:32:21Z</time>
      </trkpt>
      <trkpt lat="42.4085540" lon="-2.6313960">
        <ele>623.0</ele>
        <time>2021-09-30T08:32:23Z</time>
      </trkpt>
      <trkpt lat="42.4087130" lon="-2.6315930">
        <ele>624.4</ele>
        <time>2021-09-30T08:32:28Z</time>
      </trkpt>
      <trkpt lat="42.4091680" lon="-2.6320000">
        <ele>625.0</ele>
        <time>2021-09-30T08:32:38Z</time>
      </trkpt>
      <trkpt lat="42.4092180" lon="-2.6320570">
        <ele>625.0</ele>
        <time>2021-09-30T08:32:39Z</time>
      </trkpt>
      <trkpt lat="42.4094000" lon="-2.6322920">
        <ele>624.0</ele>
        <time>2021-09-30T08:32:43Z</time>
      </trkpt>
      <trkpt lat="42.4095050" lon="-2.6323870">
        <ele>622.8</ele>
        <time>2021-09-30T08:32:45Z</time>
      </trkpt>
      <trkpt lat="42.4097810" lon="-2.6325830">
        <ele>622.0</ele>
        <time>2021-09-30T08:32:50Z</time>
      </trkpt>
      <trkpt lat="42.4098330" lon="-2.6326190">
        <ele>622.0</ele>
        <time>2021-09-30T08:32:51Z</time>
      </trkpt>
      <trkpt lat="42.4100040" lon="-2.6328610">
        <ele>621.4</ele>
        <time>2021-09-30T08:32:55Z</time>
      </trkpt>
      <trkpt lat="42.4100400" lon="-2.6329350">
        <ele>621.4</ele>
        <time>2021-09-30T08:32:56Z</time>
      </trkpt>
      <trkpt lat="42.4101380" lon="-2.6331450">
        <ele>621.4</ele>
        <time>2021-09-30T08:32:59Z</time>
      </trkpt>
      <trkpt lat="42.4101920" lon="-2.6332780">
        <ele>621.4</ele>
        <time>2021-09-30T08:33:01Z</time>
      </trkpt>
      <trkpt lat="42.4104630" lon="-2.6336030">
        <ele>621.4</ele>
        <time>2021-09-30T08:33:08Z</time>
      </trkpt>
      <trkpt lat="42.4105090" lon="-2.6336380">
        <ele>621.4</ele>
        <time>2021-09-30T08:33:09Z</time>
      </trkpt>
      <trkpt lat="42.4106500" lon="-2.6337550">
        <ele>621.4</ele>
        <time>2021-09-30T08:33:12Z</time>
      </trkpt>
      <trkpt lat="42.4107930" lon="-2.6338690">
        <ele>622.0</ele>
        <time>2021-09-30T08:33:15Z</time>
      </trkpt>
      <trkpt lat="42.4109120" lon="-2.6339630">
        <ele>622.8</ele>
        <time>2021-09-30T08:33:18Z</time>
      </trkpt>
      <trkpt lat="42.4110220" lon="-2.6340520">
        <ele>623.8</ele>
        <time>2021-09-30T08:33:21Z</time>
      </trkpt>
      <trkpt lat="42.4110590" lon="-2.6340870">
        <ele>624.2</ele>
        <time>2021-09-30T08:33:22Z</time>
      </trkpt>
      <trkpt lat="42.4110950" lon="-2.6341260">
        <ele>624.8</ele>
        <time>2021-09-30T08:33:23Z</time>
      </trkpt>
      <trkpt lat="42.4111280" lon="-2.6341700">
        <ele>625.4</ele>
        <time>2021-09-30T08:33:24Z</time>
      </trkpt>
      <trkpt lat="42.4111830" lon="-2.6342730">
        <ele>627.4</ele>
        <time>2021-09-30T08:33:26Z</time>
      </trkpt>
      <trkpt lat="42.4112070" lon="-2.6343290">
        <ele>627.6</ele>
        <time>2021-09-30T08:33:27Z</time>
      </trkpt>
      <trkpt lat="42.4112480" lon="-2.6344460">
        <ele>627.8</ele>
        <time>2021-09-30T08:33:29Z</time>
      </trkpt>
      <trkpt lat="42.4112750" lon="-2.6345680">
        <ele>627.8</ele>
        <time>2021-09-30T08:33:31Z</time>
      </trkpt>
      <trkpt lat="42.4112950" lon="-2.6346920">
        <ele>627.8</ele>
        <time>2021-09-30T08:33:33Z</time>
      </trkpt>
      <trkpt lat="42.4113100" lon="-2.6347510">
        <ele>627.8</ele>
        <time>2021-09-30T08:33:34Z</time>
      </trkpt>
      <trkpt lat="42.4113770" lon="-2.6349160">
        <ele>627.0</ele>
        <time>2021-09-30T08:33:37Z</time>
      </trkpt>
      <trkpt lat="42.4114080" lon="-2.6350330">
        <ele>626.6</ele>
        <time>2021-09-30T08:33:39Z</time>
      </trkpt>
      <trkpt lat="42.4114240" lon="-2.6352260">
        <ele>626.4</ele>
        <time>2021-09-30T08:33:42Z</time>
      </trkpt>
      <trkpt lat="42.4114450" lon="-2.6356230">
        <ele>626.0</ele>
        <time>2021-09-30T08:33:48Z</time>
      </trkpt>
      <trkpt lat="42.4115150" lon="-2.6363680">
        <ele>626.6</ele>
        <time>2021-09-30T08:34:00Z</time>
      </trkpt>
      <trkpt lat="42.4115200" lon="-2.6364270">
        <ele>627.0</ele>
        <time>2021-09-30T08:34:01Z</time>
      </trkpt>
      <trkpt lat="42.4115350" lon="-2.6366020">
        <ele>627.4</ele>
        <time>2021-09-30T08:34:04Z</time>
      </trkpt>
      <trkpt lat="42.4115440" lon="-2.6368250">
        <ele>628.2</ele>
        <time>2021-09-30T08:34:08Z</time>
      </trkpt>
      <trkpt lat="42.4115330" lon="-2.6369300">
        <ele>628.4</ele>
        <time>2021-09-30T08:34:10Z</time>
      </trkpt>
      <trkpt lat="42.4114600" lon="-2.6373730">
        <ele>629.8</ele>
        <time>2021-09-30T08:34:19Z</time>
      </trkpt>
      <trkpt lat="42.4114530" lon="-2.6375810">
        <ele>630.8</ele>
        <time>2021-09-30T08:34:23Z</time>
      </trkpt>
      <trkpt lat="42.4114640" lon="-2.6378010">
        <ele>632.0</ele>
        <time>2021-09-30T08:34:27Z</time>
      </trkpt>
      <trkpt lat="42.4114850" lon="-2.6379660">
        <ele>633.0</ele>
        <time>2021-09-30T08:34:30Z</time>
      </trkpt>
      <trkpt lat="42.4114950" lon="-2.6380210">
        <ele>633.2</ele>
        <time>2021-09-30T08:34:31Z</time>
      </trkpt>
      <trkpt lat="42.4115170" lon="-2.6382400">
        <ele>634.4</ele>
        <time>2021-09-30T08:34:35Z</time>
      </trkpt>
      <trkpt lat="42.4114660" lon="-2.6386470">
        <ele>635.2</ele>
        <time>2021-09-30T08:34:43Z</time>
      </trkpt>
      <trkpt lat="42.4114140" lon="-2.6388870">
        <ele>636.4</ele>
        <time>2021-09-30T08:34:48Z</time>
      </trkpt>
      <trkpt lat="42.4113760" lon="-2.6391230">
        <ele>637.6</ele>
        <time>2021-09-30T08:34:53Z</time>
      </trkpt>
      <trkpt lat="42.4113600" lon="-2.6394090">
        <ele>638.4</ele>
        <time>2021-09-30T08:34:59Z</time>
      </trkpt>
      <trkpt lat="42.4113350" lon="-2.6396410">
        <ele>639.6</ele>
        <time>2021-09-30T08:35:04Z</time>
      </trkpt>
      <trkpt lat="42.4113180" lon="-2.6398310">
        <ele>640.8</ele>
        <time>2021-09-30T08:35:08Z</time>
      </trkpt>
      <trkpt lat="42.4113200" lon="-2.6401800">
        <ele>641.6</ele>
        <time>2021-09-30T08:35:15Z</time>
      </trkpt>
      <trkpt lat="42.4113340" lon="-2.6405190">
        <ele>642.4</ele>
        <time>2021-09-30T08:35:22Z</time>
      </trkpt>
      <trkpt lat="42.4113540" lon="-2.6406420">
        <ele>642.8</ele>
        <time>2021-09-30T08:35:25Z</time>
      </trkpt>
      <trkpt lat="42.4113770" lon="-2.6409490">
        <ele>643.8</ele>
        <time>2021-09-30T08:35:32Z</time>
      </trkpt>
      <trkpt lat="42.4113740" lon="-2.6411700">
        <ele>645.0</ele>
        <time>2021-09-30T08:35:37Z</time>
      </trkpt>
      <trkpt lat="42.4113430" lon="-2.6414450">
        <ele>646.0</ele>
        <time>2021-09-30T08:35:44Z</time>
      </trkpt>
      <trkpt lat="42.4113400" lon="-2.6416290">
        <ele>647.2</ele>
        <time>2021-09-30T08:35:49Z</time>
      </trkpt>
      <trkpt lat="42.4113690" lon="-2.6417630">
        <ele>648.2</ele>
        <time>2021-09-30T08:35:54Z</time>
      </trkpt>
      <trkpt lat="42.4113700" lon="-2.6417910">
        <ele>648.6</ele>
        <time>2021-09-30T08:35:55Z</time>
      </trkpt>
      <trkpt lat="42.4114020" lon="-2.6418820">
        <ele>649.4</ele>
        <time>2021-09-30T08:35:59Z</time>
      </trkpt>
      <trkpt lat="42.4114280" lon="-2.6419790">
        <ele>650.4</ele>
        <time>2021-09-30T08:36:03Z</time>
      </trkpt>
      <trkpt lat="42.4114380" lon="-2.6420020">
        <ele>650.6</ele>
        <time>2021-09-30T08:36:04Z</time>
      </trkpt>
      <trkpt lat="42.4114500" lon="-2.6420220">
        <ele>650.8</ele>
        <time>2021-09-30T08:36:05Z</time>
      </trkpt>
      <trkpt lat="42.4114650" lon="-2.6420380">
        <ele>651.0</ele>
        <time>2021-09-30T08:36:06Z</time>
      </trkpt>
      <trkpt lat="42.4114820" lon="-2.6420510">
        <ele>651.2</ele>
        <time>2021-09-30T08:36:07Z</time>
      </trkpt>
      <trkpt lat="42.4115130" lon="-2.6420780">
        <ele>651.6</ele>
        <time>2021-09-30T08:36:09Z</time>
      </trkpt>
      <trkpt lat="42.4115650" lon="-2.6421700">
        <ele>652.2</ele>
        <time>2021-09-30T08:36:14Z</time>
      </trkpt>
      <trkpt lat="42.4115850" lon="-2.6421930">
        <ele>652.6</ele>
        <time>2021-09-30T08:36:16Z</time>
      </trkpt>
      <trkpt lat="42.4115920" lon="-2.6422030">
        <ele>653.2</ele>
        <time>2021-09-30T08:36:17Z</time>
      </trkpt>
      <trkpt lat="42.4115940" lon="-2.6422060">
        <ele>653.4</ele>
        <time>2021-09-30T08:36:19Z</time>
      </trkpt>
      <trkpt lat="42.4120060" lon="-2.6428330">
        <ele>664.0</ele>
        <time>2021-09-30T08:37:42Z</time>
      </trkpt>
      <trkpt lat="42.4120090" lon="-2.6428580">
        <ele>663.8</ele>
        <time>2021-09-30T08:37:43Z</time>
      </trkpt>
      <trkpt lat="42.4120340" lon="-2.6429750">
        <ele>663.8</ele>
        <time>2021-09-30T08:37:49Z</time>
      </trkpt>
      <trkpt lat="42.4120450" lon="-2.6429930">
        <ele>664.0</ele>
        <time>2021-09-30T08:37:50Z</time>
      </trkpt>
      <trkpt lat="42.4122000" lon="-2.6432170">
        <ele>664.4</ele>
        <time>2021-09-30T08:37:59Z</time>
      </trkpt>
      <trkpt lat="42.4122730" lon="-2.6433950">
        <ele>664.4</ele>
        <time>2021-09-30T08:38:03Z</time>
      </trkpt>
      <trkpt lat="42.4123170" lon="-2.6434920">
        <ele>664.4</ele>
        <time>2021-09-30T08:38:05Z</time>
      </trkpt>
      <trkpt lat="42.4123660" lon="-2.6435760">
        <ele>664.4</ele>
        <time>2021-09-30T08:38:07Z</time>
      </trkpt>
      <trkpt lat="42.4124060" lon="-2.6436520">
        <ele>664.0</ele>
        <time>2021-09-30T08:38:09Z</time>
      </trkpt>
      <trkpt lat="42.4124560" lon="-2.6440280">
        <ele>663.4</ele>
        <time>2021-09-30T08:38:18Z</time>
      </trkpt>
      <trkpt lat="42.4124420" lon="-2.6441190">
        <ele>663.2</ele>
        <time>2021-09-30T08:38:20Z</time>
      </trkpt>
      <trkpt lat="42.4124250" lon="-2.6442030">
        <ele>662.8</ele>
        <time>2021-09-30T08:38:22Z</time>
      </trkpt>
      <trkpt lat="42.4124040" lon="-2.6445620">
        <ele>662.0</ele>
        <time>2021-09-30T08:38:29Z</time>
      </trkpt>
      <trkpt lat="42.4124210" lon="-2.6446940">
        <ele>661.6</ele>
        <time>2021-09-30T08:38:31Z</time>
      </trkpt>
      <trkpt lat="42.4124370" lon="-2.6448350">
        <ele>660.6</ele>
        <time>2021-09-30T08:38:33Z</time>
      </trkpt>
      <trkpt lat="42.4124480" lon="-2.6450500">
        <ele>659.6</ele>
        <time>2021-09-30T08:38:36Z</time>
      </trkpt>
      <trkpt lat="42.4124540" lon="-2.6452570">
        <ele>658.6</ele>
        <time>2021-09-30T08:38:39Z</time>
      </trkpt>
      <trkpt lat="42.4124660" lon="-2.6454410">
        <ele>658.0</ele>
        <time>2021-09-30T08:38:42Z</time>
      </trkpt>
      <trkpt lat="42.4124700" lon="-2.6455470">
        <ele>657.8</ele>
        <time>2021-09-30T08:38:44Z</time>
      </trkpt>
      <trkpt lat="42.4124750" lon="-2.6456430">
        <ele>657.6</ele>
        <time>2021-09-30T08:38:46Z</time>
      </trkpt>
      <trkpt lat="42.4124810" lon="-2.6457410">
        <ele>657.4</ele>
        <time>2021-09-30T08:38:48Z</time>
      </trkpt>
      <trkpt lat="42.4124800" lon="-2.6457950">
        <ele>657.4</ele>
        <time>2021-09-30T08:38:49Z</time>
      </trkpt>
      <trkpt lat="42.4124640" lon="-2.6459940">
        <ele>657.2</ele>
        <time>2021-09-30T08:38:52Z</time>
      </trkpt>
      <trkpt lat="42.4124830" lon="-2.6465030">
        <ele>656.6</ele>
        <time>2021-09-30T08:38:58Z</time>
      </trkpt>
      <trkpt lat="42.4124840" lon="-2.6465880">
        <ele>656.0</ele>
        <time>2021-09-30T08:38:59Z</time>
      </trkpt>
      <trkpt lat="42.4124950" lon="-2.6467630">
        <ele>654.2</ele>
        <time>2021-09-30T08:39:01Z</time>
      </trkpt>
      <trkpt lat="42.4125190" lon="-2.6469500">
        <ele>652.6</ele>
        <time>2021-09-30T08:39:03Z</time>
      </trkpt>
      <trkpt lat="42.4125530" lon="-2.6471380">
        <ele>651.0</ele>
        <time>2021-09-30T08:39:05Z</time>
      </trkpt>
      <trkpt lat="42.4125740" lon="-2.6473130">
        <ele>649.2</ele>
        <time>2021-09-30T08:39:07Z</time>
      </trkpt>
      <trkpt lat="42.4125780" lon="-2.6473880">
        <ele>648.6</ele>
        <time>2021-09-30T08:39:08Z</time>
      </trkpt>
      <trkpt lat="42.4125770" lon="-2.6475250">
        <ele>647.8</ele>
        <time>2021-09-30T08:39:10Z</time>
      </trkpt>
      <trkpt lat="42.4125750" lon="-2.6477280">
        <ele>646.8</ele>
        <time>2021-09-30T08:39:13Z</time>
      </trkpt>
      <trkpt lat="42.4125750" lon="-2.6477970">
        <ele>646.6</ele>
        <time>2021-09-30T08:39:14Z</time>
      </trkpt>
      <trkpt lat="42.4126030" lon="-2.6481300">
        <ele>646.2</ele>
        <time>2021-09-30T08:39:19Z</time>
      </trkpt>
      <trkpt lat="42.4126850" lon="-2.6483590">
        <ele>646.6</ele>
        <time>2021-09-30T08:39:30Z</time>
      </trkpt>
      <trkpt lat="42.4126830" lon="-2.6484070">
        <ele>647.4</ele>
        <time>2021-09-30T08:41:53Z</time>
      </trkpt>
      <trkpt lat="42.4126830" lon="-2.6484300">
        <ele>647.2</ele>
        <time>2021-09-30T08:41:54Z</time>
      </trkpt>
      <trkpt lat="42.4125990" lon="-2.6486580">
        <ele>645.6</ele>
        <time>2021-09-30T08:42:04Z</time>
      </trkpt>
      <trkpt lat="42.4125050" lon="-2.6487430">
        <ele>645.0</ele>
        <time>2021-09-30T08:42:08Z</time>
      </trkpt>
      <trkpt lat="42.4124430" lon="-2.6488300">
        <ele>644.4</ele>
        <time>2021-09-30T08:42:10Z</time>
      </trkpt>
      <trkpt lat="42.4123060" lon="-2.6490840">
        <ele>643.2</ele>
        <time>2021-09-30T08:42:15Z</time>
      </trkpt>
      <trkpt lat="42.4122490" lon="-2.6491960">
        <ele>641.8</ele>
        <time>2021-09-30T08:42:17Z</time>
      </trkpt>
      <trkpt lat="42.4121840" lon="-2.6493100">
        <ele>640.6</ele>
        <time>2021-09-30T08:42:19Z</time>
      </trkpt>
      <trkpt lat="42.4121150" lon="-2.6494100">
        <ele>639.4</ele>
        <time>2021-09-30T08:42:21Z</time>
      </trkpt>
      <trkpt lat="42.4120370" lon="-2.6494970">
        <ele>638.6</ele>
        <time>2021-09-30T08:42:23Z</time>
      </trkpt>
      <trkpt lat="42.4119510" lon="-2.6495720">
        <ele>636.8</ele>
        <time>2021-09-30T08:42:25Z</time>
      </trkpt>
      <trkpt lat="42.4119050" lon="-2.6496050">
        <ele>635.8</ele>
        <time>2021-09-30T08:42:26Z</time>
      </trkpt>
      <trkpt lat="42.4118590" lon="-2.6496330">
        <ele>634.6</ele>
        <time>2021-09-30T08:42:27Z</time>
      </trkpt>
      <trkpt lat="42.4117700" lon="-2.6496860">
        <ele>633.4</ele>
        <time>2021-09-30T08:42:29Z</time>
      </trkpt>
      <trkpt lat="42.4116880" lon="-2.6497680">
        <ele>632.2</ele>
        <time>2021-09-30T08:42:31Z</time>
      </trkpt>
      <trkpt lat="42.4116430" lon="-2.6498140">
        <ele>630.8</ele>
        <time>2021-09-30T08:42:32Z</time>
      </trkpt>
      <trkpt lat="42.4115960" lon="-2.6498570">
        <ele>630.2</ele>
        <time>2021-09-30T08:42:33Z</time>
      </trkpt>
      <trkpt lat="42.4115460" lon="-2.6498920">
        <ele>629.4</ele>
        <time>2021-09-30T08:42:34Z</time>
      </trkpt>
      <trkpt lat="42.4114000" lon="-2.6500140">
        <ele>628.2</ele>
        <time>2021-09-30T08:42:37Z</time>
      </trkpt>
      <trkpt lat="42.4113090" lon="-2.6501060">
        <ele>627.2</ele>
        <time>2021-09-30T08:42:39Z</time>
      </trkpt>
      <trkpt lat="42.4111870" lon="-2.6502860">
        <ele>626.0</ele>
        <time>2021-09-30T08:42:42Z</time>
      </trkpt>
      <trkpt lat="42.4111170" lon="-2.6505500">
        <ele>624.6</ele>
        <time>2021-09-30T08:42:46Z</time>
      </trkpt>
      <trkpt lat="42.4111370" lon="-2.6506560">
        <ele>623.6</ele>
        <time>2021-09-30T08:42:48Z</time>
      </trkpt>
      <trkpt lat="42.4111530" lon="-2.6507080">
        <ele>623.0</ele>
        <time>2021-09-30T08:42:49Z</time>
      </trkpt>
      <trkpt lat="42.4111810" lon="-2.6507320">
        <ele>622.6</ele>
        <time>2021-09-30T08:42:50Z</time>
      </trkpt>
      <trkpt lat="42.4112020" lon="-2.6507620">
        <ele>622.2</ele>
        <time>2021-09-30T08:42:51Z</time>
      </trkpt>
      <trkpt lat="42.4112160" lon="-2.6510070">
        <ele>621.4</ele>
        <time>2021-09-30T08:42:56Z</time>
      </trkpt>
      <trkpt lat="42.4111880" lon="-2.6510590">
        <ele>621.0</ele>
        <time>2021-09-30T08:42:57Z</time>
      </trkpt>
      <trkpt lat="42.4111250" lon="-2.6511510">
        <ele>620.8</ele>
        <time>2021-09-30T08:42:59Z</time>
      </trkpt>
      <trkpt lat="42.4110760" lon="-2.6512780">
        <ele>620.0</ele>
        <time>2021-09-30T08:43:02Z</time>
      </trkpt>
      <trkpt lat="42.4110190" lon="-2.6515000">
        <ele>619.0</ele>
        <time>2021-09-30T08:43:06Z</time>
      </trkpt>
      <trkpt lat="42.4109350" lon="-2.6518740">
        <ele>617.8</ele>
        <time>2021-09-30T08:43:12Z</time>
      </trkpt>
      <trkpt lat="42.4109150" lon="-2.6520620">
        <ele>617.4</ele>
        <time>2021-09-30T08:43:15Z</time>
      </trkpt>
      <trkpt lat="42.4109300" lon="-2.6522430">
        <ele>617.4</ele>
        <time>2021-09-30T08:43:18Z</time>
      </trkpt>
      <trkpt lat="42.4109460" lon="-2.6523980">
        <ele>617.4</ele>
        <time>2021-09-30T08:43:21Z</time>
      </trkpt>
      <trkpt lat="42.4109530" lon="-2.6524900">
        <ele>617.8</ele>
        <time>2021-09-30T08:43:23Z</time>
      </trkpt>
      <trkpt lat="42.4109600" lon="-2.6526380">
        <ele>618.6</ele>
        <time>2021-09-30T08:43:26Z</time>
      </trkpt>
      <trkpt lat="42.4109610" lon="-2.6526920">
        <ele>618.8</ele>
        <time>2021-09-30T08:43:27Z</time>
      </trkpt>
      <trkpt lat="42.4109500" lon="-2.6530050">
        <ele>620.0</ele>
        <time>2021-09-30T08:43:32Z</time>
      </trkpt>
      <trkpt lat="42.4109120" lon="-2.6532140">
        <ele>620.0</ele>
        <time>2021-09-30T08:43:35Z</time>
      </trkpt>
      <trkpt lat="42.4107950" lon="-2.6535620">
        <ele>620.0</ele>
        <time>2021-09-30T08:43:39Z</time>
      </trkpt>
      <trkpt lat="42.4107120" lon="-2.6538250">
        <ele>619.2</ele>
        <time>2021-09-30T08:43:42Z</time>
      </trkpt>
      <trkpt lat="42.4106960" lon="-2.6539150">
        <ele>618.2</ele>
        <time>2021-09-30T08:43:43Z</time>
      </trkpt>
      <trkpt lat="42.4106800" lon="-2.6541000">
        <ele>616.4</ele>
        <time>2021-09-30T08:43:45Z</time>
      </trkpt>
      <trkpt lat="42.4106730" lon="-2.6542840">
        <ele>615.2</ele>
        <time>2021-09-30T08:43:47Z</time>
      </trkpt>
      <trkpt lat="42.4106750" lon="-2.6546340">
        <ele>614.2</ele>
        <time>2021-09-30T08:43:51Z</time>
      </trkpt>
      <trkpt lat="42.4106770" lon="-2.6547160">
        <ele>614.0</ele>
        <time>2021-09-30T08:43:52Z</time>
      </trkpt>
      <trkpt lat="42.4107060" lon="-2.6551680">
        <ele>613.0</ele>
        <time>2021-09-30T08:43:57Z</time>
      </trkpt>
      <trkpt lat="42.4107280" lon="-2.6553660">
        <ele>613.0</ele>
        <time>2021-09-30T08:43:59Z</time>
      </trkpt>
      <trkpt lat="42.4107850" lon="-2.6558830">
        <ele>612.0</ele>
        <time>2021-09-30T08:44:05Z</time>
      </trkpt>
      <trkpt lat="42.4108240" lon="-2.6562030">
        <ele>611.4</ele>
        <time>2021-09-30T08:44:09Z</time>
      </trkpt>
      <trkpt lat="42.4108540" lon="-2.6565000">
        <ele>612.4</ele>
        <time>2021-09-30T08:44:18Z</time>
      </trkpt>
      <trkpt lat="42.4108570" lon="-2.6565300">
        <ele>614.6</ele>
        <time>2021-09-30T08:44:31Z</time>
      </trkpt>
      <trkpt lat="42.4108610" lon="-2.6565530">
        <ele>614.6</ele>
        <time>2021-09-30T08:44:32Z</time>
      </trkpt>
      <trkpt lat="42.4109080" lon="-2.6568270">
        <ele>614.2</ele>
        <time>2021-09-30T08:44:41Z</time>
      </trkpt>
      <trkpt lat="42.4109240" lon="-2.6570130">
        <ele>614.0</ele>
        <time>2021-09-30T08:44:44Z</time>
      </trkpt>
      <trkpt lat="42.4109420" lon="-2.6572130">
        <ele>613.6</ele>
        <time>2021-09-30T08:44:47Z</time>
      </trkpt>
      <trkpt lat="42.4109730" lon="-2.6574290">
        <ele>612.2</ele>
        <time>2021-09-30T08:44:50Z</time>
      </trkpt>
      <trkpt lat="42.4110030" lon="-2.6576650">
        <ele>611.4</ele>
        <time>2021-09-30T08:44:53Z</time>
      </trkpt>
      <trkpt lat="42.4110510" lon="-2.6580020">
        <ele>611.0</ele>
        <time>2021-09-30T08:44:57Z</time>
      </trkpt>
      <trkpt lat="42.4111040" lon="-2.6583250">
        <ele>610.4</ele>
        <time>2021-09-30T08:45:01Z</time>
      </trkpt>
      <trkpt lat="42.4111550" lon="-2.6587080">
        <ele>610.0</ele>
        <time>2021-09-30T08:45:06Z</time>
      </trkpt>
      <trkpt lat="42.4112010" lon="-2.6591430">
        <ele>609.8</ele>
        <time>2021-09-30T08:45:11Z</time>
      </trkpt>
      <trkpt lat="42.4112740" lon="-2.6595970">
        <ele>609.0</ele>
        <time>2021-09-30T08:45:16Z</time>
      </trkpt>
      <trkpt lat="42.4113410" lon="-2.6600680">
        <ele>607.8</ele>
        <time>2021-09-30T08:45:21Z</time>
      </trkpt>
      <trkpt lat="42.4113520" lon="-2.6603560">
        <ele>606.8</ele>
        <time>2021-09-30T08:45:24Z</time>
      </trkpt>
      <trkpt lat="42.4113860" lon="-2.6609210">
        <ele>605.6</ele>
        <time>2021-09-30T08:45:30Z</time>
      </trkpt>
      <trkpt lat="42.4114140" lon="-2.6611030">
        <ele>605.6</ele>
        <time>2021-09-30T08:45:32Z</time>
      </trkpt>
      <trkpt lat="42.4114300" lon="-2.6619000">
        <ele>605.4</ele>
        <time>2021-09-30T08:45:41Z</time>
      </trkpt>
      <trkpt lat="42.4113790" lon="-2.6626430">
        <ele>606.0</ele>
        <time>2021-09-30T08:45:51Z</time>
      </trkpt>
      <trkpt lat="42.4113720" lon="-2.6627080">
        <ele>606.0</ele>
        <time>2021-09-30T08:45:52Z</time>
      </trkpt>
      <trkpt lat="42.4113900" lon="-2.6629590">
        <ele>606.2</ele>
        <time>2021-09-30T08:45:56Z</time>
      </trkpt>
      <trkpt lat="42.4113990" lon="-2.6630930">
        <ele>606.8</ele>
        <time>2021-09-30T08:45:58Z</time>
      </trkpt>
      <trkpt lat="42.4114110" lon="-2.6632330">
        <ele>608.0</ele>
        <time>2021-09-30T08:46:00Z</time>
      </trkpt>
      <trkpt lat="42.4115260" lon="-2.6637290">
        <ele>608.8</ele>
        <time>2021-09-30T08:46:07Z</time>
      </trkpt>
      <trkpt lat="42.4116330" lon="-2.6639420">
        <ele>608.8</ele>
        <time>2021-09-30T08:46:10Z</time>
      </trkpt>
      <trkpt lat="42.4116620" lon="-2.6640140">
        <ele>608.8</ele>
        <time>2021-09-30T08:46:11Z</time>
      </trkpt>
      <trkpt lat="42.4117030" lon="-2.6642610">
        <ele>607.6</ele>
        <time>2021-09-30T08:46:14Z</time>
      </trkpt>
      <trkpt lat="42.4117070" lon="-2.6643480">
        <ele>607.0</ele>
        <time>2021-09-30T08:46:15Z</time>
      </trkpt>
      <trkpt lat="42.4117120" lon="-2.6644350">
        <ele>606.6</ele>
        <time>2021-09-30T08:46:16Z</time>
      </trkpt>
      <trkpt lat="42.4117270" lon="-2.6646100">
        <ele>605.2</ele>
        <time>2021-09-30T08:46:18Z</time>
      </trkpt>
      <trkpt lat="42.4117430" lon="-2.6647900">
        <ele>604.4</ele>
        <time>2021-09-30T08:46:20Z</time>
      </trkpt>
      <trkpt lat="42.4117500" lon="-2.6648810">
        <ele>604.0</ele>
        <time>2021-09-30T08:46:21Z</time>
      </trkpt>
      <trkpt lat="42.4117580" lon="-2.6649710">
        <ele>604.0</ele>
        <time>2021-09-30T08:46:22Z</time>
      </trkpt>
      <trkpt lat="42.4117840" lon="-2.6652630">
        <ele>603.0</ele>
        <time>2021-09-30T08:46:25Z</time>
      </trkpt>
      <trkpt lat="42.4118190" lon="-2.6655720">
        <ele>602.0</ele>
        <time>2021-09-30T08:46:28Z</time>
      </trkpt>
      <trkpt lat="42.4118730" lon="-2.6658780">
        <ele>600.8</ele>
        <time>2021-09-30T08:46:31Z</time>
      </trkpt>
      <trkpt lat="42.4118940" lon="-2.6659800">
        <ele>599.4</ele>
        <time>2021-09-30T08:46:32Z</time>
      </trkpt>
      <trkpt lat="42.4119540" lon="-2.6662940">
        <ele>598.4</ele>
        <time>2021-09-30T08:46:35Z</time>
      </trkpt>
      <trkpt lat="42.4119740" lon="-2.6663980">
        <ele>598.2</ele>
        <time>2021-09-30T08:46:36Z</time>
      </trkpt>
      <trkpt lat="42.4120590" lon="-2.6668170">
        <ele>597.0</ele>
        <time>2021-09-30T08:46:40Z</time>
      </trkpt>
      <trkpt lat="42.4121000" lon="-2.6670230">
        <ele>596.2</ele>
        <time>2021-09-30T08:46:42Z</time>
      </trkpt>
      <trkpt lat="42.4121330" lon="-2.6672270">
        <ele>595.4</ele>
        <time>2021-09-30T08:46:44Z</time>
      </trkpt>
      <trkpt lat="42.4121720" lon="-2.6675300">
        <ele>594.2</ele>
        <time>2021-09-30T08:46:47Z</time>
      </trkpt>
      <trkpt lat="42.4122700" lon="-2.6680200">
        <ele>593.2</ele>
        <time>2021-09-30T08:46:52Z</time>
      </trkpt>
      <trkpt lat="42.4124490" lon="-2.6687350">
        <ele>592.2</ele>
        <time>2021-09-30T08:47:00Z</time>
      </trkpt>
      <trkpt lat="42.4125190" lon="-2.6689880">
        <ele>592.2</ele>
        <time>2021-09-30T08:47:03Z</time>
      </trkpt>
      <trkpt lat="42.4127250" lon="-2.6697120">
        <ele>592.2</ele>
        <time>2021-09-30T08:47:12Z</time>
      </trkpt>
      <trkpt lat="42.4128360" lon="-2.6701060">
        <ele>592.0</ele>
        <time>2021-09-30T08:47:17Z</time>
      </trkpt>
      <trkpt lat="42.4129710" lon="-2.6704920">
        <ele>591.6</ele>
        <time>2021-09-30T08:47:22Z</time>
      </trkpt>
      <trkpt lat="42.4130510" lon="-2.6707380">
        <ele>591.2</ele>
        <time>2021-09-30T08:47:25Z</time>
      </trkpt>
      <trkpt lat="42.4131660" lon="-2.6710720">
        <ele>590.6</ele>
        <time>2021-09-30T08:47:29Z</time>
      </trkpt>
      <trkpt lat="42.4132740" lon="-2.6714230">
        <ele>590.0</ele>
        <time>2021-09-30T08:47:33Z</time>
      </trkpt>
      <trkpt lat="42.4133210" lon="-2.6717010">
        <ele>589.0</ele>
        <time>2021-09-30T08:47:36Z</time>
      </trkpt>
      <trkpt lat="42.4133500" lon="-2.6718870">
        <ele>588.2</ele>
        <time>2021-09-30T08:47:38Z</time>
      </trkpt>
      <trkpt lat="42.4133830" lon="-2.6720660">
        <ele>587.6</ele>
        <time>2021-09-30T08:47:40Z</time>
      </trkpt>
      <trkpt lat="42.4134180" lon="-2.6723440">
        <ele>586.4</ele>
        <time>2021-09-30T08:47:43Z</time>
      </trkpt>
      <trkpt lat="42.4134160" lon="-2.6725170">
        <ele>585.4</ele>
        <time>2021-09-30T08:47:45Z</time>
      </trkpt>
      <trkpt lat="42.4134050" lon="-2.6726860">
        <ele>584.8</ele>
        <time>2021-09-30T08:47:47Z</time>
      </trkpt>
      <trkpt lat="42.4134310" lon="-2.6728840">
        <ele>584.2</ele>
        <time>2021-09-30T08:47:49Z</time>
      </trkpt>
      <trkpt lat="42.4134810" lon="-2.6731070">
        <ele>583.2</ele>
        <time>2021-09-30T08:47:51Z</time>
      </trkpt>
      <trkpt lat="42.4135120" lon="-2.6732180">
        <ele>582.8</ele>
        <time>2021-09-30T08:47:52Z</time>
      </trkpt>
      <trkpt lat="42.4135990" lon="-2.6735470">
        <ele>581.4</ele>
        <time>2021-09-30T08:47:55Z</time>
      </trkpt>
      <trkpt lat="42.4136390" lon="-2.6737740">
        <ele>579.4</ele>
        <time>2021-09-30T08:47:57Z</time>
      </trkpt>
      <trkpt lat="42.4136530" lon="-2.6738860">
        <ele>578.0</ele>
        <time>2021-09-30T08:47:58Z</time>
      </trkpt>
      <trkpt lat="42.4136570" lon="-2.6739950">
        <ele>576.8</ele>
        <time>2021-09-30T08:47:59Z</time>
      </trkpt>
      <trkpt lat="42.4136490" lon="-2.6741990">
        <ele>575.2</ele>
        <time>2021-09-30T08:48:01Z</time>
      </trkpt>
      <trkpt lat="42.4136470" lon="-2.6744760">
        <ele>574.0</ele>
        <time>2021-09-30T08:48:04Z</time>
      </trkpt>
      <trkpt lat="42.4136790" lon="-2.6746410">
        <ele>574.0</ele>
        <time>2021-09-30T08:48:06Z</time>
      </trkpt>
      <trkpt lat="42.4137230" lon="-2.6747950">
        <ele>573.8</ele>
        <time>2021-09-30T08:48:08Z</time>
      </trkpt>
      <trkpt lat="42.4137700" lon="-2.6749440">
        <ele>573.8</ele>
        <time>2021-09-30T08:48:10Z</time>
      </trkpt>
      <trkpt lat="42.4138370" lon="-2.6751560">
        <ele>574.0</ele>
        <time>2021-09-30T08:48:13Z</time>
      </trkpt>
      <trkpt lat="42.4139220" lon="-2.6754260">
        <ele>575.2</ele>
        <time>2021-09-30T08:48:17Z</time>
      </trkpt>
      <trkpt lat="42.4139880" lon="-2.6756260">
        <ele>576.2</ele>
        <time>2021-09-30T08:48:20Z</time>
      </trkpt>
      <trkpt lat="42.4141050" lon="-2.6758710">
        <ele>577.6</ele>
        <time>2021-09-30T08:48:24Z</time>
      </trkpt>
      <trkpt lat="42.4142000" lon="-2.6760490">
        <ele>578.6</ele>
        <time>2021-09-30T08:48:27Z</time>
      </trkpt>
      <trkpt lat="42.4145110" lon="-2.6765740">
        <ele>579.6</ele>
        <time>2021-09-30T08:48:36Z</time>
      </trkpt>
      <trkpt lat="42.4147680" lon="-2.6771010">
        <ele>579.8</ele>
        <time>2021-09-30T08:48:45Z</time>
      </trkpt>
      <trkpt lat="42.4148610" lon="-2.6773550">
        <ele>580.6</ele>
        <time>2021-09-30T08:48:49Z</time>
      </trkpt>
      <trkpt lat="42.4148900" lon="-2.6774090">
        <ele>580.6</ele>
        <time>2021-09-30T08:48:50Z</time>
      </trkpt>
      <trkpt lat="42.4149710" lon="-2.6776600">
        <ele>581.2</ele>
        <time>2021-09-30T08:48:55Z</time>
      </trkpt>
      <trkpt lat="42.4149810" lon="-2.6778290">
        <ele>581.8</ele>
        <time>2021-09-30T08:48:58Z</time>
      </trkpt>
      <trkpt lat="42.4150040" lon="-2.6783150">
        <ele>582.8</ele>
        <time>2021-09-30T08:49:06Z</time>
      </trkpt>
      <trkpt lat="42.4149820" lon="-2.6784960">
        <ele>583.0</ele>
        <time>2021-09-30T08:49:09Z</time>
      </trkpt>
      <trkpt lat="42.4149390" lon="-2.6786800">
        <ele>583.0</ele>
        <time>2021-09-30T08:49:12Z</time>
      </trkpt>
      <trkpt lat="42.4148860" lon="-2.6788790">
        <ele>583.0</ele>
        <time>2021-09-30T08:49:15Z</time>
      </trkpt>
      <trkpt lat="42.4148570" lon="-2.6791040">
        <ele>583.0</ele>
        <time>2021-09-30T08:49:18Z</time>
      </trkpt>
      <trkpt lat="42.4147710" lon="-2.6795560">
        <ele>581.4</ele>
        <time>2021-09-30T08:49:24Z</time>
      </trkpt>
      <trkpt lat="42.4146760" lon="-2.6799510">
        <ele>580.4</ele>
        <time>2021-09-30T08:49:29Z</time>
      </trkpt>
      <trkpt lat="42.4146340" lon="-2.6801120">
        <ele>579.4</ele>
        <time>2021-09-30T08:49:31Z</time>
      </trkpt>
      <trkpt lat="42.4145620" lon="-2.6803500">
        <ele>578.4</ele>
        <time>2021-09-30T08:49:34Z</time>
      </trkpt>
      <trkpt lat="42.4145390" lon="-2.6804300">
        <ele>578.2</ele>
        <time>2021-09-30T08:49:35Z</time>
      </trkpt>
      <trkpt lat="42.4144810" lon="-2.6806820">
        <ele>577.8</ele>
        <time>2021-09-30T08:49:38Z</time>
      </trkpt>
      <trkpt lat="42.4144550" lon="-2.6808620">
        <ele>577.0</ele>
        <time>2021-09-30T08:49:40Z</time>
      </trkpt>
      <trkpt lat="42.4143950" lon="-2.6815110">
        <ele>575.8</ele>
        <time>2021-09-30T08:49:47Z</time>
      </trkpt>
      <trkpt lat="42.4143810" lon="-2.6817020">
        <ele>574.6</ele>
        <time>2021-09-30T08:49:49Z</time>
      </trkpt>
      <trkpt lat="42.4143590" lon="-2.6819810">
        <ele>574.2</ele>
        <time>2021-09-30T08:49:52Z</time>
      </trkpt>
      <trkpt lat="42.4143480" lon="-2.6821630">
        <ele>574.0</ele>
        <time>2021-09-30T08:49:54Z</time>
      </trkpt>
      <trkpt lat="42.4143400" lon="-2.6823440">
        <ele>573.8</ele>
        <time>2021-09-30T08:49:56Z</time>
      </trkpt>
      <trkpt lat="42.4143350" lon="-2.6824340">
        <ele>573.6</ele>
        <time>2021-09-30T08:49:57Z</time>
      </trkpt>
      <trkpt lat="42.4143110" lon="-2.6828660">
        <ele>573.0</ele>
        <time>2021-09-30T08:50:02Z</time>
      </trkpt>
      <trkpt lat="42.4142970" lon="-2.6830450">
        <ele>572.4</ele>
        <time>2021-09-30T08:50:04Z</time>
      </trkpt>
      <trkpt lat="42.4142150" lon="-2.6834790">
        <ele>571.4</ele>
        <time>2021-09-30T08:50:09Z</time>
      </trkpt>
      <trkpt lat="42.4140960" lon="-2.6838150">
        <ele>570.2</ele>
        <time>2021-09-30T08:50:13Z</time>
      </trkpt>
      <trkpt lat="42.4139310" lon="-2.6843430">
        <ele>569.2</ele>
        <time>2021-09-30T08:50:19Z</time>
      </trkpt>
      <trkpt lat="42.4138820" lon="-2.6845240">
        <ele>568.2</ele>
        <time>2021-09-30T08:50:21Z</time>
      </trkpt>
      <trkpt lat="42.4138550" lon="-2.6846140">
        <ele>568.0</ele>
        <time>2021-09-30T08:50:22Z</time>
      </trkpt>
      <trkpt lat="42.4137250" lon="-2.6850420">
        <ele>566.8</ele>
        <time>2021-09-30T08:50:27Z</time>
      </trkpt>
      <trkpt lat="42.4136270" lon="-2.6854520">
        <ele>565.8</ele>
        <time>2021-09-30T08:50:32Z</time>
      </trkpt>
      <trkpt lat="42.4135480" lon="-2.6860140">
        <ele>564.8</ele>
        <time>2021-09-30T08:50:39Z</time>
      </trkpt>
      <trkpt lat="42.4135080" lon="-2.6861680">
        <ele>564.2</ele>
        <time>2021-09-30T08:50:41Z</time>
      </trkpt>
      <trkpt lat="42.4134330" lon="-2.6864820">
        <ele>563.8</ele>
        <time>2021-09-30T08:50:45Z</time>
      </trkpt>
      <trkpt lat="42.4134060" lon="-2.6867250">
        <ele>563.4</ele>
        <time>2021-09-30T08:50:48Z</time>
      </trkpt>
      <trkpt lat="42.4133510" lon="-2.6871260">
        <ele>562.4</ele>
        <time>2021-09-30T08:50:53Z</time>
      </trkpt>
      <trkpt lat="42.4133410" lon="-2.6879240">
        <ele>561.6</ele>
        <time>2021-09-30T08:51:03Z</time>
      </trkpt>
      <trkpt lat="42.4133520" lon="-2.6880780">
        <ele>561.4</ele>
        <time>2021-09-30T08:51:05Z</time>
      </trkpt>
      <trkpt lat="42.4134130" lon="-2.6887970">
        <ele>560.4</ele>
        <time>2021-09-30T08:51:14Z</time>
      </trkpt>
      <trkpt lat="42.4134110" lon="-2.6895610">
        <ele>559.2</ele>
        <time>2021-09-30T08:51:24Z</time>
      </trkpt>
      <trkpt lat="42.4133680" lon="-2.6903020">
        <ele>559.0</ele>
        <time>2021-09-30T08:51:34Z</time>
      </trkpt>
      <trkpt lat="42.4132910" lon="-2.6910500">
        <ele>558.6</ele>
        <time>2021-09-30T08:51:44Z</time>
      </trkpt>
      <trkpt lat="42.4132470" lon="-2.6913610">
        <ele>558.4</ele>
        <time>2021-09-30T08:51:48Z</time>
      </trkpt>
      <trkpt lat="42.4132440" lon="-2.6916050">
        <ele>558.2</ele>
        <time>2021-09-30T08:51:51Z</time>
      </trkpt>
      <trkpt lat="42.4132410" lon="-2.6919180">
        <ele>557.0</ele>
        <time>2021-09-30T08:51:55Z</time>
      </trkpt>
      <trkpt lat="42.4132500" lon="-2.6921500">
        <ele>555.8</ele>
        <time>2021-09-30T08:51:58Z</time>
      </trkpt>
      <trkpt lat="42.4132890" lon="-2.6924030">
        <ele>555.0</ele>
        <time>2021-09-30T08:52:01Z</time>
      </trkpt>
      <trkpt lat="42.4133290" lon="-2.6925910">
        <ele>554.6</ele>
        <time>2021-09-30T08:52:03Z</time>
      </trkpt>
      <trkpt lat="42.4134290" lon="-2.6931030">
        <ele>553.6</ele>
        <time>2021-09-30T08:52:08Z</time>
      </trkpt>
      <trkpt lat="42.4134660" lon="-2.6933170">
        <ele>552.4</ele>
        <time>2021-09-30T08:52:10Z</time>
      </trkpt>
      <trkpt lat="42.4135010" lon="-2.6935240">
        <ele>550.2</ele>
        <time>2021-09-30T08:52:12Z</time>
      </trkpt>
      <trkpt lat="42.4135340" lon="-2.6937240">
        <ele>549.0</ele>
        <time>2021-09-30T08:52:14Z</time>
      </trkpt>
      <trkpt lat="42.4135740" lon="-2.6939170">
        <ele>547.6</ele>
        <time>2021-09-30T08:52:16Z</time>
      </trkpt>
      <trkpt lat="42.4136020" lon="-2.6940080">
        <ele>547.2</ele>
        <time>2021-09-30T08:52:17Z</time>
      </trkpt>
      <trkpt lat="42.4136810" lon="-2.6941760">
        <ele>546.4</ele>
        <time>2021-09-30T08:52:19Z</time>
      </trkpt>
      <trkpt lat="42.4138640" lon="-2.6944690">
        <ele>545.2</ele>
        <time>2021-09-30T08:52:23Z</time>
      </trkpt>
      <trkpt lat="42.4140010" lon="-2.6946680">
        <ele>544.0</ele>
        <time>2021-09-30T08:52:26Z</time>
      </trkpt>
      <trkpt lat="42.4141170" lon="-2.6948330">
        <ele>543.2</ele>
        <time>2021-09-30T08:52:29Z</time>
      </trkpt>
      <trkpt lat="42.4141540" lon="-2.6949270">
        <ele>542.8</ele>
        <time>2021-09-30T08:52:31Z</time>
      </trkpt>
      <trkpt lat="42.4141630" lon="-2.6950070">
        <ele>542.6</ele>
        <time>2021-09-30T08:52:33Z</time>
      </trkpt>
      <trkpt lat="42.4141690" lon="-2.6950850">
        <ele>542.4</ele>
        <time>2021-09-30T08:52:35Z</time>
      </trkpt>
      <trkpt lat="42.4141690" lon="-2.6951380">
        <ele>542.4</ele>
        <time>2021-09-30T08:52:36Z</time>
      </trkpt>
      <trkpt lat="42.4141650" lon="-2.6952620">
        <ele>542.2</ele>
        <time>2021-09-30T08:52:38Z</time>
      </trkpt>
      <trkpt lat="42.4141680" lon="-2.6954040">
        <ele>542.0</ele>
        <time>2021-09-30T08:52:40Z</time>
      </trkpt>
      <trkpt lat="42.4142040" lon="-2.6957160">
        <ele>541.8</ele>
        <time>2021-09-30T08:52:44Z</time>
      </trkpt>
      <trkpt lat="42.4142210" lon="-2.6958870">
        <ele>540.8</ele>
        <time>2021-09-30T08:52:46Z</time>
      </trkpt>
      <trkpt lat="42.4142290" lon="-2.6959740">
        <ele>540.4</ele>
        <time>2021-09-30T08:52:47Z</time>
      </trkpt>
      <trkpt lat="42.4142480" lon="-2.6962200">
        <ele>539.6</ele>
        <time>2021-09-30T08:52:50Z</time>
      </trkpt>
      <trkpt lat="42.4142420" lon="-2.6962950">
        <ele>539.4</ele>
        <time>2021-09-30T08:52:51Z</time>
      </trkpt>
      <trkpt lat="42.4141970" lon="-2.6965080">
        <ele>538.4</ele>
        <time>2021-09-30T08:52:54Z</time>
      </trkpt>
      <trkpt lat="42.4141610" lon="-2.6966440">
        <ele>538.0</ele>
        <time>2021-09-30T08:52:56Z</time>
      </trkpt>
      <trkpt lat="42.4141270" lon="-2.6967820">
        <ele>538.0</ele>
        <time>2021-09-30T08:52:58Z</time>
      </trkpt>
      <trkpt lat="42.4141150" lon="-2.6968540">
        <ele>538.0</ele>
        <time>2021-09-30T08:52:59Z</time>
      </trkpt>
      <trkpt lat="42.4141030" lon="-2.6970010">
        <ele>538.0</ele>
        <time>2021-09-30T08:53:01Z</time>
      </trkpt>
      <trkpt lat="42.4141050" lon="-2.6971510">
        <ele>537.8</ele>
        <time>2021-09-30T08:53:03Z</time>
      </trkpt>
      <trkpt lat="42.4143300" lon="-2.6978620">
        <ele>537.6</ele>
        <time>2021-09-30T08:53:13Z</time>
      </trkpt>
      <trkpt lat="42.4144010" lon="-2.6980690">
        <ele>537.4</ele>
        <time>2021-09-30T08:53:16Z</time>
      </trkpt>
      <trkpt lat="42.4144430" lon="-2.6981780">
        <ele>537.2</ele>
        <time>2021-09-30T08:53:18Z</time>
      </trkpt>
      <trkpt lat="42.4144750" lon="-2.6982360">
        <ele>537.2</ele>
        <time>2021-09-30T08:53:20Z</time>
      </trkpt>
      <trkpt lat="42.4144960" lon="-2.6982460">
        <ele>537.2</ele>
        <time>2021-09-30T08:53:23Z</time>
      </trkpt>
      <trkpt lat="42.4144090" lon="-2.6983910">
        <ele>535.8</ele>
        <time>2021-09-30T08:53:57Z</time>
      </trkpt>
      <trkpt lat="42.4144050" lon="-2.6984060">
        <ele>535.8</ele>
        <time>2021-09-30T08:53:58Z</time>
      </trkpt>
      <trkpt lat="42.4143870" lon="-2.6984430">
        <ele>535.6</ele>
        <time>2021-09-30T08:54:00Z</time>
      </trkpt>
      <trkpt lat="42.4143770" lon="-2.6984850">
        <ele>535.6</ele>
        <time>2021-09-30T08:54:02Z</time>
      </trkpt>
      <trkpt lat="42.4145260" lon="-2.6987310">
        <ele>535.2</ele>
        <time>2021-09-30T08:54:13Z</time>
      </trkpt>
      <trkpt lat="42.4145690" lon="-2.6987680">
        <ele>535.2</ele>
        <time>2021-09-30T08:54:15Z</time>
      </trkpt>
      <trkpt lat="42.4146410" lon="-2.6988420">
        <ele>535.2</ele>
        <time>2021-09-30T08:54:18Z</time>
      </trkpt>
      <trkpt lat="42.4147340" lon="-2.6989050">
        <ele>535.6</ele>
        <time>2021-09-30T08:54:21Z</time>
      </trkpt>
      <trkpt lat="42.4152150" lon="-2.6992580">
        <ele>535.0</ele>
        <time>2021-09-30T08:54:33Z</time>
      </trkpt>
      <trkpt lat="42.4152620" lon="-2.6993000">
        <ele>534.8</ele>
        <time>2021-09-30T08:54:34Z</time>
      </trkpt>
      <trkpt lat="42.4154030" lon="-2.6994090">
        <ele>534.2</ele>
        <time>2021-09-30T08:54:37Z</time>
      </trkpt>
      <trkpt lat="42.4155000" lon="-2.6994640">
        <ele>533.8</ele>
        <time>2021-09-30T08:54:39Z</time>
      </trkpt>
      <trkpt lat="42.4156340" lon="-2.6995100">
        <ele>532.6</ele>
        <time>2021-09-30T08:54:42Z</time>
      </trkpt>
      <trkpt lat="42.4158940" lon="-2.6995620">
        <ele>532.2</ele>
        <time>2021-09-30T08:54:48Z</time>
      </trkpt>
      <trkpt lat="42.4160590" lon="-2.6996620">
        <ele>532.0</ele>
        <time>2021-09-30T08:54:52Z</time>
      </trkpt>
      <trkpt lat="42.4161480" lon="-2.6998360">
        <ele>532.2</ele>
        <time>2021-09-30T08:54:56Z</time>
      </trkpt>
      <trkpt lat="42.4160370" lon="-2.7000260">
        <ele>532.4</ele>
        <time>2021-09-30T08:55:01Z</time>
      </trkpt>
      <trkpt lat="42.4158550" lon="-2.7001730">
        <ele>533.2</ele>
        <time>2021-09-30T08:55:06Z</time>
      </trkpt>
      <trkpt lat="42.4157190" lon="-2.7003240">
        <ele>533.4</ele>
        <time>2021-09-30T08:55:10Z</time>
      </trkpt>
      <trkpt lat="42.4156890" lon="-2.7004540">
        <ele>533.4</ele>
        <time>2021-09-30T08:55:12Z</time>
      </trkpt>
      <trkpt lat="42.4156800" lon="-2.7005260">
        <ele>533.4</ele>
        <time>2021-09-30T08:55:13Z</time>
      </trkpt>
      <trkpt lat="42.4156360" lon="-2.7012370">
        <ele>531.6</ele>
        <time>2021-09-30T08:55:22Z</time>
      </trkpt>
      <trkpt lat="42.4156010" lon="-2.7014650">
        <ele>530.6</ele>
        <time>2021-09-30T08:55:25Z</time>
      </trkpt>
      <trkpt lat="42.4154580" lon="-2.7022260">
        <ele>529.8</ele>
        <time>2021-09-30T08:55:35Z</time>
      </trkpt>
      <trkpt lat="42.4153990" lon="-2.7024480">
        <ele>529.6</ele>
        <time>2021-09-30T08:55:38Z</time>
      </trkpt>
      <trkpt lat="42.4154020" lon="-2.7026750">
        <ele>529.2</ele>
        <time>2021-09-30T08:55:41Z</time>
      </trkpt>
      <trkpt lat="42.4154300" lon="-2.7028230">
        <ele>529.0</ele>
        <time>2021-09-30T08:55:43Z</time>
      </trkpt>
      <trkpt lat="42.4154980" lon="-2.7033570">
        <ele>528.6</ele>
        <time>2021-09-30T08:55:50Z</time>
      </trkpt>
      <trkpt lat="42.4155090" lon="-2.7034320">
        <ele>528.6</ele>
        <time>2021-09-30T08:55:51Z</time>
      </trkpt>
      <trkpt lat="42.4156260" lon="-2.7041710">
        <ele>528.4</ele>
        <time>2021-09-30T08:56:01Z</time>
      </trkpt>
      <trkpt lat="42.4157290" lon="-2.7049030">
        <ele>528.6</ele>
        <time>2021-09-30T08:56:11Z</time>
      </trkpt>
      <trkpt lat="42.4157500" lon="-2.7052040">
        <ele>528.6</ele>
        <time>2021-09-30T08:56:15Z</time>
      </trkpt>
      <trkpt lat="42.4157660" lon="-2.7057220">
        <ele>528.8</ele>
        <time>2021-09-30T08:56:22Z</time>
      </trkpt>
      <trkpt lat="42.4157880" lon="-2.7060220">
        <ele>529.0</ele>
        <time>2021-09-30T08:56:26Z</time>
      </trkpt>
      <trkpt lat="42.4158200" lon="-2.7064040">
        <ele>529.2</ele>
        <time>2021-09-30T08:56:31Z</time>
      </trkpt>
      <trkpt lat="42.4158410" lon="-2.7071670">
        <ele>529.2</ele>
        <time>2021-09-30T08:56:41Z</time>
      </trkpt>
      <trkpt lat="42.4159190" lon="-2.7079320">
        <ele>528.8</ele>
        <time>2021-09-30T08:56:51Z</time>
      </trkpt>
      <trkpt lat="42.4159890" lon="-2.7085440">
        <ele>528.4</ele>
        <time>2021-09-30T08:56:59Z</time>
      </trkpt>
      <trkpt lat="42.4160630" lon="-2.7090880">
        <ele>528.2</ele>
        <time>2021-09-30T08:57:06Z</time>
      </trkpt>
      <trkpt lat="42.4161150" lon="-2.7096070">
        <ele>528.0</ele>
        <time>2021-09-30T08:57:13Z</time>
      </trkpt>
      <trkpt lat="42.4160870" lon="-2.7098130">
        <ele>528.0</ele>
        <time>2021-09-30T08:57:16Z</time>
      </trkpt>
      <trkpt lat="42.4161990" lon="-2.7101890">
        <ele>528.0</ele>
        <time>2021-09-30T08:57:22Z</time>
      </trkpt>
      <trkpt lat="42.4162530" lon="-2.7103890">
        <ele>527.8</ele>
        <time>2021-09-30T08:57:25Z</time>
      </trkpt>
      <trkpt lat="42.4163280" lon="-2.7108080">
        <ele>527.2</ele>
        <time>2021-09-30T08:57:31Z</time>
      </trkpt>
      <trkpt lat="42.4163980" lon="-2.7110940">
        <ele>526.2</ele>
        <time>2021-09-30T08:57:35Z</time>
      </trkpt>
      <trkpt lat="42.4164390" lon="-2.7113150">
        <ele>525.8</ele>
        <time>2021-09-30T08:57:38Z</time>
      </trkpt>
      <trkpt lat="42.4165390" lon="-2.7118480">
        <ele>525.4</ele>
        <time>2021-09-30T08:57:45Z</time>
      </trkpt>
      <trkpt lat="42.4165480" lon="-2.7119280">
        <ele>525.2</ele>
        <time>2021-09-30T08:57:46Z</time>
      </trkpt>
      <trkpt lat="42.4166030" lon="-2.7123150">
        <ele>524.6</ele>
        <time>2021-09-30T08:57:51Z</time>
      </trkpt>
      <trkpt lat="42.4166340" lon="-2.7124620">
        <ele>523.8</ele>
        <time>2021-09-30T08:57:53Z</time>
      </trkpt>
      <trkpt lat="42.4167410" lon="-2.7129850">
        <ele>522.6</ele>
        <time>2021-09-30T08:58:00Z</time>
      </trkpt>
      <trkpt lat="42.4168640" lon="-2.7134860">
        <ele>522.4</ele>
        <time>2021-09-30T08:58:07Z</time>
      </trkpt>
      <trkpt lat="42.4170110" lon="-2.7141980">
        <ele>522.0</ele>
        <time>2021-09-30T08:58:17Z</time>
      </trkpt>
      <trkpt lat="42.4170730" lon="-2.7144150">
        <ele>521.8</ele>
        <time>2021-09-30T08:58:20Z</time>
      </trkpt>
      <trkpt lat="42.4170940" lon="-2.7144840">
        <ele>521.6</ele>
        <time>2021-09-30T08:58:21Z</time>
      </trkpt>
      <trkpt lat="42.4171810" lon="-2.7148200">
        <ele>520.6</ele>
        <time>2021-09-30T08:58:26Z</time>
      </trkpt>
      <trkpt lat="42.4172020" lon="-2.7148810">
        <ele>520.6</ele>
        <time>2021-09-30T08:58:27Z</time>
      </trkpt>
      <trkpt lat="42.4173490" lon="-2.7150350">
        <ele>520.0</ele>
        <time>2021-09-30T08:58:31Z</time>
      </trkpt>
      <trkpt lat="42.4175830" lon="-2.7152670">
        <ele>519.6</ele>
        <time>2021-09-30T08:58:37Z</time>
      </trkpt>
      <trkpt lat="42.4177090" lon="-2.7154260">
        <ele>519.4</ele>
        <time>2021-09-30T08:58:42Z</time>
      </trkpt>
      <trkpt lat="42.4177160" lon="-2.7155040">
        <ele>519.6</ele>
        <time>2021-09-30T08:58:45Z</time>
      </trkpt>
      <trkpt lat="42.4177130" lon="-2.7155190">
        <ele>519.6</ele>
        <time>2021-09-30T08:58:47Z</time>
      </trkpt>
      <trkpt lat="42.4176960" lon="-2.7155830">
        <ele>521.2</ele>
        <time>2021-09-30T08:59:16Z</time>
      </trkpt>
      <trkpt lat="42.4176850" lon="-2.7156160">
        <ele>521.2</ele>
        <time>2021-09-30T08:59:17Z</time>
      </trkpt>
      <trkpt lat="42.4176410" lon="-2.7157520">
        <ele>521.2</ele>
        <time>2021-09-30T08:59:20Z</time>
      </trkpt>
      <trkpt lat="42.4176100" lon="-2.7159460">
        <ele>521.0</ele>
        <time>2021-09-30T08:59:23Z</time>
      </trkpt>
      <trkpt lat="42.4176670" lon="-2.7162320">
        <ele>520.2</ele>
        <time>2021-09-30T08:59:27Z</time>
      </trkpt>
      <trkpt lat="42.4176930" lon="-2.7163020">
        <ele>519.6</ele>
        <time>2021-09-30T08:59:28Z</time>
      </trkpt>
      <trkpt lat="42.4177460" lon="-2.7164440">
        <ele>519.0</ele>
        <time>2021-09-30T08:59:30Z</time>
      </trkpt>
      <trkpt lat="42.4178200" lon="-2.7166650">
        <ele>517.6</ele>
        <time>2021-09-30T08:59:33Z</time>
      </trkpt>
      <trkpt lat="42.4179470" lon="-2.7171290">
        <ele>516.4</ele>
        <time>2021-09-30T08:59:39Z</time>
      </trkpt>
      <trkpt lat="42.4180090" lon="-2.7176270">
        <ele>515.6</ele>
        <time>2021-09-30T08:59:45Z</time>
      </trkpt>
      <trkpt lat="42.4180190" lon="-2.7177140">
        <ele>515.4</ele>
        <time>2021-09-30T08:59:46Z</time>
      </trkpt>
      <trkpt lat="42.4180310" lon="-2.7178000">
        <ele>515.2</ele>
        <time>2021-09-30T08:59:47Z</time>
      </trkpt>
      <trkpt lat="42.4180480" lon="-2.7178840">
        <ele>514.8</ele>
        <time>2021-09-30T08:59:48Z</time>
      </trkpt>
      <trkpt lat="42.4180950" lon="-2.7180350">
        <ele>514.0</ele>
        <time>2021-09-30T08:59:50Z</time>
      </trkpt>
      <trkpt lat="42.4181460" lon="-2.7181580">
        <ele>513.6</ele>
        <time>2021-09-30T08:59:52Z</time>
      </trkpt>
      <trkpt lat="42.4181880" lon="-2.7182680">
        <ele>513.4</ele>
        <time>2021-09-30T08:59:54Z</time>
      </trkpt>
      <trkpt lat="42.4182030" lon="-2.7183300">
        <ele>513.4</ele>
        <time>2021-09-30T08:59:55Z</time>
      </trkpt>
      <trkpt lat="42.4182430" lon="-2.7184630">
        <ele>513.0</ele>
        <time>2021-09-30T08:59:57Z</time>
      </trkpt>
      <trkpt lat="42.4182730" lon="-2.7185280">
        <ele>513.0</ele>
        <time>2021-09-30T08:59:58Z</time>
      </trkpt>
      <trkpt lat="42.4183060" lon="-2.7185960">
        <ele>512.8</ele>
        <time>2021-09-30T08:59:59Z</time>
      </trkpt>
      <trkpt lat="42.4183680" lon="-2.7187440">
        <ele>512.6</ele>
        <time>2021-09-30T09:00:01Z</time>
      </trkpt>
      <trkpt lat="42.4184790" lon="-2.7191440">
        <ele>511.8</ele>
        <time>2021-09-30T09:00:06Z</time>
      </trkpt>
      <trkpt lat="42.4185680" lon="-2.7198620">
        <ele>510.8</ele>
        <time>2021-09-30T09:00:15Z</time>
      </trkpt>
      <trkpt lat="42.4185860" lon="-2.7200250">
        <ele>510.6</ele>
        <time>2021-09-30T09:00:17Z</time>
      </trkpt>
      <trkpt lat="42.4185990" lon="-2.7201910">
        <ele>510.4</ele>
        <time>2021-09-30T09:00:19Z</time>
      </trkpt>
      <trkpt lat="42.4186280" lon="-2.7205140">
        <ele>510.0</ele>
        <time>2021-09-30T09:00:23Z</time>
      </trkpt>
      <trkpt lat="42.4186280" lon="-2.7205930">
        <ele>509.8</ele>
        <time>2021-09-30T09:00:24Z</time>
      </trkpt>
      <trkpt lat="42.4186250" lon="-2.7208250">
        <ele>509.2</ele>
        <time>2021-09-30T09:00:27Z</time>
      </trkpt>
      <trkpt lat="42.4186230" lon="-2.7210510">
        <ele>509.0</ele>
        <time>2021-09-30T09:00:30Z</time>
      </trkpt>
      <trkpt lat="42.4186120" lon="-2.7212780">
        <ele>509.0</ele>
        <time>2021-09-30T09:00:33Z</time>
      </trkpt>
      <trkpt lat="42.4186010" lon="-2.7215110">
        <ele>508.8</ele>
        <time>2021-09-30T09:00:36Z</time>
      </trkpt>
      <trkpt lat="42.4185960" lon="-2.7216680">
        <ele>508.6</ele>
        <time>2021-09-30T09:00:38Z</time>
      </trkpt>
      <trkpt lat="42.4185560" lon="-2.7222890">
        <ele>507.6</ele>
        <time>2021-09-30T09:00:46Z</time>
      </trkpt>
      <trkpt lat="42.4185290" lon="-2.7225710">
        <ele>507.4</ele>
        <time>2021-09-30T09:00:50Z</time>
      </trkpt>
      <trkpt lat="42.4184890" lon="-2.7229900">
        <ele>507.2</ele>
        <time>2021-09-30T09:00:56Z</time>
      </trkpt>
      <trkpt lat="42.4184410" lon="-2.7236670">
        <ele>506.6</ele>
        <time>2021-09-30T09:01:05Z</time>
      </trkpt>
      <trkpt lat="42.4184130" lon="-2.7239580">
        <ele>506.4</ele>
        <time>2021-09-30T09:01:09Z</time>
      </trkpt>
      <trkpt lat="42.4183930" lon="-2.7241710">
        <ele>505.8</ele>
        <time>2021-09-30T09:01:12Z</time>
      </trkpt>
      <trkpt lat="42.4183800" lon="-2.7243100">
        <ele>505.4</ele>
        <time>2021-09-30T09:01:14Z</time>
      </trkpt>
      <trkpt lat="42.4183690" lon="-2.7244470">
        <ele>505.2</ele>
        <time>2021-09-30T09:01:16Z</time>
      </trkpt>
      <trkpt lat="42.4183310" lon="-2.7247800">
        <ele>505.0</ele>
        <time>2021-09-30T09:01:21Z</time>
      </trkpt>
      <trkpt lat="42.4183140" lon="-2.7248960">
        <ele>505.0</ele>
        <time>2021-09-30T09:01:23Z</time>
      </trkpt>
      <trkpt lat="42.4182980" lon="-2.7250120">
        <ele>505.0</ele>
        <time>2021-09-30T09:01:25Z</time>
      </trkpt>
      <trkpt lat="42.4183030" lon="-2.7250730">
        <ele>505.0</ele>
        <time>2021-09-30T09:01:26Z</time>
      </trkpt>
      <trkpt lat="42.4183200" lon="-2.7251330">
        <ele>505.0</ele>
        <time>2021-09-30T09:01:27Z</time>
      </trkpt>
      <trkpt lat="42.4183720" lon="-2.7252450">
        <ele>504.8</ele>
        <time>2021-09-30T09:01:29Z</time>
      </trkpt>
      <trkpt lat="42.4184370" lon="-2.7253390">
        <ele>504.8</ele>
        <time>2021-09-30T09:01:31Z</time>
      </trkpt>
      <trkpt lat="42.4184990" lon="-2.7254350">
        <ele>504.8</ele>
        <time>2021-09-30T09:01:33Z</time>
      </trkpt>
      <trkpt lat="42.4184460" lon="-2.7257410">
        <ele>504.6</ele>
        <time>2021-09-30T09:01:38Z</time>
      </trkpt>
      <trkpt lat="42.4184200" lon="-2.7258060">
        <ele>504.6</ele>
        <time>2021-09-30T09:01:39Z</time>
      </trkpt>
      <trkpt lat="42.4183980" lon="-2.7258750">
        <ele>504.6</ele>
        <time>2021-09-30T09:01:40Z</time>
      </trkpt>
      <trkpt lat="42.4183310" lon="-2.7262480">
        <ele>504.4</ele>
        <time>2021-09-30T09:01:45Z</time>
      </trkpt>
      <trkpt lat="42.4182110" lon="-2.7268850">
        <ele>503.8</ele>
        <time>2021-09-30T09:01:53Z</time>
      </trkpt>
      <trkpt lat="42.4181140" lon="-2.7273410">
        <ele>503.4</ele>
        <time>2021-09-30T09:01:58Z</time>
      </trkpt>
      <trkpt lat="42.4180710" lon="-2.7275480">
        <ele>502.4</ele>
        <time>2021-09-30T09:02:00Z</time>
      </trkpt>
      <trkpt lat="42.4180510" lon="-2.7276570">
        <ele>502.0</ele>
        <time>2021-09-30T09:02:01Z</time>
      </trkpt>
      <trkpt lat="42.4180130" lon="-2.7278800">
        <ele>500.8</ele>
        <time>2021-09-30T09:02:03Z</time>
      </trkpt>
      <trkpt lat="42.4179720" lon="-2.7281010">
        <ele>499.2</ele>
        <time>2021-09-30T09:02:05Z</time>
      </trkpt>
      <trkpt lat="42.4179080" lon="-2.7283980">
        <ele>498.0</ele>
        <time>2021-09-30T09:02:08Z</time>
      </trkpt>
      <trkpt lat="42.4178650" lon="-2.7285740">
        <ele>496.4</ele>
        <time>2021-09-30T09:02:10Z</time>
      </trkpt>
      <trkpt lat="42.4177790" lon="-2.7288350">
        <ele>494.8</ele>
        <time>2021-09-30T09:02:13Z</time>
      </trkpt>
      <trkpt lat="42.4177100" lon="-2.7290120">
        <ele>494.0</ele>
        <time>2021-09-30T09:02:15Z</time>
      </trkpt>
      <trkpt lat="42.4176640" lon="-2.7291050">
        <ele>493.8</ele>
        <time>2021-09-30T09:02:16Z</time>
      </trkpt>
      <trkpt lat="42.4175780" lon="-2.7293130">
        <ele>493.6</ele>
        <time>2021-09-30T09:02:18Z</time>
      </trkpt>
      <trkpt lat="42.4175430" lon="-2.7294270">
        <ele>493.0</ele>
        <time>2021-09-30T09:02:19Z</time>
      </trkpt>
      <trkpt lat="42.4175050" lon="-2.7295350">
        <ele>492.4</ele>
        <time>2021-09-30T09:02:20Z</time>
      </trkpt>
      <trkpt lat="42.4174650" lon="-2.7296410">
        <ele>492.0</ele>
        <time>2021-09-30T09:02:21Z</time>
      </trkpt>
      <trkpt lat="42.4173810" lon="-2.7298460">
        <ele>491.2</ele>
        <time>2021-09-30T09:02:23Z</time>
      </trkpt>
      <trkpt lat="42.4173360" lon="-2.7299420">
        <ele>489.4</ele>
        <time>2021-09-30T09:02:24Z</time>
      </trkpt>
      <trkpt lat="42.4172470" lon="-2.7301260">
        <ele>487.8</ele>
        <time>2021-09-30T09:02:26Z</time>
      </trkpt>
      <trkpt lat="42.4171660" lon="-2.7303030">
        <ele>487.0</ele>
        <time>2021-09-30T09:02:28Z</time>
      </trkpt>
      <trkpt lat="42.4170910" lon="-2.7304760">
        <ele>486.8</ele>
        <time>2021-09-30T09:02:30Z</time>
      </trkpt>
      <trkpt lat="42.4170140" lon="-2.7307510">
        <ele>486.4</ele>
        <time>2021-09-30T09:02:33Z</time>
      </trkpt>
      <trkpt lat="42.4169170" lon="-2.7311180">
        <ele>486.2</ele>
        <time>2021-09-30T09:02:37Z</time>
      </trkpt>
      <trkpt lat="42.4170170" lon="-2.7314660">
        <ele>486.2</ele>
        <time>2021-09-30T09:02:41Z</time>
      </trkpt>
      <trkpt lat="42.4172890" lon="-2.7318700">
        <ele>486.2</ele>
        <time>2021-09-30T09:02:47Z</time>
      </trkpt>
      <trkpt lat="42.4173560" lon="-2.7321000">
        <ele>486.2</ele>
        <time>2021-09-30T09:02:50Z</time>
      </trkpt>
      <trkpt lat="42.4173820" lon="-2.7322470">
        <ele>486.4</ele>
        <time>2021-09-30T09:02:52Z</time>
      </trkpt>
      <trkpt lat="42.4174120" lon="-2.7324690">
        <ele>487.2</ele>
        <time>2021-09-30T09:02:55Z</time>
      </trkpt>
      <trkpt lat="42.4174210" lon="-2.7325420">
        <ele>487.6</ele>
        <time>2021-09-30T09:02:56Z</time>
      </trkpt>
      <trkpt lat="42.4174520" lon="-2.7328220">
        <ele>488.6</ele>
        <time>2021-09-30T09:03:00Z</time>
      </trkpt>
      <trkpt lat="42.4174730" lon="-2.7330130">
        <ele>489.0</ele>
        <time>2021-09-30T09:03:03Z</time>
      </trkpt>
      <trkpt lat="42.4174860" lon="-2.7331270">
        <ele>489.2</ele>
        <time>2021-09-30T09:03:05Z</time>
      </trkpt>
      <trkpt lat="42.4175330" lon="-2.7332710">
        <ele>489.6</ele>
        <time>2021-09-30T09:03:08Z</time>
      </trkpt>
      <trkpt lat="42.4176460" lon="-2.7333680">
        <ele>489.6</ele>
        <time>2021-09-30T09:03:11Z</time>
      </trkpt>
      <trkpt lat="42.4177490" lon="-2.7333970">
        <ele>489.6</ele>
        <time>2021-09-30T09:03:13Z</time>
      </trkpt>
      <trkpt lat="42.4179230" lon="-2.7334020">
        <ele>489.6</ele>
        <time>2021-09-30T09:03:16Z</time>
      </trkpt>
      <trkpt lat="42.4181070" lon="-2.7333980">
        <ele>488.6</ele>
        <time>2021-09-30T09:03:19Z</time>
      </trkpt>
      <trkpt lat="42.4182940" lon="-2.7333710">
        <ele>487.2</ele>
        <time>2021-09-30T09:03:22Z</time>
      </trkpt>
      <trkpt lat="42.4183590" lon="-2.7333660">
        <ele>486.8</ele>
        <time>2021-09-30T09:03:23Z</time>
      </trkpt>
      <trkpt lat="42.4184860" lon="-2.7333550">
        <ele>486.0</ele>
        <time>2021-09-30T09:03:25Z</time>
      </trkpt>
      <trkpt lat="42.4189440" lon="-2.7333950">
        <ele>485.2</ele>
        <time>2021-09-30T09:03:32Z</time>
      </trkpt>
      <trkpt lat="42.4190080" lon="-2.7334030">
        <ele>485.0</ele>
        <time>2021-09-30T09:03:33Z</time>
      </trkpt>
      <trkpt lat="42.4193260" lon="-2.7334570">
        <ele>485.0</ele>
        <time>2021-09-30T09:03:38Z</time>
      </trkpt>
      <trkpt lat="42.4195970" lon="-2.7336590">
        <ele>484.8</ele>
        <time>2021-09-30T09:03:43Z</time>
      </trkpt>
      <trkpt lat="42.4198160" lon="-2.7339180">
        <ele>484.8</ele>
        <time>2021-09-30T09:03:48Z</time>
      </trkpt>
      <trkpt lat="42.4198810" lon="-2.7340330">
        <ele>484.8</ele>
        <time>2021-09-30T09:03:50Z</time>
      </trkpt>
      <trkpt lat="42.4200660" lon="-2.7341740">
        <ele>484.6</ele>
        <time>2021-09-30T09:03:55Z</time>
      </trkpt>
      <trkpt lat="42.4201650" lon="-2.7341810">
        <ele>484.6</ele>
        <time>2021-09-30T09:03:58Z</time>
      </trkpt>
      <trkpt lat="42.4201840" lon="-2.7341860">
        <ele>484.6</ele>
        <time>2021-09-30T09:03:59Z</time>
      </trkpt>
      <trkpt lat="42.4201810" lon="-2.7342000">
        <ele>484.6</ele>
        <time>2021-09-30T09:04:00Z</time>
      </trkpt>
      <trkpt lat="42.4200940" lon="-2.7342140">
        <ele>484.8</ele>
        <time>2021-09-30T09:04:03Z</time>
      </trkpt>
      <trkpt lat="42.4200260" lon="-2.7341930">
        <ele>484.8</ele>
        <time>2021-09-30T09:04:05Z</time>
      </trkpt>
      <trkpt lat="42.4199130" lon="-2.7341640">
        <ele>485.4</ele>
        <time>2021-09-30T09:04:08Z</time>
      </trkpt>
      <trkpt lat="42.4198330" lon="-2.7341470">
        <ele>485.4</ele>
        <time>2021-09-30T09:04:10Z</time>
      </trkpt>
      <trkpt lat="42.4195680" lon="-2.7340730">
        <ele>485.6</ele>
        <time>2021-09-30T09:04:19Z</time>
      </trkpt>
      <trkpt lat="42.4194550" lon="-2.7340430">
        <ele>485.8</ele>
        <time>2021-09-30T09:04:26Z</time>
      </trkpt>
      <trkpt lat="42.4193300" lon="-2.7339720">
        <ele>485.6</ele>
        <time>2021-09-30T09:04:30Z</time>
      </trkpt>
      <trkpt lat="42.4192510" lon="-2.7339380">
        <ele>485.6</ele>
        <time>2021-09-30T09:04:32Z</time>
      </trkpt>
      <trkpt lat="42.4191620" lon="-2.7339030">
        <ele>485.4</ele>
        <time>2021-09-30T09:04:34Z</time>
      </trkpt>
      <trkpt lat="42.4190630" lon="-2.7338810">
        <ele>485.0</ele>
        <time>2021-09-30T09:04:36Z</time>
      </trkpt>
      <trkpt lat="42.4189130" lon="-2.7338390">
        <ele>484.6</ele>
        <time>2021-09-30T09:04:39Z</time>
      </trkpt>
      <trkpt lat="42.4185880" lon="-2.7337780">
        <ele>484.4</ele>
        <time>2021-09-30T09:04:46Z</time>
      </trkpt>
      <trkpt lat="42.4183810" lon="-2.7338100">
        <ele>485.2</ele>
        <time>2021-09-30T09:04:51Z</time>
      </trkpt>
      <trkpt lat="42.4182270" lon="-2.7338350">
        <ele>485.4</ele>
        <time>2021-09-30T09:04:56Z</time>
      </trkpt>
      <trkpt lat="42.4182300" lon="-2.7338920">
        <ele>485.8</ele>
        <time>2021-09-30T09:04:59Z</time>
      </trkpt>
      <trkpt lat="42.4182820" lon="-2.7339830">
        <ele>486.0</ele>
        <time>2021-09-30T09:05:03Z</time>
      </trkpt>
      <trkpt lat="42.4183010" lon="-2.7340580">
        <ele>486.0</ele>
        <time>2021-09-30T09:05:05Z</time>
      </trkpt>
      <trkpt lat="42.4183740" lon="-2.7342200">
        <ele>486.2</ele>
        <time>2021-09-30T09:05:09Z</time>
      </trkpt>
      <trkpt lat="42.4184380" lon="-2.7343240">
        <ele>486.2</ele>
        <time>2021-09-30T09:05:12Z</time>
      </trkpt>
      <trkpt lat="42.4184630" lon="-2.7343850">
        <ele>486.0</ele>
        <time>2021-09-30T09:05:14Z</time>
      </trkpt>
      <trkpt lat="42.4184590" lon="-2.7344410">
        <ele>485.8</ele>
        <time>2021-09-30T09:05:15Z</time>
      </trkpt>
      <trkpt lat="42.4182660" lon="-2.7347260">
        <ele>486.0</ele>
        <time>2021-09-30T09:05:21Z</time>
      </trkpt>
      <trkpt lat="42.4181720" lon="-2.7347600">
        <ele>486.0</ele>
        <time>2021-09-30T09:05:24Z</time>
      </trkpt>
      <trkpt lat="42.4180490" lon="-2.7348390">
        <ele>485.8</ele>
        <time>2021-09-30T09:05:28Z</time>
      </trkpt>
      <trkpt lat="42.4179400" lon="-2.7348760">
        <ele>486.0</ele>
        <time>2021-09-30T09:05:31Z</time>
      </trkpt>
      <trkpt lat="42.4178370" lon="-2.7349070">
        <ele>485.8</ele>
        <time>2021-09-30T09:05:34Z</time>
      </trkpt>
      <trkpt lat="42.4176820" lon="-2.7349780">
        <ele>485.8</ele>
        <time>2021-09-30T09:05:38Z</time>
      </trkpt>
      <trkpt lat="42.4174910" lon="-2.7350940">
        <ele>485.8</ele>
        <time>2021-09-30T09:05:43Z</time>
      </trkpt>
      <trkpt lat="42.4172600" lon="-2.7352920">
        <ele>487.0</ele>
        <time>2021-09-30T09:05:49Z</time>
      </trkpt>
      <trkpt lat="42.4171470" lon="-2.7353600">
        <ele>487.2</ele>
        <time>2021-09-30T09:05:52Z</time>
      </trkpt>
      <trkpt lat="42.4171030" lon="-2.7353660">
        <ele>487.4</ele>
        <time>2021-09-30T09:05:53Z</time>
      </trkpt>
      <trkpt lat="42.4169350" lon="-2.7353150">
        <ele>488.0</ele>
        <time>2021-09-30T09:05:57Z</time>
      </trkpt>
      <trkpt lat="42.4168960" lon="-2.7353010">
        <ele>488.4</ele>
        <time>2021-09-30T09:05:58Z</time>
      </trkpt>
      <trkpt lat="42.4167380" lon="-2.7352740">
        <ele>489.0</ele>
        <time>2021-09-30T09:06:02Z</time>
      </trkpt>
      <trkpt lat="42.4162010" lon="-2.7353900">
        <ele>489.0</ele>
        <time>2021-09-30T09:06:16Z</time>
      </trkpt>
      <trkpt lat="42.4159860" lon="-2.7354430">
        <ele>489.6</ele>
        <time>2021-09-30T09:06:22Z</time>
      </trkpt>
      <trkpt lat="42.4159190" lon="-2.7354840">
        <ele>490.2</ele>
        <time>2021-09-30T09:06:25Z</time>
      </trkpt>
      <trkpt lat="42.4158800" lon="-2.7355420">
        <ele>490.4</ele>
        <time>2021-09-30T09:06:28Z</time>
      </trkpt>
      <trkpt lat="42.4158670" lon="-2.7356190">
        <ele>490.8</ele>
        <time>2021-09-30T09:06:30Z</time>
      </trkpt>
      <trkpt lat="42.4158300" lon="-2.7357830">
        <ele>491.4</ele>
        <time>2021-09-30T09:06:34Z</time>
      </trkpt>
      <trkpt lat="42.4157940" lon="-2.7359100">
        <ele>491.8</ele>
        <time>2021-09-30T09:06:37Z</time>
      </trkpt>
      <trkpt lat="42.4157820" lon="-2.7360850">
        <ele>492.8</ele>
        <time>2021-09-30T09:06:41Z</time>
      </trkpt>
      <trkpt lat="42.4157870" lon="-2.7361270">
        <ele>493.0</ele>
        <time>2021-09-30T09:06:42Z</time>
      </trkpt>
      <trkpt lat="42.4157970" lon="-2.7362660">
        <ele>493.8</ele>
        <time>2021-09-30T09:06:45Z</time>
      </trkpt>
      <trkpt lat="42.4157940" lon="-2.7364090">
        <ele>494.2</ele>
        <time>2021-09-30T09:06:48Z</time>
      </trkpt>
      <trkpt lat="42.4158060" lon="-2.7366590">
        <ele>495.2</ele>
        <time>2021-09-30T09:06:53Z</time>
      </trkpt>
      <trkpt lat="42.4158490" lon="-2.7369060">
        <ele>496.4</ele>
        <time>2021-09-30T09:06:58Z</time>
      </trkpt>
      <trkpt lat="42.4158900" lon="-2.7371900">
        <ele>497.4</ele>
        <time>2021-09-30T09:07:04Z</time>
      </trkpt>
      <trkpt lat="42.4159160" lon="-2.7374870">
        <ele>498.4</ele>
        <time>2021-09-30T09:07:10Z</time>
      </trkpt>
      <trkpt lat="42.4159140" lon="-2.7375370">
        <ele>498.6</ele>
        <time>2021-09-30T09:07:11Z</time>
      </trkpt>
      <trkpt lat="42.4158750" lon="-2.7377900">
        <ele>499.8</ele>
        <time>2021-09-30T09:07:16Z</time>
      </trkpt>
      <trkpt lat="42.4158090" lon="-2.7379650">
        <ele>500.8</ele>
        <time>2021-09-30T09:07:20Z</time>
      </trkpt>
      <trkpt lat="42.4157300" lon="-2.7381240">
        <ele>502.0</ele>
        <time>2021-09-30T09:07:24Z</time>
      </trkpt>
      <trkpt lat="42.4156290" lon="-2.7383820">
        <ele>502.8</ele>
        <time>2021-09-30T09:07:30Z</time>
      </trkpt>
      <trkpt lat="42.4156130" lon="-2.7384230">
        <ele>503.4</ele>
        <time>2021-09-30T09:07:31Z</time>
      </trkpt>
      <trkpt lat="42.4155570" lon="-2.7385990">
        <ele>504.6</ele>
        <time>2021-09-30T09:07:35Z</time>
      </trkpt>
      <trkpt lat="42.4155140" lon="-2.7387900">
        <ele>505.8</ele>
        <time>2021-09-30T09:07:39Z</time>
      </trkpt>
      <trkpt lat="42.4154810" lon="-2.7389820">
        <ele>507.0</ele>
        <time>2021-09-30T09:07:43Z</time>
      </trkpt>
      <trkpt lat="42.4154620" lon="-2.7392690">
        <ele>508.0</ele>
        <time>2021-09-30T09:07:49Z</time>
      </trkpt>
      <trkpt lat="42.4154270" lon="-2.7395200">
        <ele>509.2</ele>
        <time>2021-09-30T09:07:55Z</time>
      </trkpt>
      <trkpt lat="42.4153440" lon="-2.7396640">
        <ele>510.2</ele>
        <time>2021-09-30T09:07:59Z</time>
      </trkpt>
      <trkpt lat="42.4152150" lon="-2.7398800">
        <ele>511.4</ele>
        <time>2021-09-30T09:08:06Z</time>
      </trkpt>
      <trkpt lat="42.4151290" lon="-2.7400320">
        <ele>512.6</ele>
        <time>2021-09-30T09:08:11Z</time>
      </trkpt>
      <trkpt lat="42.4150700" lon="-2.7401500">
        <ele>513.6</ele>
        <time>2021-09-30T09:08:15Z</time>
      </trkpt>
      <trkpt lat="42.4150230" lon="-2.7402570">
        <ele>514.6</ele>
        <time>2021-09-30T09:08:19Z</time>
      </trkpt>
      <trkpt lat="42.4149790" lon="-2.7403390">
        <ele>515.8</ele>
        <time>2021-09-30T09:08:22Z</time>
      </trkpt>
      <trkpt lat="42.4149420" lon="-2.7404270">
        <ele>516.8</ele>
        <time>2021-09-30T09:08:25Z</time>
      </trkpt>
      <trkpt lat="42.4148720" lon="-2.7405190">
        <ele>518.0</ele>
        <time>2021-09-30T09:08:29Z</time>
      </trkpt>
      <trkpt lat="42.4148010" lon="-2.7406060">
        <ele>519.2</ele>
        <time>2021-09-30T09:08:33Z</time>
      </trkpt>
      <trkpt lat="42.4147440" lon="-2.7407230">
        <ele>520.2</ele>
        <time>2021-09-30T09:08:37Z</time>
      </trkpt>
      <trkpt lat="42.4146810" lon="-2.7408340">
        <ele>521.2</ele>
        <time>2021-09-30T09:08:41Z</time>
      </trkpt>
      <trkpt lat="42.4146140" lon="-2.7409740">
        <ele>522.4</ele>
        <time>2021-09-30T09:08:46Z</time>
      </trkpt>
      <trkpt lat="42.4145740" lon="-2.7410530">
        <ele>523.4</ele>
        <time>2021-09-30T09:08:49Z</time>
      </trkpt>
      <trkpt lat="42.4145420" lon="-2.7411410">
        <ele>524.4</ele>
        <time>2021-09-30T09:08:52Z</time>
      </trkpt>
      <trkpt lat="42.4145080" lon="-2.7412660">
        <ele>525.6</ele>
        <time>2021-09-30T09:08:56Z</time>
      </trkpt>
      <trkpt lat="42.4144710" lon="-2.7414080">
        <ele>526.8</ele>
        <time>2021-09-30T09:09:01Z</time>
      </trkpt>
      <trkpt lat="42.4144380" lon="-2.7415180">
        <ele>527.8</ele>
        <time>2021-09-30T09:09:05Z</time>
      </trkpt>
      <trkpt lat="42.4144030" lon="-2.7416320">
        <ele>529.0</ele>
        <time>2021-09-30T09:09:09Z</time>
      </trkpt>
      <trkpt lat="42.4143610" lon="-2.7417690">
        <ele>530.6</ele>
        <time>2021-09-30T09:09:14Z</time>
      </trkpt>
      <trkpt lat="42.4143090" lon="-2.7418770">
        <ele>531.6</ele>
        <time>2021-09-30T09:09:18Z</time>
      </trkpt>
      <trkpt lat="42.4142580" lon="-2.7419960">
        <ele>532.6</ele>
        <time>2021-09-30T09:09:22Z</time>
      </trkpt>
      <trkpt lat="42.4141920" lon="-2.7421370">
        <ele>533.8</ele>
        <time>2021-09-30T09:09:27Z</time>
      </trkpt>
      <trkpt lat="42.4141540" lon="-2.7422230">
        <ele>534.8</ele>
        <time>2021-09-30T09:09:30Z</time>
      </trkpt>
      <trkpt lat="42.4141200" lon="-2.7423460">
        <ele>536.0</ele>
        <time>2021-09-30T09:09:34Z</time>
      </trkpt>
      <trkpt lat="42.4140770" lon="-2.7425310">
        <ele>537.2</ele>
        <time>2021-09-30T09:09:40Z</time>
      </trkpt>
      <trkpt lat="42.4140470" lon="-2.7427200">
        <ele>538.2</ele>
        <time>2021-09-30T09:09:46Z</time>
      </trkpt>
      <trkpt lat="42.4140420" lon="-2.7428480">
        <ele>539.2</ele>
        <time>2021-09-30T09:09:50Z</time>
      </trkpt>
      <trkpt lat="42.4140420" lon="-2.7429770">
        <ele>540.6</ele>
        <time>2021-09-30T09:09:54Z</time>
      </trkpt>
      <trkpt lat="42.4140820" lon="-2.7431370">
        <ele>541.6</ele>
        <time>2021-09-30T09:09:59Z</time>
      </trkpt>
      <trkpt lat="42.4141620" lon="-2.7433050">
        <ele>542.8</ele>
        <time>2021-09-30T09:10:04Z</time>
      </trkpt>
      <trkpt lat="42.4142410" lon="-2.7434780">
        <ele>543.8</ele>
        <time>2021-09-30T09:10:09Z</time>
      </trkpt>
      <trkpt lat="42.4142870" lon="-2.7436310">
        <ele>544.8</ele>
        <time>2021-09-30T09:10:13Z</time>
      </trkpt>
      <trkpt lat="42.4143150" lon="-2.7437920">
        <ele>545.8</ele>
        <time>2021-09-30T09:10:17Z</time>
      </trkpt>
      <trkpt lat="42.4143280" lon="-2.7440140">
        <ele>546.4</ele>
        <time>2021-09-30T09:10:22Z</time>
      </trkpt>
      <trkpt lat="42.4143260" lon="-2.7443740">
        <ele>546.6</ele>
        <time>2021-09-30T09:10:30Z</time>
      </trkpt>
      <trkpt lat="42.4143360" lon="-2.7446840">
        <ele>546.8</ele>
        <time>2021-09-30T09:10:37Z</time>
      </trkpt>
      <trkpt lat="42.4143800" lon="-2.7449360">
        <ele>548.0</ele>
        <time>2021-09-30T09:10:43Z</time>
      </trkpt>
      <trkpt lat="42.4144420" lon="-2.7451760">
        <ele>549.4</ele>
        <time>2021-09-30T09:10:49Z</time>
      </trkpt>
      <trkpt lat="42.4144770" lon="-2.7454140">
        <ele>550.4</ele>
        <time>2021-09-30T09:10:55Z</time>
      </trkpt>
      <trkpt lat="42.4144630" lon="-2.7456810">
        <ele>551.2</ele>
        <time>2021-09-30T09:11:01Z</time>
      </trkpt>
      <trkpt lat="42.4145250" lon="-2.7458800">
        <ele>551.4</ele>
        <time>2021-09-30T09:11:04Z</time>
      </trkpt>
      <trkpt lat="42.4145560" lon="-2.7459510">
        <ele>551.4</ele>
        <time>2021-09-30T09:11:05Z</time>
      </trkpt>
      <trkpt lat="42.4146190" lon="-2.7461040">
        <ele>551.4</ele>
        <time>2021-09-30T09:11:07Z</time>
      </trkpt>
      <trkpt lat="42.4147200" lon="-2.7463760">
        <ele>550.2</ele>
        <time>2021-09-30T09:11:10Z</time>
      </trkpt>
      <trkpt lat="42.4147530" lon="-2.7464830">
        <ele>549.6</ele>
        <time>2021-09-30T09:11:11Z</time>
      </trkpt>
      <trkpt lat="42.4147790" lon="-2.7465980">
        <ele>548.8</ele>
        <time>2021-09-30T09:11:12Z</time>
      </trkpt>
      <trkpt lat="42.4148230" lon="-2.7468360">
        <ele>547.4</ele>
        <time>2021-09-30T09:11:14Z</time>
      </trkpt>
      <trkpt lat="42.4148810" lon="-2.7470690">
        <ele>545.8</ele>
        <time>2021-09-30T09:11:16Z</time>
      </trkpt>
      <trkpt lat="42.4149450" lon="-2.7472910">
        <ele>543.8</ele>
        <time>2021-09-30T09:11:18Z</time>
      </trkpt>
      <trkpt lat="42.4149770" lon="-2.7473970">
        <ele>542.6</ele>
        <time>2021-09-30T09:11:19Z</time>
      </trkpt>
      <trkpt lat="42.4150090" lon="-2.7474990">
        <ele>541.4</ele>
        <time>2021-09-30T09:11:20Z</time>
      </trkpt>
      <trkpt lat="42.4150440" lon="-2.7475950">
        <ele>540.6</ele>
        <time>2021-09-30T09:11:21Z</time>
      </trkpt>
      <trkpt lat="42.4151220" lon="-2.7477670">
        <ele>540.0</ele>
        <time>2021-09-30T09:11:23Z</time>
      </trkpt>
      <trkpt lat="42.4152850" lon="-2.7481340">
        <ele>539.8</ele>
        <time>2021-09-30T09:11:28Z</time>
      </trkpt>
      <trkpt lat="42.4153020" lon="-2.7482080">
        <ele>539.8</ele>
        <time>2021-09-30T09:11:29Z</time>
      </trkpt>
      <trkpt lat="42.4153220" lon="-2.7483560">
        <ele>539.8</ele>
        <time>2021-09-30T09:11:31Z</time>
      </trkpt>
      <trkpt lat="42.4153420" lon="-2.7485670">
        <ele>540.0</ele>
        <time>2021-09-30T09:11:34Z</time>
      </trkpt>
      <trkpt lat="42.4153600" lon="-2.7488320">
        <ele>541.0</ele>
        <time>2021-09-30T09:11:38Z</time>
      </trkpt>
      <trkpt lat="42.4153640" lon="-2.7488980">
        <ele>541.2</ele>
        <time>2021-09-30T09:11:39Z</time>
      </trkpt>
      <trkpt lat="42.4153990" lon="-2.7493570">
        <ele>541.8</ele>
        <time>2021-09-30T09:11:45Z</time>
      </trkpt>
      <trkpt lat="42.4154120" lon="-2.7494460">
        <ele>541.8</ele>
        <time>2021-09-30T09:11:46Z</time>
      </trkpt>
      <trkpt lat="42.4154440" lon="-2.7496270">
        <ele>541.8</ele>
        <time>2021-09-30T09:11:48Z</time>
      </trkpt>
      <trkpt lat="42.4154950" lon="-2.7499150">
        <ele>541.4</ele>
        <time>2021-09-30T09:11:51Z</time>
      </trkpt>
      <trkpt lat="42.4155550" lon="-2.7502390">
        <ele>539.8</ele>
        <time>2021-09-30T09:11:54Z</time>
      </trkpt>
      <trkpt lat="42.4156370" lon="-2.7505890">
        <ele>538.8</ele>
        <time>2021-09-30T09:11:57Z</time>
      </trkpt>
      <trkpt lat="42.4156780" lon="-2.7507020">
        <ele>538.4</ele>
        <time>2021-09-30T09:11:58Z</time>
      </trkpt>
      <trkpt lat="42.4157870" lon="-2.7509040">
        <ele>537.2</ele>
        <time>2021-09-30T09:12:00Z</time>
      </trkpt>
      <trkpt lat="42.4159170" lon="-2.7510920">
        <ele>535.2</ele>
        <time>2021-09-30T09:12:02Z</time>
      </trkpt>
      <trkpt lat="42.4159850" lon="-2.7511840">
        <ele>534.2</ele>
        <time>2021-09-30T09:12:03Z</time>
      </trkpt>
      <trkpt lat="42.4160520" lon="-2.7512680">
        <ele>533.2</ele>
        <time>2021-09-30T09:12:04Z</time>
      </trkpt>
      <trkpt lat="42.4161170" lon="-2.7513450">
        <ele>530.8</ele>
        <time>2021-09-30T09:12:05Z</time>
      </trkpt>
      <trkpt lat="42.4161810" lon="-2.7514230">
        <ele>529.6</ele>
        <time>2021-09-30T09:12:06Z</time>
      </trkpt>
      <trkpt lat="42.4162960" lon="-2.7515930">
        <ele>528.2</ele>
        <time>2021-09-30T09:12:08Z</time>
      </trkpt>
      <trkpt lat="42.4163650" lon="-2.7517930">
        <ele>526.6</ele>
        <time>2021-09-30T09:12:10Z</time>
      </trkpt>
      <trkpt lat="42.4163720" lon="-2.7521250">
        <ele>525.6</ele>
        <time>2021-09-30T09:12:13Z</time>
      </trkpt>
      <trkpt lat="42.4163590" lon="-2.7522370">
        <ele>525.2</ele>
        <time>2021-09-30T09:12:14Z</time>
      </trkpt>
      <trkpt lat="42.4163420" lon="-2.7524680">
        <ele>524.2</ele>
        <time>2021-09-30T09:12:16Z</time>
      </trkpt>
      <trkpt lat="42.4163350" lon="-2.7527150">
        <ele>523.2</ele>
        <time>2021-09-30T09:12:18Z</time>
      </trkpt>
      <trkpt lat="42.4163300" lon="-2.7529820">
        <ele>522.0</ele>
        <time>2021-09-30T09:12:20Z</time>
      </trkpt>
      <trkpt lat="42.4163250" lon="-2.7532570">
        <ele>520.8</ele>
        <time>2021-09-30T09:12:22Z</time>
      </trkpt>
      <trkpt lat="42.4163050" lon="-2.7535260">
        <ele>519.4</ele>
        <time>2021-09-30T09:12:24Z</time>
      </trkpt>
      <trkpt lat="42.4162570" lon="-2.7539060">
        <ele>517.6</ele>
        <time>2021-09-30T09:12:27Z</time>
      </trkpt>
      <trkpt lat="42.4162160" lon="-2.7541370">
        <ele>515.4</ele>
        <time>2021-09-30T09:12:29Z</time>
      </trkpt>
      <trkpt lat="42.4161830" lon="-2.7543510">
        <ele>514.4</ele>
        <time>2021-09-30T09:12:31Z</time>
      </trkpt>
      <trkpt lat="42.4161470" lon="-2.7546520">
        <ele>514.0</ele>
        <time>2021-09-30T09:12:34Z</time>
      </trkpt>
      <trkpt lat="42.4161470" lon="-2.7547510">
        <ele>513.8</ele>
        <time>2021-09-30T09:12:35Z</time>
      </trkpt>
      <trkpt lat="42.4161560" lon="-2.7548490">
        <ele>513.6</ele>
        <time>2021-09-30T09:12:36Z</time>
      </trkpt>
      <trkpt lat="42.4161830" lon="-2.7550460">
        <ele>513.6</ele>
        <time>2021-09-30T09:12:38Z</time>
      </trkpt>
      <trkpt lat="42.4161950" lon="-2.7552470">
        <ele>513.6</ele>
        <time>2021-09-30T09:12:40Z</time>
      </trkpt>
      <trkpt lat="42.4161960" lon="-2.7553470">
        <ele>513.6</ele>
        <time>2021-09-30T09:12:41Z</time>
      </trkpt>
      <trkpt lat="42.4161890" lon="-2.7556460">
        <ele>513.8</ele>
        <time>2021-09-30T09:12:44Z</time>
      </trkpt>
      <trkpt lat="42.4161720" lon="-2.7558450">
        <ele>514.0</ele>
        <time>2021-09-30T09:12:46Z</time>
      </trkpt>
      <trkpt lat="42.4161430" lon="-2.7561620">
        <ele>514.0</ele>
        <time>2021-09-30T09:12:49Z</time>
      </trkpt>
      <trkpt lat="42.4161230" lon="-2.7563830">
        <ele>514.2</ele>
        <time>2021-09-30T09:12:51Z</time>
      </trkpt>
      <trkpt lat="42.4160910" lon="-2.7567200">
        <ele>514.2</ele>
        <time>2021-09-30T09:12:54Z</time>
      </trkpt>
      <trkpt lat="42.4160740" lon="-2.7569380">
        <ele>514.2</ele>
        <time>2021-09-30T09:12:56Z</time>
      </trkpt>
      <trkpt lat="42.4160500" lon="-2.7572450">
        <ele>514.4</ele>
        <time>2021-09-30T09:12:59Z</time>
      </trkpt>
      <trkpt lat="42.4160280" lon="-2.7576200">
        <ele>514.6</ele>
        <time>2021-09-30T09:13:03Z</time>
      </trkpt>
      <trkpt lat="42.4160210" lon="-2.7579630">
        <ele>515.8</ele>
        <time>2021-09-30T09:13:07Z</time>
      </trkpt>
      <trkpt lat="42.4160140" lon="-2.7581240">
        <ele>517.2</ele>
        <time>2021-09-30T09:13:09Z</time>
      </trkpt>
      <trkpt lat="42.4160090" lon="-2.7582770">
        <ele>518.2</ele>
        <time>2021-09-30T09:13:11Z</time>
      </trkpt>
      <trkpt lat="42.4160030" lon="-2.7584220">
        <ele>519.4</ele>
        <time>2021-09-30T09:13:13Z</time>
      </trkpt>
      <trkpt lat="42.4159960" lon="-2.7586220">
        <ele>520.6</ele>
        <time>2021-09-30T09:13:16Z</time>
      </trkpt>
      <trkpt lat="42.4159890" lon="-2.7587460">
        <ele>521.6</ele>
        <time>2021-09-30T09:13:18Z</time>
      </trkpt>
      <trkpt lat="42.4159830" lon="-2.7589130">
        <ele>522.8</ele>
        <time>2021-09-30T09:13:21Z</time>
      </trkpt>
      <trkpt lat="42.4159800" lon="-2.7590120">
        <ele>523.8</ele>
        <time>2021-09-30T09:13:23Z</time>
      </trkpt>
      <trkpt lat="42.4159760" lon="-2.7591510">
        <ele>525.0</ele>
        <time>2021-09-30T09:13:26Z</time>
      </trkpt>
      <trkpt lat="42.4159840" lon="-2.7592800">
        <ele>526.2</ele>
        <time>2021-09-30T09:13:29Z</time>
      </trkpt>
      <trkpt lat="42.4160230" lon="-2.7593460">
        <ele>527.4</ele>
        <time>2021-09-30T09:13:31Z</time>
      </trkpt>
      <trkpt lat="42.4161140" lon="-2.7594720">
        <ele>528.4</ele>
        <time>2021-09-30T09:13:35Z</time>
      </trkpt>
      <trkpt lat="42.4161900" lon="-2.7596790">
        <ele>529.6</ele>
        <time>2021-09-30T09:13:40Z</time>
      </trkpt>
      <trkpt lat="42.4162890" lon="-2.7599140">
        <ele>530.8</ele>
        <time>2021-09-30T09:13:46Z</time>
      </trkpt>
      <trkpt lat="42.4163640" lon="-2.7600690">
        <ele>531.8</ele>
        <time>2021-09-30T09:13:50Z</time>
      </trkpt>
      <trkpt lat="42.4164290" lon="-2.7603010">
        <ele>533.0</ele>
        <time>2021-09-30T09:13:55Z</time>
      </trkpt>
      <trkpt lat="42.4164730" lon="-2.7605510">
        <ele>534.2</ele>
        <time>2021-09-30T09:14:00Z</time>
      </trkpt>
      <trkpt lat="42.4165460" lon="-2.7609620">
        <ele>535.2</ele>
        <time>2021-09-30T09:14:08Z</time>
      </trkpt>
      <trkpt lat="42.4166140" lon="-2.7612060">
        <ele>536.4</ele>
        <time>2021-09-30T09:14:13Z</time>
      </trkpt>
      <trkpt lat="42.4166780" lon="-2.7614570">
        <ele>537.6</ele>
        <time>2021-09-30T09:14:18Z</time>
      </trkpt>
      <trkpt lat="42.4167380" lon="-2.7617880">
        <ele>538.6</ele>
        <time>2021-09-30T09:14:24Z</time>
      </trkpt>
      <trkpt lat="42.4167630" lon="-2.7619050">
        <ele>538.8</ele>
        <time>2021-09-30T09:14:26Z</time>
      </trkpt>
      <trkpt lat="42.4168860" lon="-2.7624600">
        <ele>539.2</ele>
        <time>2021-09-30T09:14:35Z</time>
      </trkpt>
      <trkpt lat="42.4169010" lon="-2.7625240">
        <ele>539.2</ele>
        <time>2021-09-30T09:14:36Z</time>
      </trkpt>
      <trkpt lat="42.4170480" lon="-2.7632550">
        <ele>539.6</ele>
        <time>2021-09-30T09:14:47Z</time>
      </trkpt>
      <trkpt lat="42.4170830" lon="-2.7634630">
        <ele>540.0</ele>
        <time>2021-09-30T09:14:50Z</time>
      </trkpt>
      <trkpt lat="42.4171860" lon="-2.7640800">
        <ele>541.0</ele>
        <time>2021-09-30T09:14:59Z</time>
      </trkpt>
      <trkpt lat="42.4173540" lon="-2.7648410">
        <ele>541.8</ele>
        <time>2021-09-30T09:15:10Z</time>
      </trkpt>
      <trkpt lat="42.4174020" lon="-2.7651330">
        <ele>542.0</ele>
        <time>2021-09-30T09:15:14Z</time>
      </trkpt>
      <trkpt lat="42.4174370" lon="-2.7653730">
        <ele>542.2</ele>
        <time>2021-09-30T09:15:17Z</time>
      </trkpt>
      <trkpt lat="42.4175050" lon="-2.7659570">
        <ele>542.8</ele>
        <time>2021-09-30T09:15:25Z</time>
      </trkpt>
      <trkpt lat="42.4175200" lon="-2.7660990">
        <ele>543.2</ele>
        <time>2021-09-30T09:15:27Z</time>
      </trkpt>
      <trkpt lat="42.4175320" lon="-2.7663800">
        <ele>544.4</ele>
        <time>2021-09-30T09:15:31Z</time>
      </trkpt>
      <trkpt lat="42.4175540" lon="-2.7666490">
        <ele>545.4</ele>
        <time>2021-09-30T09:15:35Z</time>
      </trkpt>
      <trkpt lat="42.4176110" lon="-2.7669720">
        <ele>546.4</ele>
        <time>2021-09-30T09:15:40Z</time>
      </trkpt>
      <trkpt lat="42.4176840" lon="-2.7674330">
        <ele>547.8</ele>
        <time>2021-09-30T09:15:47Z</time>
      </trkpt>
      <trkpt lat="42.4177400" lon="-2.7677510">
        <ele>549.0</ele>
        <time>2021-09-30T09:15:52Z</time>
      </trkpt>
      <trkpt lat="42.4177860" lon="-2.7681640">
        <ele>550.0</ele>
        <time>2021-09-30T09:15:58Z</time>
      </trkpt>
      <trkpt lat="42.4178020" lon="-2.7683780">
        <ele>550.2</ele>
        <time>2021-09-30T09:16:01Z</time>
      </trkpt>
      <trkpt lat="42.4178200" lon="-2.7686630">
        <ele>550.4</ele>
        <time>2021-09-30T09:16:05Z</time>
      </trkpt>
      <trkpt lat="42.4178440" lon="-2.7690980">
        <ele>550.2</ele>
        <time>2021-09-30T09:16:11Z</time>
      </trkpt>
      <trkpt lat="42.4178600" lon="-2.7694870">
        <ele>549.8</ele>
        <time>2021-09-30T09:16:16Z</time>
      </trkpt>
      <trkpt lat="42.4178750" lon="-2.7696470">
        <ele>549.8</ele>
        <time>2021-09-30T09:16:18Z</time>
      </trkpt>
      <trkpt lat="42.4178920" lon="-2.7698070">
        <ele>549.6</ele>
        <time>2021-09-30T09:16:20Z</time>
      </trkpt>
      <trkpt lat="42.4179220" lon="-2.7700400">
        <ele>549.6</ele>
        <time>2021-09-30T09:16:23Z</time>
      </trkpt>
      <trkpt lat="42.4179430" lon="-2.7701940">
        <ele>549.4</ele>
        <time>2021-09-30T09:16:25Z</time>
      </trkpt>
      <trkpt lat="42.4179860" lon="-2.7704320">
        <ele>549.2</ele>
        <time>2021-09-30T09:16:28Z</time>
      </trkpt>
      <trkpt lat="42.4180240" lon="-2.7705990">
        <ele>549.2</ele>
        <time>2021-09-30T09:16:30Z</time>
      </trkpt>
      <trkpt lat="42.4180420" lon="-2.7706860">
        <ele>549.0</ele>
        <time>2021-09-30T09:16:31Z</time>
      </trkpt>
      <trkpt lat="42.4181080" lon="-2.7710540">
        <ele>548.6</ele>
        <time>2021-09-30T09:16:35Z</time>
      </trkpt>
      <trkpt lat="42.4181730" lon="-2.7713410">
        <ele>548.0</ele>
        <time>2021-09-30T09:16:38Z</time>
      </trkpt>
      <trkpt lat="42.4181970" lon="-2.7714350">
        <ele>546.8</ele>
        <time>2021-09-30T09:16:39Z</time>
      </trkpt>
      <trkpt lat="42.4182460" lon="-2.7716200">
        <ele>546.0</ele>
        <time>2021-09-30T09:16:41Z</time>
      </trkpt>
      <trkpt lat="42.4182720" lon="-2.7717110">
        <ele>545.6</ele>
        <time>2021-09-30T09:16:42Z</time>
      </trkpt>
      <trkpt lat="42.4184380" lon="-2.7722550">
        <ele>544.6</ele>
        <time>2021-09-30T09:16:48Z</time>
      </trkpt>
      <trkpt lat="42.4185550" lon="-2.7727170">
        <ele>544.0</ele>
        <time>2021-09-30T09:16:53Z</time>
      </trkpt>
      <trkpt lat="42.4185760" lon="-2.7728100">
        <ele>543.4</ele>
        <time>2021-09-30T09:16:54Z</time>
      </trkpt>
      <trkpt lat="42.4187260" lon="-2.7734560">
        <ele>542.4</ele>
        <time>2021-09-30T09:17:01Z</time>
      </trkpt>
      <trkpt lat="42.4187970" lon="-2.7737180">
        <ele>542.4</ele>
        <time>2021-09-30T09:17:04Z</time>
      </trkpt>
      <trkpt lat="42.4188210" lon="-2.7738050">
        <ele>542.4</ele>
        <time>2021-09-30T09:17:05Z</time>
      </trkpt>
      <trkpt lat="42.4189650" lon="-2.7743930">
        <ele>542.4</ele>
        <time>2021-09-30T09:17:12Z</time>
      </trkpt>
      <trkpt lat="42.4190740" lon="-2.7748000">
        <ele>542.4</ele>
        <time>2021-09-30T09:17:17Z</time>
      </trkpt>
      <trkpt lat="42.4191970" lon="-2.7752060">
        <ele>542.6</ele>
        <time>2021-09-30T09:17:22Z</time>
      </trkpt>
      <trkpt lat="42.4192930" lon="-2.7755290">
        <ele>542.6</ele>
        <time>2021-09-30T09:17:26Z</time>
      </trkpt>
      <trkpt lat="42.4193730" lon="-2.7758500">
        <ele>543.0</ele>
        <time>2021-09-30T09:17:30Z</time>
      </trkpt>
      <trkpt lat="42.4194040" lon="-2.7760140">
        <ele>543.0</ele>
        <time>2021-09-30T09:17:32Z</time>
      </trkpt>
      <trkpt lat="42.4194350" lon="-2.7761780">
        <ele>543.6</ele>
        <time>2021-09-30T09:17:34Z</time>
      </trkpt>
      <trkpt lat="42.4194850" lon="-2.7764210">
        <ele>544.2</ele>
        <time>2021-09-30T09:17:37Z</time>
      </trkpt>
      <trkpt lat="42.4195160" lon="-2.7765810">
        <ele>544.6</ele>
        <time>2021-09-30T09:17:39Z</time>
      </trkpt>
      <trkpt lat="42.4195590" lon="-2.7768150">
        <ele>545.0</ele>
        <time>2021-09-30T09:17:42Z</time>
      </trkpt>
      <trkpt lat="42.4195970" lon="-2.7770430">
        <ele>545.6</ele>
        <time>2021-09-30T09:17:45Z</time>
      </trkpt>
      <trkpt lat="42.4196450" lon="-2.7772700">
        <ele>547.2</ele>
        <time>2021-09-30T09:17:48Z</time>
      </trkpt>
      <trkpt lat="42.4197160" lon="-2.7776460">
        <ele>547.8</ele>
        <time>2021-09-30T09:17:53Z</time>
      </trkpt>
      <trkpt lat="42.4198350" lon="-2.7782320">
        <ele>548.2</ele>
        <time>2021-09-30T09:18:01Z</time>
      </trkpt>
      <trkpt lat="42.4198890" lon="-2.7788880">
        <ele>548.4</ele>
        <time>2021-09-30T09:18:09Z</time>
      </trkpt>
      <trkpt lat="42.4199530" lon="-2.7795450">
        <ele>548.0</ele>
        <time>2021-09-30T09:18:17Z</time>
      </trkpt>
      <trkpt lat="42.4201070" lon="-2.7802780">
        <ele>547.2</ele>
        <time>2021-09-30T09:18:26Z</time>
      </trkpt>
      <trkpt lat="42.4202120" lon="-2.7807680">
        <ele>547.2</ele>
        <time>2021-09-30T09:18:32Z</time>
      </trkpt>
      <trkpt lat="42.4202290" lon="-2.7810220">
        <ele>547.2</ele>
        <time>2021-09-30T09:18:35Z</time>
      </trkpt>
      <trkpt lat="42.4202330" lon="-2.7813550">
        <ele>547.2</ele>
        <time>2021-09-30T09:18:39Z</time>
      </trkpt>
      <trkpt lat="42.4202220" lon="-2.7816070">
        <ele>547.0</ele>
        <time>2021-09-30T09:18:42Z</time>
      </trkpt>
      <trkpt lat="42.4202210" lon="-2.7819720">
        <ele>546.8</ele>
        <time>2021-09-30T09:18:46Z</time>
      </trkpt>
      <trkpt lat="42.4202250" lon="-2.7823600">
        <ele>546.4</ele>
        <time>2021-09-30T09:18:50Z</time>
      </trkpt>
      <trkpt lat="42.4202310" lon="-2.7826570">
        <ele>545.8</ele>
        <time>2021-09-30T09:18:53Z</time>
      </trkpt>
      <trkpt lat="42.4202370" lon="-2.7829700">
        <ele>544.6</ele>
        <time>2021-09-30T09:18:56Z</time>
      </trkpt>
      <trkpt lat="42.4202630" lon="-2.7832970">
        <ele>543.4</ele>
        <time>2021-09-30T09:18:59Z</time>
      </trkpt>
      <trkpt lat="42.4202960" lon="-2.7835160">
        <ele>542.0</ele>
        <time>2021-09-30T09:19:01Z</time>
      </trkpt>
      <trkpt lat="42.4203560" lon="-2.7839610">
        <ele>541.0</ele>
        <time>2021-09-30T09:19:05Z</time>
      </trkpt>
      <trkpt lat="42.4203800" lon="-2.7841900">
        <ele>540.0</ele>
        <time>2021-09-30T09:19:07Z</time>
      </trkpt>
      <trkpt lat="42.4204100" lon="-2.7844200">
        <ele>538.8</ele>
        <time>2021-09-30T09:19:09Z</time>
      </trkpt>
      <trkpt lat="42.4204420" lon="-2.7846540">
        <ele>538.0</ele>
        <time>2021-09-30T09:19:11Z</time>
      </trkpt>
      <trkpt lat="42.4204580" lon="-2.7847710">
        <ele>537.8</ele>
        <time>2021-09-30T09:19:12Z</time>
      </trkpt>
      <trkpt lat="42.4204890" lon="-2.7850070">
        <ele>537.2</ele>
        <time>2021-09-30T09:19:14Z</time>
      </trkpt>
      <trkpt lat="42.4205020" lon="-2.7851240">
        <ele>536.4</ele>
        <time>2021-09-30T09:19:15Z</time>
      </trkpt>
      <trkpt lat="42.4205380" lon="-2.7854710">
        <ele>535.8</ele>
        <time>2021-09-30T09:19:18Z</time>
      </trkpt>
      <trkpt lat="42.4205660" lon="-2.7858070">
        <ele>535.6</ele>
        <time>2021-09-30T09:19:21Z</time>
      </trkpt>
      <trkpt lat="42.4205920" lon="-2.7861280">
        <ele>535.6</ele>
        <time>2021-09-30T09:19:24Z</time>
      </trkpt>
      <trkpt lat="42.4206180" lon="-2.7864390">
        <ele>536.0</ele>
        <time>2021-09-30T09:19:27Z</time>
      </trkpt>
      <trkpt lat="42.4206450" lon="-2.7868450">
        <ele>537.6</ele>
        <time>2021-09-30T09:19:31Z</time>
      </trkpt>
      <trkpt lat="42.4206570" lon="-2.7870500">
        <ele>538.6</ele>
        <time>2021-09-30T09:19:33Z</time>
      </trkpt>
      <trkpt lat="42.4206930" lon="-2.7875560">
        <ele>539.8</ele>
        <time>2021-09-30T09:19:38Z</time>
      </trkpt>
      <trkpt lat="42.4207120" lon="-2.7878550">
        <ele>540.4</ele>
        <time>2021-09-30T09:19:41Z</time>
      </trkpt>
      <trkpt lat="42.4207210" lon="-2.7880530">
        <ele>541.2</ele>
        <time>2021-09-30T09:19:43Z</time>
      </trkpt>
      <trkpt lat="42.4207330" lon="-2.7884360">
        <ele>542.2</ele>
        <time>2021-09-30T09:19:47Z</time>
      </trkpt>
      <trkpt lat="42.4207560" lon="-2.7889420">
        <ele>543.2</ele>
        <time>2021-09-30T09:19:53Z</time>
      </trkpt>
      <trkpt lat="42.4207970" lon="-2.7891680">
        <ele>544.2</ele>
        <time>2021-09-30T09:19:56Z</time>
      </trkpt>
      <trkpt lat="42.4208420" lon="-2.7893080">
        <ele>545.4</ele>
        <time>2021-09-30T09:19:58Z</time>
      </trkpt>
      <trkpt lat="42.4209660" lon="-2.7896520">
        <ele>546.6</ele>
        <time>2021-09-30T09:20:03Z</time>
      </trkpt>
      <trkpt lat="42.4211090" lon="-2.7899990">
        <ele>547.2</ele>
        <time>2021-09-30T09:20:08Z</time>
      </trkpt>
      <trkpt lat="42.4212300" lon="-2.7902680">
        <ele>547.2</ele>
        <time>2021-09-30T09:20:12Z</time>
      </trkpt>
      <trkpt lat="42.4213540" lon="-2.7905440">
        <ele>547.0</ele>
        <time>2021-09-30T09:20:16Z</time>
      </trkpt>
      <trkpt lat="42.4214770" lon="-2.7908370">
        <ele>546.8</ele>
        <time>2021-09-30T09:20:20Z</time>
      </trkpt>
      <trkpt lat="42.4215570" lon="-2.7910700">
        <ele>546.2</ele>
        <time>2021-09-30T09:20:23Z</time>
      </trkpt>
      <trkpt lat="42.4217470" lon="-2.7916330">
        <ele>545.6</ele>
        <time>2021-09-30T09:20:30Z</time>
      </trkpt>
      <trkpt lat="42.4218570" lon="-2.7919560">
        <ele>545.4</ele>
        <time>2021-09-30T09:20:34Z</time>
      </trkpt>
      <trkpt lat="42.4219910" lon="-2.7923630">
        <ele>544.4</ele>
        <time>2021-09-30T09:20:39Z</time>
      </trkpt>
      <trkpt lat="42.4222460" lon="-2.7930670">
        <ele>544.2</ele>
        <time>2021-09-30T09:20:48Z</time>
      </trkpt>
      <trkpt lat="42.4223980" lon="-2.7936020">
        <ele>544.4</ele>
        <time>2021-09-30T09:20:55Z</time>
      </trkpt>
      <trkpt lat="42.4224720" lon="-2.7939930">
        <ele>544.6</ele>
        <time>2021-09-30T09:21:00Z</time>
      </trkpt>
      <trkpt lat="42.4225710" lon="-2.7945570">
        <ele>544.6</ele>
        <time>2021-09-30T09:21:07Z</time>
      </trkpt>
      <trkpt lat="42.4226990" lon="-2.7952670">
        <ele>544.6</ele>
        <time>2021-09-30T09:21:16Z</time>
      </trkpt>
      <trkpt lat="42.4227560" lon="-2.7955800">
        <ele>545.0</ele>
        <time>2021-09-30T09:21:20Z</time>
      </trkpt>
      <trkpt lat="42.4228100" lon="-2.7959120">
        <ele>545.2</ele>
        <time>2021-09-30T09:21:24Z</time>
      </trkpt>
      <trkpt lat="42.4228540" lon="-2.7961730">
        <ele>545.4</ele>
        <time>2021-09-30T09:21:27Z</time>
      </trkpt>
      <trkpt lat="42.4229070" lon="-2.7965210">
        <ele>546.0</ele>
        <time>2021-09-30T09:21:31Z</time>
      </trkpt>
      <trkpt lat="42.4229500" lon="-2.7967670">
        <ele>546.4</ele>
        <time>2021-09-30T09:21:34Z</time>
      </trkpt>
      <trkpt lat="42.4229620" lon="-2.7968430">
        <ele>546.6</ele>
        <time>2021-09-30T09:21:35Z</time>
      </trkpt>
      <trkpt lat="42.4230160" lon="-2.7971920">
        <ele>547.4</ele>
        <time>2021-09-30T09:21:40Z</time>
      </trkpt>
      <trkpt lat="42.4230360" lon="-2.7973300">
        <ele>547.8</ele>
        <time>2021-09-30T09:21:42Z</time>
      </trkpt>
      <trkpt lat="42.4230690" lon="-2.7975370">
        <ele>549.0</ele>
        <time>2021-09-30T09:21:45Z</time>
      </trkpt>
      <trkpt lat="42.4230890" lon="-2.7976750">
        <ele>550.2</ele>
        <time>2021-09-30T09:21:47Z</time>
      </trkpt>
      <trkpt lat="42.4231140" lon="-2.7978110">
        <ele>551.2</ele>
        <time>2021-09-30T09:21:49Z</time>
      </trkpt>
      <trkpt lat="42.4232770" lon="-2.7985250">
        <ele>551.8</ele>
        <time>2021-09-30T09:22:00Z</time>
      </trkpt>
      <trkpt lat="42.4233560" lon="-2.7987540">
        <ele>552.4</ele>
        <time>2021-09-30T09:22:04Z</time>
      </trkpt>
      <trkpt lat="42.4234530" lon="-2.7989920">
        <ele>553.2</ele>
        <time>2021-09-30T09:22:08Z</time>
      </trkpt>
      <trkpt lat="42.4235510" lon="-2.7991920">
        <ele>553.2</ele>
        <time>2021-09-30T09:22:11Z</time>
      </trkpt>
      <trkpt lat="42.4236440" lon="-2.7994040">
        <ele>553.2</ele>
        <time>2021-09-30T09:22:14Z</time>
      </trkpt>
      <trkpt lat="42.4237030" lon="-2.7995480">
        <ele>553.2</ele>
        <time>2021-09-30T09:22:16Z</time>
      </trkpt>
      <trkpt lat="42.4237310" lon="-2.7996210">
        <ele>552.8</ele>
        <time>2021-09-30T09:22:17Z</time>
      </trkpt>
      <trkpt lat="42.4237860" lon="-2.7997660">
        <ele>552.0</ele>
        <time>2021-09-30T09:22:19Z</time>
      </trkpt>
      <trkpt lat="42.4238420" lon="-2.7999130">
        <ele>551.2</ele>
        <time>2021-09-30T09:22:21Z</time>
      </trkpt>
      <trkpt lat="42.4239170" lon="-2.8001910">
        <ele>550.6</ele>
        <time>2021-09-30T09:22:25Z</time>
      </trkpt>
      <trkpt lat="42.4240390" lon="-2.8005190">
        <ele>550.2</ele>
        <time>2021-09-30T09:22:30Z</time>
      </trkpt>
      <trkpt lat="42.4241030" lon="-2.8006610">
        <ele>550.2</ele>
        <time>2021-09-30T09:22:32Z</time>
      </trkpt>
      <trkpt lat="42.4243350" lon="-2.8011710">
        <ele>549.4</ele>
        <time>2021-09-30T09:22:39Z</time>
      </trkpt>
      <trkpt lat="42.4243760" lon="-2.8012570">
        <ele>549.0</ele>
        <time>2021-09-30T09:22:40Z</time>
      </trkpt>
      <trkpt lat="42.4244860" lon="-2.8015400">
        <ele>548.2</ele>
        <time>2021-09-30T09:22:43Z</time>
      </trkpt>
      <trkpt lat="42.4245170" lon="-2.8016460">
        <ele>548.0</ele>
        <time>2021-09-30T09:22:44Z</time>
      </trkpt>
      <trkpt lat="42.4245850" lon="-2.8020030">
        <ele>547.0</ele>
        <time>2021-09-30T09:22:47Z</time>
      </trkpt>
      <trkpt lat="42.4245940" lon="-2.8021110">
        <ele>546.4</ele>
        <time>2021-09-30T09:22:48Z</time>
      </trkpt>
      <trkpt lat="42.4246430" lon="-2.8023240">
        <ele>545.0</ele>
        <time>2021-09-30T09:22:50Z</time>
      </trkpt>
      <trkpt lat="42.4246750" lon="-2.8024230">
        <ele>544.2</ele>
        <time>2021-09-30T09:22:51Z</time>
      </trkpt>
      <trkpt lat="42.4247130" lon="-2.8025160">
        <ele>543.2</ele>
        <time>2021-09-30T09:22:52Z</time>
      </trkpt>
      <trkpt lat="42.4248160" lon="-2.8026690">
        <ele>541.8</ele>
        <time>2021-09-30T09:22:54Z</time>
      </trkpt>
      <trkpt lat="42.4249380" lon="-2.8027890">
        <ele>541.2</ele>
        <time>2021-09-30T09:22:56Z</time>
      </trkpt>
      <trkpt lat="42.4250600" lon="-2.8029050">
        <ele>541.0</ele>
        <time>2021-09-30T09:22:58Z</time>
      </trkpt>
      <trkpt lat="42.4252410" lon="-2.8030790">
        <ele>540.8</ele>
        <time>2021-09-30T09:23:01Z</time>
      </trkpt>
      <trkpt lat="42.4253010" lon="-2.8031360">
        <ele>540.6</ele>
        <time>2021-09-30T09:23:02Z</time>
      </trkpt>
      <trkpt lat="42.4254180" lon="-2.8032520">
        <ele>540.6</ele>
        <time>2021-09-30T09:23:04Z</time>
      </trkpt>
      <trkpt lat="42.4255310" lon="-2.8033570">
        <ele>540.2</ele>
        <time>2021-09-30T09:23:06Z</time>
      </trkpt>
      <trkpt lat="42.4255840" lon="-2.8034120">
        <ele>540.0</ele>
        <time>2021-09-30T09:23:07Z</time>
      </trkpt>
      <trkpt lat="42.4256870" lon="-2.8035180">
        <ele>539.8</ele>
        <time>2021-09-30T09:23:09Z</time>
      </trkpt>
      <trkpt lat="42.4257800" lon="-2.8036250">
        <ele>539.8</ele>
        <time>2021-09-30T09:23:11Z</time>
      </trkpt>
      <trkpt lat="42.4258560" lon="-2.8038360">
        <ele>539.8</ele>
        <time>2021-09-30T09:23:14Z</time>
      </trkpt>
      <trkpt lat="42.4258760" lon="-2.8039940">
        <ele>539.8</ele>
        <time>2021-09-30T09:23:16Z</time>
      </trkpt>
      <trkpt lat="42.4258870" lon="-2.8040730">
        <ele>539.8</ele>
        <time>2021-09-30T09:23:17Z</time>
      </trkpt>
      <trkpt lat="42.4259160" lon="-2.8043140">
        <ele>539.8</ele>
        <time>2021-09-30T09:23:20Z</time>
      </trkpt>
      <trkpt lat="42.4259500" lon="-2.8046440">
        <ele>540.0</ele>
        <time>2021-09-30T09:23:24Z</time>
      </trkpt>
      <trkpt lat="42.4259740" lon="-2.8048880">
        <ele>540.0</ele>
        <time>2021-09-30T09:23:27Z</time>
      </trkpt>
      <trkpt lat="42.4260040" lon="-2.8051350">
        <ele>540.0</ele>
        <time>2021-09-30T09:23:30Z</time>
      </trkpt>
      <trkpt lat="42.4260350" lon="-2.8054630">
        <ele>540.2</ele>
        <time>2021-09-30T09:23:34Z</time>
      </trkpt>
      <trkpt lat="42.4260910" lon="-2.8059610">
        <ele>541.2</ele>
        <time>2021-09-30T09:23:40Z</time>
      </trkpt>
      <trkpt lat="42.4261060" lon="-2.8061330">
        <ele>541.6</ele>
        <time>2021-09-30T09:23:42Z</time>
      </trkpt>
      <trkpt lat="42.4261360" lon="-2.8064640">
        <ele>542.8</ele>
        <time>2021-09-30T09:23:46Z</time>
      </trkpt>
      <trkpt lat="42.4261810" lon="-2.8069400">
        <ele>543.8</ele>
        <time>2021-09-30T09:23:52Z</time>
      </trkpt>
      <trkpt lat="42.4262860" lon="-2.8076060">
        <ele>544.4</ele>
        <time>2021-09-30T09:24:01Z</time>
      </trkpt>
      <trkpt lat="42.4263730" lon="-2.8079470">
        <ele>544.6</ele>
        <time>2021-09-30T09:24:06Z</time>
      </trkpt>
      <trkpt lat="42.4264230" lon="-2.8081440">
        <ele>544.8</ele>
        <time>2021-09-30T09:24:09Z</time>
      </trkpt>
      <trkpt lat="42.4266080" lon="-2.8088500">
        <ele>545.6</ele>
        <time>2021-09-30T09:24:20Z</time>
      </trkpt>
      <trkpt lat="42.4266930" lon="-2.8091310">
        <ele>545.8</ele>
        <time>2021-09-30T09:24:25Z</time>
      </trkpt>
      <trkpt lat="42.4267930" lon="-2.8094420">
        <ele>547.0</ele>
        <time>2021-09-30T09:24:32Z</time>
      </trkpt>
      <trkpt lat="42.4268510" lon="-2.8095950">
        <ele>548.2</ele>
        <time>2021-09-30T09:24:36Z</time>
      </trkpt>
      <trkpt lat="42.4269290" lon="-2.8098550">
        <ele>549.2</ele>
        <time>2021-09-30T09:24:43Z</time>
      </trkpt>
      <trkpt lat="42.4270310" lon="-2.8101850">
        <ele>550.2</ele>
        <time>2021-09-30T09:24:50Z</time>
      </trkpt>
      <trkpt lat="42.4270470" lon="-2.8102370">
        <ele>550.2</ele>
        <time>2021-09-30T09:24:51Z</time>
      </trkpt>
      <trkpt lat="42.4270970" lon="-2.8103960">
        <ele>550.4</ele>
        <time>2021-09-30T09:24:54Z</time>
      </trkpt>
      <trkpt lat="42.4271840" lon="-2.8106700">
        <ele>551.0</ele>
        <time>2021-09-30T09:24:59Z</time>
      </trkpt>
      <trkpt lat="42.4272020" lon="-2.8107240">
        <ele>551.4</ele>
        <time>2021-09-30T09:25:00Z</time>
      </trkpt>
      <trkpt lat="42.4273600" lon="-2.8111400">
        <ele>552.6</ele>
        <time>2021-09-30T09:25:08Z</time>
      </trkpt>
      <trkpt lat="42.4274980" lon="-2.8114390">
        <ele>553.6</ele>
        <time>2021-09-30T09:25:14Z</time>
      </trkpt>
      <trkpt lat="42.4275200" lon="-2.8114900">
        <ele>553.8</ele>
        <time>2021-09-30T09:25:15Z</time>
      </trkpt>
      <trkpt lat="42.4278150" lon="-2.8121420">
        <ele>554.6</ele>
        <time>2021-09-30T09:25:28Z</time>
      </trkpt>
      <trkpt lat="42.4280260" lon="-2.8126060">
        <ele>555.8</ele>
        <time>2021-09-30T09:25:37Z</time>
      </trkpt>
      <trkpt lat="42.4281920" lon="-2.8130330">
        <ele>557.0</ele>
        <time>2021-09-30T09:25:45Z</time>
      </trkpt>
      <trkpt lat="42.4283470" lon="-2.8134600">
        <ele>557.8</ele>
        <time>2021-09-30T09:25:53Z</time>
      </trkpt>
      <trkpt lat="42.4283660" lon="-2.8135150">
        <ele>558.2</ele>
        <time>2021-09-30T09:25:54Z</time>
      </trkpt>
      <trkpt lat="42.4284240" lon="-2.8136760">
        <ele>559.2</ele>
        <time>2021-09-30T09:25:57Z</time>
      </trkpt>
      <trkpt lat="42.4285090" lon="-2.8139440">
        <ele>560.4</ele>
        <time>2021-09-30T09:26:02Z</time>
      </trkpt>
      <trkpt lat="42.4286100" lon="-2.8143460">
        <ele>561.6</ele>
        <time>2021-09-30T09:26:09Z</time>
      </trkpt>
      <trkpt lat="42.4287730" lon="-2.8150860">
        <ele>562.4</ele>
        <time>2021-09-30T09:26:21Z</time>
      </trkpt>
      <trkpt lat="42.4287910" lon="-2.8151450">
        <ele>562.6</ele>
        <time>2021-09-30T09:26:22Z</time>
      </trkpt>
      <trkpt lat="42.4289220" lon="-2.8155460">
        <ele>563.4</ele>
        <time>2021-09-30T09:26:29Z</time>
      </trkpt>
      <trkpt lat="42.4289450" lon="-2.8156000">
        <ele>563.6</ele>
        <time>2021-09-30T09:26:30Z</time>
      </trkpt>
      <trkpt lat="42.4291400" lon="-2.8161430">
        <ele>564.8</ele>
        <time>2021-09-30T09:26:40Z</time>
      </trkpt>
      <trkpt lat="42.4292200" lon="-2.8164230">
        <ele>565.4</ele>
        <time>2021-09-30T09:26:45Z</time>
      </trkpt>
      <trkpt lat="42.4292710" lon="-2.8166500">
        <ele>565.6</ele>
        <time>2021-09-30T09:26:49Z</time>
      </trkpt>
      <trkpt lat="42.4292890" lon="-2.8167030">
        <ele>565.8</ele>
        <time>2021-09-30T09:26:50Z</time>
      </trkpt>
      <trkpt lat="42.4294810" lon="-2.8172430">
        <ele>567.0</ele>
        <time>2021-09-30T09:27:00Z</time>
      </trkpt>
      <trkpt lat="42.4296150" lon="-2.8175480">
        <ele>568.0</ele>
        <time>2021-09-30T09:27:06Z</time>
      </trkpt>
      <trkpt lat="42.4297550" lon="-2.8177850">
        <ele>569.2</ele>
        <time>2021-09-30T09:27:12Z</time>
      </trkpt>
      <trkpt lat="42.4298310" lon="-2.8179200">
        <ele>570.2</ele>
        <time>2021-09-30T09:27:15Z</time>
      </trkpt>
      <trkpt lat="42.4298770" lon="-2.8179960">
        <ele>571.0</ele>
        <time>2021-09-30T09:27:19Z</time>
      </trkpt>
      <trkpt lat="42.4299220" lon="-2.8180110">
        <ele>573.4</ele>
        <time>2021-09-30T09:47:04Z</time>
      </trkpt>
      <trkpt lat="42.4299340" lon="-2.8180290">
        <ele>573.4</ele>
        <time>2021-09-30T09:47:05Z</time>
      </trkpt>
      <trkpt lat="42.4299880" lon="-2.8180940">
        <ele>573.4</ele>
        <time>2021-09-30T09:47:08Z</time>
      </trkpt>
      <trkpt lat="42.4300410" lon="-2.8181640">
        <ele>573.4</ele>
        <time>2021-09-30T09:47:11Z</time>
      </trkpt>
      <trkpt lat="42.4300810" lon="-2.8182180">
        <ele>573.4</ele>
        <time>2021-09-30T09:47:13Z</time>
      </trkpt>
      <trkpt lat="42.4301800" lon="-2.8183400">
        <ele>573.6</ele>
        <time>2021-09-30T09:47:18Z</time>
      </trkpt>
      <trkpt lat="42.4306300" lon="-2.8188050">
        <ele>573.8</ele>
        <time>2021-09-30T09:47:32Z</time>
      </trkpt>
      <trkpt lat="42.4307250" lon="-2.8188790">
        <ele>573.4</ele>
        <time>2021-09-30T09:47:34Z</time>
      </trkpt>
      <trkpt lat="42.4308720" lon="-2.8189980">
        <ele>572.2</ele>
        <time>2021-09-30T09:47:37Z</time>
      </trkpt>
      <trkpt lat="42.4310230" lon="-2.8191170">
        <ele>570.8</ele>
        <time>2021-09-30T09:47:40Z</time>
      </trkpt>
      <trkpt lat="42.4311310" lon="-2.8191910">
        <ele>569.8</ele>
        <time>2021-09-30T09:47:42Z</time>
      </trkpt>
      <trkpt lat="42.4312980" lon="-2.8193370">
        <ele>568.6</ele>
        <time>2021-09-30T09:47:45Z</time>
      </trkpt>
      <trkpt lat="42.4314160" lon="-2.8194590">
        <ele>567.4</ele>
        <time>2021-09-30T09:47:47Z</time>
      </trkpt>
      <trkpt lat="42.4315350" lon="-2.8196160">
        <ele>566.4</ele>
        <time>2021-09-30T09:47:49Z</time>
      </trkpt>
      <trkpt lat="42.4316620" lon="-2.8197860">
        <ele>565.0</ele>
        <time>2021-09-30T09:47:51Z</time>
      </trkpt>
      <trkpt lat="42.4317930" lon="-2.8199510">
        <ele>563.0</ele>
        <time>2021-09-30T09:47:53Z</time>
      </trkpt>
      <trkpt lat="42.4318560" lon="-2.8200280">
        <ele>562.0</ele>
        <time>2021-09-30T09:47:54Z</time>
      </trkpt>
      <trkpt lat="42.4319200" lon="-2.8201050">
        <ele>560.8</ele>
        <time>2021-09-30T09:47:55Z</time>
      </trkpt>
      <trkpt lat="42.4319830" lon="-2.8201840">
        <ele>559.6</ele>
        <time>2021-09-30T09:47:56Z</time>
      </trkpt>
      <trkpt lat="42.4320460" lon="-2.8202650">
        <ele>558.4</ele>
        <time>2021-09-30T09:47:57Z</time>
      </trkpt>
      <trkpt lat="42.4321050" lon="-2.8203470">
        <ele>557.2</ele>
        <time>2021-09-30T09:47:58Z</time>
      </trkpt>
      <trkpt lat="42.4321610" lon="-2.8204330">
        <ele>556.2</ele>
        <time>2021-09-30T09:47:59Z</time>
      </trkpt>
      <trkpt lat="42.4322650" lon="-2.8206110">
        <ele>555.2</ele>
        <time>2021-09-30T09:48:01Z</time>
      </trkpt>
      <trkpt lat="42.4323960" lon="-2.8208590">
        <ele>553.8</ele>
        <time>2021-09-30T09:48:04Z</time>
      </trkpt>
      <trkpt lat="42.4324660" lon="-2.8210040">
        <ele>552.2</ele>
        <time>2021-09-30T09:48:06Z</time>
      </trkpt>
      <trkpt lat="42.4325200" lon="-2.8211170">
        <ele>551.2</ele>
        <time>2021-09-30T09:48:08Z</time>
      </trkpt>
      <trkpt lat="42.4325510" lon="-2.8211510">
        <ele>551.0</ele>
        <time>2021-09-30T09:48:09Z</time>
      </trkpt>
      <trkpt lat="42.4327580" lon="-2.8210600">
        <ele>550.6</ele>
        <time>2021-09-30T09:48:14Z</time>
      </trkpt>
      <trkpt lat="42.4329690" lon="-2.8209170">
        <ele>550.2</ele>
        <time>2021-09-30T09:48:18Z</time>
      </trkpt>
      <trkpt lat="42.4331750" lon="-2.8207780">
        <ele>550.0</ele>
        <time>2021-09-30T09:48:22Z</time>
      </trkpt>
      <trkpt lat="42.4332670" lon="-2.8207500">
        <ele>549.4</ele>
        <time>2021-09-30T09:48:24Z</time>
      </trkpt>
      <trkpt lat="42.4333810" lon="-2.8210120">
        <ele>549.0</ele>
        <time>2021-09-30T09:48:31Z</time>
      </trkpt>
      <trkpt lat="42.4333950" lon="-2.8210750">
        <ele>549.0</ele>
        <time>2021-09-30T09:48:32Z</time>
      </trkpt>
      <trkpt lat="42.4334080" lon="-2.8211420">
        <ele>548.8</ele>
        <time>2021-09-30T09:48:33Z</time>
      </trkpt>
      <trkpt lat="42.4334310" lon="-2.8212870">
        <ele>548.8</ele>
        <time>2021-09-30T09:48:35Z</time>
      </trkpt>
      <trkpt lat="42.4334530" lon="-2.8214370">
        <ele>548.6</ele>
        <time>2021-09-30T09:48:37Z</time>
      </trkpt>
      <trkpt lat="42.4334720" lon="-2.8215890">
        <ele>548.8</ele>
        <time>2021-09-30T09:48:39Z</time>
      </trkpt>
      <trkpt lat="42.4334900" lon="-2.8217360">
        <ele>548.8</ele>
        <time>2021-09-30T09:48:41Z</time>
      </trkpt>
      <trkpt lat="42.4335080" lon="-2.8218870">
        <ele>548.8</ele>
        <time>2021-09-30T09:48:43Z</time>
      </trkpt>
      <trkpt lat="42.4335220" lon="-2.8220470">
        <ele>548.6</ele>
        <time>2021-09-30T09:48:45Z</time>
      </trkpt>
      <trkpt lat="42.4335720" lon="-2.8223810">
        <ele>548.6</ele>
        <time>2021-09-30T09:48:49Z</time>
      </trkpt>
      <trkpt lat="42.4336220" lon="-2.8227240">
        <ele>548.6</ele>
        <time>2021-09-30T09:48:53Z</time>
      </trkpt>
      <trkpt lat="42.4336660" lon="-2.8230450">
        <ele>548.8</ele>
        <time>2021-09-30T09:48:57Z</time>
      </trkpt>
      <trkpt lat="42.4337090" lon="-2.8235060">
        <ele>549.2</ele>
        <time>2021-09-30T09:49:03Z</time>
      </trkpt>
      <trkpt lat="42.4337490" lon="-2.8241440">
        <ele>550.0</ele>
        <time>2021-09-30T09:49:11Z</time>
      </trkpt>
      <trkpt lat="42.4338020" lon="-2.8248460">
        <ele>550.2</ele>
        <time>2021-09-30T09:49:20Z</time>
      </trkpt>
      <trkpt lat="42.4338440" lon="-2.8254410">
        <ele>550.6</ele>
        <time>2021-09-30T09:49:28Z</time>
      </trkpt>
      <trkpt lat="42.4338540" lon="-2.8255890">
        <ele>551.4</ele>
        <time>2021-09-30T09:49:30Z</time>
      </trkpt>
      <trkpt lat="42.4338770" lon="-2.8259670">
        <ele>552.2</ele>
        <time>2021-09-30T09:49:35Z</time>
      </trkpt>
      <trkpt lat="42.4339310" lon="-2.8266480">
        <ele>553.4</ele>
        <time>2021-09-30T09:49:44Z</time>
      </trkpt>
      <trkpt lat="42.4339620" lon="-2.8270340">
        <ele>554.4</ele>
        <time>2021-09-30T09:49:49Z</time>
      </trkpt>
      <trkpt lat="42.4340150" lon="-2.8276780">
        <ele>555.2</ele>
        <time>2021-09-30T09:49:57Z</time>
      </trkpt>
      <trkpt lat="42.4340600" lon="-2.8280750">
        <ele>555.2</ele>
        <time>2021-09-30T09:50:02Z</time>
      </trkpt>
      <trkpt lat="42.4341530" lon="-2.8287120">
        <ele>554.8</ele>
        <time>2021-09-30T09:50:10Z</time>
      </trkpt>
      <trkpt lat="42.4341500" lon="-2.8294620">
        <ele>555.0</ele>
        <time>2021-09-30T09:50:19Z</time>
      </trkpt>
      <trkpt lat="42.4341400" lon="-2.8298560">
        <ele>555.0</ele>
        <time>2021-09-30T09:50:24Z</time>
      </trkpt>
      <trkpt lat="42.4341490" lon="-2.8302430">
        <ele>555.8</ele>
        <time>2021-09-30T09:50:29Z</time>
      </trkpt>
      <trkpt lat="42.4342330" lon="-2.8310000">
        <ele>556.6</ele>
        <time>2021-09-30T09:50:39Z</time>
      </trkpt>
      <trkpt lat="42.4342710" lon="-2.8315190">
        <ele>556.8</ele>
        <time>2021-09-30T09:50:46Z</time>
      </trkpt>
      <trkpt lat="42.4342370" lon="-2.8322750">
        <ele>556.8</ele>
        <time>2021-09-30T09:50:56Z</time>
      </trkpt>
      <trkpt lat="42.4341870" lon="-2.8328320">
        <ele>557.6</ele>
        <time>2021-09-30T09:51:04Z</time>
      </trkpt>
      <trkpt lat="42.4341020" lon="-2.8330510">
        <ele>557.6</ele>
        <time>2021-09-30T09:51:08Z</time>
      </trkpt>
      <trkpt lat="42.4340250" lon="-2.8331980">
        <ele>558.0</ele>
        <time>2021-09-30T09:51:11Z</time>
      </trkpt>
      <trkpt lat="42.4339640" lon="-2.8333040">
        <ele>559.2</ele>
        <time>2021-09-30T09:51:14Z</time>
      </trkpt>
      <trkpt lat="42.4338590" lon="-2.8334840">
        <ele>560.4</ele>
        <time>2021-09-30T09:51:19Z</time>
      </trkpt>
      <trkpt lat="42.4337730" lon="-2.8336330">
        <ele>560.8</ele>
        <time>2021-09-30T09:51:22Z</time>
      </trkpt>
      <trkpt lat="42.4337430" lon="-2.8336870">
        <ele>560.8</ele>
        <time>2021-09-30T09:51:23Z</time>
      </trkpt>
      <trkpt lat="42.4336640" lon="-2.8338550">
        <ele>560.8</ele>
        <time>2021-09-30T09:51:26Z</time>
      </trkpt>
      <trkpt lat="42.4336210" lon="-2.8340440">
        <ele>561.0</ele>
        <time>2021-09-30T09:51:30Z</time>
      </trkpt>
      <trkpt lat="42.4335970" lon="-2.8346150">
        <ele>560.8</ele>
        <time>2021-09-30T09:51:40Z</time>
      </trkpt>
      <trkpt lat="42.4335720" lon="-2.8351360">
        <ele>560.4</ele>
        <time>2021-09-30T09:51:47Z</time>
      </trkpt>
      <trkpt lat="42.4335600" lon="-2.8358740">
        <ele>560.0</ele>
        <time>2021-09-30T09:51:57Z</time>
      </trkpt>
      <trkpt lat="42.4335920" lon="-2.8366480">
        <ele>560.6</ele>
        <time>2021-09-30T09:52:08Z</time>
      </trkpt>
      <trkpt lat="42.4336210" lon="-2.8374310">
        <ele>560.8</ele>
        <time>2021-09-30T09:52:20Z</time>
      </trkpt>
      <trkpt lat="42.4336300" lon="-2.8377270">
        <ele>561.0</ele>
        <time>2021-09-30T09:52:25Z</time>
      </trkpt>
      <trkpt lat="42.4336500" lon="-2.8381210">
        <ele>561.6</ele>
        <time>2021-09-30T09:52:32Z</time>
      </trkpt>
      <trkpt lat="42.4336510" lon="-2.8382070">
        <ele>561.8</ele>
        <time>2021-09-30T09:52:34Z</time>
      </trkpt>
      <trkpt lat="42.4336660" lon="-2.8386580">
        <ele>562.4</ele>
        <time>2021-09-30T09:52:42Z</time>
      </trkpt>
      <trkpt lat="42.4336720" lon="-2.8387210">
        <ele>562.4</ele>
        <time>2021-09-30T09:52:43Z</time>
      </trkpt>
      <trkpt lat="42.4336980" lon="-2.8389020">
        <ele>562.8</ele>
        <time>2021-09-30T09:52:46Z</time>
      </trkpt>
      <trkpt lat="42.4337370" lon="-2.8391040">
        <ele>563.0</ele>
        <time>2021-09-30T09:52:50Z</time>
      </trkpt>
      <trkpt lat="42.4338990" lon="-2.8395490">
        <ele>563.4</ele>
        <time>2021-09-30T09:52:57Z</time>
      </trkpt>
      <trkpt lat="42.4340050" lon="-2.8398200">
        <ele>563.6</ele>
        <time>2021-09-30T09:53:01Z</time>
      </trkpt>
      <trkpt lat="42.4340620" lon="-2.8400300">
        <ele>563.6</ele>
        <time>2021-09-30T09:53:04Z</time>
      </trkpt>
      <trkpt lat="42.4340710" lon="-2.8401750">
        <ele>563.8</ele>
        <time>2021-09-30T09:53:06Z</time>
      </trkpt>
      <trkpt lat="42.4340700" lon="-2.8402460">
        <ele>563.8</ele>
        <time>2021-09-30T09:53:07Z</time>
      </trkpt>
      <trkpt lat="42.4340180" lon="-2.8409210">
        <ele>564.0</ele>
        <time>2021-09-30T09:53:17Z</time>
      </trkpt>
      <trkpt lat="42.4340120" lon="-2.8411310">
        <ele>564.4</ele>
        <time>2021-09-30T09:53:21Z</time>
      </trkpt>
      <trkpt lat="42.4339670" lon="-2.8412150">
        <ele>564.8</ele>
        <time>2021-09-30T09:53:23Z</time>
      </trkpt>
      <trkpt lat="42.4337670" lon="-2.8413290">
        <ele>565.4</ele>
        <time>2021-09-30T09:53:28Z</time>
      </trkpt>
      <trkpt lat="42.4336550" lon="-2.8415300">
        <ele>565.8</ele>
        <time>2021-09-30T09:53:32Z</time>
      </trkpt>
      <trkpt lat="42.4336330" lon="-2.8415900">
        <ele>565.8</ele>
        <time>2021-09-30T09:53:33Z</time>
      </trkpt>
      <trkpt lat="42.4334500" lon="-2.8421100">
        <ele>566.0</ele>
        <time>2021-09-30T09:53:41Z</time>
      </trkpt>
      <trkpt lat="42.4333370" lon="-2.8426070">
        <ele>566.0</ele>
        <time>2021-09-30T09:53:48Z</time>
      </trkpt>
      <trkpt lat="42.4332200" lon="-2.8432640">
        <ele>566.4</ele>
        <time>2021-09-30T09:53:57Z</time>
      </trkpt>
      <trkpt lat="42.4330670" lon="-2.8439120">
        <ele>566.8</ele>
        <time>2021-09-30T09:54:06Z</time>
      </trkpt>
      <trkpt lat="42.4329160" lon="-2.8446260">
        <ele>567.4</ele>
        <time>2021-09-30T09:54:16Z</time>
      </trkpt>
      <trkpt lat="42.4328580" lon="-2.8449110">
        <ele>568.0</ele>
        <time>2021-09-30T09:54:20Z</time>
      </trkpt>
      <trkpt lat="42.4327270" lon="-2.8456100">
        <ele>569.0</ele>
        <time>2021-09-30T09:54:30Z</time>
      </trkpt>
      <trkpt lat="42.4326980" lon="-2.8458990">
        <ele>569.2</ele>
        <time>2021-09-30T09:54:34Z</time>
      </trkpt>
      <trkpt lat="42.4327400" lon="-2.8466320">
        <ele>570.0</ele>
        <time>2021-09-30T09:54:44Z</time>
      </trkpt>
      <trkpt lat="42.4327540" lon="-2.8467040">
        <ele>570.2</ele>
        <time>2021-09-30T09:54:45Z</time>
      </trkpt>
      <trkpt lat="42.4329190" lon="-2.8474540">
        <ele>570.8</ele>
        <time>2021-09-30T09:54:56Z</time>
      </trkpt>
      <trkpt lat="42.4329700" lon="-2.8477250">
        <ele>571.4</ele>
        <time>2021-09-30T09:55:00Z</time>
      </trkpt>
      <trkpt lat="42.4329880" lon="-2.8478610">
        <ele>571.8</ele>
        <time>2021-09-30T09:55:02Z</time>
      </trkpt>
      <trkpt lat="42.4329850" lon="-2.8484140">
        <ele>572.2</ele>
        <time>2021-09-30T09:55:10Z</time>
      </trkpt>
      <trkpt lat="42.4327860" lon="-2.8488070">
        <ele>572.6</ele>
        <time>2021-09-30T09:55:17Z</time>
      </trkpt>
      <trkpt lat="42.4325460" lon="-2.8490730">
        <ele>573.6</ele>
        <time>2021-09-30T09:55:23Z</time>
      </trkpt>
      <trkpt lat="42.4324720" lon="-2.8491650">
        <ele>574.0</ele>
        <time>2021-09-30T09:55:25Z</time>
      </trkpt>
      <trkpt lat="42.4323920" lon="-2.8494010">
        <ele>574.6</ele>
        <time>2021-09-30T09:55:29Z</time>
      </trkpt>
      <trkpt lat="42.4323750" lon="-2.8494670">
        <ele>574.8</ele>
        <time>2021-09-30T09:55:30Z</time>
      </trkpt>
      <trkpt lat="42.4321290" lon="-2.8501760">
        <ele>575.2</ele>
        <time>2021-09-30T09:55:41Z</time>
      </trkpt>
      <trkpt lat="42.4319680" lon="-2.8507020">
        <ele>575.8</ele>
        <time>2021-09-30T09:55:49Z</time>
      </trkpt>
      <trkpt lat="42.4318420" lon="-2.8511700">
        <ele>576.8</ele>
        <time>2021-09-30T09:55:56Z</time>
      </trkpt>
      <trkpt lat="42.4316310" lon="-2.8518950">
        <ele>577.4</ele>
        <time>2021-09-30T09:56:07Z</time>
      </trkpt>
      <trkpt lat="42.4315580" lon="-2.8521610">
        <ele>577.6</ele>
        <time>2021-09-30T09:56:11Z</time>
      </trkpt>
      <trkpt lat="42.4315230" lon="-2.8522930">
        <ele>577.8</ele>
        <time>2021-09-30T09:56:13Z</time>
      </trkpt>
      <trkpt lat="42.4314180" lon="-2.8526850">
        <ele>578.8</ele>
        <time>2021-09-30T09:56:19Z</time>
      </trkpt>
      <trkpt lat="42.4314000" lon="-2.8527510">
        <ele>579.0</ele>
        <time>2021-09-30T09:56:20Z</time>
      </trkpt>
      <trkpt lat="42.4312560" lon="-2.8531980">
        <ele>580.0</ele>
        <time>2021-09-30T09:56:27Z</time>
      </trkpt>
      <trkpt lat="42.4309330" lon="-2.8538450">
        <ele>580.8</ele>
        <time>2021-09-30T09:56:38Z</time>
      </trkpt>
      <trkpt lat="42.4307790" lon="-2.8541290">
        <ele>581.0</ele>
        <time>2021-09-30T09:56:43Z</time>
      </trkpt>
      <trkpt lat="42.4304470" lon="-2.8547610">
        <ele>582.0</ele>
        <time>2021-09-30T09:56:54Z</time>
      </trkpt>
      <trkpt lat="42.4303890" lon="-2.8548730">
        <ele>582.0</ele>
        <time>2021-09-30T09:56:56Z</time>
      </trkpt>
      <trkpt lat="42.4301650" lon="-2.8553030">
        <ele>583.2</ele>
        <time>2021-09-30T09:57:04Z</time>
      </trkpt>
      <trkpt lat="42.4299660" lon="-2.8556880">
        <ele>584.4</ele>
        <time>2021-09-30T09:57:11Z</time>
      </trkpt>
      <trkpt lat="42.4297670" lon="-2.8560640">
        <ele>585.4</ele>
        <time>2021-09-30T09:57:18Z</time>
      </trkpt>
      <trkpt lat="42.4294430" lon="-2.8566700">
        <ele>586.6</ele>
        <time>2021-09-30T09:57:30Z</time>
      </trkpt>
      <trkpt lat="42.4292440" lon="-2.8570230">
        <ele>587.8</ele>
        <time>2021-09-30T09:57:37Z</time>
      </trkpt>
      <trkpt lat="42.4290090" lon="-2.8574300">
        <ele>588.6</ele>
        <time>2021-09-30T09:57:46Z</time>
      </trkpt>
      <trkpt lat="42.4289600" lon="-2.8575160">
        <ele>588.8</ele>
        <time>2021-09-30T09:57:48Z</time>
      </trkpt>
      <trkpt lat="42.4287070" lon="-2.8579420">
        <ele>589.8</ele>
        <time>2021-09-30T09:57:58Z</time>
      </trkpt>
      <trkpt lat="42.4284560" lon="-2.8583930">
        <ele>591.0</ele>
        <time>2021-09-30T09:58:09Z</time>
      </trkpt>
      <trkpt lat="42.4281270" lon="-2.8589900">
        <ele>591.8</ele>
        <time>2021-09-30T09:58:23Z</time>
      </trkpt>
      <trkpt lat="42.4280810" lon="-2.8590730">
        <ele>592.0</ele>
        <time>2021-09-30T09:58:25Z</time>
      </trkpt>
      <trkpt lat="42.4278720" lon="-2.8594410">
        <ele>593.2</ele>
        <time>2021-09-30T09:58:34Z</time>
      </trkpt>
      <trkpt lat="42.4276480" lon="-2.8598410">
        <ele>594.2</ele>
        <time>2021-09-30T09:58:44Z</time>
      </trkpt>
      <trkpt lat="42.4274500" lon="-2.8602060">
        <ele>595.2</ele>
        <time>2021-09-30T09:58:53Z</time>
      </trkpt>
      <trkpt lat="42.4274180" lon="-2.8605820">
        <ele>596.4</ele>
        <time>2021-09-30T09:59:01Z</time>
      </trkpt>
      <trkpt lat="42.4274110" lon="-2.8608080">
        <ele>597.0</ele>
        <time>2021-09-30T09:59:06Z</time>
      </trkpt>
      <trkpt lat="42.4273850" lon="-2.8610240">
        <ele>597.4</ele>
        <time>2021-09-30T09:59:11Z</time>
      </trkpt>
      <trkpt lat="42.4273770" lon="-2.8611540">
        <ele>597.6</ele>
        <time>2021-09-30T09:59:14Z</time>
      </trkpt>
      <trkpt lat="42.4273640" lon="-2.8613280">
        <ele>597.8</ele>
        <time>2021-09-30T09:59:18Z</time>
      </trkpt>
      <trkpt lat="42.4273440" lon="-2.8615810">
        <ele>598.4</ele>
        <time>2021-09-30T09:59:24Z</time>
      </trkpt>
      <trkpt lat="42.4273180" lon="-2.8618860">
        <ele>598.6</ele>
        <time>2021-09-30T09:59:31Z</time>
      </trkpt>
      <trkpt lat="42.4272880" lon="-2.8622650">
        <ele>599.6</ele>
        <time>2021-09-30T09:59:39Z</time>
      </trkpt>
      <trkpt lat="42.4272490" lon="-2.8628010">
        <ele>600.8</ele>
        <time>2021-09-30T09:59:51Z</time>
      </trkpt>
      <trkpt lat="42.4272190" lon="-2.8634550">
        <ele>601.8</ele>
        <time>2021-09-30T10:00:06Z</time>
      </trkpt>
      <trkpt lat="42.4271900" lon="-2.8637070">
        <ele>603.0</ele>
        <time>2021-09-30T10:00:12Z</time>
      </trkpt>
      <trkpt lat="42.4271550" lon="-2.8639400">
        <ele>604.2</ele>
        <time>2021-09-30T10:00:17Z</time>
      </trkpt>
      <trkpt lat="42.4271170" lon="-2.8644080">
        <ele>605.2</ele>
        <time>2021-09-30T10:00:27Z</time>
      </trkpt>
      <trkpt lat="42.4271050" lon="-2.8646800">
        <ele>606.2</ele>
        <time>2021-09-30T10:00:33Z</time>
      </trkpt>
      <trkpt lat="42.4269570" lon="-2.8653670">
        <ele>607.6</ele>
        <time>2021-09-30T10:00:47Z</time>
      </trkpt>
      <trkpt lat="42.4268530" lon="-2.8657110">
        <ele>608.6</ele>
        <time>2021-09-30T10:00:54Z</time>
      </trkpt>
      <trkpt lat="42.4267740" lon="-2.8660200">
        <ele>609.6</ele>
        <time>2021-09-30T10:01:00Z</time>
      </trkpt>
      <trkpt lat="42.4267630" lon="-2.8660740">
        <ele>609.6</ele>
        <time>2021-09-30T10:01:01Z</time>
      </trkpt>
      <trkpt lat="42.4266820" lon="-2.8663480">
        <ele>610.2</ele>
        <time>2021-09-30T10:01:06Z</time>
      </trkpt>
      <trkpt lat="42.4266230" lon="-2.8665570">
        <ele>610.6</ele>
        <time>2021-09-30T10:01:10Z</time>
      </trkpt>
      <trkpt lat="42.4265120" lon="-2.8669300">
        <ele>611.8</ele>
        <time>2021-09-30T10:01:18Z</time>
      </trkpt>
      <trkpt lat="42.4264750" lon="-2.8670570">
        <ele>612.4</ele>
        <time>2021-09-30T10:01:21Z</time>
      </trkpt>
      <trkpt lat="42.4264630" lon="-2.8670980">
        <ele>612.4</ele>
        <time>2021-09-30T10:01:22Z</time>
      </trkpt>
      <trkpt lat="42.4264520" lon="-2.8671400">
        <ele>612.6</ele>
        <time>2021-09-30T10:01:23Z</time>
      </trkpt>
      <trkpt lat="42.4264420" lon="-2.8671830">
        <ele>612.8</ele>
        <time>2021-09-30T10:01:24Z</time>
      </trkpt>
      <trkpt lat="42.4263160" lon="-2.8676210">
        <ele>613.8</ele>
        <time>2021-09-30T10:01:34Z</time>
      </trkpt>
      <trkpt lat="42.4261670" lon="-2.8681550">
        <ele>615.0</ele>
        <time>2021-09-30T10:01:45Z</time>
      </trkpt>
      <trkpt lat="42.4260670" lon="-2.8685140">
        <ele>615.8</ele>
        <time>2021-09-30T10:01:52Z</time>
      </trkpt>
      <trkpt lat="42.4260220" lon="-2.8686690">
        <ele>616.2</ele>
        <time>2021-09-30T10:01:55Z</time>
      </trkpt>
      <trkpt lat="42.4259180" lon="-2.8690320">
        <ele>617.4</ele>
        <time>2021-09-30T10:02:02Z</time>
      </trkpt>
      <trkpt lat="42.4258750" lon="-2.8691860">
        <ele>618.0</ele>
        <time>2021-09-30T10:02:05Z</time>
      </trkpt>
      <trkpt lat="42.4258400" lon="-2.8692830">
        <ele>618.4</ele>
        <time>2021-09-30T10:02:07Z</time>
      </trkpt>
      <trkpt lat="42.4257710" lon="-2.8694900">
        <ele>619.6</ele>
        <time>2021-09-30T10:02:11Z</time>
      </trkpt>
      <trkpt lat="42.4257080" lon="-2.8697110">
        <ele>620.6</ele>
        <time>2021-09-30T10:02:15Z</time>
      </trkpt>
      <trkpt lat="42.4256500" lon="-2.8699060">
        <ele>622.0</ele>
        <time>2021-09-30T10:02:19Z</time>
      </trkpt>
      <trkpt lat="42.4255970" lon="-2.8700820">
        <ele>623.4</ele>
        <time>2021-09-30T10:02:23Z</time>
      </trkpt>
      <trkpt lat="42.4255600" lon="-2.8702110">
        <ele>624.8</ele>
        <time>2021-09-30T10:02:26Z</time>
      </trkpt>
      <trkpt lat="42.4255370" lon="-2.8702920">
        <ele>625.8</ele>
        <time>2021-09-30T10:02:28Z</time>
      </trkpt>
      <trkpt lat="42.4255260" lon="-2.8703320">
        <ele>626.8</ele>
        <time>2021-09-30T10:02:29Z</time>
      </trkpt>
      <trkpt lat="42.4254810" lon="-2.8704880">
        <ele>628.4</ele>
        <time>2021-09-30T10:02:33Z</time>
      </trkpt>
      <trkpt lat="42.4254400" lon="-2.8706000">
        <ele>629.4</ele>
        <time>2021-09-30T10:02:36Z</time>
      </trkpt>
      <trkpt lat="42.4254000" lon="-2.8707520">
        <ele>630.6</ele>
        <time>2021-09-30T10:02:40Z</time>
      </trkpt>
      <trkpt lat="42.4253800" lon="-2.8708270">
        <ele>631.4</ele>
        <time>2021-09-30T10:02:42Z</time>
      </trkpt>
      <trkpt lat="42.4253700" lon="-2.8708640">
        <ele>631.8</ele>
        <time>2021-09-30T10:02:43Z</time>
      </trkpt>
      <trkpt lat="42.4253320" lon="-2.8710120">
        <ele>632.8</ele>
        <time>2021-09-30T10:02:47Z</time>
      </trkpt>
      <trkpt lat="42.4253070" lon="-2.8711200">
        <ele>634.0</ele>
        <time>2021-09-30T10:02:50Z</time>
      </trkpt>
      <trkpt lat="42.4252850" lon="-2.8712230">
        <ele>635.2</ele>
        <time>2021-09-30T10:02:53Z</time>
      </trkpt>
      <trkpt lat="42.4252750" lon="-2.8713260">
        <ele>636.2</ele>
        <time>2021-09-30T10:02:56Z</time>
      </trkpt>
      <trkpt lat="42.4252660" lon="-2.8714580">
        <ele>637.4</ele>
        <time>2021-09-30T10:03:00Z</time>
      </trkpt>
      <trkpt lat="42.4252570" lon="-2.8715880">
        <ele>639.0</ele>
        <time>2021-09-30T10:03:04Z</time>
      </trkpt>
      <trkpt lat="42.4252350" lon="-2.8717150">
        <ele>640.2</ele>
        <time>2021-09-30T10:03:08Z</time>
      </trkpt>
      <trkpt lat="42.4252200" lon="-2.8718780">
        <ele>641.4</ele>
        <time>2021-09-30T10:03:13Z</time>
      </trkpt>
      <trkpt lat="42.4252110" lon="-2.8720450">
        <ele>642.4</ele>
        <time>2021-09-30T10:03:18Z</time>
      </trkpt>
      <trkpt lat="42.4251940" lon="-2.8722190">
        <ele>643.4</ele>
        <time>2021-09-30T10:03:23Z</time>
      </trkpt>
      <trkpt lat="42.4251710" lon="-2.8724300">
        <ele>644.6</ele>
        <time>2021-09-30T10:03:29Z</time>
      </trkpt>
      <trkpt lat="42.4251500" lon="-2.8726100">
        <ele>645.8</ele>
        <time>2021-09-30T10:03:34Z</time>
      </trkpt>
      <trkpt lat="42.4251370" lon="-2.8727570">
        <ele>647.2</ele>
        <time>2021-09-30T10:03:38Z</time>
      </trkpt>
      <trkpt lat="42.4251170" lon="-2.8729360">
        <ele>648.4</ele>
        <time>2021-09-30T10:03:43Z</time>
      </trkpt>
      <trkpt lat="42.4250960" lon="-2.8731140">
        <ele>649.4</ele>
        <time>2021-09-30T10:03:48Z</time>
      </trkpt>
      <trkpt lat="42.4250770" lon="-2.8732560">
        <ele>650.6</ele>
        <time>2021-09-30T10:03:52Z</time>
      </trkpt>
      <trkpt lat="42.4250420" lon="-2.8734310">
        <ele>651.8</ele>
        <time>2021-09-30T10:03:57Z</time>
      </trkpt>
      <trkpt lat="42.4249960" lon="-2.8736410">
        <ele>652.8</ele>
        <time>2021-09-30T10:04:03Z</time>
      </trkpt>
      <trkpt lat="42.4249710" lon="-2.8737460">
        <ele>654.0</ele>
        <time>2021-09-30T10:04:06Z</time>
      </trkpt>
      <trkpt lat="42.4249530" lon="-2.8738150">
        <ele>655.0</ele>
        <time>2021-09-30T10:04:08Z</time>
      </trkpt>
      <trkpt lat="42.4249190" lon="-2.8739550">
        <ele>656.2</ele>
        <time>2021-09-30T10:04:12Z</time>
      </trkpt>
      <trkpt lat="42.4248890" lon="-2.8740930">
        <ele>657.2</ele>
        <time>2021-09-30T10:04:16Z</time>
      </trkpt>
      <trkpt lat="42.4248310" lon="-2.8743320">
        <ele>658.4</ele>
        <time>2021-09-30T10:04:23Z</time>
      </trkpt>
      <trkpt lat="42.4247950" lon="-2.8745080">
        <ele>659.4</ele>
        <time>2021-09-30T10:04:28Z</time>
      </trkpt>
      <trkpt lat="42.4247520" lon="-2.8747180">
        <ele>660.4</ele>
        <time>2021-09-30T10:04:34Z</time>
      </trkpt>
      <trkpt lat="42.4246940" lon="-2.8749560">
        <ele>661.8</ele>
        <time>2021-09-30T10:04:41Z</time>
      </trkpt>
      <trkpt lat="42.4246630" lon="-2.8750920">
        <ele>663.0</ele>
        <time>2021-09-30T10:04:45Z</time>
      </trkpt>
      <trkpt lat="42.4246300" lon="-2.8752260">
        <ele>664.0</ele>
        <time>2021-09-30T10:04:49Z</time>
      </trkpt>
      <trkpt lat="42.4245730" lon="-2.8754640">
        <ele>665.2</ele>
        <time>2021-09-30T10:04:56Z</time>
      </trkpt>
      <trkpt lat="42.4245400" lon="-2.8756030">
        <ele>666.2</ele>
        <time>2021-09-30T10:05:00Z</time>
      </trkpt>
      <trkpt lat="42.4244770" lon="-2.8758440">
        <ele>667.6</ele>
        <time>2021-09-30T10:05:07Z</time>
      </trkpt>
      <trkpt lat="42.4244290" lon="-2.8760170">
        <ele>668.6</ele>
        <time>2021-09-30T10:05:12Z</time>
      </trkpt>
      <trkpt lat="42.4243690" lon="-2.8762210">
        <ele>669.6</ele>
        <time>2021-09-30T10:05:18Z</time>
      </trkpt>
      <trkpt lat="42.4243250" lon="-2.8763560">
        <ele>670.8</ele>
        <time>2021-09-30T10:05:22Z</time>
      </trkpt>
      <trkpt lat="42.4242830" lon="-2.8764910">
        <ele>672.0</ele>
        <time>2021-09-30T10:05:26Z</time>
      </trkpt>
      <trkpt lat="42.4242350" lon="-2.8766230">
        <ele>673.0</ele>
        <time>2021-09-30T10:05:30Z</time>
      </trkpt>
      <trkpt lat="42.4241450" lon="-2.8768070">
        <ele>674.2</ele>
        <time>2021-09-30T10:05:36Z</time>
      </trkpt>
      <trkpt lat="42.4240520" lon="-2.8770000">
        <ele>675.4</ele>
        <time>2021-09-30T10:05:42Z</time>
      </trkpt>
      <trkpt lat="42.4239940" lon="-2.8771180">
        <ele>676.6</ele>
        <time>2021-09-30T10:05:46Z</time>
      </trkpt>
      <trkpt lat="42.4239350" lon="-2.8772290">
        <ele>677.8</ele>
        <time>2021-09-30T10:05:50Z</time>
      </trkpt>
      <trkpt lat="42.4238630" lon="-2.8773650">
        <ele>679.0</ele>
        <time>2021-09-30T10:05:55Z</time>
      </trkpt>
      <trkpt lat="42.4238220" lon="-2.8774460">
        <ele>680.4</ele>
        <time>2021-09-30T10:05:58Z</time>
      </trkpt>
      <trkpt lat="42.4237790" lon="-2.8775240">
        <ele>681.4</ele>
        <time>2021-09-30T10:06:01Z</time>
      </trkpt>
      <trkpt lat="42.4237020" lon="-2.8776490">
        <ele>682.6</ele>
        <time>2021-09-30T10:06:06Z</time>
      </trkpt>
      <trkpt lat="42.4236420" lon="-2.8777520">
        <ele>683.8</ele>
        <time>2021-09-30T10:06:10Z</time>
      </trkpt>
      <trkpt lat="42.4235790" lon="-2.8778570">
        <ele>685.2</ele>
        <time>2021-09-30T10:06:14Z</time>
      </trkpt>
      <trkpt lat="42.4235320" lon="-2.8779350">
        <ele>686.2</ele>
        <time>2021-09-30T10:06:17Z</time>
      </trkpt>
      <trkpt lat="42.4234660" lon="-2.8780460">
        <ele>687.4</ele>
        <time>2021-09-30T10:06:21Z</time>
      </trkpt>
      <trkpt lat="42.4234070" lon="-2.8781620">
        <ele>688.6</ele>
        <time>2021-09-30T10:06:25Z</time>
      </trkpt>
      <trkpt lat="42.4233240" lon="-2.8782850">
        <ele>689.8</ele>
        <time>2021-09-30T10:06:30Z</time>
      </trkpt>
      <trkpt lat="42.4232510" lon="-2.8783810">
        <ele>690.8</ele>
        <time>2021-09-30T10:06:34Z</time>
      </trkpt>
      <trkpt lat="42.4231970" lon="-2.8784570">
        <ele>692.2</ele>
        <time>2021-09-30T10:06:37Z</time>
      </trkpt>
      <trkpt lat="42.4231050" lon="-2.8785780">
        <ele>693.2</ele>
        <time>2021-09-30T10:06:42Z</time>
      </trkpt>
      <trkpt lat="42.4230300" lon="-2.8786750">
        <ele>694.4</ele>
        <time>2021-09-30T10:06:46Z</time>
      </trkpt>
      <trkpt lat="42.4229520" lon="-2.8787660">
        <ele>695.6</ele>
        <time>2021-09-30T10:06:50Z</time>
      </trkpt>
      <trkpt lat="42.4228440" lon="-2.8789150">
        <ele>696.8</ele>
        <time>2021-09-30T10:06:56Z</time>
      </trkpt>
      <trkpt lat="42.4227540" lon="-2.8790530">
        <ele>698.0</ele>
        <time>2021-09-30T10:07:01Z</time>
      </trkpt>
      <trkpt lat="42.4226770" lon="-2.8791620">
        <ele>699.2</ele>
        <time>2021-09-30T10:07:06Z</time>
      </trkpt>
      <trkpt lat="42.4226230" lon="-2.8792590">
        <ele>699.8</ele>
        <time>2021-09-30T10:07:10Z</time>
      </trkpt>
      <trkpt lat="42.4224970" lon="-2.8794880">
        <ele>700.4</ele>
        <time>2021-09-30T10:07:17Z</time>
      </trkpt>
      <trkpt lat="42.4222830" lon="-2.8798550">
        <ele>701.4</ele>
        <time>2021-09-30T10:07:28Z</time>
      </trkpt>
      <trkpt lat="42.4221380" lon="-2.8800970">
        <ele>702.4</ele>
        <time>2021-09-30T10:07:35Z</time>
      </trkpt>
      <trkpt lat="42.4221180" lon="-2.8801300">
        <ele>702.4</ele>
        <time>2021-09-30T10:07:36Z</time>
      </trkpt>
      <trkpt lat="42.4219410" lon="-2.8804290">
        <ele>703.4</ele>
        <time>2021-09-30T10:07:45Z</time>
      </trkpt>
      <trkpt lat="42.4217020" lon="-2.8808270">
        <ele>704.6</ele>
        <time>2021-09-30T10:07:57Z</time>
      </trkpt>
      <trkpt lat="42.4214710" lon="-2.8812160">
        <ele>705.6</ele>
        <time>2021-09-30T10:08:08Z</time>
      </trkpt>
      <trkpt lat="42.4212220" lon="-2.8816350">
        <ele>706.8</ele>
        <time>2021-09-30T10:08:19Z</time>
      </trkpt>
      <trkpt lat="42.4209860" lon="-2.8820320">
        <ele>707.8</ele>
        <time>2021-09-30T10:08:29Z</time>
      </trkpt>
      <trkpt lat="42.4207260" lon="-2.8824720">
        <ele>708.8</ele>
        <time>2021-09-30T10:08:40Z</time>
      </trkpt>
      <trkpt lat="42.4204230" lon="-2.8829860">
        <ele>709.8</ele>
        <time>2021-09-30T10:08:52Z</time>
      </trkpt>
      <trkpt lat="42.4202120" lon="-2.8833400">
        <ele>710.6</ele>
        <time>2021-09-30T10:09:00Z</time>
      </trkpt>
      <trkpt lat="42.4200240" lon="-2.8836560">
        <ele>710.8</ele>
        <time>2021-09-30T10:09:07Z</time>
      </trkpt>
      <trkpt lat="42.4197220" lon="-2.8841720">
        <ele>712.2</ele>
        <time>2021-09-30T10:09:19Z</time>
      </trkpt>
      <trkpt lat="42.4195660" lon="-2.8844300">
        <ele>713.0</ele>
        <time>2021-09-30T10:09:25Z</time>
      </trkpt>
      <trkpt lat="42.4195170" lon="-2.8845160">
        <ele>713.2</ele>
        <time>2021-09-30T10:09:27Z</time>
      </trkpt>
      <trkpt lat="42.4193320" lon="-2.8848340">
        <ele>714.2</ele>
        <time>2021-09-30T10:09:36Z</time>
      </trkpt>
      <trkpt lat="42.4191980" lon="-2.8850700">
        <ele>715.4</ele>
        <time>2021-09-30T10:09:42Z</time>
      </trkpt>
      <trkpt lat="42.4191720" lon="-2.8851090">
        <ele>715.6</ele>
        <time>2021-09-30T10:09:43Z</time>
      </trkpt>
      <trkpt lat="42.4190530" lon="-2.8853070">
        <ele>716.0</ele>
        <time>2021-09-30T10:09:48Z</time>
      </trkpt>
      <trkpt lat="42.4189800" lon="-2.8854230">
        <ele>716.4</ele>
        <time>2021-09-30T10:09:51Z</time>
      </trkpt>
      <trkpt lat="42.4188560" lon="-2.8856110">
        <ele>717.6</ele>
        <time>2021-09-30T10:09:56Z</time>
      </trkpt>
      <trkpt lat="42.4187170" lon="-2.8858060">
        <ele>718.6</ele>
        <time>2021-09-30T10:10:02Z</time>
      </trkpt>
      <trkpt lat="42.4186490" lon="-2.8858400">
        <ele>719.0</ele>
        <time>2021-09-30T10:10:05Z</time>
      </trkpt>
      <trkpt lat="42.4185820" lon="-2.8858210">
        <ele>719.8</ele>
        <time>2021-09-30T10:10:08Z</time>
      </trkpt>
      <trkpt lat="42.4184910" lon="-2.8857960">
        <ele>720.8</ele>
        <time>2021-09-30T10:10:11Z</time>
      </trkpt>
      <trkpt lat="42.4183950" lon="-2.8858080">
        <ele>721.2</ele>
        <time>2021-09-30T10:10:14Z</time>
      </trkpt>
      <trkpt lat="42.4180960" lon="-2.8862530">
        <ele>721.6</ele>
        <time>2021-09-30T10:10:26Z</time>
      </trkpt>
      <trkpt lat="42.4179370" lon="-2.8863730">
        <ele>722.2</ele>
        <time>2021-09-30T10:10:31Z</time>
      </trkpt>
      <trkpt lat="42.4177900" lon="-2.8865880">
        <ele>723.2</ele>
        <time>2021-09-30T10:10:37Z</time>
      </trkpt>
      <trkpt lat="42.4176740" lon="-2.8867720">
        <ele>723.8</ele>
        <time>2021-09-30T10:10:42Z</time>
      </trkpt>
      <trkpt lat="42.4175460" lon="-2.8869780">
        <ele>724.0</ele>
        <time>2021-09-30T10:10:48Z</time>
      </trkpt>
      <trkpt lat="42.4174670" lon="-2.8871080">
        <ele>724.4</ele>
        <time>2021-09-30T10:10:52Z</time>
      </trkpt>
      <trkpt lat="42.4174060" lon="-2.8872180">
        <ele>725.0</ele>
        <time>2021-09-30T10:10:56Z</time>
      </trkpt>
      <trkpt lat="42.4173680" lon="-2.8873140">
        <ele>725.4</ele>
        <time>2021-09-30T10:11:00Z</time>
      </trkpt>
      <trkpt lat="42.4172510" lon="-2.8875550">
        <ele>726.4</ele>
        <time>2021-09-30T10:11:09Z</time>
      </trkpt>
      <trkpt lat="42.4172370" lon="-2.8875860">
        <ele>726.4</ele>
        <time>2021-09-30T10:11:10Z</time>
      </trkpt>
      <trkpt lat="42.4170120" lon="-2.8879910">
        <ele>726.8</ele>
        <time>2021-09-30T10:11:21Z</time>
      </trkpt>
      <trkpt lat="42.4169650" lon="-2.8880820">
        <ele>726.8</ele>
        <time>2021-09-30T10:11:23Z</time>
      </trkpt>
      <trkpt lat="42.4168620" lon="-2.8882660">
        <ele>726.8</ele>
        <time>2021-09-30T10:11:27Z</time>
      </trkpt>
      <trkpt lat="42.4167420" lon="-2.8884540">
        <ele>726.8</ele>
        <time>2021-09-30T10:11:31Z</time>
      </trkpt>
      <trkpt lat="42.4165040" lon="-2.8888210">
        <ele>728.0</ele>
        <time>2021-09-30T10:11:39Z</time>
      </trkpt>
      <trkpt lat="42.4162230" lon="-2.8892680">
        <ele>729.0</ele>
        <time>2021-09-30T10:11:49Z</time>
      </trkpt>
      <trkpt lat="42.4160980" lon="-2.8894390">
        <ele>729.6</ele>
        <time>2021-09-30T10:11:53Z</time>
      </trkpt>
      <trkpt lat="42.4160250" lon="-2.8895110">
        <ele>730.0</ele>
        <time>2021-09-30T10:11:55Z</time>
      </trkpt>
      <trkpt lat="42.4159940" lon="-2.8895530">
        <ele>730.2</ele>
        <time>2021-09-30T10:11:56Z</time>
      </trkpt>
      <trkpt lat="42.4157690" lon="-2.8900060">
        <ele>730.8</ele>
        <time>2021-09-30T10:12:05Z</time>
      </trkpt>
      <trkpt lat="42.4157460" lon="-2.8903250">
        <ele>730.8</ele>
        <time>2021-09-30T10:12:10Z</time>
      </trkpt>
      <trkpt lat="42.4157600" lon="-2.8906690">
        <ele>731.0</ele>
        <time>2021-09-30T10:12:15Z</time>
      </trkpt>
      <trkpt lat="42.4157670" lon="-2.8907410">
        <ele>731.0</ele>
        <time>2021-09-30T10:12:16Z</time>
      </trkpt>
      <trkpt lat="42.4157850" lon="-2.8908880">
        <ele>731.2</ele>
        <time>2021-09-30T10:12:18Z</time>
      </trkpt>
      <trkpt lat="42.4157940" lon="-2.8913450">
        <ele>731.0</ele>
        <time>2021-09-30T10:12:24Z</time>
      </trkpt>
      <trkpt lat="42.4158150" lon="-2.8919990">
        <ele>730.8</ele>
        <time>2021-09-30T10:12:33Z</time>
      </trkpt>
      <trkpt lat="42.4158240" lon="-2.8923800">
        <ele>730.6</ele>
        <time>2021-09-30T10:12:38Z</time>
      </trkpt>
      <trkpt lat="42.4156080" lon="-2.8925370">
        <ele>730.8</ele>
        <time>2021-09-30T10:12:43Z</time>
      </trkpt>
      <trkpt lat="42.4155580" lon="-2.8925390">
        <ele>730.8</ele>
        <time>2021-09-30T10:12:44Z</time>
      </trkpt>
      <trkpt lat="42.4154560" lon="-2.8925350">
        <ele>730.8</ele>
        <time>2021-09-30T10:12:46Z</time>
      </trkpt>
      <trkpt lat="42.4153540" lon="-2.8925390">
        <ele>731.2</ele>
        <time>2021-09-30T10:12:48Z</time>
      </trkpt>
      <trkpt lat="42.4151600" lon="-2.8925460">
        <ele>731.8</ele>
        <time>2021-09-30T10:12:52Z</time>
      </trkpt>
      <trkpt lat="42.4150650" lon="-2.8925500">
        <ele>732.2</ele>
        <time>2021-09-30T10:12:54Z</time>
      </trkpt>
      <trkpt lat="42.4148750" lon="-2.8925620">
        <ele>733.0</ele>
        <time>2021-09-30T10:12:58Z</time>
      </trkpt>
      <trkpt lat="42.4148280" lon="-2.8925630">
        <ele>733.2</ele>
        <time>2021-09-30T10:12:59Z</time>
      </trkpt>
      <trkpt lat="42.4146430" lon="-2.8925690">
        <ele>734.4</ele>
        <time>2021-09-30T10:13:03Z</time>
      </trkpt>
      <trkpt lat="42.4145160" lon="-2.8925990">
        <ele>735.2</ele>
        <time>2021-09-30T10:13:06Z</time>
      </trkpt>
      <trkpt lat="42.4144830" lon="-2.8926310">
        <ele>735.6</ele>
        <time>2021-09-30T10:13:07Z</time>
      </trkpt>
      <trkpt lat="42.4144460" lon="-2.8929230">
        <ele>736.8</ele>
        <time>2021-09-30T10:13:12Z</time>
      </trkpt>
      <trkpt lat="42.4144560" lon="-2.8932000">
        <ele>738.0</ele>
        <time>2021-09-30T10:13:16Z</time>
      </trkpt>
      <trkpt lat="42.4144550" lon="-2.8934070">
        <ele>738.6</ele>
        <time>2021-09-30T10:13:19Z</time>
      </trkpt>
      <trkpt lat="42.4141850" lon="-2.8940400">
        <ele>738.8</ele>
        <time>2021-09-30T10:13:30Z</time>
      </trkpt>
      <trkpt lat="42.4140500" lon="-2.8942330">
        <ele>739.0</ele>
        <time>2021-09-30T10:13:34Z</time>
      </trkpt>
      <trkpt lat="42.4138810" lon="-2.8944820">
        <ele>740.2</ele>
        <time>2021-09-30T10:13:39Z</time>
      </trkpt>
      <trkpt lat="42.4137510" lon="-2.8946880">
        <ele>741.4</ele>
        <time>2021-09-30T10:13:43Z</time>
      </trkpt>
      <trkpt lat="42.4136210" lon="-2.8948760">
        <ele>742.4</ele>
        <time>2021-09-30T10:13:47Z</time>
      </trkpt>
      <trkpt lat="42.4135150" lon="-2.8950120">
        <ele>743.0</ele>
        <time>2021-09-30T10:13:50Z</time>
      </trkpt>
      <trkpt lat="42.4133740" lon="-2.8951360">
        <ele>743.0</ele>
        <time>2021-09-30T10:13:53Z</time>
      </trkpt>
      <trkpt lat="42.4131920" lon="-2.8952440">
        <ele>743.0</ele>
        <time>2021-09-30T10:13:56Z</time>
      </trkpt>
      <trkpt lat="42.4131350" lon="-2.8952910">
        <ele>743.0</ele>
        <time>2021-09-30T10:13:57Z</time>
      </trkpt>
      <trkpt lat="42.4130490" lon="-2.8954190">
        <ele>742.2</ele>
        <time>2021-09-30T10:13:59Z</time>
      </trkpt>
      <trkpt lat="42.4129940" lon="-2.8955600">
        <ele>741.2</ele>
        <time>2021-09-30T10:14:01Z</time>
      </trkpt>
      <trkpt lat="42.4128150" lon="-2.8960170">
        <ele>740.6</ele>
        <time>2021-09-30T10:14:09Z</time>
      </trkpt>
      <trkpt lat="42.4128010" lon="-2.8960700">
        <ele>740.6</ele>
        <time>2021-09-30T10:14:10Z</time>
      </trkpt>
      <trkpt lat="42.4127890" lon="-2.8962250">
        <ele>742.2</ele>
        <time>2021-09-30T10:14:13Z</time>
      </trkpt>
      <trkpt lat="42.4127920" lon="-2.8963330">
        <ele>743.6</ele>
        <time>2021-09-30T10:14:16Z</time>
      </trkpt>
      <trkpt lat="42.4128080" lon="-2.8963560">
        <ele>743.8</ele>
        <time>2021-09-30T10:14:17Z</time>
      </trkpt>
      <trkpt lat="42.4129720" lon="-2.8963650">
        <ele>744.8</ele>
        <time>2021-09-30T10:14:21Z</time>
      </trkpt>
      <trkpt lat="42.4131360" lon="-2.8963330">
        <ele>744.8</ele>
        <time>2021-09-30T10:14:24Z</time>
      </trkpt>
      <trkpt lat="42.4133310" lon="-2.8963030">
        <ele>744.8</ele>
        <time>2021-09-30T10:14:27Z</time>
      </trkpt>
      <trkpt lat="42.4134000" lon="-2.8962990">
        <ele>744.8</ele>
        <time>2021-09-30T10:14:28Z</time>
      </trkpt>
      <trkpt lat="42.4135950" lon="-2.8963730">
        <ele>744.0</ele>
        <time>2021-09-30T10:14:31Z</time>
      </trkpt>
      <trkpt lat="42.4136560" lon="-2.8964130">
        <ele>743.2</ele>
        <time>2021-09-30T10:14:32Z</time>
      </trkpt>
      <trkpt lat="42.4137210" lon="-2.8964470">
        <ele>742.2</ele>
        <time>2021-09-30T10:14:33Z</time>
      </trkpt>
      <trkpt lat="42.4137850" lon="-2.8964880">
        <ele>741.4</ele>
        <time>2021-09-30T10:14:34Z</time>
      </trkpt>
      <trkpt lat="42.4139130" lon="-2.8966870">
        <ele>740.4</ele>
        <time>2021-09-30T10:14:37Z</time>
      </trkpt>
      <trkpt lat="42.4140750" lon="-2.8969530">
        <ele>739.4</ele>
        <time>2021-09-30T10:14:41Z</time>
      </trkpt>
      <trkpt lat="42.4143170" lon="-2.8971080">
        <ele>738.0</ele>
        <time>2021-09-30T10:14:45Z</time>
      </trkpt>
      <trkpt lat="42.4144180" lon="-2.8973490">
        <ele>736.8</ele>
        <time>2021-09-30T10:14:48Z</time>
      </trkpt>
      <trkpt lat="42.4144400" lon="-2.8974390">
        <ele>735.6</ele>
        <time>2021-09-30T10:14:49Z</time>
      </trkpt>
      <trkpt lat="42.4144920" lon="-2.8976190">
        <ele>734.0</ele>
        <time>2021-09-30T10:14:51Z</time>
      </trkpt>
      <trkpt lat="42.4145540" lon="-2.8977930">
        <ele>732.8</ele>
        <time>2021-09-30T10:14:53Z</time>
      </trkpt>
      <trkpt lat="42.4146600" lon="-2.8980430">
        <ele>731.0</ele>
        <time>2021-09-30T10:14:56Z</time>
      </trkpt>
      <trkpt lat="42.4147390" lon="-2.8981890">
        <ele>730.0</ele>
        <time>2021-09-30T10:14:58Z</time>
      </trkpt>
      <trkpt lat="42.4148180" lon="-2.8983260">
        <ele>729.2</ele>
        <time>2021-09-30T10:15:00Z</time>
      </trkpt>
      <trkpt lat="42.4148620" lon="-2.8983850">
        <ele>728.8</ele>
        <time>2021-09-30T10:15:01Z</time>
      </trkpt>
      <trkpt lat="42.4150440" lon="-2.8985740">
        <ele>728.0</ele>
        <time>2021-09-30T10:15:05Z</time>
      </trkpt>
      <trkpt lat="42.4152410" lon="-2.8987130">
        <ele>727.8</ele>
        <time>2021-09-30T10:15:09Z</time>
      </trkpt>
      <trkpt lat="42.4153100" lon="-2.8988160">
        <ele>727.8</ele>
        <time>2021-09-30T10:15:11Z</time>
      </trkpt>
      <trkpt lat="42.4153430" lon="-2.8989480">
        <ele>727.6</ele>
        <time>2021-09-30T10:15:13Z</time>
      </trkpt>
      <trkpt lat="42.4153500" lon="-2.8990180">
        <ele>727.6</ele>
        <time>2021-09-30T10:15:14Z</time>
      </trkpt>
      <trkpt lat="42.4153570" lon="-2.8992910">
        <ele>727.8</ele>
        <time>2021-09-30T10:15:18Z</time>
      </trkpt>
      <trkpt lat="42.4153950" lon="-2.8994930">
        <ele>727.8</ele>
        <time>2021-09-30T10:15:21Z</time>
      </trkpt>
      <trkpt lat="42.4154060" lon="-2.8995620">
        <ele>728.0</ele>
        <time>2021-09-30T10:15:22Z</time>
      </trkpt>
      <trkpt lat="42.4155080" lon="-2.9003400">
        <ele>728.4</ele>
        <time>2021-09-30T10:15:33Z</time>
      </trkpt>
      <trkpt lat="42.4155510" lon="-2.9005540">
        <ele>728.0</ele>
        <time>2021-09-30T10:15:36Z</time>
      </trkpt>
      <trkpt lat="42.4156380" lon="-2.9013000">
        <ele>728.0</ele>
        <time>2021-09-30T10:15:46Z</time>
      </trkpt>
      <trkpt lat="42.4157330" lon="-2.9020450">
        <ele>728.0</ele>
        <time>2021-09-30T10:15:56Z</time>
      </trkpt>
      <trkpt lat="42.4158290" lon="-2.9027870">
        <ele>727.2</ele>
        <time>2021-09-30T10:16:06Z</time>
      </trkpt>
      <trkpt lat="42.4158740" lon="-2.9032370">
        <ele>726.6</ele>
        <time>2021-09-30T10:16:12Z</time>
      </trkpt>
      <trkpt lat="42.4159120" lon="-2.9035310">
        <ele>726.8</ele>
        <time>2021-09-30T10:16:16Z</time>
      </trkpt>
      <trkpt lat="42.4159390" lon="-2.9037470">
        <ele>726.8</ele>
        <time>2021-09-30T10:16:19Z</time>
      </trkpt>
      <trkpt lat="42.4159570" lon="-2.9038860">
        <ele>727.2</ele>
        <time>2021-09-30T10:16:21Z</time>
      </trkpt>
      <trkpt lat="42.4159740" lon="-2.9040210">
        <ele>727.8</ele>
        <time>2021-09-30T10:16:23Z</time>
      </trkpt>
      <trkpt lat="42.4160070" lon="-2.9042820">
        <ele>728.6</ele>
        <time>2021-09-30T10:16:27Z</time>
      </trkpt>
      <trkpt lat="42.4160150" lon="-2.9043460">
        <ele>728.8</ele>
        <time>2021-09-30T10:16:28Z</time>
      </trkpt>
      <trkpt lat="42.4160380" lon="-2.9045210">
        <ele>730.2</ele>
        <time>2021-09-30T10:16:31Z</time>
      </trkpt>
      <trkpt lat="42.4160530" lon="-2.9046280">
        <ele>731.8</ele>
        <time>2021-09-30T10:16:33Z</time>
      </trkpt>
      <trkpt lat="42.4160660" lon="-2.9047930">
        <ele>733.0</ele>
        <time>2021-09-30T10:16:36Z</time>
      </trkpt>
      <trkpt lat="42.4160990" lon="-2.9050160">
        <ele>734.2</ele>
        <time>2021-09-30T10:16:40Z</time>
      </trkpt>
      <trkpt lat="42.4161750" lon="-2.9053440">
        <ele>734.4</ele>
        <time>2021-09-30T10:16:45Z</time>
      </trkpt>
      <trkpt lat="42.4162760" lon="-2.9056790">
        <ele>734.0</ele>
        <time>2021-09-30T10:16:49Z</time>
      </trkpt>
      <trkpt lat="42.4163390" lon="-2.9058670">
        <ele>733.2</ele>
        <time>2021-09-30T10:16:51Z</time>
      </trkpt>
      <trkpt lat="42.4164080" lon="-2.9060650">
        <ele>731.8</ele>
        <time>2021-09-30T10:16:53Z</time>
      </trkpt>
      <trkpt lat="42.4164850" lon="-2.9062820">
        <ele>730.2</ele>
        <time>2021-09-30T10:16:55Z</time>
      </trkpt>
      <trkpt lat="42.4165280" lon="-2.9063980">
        <ele>729.2</ele>
        <time>2021-09-30T10:16:56Z</time>
      </trkpt>
      <trkpt lat="42.4165740" lon="-2.9065200">
        <ele>728.0</ele>
        <time>2021-09-30T10:16:57Z</time>
      </trkpt>
      <trkpt lat="42.4166190" lon="-2.9066470">
        <ele>727.0</ele>
        <time>2021-09-30T10:16:58Z</time>
      </trkpt>
      <trkpt lat="42.4166660" lon="-2.9067780">
        <ele>725.6</ele>
        <time>2021-09-30T10:16:59Z</time>
      </trkpt>
      <trkpt lat="42.4167140" lon="-2.9069110">
        <ele>724.6</ele>
        <time>2021-09-30T10:17:00Z</time>
      </trkpt>
      <trkpt lat="42.4167630" lon="-2.9070450">
        <ele>723.4</ele>
        <time>2021-09-30T10:17:01Z</time>
      </trkpt>
      <trkpt lat="42.4168110" lon="-2.9071800">
        <ele>722.0</ele>
        <time>2021-09-30T10:17:02Z</time>
      </trkpt>
      <trkpt lat="42.4168580" lon="-2.9073150">
        <ele>720.4</ele>
        <time>2021-09-30T10:17:03Z</time>
      </trkpt>
      <trkpt lat="42.4169050" lon="-2.9074470">
        <ele>718.8</ele>
        <time>2021-09-30T10:17:04Z</time>
      </trkpt>
      <trkpt lat="42.4169510" lon="-2.9075770">
        <ele>717.2</ele>
        <time>2021-09-30T10:17:05Z</time>
      </trkpt>
      <trkpt lat="42.4169950" lon="-2.9077050">
        <ele>715.8</ele>
        <time>2021-09-30T10:17:06Z</time>
      </trkpt>
      <trkpt lat="42.4170380" lon="-2.9078300">
        <ele>714.4</ele>
        <time>2021-09-30T10:17:07Z</time>
      </trkpt>
      <trkpt lat="42.4170800" lon="-2.9079520">
        <ele>713.4</ele>
        <time>2021-09-30T10:17:08Z</time>
      </trkpt>
      <trkpt lat="42.4171210" lon="-2.9080710">
        <ele>712.0</ele>
        <time>2021-09-30T10:17:09Z</time>
      </trkpt>
      <trkpt lat="42.4171610" lon="-2.9081880">
        <ele>710.6</ele>
        <time>2021-09-30T10:17:10Z</time>
      </trkpt>
      <trkpt lat="42.4172430" lon="-2.9084190">
        <ele>709.6</ele>
        <time>2021-09-30T10:17:12Z</time>
      </trkpt>
      <trkpt lat="42.4174070" lon="-2.9088650">
        <ele>708.6</ele>
        <time>2021-09-30T10:17:16Z</time>
      </trkpt>
      <trkpt lat="42.4174430" lon="-2.9089690">
        <ele>708.6</ele>
        <time>2021-09-30T10:17:17Z</time>
      </trkpt>
      <trkpt lat="42.4175760" lon="-2.9093510">
        <ele>709.0</ele>
        <time>2021-09-30T10:17:21Z</time>
      </trkpt>
      <trkpt lat="42.4176650" lon="-2.9096040">
        <ele>709.6</ele>
        <time>2021-09-30T10:17:24Z</time>
      </trkpt>
      <trkpt lat="42.4177180" lon="-2.9097600">
        <ele>710.6</ele>
        <time>2021-09-30T10:17:26Z</time>
      </trkpt>
      <trkpt lat="42.4177670" lon="-2.9099090">
        <ele>711.8</ele>
        <time>2021-09-30T10:17:28Z</time>
      </trkpt>
      <trkpt lat="42.4178160" lon="-2.9100480">
        <ele>712.8</ele>
        <time>2021-09-30T10:17:30Z</time>
      </trkpt>
      <trkpt lat="42.4178630" lon="-2.9101830">
        <ele>714.0</ele>
        <time>2021-09-30T10:17:32Z</time>
      </trkpt>
      <trkpt lat="42.4179080" lon="-2.9103170">
        <ele>715.4</ele>
        <time>2021-09-30T10:17:34Z</time>
      </trkpt>
      <trkpt lat="42.4179950" lon="-2.9105830">
        <ele>716.4</ele>
        <time>2021-09-30T10:17:38Z</time>
      </trkpt>
      <trkpt lat="42.4180530" lon="-2.9107780">
        <ele>717.4</ele>
        <time>2021-09-30T10:17:41Z</time>
      </trkpt>
      <trkpt lat="42.4180730" lon="-2.9108360">
        <ele>717.4</ele>
        <time>2021-09-30T10:17:42Z</time>
      </trkpt>
      <trkpt lat="42.4182330" lon="-2.9111490">
        <ele>718.4</ele>
        <time>2021-09-30T10:17:48Z</time>
      </trkpt>
      <trkpt lat="42.4183680" lon="-2.9113640">
        <ele>718.6</ele>
        <time>2021-09-30T10:17:52Z</time>
      </trkpt>
      <trkpt lat="42.4185070" lon="-2.9116100">
        <ele>718.8</ele>
        <time>2021-09-30T10:17:56Z</time>
      </trkpt>
      <trkpt lat="42.4186310" lon="-2.9118200">
        <ele>717.8</ele>
        <time>2021-09-30T10:17:59Z</time>
      </trkpt>
      <trkpt lat="42.4187240" lon="-2.9119700">
        <ele>717.2</ele>
        <time>2021-09-30T10:18:01Z</time>
      </trkpt>
      <trkpt lat="42.4188620" lon="-2.9122110">
        <ele>715.6</ele>
        <time>2021-09-30T10:18:04Z</time>
      </trkpt>
      <trkpt lat="42.4189490" lon="-2.9123780">
        <ele>714.2</ele>
        <time>2021-09-30T10:18:06Z</time>
      </trkpt>
      <trkpt lat="42.4190880" lon="-2.9126070">
        <ele>713.0</ele>
        <time>2021-09-30T10:18:09Z</time>
      </trkpt>
      <trkpt lat="42.4194410" lon="-2.9131910">
        <ele>713.0</ele>
        <time>2021-09-30T10:18:18Z</time>
      </trkpt>
      <trkpt lat="42.4195690" lon="-2.9133940">
        <ele>713.4</ele>
        <time>2021-09-30T10:18:22Z</time>
      </trkpt>
      <trkpt lat="42.4196590" lon="-2.9135280">
        <ele>713.6</ele>
        <time>2021-09-30T10:18:25Z</time>
      </trkpt>
      <trkpt lat="42.4196870" lon="-2.9135740">
        <ele>714.0</ele>
        <time>2021-09-30T10:18:26Z</time>
      </trkpt>
      <trkpt lat="42.4197670" lon="-2.9137100">
        <ele>715.0</ele>
        <time>2021-09-30T10:18:29Z</time>
      </trkpt>
      <trkpt lat="42.4198210" lon="-2.9137980">
        <ele>716.6</ele>
        <time>2021-09-30T10:18:31Z</time>
      </trkpt>
      <trkpt lat="42.4198990" lon="-2.9139300">
        <ele>717.6</ele>
        <time>2021-09-30T10:18:34Z</time>
      </trkpt>
      <trkpt lat="42.4199980" lon="-2.9140940">
        <ele>718.8</ele>
        <time>2021-09-30T10:18:38Z</time>
      </trkpt>
      <trkpt lat="42.4200810" lon="-2.9142480">
        <ele>719.8</ele>
        <time>2021-09-30T10:18:42Z</time>
      </trkpt>
      <trkpt lat="42.4201770" lon="-2.9143940">
        <ele>720.8</ele>
        <time>2021-09-30T10:18:46Z</time>
      </trkpt>
      <trkpt lat="42.4202540" lon="-2.9145470">
        <ele>722.2</ele>
        <time>2021-09-30T10:18:50Z</time>
      </trkpt>
      <trkpt lat="42.4203210" lon="-2.9146560">
        <ele>723.2</ele>
        <time>2021-09-30T10:18:53Z</time>
      </trkpt>
      <trkpt lat="42.4203970" lon="-2.9147640">
        <ele>724.2</ele>
        <time>2021-09-30T10:18:56Z</time>
      </trkpt>
      <trkpt lat="42.4205130" lon="-2.9149510">
        <ele>725.4</ele>
        <time>2021-09-30T10:19:01Z</time>
      </trkpt>
      <trkpt lat="42.4205800" lon="-2.9150630">
        <ele>726.6</ele>
        <time>2021-09-30T10:19:04Z</time>
      </trkpt>
      <trkpt lat="42.4206700" lon="-2.9152150">
        <ele>727.8</ele>
        <time>2021-09-30T10:19:08Z</time>
      </trkpt>
      <trkpt lat="42.4208300" lon="-2.9155020">
        <ele>728.8</ele>
        <time>2021-09-30T10:19:16Z</time>
      </trkpt>
      <trkpt lat="42.4210040" lon="-2.9157690">
        <ele>730.0</ele>
        <time>2021-09-30T10:19:23Z</time>
      </trkpt>
      <trkpt lat="42.4212950" lon="-2.9162570">
        <ele>731.2</ele>
        <time>2021-09-30T10:19:35Z</time>
      </trkpt>
      <trkpt lat="42.4213680" lon="-2.9163690">
        <ele>732.2</ele>
        <time>2021-09-30T10:19:38Z</time>
      </trkpt>
      <trkpt lat="42.4215160" lon="-2.9166070">
        <ele>733.4</ele>
        <time>2021-09-30T10:19:44Z</time>
      </trkpt>
      <trkpt lat="42.4216620" lon="-2.9168460">
        <ele>734.4</ele>
        <time>2021-09-30T10:19:50Z</time>
      </trkpt>
      <trkpt lat="42.4219030" lon="-2.9172450">
        <ele>734.6</ele>
        <time>2021-09-30T10:19:59Z</time>
      </trkpt>
      <trkpt lat="42.4219960" lon="-2.9173910">
        <ele>734.6</ele>
        <time>2021-09-30T10:20:02Z</time>
      </trkpt>
      <trkpt lat="42.4221570" lon="-2.9176550">
        <ele>733.8</ele>
        <time>2021-09-30T10:20:07Z</time>
      </trkpt>
      <trkpt lat="42.4222250" lon="-2.9177710">
        <ele>733.2</ele>
        <time>2021-09-30T10:20:09Z</time>
      </trkpt>
      <trkpt lat="42.4222950" lon="-2.9178930">
        <ele>732.6</ele>
        <time>2021-09-30T10:20:11Z</time>
      </trkpt>
      <trkpt lat="42.4223730" lon="-2.9180220">
        <ele>732.0</ele>
        <time>2021-09-30T10:20:13Z</time>
      </trkpt>
      <trkpt lat="42.4224960" lon="-2.9182260">
        <ele>731.6</ele>
        <time>2021-09-30T10:20:16Z</time>
      </trkpt>
      <trkpt lat="42.4225820" lon="-2.9183680">
        <ele>731.0</ele>
        <time>2021-09-30T10:20:18Z</time>
      </trkpt>
      <trkpt lat="42.4226250" lon="-2.9184400">
        <ele>730.8</ele>
        <time>2021-09-30T10:20:19Z</time>
      </trkpt>
      <trkpt lat="42.4227080" lon="-2.9185880">
        <ele>730.0</ele>
        <time>2021-09-30T10:20:21Z</time>
      </trkpt>
      <trkpt lat="42.4227470" lon="-2.9186630">
        <ele>729.6</ele>
        <time>2021-09-30T10:20:22Z</time>
      </trkpt>
      <trkpt lat="42.4228720" lon="-2.9188810">
        <ele>728.4</ele>
        <time>2021-09-30T10:20:25Z</time>
      </trkpt>
      <trkpt lat="42.4230040" lon="-2.9190990">
        <ele>727.0</ele>
        <time>2021-09-30T10:20:28Z</time>
      </trkpt>
      <trkpt lat="42.4231890" lon="-2.9193780">
        <ele>725.8</ele>
        <time>2021-09-30T10:20:32Z</time>
      </trkpt>
      <trkpt lat="42.4232440" lon="-2.9194450">
        <ele>725.6</ele>
        <time>2021-09-30T10:20:33Z</time>
      </trkpt>
      <trkpt lat="42.4233660" lon="-2.9195830">
        <ele>724.4</ele>
        <time>2021-09-30T10:20:35Z</time>
      </trkpt>
      <trkpt lat="42.4235010" lon="-2.9197340">
        <ele>723.0</ele>
        <time>2021-09-30T10:20:37Z</time>
      </trkpt>
      <trkpt lat="42.4237260" lon="-2.9199860">
        <ele>722.0</ele>
        <time>2021-09-30T10:20:40Z</time>
      </trkpt>
      <trkpt lat="42.4238780" lon="-2.9201610">
        <ele>720.2</ele>
        <time>2021-09-30T10:20:42Z</time>
      </trkpt>
      <trkpt lat="42.4239560" lon="-2.9202500">
        <ele>719.0</ele>
        <time>2021-09-30T10:20:43Z</time>
      </trkpt>
      <trkpt lat="42.4240350" lon="-2.9203430">
        <ele>717.4</ele>
        <time>2021-09-30T10:20:44Z</time>
      </trkpt>
      <trkpt lat="42.4241180" lon="-2.9204390">
        <ele>715.4</ele>
        <time>2021-09-30T10:20:45Z</time>
      </trkpt>
      <trkpt lat="42.4242030" lon="-2.9205350">
        <ele>713.8</ele>
        <time>2021-09-30T10:20:46Z</time>
      </trkpt>
      <trkpt lat="42.4242900" lon="-2.9206330">
        <ele>711.2</ele>
        <time>2021-09-30T10:20:47Z</time>
      </trkpt>
      <trkpt lat="42.4244610" lon="-2.9208260">
        <ele>709.2</ele>
        <time>2021-09-30T10:20:49Z</time>
      </trkpt>
      <trkpt lat="42.4245420" lon="-2.9209180">
        <ele>707.8</ele>
        <time>2021-09-30T10:20:50Z</time>
      </trkpt>
      <trkpt lat="42.4246210" lon="-2.9210070">
        <ele>706.4</ele>
        <time>2021-09-30T10:20:51Z</time>
      </trkpt>
      <trkpt lat="42.4246960" lon="-2.9210920">
        <ele>704.8</ele>
        <time>2021-09-30T10:20:52Z</time>
      </trkpt>
      <trkpt lat="42.4247680" lon="-2.9211750">
        <ele>703.0</ele>
        <time>2021-09-30T10:20:53Z</time>
      </trkpt>
      <trkpt lat="42.4248400" lon="-2.9212570">
        <ele>701.2</ele>
        <time>2021-09-30T10:20:54Z</time>
      </trkpt>
      <trkpt lat="42.4249150" lon="-2.9213410">
        <ele>699.4</ele>
        <time>2021-09-30T10:20:55Z</time>
      </trkpt>
      <trkpt lat="42.4249920" lon="-2.9214280">
        <ele>697.8</ele>
        <time>2021-09-30T10:20:56Z</time>
      </trkpt>
      <trkpt lat="42.4250700" lon="-2.9215170">
        <ele>696.0</ele>
        <time>2021-09-30T10:20:57Z</time>
      </trkpt>
      <trkpt lat="42.4251500" lon="-2.9216040">
        <ele>694.8</ele>
        <time>2021-09-30T10:20:58Z</time>
      </trkpt>
      <trkpt lat="42.4253080" lon="-2.9217680">
        <ele>693.4</ele>
        <time>2021-09-30T10:21:00Z</time>
      </trkpt>
      <trkpt lat="42.4254490" lon="-2.9219120">
        <ele>691.6</ele>
        <time>2021-09-30T10:21:02Z</time>
      </trkpt>
      <trkpt lat="42.4255190" lon="-2.9219850">
        <ele>690.0</ele>
        <time>2021-09-30T10:21:03Z</time>
      </trkpt>
      <trkpt lat="42.4255860" lon="-2.9220630">
        <ele>688.2</ele>
        <time>2021-09-30T10:21:04Z</time>
      </trkpt>
      <trkpt lat="42.4256540" lon="-2.9221410">
        <ele>686.8</ele>
        <time>2021-09-30T10:21:05Z</time>
      </trkpt>
      <trkpt lat="42.4257220" lon="-2.9222170">
        <ele>685.8</ele>
        <time>2021-09-30T10:21:06Z</time>
      </trkpt>
      <trkpt lat="42.4258560" lon="-2.9223680">
        <ele>684.2</ele>
        <time>2021-09-30T10:21:08Z</time>
      </trkpt>
      <trkpt lat="42.4260430" lon="-2.9225960">
        <ele>683.0</ele>
        <time>2021-09-30T10:21:11Z</time>
      </trkpt>
      <trkpt lat="42.4262320" lon="-2.9228110">
        <ele>681.8</ele>
        <time>2021-09-30T10:21:14Z</time>
      </trkpt>
      <trkpt lat="42.4264200" lon="-2.9230260">
        <ele>681.0</ele>
        <time>2021-09-30T10:21:17Z</time>
      </trkpt>
      <trkpt lat="42.4264830" lon="-2.9230980">
        <ele>680.8</ele>
        <time>2021-09-30T10:21:18Z</time>
      </trkpt>
      <trkpt lat="42.4266040" lon="-2.9232360">
        <ele>680.2</ele>
        <time>2021-09-30T10:21:20Z</time>
      </trkpt>
      <trkpt lat="42.4266600" lon="-2.9233060">
        <ele>678.8</ele>
        <time>2021-09-30T10:21:21Z</time>
      </trkpt>
      <trkpt lat="42.4267700" lon="-2.9234460">
        <ele>678.0</ele>
        <time>2021-09-30T10:21:23Z</time>
      </trkpt>
      <trkpt lat="42.4268300" lon="-2.9235100">
        <ele>677.6</ele>
        <time>2021-09-30T10:21:24Z</time>
      </trkpt>
      <trkpt lat="42.4269520" lon="-2.9236360">
        <ele>677.4</ele>
        <time>2021-09-30T10:21:26Z</time>
      </trkpt>
      <trkpt lat="42.4270730" lon="-2.9237700">
        <ele>677.2</ele>
        <time>2021-09-30T10:21:28Z</time>
      </trkpt>
      <trkpt lat="42.4271960" lon="-2.9239110">
        <ele>676.6</ele>
        <time>2021-09-30T10:21:30Z</time>
      </trkpt>
      <trkpt lat="42.4272580" lon="-2.9239820">
        <ele>676.2</ele>
        <time>2021-09-30T10:21:31Z</time>
      </trkpt>
      <trkpt lat="42.4274410" lon="-2.9241910">
        <ele>675.0</ele>
        <time>2021-09-30T10:21:34Z</time>
      </trkpt>
      <trkpt lat="42.4276250" lon="-2.9244020">
        <ele>673.8</ele>
        <time>2021-09-30T10:21:37Z</time>
      </trkpt>
      <trkpt lat="42.4278140" lon="-2.9246140">
        <ele>672.8</ele>
        <time>2021-09-30T10:21:40Z</time>
      </trkpt>
      <trkpt lat="42.4282110" lon="-2.9250630">
        <ele>671.8</ele>
        <time>2021-09-30T10:21:46Z</time>
      </trkpt>
      <trkpt lat="42.4283430" lon="-2.9252140">
        <ele>671.2</ele>
        <time>2021-09-30T10:21:48Z</time>
      </trkpt>
      <trkpt lat="42.4284720" lon="-2.9253580">
        <ele>670.6</ele>
        <time>2021-09-30T10:21:50Z</time>
      </trkpt>
      <trkpt lat="42.4285930" lon="-2.9254950">
        <ele>670.4</ele>
        <time>2021-09-30T10:21:52Z</time>
      </trkpt>
      <trkpt lat="42.4287100" lon="-2.9256260">
        <ele>670.2</ele>
        <time>2021-09-30T10:21:54Z</time>
      </trkpt>
      <trkpt lat="42.4288240" lon="-2.9257560">
        <ele>670.2</ele>
        <time>2021-09-30T10:21:56Z</time>
      </trkpt>
      <trkpt lat="42.4288790" lon="-2.9258190">
        <ele>670.2</ele>
        <time>2021-09-30T10:21:57Z</time>
      </trkpt>
      <trkpt lat="42.4290350" lon="-2.9260060">
        <ele>670.8</ele>
        <time>2021-09-30T10:22:00Z</time>
      </trkpt>
      <trkpt lat="42.4291900" lon="-2.9261880">
        <ele>671.8</ele>
        <time>2021-09-30T10:22:03Z</time>
      </trkpt>
      <trkpt lat="42.4296180" lon="-2.9266660">
        <ele>672.8</ele>
        <time>2021-09-30T10:22:11Z</time>
      </trkpt>
      <trkpt lat="42.4300550" lon="-2.9271600">
        <ele>672.2</ele>
        <time>2021-09-30T10:22:19Z</time>
      </trkpt>
      <trkpt lat="42.4303310" lon="-2.9274770">
        <ele>671.8</ele>
        <time>2021-09-30T10:22:24Z</time>
      </trkpt>
      <trkpt lat="42.4305190" lon="-2.9276700">
        <ele>671.6</ele>
        <time>2021-09-30T10:22:27Z</time>
      </trkpt>
      <trkpt lat="42.4306470" lon="-2.9278150">
        <ele>671.2</ele>
        <time>2021-09-30T10:22:29Z</time>
      </trkpt>
      <trkpt lat="42.4307110" lon="-2.9278950">
        <ele>670.6</ele>
        <time>2021-09-30T10:22:30Z</time>
      </trkpt>
      <trkpt lat="42.4308420" lon="-2.9280590">
        <ele>669.4</ele>
        <time>2021-09-30T10:22:32Z</time>
      </trkpt>
      <trkpt lat="42.4309860" lon="-2.9282250">
        <ele>668.0</ele>
        <time>2021-09-30T10:22:34Z</time>
      </trkpt>
      <trkpt lat="42.4310620" lon="-2.9283120">
        <ele>667.0</ele>
        <time>2021-09-30T10:22:35Z</time>
      </trkpt>
      <trkpt lat="42.4311400" lon="-2.9284020">
        <ele>665.6</ele>
        <time>2021-09-30T10:22:36Z</time>
      </trkpt>
      <trkpt lat="42.4313040" lon="-2.9285890">
        <ele>664.2</ele>
        <time>2021-09-30T10:22:38Z</time>
      </trkpt>
      <trkpt lat="42.4315650" lon="-2.9288890">
        <ele>662.2</ele>
        <time>2021-09-30T10:22:41Z</time>
      </trkpt>
      <trkpt lat="42.4316570" lon="-2.9289940">
        <ele>660.8</ele>
        <time>2021-09-30T10:22:42Z</time>
      </trkpt>
      <trkpt lat="42.4317520" lon="-2.9291010">
        <ele>659.4</ele>
        <time>2021-09-30T10:22:43Z</time>
      </trkpt>
      <trkpt lat="42.4318480" lon="-2.9292090">
        <ele>657.6</ele>
        <time>2021-09-30T10:22:44Z</time>
      </trkpt>
      <trkpt lat="42.4319450" lon="-2.9293170">
        <ele>655.6</ele>
        <time>2021-09-30T10:22:45Z</time>
      </trkpt>
      <trkpt lat="42.4320400" lon="-2.9294250">
        <ele>654.0</ele>
        <time>2021-09-30T10:22:46Z</time>
      </trkpt>
      <trkpt lat="42.4321330" lon="-2.9295300">
        <ele>652.6</ele>
        <time>2021-09-30T10:22:47Z</time>
      </trkpt>
      <trkpt lat="42.4322240" lon="-2.9296340">
        <ele>651.2</ele>
        <time>2021-09-30T10:22:48Z</time>
      </trkpt>
      <trkpt lat="42.4323130" lon="-2.9297340">
        <ele>649.8</ele>
        <time>2021-09-30T10:22:49Z</time>
      </trkpt>
      <trkpt lat="42.4323980" lon="-2.9298300">
        <ele>648.0</ele>
        <time>2021-09-30T10:22:50Z</time>
      </trkpt>
      <trkpt lat="42.4324800" lon="-2.9299230">
        <ele>646.4</ele>
        <time>2021-09-30T10:22:51Z</time>
      </trkpt>
      <trkpt lat="42.4325610" lon="-2.9300140">
        <ele>644.4</ele>
        <time>2021-09-30T10:22:52Z</time>
      </trkpt>
      <trkpt lat="42.4326390" lon="-2.9301030">
        <ele>643.4</ele>
        <time>2021-09-30T10:22:53Z</time>
      </trkpt>
      <trkpt lat="42.4328690" lon="-2.9303620">
        <ele>642.6</ele>
        <time>2021-09-30T10:22:56Z</time>
      </trkpt>
      <trkpt lat="42.4330170" lon="-2.9305320">
        <ele>642.4</ele>
        <time>2021-09-30T10:22:58Z</time>
      </trkpt>
      <trkpt lat="42.4334420" lon="-2.9310190">
        <ele>641.4</ele>
        <time>2021-09-30T10:23:04Z</time>
      </trkpt>
      <trkpt lat="42.4335870" lon="-2.9311850">
        <ele>641.4</ele>
        <time>2021-09-30T10:23:06Z</time>
      </trkpt>
      <trkpt lat="42.4337430" lon="-2.9313650">
        <ele>641.4</ele>
        <time>2021-09-30T10:23:08Z</time>
      </trkpt>
      <trkpt lat="42.4340890" lon="-2.9317370">
        <ele>641.0</ele>
        <time>2021-09-30T10:23:12Z</time>
      </trkpt>
      <trkpt lat="42.4343450" lon="-2.9319920">
        <ele>639.4</ele>
        <time>2021-09-30T10:23:15Z</time>
      </trkpt>
      <trkpt lat="42.4344270" lon="-2.9320710">
        <ele>638.0</ele>
        <time>2021-09-30T10:23:16Z</time>
      </trkpt>
      <trkpt lat="42.4345070" lon="-2.9321480">
        <ele>636.8</ele>
        <time>2021-09-30T10:23:17Z</time>
      </trkpt>
      <trkpt lat="42.4346630" lon="-2.9322980">
        <ele>635.6</ele>
        <time>2021-09-30T10:23:19Z</time>
      </trkpt>
      <trkpt lat="42.4351490" lon="-2.9327920">
        <ele>634.6</ele>
        <time>2021-09-30T10:23:26Z</time>
      </trkpt>
      <trkpt lat="42.4356280" lon="-2.9332930">
        <ele>634.4</ele>
        <time>2021-09-30T10:23:34Z</time>
      </trkpt>
      <trkpt lat="42.4358570" lon="-2.9335470">
        <ele>634.6</ele>
        <time>2021-09-30T10:23:38Z</time>
      </trkpt>
      <trkpt lat="42.4361190" lon="-2.9338760">
        <ele>634.8</ele>
        <time>2021-09-30T10:23:43Z</time>
      </trkpt>
      <trkpt lat="42.4364600" lon="-2.9344450">
        <ele>635.0</ele>
        <time>2021-09-30T10:23:51Z</time>
      </trkpt>
      <trkpt lat="42.4365570" lon="-2.9346720">
        <ele>635.4</ele>
        <time>2021-09-30T10:23:54Z</time>
      </trkpt>
      <trkpt lat="42.4367780" lon="-2.9353680">
        <ele>635.4</ele>
        <time>2021-09-30T10:24:03Z</time>
      </trkpt>
      <trkpt lat="42.4369870" lon="-2.9360790">
        <ele>636.0</ele>
        <time>2021-09-30T10:24:12Z</time>
      </trkpt>
      <trkpt lat="42.4371930" lon="-2.9368080">
        <ele>636.2</ele>
        <time>2021-09-30T10:24:21Z</time>
      </trkpt>
      <trkpt lat="42.4373720" lon="-2.9373320">
        <ele>636.4</ele>
        <time>2021-09-30T10:24:28Z</time>
      </trkpt>
      <trkpt lat="42.4375290" lon="-2.9380560">
        <ele>636.4</ele>
        <time>2021-09-30T10:24:37Z</time>
      </trkpt>
      <trkpt lat="42.4377280" lon="-2.9387420">
        <ele>636.6</ele>
        <time>2021-09-30T10:24:46Z</time>
      </trkpt>
      <trkpt lat="42.4377970" lon="-2.9388540">
        <ele>636.6</ele>
        <time>2021-09-30T10:24:48Z</time>
      </trkpt>
      <trkpt lat="42.4378790" lon="-2.9389410">
        <ele>636.8</ele>
        <time>2021-09-30T10:24:50Z</time>
      </trkpt>
      <trkpt lat="42.4380140" lon="-2.9390170">
        <ele>636.8</ele>
        <time>2021-09-30T10:24:53Z</time>
      </trkpt>
      <trkpt lat="42.4380980" lon="-2.9390270">
        <ele>636.8</ele>
        <time>2021-09-30T10:24:55Z</time>
      </trkpt>
      <trkpt lat="42.4382550" lon="-2.9391120">
        <ele>637.0</ele>
        <time>2021-09-30T10:25:00Z</time>
      </trkpt>
      <trkpt lat="42.4383290" lon="-2.9392580">
        <ele>637.0</ele>
        <time>2021-09-30T10:25:03Z</time>
      </trkpt>
      <trkpt lat="42.4383550" lon="-2.9393850">
        <ele>637.4</ele>
        <time>2021-09-30T10:25:05Z</time>
      </trkpt>
      <trkpt lat="42.4383690" lon="-2.9394510">
        <ele>637.4</ele>
        <time>2021-09-30T10:25:06Z</time>
      </trkpt>
      <trkpt lat="42.4385120" lon="-2.9401720">
        <ele>637.4</ele>
        <time>2021-09-30T10:25:16Z</time>
      </trkpt>
      <trkpt lat="42.4386460" lon="-2.9409270">
        <ele>637.2</ele>
        <time>2021-09-30T10:25:26Z</time>
      </trkpt>
      <trkpt lat="42.4387810" lon="-2.9416650">
        <ele>636.4</ele>
        <time>2021-09-30T10:25:36Z</time>
      </trkpt>
      <trkpt lat="42.4388240" lon="-2.9418930">
        <ele>636.4</ele>
        <time>2021-09-30T10:25:39Z</time>
      </trkpt>
      <trkpt lat="42.4389540" lon="-2.9426380">
        <ele>636.8</ele>
        <time>2021-09-30T10:25:49Z</time>
      </trkpt>
      <trkpt lat="42.4390770" lon="-2.9433580">
        <ele>637.6</ele>
        <time>2021-09-30T10:25:59Z</time>
      </trkpt>
      <trkpt lat="42.4391640" lon="-2.9436550">
        <ele>638.0</ele>
        <time>2021-09-30T10:26:06Z</time>
      </trkpt>
      <trkpt lat="42.4393210" lon="-2.9438020">
        <ele>638.2</ele>
        <time>2021-09-30T10:26:10Z</time>
      </trkpt>
      <trkpt lat="42.4393680" lon="-2.9440450">
        <ele>638.2</ele>
        <time>2021-09-30T10:26:13Z</time>
      </trkpt>
      <trkpt lat="42.4393630" lon="-2.9442170">
        <ele>638.2</ele>
        <time>2021-09-30T10:26:15Z</time>
      </trkpt>
      <trkpt lat="42.4393480" lon="-2.9446830">
        <ele>638.2</ele>
        <time>2021-09-30T10:26:21Z</time>
      </trkpt>
      <trkpt lat="42.4393640" lon="-2.9448340">
        <ele>638.0</ele>
        <time>2021-09-30T10:26:23Z</time>
      </trkpt>
      <trkpt lat="42.4395380" lon="-2.9455890">
        <ele>637.8</ele>
        <time>2021-09-30T10:26:33Z</time>
      </trkpt>
      <trkpt lat="42.4397030" lon="-2.9463410">
        <ele>637.8</ele>
        <time>2021-09-30T10:26:43Z</time>
      </trkpt>
      <trkpt lat="42.4397810" lon="-2.9467070">
        <ele>638.6</ele>
        <time>2021-09-30T10:26:48Z</time>
      </trkpt>
      <trkpt lat="42.4397950" lon="-2.9467780">
        <ele>638.8</ele>
        <time>2021-09-30T10:26:49Z</time>
      </trkpt>
      <trkpt lat="42.4398750" lon="-2.9470600">
        <ele>639.8</ele>
        <time>2021-09-30T10:26:53Z</time>
      </trkpt>
      <trkpt lat="42.4400300" lon="-2.9477670">
        <ele>640.2</ele>
        <time>2021-09-30T10:27:02Z</time>
      </trkpt>
      <trkpt lat="42.4402080" lon="-2.9485330">
        <ele>640.4</ele>
        <time>2021-09-30T10:27:12Z</time>
      </trkpt>
      <trkpt lat="42.4402510" lon="-2.9487950">
        <ele>640.4</ele>
        <time>2021-09-30T10:27:16Z</time>
      </trkpt>
      <trkpt lat="42.4402920" lon="-2.9489600">
        <ele>640.6</ele>
        <time>2021-09-30T10:27:21Z</time>
      </trkpt>
      <trkpt lat="42.4403130" lon="-2.9490630">
        <ele>640.8</ele>
        <time>2021-09-30T10:27:25Z</time>
      </trkpt>
      <trkpt lat="42.4403220" lon="-2.9491250">
        <ele>641.2</ele>
        <time>2021-09-30T10:27:27Z</time>
      </trkpt>
      <trkpt lat="42.4404400" lon="-2.9493430">
        <ele>641.6</ele>
        <time>2021-09-30T10:27:35Z</time>
      </trkpt>
      <trkpt lat="42.4404640" lon="-2.9493280">
        <ele>641.6</ele>
        <time>2021-09-30T10:27:38Z</time>
      </trkpt>
      <trkpt lat="42.4404310" lon="-2.9495500">
        <ele>643.0</ele>
        <time>2021-09-30T10:35:06Z</time>
      </trkpt>
      <trkpt lat="42.4404340" lon="-2.9495830">
        <ele>643.0</ele>
        <time>2021-09-30T10:35:07Z</time>
      </trkpt>
      <trkpt lat="42.4404380" lon="-2.9496580">
        <ele>642.6</ele>
        <time>2021-09-30T10:35:09Z</time>
      </trkpt>
      <trkpt lat="42.4404590" lon="-2.9497930">
        <ele>642.2</ele>
        <time>2021-09-30T10:35:12Z</time>
      </trkpt>
      <trkpt lat="42.4405100" lon="-2.9500140">
        <ele>642.0</ele>
        <time>2021-09-30T10:35:16Z</time>
      </trkpt>
      <trkpt lat="42.4405220" lon="-2.9500740">
        <ele>642.0</ele>
        <time>2021-09-30T10:35:17Z</time>
      </trkpt>
      <trkpt lat="42.4405280" lon="-2.9501380">
        <ele>641.8</ele>
        <time>2021-09-30T10:35:18Z</time>
      </trkpt>
      <trkpt lat="42.4405640" lon="-2.9504020">
        <ele>641.6</ele>
        <time>2021-09-30T10:35:23Z</time>
      </trkpt>
      <trkpt lat="42.4407180" lon="-2.9511430">
        <ele>641.6</ele>
        <time>2021-09-30T10:35:38Z</time>
      </trkpt>
      <trkpt lat="42.4407370" lon="-2.9512710">
        <ele>642.0</ele>
        <time>2021-09-30T10:35:41Z</time>
      </trkpt>
      <trkpt lat="42.4407420" lon="-2.9513380">
        <ele>642.2</ele>
        <time>2021-09-30T10:35:43Z</time>
      </trkpt>
      <trkpt lat="42.4407020" lon="-2.9514350">
        <ele>642.6</ele>
        <time>2021-09-30T10:35:47Z</time>
      </trkpt>
      <trkpt lat="42.4406850" lon="-2.9514480">
        <ele>642.6</ele>
        <time>2021-09-30T10:35:48Z</time>
      </trkpt>
      <trkpt lat="42.4406530" lon="-2.9514890">
        <ele>643.0</ele>
        <time>2021-09-30T10:35:52Z</time>
      </trkpt>
      <trkpt lat="42.4406460" lon="-2.9514980">
        <ele>643.2</ele>
        <time>2021-09-30T10:35:53Z</time>
      </trkpt>
      <trkpt lat="42.4406790" lon="-2.9516220">
        <ele>643.2</ele>
        <time>2021-09-30T10:36:00Z</time>
      </trkpt>
      <trkpt lat="42.4407170" lon="-2.9517480">
        <ele>643.4</ele>
        <time>2021-09-30T10:36:03Z</time>
      </trkpt>
      <trkpt lat="42.4408730" lon="-2.9523770">
        <ele>643.0</ele>
        <time>2021-09-30T10:36:20Z</time>
      </trkpt>
      <trkpt lat="42.4409580" lon="-2.9527530">
        <ele>643.2</ele>
        <time>2021-09-30T10:36:31Z</time>
      </trkpt>
      <trkpt lat="42.4409300" lon="-2.9532190">
        <ele>643.8</ele>
        <time>2021-09-30T10:36:43Z</time>
      </trkpt>
      <trkpt lat="42.4408750" lon="-2.9534230">
        <ele>643.8</ele>
        <time>2021-09-30T10:36:51Z</time>
      </trkpt>
      <trkpt lat="42.4408850" lon="-2.9537270">
        <ele>644.0</ele>
        <time>2021-09-30T10:36:58Z</time>
      </trkpt>
      <trkpt lat="42.4409740" lon="-2.9542070">
        <ele>643.6</ele>
        <time>2021-09-30T10:37:10Z</time>
      </trkpt>
      <trkpt lat="42.4409690" lon="-2.9543330">
        <ele>643.6</ele>
        <time>2021-09-30T10:37:13Z</time>
      </trkpt>
      <trkpt lat="42.4410320" lon="-2.9548990">
        <ele>642.6</ele>
        <time>2021-09-30T10:37:24Z</time>
      </trkpt>
      <trkpt lat="42.4410800" lon="-2.9551720">
        <ele>642.2</ele>
        <time>2021-09-30T10:37:30Z</time>
      </trkpt>
      <trkpt lat="42.4411470" lon="-2.9555230">
        <ele>642.6</ele>
        <time>2021-09-30T10:37:38Z</time>
      </trkpt>
      <trkpt lat="42.4411390" lon="-2.9557610">
        <ele>642.8</ele>
        <time>2021-09-30T10:37:43Z</time>
      </trkpt>
      <trkpt lat="42.4411520" lon="-2.9559460">
        <ele>643.0</ele>
        <time>2021-09-30T10:37:46Z</time>
      </trkpt>
      <trkpt lat="42.4411450" lon="-2.9561030">
        <ele>643.0</ele>
        <time>2021-09-30T10:37:49Z</time>
      </trkpt>
      <trkpt lat="42.4411950" lon="-2.9563870">
        <ele>643.0</ele>
        <time>2021-09-30T10:37:54Z</time>
      </trkpt>
      <trkpt lat="42.4411490" lon="-2.9566360">
        <ele>642.8</ele>
        <time>2021-09-30T10:37:58Z</time>
      </trkpt>
      <trkpt lat="42.4411540" lon="-2.9568840">
        <ele>643.0</ele>
        <time>2021-09-30T10:38:03Z</time>
      </trkpt>
      <trkpt lat="42.4411360" lon="-2.9570670">
        <ele>643.0</ele>
        <time>2021-09-30T10:38:07Z</time>
      </trkpt>
      <trkpt lat="42.4410970" lon="-2.9571190">
        <ele>642.8</ele>
        <time>2021-09-30T10:38:10Z</time>
      </trkpt>
      <trkpt lat="42.4410800" lon="-2.9571480">
        <ele>643.0</ele>
        <time>2021-09-30T10:38:11Z</time>
      </trkpt>
      <trkpt lat="42.4410490" lon="-2.9572190">
        <ele>643.6</ele>
        <time>2021-09-30T10:38:13Z</time>
      </trkpt>
      <trkpt lat="42.4410310" lon="-2.9573690">
        <ele>644.4</ele>
        <time>2021-09-30T10:38:16Z</time>
      </trkpt>
      <trkpt lat="42.4410420" lon="-2.9574790">
        <ele>644.4</ele>
        <time>2021-09-30T10:38:18Z</time>
      </trkpt>
      <trkpt lat="42.4410580" lon="-2.9576580">
        <ele>644.6</ele>
        <time>2021-09-30T10:38:21Z</time>
      </trkpt>
      <trkpt lat="42.4411350" lon="-2.9582180">
        <ele>644.2</ele>
        <time>2021-09-30T10:38:30Z</time>
      </trkpt>
      <trkpt lat="42.4411490" lon="-2.9584580">
        <ele>644.2</ele>
        <time>2021-09-30T10:38:34Z</time>
      </trkpt>
      <trkpt lat="42.4414340" lon="-2.9591190">
        <ele>643.2</ele>
        <time>2021-09-30T10:38:46Z</time>
      </trkpt>
      <trkpt lat="42.4415460" lon="-2.9594200">
        <ele>643.2</ele>
        <time>2021-09-30T10:38:51Z</time>
      </trkpt>
      <trkpt lat="42.4416730" lon="-2.9597830">
        <ele>643.2</ele>
        <time>2021-09-30T10:38:57Z</time>
      </trkpt>
      <trkpt lat="42.4418890" lon="-2.9605100">
        <ele>644.6</ele>
        <time>2021-09-30T10:39:09Z</time>
      </trkpt>
      <trkpt lat="42.4421020" lon="-2.9612180">
        <ele>644.6</ele>
        <time>2021-09-30T10:39:20Z</time>
      </trkpt>
      <trkpt lat="42.4423060" lon="-2.9618960">
        <ele>644.6</ele>
        <time>2021-09-30T10:39:30Z</time>
      </trkpt>
      <trkpt lat="42.4425230" lon="-2.9625970">
        <ele>644.6</ele>
        <time>2021-09-30T10:39:40Z</time>
      </trkpt>
      <trkpt lat="42.4426390" lon="-2.9629770">
        <ele>644.4</ele>
        <time>2021-09-30T10:39:45Z</time>
      </trkpt>
      <trkpt lat="42.4427560" lon="-2.9633610">
        <ele>644.4</ele>
        <time>2021-09-30T10:39:50Z</time>
      </trkpt>
      <trkpt lat="42.4429570" lon="-2.9640550">
        <ele>644.0</ele>
        <time>2021-09-30T10:39:59Z</time>
      </trkpt>
      <trkpt lat="42.4431730" lon="-2.9647440">
        <ele>644.0</ele>
        <time>2021-09-30T10:40:08Z</time>
      </trkpt>
      <trkpt lat="42.4433460" lon="-2.9652840">
        <ele>644.0</ele>
        <time>2021-09-30T10:40:15Z</time>
      </trkpt>
      <trkpt lat="42.4434930" lon="-2.9657610">
        <ele>643.8</ele>
        <time>2021-09-30T10:40:21Z</time>
      </trkpt>
      <trkpt lat="42.4436980" lon="-2.9664560">
        <ele>643.0</ele>
        <time>2021-09-30T10:40:30Z</time>
      </trkpt>
      <trkpt lat="42.4437760" lon="-2.9666920">
        <ele>642.8</ele>
        <time>2021-09-30T10:40:33Z</time>
      </trkpt>
      <trkpt lat="42.4439950" lon="-2.9673860">
        <ele>642.6</ele>
        <time>2021-09-30T10:40:41Z</time>
      </trkpt>
      <trkpt lat="42.4441140" lon="-2.9677550">
        <ele>641.6</ele>
        <time>2021-09-30T10:40:45Z</time>
      </trkpt>
      <trkpt lat="42.4442620" lon="-2.9682360">
        <ele>640.2</ele>
        <time>2021-09-30T10:40:50Z</time>
      </trkpt>
      <trkpt lat="42.4443860" lon="-2.9686240">
        <ele>638.8</ele>
        <time>2021-09-30T10:40:54Z</time>
      </trkpt>
      <trkpt lat="42.4444980" lon="-2.9690070">
        <ele>637.6</ele>
        <time>2021-09-30T10:40:58Z</time>
      </trkpt>
      <trkpt lat="42.4446180" lon="-2.9693800">
        <ele>636.2</ele>
        <time>2021-09-30T10:41:02Z</time>
      </trkpt>
      <trkpt lat="42.4448530" lon="-2.9701260">
        <ele>635.4</ele>
        <time>2021-09-30T10:41:10Z</time>
      </trkpt>
      <trkpt lat="42.4449100" lon="-2.9703070">
        <ele>635.2</ele>
        <time>2021-09-30T10:41:12Z</time>
      </trkpt>
      <trkpt lat="42.4450200" lon="-2.9706730">
        <ele>634.0</ele>
        <time>2021-09-30T10:41:16Z</time>
      </trkpt>
      <trkpt lat="42.4451930" lon="-2.9712170">
        <ele>633.8</ele>
        <time>2021-09-30T10:41:22Z</time>
      </trkpt>
      <trkpt lat="42.4454150" lon="-2.9719350">
        <ele>633.6</ele>
        <time>2021-09-30T10:41:30Z</time>
      </trkpt>
      <trkpt lat="42.4454620" lon="-2.9721360">
        <ele>633.6</ele>
        <time>2021-09-30T10:41:33Z</time>
      </trkpt>
      <trkpt lat="42.4454170" lon="-2.9724350">
        <ele>634.0</ele>
        <time>2021-09-30T10:41:41Z</time>
      </trkpt>
      <trkpt lat="42.4454990" lon="-2.9727050">
        <ele>634.0</ele>
        <time>2021-09-30T10:41:45Z</time>
      </trkpt>
      <trkpt lat="42.4455610" lon="-2.9729210">
        <ele>634.0</ele>
        <time>2021-09-30T10:41:48Z</time>
      </trkpt>
      <trkpt lat="42.4456990" lon="-2.9733450">
        <ele>633.6</ele>
        <time>2021-09-30T10:41:54Z</time>
      </trkpt>
      <trkpt lat="42.4458750" lon="-2.9739210">
        <ele>633.2</ele>
        <time>2021-09-30T10:42:02Z</time>
      </trkpt>
      <trkpt lat="42.4460070" lon="-2.9743610">
        <ele>633.6</ele>
        <time>2021-09-30T10:42:08Z</time>
      </trkpt>
      <trkpt lat="42.4461470" lon="-2.9747940">
        <ele>633.6</ele>
        <time>2021-09-30T10:42:14Z</time>
      </trkpt>
      <trkpt lat="42.4462530" lon="-2.9750790">
        <ele>633.6</ele>
        <time>2021-09-30T10:42:18Z</time>
      </trkpt>
      <trkpt lat="42.4463530" lon="-2.9753700">
        <ele>634.0</ele>
        <time>2021-09-30T10:42:22Z</time>
      </trkpt>
      <trkpt lat="42.4465750" lon="-2.9760980">
        <ele>634.0</ele>
        <time>2021-09-30T10:42:32Z</time>
      </trkpt>
      <trkpt lat="42.4467910" lon="-2.9768040">
        <ele>634.6</ele>
        <time>2021-09-30T10:42:42Z</time>
      </trkpt>
      <trkpt lat="42.4468970" lon="-2.9771500">
        <ele>635.2</ele>
        <time>2021-09-30T10:42:47Z</time>
      </trkpt>
      <trkpt lat="42.4471130" lon="-2.9778360">
        <ele>636.0</ele>
        <time>2021-09-30T10:42:57Z</time>
      </trkpt>
      <trkpt lat="42.4472050" lon="-2.9781010">
        <ele>636.2</ele>
        <time>2021-09-30T10:43:01Z</time>
      </trkpt>
      <trkpt lat="42.4473920" lon="-2.9788180">
        <ele>636.6</ele>
        <time>2021-09-30T10:43:11Z</time>
      </trkpt>
      <trkpt lat="42.4474770" lon="-2.9791930">
        <ele>637.0</ele>
        <time>2021-09-30T10:43:16Z</time>
      </trkpt>
      <trkpt lat="42.4475290" lon="-2.9794120">
        <ele>637.2</ele>
        <time>2021-09-30T10:43:19Z</time>
      </trkpt>
      <trkpt lat="42.4477140" lon="-2.9801130">
        <ele>637.6</ele>
        <time>2021-09-30T10:43:29Z</time>
      </trkpt>
      <trkpt lat="42.4478420" lon="-2.9803470">
        <ele>637.8</ele>
        <time>2021-09-30T10:43:33Z</time>
      </trkpt>
      <trkpt lat="42.4479300" lon="-2.9806100">
        <ele>638.4</ele>
        <time>2021-09-30T10:43:37Z</time>
      </trkpt>
      <trkpt lat="42.4480340" lon="-2.9810550">
        <ele>638.8</ele>
        <time>2021-09-30T10:43:44Z</time>
      </trkpt>
      <trkpt lat="42.4480540" lon="-2.9813900">
        <ele>639.4</ele>
        <time>2021-09-30T10:43:49Z</time>
      </trkpt>
      <trkpt lat="42.4481410" lon="-2.9818650">
        <ele>640.4</ele>
        <time>2021-09-30T10:43:56Z</time>
      </trkpt>
      <trkpt lat="42.4483270" lon="-2.9826060">
        <ele>641.4</ele>
        <time>2021-09-30T10:44:07Z</time>
      </trkpt>
      <trkpt lat="42.4483630" lon="-2.9827350">
        <ele>641.6</ele>
        <time>2021-09-30T10:44:09Z</time>
      </trkpt>
      <trkpt lat="42.4485210" lon="-2.9833200">
        <ele>642.6</ele>
        <time>2021-09-30T10:44:18Z</time>
      </trkpt>
      <trkpt lat="42.4487090" lon="-2.9840220">
        <ele>643.4</ele>
        <time>2021-09-30T10:44:29Z</time>
      </trkpt>
      <trkpt lat="42.4487670" lon="-2.9842050">
        <ele>643.8</ele>
        <time>2021-09-30T10:44:32Z</time>
      </trkpt>
      <trkpt lat="42.4489890" lon="-2.9848870">
        <ele>644.8</ele>
        <time>2021-09-30T10:44:43Z</time>
      </trkpt>
      <trkpt lat="42.4490110" lon="-2.9849470">
        <ele>645.0</ele>
        <time>2021-09-30T10:44:44Z</time>
      </trkpt>
      <trkpt lat="42.4491710" lon="-2.9854270">
        <ele>646.2</ele>
        <time>2021-09-30T10:44:52Z</time>
      </trkpt>
      <trkpt lat="42.4493020" lon="-2.9858240">
        <ele>646.8</ele>
        <time>2021-09-30T10:44:59Z</time>
      </trkpt>
      <trkpt lat="42.4493620" lon="-2.9858990">
        <ele>647.4</ele>
        <time>2021-09-30T10:45:01Z</time>
      </trkpt>
      <trkpt lat="42.4494880" lon="-2.9858880">
        <ele>647.8</ele>
        <time>2021-09-30T10:45:04Z</time>
      </trkpt>
      <trkpt lat="42.4495400" lon="-2.9858730">
        <ele>648.0</ele>
        <time>2021-09-30T10:45:06Z</time>
      </trkpt>
      <trkpt lat="42.4496130" lon="-2.9859140">
        <ele>648.2</ele>
        <time>2021-09-30T10:45:09Z</time>
      </trkpt>
      <trkpt lat="42.4496730" lon="-2.9860430">
        <ele>648.4</ele>
        <time>2021-09-30T10:45:12Z</time>
      </trkpt>
      <trkpt lat="42.4496890" lon="-2.9860960">
        <ele>648.4</ele>
        <time>2021-09-30T10:45:13Z</time>
      </trkpt>
      <trkpt lat="42.4497820" lon="-2.9864410">
        <ele>648.6</ele>
        <time>2021-09-30T10:45:19Z</time>
      </trkpt>
      <trkpt lat="42.4499750" lon="-2.9871450">
        <ele>648.8</ele>
        <time>2021-09-30T10:45:31Z</time>
      </trkpt>
      <trkpt lat="42.4500390" lon="-2.9873700">
        <ele>649.2</ele>
        <time>2021-09-30T10:45:35Z</time>
      </trkpt>
      <trkpt lat="42.4500960" lon="-2.9875900">
        <ele>649.4</ele>
        <time>2021-09-30T10:45:39Z</time>
      </trkpt>
      <trkpt lat="42.4501110" lon="-2.9877070">
        <ele>649.6</ele>
        <time>2021-09-30T10:45:41Z</time>
      </trkpt>
      <trkpt lat="42.4501210" lon="-2.9878290">
        <ele>649.8</ele>
        <time>2021-09-30T10:45:43Z</time>
      </trkpt>
      <trkpt lat="42.4501600" lon="-2.9880830">
        <ele>650.4</ele>
        <time>2021-09-30T10:45:47Z</time>
      </trkpt>
      <trkpt lat="42.4502020" lon="-2.9883690">
        <ele>651.4</ele>
        <time>2021-09-30T10:45:51Z</time>
      </trkpt>
      <trkpt lat="42.4502300" lon="-2.9886610">
        <ele>652.6</ele>
        <time>2021-09-30T10:45:56Z</time>
      </trkpt>
      <trkpt lat="42.4502470" lon="-2.9888470">
        <ele>653.8</ele>
        <time>2021-09-30T10:46:00Z</time>
      </trkpt>
      <trkpt lat="42.4502480" lon="-2.9889340">
        <ele>654.8</ele>
        <time>2021-09-30T10:46:02Z</time>
      </trkpt>
      <trkpt lat="42.4502470" lon="-2.9890180">
        <ele>655.8</ele>
        <time>2021-09-30T10:46:04Z</time>
      </trkpt>
      <trkpt lat="42.4502490" lon="-2.9890590">
        <ele>656.0</ele>
        <time>2021-09-30T10:46:05Z</time>
      </trkpt>
      <trkpt lat="42.4502620" lon="-2.9891810">
        <ele>657.2</ele>
        <time>2021-09-30T10:46:08Z</time>
      </trkpt>
      <trkpt lat="42.4502820" lon="-2.9893050">
        <ele>658.2</ele>
        <time>2021-09-30T10:46:11Z</time>
      </trkpt>
      <trkpt lat="42.4502940" lon="-2.9894300">
        <ele>659.2</ele>
        <time>2021-09-30T10:46:14Z</time>
      </trkpt>
      <trkpt lat="42.4503140" lon="-2.9896300">
        <ele>660.4</ele>
        <time>2021-09-30T10:46:19Z</time>
      </trkpt>
      <trkpt lat="42.4503250" lon="-2.9897860">
        <ele>661.6</ele>
        <time>2021-09-30T10:46:23Z</time>
      </trkpt>
      <trkpt lat="42.4503350" lon="-2.9899040">
        <ele>662.6</ele>
        <time>2021-09-30T10:46:26Z</time>
      </trkpt>
      <trkpt lat="42.4503480" lon="-2.9900240">
        <ele>663.8</ele>
        <time>2021-09-30T10:46:29Z</time>
      </trkpt>
      <trkpt lat="42.4503730" lon="-2.9902250">
        <ele>665.0</ele>
        <time>2021-09-30T10:46:34Z</time>
      </trkpt>
      <trkpt lat="42.4503970" lon="-2.9904290">
        <ele>666.2</ele>
        <time>2021-09-30T10:46:39Z</time>
      </trkpt>
      <trkpt lat="42.4504110" lon="-2.9905520">
        <ele>667.4</ele>
        <time>2021-09-30T10:46:42Z</time>
      </trkpt>
      <trkpt lat="42.4504280" lon="-2.9907180">
        <ele>668.8</ele>
        <time>2021-09-30T10:46:46Z</time>
      </trkpt>
      <trkpt lat="42.4504810" lon="-2.9910820">
        <ele>669.8</ele>
        <time>2021-09-30T10:46:54Z</time>
      </trkpt>
      <trkpt lat="42.4505370" lon="-2.9914590">
        <ele>671.2</ele>
        <time>2021-09-30T10:47:02Z</time>
      </trkpt>
      <trkpt lat="42.4506080" lon="-2.9919120">
        <ele>671.6</ele>
        <time>2021-09-30T10:47:11Z</time>
      </trkpt>
      <trkpt lat="42.4506580" lon="-2.9922940">
        <ele>672.2</ele>
        <time>2021-09-30T10:47:18Z</time>
      </trkpt>
      <trkpt lat="42.4507100" lon="-2.9927170">
        <ele>673.0</ele>
        <time>2021-09-30T10:47:25Z</time>
      </trkpt>
      <trkpt lat="42.4507440" lon="-2.9929700">
        <ele>673.2</ele>
        <time>2021-09-30T10:47:29Z</time>
      </trkpt>
      <trkpt lat="42.4508760" lon="-2.9937480">
        <ele>673.2</ele>
        <time>2021-09-30T10:47:41Z</time>
      </trkpt>
      <trkpt lat="42.4509950" lon="-2.9944890">
        <ele>673.4</ele>
        <time>2021-09-30T10:47:52Z</time>
      </trkpt>
      <trkpt lat="42.4511040" lon="-2.9952180">
        <ele>673.4</ele>
        <time>2021-09-30T10:48:01Z</time>
      </trkpt>
      <trkpt lat="42.4511560" lon="-2.9955640">
        <ele>673.4</ele>
        <time>2021-09-30T10:48:05Z</time>
      </trkpt>
      <trkpt lat="42.4512930" lon="-2.9963410">
        <ele>672.2</ele>
        <time>2021-09-30T10:48:14Z</time>
      </trkpt>
      <trkpt lat="42.4513080" lon="-2.9964260">
        <ele>672.2</ele>
        <time>2021-09-30T10:48:15Z</time>
      </trkpt>
      <trkpt lat="42.4514190" lon="-2.9970880">
        <ele>671.2</ele>
        <time>2021-09-30T10:48:23Z</time>
      </trkpt>
      <trkpt lat="42.4514850" lon="-2.9975260">
        <ele>670.4</ele>
        <time>2021-09-30T10:48:28Z</time>
      </trkpt>
      <trkpt lat="42.4515260" lon="-2.9977900">
        <ele>670.0</ele>
        <time>2021-09-30T10:48:31Z</time>
      </trkpt>
      <trkpt lat="42.4516260" lon="-2.9985810">
        <ele>668.8</ele>
        <time>2021-09-30T10:48:40Z</time>
      </trkpt>
      <trkpt lat="42.4517080" lon="-2.9993680">
        <ele>668.4</ele>
        <time>2021-09-30T10:48:49Z</time>
      </trkpt>
      <trkpt lat="42.4517660" lon="-2.9999670">
        <ele>668.2</ele>
        <time>2021-09-30T10:48:56Z</time>
      </trkpt>
      <trkpt lat="42.4518240" lon="-3.0004950">
        <ele>667.8</ele>
        <time>2021-09-30T10:49:02Z</time>
      </trkpt>
      <trkpt lat="42.4518900" lon="-3.0010580">
        <ele>667.2</ele>
        <time>2021-09-30T10:49:08Z</time>
      </trkpt>
      <trkpt lat="42.4519180" lon="-3.0013440">
        <ele>666.8</ele>
        <time>2021-09-30T10:49:11Z</time>
      </trkpt>
      <trkpt lat="42.4519510" lon="-3.0017340">
        <ele>665.6</ele>
        <time>2021-09-30T10:49:15Z</time>
      </trkpt>
      <trkpt lat="42.4519800" lon="-3.0021150">
        <ele>664.6</ele>
        <time>2021-09-30T10:49:19Z</time>
      </trkpt>
      <trkpt lat="42.4520220" lon="-3.0028740">
        <ele>664.0</ele>
        <time>2021-09-30T10:49:28Z</time>
      </trkpt>
      <trkpt lat="42.4520520" lon="-3.0036760">
        <ele>664.2</ele>
        <time>2021-09-30T10:49:38Z</time>
      </trkpt>
      <trkpt lat="42.4520870" lon="-3.0044790">
        <ele>664.4</ele>
        <time>2021-09-30T10:49:48Z</time>
      </trkpt>
      <trkpt lat="42.4521120" lon="-3.0048690">
        <ele>664.4</ele>
        <time>2021-09-30T10:49:53Z</time>
      </trkpt>
      <trkpt lat="42.4523680" lon="-3.0055340">
        <ele>665.2</ele>
        <time>2021-09-30T10:50:05Z</time>
      </trkpt>
      <trkpt lat="42.4523040" lon="-3.0057090">
        <ele>665.8</ele>
        <time>2021-09-30T10:50:08Z</time>
      </trkpt>
      <trkpt lat="42.4522200" lon="-3.0058040">
        <ele>666.2</ele>
        <time>2021-09-30T10:50:10Z</time>
      </trkpt>
      <trkpt lat="42.4521820" lon="-3.0058560">
        <ele>666.4</ele>
        <time>2021-09-30T10:50:11Z</time>
      </trkpt>
      <trkpt lat="42.4521520" lon="-3.0062000">
        <ele>666.4</ele>
        <time>2021-09-30T10:50:16Z</time>
      </trkpt>
      <trkpt lat="42.4521770" lon="-3.0064880">
        <ele>666.4</ele>
        <time>2021-09-30T10:50:20Z</time>
      </trkpt>
      <trkpt lat="42.4522200" lon="-3.0069150">
        <ele>666.0</ele>
        <time>2021-09-30T10:50:26Z</time>
      </trkpt>
      <trkpt lat="42.4522930" lon="-3.0075660">
        <ele>666.8</ele>
        <time>2021-09-30T10:50:36Z</time>
      </trkpt>
      <trkpt lat="42.4523050" lon="-3.0076260">
        <ele>667.0</ele>
        <time>2021-09-30T10:50:37Z</time>
      </trkpt>
      <trkpt lat="42.4523160" lon="-3.0076870">
        <ele>667.2</ele>
        <time>2021-09-30T10:50:38Z</time>
      </trkpt>
      <trkpt lat="42.4523300" lon="-3.0078120">
        <ele>668.0</ele>
        <time>2021-09-30T10:50:40Z</time>
      </trkpt>
      <trkpt lat="42.4523580" lon="-3.0080640">
        <ele>668.4</ele>
        <time>2021-09-30T10:50:44Z</time>
      </trkpt>
      <trkpt lat="42.4523810" lon="-3.0082500">
        <ele>668.8</ele>
        <time>2021-09-30T10:50:47Z</time>
      </trkpt>
      <trkpt lat="42.4523880" lon="-3.0083110">
        <ele>669.0</ele>
        <time>2021-09-30T10:50:48Z</time>
      </trkpt>
      <trkpt lat="42.4524030" lon="-3.0084880">
        <ele>669.4</ele>
        <time>2021-09-30T10:50:51Z</time>
      </trkpt>
      <trkpt lat="42.4524210" lon="-3.0086630">
        <ele>669.8</ele>
        <time>2021-09-30T10:50:54Z</time>
      </trkpt>
      <trkpt lat="42.4524320" lon="-3.0087750">
        <ele>670.2</ele>
        <time>2021-09-30T10:50:56Z</time>
      </trkpt>
      <trkpt lat="42.4524600" lon="-3.0090470">
        <ele>671.2</ele>
        <time>2021-09-30T10:51:01Z</time>
      </trkpt>
      <trkpt lat="42.4524770" lon="-3.0092100">
        <ele>672.2</ele>
        <time>2021-09-30T10:51:04Z</time>
      </trkpt>
      <trkpt lat="42.4525010" lon="-3.0094250">
        <ele>673.4</ele>
        <time>2021-09-30T10:51:08Z</time>
      </trkpt>
      <trkpt lat="42.4525260" lon="-3.0096370">
        <ele>674.8</ele>
        <time>2021-09-30T10:51:12Z</time>
      </trkpt>
      <trkpt lat="42.4525710" lon="-3.0100550">
        <ele>675.8</ele>
        <time>2021-09-30T10:51:20Z</time>
      </trkpt>
      <trkpt lat="42.4526120" lon="-3.0104650">
        <ele>676.8</ele>
        <time>2021-09-30T10:51:28Z</time>
      </trkpt>
      <trkpt lat="42.4526540" lon="-3.0108710">
        <ele>678.0</ele>
        <time>2021-09-30T10:51:36Z</time>
      </trkpt>
      <trkpt lat="42.4526800" lon="-3.0111360">
        <ele>679.2</ele>
        <time>2021-09-30T10:51:41Z</time>
      </trkpt>
      <trkpt lat="42.4527100" lon="-3.0114570">
        <ele>680.2</ele>
        <time>2021-09-30T10:51:47Z</time>
      </trkpt>
      <trkpt lat="42.4527780" lon="-3.0120360">
        <ele>681.0</ele>
        <time>2021-09-30T10:51:57Z</time>
      </trkpt>
      <trkpt lat="42.4527880" lon="-3.0121600">
        <ele>681.2</ele>
        <time>2021-09-30T10:51:59Z</time>
      </trkpt>
      <trkpt lat="42.4528410" lon="-3.0127970">
        <ele>682.2</ele>
        <time>2021-09-30T10:52:09Z</time>
      </trkpt>
      <trkpt lat="42.4528590" lon="-3.0129950">
        <ele>682.4</ele>
        <time>2021-09-30T10:52:12Z</time>
      </trkpt>
      <trkpt lat="42.4529150" lon="-3.0137530">
        <ele>683.2</ele>
        <time>2021-09-30T10:52:24Z</time>
      </trkpt>
      <trkpt lat="42.4529150" lon="-3.0138130">
        <ele>683.4</ele>
        <time>2021-09-30T10:52:25Z</time>
      </trkpt>
      <trkpt lat="42.4529500" lon="-3.0142420">
        <ele>684.4</ele>
        <time>2021-09-30T10:52:32Z</time>
      </trkpt>
      <trkpt lat="42.4529860" lon="-3.0146670">
        <ele>685.6</ele>
        <time>2021-09-30T10:52:39Z</time>
      </trkpt>
      <trkpt lat="42.4530330" lon="-3.0152100">
        <ele>686.6</ele>
        <time>2021-09-30T10:52:48Z</time>
      </trkpt>
      <trkpt lat="42.4530660" lon="-3.0156480">
        <ele>687.8</ele>
        <time>2021-09-30T10:52:55Z</time>
      </trkpt>
      <trkpt lat="42.4530960" lon="-3.0160170">
        <ele>688.4</ele>
        <time>2021-09-30T10:53:01Z</time>
      </trkpt>
      <trkpt lat="42.4530800" lon="-3.0163290">
        <ele>688.6</ele>
        <time>2021-09-30T10:53:06Z</time>
      </trkpt>
      <trkpt lat="42.4530770" lon="-3.0163880">
        <ele>688.8</ele>
        <time>2021-09-30T10:53:07Z</time>
      </trkpt>
      <trkpt lat="42.4530730" lon="-3.0164430">
        <ele>689.0</ele>
        <time>2021-09-30T10:53:08Z</time>
      </trkpt>
      <trkpt lat="42.4530440" lon="-3.0166460">
        <ele>690.0</ele>
        <time>2021-09-30T10:53:12Z</time>
      </trkpt>
      <trkpt lat="42.4530220" lon="-3.0167840">
        <ele>691.6</ele>
        <time>2021-09-30T10:53:15Z</time>
      </trkpt>
      <trkpt lat="42.4530010" lon="-3.0169230">
        <ele>693.2</ele>
        <time>2021-09-30T10:53:18Z</time>
      </trkpt>
      <trkpt lat="42.4529940" lon="-3.0170130">
        <ele>694.4</ele>
        <time>2021-09-30T10:53:20Z</time>
      </trkpt>
      <trkpt lat="42.4530000" lon="-3.0171390">
        <ele>695.6</ele>
        <time>2021-09-30T10:53:23Z</time>
      </trkpt>
      <trkpt lat="42.4529900" lon="-3.0172830">
        <ele>696.8</ele>
        <time>2021-09-30T10:53:27Z</time>
      </trkpt>
      <trkpt lat="42.4529030" lon="-3.0173890">
        <ele>697.8</ele>
        <time>2021-09-30T10:53:31Z</time>
      </trkpt>
      <trkpt lat="42.4528100" lon="-3.0175750">
        <ele>698.2</ele>
        <time>2021-09-30T10:53:35Z</time>
      </trkpt>
      <trkpt lat="42.4527810" lon="-3.0176400">
        <ele>698.2</ele>
        <time>2021-09-30T10:53:36Z</time>
      </trkpt>
      <trkpt lat="42.4527110" lon="-3.0178920">
        <ele>698.2</ele>
        <time>2021-09-30T10:53:39Z</time>
      </trkpt>
      <trkpt lat="42.4526940" lon="-3.0179900">
        <ele>698.4</ele>
        <time>2021-09-30T10:53:40Z</time>
      </trkpt>
      <trkpt lat="42.4526480" lon="-3.0182980">
        <ele>697.0</ele>
        <time>2021-09-30T10:53:43Z</time>
      </trkpt>
      <trkpt lat="42.4526150" lon="-3.0184890">
        <ele>695.6</ele>
        <time>2021-09-30T10:53:45Z</time>
      </trkpt>
      <trkpt lat="42.4525860" lon="-3.0186680">
        <ele>694.4</ele>
        <time>2021-09-30T10:53:47Z</time>
      </trkpt>
      <trkpt lat="42.4524440" lon="-3.0194150">
        <ele>694.0</ele>
        <time>2021-09-30T10:53:56Z</time>
      </trkpt>
      <trkpt lat="42.4523690" lon="-3.0198180">
        <ele>694.6</ele>
        <time>2021-09-30T10:54:01Z</time>
      </trkpt>
      <trkpt lat="42.4523010" lon="-3.0202160">
        <ele>695.4</ele>
        <time>2021-09-30T10:54:06Z</time>
      </trkpt>
      <trkpt lat="42.4522270" lon="-3.0206830">
        <ele>696.2</ele>
        <time>2021-09-30T10:54:12Z</time>
      </trkpt>
      <trkpt lat="42.4522060" lon="-3.0208350">
        <ele>696.8</ele>
        <time>2021-09-30T10:54:14Z</time>
      </trkpt>
      <trkpt lat="42.4521280" lon="-3.0212800">
        <ele>697.8</ele>
        <time>2021-09-30T10:54:20Z</time>
      </trkpt>
      <trkpt lat="42.4520610" lon="-3.0215900">
        <ele>699.2</ele>
        <time>2021-09-30T10:54:25Z</time>
      </trkpt>
      <trkpt lat="42.4520300" lon="-3.0217610">
        <ele>700.2</ele>
        <time>2021-09-30T10:54:28Z</time>
      </trkpt>
      <trkpt lat="42.4520000" lon="-3.0219280">
        <ele>701.6</ele>
        <time>2021-09-30T10:54:31Z</time>
      </trkpt>
      <trkpt lat="42.4519700" lon="-3.0221530">
        <ele>702.6</ele>
        <time>2021-09-30T10:54:35Z</time>
      </trkpt>
      <trkpt lat="42.4519290" lon="-3.0223760">
        <ele>703.8</ele>
        <time>2021-09-30T10:54:39Z</time>
      </trkpt>
      <trkpt lat="42.4518840" lon="-3.0225850">
        <ele>705.0</ele>
        <time>2021-09-30T10:54:43Z</time>
      </trkpt>
      <trkpt lat="42.4518350" lon="-3.0228750">
        <ele>706.0</ele>
        <time>2021-09-30T10:54:49Z</time>
      </trkpt>
      <trkpt lat="42.4517760" lon="-3.0230990">
        <ele>707.2</ele>
        <time>2021-09-30T10:54:54Z</time>
      </trkpt>
      <trkpt lat="42.4517580" lon="-3.0232810">
        <ele>708.6</ele>
        <time>2021-09-30T10:54:58Z</time>
      </trkpt>
      <trkpt lat="42.4517460" lon="-3.0234120">
        <ele>709.6</ele>
        <time>2021-09-30T10:55:01Z</time>
      </trkpt>
      <trkpt lat="42.4517290" lon="-3.0234980">
        <ele>711.0</ele>
        <time>2021-09-30T10:55:03Z</time>
      </trkpt>
      <trkpt lat="42.4516920" lon="-3.0236770">
        <ele>712.0</ele>
        <time>2021-09-30T10:55:07Z</time>
      </trkpt>
      <trkpt lat="42.4516510" lon="-3.0238420">
        <ele>713.2</ele>
        <time>2021-09-30T10:55:11Z</time>
      </trkpt>
      <trkpt lat="42.4516280" lon="-3.0239600">
        <ele>714.4</ele>
        <time>2021-09-30T10:55:14Z</time>
      </trkpt>
      <trkpt lat="42.4515970" lon="-3.0241180">
        <ele>715.8</ele>
        <time>2021-09-30T10:55:18Z</time>
      </trkpt>
      <trkpt lat="42.4515760" lon="-3.0242350">
        <ele>717.0</ele>
        <time>2021-09-30T10:55:21Z</time>
      </trkpt>
      <trkpt lat="42.4515410" lon="-3.0244340">
        <ele>718.0</ele>
        <time>2021-09-30T10:55:26Z</time>
      </trkpt>
      <trkpt lat="42.4515170" lon="-3.0246240">
        <ele>719.4</ele>
        <time>2021-09-30T10:55:31Z</time>
      </trkpt>
      <trkpt lat="42.4515220" lon="-3.0247440">
        <ele>720.6</ele>
        <time>2021-09-30T10:55:35Z</time>
      </trkpt>
      <trkpt lat="42.4515410" lon="-3.0247860">
        <ele>722.0</ele>
        <time>2021-09-30T10:55:37Z</time>
      </trkpt>
      <trkpt lat="42.4516500" lon="-3.0248050">
        <ele>722.2</ele>
        <time>2021-09-30T10:55:41Z</time>
      </trkpt>
      <trkpt lat="42.4517520" lon="-3.0248180">
        <ele>722.2</ele>
        <time>2021-09-30T10:55:44Z</time>
      </trkpt>
      <trkpt lat="42.4517840" lon="-3.0248400">
        <ele>722.2</ele>
        <time>2021-09-30T10:55:45Z</time>
      </trkpt>
      <trkpt lat="42.4517590" lon="-3.0250160">
        <ele>722.4</ele>
        <time>2021-09-30T10:55:50Z</time>
      </trkpt>
      <trkpt lat="42.4516200" lon="-3.0250160">
        <ele>722.4</ele>
        <time>2021-09-30T10:55:55Z</time>
      </trkpt>
      <trkpt lat="42.4515400" lon="-3.0249950">
        <ele>723.2</ele>
        <time>2021-09-30T10:55:58Z</time>
      </trkpt>
      <trkpt lat="42.4514320" lon="-3.0249350">
        <ele>724.4</ele>
        <time>2021-09-30T10:56:03Z</time>
      </trkpt>
      <trkpt lat="42.4514000" lon="-3.0249250">
        <ele>725.0</ele>
        <time>2021-09-30T10:56:06Z</time>
      </trkpt>
      <trkpt lat="42.4513740" lon="-3.0249900">
        <ele>726.0</ele>
        <time>2021-09-30T10:56:11Z</time>
      </trkpt>
      <trkpt lat="42.4512790" lon="-3.0252850">
        <ele>726.8</ele>
        <time>2021-09-30T10:56:21Z</time>
      </trkpt>
      <trkpt lat="42.4512630" lon="-3.0253150">
        <ele>727.0</ele>
        <time>2021-09-30T10:56:22Z</time>
      </trkpt>
      <trkpt lat="42.4512180" lon="-3.0254220">
        <ele>727.6</ele>
        <time>2021-09-30T10:56:26Z</time>
      </trkpt>
      <trkpt lat="42.4511520" lon="-3.0256010">
        <ele>728.2</ele>
        <time>2021-09-30T10:56:32Z</time>
      </trkpt>
      <trkpt lat="42.4510930" lon="-3.0258230">
        <ele>728.6</ele>
        <time>2021-09-30T10:56:38Z</time>
      </trkpt>
      <trkpt lat="42.4510630" lon="-3.0258920">
        <ele>728.4</ele>
        <time>2021-09-30T10:56:40Z</time>
      </trkpt>
      <trkpt lat="42.4510390" lon="-3.0259670">
        <ele>728.4</ele>
        <time>2021-09-30T10:56:42Z</time>
      </trkpt>
      <trkpt lat="42.4510070" lon="-3.0260410">
        <ele>728.6</ele>
        <time>2021-09-30T10:56:44Z</time>
      </trkpt>
      <trkpt lat="42.4508900" lon="-3.0263020">
        <ele>728.2</ele>
        <time>2021-09-30T10:56:51Z</time>
      </trkpt>
      <trkpt lat="42.4508070" lon="-3.0265170">
        <ele>727.4</ele>
        <time>2021-09-30T10:56:56Z</time>
      </trkpt>
      <trkpt lat="42.4506930" lon="-3.0267990">
        <ele>727.0</ele>
        <time>2021-09-30T10:57:03Z</time>
      </trkpt>
      <trkpt lat="42.4505910" lon="-3.0269800">
        <ele>727.2</ele>
        <time>2021-09-30T10:57:08Z</time>
      </trkpt>
      <trkpt lat="42.4504630" lon="-3.0273200">
        <ele>728.2</ele>
        <time>2021-09-30T10:57:16Z</time>
      </trkpt>
      <trkpt lat="42.4504250" lon="-3.0274050">
        <ele>728.6</ele>
        <time>2021-09-30T10:57:18Z</time>
      </trkpt>
      <trkpt lat="42.4503320" lon="-3.0276420">
        <ele>729.6</ele>
        <time>2021-09-30T10:57:24Z</time>
      </trkpt>
      <trkpt lat="42.4503190" lon="-3.0276820">
        <ele>729.8</ele>
        <time>2021-09-30T10:57:25Z</time>
      </trkpt>
      <trkpt lat="42.4502560" lon="-3.0278630">
        <ele>730.2</ele>
        <time>2021-09-30T10:57:29Z</time>
      </trkpt>
      <trkpt lat="42.4501900" lon="-3.0280650">
        <ele>730.8</ele>
        <time>2021-09-30T10:57:33Z</time>
      </trkpt>
      <trkpt lat="42.4501620" lon="-3.0281200">
        <ele>730.8</ele>
        <time>2021-09-30T10:57:34Z</time>
      </trkpt>
      <trkpt lat="42.4500880" lon="-3.0282840">
        <ele>731.2</ele>
        <time>2021-09-30T10:57:37Z</time>
      </trkpt>
      <trkpt lat="42.4499980" lon="-3.0284890">
        <ele>731.8</ele>
        <time>2021-09-30T10:57:41Z</time>
      </trkpt>
      <trkpt lat="42.4499340" lon="-3.0286590">
        <ele>732.8</ele>
        <time>2021-09-30T10:57:45Z</time>
      </trkpt>
      <trkpt lat="42.4498520" lon="-3.0288480">
        <ele>734.0</ele>
        <time>2021-09-30T10:57:50Z</time>
      </trkpt>
      <trkpt lat="42.4497150" lon="-3.0291380">
        <ele>735.2</ele>
        <time>2021-09-30T10:57:57Z</time>
      </trkpt>
      <trkpt lat="42.4496210" lon="-3.0293570">
        <ele>736.2</ele>
        <time>2021-09-30T10:58:02Z</time>
      </trkpt>
      <trkpt lat="42.4495480" lon="-3.0295260">
        <ele>736.8</ele>
        <time>2021-09-30T10:58:06Z</time>
      </trkpt>
      <trkpt lat="42.4493970" lon="-3.0298090">
        <ele>737.2</ele>
        <time>2021-09-30T10:58:13Z</time>
      </trkpt>
      <trkpt lat="42.4492980" lon="-3.0299770">
        <ele>738.2</ele>
        <time>2021-09-30T10:58:18Z</time>
      </trkpt>
      <trkpt lat="42.4492490" lon="-3.0300720">
        <ele>738.8</ele>
        <time>2021-09-30T10:58:21Z</time>
      </trkpt>
      <trkpt lat="42.4492140" lon="-3.0301110">
        <ele>738.8</ele>
        <time>2021-09-30T10:58:23Z</time>
      </trkpt>
      <trkpt lat="42.4492020" lon="-3.0301240">
        <ele>738.8</ele>
        <time>2021-09-30T10:58:24Z</time>
      </trkpt>
      <trkpt lat="42.4491860" lon="-3.0301270">
        <ele>738.8</ele>
        <time>2021-09-30T10:58:25Z</time>
      </trkpt>
      <trkpt lat="42.4491500" lon="-3.0301170">
        <ele>738.8</ele>
        <time>2021-09-30T10:58:27Z</time>
      </trkpt>
      <trkpt lat="42.4490940" lon="-3.0300510">
        <ele>738.8</ele>
        <time>2021-09-30T10:58:30Z</time>
      </trkpt>
      <trkpt lat="42.4489110" lon="-3.0298010">
        <ele>738.6</ele>
        <time>2021-09-30T10:58:38Z</time>
      </trkpt>
      <trkpt lat="42.4488700" lon="-3.0299310">
        <ele>738.6</ele>
        <time>2021-09-30T10:58:43Z</time>
      </trkpt>
      <trkpt lat="42.4489230" lon="-3.0300800">
        <ele>738.6</ele>
        <time>2021-09-30T10:58:46Z</time>
      </trkpt>
      <trkpt lat="42.4490100" lon="-3.0302660">
        <ele>738.4</ele>
        <time>2021-09-30T10:58:49Z</time>
      </trkpt>
      <trkpt lat="42.4490250" lon="-3.0305400">
        <ele>738.4</ele>
        <time>2021-09-30T10:58:52Z</time>
      </trkpt>
      <trkpt lat="42.4490100" lon="-3.0306470">
        <ele>738.2</ele>
        <time>2021-09-30T10:58:53Z</time>
      </trkpt>
      <trkpt lat="42.4489710" lon="-3.0308790">
        <ele>736.6</ele>
        <time>2021-09-30T10:58:55Z</time>
      </trkpt>
      <trkpt lat="42.4489480" lon="-3.0310030">
        <ele>735.4</ele>
        <time>2021-09-30T10:58:56Z</time>
      </trkpt>
      <trkpt lat="42.4489200" lon="-3.0311310">
        <ele>734.4</ele>
        <time>2021-09-30T10:58:57Z</time>
      </trkpt>
      <trkpt lat="42.4488480" lon="-3.0313900">
        <ele>732.0</ele>
        <time>2021-09-30T10:58:59Z</time>
      </trkpt>
      <trkpt lat="42.4488140" lon="-3.0315190">
        <ele>730.6</ele>
        <time>2021-09-30T10:59:00Z</time>
      </trkpt>
      <trkpt lat="42.4487840" lon="-3.0316450">
        <ele>729.0</ele>
        <time>2021-09-30T10:59:01Z</time>
      </trkpt>
      <trkpt lat="42.4487550" lon="-3.0317640">
        <ele>726.4</ele>
        <time>2021-09-30T10:59:02Z</time>
      </trkpt>
      <trkpt lat="42.4487250" lon="-3.0318770">
        <ele>725.4</ele>
        <time>2021-09-30T10:59:03Z</time>
      </trkpt>
      <trkpt lat="42.4486980" lon="-3.0319850">
        <ele>724.0</ele>
        <time>2021-09-30T10:59:04Z</time>
      </trkpt>
      <trkpt lat="42.4486750" lon="-3.0320900">
        <ele>722.4</ele>
        <time>2021-09-30T10:59:05Z</time>
      </trkpt>
      <trkpt lat="42.4486580" lon="-3.0321970">
        <ele>720.6</ele>
        <time>2021-09-30T10:59:06Z</time>
      </trkpt>
      <trkpt lat="42.4486460" lon="-3.0323030">
        <ele>719.0</ele>
        <time>2021-09-30T10:59:07Z</time>
      </trkpt>
      <trkpt lat="42.4486380" lon="-3.0324050">
        <ele>717.8</ele>
        <time>2021-09-30T10:59:08Z</time>
      </trkpt>
      <trkpt lat="42.4486310" lon="-3.0325000">
        <ele>716.8</ele>
        <time>2021-09-30T10:59:09Z</time>
      </trkpt>
      <trkpt lat="42.4486240" lon="-3.0326770">
        <ele>715.0</ele>
        <time>2021-09-30T10:59:11Z</time>
      </trkpt>
      <trkpt lat="42.4486160" lon="-3.0328350">
        <ele>713.2</ele>
        <time>2021-09-30T10:59:13Z</time>
      </trkpt>
      <trkpt lat="42.4486150" lon="-3.0329550">
        <ele>711.4</ele>
        <time>2021-09-30T10:59:15Z</time>
      </trkpt>
      <trkpt lat="42.4486250" lon="-3.0329960">
        <ele>710.6</ele>
        <time>2021-09-30T10:59:16Z</time>
      </trkpt>
      <trkpt lat="42.4486420" lon="-3.0330290">
        <ele>710.2</ele>
        <time>2021-09-30T10:59:17Z</time>
      </trkpt>
      <trkpt lat="42.4486960" lon="-3.0330750">
        <ele>709.2</ele>
        <time>2021-09-30T10:59:19Z</time>
      </trkpt>
      <trkpt lat="42.4487620" lon="-3.0330710">
        <ele>708.0</ele>
        <time>2021-09-30T10:59:21Z</time>
      </trkpt>
      <trkpt lat="42.4488900" lon="-3.0329810">
        <ele>706.8</ele>
        <time>2021-09-30T10:59:25Z</time>
      </trkpt>
      <trkpt lat="42.4489610" lon="-3.0329750">
        <ele>705.4</ele>
        <time>2021-09-30T10:59:27Z</time>
      </trkpt>
      <trkpt lat="42.4490320" lon="-3.0330270">
        <ele>704.4</ele>
        <time>2021-09-30T10:59:29Z</time>
      </trkpt>
      <trkpt lat="42.4491330" lon="-3.0332050">
        <ele>703.4</ele>
        <time>2021-09-30T10:59:32Z</time>
      </trkpt>
      <trkpt lat="42.4491700" lon="-3.0332810">
        <ele>703.2</ele>
        <time>2021-09-30T10:59:33Z</time>
      </trkpt>
      <trkpt lat="42.4493460" lon="-3.0336410">
        <ele>701.8</ele>
        <time>2021-09-30T10:59:37Z</time>
      </trkpt>
      <trkpt lat="42.4494420" lon="-3.0338500">
        <ele>700.6</ele>
        <time>2021-09-30T10:59:39Z</time>
      </trkpt>
      <trkpt lat="42.4495440" lon="-3.0340710">
        <ele>699.2</ele>
        <time>2021-09-30T10:59:41Z</time>
      </trkpt>
      <trkpt lat="42.4495960" lon="-3.0341840">
        <ele>698.0</ele>
        <time>2021-09-30T10:59:42Z</time>
      </trkpt>
      <trkpt lat="42.4496490" lon="-3.0343000">
        <ele>697.0</ele>
        <time>2021-09-30T10:59:43Z</time>
      </trkpt>
      <trkpt lat="42.4497560" lon="-3.0345340">
        <ele>695.2</ele>
        <time>2021-09-30T10:59:45Z</time>
      </trkpt>
      <trkpt lat="42.4498640" lon="-3.0347640">
        <ele>693.2</ele>
        <time>2021-09-30T10:59:47Z</time>
      </trkpt>
      <trkpt lat="42.4499160" lon="-3.0348740">
        <ele>692.2</ele>
        <time>2021-09-30T10:59:48Z</time>
      </trkpt>
      <trkpt lat="42.4500140" lon="-3.0350790">
        <ele>690.6</ele>
        <time>2021-09-30T10:59:50Z</time>
      </trkpt>
      <trkpt lat="42.4501060" lon="-3.0352710">
        <ele>689.4</ele>
        <time>2021-09-30T10:59:52Z</time>
      </trkpt>
      <trkpt lat="42.4501920" lon="-3.0354530">
        <ele>689.0</ele>
        <time>2021-09-30T10:59:54Z</time>
      </trkpt>
      <trkpt lat="42.4503470" lon="-3.0357710">
        <ele>689.0</ele>
        <time>2021-09-30T10:59:58Z</time>
      </trkpt>
      <trkpt lat="42.4504140" lon="-3.0359140">
        <ele>689.0</ele>
        <time>2021-09-30T11:00:00Z</time>
      </trkpt>
      <trkpt lat="42.4504800" lon="-3.0360580">
        <ele>689.0</ele>
        <time>2021-09-30T11:00:02Z</time>
      </trkpt>
      <trkpt lat="42.4505790" lon="-3.0362760">
        <ele>690.2</ele>
        <time>2021-09-30T11:00:05Z</time>
      </trkpt>
      <trkpt lat="42.4506120" lon="-3.0363480">
        <ele>690.8</ele>
        <time>2021-09-30T11:00:06Z</time>
      </trkpt>
      <trkpt lat="42.4506780" lon="-3.0364870">
        <ele>691.8</ele>
        <time>2021-09-30T11:00:08Z</time>
      </trkpt>
      <trkpt lat="42.4507120" lon="-3.0365550">
        <ele>692.0</ele>
        <time>2021-09-30T11:00:09Z</time>
      </trkpt>
      <trkpt lat="42.4508060" lon="-3.0367520">
        <ele>693.0</ele>
        <time>2021-09-30T11:00:12Z</time>
      </trkpt>
      <trkpt lat="42.4508350" lon="-3.0368110">
        <ele>693.2</ele>
        <time>2021-09-30T11:00:13Z</time>
      </trkpt>
      <trkpt lat="42.4508850" lon="-3.0369240">
        <ele>693.8</ele>
        <time>2021-09-30T11:00:15Z</time>
      </trkpt>
      <trkpt lat="42.4508970" lon="-3.0369800">
        <ele>694.2</ele>
        <time>2021-09-30T11:00:16Z</time>
      </trkpt>
      <trkpt lat="42.4508830" lon="-3.0370750">
        <ele>695.4</ele>
        <time>2021-09-30T11:00:18Z</time>
      </trkpt>
      <trkpt lat="42.4508410" lon="-3.0371460">
        <ele>696.4</ele>
        <time>2021-09-30T11:00:20Z</time>
      </trkpt>
      <trkpt lat="42.4508140" lon="-3.0371780">
        <ele>696.8</ele>
        <time>2021-09-30T11:00:21Z</time>
      </trkpt>
      <trkpt lat="42.4507490" lon="-3.0372420">
        <ele>697.6</ele>
        <time>2021-09-30T11:00:23Z</time>
      </trkpt>
      <trkpt lat="42.4506420" lon="-3.0373440">
        <ele>698.8</ele>
        <time>2021-09-30T11:00:26Z</time>
      </trkpt>
      <trkpt lat="42.4505670" lon="-3.0374130">
        <ele>699.2</ele>
        <time>2021-09-30T11:00:28Z</time>
      </trkpt>
      <trkpt lat="42.4500940" lon="-3.0378800">
        <ele>699.6</ele>
        <time>2021-09-30T11:00:40Z</time>
      </trkpt>
      <trkpt lat="42.4499010" lon="-3.0380720">
        <ele>700.0</ele>
        <time>2021-09-30T11:00:45Z</time>
      </trkpt>
      <trkpt lat="42.4495340" lon="-3.0384380">
        <ele>701.0</ele>
        <time>2021-09-30T11:00:55Z</time>
      </trkpt>
      <trkpt lat="42.4493640" lon="-3.0386040">
        <ele>702.0</ele>
        <time>2021-09-30T11:01:00Z</time>
      </trkpt>
      <trkpt lat="42.4491380" lon="-3.0388280">
        <ele>703.2</ele>
        <time>2021-09-30T11:01:07Z</time>
      </trkpt>
      <trkpt lat="42.4489850" lon="-3.0389830">
        <ele>704.4</ele>
        <time>2021-09-30T11:01:12Z</time>
      </trkpt>
      <trkpt lat="42.4488310" lon="-3.0391420">
        <ele>705.4</ele>
        <time>2021-09-30T11:01:17Z</time>
      </trkpt>
      <trkpt lat="42.4487300" lon="-3.0392880">
        <ele>706.6</ele>
        <time>2021-09-30T11:01:21Z</time>
      </trkpt>
      <trkpt lat="42.4486720" lon="-3.0394480">
        <ele>707.6</ele>
        <time>2021-09-30T11:01:25Z</time>
      </trkpt>
      <trkpt lat="42.4486370" lon="-3.0396170">
        <ele>708.8</ele>
        <time>2021-09-30T11:01:29Z</time>
      </trkpt>
      <trkpt lat="42.4485790" lon="-3.0398280">
        <ele>710.0</ele>
        <time>2021-09-30T11:01:34Z</time>
      </trkpt>
      <trkpt lat="42.4485220" lon="-3.0399820">
        <ele>711.4</ele>
        <time>2021-09-30T11:01:38Z</time>
      </trkpt>
      <trkpt lat="42.4484810" lon="-3.0400960">
        <ele>712.4</ele>
        <time>2021-09-30T11:01:41Z</time>
      </trkpt>
      <trkpt lat="42.4484130" lon="-3.0402390">
        <ele>713.6</ele>
        <time>2021-09-30T11:01:45Z</time>
      </trkpt>
      <trkpt lat="42.4483090" lon="-3.0404470">
        <ele>714.8</ele>
        <time>2021-09-30T11:01:51Z</time>
      </trkpt>
      <trkpt lat="42.4482210" lon="-3.0406180">
        <ele>715.8</ele>
        <time>2021-09-30T11:01:56Z</time>
      </trkpt>
      <trkpt lat="42.4481360" lon="-3.0407900">
        <ele>717.0</ele>
        <time>2021-09-30T11:02:01Z</time>
      </trkpt>
      <trkpt lat="42.4480230" lon="-3.0409910">
        <ele>718.0</ele>
        <time>2021-09-30T11:02:07Z</time>
      </trkpt>
      <trkpt lat="42.4479290" lon="-3.0411670">
        <ele>719.0</ele>
        <time>2021-09-30T11:02:12Z</time>
      </trkpt>
      <trkpt lat="42.4478340" lon="-3.0413420">
        <ele>720.0</ele>
        <time>2021-09-30T11:02:17Z</time>
      </trkpt>
      <trkpt lat="42.4477400" lon="-3.0415120">
        <ele>721.2</ele>
        <time>2021-09-30T11:02:22Z</time>
      </trkpt>
      <trkpt lat="42.4476230" lon="-3.0417110">
        <ele>722.2</ele>
        <time>2021-09-30T11:02:28Z</time>
      </trkpt>
      <trkpt lat="42.4474500" lon="-3.0420140">
        <ele>723.4</ele>
        <time>2021-09-30T11:02:37Z</time>
      </trkpt>
      <trkpt lat="42.4473670" lon="-3.0421480">
        <ele>724.4</ele>
        <time>2021-09-30T11:02:41Z</time>
      </trkpt>
      <trkpt lat="42.4472500" lon="-3.0423600">
        <ele>725.4</ele>
        <time>2021-09-30T11:02:47Z</time>
      </trkpt>
      <trkpt lat="42.4471750" lon="-3.0424980">
        <ele>726.6</ele>
        <time>2021-09-30T11:02:51Z</time>
      </trkpt>
      <trkpt lat="42.4470570" lon="-3.0426970">
        <ele>727.8</ele>
        <time>2021-09-30T11:02:57Z</time>
      </trkpt>
      <trkpt lat="42.4469780" lon="-3.0428430">
        <ele>728.8</ele>
        <time>2021-09-30T11:03:01Z</time>
      </trkpt>
      <trkpt lat="42.4468520" lon="-3.0430500">
        <ele>730.0</ele>
        <time>2021-09-30T11:03:07Z</time>
      </trkpt>
      <trkpt lat="42.4467470" lon="-3.0432250">
        <ele>731.0</ele>
        <time>2021-09-30T11:03:12Z</time>
      </trkpt>
      <trkpt lat="42.4466140" lon="-3.0434240">
        <ele>732.2</ele>
        <time>2021-09-30T11:03:18Z</time>
      </trkpt>
      <trkpt lat="42.4465290" lon="-3.0435600">
        <ele>733.2</ele>
        <time>2021-09-30T11:03:22Z</time>
      </trkpt>
      <trkpt lat="42.4464140" lon="-3.0437320">
        <ele>734.4</ele>
        <time>2021-09-30T11:03:27Z</time>
      </trkpt>
      <trkpt lat="42.4463180" lon="-3.0438740">
        <ele>735.4</ele>
        <time>2021-09-30T11:03:31Z</time>
      </trkpt>
      <trkpt lat="42.4462200" lon="-3.0440160">
        <ele>736.6</ele>
        <time>2021-09-30T11:03:35Z</time>
      </trkpt>
      <trkpt lat="42.4459950" lon="-3.0443470">
        <ele>737.6</ele>
        <time>2021-09-30T11:03:44Z</time>
      </trkpt>
      <trkpt lat="42.4458570" lon="-3.0445500">
        <ele>738.6</ele>
        <time>2021-09-30T11:03:49Z</time>
      </trkpt>
      <trkpt lat="42.4456870" lon="-3.0447990">
        <ele>739.0</ele>
        <time>2021-09-30T11:03:55Z</time>
      </trkpt>
      <trkpt lat="42.4455180" lon="-3.0450360">
        <ele>739.6</ele>
        <time>2021-09-30T11:04:01Z</time>
      </trkpt>
      <trkpt lat="42.4453190" lon="-3.0453170">
        <ele>740.8</ele>
        <time>2021-09-30T11:04:08Z</time>
      </trkpt>
      <trkpt lat="42.4451580" lon="-3.0455540">
        <ele>741.8</ele>
        <time>2021-09-30T11:04:14Z</time>
      </trkpt>
      <trkpt lat="42.4450610" lon="-3.0458330">
        <ele>743.0</ele>
        <time>2021-09-30T11:04:21Z</time>
      </trkpt>
      <trkpt lat="42.4450580" lon="-3.0458700">
        <ele>743.8</ele>
        <time>2021-09-30T11:04:24Z</time>
      </trkpt>
      <trkpt lat="42.4450710" lon="-3.0459990">
        <ele>746.8</ele>
        <time>2021-09-30T11:15:20Z</time>
      </trkpt>
      <trkpt lat="42.4450620" lon="-3.0460280">
        <ele>746.8</ele>
        <time>2021-09-30T11:15:21Z</time>
      </trkpt>
      <trkpt lat="42.4448370" lon="-3.0468210">
        <ele>745.8</ele>
        <time>2021-09-30T11:15:32Z</time>
      </trkpt>
      <trkpt lat="42.4448070" lon="-3.0469390">
        <ele>745.0</ele>
        <time>2021-09-30T11:15:33Z</time>
      </trkpt>
      <trkpt lat="42.4447430" lon="-3.0471830">
        <ele>743.4</ele>
        <time>2021-09-30T11:15:35Z</time>
      </trkpt>
      <trkpt lat="42.4446760" lon="-3.0474300">
        <ele>741.0</ele>
        <time>2021-09-30T11:15:37Z</time>
      </trkpt>
      <trkpt lat="42.4446440" lon="-3.0475510">
        <ele>739.6</ele>
        <time>2021-09-30T11:15:38Z</time>
      </trkpt>
      <trkpt lat="42.4446130" lon="-3.0476690">
        <ele>738.4</ele>
        <time>2021-09-30T11:15:39Z</time>
      </trkpt>
      <trkpt lat="42.4445540" lon="-3.0478970">
        <ele>736.4</ele>
        <time>2021-09-30T11:15:41Z</time>
      </trkpt>
      <trkpt lat="42.4445270" lon="-3.0480040">
        <ele>735.4</ele>
        <time>2021-09-30T11:15:42Z</time>
      </trkpt>
      <trkpt lat="42.4444240" lon="-3.0483920">
        <ele>734.4</ele>
        <time>2021-09-30T11:15:46Z</time>
      </trkpt>
      <trkpt lat="42.4443840" lon="-3.0485710">
        <ele>734.4</ele>
        <time>2021-09-30T11:15:48Z</time>
      </trkpt>
      <trkpt lat="42.4443360" lon="-3.0487450">
        <ele>734.4</ele>
        <time>2021-09-30T11:15:50Z</time>
      </trkpt>
      <trkpt lat="42.4442890" lon="-3.0489150">
        <ele>734.4</ele>
        <time>2021-09-30T11:15:52Z</time>
      </trkpt>
      <trkpt lat="42.4442430" lon="-3.0490820">
        <ele>735.2</ele>
        <time>2021-09-30T11:15:54Z</time>
      </trkpt>
      <trkpt lat="42.4442200" lon="-3.0491640">
        <ele>735.8</ele>
        <time>2021-09-30T11:15:55Z</time>
      </trkpt>
      <trkpt lat="42.4441970" lon="-3.0492470">
        <ele>736.0</ele>
        <time>2021-09-30T11:15:56Z</time>
      </trkpt>
      <trkpt lat="42.4441500" lon="-3.0494080">
        <ele>736.4</ele>
        <time>2021-09-30T11:15:58Z</time>
      </trkpt>
      <trkpt lat="42.4441000" lon="-3.0495650">
        <ele>736.8</ele>
        <time>2021-09-30T11:16:00Z</time>
      </trkpt>
      <trkpt lat="42.4440500" lon="-3.0497160">
        <ele>737.8</ele>
        <time>2021-09-30T11:16:02Z</time>
      </trkpt>
      <trkpt lat="42.4439490" lon="-3.0499970">
        <ele>738.8</ele>
        <time>2021-09-30T11:16:06Z</time>
      </trkpt>
      <trkpt lat="42.4439260" lon="-3.0500660">
        <ele>739.0</ele>
        <time>2021-09-30T11:16:07Z</time>
      </trkpt>
      <trkpt lat="42.4438620" lon="-3.0502640">
        <ele>740.0</ele>
        <time>2021-09-30T11:16:10Z</time>
      </trkpt>
      <trkpt lat="42.4436460" lon="-3.0508810">
        <ele>740.8</ele>
        <time>2021-09-30T11:16:18Z</time>
      </trkpt>
      <trkpt lat="42.4435380" lon="-3.0512060">
        <ele>740.8</ele>
        <time>2021-09-30T11:16:21Z</time>
      </trkpt>
      <trkpt lat="42.4434330" lon="-3.0515610">
        <ele>739.8</ele>
        <time>2021-09-30T11:16:24Z</time>
      </trkpt>
      <trkpt lat="42.4433620" lon="-3.0518000">
        <ele>738.2</ele>
        <time>2021-09-30T11:16:26Z</time>
      </trkpt>
      <trkpt lat="42.4433260" lon="-3.0519220">
        <ele>737.2</ele>
        <time>2021-09-30T11:16:27Z</time>
      </trkpt>
      <trkpt lat="42.4432850" lon="-3.0520410">
        <ele>736.2</ele>
        <time>2021-09-30T11:16:28Z</time>
      </trkpt>
      <trkpt lat="42.4431880" lon="-3.0522740">
        <ele>734.8</ele>
        <time>2021-09-30T11:16:30Z</time>
      </trkpt>
      <trkpt lat="42.4430720" lon="-3.0525000">
        <ele>733.4</ele>
        <time>2021-09-30T11:16:32Z</time>
      </trkpt>
      <trkpt lat="42.4429520" lon="-3.0527210">
        <ele>732.2</ele>
        <time>2021-09-30T11:16:34Z</time>
      </trkpt>
      <trkpt lat="42.4428370" lon="-3.0529410">
        <ele>730.6</ele>
        <time>2021-09-30T11:16:36Z</time>
      </trkpt>
      <trkpt lat="42.4427200" lon="-3.0531500">
        <ele>729.2</ele>
        <time>2021-09-30T11:16:38Z</time>
      </trkpt>
      <trkpt lat="42.4426040" lon="-3.0533480">
        <ele>727.8</ele>
        <time>2021-09-30T11:16:40Z</time>
      </trkpt>
      <trkpt lat="42.4424880" lon="-3.0535290">
        <ele>725.8</ele>
        <time>2021-09-30T11:16:42Z</time>
      </trkpt>
      <trkpt lat="42.4421450" lon="-3.0540270">
        <ele>725.6</ele>
        <time>2021-09-30T11:16:48Z</time>
      </trkpt>
      <trkpt lat="42.4417390" lon="-3.0546180">
        <ele>726.4</ele>
        <time>2021-09-30T11:16:56Z</time>
      </trkpt>
      <trkpt lat="42.4415400" lon="-3.0549670">
        <ele>726.8</ele>
        <time>2021-09-30T11:17:01Z</time>
      </trkpt>
      <trkpt lat="42.4414370" lon="-3.0551710">
        <ele>727.2</ele>
        <time>2021-09-30T11:17:04Z</time>
      </trkpt>
      <trkpt lat="42.4412970" lon="-3.0554270">
        <ele>728.4</ele>
        <time>2021-09-30T11:17:08Z</time>
      </trkpt>
      <trkpt lat="42.4411320" lon="-3.0557160">
        <ele>729.6</ele>
        <time>2021-09-30T11:17:12Z</time>
      </trkpt>
      <trkpt lat="42.4410060" lon="-3.0559600">
        <ele>729.8</ele>
        <time>2021-09-30T11:17:15Z</time>
      </trkpt>
      <trkpt lat="42.4408060" lon="-3.0563270">
        <ele>730.2</ele>
        <time>2021-09-30T11:17:20Z</time>
      </trkpt>
      <trkpt lat="42.4405300" lon="-3.0568190">
        <ele>730.8</ele>
        <time>2021-09-30T11:17:27Z</time>
      </trkpt>
      <trkpt lat="42.4403020" lon="-3.0572300">
        <ele>731.8</ele>
        <time>2021-09-30T11:17:33Z</time>
      </trkpt>
      <trkpt lat="42.4400870" lon="-3.0576310">
        <ele>732.8</ele>
        <time>2021-09-30T11:17:39Z</time>
      </trkpt>
      <trkpt lat="42.4397630" lon="-3.0583100">
        <ele>734.0</ele>
        <time>2021-09-30T11:17:49Z</time>
      </trkpt>
      <trkpt lat="42.4397320" lon="-3.0583800">
        <ele>734.2</ele>
        <time>2021-09-30T11:17:50Z</time>
      </trkpt>
      <trkpt lat="42.4396300" lon="-3.0585950">
        <ele>735.2</ele>
        <time>2021-09-30T11:17:53Z</time>
      </trkpt>
      <trkpt lat="42.4394290" lon="-3.0590030">
        <ele>736.4</ele>
        <time>2021-09-30T11:17:59Z</time>
      </trkpt>
      <trkpt lat="42.4391150" lon="-3.0596840">
        <ele>737.6</ele>
        <time>2021-09-30T11:18:09Z</time>
      </trkpt>
      <trkpt lat="42.4389540" lon="-3.0600340">
        <ele>738.6</ele>
        <time>2021-09-30T11:18:14Z</time>
      </trkpt>
      <trkpt lat="42.4386930" lon="-3.0605950">
        <ele>739.6</ele>
        <time>2021-09-30T11:18:22Z</time>
      </trkpt>
      <trkpt lat="42.4385300" lon="-3.0610370">
        <ele>740.6</ele>
        <time>2021-09-30T11:18:28Z</time>
      </trkpt>
      <trkpt lat="42.4383460" lon="-3.0615270">
        <ele>741.4</ele>
        <time>2021-09-30T11:18:35Z</time>
      </trkpt>
      <trkpt lat="42.4382670" lon="-3.0617250">
        <ele>741.6</ele>
        <time>2021-09-30T11:18:38Z</time>
      </trkpt>
      <trkpt lat="42.4381380" lon="-3.0621070">
        <ele>742.4</ele>
        <time>2021-09-30T11:18:44Z</time>
      </trkpt>
      <trkpt lat="42.4381290" lon="-3.0621670">
        <ele>742.6</ele>
        <time>2021-09-30T11:18:45Z</time>
      </trkpt>
      <trkpt lat="42.4382480" lon="-3.0623900">
        <ele>743.6</ele>
        <time>2021-09-30T11:18:50Z</time>
      </trkpt>
      <trkpt lat="42.4383260" lon="-3.0624540">
        <ele>743.8</ele>
        <time>2021-09-30T11:18:52Z</time>
      </trkpt>
      <trkpt lat="42.4384420" lon="-3.0625580">
        <ele>743.8</ele>
        <time>2021-09-30T11:18:55Z</time>
      </trkpt>
      <trkpt lat="42.4385250" lon="-3.0626280">
        <ele>743.8</ele>
        <time>2021-09-30T11:18:57Z</time>
      </trkpt>
      <trkpt lat="42.4386370" lon="-3.0627290">
        <ele>743.8</ele>
        <time>2021-09-30T11:19:00Z</time>
      </trkpt>
      <trkpt lat="42.4386860" lon="-3.0627790">
        <ele>743.6</ele>
        <time>2021-09-30T11:19:02Z</time>
      </trkpt>
      <trkpt lat="42.4388030" lon="-3.0629750">
        <ele>743.4</ele>
        <time>2021-09-30T11:19:09Z</time>
      </trkpt>
      <trkpt lat="42.4388610" lon="-3.0631800">
        <ele>743.2</ele>
        <time>2021-09-30T11:19:13Z</time>
      </trkpt>
      <trkpt lat="42.4388120" lon="-3.0634470">
        <ele>743.4</ele>
        <time>2021-09-30T11:19:18Z</time>
      </trkpt>
      <trkpt lat="42.4387630" lon="-3.0636050">
        <ele>743.4</ele>
        <time>2021-09-30T11:19:21Z</time>
      </trkpt>
      <trkpt lat="42.4385190" lon="-3.0642850">
        <ele>744.0</ele>
        <time>2021-09-30T11:19:34Z</time>
      </trkpt>
      <trkpt lat="42.4384150" lon="-3.0646000">
        <ele>744.8</ele>
        <time>2021-09-30T11:19:40Z</time>
      </trkpt>
      <trkpt lat="42.4383020" lon="-3.0649380">
        <ele>745.8</ele>
        <time>2021-09-30T11:19:47Z</time>
      </trkpt>
      <trkpt lat="42.4382240" lon="-3.0651750">
        <ele>747.0</ele>
        <time>2021-09-30T11:19:52Z</time>
      </trkpt>
      <trkpt lat="42.4380390" lon="-3.0657780">
        <ele>748.2</ele>
        <time>2021-09-30T11:20:04Z</time>
      </trkpt>
      <trkpt lat="42.4379420" lon="-3.0660580">
        <ele>748.8</ele>
        <time>2021-09-30T11:20:10Z</time>
      </trkpt>
      <trkpt lat="42.4379090" lon="-3.0662480">
        <ele>749.0</ele>
        <time>2021-09-30T11:20:14Z</time>
      </trkpt>
      <trkpt lat="42.4378140" lon="-3.0665660">
        <ele>749.0</ele>
        <time>2021-09-30T11:20:20Z</time>
      </trkpt>
      <trkpt lat="42.4377080" lon="-3.0668990">
        <ele>749.2</ele>
        <time>2021-09-30T11:20:26Z</time>
      </trkpt>
      <trkpt lat="42.4376390" lon="-3.0672030">
        <ele>749.4</ele>
        <time>2021-09-30T11:20:31Z</time>
      </trkpt>
      <trkpt lat="42.4376040" lon="-3.0674690">
        <ele>749.6</ele>
        <time>2021-09-30T11:20:35Z</time>
      </trkpt>
      <trkpt lat="42.4373970" lon="-3.0681570">
        <ele>750.4</ele>
        <time>2021-09-30T11:20:46Z</time>
      </trkpt>
      <trkpt lat="42.4373320" lon="-3.0684510">
        <ele>750.8</ele>
        <time>2021-09-30T11:20:51Z</time>
      </trkpt>
      <trkpt lat="42.4373210" lon="-3.0685830">
        <ele>751.4</ele>
        <time>2021-09-30T11:20:53Z</time>
      </trkpt>
      <trkpt lat="42.4373040" lon="-3.0686490">
        <ele>751.4</ele>
        <time>2021-09-30T11:20:54Z</time>
      </trkpt>
      <trkpt lat="42.4372480" lon="-3.0688670">
        <ele>751.8</ele>
        <time>2021-09-30T11:20:57Z</time>
      </trkpt>
      <trkpt lat="42.4372130" lon="-3.0690830">
        <ele>752.0</ele>
        <time>2021-09-30T11:21:00Z</time>
      </trkpt>
      <trkpt lat="42.4372020" lon="-3.0693970">
        <ele>752.0</ele>
        <time>2021-09-30T11:21:04Z</time>
      </trkpt>
      <trkpt lat="42.4372030" lon="-3.0697030">
        <ele>751.8</ele>
        <time>2021-09-30T11:21:08Z</time>
      </trkpt>
      <trkpt lat="42.4372140" lon="-3.0698840">
        <ele>751.6</ele>
        <time>2021-09-30T11:21:11Z</time>
      </trkpt>
      <trkpt lat="42.4372140" lon="-3.0699840">
        <ele>751.6</ele>
        <time>2021-09-30T11:21:13Z</time>
      </trkpt>
      <trkpt lat="42.4372150" lon="-3.0701650">
        <ele>751.6</ele>
        <time>2021-09-30T11:21:17Z</time>
      </trkpt>
      <trkpt lat="42.4372160" lon="-3.0702920">
        <ele>752.6</ele>
        <time>2021-09-30T11:21:20Z</time>
      </trkpt>
      <trkpt lat="42.4372100" lon="-3.0704710">
        <ele>753.6</ele>
        <time>2021-09-30T11:21:24Z</time>
      </trkpt>
      <trkpt lat="42.4372050" lon="-3.0706110">
        <ele>754.6</ele>
        <time>2021-09-30T11:21:27Z</time>
      </trkpt>
      <trkpt lat="42.4372050" lon="-3.0708110">
        <ele>755.6</ele>
        <time>2021-09-30T11:21:31Z</time>
      </trkpt>
      <trkpt lat="42.4372100" lon="-3.0713140">
        <ele>756.6</ele>
        <time>2021-09-30T11:21:41Z</time>
      </trkpt>
      <trkpt lat="42.4372110" lon="-3.0713630">
        <ele>756.8</ele>
        <time>2021-09-30T11:21:42Z</time>
      </trkpt>
      <trkpt lat="42.4372210" lon="-3.0717570">
        <ele>757.8</ele>
        <time>2021-09-30T11:21:50Z</time>
      </trkpt>
      <trkpt lat="42.4372220" lon="-3.0723490">
        <ele>759.0</ele>
        <time>2021-09-30T11:22:02Z</time>
      </trkpt>
      <trkpt lat="42.4372320" lon="-3.0725460">
        <ele>760.0</ele>
        <time>2021-09-30T11:22:06Z</time>
      </trkpt>
      <trkpt lat="42.4372330" lon="-3.0728000">
        <ele>761.2</ele>
        <time>2021-09-30T11:22:11Z</time>
      </trkpt>
      <trkpt lat="42.4372470" lon="-3.0731710">
        <ele>762.2</ele>
        <time>2021-09-30T11:22:18Z</time>
      </trkpt>
      <trkpt lat="42.4373010" lon="-3.0738900">
        <ele>763.2</ele>
        <time>2021-09-30T11:22:30Z</time>
      </trkpt>
      <trkpt lat="42.4373100" lon="-3.0740810">
        <ele>763.4</ele>
        <time>2021-09-30T11:22:33Z</time>
      </trkpt>
      <trkpt lat="42.4373510" lon="-3.0745500">
        <ele>764.2</ele>
        <time>2021-09-30T11:22:40Z</time>
      </trkpt>
      <trkpt lat="42.4373590" lon="-3.0748670">
        <ele>764.4</ele>
        <time>2021-09-30T11:22:44Z</time>
      </trkpt>
      <trkpt lat="42.4373670" lon="-3.0750480">
        <ele>764.4</ele>
        <time>2021-09-30T11:22:46Z</time>
      </trkpt>
      <trkpt lat="42.4373840" lon="-3.0753180">
        <ele>764.4</ele>
        <time>2021-09-30T11:22:49Z</time>
      </trkpt>
      <trkpt lat="42.4374270" lon="-3.0760700">
        <ele>762.6</ele>
        <time>2021-09-30T11:22:57Z</time>
      </trkpt>
      <trkpt lat="42.4374380" lon="-3.0762670">
        <ele>762.4</ele>
        <time>2021-09-30T11:22:59Z</time>
      </trkpt>
      <trkpt lat="42.4374540" lon="-3.0765620">
        <ele>761.8</ele>
        <time>2021-09-30T11:23:02Z</time>
      </trkpt>
      <trkpt lat="42.4374780" lon="-3.0769610">
        <ele>761.4</ele>
        <time>2021-09-30T11:23:06Z</time>
      </trkpt>
      <trkpt lat="42.4374830" lon="-3.0770610">
        <ele>761.4</ele>
        <time>2021-09-30T11:23:07Z</time>
      </trkpt>
      <trkpt lat="42.4375060" lon="-3.0778360">
        <ele>760.8</ele>
        <time>2021-09-30T11:23:15Z</time>
      </trkpt>
      <trkpt lat="42.4375660" lon="-3.0786340">
        <ele>760.6</ele>
        <time>2021-09-30T11:23:24Z</time>
      </trkpt>
      <trkpt lat="42.4376040" lon="-3.0791130">
        <ele>760.6</ele>
        <time>2021-09-30T11:23:30Z</time>
      </trkpt>
      <trkpt lat="42.4376220" lon="-3.0793480">
        <ele>761.2</ele>
        <time>2021-09-30T11:23:33Z</time>
      </trkpt>
      <trkpt lat="42.4376250" lon="-3.0794250">
        <ele>761.6</ele>
        <time>2021-09-30T11:23:34Z</time>
      </trkpt>
      <trkpt lat="42.4376130" lon="-3.0795730">
        <ele>762.0</ele>
        <time>2021-09-30T11:23:36Z</time>
      </trkpt>
      <trkpt lat="42.4375960" lon="-3.0796420">
        <ele>762.2</ele>
        <time>2021-09-30T11:23:37Z</time>
      </trkpt>
      <trkpt lat="42.4375700" lon="-3.0797030">
        <ele>762.2</ele>
        <time>2021-09-30T11:23:38Z</time>
      </trkpt>
      <trkpt lat="42.4375380" lon="-3.0797550">
        <ele>762.4</ele>
        <time>2021-09-30T11:23:39Z</time>
      </trkpt>
      <trkpt lat="42.4374090" lon="-3.0798580">
        <ele>763.2</ele>
        <time>2021-09-30T11:23:42Z</time>
      </trkpt>
      <trkpt lat="42.4373200" lon="-3.0799150">
        <ele>763.6</ele>
        <time>2021-09-30T11:23:44Z</time>
      </trkpt>
      <trkpt lat="42.4372770" lon="-3.0799410">
        <ele>764.0</ele>
        <time>2021-09-30T11:23:45Z</time>
      </trkpt>
      <trkpt lat="42.4370330" lon="-3.0801330">
        <ele>764.8</ele>
        <time>2021-09-30T11:23:52Z</time>
      </trkpt>
      <trkpt lat="42.4370140" lon="-3.0803310">
        <ele>766.0</ele>
        <time>2021-09-30T11:23:56Z</time>
      </trkpt>
      <trkpt lat="42.4370250" lon="-3.0805310">
        <ele>767.4</ele>
        <time>2021-09-30T11:24:00Z</time>
      </trkpt>
      <trkpt lat="42.4370410" lon="-3.0807730">
        <ele>768.8</ele>
        <time>2021-09-30T11:24:05Z</time>
      </trkpt>
      <trkpt lat="42.4370650" lon="-3.0810010">
        <ele>770.0</ele>
        <time>2021-09-30T11:24:10Z</time>
      </trkpt>
      <trkpt lat="42.4370890" lon="-3.0811770">
        <ele>771.4</ele>
        <time>2021-09-30T11:24:14Z</time>
      </trkpt>
      <trkpt lat="42.4371110" lon="-3.0813180">
        <ele>772.4</ele>
        <time>2021-09-30T11:24:17Z</time>
      </trkpt>
      <trkpt lat="42.4371300" lon="-3.0815050">
        <ele>773.6</ele>
        <time>2021-09-30T11:24:21Z</time>
      </trkpt>
      <trkpt lat="42.4371240" lon="-3.0817010">
        <ele>774.8</ele>
        <time>2021-09-30T11:24:25Z</time>
      </trkpt>
      <trkpt lat="42.4370530" lon="-3.0821490">
        <ele>775.6</ele>
        <time>2021-09-30T11:24:34Z</time>
      </trkpt>
      <trkpt lat="42.4370340" lon="-3.0822500">
        <ele>775.8</ele>
        <time>2021-09-30T11:24:36Z</time>
      </trkpt>
      <trkpt lat="42.4369760" lon="-3.0825550">
        <ele>776.6</ele>
        <time>2021-09-30T11:24:42Z</time>
      </trkpt>
      <trkpt lat="42.4369420" lon="-3.0827200">
        <ele>776.8</ele>
        <time>2021-09-30T11:24:45Z</time>
      </trkpt>
      <trkpt lat="42.4369070" lon="-3.0829510">
        <ele>776.8</ele>
        <time>2021-09-30T11:24:49Z</time>
      </trkpt>
      <trkpt lat="42.4368840" lon="-3.0830630">
        <ele>776.8</ele>
        <time>2021-09-30T11:24:51Z</time>
      </trkpt>
      <trkpt lat="42.4368510" lon="-3.0832170">
        <ele>777.0</ele>
        <time>2021-09-30T11:24:54Z</time>
      </trkpt>
      <trkpt lat="42.4368130" lon="-3.0834250">
        <ele>777.2</ele>
        <time>2021-09-30T11:24:58Z</time>
      </trkpt>
      <trkpt lat="42.4368020" lon="-3.0835390">
        <ele>777.2</ele>
        <time>2021-09-30T11:25:00Z</time>
      </trkpt>
      <trkpt lat="42.4367510" lon="-3.0837750">
        <ele>777.2</ele>
        <time>2021-09-30T11:25:04Z</time>
      </trkpt>
      <trkpt lat="42.4367040" lon="-3.0839510">
        <ele>777.2</ele>
        <time>2021-09-30T11:25:07Z</time>
      </trkpt>
      <trkpt lat="42.4366680" lon="-3.0840730">
        <ele>777.2</ele>
        <time>2021-09-30T11:25:09Z</time>
      </trkpt>
      <trkpt lat="42.4366330" lon="-3.0842130">
        <ele>777.2</ele>
        <time>2021-09-30T11:25:11Z</time>
      </trkpt>
      <trkpt lat="42.4366050" lon="-3.0843730">
        <ele>777.0</ele>
        <time>2021-09-30T11:25:13Z</time>
      </trkpt>
      <trkpt lat="42.4365840" lon="-3.0845380">
        <ele>776.8</ele>
        <time>2021-09-30T11:25:15Z</time>
      </trkpt>
      <trkpt lat="42.4365580" lon="-3.0848300">
        <ele>775.8</ele>
        <time>2021-09-30T11:25:19Z</time>
      </trkpt>
      <trkpt lat="42.4365450" lon="-3.0850190">
        <ele>775.4</ele>
        <time>2021-09-30T11:25:22Z</time>
      </trkpt>
      <trkpt lat="42.4364970" lon="-3.0852310">
        <ele>775.4</ele>
        <time>2021-09-30T11:25:26Z</time>
      </trkpt>
      <trkpt lat="42.4364570" lon="-3.0856850">
        <ele>776.4</ele>
        <time>2021-09-30T11:25:34Z</time>
      </trkpt>
      <trkpt lat="42.4364570" lon="-3.0858610">
        <ele>776.8</ele>
        <time>2021-09-30T11:25:37Z</time>
      </trkpt>
      <trkpt lat="42.4364510" lon="-3.0860430">
        <ele>776.8</ele>
        <time>2021-09-30T11:25:40Z</time>
      </trkpt>
      <trkpt lat="42.4364310" lon="-3.0863420">
        <ele>776.8</ele>
        <time>2021-09-30T11:25:44Z</time>
      </trkpt>
      <trkpt lat="42.4365020" lon="-3.0864900">
        <ele>776.6</ele>
        <time>2021-09-30T11:25:47Z</time>
      </trkpt>
      <trkpt lat="42.4366050" lon="-3.0865120">
        <ele>775.6</ele>
        <time>2021-09-30T11:25:50Z</time>
      </trkpt>
      <trkpt lat="42.4366590" lon="-3.0865430">
        <ele>774.6</ele>
        <time>2021-09-30T11:25:52Z</time>
      </trkpt>
      <trkpt lat="42.4366790" lon="-3.0866210">
        <ele>773.2</ele>
        <time>2021-09-30T11:25:54Z</time>
      </trkpt>
      <trkpt lat="42.4366390" lon="-3.0867190">
        <ele>772.0</ele>
        <time>2021-09-30T11:25:56Z</time>
      </trkpt>
      <trkpt lat="42.4365480" lon="-3.0868300">
        <ele>770.6</ele>
        <time>2021-09-30T11:25:58Z</time>
      </trkpt>
      <trkpt lat="42.4364290" lon="-3.0869600">
        <ele>769.6</ele>
        <time>2021-09-30T11:26:00Z</time>
      </trkpt>
      <trkpt lat="42.4362310" lon="-3.0871750">
        <ele>768.4</ele>
        <time>2021-09-30T11:26:03Z</time>
      </trkpt>
      <trkpt lat="42.4361000" lon="-3.0873200">
        <ele>766.8</ele>
        <time>2021-09-30T11:26:05Z</time>
      </trkpt>
      <trkpt lat="42.4359810" lon="-3.0874750">
        <ele>764.8</ele>
        <time>2021-09-30T11:26:07Z</time>
      </trkpt>
      <trkpt lat="42.4359230" lon="-3.0875530">
        <ele>763.6</ele>
        <time>2021-09-30T11:26:08Z</time>
      </trkpt>
      <trkpt lat="42.4358110" lon="-3.0877110">
        <ele>762.2</ele>
        <time>2021-09-30T11:26:10Z</time>
      </trkpt>
      <trkpt lat="42.4355650" lon="-3.0881040">
        <ele>761.2</ele>
        <time>2021-09-30T11:26:15Z</time>
      </trkpt>
      <trkpt lat="42.4353040" lon="-3.0885550">
        <ele>761.0</ele>
        <time>2021-09-30T11:26:21Z</time>
      </trkpt>
      <trkpt lat="42.4352270" lon="-3.0889100">
        <ele>760.6</ele>
        <time>2021-09-30T11:26:25Z</time>
      </trkpt>
      <trkpt lat="42.4351840" lon="-3.0891670">
        <ele>760.4</ele>
        <time>2021-09-30T11:26:28Z</time>
      </trkpt>
      <trkpt lat="42.4350890" lon="-3.0894870">
        <ele>760.4</ele>
        <time>2021-09-30T11:26:32Z</time>
      </trkpt>
      <trkpt lat="42.4349090" lon="-3.0900590">
        <ele>760.2</ele>
        <time>2021-09-30T11:26:39Z</time>
      </trkpt>
      <trkpt lat="42.4348430" lon="-3.0903150">
        <ele>760.2</ele>
        <time>2021-09-30T11:26:42Z</time>
      </trkpt>
      <trkpt lat="42.4347750" lon="-3.0905600">
        <ele>760.2</ele>
        <time>2021-09-30T11:26:45Z</time>
      </trkpt>
      <trkpt lat="42.4347130" lon="-3.0907930">
        <ele>760.2</ele>
        <time>2021-09-30T11:26:48Z</time>
      </trkpt>
      <trkpt lat="42.4346490" lon="-3.0910220">
        <ele>760.4</ele>
        <time>2021-09-30T11:26:51Z</time>
      </trkpt>
      <trkpt lat="42.4346040" lon="-3.0911720">
        <ele>760.6</ele>
        <time>2021-09-30T11:26:53Z</time>
      </trkpt>
      <trkpt lat="42.4345400" lon="-3.0913990">
        <ele>761.4</ele>
        <time>2021-09-30T11:26:56Z</time>
      </trkpt>
      <trkpt lat="42.4343910" lon="-3.0919520">
        <ele>762.4</ele>
        <time>2021-09-30T11:27:04Z</time>
      </trkpt>
      <trkpt lat="42.4343740" lon="-3.0920160">
        <ele>762.6</ele>
        <time>2021-09-30T11:27:05Z</time>
      </trkpt>
      <trkpt lat="42.4342950" lon="-3.0923180">
        <ele>763.8</ele>
        <time>2021-09-30T11:27:10Z</time>
      </trkpt>
      <trkpt lat="42.4342370" lon="-3.0925350">
        <ele>764.8</ele>
        <time>2021-09-30T11:27:14Z</time>
      </trkpt>
      <trkpt lat="42.4341910" lon="-3.0927310">
        <ele>765.6</ele>
        <time>2021-09-30T11:27:18Z</time>
      </trkpt>
      <trkpt lat="42.4341790" lon="-3.0927780">
        <ele>766.0</ele>
        <time>2021-09-30T11:27:19Z</time>
      </trkpt>
      <trkpt lat="42.4341410" lon="-3.0929190">
        <ele>767.0</ele>
        <time>2021-09-30T11:27:22Z</time>
      </trkpt>
      <trkpt lat="42.4341030" lon="-3.0930540">
        <ele>768.0</ele>
        <time>2021-09-30T11:27:25Z</time>
      </trkpt>
      <trkpt lat="42.4340480" lon="-3.0931730">
        <ele>769.4</ele>
        <time>2021-09-30T11:27:28Z</time>
      </trkpt>
      <trkpt lat="42.4339890" lon="-3.0932710">
        <ele>771.0</ele>
        <time>2021-09-30T11:27:31Z</time>
      </trkpt>
      <trkpt lat="42.4339480" lon="-3.0933300">
        <ele>772.2</ele>
        <time>2021-09-30T11:27:33Z</time>
      </trkpt>
      <trkpt lat="42.4338910" lon="-3.0934240">
        <ele>773.2</ele>
        <time>2021-09-30T11:27:36Z</time>
      </trkpt>
      <trkpt lat="42.4338010" lon="-3.0935880">
        <ele>774.4</ele>
        <time>2021-09-30T11:27:41Z</time>
      </trkpt>
      <trkpt lat="42.4337010" lon="-3.0937490">
        <ele>775.6</ele>
        <time>2021-09-30T11:27:46Z</time>
      </trkpt>
      <trkpt lat="42.4335870" lon="-3.0939570">
        <ele>776.6</ele>
        <time>2021-09-30T11:27:52Z</time>
      </trkpt>
      <trkpt lat="42.4334070" lon="-3.0942660">
        <ele>778.0</ele>
        <time>2021-09-30T11:28:01Z</time>
      </trkpt>
      <trkpt lat="42.4332490" lon="-3.0944390">
        <ele>779.0</ele>
        <time>2021-09-30T11:28:07Z</time>
      </trkpt>
      <trkpt lat="42.4330760" lon="-3.0946040">
        <ele>780.4</ele>
        <time>2021-09-30T11:28:13Z</time>
      </trkpt>
      <trkpt lat="42.4328370" lon="-3.0948270">
        <ele>781.4</ele>
        <time>2021-09-30T11:28:21Z</time>
      </trkpt>
      <trkpt lat="42.4326060" lon="-3.0950220">
        <ele>782.6</ele>
        <time>2021-09-30T11:28:28Z</time>
      </trkpt>
      <trkpt lat="42.4322510" lon="-3.0953420">
        <ele>784.0</ele>
        <time>2021-09-30T11:28:39Z</time>
      </trkpt>
      <trkpt lat="42.4320570" lon="-3.0955050">
        <ele>785.0</ele>
        <time>2021-09-30T11:28:45Z</time>
      </trkpt>
      <trkpt lat="42.4319020" lon="-3.0956480">
        <ele>786.2</ele>
        <time>2021-09-30T11:28:50Z</time>
      </trkpt>
      <trkpt lat="42.4317230" lon="-3.0958310">
        <ele>787.2</ele>
        <time>2021-09-30T11:28:56Z</time>
      </trkpt>
      <trkpt lat="42.4315840" lon="-3.0960010">
        <ele>788.4</ele>
        <time>2021-09-30T11:29:01Z</time>
      </trkpt>
      <trkpt lat="42.4314530" lon="-3.0961840">
        <ele>789.4</ele>
        <time>2021-09-30T11:29:06Z</time>
      </trkpt>
      <trkpt lat="42.4312730" lon="-3.0964560">
        <ele>790.8</ele>
        <time>2021-09-30T11:29:13Z</time>
      </trkpt>
      <trkpt lat="42.4309820" lon="-3.0969220">
        <ele>791.8</ele>
        <time>2021-09-30T11:29:24Z</time>
      </trkpt>
      <trkpt lat="42.4306900" lon="-3.0973870">
        <ele>792.8</ele>
        <time>2021-09-30T11:29:34Z</time>
      </trkpt>
      <trkpt lat="42.4302710" lon="-3.0979020">
        <ele>793.8</ele>
        <time>2021-09-30T11:29:46Z</time>
      </trkpt>
      <trkpt lat="42.4298110" lon="-3.0982660">
        <ele>795.2</ele>
        <time>2021-09-30T11:29:57Z</time>
      </trkpt>
      <trkpt lat="42.4297680" lon="-3.0982810">
        <ele>795.2</ele>
        <time>2021-09-30T11:29:58Z</time>
      </trkpt>
      <trkpt lat="42.4295480" lon="-3.0983590">
        <ele>796.2</ele>
        <time>2021-09-30T11:30:03Z</time>
      </trkpt>
      <trkpt lat="42.4292780" lon="-3.0984320">
        <ele>797.4</ele>
        <time>2021-09-30T11:30:09Z</time>
      </trkpt>
      <trkpt lat="42.4289550" lon="-3.0985210">
        <ele>798.4</ele>
        <time>2021-09-30T11:30:16Z</time>
      </trkpt>
      <trkpt lat="42.4284630" lon="-3.0986300">
        <ele>799.0</ele>
        <time>2021-09-30T11:30:26Z</time>
      </trkpt>
      <trkpt lat="42.4281660" lon="-3.0986830">
        <ele>799.2</ele>
        <time>2021-09-30T11:30:32Z</time>
      </trkpt>
      <trkpt lat="42.4279780" lon="-3.0987820">
        <ele>799.4</ele>
        <time>2021-09-30T11:30:36Z</time>
      </trkpt>
      <trkpt lat="42.4276700" lon="-3.0990150">
        <ele>799.6</ele>
        <time>2021-09-30T11:30:43Z</time>
      </trkpt>
      <trkpt lat="42.4273750" lon="-3.0992890">
        <ele>799.8</ele>
        <time>2021-09-30T11:30:50Z</time>
      </trkpt>
      <trkpt lat="42.4272010" lon="-3.0995020">
        <ele>800.6</ele>
        <time>2021-09-30T11:30:55Z</time>
      </trkpt>
      <trkpt lat="42.4271710" lon="-3.0995520">
        <ele>800.8</ele>
        <time>2021-09-30T11:30:56Z</time>
      </trkpt>
      <trkpt lat="42.4270290" lon="-3.0998920">
        <ele>802.0</ele>
        <time>2021-09-30T11:31:02Z</time>
      </trkpt>
      <trkpt lat="42.4269100" lon="-3.1001730">
        <ele>802.4</ele>
        <time>2021-09-30T11:31:07Z</time>
      </trkpt>
      <trkpt lat="42.4268170" lon="-3.1003230">
        <ele>803.2</ele>
        <time>2021-09-30T11:31:10Z</time>
      </trkpt>
      <trkpt lat="42.4266920" lon="-3.1005240">
        <ele>804.0</ele>
        <time>2021-09-30T11:31:14Z</time>
      </trkpt>
      <trkpt lat="42.4266260" lon="-3.1006180">
        <ele>804.2</ele>
        <time>2021-09-30T11:31:16Z</time>
      </trkpt>
      <trkpt lat="42.4262490" lon="-3.1011930">
        <ele>805.6</ele>
        <time>2021-09-30T11:31:30Z</time>
      </trkpt>
      <trkpt lat="42.4261620" lon="-3.1013770">
        <ele>806.6</ele>
        <time>2021-09-30T11:31:34Z</time>
      </trkpt>
      <trkpt lat="42.4260470" lon="-3.1016510">
        <ele>807.6</ele>
        <time>2021-09-30T11:31:40Z</time>
      </trkpt>
      <trkpt lat="42.4259320" lon="-3.1018450">
        <ele>809.0</ele>
        <time>2021-09-30T11:31:46Z</time>
      </trkpt>
      <trkpt lat="42.4259190" lon="-3.1018890">
        <ele>809.4</ele>
        <time>2021-09-30T11:31:48Z</time>
      </trkpt>
      <trkpt lat="42.4259380" lon="-3.1019120">
        <ele>809.8</ele>
        <time>2021-09-30T11:31:50Z</time>
      </trkpt>
      <trkpt lat="42.4259510" lon="-3.1019060">
        <ele>810.0</ele>
        <time>2021-09-30T11:31:51Z</time>
      </trkpt>
      <trkpt lat="42.4259660" lon="-3.1018700">
        <ele>810.2</ele>
        <time>2021-09-30T11:31:53Z</time>
      </trkpt>
      <trkpt lat="42.4259450" lon="-3.1017990">
        <ele>810.4</ele>
        <time>2021-09-30T11:31:57Z</time>
      </trkpt>
      <trkpt lat="42.4259450" lon="-3.1017330">
        <ele>810.4</ele>
        <time>2021-09-30T11:32:00Z</time>
      </trkpt>
      <trkpt lat="42.4259410" lon="-3.1017160">
        <ele>810.4</ele>
        <time>2021-09-30T11:32:01Z</time>
      </trkpt>
      <trkpt lat="42.4259470" lon="-3.1019000">
        <ele>810.2</ele>
        <time>2021-09-30T11:32:17Z</time>
      </trkpt>
      <trkpt lat="42.4259160" lon="-3.1020750">
        <ele>810.2</ele>
        <time>2021-09-30T11:32:21Z</time>
      </trkpt>
      <trkpt lat="42.4259170" lon="-3.1021790">
        <ele>810.2</ele>
        <time>2021-09-30T11:32:23Z</time>
      </trkpt>
      <trkpt lat="42.4259470" lon="-3.1023570">
        <ele>810.4</ele>
        <time>2021-09-30T11:32:26Z</time>
      </trkpt>
      <trkpt lat="42.4259870" lon="-3.1025520">
        <ele>810.4</ele>
        <time>2021-09-30T11:32:29Z</time>
      </trkpt>
      <trkpt lat="42.4260270" lon="-3.1027540">
        <ele>811.0</ele>
        <time>2021-09-30T11:32:32Z</time>
      </trkpt>
      <trkpt lat="42.4261150" lon="-3.1031040">
        <ele>811.2</ele>
        <time>2021-09-30T11:32:38Z</time>
      </trkpt>
      <trkpt lat="42.4261690" lon="-3.1032690">
        <ele>812.2</ele>
        <time>2021-09-30T11:32:41Z</time>
      </trkpt>
      <trkpt lat="42.4262880" lon="-3.1036010">
        <ele>812.6</ele>
        <time>2021-09-30T11:32:46Z</time>
      </trkpt>
      <trkpt lat="42.4263250" lon="-3.1036780">
        <ele>812.6</ele>
        <time>2021-09-30T11:32:47Z</time>
      </trkpt>
      <trkpt lat="42.4264790" lon="-3.1039070">
        <ele>812.6</ele>
        <time>2021-09-30T11:32:50Z</time>
      </trkpt>
      <trkpt lat="42.4266680" lon="-3.1041510">
        <ele>811.8</ele>
        <time>2021-09-30T11:32:53Z</time>
      </trkpt>
      <trkpt lat="42.4267350" lon="-3.1042360">
        <ele>811.2</ele>
        <time>2021-09-30T11:32:54Z</time>
      </trkpt>
      <trkpt lat="42.4268610" lon="-3.1044290">
        <ele>809.8</ele>
        <time>2021-09-30T11:32:56Z</time>
      </trkpt>
      <trkpt lat="42.4269150" lon="-3.1045410">
        <ele>808.8</ele>
        <time>2021-09-30T11:32:57Z</time>
      </trkpt>
      <trkpt lat="42.4269640" lon="-3.1046600">
        <ele>807.8</ele>
        <time>2021-09-30T11:32:58Z</time>
      </trkpt>
      <trkpt lat="42.4270080" lon="-3.1047840">
        <ele>806.8</ele>
        <time>2021-09-30T11:32:59Z</time>
      </trkpt>
      <trkpt lat="42.4270830" lon="-3.1050370">
        <ele>805.0</ele>
        <time>2021-09-30T11:33:01Z</time>
      </trkpt>
      <trkpt lat="42.4271470" lon="-3.1052840">
        <ele>803.8</ele>
        <time>2021-09-30T11:33:03Z</time>
      </trkpt>
      <trkpt lat="42.4271750" lon="-3.1054060">
        <ele>803.0</ele>
        <time>2021-09-30T11:33:04Z</time>
      </trkpt>
      <trkpt lat="42.4272010" lon="-3.1055300">
        <ele>802.2</ele>
        <time>2021-09-30T11:33:05Z</time>
      </trkpt>
      <trkpt lat="42.4272320" lon="-3.1056530">
        <ele>801.6</ele>
        <time>2021-09-30T11:33:06Z</time>
      </trkpt>
      <trkpt lat="42.4272670" lon="-3.1057770">
        <ele>800.8</ele>
        <time>2021-09-30T11:33:07Z</time>
      </trkpt>
      <trkpt lat="42.4272970" lon="-3.1059060">
        <ele>800.2</ele>
        <time>2021-09-30T11:33:08Z</time>
      </trkpt>
      <trkpt lat="42.4273300" lon="-3.1061840">
        <ele>799.6</ele>
        <time>2021-09-30T11:33:10Z</time>
      </trkpt>
      <trkpt lat="42.4273080" lon="-3.1066330">
        <ele>798.6</ele>
        <time>2021-09-30T11:33:13Z</time>
      </trkpt>
      <trkpt lat="42.4272840" lon="-3.1067870">
        <ele>798.0</ele>
        <time>2021-09-30T11:33:14Z</time>
      </trkpt>
      <trkpt lat="42.4272580" lon="-3.1069450">
        <ele>797.0</ele>
        <time>2021-09-30T11:33:15Z</time>
      </trkpt>
      <trkpt lat="42.4271830" lon="-3.1074330">
        <ele>795.6</ele>
        <time>2021-09-30T11:33:18Z</time>
      </trkpt>
      <trkpt lat="42.4271340" lon="-3.1077590">
        <ele>793.8</ele>
        <time>2021-09-30T11:33:20Z</time>
      </trkpt>
      <trkpt lat="42.4271080" lon="-3.1079230">
        <ele>792.4</ele>
        <time>2021-09-30T11:33:21Z</time>
      </trkpt>
      <trkpt lat="42.4270800" lon="-3.1080890">
        <ele>790.6</ele>
        <time>2021-09-30T11:33:22Z</time>
      </trkpt>
      <trkpt lat="42.4270500" lon="-3.1082550">
        <ele>789.0</ele>
        <time>2021-09-30T11:33:23Z</time>
      </trkpt>
      <trkpt lat="42.4270190" lon="-3.1084210">
        <ele>787.6</ele>
        <time>2021-09-30T11:33:24Z</time>
      </trkpt>
      <trkpt lat="42.4269990" lon="-3.1085900">
        <ele>786.2</ele>
        <time>2021-09-30T11:33:25Z</time>
      </trkpt>
      <trkpt lat="42.4269990" lon="-3.1087620">
        <ele>785.0</ele>
        <time>2021-09-30T11:33:26Z</time>
      </trkpt>
      <trkpt lat="42.4270690" lon="-3.1090900">
        <ele>783.2</ele>
        <time>2021-09-30T11:33:28Z</time>
      </trkpt>
      <trkpt lat="42.4272070" lon="-3.1093800">
        <ele>781.6</ele>
        <time>2021-09-30T11:33:30Z</time>
      </trkpt>
      <trkpt lat="42.4273580" lon="-3.1096560">
        <ele>780.0</ele>
        <time>2021-09-30T11:33:32Z</time>
      </trkpt>
      <trkpt lat="42.4275140" lon="-3.1099310">
        <ele>778.4</ele>
        <time>2021-09-30T11:33:34Z</time>
      </trkpt>
      <trkpt lat="42.4275960" lon="-3.1100660">
        <ele>777.0</ele>
        <time>2021-09-30T11:33:35Z</time>
      </trkpt>
      <trkpt lat="42.4276800" lon="-3.1101990">
        <ele>775.4</ele>
        <time>2021-09-30T11:33:36Z</time>
      </trkpt>
      <trkpt lat="42.4277690" lon="-3.1103290">
        <ele>774.2</ele>
        <time>2021-09-30T11:33:37Z</time>
      </trkpt>
      <trkpt lat="42.4279580" lon="-3.1105660">
        <ele>772.8</ele>
        <time>2021-09-30T11:33:39Z</time>
      </trkpt>
      <trkpt lat="42.4281620" lon="-3.1107630">
        <ele>770.8</ele>
        <time>2021-09-30T11:33:41Z</time>
      </trkpt>
      <trkpt lat="42.4283750" lon="-3.1109280">
        <ele>769.2</ele>
        <time>2021-09-30T11:33:43Z</time>
      </trkpt>
      <trkpt lat="42.4285870" lon="-3.1110760">
        <ele>767.0</ele>
        <time>2021-09-30T11:33:45Z</time>
      </trkpt>
      <trkpt lat="42.4286910" lon="-3.1111430">
        <ele>766.0</ele>
        <time>2021-09-30T11:33:46Z</time>
      </trkpt>
      <trkpt lat="42.4287920" lon="-3.1112050">
        <ele>764.8</ele>
        <time>2021-09-30T11:33:47Z</time>
      </trkpt>
      <trkpt lat="42.4291650" lon="-3.1114320">
        <ele>764.0</ele>
        <time>2021-09-30T11:33:51Z</time>
      </trkpt>
      <trkpt lat="42.4294110" lon="-3.1115720">
        <ele>763.8</ele>
        <time>2021-09-30T11:33:54Z</time>
      </trkpt>
      <trkpt lat="42.4295720" lon="-3.1116720">
        <ele>763.8</ele>
        <time>2021-09-30T11:33:56Z</time>
      </trkpt>
      <trkpt lat="42.4297360" lon="-3.1117820">
        <ele>763.6</ele>
        <time>2021-09-30T11:33:58Z</time>
      </trkpt>
      <trkpt lat="42.4299000" lon="-3.1119120">
        <ele>763.4</ele>
        <time>2021-09-30T11:34:00Z</time>
      </trkpt>
      <trkpt lat="42.4300570" lon="-3.1120680">
        <ele>763.2</ele>
        <time>2021-09-30T11:34:02Z</time>
      </trkpt>
      <trkpt lat="42.4302080" lon="-3.1122380">
        <ele>763.2</ele>
        <time>2021-09-30T11:34:04Z</time>
      </trkpt>
      <trkpt lat="42.4302800" lon="-3.1123230">
        <ele>763.0</ele>
        <time>2021-09-30T11:34:05Z</time>
      </trkpt>
      <trkpt lat="42.4304140" lon="-3.1124880">
        <ele>762.8</ele>
        <time>2021-09-30T11:34:07Z</time>
      </trkpt>
      <trkpt lat="42.4305330" lon="-3.1126430">
        <ele>762.8</ele>
        <time>2021-09-30T11:34:09Z</time>
      </trkpt>
      <trkpt lat="42.4306920" lon="-3.1128390">
        <ele>762.8</ele>
        <time>2021-09-30T11:34:12Z</time>
      </trkpt>
      <trkpt lat="42.4308270" lon="-3.1130110">
        <ele>762.8</ele>
        <time>2021-09-30T11:34:15Z</time>
      </trkpt>
      <trkpt lat="42.4309220" lon="-3.1130990">
        <ele>763.8</ele>
        <time>2021-09-30T11:34:17Z</time>
      </trkpt>
      <trkpt lat="42.4310160" lon="-3.1131830">
        <ele>765.6</ele>
        <time>2021-09-30T11:34:19Z</time>
      </trkpt>
      <trkpt lat="42.4310600" lon="-3.1132270">
        <ele>766.6</ele>
        <time>2021-09-30T11:34:20Z</time>
      </trkpt>
      <trkpt lat="42.4310990" lon="-3.1132770">
        <ele>767.2</ele>
        <time>2021-09-30T11:34:21Z</time>
      </trkpt>
      <trkpt lat="42.4311310" lon="-3.1133350">
        <ele>768.2</ele>
        <time>2021-09-30T11:34:22Z</time>
      </trkpt>
      <trkpt lat="42.4311790" lon="-3.1134670">
        <ele>768.8</ele>
        <time>2021-09-30T11:34:24Z</time>
      </trkpt>
      <trkpt lat="42.4311970" lon="-3.1135350">
        <ele>769.0</ele>
        <time>2021-09-30T11:34:25Z</time>
      </trkpt>
      <trkpt lat="42.4312100" lon="-3.1137500">
        <ele>769.4</ele>
        <time>2021-09-30T11:34:28Z</time>
      </trkpt>
      <trkpt lat="42.4311910" lon="-3.1139660">
        <ele>770.8</ele>
        <time>2021-09-30T11:34:31Z</time>
      </trkpt>
      <trkpt lat="42.4311650" lon="-3.1142470">
        <ele>771.8</ele>
        <time>2021-09-30T11:34:35Z</time>
      </trkpt>
      <trkpt lat="42.4311580" lon="-3.1143150">
        <ele>771.8</ele>
        <time>2021-09-30T11:34:36Z</time>
      </trkpt>
      <trkpt lat="42.4311190" lon="-3.1147180">
        <ele>773.0</ele>
        <time>2021-09-30T11:34:42Z</time>
      </trkpt>
      <trkpt lat="42.4310850" lon="-3.1150800">
        <ele>774.0</ele>
        <time>2021-09-30T11:34:48Z</time>
      </trkpt>
      <trkpt lat="42.4310690" lon="-3.1152340">
        <ele>775.2</ele>
        <time>2021-09-30T11:34:51Z</time>
      </trkpt>
      <trkpt lat="42.4310340" lon="-3.1156370">
        <ele>776.2</ele>
        <time>2021-09-30T11:34:57Z</time>
      </trkpt>
      <trkpt lat="42.4309790" lon="-3.1162490">
        <ele>776.6</ele>
        <time>2021-09-30T11:35:06Z</time>
      </trkpt>
      <trkpt lat="42.4309580" lon="-3.1165120">
        <ele>777.6</ele>
        <time>2021-09-30T11:35:10Z</time>
      </trkpt>
      <trkpt lat="42.4309170" lon="-3.1169650">
        <ele>778.6</ele>
        <time>2021-09-30T11:35:17Z</time>
      </trkpt>
      <trkpt lat="42.4308880" lon="-3.1172810">
        <ele>779.6</ele>
        <time>2021-09-30T11:35:22Z</time>
      </trkpt>
      <trkpt lat="42.4308580" lon="-3.1176400">
        <ele>780.6</ele>
        <time>2021-09-30T11:35:28Z</time>
      </trkpt>
      <trkpt lat="42.4308330" lon="-3.1179360">
        <ele>781.8</ele>
        <time>2021-09-30T11:35:33Z</time>
      </trkpt>
      <trkpt lat="42.4307820" lon="-3.1184760">
        <ele>782.8</ele>
        <time>2021-09-30T11:35:42Z</time>
      </trkpt>
      <trkpt lat="42.4307520" lon="-3.1188270">
        <ele>783.8</ele>
        <time>2021-09-30T11:35:48Z</time>
      </trkpt>
      <trkpt lat="42.4307280" lon="-3.1191170">
        <ele>784.8</ele>
        <time>2021-09-30T11:35:53Z</time>
      </trkpt>
      <trkpt lat="42.4307240" lon="-3.1191750">
        <ele>785.2</ele>
        <time>2021-09-30T11:35:54Z</time>
      </trkpt>
      <trkpt lat="42.4307040" lon="-3.1194110">
        <ele>786.4</ele>
        <time>2021-09-30T11:35:58Z</time>
      </trkpt>
      <trkpt lat="42.4306820" lon="-3.1197000">
        <ele>787.4</ele>
        <time>2021-09-30T11:36:03Z</time>
      </trkpt>
      <trkpt lat="42.4306670" lon="-3.1198670">
        <ele>788.4</ele>
        <time>2021-09-30T11:36:06Z</time>
      </trkpt>
      <trkpt lat="42.4306300" lon="-3.1202630">
        <ele>789.6</ele>
        <time>2021-09-30T11:36:13Z</time>
      </trkpt>
      <trkpt lat="42.4306110" lon="-3.1204900">
        <ele>790.8</ele>
        <time>2021-09-30T11:36:17Z</time>
      </trkpt>
      <trkpt lat="42.4305860" lon="-3.1207740">
        <ele>791.8</ele>
        <time>2021-09-30T11:36:22Z</time>
      </trkpt>
      <trkpt lat="42.4305630" lon="-3.1210060">
        <ele>793.2</ele>
        <time>2021-09-30T11:36:26Z</time>
      </trkpt>
      <trkpt lat="42.4305150" lon="-3.1216130">
        <ele>794.0</ele>
        <time>2021-09-30T11:36:35Z</time>
      </trkpt>
      <trkpt lat="42.4304990" lon="-3.1218290">
        <ele>794.2</ele>
        <time>2021-09-30T11:36:38Z</time>
      </trkpt>
      <trkpt lat="42.4304780" lon="-3.1221130">
        <ele>794.2</ele>
        <time>2021-09-30T11:36:42Z</time>
      </trkpt>
      <trkpt lat="42.4304510" lon="-3.1224700">
        <ele>794.4</ele>
        <time>2021-09-30T11:36:47Z</time>
      </trkpt>
      <trkpt lat="42.4304330" lon="-3.1227620">
        <ele>794.4</ele>
        <time>2021-09-30T11:36:51Z</time>
      </trkpt>
      <trkpt lat="42.4304390" lon="-3.1231460">
        <ele>794.6</ele>
        <time>2021-09-30T11:36:56Z</time>
      </trkpt>
      <trkpt lat="42.4305210" lon="-3.1237360">
        <ele>794.0</ele>
        <time>2021-09-30T11:37:03Z</time>
      </trkpt>
      <trkpt lat="42.4305940" lon="-3.1243610">
        <ele>793.4</ele>
        <time>2021-09-30T11:37:09Z</time>
      </trkpt>
      <trkpt lat="42.4306820" lon="-3.1249890">
        <ele>792.0</ele>
        <time>2021-09-30T11:37:14Z</time>
      </trkpt>
      <trkpt lat="42.4307140" lon="-3.1252530">
        <ele>790.6</ele>
        <time>2021-09-30T11:37:16Z</time>
      </trkpt>
      <trkpt lat="42.4307490" lon="-3.1255150">
        <ele>788.6</ele>
        <time>2021-09-30T11:37:18Z</time>
      </trkpt>
      <trkpt lat="42.4307770" lon="-3.1257680">
        <ele>787.0</ele>
        <time>2021-09-30T11:37:20Z</time>
      </trkpt>
      <trkpt lat="42.4308260" lon="-3.1261410">
        <ele>786.0</ele>
        <time>2021-09-30T11:37:23Z</time>
      </trkpt>
      <trkpt lat="42.4308620" lon="-3.1263870">
        <ele>785.4</ele>
        <time>2021-09-30T11:37:25Z</time>
      </trkpt>
      <trkpt lat="42.4309140" lon="-3.1267320">
        <ele>785.2</ele>
        <time>2021-09-30T11:37:28Z</time>
      </trkpt>
      <trkpt lat="42.4309510" lon="-3.1269420">
        <ele>785.2</ele>
        <time>2021-09-30T11:37:30Z</time>
      </trkpt>
      <trkpt lat="42.4310550" lon="-3.1276820">
        <ele>786.8</ele>
        <time>2021-09-30T11:37:38Z</time>
      </trkpt>
      <trkpt lat="42.4310650" lon="-3.1277610">
        <ele>787.4</ele>
        <time>2021-09-30T11:37:39Z</time>
      </trkpt>
      <trkpt lat="42.4310920" lon="-3.1279830">
        <ele>788.4</ele>
        <time>2021-09-30T11:37:42Z</time>
      </trkpt>
      <trkpt lat="42.4311080" lon="-3.1282480">
        <ele>789.8</ele>
        <time>2021-09-30T11:37:46Z</time>
      </trkpt>
      <trkpt lat="42.4311090" lon="-3.1283140">
        <ele>790.8</ele>
        <time>2021-09-30T11:37:47Z</time>
      </trkpt>
      <trkpt lat="42.4311070" lon="-3.1284420">
        <ele>792.2</ele>
        <time>2021-09-30T11:37:49Z</time>
      </trkpt>
      <trkpt lat="42.4311010" lon="-3.1285660">
        <ele>793.6</ele>
        <time>2021-09-30T11:37:51Z</time>
      </trkpt>
      <trkpt lat="42.4310910" lon="-3.1286900">
        <ele>794.8</ele>
        <time>2021-09-30T11:37:53Z</time>
      </trkpt>
      <trkpt lat="42.4310810" lon="-3.1288170">
        <ele>796.2</ele>
        <time>2021-09-30T11:37:55Z</time>
      </trkpt>
      <trkpt lat="42.4310740" lon="-3.1289260">
        <ele>797.4</ele>
        <time>2021-09-30T11:37:57Z</time>
      </trkpt>
      <trkpt lat="42.4310660" lon="-3.1290310">
        <ele>798.6</ele>
        <time>2021-09-30T11:37:59Z</time>
      </trkpt>
      <trkpt lat="42.4310570" lon="-3.1291850">
        <ele>800.2</ele>
        <time>2021-09-30T11:38:02Z</time>
      </trkpt>
      <trkpt lat="42.4310510" lon="-3.1292470">
        <ele>800.6</ele>
        <time>2021-09-30T11:38:03Z</time>
      </trkpt>
      <trkpt lat="42.4310280" lon="-3.1293850">
        <ele>801.2</ele>
        <time>2021-09-30T11:38:05Z</time>
      </trkpt>
      <trkpt lat="42.4309600" lon="-3.1297760">
        <ele>801.8</ele>
        <time>2021-09-30T11:38:11Z</time>
      </trkpt>
      <trkpt lat="42.4308480" lon="-3.1301620">
        <ele>801.8</ele>
        <time>2021-09-30T11:38:17Z</time>
      </trkpt>
      <trkpt lat="42.4307540" lon="-3.1304040">
        <ele>801.4</ele>
        <time>2021-09-30T11:38:21Z</time>
      </trkpt>
      <trkpt lat="42.4306570" lon="-3.1306340">
        <ele>801.4</ele>
        <time>2021-09-30T11:38:25Z</time>
      </trkpt>
      <trkpt lat="42.4305250" lon="-3.1309050">
        <ele>801.4</ele>
        <time>2021-09-30T11:38:30Z</time>
      </trkpt>
      <trkpt lat="42.4301760" lon="-3.1314580">
        <ele>801.8</ele>
        <time>2021-09-30T11:38:42Z</time>
      </trkpt>
      <trkpt lat="42.4300540" lon="-3.1316420">
        <ele>802.0</ele>
        <time>2021-09-30T11:38:46Z</time>
      </trkpt>
      <trkpt lat="42.4299790" lon="-3.1317470">
        <ele>802.0</ele>
        <time>2021-09-30T11:38:48Z</time>
      </trkpt>
      <trkpt lat="42.4298560" lon="-3.1319180">
        <ele>802.0</ele>
        <time>2021-09-30T11:38:51Z</time>
      </trkpt>
      <trkpt lat="42.4296160" lon="-3.1322180">
        <ele>801.0</ele>
        <time>2021-09-30T11:38:56Z</time>
      </trkpt>
      <trkpt lat="42.4295140" lon="-3.1323560">
        <ele>799.8</ele>
        <time>2021-09-30T11:38:58Z</time>
      </trkpt>
      <trkpt lat="42.4294040" lon="-3.1325080">
        <ele>798.4</ele>
        <time>2021-09-30T11:39:00Z</time>
      </trkpt>
      <trkpt lat="42.4292820" lon="-3.1326590">
        <ele>796.8</ele>
        <time>2021-09-30T11:39:02Z</time>
      </trkpt>
      <trkpt lat="42.4291550" lon="-3.1328060">
        <ele>795.8</ele>
        <time>2021-09-30T11:39:04Z</time>
      </trkpt>
      <trkpt lat="42.4290290" lon="-3.1329560">
        <ele>794.4</ele>
        <time>2021-09-30T11:39:06Z</time>
      </trkpt>
      <trkpt lat="42.4289730" lon="-3.1330430">
        <ele>793.6</ele>
        <time>2021-09-30T11:39:07Z</time>
      </trkpt>
      <trkpt lat="42.4289290" lon="-3.1331390">
        <ele>792.6</ele>
        <time>2021-09-30T11:39:08Z</time>
      </trkpt>
      <trkpt lat="42.4288800" lon="-3.1333520">
        <ele>791.4</ele>
        <time>2021-09-30T11:39:10Z</time>
      </trkpt>
      <trkpt lat="42.4288650" lon="-3.1334590">
        <ele>791.0</ele>
        <time>2021-09-30T11:39:11Z</time>
      </trkpt>
      <trkpt lat="42.4288300" lon="-3.1336660">
        <ele>790.6</ele>
        <time>2021-09-30T11:39:13Z</time>
      </trkpt>
      <trkpt lat="42.4288030" lon="-3.1337650">
        <ele>790.4</ele>
        <time>2021-09-30T11:39:14Z</time>
      </trkpt>
      <trkpt lat="42.4285520" lon="-3.1344850">
        <ele>789.6</ele>
        <time>2021-09-30T11:39:22Z</time>
      </trkpt>
      <trkpt lat="42.4284500" lon="-3.1349100">
        <ele>790.0</ele>
        <time>2021-09-30T11:39:28Z</time>
      </trkpt>
      <trkpt lat="42.4284060" lon="-3.1352620">
        <ele>791.2</ele>
        <time>2021-09-30T11:39:33Z</time>
      </trkpt>
      <trkpt lat="42.4283800" lon="-3.1354050">
        <ele>791.6</ele>
        <time>2021-09-30T11:39:35Z</time>
      </trkpt>
      <trkpt lat="42.4281510" lon="-3.1361260">
        <ele>792.6</ele>
        <time>2021-09-30T11:39:46Z</time>
      </trkpt>
      <trkpt lat="42.4281080" lon="-3.1362490">
        <ele>793.0</ele>
        <time>2021-09-30T11:39:48Z</time>
      </trkpt>
      <trkpt lat="42.4279870" lon="-3.1366180">
        <ele>794.0</ele>
        <time>2021-09-30T11:39:54Z</time>
      </trkpt>
      <trkpt lat="42.4278890" lon="-3.1369220">
        <ele>794.4</ele>
        <time>2021-09-30T11:39:59Z</time>
      </trkpt>
      <trkpt lat="42.4276660" lon="-3.1375970">
        <ele>795.2</ele>
        <time>2021-09-30T11:40:10Z</time>
      </trkpt>
      <trkpt lat="42.4275760" lon="-3.1378610">
        <ele>796.2</ele>
        <time>2021-09-30T11:40:14Z</time>
      </trkpt>
      <trkpt lat="42.4274940" lon="-3.1380550">
        <ele>796.4</ele>
        <time>2021-09-30T11:40:17Z</time>
      </trkpt>
      <trkpt lat="42.4273720" lon="-3.1382910">
        <ele>796.6</ele>
        <time>2021-09-30T11:40:21Z</time>
      </trkpt>
      <trkpt lat="42.4273000" lon="-3.1384710">
        <ele>797.0</ele>
        <time>2021-09-30T11:40:24Z</time>
      </trkpt>
      <trkpt lat="42.4272200" lon="-3.1386280">
        <ele>797.2</ele>
        <time>2021-09-30T11:40:27Z</time>
      </trkpt>
      <trkpt lat="42.4271460" lon="-3.1387120">
        <ele>797.6</ele>
        <time>2021-09-30T11:40:29Z</time>
      </trkpt>
      <trkpt lat="42.4271140" lon="-3.1387590">
        <ele>797.8</ele>
        <time>2021-09-30T11:40:30Z</time>
      </trkpt>
      <trkpt lat="42.4270330" lon="-3.1389850">
        <ele>798.4</ele>
        <time>2021-09-30T11:40:34Z</time>
      </trkpt>
      <trkpt lat="42.4268990" lon="-3.1394570">
        <ele>799.6</ele>
        <time>2021-09-30T11:40:42Z</time>
      </trkpt>
      <trkpt lat="42.4268430" lon="-3.1396350">
        <ele>799.8</ele>
        <time>2021-09-30T11:40:45Z</time>
      </trkpt>
      <trkpt lat="42.4268200" lon="-3.1396930">
        <ele>799.8</ele>
        <time>2021-09-30T11:40:46Z</time>
      </trkpt>
      <trkpt lat="42.4267440" lon="-3.1398770">
        <ele>800.0</ele>
        <time>2021-09-30T11:40:49Z</time>
      </trkpt>
      <trkpt lat="42.4266550" lon="-3.1401560">
        <ele>800.0</ele>
        <time>2021-09-30T11:40:53Z</time>
      </trkpt>
      <trkpt lat="42.4264330" lon="-3.1408330">
        <ele>799.0</ele>
        <time>2021-09-30T11:41:02Z</time>
      </trkpt>
      <trkpt lat="42.4262690" lon="-3.1413490">
        <ele>798.8</ele>
        <time>2021-09-30T11:41:09Z</time>
      </trkpt>
      <trkpt lat="42.4260440" lon="-3.1420740">
        <ele>799.6</ele>
        <time>2021-09-30T11:41:19Z</time>
      </trkpt>
      <trkpt lat="42.4258020" lon="-3.1428020">
        <ele>800.8</ele>
        <time>2021-09-30T11:41:30Z</time>
      </trkpt>
      <trkpt lat="42.4256160" lon="-3.1433700">
        <ele>801.8</ele>
        <time>2021-09-30T11:41:39Z</time>
      </trkpt>
      <trkpt lat="42.4254780" lon="-3.1438060">
        <ele>803.4</ele>
        <time>2021-09-30T11:41:46Z</time>
      </trkpt>
      <trkpt lat="42.4253570" lon="-3.1441860">
        <ele>804.2</ele>
        <time>2021-09-30T11:41:52Z</time>
      </trkpt>
      <trkpt lat="42.4253370" lon="-3.1442480">
        <ele>804.6</ele>
        <time>2021-09-30T11:41:53Z</time>
      </trkpt>
      <trkpt lat="42.4252340" lon="-3.1445600">
        <ele>806.0</ele>
        <time>2021-09-30T11:41:58Z</time>
      </trkpt>
      <trkpt lat="42.4251110" lon="-3.1449340">
        <ele>807.0</ele>
        <time>2021-09-30T11:42:04Z</time>
      </trkpt>
      <trkpt lat="42.4250070" lon="-3.1452430">
        <ele>808.2</ele>
        <time>2021-09-30T11:42:10Z</time>
      </trkpt>
      <trkpt lat="42.4248950" lon="-3.1455910">
        <ele>809.2</ele>
        <time>2021-09-30T11:42:17Z</time>
      </trkpt>
      <trkpt lat="42.4247590" lon="-3.1459560">
        <ele>809.8</ele>
        <time>2021-09-30T11:42:23Z</time>
      </trkpt>
      <trkpt lat="42.4246910" lon="-3.1462000">
        <ele>810.0</ele>
        <time>2021-09-30T11:42:27Z</time>
      </trkpt>
      <trkpt lat="42.4246090" lon="-3.1464480">
        <ele>810.6</ele>
        <time>2021-09-30T11:42:31Z</time>
      </trkpt>
      <trkpt lat="42.4243720" lon="-3.1471770">
        <ele>811.4</ele>
        <time>2021-09-30T11:42:42Z</time>
      </trkpt>
      <trkpt lat="42.4243280" lon="-3.1473070">
        <ele>811.6</ele>
        <time>2021-09-30T11:42:44Z</time>
      </trkpt>
      <trkpt lat="42.4240960" lon="-3.1480210">
        <ele>812.8</ele>
        <time>2021-09-30T11:42:55Z</time>
      </trkpt>
      <trkpt lat="42.4239250" lon="-3.1485410">
        <ele>813.8</ele>
        <time>2021-09-30T11:43:03Z</time>
      </trkpt>
      <trkpt lat="42.4237760" lon="-3.1489960">
        <ele>815.0</ele>
        <time>2021-09-30T11:43:10Z</time>
      </trkpt>
      <trkpt lat="42.4236310" lon="-3.1494310">
        <ele>816.0</ele>
        <time>2021-09-30T11:43:17Z</time>
      </trkpt>
      <trkpt lat="42.4234460" lon="-3.1499790">
        <ele>817.4</ele>
        <time>2021-09-30T11:43:26Z</time>
      </trkpt>
      <trkpt lat="42.4233210" lon="-3.1503530">
        <ele>818.4</ele>
        <time>2021-09-30T11:43:32Z</time>
      </trkpt>
      <trkpt lat="42.4231960" lon="-3.1507260">
        <ele>819.2</ele>
        <time>2021-09-30T11:43:38Z</time>
      </trkpt>
      <trkpt lat="42.4231430" lon="-3.1508480">
        <ele>819.4</ele>
        <time>2021-09-30T11:43:40Z</time>
      </trkpt>
      <trkpt lat="42.4231210" lon="-3.1509140">
        <ele>819.4</ele>
        <time>2021-09-30T11:43:41Z</time>
      </trkpt>
      <trkpt lat="42.4228850" lon="-3.1516210">
        <ele>820.2</ele>
        <time>2021-09-30T11:43:52Z</time>
      </trkpt>
      <trkpt lat="42.4228180" lon="-3.1518030">
        <ele>820.6</ele>
        <time>2021-09-30T11:43:55Z</time>
      </trkpt>
      <trkpt lat="42.4226070" lon="-3.1521170">
        <ele>821.2</ele>
        <time>2021-09-30T11:44:03Z</time>
      </trkpt>
      <trkpt lat="42.4226160" lon="-3.1522480">
        <ele>821.8</ele>
        <time>2021-09-30T11:44:06Z</time>
      </trkpt>
      <trkpt lat="42.4226180" lon="-3.1524310">
        <ele>823.0</ele>
        <time>2021-09-30T11:44:09Z</time>
      </trkpt>
      <trkpt lat="42.4225870" lon="-3.1525630">
        <ele>823.2</ele>
        <time>2021-09-30T11:44:11Z</time>
      </trkpt>
      <trkpt lat="42.4224610" lon="-3.1530180">
        <ele>823.6</ele>
        <time>2021-09-30T11:44:19Z</time>
      </trkpt>
      <trkpt lat="42.4224290" lon="-3.1531360">
        <ele>824.0</ele>
        <time>2021-09-30T11:44:23Z</time>
      </trkpt>
      <trkpt lat="42.4224230" lon="-3.1531620">
        <ele>824.0</ele>
        <time>2021-09-30T11:44:24Z</time>
      </trkpt>
      <trkpt lat="42.4222780" lon="-3.1535770">
        <ele>825.0</ele>
        <time>2021-09-30T11:44:32Z</time>
      </trkpt>
      <trkpt lat="42.4221620" lon="-3.1539220">
        <ele>825.0</ele>
        <time>2021-09-30T11:44:37Z</time>
      </trkpt>
      <trkpt lat="42.4220920" lon="-3.1541390">
        <ele>825.2</ele>
        <time>2021-09-30T11:44:40Z</time>
      </trkpt>
      <trkpt lat="42.4219160" lon="-3.1546750">
        <ele>825.6</ele>
        <time>2021-09-30T11:44:48Z</time>
      </trkpt>
      <trkpt lat="42.4218650" lon="-3.1548300">
        <ele>826.2</ele>
        <time>2021-09-30T11:44:51Z</time>
      </trkpt>
      <trkpt lat="42.4217900" lon="-3.1550170">
        <ele>827.0</ele>
        <time>2021-09-30T11:44:55Z</time>
      </trkpt>
      <trkpt lat="42.4217490" lon="-3.1551500">
        <ele>827.6</ele>
        <time>2021-09-30T11:44:57Z</time>
      </trkpt>
      <trkpt lat="42.4216390" lon="-3.1555200">
        <ele>828.6</ele>
        <time>2021-09-30T11:45:03Z</time>
      </trkpt>
      <trkpt lat="42.4213980" lon="-3.1562340">
        <ele>829.6</ele>
        <time>2021-09-30T11:45:14Z</time>
      </trkpt>
      <trkpt lat="42.4213290" lon="-3.1564420">
        <ele>829.6</ele>
        <time>2021-09-30T11:45:17Z</time>
      </trkpt>
      <trkpt lat="42.4210850" lon="-3.1571700">
        <ele>830.2</ele>
        <time>2021-09-30T11:45:27Z</time>
      </trkpt>
      <trkpt lat="42.4209130" lon="-3.1576890">
        <ele>830.8</ele>
        <time>2021-09-30T11:45:34Z</time>
      </trkpt>
      <trkpt lat="42.4208050" lon="-3.1580560">
        <ele>831.0</ele>
        <time>2021-09-30T11:45:39Z</time>
      </trkpt>
      <trkpt lat="42.4205880" lon="-3.1587860">
        <ele>831.4</ele>
        <time>2021-09-30T11:45:48Z</time>
      </trkpt>
      <trkpt lat="42.4203840" lon="-3.1595550">
        <ele>831.6</ele>
        <time>2021-09-30T11:45:57Z</time>
      </trkpt>
      <trkpt lat="42.4202010" lon="-3.1602550">
        <ele>831.6</ele>
        <time>2021-09-30T11:46:05Z</time>
      </trkpt>
      <trkpt lat="42.4200180" lon="-3.1609660">
        <ele>831.8</ele>
        <time>2021-09-30T11:46:13Z</time>
      </trkpt>
      <trkpt lat="42.4199750" lon="-3.1611390">
        <ele>832.0</ele>
        <time>2021-09-30T11:46:15Z</time>
      </trkpt>
      <trkpt lat="42.4197820" lon="-3.1619040">
        <ele>832.4</ele>
        <time>2021-09-30T11:46:24Z</time>
      </trkpt>
      <trkpt lat="42.4196360" lon="-3.1624850">
        <ele>833.0</ele>
        <time>2021-09-30T11:46:31Z</time>
      </trkpt>
      <trkpt lat="42.4195030" lon="-3.1630070">
        <ele>833.4</ele>
        <time>2021-09-30T11:46:37Z</time>
      </trkpt>
      <trkpt lat="42.4193910" lon="-3.1634590">
        <ele>833.6</ele>
        <time>2021-09-30T11:46:42Z</time>
      </trkpt>
      <trkpt lat="42.4192070" lon="-3.1641880">
        <ele>833.6</ele>
        <time>2021-09-30T11:46:50Z</time>
      </trkpt>
      <trkpt lat="42.4191370" lon="-3.1644630">
        <ele>833.4</ele>
        <time>2021-09-30T11:46:53Z</time>
      </trkpt>
      <trkpt lat="42.4190580" lon="-3.1647320">
        <ele>833.0</ele>
        <time>2021-09-30T11:46:56Z</time>
      </trkpt>
      <trkpt lat="42.4189650" lon="-3.1650940">
        <ele>832.4</ele>
        <time>2021-09-30T11:47:00Z</time>
      </trkpt>
      <trkpt lat="42.4189430" lon="-3.1651850">
        <ele>832.0</ele>
        <time>2021-09-30T11:47:01Z</time>
      </trkpt>
      <trkpt lat="42.4188680" lon="-3.1655420">
        <ele>831.6</ele>
        <time>2021-09-30T11:47:05Z</time>
      </trkpt>
      <trkpt lat="42.4186640" lon="-3.1662330">
        <ele>831.4</ele>
        <time>2021-09-30T11:47:13Z</time>
      </trkpt>
      <trkpt lat="42.4185140" lon="-3.1668200">
        <ele>831.0</ele>
        <time>2021-09-30T11:47:19Z</time>
      </trkpt>
      <trkpt lat="42.4184130" lon="-3.1672140">
        <ele>830.2</ele>
        <time>2021-09-30T11:47:23Z</time>
      </trkpt>
      <trkpt lat="42.4183900" lon="-3.1673130">
        <ele>829.8</ele>
        <time>2021-09-30T11:47:24Z</time>
      </trkpt>
      <trkpt lat="42.4182540" lon="-3.1679140">
        <ele>828.8</ele>
        <time>2021-09-30T11:47:30Z</time>
      </trkpt>
      <trkpt lat="42.4180670" lon="-3.1686500">
        <ele>828.2</ele>
        <time>2021-09-30T11:47:37Z</time>
      </trkpt>
      <trkpt lat="42.4179610" lon="-3.1690650">
        <ele>827.8</ele>
        <time>2021-09-30T11:47:41Z</time>
      </trkpt>
      <trkpt lat="42.4178490" lon="-3.1694740">
        <ele>827.4</ele>
        <time>2021-09-30T11:47:45Z</time>
      </trkpt>
      <trkpt lat="42.4177480" lon="-3.1698660">
        <ele>827.2</ele>
        <time>2021-09-30T11:47:49Z</time>
      </trkpt>
      <trkpt lat="42.4176860" lon="-3.1700950">
        <ele>826.8</ele>
        <time>2021-09-30T11:47:52Z</time>
      </trkpt>
      <trkpt lat="42.4175860" lon="-3.1705080">
        <ele>826.4</ele>
        <time>2021-09-30T11:47:57Z</time>
      </trkpt>
      <trkpt lat="42.4175410" lon="-3.1706870">
        <ele>826.2</ele>
        <time>2021-09-30T11:47:59Z</time>
      </trkpt>
      <trkpt lat="42.4173450" lon="-3.1714290">
        <ele>825.6</ele>
        <time>2021-09-30T11:48:07Z</time>
      </trkpt>
      <trkpt lat="42.4171520" lon="-3.1722080">
        <ele>824.8</ele>
        <time>2021-09-30T11:48:15Z</time>
      </trkpt>
      <trkpt lat="42.4170320" lon="-3.1726760">
        <ele>824.6</ele>
        <time>2021-09-30T11:48:20Z</time>
      </trkpt>
      <trkpt lat="42.4168410" lon="-3.1733610">
        <ele>824.4</ele>
        <time>2021-09-30T11:48:27Z</time>
      </trkpt>
      <trkpt lat="42.4166900" lon="-3.1739770">
        <ele>823.4</ele>
        <time>2021-09-30T11:48:32Z</time>
      </trkpt>
      <trkpt lat="42.4166620" lon="-3.1740900">
        <ele>822.0</ele>
        <time>2021-09-30T11:48:33Z</time>
      </trkpt>
      <trkpt lat="42.4166340" lon="-3.1742000">
        <ele>820.4</ele>
        <time>2021-09-30T11:48:34Z</time>
      </trkpt>
      <trkpt lat="42.4166050" lon="-3.1743070">
        <ele>818.4</ele>
        <time>2021-09-30T11:48:35Z</time>
      </trkpt>
      <trkpt lat="42.4165440" lon="-3.1745120">
        <ele>816.6</ele>
        <time>2021-09-30T11:48:37Z</time>
      </trkpt>
      <trkpt lat="42.4164920" lon="-3.1747180">
        <ele>816.2</ele>
        <time>2021-09-30T11:48:39Z</time>
      </trkpt>
      <trkpt lat="42.4164570" lon="-3.1749260">
        <ele>816.2</ele>
        <time>2021-09-30T11:48:41Z</time>
      </trkpt>
      <trkpt lat="42.4164060" lon="-3.1751340">
        <ele>816.0</ele>
        <time>2021-09-30T11:48:43Z</time>
      </trkpt>
      <trkpt lat="42.4163310" lon="-3.1754390">
        <ele>815.6</ele>
        <time>2021-09-30T11:48:46Z</time>
      </trkpt>
      <trkpt lat="42.4162700" lon="-3.1757050">
        <ele>815.8</ele>
        <time>2021-09-30T11:48:49Z</time>
      </trkpt>
      <trkpt lat="42.4162110" lon="-3.1759040">
        <ele>816.0</ele>
        <time>2021-09-30T11:48:52Z</time>
      </trkpt>
      <trkpt lat="42.4161720" lon="-3.1760600">
        <ele>815.8</ele>
        <time>2021-09-30T11:48:54Z</time>
      </trkpt>
      <trkpt lat="42.4161290" lon="-3.1762340">
        <ele>815.6</ele>
        <time>2021-09-30T11:48:56Z</time>
      </trkpt>
      <trkpt lat="42.4160840" lon="-3.1764260">
        <ele>815.4</ele>
        <time>2021-09-30T11:48:58Z</time>
      </trkpt>
      <trkpt lat="42.4160180" lon="-3.1767310">
        <ele>815.0</ele>
        <time>2021-09-30T11:49:01Z</time>
      </trkpt>
      <trkpt lat="42.4159470" lon="-3.1770490">
        <ele>814.6</ele>
        <time>2021-09-30T11:49:04Z</time>
      </trkpt>
      <trkpt lat="42.4158920" lon="-3.1773760">
        <ele>813.2</ele>
        <time>2021-09-30T11:49:07Z</time>
      </trkpt>
      <trkpt lat="42.4158510" lon="-3.1777040">
        <ele>812.2</ele>
        <time>2021-09-30T11:49:10Z</time>
      </trkpt>
      <trkpt lat="42.4158180" lon="-3.1781300">
        <ele>811.2</ele>
        <time>2021-09-30T11:49:14Z</time>
      </trkpt>
      <trkpt lat="42.4158110" lon="-3.1783350">
        <ele>810.2</ele>
        <time>2021-09-30T11:49:16Z</time>
      </trkpt>
      <trkpt lat="42.4158090" lon="-3.1784370">
        <ele>809.6</ele>
        <time>2021-09-30T11:49:17Z</time>
      </trkpt>
      <trkpt lat="42.4158180" lon="-3.1788360">
        <ele>809.0</ele>
        <time>2021-09-30T11:49:21Z</time>
      </trkpt>
      <trkpt lat="42.4158740" lon="-3.1794190">
        <ele>808.8</ele>
        <time>2021-09-30T11:49:27Z</time>
      </trkpt>
      <trkpt lat="42.4159020" lon="-3.1795930">
        <ele>808.6</ele>
        <time>2021-09-30T11:49:29Z</time>
      </trkpt>
      <trkpt lat="42.4160400" lon="-3.1798190">
        <ele>808.6</ele>
        <time>2021-09-30T11:49:33Z</time>
      </trkpt>
      <trkpt lat="42.4160870" lon="-3.1798570">
        <ele>808.6</ele>
        <time>2021-09-30T11:49:34Z</time>
      </trkpt>
      <trkpt lat="42.4164360" lon="-3.1801030">
        <ele>808.2</ele>
        <time>2021-09-30T11:49:41Z</time>
      </trkpt>
      <trkpt lat="42.4166070" lon="-3.1803230">
        <ele>807.6</ele>
        <time>2021-09-30T11:49:45Z</time>
      </trkpt>
      <trkpt lat="42.4166990" lon="-3.1804410">
        <ele>807.4</ele>
        <time>2021-09-30T11:49:47Z</time>
      </trkpt>
      <trkpt lat="42.4167470" lon="-3.1804970">
        <ele>807.4</ele>
        <time>2021-09-30T11:49:48Z</time>
      </trkpt>
      <trkpt lat="42.4168970" lon="-3.1806640">
        <ele>807.0</ele>
        <time>2021-09-30T11:49:51Z</time>
      </trkpt>
      <trkpt lat="42.4170960" lon="-3.1808810">
        <ele>806.4</ele>
        <time>2021-09-30T11:49:55Z</time>
      </trkpt>
      <trkpt lat="42.4171400" lon="-3.1809390">
        <ele>806.2</ele>
        <time>2021-09-30T11:49:56Z</time>
      </trkpt>
      <trkpt lat="42.4173000" lon="-3.1811900">
        <ele>805.8</ele>
        <time>2021-09-30T11:50:00Z</time>
      </trkpt>
      <trkpt lat="42.4175040" lon="-3.1815310">
        <ele>805.4</ele>
        <time>2021-09-30T11:50:05Z</time>
      </trkpt>
      <trkpt lat="42.4176760" lon="-3.1819100">
        <ele>804.6</ele>
        <time>2021-09-30T11:50:10Z</time>
      </trkpt>
      <trkpt lat="42.4177000" lon="-3.1819840">
        <ele>804.4</ele>
        <time>2021-09-30T11:50:11Z</time>
      </trkpt>
      <trkpt lat="42.4177200" lon="-3.1820580">
        <ele>804.0</ele>
        <time>2021-09-30T11:50:12Z</time>
      </trkpt>
      <trkpt lat="42.4177610" lon="-3.1822030">
        <ele>803.4</ele>
        <time>2021-09-30T11:50:14Z</time>
      </trkpt>
      <trkpt lat="42.4178460" lon="-3.1824010">
        <ele>802.8</ele>
        <time>2021-09-30T11:50:17Z</time>
      </trkpt>
      <trkpt lat="42.4178770" lon="-3.1825530">
        <ele>802.4</ele>
        <time>2021-09-30T11:50:19Z</time>
      </trkpt>
      <trkpt lat="42.4179160" lon="-3.1827970">
        <ele>801.2</ele>
        <time>2021-09-30T11:50:22Z</time>
      </trkpt>
      <trkpt lat="42.4179820" lon="-3.1831530">
        <ele>800.2</ele>
        <time>2021-09-30T11:50:26Z</time>
      </trkpt>
      <trkpt lat="42.4180270" lon="-3.1834430">
        <ele>799.0</ele>
        <time>2021-09-30T11:50:29Z</time>
      </trkpt>
      <trkpt lat="42.4181460" lon="-3.1839160">
        <ele>797.8</ele>
        <time>2021-09-30T11:50:34Z</time>
      </trkpt>
      <trkpt lat="42.4182980" lon="-3.1843810">
        <ele>796.4</ele>
        <time>2021-09-30T11:50:39Z</time>
      </trkpt>
      <trkpt lat="42.4183780" lon="-3.1847760">
        <ele>795.2</ele>
        <time>2021-09-30T11:50:43Z</time>
      </trkpt>
      <trkpt lat="42.4184170" lon="-3.1851750">
        <ele>794.2</ele>
        <time>2021-09-30T11:50:47Z</time>
      </trkpt>
      <trkpt lat="42.4184470" lon="-3.1854820">
        <ele>792.8</ele>
        <time>2021-09-30T11:50:50Z</time>
      </trkpt>
      <trkpt lat="42.4184980" lon="-3.1858920">
        <ele>791.8</ele>
        <time>2021-09-30T11:50:54Z</time>
      </trkpt>
      <trkpt lat="42.4187460" lon="-3.1864040">
        <ele>790.8</ele>
        <time>2021-09-30T11:51:00Z</time>
      </trkpt>
      <trkpt lat="42.4188010" lon="-3.1864810">
        <ele>790.8</ele>
        <time>2021-09-30T11:51:01Z</time>
      </trkpt>
      <trkpt lat="42.4190690" lon="-3.1868540">
        <ele>789.6</ele>
        <time>2021-09-30T11:51:06Z</time>
      </trkpt>
      <trkpt lat="42.4192440" lon="-3.1870620">
        <ele>788.6</ele>
        <time>2021-09-30T11:51:09Z</time>
      </trkpt>
      <trkpt lat="42.4194180" lon="-3.1874130">
        <ele>787.2</ele>
        <time>2021-09-30T11:51:13Z</time>
      </trkpt>
      <trkpt lat="42.4194910" lon="-3.1875820">
        <ele>786.0</ele>
        <time>2021-09-30T11:51:15Z</time>
      </trkpt>
      <trkpt lat="42.4196040" lon="-3.1877980">
        <ele>785.2</ele>
        <time>2021-09-30T11:51:18Z</time>
      </trkpt>
      <trkpt lat="42.4196490" lon="-3.1878570">
        <ele>785.0</ele>
        <time>2021-09-30T11:51:19Z</time>
      </trkpt>
      <trkpt lat="42.4199990" lon="-3.1881490">
        <ele>784.4</ele>
        <time>2021-09-30T11:51:33Z</time>
      </trkpt>
      <trkpt lat="42.4201510" lon="-3.1882470">
        <ele>784.2</ele>
        <time>2021-09-30T11:51:38Z</time>
      </trkpt>
      <trkpt lat="42.4201660" lon="-3.1882490">
        <ele>783.6</ele>
        <time>2021-09-30T11:51:40Z</time>
      </trkpt>
      <trkpt lat="42.4201810" lon="-3.1882930">
        <ele>783.0</ele>
        <time>2021-09-30T11:53:32Z</time>
      </trkpt>
      <trkpt lat="42.4202160" lon="-3.1883340">
        <ele>783.0</ele>
        <time>2021-09-30T11:53:34Z</time>
      </trkpt>
      <trkpt lat="42.4205110" lon="-3.1884780">
        <ele>782.0</ele>
        <time>2021-09-30T11:53:44Z</time>
      </trkpt>
      <trkpt lat="42.4205860" lon="-3.1885280">
        <ele>781.8</ele>
        <time>2021-09-30T11:53:47Z</time>
      </trkpt>
      <trkpt lat="42.4206550" lon="-3.1885980">
        <ele>781.8</ele>
        <time>2021-09-30T11:53:50Z</time>
      </trkpt>
      <trkpt lat="42.4207020" lon="-3.1887420">
        <ele>782.2</ele>
        <time>2021-09-30T11:53:54Z</time>
      </trkpt>
      <trkpt lat="42.4207140" lon="-3.1889330">
        <ele>782.4</ele>
        <time>2021-09-30T11:53:59Z</time>
      </trkpt>
      <trkpt lat="42.4209260" lon="-3.1891470">
        <ele>782.8</ele>
        <time>2021-09-30T11:54:11Z</time>
      </trkpt>
      <trkpt lat="42.4210910" lon="-3.1891250">
        <ele>782.8</ele>
        <time>2021-09-30T11:54:16Z</time>
      </trkpt>
      <trkpt lat="42.4211180" lon="-3.1891110">
        <ele>782.8</ele>
        <time>2021-09-30T11:54:17Z</time>
      </trkpt>
      <trkpt lat="42.4211700" lon="-3.1891230">
        <ele>782.8</ele>
        <time>2021-09-30T11:54:19Z</time>
      </trkpt>
      <trkpt lat="42.4212070" lon="-3.1892230">
        <ele>782.0</ele>
        <time>2021-09-30T11:54:22Z</time>
      </trkpt>
      <trkpt lat="42.4212180" lon="-3.1893870">
        <ele>781.8</ele>
        <time>2021-09-30T11:54:25Z</time>
      </trkpt>
      <trkpt lat="42.4212440" lon="-3.1894930">
        <ele>781.8</ele>
        <time>2021-09-30T11:54:27Z</time>
      </trkpt>
      <trkpt lat="42.4212620" lon="-3.1897160">
        <ele>781.4</ele>
        <time>2021-09-30T11:54:31Z</time>
      </trkpt>
      <trkpt lat="42.4212670" lon="-3.1898660">
        <ele>781.0</ele>
        <time>2021-09-30T11:54:34Z</time>
      </trkpt>
      <trkpt lat="42.4211140" lon="-3.1905950">
        <ele>780.2</ele>
        <time>2021-09-30T11:54:47Z</time>
      </trkpt>
      <trkpt lat="42.4211000" lon="-3.1906530">
        <ele>779.8</ele>
        <time>2021-09-30T11:54:48Z</time>
      </trkpt>
      <trkpt lat="42.4210180" lon="-3.1910230">
        <ele>778.8</ele>
        <time>2021-09-30T11:54:54Z</time>
      </trkpt>
      <trkpt lat="42.4209790" lon="-3.1911900">
        <ele>778.4</ele>
        <time>2021-09-30T11:54:57Z</time>
      </trkpt>
      <trkpt lat="42.4209310" lon="-3.1913310">
        <ele>778.2</ele>
        <time>2021-09-30T11:55:00Z</time>
      </trkpt>
      <trkpt lat="42.4209580" lon="-3.1911730">
        <ele>779.2</ele>
        <time>2021-09-30T12:00:50Z</time>
      </trkpt>
      <trkpt lat="42.4209150" lon="-3.1913330">
        <ele>778.6</ele>
        <time>2021-09-30T12:00:53Z</time>
      </trkpt>
      <trkpt lat="42.4208830" lon="-3.1914500">
        <ele>778.4</ele>
        <time>2021-09-30T12:00:55Z</time>
      </trkpt>
      <trkpt lat="42.4208500" lon="-3.1916250">
        <ele>778.2</ele>
        <time>2021-09-30T12:00:58Z</time>
      </trkpt>
      <trkpt lat="42.4208080" lon="-3.1917360">
        <ele>778.2</ele>
        <time>2021-09-30T12:01:00Z</time>
      </trkpt>
      <trkpt lat="42.4207800" lon="-3.1917940">
        <ele>778.0</ele>
        <time>2021-09-30T12:01:01Z</time>
      </trkpt>
      <trkpt lat="42.4207530" lon="-3.1918520">
        <ele>777.6</ele>
        <time>2021-09-30T12:01:02Z</time>
      </trkpt>
      <trkpt lat="42.4207090" lon="-3.1919720">
        <ele>777.2</ele>
        <time>2021-09-30T12:01:04Z</time>
      </trkpt>
      <trkpt lat="42.4206360" lon="-3.1922120">
        <ele>777.4</ele>
        <time>2021-09-30T12:01:08Z</time>
      </trkpt>
      <trkpt lat="42.4205600" lon="-3.1923270">
        <ele>777.4</ele>
        <time>2021-09-30T12:01:13Z</time>
      </trkpt>
      <trkpt lat="42.4205630" lon="-3.1923770">
        <ele>779.4</ele>
        <time>2021-09-30T12:01:24Z</time>
      </trkpt>
      <trkpt lat="42.4205530" lon="-3.1924090">
        <ele>779.4</ele>
        <time>2021-09-30T12:01:25Z</time>
      </trkpt>
      <trkpt lat="42.4205240" lon="-3.1924910">
        <ele>779.4</ele>
        <time>2021-09-30T12:01:27Z</time>
      </trkpt>
      <trkpt lat="42.4204920" lon="-3.1925790">
        <ele>779.4</ele>
        <time>2021-09-30T12:01:29Z</time>
      </trkpt>
      <trkpt lat="42.4204630" lon="-3.1926750">
        <ele>779.4</ele>
        <time>2021-09-30T12:01:31Z</time>
      </trkpt>
      <trkpt lat="42.4204170" lon="-3.1927670">
        <ele>779.0</ele>
        <time>2021-09-30T12:01:33Z</time>
      </trkpt>
      <trkpt lat="42.4203770" lon="-3.1928730">
        <ele>778.8</ele>
        <time>2021-09-30T12:01:35Z</time>
      </trkpt>
      <trkpt lat="42.4203110" lon="-3.1930380">
        <ele>778.6</ele>
        <time>2021-09-30T12:01:38Z</time>
      </trkpt>
      <trkpt lat="42.4202410" lon="-3.1932160">
        <ele>778.6</ele>
        <time>2021-09-30T12:01:41Z</time>
      </trkpt>
      <trkpt lat="42.4201620" lon="-3.1934090">
        <ele>778.6</ele>
        <time>2021-09-30T12:01:44Z</time>
      </trkpt>
      <trkpt lat="42.4198750" lon="-3.1940420">
        <ele>779.0</ele>
        <time>2021-09-30T12:01:54Z</time>
      </trkpt>
      <trkpt lat="42.4195440" lon="-3.1946270">
        <ele>779.4</ele>
        <time>2021-09-30T12:02:04Z</time>
      </trkpt>
      <trkpt lat="42.4191790" lon="-3.1952150">
        <ele>779.8</ele>
        <time>2021-09-30T12:02:15Z</time>
      </trkpt>
      <trkpt lat="42.4188960" lon="-3.1956620">
        <ele>780.0</ele>
        <time>2021-09-30T12:02:23Z</time>
      </trkpt>
      <trkpt lat="42.4188240" lon="-3.1960690">
        <ele>780.0</ele>
        <time>2021-09-30T12:02:29Z</time>
      </trkpt>
      <trkpt lat="42.4187650" lon="-3.1966580">
        <ele>779.6</ele>
        <time>2021-09-30T12:02:36Z</time>
      </trkpt>
      <trkpt lat="42.4186410" lon="-3.1970670">
        <ele>779.0</ele>
        <time>2021-09-30T12:02:41Z</time>
      </trkpt>
      <trkpt lat="42.4185800" lon="-3.1972260">
        <ele>778.4</ele>
        <time>2021-09-30T12:02:43Z</time>
      </trkpt>
      <trkpt lat="42.4184860" lon="-3.1974750">
        <ele>778.0</ele>
        <time>2021-09-30T12:02:46Z</time>
      </trkpt>
      <trkpt lat="42.4184380" lon="-3.1976670">
        <ele>777.8</ele>
        <time>2021-09-30T12:02:48Z</time>
      </trkpt>
      <trkpt lat="42.4183770" lon="-3.1979610">
        <ele>777.4</ele>
        <time>2021-09-30T12:02:51Z</time>
      </trkpt>
      <trkpt lat="42.4183380" lon="-3.1981490">
        <ele>776.6</ele>
        <time>2021-09-30T12:02:53Z</time>
      </trkpt>
      <trkpt lat="42.4183020" lon="-3.1983340">
        <ele>776.4</ele>
        <time>2021-09-30T12:02:55Z</time>
      </trkpt>
      <trkpt lat="42.4182730" lon="-3.1985200">
        <ele>776.2</ele>
        <time>2021-09-30T12:02:57Z</time>
      </trkpt>
      <trkpt lat="42.4182400" lon="-3.1988000">
        <ele>776.2</ele>
        <time>2021-09-30T12:03:00Z</time>
      </trkpt>
      <trkpt lat="42.4181940" lon="-3.1991930">
        <ele>776.0</ele>
        <time>2021-09-30T12:03:04Z</time>
      </trkpt>
      <trkpt lat="42.4181760" lon="-3.1993920">
        <ele>776.0</ele>
        <time>2021-09-30T12:03:06Z</time>
      </trkpt>
      <trkpt lat="42.4180340" lon="-3.2000960">
        <ele>776.4</ele>
        <time>2021-09-30T12:03:14Z</time>
      </trkpt>
      <trkpt lat="42.4179590" lon="-3.2004030">
        <ele>777.0</ele>
        <time>2021-09-30T12:03:18Z</time>
      </trkpt>
      <trkpt lat="42.4178900" lon="-3.2006090">
        <ele>777.2</ele>
        <time>2021-09-30T12:03:21Z</time>
      </trkpt>
      <trkpt lat="42.4178630" lon="-3.2006690">
        <ele>777.6</ele>
        <time>2021-09-30T12:03:22Z</time>
      </trkpt>
      <trkpt lat="42.4177820" lon="-3.2008400">
        <ele>778.0</ele>
        <time>2021-09-30T12:03:25Z</time>
      </trkpt>
      <trkpt lat="42.4177200" lon="-3.2010330">
        <ele>778.6</ele>
        <time>2021-09-30T12:03:29Z</time>
      </trkpt>
      <trkpt lat="42.4177040" lon="-3.2011680">
        <ele>779.6</ele>
        <time>2021-09-30T12:03:34Z</time>
      </trkpt>
      <trkpt lat="42.4176890" lon="-3.2011980">
        <ele>779.8</ele>
        <time>2021-09-30T12:03:35Z</time>
      </trkpt>
      <trkpt lat="42.4176650" lon="-3.2013720">
        <ele>781.0</ele>
        <time>2021-09-30T12:03:39Z</time>
      </trkpt>
      <trkpt lat="42.4176780" lon="-3.2015190">
        <ele>781.2</ele>
        <time>2021-09-30T12:03:42Z</time>
      </trkpt>
      <trkpt lat="42.4176940" lon="-3.2015700">
        <ele>781.2</ele>
        <time>2021-09-30T12:03:43Z</time>
      </trkpt>
      <trkpt lat="42.4177440" lon="-3.2016710">
        <ele>781.2</ele>
        <time>2021-09-30T12:03:45Z</time>
      </trkpt>
      <trkpt lat="42.4178300" lon="-3.2018000">
        <ele>781.2</ele>
        <time>2021-09-30T12:03:48Z</time>
      </trkpt>
      <trkpt lat="42.4180580" lon="-3.2022950">
        <ele>780.0</ele>
        <time>2021-09-30T12:03:59Z</time>
      </trkpt>
      <trkpt lat="42.4180670" lon="-3.2023120">
        <ele>780.0</ele>
        <time>2021-09-30T12:04:01Z</time>
      </trkpt>
      <trkpt lat="42.4180740" lon="-3.2023390">
        <ele>780.8</ele>
        <time>2021-09-30T12:04:38Z</time>
      </trkpt>
      <trkpt lat="42.4180810" lon="-3.2023570">
        <ele>780.8</ele>
        <time>2021-09-30T12:04:39Z</time>
      </trkpt>
      <trkpt lat="42.4181190" lon="-3.2024390">
        <ele>780.8</ele>
        <time>2021-09-30T12:04:42Z</time>
      </trkpt>
      <trkpt lat="42.4181710" lon="-3.2025580">
        <ele>780.8</ele>
        <time>2021-09-30T12:04:45Z</time>
      </trkpt>
      <trkpt lat="42.4182290" lon="-3.2026900">
        <ele>780.4</ele>
        <time>2021-09-30T12:04:48Z</time>
      </trkpt>
      <trkpt lat="42.4183220" lon="-3.2028830">
        <ele>780.0</ele>
        <time>2021-09-30T12:04:52Z</time>
      </trkpt>
      <trkpt lat="42.4184380" lon="-3.2031150">
        <ele>779.6</ele>
        <time>2021-09-30T12:04:56Z</time>
      </trkpt>
      <trkpt lat="42.4185200" lon="-3.2033920">
        <ele>779.2</ele>
        <time>2021-09-30T12:05:00Z</time>
      </trkpt>
      <trkpt lat="42.4185350" lon="-3.2034690">
        <ele>778.8</ele>
        <time>2021-09-30T12:05:01Z</time>
      </trkpt>
      <trkpt lat="42.4185810" lon="-3.2038660">
        <ele>778.6</ele>
        <time>2021-09-30T12:05:06Z</time>
      </trkpt>
      <trkpt lat="42.4185750" lon="-3.2040190">
        <ele>778.6</ele>
        <time>2021-09-30T12:05:08Z</time>
      </trkpt>
      <trkpt lat="42.4185030" lon="-3.2043000">
        <ele>778.6</ele>
        <time>2021-09-30T12:05:12Z</time>
      </trkpt>
      <trkpt lat="42.4182720" lon="-3.2048210">
        <ele>780.2</ele>
        <time>2021-09-30T12:05:20Z</time>
      </trkpt>
      <trkpt lat="42.4181360" lon="-3.2052330">
        <ele>781.0</ele>
        <time>2021-09-30T12:05:26Z</time>
      </trkpt>
      <trkpt lat="42.4180470" lon="-3.2054430">
        <ele>781.2</ele>
        <time>2021-09-30T12:05:31Z</time>
      </trkpt>
      <trkpt lat="42.4180150" lon="-3.2054790">
        <ele>781.4</ele>
        <time>2021-09-30T12:05:32Z</time>
      </trkpt>
      <trkpt lat="42.4179190" lon="-3.2056080">
        <ele>783.0</ele>
        <time>2021-09-30T12:05:35Z</time>
      </trkpt>
      <trkpt lat="42.4178230" lon="-3.2057220">
        <ele>784.0</ele>
        <time>2021-09-30T12:05:38Z</time>
      </trkpt>
      <trkpt lat="42.4175680" lon="-3.2059470">
        <ele>785.0</ele>
        <time>2021-09-30T12:05:46Z</time>
      </trkpt>
      <trkpt lat="42.4175420" lon="-3.2059900">
        <ele>785.4</ele>
        <time>2021-09-30T12:05:50Z</time>
      </trkpt>
      <trkpt lat="42.4175110" lon="-3.2060190">
        <ele>787.0</ele>
        <time>2021-09-30T12:06:11Z</time>
      </trkpt>
      <trkpt lat="42.4174930" lon="-3.2060430">
        <ele>787.0</ele>
        <time>2021-09-30T12:06:12Z</time>
      </trkpt>
      <trkpt lat="42.4173470" lon="-3.2062580">
        <ele>787.0</ele>
        <time>2021-09-30T12:06:18Z</time>
      </trkpt>
      <trkpt lat="42.4172870" lon="-3.2063580">
        <ele>787.0</ele>
        <time>2021-09-30T12:06:20Z</time>
      </trkpt>
      <trkpt lat="42.4171370" lon="-3.2066530">
        <ele>786.8</ele>
        <time>2021-09-30T12:06:25Z</time>
      </trkpt>
      <trkpt lat="42.4169480" lon="-3.2070140">
        <ele>786.6</ele>
        <time>2021-09-30T12:06:31Z</time>
      </trkpt>
      <trkpt lat="42.4166800" lon="-3.2077180">
        <ele>787.0</ele>
        <time>2021-09-30T12:06:42Z</time>
      </trkpt>
      <trkpt lat="42.4165550" lon="-3.2080940">
        <ele>787.6</ele>
        <time>2021-09-30T12:06:48Z</time>
      </trkpt>
      <trkpt lat="42.4164540" lon="-3.2083270">
        <ele>788.2</ele>
        <time>2021-09-30T12:06:52Z</time>
      </trkpt>
      <trkpt lat="42.4163670" lon="-3.2086110">
        <ele>789.4</ele>
        <time>2021-09-30T12:06:57Z</time>
      </trkpt>
      <trkpt lat="42.4162770" lon="-3.2090460">
        <ele>790.4</ele>
        <time>2021-09-30T12:07:07Z</time>
      </trkpt>
      <trkpt lat="42.4162540" lon="-3.2091000">
        <ele>790.6</ele>
        <time>2021-09-30T12:07:08Z</time>
      </trkpt>
      <trkpt lat="42.4161020" lon="-3.2096530">
        <ele>790.6</ele>
        <time>2021-09-30T12:07:17Z</time>
      </trkpt>
      <trkpt lat="42.4160190" lon="-3.2099740">
        <ele>790.6</ele>
        <time>2021-09-30T12:07:22Z</time>
      </trkpt>
      <trkpt lat="42.4159550" lon="-3.2101670">
        <ele>790.6</ele>
        <time>2021-09-30T12:07:25Z</time>
      </trkpt>
      <trkpt lat="42.4159280" lon="-3.2102290">
        <ele>791.0</ele>
        <time>2021-09-30T12:07:26Z</time>
      </trkpt>
      <trkpt lat="42.4158390" lon="-3.2104020">
        <ele>791.8</ele>
        <time>2021-09-30T12:07:29Z</time>
      </trkpt>
      <trkpt lat="42.4156410" lon="-3.2107400">
        <ele>792.8</ele>
        <time>2021-09-30T12:07:35Z</time>
      </trkpt>
      <trkpt lat="42.4153050" lon="-3.2113140">
        <ele>793.6</ele>
        <time>2021-09-30T12:07:45Z</time>
      </trkpt>
      <trkpt lat="42.4151980" lon="-3.2114810">
        <ele>793.8</ele>
        <time>2021-09-30T12:07:48Z</time>
      </trkpt>
      <trkpt lat="42.4151110" lon="-3.2116590">
        <ele>794.8</ele>
        <time>2021-09-30T12:07:51Z</time>
      </trkpt>
      <trkpt lat="42.4150890" lon="-3.2117230">
        <ele>795.0</ele>
        <time>2021-09-30T12:07:52Z</time>
      </trkpt>
      <trkpt lat="42.4149400" lon="-3.2121920">
        <ele>795.6</ele>
        <time>2021-09-30T12:07:59Z</time>
      </trkpt>
      <trkpt lat="42.4149000" lon="-3.2123910">
        <ele>796.0</ele>
        <time>2021-09-30T12:08:02Z</time>
      </trkpt>
      <trkpt lat="42.4147890" lon="-3.2128360">
        <ele>797.2</ele>
        <time>2021-09-30T12:08:09Z</time>
      </trkpt>
      <trkpt lat="42.4147220" lon="-3.2130980">
        <ele>798.4</ele>
        <time>2021-09-30T12:08:13Z</time>
      </trkpt>
      <trkpt lat="42.4146440" lon="-3.2136350">
        <ele>799.0</ele>
        <time>2021-09-30T12:08:21Z</time>
      </trkpt>
      <trkpt lat="42.4146060" lon="-3.2137770">
        <ele>799.4</ele>
        <time>2021-09-30T12:08:23Z</time>
      </trkpt>
      <trkpt lat="42.4145520" lon="-3.2139120">
        <ele>799.6</ele>
        <time>2021-09-30T12:08:25Z</time>
      </trkpt>
      <trkpt lat="42.4143870" lon="-3.2144380">
        <ele>800.2</ele>
        <time>2021-09-30T12:08:33Z</time>
      </trkpt>
      <trkpt lat="42.4143260" lon="-3.2147240">
        <ele>800.0</ele>
        <time>2021-09-30T12:08:37Z</time>
      </trkpt>
      <trkpt lat="42.4142860" lon="-3.2148680">
        <ele>800.0</ele>
        <time>2021-09-30T12:08:39Z</time>
      </trkpt>
      <trkpt lat="42.4142590" lon="-3.2149410">
        <ele>800.2</ele>
        <time>2021-09-30T12:08:40Z</time>
      </trkpt>
      <trkpt lat="42.4139760" lon="-3.2156210">
        <ele>798.6</ele>
        <time>2021-09-30T12:08:49Z</time>
      </trkpt>
      <trkpt lat="42.4139430" lon="-3.2156950">
        <ele>798.6</ele>
        <time>2021-09-30T12:08:50Z</time>
      </trkpt>
      <trkpt lat="42.4136600" lon="-3.2163290">
        <ele>798.4</ele>
        <time>2021-09-30T12:08:59Z</time>
      </trkpt>
      <trkpt lat="42.4136320" lon="-3.2163850">
        <ele>798.4</ele>
        <time>2021-09-30T12:09:00Z</time>
      </trkpt>
      <trkpt lat="42.4135040" lon="-3.2166560">
        <ele>799.8</ele>
        <time>2021-09-30T12:09:05Z</time>
      </trkpt>
      <trkpt lat="42.4134130" lon="-3.2168990">
        <ele>801.0</ele>
        <time>2021-09-30T12:09:09Z</time>
      </trkpt>
      <trkpt lat="42.4133190" lon="-3.2171770">
        <ele>802.2</ele>
        <time>2021-09-30T12:09:13Z</time>
      </trkpt>
      <trkpt lat="42.4132960" lon="-3.2172480">
        <ele>802.4</ele>
        <time>2021-09-30T12:09:14Z</time>
      </trkpt>
      <trkpt lat="42.4130560" lon="-3.2179310">
        <ele>802.8</ele>
        <time>2021-09-30T12:09:24Z</time>
      </trkpt>
      <trkpt lat="42.4129950" lon="-3.2181490">
        <ele>803.4</ele>
        <time>2021-09-30T12:09:27Z</time>
      </trkpt>
      <trkpt lat="42.4129200" lon="-3.2184390">
        <ele>803.8</ele>
        <time>2021-09-30T12:09:31Z</time>
      </trkpt>
      <trkpt lat="42.4128500" lon="-3.2187550">
        <ele>803.8</ele>
        <time>2021-09-30T12:09:35Z</time>
      </trkpt>
      <trkpt lat="42.4128350" lon="-3.2188370">
        <ele>803.8</ele>
        <time>2021-09-30T12:09:36Z</time>
      </trkpt>
      <trkpt lat="42.4127630" lon="-3.2194230">
        <ele>803.0</ele>
        <time>2021-09-30T12:09:43Z</time>
      </trkpt>
      <trkpt lat="42.4127020" lon="-3.2199210">
        <ele>802.8</ele>
        <time>2021-09-30T12:09:49Z</time>
      </trkpt>
      <trkpt lat="42.4126820" lon="-3.2206810">
        <ele>803.0</ele>
        <time>2021-09-30T12:09:58Z</time>
      </trkpt>
      <trkpt lat="42.4126380" lon="-3.2214790">
        <ele>803.4</ele>
        <time>2021-09-30T12:10:08Z</time>
      </trkpt>
      <trkpt lat="42.4124930" lon="-3.2222380">
        <ele>804.4</ele>
        <time>2021-09-30T12:10:19Z</time>
      </trkpt>
      <trkpt lat="42.4124860" lon="-3.2223100">
        <ele>804.8</ele>
        <time>2021-09-30T12:10:20Z</time>
      </trkpt>
      <trkpt lat="42.4124480" lon="-3.2228930">
        <ele>805.6</ele>
        <time>2021-09-30T12:10:28Z</time>
      </trkpt>
      <trkpt lat="42.4124260" lon="-3.2231070">
        <ele>805.8</ele>
        <time>2021-09-30T12:10:31Z</time>
      </trkpt>
      <trkpt lat="42.4123600" lon="-3.2238600">
        <ele>806.8</ele>
        <time>2021-09-30T12:10:42Z</time>
      </trkpt>
      <trkpt lat="42.4123520" lon="-3.2239980">
        <ele>807.2</ele>
        <time>2021-09-30T12:10:44Z</time>
      </trkpt>
      <trkpt lat="42.4123230" lon="-3.2241930">
        <ele>808.4</ele>
        <time>2021-09-30T12:10:47Z</time>
      </trkpt>
      <trkpt lat="42.4122490" lon="-3.2245110">
        <ele>809.6</ele>
        <time>2021-09-30T12:10:52Z</time>
      </trkpt>
      <trkpt lat="42.4122340" lon="-3.2245750">
        <ele>809.8</ele>
        <time>2021-09-30T12:10:53Z</time>
      </trkpt>
      <trkpt lat="42.4121150" lon="-3.2251620">
        <ele>810.6</ele>
        <time>2021-09-30T12:11:02Z</time>
      </trkpt>
      <trkpt lat="42.4119760" lon="-3.2256400">
        <ele>811.0</ele>
        <time>2021-09-30T12:11:09Z</time>
      </trkpt>
      <trkpt lat="42.4118170" lon="-3.2263960">
        <ele>811.0</ele>
        <time>2021-09-30T12:11:19Z</time>
      </trkpt>
      <trkpt lat="42.4116680" lon="-3.2271160">
        <ele>811.4</ele>
        <time>2021-09-30T12:11:28Z</time>
      </trkpt>
      <trkpt lat="42.4116260" lon="-3.2272710">
        <ele>811.8</ele>
        <time>2021-09-30T12:11:30Z</time>
      </trkpt>
      <trkpt lat="42.4115050" lon="-3.2277670">
        <ele>812.8</ele>
        <time>2021-09-30T12:11:36Z</time>
      </trkpt>
      <trkpt lat="42.4114680" lon="-3.2279290">
        <ele>813.0</ele>
        <time>2021-09-30T12:11:38Z</time>
      </trkpt>
      <trkpt lat="42.4114240" lon="-3.2283960">
        <ele>813.6</ele>
        <time>2021-09-30T12:11:44Z</time>
      </trkpt>
      <trkpt lat="42.4113710" lon="-3.2287630">
        <ele>814.0</ele>
        <time>2021-09-30T12:11:49Z</time>
      </trkpt>
      <trkpt lat="42.4113740" lon="-3.2294170">
        <ele>814.6</ele>
        <time>2021-09-30T12:11:58Z</time>
      </trkpt>
      <trkpt lat="42.4113400" lon="-3.2301610">
        <ele>814.8</ele>
        <time>2021-09-30T12:12:08Z</time>
      </trkpt>
      <trkpt lat="42.4113300" lon="-3.2303100">
        <ele>815.0</ele>
        <time>2021-09-30T12:12:10Z</time>
      </trkpt>
      <trkpt lat="42.4113530" lon="-3.2310520">
        <ele>815.6</ele>
        <time>2021-09-30T12:12:20Z</time>
      </trkpt>
      <trkpt lat="42.4113700" lon="-3.2312630">
        <ele>816.0</ele>
        <time>2021-09-30T12:12:23Z</time>
      </trkpt>
      <trkpt lat="42.4113980" lon="-3.2317800">
        <ele>817.0</ele>
        <time>2021-09-30T12:12:31Z</time>
      </trkpt>
      <trkpt lat="42.4114040" lon="-3.2318450">
        <ele>817.0</ele>
        <time>2021-09-30T12:12:32Z</time>
      </trkpt>
      <trkpt lat="42.4114200" lon="-3.2320440">
        <ele>818.2</ele>
        <time>2021-09-30T12:12:35Z</time>
      </trkpt>
      <trkpt lat="42.4114680" lon="-3.2326580">
        <ele>819.2</ele>
        <time>2021-09-30T12:12:44Z</time>
      </trkpt>
      <trkpt lat="42.4114730" lon="-3.2327260">
        <ele>819.2</ele>
        <time>2021-09-30T12:12:45Z</time>
      </trkpt>
      <trkpt lat="42.4114910" lon="-3.2333910">
        <ele>820.2</ele>
        <time>2021-09-30T12:12:55Z</time>
      </trkpt>
      <trkpt lat="42.4115250" lon="-3.2335980">
        <ele>820.4</ele>
        <time>2021-09-30T12:12:58Z</time>
      </trkpt>
      <trkpt lat="42.4115370" lon="-3.2336540">
        <ele>820.4</ele>
        <time>2021-09-30T12:12:59Z</time>
      </trkpt>
      <trkpt lat="42.4115480" lon="-3.2337250">
        <ele>820.6</ele>
        <time>2021-09-30T12:13:02Z</time>
      </trkpt>
      <trkpt lat="42.4115470" lon="-3.2337310">
        <ele>820.6</ele>
        <time>2021-09-30T12:13:03Z</time>
      </trkpt>
      <trkpt lat="42.4115930" lon="-3.2337240">
        <ele>822.4</ele>
        <time>2021-09-30T12:21:20Z</time>
      </trkpt>
      <trkpt lat="42.4115990" lon="-3.2337480">
        <ele>822.4</ele>
        <time>2021-09-30T12:21:21Z</time>
      </trkpt>
      <trkpt lat="42.4116360" lon="-3.2338500">
        <ele>822.4</ele>
        <time>2021-09-30T12:21:24Z</time>
      </trkpt>
      <trkpt lat="42.4116690" lon="-3.2339340">
        <ele>822.4</ele>
        <time>2021-09-30T12:21:26Z</time>
      </trkpt>
      <trkpt lat="42.4117330" lon="-3.2341470">
        <ele>822.6</ele>
        <time>2021-09-30T12:21:30Z</time>
      </trkpt>
      <trkpt lat="42.4118110" lon="-3.2343860">
        <ele>822.6</ele>
        <time>2021-09-30T12:21:34Z</time>
      </trkpt>
      <trkpt lat="42.4118970" lon="-3.2347030">
        <ele>822.8</ele>
        <time>2021-09-30T12:21:39Z</time>
      </trkpt>
      <trkpt lat="42.4119660" lon="-3.2349030">
        <ele>822.8</ele>
        <time>2021-09-30T12:21:42Z</time>
      </trkpt>
      <trkpt lat="42.4120580" lon="-3.2352520">
        <ele>822.8</ele>
        <time>2021-09-30T12:21:47Z</time>
      </trkpt>
      <trkpt lat="42.4121760" lon="-3.2358120">
        <ele>823.0</ele>
        <time>2021-09-30T12:21:55Z</time>
      </trkpt>
      <trkpt lat="42.4122530" lon="-3.2362980">
        <ele>823.2</ele>
        <time>2021-09-30T12:22:02Z</time>
      </trkpt>
      <trkpt lat="42.4123430" lon="-3.2370250">
        <ele>823.8</ele>
        <time>2021-09-30T12:22:12Z</time>
      </trkpt>
      <trkpt lat="42.4123810" lon="-3.2373870">
        <ele>824.6</ele>
        <time>2021-09-30T12:22:17Z</time>
      </trkpt>
      <trkpt lat="42.4124630" lon="-3.2381620">
        <ele>825.6</ele>
        <time>2021-09-30T12:22:28Z</time>
      </trkpt>
      <trkpt lat="42.4124790" lon="-3.2383010">
        <ele>825.8</ele>
        <time>2021-09-30T12:22:30Z</time>
      </trkpt>
      <trkpt lat="42.4125240" lon="-3.2386940">
        <ele>827.0</ele>
        <time>2021-09-30T12:22:36Z</time>
      </trkpt>
      <trkpt lat="42.4125830" lon="-3.2392390">
        <ele>828.2</ele>
        <time>2021-09-30T12:22:44Z</time>
      </trkpt>
      <trkpt lat="42.4126690" lon="-3.2399750">
        <ele>829.4</ele>
        <time>2021-09-30T12:22:55Z</time>
      </trkpt>
      <trkpt lat="42.4127360" lon="-3.2405470">
        <ele>830.4</ele>
        <time>2021-09-30T12:23:04Z</time>
      </trkpt>
      <trkpt lat="42.4127800" lon="-3.2409440">
        <ele>831.6</ele>
        <time>2021-09-30T12:23:11Z</time>
      </trkpt>
      <trkpt lat="42.4128090" lon="-3.2411580">
        <ele>832.6</ele>
        <time>2021-09-30T12:23:15Z</time>
      </trkpt>
      <trkpt lat="42.4128360" lon="-3.2413240">
        <ele>833.6</ele>
        <time>2021-09-30T12:23:18Z</time>
      </trkpt>
      <trkpt lat="42.4128660" lon="-3.2414840">
        <ele>835.0</ele>
        <time>2021-09-30T12:23:21Z</time>
      </trkpt>
      <trkpt lat="42.4129210" lon="-3.2417300">
        <ele>836.0</ele>
        <time>2021-09-30T12:23:26Z</time>
      </trkpt>
      <trkpt lat="42.4129480" lon="-3.2418890">
        <ele>836.2</ele>
        <time>2021-09-30T12:23:29Z</time>
      </trkpt>
      <trkpt lat="42.4129570" lon="-3.2420060">
        <ele>836.2</ele>
        <time>2021-09-30T12:23:31Z</time>
      </trkpt>
      <trkpt lat="42.4129520" lon="-3.2421330">
        <ele>836.2</ele>
        <time>2021-09-30T12:23:33Z</time>
      </trkpt>
      <trkpt lat="42.4129530" lon="-3.2422610">
        <ele>836.2</ele>
        <time>2021-09-30T12:23:35Z</time>
      </trkpt>
      <trkpt lat="42.4129940" lon="-3.2424400">
        <ele>835.6</ele>
        <time>2021-09-30T12:23:38Z</time>
      </trkpt>
      <trkpt lat="42.4130290" lon="-3.2425510">
        <ele>835.2</ele>
        <time>2021-09-30T12:23:40Z</time>
      </trkpt>
      <trkpt lat="42.4130400" lon="-3.2426180">
        <ele>835.0</ele>
        <time>2021-09-30T12:23:41Z</time>
      </trkpt>
      <trkpt lat="42.4131080" lon="-3.2429200">
        <ele>834.6</ele>
        <time>2021-09-30T12:23:47Z</time>
      </trkpt>
      <trkpt lat="42.4131650" lon="-3.2434200">
        <ele>834.6</ele>
        <time>2021-09-30T12:23:54Z</time>
      </trkpt>
      <trkpt lat="42.4131740" lon="-3.2439380">
        <ele>835.4</ele>
        <time>2021-09-30T12:24:02Z</time>
      </trkpt>
      <trkpt lat="42.4130940" lon="-3.2439800">
        <ele>836.2</ele>
        <time>2021-09-30T12:24:05Z</time>
      </trkpt>
      <trkpt lat="42.4129660" lon="-3.2440860">
        <ele>837.4</ele>
        <time>2021-09-30T12:24:09Z</time>
      </trkpt>
      <trkpt lat="42.4129380" lon="-3.2441280">
        <ele>837.4</ele>
        <time>2021-09-30T12:24:10Z</time>
      </trkpt>
      <trkpt lat="42.4128330" lon="-3.2442760">
        <ele>838.0</ele>
        <time>2021-09-30T12:24:14Z</time>
      </trkpt>
      <trkpt lat="42.4127500" lon="-3.2443720">
        <ele>838.6</ele>
        <time>2021-09-30T12:24:17Z</time>
      </trkpt>
      <trkpt lat="42.4126300" lon="-3.2445370">
        <ele>839.6</ele>
        <time>2021-09-30T12:24:22Z</time>
      </trkpt>
      <trkpt lat="42.4125570" lon="-3.2446180">
        <ele>840.0</ele>
        <time>2021-09-30T12:24:25Z</time>
      </trkpt>
      <trkpt lat="42.4124700" lon="-3.2447900">
        <ele>840.6</ele>
        <time>2021-09-30T12:24:30Z</time>
      </trkpt>
      <trkpt lat="42.4124090" lon="-3.2449310">
        <ele>842.0</ele>
        <time>2021-09-30T12:24:34Z</time>
      </trkpt>
      <trkpt lat="42.4123320" lon="-3.2451110">
        <ele>843.2</ele>
        <time>2021-09-30T12:24:39Z</time>
      </trkpt>
      <trkpt lat="42.4122590" lon="-3.2452870">
        <ele>844.4</ele>
        <time>2021-09-30T12:24:44Z</time>
      </trkpt>
      <trkpt lat="42.4121880" lon="-3.2454720">
        <ele>845.6</ele>
        <time>2021-09-30T12:24:49Z</time>
      </trkpt>
      <trkpt lat="42.4121090" lon="-3.2455950">
        <ele>846.8</ele>
        <time>2021-09-30T12:24:53Z</time>
      </trkpt>
      <trkpt lat="42.4120240" lon="-3.2457160">
        <ele>847.8</ele>
        <time>2021-09-30T12:24:57Z</time>
      </trkpt>
      <trkpt lat="42.4118980" lon="-3.2458970">
        <ele>849.0</ele>
        <time>2021-09-30T12:25:03Z</time>
      </trkpt>
      <trkpt lat="42.4118230" lon="-3.2460280">
        <ele>850.0</ele>
        <time>2021-09-30T12:25:07Z</time>
      </trkpt>
      <trkpt lat="42.4117710" lon="-3.2461310">
        <ele>851.2</ele>
        <time>2021-09-30T12:25:10Z</time>
      </trkpt>
      <trkpt lat="42.4116800" lon="-3.2464550">
        <ele>852.4</ele>
        <time>2021-09-30T12:25:18Z</time>
      </trkpt>
      <trkpt lat="42.4116230" lon="-3.2466260">
        <ele>853.6</ele>
        <time>2021-09-30T12:25:22Z</time>
      </trkpt>
      <trkpt lat="42.4115510" lon="-3.2467830">
        <ele>854.6</ele>
        <time>2021-09-30T12:25:26Z</time>
      </trkpt>
      <trkpt lat="42.4114000" lon="-3.2470420">
        <ele>855.8</ele>
        <time>2021-09-30T12:25:33Z</time>
      </trkpt>
      <trkpt lat="42.4111160" lon="-3.2475040">
        <ele>857.0</ele>
        <time>2021-09-30T12:25:44Z</time>
      </trkpt>
      <trkpt lat="42.4108140" lon="-3.2480200">
        <ele>858.0</ele>
        <time>2021-09-30T12:25:55Z</time>
      </trkpt>
      <trkpt lat="42.4105220" lon="-3.2485110">
        <ele>859.2</ele>
        <time>2021-09-30T12:26:05Z</time>
      </trkpt>
      <trkpt lat="42.4102110" lon="-3.2490410">
        <ele>859.4</ele>
        <time>2021-09-30T12:26:15Z</time>
      </trkpt>
      <trkpt lat="42.4100540" lon="-3.2493120">
        <ele>859.8</ele>
        <time>2021-09-30T12:26:20Z</time>
      </trkpt>
      <trkpt lat="42.4097040" lon="-3.2498920">
        <ele>860.2</ele>
        <time>2021-09-30T12:26:31Z</time>
      </trkpt>
      <trkpt lat="42.4096090" lon="-3.2500540">
        <ele>860.4</ele>
        <time>2021-09-30T12:26:34Z</time>
      </trkpt>
      <trkpt lat="42.4093400" lon="-3.2505000">
        <ele>861.0</ele>
        <time>2021-09-30T12:26:42Z</time>
      </trkpt>
      <trkpt lat="42.4091700" lon="-3.2507900">
        <ele>861.4</ele>
        <time>2021-09-30T12:26:47Z</time>
      </trkpt>
      <trkpt lat="42.4088170" lon="-3.2514090">
        <ele>862.0</ele>
        <time>2021-09-30T12:26:57Z</time>
      </trkpt>
      <trkpt lat="42.4086720" lon="-3.2516550">
        <ele>862.4</ele>
        <time>2021-09-30T12:27:01Z</time>
      </trkpt>
      <trkpt lat="42.4083030" lon="-3.2521130">
        <ele>862.6</ele>
        <time>2021-09-30T12:27:09Z</time>
      </trkpt>
      <trkpt lat="42.4079420" lon="-3.2525220">
        <ele>861.8</ele>
        <time>2021-09-30T12:27:16Z</time>
      </trkpt>
      <trkpt lat="42.4077900" lon="-3.2526930">
        <ele>861.4</ele>
        <time>2021-09-30T12:27:19Z</time>
      </trkpt>
      <trkpt lat="42.4073400" lon="-3.2531940">
        <ele>860.4</ele>
        <time>2021-09-30T12:27:27Z</time>
      </trkpt>
      <trkpt lat="42.4070030" lon="-3.2535710">
        <ele>859.4</ele>
        <time>2021-09-30T12:27:33Z</time>
      </trkpt>
      <trkpt lat="42.4067450" lon="-3.2538650">
        <ele>859.2</ele>
        <time>2021-09-30T12:27:38Z</time>
      </trkpt>
      <trkpt lat="42.4064870" lon="-3.2542240">
        <ele>859.8</ele>
        <time>2021-09-30T12:27:44Z</time>
      </trkpt>
      <trkpt lat="42.4063520" lon="-3.2545700">
        <ele>860.4</ele>
        <time>2021-09-30T12:27:49Z</time>
      </trkpt>
      <trkpt lat="42.4062540" lon="-3.2548560">
        <ele>861.6</ele>
        <time>2021-09-30T12:27:53Z</time>
      </trkpt>
      <trkpt lat="42.4061490" lon="-3.2551570">
        <ele>862.8</ele>
        <time>2021-09-30T12:27:57Z</time>
      </trkpt>
      <trkpt lat="42.4060690" lon="-3.2553750">
        <ele>864.2</ele>
        <time>2021-09-30T12:28:00Z</time>
      </trkpt>
      <trkpt lat="42.4059640" lon="-3.2556590">
        <ele>865.2</ele>
        <time>2021-09-30T12:28:04Z</time>
      </trkpt>
      <trkpt lat="42.4058150" lon="-3.2560900">
        <ele>866.4</ele>
        <time>2021-09-30T12:28:10Z</time>
      </trkpt>
      <trkpt lat="42.4056400" lon="-3.2565660">
        <ele>867.6</ele>
        <time>2021-09-30T12:28:17Z</time>
      </trkpt>
      <trkpt lat="42.4055220" lon="-3.2568870">
        <ele>868.8</ele>
        <time>2021-09-30T12:28:22Z</time>
      </trkpt>
      <trkpt lat="42.4054100" lon="-3.2571940">
        <ele>869.8</ele>
        <time>2021-09-30T12:28:27Z</time>
      </trkpt>
      <trkpt lat="42.4053240" lon="-3.2574300">
        <ele>871.0</ele>
        <time>2021-09-30T12:28:31Z</time>
      </trkpt>
      <trkpt lat="42.4051570" lon="-3.2578700">
        <ele>872.0</ele>
        <time>2021-09-30T12:28:38Z</time>
      </trkpt>
      <trkpt lat="42.4049820" lon="-3.2583450">
        <ele>873.4</ele>
        <time>2021-09-30T12:28:46Z</time>
      </trkpt>
      <trkpt lat="42.4048990" lon="-3.2585810">
        <ele>874.6</ele>
        <time>2021-09-30T12:28:50Z</time>
      </trkpt>
      <trkpt lat="42.4048210" lon="-3.2588150">
        <ele>875.8</ele>
        <time>2021-09-30T12:28:54Z</time>
      </trkpt>
      <trkpt lat="42.4047640" lon="-3.2590510">
        <ele>876.6</ele>
        <time>2021-09-30T12:28:58Z</time>
      </trkpt>
      <trkpt lat="42.4047610" lon="-3.2591130">
        <ele>876.8</ele>
        <time>2021-09-30T12:28:59Z</time>
      </trkpt>
      <trkpt lat="42.4047870" lon="-3.2592970">
        <ele>877.2</ele>
        <time>2021-09-30T12:29:02Z</time>
      </trkpt>
      <trkpt lat="42.4048120" lon="-3.2594880">
        <ele>877.6</ele>
        <time>2021-09-30T12:29:05Z</time>
      </trkpt>
      <trkpt lat="42.4048050" lon="-3.2596860">
        <ele>878.0</ele>
        <time>2021-09-30T12:29:08Z</time>
      </trkpt>
      <trkpt lat="42.4046960" lon="-3.2604290">
        <ele>878.8</ele>
        <time>2021-09-30T12:29:20Z</time>
      </trkpt>
      <trkpt lat="42.4046640" lon="-3.2606690">
        <ele>879.0</ele>
        <time>2021-09-30T12:29:24Z</time>
      </trkpt>
      <trkpt lat="42.4046580" lon="-3.2609150">
        <ele>879.8</ele>
        <time>2021-09-30T12:29:28Z</time>
      </trkpt>
      <trkpt lat="42.4046760" lon="-3.2610490">
        <ele>879.8</ele>
        <time>2021-09-30T12:29:30Z</time>
      </trkpt>
      <trkpt lat="42.4046840" lon="-3.2611170">
        <ele>879.8</ele>
        <time>2021-09-30T12:29:31Z</time>
      </trkpt>
      <trkpt lat="42.4046690" lon="-3.2612550">
        <ele>879.8</ele>
        <time>2021-09-30T12:29:33Z</time>
      </trkpt>
      <trkpt lat="42.4045890" lon="-3.2614760">
        <ele>879.8</ele>
        <time>2021-09-30T12:29:36Z</time>
      </trkpt>
      <trkpt lat="42.4045100" lon="-3.2616180">
        <ele>879.6</ele>
        <time>2021-09-30T12:29:38Z</time>
      </trkpt>
      <trkpt lat="42.4044750" lon="-3.2616880">
        <ele>879.6</ele>
        <time>2021-09-30T12:29:39Z</time>
      </trkpt>
      <trkpt lat="42.4044190" lon="-3.2618490">
        <ele>879.0</ele>
        <time>2021-09-30T12:29:41Z</time>
      </trkpt>
      <trkpt lat="42.4044080" lon="-3.2619310">
        <ele>877.4</ele>
        <time>2021-09-30T12:29:42Z</time>
      </trkpt>
      <trkpt lat="42.4044110" lon="-3.2620090">
        <ele>876.2</ele>
        <time>2021-09-30T12:29:43Z</time>
      </trkpt>
      <trkpt lat="42.4044540" lon="-3.2622060">
        <ele>875.2</ele>
        <time>2021-09-30T12:29:46Z</time>
      </trkpt>
      <trkpt lat="42.4044720" lon="-3.2622650">
        <ele>875.2</ele>
        <time>2021-09-30T12:29:47Z</time>
      </trkpt>
      <trkpt lat="42.4045410" lon="-3.2624340">
        <ele>875.2</ele>
        <time>2021-09-30T12:29:50Z</time>
      </trkpt>
      <trkpt lat="42.4045880" lon="-3.2625530">
        <ele>875.0</ele>
        <time>2021-09-30T12:29:52Z</time>
      </trkpt>
      <trkpt lat="42.4046700" lon="-3.2628240">
        <ele>875.0</ele>
        <time>2021-09-30T12:29:56Z</time>
      </trkpt>
      <trkpt lat="42.4047140" lon="-3.2630530">
        <ele>875.0</ele>
        <time>2021-09-30T12:29:59Z</time>
      </trkpt>
      <trkpt lat="42.4047210" lon="-3.2631350">
        <ele>875.0</ele>
        <time>2021-09-30T12:30:00Z</time>
      </trkpt>
      <trkpt lat="42.4047280" lon="-3.2633000">
        <ele>875.0</ele>
        <time>2021-09-30T12:30:02Z</time>
      </trkpt>
      <trkpt lat="42.4047130" lon="-3.2636110">
        <ele>874.0</ele>
        <time>2021-09-30T12:30:06Z</time>
      </trkpt>
      <trkpt lat="42.4046760" lon="-3.2637490">
        <ele>873.4</ele>
        <time>2021-09-30T12:30:08Z</time>
      </trkpt>
      <trkpt lat="42.4046240" lon="-3.2638720">
        <ele>873.2</ele>
        <time>2021-09-30T12:30:10Z</time>
      </trkpt>
      <trkpt lat="42.4045700" lon="-3.2639890">
        <ele>873.2</ele>
        <time>2021-09-30T12:30:12Z</time>
      </trkpt>
      <trkpt lat="42.4044850" lon="-3.2641530">
        <ele>873.2</ele>
        <time>2021-09-30T12:30:15Z</time>
      </trkpt>
      <trkpt lat="42.4044610" lon="-3.2642110">
        <ele>873.2</ele>
        <time>2021-09-30T12:30:16Z</time>
      </trkpt>
      <trkpt lat="42.4044280" lon="-3.2644050">
        <ele>874.4</ele>
        <time>2021-09-30T12:30:19Z</time>
      </trkpt>
      <trkpt lat="42.4044420" lon="-3.2645410">
        <ele>875.2</ele>
        <time>2021-09-30T12:30:21Z</time>
      </trkpt>
      <trkpt lat="42.4044940" lon="-3.2647370">
        <ele>876.4</ele>
        <time>2021-09-30T12:30:24Z</time>
      </trkpt>
      <trkpt lat="42.4045540" lon="-3.2650060">
        <ele>876.8</ele>
        <time>2021-09-30T12:30:28Z</time>
      </trkpt>
      <trkpt lat="42.4045840" lon="-3.2654110">
        <ele>877.4</ele>
        <time>2021-09-30T12:30:34Z</time>
      </trkpt>
      <trkpt lat="42.4045990" lon="-3.2659330">
        <ele>878.6</ele>
        <time>2021-09-30T12:30:42Z</time>
      </trkpt>
      <trkpt lat="42.4046090" lon="-3.2664720">
        <ele>880.0</ele>
        <time>2021-09-30T12:30:51Z</time>
      </trkpt>
      <trkpt lat="42.4046080" lon="-3.2667670">
        <ele>881.2</ele>
        <time>2021-09-30T12:30:56Z</time>
      </trkpt>
      <trkpt lat="42.4046190" lon="-3.2671160">
        <ele>882.4</ele>
        <time>2021-09-30T12:31:02Z</time>
      </trkpt>
      <trkpt lat="42.4046170" lon="-3.2674150">
        <ele>883.6</ele>
        <time>2021-09-30T12:31:07Z</time>
      </trkpt>
      <trkpt lat="42.4046160" lon="-3.2679070">
        <ele>884.8</ele>
        <time>2021-09-30T12:31:15Z</time>
      </trkpt>
      <trkpt lat="42.4046190" lon="-3.2684980">
        <ele>885.8</ele>
        <time>2021-09-30T12:31:25Z</time>
      </trkpt>
      <trkpt lat="42.4046230" lon="-3.2692340">
        <ele>886.8</ele>
        <time>2021-09-30T12:31:37Z</time>
      </trkpt>
      <trkpt lat="42.4046230" lon="-3.2692920">
        <ele>887.0</ele>
        <time>2021-09-30T12:31:38Z</time>
      </trkpt>
      <trkpt lat="42.4046230" lon="-3.2696240">
        <ele>888.0</ele>
        <time>2021-09-30T12:31:44Z</time>
      </trkpt>
      <trkpt lat="42.4046250" lon="-3.2699420">
        <ele>889.2</ele>
        <time>2021-09-30T12:31:50Z</time>
      </trkpt>
      <trkpt lat="42.4046120" lon="-3.2702950">
        <ele>890.4</ele>
        <time>2021-09-30T12:31:57Z</time>
      </trkpt>
      <trkpt lat="42.4046250" lon="-3.2705980">
        <ele>891.4</ele>
        <time>2021-09-30T12:32:03Z</time>
      </trkpt>
      <trkpt lat="42.4046280" lon="-3.2708210">
        <ele>892.6</ele>
        <time>2021-09-30T12:32:07Z</time>
      </trkpt>
      <trkpt lat="42.4046430" lon="-3.2710490">
        <ele>893.6</ele>
        <time>2021-09-30T12:32:11Z</time>
      </trkpt>
      <trkpt lat="42.4046640" lon="-3.2713480">
        <ele>894.8</ele>
        <time>2021-09-30T12:32:16Z</time>
      </trkpt>
      <trkpt lat="42.4046820" lon="-3.2716500">
        <ele>895.8</ele>
        <time>2021-09-30T12:32:21Z</time>
      </trkpt>
      <trkpt lat="42.4047070" lon="-3.2719420">
        <ele>897.0</ele>
        <time>2021-09-30T12:32:26Z</time>
      </trkpt>
      <trkpt lat="42.4047030" lon="-3.2722890">
        <ele>897.6</ele>
        <time>2021-09-30T12:32:31Z</time>
      </trkpt>
      <trkpt lat="42.4046970" lon="-3.2725400">
        <ele>897.6</ele>
        <time>2021-09-30T12:32:34Z</time>
      </trkpt>
      <trkpt lat="42.4047230" lon="-3.2728000">
        <ele>897.4</ele>
        <time>2021-09-30T12:32:37Z</time>
      </trkpt>
      <trkpt lat="42.4047960" lon="-3.2730580">
        <ele>896.4</ele>
        <time>2021-09-30T12:32:40Z</time>
      </trkpt>
      <trkpt lat="42.4048210" lon="-3.2731460">
        <ele>896.0</ele>
        <time>2021-09-30T12:32:41Z</time>
      </trkpt>
      <trkpt lat="42.4048710" lon="-3.2733220">
        <ele>895.2</ele>
        <time>2021-09-30T12:32:43Z</time>
      </trkpt>
      <trkpt lat="42.4049210" lon="-3.2734990">
        <ele>895.0</ele>
        <time>2021-09-30T12:32:45Z</time>
      </trkpt>
      <trkpt lat="42.4049720" lon="-3.2736720">
        <ele>894.8</ele>
        <time>2021-09-30T12:32:47Z</time>
      </trkpt>
      <trkpt lat="42.4050210" lon="-3.2738450">
        <ele>894.4</ele>
        <time>2021-09-30T12:32:49Z</time>
      </trkpt>
      <trkpt lat="42.4050610" lon="-3.2740160">
        <ele>893.8</ele>
        <time>2021-09-30T12:32:51Z</time>
      </trkpt>
      <trkpt lat="42.4050700" lon="-3.2741020">
        <ele>893.4</ele>
        <time>2021-09-30T12:32:52Z</time>
      </trkpt>
      <trkpt lat="42.4050640" lon="-3.2742660">
        <ele>893.2</ele>
        <time>2021-09-30T12:32:54Z</time>
      </trkpt>
      <trkpt lat="42.4050090" lon="-3.2745090">
        <ele>893.2</ele>
        <time>2021-09-30T12:32:58Z</time>
      </trkpt>
      <trkpt lat="42.4049780" lon="-3.2746590">
        <ele>893.2</ele>
        <time>2021-09-30T12:33:01Z</time>
      </trkpt>
      <trkpt lat="42.4049750" lon="-3.2747190">
        <ele>893.2</ele>
        <time>2021-09-30T12:33:02Z</time>
      </trkpt>
      <trkpt lat="42.4049850" lon="-3.2748480">
        <ele>893.4</ele>
        <time>2021-09-30T12:33:04Z</time>
      </trkpt>
      <trkpt lat="42.4050020" lon="-3.2749900">
        <ele>893.6</ele>
        <time>2021-09-30T12:33:06Z</time>
      </trkpt>
      <trkpt lat="42.4050140" lon="-3.2752100">
        <ele>893.6</ele>
        <time>2021-09-30T12:33:09Z</time>
      </trkpt>
      <trkpt lat="42.4050240" lon="-3.2753600">
        <ele>894.0</ele>
        <time>2021-09-30T12:33:11Z</time>
      </trkpt>
      <trkpt lat="42.4050320" lon="-3.2755030">
        <ele>894.0</ele>
        <time>2021-09-30T12:33:13Z</time>
      </trkpt>
      <trkpt lat="42.4050430" lon="-3.2756980">
        <ele>894.0</ele>
        <time>2021-09-30T12:33:16Z</time>
      </trkpt>
      <trkpt lat="42.4050590" lon="-3.2758650">
        <ele>894.2</ele>
        <time>2021-09-30T12:33:19Z</time>
      </trkpt>
      <trkpt lat="42.4050650" lon="-3.2759190">
        <ele>894.8</ele>
        <time>2021-09-30T12:33:20Z</time>
      </trkpt>
      <trkpt lat="42.4050890" lon="-3.2760830">
        <ele>896.0</ele>
        <time>2021-09-30T12:33:23Z</time>
      </trkpt>
      <trkpt lat="42.4051200" lon="-3.2762350">
        <ele>897.2</ele>
        <time>2021-09-30T12:33:26Z</time>
      </trkpt>
      <trkpt lat="42.4051670" lon="-3.2763700">
        <ele>898.6</ele>
        <time>2021-09-30T12:33:29Z</time>
      </trkpt>
      <trkpt lat="42.4052260" lon="-3.2765380">
        <ele>899.8</ele>
        <time>2021-09-30T12:33:33Z</time>
      </trkpt>
      <trkpt lat="42.4052520" lon="-3.2766820">
        <ele>900.8</ele>
        <time>2021-09-30T12:33:36Z</time>
      </trkpt>
      <trkpt lat="42.4052290" lon="-3.2768930">
        <ele>901.8</ele>
        <time>2021-09-30T12:33:40Z</time>
      </trkpt>
      <trkpt lat="42.4051810" lon="-3.2771000">
        <ele>902.8</ele>
        <time>2021-09-30T12:33:44Z</time>
      </trkpt>
      <trkpt lat="42.4051440" lon="-3.2773100">
        <ele>903.8</ele>
        <time>2021-09-30T12:33:48Z</time>
      </trkpt>
      <trkpt lat="42.4051440" lon="-3.2773650">
        <ele>904.0</ele>
        <time>2021-09-30T12:33:49Z</time>
      </trkpt>
      <trkpt lat="42.4051630" lon="-3.2776710">
        <ele>904.8</ele>
        <time>2021-09-30T12:33:54Z</time>
      </trkpt>
      <trkpt lat="42.4051520" lon="-3.2778670">
        <ele>905.0</ele>
        <time>2021-09-30T12:33:57Z</time>
      </trkpt>
      <trkpt lat="42.4051440" lon="-3.2780590">
        <ele>905.2</ele>
        <time>2021-09-30T12:34:00Z</time>
      </trkpt>
      <trkpt lat="42.4051560" lon="-3.2781840">
        <ele>905.2</ele>
        <time>2021-09-30T12:34:02Z</time>
      </trkpt>
      <trkpt lat="42.4052760" lon="-3.2784530">
        <ele>905.6</ele>
        <time>2021-09-30T12:34:07Z</time>
      </trkpt>
      <trkpt lat="42.4053020" lon="-3.2784990">
        <ele>905.8</ele>
        <time>2021-09-30T12:34:08Z</time>
      </trkpt>
      <trkpt lat="42.4053230" lon="-3.2785480">
        <ele>906.0</ele>
        <time>2021-09-30T12:34:09Z</time>
      </trkpt>
      <trkpt lat="42.4053680" lon="-3.2788100">
        <ele>906.8</ele>
        <time>2021-09-30T12:34:14Z</time>
      </trkpt>
      <trkpt lat="42.4053750" lon="-3.2789610">
        <ele>908.0</ele>
        <time>2021-09-30T12:34:17Z</time>
      </trkpt>
      <trkpt lat="42.4053900" lon="-3.2791120">
        <ele>909.0</ele>
        <time>2021-09-30T12:34:20Z</time>
      </trkpt>
      <trkpt lat="42.4054330" lon="-3.2793110">
        <ele>910.4</ele>
        <time>2021-09-30T12:34:24Z</time>
      </trkpt>
      <trkpt lat="42.4055010" lon="-3.2795450">
        <ele>911.4</ele>
        <time>2021-09-30T12:34:29Z</time>
      </trkpt>
      <trkpt lat="42.4055420" lon="-3.2800090">
        <ele>912.6</ele>
        <time>2021-09-30T12:34:38Z</time>
      </trkpt>
      <trkpt lat="42.4055850" lon="-3.2802990">
        <ele>913.4</ele>
        <time>2021-09-30T12:34:43Z</time>
      </trkpt>
      <trkpt lat="42.4056660" lon="-3.2805280">
        <ele>913.4</ele>
        <time>2021-09-30T12:34:47Z</time>
      </trkpt>
      <trkpt lat="42.4056980" lon="-3.2806440">
        <ele>913.4</ele>
        <time>2021-09-30T12:34:49Z</time>
      </trkpt>
      <trkpt lat="42.4057450" lon="-3.2808830">
        <ele>913.2</ele>
        <time>2021-09-30T12:34:53Z</time>
      </trkpt>
      <trkpt lat="42.4057590" lon="-3.2810050">
        <ele>913.2</ele>
        <time>2021-09-30T12:34:55Z</time>
      </trkpt>
      <trkpt lat="42.4057390" lon="-3.2812540">
        <ele>913.2</ele>
        <time>2021-09-30T12:34:59Z</time>
      </trkpt>
      <trkpt lat="42.4057230" lon="-3.2813700">
        <ele>913.2</ele>
        <time>2021-09-30T12:35:01Z</time>
      </trkpt>
      <trkpt lat="42.4057340" lon="-3.2815280">
        <ele>913.4</ele>
        <time>2021-09-30T12:35:05Z</time>
      </trkpt>
      <trkpt lat="42.4057360" lon="-3.2815460">
        <ele>913.6</ele>
        <time>2021-09-30T12:35:06Z</time>
      </trkpt>
      <trkpt lat="42.4057390" lon="-3.2815550">
        <ele>913.6</ele>
        <time>2021-09-30T12:35:07Z</time>
      </trkpt>
      <trkpt lat="42.4057360" lon="-3.2815620">
        <ele>913.8</ele>
        <time>2021-09-30T12:35:08Z</time>
      </trkpt>
      <trkpt lat="42.4058190" lon="-3.2815750">
        <ele>915.4</ele>
        <time>2021-09-30T12:36:11Z</time>
      </trkpt>
      <trkpt lat="42.4058510" lon="-3.2815940">
        <ele>915.4</ele>
        <time>2021-09-30T12:36:12Z</time>
      </trkpt>
      <trkpt lat="42.4060020" lon="-3.2817690">
        <ele>915.4</ele>
        <time>2021-09-30T12:36:17Z</time>
      </trkpt>
      <trkpt lat="42.4061670" lon="-3.2818380">
        <ele>914.4</ele>
        <time>2021-09-30T12:36:21Z</time>
      </trkpt>
      <trkpt lat="42.4062570" lon="-3.2818420">
        <ele>913.6</ele>
        <time>2021-09-30T12:36:23Z</time>
      </trkpt>
      <trkpt lat="42.4063000" lon="-3.2818480">
        <ele>913.4</ele>
        <time>2021-09-30T12:36:24Z</time>
      </trkpt>
      <trkpt lat="42.4063380" lon="-3.2818680">
        <ele>913.4</ele>
        <time>2021-09-30T12:36:25Z</time>
      </trkpt>
      <trkpt lat="42.4063020" lon="-3.2822070">
        <ele>912.2</ele>
        <time>2021-09-30T12:36:32Z</time>
      </trkpt>
      <trkpt lat="42.4060300" lon="-3.2825640">
        <ele>910.8</ele>
        <time>2021-09-30T12:36:39Z</time>
      </trkpt>
      <trkpt lat="42.4057080" lon="-3.2829940">
        <ele>909.8</ele>
        <time>2021-09-30T12:36:47Z</time>
      </trkpt>
      <trkpt lat="42.4055770" lon="-3.2831580">
        <ele>909.4</ele>
        <time>2021-09-30T12:36:50Z</time>
      </trkpt>
      <trkpt lat="42.4053980" lon="-3.2834140">
        <ele>909.2</ele>
        <time>2021-09-30T12:36:54Z</time>
      </trkpt>
      <trkpt lat="42.4053490" lon="-3.2834790">
        <ele>908.8</ele>
        <time>2021-09-30T12:36:55Z</time>
      </trkpt>
      <trkpt lat="42.4051260" lon="-3.2838120">
        <ele>907.6</ele>
        <time>2021-09-30T12:37:00Z</time>
      </trkpt>
      <trkpt lat="42.4050260" lon="-3.2842040">
        <ele>906.8</ele>
        <time>2021-09-30T12:37:05Z</time>
      </trkpt>
      <trkpt lat="42.4048660" lon="-3.2849070">
        <ele>907.6</ele>
        <time>2021-09-30T12:37:16Z</time>
      </trkpt>
      <trkpt lat="42.4048510" lon="-3.2849650">
        <ele>907.8</ele>
        <time>2021-09-30T12:37:17Z</time>
      </trkpt>
      <trkpt lat="42.4048230" lon="-3.2850970">
        <ele>908.2</ele>
        <time>2021-09-30T12:37:19Z</time>
      </trkpt>
      <trkpt lat="42.4047930" lon="-3.2852470">
        <ele>908.4</ele>
        <time>2021-09-30T12:37:21Z</time>
      </trkpt>
      <trkpt lat="42.4047680" lon="-3.2854030">
        <ele>908.8</ele>
        <time>2021-09-30T12:37:23Z</time>
      </trkpt>
      <trkpt lat="42.4047400" lon="-3.2855510">
        <ele>909.0</ele>
        <time>2021-09-30T12:37:25Z</time>
      </trkpt>
      <trkpt lat="42.4047120" lon="-3.2856820">
        <ele>909.0</ele>
        <time>2021-09-30T12:37:27Z</time>
      </trkpt>
      <trkpt lat="42.4046880" lon="-3.2858010">
        <ele>909.2</ele>
        <time>2021-09-30T12:37:29Z</time>
      </trkpt>
      <trkpt lat="42.4046710" lon="-3.2859160">
        <ele>909.6</ele>
        <time>2021-09-30T12:37:31Z</time>
      </trkpt>
      <trkpt lat="42.4046650" lon="-3.2859710">
        <ele>910.0</ele>
        <time>2021-09-30T12:37:32Z</time>
      </trkpt>
      <trkpt lat="42.4046400" lon="-3.2861290">
        <ele>911.4</ele>
        <time>2021-09-30T12:37:35Z</time>
      </trkpt>
      <trkpt lat="42.4046070" lon="-3.2862790">
        <ele>912.6</ele>
        <time>2021-09-30T12:37:38Z</time>
      </trkpt>
      <trkpt lat="42.4045800" lon="-3.2864230">
        <ele>913.8</ele>
        <time>2021-09-30T12:37:41Z</time>
      </trkpt>
      <trkpt lat="42.4045370" lon="-3.2866400">
        <ele>915.0</ele>
        <time>2021-09-30T12:37:46Z</time>
      </trkpt>
      <trkpt lat="42.4044960" lon="-3.2867900">
        <ele>916.4</ele>
        <time>2021-09-30T12:37:50Z</time>
      </trkpt>
      <trkpt lat="42.4044490" lon="-3.2869270">
        <ele>917.4</ele>
        <time>2021-09-30T12:37:54Z</time>
      </trkpt>
      <trkpt lat="42.4044080" lon="-3.2870940">
        <ele>918.8</ele>
        <time>2021-09-30T12:37:59Z</time>
      </trkpt>
      <trkpt lat="42.4043720" lon="-3.2872240">
        <ele>920.0</ele>
        <time>2021-09-30T12:38:03Z</time>
      </trkpt>
      <trkpt lat="42.4043140" lon="-3.2874040">
        <ele>921.0</ele>
        <time>2021-09-30T12:38:09Z</time>
      </trkpt>
      <trkpt lat="42.4042800" lon="-3.2875230">
        <ele>922.2</ele>
        <time>2021-09-30T12:38:13Z</time>
      </trkpt>
      <trkpt lat="42.4042380" lon="-3.2876640">
        <ele>923.4</ele>
        <time>2021-09-30T12:38:18Z</time>
      </trkpt>
      <trkpt lat="42.4041990" lon="-3.2877790">
        <ele>924.4</ele>
        <time>2021-09-30T12:38:22Z</time>
      </trkpt>
      <trkpt lat="42.4041560" lon="-3.2879640">
        <ele>925.4</ele>
        <time>2021-09-30T12:38:28Z</time>
      </trkpt>
      <trkpt lat="42.4041450" lon="-3.2881560">
        <ele>926.6</ele>
        <time>2021-09-30T12:38:34Z</time>
      </trkpt>
      <trkpt lat="42.4041570" lon="-3.2883230">
        <ele>927.6</ele>
        <time>2021-09-30T12:38:39Z</time>
      </trkpt>
      <trkpt lat="42.4041930" lon="-3.2885230">
        <ele>928.8</ele>
        <time>2021-09-30T12:38:45Z</time>
      </trkpt>
      <trkpt lat="42.4042180" lon="-3.2886150">
        <ele>929.8</ele>
        <time>2021-09-30T12:38:48Z</time>
      </trkpt>
      <trkpt lat="42.4042440" lon="-3.2887080">
        <ele>931.0</ele>
        <time>2021-09-30T12:38:51Z</time>
      </trkpt>
      <trkpt lat="42.4042740" lon="-3.2888000">
        <ele>932.0</ele>
        <time>2021-09-30T12:38:54Z</time>
      </trkpt>
      <trkpt lat="42.4043040" lon="-3.2889660">
        <ele>933.2</ele>
        <time>2021-09-30T12:38:59Z</time>
      </trkpt>
      <trkpt lat="42.4043190" lon="-3.2891060">
        <ele>934.2</ele>
        <time>2021-09-30T12:39:03Z</time>
      </trkpt>
      <trkpt lat="42.4043250" lon="-3.2892500">
        <ele>935.2</ele>
        <time>2021-09-30T12:39:07Z</time>
      </trkpt>
      <trkpt lat="42.4043160" lon="-3.2893920">
        <ele>936.2</ele>
        <time>2021-09-30T12:39:11Z</time>
      </trkpt>
      <trkpt lat="42.4042940" lon="-3.2896050">
        <ele>937.6</ele>
        <time>2021-09-30T12:39:17Z</time>
      </trkpt>
      <trkpt lat="42.4042560" lon="-3.2898700">
        <ele>938.6</ele>
        <time>2021-09-30T12:39:24Z</time>
      </trkpt>
      <trkpt lat="42.4042090" lon="-3.2902150">
        <ele>939.6</ele>
        <time>2021-09-30T12:39:33Z</time>
      </trkpt>
      <trkpt lat="42.4041810" lon="-3.2904480">
        <ele>940.8</ele>
        <time>2021-09-30T12:39:39Z</time>
      </trkpt>
      <trkpt lat="42.4041490" lon="-3.2907990">
        <ele>941.8</ele>
        <time>2021-09-30T12:39:48Z</time>
      </trkpt>
      <trkpt lat="42.4041210" lon="-3.2910380">
        <ele>943.2</ele>
        <time>2021-09-30T12:39:54Z</time>
      </trkpt>
      <trkpt lat="42.4040820" lon="-3.2912460">
        <ele>944.4</ele>
        <time>2021-09-30T12:39:59Z</time>
      </trkpt>
      <trkpt lat="42.4040020" lon="-3.2915310">
        <ele>945.8</ele>
        <time>2021-09-30T12:40:06Z</time>
      </trkpt>
      <trkpt lat="42.4038790" lon="-3.2918920">
        <ele>946.8</ele>
        <time>2021-09-30T12:40:15Z</time>
      </trkpt>
      <trkpt lat="42.4038050" lon="-3.2921070">
        <ele>947.8</ele>
        <time>2021-09-30T12:40:20Z</time>
      </trkpt>
      <trkpt lat="42.4036400" lon="-3.2925000">
        <ele>949.0</ele>
        <time>2021-09-30T12:40:29Z</time>
      </trkpt>
      <trkpt lat="42.4034350" lon="-3.2930140">
        <ele>950.2</ele>
        <time>2021-09-30T12:40:40Z</time>
      </trkpt>
      <trkpt lat="42.4033990" lon="-3.2931110">
        <ele>950.2</ele>
        <time>2021-09-30T12:40:42Z</time>
      </trkpt>
      <trkpt lat="42.4032350" lon="-3.2936370">
        <ele>950.8</ele>
        <time>2021-09-30T12:40:52Z</time>
      </trkpt>
      <trkpt lat="42.4031220" lon="-3.2940820">
        <ele>951.2</ele>
        <time>2021-09-30T12:41:00Z</time>
      </trkpt>
      <trkpt lat="42.4030280" lon="-3.2945200">
        <ele>952.4</ele>
        <time>2021-09-30T12:41:08Z</time>
      </trkpt>
      <trkpt lat="42.4029310" lon="-3.2949270">
        <ele>953.6</ele>
        <time>2021-09-30T12:41:16Z</time>
      </trkpt>
      <trkpt lat="42.4028530" lon="-3.2952550">
        <ele>954.6</ele>
        <time>2021-09-30T12:41:22Z</time>
      </trkpt>
      <trkpt lat="42.4027860" lon="-3.2955520">
        <ele>955.8</ele>
        <time>2021-09-30T12:41:27Z</time>
      </trkpt>
      <trkpt lat="42.4027220" lon="-3.2958490">
        <ele>956.6</ele>
        <time>2021-09-30T12:41:32Z</time>
      </trkpt>
      <trkpt lat="42.4027080" lon="-3.2959100">
        <ele>956.8</ele>
        <time>2021-09-30T12:41:33Z</time>
      </trkpt>
      <trkpt lat="42.4026230" lon="-3.2962770">
        <ele>958.0</ele>
        <time>2021-09-30T12:41:39Z</time>
      </trkpt>
      <trkpt lat="42.4024800" lon="-3.2968980">
        <ele>959.2</ele>
        <time>2021-09-30T12:41:49Z</time>
      </trkpt>
      <trkpt lat="42.4023770" lon="-3.2973430">
        <ele>960.2</ele>
        <time>2021-09-30T12:41:56Z</time>
      </trkpt>
      <trkpt lat="42.4023160" lon="-3.2975720">
        <ele>960.8</ele>
        <time>2021-09-30T12:42:00Z</time>
      </trkpt>
      <trkpt lat="42.4022490" lon="-3.2978180">
        <ele>961.0</ele>
        <time>2021-09-30T12:42:04Z</time>
      </trkpt>
      <trkpt lat="42.4021440" lon="-3.2982610">
        <ele>960.8</ele>
        <time>2021-09-30T12:42:10Z</time>
      </trkpt>
      <trkpt lat="42.4020800" lon="-3.2985210">
        <ele>960.0</ele>
        <time>2021-09-30T12:42:13Z</time>
      </trkpt>
      <trkpt lat="42.4020400" lon="-3.2986970">
        <ele>959.0</ele>
        <time>2021-09-30T12:42:15Z</time>
      </trkpt>
      <trkpt lat="42.4019780" lon="-3.2989590">
        <ele>958.0</ele>
        <time>2021-09-30T12:42:18Z</time>
      </trkpt>
      <trkpt lat="42.4019170" lon="-3.2992280">
        <ele>957.0</ele>
        <time>2021-09-30T12:42:21Z</time>
      </trkpt>
      <trkpt lat="42.4018740" lon="-3.2994160">
        <ele>955.2</ele>
        <time>2021-09-30T12:42:23Z</time>
      </trkpt>
      <trkpt lat="42.4018300" lon="-3.2996080">
        <ele>953.6</ele>
        <time>2021-09-30T12:42:25Z</time>
      </trkpt>
      <trkpt lat="42.4017820" lon="-3.2998050">
        <ele>952.4</ele>
        <time>2021-09-30T12:42:27Z</time>
      </trkpt>
      <trkpt lat="42.4017340" lon="-3.3000060">
        <ele>950.4</ele>
        <time>2021-09-30T12:42:29Z</time>
      </trkpt>
      <trkpt lat="42.4017120" lon="-3.3001050">
        <ele>949.4</ele>
        <time>2021-09-30T12:42:30Z</time>
      </trkpt>
      <trkpt lat="42.4016650" lon="-3.3002970">
        <ele>947.8</ele>
        <time>2021-09-30T12:42:32Z</time>
      </trkpt>
      <trkpt lat="42.4016200" lon="-3.3004770">
        <ele>946.6</ele>
        <time>2021-09-30T12:42:34Z</time>
      </trkpt>
      <trkpt lat="42.4015790" lon="-3.3006440">
        <ele>944.6</ele>
        <time>2021-09-30T12:42:36Z</time>
      </trkpt>
      <trkpt lat="42.4015330" lon="-3.3007950">
        <ele>942.6</ele>
        <time>2021-09-30T12:42:38Z</time>
      </trkpt>
      <trkpt lat="42.4015050" lon="-3.3008620">
        <ele>941.6</ele>
        <time>2021-09-30T12:42:39Z</time>
      </trkpt>
      <trkpt lat="42.4014690" lon="-3.3009230">
        <ele>941.0</ele>
        <time>2021-09-30T12:42:40Z</time>
      </trkpt>
      <trkpt lat="42.4013260" lon="-3.3010330">
        <ele>939.8</ele>
        <time>2021-09-30T12:42:43Z</time>
      </trkpt>
      <trkpt lat="42.4012770" lon="-3.3010550">
        <ele>939.0</ele>
        <time>2021-09-30T12:42:44Z</time>
      </trkpt>
      <trkpt lat="42.4012280" lon="-3.3010780">
        <ele>938.4</ele>
        <time>2021-09-30T12:42:45Z</time>
      </trkpt>
      <trkpt lat="42.4010340" lon="-3.3011570">
        <ele>937.8</ele>
        <time>2021-09-30T12:42:49Z</time>
      </trkpt>
      <trkpt lat="42.4008850" lon="-3.3012140">
        <ele>937.8</ele>
        <time>2021-09-30T12:42:52Z</time>
      </trkpt>
      <trkpt lat="42.4007290" lon="-3.3012730">
        <ele>937.8</ele>
        <time>2021-09-30T12:42:55Z</time>
      </trkpt>
      <trkpt lat="42.4005690" lon="-3.3013350">
        <ele>938.0</ele>
        <time>2021-09-30T12:42:58Z</time>
      </trkpt>
      <trkpt lat="42.4004590" lon="-3.3013780">
        <ele>938.2</ele>
        <time>2021-09-30T12:43:00Z</time>
      </trkpt>
      <trkpt lat="42.4002360" lon="-3.3014660">
        <ele>938.6</ele>
        <time>2021-09-30T12:43:04Z</time>
      </trkpt>
      <trkpt lat="42.3999480" lon="-3.3015630">
        <ele>939.2</ele>
        <time>2021-09-30T12:43:09Z</time>
      </trkpt>
      <trkpt lat="42.3996750" lon="-3.3016730">
        <ele>939.8</ele>
        <time>2021-09-30T12:43:14Z</time>
      </trkpt>
      <trkpt lat="42.3991280" lon="-3.3019090">
        <ele>940.4</ele>
        <time>2021-09-30T12:43:24Z</time>
      </trkpt>
      <trkpt lat="42.3988960" lon="-3.3020160">
        <ele>940.8</ele>
        <time>2021-09-30T12:43:28Z</time>
      </trkpt>
      <trkpt lat="42.3986020" lon="-3.3021400">
        <ele>941.0</ele>
        <time>2021-09-30T12:43:33Z</time>
      </trkpt>
      <trkpt lat="42.3980300" lon="-3.3023590">
        <ele>941.8</ele>
        <time>2021-09-30T12:43:43Z</time>
      </trkpt>
      <trkpt lat="42.3979740" lon="-3.3023820">
        <ele>941.8</ele>
        <time>2021-09-30T12:43:44Z</time>
      </trkpt>
      <trkpt lat="42.3974110" lon="-3.3026130">
        <ele>942.8</ele>
        <time>2021-09-30T12:43:54Z</time>
      </trkpt>
      <trkpt lat="42.3970280" lon="-3.3027680">
        <ele>944.0</ele>
        <time>2021-09-30T12:44:01Z</time>
      </trkpt>
      <trkpt lat="42.3967160" lon="-3.3028960">
        <ele>944.8</ele>
        <time>2021-09-30T12:44:07Z</time>
      </trkpt>
      <trkpt lat="42.3965550" lon="-3.3029100">
        <ele>945.2</ele>
        <time>2021-09-30T12:44:10Z</time>
      </trkpt>
      <trkpt lat="42.3965020" lon="-3.3029030">
        <ele>945.4</ele>
        <time>2021-09-30T12:44:11Z</time>
      </trkpt>
      <trkpt lat="42.3961820" lon="-3.3026830">
        <ele>946.0</ele>
        <time>2021-09-30T12:44:18Z</time>
      </trkpt>
      <trkpt lat="42.3959390" lon="-3.3023890">
        <ele>946.2</ele>
        <time>2021-09-30T12:44:25Z</time>
      </trkpt>
      <trkpt lat="42.3958200" lon="-3.3022620">
        <ele>946.4</ele>
        <time>2021-09-30T12:44:29Z</time>
      </trkpt>
      <trkpt lat="42.3957920" lon="-3.3022510">
        <ele>947.2</ele>
        <time>2021-09-30T12:44:30Z</time>
      </trkpt>
      <trkpt lat="42.3957630" lon="-3.3022560">
        <ele>947.8</ele>
        <time>2021-09-30T12:44:31Z</time>
      </trkpt>
      <trkpt lat="42.3956670" lon="-3.3023120">
        <ele>949.0</ele>
        <time>2021-09-30T12:44:34Z</time>
      </trkpt>
      <trkpt lat="42.3955990" lon="-3.3023650">
        <ele>950.0</ele>
        <time>2021-09-30T12:44:36Z</time>
      </trkpt>
      <trkpt lat="42.3955630" lon="-3.3023970">
        <ele>950.2</ele>
        <time>2021-09-30T12:44:37Z</time>
      </trkpt>
      <trkpt lat="42.3954190" lon="-3.3025290">
        <ele>951.4</ele>
        <time>2021-09-30T12:44:41Z</time>
      </trkpt>
      <trkpt lat="42.3952270" lon="-3.3026960">
        <ele>951.6</ele>
        <time>2021-09-30T12:44:47Z</time>
      </trkpt>
      <trkpt lat="42.3950500" lon="-3.3028500">
        <ele>951.8</ele>
        <time>2021-09-30T12:44:55Z</time>
      </trkpt>
      <trkpt lat="42.3950340" lon="-3.3028550">
        <ele>951.8</ele>
        <time>2021-09-30T12:44:58Z</time>
      </trkpt>
      <trkpt lat="42.3930460" lon="-3.3044810">
        <ele>952.8</ele>
        <time>2021-09-30T12:47:39Z</time>
      </trkpt>
      <trkpt lat="42.3930010" lon="-3.3045190">
        <ele>952.8</ele>
        <time>2021-09-30T12:47:40Z</time>
      </trkpt>
      <trkpt lat="42.3925370" lon="-3.3049040">
        <ele>953.2</ele>
        <time>2021-09-30T12:47:50Z</time>
      </trkpt>
      <trkpt lat="42.3923110" lon="-3.3050940">
        <ele>953.4</ele>
        <time>2021-09-30T12:47:55Z</time>
      </trkpt>
      <trkpt lat="42.3921900" lon="-3.3052010">
        <ele>953.6</ele>
        <time>2021-09-30T12:47:58Z</time>
      </trkpt>
      <trkpt lat="42.3920090" lon="-3.3054580">
        <ele>953.6</ele>
        <time>2021-09-30T12:48:03Z</time>
      </trkpt>
      <trkpt lat="42.3918320" lon="-3.3057110">
        <ele>953.6</ele>
        <time>2021-09-30T12:48:07Z</time>
      </trkpt>
      <trkpt lat="42.3917150" lon="-3.3059040">
        <ele>953.0</ele>
        <time>2021-09-30T12:48:10Z</time>
      </trkpt>
      <trkpt lat="42.3916760" lon="-3.3059610">
        <ele>952.2</ele>
        <time>2021-09-30T12:48:11Z</time>
      </trkpt>
      <trkpt lat="42.3916370" lon="-3.3060120">
        <ele>951.2</ele>
        <time>2021-09-30T12:48:12Z</time>
      </trkpt>
      <trkpt lat="42.3915610" lon="-3.3061170">
        <ele>949.8</ele>
        <time>2021-09-30T12:48:14Z</time>
      </trkpt>
      <trkpt lat="42.3914460" lon="-3.3062630">
        <ele>948.8</ele>
        <time>2021-09-30T12:48:17Z</time>
      </trkpt>
      <trkpt lat="42.3914140" lon="-3.3063100">
        <ele>948.4</ele>
        <time>2021-09-30T12:48:18Z</time>
      </trkpt>
      <trkpt lat="42.3912640" lon="-3.3065150">
        <ele>948.2</ele>
        <time>2021-09-30T12:48:25Z</time>
      </trkpt>
      <trkpt lat="42.3911670" lon="-3.3065630">
        <ele>948.4</ele>
        <time>2021-09-30T12:48:28Z</time>
      </trkpt>
      <trkpt lat="42.3911110" lon="-3.3066250">
        <ele>948.6</ele>
        <time>2021-09-30T12:48:30Z</time>
      </trkpt>
      <trkpt lat="42.3910860" lon="-3.3066650">
        <ele>948.6</ele>
        <time>2021-09-30T12:48:31Z</time>
      </trkpt>
      <trkpt lat="42.3909850" lon="-3.3068370">
        <ele>948.8</ele>
        <time>2021-09-30T12:48:35Z</time>
      </trkpt>
      <trkpt lat="42.3908980" lon="-3.3069800">
        <ele>948.8</ele>
        <time>2021-09-30T12:48:38Z</time>
      </trkpt>
      <trkpt lat="42.3907870" lon="-3.3071540">
        <ele>949.2</ele>
        <time>2021-09-30T12:48:42Z</time>
      </trkpt>
      <trkpt lat="42.3906600" lon="-3.3073470">
        <ele>949.8</ele>
        <time>2021-09-30T12:48:47Z</time>
      </trkpt>
      <trkpt lat="42.3906100" lon="-3.3075030">
        <ele>951.2</ele>
        <time>2021-09-30T12:48:51Z</time>
      </trkpt>
      <trkpt lat="42.3905880" lon="-3.3075800">
        <ele>951.6</ele>
        <time>2021-09-30T12:48:53Z</time>
      </trkpt>
      <trkpt lat="42.3905160" lon="-3.3076700">
        <ele>952.2</ele>
        <time>2021-09-30T12:48:56Z</time>
      </trkpt>
      <trkpt lat="42.3904470" lon="-3.3078150">
        <ele>953.4</ele>
        <time>2021-09-30T12:49:00Z</time>
      </trkpt>
      <trkpt lat="42.3904230" lon="-3.3078430">
        <ele>953.4</ele>
        <time>2021-09-30T12:49:01Z</time>
      </trkpt>
      <trkpt lat="42.3902460" lon="-3.3079610">
        <ele>954.0</ele>
        <time>2021-09-30T12:49:08Z</time>
      </trkpt>
      <trkpt lat="42.3901250" lon="-3.3080400">
        <ele>954.4</ele>
        <time>2021-09-30T12:49:12Z</time>
      </trkpt>
      <trkpt lat="42.3896090" lon="-3.3083730">
        <ele>955.6</ele>
        <time>2021-09-30T12:49:28Z</time>
      </trkpt>
      <trkpt lat="42.3893160" lon="-3.3085890">
        <ele>957.0</ele>
        <time>2021-09-30T12:49:37Z</time>
      </trkpt>
      <trkpt lat="42.3891640" lon="-3.3086520">
        <ele>958.0</ele>
        <time>2021-09-30T12:49:41Z</time>
      </trkpt>
      <trkpt lat="42.3890490" lon="-3.3087550">
        <ele>959.0</ele>
        <time>2021-09-30T12:49:45Z</time>
      </trkpt>
      <trkpt lat="42.3889380" lon="-3.3089430">
        <ele>959.8</ele>
        <time>2021-09-30T12:49:51Z</time>
      </trkpt>
      <trkpt lat="42.3889210" lon="-3.3089740">
        <ele>960.0</ele>
        <time>2021-09-30T12:49:52Z</time>
      </trkpt>
      <trkpt lat="42.3888630" lon="-3.3090950">
        <ele>961.4</ele>
        <time>2021-09-30T12:49:56Z</time>
      </trkpt>
      <trkpt lat="42.3888160" lon="-3.3092070">
        <ele>962.6</ele>
        <time>2021-09-30T12:50:00Z</time>
      </trkpt>
      <trkpt lat="42.3887580" lon="-3.3092890">
        <ele>963.6</ele>
        <time>2021-09-30T12:50:04Z</time>
      </trkpt>
      <trkpt lat="42.3886730" lon="-3.3093250">
        <ele>964.6</ele>
        <time>2021-09-30T12:50:08Z</time>
      </trkpt>
      <trkpt lat="42.3885720" lon="-3.3093930">
        <ele>965.6</ele>
        <time>2021-09-30T12:50:13Z</time>
      </trkpt>
      <trkpt lat="42.3885050" lon="-3.3094460">
        <ele>966.8</ele>
        <time>2021-09-30T12:50:16Z</time>
      </trkpt>
      <trkpt lat="42.3884250" lon="-3.3094940">
        <ele>968.0</ele>
        <time>2021-09-30T12:50:20Z</time>
      </trkpt>
      <trkpt lat="42.3883700" lon="-3.3095340">
        <ele>969.2</ele>
        <time>2021-09-30T12:50:23Z</time>
      </trkpt>
      <trkpt lat="42.3883150" lon="-3.3095690">
        <ele>970.4</ele>
        <time>2021-09-30T12:50:26Z</time>
      </trkpt>
      <trkpt lat="42.3882650" lon="-3.3096080">
        <ele>971.6</ele>
        <time>2021-09-30T12:50:29Z</time>
      </trkpt>
      <trkpt lat="42.3882050" lon="-3.3096710">
        <ele>972.6</ele>
        <time>2021-09-30T12:50:33Z</time>
      </trkpt>
      <trkpt lat="42.3881530" lon="-3.3097370">
        <ele>974.0</ele>
        <time>2021-09-30T12:50:37Z</time>
      </trkpt>
      <trkpt lat="42.3881660" lon="-3.3097790">
        <ele>975.0</ele>
        <time>2021-09-30T12:50:41Z</time>
      </trkpt>
      <trkpt lat="42.3881760" lon="-3.3097760">
        <ele>975.8</ele>
        <time>2021-09-30T12:50:44Z</time>
      </trkpt>
      <trkpt lat="42.3881000" lon="-3.3099650">
        <ele>977.8</ele>
        <time>2021-09-30T12:55:45Z</time>
      </trkpt>
      <trkpt lat="42.3881060" lon="-3.3099870">
        <ele>978.0</ele>
        <time>2021-09-30T12:55:46Z</time>
      </trkpt>
      <trkpt lat="42.3881450" lon="-3.3100660">
        <ele>978.8</ele>
        <time>2021-09-30T12:55:50Z</time>
      </trkpt>
      <trkpt lat="42.3881590" lon="-3.3100830">
        <ele>979.0</ele>
        <time>2021-09-30T12:55:51Z</time>
      </trkpt>
      <trkpt lat="42.3882020" lon="-3.3101630">
        <ele>979.8</ele>
        <time>2021-09-30T12:55:55Z</time>
      </trkpt>
      <trkpt lat="42.3882140" lon="-3.3101830">
        <ele>980.2</ele>
        <time>2021-09-30T12:55:56Z</time>
      </trkpt>
      <trkpt lat="42.3882460" lon="-3.3102120">
        <ele>981.2</ele>
        <time>2021-09-30T12:55:58Z</time>
      </trkpt>
      <trkpt lat="42.3883090" lon="-3.3102690">
        <ele>982.2</ele>
        <time>2021-09-30T12:56:02Z</time>
      </trkpt>
      <trkpt lat="42.3883420" lon="-3.3103280">
        <ele>983.6</ele>
        <time>2021-09-30T12:56:05Z</time>
      </trkpt>
      <trkpt lat="42.3883450" lon="-3.3103920">
        <ele>984.6</ele>
        <time>2021-09-30T12:56:08Z</time>
      </trkpt>
      <trkpt lat="42.3883110" lon="-3.3104960">
        <ele>986.0</ele>
        <time>2021-09-30T12:56:13Z</time>
      </trkpt>
      <trkpt lat="42.3882570" lon="-3.3105830">
        <ele>987.0</ele>
        <time>2021-09-30T12:56:18Z</time>
      </trkpt>
      <trkpt lat="42.3881950" lon="-3.3106570">
        <ele>988.2</ele>
        <time>2021-09-30T12:56:23Z</time>
      </trkpt>
      <trkpt lat="42.3881310" lon="-3.3107210">
        <ele>989.2</ele>
        <time>2021-09-30T12:56:28Z</time>
      </trkpt>
      <trkpt lat="42.3880620" lon="-3.3107790">
        <ele>990.2</ele>
        <time>2021-09-30T12:56:33Z</time>
      </trkpt>
      <trkpt lat="42.3879920" lon="-3.3108250">
        <ele>991.4</ele>
        <time>2021-09-30T12:56:38Z</time>
      </trkpt>
      <trkpt lat="42.3879370" lon="-3.3108670">
        <ele>992.4</ele>
        <time>2021-09-30T12:56:42Z</time>
      </trkpt>
      <trkpt lat="42.3878840" lon="-3.3109000">
        <ele>993.8</ele>
        <time>2021-09-30T12:56:46Z</time>
      </trkpt>
      <trkpt lat="42.3878490" lon="-3.3109320">
        <ele>995.0</ele>
        <time>2021-09-30T12:56:49Z</time>
      </trkpt>
      <trkpt lat="42.3878130" lon="-3.3109650">
        <ele>996.2</ele>
        <time>2021-09-30T12:56:52Z</time>
      </trkpt>
      <trkpt lat="42.3877610" lon="-3.3110090">
        <ele>997.2</ele>
        <time>2021-09-30T12:56:56Z</time>
      </trkpt>
      <trkpt lat="42.3877090" lon="-3.3110630">
        <ele>998.4</ele>
        <time>2021-09-30T12:57:00Z</time>
      </trkpt>
      <trkpt lat="42.3876630" lon="-3.3111510">
        <ele>999.6</ele>
        <time>2021-09-30T12:57:05Z</time>
      </trkpt>
      <trkpt lat="42.3876740" lon="-3.3112550">
        <ele>1000.6</ele>
        <time>2021-09-30T12:57:09Z</time>
      </trkpt>
      <trkpt lat="42.3877150" lon="-3.3113520">
        <ele>1002.0</ele>
        <time>2021-09-30T12:57:13Z</time>
      </trkpt>
      <trkpt lat="42.3878510" lon="-3.3116470">
        <ele>1003.0</ele>
        <time>2021-09-30T12:57:23Z</time>
      </trkpt>
      <trkpt lat="42.3879450" lon="-3.3118870">
        <ele>1003.4</ele>
        <time>2021-09-30T12:57:30Z</time>
      </trkpt>
      <trkpt lat="42.3880410" lon="-3.3122830">
        <ele>1004.0</ele>
        <time>2021-09-30T12:57:39Z</time>
      </trkpt>
      <trkpt lat="42.3881410" lon="-3.3126310">
        <ele>1005.0</ele>
        <time>2021-09-30T12:57:48Z</time>
      </trkpt>
      <trkpt lat="42.3881450" lon="-3.3126720">
        <ele>1005.2</ele>
        <time>2021-09-30T12:57:49Z</time>
      </trkpt>
      <trkpt lat="42.3881310" lon="-3.3129270">
        <ele>1006.4</ele>
        <time>2021-09-30T12:57:56Z</time>
      </trkpt>
      <trkpt lat="42.3880980" lon="-3.3130860">
        <ele>1007.4</ele>
        <time>2021-09-30T12:58:01Z</time>
      </trkpt>
      <trkpt lat="42.3880560" lon="-3.3132430">
        <ele>1008.6</ele>
        <time>2021-09-30T12:58:06Z</time>
      </trkpt>
      <trkpt lat="42.3880810" lon="-3.3134930">
        <ele>1009.2</ele>
        <time>2021-09-30T12:58:12Z</time>
      </trkpt>
      <trkpt lat="42.3881030" lon="-3.3135770">
        <ele>1009.8</ele>
        <time>2021-09-30T12:58:14Z</time>
      </trkpt>
      <trkpt lat="42.3881610" lon="-3.3137720">
        <ele>1011.0</ele>
        <time>2021-09-30T12:58:19Z</time>
      </trkpt>
      <trkpt lat="42.3881870" lon="-3.3138890">
        <ele>1012.0</ele>
        <time>2021-09-30T12:58:22Z</time>
      </trkpt>
      <trkpt lat="42.3882220" lon="-3.3140610">
        <ele>1013.2</ele>
        <time>2021-09-30T12:58:26Z</time>
      </trkpt>
      <trkpt lat="42.3882510" lon="-3.3142150">
        <ele>1014.2</ele>
        <time>2021-09-30T12:58:30Z</time>
      </trkpt>
      <trkpt lat="42.3882800" lon="-3.3143510">
        <ele>1015.2</ele>
        <time>2021-09-30T12:58:34Z</time>
      </trkpt>
      <trkpt lat="42.3883070" lon="-3.3144850">
        <ele>1016.2</ele>
        <time>2021-09-30T12:58:38Z</time>
      </trkpt>
      <trkpt lat="42.3883240" lon="-3.3146340">
        <ele>1017.2</ele>
        <time>2021-09-30T12:58:42Z</time>
      </trkpt>
      <trkpt lat="42.3883200" lon="-3.3146710">
        <ele>1017.6</ele>
        <time>2021-09-30T12:58:43Z</time>
      </trkpt>
      <trkpt lat="42.3883370" lon="-3.3147910">
        <ele>1018.6</ele>
        <time>2021-09-30T12:58:47Z</time>
      </trkpt>
      <trkpt lat="42.3883610" lon="-3.3149030">
        <ele>1019.8</ele>
        <time>2021-09-30T12:58:51Z</time>
      </trkpt>
      <trkpt lat="42.3883920" lon="-3.3149850">
        <ele>1020.8</ele>
        <time>2021-09-30T12:58:54Z</time>
      </trkpt>
      <trkpt lat="42.3884370" lon="-3.3150820">
        <ele>1022.0</ele>
        <time>2021-09-30T12:58:58Z</time>
      </trkpt>
      <trkpt lat="42.3884480" lon="-3.3151070">
        <ele>1022.4</ele>
        <time>2021-09-30T12:58:59Z</time>
      </trkpt>
      <trkpt lat="42.3884770" lon="-3.3151810">
        <ele>1023.2</ele>
        <time>2021-09-30T12:59:02Z</time>
      </trkpt>
      <trkpt lat="42.3885250" lon="-3.3152960">
        <ele>1024.4</ele>
        <time>2021-09-30T12:59:07Z</time>
      </trkpt>
      <trkpt lat="42.3885540" lon="-3.3153940">
        <ele>1026.0</ele>
        <time>2021-09-30T12:59:11Z</time>
      </trkpt>
      <trkpt lat="42.3885820" lon="-3.3154940">
        <ele>1027.0</ele>
        <time>2021-09-30T12:59:15Z</time>
      </trkpt>
      <trkpt lat="42.3886160" lon="-3.3156140">
        <ele>1028.0</ele>
        <time>2021-09-30T12:59:20Z</time>
      </trkpt>
      <trkpt lat="42.3886220" lon="-3.3156380">
        <ele>1028.2</ele>
        <time>2021-09-30T12:59:21Z</time>
      </trkpt>
      <trkpt lat="42.3886280" lon="-3.3156870">
        <ele>1029.4</ele>
        <time>2021-09-30T12:59:23Z</time>
      </trkpt>
      <trkpt lat="42.3886340" lon="-3.3157610">
        <ele>1030.4</ele>
        <time>2021-09-30T12:59:26Z</time>
      </trkpt>
      <trkpt lat="42.3886170" lon="-3.3158810">
        <ele>1031.4</ele>
        <time>2021-09-30T12:59:31Z</time>
      </trkpt>
      <trkpt lat="42.3885890" lon="-3.3159880">
        <ele>1032.6</ele>
        <time>2021-09-30T12:59:36Z</time>
      </trkpt>
      <trkpt lat="42.3885720" lon="-3.3160690">
        <ele>1033.8</ele>
        <time>2021-09-30T12:59:40Z</time>
      </trkpt>
      <trkpt lat="42.3885450" lon="-3.3161760">
        <ele>1035.0</ele>
        <time>2021-09-30T12:59:45Z</time>
      </trkpt>
      <trkpt lat="42.3885180" lon="-3.3162820">
        <ele>1035.8</ele>
        <time>2021-09-30T12:59:50Z</time>
      </trkpt>
      <trkpt lat="42.3885000" lon="-3.3163630">
        <ele>1036.8</ele>
        <time>2021-09-30T12:59:54Z</time>
      </trkpt>
      <trkpt lat="42.3884860" lon="-3.3164250">
        <ele>1038.0</ele>
        <time>2021-09-30T12:59:57Z</time>
      </trkpt>
      <trkpt lat="42.3884580" lon="-3.3165450">
        <ele>1039.2</ele>
        <time>2021-09-30T13:00:03Z</time>
      </trkpt>
      <trkpt lat="42.3884270" lon="-3.3166700">
        <ele>1040.2</ele>
        <time>2021-09-30T13:00:09Z</time>
      </trkpt>
      <trkpt lat="42.3884090" lon="-3.3167530">
        <ele>1041.6</ele>
        <time>2021-09-30T13:00:13Z</time>
      </trkpt>
      <trkpt lat="42.3883810" lon="-3.3168550">
        <ele>1042.8</ele>
        <time>2021-09-30T13:00:18Z</time>
      </trkpt>
      <trkpt lat="42.3883550" lon="-3.3169320">
        <ele>1043.8</ele>
        <time>2021-09-30T13:00:22Z</time>
      </trkpt>
      <trkpt lat="42.3883310" lon="-3.3170320">
        <ele>1045.0</ele>
        <time>2021-09-30T13:00:27Z</time>
      </trkpt>
      <trkpt lat="42.3883050" lon="-3.3171320">
        <ele>1046.4</ele>
        <time>2021-09-30T13:00:32Z</time>
      </trkpt>
      <trkpt lat="42.3882840" lon="-3.3172090">
        <ele>1047.6</ele>
        <time>2021-09-30T13:00:36Z</time>
      </trkpt>
      <trkpt lat="42.3882650" lon="-3.3172920">
        <ele>1048.6</ele>
        <time>2021-09-30T13:00:40Z</time>
      </trkpt>
      <trkpt lat="42.3882250" lon="-3.3173970">
        <ele>1050.0</ele>
        <time>2021-09-30T13:00:45Z</time>
      </trkpt>
      <trkpt lat="42.3882010" lon="-3.3174790">
        <ele>1051.0</ele>
        <time>2021-09-30T13:00:49Z</time>
      </trkpt>
      <trkpt lat="42.3881900" lon="-3.3175610">
        <ele>1052.2</ele>
        <time>2021-09-30T13:00:53Z</time>
      </trkpt>
      <trkpt lat="42.3881630" lon="-3.3176740">
        <ele>1053.2</ele>
        <time>2021-09-30T13:00:58Z</time>
      </trkpt>
      <trkpt lat="42.3881380" lon="-3.3177740">
        <ele>1054.4</ele>
        <time>2021-09-30T13:01:02Z</time>
      </trkpt>
      <trkpt lat="42.3881230" lon="-3.3178750">
        <ele>1055.6</ele>
        <time>2021-09-30T13:01:06Z</time>
      </trkpt>
      <trkpt lat="42.3881030" lon="-3.3180020">
        <ele>1056.6</ele>
        <time>2021-09-30T13:01:11Z</time>
      </trkpt>
      <trkpt lat="42.3880710" lon="-3.3181240">
        <ele>1057.8</ele>
        <time>2021-09-30T13:01:16Z</time>
      </trkpt>
      <trkpt lat="42.3880420" lon="-3.3182500">
        <ele>1058.8</ele>
        <time>2021-09-30T13:01:21Z</time>
      </trkpt>
      <trkpt lat="42.3880130" lon="-3.3183790">
        <ele>1060.0</ele>
        <time>2021-09-30T13:01:26Z</time>
      </trkpt>
      <trkpt lat="42.3879820" lon="-3.3185060">
        <ele>1061.2</ele>
        <time>2021-09-30T13:01:31Z</time>
      </trkpt>
      <trkpt lat="42.3879530" lon="-3.3186180">
        <ele>1062.2</ele>
        <time>2021-09-30T13:01:36Z</time>
      </trkpt>
      <trkpt lat="42.3879350" lon="-3.3187120">
        <ele>1063.4</ele>
        <time>2021-09-30T13:01:40Z</time>
      </trkpt>
      <trkpt lat="42.3878910" lon="-3.3188580">
        <ele>1064.4</ele>
        <time>2021-09-30T13:01:46Z</time>
      </trkpt>
      <trkpt lat="42.3878330" lon="-3.3189990">
        <ele>1065.6</ele>
        <time>2021-09-30T13:01:52Z</time>
      </trkpt>
      <trkpt lat="42.3877630" lon="-3.3191640">
        <ele>1066.8</ele>
        <time>2021-09-30T13:01:59Z</time>
      </trkpt>
      <trkpt lat="42.3877000" lon="-3.3193220">
        <ele>1067.8</ele>
        <time>2021-09-30T13:02:05Z</time>
      </trkpt>
      <trkpt lat="42.3876280" lon="-3.3195130">
        <ele>1068.8</ele>
        <time>2021-09-30T13:02:12Z</time>
      </trkpt>
      <trkpt lat="42.3875650" lon="-3.3196800">
        <ele>1070.2</ele>
        <time>2021-09-30T13:02:18Z</time>
      </trkpt>
      <trkpt lat="42.3874980" lon="-3.3198500">
        <ele>1071.2</ele>
        <time>2021-09-30T13:02:24Z</time>
      </trkpt>
      <trkpt lat="42.3874200" lon="-3.3200130">
        <ele>1072.4</ele>
        <time>2021-09-30T13:02:30Z</time>
      </trkpt>
      <trkpt lat="42.3873170" lon="-3.3202000">
        <ele>1073.8</ele>
        <time>2021-09-30T13:02:37Z</time>
      </trkpt>
      <trkpt lat="42.3872370" lon="-3.3203700">
        <ele>1074.8</ele>
        <time>2021-09-30T13:02:44Z</time>
      </trkpt>
      <trkpt lat="42.3871900" lon="-3.3205050">
        <ele>1076.0</ele>
        <time>2021-09-30T13:02:50Z</time>
      </trkpt>
      <trkpt lat="42.3871600" lon="-3.3206140">
        <ele>1077.0</ele>
        <time>2021-09-30T13:02:55Z</time>
      </trkpt>
      <trkpt lat="42.3871120" lon="-3.3207610">
        <ele>1078.2</ele>
        <time>2021-09-30T13:03:01Z</time>
      </trkpt>
      <trkpt lat="42.3870690" lon="-3.3209230">
        <ele>1079.2</ele>
        <time>2021-09-30T13:03:08Z</time>
      </trkpt>
      <trkpt lat="42.3870400" lon="-3.3210130">
        <ele>1080.0</ele>
        <time>2021-09-30T13:03:14Z</time>
      </trkpt>
      <trkpt lat="42.3869860" lon="-3.3212040">
        <ele>1082.2</ele>
        <time>2021-09-30T13:04:34Z</time>
      </trkpt>
      <trkpt lat="42.3869770" lon="-3.3212260">
        <ele>1082.2</ele>
        <time>2021-09-30T13:04:35Z</time>
      </trkpt>
      <trkpt lat="42.3869470" lon="-3.3213040">
        <ele>1082.6</ele>
        <time>2021-09-30T13:04:38Z</time>
      </trkpt>
      <trkpt lat="42.3869030" lon="-3.3214110">
        <ele>1083.0</ele>
        <time>2021-09-30T13:04:41Z</time>
      </trkpt>
      <trkpt lat="42.3868890" lon="-3.3214410">
        <ele>1083.2</ele>
        <time>2021-09-30T13:04:42Z</time>
      </trkpt>
      <trkpt lat="42.3868390" lon="-3.3215570">
        <ele>1084.2</ele>
        <time>2021-09-30T13:04:46Z</time>
      </trkpt>
      <trkpt lat="42.3867950" lon="-3.3216700">
        <ele>1085.2</ele>
        <time>2021-09-30T13:04:50Z</time>
      </trkpt>
      <trkpt lat="42.3867890" lon="-3.3216980">
        <ele>1085.4</ele>
        <time>2021-09-30T13:04:51Z</time>
      </trkpt>
      <trkpt lat="42.3867660" lon="-3.3218200">
        <ele>1086.6</ele>
        <time>2021-09-30T13:04:55Z</time>
      </trkpt>
      <trkpt lat="42.3867370" lon="-3.3219390">
        <ele>1087.8</ele>
        <time>2021-09-30T13:04:59Z</time>
      </trkpt>
      <trkpt lat="42.3867100" lon="-3.3220290">
        <ele>1089.0</ele>
        <time>2021-09-30T13:05:02Z</time>
      </trkpt>
      <trkpt lat="42.3866490" lon="-3.3221400">
        <ele>1090.0</ele>
        <time>2021-09-30T13:05:06Z</time>
      </trkpt>
      <trkpt lat="42.3864200" lon="-3.3223230">
        <ele>1090.6</ele>
        <time>2021-09-30T13:05:17Z</time>
      </trkpt>
      <trkpt lat="42.3863680" lon="-3.3225360">
        <ele>1090.8</ele>
        <time>2021-09-30T13:05:23Z</time>
      </trkpt>
      <trkpt lat="42.3862820" lon="-3.3228630">
        <ele>1091.2</ele>
        <time>2021-09-30T13:05:31Z</time>
      </trkpt>
      <trkpt lat="42.3862310" lon="-3.3232260">
        <ele>1092.2</ele>
        <time>2021-09-30T13:05:40Z</time>
      </trkpt>
      <trkpt lat="42.3862150" lon="-3.3234060">
        <ele>1093.4</ele>
        <time>2021-09-30T13:05:45Z</time>
      </trkpt>
      <trkpt lat="42.3861520" lon="-3.3237500">
        <ele>1094.4</ele>
        <time>2021-09-30T13:05:54Z</time>
      </trkpt>
      <trkpt lat="42.3861090" lon="-3.3239600">
        <ele>1095.4</ele>
        <time>2021-09-30T13:05:59Z</time>
      </trkpt>
      <trkpt lat="42.3860600" lon="-3.3241630">
        <ele>1096.6</ele>
        <time>2021-09-30T13:06:04Z</time>
      </trkpt>
      <trkpt lat="42.3859200" lon="-3.3247090">
        <ele>1097.4</ele>
        <time>2021-09-30T13:06:16Z</time>
      </trkpt>
      <trkpt lat="42.3858690" lon="-3.3249040">
        <ele>1097.4</ele>
        <time>2021-09-30T13:06:21Z</time>
      </trkpt>
      <trkpt lat="42.3858600" lon="-3.3249710">
        <ele>1097.6</ele>
        <time>2021-09-30T13:06:23Z</time>
      </trkpt>
      <trkpt lat="42.3858510" lon="-3.3250250">
        <ele>1097.6</ele>
        <time>2021-09-30T13:06:25Z</time>
      </trkpt>
      <trkpt lat="42.3856790" lon="-3.3252260">
        <ele>1098.2</ele>
        <time>2021-09-30T13:06:34Z</time>
      </trkpt>
      <trkpt lat="42.3856390" lon="-3.3252520">
        <ele>1098.6</ele>
        <time>2021-09-30T13:06:36Z</time>
      </trkpt>
      <trkpt lat="42.3855340" lon="-3.3252910">
        <ele>1100.0</ele>
        <time>2021-09-30T13:06:41Z</time>
      </trkpt>
      <trkpt lat="42.3854250" lon="-3.3253030">
        <ele>1101.0</ele>
        <time>2021-09-30T13:06:46Z</time>
      </trkpt>
      <trkpt lat="42.3853430" lon="-3.3252950">
        <ele>1102.4</ele>
        <time>2021-09-30T13:06:49Z</time>
      </trkpt>
      <trkpt lat="42.3852670" lon="-3.3252540">
        <ele>1103.4</ele>
        <time>2021-09-30T13:06:52Z</time>
      </trkpt>
      <trkpt lat="42.3851650" lon="-3.3252140">
        <ele>1104.6</ele>
        <time>2021-09-30T13:06:56Z</time>
      </trkpt>
      <trkpt lat="42.3850660" lon="-3.3251940">
        <ele>1105.8</ele>
        <time>2021-09-30T13:07:00Z</time>
      </trkpt>
      <trkpt lat="42.3849830" lon="-3.3251500">
        <ele>1106.8</ele>
        <time>2021-09-30T13:07:03Z</time>
      </trkpt>
      <trkpt lat="42.3848920" lon="-3.3250960">
        <ele>1108.0</ele>
        <time>2021-09-30T13:07:07Z</time>
      </trkpt>
      <trkpt lat="42.3848340" lon="-3.3250750">
        <ele>1109.2</ele>
        <time>2021-09-30T13:07:10Z</time>
      </trkpt>
      <trkpt lat="42.3847350" lon="-3.3250680">
        <ele>1110.4</ele>
        <time>2021-09-30T13:07:15Z</time>
      </trkpt>
      <trkpt lat="42.3846520" lon="-3.3250760">
        <ele>1111.6</ele>
        <time>2021-09-30T13:07:19Z</time>
      </trkpt>
      <trkpt lat="42.3845750" lon="-3.3251030">
        <ele>1112.8</ele>
        <time>2021-09-30T13:07:23Z</time>
      </trkpt>
      <trkpt lat="42.3844560" lon="-3.3251520">
        <ele>1113.8</ele>
        <time>2021-09-30T13:07:29Z</time>
      </trkpt>
      <trkpt lat="42.3843550" lon="-3.3251930">
        <ele>1115.0</ele>
        <time>2021-09-30T13:07:34Z</time>
      </trkpt>
      <trkpt lat="42.3842610" lon="-3.3252570">
        <ele>1116.0</ele>
        <time>2021-09-30T13:07:39Z</time>
      </trkpt>
      <trkpt lat="42.3841260" lon="-3.3253820">
        <ele>1117.0</ele>
        <time>2021-09-30T13:07:47Z</time>
      </trkpt>
      <trkpt lat="42.3841090" lon="-3.3253920">
        <ele>1117.0</ele>
        <time>2021-09-30T13:07:48Z</time>
      </trkpt>
      <trkpt lat="42.3839710" lon="-3.3255710">
        <ele>1118.2</ele>
        <time>2021-09-30T13:07:57Z</time>
      </trkpt>
      <trkpt lat="42.3839300" lon="-3.3256480">
        <ele>1118.8</ele>
        <time>2021-09-30T13:08:01Z</time>
      </trkpt>
      <trkpt lat="42.3839000" lon="-3.3257220">
        <ele>1119.4</ele>
        <time>2021-09-30T13:08:05Z</time>
      </trkpt>
      <trkpt lat="42.3838390" lon="-3.3258740">
        <ele>1120.6</ele>
        <time>2021-09-30T13:08:12Z</time>
      </trkpt>
      <trkpt lat="42.3837640" lon="-3.3259980">
        <ele>1121.6</ele>
        <time>2021-09-30T13:08:17Z</time>
      </trkpt>
      <trkpt lat="42.3836650" lon="-3.3261230">
        <ele>1122.6</ele>
        <time>2021-09-30T13:08:23Z</time>
      </trkpt>
      <trkpt lat="42.3835320" lon="-3.3262450">
        <ele>1123.8</ele>
        <time>2021-09-30T13:08:31Z</time>
      </trkpt>
      <trkpt lat="42.3834050" lon="-3.3263340">
        <ele>1124.8</ele>
        <time>2021-09-30T13:08:37Z</time>
      </trkpt>
      <trkpt lat="42.3832700" lon="-3.3264330">
        <ele>1125.8</ele>
        <time>2021-09-30T13:08:43Z</time>
      </trkpt>
      <trkpt lat="42.3831780" lon="-3.3265450">
        <ele>1127.0</ele>
        <time>2021-09-30T13:08:48Z</time>
      </trkpt>
      <trkpt lat="42.3830460" lon="-3.3266930">
        <ele>1127.8</ele>
        <time>2021-09-30T13:08:55Z</time>
      </trkpt>
      <trkpt lat="42.3829390" lon="-3.3268420">
        <ele>1129.2</ele>
        <time>2021-09-30T13:09:02Z</time>
      </trkpt>
      <trkpt lat="42.3828500" lon="-3.3269730">
        <ele>1130.4</ele>
        <time>2021-09-30T13:09:07Z</time>
      </trkpt>
      <trkpt lat="42.3827700" lon="-3.3271070">
        <ele>1131.6</ele>
        <time>2021-09-30T13:09:12Z</time>
      </trkpt>
      <trkpt lat="42.3826970" lon="-3.3272510">
        <ele>1132.6</ele>
        <time>2021-09-30T13:09:17Z</time>
      </trkpt>
      <trkpt lat="42.3826260" lon="-3.3274070">
        <ele>1133.6</ele>
        <time>2021-09-30T13:09:22Z</time>
      </trkpt>
      <trkpt lat="42.3825250" lon="-3.3275830">
        <ele>1134.8</ele>
        <time>2021-09-30T13:09:28Z</time>
      </trkpt>
      <trkpt lat="42.3824050" lon="-3.3277700">
        <ele>1136.0</ele>
        <time>2021-09-30T13:09:35Z</time>
      </trkpt>
      <trkpt lat="42.3822780" lon="-3.3279380">
        <ele>1136.8</ele>
        <time>2021-09-30T13:09:41Z</time>
      </trkpt>
      <trkpt lat="42.3822410" lon="-3.3279780">
        <ele>1137.2</ele>
        <time>2021-09-30T13:09:43Z</time>
      </trkpt>
      <trkpt lat="42.3821120" lon="-3.3281320">
        <ele>1138.0</ele>
        <time>2021-09-30T13:09:50Z</time>
      </trkpt>
      <trkpt lat="42.3819580" lon="-3.3283310">
        <ele>1138.8</ele>
        <time>2021-09-30T13:09:58Z</time>
      </trkpt>
      <trkpt lat="42.3819170" lon="-3.3283840">
        <ele>1139.0</ele>
        <time>2021-09-30T13:10:00Z</time>
      </trkpt>
      <trkpt lat="42.3818210" lon="-3.3285130">
        <ele>1139.6</ele>
        <time>2021-09-30T13:10:05Z</time>
      </trkpt>
      <trkpt lat="42.3817450" lon="-3.3286140">
        <ele>1140.0</ele>
        <time>2021-09-30T13:10:09Z</time>
      </trkpt>
      <trkpt lat="42.3816270" lon="-3.3287640">
        <ele>1141.2</ele>
        <time>2021-09-30T13:10:15Z</time>
      </trkpt>
      <trkpt lat="42.3813300" lon="-3.3290810">
        <ele>1142.4</ele>
        <time>2021-09-30T13:10:27Z</time>
      </trkpt>
      <trkpt lat="42.3811870" lon="-3.3291660">
        <ele>1142.4</ele>
        <time>2021-09-30T13:10:31Z</time>
      </trkpt>
      <trkpt lat="42.3809240" lon="-3.3293360">
        <ele>1142.2</ele>
        <time>2021-09-30T13:10:38Z</time>
      </trkpt>
      <trkpt lat="42.3806500" lon="-3.3296540">
        <ele>1142.0</ele>
        <time>2021-09-30T13:10:48Z</time>
      </trkpt>
      <trkpt lat="42.3804980" lon="-3.3298140">
        <ele>1142.6</ele>
        <time>2021-09-30T13:10:53Z</time>
      </trkpt>
      <trkpt lat="42.3803100" lon="-3.3299770">
        <ele>1143.4</ele>
        <time>2021-09-30T13:10:58Z</time>
      </trkpt>
      <trkpt lat="42.3801360" lon="-3.3301400">
        <ele>1144.8</ele>
        <time>2021-09-30T13:11:04Z</time>
      </trkpt>
      <trkpt lat="42.3800210" lon="-3.3302570">
        <ele>1146.0</ele>
        <time>2021-09-30T13:11:08Z</time>
      </trkpt>
      <trkpt lat="42.3798930" lon="-3.3304010">
        <ele>1147.2</ele>
        <time>2021-09-30T13:11:13Z</time>
      </trkpt>
      <trkpt lat="42.3797770" lon="-3.3305530">
        <ele>1148.4</ele>
        <time>2021-09-30T13:11:18Z</time>
      </trkpt>
      <trkpt lat="42.3796350" lon="-3.3307130">
        <ele>1149.8</ele>
        <time>2021-09-30T13:11:23Z</time>
      </trkpt>
      <trkpt lat="42.3795420" lon="-3.3308380">
        <ele>1150.8</ele>
        <time>2021-09-30T13:11:27Z</time>
      </trkpt>
      <trkpt lat="42.3794530" lon="-3.3309550">
        <ele>1151.8</ele>
        <time>2021-09-30T13:11:31Z</time>
      </trkpt>
      <trkpt lat="42.3793700" lon="-3.3310630">
        <ele>1152.8</ele>
        <time>2021-09-30T13:11:35Z</time>
      </trkpt>
      <trkpt lat="42.3791680" lon="-3.3313020">
        <ele>1154.2</ele>
        <time>2021-09-30T13:11:44Z</time>
      </trkpt>
      <trkpt lat="42.3789690" lon="-3.3315640">
        <ele>1155.2</ele>
        <time>2021-09-30T13:11:53Z</time>
      </trkpt>
      <trkpt lat="42.3787560" lon="-3.3318400">
        <ele>1156.2</ele>
        <time>2021-09-30T13:12:02Z</time>
      </trkpt>
      <trkpt lat="42.3784020" lon="-3.3321210">
        <ele>1157.2</ele>
        <time>2021-09-30T13:12:14Z</time>
      </trkpt>
      <trkpt lat="42.3780860" lon="-3.3324680">
        <ele>1158.4</ele>
        <time>2021-09-30T13:12:25Z</time>
      </trkpt>
      <trkpt lat="42.3779060" lon="-3.3327390">
        <ele>1158.6</ele>
        <time>2021-09-30T13:12:32Z</time>
      </trkpt>
      <trkpt lat="42.3776700" lon="-3.3331140">
        <ele>1159.4</ele>
        <time>2021-09-30T13:12:42Z</time>
      </trkpt>
      <trkpt lat="42.3775650" lon="-3.3333000">
        <ele>1160.0</ele>
        <time>2021-09-30T13:12:46Z</time>
      </trkpt>
      <trkpt lat="42.3774930" lon="-3.3334270">
        <ele>1160.0</ele>
        <time>2021-09-30T13:12:49Z</time>
      </trkpt>
      <trkpt lat="42.3773600" lon="-3.3336090">
        <ele>1160.4</ele>
        <time>2021-09-30T13:12:54Z</time>
      </trkpt>
      <trkpt lat="42.3772950" lon="-3.3337050">
        <ele>1160.4</ele>
        <time>2021-09-30T13:12:56Z</time>
      </trkpt>
      <trkpt lat="42.3770770" lon="-3.3340470">
        <ele>1160.8</ele>
        <time>2021-09-30T13:13:03Z</time>
      </trkpt>
      <trkpt lat="42.3767530" lon="-3.3345070">
        <ele>1161.4</ele>
        <time>2021-09-30T13:13:13Z</time>
      </trkpt>
      <trkpt lat="42.3766710" lon="-3.3346440">
        <ele>1161.6</ele>
        <time>2021-09-30T13:13:16Z</time>
      </trkpt>
      <trkpt lat="42.3765960" lon="-3.3347840">
        <ele>1161.6</ele>
        <time>2021-09-30T13:13:19Z</time>
      </trkpt>
      <trkpt lat="42.3765040" lon="-3.3349640">
        <ele>1161.6</ele>
        <time>2021-09-30T13:13:23Z</time>
      </trkpt>
      <trkpt lat="42.3764310" lon="-3.3350930">
        <ele>1162.0</ele>
        <time>2021-09-30T13:13:26Z</time>
      </trkpt>
      <trkpt lat="42.3763860" lon="-3.3351790">
        <ele>1162.6</ele>
        <time>2021-09-30T13:13:28Z</time>
      </trkpt>
      <trkpt lat="42.3761480" lon="-3.3355430">
        <ele>1163.6</ele>
        <time>2021-09-30T13:13:39Z</time>
      </trkpt>
      <trkpt lat="42.3760040" lon="-3.3356750">
        <ele>1164.8</ele>
        <time>2021-09-30T13:13:45Z</time>
      </trkpt>
      <trkpt lat="42.3758940" lon="-3.3357800">
        <ele>1166.0</ele>
        <time>2021-09-30T13:13:49Z</time>
      </trkpt>
      <trkpt lat="42.3757770" lon="-3.3358880">
        <ele>1167.4</ele>
        <time>2021-09-30T13:13:53Z</time>
      </trkpt>
      <trkpt lat="42.3756410" lon="-3.3360470">
        <ele>1168.4</ele>
        <time>2021-09-30T13:13:58Z</time>
      </trkpt>
      <trkpt lat="42.3754760" lon="-3.3362510">
        <ele>1168.8</ele>
        <time>2021-09-30T13:14:04Z</time>
      </trkpt>
      <trkpt lat="42.3750900" lon="-3.3366660">
        <ele>1168.4</ele>
        <time>2021-09-30T13:14:16Z</time>
      </trkpt>
      <trkpt lat="42.3749320" lon="-3.3368620">
        <ele>1168.6</ele>
        <time>2021-09-30T13:14:21Z</time>
      </trkpt>
      <trkpt lat="42.3748310" lon="-3.3369940">
        <ele>1168.6</ele>
        <time>2021-09-30T13:14:24Z</time>
      </trkpt>
      <trkpt lat="42.3747490" lon="-3.3371510">
        <ele>1168.6</ele>
        <time>2021-09-30T13:14:27Z</time>
      </trkpt>
      <trkpt lat="42.3746720" lon="-3.3373760">
        <ele>1168.4</ele>
        <time>2021-09-30T13:14:31Z</time>
      </trkpt>
      <trkpt lat="42.3746500" lon="-3.3374290">
        <ele>1168.4</ele>
        <time>2021-09-30T13:14:32Z</time>
      </trkpt>
      <trkpt lat="42.3745680" lon="-3.3375880">
        <ele>1168.4</ele>
        <time>2021-09-30T13:14:35Z</time>
      </trkpt>
      <trkpt lat="42.3745110" lon="-3.3376990">
        <ele>1168.2</ele>
        <time>2021-09-30T13:14:37Z</time>
      </trkpt>
      <trkpt lat="42.3744800" lon="-3.3378100">
        <ele>1168.2</ele>
        <time>2021-09-30T13:14:39Z</time>
      </trkpt>
      <trkpt lat="42.3744490" lon="-3.3379210">
        <ele>1168.0</ele>
        <time>2021-09-30T13:14:41Z</time>
      </trkpt>
      <trkpt lat="42.3743110" lon="-3.3382250">
        <ele>1167.8</ele>
        <time>2021-09-30T13:14:46Z</time>
      </trkpt>
      <trkpt lat="42.3741500" lon="-3.3386290">
        <ele>1167.6</ele>
        <time>2021-09-30T13:14:52Z</time>
      </trkpt>
      <trkpt lat="42.3740910" lon="-3.3387860">
        <ele>1166.6</ele>
        <time>2021-09-30T13:14:54Z</time>
      </trkpt>
      <trkpt lat="42.3740600" lon="-3.3388610">
        <ele>1166.2</ele>
        <time>2021-09-30T13:14:55Z</time>
      </trkpt>
      <trkpt lat="42.3739960" lon="-3.3390240">
        <ele>1165.2</ele>
        <time>2021-09-30T13:14:57Z</time>
      </trkpt>
      <trkpt lat="42.3739610" lon="-3.3391090">
        <ele>1165.0</ele>
        <time>2021-09-30T13:14:58Z</time>
      </trkpt>
      <trkpt lat="42.3738840" lon="-3.3392750">
        <ele>1164.4</ele>
        <time>2021-09-30T13:15:00Z</time>
      </trkpt>
      <trkpt lat="42.3738040" lon="-3.3394420">
        <ele>1163.8</ele>
        <time>2021-09-30T13:15:02Z</time>
      </trkpt>
      <trkpt lat="42.3735600" lon="-3.3400360">
        <ele>1163.0</ele>
        <time>2021-09-30T13:15:09Z</time>
      </trkpt>
      <trkpt lat="42.3735360" lon="-3.3401240">
        <ele>1162.8</ele>
        <time>2021-09-30T13:15:10Z</time>
      </trkpt>
      <trkpt lat="42.3734720" lon="-3.3402970">
        <ele>1162.2</ele>
        <time>2021-09-30T13:15:12Z</time>
      </trkpt>
      <trkpt lat="42.3734450" lon="-3.3403830">
        <ele>1162.0</ele>
        <time>2021-09-30T13:15:13Z</time>
      </trkpt>
      <trkpt lat="42.3733560" lon="-3.3406410">
        <ele>1161.8</ele>
        <time>2021-09-30T13:15:16Z</time>
      </trkpt>
      <trkpt lat="42.3731470" lon="-3.3412780">
        <ele>1161.8</ele>
        <time>2021-09-30T13:15:24Z</time>
      </trkpt>
      <trkpt lat="42.3730030" lon="-3.3416150">
        <ele>1162.0</ele>
        <time>2021-09-30T13:15:29Z</time>
      </trkpt>
      <trkpt lat="42.3729180" lon="-3.3418240">
        <ele>1162.2</ele>
        <time>2021-09-30T13:15:33Z</time>
      </trkpt>
      <trkpt lat="42.3728990" lon="-3.3419400">
        <ele>1162.6</ele>
        <time>2021-09-30T13:15:37Z</time>
      </trkpt>
      <trkpt lat="42.3729080" lon="-3.3419490">
        <ele>1162.8</ele>
        <time>2021-09-30T13:15:39Z</time>
      </trkpt>
      <trkpt lat="42.3728850" lon="-3.3420090">
        <ele>1164.8</ele>
        <time>2021-09-30T13:18:22Z</time>
      </trkpt>
      <trkpt lat="42.3728710" lon="-3.3420370">
        <ele>1164.8</ele>
        <time>2021-09-30T13:18:23Z</time>
      </trkpt>
      <trkpt lat="42.3728140" lon="-3.3421280">
        <ele>1164.8</ele>
        <time>2021-09-30T13:18:26Z</time>
      </trkpt>
      <trkpt lat="42.3726300" lon="-3.3424460">
        <ele>1163.8</ele>
        <time>2021-09-30T13:18:33Z</time>
      </trkpt>
      <trkpt lat="42.3724850" lon="-3.3427360">
        <ele>1162.6</ele>
        <time>2021-09-30T13:18:37Z</time>
      </trkpt>
      <trkpt lat="42.3724120" lon="-3.3428930">
        <ele>1161.2</ele>
        <time>2021-09-30T13:18:39Z</time>
      </trkpt>
      <trkpt lat="42.3723440" lon="-3.3430620">
        <ele>1159.4</ele>
        <time>2021-09-30T13:18:41Z</time>
      </trkpt>
      <trkpt lat="42.3722680" lon="-3.3432370">
        <ele>1157.6</ele>
        <time>2021-09-30T13:18:43Z</time>
      </trkpt>
      <trkpt lat="42.3722290" lon="-3.3433270">
        <ele>1156.6</ele>
        <time>2021-09-30T13:18:44Z</time>
      </trkpt>
      <trkpt lat="42.3721880" lon="-3.3434160">
        <ele>1155.6</ele>
        <time>2021-09-30T13:18:45Z</time>
      </trkpt>
      <trkpt lat="42.3721040" lon="-3.3435960">
        <ele>1153.8</ele>
        <time>2021-09-30T13:18:47Z</time>
      </trkpt>
      <trkpt lat="42.3720640" lon="-3.3436890">
        <ele>1151.6</ele>
        <time>2021-09-30T13:18:48Z</time>
      </trkpt>
      <trkpt lat="42.3720230" lon="-3.3437810">
        <ele>1150.4</ele>
        <time>2021-09-30T13:18:49Z</time>
      </trkpt>
      <trkpt lat="42.3719810" lon="-3.3438720">
        <ele>1149.0</ele>
        <time>2021-09-30T13:18:50Z</time>
      </trkpt>
      <trkpt lat="42.3719400" lon="-3.3439650">
        <ele>1147.8</ele>
        <time>2021-09-30T13:18:51Z</time>
      </trkpt>
      <trkpt lat="42.3718980" lon="-3.3440560">
        <ele>1146.6</ele>
        <time>2021-09-30T13:18:52Z</time>
      </trkpt>
      <trkpt lat="42.3718540" lon="-3.3441450">
        <ele>1145.4</ele>
        <time>2021-09-30T13:18:53Z</time>
      </trkpt>
      <trkpt lat="42.3718090" lon="-3.3442350">
        <ele>1144.0</ele>
        <time>2021-09-30T13:18:54Z</time>
      </trkpt>
      <trkpt lat="42.3717670" lon="-3.3443290">
        <ele>1143.0</ele>
        <time>2021-09-30T13:18:55Z</time>
      </trkpt>
      <trkpt lat="42.3716860" lon="-3.3445200">
        <ele>1141.6</ele>
        <time>2021-09-30T13:18:57Z</time>
      </trkpt>
      <trkpt lat="42.3716070" lon="-3.3447120">
        <ele>1139.6</ele>
        <time>2021-09-30T13:18:59Z</time>
      </trkpt>
      <trkpt lat="42.3715660" lon="-3.3448040">
        <ele>1138.2</ele>
        <time>2021-09-30T13:19:00Z</time>
      </trkpt>
      <trkpt lat="42.3715260" lon="-3.3448920">
        <ele>1137.2</ele>
        <time>2021-09-30T13:19:01Z</time>
      </trkpt>
      <trkpt lat="42.3714870" lon="-3.3449740">
        <ele>1136.0</ele>
        <time>2021-09-30T13:19:02Z</time>
      </trkpt>
      <trkpt lat="42.3714500" lon="-3.3450550">
        <ele>1134.4</ele>
        <time>2021-09-30T13:19:03Z</time>
      </trkpt>
      <trkpt lat="42.3713920" lon="-3.3452010">
        <ele>1132.8</ele>
        <time>2021-09-30T13:19:05Z</time>
      </trkpt>
      <trkpt lat="42.3713450" lon="-3.3453190">
        <ele>1131.2</ele>
        <time>2021-09-30T13:19:07Z</time>
      </trkpt>
      <trkpt lat="42.3713020" lon="-3.3454130">
        <ele>1130.0</ele>
        <time>2021-09-30T13:19:09Z</time>
      </trkpt>
      <trkpt lat="42.3712700" lon="-3.3454950">
        <ele>1128.2</ele>
        <time>2021-09-30T13:19:11Z</time>
      </trkpt>
      <trkpt lat="42.3712360" lon="-3.3456010">
        <ele>1127.0</ele>
        <time>2021-09-30T13:19:14Z</time>
      </trkpt>
      <trkpt lat="42.3712190" lon="-3.3456870">
        <ele>1126.0</ele>
        <time>2021-09-30T13:19:17Z</time>
      </trkpt>
      <trkpt lat="42.3712080" lon="-3.3457280">
        <ele>1124.8</ele>
        <time>2021-09-30T13:19:19Z</time>
      </trkpt>
      <trkpt lat="42.3711950" lon="-3.3457680">
        <ele>1123.8</ele>
        <time>2021-09-30T13:19:21Z</time>
      </trkpt>
      <trkpt lat="42.3711660" lon="-3.3458270">
        <ele>1122.6</ele>
        <time>2021-09-30T13:19:24Z</time>
      </trkpt>
      <trkpt lat="42.3711550" lon="-3.3458400">
        <ele>1122.4</ele>
        <time>2021-09-30T13:19:25Z</time>
      </trkpt>
      <trkpt lat="42.3711410" lon="-3.3458620">
        <ele>1121.8</ele>
        <time>2021-09-30T13:19:27Z</time>
      </trkpt>
      <trkpt lat="42.3710010" lon="-3.3461370">
        <ele>1123.8</ele>
        <time>2021-09-30T13:20:06Z</time>
      </trkpt>
      <trkpt lat="42.3709750" lon="-3.3461830">
        <ele>1124.0</ele>
        <time>2021-09-30T13:20:08Z</time>
      </trkpt>
      <trkpt lat="42.3709400" lon="-3.3462830">
        <ele>1124.8</ele>
        <time>2021-09-30T13:20:12Z</time>
      </trkpt>
      <trkpt lat="42.3709230" lon="-3.3463240">
        <ele>1125.4</ele>
        <time>2021-09-30T13:20:14Z</time>
      </trkpt>
      <trkpt lat="42.3709020" lon="-3.3463980">
        <ele>1126.4</ele>
        <time>2021-09-30T13:20:17Z</time>
      </trkpt>
      <trkpt lat="42.3708800" lon="-3.3464430">
        <ele>1127.4</ele>
        <time>2021-09-30T13:20:19Z</time>
      </trkpt>
      <trkpt lat="42.3708710" lon="-3.3464630">
        <ele>1127.8</ele>
        <time>2021-09-30T13:20:20Z</time>
      </trkpt>
      <trkpt lat="42.3708410" lon="-3.3465510">
        <ele>1129.2</ele>
        <time>2021-09-30T13:20:23Z</time>
      </trkpt>
      <trkpt lat="42.3708350" lon="-3.3465790">
        <ele>1129.6</ele>
        <time>2021-09-30T13:20:24Z</time>
      </trkpt>
      <trkpt lat="42.3708220" lon="-3.3466270">
        <ele>1130.6</ele>
        <time>2021-09-30T13:20:26Z</time>
      </trkpt>
      <trkpt lat="42.3707880" lon="-3.3467050">
        <ele>1131.8</ele>
        <time>2021-09-30T13:20:29Z</time>
      </trkpt>
      <trkpt lat="42.3707600" lon="-3.3467500">
        <ele>1132.8</ele>
        <time>2021-09-30T13:20:31Z</time>
      </trkpt>
      <trkpt lat="42.3707310" lon="-3.3468230">
        <ele>1134.0</ele>
        <time>2021-09-30T13:20:34Z</time>
      </trkpt>
      <trkpt lat="42.3706830" lon="-3.3469290">
        <ele>1135.4</ele>
        <time>2021-09-30T13:20:38Z</time>
      </trkpt>
      <trkpt lat="42.3706090" lon="-3.3470870">
        <ele>1136.4</ele>
        <time>2021-09-30T13:20:44Z</time>
      </trkpt>
      <trkpt lat="42.3704270" lon="-3.3474690">
        <ele>1137.0</ele>
        <time>2021-09-30T13:20:55Z</time>
      </trkpt>
      <trkpt lat="42.3701710" lon="-3.3478870">
        <ele>1137.2</ele>
        <time>2021-09-30T13:21:06Z</time>
      </trkpt>
      <trkpt lat="42.3700170" lon="-3.3481360">
        <ele>1137.6</ele>
        <time>2021-09-30T13:21:12Z</time>
      </trkpt>
      <trkpt lat="42.3698910" lon="-3.3482730">
        <ele>1137.6</ele>
        <time>2021-09-30T13:21:16Z</time>
      </trkpt>
      <trkpt lat="42.3695280" lon="-3.3484870">
        <ele>1138.2</ele>
        <time>2021-09-30T13:21:26Z</time>
      </trkpt>
      <trkpt lat="42.3693760" lon="-3.3485690">
        <ele>1138.8</ele>
        <time>2021-09-30T13:21:30Z</time>
      </trkpt>
      <trkpt lat="42.3692970" lon="-3.3486140">
        <ele>1139.0</ele>
        <time>2021-09-30T13:21:32Z</time>
      </trkpt>
      <trkpt lat="42.3691120" lon="-3.3487340">
        <ele>1139.8</ele>
        <time>2021-09-30T13:21:37Z</time>
      </trkpt>
      <trkpt lat="42.3689010" lon="-3.3489740">
        <ele>1141.0</ele>
        <time>2021-09-30T13:21:45Z</time>
      </trkpt>
      <trkpt lat="42.3687780" lon="-3.3491240">
        <ele>1142.0</ele>
        <time>2021-09-30T13:21:51Z</time>
      </trkpt>
      <trkpt lat="42.3686890" lon="-3.3492230">
        <ele>1143.2</ele>
        <time>2021-09-30T13:21:56Z</time>
      </trkpt>
      <trkpt lat="42.3686010" lon="-3.3493060">
        <ele>1144.4</ele>
        <time>2021-09-30T13:22:00Z</time>
      </trkpt>
      <trkpt lat="42.3685250" lon="-3.3493940">
        <ele>1145.4</ele>
        <time>2021-09-30T13:22:04Z</time>
      </trkpt>
      <trkpt lat="42.3684360" lon="-3.3494950">
        <ele>1146.4</ele>
        <time>2021-09-30T13:22:09Z</time>
      </trkpt>
      <trkpt lat="42.3683640" lon="-3.3495730">
        <ele>1148.2</ele>
        <time>2021-09-30T13:22:13Z</time>
      </trkpt>
      <trkpt lat="42.3682910" lon="-3.3496700">
        <ele>1149.4</ele>
        <time>2021-09-30T13:22:17Z</time>
      </trkpt>
      <trkpt lat="42.3682310" lon="-3.3497590">
        <ele>1150.4</ele>
        <time>2021-09-30T13:22:21Z</time>
      </trkpt>
      <trkpt lat="42.3681940" lon="-3.3498190">
        <ele>1151.4</ele>
        <time>2021-09-30T13:22:24Z</time>
      </trkpt>
      <trkpt lat="42.3681440" lon="-3.3499020">
        <ele>1152.6</ele>
        <time>2021-09-30T13:22:28Z</time>
      </trkpt>
      <trkpt lat="42.3680860" lon="-3.3499650">
        <ele>1154.0</ele>
        <time>2021-09-30T13:22:32Z</time>
      </trkpt>
      <trkpt lat="42.3680320" lon="-3.3500410">
        <ele>1155.0</ele>
        <time>2021-09-30T13:22:36Z</time>
      </trkpt>
      <trkpt lat="42.3679800" lon="-3.3501370">
        <ele>1156.0</ele>
        <time>2021-09-30T13:22:41Z</time>
      </trkpt>
      <trkpt lat="42.3679400" lon="-3.3502430">
        <ele>1157.0</ele>
        <time>2021-09-30T13:22:46Z</time>
      </trkpt>
      <trkpt lat="42.3678970" lon="-3.3503700">
        <ele>1158.2</ele>
        <time>2021-09-30T13:22:52Z</time>
      </trkpt>
      <trkpt lat="42.3678510" lon="-3.3505340">
        <ele>1159.4</ele>
        <time>2021-09-30T13:22:59Z</time>
      </trkpt>
      <trkpt lat="42.3677780" lon="-3.3507570">
        <ele>1160.6</ele>
        <time>2021-09-30T13:23:07Z</time>
      </trkpt>
      <trkpt lat="42.3676520" lon="-3.3510530">
        <ele>1161.6</ele>
        <time>2021-09-30T13:23:17Z</time>
      </trkpt>
      <trkpt lat="42.3675720" lon="-3.3512170">
        <ele>1162.8</ele>
        <time>2021-09-30T13:23:22Z</time>
      </trkpt>
      <trkpt lat="42.3675180" lon="-3.3513610">
        <ele>1163.8</ele>
        <time>2021-09-30T13:23:26Z</time>
      </trkpt>
      <trkpt lat="42.3674020" lon="-3.3516320">
        <ele>1164.8</ele>
        <time>2021-09-30T13:23:33Z</time>
      </trkpt>
      <trkpt lat="42.3673060" lon="-3.3518610">
        <ele>1165.0</ele>
        <time>2021-09-30T13:23:38Z</time>
      </trkpt>
      <trkpt lat="42.3672070" lon="-3.3521140">
        <ele>1164.8</ele>
        <time>2021-09-30T13:23:43Z</time>
      </trkpt>
      <trkpt lat="42.3670340" lon="-3.3524710">
        <ele>1164.4</ele>
        <time>2021-09-30T13:23:50Z</time>
      </trkpt>
      <trkpt lat="42.3669490" lon="-3.3526390">
        <ele>1163.8</ele>
        <time>2021-09-30T13:23:53Z</time>
      </trkpt>
      <trkpt lat="42.3669200" lon="-3.3526990">
        <ele>1163.8</ele>
        <time>2021-09-30T13:23:54Z</time>
      </trkpt>
      <trkpt lat="42.3668320" lon="-3.3528850">
        <ele>1163.0</ele>
        <time>2021-09-30T13:23:57Z</time>
      </trkpt>
      <trkpt lat="42.3667720" lon="-3.3530130">
        <ele>1162.6</ele>
        <time>2021-09-30T13:23:59Z</time>
      </trkpt>
      <trkpt lat="42.3667140" lon="-3.3531430">
        <ele>1162.4</ele>
        <time>2021-09-30T13:24:01Z</time>
      </trkpt>
      <trkpt lat="42.3666240" lon="-3.3533220">
        <ele>1161.4</ele>
        <time>2021-09-30T13:24:04Z</time>
      </trkpt>
      <trkpt lat="42.3664400" lon="-3.3538530">
        <ele>1160.2</ele>
        <time>2021-09-30T13:24:13Z</time>
      </trkpt>
      <trkpt lat="42.3664140" lon="-3.3542680">
        <ele>1160.6</ele>
        <time>2021-09-30T13:24:24Z</time>
      </trkpt>
      <trkpt lat="42.3664180" lon="-3.3543220">
        <ele>1160.6</ele>
        <time>2021-09-30T13:24:25Z</time>
      </trkpt>
      <trkpt lat="42.3664370" lon="-3.3544980">
        <ele>1160.6</ele>
        <time>2021-09-30T13:24:28Z</time>
      </trkpt>
      <trkpt lat="42.3664370" lon="-3.3545600">
        <ele>1160.8</ele>
        <time>2021-09-30T13:24:29Z</time>
      </trkpt>
      <trkpt lat="42.3664390" lon="-3.3547150">
        <ele>1160.8</ele>
        <time>2021-09-30T13:24:32Z</time>
      </trkpt>
      <trkpt lat="42.3664310" lon="-3.3549490">
        <ele>1161.4</ele>
        <time>2021-09-30T13:24:37Z</time>
      </trkpt>
      <trkpt lat="42.3664150" lon="-3.3550820">
        <ele>1162.6</ele>
        <time>2021-09-30T13:24:40Z</time>
      </trkpt>
      <trkpt lat="42.3663930" lon="-3.3552110">
        <ele>1163.6</ele>
        <time>2021-09-30T13:24:43Z</time>
      </trkpt>
      <trkpt lat="42.3663570" lon="-3.3554530">
        <ele>1164.8</ele>
        <time>2021-09-30T13:24:49Z</time>
      </trkpt>
      <trkpt lat="42.3663000" lon="-3.3556540">
        <ele>1166.0</ele>
        <time>2021-09-30T13:24:54Z</time>
      </trkpt>
      <trkpt lat="42.3662600" lon="-3.3559210">
        <ele>1167.0</ele>
        <time>2021-09-30T13:25:00Z</time>
      </trkpt>
      <trkpt lat="42.3661520" lon="-3.3565770">
        <ele>1168.0</ele>
        <time>2021-09-30T13:25:14Z</time>
      </trkpt>
      <trkpt lat="42.3660320" lon="-3.3569810">
        <ele>1168.6</ele>
        <time>2021-09-30T13:25:22Z</time>
      </trkpt>
      <trkpt lat="42.3659910" lon="-3.3573420">
        <ele>1168.8</ele>
        <time>2021-09-30T13:25:28Z</time>
      </trkpt>
      <trkpt lat="42.3659730" lon="-3.3575370">
        <ele>1168.8</ele>
        <time>2021-09-30T13:25:31Z</time>
      </trkpt>
      <trkpt lat="42.3659580" lon="-3.3577380">
        <ele>1168.8</ele>
        <time>2021-09-30T13:25:34Z</time>
      </trkpt>
      <trkpt lat="42.3659350" lon="-3.3579510">
        <ele>1168.4</ele>
        <time>2021-09-30T13:25:37Z</time>
      </trkpt>
      <trkpt lat="42.3659750" lon="-3.3586460">
        <ele>1167.8</ele>
        <time>2021-09-30T13:25:45Z</time>
      </trkpt>
      <trkpt lat="42.3660110" lon="-3.3589500">
        <ele>1167.0</ele>
        <time>2021-09-30T13:25:48Z</time>
      </trkpt>
      <trkpt lat="42.3660470" lon="-3.3592530">
        <ele>1165.0</ele>
        <time>2021-09-30T13:25:51Z</time>
      </trkpt>
      <trkpt lat="42.3660770" lon="-3.3594480">
        <ele>1163.2</ele>
        <time>2021-09-30T13:25:53Z</time>
      </trkpt>
      <trkpt lat="42.3660960" lon="-3.3596390">
        <ele>1162.2</ele>
        <time>2021-09-30T13:25:55Z</time>
      </trkpt>
      <trkpt lat="42.3661070" lon="-3.3599230">
        <ele>1161.2</ele>
        <time>2021-09-30T13:25:58Z</time>
      </trkpt>
      <trkpt lat="42.3661110" lon="-3.3600190">
        <ele>1160.6</ele>
        <time>2021-09-30T13:25:59Z</time>
      </trkpt>
      <trkpt lat="42.3661170" lon="-3.3603120">
        <ele>1159.8</ele>
        <time>2021-09-30T13:26:02Z</time>
      </trkpt>
      <trkpt lat="42.3661170" lon="-3.3604100">
        <ele>1159.6</ele>
        <time>2021-09-30T13:26:03Z</time>
      </trkpt>
      <trkpt lat="42.3661120" lon="-3.3611580">
        <ele>1159.2</ele>
        <time>2021-09-30T13:26:11Z</time>
      </trkpt>
      <trkpt lat="42.3661120" lon="-3.3619240">
        <ele>1159.6</ele>
        <time>2021-09-30T13:26:20Z</time>
      </trkpt>
      <trkpt lat="42.3660950" lon="-3.3626670">
        <ele>1160.2</ele>
        <time>2021-09-30T13:26:29Z</time>
      </trkpt>
      <trkpt lat="42.3661120" lon="-3.3634290">
        <ele>1159.8</ele>
        <time>2021-09-30T13:26:38Z</time>
      </trkpt>
      <trkpt lat="42.3661220" lon="-3.3636870">
        <ele>1159.6</ele>
        <time>2021-09-30T13:26:41Z</time>
      </trkpt>
      <trkpt lat="42.3662010" lon="-3.3644350">
        <ele>1158.6</ele>
        <time>2021-09-30T13:26:49Z</time>
      </trkpt>
      <trkpt lat="42.3662270" lon="-3.3646300">
        <ele>1158.2</ele>
        <time>2021-09-30T13:26:51Z</time>
      </trkpt>
      <trkpt lat="42.3662950" lon="-3.3650090">
        <ele>1157.2</ele>
        <time>2021-09-30T13:26:55Z</time>
      </trkpt>
      <trkpt lat="42.3663110" lon="-3.3651020">
        <ele>1157.0</ele>
        <time>2021-09-30T13:26:56Z</time>
      </trkpt>
      <trkpt lat="42.3664710" lon="-3.3658530">
        <ele>1156.6</ele>
        <time>2021-09-30T13:27:05Z</time>
      </trkpt>
      <trkpt lat="42.3664980" lon="-3.3659280">
        <ele>1156.6</ele>
        <time>2021-09-30T13:27:06Z</time>
      </trkpt>
      <trkpt lat="42.3665560" lon="-3.3660840">
        <ele>1156.8</ele>
        <time>2021-09-30T13:27:08Z</time>
      </trkpt>
      <trkpt lat="42.3666250" lon="-3.3664780">
        <ele>1157.0</ele>
        <time>2021-09-30T13:27:12Z</time>
      </trkpt>
      <trkpt lat="42.3666630" lon="-3.3666810">
        <ele>1157.0</ele>
        <time>2021-09-30T13:27:14Z</time>
      </trkpt>
      <trkpt lat="42.3667420" lon="-3.3669700">
        <ele>1157.0</ele>
        <time>2021-09-30T13:27:17Z</time>
      </trkpt>
      <trkpt lat="42.3668410" lon="-3.3672290">
        <ele>1155.4</ele>
        <time>2021-09-30T13:27:20Z</time>
      </trkpt>
      <trkpt lat="42.3669360" lon="-3.3675170">
        <ele>1154.2</ele>
        <time>2021-09-30T13:27:24Z</time>
      </trkpt>
      <trkpt lat="42.3670190" lon="-3.3678360">
        <ele>1153.4</ele>
        <time>2021-09-30T13:27:29Z</time>
      </trkpt>
      <trkpt lat="42.3671110" lon="-3.3680140">
        <ele>1153.4</ele>
        <time>2021-09-30T13:27:32Z</time>
      </trkpt>
      <trkpt lat="42.3671490" lon="-3.3680720">
        <ele>1153.2</ele>
        <time>2021-09-30T13:27:33Z</time>
      </trkpt>
      <trkpt lat="42.3671840" lon="-3.3681340">
        <ele>1153.0</ele>
        <time>2021-09-30T13:27:34Z</time>
      </trkpt>
      <trkpt lat="42.3672150" lon="-3.3682010">
        <ele>1153.0</ele>
        <time>2021-09-30T13:27:35Z</time>
      </trkpt>
      <trkpt lat="42.3672730" lon="-3.3683390">
        <ele>1153.0</ele>
        <time>2021-09-30T13:27:37Z</time>
      </trkpt>
      <trkpt lat="42.3673070" lon="-3.3684060">
        <ele>1153.0</ele>
        <time>2021-09-30T13:27:38Z</time>
      </trkpt>
      <trkpt lat="42.3673840" lon="-3.3685420">
        <ele>1153.2</ele>
        <time>2021-09-30T13:27:40Z</time>
      </trkpt>
      <trkpt lat="42.3678060" lon="-3.3690800">
        <ele>1152.6</ele>
        <time>2021-09-30T13:27:49Z</time>
      </trkpt>
      <trkpt lat="42.3678520" lon="-3.3691470">
        <ele>1152.6</ele>
        <time>2021-09-30T13:27:50Z</time>
      </trkpt>
      <trkpt lat="42.3679770" lon="-3.3693720">
        <ele>1152.4</ele>
        <time>2021-09-30T13:27:53Z</time>
      </trkpt>
      <trkpt lat="42.3680550" lon="-3.3695260">
        <ele>1151.8</ele>
        <time>2021-09-30T13:27:55Z</time>
      </trkpt>
      <trkpt lat="42.3682860" lon="-3.3700050">
        <ele>1150.6</ele>
        <time>2021-09-30T13:28:01Z</time>
      </trkpt>
      <trkpt lat="42.3685000" lon="-3.3704970">
        <ele>1149.6</ele>
        <time>2021-09-30T13:28:07Z</time>
      </trkpt>
      <trkpt lat="42.3686450" lon="-3.3708230">
        <ele>1148.6</ele>
        <time>2021-09-30T13:28:11Z</time>
      </trkpt>
      <trkpt lat="42.3686800" lon="-3.3709040">
        <ele>1148.4</ele>
        <time>2021-09-30T13:28:12Z</time>
      </trkpt>
      <trkpt lat="42.3687740" lon="-3.3711540">
        <ele>1148.4</ele>
        <time>2021-09-30T13:28:15Z</time>
      </trkpt>
      <trkpt lat="42.3689050" lon="-3.3719180">
        <ele>1148.0</ele>
        <time>2021-09-30T13:28:23Z</time>
      </trkpt>
      <trkpt lat="42.3689320" lon="-3.3721070">
        <ele>1147.2</ele>
        <time>2021-09-30T13:28:25Z</time>
      </trkpt>
      <trkpt lat="42.3689760" lon="-3.3726380">
        <ele>1146.4</ele>
        <time>2021-09-30T13:28:31Z</time>
      </trkpt>
      <trkpt lat="42.3689910" lon="-3.3727210">
        <ele>1146.2</ele>
        <time>2021-09-30T13:28:32Z</time>
      </trkpt>
      <trkpt lat="42.3690750" lon="-3.3731390">
        <ele>1145.8</ele>
        <time>2021-09-30T13:28:37Z</time>
      </trkpt>
      <trkpt lat="42.3690870" lon="-3.3732230">
        <ele>1145.8</ele>
        <time>2021-09-30T13:28:38Z</time>
      </trkpt>
      <trkpt lat="42.3691760" lon="-3.3737170">
        <ele>1145.8</ele>
        <time>2021-09-30T13:28:44Z</time>
      </trkpt>
      <trkpt lat="42.3694160" lon="-3.3742170">
        <ele>1145.2</ele>
        <time>2021-09-30T13:28:51Z</time>
      </trkpt>
      <trkpt lat="42.3694760" lon="-3.3743660">
        <ele>1145.2</ele>
        <time>2021-09-30T13:28:53Z</time>
      </trkpt>
      <trkpt lat="42.3695360" lon="-3.3746170">
        <ele>1145.0</ele>
        <time>2021-09-30T13:28:56Z</time>
      </trkpt>
      <trkpt lat="42.3695470" lon="-3.3746990">
        <ele>1144.8</ele>
        <time>2021-09-30T13:28:57Z</time>
      </trkpt>
      <trkpt lat="42.3695680" lon="-3.3749400">
        <ele>1144.4</ele>
        <time>2021-09-30T13:29:00Z</time>
      </trkpt>
      <trkpt lat="42.3695860" lon="-3.3750760">
        <ele>1143.8</ele>
        <time>2021-09-30T13:29:02Z</time>
      </trkpt>
      <trkpt lat="42.3696000" lon="-3.3752840">
        <ele>1142.8</ele>
        <time>2021-09-30T13:29:05Z</time>
      </trkpt>
      <trkpt lat="42.3696090" lon="-3.3754310">
        <ele>1142.6</ele>
        <time>2021-09-30T13:29:07Z</time>
      </trkpt>
      <trkpt lat="42.3696810" lon="-3.3757920">
        <ele>1142.2</ele>
        <time>2021-09-30T13:29:12Z</time>
      </trkpt>
      <trkpt lat="42.3697670" lon="-3.3762590">
        <ele>1142.0</ele>
        <time>2021-09-30T13:29:18Z</time>
      </trkpt>
      <trkpt lat="42.3697860" lon="-3.3764340">
        <ele>1141.8</ele>
        <time>2021-09-30T13:29:20Z</time>
      </trkpt>
      <trkpt lat="42.3698040" lon="-3.3766040">
        <ele>1141.8</ele>
        <time>2021-09-30T13:29:22Z</time>
      </trkpt>
      <trkpt lat="42.3698260" lon="-3.3768630">
        <ele>1141.2</ele>
        <time>2021-09-30T13:29:25Z</time>
      </trkpt>
      <trkpt lat="42.3698440" lon="-3.3771210">
        <ele>1140.6</ele>
        <time>2021-09-30T13:29:28Z</time>
      </trkpt>
      <trkpt lat="42.3698920" lon="-3.3776240">
        <ele>1140.2</ele>
        <time>2021-09-30T13:29:34Z</time>
      </trkpt>
      <trkpt lat="42.3699360" lon="-3.3783880">
        <ele>1140.0</ele>
        <time>2021-09-30T13:29:43Z</time>
      </trkpt>
      <trkpt lat="42.3699550" lon="-3.3787220">
        <ele>1139.4</ele>
        <time>2021-09-30T13:29:47Z</time>
      </trkpt>
      <trkpt lat="42.3700250" lon="-3.3792550">
        <ele>1139.0</ele>
        <time>2021-09-30T13:29:53Z</time>
      </trkpt>
      <trkpt lat="42.3701260" lon="-3.3796110">
        <ele>1138.8</ele>
        <time>2021-09-30T13:29:57Z</time>
      </trkpt>
      <trkpt lat="42.3701820" lon="-3.3797820">
        <ele>1138.2</ele>
        <time>2021-09-30T13:29:59Z</time>
      </trkpt>
      <trkpt lat="42.3702610" lon="-3.3800470">
        <ele>1136.8</ele>
        <time>2021-09-30T13:30:02Z</time>
      </trkpt>
      <trkpt lat="42.3703320" lon="-3.3803170">
        <ele>1135.8</ele>
        <time>2021-09-30T13:30:05Z</time>
      </trkpt>
      <trkpt lat="42.3703940" lon="-3.3805880">
        <ele>1135.4</ele>
        <time>2021-09-30T13:30:08Z</time>
      </trkpt>
      <trkpt lat="42.3704560" lon="-3.3808550">
        <ele>1134.6</ele>
        <time>2021-09-30T13:30:11Z</time>
      </trkpt>
      <trkpt lat="42.3705000" lon="-3.3810320">
        <ele>1133.4</ele>
        <time>2021-09-30T13:30:13Z</time>
      </trkpt>
      <trkpt lat="42.3707470" lon="-3.3817830">
        <ele>1132.8</ele>
        <time>2021-09-30T13:30:21Z</time>
      </trkpt>
      <trkpt lat="42.3708930" lon="-3.3821650">
        <ele>1132.2</ele>
        <time>2021-09-30T13:30:25Z</time>
      </trkpt>
      <trkpt lat="42.3710110" lon="-3.3824290">
        <ele>1131.2</ele>
        <time>2021-09-30T13:30:28Z</time>
      </trkpt>
      <trkpt lat="42.3711700" lon="-3.3828490">
        <ele>1130.0</ele>
        <time>2021-09-30T13:30:33Z</time>
      </trkpt>
      <trkpt lat="42.3712470" lon="-3.3830900">
        <ele>1129.6</ele>
        <time>2021-09-30T13:30:36Z</time>
      </trkpt>
      <trkpt lat="42.3713890" lon="-3.3835210">
        <ele>1129.0</ele>
        <time>2021-09-30T13:30:42Z</time>
      </trkpt>
      <trkpt lat="42.3715040" lon="-3.3838150">
        <ele>1129.0</ele>
        <time>2021-09-30T13:30:46Z</time>
      </trkpt>
      <trkpt lat="42.3716380" lon="-3.3842070">
        <ele>1128.6</ele>
        <time>2021-09-30T13:30:51Z</time>
      </trkpt>
      <trkpt lat="42.3717210" lon="-3.3844670">
        <ele>1128.4</ele>
        <time>2021-09-30T13:30:54Z</time>
      </trkpt>
      <trkpt lat="42.3718060" lon="-3.3847380">
        <ele>1128.4</ele>
        <time>2021-09-30T13:30:57Z</time>
      </trkpt>
      <trkpt lat="42.3720120" lon="-3.3853500">
        <ele>1128.2</ele>
        <time>2021-09-30T13:31:04Z</time>
      </trkpt>
      <trkpt lat="42.3722050" lon="-3.3859620">
        <ele>1128.0</ele>
        <time>2021-09-30T13:31:11Z</time>
      </trkpt>
      <trkpt lat="42.3724130" lon="-3.3865770">
        <ele>1126.8</ele>
        <time>2021-09-30T13:31:18Z</time>
      </trkpt>
      <trkpt lat="42.3725670" lon="-3.3870430">
        <ele>1126.0</ele>
        <time>2021-09-30T13:31:23Z</time>
      </trkpt>
      <trkpt lat="42.3725970" lon="-3.3871400">
        <ele>1125.6</ele>
        <time>2021-09-30T13:31:24Z</time>
      </trkpt>
      <trkpt lat="42.3726950" lon="-3.3874250">
        <ele>1124.6</ele>
        <time>2021-09-30T13:31:27Z</time>
      </trkpt>
      <trkpt lat="42.3727260" lon="-3.3875240">
        <ele>1124.2</ele>
        <time>2021-09-30T13:31:28Z</time>
      </trkpt>
      <trkpt lat="42.3728220" lon="-3.3878210">
        <ele>1123.4</ele>
        <time>2021-09-30T13:31:31Z</time>
      </trkpt>
      <trkpt lat="42.3728520" lon="-3.3879250">
        <ele>1123.0</ele>
        <time>2021-09-30T13:31:32Z</time>
      </trkpt>
      <trkpt lat="42.3729160" lon="-3.3881390">
        <ele>1122.2</ele>
        <time>2021-09-30T13:31:34Z</time>
      </trkpt>
      <trkpt lat="42.3729500" lon="-3.3882480">
        <ele>1121.8</ele>
        <time>2021-09-30T13:31:35Z</time>
      </trkpt>
      <trkpt lat="42.3730190" lon="-3.3884690">
        <ele>1120.6</ele>
        <time>2021-09-30T13:31:37Z</time>
      </trkpt>
      <trkpt lat="42.3731270" lon="-3.3887950">
        <ele>1119.4</ele>
        <time>2021-09-30T13:31:40Z</time>
      </trkpt>
      <trkpt lat="42.3732010" lon="-3.3890030">
        <ele>1118.2</ele>
        <time>2021-09-30T13:31:42Z</time>
      </trkpt>
      <trkpt lat="42.3732750" lon="-3.3892150">
        <ele>1116.8</ele>
        <time>2021-09-30T13:31:44Z</time>
      </trkpt>
      <trkpt lat="42.3734220" lon="-3.3896200">
        <ele>1115.2</ele>
        <time>2021-09-30T13:31:48Z</time>
      </trkpt>
      <trkpt lat="42.3735530" lon="-3.3899690">
        <ele>1114.2</ele>
        <time>2021-09-30T13:31:52Z</time>
      </trkpt>
      <trkpt lat="42.3736750" lon="-3.3903250">
        <ele>1114.2</ele>
        <time>2021-09-30T13:31:57Z</time>
      </trkpt>
      <trkpt lat="42.3737290" lon="-3.3904930">
        <ele>1114.0</ele>
        <time>2021-09-30T13:31:59Z</time>
      </trkpt>
      <trkpt lat="42.3737920" lon="-3.3906580">
        <ele>1114.0</ele>
        <time>2021-09-30T13:32:01Z</time>
      </trkpt>
      <trkpt lat="42.3740380" lon="-3.3913620">
        <ele>1114.0</ele>
        <time>2021-09-30T13:32:09Z</time>
      </trkpt>
      <trkpt lat="42.3741370" lon="-3.3917430">
        <ele>1112.8</ele>
        <time>2021-09-30T13:32:13Z</time>
      </trkpt>
      <trkpt lat="42.3741540" lon="-3.3918420">
        <ele>1112.2</ele>
        <time>2021-09-30T13:32:14Z</time>
      </trkpt>
      <trkpt lat="42.3741650" lon="-3.3919440">
        <ele>1111.8</ele>
        <time>2021-09-30T13:32:15Z</time>
      </trkpt>
      <trkpt lat="42.3741890" lon="-3.3922500">
        <ele>1110.6</ele>
        <time>2021-09-30T13:32:18Z</time>
      </trkpt>
      <trkpt lat="42.3742040" lon="-3.3930230">
        <ele>1110.0</ele>
        <time>2021-09-30T13:32:26Z</time>
      </trkpt>
      <trkpt lat="42.3742610" lon="-3.3937640">
        <ele>1109.8</ele>
        <time>2021-09-30T13:32:34Z</time>
      </trkpt>
      <trkpt lat="42.3742910" lon="-3.3940450">
        <ele>1109.6</ele>
        <time>2021-09-30T13:32:37Z</time>
      </trkpt>
      <trkpt lat="42.3744840" lon="-3.3947860">
        <ele>1108.8</ele>
        <time>2021-09-30T13:32:45Z</time>
      </trkpt>
      <trkpt lat="42.3745370" lon="-3.3949660">
        <ele>1108.2</ele>
        <time>2021-09-30T13:32:47Z</time>
      </trkpt>
      <trkpt lat="42.3745900" lon="-3.3951430">
        <ele>1107.6</ele>
        <time>2021-09-30T13:32:49Z</time>
      </trkpt>
      <trkpt lat="42.3746300" lon="-3.3953270">
        <ele>1107.0</ele>
        <time>2021-09-30T13:32:51Z</time>
      </trkpt>
      <trkpt lat="42.3746890" lon="-3.3956120">
        <ele>1106.0</ele>
        <time>2021-09-30T13:32:54Z</time>
      </trkpt>
      <trkpt lat="42.3747620" lon="-3.3959000">
        <ele>1105.6</ele>
        <time>2021-09-30T13:32:57Z</time>
      </trkpt>
      <trkpt lat="42.3748350" lon="-3.3961950">
        <ele>1105.6</ele>
        <time>2021-09-30T13:33:00Z</time>
      </trkpt>
      <trkpt lat="42.3748840" lon="-3.3963920">
        <ele>1105.6</ele>
        <time>2021-09-30T13:33:02Z</time>
      </trkpt>
      <trkpt lat="42.3749830" lon="-3.3969560">
        <ele>1106.2</ele>
        <time>2021-09-30T13:33:08Z</time>
      </trkpt>
      <trkpt lat="42.3750390" lon="-3.3973300">
        <ele>1106.4</ele>
        <time>2021-09-30T13:33:12Z</time>
      </trkpt>
      <trkpt lat="42.3752020" lon="-3.3980480">
        <ele>1106.0</ele>
        <time>2021-09-30T13:33:20Z</time>
      </trkpt>
      <trkpt lat="42.3752540" lon="-3.3983070">
        <ele>1104.8</ele>
        <time>2021-09-30T13:33:23Z</time>
      </trkpt>
      <trkpt lat="42.3753950" lon="-3.3990320">
        <ele>1104.0</ele>
        <time>2021-09-30T13:33:31Z</time>
      </trkpt>
      <trkpt lat="42.3754610" lon="-3.3994500">
        <ele>1104.0</ele>
        <time>2021-09-30T13:33:35Z</time>
      </trkpt>
      <trkpt lat="42.3755160" lon="-3.3997690">
        <ele>1103.0</ele>
        <time>2021-09-30T13:33:38Z</time>
      </trkpt>
      <trkpt lat="42.3756390" lon="-3.4005000">
        <ele>1101.8</ele>
        <time>2021-09-30T13:33:45Z</time>
      </trkpt>
      <trkpt lat="42.3756900" lon="-3.4007970">
        <ele>1100.6</ele>
        <time>2021-09-30T13:33:48Z</time>
      </trkpt>
      <trkpt lat="42.3758330" lon="-3.4015740">
        <ele>1100.0</ele>
        <time>2021-09-30T13:33:56Z</time>
      </trkpt>
      <trkpt lat="42.3759410" lon="-3.4021370">
        <ele>1099.6</ele>
        <time>2021-09-30T13:34:02Z</time>
      </trkpt>
      <trkpt lat="42.3760140" lon="-3.4024970">
        <ele>1099.2</ele>
        <time>2021-09-30T13:34:06Z</time>
      </trkpt>
      <trkpt lat="42.3761340" lon="-3.4031170">
        <ele>1099.4</ele>
        <time>2021-09-30T13:34:13Z</time>
      </trkpt>
      <trkpt lat="42.3761890" lon="-3.4033840">
        <ele>1099.6</ele>
        <time>2021-09-30T13:34:16Z</time>
      </trkpt>
      <trkpt lat="42.3762700" lon="-3.4038410">
        <ele>1099.6</ele>
        <time>2021-09-30T13:34:21Z</time>
      </trkpt>
      <trkpt lat="42.3764020" lon="-3.4045790">
        <ele>1099.4</ele>
        <time>2021-09-30T13:34:29Z</time>
      </trkpt>
      <trkpt lat="42.3764440" lon="-3.4048550">
        <ele>1098.4</ele>
        <time>2021-09-30T13:34:32Z</time>
      </trkpt>
      <trkpt lat="42.3765160" lon="-3.4053340">
        <ele>1097.4</ele>
        <time>2021-09-30T13:34:37Z</time>
      </trkpt>
      <trkpt lat="42.3766320" lon="-3.4061220">
        <ele>1096.2</ele>
        <time>2021-09-30T13:34:45Z</time>
      </trkpt>
      <trkpt lat="42.3767070" lon="-3.4066140">
        <ele>1095.2</ele>
        <time>2021-09-30T13:34:50Z</time>
      </trkpt>
      <trkpt lat="42.3767920" lon="-3.4071990">
        <ele>1094.0</ele>
        <time>2021-09-30T13:34:56Z</time>
      </trkpt>
      <trkpt lat="42.3769030" lon="-3.4079570">
        <ele>1093.2</ele>
        <time>2021-09-30T13:35:04Z</time>
      </trkpt>
      <trkpt lat="42.3769330" lon="-3.4081420">
        <ele>1093.0</ele>
        <time>2021-09-30T13:35:06Z</time>
      </trkpt>
      <trkpt lat="42.3770450" lon="-3.4088770">
        <ele>1092.0</ele>
        <time>2021-09-30T13:35:14Z</time>
      </trkpt>
      <trkpt lat="42.3770600" lon="-3.4089710">
        <ele>1091.6</ele>
        <time>2021-09-30T13:35:15Z</time>
      </trkpt>
      <trkpt lat="42.3771120" lon="-3.4092510">
        <ele>1091.2</ele>
        <time>2021-09-30T13:35:18Z</time>
      </trkpt>
      <trkpt lat="42.3771520" lon="-3.4094360">
        <ele>1090.6</ele>
        <time>2021-09-30T13:35:20Z</time>
      </trkpt>
      <trkpt lat="42.3772350" lon="-3.4098800">
        <ele>1089.6</ele>
        <time>2021-09-30T13:35:25Z</time>
      </trkpt>
      <trkpt lat="42.3773170" lon="-3.4102450">
        <ele>1088.4</ele>
        <time>2021-09-30T13:35:29Z</time>
      </trkpt>
      <trkpt lat="42.3773300" lon="-3.4104650">
        <ele>1087.6</ele>
        <time>2021-09-30T13:35:31Z</time>
      </trkpt>
      <trkpt lat="42.3773320" lon="-3.4105830">
        <ele>1087.4</ele>
        <time>2021-09-30T13:35:32Z</time>
      </trkpt>
      <trkpt lat="42.3773200" lon="-3.4108270">
        <ele>1086.2</ele>
        <time>2021-09-30T13:35:34Z</time>
      </trkpt>
      <trkpt lat="42.3773050" lon="-3.4110810">
        <ele>1085.0</ele>
        <time>2021-09-30T13:35:36Z</time>
      </trkpt>
      <trkpt lat="42.3772970" lon="-3.4113420">
        <ele>1083.6</ele>
        <time>2021-09-30T13:35:38Z</time>
      </trkpt>
      <trkpt lat="42.3772890" lon="-3.4116080">
        <ele>1082.2</ele>
        <time>2021-09-30T13:35:40Z</time>
      </trkpt>
      <trkpt lat="42.3772790" lon="-3.4118740">
        <ele>1080.8</ele>
        <time>2021-09-30T13:35:42Z</time>
      </trkpt>
      <trkpt lat="42.3772740" lon="-3.4120080">
        <ele>1079.8</ele>
        <time>2021-09-30T13:35:43Z</time>
      </trkpt>
      <trkpt lat="42.3772680" lon="-3.4122800">
        <ele>1077.6</ele>
        <time>2021-09-30T13:35:45Z</time>
      </trkpt>
      <trkpt lat="42.3772750" lon="-3.4125570">
        <ele>1076.4</ele>
        <time>2021-09-30T13:35:47Z</time>
      </trkpt>
      <trkpt lat="42.3772990" lon="-3.4128310">
        <ele>1074.6</ele>
        <time>2021-09-30T13:35:49Z</time>
      </trkpt>
      <trkpt lat="42.3773460" lon="-3.4132230">
        <ele>1073.4</ele>
        <time>2021-09-30T13:35:52Z</time>
      </trkpt>
      <trkpt lat="42.3773900" lon="-3.4135880">
        <ele>1072.4</ele>
        <time>2021-09-30T13:35:55Z</time>
      </trkpt>
      <trkpt lat="42.3774130" lon="-3.4138160">
        <ele>1071.2</ele>
        <time>2021-09-30T13:35:57Z</time>
      </trkpt>
      <trkpt lat="42.3774720" lon="-3.4142450">
        <ele>1070.6</ele>
        <time>2021-09-30T13:36:01Z</time>
      </trkpt>
      <trkpt lat="42.3775780" lon="-3.4150450">
        <ele>1070.6</ele>
        <time>2021-09-30T13:36:09Z</time>
      </trkpt>
      <trkpt lat="42.3776560" lon="-3.4154960">
        <ele>1070.6</ele>
        <time>2021-09-30T13:36:14Z</time>
      </trkpt>
      <trkpt lat="42.3777150" lon="-3.4157260">
        <ele>1071.0</ele>
        <time>2021-09-30T13:36:17Z</time>
      </trkpt>
      <trkpt lat="42.3777220" lon="-3.4159380">
        <ele>1071.0</ele>
        <time>2021-09-30T13:36:20Z</time>
      </trkpt>
      <trkpt lat="42.3777630" lon="-3.4161610">
        <ele>1071.0</ele>
        <time>2021-09-30T13:36:23Z</time>
      </trkpt>
      <trkpt lat="42.3777920" lon="-3.4163140">
        <ele>1071.0</ele>
        <time>2021-09-30T13:36:25Z</time>
      </trkpt>
      <trkpt lat="42.3778630" lon="-3.4167540">
        <ele>1070.8</ele>
        <time>2021-09-30T13:36:31Z</time>
      </trkpt>
      <trkpt lat="42.3778660" lon="-3.4171070">
        <ele>1070.4</ele>
        <time>2021-09-30T13:36:36Z</time>
      </trkpt>
      <trkpt lat="42.3779230" lon="-3.4175350">
        <ele>1070.2</ele>
        <time>2021-09-30T13:36:42Z</time>
      </trkpt>
      <trkpt lat="42.3779460" lon="-3.4176990">
        <ele>1070.0</ele>
        <time>2021-09-30T13:36:44Z</time>
      </trkpt>
      <trkpt lat="42.3779760" lon="-3.4179800">
        <ele>1069.8</ele>
        <time>2021-09-30T13:36:47Z</time>
      </trkpt>
      <trkpt lat="42.3779990" lon="-3.4181740">
        <ele>1069.0</ele>
        <time>2021-09-30T13:36:49Z</time>
      </trkpt>
      <trkpt lat="42.3780050" lon="-3.4182690">
        <ele>1068.4</ele>
        <time>2021-09-30T13:36:50Z</time>
      </trkpt>
      <trkpt lat="42.3780080" lon="-3.4183570">
        <ele>1067.6</ele>
        <time>2021-09-30T13:36:51Z</time>
      </trkpt>
      <trkpt lat="42.3779900" lon="-3.4185430">
        <ele>1066.2</ele>
        <time>2021-09-30T13:36:53Z</time>
      </trkpt>
      <trkpt lat="42.3779490" lon="-3.4187860">
        <ele>1065.0</ele>
        <time>2021-09-30T13:36:56Z</time>
      </trkpt>
      <trkpt lat="42.3778810" lon="-3.4191050">
        <ele>1064.8</ele>
        <time>2021-09-30T13:37:00Z</time>
      </trkpt>
      <trkpt lat="42.3777720" lon="-3.4198990">
        <ele>1064.8</ele>
        <time>2021-09-30T13:37:09Z</time>
      </trkpt>
      <trkpt lat="42.3777680" lon="-3.4200840">
        <ele>1064.6</ele>
        <time>2021-09-30T13:37:11Z</time>
      </trkpt>
      <trkpt lat="42.3777450" lon="-3.4203650">
        <ele>1064.6</ele>
        <time>2021-09-30T13:37:14Z</time>
      </trkpt>
      <trkpt lat="42.3777270" lon="-3.4206700">
        <ele>1063.8</ele>
        <time>2021-09-30T13:37:17Z</time>
      </trkpt>
      <trkpt lat="42.3777050" lon="-3.4209820">
        <ele>1062.6</ele>
        <time>2021-09-30T13:37:20Z</time>
      </trkpt>
      <trkpt lat="42.3776800" lon="-3.4212890">
        <ele>1061.2</ele>
        <time>2021-09-30T13:37:23Z</time>
      </trkpt>
      <trkpt lat="42.3776700" lon="-3.4214920">
        <ele>1059.8</ele>
        <time>2021-09-30T13:37:25Z</time>
      </trkpt>
      <trkpt lat="42.3776620" lon="-3.4217740">
        <ele>1058.2</ele>
        <time>2021-09-30T13:37:28Z</time>
      </trkpt>
      <trkpt lat="42.3776600" lon="-3.4219340">
        <ele>1057.2</ele>
        <time>2021-09-30T13:37:30Z</time>
      </trkpt>
      <trkpt lat="42.3776640" lon="-3.4220830">
        <ele>1056.2</ele>
        <time>2021-09-30T13:37:32Z</time>
      </trkpt>
      <trkpt lat="42.3776780" lon="-3.4221560">
        <ele>1055.8</ele>
        <time>2021-09-30T13:37:33Z</time>
      </trkpt>
      <trkpt lat="42.3777370" lon="-3.4223710">
        <ele>1055.6</ele>
        <time>2021-09-30T13:37:36Z</time>
      </trkpt>
      <trkpt lat="42.3777690" lon="-3.4225230">
        <ele>1055.6</ele>
        <time>2021-09-30T13:37:38Z</time>
      </trkpt>
      <trkpt lat="42.3777880" lon="-3.4227690">
        <ele>1055.2</ele>
        <time>2021-09-30T13:37:41Z</time>
      </trkpt>
      <trkpt lat="42.3777870" lon="-3.4228560">
        <ele>1054.8</ele>
        <time>2021-09-30T13:37:42Z</time>
      </trkpt>
      <trkpt lat="42.3777770" lon="-3.4229470">
        <ele>1054.4</ele>
        <time>2021-09-30T13:37:43Z</time>
      </trkpt>
      <trkpt lat="42.3777640" lon="-3.4230420">
        <ele>1053.8</ele>
        <time>2021-09-30T13:37:44Z</time>
      </trkpt>
      <trkpt lat="42.3777310" lon="-3.4232350">
        <ele>1052.4</ele>
        <time>2021-09-30T13:37:46Z</time>
      </trkpt>
      <trkpt lat="42.3777090" lon="-3.4234280">
        <ele>1051.0</ele>
        <time>2021-09-30T13:37:48Z</time>
      </trkpt>
      <trkpt lat="42.3777050" lon="-3.4236140">
        <ele>1050.0</ele>
        <time>2021-09-30T13:37:50Z</time>
      </trkpt>
      <trkpt lat="42.3777070" lon="-3.4237090">
        <ele>1048.8</ele>
        <time>2021-09-30T13:37:51Z</time>
      </trkpt>
      <trkpt lat="42.3777100" lon="-3.4238060">
        <ele>1047.8</ele>
        <time>2021-09-30T13:37:52Z</time>
      </trkpt>
      <trkpt lat="42.3777100" lon="-3.4240120">
        <ele>1046.2</ele>
        <time>2021-09-30T13:37:54Z</time>
      </trkpt>
      <trkpt lat="42.3776930" lon="-3.4243340">
        <ele>1044.8</ele>
        <time>2021-09-30T13:37:57Z</time>
      </trkpt>
      <trkpt lat="42.3776720" lon="-3.4245350">
        <ele>1043.6</ele>
        <time>2021-09-30T13:37:59Z</time>
      </trkpt>
      <trkpt lat="42.3776510" lon="-3.4247270">
        <ele>1042.6</ele>
        <time>2021-09-30T13:38:01Z</time>
      </trkpt>
      <trkpt lat="42.3776360" lon="-3.4248250">
        <ele>1042.0</ele>
        <time>2021-09-30T13:38:02Z</time>
      </trkpt>
      <trkpt lat="42.3776160" lon="-3.4249250">
        <ele>1041.2</ele>
        <time>2021-09-30T13:38:03Z</time>
      </trkpt>
      <trkpt lat="42.3775760" lon="-3.4251260">
        <ele>1039.6</ele>
        <time>2021-09-30T13:38:05Z</time>
      </trkpt>
      <trkpt lat="42.3775580" lon="-3.4252250">
        <ele>1038.6</ele>
        <time>2021-09-30T13:38:06Z</time>
      </trkpt>
      <trkpt lat="42.3775190" lon="-3.4254160">
        <ele>1037.0</ele>
        <time>2021-09-30T13:38:08Z</time>
      </trkpt>
      <trkpt lat="42.3774860" lon="-3.4256020">
        <ele>1035.6</ele>
        <time>2021-09-30T13:38:10Z</time>
      </trkpt>
      <trkpt lat="42.3774580" lon="-3.4257850">
        <ele>1034.2</ele>
        <time>2021-09-30T13:38:12Z</time>
      </trkpt>
      <trkpt lat="42.3774440" lon="-3.4258780">
        <ele>1032.8</ele>
        <time>2021-09-30T13:38:13Z</time>
      </trkpt>
      <trkpt lat="42.3774170" lon="-3.4261540">
        <ele>1031.6</ele>
        <time>2021-09-30T13:38:16Z</time>
      </trkpt>
      <trkpt lat="42.3773950" lon="-3.4265250">
        <ele>1031.2</ele>
        <time>2021-09-30T13:38:20Z</time>
      </trkpt>
      <trkpt lat="42.3774020" lon="-3.4273300">
        <ele>1031.2</ele>
        <time>2021-09-30T13:38:29Z</time>
      </trkpt>
      <trkpt lat="42.3774250" lon="-3.4279510">
        <ele>1030.8</ele>
        <time>2021-09-30T13:38:36Z</time>
      </trkpt>
      <trkpt lat="42.3774430" lon="-3.4282230">
        <ele>1030.6</ele>
        <time>2021-09-30T13:38:39Z</time>
      </trkpt>
      <trkpt lat="42.3774640" lon="-3.4286800">
        <ele>1029.2</ele>
        <time>2021-09-30T13:38:44Z</time>
      </trkpt>
      <trkpt lat="42.3774650" lon="-3.4292190">
        <ele>1028.2</ele>
        <time>2021-09-30T13:38:50Z</time>
      </trkpt>
      <trkpt lat="42.3773970" lon="-3.4296690">
        <ele>1027.6</ele>
        <time>2021-09-30T13:38:55Z</time>
      </trkpt>
      <trkpt lat="42.3773510" lon="-3.4298450">
        <ele>1027.2</ele>
        <time>2021-09-30T13:38:57Z</time>
      </trkpt>
      <trkpt lat="42.3771900" lon="-3.4303880">
        <ele>1025.8</ele>
        <time>2021-09-30T13:39:03Z</time>
      </trkpt>
      <trkpt lat="42.3771720" lon="-3.4304870">
        <ele>1025.6</ele>
        <time>2021-09-30T13:39:04Z</time>
      </trkpt>
      <trkpt lat="42.3771500" lon="-3.4309030">
        <ele>1024.6</ele>
        <time>2021-09-30T13:39:08Z</time>
      </trkpt>
      <trkpt lat="42.3770790" lon="-3.4316250">
        <ele>1023.4</ele>
        <time>2021-09-30T13:39:15Z</time>
      </trkpt>
      <trkpt lat="42.3769830" lon="-3.4321190">
        <ele>1022.2</ele>
        <time>2021-09-30T13:39:20Z</time>
      </trkpt>
      <trkpt lat="42.3769280" lon="-3.4324010">
        <ele>1021.0</ele>
        <time>2021-09-30T13:39:23Z</time>
      </trkpt>
      <trkpt lat="42.3766840" lon="-3.4331060">
        <ele>1020.0</ele>
        <time>2021-09-30T13:39:31Z</time>
      </trkpt>
      <trkpt lat="42.3765490" lon="-3.4333940">
        <ele>1020.0</ele>
        <time>2021-09-30T13:39:35Z</time>
      </trkpt>
      <trkpt lat="42.3763740" lon="-3.4335940">
        <ele>1020.2</ele>
        <time>2021-09-30T13:39:39Z</time>
      </trkpt>
      <trkpt lat="42.3762810" lon="-3.4336690">
        <ele>1020.6</ele>
        <time>2021-09-30T13:39:41Z</time>
      </trkpt>
      <trkpt lat="42.3761930" lon="-3.4337520">
        <ele>1021.6</ele>
        <time>2021-09-30T13:39:43Z</time>
      </trkpt>
      <trkpt lat="42.3761530" lon="-3.4337990">
        <ele>1022.4</ele>
        <time>2021-09-30T13:39:44Z</time>
      </trkpt>
      <trkpt lat="42.3761160" lon="-3.4338500">
        <ele>1023.2</ele>
        <time>2021-09-30T13:39:45Z</time>
      </trkpt>
      <trkpt lat="42.3760530" lon="-3.4339570">
        <ele>1024.4</ele>
        <time>2021-09-30T13:39:47Z</time>
      </trkpt>
      <trkpt lat="42.3759900" lon="-3.4342210">
        <ele>1025.4</ele>
        <time>2021-09-30T13:39:51Z</time>
      </trkpt>
      <trkpt lat="42.3759530" lon="-3.4345140">
        <ele>1025.4</ele>
        <time>2021-09-30T13:39:55Z</time>
      </trkpt>
      <trkpt lat="42.3758830" lon="-3.4352620">
        <ele>1025.0</ele>
        <time>2021-09-30T13:40:05Z</time>
      </trkpt>
      <trkpt lat="42.3758520" lon="-3.4355790">
        <ele>1024.8</ele>
        <time>2021-09-30T13:40:09Z</time>
      </trkpt>
      <trkpt lat="42.3758240" lon="-3.4358740">
        <ele>1024.4</ele>
        <time>2021-09-30T13:40:13Z</time>
      </trkpt>
      <trkpt lat="42.3757940" lon="-3.4361050">
        <ele>1024.2</ele>
        <time>2021-09-30T13:40:17Z</time>
      </trkpt>
      <trkpt lat="42.3757590" lon="-3.4362600">
        <ele>1024.2</ele>
        <time>2021-09-30T13:40:21Z</time>
      </trkpt>
      <trkpt lat="42.3757240" lon="-3.4364430">
        <ele>1024.6</ele>
        <time>2021-09-30T13:40:25Z</time>
      </trkpt>
      <trkpt lat="42.3757080" lon="-3.4366660">
        <ele>1024.6</ele>
        <time>2021-09-30T13:40:29Z</time>
      </trkpt>
      <trkpt lat="42.3757340" lon="-3.4368870">
        <ele>1024.6</ele>
        <time>2021-09-30T13:40:33Z</time>
      </trkpt>
      <trkpt lat="42.3757600" lon="-3.4370590">
        <ele>1023.8</ele>
        <time>2021-09-30T13:40:36Z</time>
      </trkpt>
      <trkpt lat="42.3758190" lon="-3.4373320">
        <ele>1023.4</ele>
        <time>2021-09-30T13:40:41Z</time>
      </trkpt>
      <trkpt lat="42.3758510" lon="-3.4374230">
        <ele>1023.4</ele>
        <time>2021-09-30T13:40:43Z</time>
      </trkpt>
      <trkpt lat="42.3759560" lon="-3.4378520">
        <ele>1004.2</ele>
        <time>2021-09-30T14:47:52Z</time>
      </trkpt>
      <trkpt lat="42.3759900" lon="-3.4379650">
        <ele>1004.2</ele>
        <time>2021-09-30T14:47:55Z</time>
      </trkpt>
      <trkpt lat="42.3760280" lon="-3.4381680">
        <ele>1004.0</ele>
        <time>2021-09-30T14:47:59Z</time>
      </trkpt>
      <trkpt lat="42.3760460" lon="-3.4382820">
        <ele>1003.8</ele>
        <time>2021-09-30T14:48:01Z</time>
      </trkpt>
      <trkpt lat="42.3760920" lon="-3.4386710">
        <ele>1003.0</ele>
        <time>2021-09-30T14:48:07Z</time>
      </trkpt>
      <trkpt lat="42.3761410" lon="-3.4390240">
        <ele>1001.8</ele>
        <time>2021-09-30T14:48:12Z</time>
      </trkpt>
      <trkpt lat="42.3761940" lon="-3.4394700">
        <ele>1000.8</ele>
        <time>2021-09-30T14:48:18Z</time>
      </trkpt>
      <trkpt lat="42.3762930" lon="-3.4402460">
        <ele>1000.2</ele>
        <time>2021-09-30T14:48:28Z</time>
      </trkpt>
      <trkpt lat="42.3763490" lon="-3.4407730">
        <ele>1000.4</ele>
        <time>2021-09-30T14:48:35Z</time>
      </trkpt>
      <trkpt lat="42.3763210" lon="-3.4410310">
        <ele>1000.4</ele>
        <time>2021-09-30T14:48:39Z</time>
      </trkpt>
      <trkpt lat="42.3762890" lon="-3.4411340">
        <ele>1000.8</ele>
        <time>2021-09-30T14:48:41Z</time>
      </trkpt>
      <trkpt lat="42.3761980" lon="-3.4412980">
        <ele>1001.6</ele>
        <time>2021-09-30T14:48:45Z</time>
      </trkpt>
      <trkpt lat="42.3761420" lon="-3.4413530">
        <ele>1002.0</ele>
        <time>2021-09-30T14:48:47Z</time>
      </trkpt>
      <trkpt lat="42.3761230" lon="-3.4413850">
        <ele>1002.2</ele>
        <time>2021-09-30T14:48:48Z</time>
      </trkpt>
      <trkpt lat="42.3761000" lon="-3.4414520">
        <ele>1003.0</ele>
        <time>2021-09-30T14:48:50Z</time>
      </trkpt>
      <trkpt lat="42.3760690" lon="-3.4415060">
        <ele>1003.8</ele>
        <time>2021-09-30T14:48:52Z</time>
      </trkpt>
      <trkpt lat="42.3760490" lon="-3.4415370">
        <ele>1004.2</ele>
        <time>2021-09-30T14:48:53Z</time>
      </trkpt>
      <trkpt lat="42.3760010" lon="-3.4416560">
        <ele>1005.4</ele>
        <time>2021-09-30T14:48:56Z</time>
      </trkpt>
      <trkpt lat="42.3759610" lon="-3.4419020">
        <ele>1005.8</ele>
        <time>2021-09-30T14:49:01Z</time>
      </trkpt>
      <trkpt lat="42.3759220" lon="-3.4421620">
        <ele>1006.0</ele>
        <time>2021-09-30T14:49:06Z</time>
      </trkpt>
      <trkpt lat="42.3758540" lon="-3.4424270">
        <ele>1006.4</ele>
        <time>2021-09-30T14:49:12Z</time>
      </trkpt>
      <trkpt lat="42.3758470" lon="-3.4426710">
        <ele>1007.6</ele>
        <time>2021-09-30T14:49:19Z</time>
      </trkpt>
      <trkpt lat="42.3758610" lon="-3.4428620">
        <ele>1008.6</ele>
        <time>2021-09-30T14:49:23Z</time>
      </trkpt>
      <trkpt lat="42.3758470" lon="-3.4430650">
        <ele>1009.0</ele>
        <time>2021-09-30T14:49:27Z</time>
      </trkpt>
      <trkpt lat="42.3757690" lon="-3.4433430">
        <ele>1009.6</ele>
        <time>2021-09-30T14:49:33Z</time>
      </trkpt>
      <trkpt lat="42.3756080" lon="-3.4439130">
        <ele>1010.6</ele>
        <time>2021-09-30T14:49:46Z</time>
      </trkpt>
      <trkpt lat="42.3754240" lon="-3.4444480">
        <ele>1011.4</ele>
        <time>2021-09-30T14:49:58Z</time>
      </trkpt>
      <trkpt lat="42.3754030" lon="-3.4445280">
        <ele>1011.6</ele>
        <time>2021-09-30T14:50:00Z</time>
      </trkpt>
      <trkpt lat="42.3753110" lon="-3.4450450">
        <ele>1012.6</ele>
        <time>2021-09-30T14:50:11Z</time>
      </trkpt>
      <trkpt lat="42.3751900" lon="-3.4457110">
        <ele>1013.2</ele>
        <time>2021-09-30T14:50:24Z</time>
      </trkpt>
      <trkpt lat="42.3750850" lon="-3.4463410">
        <ele>1013.8</ele>
        <time>2021-09-30T14:50:35Z</time>
      </trkpt>
      <trkpt lat="42.3749550" lon="-3.4470950">
        <ele>1013.8</ele>
        <time>2021-09-30T14:50:48Z</time>
      </trkpt>
      <trkpt lat="42.3748160" lon="-3.4478110">
        <ele>1013.6</ele>
        <time>2021-09-30T14:51:00Z</time>
      </trkpt>
      <trkpt lat="42.3747030" lon="-3.4485730">
        <ele>1013.4</ele>
        <time>2021-09-30T14:51:13Z</time>
      </trkpt>
      <trkpt lat="42.3746890" lon="-3.4486830">
        <ele>1013.4</ele>
        <time>2021-09-30T14:51:15Z</time>
      </trkpt>
      <trkpt lat="42.3746890" lon="-3.4491720">
        <ele>1013.4</ele>
        <time>2021-09-30T14:51:23Z</time>
      </trkpt>
      <trkpt lat="42.3747160" lon="-3.4498160">
        <ele>1012.8</ele>
        <time>2021-09-30T14:51:34Z</time>
      </trkpt>
      <trkpt lat="42.3746490" lon="-3.4504110">
        <ele>1012.8</ele>
        <time>2021-09-30T14:51:43Z</time>
      </trkpt>
      <trkpt lat="42.3745700" lon="-3.4509760">
        <ele>1013.2</ele>
        <time>2021-09-30T14:51:52Z</time>
      </trkpt>
      <trkpt lat="42.3745400" lon="-3.4514590">
        <ele>1012.6</ele>
        <time>2021-09-30T14:51:59Z</time>
      </trkpt>
      <trkpt lat="42.3745470" lon="-3.4516570">
        <ele>1012.4</ele>
        <time>2021-09-30T14:52:02Z</time>
      </trkpt>
      <trkpt lat="42.3745540" lon="-3.4517210">
        <ele>1012.4</ele>
        <time>2021-09-30T14:52:03Z</time>
      </trkpt>
      <trkpt lat="42.3745600" lon="-3.4520740">
        <ele>1012.2</ele>
        <time>2021-09-30T14:52:08Z</time>
      </trkpt>
      <trkpt lat="42.3744990" lon="-3.4524100">
        <ele>1012.0</ele>
        <time>2021-09-30T14:52:13Z</time>
      </trkpt>
      <trkpt lat="42.3744050" lon="-3.4525980">
        <ele>1011.8</ele>
        <time>2021-09-30T14:52:17Z</time>
      </trkpt>
      <trkpt lat="42.3743380" lon="-3.4528220">
        <ele>1011.8</ele>
        <time>2021-09-30T14:52:21Z</time>
      </trkpt>
      <trkpt lat="42.3742860" lon="-3.4531880">
        <ele>1012.0</ele>
        <time>2021-09-30T14:52:27Z</time>
      </trkpt>
      <trkpt lat="42.3742880" lon="-3.4539210">
        <ele>1012.0</ele>
        <time>2021-09-30T14:52:38Z</time>
      </trkpt>
      <trkpt lat="42.3742640" lon="-3.4541990">
        <ele>1011.8</ele>
        <time>2021-09-30T14:52:42Z</time>
      </trkpt>
      <trkpt lat="42.3742050" lon="-3.4544700">
        <ele>1011.4</ele>
        <time>2021-09-30T14:52:46Z</time>
      </trkpt>
      <trkpt lat="42.3741850" lon="-3.4545360">
        <ele>1011.4</ele>
        <time>2021-09-30T14:52:47Z</time>
      </trkpt>
      <trkpt lat="42.3741610" lon="-3.4546020">
        <ele>1011.2</ele>
        <time>2021-09-30T14:52:48Z</time>
      </trkpt>
      <trkpt lat="42.3740890" lon="-3.4547910">
        <ele>1010.4</ele>
        <time>2021-09-30T14:52:51Z</time>
      </trkpt>
      <trkpt lat="42.3738850" lon="-3.4554900">
        <ele>1009.8</ele>
        <time>2021-09-30T14:53:02Z</time>
      </trkpt>
      <trkpt lat="42.3738280" lon="-3.4557470">
        <ele>1009.6</ele>
        <time>2021-09-30T14:53:06Z</time>
      </trkpt>
      <trkpt lat="42.3738040" lon="-3.4558700">
        <ele>1009.6</ele>
        <time>2021-09-30T14:53:08Z</time>
      </trkpt>
      <trkpt lat="42.3737030" lon="-3.4565660">
        <ele>1008.4</ele>
        <time>2021-09-30T14:53:17Z</time>
      </trkpt>
      <trkpt lat="42.3735850" lon="-3.4571680">
        <ele>1007.4</ele>
        <time>2021-09-30T14:53:25Z</time>
      </trkpt>
      <trkpt lat="42.3734460" lon="-3.4579410">
        <ele>1006.4</ele>
        <time>2021-09-30T14:53:35Z</time>
      </trkpt>
      <trkpt lat="42.3734120" lon="-3.4580980">
        <ele>1006.2</ele>
        <time>2021-09-30T14:53:37Z</time>
      </trkpt>
      <trkpt lat="42.3732820" lon="-3.4585590">
        <ele>1005.6</ele>
        <time>2021-09-30T14:53:43Z</time>
      </trkpt>
      <trkpt lat="42.3732110" lon="-3.4587920">
        <ele>1005.2</ele>
        <time>2021-09-30T14:53:46Z</time>
      </trkpt>
      <trkpt lat="42.3730170" lon="-3.4594290">
        <ele>1004.4</ele>
        <time>2021-09-30T14:53:54Z</time>
      </trkpt>
      <trkpt lat="42.3728320" lon="-3.4599900">
        <ele>1003.4</ele>
        <time>2021-09-30T14:54:01Z</time>
      </trkpt>
      <trkpt lat="42.3727500" lon="-3.4602340">
        <ele>1003.4</ele>
        <time>2021-09-30T14:54:04Z</time>
      </trkpt>
      <trkpt lat="42.3724610" lon="-3.4609260">
        <ele>1003.0</ele>
        <time>2021-09-30T14:54:13Z</time>
      </trkpt>
      <trkpt lat="42.3723990" lon="-3.4610710">
        <ele>1003.2</ele>
        <time>2021-09-30T14:54:15Z</time>
      </trkpt>
      <trkpt lat="42.3722410" lon="-3.4615920">
        <ele>1002.8</ele>
        <time>2021-09-30T14:54:22Z</time>
      </trkpt>
      <trkpt lat="42.3722280" lon="-3.4616670">
        <ele>1002.8</ele>
        <time>2021-09-30T14:54:23Z</time>
      </trkpt>
      <trkpt lat="42.3721430" lon="-3.4621520">
        <ele>1002.6</ele>
        <time>2021-09-30T14:54:29Z</time>
      </trkpt>
      <trkpt lat="42.3720680" lon="-3.4627560">
        <ele>1001.8</ele>
        <time>2021-09-30T14:54:37Z</time>
      </trkpt>
      <trkpt lat="42.3720070" lon="-3.4629810">
        <ele>1001.6</ele>
        <time>2021-09-30T14:54:40Z</time>
      </trkpt>
      <trkpt lat="42.3719680" lon="-3.4632060">
        <ele>1001.4</ele>
        <time>2021-09-30T14:54:43Z</time>
      </trkpt>
      <trkpt lat="42.3719400" lon="-3.4639040">
        <ele>1000.4</ele>
        <time>2021-09-30T14:54:52Z</time>
      </trkpt>
      <trkpt lat="42.3718810" lon="-3.4646350">
        <ele>999.8</ele>
        <time>2021-09-30T14:55:01Z</time>
      </trkpt>
      <trkpt lat="42.3718770" lon="-3.4647180">
        <ele>999.8</ele>
        <time>2021-09-30T14:55:02Z</time>
      </trkpt>
      <trkpt lat="42.3718730" lon="-3.4652170">
        <ele>999.2</ele>
        <time>2021-09-30T14:55:08Z</time>
      </trkpt>
      <trkpt lat="42.3719230" lon="-3.4660070">
        <ele>998.8</ele>
        <time>2021-09-30T14:55:18Z</time>
      </trkpt>
      <trkpt lat="42.3719530" lon="-3.4662190">
        <ele>998.6</ele>
        <time>2021-09-30T14:55:21Z</time>
      </trkpt>
      <trkpt lat="42.3720800" lon="-3.4669740">
        <ele>998.8</ele>
        <time>2021-09-30T14:55:32Z</time>
      </trkpt>
      <trkpt lat="42.3721510" lon="-3.4674330">
        <ele>999.2</ele>
        <time>2021-09-30T14:55:39Z</time>
      </trkpt>
      <trkpt lat="42.3722250" lon="-3.4679270">
        <ele>1000.2</ele>
        <time>2021-09-30T14:55:47Z</time>
      </trkpt>
      <trkpt lat="42.3722530" lon="-3.4680950">
        <ele>1000.4</ele>
        <time>2021-09-30T14:55:50Z</time>
      </trkpt>
      <trkpt lat="42.3722860" lon="-3.4682590">
        <ele>1000.6</ele>
        <time>2021-09-30T14:55:53Z</time>
      </trkpt>
      <trkpt lat="42.3723100" lon="-3.4685530">
        <ele>1000.8</ele>
        <time>2021-09-30T14:55:57Z</time>
      </trkpt>
      <trkpt lat="42.3722530" lon="-3.4688720">
        <ele>1000.8</ele>
        <time>2021-09-30T14:56:01Z</time>
      </trkpt>
      <trkpt lat="42.3722260" lon="-3.4689460">
        <ele>1000.8</ele>
        <time>2021-09-30T14:56:02Z</time>
      </trkpt>
      <trkpt lat="42.3721520" lon="-3.4691670">
        <ele>999.6</ele>
        <time>2021-09-30T14:56:05Z</time>
      </trkpt>
      <trkpt lat="42.3721390" lon="-3.4692460">
        <ele>999.6</ele>
        <time>2021-09-30T14:56:06Z</time>
      </trkpt>
      <trkpt lat="42.3721620" lon="-3.4696170">
        <ele>999.2</ele>
        <time>2021-09-30T14:56:11Z</time>
      </trkpt>
      <trkpt lat="42.3722520" lon="-3.4699710">
        <ele>998.6</ele>
        <time>2021-09-30T14:56:16Z</time>
      </trkpt>
      <trkpt lat="42.3723660" lon="-3.4704100">
        <ele>998.6</ele>
        <time>2021-09-30T14:56:23Z</time>
      </trkpt>
      <trkpt lat="42.3723710" lon="-3.4704710">
        <ele>998.8</ele>
        <time>2021-09-30T14:56:24Z</time>
      </trkpt>
      <trkpt lat="42.3723990" lon="-3.4712730">
        <ele>999.0</ele>
        <time>2021-09-30T14:56:35Z</time>
      </trkpt>
      <trkpt lat="42.3723840" lon="-3.4715930">
        <ele>998.4</ele>
        <time>2021-09-30T14:56:39Z</time>
      </trkpt>
      <trkpt lat="42.3723440" lon="-3.4718460">
        <ele>997.6</ele>
        <time>2021-09-30T14:56:42Z</time>
      </trkpt>
      <trkpt lat="42.3723290" lon="-3.4719350">
        <ele>997.6</ele>
        <time>2021-09-30T14:56:43Z</time>
      </trkpt>
      <trkpt lat="42.3722940" lon="-3.4721180">
        <ele>997.0</ele>
        <time>2021-09-30T14:56:45Z</time>
      </trkpt>
      <trkpt lat="42.3722750" lon="-3.4722100">
        <ele>996.4</ele>
        <time>2021-09-30T14:56:46Z</time>
      </trkpt>
      <trkpt lat="42.3722360" lon="-3.4724010">
        <ele>996.0</ele>
        <time>2021-09-30T14:56:48Z</time>
      </trkpt>
      <trkpt lat="42.3721950" lon="-3.4726040">
        <ele>995.0</ele>
        <time>2021-09-30T14:56:50Z</time>
      </trkpt>
      <trkpt lat="42.3721620" lon="-3.4728180">
        <ele>993.4</ele>
        <time>2021-09-30T14:56:52Z</time>
      </trkpt>
      <trkpt lat="42.3721200" lon="-3.4730300">
        <ele>992.0</ele>
        <time>2021-09-30T14:56:54Z</time>
      </trkpt>
      <trkpt lat="42.3720350" lon="-3.4733320">
        <ele>990.8</ele>
        <time>2021-09-30T14:56:57Z</time>
      </trkpt>
      <trkpt lat="42.3719140" lon="-3.4736080">
        <ele>989.4</ele>
        <time>2021-09-30T14:57:00Z</time>
      </trkpt>
      <trkpt lat="42.3718130" lon="-3.4737890">
        <ele>988.0</ele>
        <time>2021-09-30T14:57:02Z</time>
      </trkpt>
      <trkpt lat="42.3717010" lon="-3.4739860">
        <ele>986.2</ele>
        <time>2021-09-30T14:57:04Z</time>
      </trkpt>
      <trkpt lat="42.3715870" lon="-3.4741910">
        <ele>984.8</ele>
        <time>2021-09-30T14:57:06Z</time>
      </trkpt>
      <trkpt lat="42.3714700" lon="-3.4743970">
        <ele>983.4</ele>
        <time>2021-09-30T14:57:08Z</time>
      </trkpt>
      <trkpt lat="42.3714110" lon="-3.4744990">
        <ele>981.0</ele>
        <time>2021-09-30T14:57:09Z</time>
      </trkpt>
      <trkpt lat="42.3712950" lon="-3.4747000">
        <ele>979.2</ele>
        <time>2021-09-30T14:57:11Z</time>
      </trkpt>
      <trkpt lat="42.3712390" lon="-3.4747980">
        <ele>977.6</ele>
        <time>2021-09-30T14:57:12Z</time>
      </trkpt>
      <trkpt lat="42.3711840" lon="-3.4748950">
        <ele>976.0</ele>
        <time>2021-09-30T14:57:13Z</time>
      </trkpt>
      <trkpt lat="42.3710750" lon="-3.4750900">
        <ele>974.6</ele>
        <time>2021-09-30T14:57:15Z</time>
      </trkpt>
      <trkpt lat="42.3709010" lon="-3.4753840">
        <ele>973.2</ele>
        <time>2021-09-30T14:57:18Z</time>
      </trkpt>
      <trkpt lat="42.3707810" lon="-3.4755920">
        <ele>972.2</ele>
        <time>2021-09-30T14:57:20Z</time>
      </trkpt>
      <trkpt lat="42.3706600" lon="-3.4758020">
        <ele>971.0</ele>
        <time>2021-09-30T14:57:22Z</time>
      </trkpt>
      <trkpt lat="42.3705420" lon="-3.4760170">
        <ele>969.8</ele>
        <time>2021-09-30T14:57:24Z</time>
      </trkpt>
      <trkpt lat="42.3704220" lon="-3.4762260">
        <ele>968.4</ele>
        <time>2021-09-30T14:57:26Z</time>
      </trkpt>
      <trkpt lat="42.3703080" lon="-3.4764350">
        <ele>966.6</ele>
        <time>2021-09-30T14:57:28Z</time>
      </trkpt>
      <trkpt lat="42.3702130" lon="-3.4766480">
        <ele>965.4</ele>
        <time>2021-09-30T14:57:30Z</time>
      </trkpt>
      <trkpt lat="42.3701330" lon="-3.4768570">
        <ele>964.4</ele>
        <time>2021-09-30T14:57:32Z</time>
      </trkpt>
      <trkpt lat="42.3699860" lon="-3.4772230">
        <ele>963.2</ele>
        <time>2021-09-30T14:57:36Z</time>
      </trkpt>
      <trkpt lat="42.3698880" lon="-3.4774710">
        <ele>963.2</ele>
        <time>2021-09-30T14:57:39Z</time>
      </trkpt>
      <trkpt lat="42.3698030" lon="-3.4778460">
        <ele>963.8</ele>
        <time>2021-09-30T14:57:44Z</time>
      </trkpt>
      <trkpt lat="42.3697810" lon="-3.4780770">
        <ele>964.2</ele>
        <time>2021-09-30T14:57:48Z</time>
      </trkpt>
      <trkpt lat="42.3697730" lon="-3.4781300">
        <ele>964.4</ele>
        <time>2021-09-30T14:57:49Z</time>
      </trkpt>
      <trkpt lat="42.3697610" lon="-3.4782870">
        <ele>965.6</ele>
        <time>2021-09-30T14:57:52Z</time>
      </trkpt>
      <trkpt lat="42.3697920" lon="-3.4785050">
        <ele>966.4</ele>
        <time>2021-09-30T14:57:56Z</time>
      </trkpt>
      <trkpt lat="42.3698080" lon="-3.4785570">
        <ele>966.6</ele>
        <time>2021-09-30T14:57:57Z</time>
      </trkpt>
      <trkpt lat="42.3698720" lon="-3.4787680">
        <ele>966.8</ele>
        <time>2021-09-30T14:58:01Z</time>
      </trkpt>
      <trkpt lat="42.3699650" lon="-3.4790800">
        <ele>967.2</ele>
        <time>2021-09-30T14:58:07Z</time>
      </trkpt>
      <trkpt lat="42.3700290" lon="-3.4792320">
        <ele>967.6</ele>
        <time>2021-09-30T14:58:10Z</time>
      </trkpt>
      <trkpt lat="42.3701500" lon="-3.4794100">
        <ele>968.4</ele>
        <time>2021-09-30T14:58:14Z</time>
      </trkpt>
      <trkpt lat="42.3702100" lon="-3.4794900">
        <ele>968.8</ele>
        <time>2021-09-30T14:58:16Z</time>
      </trkpt>
      <trkpt lat="42.3702360" lon="-3.4795350">
        <ele>969.0</ele>
        <time>2021-09-30T14:58:17Z</time>
      </trkpt>
      <trkpt lat="42.3702580" lon="-3.4795840">
        <ele>969.0</ele>
        <time>2021-09-30T14:58:18Z</time>
      </trkpt>
      <trkpt lat="42.3702800" lon="-3.4798240">
        <ele>969.2</ele>
        <time>2021-09-30T14:58:22Z</time>
      </trkpt>
      <trkpt lat="42.3702510" lon="-3.4799510">
        <ele>969.2</ele>
        <time>2021-09-30T14:58:24Z</time>
      </trkpt>
      <trkpt lat="42.3702390" lon="-3.4800150">
        <ele>969.2</ele>
        <time>2021-09-30T14:58:25Z</time>
      </trkpt>
      <trkpt lat="42.3702320" lon="-3.4801480">
        <ele>969.2</ele>
        <time>2021-09-30T14:58:27Z</time>
      </trkpt>
      <trkpt lat="42.3702480" lon="-3.4803580">
        <ele>969.0</ele>
        <time>2021-09-30T14:58:31Z</time>
      </trkpt>
      <trkpt lat="42.3702840" lon="-3.4805350">
        <ele>968.8</ele>
        <time>2021-09-30T14:58:34Z</time>
      </trkpt>
      <trkpt lat="42.3703500" lon="-3.4807230">
        <ele>968.6</ele>
        <time>2021-09-30T14:58:37Z</time>
      </trkpt>
      <trkpt lat="42.3704350" lon="-3.4809260">
        <ele>968.2</ele>
        <time>2021-09-30T14:58:40Z</time>
      </trkpt>
      <trkpt lat="42.3705020" lon="-3.4810720">
        <ele>967.6</ele>
        <time>2021-09-30T14:58:42Z</time>
      </trkpt>
      <trkpt lat="42.3706110" lon="-3.4813130">
        <ele>966.4</ele>
        <time>2021-09-30T14:58:45Z</time>
      </trkpt>
      <trkpt lat="42.3707230" lon="-3.4815850">
        <ele>965.4</ele>
        <time>2021-09-30T14:58:48Z</time>
      </trkpt>
      <trkpt lat="42.3708400" lon="-3.4818760">
        <ele>964.0</ele>
        <time>2021-09-30T14:58:51Z</time>
      </trkpt>
      <trkpt lat="42.3708820" lon="-3.4819750">
        <ele>962.8</ele>
        <time>2021-09-30T14:58:52Z</time>
      </trkpt>
      <trkpt lat="42.3710080" lon="-3.4822740">
        <ele>961.6</ele>
        <time>2021-09-30T14:58:55Z</time>
      </trkpt>
      <trkpt lat="42.3710970" lon="-3.4824740">
        <ele>960.4</ele>
        <time>2021-09-30T14:58:57Z</time>
      </trkpt>
      <trkpt lat="42.3711810" lon="-3.4826830">
        <ele>959.0</ele>
        <time>2021-09-30T14:58:59Z</time>
      </trkpt>
      <trkpt lat="42.3712600" lon="-3.4828980">
        <ele>958.0</ele>
        <time>2021-09-30T14:59:01Z</time>
      </trkpt>
      <trkpt lat="42.3712970" lon="-3.4830110">
        <ele>957.6</ele>
        <time>2021-09-30T14:59:02Z</time>
      </trkpt>
      <trkpt lat="42.3713720" lon="-3.4832480">
        <ele>956.2</ele>
        <time>2021-09-30T14:59:04Z</time>
      </trkpt>
      <trkpt lat="42.3714420" lon="-3.4834990">
        <ele>954.6</ele>
        <time>2021-09-30T14:59:06Z</time>
      </trkpt>
      <trkpt lat="42.3715130" lon="-3.4837450">
        <ele>952.8</ele>
        <time>2021-09-30T14:59:08Z</time>
      </trkpt>
      <trkpt lat="42.3715860" lon="-3.4839790">
        <ele>951.6</ele>
        <time>2021-09-30T14:59:10Z</time>
      </trkpt>
      <trkpt lat="42.3716470" lon="-3.4842030">
        <ele>950.2</ele>
        <time>2021-09-30T14:59:12Z</time>
      </trkpt>
      <trkpt lat="42.3716980" lon="-3.4844140">
        <ele>948.8</ele>
        <time>2021-09-30T14:59:14Z</time>
      </trkpt>
      <trkpt lat="42.3717370" lon="-3.4847230">
        <ele>948.4</ele>
        <time>2021-09-30T14:59:17Z</time>
      </trkpt>
      <trkpt lat="42.3717330" lon="-3.4854520">
        <ele>948.6</ele>
        <time>2021-09-30T14:59:25Z</time>
      </trkpt>
      <trkpt lat="42.3717320" lon="-3.4857800">
        <ele>949.8</ele>
        <time>2021-09-30T14:59:29Z</time>
      </trkpt>
      <trkpt lat="42.3717250" lon="-3.4863920">
        <ele>950.8</ele>
        <time>2021-09-30T14:59:38Z</time>
      </trkpt>
      <trkpt lat="42.3717210" lon="-3.4866660">
        <ele>950.8</ele>
        <time>2021-09-30T14:59:42Z</time>
      </trkpt>
      <trkpt lat="42.3717150" lon="-3.4869770">
        <ele>951.0</ele>
        <time>2021-09-30T14:59:46Z</time>
      </trkpt>
      <trkpt lat="42.3717140" lon="-3.4872160">
        <ele>950.8</ele>
        <time>2021-09-30T14:59:49Z</time>
      </trkpt>
      <trkpt lat="42.3717100" lon="-3.4875380">
        <ele>950.6</ele>
        <time>2021-09-30T14:59:53Z</time>
      </trkpt>
      <trkpt lat="42.3717040" lon="-3.4882820">
        <ele>950.4</ele>
        <time>2021-09-30T15:00:02Z</time>
      </trkpt>
      <trkpt lat="42.3717100" lon="-3.4887080">
        <ele>950.6</ele>
        <time>2021-09-30T15:00:07Z</time>
      </trkpt>
      <trkpt lat="42.3717700" lon="-3.4892960">
        <ele>950.6</ele>
        <time>2021-09-30T15:00:14Z</time>
      </trkpt>
      <trkpt lat="42.3719030" lon="-3.4900140">
        <ele>950.8</ele>
        <time>2021-09-30T15:00:23Z</time>
      </trkpt>
      <trkpt lat="42.3719790" lon="-3.4904150">
        <ele>951.2</ele>
        <time>2021-09-30T15:00:28Z</time>
      </trkpt>
      <trkpt lat="42.3721120" lon="-3.4911410">
        <ele>951.6</ele>
        <time>2021-09-30T15:00:37Z</time>
      </trkpt>
      <trkpt lat="42.3722500" lon="-3.4918910">
        <ele>951.6</ele>
        <time>2021-09-30T15:00:46Z</time>
      </trkpt>
      <trkpt lat="42.3723950" lon="-3.4926520">
        <ele>951.0</ele>
        <time>2021-09-30T15:00:55Z</time>
      </trkpt>
      <trkpt lat="42.3725320" lon="-3.4934050">
        <ele>950.8</ele>
        <time>2021-09-30T15:01:04Z</time>
      </trkpt>
      <trkpt lat="42.3726540" lon="-3.4940600">
        <ele>951.4</ele>
        <time>2021-09-30T15:01:12Z</time>
      </trkpt>
      <trkpt lat="42.3727900" lon="-3.4947890">
        <ele>952.2</ele>
        <time>2021-09-30T15:01:21Z</time>
      </trkpt>
      <trkpt lat="42.3729200" lon="-3.4954990">
        <ele>952.8</ele>
        <time>2021-09-30T15:01:30Z</time>
      </trkpt>
      <trkpt lat="42.3729820" lon="-3.4958060">
        <ele>953.2</ele>
        <time>2021-09-30T15:01:34Z</time>
      </trkpt>
      <trkpt lat="42.3731260" lon="-3.4965610">
        <ele>953.8</ele>
        <time>2021-09-30T15:01:44Z</time>
      </trkpt>
      <trkpt lat="42.3732370" lon="-3.4971750">
        <ele>954.4</ele>
        <time>2021-09-30T15:01:52Z</time>
      </trkpt>
      <trkpt lat="42.3733700" lon="-3.4978950">
        <ele>954.8</ele>
        <time>2021-09-30T15:02:01Z</time>
      </trkpt>
      <trkpt lat="42.3735090" lon="-3.4986200">
        <ele>954.6</ele>
        <time>2021-09-30T15:02:10Z</time>
      </trkpt>
      <trkpt lat="42.3736530" lon="-3.4993930">
        <ele>954.6</ele>
        <time>2021-09-30T15:02:20Z</time>
      </trkpt>
      <trkpt lat="42.3737930" lon="-3.5001250">
        <ele>955.4</ele>
        <time>2021-09-30T15:02:31Z</time>
      </trkpt>
      <trkpt lat="42.3738050" lon="-3.5001900">
        <ele>955.6</ele>
        <time>2021-09-30T15:02:32Z</time>
      </trkpt>
      <trkpt lat="42.3738600" lon="-3.5005320">
        <ele>956.6</ele>
        <time>2021-09-30T15:02:37Z</time>
      </trkpt>
      <trkpt lat="42.3740030" lon="-3.5012630">
        <ele>957.0</ele>
        <time>2021-09-30T15:02:47Z</time>
      </trkpt>
      <trkpt lat="42.3741750" lon="-3.5019870">
        <ele>957.0</ele>
        <time>2021-09-30T15:02:56Z</time>
      </trkpt>
      <trkpt lat="42.3744040" lon="-3.5027100">
        <ele>955.8</ele>
        <time>2021-09-30T15:03:05Z</time>
      </trkpt>
      <trkpt lat="42.3744300" lon="-3.5027910">
        <ele>955.8</ele>
        <time>2021-09-30T15:03:06Z</time>
      </trkpt>
      <trkpt lat="42.3746520" lon="-3.5034970">
        <ele>955.4</ele>
        <time>2021-09-30T15:03:15Z</time>
      </trkpt>
      <trkpt lat="42.3748630" lon="-3.5041690">
        <ele>955.4</ele>
        <time>2021-09-30T15:03:24Z</time>
      </trkpt>
      <trkpt lat="42.3750610" lon="-3.5047880">
        <ele>955.6</ele>
        <time>2021-09-30T15:03:33Z</time>
      </trkpt>
      <trkpt lat="42.3750980" lon="-3.5049110">
        <ele>955.8</ele>
        <time>2021-09-30T15:03:35Z</time>
      </trkpt>
      <trkpt lat="42.3753240" lon="-3.5055780">
        <ele>955.8</ele>
        <time>2021-09-30T15:03:46Z</time>
      </trkpt>
      <trkpt lat="42.3756690" lon="-3.5061860">
        <ele>955.6</ele>
        <time>2021-09-30T15:03:57Z</time>
      </trkpt>
      <trkpt lat="42.3758470" lon="-3.5064710">
        <ele>955.4</ele>
        <time>2021-09-30T15:04:02Z</time>
      </trkpt>
      <trkpt lat="42.3759790" lon="-3.5066880">
        <ele>954.6</ele>
        <time>2021-09-30T15:04:06Z</time>
      </trkpt>
      <trkpt lat="42.3762950" lon="-3.5073460">
        <ele>954.2</ele>
        <time>2021-09-30T15:04:17Z</time>
      </trkpt>
      <trkpt lat="42.3764790" lon="-3.5076900">
        <ele>954.2</ele>
        <time>2021-09-30T15:04:23Z</time>
      </trkpt>
      <trkpt lat="42.3767800" lon="-3.5081880">
        <ele>954.2</ele>
        <time>2021-09-30T15:04:32Z</time>
      </trkpt>
      <trkpt lat="42.3771530" lon="-3.5088110">
        <ele>954.2</ele>
        <time>2021-09-30T15:04:43Z</time>
      </trkpt>
      <trkpt lat="42.3774770" lon="-3.5093250">
        <ele>953.8</ele>
        <time>2021-09-30T15:04:52Z</time>
      </trkpt>
      <trkpt lat="42.3776090" lon="-3.5095460">
        <ele>953.8</ele>
        <time>2021-09-30T15:04:56Z</time>
      </trkpt>
      <trkpt lat="42.3776660" lon="-3.5096430">
        <ele>953.8</ele>
        <time>2021-09-30T15:04:58Z</time>
      </trkpt>
      <trkpt lat="42.3776530" lon="-3.5098100">
        <ele>954.0</ele>
        <time>2021-09-30T15:05:02Z</time>
      </trkpt>
      <trkpt lat="42.3776040" lon="-3.5099200">
        <ele>954.6</ele>
        <time>2021-09-30T15:05:05Z</time>
      </trkpt>
      <trkpt lat="42.3777030" lon="-3.5098410">
        <ele>956.8</ele>
        <time>2021-09-30T15:11:47Z</time>
      </trkpt>
      <trkpt lat="42.3776990" lon="-3.5098310">
        <ele>956.8</ele>
        <time>2021-09-30T15:11:48Z</time>
      </trkpt>
      <trkpt lat="42.3776830" lon="-3.5098210">
        <ele>956.8</ele>
        <time>2021-09-30T15:11:50Z</time>
      </trkpt>
      <trkpt lat="42.3776680" lon="-3.5098180">
        <ele>956.8</ele>
        <time>2021-09-30T15:11:52Z</time>
      </trkpt>
      <trkpt lat="42.3776180" lon="-3.5098350">
        <ele>956.8</ele>
        <time>2021-09-30T15:11:55Z</time>
      </trkpt>
      <trkpt lat="42.3775590" lon="-3.5099250">
        <ele>956.6</ele>
        <time>2021-09-30T15:11:58Z</time>
      </trkpt>
      <trkpt lat="42.3775250" lon="-3.5099930">
        <ele>956.6</ele>
        <time>2021-09-30T15:12:00Z</time>
      </trkpt>
      <trkpt lat="42.3774640" lon="-3.5100920">
        <ele>956.0</ele>
        <time>2021-09-30T15:12:03Z</time>
      </trkpt>
      <trkpt lat="42.3774420" lon="-3.5101280">
        <ele>955.6</ele>
        <time>2021-09-30T15:12:04Z</time>
      </trkpt>
      <trkpt lat="42.3773220" lon="-3.5108520">
        <ele>955.0</ele>
        <time>2021-09-30T15:12:20Z</time>
      </trkpt>
      <trkpt lat="42.3772870" lon="-3.5112000">
        <ele>955.2</ele>
        <time>2021-09-30T15:12:27Z</time>
      </trkpt>
      <trkpt lat="42.3772560" lon="-3.5114630">
        <ele>955.4</ele>
        <time>2021-09-30T15:12:32Z</time>
      </trkpt>
      <trkpt lat="42.3772190" lon="-3.5117150">
        <ele>955.8</ele>
        <time>2021-09-30T15:12:37Z</time>
      </trkpt>
      <trkpt lat="42.3771970" lon="-3.5124710">
        <ele>956.6</ele>
        <time>2021-09-30T15:12:53Z</time>
      </trkpt>
      <trkpt lat="42.3773930" lon="-3.5131860">
        <ele>957.6</ele>
        <time>2021-09-30T15:13:08Z</time>
      </trkpt>
      <trkpt lat="42.3774820" lon="-3.5135550">
        <ele>957.8</ele>
        <time>2021-09-30T15:13:15Z</time>
      </trkpt>
      <trkpt lat="42.3775470" lon="-3.5138440">
        <ele>958.6</ele>
        <time>2021-09-30T15:13:21Z</time>
      </trkpt>
      <trkpt lat="42.3775700" lon="-3.5139310">
        <ele>959.2</ele>
        <time>2021-09-30T15:13:23Z</time>
      </trkpt>
      <trkpt lat="42.3776100" lon="-3.5140990">
        <ele>960.2</ele>
        <time>2021-09-30T15:13:27Z</time>
      </trkpt>
      <trkpt lat="42.3776740" lon="-3.5143820">
        <ele>961.2</ele>
        <time>2021-09-30T15:13:34Z</time>
      </trkpt>
      <trkpt lat="42.3777310" lon="-3.5145690">
        <ele>962.4</ele>
        <time>2021-09-30T15:13:39Z</time>
      </trkpt>
      <trkpt lat="42.3778270" lon="-3.5148050">
        <ele>963.8</ele>
        <time>2021-09-30T15:13:46Z</time>
      </trkpt>
      <trkpt lat="42.3778780" lon="-3.5149740">
        <ele>964.8</ele>
        <time>2021-09-30T15:13:51Z</time>
      </trkpt>
      <trkpt lat="42.3779110" lon="-3.5151550">
        <ele>966.0</ele>
        <time>2021-09-30T15:13:56Z</time>
      </trkpt>
      <trkpt lat="42.3779360" lon="-3.5152980">
        <ele>967.2</ele>
        <time>2021-09-30T15:14:00Z</time>
      </trkpt>
      <trkpt lat="42.3779530" lon="-3.5154410">
        <ele>968.4</ele>
        <time>2021-09-30T15:14:04Z</time>
      </trkpt>
      <trkpt lat="42.3779840" lon="-3.5159260">
        <ele>969.4</ele>
        <time>2021-09-30T15:14:17Z</time>
      </trkpt>
      <trkpt lat="42.3780090" lon="-3.5164780">
        <ele>970.4</ele>
        <time>2021-09-30T15:14:32Z</time>
      </trkpt>
      <trkpt lat="42.3780150" lon="-3.5166450">
        <ele>971.4</ele>
        <time>2021-09-30T15:14:37Z</time>
      </trkpt>
      <trkpt lat="42.3781310" lon="-3.5169570">
        <ele>972.4</ele>
        <time>2021-09-30T15:14:46Z</time>
      </trkpt>
      <trkpt lat="42.3782320" lon="-3.5173670">
        <ele>973.4</ele>
        <time>2021-09-30T15:14:57Z</time>
      </trkpt>
      <trkpt lat="42.3782810" lon="-3.5176530">
        <ele>974.6</ele>
        <time>2021-09-30T15:15:05Z</time>
      </trkpt>
      <trkpt lat="42.3783690" lon="-3.5179260">
        <ele>975.8</ele>
        <time>2021-09-30T15:15:12Z</time>
      </trkpt>
      <trkpt lat="42.3785710" lon="-3.5184420">
        <ele>976.2</ele>
        <time>2021-09-30T15:15:25Z</time>
      </trkpt>
      <trkpt lat="42.3786440" lon="-3.5186980">
        <ele>977.2</ele>
        <time>2021-09-30T15:15:32Z</time>
      </trkpt>
      <trkpt lat="42.3787740" lon="-3.5190130">
        <ele>978.2</ele>
        <time>2021-09-30T15:15:42Z</time>
      </trkpt>
      <trkpt lat="42.3788310" lon="-3.5192140">
        <ele>979.6</ele>
        <time>2021-09-30T15:15:48Z</time>
      </trkpt>
      <trkpt lat="42.3788820" lon="-3.5194240">
        <ele>980.6</ele>
        <time>2021-09-30T15:15:54Z</time>
      </trkpt>
      <trkpt lat="42.3789380" lon="-3.5197250">
        <ele>981.6</ele>
        <time>2021-09-30T15:16:02Z</time>
      </trkpt>
      <trkpt lat="42.3789280" lon="-3.5199210">
        <ele>982.4</ele>
        <time>2021-09-30T15:16:07Z</time>
      </trkpt>
      <trkpt lat="42.3789440" lon="-3.5201380">
        <ele>982.8</ele>
        <time>2021-09-30T15:16:12Z</time>
      </trkpt>
      <trkpt lat="42.3789900" lon="-3.5206510">
        <ele>984.0</ele>
        <time>2021-09-30T15:16:26Z</time>
      </trkpt>
      <trkpt lat="42.3789960" lon="-3.5206930">
        <ele>985.0</ele>
        <time>2021-09-30T15:16:29Z</time>
      </trkpt>
      <trkpt lat="42.3790130" lon="-3.5207480">
        <ele>987.2</ele>
        <time>2021-09-30T15:17:35Z</time>
      </trkpt>
      <trkpt lat="42.3790160" lon="-3.5207690">
        <ele>987.2</ele>
        <time>2021-09-30T15:17:36Z</time>
      </trkpt>
      <trkpt lat="42.3790240" lon="-3.5208330">
        <ele>987.2</ele>
        <time>2021-09-30T15:17:39Z</time>
      </trkpt>
      <trkpt lat="42.3790440" lon="-3.5209660">
        <ele>987.2</ele>
        <time>2021-09-30T15:17:46Z</time>
      </trkpt>
      <trkpt lat="42.3790540" lon="-3.5210550">
        <ele>988.0</ele>
        <time>2021-09-30T15:17:50Z</time>
      </trkpt>
      <trkpt lat="42.3790630" lon="-3.5211000">
        <ele>988.4</ele>
        <time>2021-09-30T15:17:52Z</time>
      </trkpt>
      <trkpt lat="42.3790930" lon="-3.5212100">
        <ele>989.2</ele>
        <time>2021-09-30T15:17:57Z</time>
      </trkpt>
      <trkpt lat="42.3790960" lon="-3.5212310">
        <ele>989.4</ele>
        <time>2021-09-30T15:17:58Z</time>
      </trkpt>
      <trkpt lat="42.3791150" lon="-3.5213350">
        <ele>990.6</ele>
        <time>2021-09-30T15:18:03Z</time>
      </trkpt>
      <trkpt lat="42.3791260" lon="-3.5214260">
        <ele>991.6</ele>
        <time>2021-09-30T15:18:07Z</time>
      </trkpt>
      <trkpt lat="42.3791260" lon="-3.5215180">
        <ele>992.8</ele>
        <time>2021-09-30T15:18:11Z</time>
      </trkpt>
      <trkpt lat="42.3791290" lon="-3.5216350">
        <ele>994.0</ele>
        <time>2021-09-30T15:18:16Z</time>
      </trkpt>
      <trkpt lat="42.3791170" lon="-3.5217730">
        <ele>995.2</ele>
        <time>2021-09-30T15:18:22Z</time>
      </trkpt>
      <trkpt lat="42.3791070" lon="-3.5218860">
        <ele>996.2</ele>
        <time>2021-09-30T15:18:27Z</time>
      </trkpt>
      <trkpt lat="42.3791020" lon="-3.5220680">
        <ele>997.2</ele>
        <time>2021-09-30T15:18:35Z</time>
      </trkpt>
      <trkpt lat="42.3790830" lon="-3.5222240">
        <ele>998.4</ele>
        <time>2021-09-30T15:18:42Z</time>
      </trkpt>
      <trkpt lat="42.3790690" lon="-3.5223530">
        <ele>999.6</ele>
        <time>2021-09-30T15:18:48Z</time>
      </trkpt>
      <trkpt lat="42.3790590" lon="-3.5224160">
        <ele>1000.6</ele>
        <time>2021-09-30T15:18:51Z</time>
      </trkpt>
      <trkpt lat="42.3790550" lon="-3.5225010">
        <ele>1001.8</ele>
        <time>2021-09-30T15:18:55Z</time>
      </trkpt>
      <trkpt lat="42.3790540" lon="-3.5225850">
        <ele>1003.0</ele>
        <time>2021-09-30T15:18:59Z</time>
      </trkpt>
      <trkpt lat="42.3790570" lon="-3.5227050">
        <ele>1004.2</ele>
        <time>2021-09-30T15:19:05Z</time>
      </trkpt>
      <trkpt lat="42.3790540" lon="-3.5228260">
        <ele>1005.2</ele>
        <time>2021-09-30T15:19:11Z</time>
      </trkpt>
      <trkpt lat="42.3790500" lon="-3.5229230">
        <ele>1006.6</ele>
        <time>2021-09-30T15:19:16Z</time>
      </trkpt>
      <trkpt lat="42.3790410" lon="-3.5230250">
        <ele>1007.6</ele>
        <time>2021-09-30T15:19:21Z</time>
      </trkpt>
      <trkpt lat="42.3790280" lon="-3.5231080">
        <ele>1008.6</ele>
        <time>2021-09-30T15:19:25Z</time>
      </trkpt>
      <trkpt lat="42.3790060" lon="-3.5231890">
        <ele>1009.6</ele>
        <time>2021-09-30T15:19:29Z</time>
      </trkpt>
      <trkpt lat="42.3789760" lon="-3.5232620">
        <ele>1010.8</ele>
        <time>2021-09-30T15:19:33Z</time>
      </trkpt>
      <trkpt lat="42.3789210" lon="-3.5233370">
        <ele>1012.0</ele>
        <time>2021-09-30T15:19:38Z</time>
      </trkpt>
      <trkpt lat="42.3788740" lon="-3.5233870">
        <ele>1013.2</ele>
        <time>2021-09-30T15:19:42Z</time>
      </trkpt>
      <trkpt lat="42.3788050" lon="-3.5234900">
        <ele>1014.4</ele>
        <time>2021-09-30T15:19:48Z</time>
      </trkpt>
      <trkpt lat="42.3787230" lon="-3.5237380">
        <ele>1015.6</ele>
        <time>2021-09-30T15:20:00Z</time>
      </trkpt>
      <trkpt lat="42.3787320" lon="-3.5238720">
        <ele>1016.6</ele>
        <time>2021-09-30T15:20:06Z</time>
      </trkpt>
      <trkpt lat="42.3787730" lon="-3.5239360">
        <ele>1017.6</ele>
        <time>2021-09-30T15:20:10Z</time>
      </trkpt>
      <trkpt lat="42.3788220" lon="-3.5239900">
        <ele>1018.8</ele>
        <time>2021-09-30T15:20:14Z</time>
      </trkpt>
      <trkpt lat="42.3788600" lon="-3.5240550">
        <ele>1020.0</ele>
        <time>2021-09-30T15:20:18Z</time>
      </trkpt>
      <trkpt lat="42.3788500" lon="-3.5241510">
        <ele>1021.0</ele>
        <time>2021-09-30T15:20:23Z</time>
      </trkpt>
      <trkpt lat="42.3788590" lon="-3.5242890">
        <ele>1022.2</ele>
        <time>2021-09-30T15:20:29Z</time>
      </trkpt>
      <trkpt lat="42.3788690" lon="-3.5244540">
        <ele>1023.4</ele>
        <time>2021-09-30T15:20:36Z</time>
      </trkpt>
      <trkpt lat="42.3788940" lon="-3.5245890">
        <ele>1024.6</ele>
        <time>2021-09-30T15:20:42Z</time>
      </trkpt>
      <trkpt lat="42.3789310" lon="-3.5247070">
        <ele>1025.6</ele>
        <time>2021-09-30T15:20:47Z</time>
      </trkpt>
      <trkpt lat="42.3789570" lon="-3.5248240">
        <ele>1026.2</ele>
        <time>2021-09-30T15:20:52Z</time>
      </trkpt>
      <trkpt lat="42.3789850" lon="-3.5249680">
        <ele>1026.8</ele>
        <time>2021-09-30T15:20:58Z</time>
      </trkpt>
      <trkpt lat="42.3790490" lon="-3.5251050">
        <ele>1027.8</ele>
        <time>2021-09-30T15:21:04Z</time>
      </trkpt>
      <trkpt lat="42.3790560" lon="-3.5251270">
        <ele>1027.8</ele>
        <time>2021-09-30T15:21:05Z</time>
      </trkpt>
      <trkpt lat="42.3791020" lon="-3.5253290">
        <ele>1028.2</ele>
        <time>2021-09-30T15:21:15Z</time>
      </trkpt>
      <trkpt lat="42.3791920" lon="-3.5255090">
        <ele>1028.8</ele>
        <time>2021-09-30T15:21:25Z</time>
      </trkpt>
      <trkpt lat="42.3792590" lon="-3.5257000">
        <ele>1029.6</ele>
        <time>2021-09-30T15:21:34Z</time>
      </trkpt>
      <trkpt lat="42.3792900" lon="-3.5258200">
        <ele>1030.0</ele>
        <time>2021-09-30T15:21:40Z</time>
      </trkpt>
      <trkpt lat="42.3793270" lon="-3.5259280">
        <ele>1030.4</ele>
        <time>2021-09-30T15:21:45Z</time>
      </trkpt>
      <trkpt lat="42.3793350" lon="-3.5260240">
        <ele>1031.0</ele>
        <time>2021-09-30T15:21:49Z</time>
      </trkpt>
      <trkpt lat="42.3793420" lon="-3.5261940">
        <ele>1032.4</ele>
        <time>2021-09-30T15:21:56Z</time>
      </trkpt>
      <trkpt lat="42.3793450" lon="-3.5263550">
        <ele>1033.6</ele>
        <time>2021-09-30T15:22:03Z</time>
      </trkpt>
      <trkpt lat="42.3793440" lon="-3.5265360">
        <ele>1034.8</ele>
        <time>2021-09-30T15:22:11Z</time>
      </trkpt>
      <trkpt lat="42.3793260" lon="-3.5266500">
        <ele>1035.8</ele>
        <time>2021-09-30T15:22:17Z</time>
      </trkpt>
      <trkpt lat="42.3793640" lon="-3.5267710">
        <ele>1036.6</ele>
        <time>2021-09-30T15:22:22Z</time>
      </trkpt>
      <trkpt lat="42.3793670" lon="-3.5268010">
        <ele>1036.8</ele>
        <time>2021-09-30T15:22:23Z</time>
      </trkpt>
      <trkpt lat="42.3792540" lon="-3.5271560">
        <ele>1037.4</ele>
        <time>2021-09-30T15:22:35Z</time>
      </trkpt>
      <trkpt lat="42.3792400" lon="-3.5273700">
        <ele>1037.8</ele>
        <time>2021-09-30T15:22:42Z</time>
      </trkpt>
      <trkpt lat="42.3793430" lon="-3.5275200">
        <ele>1038.8</ele>
        <time>2021-09-30T15:22:50Z</time>
      </trkpt>
      <trkpt lat="42.3794140" lon="-3.5275720">
        <ele>1039.8</ele>
        <time>2021-09-30T15:22:54Z</time>
      </trkpt>
      <trkpt lat="42.3794620" lon="-3.5276590">
        <ele>1041.0</ele>
        <time>2021-09-30T15:22:58Z</time>
      </trkpt>
      <trkpt lat="42.3794870" lon="-3.5277340">
        <ele>1042.2</ele>
        <time>2021-09-30T15:23:01Z</time>
      </trkpt>
      <trkpt lat="42.3794960" lon="-3.5278610">
        <ele>1043.4</ele>
        <time>2021-09-30T15:23:06Z</time>
      </trkpt>
      <trkpt lat="42.3795070" lon="-3.5279420">
        <ele>1044.4</ele>
        <time>2021-09-30T15:23:09Z</time>
      </trkpt>
      <trkpt lat="42.3795360" lon="-3.5280410">
        <ele>1045.6</ele>
        <time>2021-09-30T15:23:13Z</time>
      </trkpt>
      <trkpt lat="42.3795390" lon="-3.5280650">
        <ele>1045.8</ele>
        <time>2021-09-30T15:23:14Z</time>
      </trkpt>
      <trkpt lat="42.3795280" lon="-3.5281370">
        <ele>1046.6</ele>
        <time>2021-09-30T15:23:17Z</time>
      </trkpt>
      <trkpt lat="42.3795250" lon="-3.5282310">
        <ele>1047.6</ele>
        <time>2021-09-30T15:23:21Z</time>
      </trkpt>
      <trkpt lat="42.3795230" lon="-3.5283490">
        <ele>1048.8</ele>
        <time>2021-09-30T15:23:26Z</time>
      </trkpt>
      <trkpt lat="42.3795390" lon="-3.5284870">
        <ele>1050.0</ele>
        <time>2021-09-30T15:23:32Z</time>
      </trkpt>
      <trkpt lat="42.3795430" lon="-3.5285840">
        <ele>1051.0</ele>
        <time>2021-09-30T15:23:36Z</time>
      </trkpt>
      <trkpt lat="42.3795830" lon="-3.5286830">
        <ele>1052.2</ele>
        <time>2021-09-30T15:23:41Z</time>
      </trkpt>
      <trkpt lat="42.3795910" lon="-3.5287000">
        <ele>1052.6</ele>
        <time>2021-09-30T15:23:42Z</time>
      </trkpt>
      <trkpt lat="42.3796190" lon="-3.5287510">
        <ele>1053.4</ele>
        <time>2021-09-30T15:23:45Z</time>
      </trkpt>
      <trkpt lat="42.3796740" lon="-3.5288130">
        <ele>1054.4</ele>
        <time>2021-09-30T15:23:49Z</time>
      </trkpt>
      <trkpt lat="42.3797480" lon="-3.5288950">
        <ele>1055.6</ele>
        <time>2021-09-30T15:23:54Z</time>
      </trkpt>
      <trkpt lat="42.3798880" lon="-3.5291080">
        <ele>1056.8</ele>
        <time>2021-09-30T15:24:05Z</time>
      </trkpt>
      <trkpt lat="42.3800330" lon="-3.5292890">
        <ele>1057.8</ele>
        <time>2021-09-30T15:24:13Z</time>
      </trkpt>
      <trkpt lat="42.3801540" lon="-3.5295700">
        <ele>1058.2</ele>
        <time>2021-09-30T15:24:21Z</time>
      </trkpt>
      <trkpt lat="42.3802450" lon="-3.5299370">
        <ele>1058.8</ele>
        <time>2021-09-30T15:24:31Z</time>
      </trkpt>
      <trkpt lat="42.3802890" lon="-3.5302320">
        <ele>1059.8</ele>
        <time>2021-09-30T15:24:39Z</time>
      </trkpt>
      <trkpt lat="42.3803070" lon="-3.5304150">
        <ele>1060.4</ele>
        <time>2021-09-30T15:24:44Z</time>
      </trkpt>
      <trkpt lat="42.3803160" lon="-3.5305200">
        <ele>1060.6</ele>
        <time>2021-09-30T15:24:47Z</time>
      </trkpt>
      <trkpt lat="42.3803210" lon="-3.5307900">
        <ele>1060.8</ele>
        <time>2021-09-30T15:24:56Z</time>
      </trkpt>
      <trkpt lat="42.3803220" lon="-3.5307960">
        <ele>1061.0</ele>
        <time>2021-09-30T15:24:58Z</time>
      </trkpt>
      <trkpt lat="42.3802890" lon="-3.5309820">
        <ele>1064.2</ele>
        <time>2021-09-30T15:26:26Z</time>
      </trkpt>
      <trkpt lat="42.3802830" lon="-3.5310100">
        <ele>1064.2</ele>
        <time>2021-09-30T15:26:27Z</time>
      </trkpt>
      <trkpt lat="42.3801910" lon="-3.5312340">
        <ele>1064.2</ele>
        <time>2021-09-30T15:26:37Z</time>
      </trkpt>
      <trkpt lat="42.3801750" lon="-3.5312990">
        <ele>1064.4</ele>
        <time>2021-09-30T15:26:40Z</time>
      </trkpt>
      <trkpt lat="42.3801760" lon="-3.5313350">
        <ele>1064.4</ele>
        <time>2021-09-30T15:26:43Z</time>
      </trkpt>
      <trkpt lat="42.3800560" lon="-3.5322900">
        <ele>1072.2</ele>
        <time>2021-09-30T15:28:39Z</time>
      </trkpt>
      <trkpt lat="42.3800560" lon="-3.5324230">
        <ele>1072.4</ele>
        <time>2021-09-30T15:28:44Z</time>
      </trkpt>
      <trkpt lat="42.3800100" lon="-3.5326430">
        <ele>1072.6</ele>
        <time>2021-09-30T15:28:51Z</time>
      </trkpt>
      <trkpt lat="42.3799310" lon="-3.5328520">
        <ele>1073.2</ele>
        <time>2021-09-30T15:28:57Z</time>
      </trkpt>
      <trkpt lat="42.3798950" lon="-3.5331130">
        <ele>1073.4</ele>
        <time>2021-09-30T15:29:03Z</time>
      </trkpt>
      <trkpt lat="42.3798130" lon="-3.5335760">
        <ele>1074.6</ele>
        <time>2021-09-30T15:29:14Z</time>
      </trkpt>
      <trkpt lat="42.3796910" lon="-3.5340740">
        <ele>1075.4</ele>
        <time>2021-09-30T15:29:26Z</time>
      </trkpt>
      <trkpt lat="42.3796790" lon="-3.5341190">
        <ele>1075.6</ele>
        <time>2021-09-30T15:29:27Z</time>
      </trkpt>
      <trkpt lat="42.3794920" lon="-3.5346990">
        <ele>1076.8</ele>
        <time>2021-09-30T15:29:40Z</time>
      </trkpt>
      <trkpt lat="42.3792550" lon="-3.5351940">
        <ele>1077.2</ele>
        <time>2021-09-30T15:29:53Z</time>
      </trkpt>
      <trkpt lat="42.3791970" lon="-3.5353070">
        <ele>1077.2</ele>
        <time>2021-09-30T15:29:56Z</time>
      </trkpt>
      <trkpt lat="42.3791630" lon="-3.5353760">
        <ele>1077.2</ele>
        <time>2021-09-30T15:29:58Z</time>
      </trkpt>
      <trkpt lat="42.3790980" lon="-3.5355090">
        <ele>1076.8</ele>
        <time>2021-09-30T15:30:02Z</time>
      </trkpt>
      <trkpt lat="42.3790440" lon="-3.5356070">
        <ele>1076.6</ele>
        <time>2021-09-30T15:30:05Z</time>
      </trkpt>
      <trkpt lat="42.3789340" lon="-3.5358130">
        <ele>1075.6</ele>
        <time>2021-09-30T15:30:12Z</time>
      </trkpt>
      <trkpt lat="42.3787310" lon="-3.5361520">
        <ele>1074.6</ele>
        <time>2021-09-30T15:30:22Z</time>
      </trkpt>
      <trkpt lat="42.3786090" lon="-3.5362750">
        <ele>1073.0</ele>
        <time>2021-09-30T15:30:27Z</time>
      </trkpt>
      <trkpt lat="42.3785270" lon="-3.5363070">
        <ele>1072.0</ele>
        <time>2021-09-30T15:30:31Z</time>
      </trkpt>
      <trkpt lat="42.3784070" lon="-3.5364760">
        <ele>1070.6</ele>
        <time>2021-09-30T15:30:40Z</time>
      </trkpt>
      <trkpt lat="42.3783670" lon="-3.5365810">
        <ele>1069.6</ele>
        <time>2021-09-30T15:30:45Z</time>
      </trkpt>
      <trkpt lat="42.3783530" lon="-3.5365980">
        <ele>1069.4</ele>
        <time>2021-09-30T15:30:46Z</time>
      </trkpt>
      <trkpt lat="42.3782880" lon="-3.5366500">
        <ele>1068.6</ele>
        <time>2021-09-30T15:30:50Z</time>
      </trkpt>
      <trkpt lat="42.3782730" lon="-3.5366710">
        <ele>1068.4</ele>
        <time>2021-09-30T15:30:51Z</time>
      </trkpt>
      <trkpt lat="42.3782400" lon="-3.5367830">
        <ele>1067.2</ele>
        <time>2021-09-30T15:30:55Z</time>
      </trkpt>
      <trkpt lat="42.3781900" lon="-3.5369230">
        <ele>1066.2</ele>
        <time>2021-09-30T15:31:00Z</time>
      </trkpt>
      <trkpt lat="42.3781270" lon="-3.5370160">
        <ele>1065.0</ele>
        <time>2021-09-30T15:31:03Z</time>
      </trkpt>
      <trkpt lat="42.3780350" lon="-3.5371290">
        <ele>1063.8</ele>
        <time>2021-09-30T15:31:06Z</time>
      </trkpt>
      <trkpt lat="42.3779360" lon="-3.5372710">
        <ele>1062.4</ele>
        <time>2021-09-30T15:31:09Z</time>
      </trkpt>
      <trkpt lat="42.3779070" lon="-3.5373240">
        <ele>1061.8</ele>
        <time>2021-09-30T15:31:10Z</time>
      </trkpt>
      <trkpt lat="42.3778810" lon="-3.5373840">
        <ele>1061.2</ele>
        <time>2021-09-30T15:31:11Z</time>
      </trkpt>
      <trkpt lat="42.3777980" lon="-3.5375650">
        <ele>1059.8</ele>
        <time>2021-09-30T15:31:14Z</time>
      </trkpt>
      <trkpt lat="42.3777310" lon="-3.5376720">
        <ele>1057.8</ele>
        <time>2021-09-30T15:31:16Z</time>
      </trkpt>
      <trkpt lat="42.3776670" lon="-3.5377780">
        <ele>1056.4</ele>
        <time>2021-09-30T15:31:18Z</time>
      </trkpt>
      <trkpt lat="42.3776360" lon="-3.5378340">
        <ele>1055.2</ele>
        <time>2021-09-30T15:31:19Z</time>
      </trkpt>
      <trkpt lat="42.3775780" lon="-3.5379560">
        <ele>1053.8</ele>
        <time>2021-09-30T15:31:21Z</time>
      </trkpt>
      <trkpt lat="42.3775330" lon="-3.5380860">
        <ele>1052.8</ele>
        <time>2021-09-30T15:31:23Z</time>
      </trkpt>
      <trkpt lat="42.3775150" lon="-3.5381510">
        <ele>1052.2</ele>
        <time>2021-09-30T15:31:24Z</time>
      </trkpt>
      <trkpt lat="42.3775030" lon="-3.5382170">
        <ele>1051.4</ele>
        <time>2021-09-30T15:31:25Z</time>
      </trkpt>
      <trkpt lat="42.3774820" lon="-3.5383480">
        <ele>1050.2</ele>
        <time>2021-09-30T15:31:27Z</time>
      </trkpt>
      <trkpt lat="42.3774630" lon="-3.5384630">
        <ele>1048.6</ele>
        <time>2021-09-30T15:31:29Z</time>
      </trkpt>
      <trkpt lat="42.3774580" lon="-3.5385440">
        <ele>1047.4</ele>
        <time>2021-09-30T15:31:31Z</time>
      </trkpt>
      <trkpt lat="42.3774440" lon="-3.5386670">
        <ele>1046.0</ele>
        <time>2021-09-30T15:31:35Z</time>
      </trkpt>
      <trkpt lat="42.3774380" lon="-3.5387270">
        <ele>1045.2</ele>
        <time>2021-09-30T15:31:37Z</time>
      </trkpt>
      <trkpt lat="42.3774270" lon="-3.5387770">
        <ele>1045.0</ele>
        <time>2021-09-30T15:31:39Z</time>
      </trkpt>
      <trkpt lat="42.3774020" lon="-3.5388960">
        <ele>1043.6</ele>
        <time>2021-09-30T15:31:43Z</time>
      </trkpt>
      <trkpt lat="42.3773610" lon="-3.5391090">
        <ele>1042.2</ele>
        <time>2021-09-30T15:31:48Z</time>
      </trkpt>
      <trkpt lat="42.3773340" lon="-3.5392140">
        <ele>1041.2</ele>
        <time>2021-09-30T15:31:50Z</time>
      </trkpt>
      <trkpt lat="42.3773010" lon="-3.5393170">
        <ele>1040.2</ele>
        <time>2021-09-30T15:31:52Z</time>
      </trkpt>
      <trkpt lat="42.3772840" lon="-3.5393670">
        <ele>1039.4</ele>
        <time>2021-09-30T15:31:53Z</time>
      </trkpt>
      <trkpt lat="42.3772710" lon="-3.5394200">
        <ele>1038.8</ele>
        <time>2021-09-30T15:31:54Z</time>
      </trkpt>
      <trkpt lat="42.3772550" lon="-3.5395270">
        <ele>1037.8</ele>
        <time>2021-09-30T15:31:56Z</time>
      </trkpt>
      <trkpt lat="42.3772410" lon="-3.5396770">
        <ele>1036.8</ele>
        <time>2021-09-30T15:31:59Z</time>
      </trkpt>
      <trkpt lat="42.3772300" lon="-3.5397760">
        <ele>1035.6</ele>
        <time>2021-09-30T15:32:01Z</time>
      </trkpt>
      <trkpt lat="42.3772150" lon="-3.5398700">
        <ele>1034.6</ele>
        <time>2021-09-30T15:32:03Z</time>
      </trkpt>
      <trkpt lat="42.3772070" lon="-3.5400060">
        <ele>1033.6</ele>
        <time>2021-09-30T15:32:06Z</time>
      </trkpt>
      <trkpt lat="42.3772220" lon="-3.5401370">
        <ele>1032.0</ele>
        <time>2021-09-30T15:32:09Z</time>
      </trkpt>
      <trkpt lat="42.3772110" lon="-3.5402620">
        <ele>1030.4</ele>
        <time>2021-09-30T15:32:12Z</time>
      </trkpt>
      <trkpt lat="42.3772060" lon="-3.5404290">
        <ele>1029.0</ele>
        <time>2021-09-30T15:32:16Z</time>
      </trkpt>
      <trkpt lat="42.3772080" lon="-3.5405160">
        <ele>1027.8</ele>
        <time>2021-09-30T15:32:18Z</time>
      </trkpt>
      <trkpt lat="42.3772140" lon="-3.5407030">
        <ele>1026.8</ele>
        <time>2021-09-30T15:32:22Z</time>
      </trkpt>
      <trkpt lat="42.3772240" lon="-3.5409240">
        <ele>1025.4</ele>
        <time>2021-09-30T15:32:27Z</time>
      </trkpt>
      <trkpt lat="42.3772280" lon="-3.5410570">
        <ele>1024.6</ele>
        <time>2021-09-30T15:32:29Z</time>
      </trkpt>
      <trkpt lat="42.3772430" lon="-3.5411290">
        <ele>1024.2</ele>
        <time>2021-09-30T15:32:30Z</time>
      </trkpt>
      <trkpt lat="42.3772810" lon="-3.5413500">
        <ele>1022.8</ele>
        <time>2021-09-30T15:32:33Z</time>
      </trkpt>
      <trkpt lat="42.3772610" lon="-3.5415840">
        <ele>1020.8</ele>
        <time>2021-09-30T15:32:36Z</time>
      </trkpt>
      <trkpt lat="42.3772460" lon="-3.5416610">
        <ele>1020.0</ele>
        <time>2021-09-30T15:32:37Z</time>
      </trkpt>
      <trkpt lat="42.3772260" lon="-3.5417330">
        <ele>1019.2</ele>
        <time>2021-09-30T15:32:38Z</time>
      </trkpt>
      <trkpt lat="42.3771580" lon="-3.5419510">
        <ele>1018.2</ele>
        <time>2021-09-30T15:32:41Z</time>
      </trkpt>
      <trkpt lat="42.3771470" lon="-3.5421030">
        <ele>1017.0</ele>
        <time>2021-09-30T15:32:43Z</time>
      </trkpt>
      <trkpt lat="42.3771580" lon="-3.5422450">
        <ele>1016.6</ele>
        <time>2021-09-30T15:32:45Z</time>
      </trkpt>
      <trkpt lat="42.3771720" lon="-3.5425210">
        <ele>1016.0</ele>
        <time>2021-09-30T15:32:49Z</time>
      </trkpt>
      <trkpt lat="42.3771810" lon="-3.5427260">
        <ele>1015.8</ele>
        <time>2021-09-30T15:32:52Z</time>
      </trkpt>
      <trkpt lat="42.3772090" lon="-3.5429340">
        <ele>1015.4</ele>
        <time>2021-09-30T15:32:55Z</time>
      </trkpt>
      <trkpt lat="42.3772230" lon="-3.5433090">
        <ele>1015.0</ele>
        <time>2021-09-30T15:33:00Z</time>
      </trkpt>
      <trkpt lat="42.3772200" lon="-3.5435310">
        <ele>1014.6</ele>
        <time>2021-09-30T15:33:03Z</time>
      </trkpt>
      <trkpt lat="42.3772230" lon="-3.5436860">
        <ele>1014.4</ele>
        <time>2021-09-30T15:33:05Z</time>
      </trkpt>
      <trkpt lat="42.3772330" lon="-3.5441710">
        <ele>1014.0</ele>
        <time>2021-09-30T15:33:11Z</time>
      </trkpt>
      <trkpt lat="42.3772320" lon="-3.5442530">
        <ele>1013.8</ele>
        <time>2021-09-30T15:33:12Z</time>
      </trkpt>
      <trkpt lat="42.3772350" lon="-3.5444990">
        <ele>1012.2</ele>
        <time>2021-09-30T15:33:15Z</time>
      </trkpt>
      <trkpt lat="42.3772400" lon="-3.5446570">
        <ele>1010.4</ele>
        <time>2021-09-30T15:33:17Z</time>
      </trkpt>
      <trkpt lat="42.3772180" lon="-3.5451760">
        <ele>1009.4</ele>
        <time>2021-09-30T15:33:24Z</time>
      </trkpt>
      <trkpt lat="42.3771910" lon="-3.5453120">
        <ele>1009.4</ele>
        <time>2021-09-30T15:33:26Z</time>
      </trkpt>
      <trkpt lat="42.3771480" lon="-3.5455220">
        <ele>1009.2</ele>
        <time>2021-09-30T15:33:29Z</time>
      </trkpt>
      <trkpt lat="42.3771070" lon="-3.5457260">
        <ele>1009.0</ele>
        <time>2021-09-30T15:33:32Z</time>
      </trkpt>
      <trkpt lat="42.3770420" lon="-3.5460010">
        <ele>1008.6</ele>
        <time>2021-09-30T15:33:36Z</time>
      </trkpt>
      <trkpt lat="42.3769950" lon="-3.5462010">
        <ele>1008.2</ele>
        <time>2021-09-30T15:33:39Z</time>
      </trkpt>
      <trkpt lat="42.3769030" lon="-3.5465740">
        <ele>1007.8</ele>
        <time>2021-09-30T15:33:44Z</time>
      </trkpt>
      <trkpt lat="42.3767920" lon="-3.5469630">
        <ele>1007.2</ele>
        <time>2021-09-30T15:33:49Z</time>
      </trkpt>
      <trkpt lat="42.3767330" lon="-3.5471910">
        <ele>1005.4</ele>
        <time>2021-09-30T15:33:52Z</time>
      </trkpt>
      <trkpt lat="42.3766250" lon="-3.5476330">
        <ele>1004.2</ele>
        <time>2021-09-30T15:33:58Z</time>
      </trkpt>
      <trkpt lat="42.3764460" lon="-3.5483440">
        <ele>1003.2</ele>
        <time>2021-09-30T15:34:08Z</time>
      </trkpt>
      <trkpt lat="42.3764310" lon="-3.5484090">
        <ele>1003.2</ele>
        <time>2021-09-30T15:34:09Z</time>
      </trkpt>
      <trkpt lat="42.3762390" lon="-3.5490960">
        <ele>1002.6</ele>
        <time>2021-09-30T15:34:19Z</time>
      </trkpt>
      <trkpt lat="42.3761800" lon="-3.5493090">
        <ele>1002.0</ele>
        <time>2021-09-30T15:34:22Z</time>
      </trkpt>
      <trkpt lat="42.3760920" lon="-3.5495860">
        <ele>1000.6</ele>
        <time>2021-09-30T15:34:26Z</time>
      </trkpt>
      <trkpt lat="42.3759920" lon="-3.5499080">
        <ele>999.6</ele>
        <time>2021-09-30T15:34:31Z</time>
      </trkpt>
      <trkpt lat="42.3757670" lon="-3.5505830">
        <ele>998.8</ele>
        <time>2021-09-30T15:34:42Z</time>
      </trkpt>
      <trkpt lat="42.3757490" lon="-3.5506490">
        <ele>998.6</ele>
        <time>2021-09-30T15:34:43Z</time>
      </trkpt>
      <trkpt lat="42.3756930" lon="-3.5508450">
        <ele>998.2</ele>
        <time>2021-09-30T15:34:46Z</time>
      </trkpt>
      <trkpt lat="42.3756410" lon="-3.5509680">
        <ele>998.0</ele>
        <time>2021-09-30T15:34:48Z</time>
      </trkpt>
      <trkpt lat="42.3753850" lon="-3.5512890">
        <ele>997.6</ele>
        <time>2021-09-30T15:34:54Z</time>
      </trkpt>
      <trkpt lat="42.3751330" lon="-3.5515930">
        <ele>996.2</ele>
        <time>2021-09-30T15:34:59Z</time>
      </trkpt>
      <trkpt lat="42.3750310" lon="-3.5517290">
        <ele>994.4</ele>
        <time>2021-09-30T15:35:01Z</time>
      </trkpt>
      <trkpt lat="42.3748830" lon="-3.5519470">
        <ele>993.4</ele>
        <time>2021-09-30T15:35:04Z</time>
      </trkpt>
      <trkpt lat="42.3746630" lon="-3.5523260">
        <ele>992.0</ele>
        <time>2021-09-30T15:35:09Z</time>
      </trkpt>
      <trkpt lat="42.3745820" lon="-3.5524870">
        <ele>991.0</ele>
        <time>2021-09-30T15:35:11Z</time>
      </trkpt>
      <trkpt lat="42.3744210" lon="-3.5528240">
        <ele>990.0</ele>
        <time>2021-09-30T15:35:15Z</time>
      </trkpt>
      <trkpt lat="42.3741420" lon="-3.5534540">
        <ele>988.8</ele>
        <time>2021-09-30T15:35:22Z</time>
      </trkpt>
      <trkpt lat="42.3740300" lon="-3.5537230">
        <ele>988.0</ele>
        <time>2021-09-30T15:35:25Z</time>
      </trkpt>
      <trkpt lat="42.3739970" lon="-3.5538130">
        <ele>987.6</ele>
        <time>2021-09-30T15:35:26Z</time>
      </trkpt>
      <trkpt lat="42.3739190" lon="-3.5540590">
        <ele>987.2</ele>
        <time>2021-09-30T15:35:29Z</time>
      </trkpt>
      <trkpt lat="42.3737090" lon="-3.5541700">
        <ele>987.0</ele>
        <time>2021-09-30T15:35:34Z</time>
      </trkpt>
      <trkpt lat="42.3735800" lon="-3.5541260">
        <ele>986.6</ele>
        <time>2021-09-30T15:35:36Z</time>
      </trkpt>
      <trkpt lat="42.3732820" lon="-3.5539900">
        <ele>986.2</ele>
        <time>2021-09-30T15:35:40Z</time>
      </trkpt>
      <trkpt lat="42.3729390" lon="-3.5539380">
        <ele>985.4</ele>
        <time>2021-09-30T15:35:44Z</time>
      </trkpt>
      <trkpt lat="42.3727650" lon="-3.5539230">
        <ele>983.8</ele>
        <time>2021-09-30T15:35:46Z</time>
      </trkpt>
      <trkpt lat="42.3725900" lon="-3.5539030">
        <ele>982.0</ele>
        <time>2021-09-30T15:35:48Z</time>
      </trkpt>
      <trkpt lat="42.3724100" lon="-3.5538810">
        <ele>980.6</ele>
        <time>2021-09-30T15:35:50Z</time>
      </trkpt>
      <trkpt lat="42.3721310" lon="-3.5538580">
        <ele>979.2</ele>
        <time>2021-09-30T15:35:53Z</time>
      </trkpt>
      <trkpt lat="42.3720330" lon="-3.5538580">
        <ele>979.0</ele>
        <time>2021-09-30T15:35:54Z</time>
      </trkpt>
      <trkpt lat="42.3718340" lon="-3.5538940">
        <ele>977.8</ele>
        <time>2021-09-30T15:35:56Z</time>
      </trkpt>
      <trkpt lat="42.3716300" lon="-3.5539620">
        <ele>976.6</ele>
        <time>2021-09-30T15:35:58Z</time>
      </trkpt>
      <trkpt lat="42.3714300" lon="-3.5540600">
        <ele>975.2</ele>
        <time>2021-09-30T15:36:00Z</time>
      </trkpt>
      <trkpt lat="42.3712380" lon="-3.5541900">
        <ele>973.2</ele>
        <time>2021-09-30T15:36:02Z</time>
      </trkpt>
      <trkpt lat="42.3711450" lon="-3.5542570">
        <ele>972.0</ele>
        <time>2021-09-30T15:36:03Z</time>
      </trkpt>
      <trkpt lat="42.3710540" lon="-3.5543250">
        <ele>970.6</ele>
        <time>2021-09-30T15:36:04Z</time>
      </trkpt>
      <trkpt lat="42.3709630" lon="-3.5543920">
        <ele>968.8</ele>
        <time>2021-09-30T15:36:05Z</time>
      </trkpt>
      <trkpt lat="42.3708720" lon="-3.5544550">
        <ele>967.4</ele>
        <time>2021-09-30T15:36:06Z</time>
      </trkpt>
      <trkpt lat="42.3706950" lon="-3.5545570">
        <ele>965.8</ele>
        <time>2021-09-30T15:36:08Z</time>
      </trkpt>
      <trkpt lat="42.3705170" lon="-3.5546190">
        <ele>963.6</ele>
        <time>2021-09-30T15:36:10Z</time>
      </trkpt>
      <trkpt lat="42.3699560" lon="-3.5544940">
        <ele>962.8</ele>
        <time>2021-09-30T15:36:16Z</time>
      </trkpt>
      <trkpt lat="42.3698760" lon="-3.5544450">
        <ele>962.4</ele>
        <time>2021-09-30T15:36:17Z</time>
      </trkpt>
      <trkpt lat="42.3697250" lon="-3.5543480">
        <ele>961.0</ele>
        <time>2021-09-30T15:36:19Z</time>
      </trkpt>
      <trkpt lat="42.3695960" lon="-3.5542550">
        <ele>959.4</ele>
        <time>2021-09-30T15:36:21Z</time>
      </trkpt>
      <trkpt lat="42.3695400" lon="-3.5542210">
        <ele>958.8</ele>
        <time>2021-09-30T15:36:22Z</time>
      </trkpt>
      <trkpt lat="42.3694820" lon="-3.5542090">
        <ele>958.2</ele>
        <time>2021-09-30T15:36:23Z</time>
      </trkpt>
      <trkpt lat="42.3692690" lon="-3.5543760">
        <ele>957.2</ele>
        <time>2021-09-30T15:36:27Z</time>
      </trkpt>
      <trkpt lat="42.3692240" lon="-3.5544600">
        <ele>957.2</ele>
        <time>2021-09-30T15:36:28Z</time>
      </trkpt>
      <trkpt lat="42.3691790" lon="-3.5545560">
        <ele>957.2</ele>
        <time>2021-09-30T15:36:29Z</time>
      </trkpt>
      <trkpt lat="42.3689930" lon="-3.5549890">
        <ele>956.0</ele>
        <time>2021-09-30T15:36:33Z</time>
      </trkpt>
      <trkpt lat="42.3689100" lon="-3.5552010">
        <ele>953.6</ele>
        <time>2021-09-30T15:36:35Z</time>
      </trkpt>
      <trkpt lat="42.3688730" lon="-3.5553020">
        <ele>951.8</ele>
        <time>2021-09-30T15:36:36Z</time>
      </trkpt>
      <trkpt lat="42.3688340" lon="-3.5553960">
        <ele>950.2</ele>
        <time>2021-09-30T15:36:37Z</time>
      </trkpt>
      <trkpt lat="42.3687940" lon="-3.5554850">
        <ele>948.8</ele>
        <time>2021-09-30T15:36:38Z</time>
      </trkpt>
      <trkpt lat="42.3687550" lon="-3.5555710">
        <ele>947.4</ele>
        <time>2021-09-30T15:36:39Z</time>
      </trkpt>
      <trkpt lat="42.3686760" lon="-3.5557450">
        <ele>946.2</ele>
        <time>2021-09-30T15:36:41Z</time>
      </trkpt>
      <trkpt lat="42.3685500" lon="-3.5560130">
        <ele>944.6</ele>
        <time>2021-09-30T15:36:44Z</time>
      </trkpt>
      <trkpt lat="42.3683030" lon="-3.5564510">
        <ele>943.6</ele>
        <time>2021-09-30T15:36:49Z</time>
      </trkpt>
      <trkpt lat="42.3678940" lon="-3.5570130">
        <ele>943.4</ele>
        <time>2021-09-30T15:36:56Z</time>
      </trkpt>
      <trkpt lat="42.3676340" lon="-3.5572900">
        <ele>943.0</ele>
        <time>2021-09-30T15:37:00Z</time>
      </trkpt>
      <trkpt lat="42.3674010" lon="-3.5574150">
        <ele>942.6</ele>
        <time>2021-09-30T15:37:03Z</time>
      </trkpt>
      <trkpt lat="42.3667990" lon="-3.5575430">
        <ele>941.8</ele>
        <time>2021-09-30T15:37:10Z</time>
      </trkpt>
      <trkpt lat="42.3666210" lon="-3.5575400">
        <ele>941.4</ele>
        <time>2021-09-30T15:37:12Z</time>
      </trkpt>
      <trkpt lat="42.3661820" lon="-3.5575080">
        <ele>940.2</ele>
        <time>2021-09-30T15:37:17Z</time>
      </trkpt>
      <trkpt lat="42.3658370" lon="-3.5574820">
        <ele>939.6</ele>
        <time>2021-09-30T15:37:21Z</time>
      </trkpt>
      <trkpt lat="42.3655870" lon="-3.5574430">
        <ele>939.4</ele>
        <time>2021-09-30T15:37:24Z</time>
      </trkpt>
      <trkpt lat="42.3653400" lon="-3.5573670">
        <ele>939.2</ele>
        <time>2021-09-30T15:37:27Z</time>
      </trkpt>
      <trkpt lat="42.3651770" lon="-3.5572950">
        <ele>939.2</ele>
        <time>2021-09-30T15:37:29Z</time>
      </trkpt>
      <trkpt lat="42.3649420" lon="-3.5571640">
        <ele>939.0</ele>
        <time>2021-09-30T15:37:32Z</time>
      </trkpt>
      <trkpt lat="42.3647180" lon="-3.5570150">
        <ele>938.4</ele>
        <time>2021-09-30T15:37:35Z</time>
      </trkpt>
      <trkpt lat="42.3645710" lon="-3.5569130">
        <ele>938.0</ele>
        <time>2021-09-30T15:37:37Z</time>
      </trkpt>
      <trkpt lat="42.3641640" lon="-3.5565630">
        <ele>937.2</ele>
        <time>2021-09-30T15:37:43Z</time>
      </trkpt>
      <trkpt lat="42.3637510" lon="-3.5561170">
        <ele>936.4</ele>
        <time>2021-09-30T15:37:50Z</time>
      </trkpt>
      <trkpt lat="42.3636940" lon="-3.5560580">
        <ele>936.2</ele>
        <time>2021-09-30T15:37:51Z</time>
      </trkpt>
      <trkpt lat="42.3634700" lon="-3.5558230">
        <ele>935.2</ele>
        <time>2021-09-30T15:37:55Z</time>
      </trkpt>
      <trkpt lat="42.3634130" lon="-3.5557640">
        <ele>935.0</ele>
        <time>2021-09-30T15:37:56Z</time>
      </trkpt>
      <trkpt lat="42.3632940" lon="-3.5556450">
        <ele>934.8</ele>
        <time>2021-09-30T15:37:58Z</time>
      </trkpt>
      <trkpt lat="42.3632300" lon="-3.5555920">
        <ele>934.6</ele>
        <time>2021-09-30T15:37:59Z</time>
      </trkpt>
      <trkpt lat="42.3629440" lon="-3.5554550">
        <ele>934.0</ele>
        <time>2021-09-30T15:38:03Z</time>
      </trkpt>
      <trkpt lat="42.3626380" lon="-3.5554560">
        <ele>933.2</ele>
        <time>2021-09-30T15:38:07Z</time>
      </trkpt>
      <trkpt lat="42.3622580" lon="-3.5555420">
        <ele>933.0</ele>
        <time>2021-09-30T15:38:12Z</time>
      </trkpt>
      <trkpt lat="42.3616900" lon="-3.5557540">
        <ele>932.8</ele>
        <time>2021-09-30T15:38:20Z</time>
      </trkpt>
      <trkpt lat="42.3612020" lon="-3.5561610">
        <ele>932.8</ele>
        <time>2021-09-30T15:38:29Z</time>
      </trkpt>
      <trkpt lat="42.3609400" lon="-3.5564370">
        <ele>932.8</ele>
        <time>2021-09-30T15:38:34Z</time>
      </trkpt>
      <trkpt lat="42.3608880" lon="-3.5564980">
        <ele>932.8</ele>
        <time>2021-09-30T15:38:35Z</time>
      </trkpt>
      <trkpt lat="42.3608340" lon="-3.5565570">
        <ele>932.8</ele>
        <time>2021-09-30T15:38:36Z</time>
      </trkpt>
      <trkpt lat="42.3606240" lon="-3.5567950">
        <ele>932.2</ele>
        <time>2021-09-30T15:38:40Z</time>
      </trkpt>
      <trkpt lat="42.3605720" lon="-3.5568550">
        <ele>932.0</ele>
        <time>2021-09-30T15:38:41Z</time>
      </trkpt>
      <trkpt lat="42.3604680" lon="-3.5569740">
        <ele>931.2</ele>
        <time>2021-09-30T15:38:43Z</time>
      </trkpt>
      <trkpt lat="42.3604190" lon="-3.5570350">
        <ele>930.8</ele>
        <time>2021-09-30T15:38:44Z</time>
      </trkpt>
      <trkpt lat="42.3603280" lon="-3.5571650">
        <ele>930.2</ele>
        <time>2021-09-30T15:38:46Z</time>
      </trkpt>
      <trkpt lat="42.3601890" lon="-3.5574620">
        <ele>930.0</ele>
        <time>2021-09-30T15:38:50Z</time>
      </trkpt>
      <trkpt lat="42.3601310" lon="-3.5576230">
        <ele>929.8</ele>
        <time>2021-09-30T15:38:52Z</time>
      </trkpt>
      <trkpt lat="42.3600750" lon="-3.5577850">
        <ele>929.8</ele>
        <time>2021-09-30T15:38:54Z</time>
      </trkpt>
      <trkpt lat="42.3600020" lon="-3.5580310">
        <ele>929.8</ele>
        <time>2021-09-30T15:38:57Z</time>
      </trkpt>
      <trkpt lat="42.3599080" lon="-3.5583690">
        <ele>929.8</ele>
        <time>2021-09-30T15:39:01Z</time>
      </trkpt>
      <trkpt lat="42.3598830" lon="-3.5584560">
        <ele>929.6</ele>
        <time>2021-09-30T15:39:02Z</time>
      </trkpt>
      <trkpt lat="42.3598020" lon="-3.5587170">
        <ele>929.6</ele>
        <time>2021-09-30T15:39:05Z</time>
      </trkpt>
      <trkpt lat="42.3597110" lon="-3.5589800">
        <ele>929.4</ele>
        <time>2021-09-30T15:39:08Z</time>
      </trkpt>
      <trkpt lat="42.3595360" lon="-3.5594920">
        <ele>929.0</ele>
        <time>2021-09-30T15:39:14Z</time>
      </trkpt>
      <trkpt lat="42.3594670" lon="-3.5596490">
        <ele>929.0</ele>
        <time>2021-09-30T15:39:16Z</time>
      </trkpt>
      <trkpt lat="42.3593870" lon="-3.5597910">
        <ele>929.0</ele>
        <time>2021-09-30T15:39:18Z</time>
      </trkpt>
      <trkpt lat="42.3593090" lon="-3.5599210">
        <ele>928.8</ele>
        <time>2021-09-30T15:39:20Z</time>
      </trkpt>
      <trkpt lat="42.3592710" lon="-3.5599720">
        <ele>928.8</ele>
        <time>2021-09-30T15:39:21Z</time>
      </trkpt>
      <trkpt lat="42.3592310" lon="-3.5600140">
        <ele>928.6</ele>
        <time>2021-09-30T15:39:22Z</time>
      </trkpt>
      <trkpt lat="42.3591970" lon="-3.5600630">
        <ele>928.4</ele>
        <time>2021-09-30T15:39:23Z</time>
      </trkpt>
      <trkpt lat="42.3591180" lon="-3.5602610">
        <ele>928.4</ele>
        <time>2021-09-30T15:39:26Z</time>
      </trkpt>
      <trkpt lat="42.3590400" lon="-3.5604790">
        <ele>928.0</ele>
        <time>2021-09-30T15:39:29Z</time>
      </trkpt>
      <trkpt lat="42.3587980" lon="-3.5611570">
        <ele>927.8</ele>
        <time>2021-09-30T15:39:39Z</time>
      </trkpt>
      <trkpt lat="42.3587400" lon="-3.5612990">
        <ele>927.6</ele>
        <time>2021-09-30T15:39:41Z</time>
      </trkpt>
      <trkpt lat="42.3585770" lon="-3.5618450">
        <ele>927.0</ele>
        <time>2021-09-30T15:39:48Z</time>
      </trkpt>
      <trkpt lat="42.3585450" lon="-3.5620070">
        <ele>926.4</ele>
        <time>2021-09-30T15:39:50Z</time>
      </trkpt>
      <trkpt lat="42.3585100" lon="-3.5627230">
        <ele>925.6</ele>
        <time>2021-09-30T15:39:58Z</time>
      </trkpt>
      <trkpt lat="42.3585320" lon="-3.5628930">
        <ele>925.6</ele>
        <time>2021-09-30T15:40:00Z</time>
      </trkpt>
      <trkpt lat="42.3586730" lon="-3.5636570">
        <ele>925.6</ele>
        <time>2021-09-30T15:40:09Z</time>
      </trkpt>
      <trkpt lat="42.3587890" lon="-3.5643730">
        <ele>925.6</ele>
        <time>2021-09-30T15:40:17Z</time>
      </trkpt>
      <trkpt lat="42.3587950" lon="-3.5645570">
        <ele>925.4</ele>
        <time>2021-09-30T15:40:19Z</time>
      </trkpt>
      <trkpt lat="42.3587940" lon="-3.5648310">
        <ele>924.4</ele>
        <time>2021-09-30T15:40:22Z</time>
      </trkpt>
      <trkpt lat="42.3586930" lon="-3.5656220">
        <ele>923.4</ele>
        <time>2021-09-30T15:40:31Z</time>
      </trkpt>
      <trkpt lat="42.3586690" lon="-3.5657070">
        <ele>923.2</ele>
        <time>2021-09-30T15:40:32Z</time>
      </trkpt>
      <trkpt lat="42.3585380" lon="-3.5661360">
        <ele>922.4</ele>
        <time>2021-09-30T15:40:37Z</time>
      </trkpt>
      <trkpt lat="42.3585160" lon="-3.5664200">
        <ele>922.2</ele>
        <time>2021-09-30T15:40:40Z</time>
      </trkpt>
      <trkpt lat="42.3585120" lon="-3.5671030">
        <ele>922.2</ele>
        <time>2021-09-30T15:40:47Z</time>
      </trkpt>
      <trkpt lat="42.3585350" lon="-3.5678810">
        <ele>922.2</ele>
        <time>2021-09-30T15:40:55Z</time>
      </trkpt>
      <trkpt lat="42.3586840" lon="-3.5686420">
        <ele>922.0</ele>
        <time>2021-09-30T15:41:03Z</time>
      </trkpt>
      <trkpt lat="42.3589130" lon="-3.5693590">
        <ele>922.2</ele>
        <time>2021-09-30T15:41:11Z</time>
      </trkpt>
      <trkpt lat="42.3590820" lon="-3.5701310">
        <ele>922.2</ele>
        <time>2021-09-30T15:41:19Z</time>
      </trkpt>
      <trkpt lat="42.3591600" lon="-3.5709340">
        <ele>921.8</ele>
        <time>2021-09-30T15:41:27Z</time>
      </trkpt>
      <trkpt lat="42.3591900" lon="-3.5712340">
        <ele>921.2</ele>
        <time>2021-09-30T15:41:30Z</time>
      </trkpt>
      <trkpt lat="42.3592450" lon="-3.5716230">
        <ele>920.0</ele>
        <time>2021-09-30T15:41:34Z</time>
      </trkpt>
      <trkpt lat="42.3594260" lon="-3.5723560">
        <ele>919.6</ele>
        <time>2021-09-30T15:41:42Z</time>
      </trkpt>
      <trkpt lat="42.3595570" lon="-3.5730840">
        <ele>919.2</ele>
        <time>2021-09-30T15:41:50Z</time>
      </trkpt>
      <trkpt lat="42.3595890" lon="-3.5734550">
        <ele>918.8</ele>
        <time>2021-09-30T15:41:54Z</time>
      </trkpt>
      <trkpt lat="42.3596430" lon="-3.5741860">
        <ele>918.2</ele>
        <time>2021-09-30T15:42:02Z</time>
      </trkpt>
      <trkpt lat="42.3596790" lon="-3.5746390">
        <ele>917.8</ele>
        <time>2021-09-30T15:42:07Z</time>
      </trkpt>
      <trkpt lat="42.3597130" lon="-3.5754430">
        <ele>917.0</ele>
        <time>2021-09-30T15:42:16Z</time>
      </trkpt>
      <trkpt lat="42.3597090" lon="-3.5757110">
        <ele>916.8</ele>
        <time>2021-09-30T15:42:19Z</time>
      </trkpt>
      <trkpt lat="42.3595820" lon="-3.5765110">
        <ele>916.8</ele>
        <time>2021-09-30T15:42:28Z</time>
      </trkpt>
      <trkpt lat="42.3595350" lon="-3.5772620">
        <ele>917.0</ele>
        <time>2021-09-30T15:42:36Z</time>
      </trkpt>
      <trkpt lat="42.3595830" lon="-3.5779050">
        <ele>915.8</ele>
        <time>2021-09-30T15:42:43Z</time>
      </trkpt>
      <trkpt lat="42.3596510" lon="-3.5787110">
        <ele>914.6</ele>
        <time>2021-09-30T15:42:52Z</time>
      </trkpt>
      <trkpt lat="42.3596470" lon="-3.5794940">
        <ele>914.6</ele>
        <time>2021-09-30T15:43:01Z</time>
      </trkpt>
      <trkpt lat="42.3596640" lon="-3.5802850">
        <ele>915.0</ele>
        <time>2021-09-30T15:43:10Z</time>
      </trkpt>
      <trkpt lat="42.3597560" lon="-3.5810690">
        <ele>915.2</ele>
        <time>2021-09-30T15:43:19Z</time>
      </trkpt>
      <trkpt lat="42.3598700" lon="-3.5818120">
        <ele>915.0</ele>
        <time>2021-09-30T15:43:28Z</time>
      </trkpt>
      <trkpt lat="42.3600970" lon="-3.5823720">
        <ele>915.0</ele>
        <time>2021-09-30T15:43:36Z</time>
      </trkpt>
      <trkpt lat="42.3602600" lon="-3.5826990">
        <ele>915.2</ele>
        <time>2021-09-30T15:43:41Z</time>
      </trkpt>
      <trkpt lat="42.3604270" lon="-3.5831670">
        <ele>915.8</ele>
        <time>2021-09-30T15:43:48Z</time>
      </trkpt>
      <trkpt lat="42.3604300" lon="-3.5834580">
        <ele>916.0</ele>
        <time>2021-09-30T15:43:52Z</time>
      </trkpt>
      <trkpt lat="42.3604220" lon="-3.5835300">
        <ele>916.0</ele>
        <time>2021-09-30T15:43:53Z</time>
      </trkpt>
      <trkpt lat="42.3603440" lon="-3.5839040">
        <ele>916.0</ele>
        <time>2021-09-30T15:43:58Z</time>
      </trkpt>
      <trkpt lat="42.3603110" lon="-3.5840570">
        <ele>916.0</ele>
        <time>2021-09-30T15:44:00Z</time>
      </trkpt>
      <trkpt lat="42.3602480" lon="-3.5842890">
        <ele>915.6</ele>
        <time>2021-09-30T15:44:03Z</time>
      </trkpt>
      <trkpt lat="42.3602030" lon="-3.5844470">
        <ele>914.8</ele>
        <time>2021-09-30T15:44:05Z</time>
      </trkpt>
      <trkpt lat="42.3601040" lon="-3.5847770">
        <ele>914.0</ele>
        <time>2021-09-30T15:44:09Z</time>
      </trkpt>
      <trkpt lat="42.3600560" lon="-3.5849400">
        <ele>913.8</ele>
        <time>2021-09-30T15:44:11Z</time>
      </trkpt>
      <trkpt lat="42.3600220" lon="-3.5851000">
        <ele>913.2</ele>
        <time>2021-09-30T15:44:13Z</time>
      </trkpt>
      <trkpt lat="42.3600440" lon="-3.5853370">
        <ele>912.8</ele>
        <time>2021-09-30T15:44:16Z</time>
      </trkpt>
      <trkpt lat="42.3600830" lon="-3.5855680">
        <ele>912.4</ele>
        <time>2021-09-30T15:44:19Z</time>
      </trkpt>
      <trkpt lat="42.3601640" lon="-3.5861150">
        <ele>912.4</ele>
        <time>2021-09-30T15:44:26Z</time>
      </trkpt>
      <trkpt lat="42.3602190" lon="-3.5865320">
        <ele>912.0</ele>
        <time>2021-09-30T15:44:31Z</time>
      </trkpt>
      <trkpt lat="42.3602530" lon="-3.5869690">
        <ele>912.0</ele>
        <time>2021-09-30T15:44:36Z</time>
      </trkpt>
      <trkpt lat="42.3602580" lon="-3.5870580">
        <ele>911.8</ele>
        <time>2021-09-30T15:44:37Z</time>
      </trkpt>
      <trkpt lat="42.3602650" lon="-3.5873280">
        <ele>910.8</ele>
        <time>2021-09-30T15:44:40Z</time>
      </trkpt>
      <trkpt lat="42.3603970" lon="-3.5881160">
        <ele>909.8</ele>
        <time>2021-09-30T15:44:49Z</time>
      </trkpt>
      <trkpt lat="42.3604190" lon="-3.5882010">
        <ele>909.8</ele>
        <time>2021-09-30T15:44:50Z</time>
      </trkpt>
      <trkpt lat="42.3606300" lon="-3.5889580">
        <ele>909.0</ele>
        <time>2021-09-30T15:44:59Z</time>
      </trkpt>
      <trkpt lat="42.3607700" lon="-3.5894540">
        <ele>908.6</ele>
        <time>2021-09-30T15:45:05Z</time>
      </trkpt>
      <trkpt lat="42.3609630" lon="-3.5902010">
        <ele>908.4</ele>
        <time>2021-09-30T15:45:14Z</time>
      </trkpt>
      <trkpt lat="42.3610960" lon="-3.5909930">
        <ele>907.8</ele>
        <time>2021-09-30T15:45:23Z</time>
      </trkpt>
      <trkpt lat="42.3611380" lon="-3.5913770">
        <ele>907.8</ele>
        <time>2021-09-30T15:45:27Z</time>
      </trkpt>
      <trkpt lat="42.3611730" lon="-3.5917590">
        <ele>907.8</ele>
        <time>2021-09-30T15:45:31Z</time>
      </trkpt>
      <trkpt lat="42.3611940" lon="-3.5919300">
        <ele>907.8</ele>
        <time>2021-09-30T15:45:33Z</time>
      </trkpt>
      <trkpt lat="42.3612400" lon="-3.5921590">
        <ele>907.8</ele>
        <time>2021-09-30T15:45:36Z</time>
      </trkpt>
      <trkpt lat="42.3613220" lon="-3.5924270">
        <ele>909.2</ele>
        <time>2021-09-30T15:45:40Z</time>
      </trkpt>
      <trkpt lat="42.3613450" lon="-3.5924880">
        <ele>910.0</ele>
        <time>2021-09-30T15:45:41Z</time>
      </trkpt>
      <trkpt lat="42.3613980" lon="-3.5926010">
        <ele>911.4</ele>
        <time>2021-09-30T15:45:43Z</time>
      </trkpt>
      <trkpt lat="42.3614570" lon="-3.5927120">
        <ele>912.6</ele>
        <time>2021-09-30T15:45:45Z</time>
      </trkpt>
      <trkpt lat="42.3615180" lon="-3.5928240">
        <ele>913.8</ele>
        <time>2021-09-30T15:45:47Z</time>
      </trkpt>
      <trkpt lat="42.3615730" lon="-3.5929360">
        <ele>915.2</ele>
        <time>2021-09-30T15:45:49Z</time>
      </trkpt>
      <trkpt lat="42.3616530" lon="-3.5930890">
        <ele>916.2</ele>
        <time>2021-09-30T15:45:52Z</time>
      </trkpt>
      <trkpt lat="42.3618110" lon="-3.5933910">
        <ele>917.4</ele>
        <time>2021-09-30T15:45:58Z</time>
      </trkpt>
      <trkpt lat="42.3619810" lon="-3.5937320">
        <ele>918.0</ele>
        <time>2021-09-30T15:46:04Z</time>
      </trkpt>
      <trkpt lat="42.3621450" lon="-3.5942510">
        <ele>917.8</ele>
        <time>2021-09-30T15:46:11Z</time>
      </trkpt>
      <trkpt lat="42.3621830" lon="-3.5945240">
        <ele>917.6</ele>
        <time>2021-09-30T15:46:14Z</time>
      </trkpt>
      <trkpt lat="42.3621860" lon="-3.5947130">
        <ele>917.2</ele>
        <time>2021-09-30T15:46:16Z</time>
      </trkpt>
      <trkpt lat="42.3621620" lon="-3.5950830">
        <ele>916.2</ele>
        <time>2021-09-30T15:46:20Z</time>
      </trkpt>
      <trkpt lat="42.3621510" lon="-3.5952670">
        <ele>915.0</ele>
        <time>2021-09-30T15:46:22Z</time>
      </trkpt>
      <trkpt lat="42.3621990" lon="-3.5958000">
        <ele>914.0</ele>
        <time>2021-09-30T15:46:28Z</time>
      </trkpt>
      <trkpt lat="42.3622160" lon="-3.5958860">
        <ele>914.0</ele>
        <time>2021-09-30T15:46:29Z</time>
      </trkpt>
      <trkpt lat="42.3623040" lon="-3.5962280">
        <ele>913.8</ele>
        <time>2021-09-30T15:46:33Z</time>
      </trkpt>
      <trkpt lat="42.3623960" lon="-3.5964810">
        <ele>913.6</ele>
        <time>2021-09-30T15:46:36Z</time>
      </trkpt>
      <trkpt lat="42.3625170" lon="-3.5967420">
        <ele>913.2</ele>
        <time>2021-09-30T15:46:39Z</time>
      </trkpt>
      <trkpt lat="42.3625620" lon="-3.5968340">
        <ele>913.0</ele>
        <time>2021-09-30T15:46:40Z</time>
      </trkpt>
      <trkpt lat="42.3626550" lon="-3.5970340">
        <ele>912.0</ele>
        <time>2021-09-30T15:46:42Z</time>
      </trkpt>
      <trkpt lat="42.3627020" lon="-3.5971400">
        <ele>911.4</ele>
        <time>2021-09-30T15:46:43Z</time>
      </trkpt>
      <trkpt lat="42.3627970" lon="-3.5973600">
        <ele>910.0</ele>
        <time>2021-09-30T15:46:45Z</time>
      </trkpt>
      <trkpt lat="42.3628840" lon="-3.5975830">
        <ele>909.0</ele>
        <time>2021-09-30T15:46:47Z</time>
      </trkpt>
      <trkpt lat="42.3629630" lon="-3.5977960">
        <ele>907.8</ele>
        <time>2021-09-30T15:46:49Z</time>
      </trkpt>
      <trkpt lat="42.3630350" lon="-3.5980050">
        <ele>906.2</ele>
        <time>2021-09-30T15:46:51Z</time>
      </trkpt>
      <trkpt lat="42.3630680" lon="-3.5981070">
        <ele>905.2</ele>
        <time>2021-09-30T15:46:52Z</time>
      </trkpt>
      <trkpt lat="42.3631920" lon="-3.5984900">
        <ele>904.2</ele>
        <time>2021-09-30T15:46:56Z</time>
      </trkpt>
      <trkpt lat="42.3632180" lon="-3.5985800">
        <ele>904.2</ele>
        <time>2021-09-30T15:46:57Z</time>
      </trkpt>
      <trkpt lat="42.3632800" lon="-3.5988410">
        <ele>904.2</ele>
        <time>2021-09-30T15:47:00Z</time>
      </trkpt>
      <trkpt lat="42.3633190" lon="-3.5990890">
        <ele>904.6</ele>
        <time>2021-09-30T15:47:03Z</time>
      </trkpt>
      <trkpt lat="42.3633280" lon="-3.5991700">
        <ele>905.6</ele>
        <time>2021-09-30T15:47:04Z</time>
      </trkpt>
      <trkpt lat="42.3633580" lon="-3.5994130">
        <ele>906.4</ele>
        <time>2021-09-30T15:47:07Z</time>
      </trkpt>
      <trkpt lat="42.3633670" lon="-3.5994960">
        <ele>906.6</ele>
        <time>2021-09-30T15:47:08Z</time>
      </trkpt>
      <trkpt lat="42.3634370" lon="-3.5999870">
        <ele>907.0</ele>
        <time>2021-09-30T15:47:14Z</time>
      </trkpt>
      <trkpt lat="42.3635190" lon="-3.6003110">
        <ele>907.2</ele>
        <time>2021-09-30T15:47:18Z</time>
      </trkpt>
      <trkpt lat="42.3637500" lon="-3.6008900">
        <ele>907.0</ele>
        <time>2021-09-30T15:47:25Z</time>
      </trkpt>
      <trkpt lat="42.3639390" lon="-3.6011900">
        <ele>907.0</ele>
        <time>2021-09-30T15:47:29Z</time>
      </trkpt>
      <trkpt lat="42.3640980" lon="-3.6013830">
        <ele>907.0</ele>
        <time>2021-09-30T15:47:32Z</time>
      </trkpt>
      <trkpt lat="42.3644550" lon="-3.6016650">
        <ele>905.4</ele>
        <time>2021-09-30T15:47:38Z</time>
      </trkpt>
      <trkpt lat="42.3647250" lon="-3.6017490">
        <ele>905.4</ele>
        <time>2021-09-30T15:47:42Z</time>
      </trkpt>
      <trkpt lat="42.3652670" lon="-3.6016110">
        <ele>905.8</ele>
        <time>2021-09-30T15:47:50Z</time>
      </trkpt>
      <trkpt lat="42.3656780" lon="-3.6014170">
        <ele>906.0</ele>
        <time>2021-09-30T15:47:56Z</time>
      </trkpt>
      <trkpt lat="42.3659590" lon="-3.6013830">
        <ele>905.8</ele>
        <time>2021-09-30T15:48:00Z</time>
      </trkpt>
      <trkpt lat="42.3660960" lon="-3.6013970">
        <ele>905.4</ele>
        <time>2021-09-30T15:48:02Z</time>
      </trkpt>
      <trkpt lat="42.3664290" lon="-3.6015280">
        <ele>904.4</ele>
        <time>2021-09-30T15:48:07Z</time>
      </trkpt>
      <trkpt lat="42.3666080" lon="-3.6016720">
        <ele>903.8</ele>
        <time>2021-09-30T15:48:10Z</time>
      </trkpt>
      <trkpt lat="42.3666630" lon="-3.6017310">
        <ele>903.4</ele>
        <time>2021-09-30T15:48:11Z</time>
      </trkpt>
      <trkpt lat="42.3670280" lon="-3.6021900">
        <ele>902.4</ele>
        <time>2021-09-30T15:48:18Z</time>
      </trkpt>
      <trkpt lat="42.3670780" lon="-3.6022580">
        <ele>902.0</ele>
        <time>2021-09-30T15:48:19Z</time>
      </trkpt>
      <trkpt lat="42.3674310" lon="-3.6028470">
        <ele>901.0</ele>
        <time>2021-09-30T15:48:27Z</time>
      </trkpt>
      <trkpt lat="42.3675760" lon="-3.6035620">
        <ele>900.8</ele>
        <time>2021-09-30T15:48:35Z</time>
      </trkpt>
      <trkpt lat="42.3674690" lon="-3.6043020">
        <ele>900.6</ele>
        <time>2021-09-30T15:48:43Z</time>
      </trkpt>
      <trkpt lat="42.3671310" lon="-3.6049100">
        <ele>900.2</ele>
        <time>2021-09-30T15:48:51Z</time>
      </trkpt>
      <trkpt lat="42.3669350" lon="-3.6051620">
        <ele>900.0</ele>
        <time>2021-09-30T15:48:55Z</time>
      </trkpt>
      <trkpt lat="42.3666020" lon="-3.6055740">
        <ele>899.8</ele>
        <time>2021-09-30T15:49:02Z</time>
      </trkpt>
      <trkpt lat="42.3661860" lon="-3.6060960">
        <ele>900.8</ele>
        <time>2021-09-30T15:49:11Z</time>
      </trkpt>
      <trkpt lat="42.3657640" lon="-3.6066220">
        <ele>901.0</ele>
        <time>2021-09-30T15:49:20Z</time>
      </trkpt>
      <trkpt lat="42.3655390" lon="-3.6069020">
        <ele>900.0</ele>
        <time>2021-09-30T15:49:25Z</time>
      </trkpt>
      <trkpt lat="42.3652630" lon="-3.6072380">
        <ele>900.0</ele>
        <time>2021-09-30T15:49:31Z</time>
      </trkpt>
      <trkpt lat="42.3650830" lon="-3.6074690">
        <ele>900.2</ele>
        <time>2021-09-30T15:49:35Z</time>
      </trkpt>
      <trkpt lat="42.3648110" lon="-3.6078160">
        <ele>900.4</ele>
        <time>2021-09-30T15:49:41Z</time>
      </trkpt>
      <trkpt lat="42.3643860" lon="-3.6083480">
        <ele>901.0</ele>
        <time>2021-09-30T15:49:51Z</time>
      </trkpt>
      <trkpt lat="42.3640320" lon="-3.6089130">
        <ele>901.2</ele>
        <time>2021-09-30T15:50:01Z</time>
      </trkpt>
      <trkpt lat="42.3639200" lon="-3.6093470">
        <ele>902.0</ele>
        <time>2021-09-30T15:50:07Z</time>
      </trkpt>
      <trkpt lat="42.3638990" lon="-3.6096590">
        <ele>902.2</ele>
        <time>2021-09-30T15:50:11Z</time>
      </trkpt>
      <trkpt lat="42.3639030" lon="-3.6098190">
        <ele>902.4</ele>
        <time>2021-09-30T15:50:13Z</time>
      </trkpt>
      <trkpt lat="42.3639570" lon="-3.6102180">
        <ele>902.6</ele>
        <time>2021-09-30T15:50:18Z</time>
      </trkpt>
      <trkpt lat="42.3641330" lon="-3.6108940">
        <ele>902.6</ele>
        <time>2021-09-30T15:50:26Z</time>
      </trkpt>
      <trkpt lat="42.3642230" lon="-3.6112640">
        <ele>902.0</ele>
        <time>2021-09-30T15:50:30Z</time>
      </trkpt>
      <trkpt lat="42.3642790" lon="-3.6115430">
        <ele>901.2</ele>
        <time>2021-09-30T15:50:33Z</time>
      </trkpt>
      <trkpt lat="42.3643440" lon="-3.6119970">
        <ele>900.2</ele>
        <time>2021-09-30T15:50:38Z</time>
      </trkpt>
      <trkpt lat="42.3643720" lon="-3.6127040">
        <ele>900.0</ele>
        <time>2021-09-30T15:50:46Z</time>
      </trkpt>
      <trkpt lat="42.3642150" lon="-3.6134020">
        <ele>900.0</ele>
        <time>2021-09-30T15:50:54Z</time>
      </trkpt>
      <trkpt lat="42.3640100" lon="-3.6140890">
        <ele>899.8</ele>
        <time>2021-09-30T15:51:02Z</time>
      </trkpt>
      <trkpt lat="42.3636720" lon="-3.6146680">
        <ele>900.2</ele>
        <time>2021-09-30T15:51:11Z</time>
      </trkpt>
      <trkpt lat="42.3634460" lon="-3.6148900">
        <ele>901.4</ele>
        <time>2021-09-30T15:51:16Z</time>
      </trkpt>
      <trkpt lat="42.3632320" lon="-3.6150910">
        <ele>902.4</ele>
        <time>2021-09-30T15:51:21Z</time>
      </trkpt>
      <trkpt lat="42.3629610" lon="-3.6153380">
        <ele>903.2</ele>
        <time>2021-09-30T15:51:27Z</time>
      </trkpt>
      <trkpt lat="42.3629000" lon="-3.6154540">
        <ele>903.4</ele>
        <time>2021-09-30T15:51:29Z</time>
      </trkpt>
      <trkpt lat="42.3629440" lon="-3.6157180">
        <ele>903.6</ele>
        <time>2021-09-30T15:51:33Z</time>
      </trkpt>
      <trkpt lat="42.3629680" lon="-3.6157770">
        <ele>903.6</ele>
        <time>2021-09-30T15:51:34Z</time>
      </trkpt>
      <trkpt lat="42.3631640" lon="-3.6159500">
        <ele>903.8</ele>
        <time>2021-09-30T15:51:39Z</time>
      </trkpt>
      <trkpt lat="42.3633970" lon="-3.6160940">
        <ele>904.6</ele>
        <time>2021-09-30T15:51:44Z</time>
      </trkpt>
      <trkpt lat="42.3635470" lon="-3.6161910">
        <ele>905.6</ele>
        <time>2021-09-30T15:51:47Z</time>
      </trkpt>
      <trkpt lat="42.3637950" lon="-3.6163540">
        <ele>906.8</ele>
        <time>2021-09-30T15:51:52Z</time>
      </trkpt>
      <trkpt lat="42.3640320" lon="-3.6165950">
        <ele>907.0</ele>
        <time>2021-09-30T15:51:57Z</time>
      </trkpt>
      <trkpt lat="42.3641530" lon="-3.6168330">
        <ele>907.0</ele>
        <time>2021-09-30T15:52:00Z</time>
      </trkpt>
      <trkpt lat="42.3642500" lon="-3.6171320">
        <ele>906.8</ele>
        <time>2021-09-30T15:52:03Z</time>
      </trkpt>
      <trkpt lat="42.3642750" lon="-3.6172420">
        <ele>906.6</ele>
        <time>2021-09-30T15:52:04Z</time>
      </trkpt>
      <trkpt lat="42.3643140" lon="-3.6174750">
        <ele>905.8</ele>
        <time>2021-09-30T15:52:06Z</time>
      </trkpt>
      <trkpt lat="42.3643550" lon="-3.6178430">
        <ele>904.0</ele>
        <time>2021-09-30T15:52:09Z</time>
      </trkpt>
      <trkpt lat="42.3643680" lon="-3.6179690">
        <ele>902.6</ele>
        <time>2021-09-30T15:52:10Z</time>
      </trkpt>
      <trkpt lat="42.3643790" lon="-3.6180950">
        <ele>901.6</ele>
        <time>2021-09-30T15:52:11Z</time>
      </trkpt>
      <trkpt lat="42.3644000" lon="-3.6183400">
        <ele>899.8</ele>
        <time>2021-09-30T15:52:13Z</time>
      </trkpt>
      <trkpt lat="42.3644110" lon="-3.6184580">
        <ele>898.8</ele>
        <time>2021-09-30T15:52:14Z</time>
      </trkpt>
      <trkpt lat="42.3644330" lon="-3.6186860">
        <ele>897.8</ele>
        <time>2021-09-30T15:52:16Z</time>
      </trkpt>
      <trkpt lat="42.3644520" lon="-3.6189010">
        <ele>897.2</ele>
        <time>2021-09-30T15:52:18Z</time>
      </trkpt>
      <trkpt lat="42.3644800" lon="-3.6191980">
        <ele>897.2</ele>
        <time>2021-09-30T15:52:21Z</time>
      </trkpt>
      <trkpt lat="42.3645490" lon="-3.6199830">
        <ele>898.0</ele>
        <time>2021-09-30T15:52:30Z</time>
      </trkpt>
      <trkpt lat="42.3645840" lon="-3.6203510">
        <ele>898.6</ele>
        <time>2021-09-30T15:52:35Z</time>
      </trkpt>
      <trkpt lat="42.3645120" lon="-3.6206090">
        <ele>898.8</ele>
        <time>2021-09-30T15:52:39Z</time>
      </trkpt>
      <trkpt lat="42.3644440" lon="-3.6207030">
        <ele>899.2</ele>
        <time>2021-09-30T15:52:41Z</time>
      </trkpt>
      <trkpt lat="42.3643810" lon="-3.6207870">
        <ele>899.6</ele>
        <time>2021-09-30T15:52:43Z</time>
      </trkpt>
      <trkpt lat="42.3643380" lon="-3.6210300">
        <ele>900.0</ele>
        <time>2021-09-30T15:52:48Z</time>
      </trkpt>
      <trkpt lat="42.3643490" lon="-3.6211880">
        <ele>900.8</ele>
        <time>2021-09-30T15:52:52Z</time>
      </trkpt>
      <trkpt lat="42.3643530" lon="-3.6212790">
        <ele>901.0</ele>
        <time>2021-09-30T15:52:55Z</time>
      </trkpt>
      <trkpt lat="42.3642850" lon="-3.6216180">
        <ele>901.6</ele>
        <time>2021-09-30T15:53:07Z</time>
      </trkpt>
      <trkpt lat="42.3642520" lon="-3.6214200">
        <ele>901.4</ele>
        <time>2021-09-30T15:53:14Z</time>
      </trkpt>
      <trkpt lat="42.3682060" lon="-3.6236350">
        <ele>886.0</ele>
        <time>2021-09-30T15:55:47Z</time>
      </trkpt>
      <trkpt lat="42.3682350" lon="-3.6236450">
        <ele>886.0</ele>
        <time>2021-09-30T15:55:48Z</time>
      </trkpt>
      <trkpt lat="42.3684700" lon="-3.6237130">
        <ele>886.4</ele>
        <time>2021-09-30T15:55:52Z</time>
      </trkpt>
      <trkpt lat="42.3686890" lon="-3.6238150">
        <ele>886.4</ele>
        <time>2021-09-30T15:55:56Z</time>
      </trkpt>
      <trkpt lat="42.3688460" lon="-3.6238350">
        <ele>886.6</ele>
        <time>2021-09-30T15:55:59Z</time>
      </trkpt>
      <trkpt lat="42.3688940" lon="-3.6238450">
        <ele>886.6</ele>
        <time>2021-09-30T15:56:00Z</time>
      </trkpt>
      <trkpt lat="42.3690090" lon="-3.6239550">
        <ele>886.8</ele>
        <time>2021-09-30T15:56:03Z</time>
      </trkpt>
      <trkpt lat="42.3690620" lon="-3.6240540">
        <ele>887.0</ele>
        <time>2021-09-30T15:56:05Z</time>
      </trkpt>
      <trkpt lat="42.3690870" lon="-3.6241030">
        <ele>887.2</ele>
        <time>2021-09-30T15:56:06Z</time>
      </trkpt>
      <trkpt lat="42.3691600" lon="-3.6242500">
        <ele>888.2</ele>
        <time>2021-09-30T15:56:09Z</time>
      </trkpt>
      <trkpt lat="42.3692060" lon="-3.6243530">
        <ele>888.4</ele>
        <time>2021-09-30T15:56:11Z</time>
      </trkpt>
      <trkpt lat="42.3693000" lon="-3.6245620">
        <ele>888.8</ele>
        <time>2021-09-30T15:56:15Z</time>
      </trkpt>
      <trkpt lat="42.3693950" lon="-3.6247730">
        <ele>889.4</ele>
        <time>2021-09-30T15:56:19Z</time>
      </trkpt>
      <trkpt lat="42.3695230" lon="-3.6250770">
        <ele>890.4</ele>
        <time>2021-09-30T15:56:25Z</time>
      </trkpt>
      <trkpt lat="42.3696640" lon="-3.6255100">
        <ele>891.6</ele>
        <time>2021-09-30T15:56:34Z</time>
      </trkpt>
      <trkpt lat="42.3696610" lon="-3.6258390">
        <ele>892.8</ele>
        <time>2021-09-30T15:56:40Z</time>
      </trkpt>
      <trkpt lat="42.3695890" lon="-3.6265850">
        <ele>892.8</ele>
        <time>2021-09-30T15:56:53Z</time>
      </trkpt>
      <trkpt lat="42.3695590" lon="-3.6271990">
        <ele>893.8</ele>
        <time>2021-09-30T15:57:04Z</time>
      </trkpt>
      <trkpt lat="42.3695740" lon="-3.6276560">
        <ele>894.8</ele>
        <time>2021-09-30T15:57:14Z</time>
      </trkpt>
      <trkpt lat="42.3695720" lon="-3.6282290">
        <ele>895.8</ele>
        <time>2021-09-30T15:57:27Z</time>
      </trkpt>
      <trkpt lat="42.3695860" lon="-3.6284780">
        <ele>897.0</ele>
        <time>2021-09-30T15:57:34Z</time>
      </trkpt>
      <trkpt lat="42.3696010" lon="-3.6285720">
        <ele>898.2</ele>
        <time>2021-09-30T15:57:37Z</time>
      </trkpt>
      <trkpt lat="42.3696260" lon="-3.6286930">
        <ele>899.4</ele>
        <time>2021-09-30T15:57:41Z</time>
      </trkpt>
      <trkpt lat="42.3696480" lon="-3.6287790">
        <ele>900.4</ele>
        <time>2021-09-30T15:57:44Z</time>
      </trkpt>
      <trkpt lat="42.3696760" lon="-3.6288590">
        <ele>901.8</ele>
        <time>2021-09-30T15:57:47Z</time>
      </trkpt>
      <trkpt lat="42.3697200" lon="-3.6289580">
        <ele>903.0</ele>
        <time>2021-09-30T15:57:51Z</time>
      </trkpt>
      <trkpt lat="42.3697580" lon="-3.6290630">
        <ele>904.2</ele>
        <time>2021-09-30T15:57:55Z</time>
      </trkpt>
      <trkpt lat="42.3697850" lon="-3.6291350">
        <ele>905.4</ele>
        <time>2021-09-30T15:57:58Z</time>
      </trkpt>
      <trkpt lat="42.3698300" lon="-3.6292290">
        <ele>906.4</ele>
        <time>2021-09-30T15:58:02Z</time>
      </trkpt>
      <trkpt lat="42.3698630" lon="-3.6293300">
        <ele>907.4</ele>
        <time>2021-09-30T15:58:06Z</time>
      </trkpt>
      <trkpt lat="42.3699020" lon="-3.6294330">
        <ele>908.4</ele>
        <time>2021-09-30T15:58:10Z</time>
      </trkpt>
      <trkpt lat="42.3699510" lon="-3.6295300">
        <ele>909.8</ele>
        <time>2021-09-30T15:58:14Z</time>
      </trkpt>
      <trkpt lat="42.3699960" lon="-3.6296360">
        <ele>911.2</ele>
        <time>2021-09-30T15:58:18Z</time>
      </trkpt>
      <trkpt lat="42.3700540" lon="-3.6297270">
        <ele>912.4</ele>
        <time>2021-09-30T15:58:22Z</time>
      </trkpt>
      <trkpt lat="42.3701450" lon="-3.6298200">
        <ele>913.6</ele>
        <time>2021-09-30T15:58:27Z</time>
      </trkpt>
      <trkpt lat="42.3702150" lon="-3.6298540">
        <ele>915.0</ele>
        <time>2021-09-30T15:58:30Z</time>
      </trkpt>
      <trkpt lat="42.3706340" lon="-3.6299240">
        <ele>915.2</ele>
        <time>2021-09-30T15:58:41Z</time>
      </trkpt>
      <trkpt lat="42.3707920" lon="-3.6299420">
        <ele>915.0</ele>
        <time>2021-09-30T15:58:44Z</time>
      </trkpt>
      <trkpt lat="42.3709650" lon="-3.6299550">
        <ele>914.2</ele>
        <time>2021-09-30T15:58:47Z</time>
      </trkpt>
      <trkpt lat="42.3710250" lon="-3.6299630">
        <ele>913.8</ele>
        <time>2021-09-30T15:58:48Z</time>
      </trkpt>
      <trkpt lat="42.3711490" lon="-3.6299780">
        <ele>913.2</ele>
        <time>2021-09-30T15:58:50Z</time>
      </trkpt>
      <trkpt lat="42.3712780" lon="-3.6299990">
        <ele>912.6</ele>
        <time>2021-09-30T15:58:52Z</time>
      </trkpt>
      <trkpt lat="42.3714090" lon="-3.6300250">
        <ele>911.8</ele>
        <time>2021-09-30T15:58:54Z</time>
      </trkpt>
      <trkpt lat="42.3714750" lon="-3.6300430">
        <ele>911.8</ele>
        <time>2021-09-30T15:58:55Z</time>
      </trkpt>
      <trkpt lat="42.3715390" lon="-3.6300670">
        <ele>911.6</ele>
        <time>2021-09-30T15:58:56Z</time>
      </trkpt>
      <trkpt lat="42.3716730" lon="-3.6302170">
        <ele>910.6</ele>
        <time>2021-09-30T15:58:59Z</time>
      </trkpt>
      <trkpt lat="42.3717240" lon="-3.6304320">
        <ele>909.4</ele>
        <time>2021-09-30T15:59:02Z</time>
      </trkpt>
      <trkpt lat="42.3717340" lon="-3.6305970">
        <ele>909.0</ele>
        <time>2021-09-30T15:59:04Z</time>
      </trkpt>
      <trkpt lat="42.3717290" lon="-3.6310590">
        <ele>908.4</ele>
        <time>2021-09-30T15:59:09Z</time>
      </trkpt>
      <trkpt lat="42.3717470" lon="-3.6312430">
        <ele>907.4</ele>
        <time>2021-09-30T15:59:11Z</time>
      </trkpt>
      <trkpt lat="42.3717760" lon="-3.6314290">
        <ele>906.2</ele>
        <time>2021-09-30T15:59:13Z</time>
      </trkpt>
      <trkpt lat="42.3717990" lon="-3.6316300">
        <ele>905.0</ele>
        <time>2021-09-30T15:59:15Z</time>
      </trkpt>
      <trkpt lat="42.3717930" lon="-3.6320680">
        <ele>904.0</ele>
        <time>2021-09-30T15:59:19Z</time>
      </trkpt>
      <trkpt lat="42.3717620" lon="-3.6322920">
        <ele>902.8</ele>
        <time>2021-09-30T15:59:21Z</time>
      </trkpt>
      <trkpt lat="42.3717490" lon="-3.6325170">
        <ele>901.2</ele>
        <time>2021-09-30T15:59:23Z</time>
      </trkpt>
      <trkpt lat="42.3717830" lon="-3.6327380">
        <ele>899.8</ele>
        <time>2021-09-30T15:59:25Z</time>
      </trkpt>
      <trkpt lat="42.3719090" lon="-3.6330210">
        <ele>898.2</ele>
        <time>2021-09-30T15:59:28Z</time>
      </trkpt>
      <trkpt lat="42.3720030" lon="-3.6331880">
        <ele>897.0</ele>
        <time>2021-09-30T15:59:30Z</time>
      </trkpt>
      <trkpt lat="42.3721530" lon="-3.6335360">
        <ele>896.2</ele>
        <time>2021-09-30T15:59:34Z</time>
      </trkpt>
      <trkpt lat="42.3722540" lon="-3.6339670">
        <ele>896.0</ele>
        <time>2021-09-30T15:59:39Z</time>
      </trkpt>
      <trkpt lat="42.3723270" lon="-3.6342690">
        <ele>896.4</ele>
        <time>2021-09-30T15:59:43Z</time>
      </trkpt>
      <trkpt lat="42.3724010" lon="-3.6345440">
        <ele>897.6</ele>
        <time>2021-09-30T15:59:47Z</time>
      </trkpt>
      <trkpt lat="42.3724770" lon="-3.6347360">
        <ele>898.0</ele>
        <time>2021-09-30T15:59:50Z</time>
      </trkpt>
      <trkpt lat="42.3725860" lon="-3.6349740">
        <ele>899.0</ele>
        <time>2021-09-30T15:59:54Z</time>
      </trkpt>
      <trkpt lat="42.3726120" lon="-3.6350330">
        <ele>899.2</ele>
        <time>2021-09-30T15:59:55Z</time>
      </trkpt>
      <trkpt lat="42.3726900" lon="-3.6352080">
        <ele>899.6</ele>
        <time>2021-09-30T15:59:58Z</time>
      </trkpt>
      <trkpt lat="42.3727920" lon="-3.6354270">
        <ele>900.4</ele>
        <time>2021-09-30T16:00:02Z</time>
      </trkpt>
      <trkpt lat="42.3729300" lon="-3.6357280">
        <ele>901.6</ele>
        <time>2021-09-30T16:00:08Z</time>
      </trkpt>
      <trkpt lat="42.3729500" lon="-3.6358880">
        <ele>902.6</ele>
        <time>2021-09-30T16:00:11Z</time>
      </trkpt>
      <trkpt lat="42.3728660" lon="-3.6360430">
        <ele>902.8</ele>
        <time>2021-09-30T16:00:14Z</time>
      </trkpt>
      <trkpt lat="42.3727600" lon="-3.6362130">
        <ele>902.8</ele>
        <time>2021-09-30T16:00:17Z</time>
      </trkpt>
      <trkpt lat="42.3725620" lon="-3.6365310">
        <ele>902.4</ele>
        <time>2021-09-30T16:00:22Z</time>
      </trkpt>
      <trkpt lat="42.3723210" lon="-3.6370760">
        <ele>902.0</ele>
        <time>2021-09-30T16:00:29Z</time>
      </trkpt>
      <trkpt lat="42.3723000" lon="-3.6371630">
        <ele>901.8</ele>
        <time>2021-09-30T16:00:30Z</time>
      </trkpt>
      <trkpt lat="42.3722700" lon="-3.6375120">
        <ele>900.6</ele>
        <time>2021-09-30T16:00:34Z</time>
      </trkpt>
      <trkpt lat="42.3722980" lon="-3.6377680">
        <ele>900.6</ele>
        <time>2021-09-30T16:00:37Z</time>
      </trkpt>
      <trkpt lat="42.3723950" lon="-3.6385190">
        <ele>900.2</ele>
        <time>2021-09-30T16:00:46Z</time>
      </trkpt>
      <trkpt lat="42.3724840" lon="-3.6391620">
        <ele>901.0</ele>
        <time>2021-09-30T16:00:54Z</time>
      </trkpt>
      <trkpt lat="42.3726460" lon="-3.6398450">
        <ele>901.6</ele>
        <time>2021-09-30T16:01:03Z</time>
      </trkpt>
      <trkpt lat="42.3726850" lon="-3.6399910">
        <ele>901.8</ele>
        <time>2021-09-30T16:01:05Z</time>
      </trkpt>
      <trkpt lat="42.3728440" lon="-3.6404920">
        <ele>902.8</ele>
        <time>2021-09-30T16:01:12Z</time>
      </trkpt>
      <trkpt lat="42.3729710" lon="-3.6409070">
        <ele>904.0</ele>
        <time>2021-09-30T16:01:18Z</time>
      </trkpt>
      <trkpt lat="42.3731700" lon="-3.6414750">
        <ele>905.0</ele>
        <time>2021-09-30T16:01:26Z</time>
      </trkpt>
      <trkpt lat="42.3734190" lon="-3.6422030">
        <ele>905.2</ele>
        <time>2021-09-30T16:01:36Z</time>
      </trkpt>
      <trkpt lat="42.3736390" lon="-3.6428630">
        <ele>905.2</ele>
        <time>2021-09-30T16:01:45Z</time>
      </trkpt>
      <trkpt lat="42.3738940" lon="-3.6435830">
        <ele>905.2</ele>
        <time>2021-09-30T16:01:55Z</time>
      </trkpt>
      <trkpt lat="42.3740970" lon="-3.6440740">
        <ele>905.2</ele>
        <time>2021-09-30T16:02:02Z</time>
      </trkpt>
      <trkpt lat="42.3742840" lon="-3.6444560">
        <ele>905.2</ele>
        <time>2021-09-30T16:02:07Z</time>
      </trkpt>
      <trkpt lat="42.3743710" lon="-3.6446410">
        <ele>905.2</ele>
        <time>2021-09-30T16:02:09Z</time>
      </trkpt>
      <trkpt lat="42.3744590" lon="-3.6448400">
        <ele>904.8</ele>
        <time>2021-09-30T16:02:11Z</time>
      </trkpt>
      <trkpt lat="42.3745350" lon="-3.6450590">
        <ele>904.0</ele>
        <time>2021-09-30T16:02:13Z</time>
      </trkpt>
      <trkpt lat="42.3745670" lon="-3.6451770">
        <ele>903.6</ele>
        <time>2021-09-30T16:02:14Z</time>
      </trkpt>
      <trkpt lat="42.3745920" lon="-3.6453000">
        <ele>902.8</ele>
        <time>2021-09-30T16:02:15Z</time>
      </trkpt>
      <trkpt lat="42.3746060" lon="-3.6454260">
        <ele>901.8</ele>
        <time>2021-09-30T16:02:16Z</time>
      </trkpt>
      <trkpt lat="42.3746100" lon="-3.6455560">
        <ele>900.8</ele>
        <time>2021-09-30T16:02:17Z</time>
      </trkpt>
      <trkpt lat="42.3745770" lon="-3.6458110">
        <ele>899.0</ele>
        <time>2021-09-30T16:02:19Z</time>
      </trkpt>
      <trkpt lat="42.3744860" lon="-3.6460410">
        <ele>897.4</ele>
        <time>2021-09-30T16:02:21Z</time>
      </trkpt>
      <trkpt lat="42.3744370" lon="-3.6461490">
        <ele>896.4</ele>
        <time>2021-09-30T16:02:22Z</time>
      </trkpt>
      <trkpt lat="42.3743860" lon="-3.6462550">
        <ele>895.2</ele>
        <time>2021-09-30T16:02:23Z</time>
      </trkpt>
      <trkpt lat="42.3742810" lon="-3.6464630">
        <ele>893.2</ele>
        <time>2021-09-30T16:02:25Z</time>
      </trkpt>
      <trkpt lat="42.3741800" lon="-3.6466730">
        <ele>891.2</ele>
        <time>2021-09-30T16:02:27Z</time>
      </trkpt>
      <trkpt lat="42.3741370" lon="-3.6467810">
        <ele>890.2</ele>
        <time>2021-09-30T16:02:28Z</time>
      </trkpt>
      <trkpt lat="42.3740320" lon="-3.6469310">
        <ele>888.2</ele>
        <time>2021-09-30T16:02:30Z</time>
      </trkpt>
      <trkpt lat="42.3738220" lon="-3.6471390">
        <ele>888.0</ele>
        <time>2021-09-30T16:02:33Z</time>
      </trkpt>
      <trkpt lat="42.3736630" lon="-3.6473940">
        <ele>887.8</ele>
        <time>2021-09-30T16:02:36Z</time>
      </trkpt>
      <trkpt lat="42.3734110" lon="-3.6478230">
        <ele>887.8</ele>
        <time>2021-09-30T16:02:41Z</time>
      </trkpt>
      <trkpt lat="42.3732470" lon="-3.6481510">
        <ele>887.8</ele>
        <time>2021-09-30T16:02:45Z</time>
      </trkpt>
      <trkpt lat="42.3729420" lon="-3.6488280">
        <ele>888.0</ele>
        <time>2021-09-30T16:02:53Z</time>
      </trkpt>
      <trkpt lat="42.3725730" lon="-3.6493760">
        <ele>888.4</ele>
        <time>2021-09-30T16:03:01Z</time>
      </trkpt>
      <trkpt lat="42.3725190" lon="-3.6494260">
        <ele>888.4</ele>
        <time>2021-09-30T16:03:02Z</time>
      </trkpt>
      <trkpt lat="42.3723310" lon="-3.6496570">
        <ele>888.6</ele>
        <time>2021-09-30T16:03:06Z</time>
      </trkpt>
      <trkpt lat="42.3721200" lon="-3.6500930">
        <ele>888.8</ele>
        <time>2021-09-30T16:03:12Z</time>
      </trkpt>
      <trkpt lat="42.3719230" lon="-3.6503190">
        <ele>889.6</ele>
        <time>2021-09-30T16:03:16Z</time>
      </trkpt>
      <trkpt lat="42.3718050" lon="-3.6503950">
        <ele>889.6</ele>
        <time>2021-09-30T16:03:18Z</time>
      </trkpt>
      <trkpt lat="42.3712520" lon="-3.6506460">
        <ele>889.4</ele>
        <time>2021-09-30T16:03:27Z</time>
      </trkpt>
      <trkpt lat="42.3709500" lon="-3.6507820">
        <ele>889.4</ele>
        <time>2021-09-30T16:03:32Z</time>
      </trkpt>
      <trkpt lat="42.3708460" lon="-3.6508470">
        <ele>889.2</ele>
        <time>2021-09-30T16:03:34Z</time>
      </trkpt>
      <trkpt lat="42.3707410" lon="-3.6509760">
        <ele>889.2</ele>
        <time>2021-09-30T16:03:37Z</time>
      </trkpt>
      <trkpt lat="42.3707850" lon="-3.6513030">
        <ele>889.4</ele>
        <time>2021-09-30T16:03:42Z</time>
      </trkpt>
      <trkpt lat="42.3709030" lon="-3.6517950">
        <ele>889.2</ele>
        <time>2021-09-30T16:03:48Z</time>
      </trkpt>
      <trkpt lat="42.3709670" lon="-3.6522420">
        <ele>888.6</ele>
        <time>2021-09-30T16:03:53Z</time>
      </trkpt>
      <trkpt lat="42.3710060" lon="-3.6526010">
        <ele>887.8</ele>
        <time>2021-09-30T16:03:57Z</time>
      </trkpt>
      <trkpt lat="42.3710160" lon="-3.6526870">
        <ele>887.6</ele>
        <time>2021-09-30T16:03:58Z</time>
      </trkpt>
      <trkpt lat="42.3707360" lon="-3.6529590">
        <ele>887.0</ele>
        <time>2021-09-30T16:04:05Z</time>
      </trkpt>
      <trkpt lat="42.3706840" lon="-3.6529560">
        <ele>887.0</ele>
        <time>2021-09-30T16:04:06Z</time>
      </trkpt>
      <trkpt lat="42.3704780" lon="-3.6529540">
        <ele>887.2</ele>
        <time>2021-09-30T16:04:11Z</time>
      </trkpt>
      <trkpt lat="42.3705910" lon="-3.6529130">
        <ele>889.0</ele>
        <time>2021-09-30T16:04:16Z</time>
      </trkpt>
      <trkpt lat="42.3706420" lon="-3.6529130">
        <ele>889.2</ele>
        <time>2021-09-30T16:04:17Z</time>
      </trkpt>
      <trkpt lat="42.3708150" lon="-3.6529160">
        <ele>889.4</ele>
        <time>2021-09-30T16:04:20Z</time>
      </trkpt>
      <trkpt lat="42.3709690" lon="-3.6530390">
        <ele>889.4</ele>
        <time>2021-09-30T16:04:23Z</time>
      </trkpt>
      <trkpt lat="42.3710510" lon="-3.6534500">
        <ele>888.6</ele>
        <time>2021-09-30T16:04:28Z</time>
      </trkpt>
      <trkpt lat="42.3710570" lon="-3.6537180">
        <ele>887.8</ele>
        <time>2021-09-30T16:04:31Z</time>
      </trkpt>
      <trkpt lat="42.3710460" lon="-3.6542530">
        <ele>886.8</ele>
        <time>2021-09-30T16:04:37Z</time>
      </trkpt>
      <trkpt lat="42.3709940" lon="-3.6550380">
        <ele>886.0</ele>
        <time>2021-09-30T16:04:46Z</time>
      </trkpt>
      <trkpt lat="42.3708910" lon="-3.6557860">
        <ele>885.8</ele>
        <time>2021-09-30T16:04:55Z</time>
      </trkpt>
      <trkpt lat="42.3707700" lon="-3.6565230">
        <ele>885.8</ele>
        <time>2021-09-30T16:05:04Z</time>
      </trkpt>
      <trkpt lat="42.3706820" lon="-3.6570410">
        <ele>885.8</ele>
        <time>2021-09-30T16:05:11Z</time>
      </trkpt>
      <trkpt lat="42.3706690" lon="-3.6572950">
        <ele>886.0</ele>
        <time>2021-09-30T16:05:17Z</time>
      </trkpt>
      <trkpt lat="42.3706980" lon="-3.6574880">
        <ele>886.4</ele>
        <time>2021-09-30T16:05:20Z</time>
      </trkpt>
      <trkpt lat="42.3706660" lon="-3.6576300">
        <ele>886.4</ele>
        <time>2021-09-30T16:05:22Z</time>
      </trkpt>
      <trkpt lat="42.3705140" lon="-3.6580560">
        <ele>886.6</ele>
        <time>2021-09-30T16:05:28Z</time>
      </trkpt>
      <trkpt lat="42.3704690" lon="-3.6582840">
        <ele>886.4</ele>
        <time>2021-09-30T16:05:31Z</time>
      </trkpt>
      <trkpt lat="42.3703900" lon="-3.6588110">
        <ele>886.2</ele>
        <time>2021-09-30T16:05:38Z</time>
      </trkpt>
      <trkpt lat="42.3702800" lon="-3.6594640">
        <ele>886.0</ele>
        <time>2021-09-30T16:05:47Z</time>
      </trkpt>
      <trkpt lat="42.3702120" lon="-3.6598570">
        <ele>885.6</ele>
        <time>2021-09-30T16:05:52Z</time>
      </trkpt>
      <trkpt lat="42.3700880" lon="-3.6606020">
        <ele>885.2</ele>
        <time>2021-09-30T16:06:01Z</time>
      </trkpt>
      <trkpt lat="42.3699770" lon="-3.6612590">
        <ele>884.8</ele>
        <time>2021-09-30T16:06:09Z</time>
      </trkpt>
      <trkpt lat="42.3698850" lon="-3.6617980">
        <ele>883.8</ele>
        <time>2021-09-30T16:06:16Z</time>
      </trkpt>
      <trkpt lat="42.3698370" lon="-3.6620900">
        <ele>883.0</ele>
        <time>2021-09-30T16:06:20Z</time>
      </trkpt>
      <trkpt lat="42.3697690" lon="-3.6623660">
        <ele>882.8</ele>
        <time>2021-09-30T16:06:24Z</time>
      </trkpt>
      <trkpt lat="42.3697290" lon="-3.6625740">
        <ele>882.6</ele>
        <time>2021-09-30T16:06:27Z</time>
      </trkpt>
      <trkpt lat="42.3697430" lon="-3.6629220">
        <ele>882.8</ele>
        <time>2021-09-30T16:06:32Z</time>
      </trkpt>
      <trkpt lat="42.3695810" lon="-3.6631580">
        <ele>883.0</ele>
        <time>2021-09-30T16:06:37Z</time>
      </trkpt>
      <trkpt lat="42.3693720" lon="-3.6629760">
        <ele>883.6</ele>
        <time>2021-09-30T16:06:41Z</time>
      </trkpt>
      <trkpt lat="42.3692710" lon="-3.6628590">
        <ele>883.6</ele>
        <time>2021-09-30T16:06:43Z</time>
      </trkpt>
      <trkpt lat="42.3690240" lon="-3.6627120">
        <ele>883.6</ele>
        <time>2021-09-30T16:06:47Z</time>
      </trkpt>
      <trkpt lat="42.3685210" lon="-3.6624370">
        <ele>882.4</ele>
        <time>2021-09-30T16:06:55Z</time>
      </trkpt>
      <trkpt lat="42.3679980" lon="-3.6621660">
        <ele>881.8</ele>
        <time>2021-09-30T16:07:04Z</time>
      </trkpt>
      <trkpt lat="42.3674530" lon="-3.6618910">
        <ele>881.2</ele>
        <time>2021-09-30T16:07:13Z</time>
      </trkpt>
      <trkpt lat="42.3673400" lon="-3.6618330">
        <ele>881.2</ele>
        <time>2021-09-30T16:07:15Z</time>
      </trkpt>
      <trkpt lat="42.3671780" lon="-3.6617360">
        <ele>881.2</ele>
        <time>2021-09-30T16:07:18Z</time>
      </trkpt>
      <trkpt lat="42.3670240" lon="-3.6616430">
        <ele>881.0</ele>
        <time>2021-09-30T16:07:21Z</time>
      </trkpt>
      <trkpt lat="42.3669730" lon="-3.6616200">
        <ele>881.0</ele>
        <time>2021-09-30T16:07:22Z</time>
      </trkpt>
      <trkpt lat="42.3667030" lon="-3.6618440">
        <ele>881.2</ele>
        <time>2021-09-30T16:07:32Z</time>
      </trkpt>
      <trkpt lat="42.3666720" lon="-3.6619460">
        <ele>881.4</ele>
        <time>2021-09-30T16:07:34Z</time>
      </trkpt>
      <trkpt lat="42.3666220" lon="-3.6621350">
        <ele>881.4</ele>
        <time>2021-09-30T16:07:37Z</time>
      </trkpt>
      <trkpt lat="42.3665080" lon="-3.6625870">
        <ele>881.0</ele>
        <time>2021-09-30T16:07:43Z</time>
      </trkpt>
      <trkpt lat="42.3664650" lon="-3.6627550">
        <ele>880.4</ele>
        <time>2021-09-30T16:07:45Z</time>
      </trkpt>
      <trkpt lat="42.3663720" lon="-3.6631100">
        <ele>880.0</ele>
        <time>2021-09-30T16:07:49Z</time>
      </trkpt>
      <trkpt lat="42.3662570" lon="-3.6635500">
        <ele>879.4</ele>
        <time>2021-09-30T16:07:54Z</time>
      </trkpt>
      <trkpt lat="42.3661680" lon="-3.6638970">
        <ele>878.2</ele>
        <time>2021-09-30T16:07:58Z</time>
      </trkpt>
      <trkpt lat="42.3659730" lon="-3.6645810">
        <ele>877.6</ele>
        <time>2021-09-30T16:08:06Z</time>
      </trkpt>
      <trkpt lat="42.3657490" lon="-3.6653390">
        <ele>877.4</ele>
        <time>2021-09-30T16:08:15Z</time>
      </trkpt>
      <trkpt lat="42.3655740" lon="-3.6659100">
        <ele>877.2</ele>
        <time>2021-09-30T16:08:22Z</time>
      </trkpt>
      <trkpt lat="42.3655530" lon="-3.6659920">
        <ele>877.2</ele>
        <time>2021-09-30T16:08:23Z</time>
      </trkpt>
      <trkpt lat="42.3653320" lon="-3.6667290">
        <ele>877.2</ele>
        <time>2021-09-30T16:08:32Z</time>
      </trkpt>
      <trkpt lat="42.3650990" lon="-3.6674770">
        <ele>877.0</ele>
        <time>2021-09-30T16:08:41Z</time>
      </trkpt>
      <trkpt lat="42.3648870" lon="-3.6681540">
        <ele>876.6</ele>
        <time>2021-09-30T16:08:49Z</time>
      </trkpt>
      <trkpt lat="42.3646760" lon="-3.6688310">
        <ele>876.6</ele>
        <time>2021-09-30T16:08:57Z</time>
      </trkpt>
      <trkpt lat="42.3644540" lon="-3.6695420">
        <ele>876.8</ele>
        <time>2021-09-30T16:09:06Z</time>
      </trkpt>
      <trkpt lat="42.3642680" lon="-3.6701420">
        <ele>877.2</ele>
        <time>2021-09-30T16:09:14Z</time>
      </trkpt>
      <trkpt lat="42.3642410" lon="-3.6706130">
        <ele>878.0</ele>
        <time>2021-09-30T16:09:20Z</time>
      </trkpt>
      <trkpt lat="42.3642110" lon="-3.6707590">
        <ele>878.2</ele>
        <time>2021-09-30T16:09:22Z</time>
      </trkpt>
      <trkpt lat="42.3640320" lon="-3.6709640">
        <ele>878.4</ele>
        <time>2021-09-30T16:09:26Z</time>
      </trkpt>
      <trkpt lat="42.3639330" lon="-3.6710690">
        <ele>878.6</ele>
        <time>2021-09-30T16:09:28Z</time>
      </trkpt>
      <trkpt lat="42.3636090" lon="-3.6717110">
        <ele>878.2</ele>
        <time>2021-09-30T16:09:37Z</time>
      </trkpt>
      <trkpt lat="42.3632950" lon="-3.6723660">
        <ele>877.8</ele>
        <time>2021-09-30T16:09:46Z</time>
      </trkpt>
      <trkpt lat="42.3629850" lon="-3.6730230">
        <ele>877.4</ele>
        <time>2021-09-30T16:09:55Z</time>
      </trkpt>
      <trkpt lat="42.3629490" lon="-3.6730940">
        <ele>877.0</ele>
        <time>2021-09-30T16:09:56Z</time>
      </trkpt>
      <trkpt lat="42.3626730" lon="-3.6736610">
        <ele>876.4</ele>
        <time>2021-09-30T16:10:04Z</time>
      </trkpt>
      <trkpt lat="42.3624010" lon="-3.6742010">
        <ele>876.4</ele>
        <time>2021-09-30T16:10:12Z</time>
      </trkpt>
      <trkpt lat="42.3623530" lon="-3.6743250">
        <ele>876.4</ele>
        <time>2021-09-30T16:10:14Z</time>
      </trkpt>
      <trkpt lat="42.3623090" lon="-3.6745880">
        <ele>876.6</ele>
        <time>2021-09-30T16:10:18Z</time>
      </trkpt>
      <trkpt lat="42.3622870" lon="-3.6747240">
        <ele>876.8</ele>
        <time>2021-09-30T16:10:20Z</time>
      </trkpt>
      <trkpt lat="42.3620720" lon="-3.6748740">
        <ele>877.4</ele>
        <time>2021-09-30T16:10:25Z</time>
      </trkpt>
      <trkpt lat="42.3617450" lon="-3.6744820">
        <ele>877.2</ele>
        <time>2021-09-30T16:10:32Z</time>
      </trkpt>
      <trkpt lat="42.3614750" lon="-3.6742440">
        <ele>876.6</ele>
        <time>2021-09-30T16:10:37Z</time>
      </trkpt>
      <trkpt lat="42.3613180" lon="-3.6741060">
        <ele>876.2</ele>
        <time>2021-09-30T16:10:40Z</time>
      </trkpt>
      <trkpt lat="42.3610050" lon="-3.6738470">
        <ele>876.0</ele>
        <time>2021-09-30T16:10:46Z</time>
      </trkpt>
      <trkpt lat="42.3607120" lon="-3.6740700">
        <ele>875.8</ele>
        <time>2021-09-30T16:10:52Z</time>
      </trkpt>
      <trkpt lat="42.3605380" lon="-3.6744280">
        <ele>875.2</ele>
        <time>2021-09-30T16:10:57Z</time>
      </trkpt>
      <trkpt lat="42.3602150" lon="-3.6750520">
        <ele>874.6</ele>
        <time>2021-09-30T16:11:06Z</time>
      </trkpt>
      <trkpt lat="42.3598910" lon="-3.6756760">
        <ele>874.2</ele>
        <time>2021-09-30T16:11:15Z</time>
      </trkpt>
      <trkpt lat="42.3595770" lon="-3.6762910">
        <ele>874.2</ele>
        <time>2021-09-30T16:11:24Z</time>
      </trkpt>
      <trkpt lat="42.3595390" lon="-3.6763610">
        <ele>874.0</ele>
        <time>2021-09-30T16:11:25Z</time>
      </trkpt>
      <trkpt lat="42.3592210" lon="-3.6770260">
        <ele>873.8</ele>
        <time>2021-09-30T16:11:34Z</time>
      </trkpt>
      <trkpt lat="42.3588780" lon="-3.6776810">
        <ele>873.6</ele>
        <time>2021-09-30T16:11:43Z</time>
      </trkpt>
      <trkpt lat="42.3585790" lon="-3.6782470">
        <ele>873.0</ele>
        <time>2021-09-30T16:11:51Z</time>
      </trkpt>
      <trkpt lat="42.3582580" lon="-3.6788720">
        <ele>873.0</ele>
        <time>2021-09-30T16:12:00Z</time>
      </trkpt>
      <trkpt lat="42.3579440" lon="-3.6794880">
        <ele>873.0</ele>
        <time>2021-09-30T16:12:09Z</time>
      </trkpt>
      <trkpt lat="42.3576800" lon="-3.6800320">
        <ele>872.6</ele>
        <time>2021-09-30T16:12:17Z</time>
      </trkpt>
      <trkpt lat="42.3576640" lon="-3.6801790">
        <ele>872.6</ele>
        <time>2021-09-30T16:12:19Z</time>
      </trkpt>
      <trkpt lat="42.3577960" lon="-3.6804860">
        <ele>872.6</ele>
        <time>2021-09-30T16:12:24Z</time>
      </trkpt>
      <trkpt lat="42.3581800" lon="-3.6810580">
        <ele>874.2</ele>
        <time>2021-09-30T16:12:35Z</time>
      </trkpt>
      <trkpt lat="42.3585100" lon="-3.6815290">
        <ele>874.8</ele>
        <time>2021-09-30T16:12:51Z</time>
      </trkpt>
      <trkpt lat="42.3585530" lon="-3.6815620">
        <ele>875.6</ele>
        <time>2021-09-30T16:12:55Z</time>
      </trkpt>
      <trkpt lat="42.3586630" lon="-3.6816720">
        <ele>875.6</ele>
        <time>2021-09-30T16:12:59Z</time>
      </trkpt>
      <trkpt lat="42.3586550" lon="-3.6818750">
        <ele>875.6</ele>
        <time>2021-09-30T16:13:02Z</time>
      </trkpt>
      <trkpt lat="42.3582820" lon="-3.6821560">
        <ele>874.6</ele>
        <time>2021-09-30T16:13:10Z</time>
      </trkpt>
      <trkpt lat="42.3581880" lon="-3.6823620">
        <ele>874.6</ele>
        <time>2021-09-30T16:13:13Z</time>
      </trkpt>
      <trkpt lat="42.3579550" lon="-3.6828470">
        <ele>873.6</ele>
        <time>2021-09-30T16:13:20Z</time>
      </trkpt>
      <trkpt lat="42.3576530" lon="-3.6834740">
        <ele>873.4</ele>
        <time>2021-09-30T16:13:29Z</time>
      </trkpt>
      <trkpt lat="42.3573510" lon="-3.6841070">
        <ele>873.2</ele>
        <time>2021-09-30T16:13:38Z</time>
      </trkpt>
      <trkpt lat="42.3570600" lon="-3.6847630">
        <ele>873.2</ele>
        <time>2021-09-30T16:13:47Z</time>
      </trkpt>
      <trkpt lat="42.3568050" lon="-3.6854080">
        <ele>873.0</ele>
        <time>2021-09-30T16:13:55Z</time>
      </trkpt>
      <trkpt lat="42.3567120" lon="-3.6856390">
        <ele>872.6</ele>
        <time>2021-09-30T16:13:58Z</time>
      </trkpt>
      <trkpt lat="42.3565960" lon="-3.6859300">
        <ele>872.0</ele>
        <time>2021-09-30T16:14:02Z</time>
      </trkpt>
      <trkpt lat="42.3565680" lon="-3.6859940">
        <ele>872.0</ele>
        <time>2021-09-30T16:14:03Z</time>
      </trkpt>
      <trkpt lat="42.3563450" lon="-3.6865760">
        <ele>871.8</ele>
        <time>2021-09-30T16:14:12Z</time>
      </trkpt>
      <trkpt lat="42.3562190" lon="-3.6868590">
        <ele>871.8</ele>
        <time>2021-09-30T16:14:16Z</time>
      </trkpt>
      <trkpt lat="42.3560940" lon="-3.6871600">
        <ele>871.6</ele>
        <time>2021-09-30T16:14:20Z</time>
      </trkpt>
      <trkpt lat="42.3558260" lon="-3.6878020">
        <ele>871.6</ele>
        <time>2021-09-30T16:14:29Z</time>
      </trkpt>
      <trkpt lat="42.3556180" lon="-3.6882820">
        <ele>872.0</ele>
        <time>2021-09-30T16:14:36Z</time>
      </trkpt>
      <trkpt lat="42.3552910" lon="-3.6889420">
        <ele>872.0</ele>
        <time>2021-09-30T16:14:46Z</time>
      </trkpt>
      <trkpt lat="42.3550160" lon="-3.6894610">
        <ele>872.6</ele>
        <time>2021-09-30T16:14:54Z</time>
      </trkpt>
      <trkpt lat="42.3549820" lon="-3.6895270">
        <ele>872.6</ele>
        <time>2021-09-30T16:14:55Z</time>
      </trkpt>
      <trkpt lat="42.3547690" lon="-3.6900020">
        <ele>873.2</ele>
        <time>2021-09-30T16:15:02Z</time>
      </trkpt>
      <trkpt lat="42.3545390" lon="-3.6906520">
        <ele>873.4</ele>
        <time>2021-09-30T16:15:12Z</time>
      </trkpt>
      <trkpt lat="42.3544410" lon="-3.6909660">
        <ele>873.6</ele>
        <time>2021-09-30T16:15:19Z</time>
      </trkpt>
      <trkpt lat="42.3544390" lon="-3.6909780">
        <ele>873.6</ele>
        <time>2021-09-30T16:15:20Z</time>
      </trkpt>
      <trkpt lat="42.3544390" lon="-3.6910400">
        <ele>874.0</ele>
        <time>2021-09-30T16:15:23Z</time>
      </trkpt>
      <trkpt lat="42.3544720" lon="-3.6910830">
        <ele>875.0</ele>
        <time>2021-09-30T16:15:28Z</time>
      </trkpt>
      <trkpt lat="42.3544860" lon="-3.6911170">
        <ele>875.4</ele>
        <time>2021-09-30T16:16:26Z</time>
      </trkpt>
      <trkpt lat="42.3545180" lon="-3.6911520">
        <ele>875.4</ele>
        <time>2021-09-30T16:16:30Z</time>
      </trkpt>
      <trkpt lat="42.3547000" lon="-3.6913050">
        <ele>875.8</ele>
        <time>2021-09-30T16:16:43Z</time>
      </trkpt>
      <trkpt lat="42.3547160" lon="-3.6914000">
        <ele>876.0</ele>
        <time>2021-09-30T16:16:49Z</time>
      </trkpt>
      <trkpt lat="42.3546690" lon="-3.6917470">
        <ele>877.8</ele>
        <time>2021-09-30T16:17:24Z</time>
      </trkpt>
      <trkpt lat="42.3545380" lon="-3.6918970">
        <ele>877.8</ele>
        <time>2021-09-30T16:17:28Z</time>
      </trkpt>
      <trkpt lat="42.3544900" lon="-3.6919240">
        <ele>877.8</ele>
        <time>2021-09-30T16:17:29Z</time>
      </trkpt>
      <trkpt lat="42.3542640" lon="-3.6920210">
        <ele>877.4</ele>
        <time>2021-09-30T16:17:33Z</time>
      </trkpt>
      <trkpt lat="42.3541180" lon="-3.6921590">
        <ele>876.6</ele>
        <time>2021-09-30T16:17:36Z</time>
      </trkpt>
      <trkpt lat="42.3540760" lon="-3.6922160">
        <ele>876.2</ele>
        <time>2021-09-30T16:17:37Z</time>
      </trkpt>
      <trkpt lat="42.3539910" lon="-3.6923330">
        <ele>875.6</ele>
        <time>2021-09-30T16:17:39Z</time>
      </trkpt>
      <trkpt lat="42.3537300" lon="-3.6926810">
        <ele>874.6</ele>
        <time>2021-09-30T16:17:45Z</time>
      </trkpt>
      <trkpt lat="42.3533320" lon="-3.6931990">
        <ele>874.0</ele>
        <time>2021-09-30T16:17:54Z</time>
      </trkpt>
      <trkpt lat="42.3530160" lon="-3.6936260">
        <ele>873.6</ele>
        <time>2021-09-30T16:18:01Z</time>
      </trkpt>
      <trkpt lat="42.3527960" lon="-3.6939250">
        <ele>873.4</ele>
        <time>2021-09-30T16:18:06Z</time>
      </trkpt>
      <trkpt lat="42.3525740" lon="-3.6942440">
        <ele>873.4</ele>
        <time>2021-09-30T16:18:12Z</time>
      </trkpt>
      <trkpt lat="42.3524940" lon="-3.6943540">
        <ele>873.4</ele>
        <time>2021-09-30T16:18:16Z</time>
      </trkpt>
      <trkpt lat="42.3524040" lon="-3.6944920">
        <ele>875.2</ele>
        <time>2021-09-30T16:18:49Z</time>
      </trkpt>
      <trkpt lat="42.3523830" lon="-3.6945220">
        <ele>875.2</ele>
        <time>2021-09-30T16:18:50Z</time>
      </trkpt>
      <trkpt lat="42.3523290" lon="-3.6946070">
        <ele>875.2</ele>
        <time>2021-09-30T16:18:52Z</time>
      </trkpt>
      <trkpt lat="42.3522950" lon="-3.6946580">
        <ele>875.2</ele>
        <time>2021-09-30T16:18:53Z</time>
      </trkpt>
      <trkpt lat="42.3522190" lon="-3.6947670">
        <ele>875.2</ele>
        <time>2021-09-30T16:18:55Z</time>
      </trkpt>
      <trkpt lat="42.3520980" lon="-3.6949360">
        <ele>874.6</ele>
        <time>2021-09-30T16:18:58Z</time>
      </trkpt>
      <trkpt lat="42.3520200" lon="-3.6950570">
        <ele>873.8</ele>
        <time>2021-09-30T16:19:00Z</time>
      </trkpt>
      <trkpt lat="42.3518590" lon="-3.6952980">
        <ele>872.8</ele>
        <time>2021-09-30T16:19:04Z</time>
      </trkpt>
      <trkpt lat="42.3516980" lon="-3.6955250">
        <ele>871.8</ele>
        <time>2021-09-30T16:19:08Z</time>
      </trkpt>
      <trkpt lat="42.3515100" lon="-3.6957910">
        <ele>871.6</ele>
        <time>2021-09-30T16:19:13Z</time>
      </trkpt>
      <trkpt lat="42.3513840" lon="-3.6959730">
        <ele>871.6</ele>
        <time>2021-09-30T16:19:19Z</time>
      </trkpt>
      <trkpt lat="42.3513820" lon="-3.6959750">
        <ele>871.8</ele>
        <time>2021-09-30T16:19:20Z</time>
      </trkpt>
      <trkpt lat="42.3514400" lon="-3.6959030">
        <ele>873.6</ele>
        <time>2021-09-30T16:19:48Z</time>
      </trkpt>
      <trkpt lat="42.3513790" lon="-3.6956500">
        <ele>873.4</ele>
        <time>2021-09-30T16:19:56Z</time>
      </trkpt>
      <trkpt lat="42.3512120" lon="-3.6957030">
        <ele>873.4</ele>
        <time>2021-09-30T16:20:00Z</time>
      </trkpt>
      <trkpt lat="42.3510490" lon="-3.6957690">
        <ele>872.2</ele>
        <time>2021-09-30T16:20:03Z</time>
      </trkpt>
      <trkpt lat="42.3509120" lon="-3.6957810">
        <ele>871.0</ele>
        <time>2021-09-30T16:20:05Z</time>
      </trkpt>
      <trkpt lat="42.3507730" lon="-3.6957970">
        <ele>869.6</ele>
        <time>2021-09-30T16:20:07Z</time>
      </trkpt>
      <trkpt lat="42.3505930" lon="-3.6958750">
        <ele>868.2</ele>
        <time>2021-09-30T16:20:10Z</time>
      </trkpt>
      <trkpt lat="42.3503520" lon="-3.6959840">
        <ele>867.2</ele>
        <time>2021-09-30T16:20:14Z</time>
      </trkpt>
      <trkpt lat="42.3502960" lon="-3.6960110">
        <ele>867.0</ele>
        <time>2021-09-30T16:20:15Z</time>
      </trkpt>
      <trkpt lat="42.3499460" lon="-3.6960530">
        <ele>866.8</ele>
        <time>2021-09-30T16:20:23Z</time>
      </trkpt>
      <trkpt lat="42.3499230" lon="-3.6960610">
        <ele>866.8</ele>
        <time>2021-09-30T16:20:26Z</time>
      </trkpt>
      <trkpt lat="42.3498910" lon="-3.6960490">
        <ele>868.4</ele>
        <time>2021-09-30T16:20:47Z</time>
      </trkpt>
      <trkpt lat="42.3497940" lon="-3.6960980">
        <ele>868.4</ele>
        <time>2021-09-30T16:20:50Z</time>
      </trkpt>
      <trkpt lat="42.3497050" lon="-3.6961460">
        <ele>868.4</ele>
        <time>2021-09-30T16:20:52Z</time>
      </trkpt>
      <trkpt lat="42.3496070" lon="-3.6961950">
        <ele>868.4</ele>
        <time>2021-09-30T16:20:54Z</time>
      </trkpt>
      <trkpt lat="42.3494540" lon="-3.6962880">
        <ele>867.6</ele>
        <time>2021-09-30T16:20:57Z</time>
      </trkpt>
      <trkpt lat="42.3494010" lon="-3.6963190">
        <ele>867.4</ele>
        <time>2021-09-30T16:20:58Z</time>
      </trkpt>
      <trkpt lat="42.3491380" lon="-3.6964870">
        <ele>866.8</ele>
        <time>2021-09-30T16:21:03Z</time>
      </trkpt>
      <trkpt lat="42.3485920" lon="-3.6966610">
        <ele>866.4</ele>
        <time>2021-09-30T16:21:12Z</time>
      </trkpt>
      <trkpt lat="42.3484790" lon="-3.6966840">
        <ele>866.4</ele>
        <time>2021-09-30T16:21:14Z</time>
      </trkpt>
      <trkpt lat="42.3479580" lon="-3.6969830">
        <ele>866.4</ele>
        <time>2021-09-30T16:21:23Z</time>
      </trkpt>
      <trkpt lat="42.3474310" lon="-3.6972230">
        <ele>866.4</ele>
        <time>2021-09-30T16:21:31Z</time>
      </trkpt>
      <trkpt lat="42.3473040" lon="-3.6972850">
        <ele>866.2</ele>
        <time>2021-09-30T16:21:33Z</time>
      </trkpt>
      <trkpt lat="42.3467830" lon="-3.6975190">
        <ele>865.4</ele>
        <time>2021-09-30T16:21:41Z</time>
      </trkpt>
      <trkpt lat="42.3462600" lon="-3.6977460">
        <ele>865.2</ele>
        <time>2021-09-30T16:21:49Z</time>
      </trkpt>
      <trkpt lat="42.3458600" lon="-3.6979770">
        <ele>865.2</ele>
        <time>2021-09-30T16:21:56Z</time>
      </trkpt>
      <trkpt lat="42.3458110" lon="-3.6980010">
        <ele>865.2</ele>
        <time>2021-09-30T16:21:57Z</time>
      </trkpt>
      <trkpt lat="42.3457020" lon="-3.6980490">
        <ele>865.4</ele>
        <time>2021-09-30T16:22:00Z</time>
      </trkpt>
      <trkpt lat="42.3456600" lon="-3.6980860">
        <ele>865.6</ele>
        <time>2021-09-30T16:22:03Z</time>
      </trkpt>
      <trkpt lat="42.3456540" lon="-3.6981020">
        <ele>867.2</ele>
        <time>2021-09-30T16:22:16Z</time>
      </trkpt>
      <trkpt lat="42.3456440" lon="-3.6981120">
        <ele>867.2</ele>
        <time>2021-09-30T16:22:17Z</time>
      </trkpt>
      <trkpt lat="42.3455900" lon="-3.6981480">
        <ele>867.2</ele>
        <time>2021-09-30T16:22:21Z</time>
      </trkpt>
      <trkpt lat="42.3454780" lon="-3.6982330">
        <ele>867.2</ele>
        <time>2021-09-30T16:22:24Z</time>
      </trkpt>
      <trkpt lat="42.3453440" lon="-3.6983310">
        <ele>866.8</ele>
        <time>2021-09-30T16:22:27Z</time>
      </trkpt>
      <trkpt lat="42.3450650" lon="-3.6984410">
        <ele>866.0</ele>
        <time>2021-09-30T16:22:32Z</time>
      </trkpt>
      <trkpt lat="42.3450130" lon="-3.6984630">
        <ele>865.8</ele>
        <time>2021-09-30T16:22:33Z</time>
      </trkpt>
      <trkpt lat="42.3449610" lon="-3.6984830">
        <ele>864.8</ele>
        <time>2021-09-30T16:22:34Z</time>
      </trkpt>
      <trkpt lat="42.3447650" lon="-3.6985620">
        <ele>864.4</ele>
        <time>2021-09-30T16:22:38Z</time>
      </trkpt>
      <trkpt lat="42.3446380" lon="-3.6986220">
        <ele>864.4</ele>
        <time>2021-09-30T16:22:41Z</time>
      </trkpt>
      <trkpt lat="42.3445560" lon="-3.6986550">
        <ele>864.4</ele>
        <time>2021-09-30T16:22:44Z</time>
      </trkpt>
      <trkpt lat="42.3444710" lon="-3.6986860">
        <ele>865.8</ele>
        <time>2021-09-30T16:22:51Z</time>
      </trkpt>
      <trkpt lat="42.3443830" lon="-3.6987050">
        <ele>866.2</ele>
        <time>2021-09-30T16:22:54Z</time>
      </trkpt>
      <trkpt lat="42.3442880" lon="-3.6987470">
        <ele>866.2</ele>
        <time>2021-09-30T16:22:56Z</time>
      </trkpt>
      <trkpt lat="42.3441910" lon="-3.6987750">
        <ele>866.2</ele>
        <time>2021-09-30T16:22:58Z</time>
      </trkpt>
      <trkpt lat="42.3441120" lon="-3.6987660">
        <ele>866.2</ele>
        <time>2021-09-30T16:23:00Z</time>
      </trkpt>
      <trkpt lat="42.3440560" lon="-3.6986190">
        <ele>865.8</ele>
        <time>2021-09-30T16:23:04Z</time>
      </trkpt>
      <trkpt lat="42.3440260" lon="-3.6985000">
        <ele>865.4</ele>
        <time>2021-09-30T16:23:06Z</time>
      </trkpt>
      <trkpt lat="42.3439820" lon="-3.6983590">
        <ele>865.4</ele>
        <time>2021-09-30T16:23:10Z</time>
      </trkpt>
      <trkpt lat="42.3439520" lon="-3.6982610">
        <ele>866.2</ele>
        <time>2021-09-30T16:23:15Z</time>
      </trkpt>
      <trkpt lat="42.3439030" lon="-3.6979300">
        <ele>866.6</ele>
        <time>2021-09-30T16:23:42Z</time>
      </trkpt>
      <trkpt lat="42.3438890" lon="-3.6978320">
        <ele>866.6</ele>
        <time>2021-09-30T16:23:46Z</time>
      </trkpt>
      <trkpt lat="42.3438110" lon="-3.6975370">
        <ele>866.4</ele>
        <time>2021-09-30T16:23:52Z</time>
      </trkpt>
      <trkpt lat="42.3437760" lon="-3.6974160">
        <ele>866.2</ele>
        <time>2021-09-30T16:23:54Z</time>
      </trkpt>
      <trkpt lat="42.3436920" lon="-3.6971330">
        <ele>866.0</ele>
        <time>2021-09-30T16:23:58Z</time>
      </trkpt>
      <trkpt lat="42.3436560" lon="-3.6969920">
        <ele>866.0</ele>
        <time>2021-09-30T16:24:00Z</time>
      </trkpt>
      <trkpt lat="42.3435630" lon="-3.6968270">
        <ele>866.0</ele>
        <time>2021-09-30T16:24:03Z</time>
      </trkpt>
      <trkpt lat="42.3434520" lon="-3.6967360">
        <ele>866.0</ele>
        <time>2021-09-30T16:24:06Z</time>
      </trkpt>
      <trkpt lat="42.3432540" lon="-3.6966730">
        <ele>866.2</ele>
        <time>2021-09-30T16:24:12Z</time>
      </trkpt>
      <trkpt lat="42.3432040" lon="-3.6966860">
        <ele>866.2</ele>
        <time>2021-09-30T16:24:16Z</time>
      </trkpt>
      <trkpt lat="42.3431310" lon="-3.6966660">
        <ele>867.0</ele>
        <time>2021-09-30T16:25:02Z</time>
      </trkpt>
      <trkpt lat="42.3430730" lon="-3.6966460">
        <ele>867.0</ele>
        <time>2021-09-30T16:25:04Z</time>
      </trkpt>
      <trkpt lat="42.3429130" lon="-3.6965900">
        <ele>866.8</ele>
        <time>2021-09-30T16:25:08Z</time>
      </trkpt>
      <trkpt lat="42.3428310" lon="-3.6965770">
        <ele>866.6</ele>
        <time>2021-09-30T16:25:10Z</time>
      </trkpt>
      <trkpt lat="42.3423950" lon="-3.6966180">
        <ele>865.8</ele>
        <time>2021-09-30T16:25:20Z</time>
      </trkpt>
      <trkpt lat="42.3423330" lon="-3.6966230">
        <ele>865.8</ele>
        <time>2021-09-30T16:25:22Z</time>
      </trkpt>
      <trkpt lat="42.3422560" lon="-3.6966270">
        <ele>866.0</ele>
        <time>2021-09-30T16:25:25Z</time>
      </trkpt>
      <trkpt lat="42.3421850" lon="-3.7201500">
        <ele>850.7</ele>
        <time>2021-10-01T09:11:25Z</time>
      </trkpt>
      <trkpt lat="42.3421850" lon="-3.7201500">
        <ele>850.7</ele>
        <time>2021-10-01T09:11:27Z</time>
      </trkpt>
      <trkpt lat="42.3421850" lon="-3.7201490">
        <ele>850.7</ele>
        <time>2021-10-01T09:11:29Z</time>
      </trkpt>
      <trkpt lat="42.3421850" lon="-3.7201510">
        <ele>850.7</ele>
        <time>2021-10-01T09:11:31Z</time>
      </trkpt>
      <trkpt lat="42.3421850" lon="-3.7201520">
        <ele>850.7</ele>
        <time>2021-10-01T09:11:32Z</time>
      </trkpt>
      <trkpt lat="42.3421860" lon="-3.7201520">
        <ele>850.7</ele>
        <time>2021-10-01T09:11:34Z</time>
      </trkpt>
      <trkpt lat="42.3421860" lon="-3.7201520">
        <ele>850.7</ele>
        <time>2021-10-01T09:11:35Z</time>
      </trkpt>
      <trkpt lat="42.3422000" lon="-3.7201950">
        <ele>850.7</ele>
        <time>2021-10-01T09:11:39Z</time>
      </trkpt>
      <trkpt lat="42.3421900" lon="-3.7202570">
        <ele>850.7</ele>
        <time>2021-10-01T09:11:41Z</time>
      </trkpt>
      <trkpt lat="42.3421730" lon="-3.7203350">
        <ele>850.7</ele>
        <time>2021-10-01T09:11:43Z</time>
      </trkpt>
      <trkpt lat="42.3421650" lon="-3.7204030">
        <ele>850.6</ele>
        <time>2021-10-01T09:11:44Z</time>
      </trkpt>
      <trkpt lat="42.3421670" lon="-3.7205060">
        <ele>850.6</ele>
        <time>2021-10-01T09:11:46Z</time>
      </trkpt>
      <trkpt lat="42.3421950" lon="-3.7206080">
        <ele>850.5</ele>
        <time>2021-10-01T09:11:48Z</time>
      </trkpt>
      <trkpt lat="42.3422350" lon="-3.7207180">
        <ele>850.4</ele>
        <time>2021-10-01T09:11:50Z</time>
      </trkpt>
      <trkpt lat="42.3422590" lon="-3.7207750">
        <ele>850.4</ele>
        <time>2021-10-01T09:11:51Z</time>
      </trkpt>
      <trkpt lat="42.3423090" lon="-3.7208880">
        <ele>850.3</ele>
        <time>2021-10-01T09:11:53Z</time>
      </trkpt>
      <trkpt lat="42.3423420" lon="-3.7209460">
        <ele>850.3</ele>
        <time>2021-10-01T09:11:54Z</time>
      </trkpt>
      <trkpt lat="42.3424030" lon="-3.7210650">
        <ele>850.2</ele>
        <time>2021-10-01T09:11:56Z</time>
      </trkpt>
      <trkpt lat="42.3424270" lon="-3.7211170">
        <ele>850.2</ele>
        <time>2021-10-01T09:11:57Z</time>
      </trkpt>
      <trkpt lat="42.3424410" lon="-3.7211480">
        <ele>850.1</ele>
        <time>2021-10-01T09:11:58Z</time>
      </trkpt>
      <trkpt lat="42.3424960" lon="-3.7212530">
        <ele>850.1</ele>
        <time>2021-10-01T09:12:00Z</time>
      </trkpt>
      <trkpt lat="42.3425210" lon="-3.7213040">
        <ele>850.1</ele>
        <time>2021-10-01T09:12:01Z</time>
      </trkpt>
      <trkpt lat="42.3425290" lon="-3.7213560">
        <ele>850.0</ele>
        <time>2021-10-01T09:12:02Z</time>
      </trkpt>
      <trkpt lat="42.3425800" lon="-3.7214690">
        <ele>850.0</ele>
        <time>2021-10-01T09:12:04Z</time>
      </trkpt>
      <trkpt lat="42.3426080" lon="-3.7215250">
        <ele>849.9</ele>
        <time>2021-10-01T09:12:05Z</time>
      </trkpt>
      <trkpt lat="42.3426720" lon="-3.7216360">
        <ele>849.9</ele>
        <time>2021-10-01T09:12:07Z</time>
      </trkpt>
      <trkpt lat="42.3427320" lon="-3.7217540">
        <ele>849.8</ele>
        <time>2021-10-01T09:12:09Z</time>
      </trkpt>
      <trkpt lat="42.3427870" lon="-3.7218470">
        <ele>849.8</ele>
        <time>2021-10-01T09:12:11Z</time>
      </trkpt>
      <trkpt lat="42.3428350" lon="-3.7219590">
        <ele>849.7</ele>
        <time>2021-10-01T09:12:13Z</time>
      </trkpt>
      <trkpt lat="42.3428520" lon="-3.7220220">
        <ele>849.7</ele>
        <time>2021-10-01T09:12:14Z</time>
      </trkpt>
      <trkpt lat="42.3428700" lon="-3.7220940">
        <ele>849.7</ele>
        <time>2021-10-01T09:12:15Z</time>
      </trkpt>
      <trkpt lat="42.3428820" lon="-3.7221620">
        <ele>849.7</ele>
        <time>2021-10-01T09:12:16Z</time>
      </trkpt>
      <trkpt lat="42.3429060" lon="-3.7223130">
        <ele>849.6</ele>
        <time>2021-10-01T09:12:18Z</time>
      </trkpt>
      <trkpt lat="42.3429240" lon="-3.7223840">
        <ele>849.6</ele>
        <time>2021-10-01T09:12:19Z</time>
      </trkpt>
      <trkpt lat="42.3429720" lon="-3.7225020">
        <ele>849.5</ele>
        <time>2021-10-01T09:12:21Z</time>
      </trkpt>
      <trkpt lat="42.3430180" lon="-3.7226190">
        <ele>849.4</ele>
        <time>2021-10-01T09:12:23Z</time>
      </trkpt>
      <trkpt lat="42.3430460" lon="-3.7226790">
        <ele>849.4</ele>
        <time>2021-10-01T09:12:24Z</time>
      </trkpt>
      <trkpt lat="42.3431080" lon="-3.7227870">
        <ele>849.4</ele>
        <time>2021-10-01T09:12:26Z</time>
      </trkpt>
      <trkpt lat="42.3431340" lon="-3.7228430">
        <ele>849.3</ele>
        <time>2021-10-01T09:12:27Z</time>
      </trkpt>
      <trkpt lat="42.3431740" lon="-3.7229680">
        <ele>849.3</ele>
        <time>2021-10-01T09:12:29Z</time>
      </trkpt>
      <trkpt lat="42.3431950" lon="-3.7230400">
        <ele>849.3</ele>
        <time>2021-10-01T09:12:30Z</time>
      </trkpt>
      <trkpt lat="42.3432160" lon="-3.7231060">
        <ele>849.3</ele>
        <time>2021-10-01T09:12:31Z</time>
      </trkpt>
      <trkpt lat="42.3432660" lon="-3.7232400">
        <ele>849.2</ele>
        <time>2021-10-01T09:12:33Z</time>
      </trkpt>
      <trkpt lat="42.3432980" lon="-3.7233040">
        <ele>849.2</ele>
        <time>2021-10-01T09:12:34Z</time>
      </trkpt>
      <trkpt lat="42.3433300" lon="-3.7233680">
        <ele>849.1</ele>
        <time>2021-10-01T09:12:35Z</time>
      </trkpt>
      <trkpt lat="42.3434010" lon="-3.7234880">
        <ele>849.1</ele>
        <time>2021-10-01T09:12:37Z</time>
      </trkpt>
      <trkpt lat="42.3434360" lon="-3.7235500">
        <ele>849.1</ele>
        <time>2021-10-01T09:12:38Z</time>
      </trkpt>
      <trkpt lat="42.3435010" lon="-3.7236750">
        <ele>849.0</ele>
        <time>2021-10-01T09:12:40Z</time>
      </trkpt>
      <trkpt lat="42.3435580" lon="-3.7238030">
        <ele>849.0</ele>
        <time>2021-10-01T09:12:42Z</time>
      </trkpt>
      <trkpt lat="42.3435830" lon="-3.7238660">
        <ele>849.0</ele>
        <time>2021-10-01T09:12:43Z</time>
      </trkpt>
      <trkpt lat="42.3436090" lon="-3.7239310">
        <ele>848.9</ele>
        <time>2021-10-01T09:12:44Z</time>
      </trkpt>
      <trkpt lat="42.3436610" lon="-3.7240630">
        <ele>848.9</ele>
        <time>2021-10-01T09:12:46Z</time>
      </trkpt>
      <trkpt lat="42.3437140" lon="-3.7241930">
        <ele>848.8</ele>
        <time>2021-10-01T09:12:48Z</time>
      </trkpt>
      <trkpt lat="42.3437390" lon="-3.7242580">
        <ele>848.8</ele>
        <time>2021-10-01T09:12:49Z</time>
      </trkpt>
      <trkpt lat="42.3437850" lon="-3.7243820">
        <ele>848.8</ele>
        <time>2021-10-01T09:12:51Z</time>
      </trkpt>
      <trkpt lat="42.3438060" lon="-3.7244430">
        <ele>848.8</ele>
        <time>2021-10-01T09:12:52Z</time>
      </trkpt>
      <trkpt lat="42.3438300" lon="-3.7245070">
        <ele>848.7</ele>
        <time>2021-10-01T09:12:53Z</time>
      </trkpt>
      <trkpt lat="42.3438860" lon="-3.7246360">
        <ele>848.7</ele>
        <time>2021-10-01T09:12:55Z</time>
      </trkpt>
      <trkpt lat="42.3439120" lon="-3.7247000">
        <ele>848.7</ele>
        <time>2021-10-01T09:12:56Z</time>
      </trkpt>
      <trkpt lat="42.3439610" lon="-3.7248260">
        <ele>848.7</ele>
        <time>2021-10-01T09:12:58Z</time>
      </trkpt>
      <trkpt lat="42.3440110" lon="-3.7249520">
        <ele>848.6</ele>
        <time>2021-10-01T09:13:00Z</time>
      </trkpt>
      <trkpt lat="42.3440350" lon="-3.7250170">
        <ele>848.6</ele>
        <time>2021-10-01T09:13:01Z</time>
      </trkpt>
      <trkpt lat="42.3440840" lon="-3.7251440">
        <ele>848.6</ele>
        <time>2021-10-01T09:13:03Z</time>
      </trkpt>
      <trkpt lat="42.3441350" lon="-3.7252750">
        <ele>848.5</ele>
        <time>2021-10-01T09:13:05Z</time>
      </trkpt>
      <trkpt lat="42.3441820" lon="-3.7253960">
        <ele>848.5</ele>
        <time>2021-10-01T09:13:07Z</time>
      </trkpt>
      <trkpt lat="42.3442100" lon="-3.7254600">
        <ele>848.5</ele>
        <time>2021-10-01T09:13:08Z</time>
      </trkpt>
      <trkpt lat="42.3442650" lon="-3.7255850">
        <ele>848.5</ele>
        <time>2021-10-01T09:13:10Z</time>
      </trkpt>
      <trkpt lat="42.3443150" lon="-3.7257120">
        <ele>848.4</ele>
        <time>2021-10-01T09:13:12Z</time>
      </trkpt>
      <trkpt lat="42.3443620" lon="-3.7258390">
        <ele>848.4</ele>
        <time>2021-10-01T09:13:14Z</time>
      </trkpt>
      <trkpt lat="42.3444060" lon="-3.7259690">
        <ele>848.3</ele>
        <time>2021-10-01T09:13:16Z</time>
      </trkpt>
      <trkpt lat="42.3444470" lon="-3.7260820">
        <ele>848.3</ele>
        <time>2021-10-01T09:13:18Z</time>
      </trkpt>
      <trkpt lat="42.3444600" lon="-3.7261270">
        <ele>848.3</ele>
        <time>2021-10-01T09:13:19Z</time>
      </trkpt>
      <trkpt lat="42.3445010" lon="-3.7262380">
        <ele>848.4</ele>
        <time>2021-10-01T09:13:21Z</time>
      </trkpt>
      <trkpt lat="42.3445200" lon="-3.7262820">
        <ele>848.4</ele>
        <time>2021-10-01T09:13:22Z</time>
      </trkpt>
      <trkpt lat="42.3445440" lon="-3.7263300">
        <ele>848.4</ele>
        <time>2021-10-01T09:13:23Z</time>
      </trkpt>
      <trkpt lat="42.3445980" lon="-3.7264260">
        <ele>848.4</ele>
        <time>2021-10-01T09:13:25Z</time>
      </trkpt>
      <trkpt lat="42.3446190" lon="-3.7264660">
        <ele>848.5</ele>
        <time>2021-10-01T09:13:26Z</time>
      </trkpt>
      <trkpt lat="42.3446480" lon="-3.7265630">
        <ele>848.5</ele>
        <time>2021-10-01T09:13:28Z</time>
      </trkpt>
      <trkpt lat="42.3446550" lon="-3.7266230">
        <ele>848.6</ele>
        <time>2021-10-01T09:13:29Z</time>
      </trkpt>
      <trkpt lat="42.3446760" lon="-3.7266810">
        <ele>848.7</ele>
        <time>2021-10-01T09:13:30Z</time>
      </trkpt>
      <trkpt lat="42.3447030" lon="-3.7267560">
        <ele>848.8</ele>
        <time>2021-10-01T09:13:32Z</time>
      </trkpt>
      <trkpt lat="42.3447220" lon="-3.7268070">
        <ele>848.8</ele>
        <time>2021-10-01T09:13:33Z</time>
      </trkpt>
      <trkpt lat="42.3447460" lon="-3.7268710">
        <ele>849.2</ele>
        <time>2021-10-01T09:13:35Z</time>
      </trkpt>
      <trkpt lat="42.3447480" lon="-3.7269160">
        <ele>849.3</ele>
        <time>2021-10-01T09:13:37Z</time>
      </trkpt>
      <trkpt lat="42.3447460" lon="-3.7269340">
        <ele>849.3</ele>
        <time>2021-10-01T09:13:38Z</time>
      </trkpt>
      <trkpt lat="42.3447520" lon="-3.7269510">
        <ele>849.3</ele>
        <time>2021-10-01T09:13:39Z</time>
      </trkpt>
      <trkpt lat="42.3447690" lon="-3.7269880">
        <ele>849.2</ele>
        <time>2021-10-01T09:13:41Z</time>
      </trkpt>
      <trkpt lat="42.3447900" lon="-3.7270350">
        <ele>849.1</ele>
        <time>2021-10-01T09:13:42Z</time>
      </trkpt>
      <trkpt lat="42.3448100" lon="-3.7270840">
        <ele>848.9</ele>
        <time>2021-10-01T09:13:44Z</time>
      </trkpt>
      <trkpt lat="42.3448390" lon="-3.7271330">
        <ele>848.8</ele>
        <time>2021-10-01T09:13:46Z</time>
      </trkpt>
      <trkpt lat="42.3448640" lon="-3.7271640">
        <ele>848.6</ele>
        <time>2021-10-01T09:13:47Z</time>
      </trkpt>
      <trkpt lat="42.3448850" lon="-3.7271840">
        <ele>848.6</ele>
        <time>2021-10-01T09:13:48Z</time>
      </trkpt>
      <trkpt lat="42.3449170" lon="-3.7272140">
        <ele>848.5</ele>
        <time>2021-10-01T09:13:50Z</time>
      </trkpt>
      <trkpt lat="42.3449400" lon="-3.7272410">
        <ele>848.4</ele>
        <time>2021-10-01T09:13:51Z</time>
      </trkpt>
      <trkpt lat="42.3449470" lon="-3.7272520">
        <ele>848.4</ele>
        <time>2021-10-01T09:13:52Z</time>
      </trkpt>
      <trkpt lat="42.3449620" lon="-3.7272810">
        <ele>848.3</ele>
        <time>2021-10-01T09:13:53Z</time>
      </trkpt>
      <trkpt lat="42.3450000" lon="-3.7273550">
        <ele>848.1</ele>
        <time>2021-10-01T09:13:55Z</time>
      </trkpt>
      <trkpt lat="42.3450380" lon="-3.7274430">
        <ele>848.0</ele>
        <time>2021-10-01T09:13:57Z</time>
      </trkpt>
      <trkpt lat="42.3450660" lon="-3.7275030">
        <ele>847.8</ele>
        <time>2021-10-01T09:13:58Z</time>
      </trkpt>
      <trkpt lat="42.3451150" lon="-3.7276140">
        <ele>847.6</ele>
        <time>2021-10-01T09:14:00Z</time>
      </trkpt>
      <trkpt lat="42.3451290" lon="-3.7276560">
        <ele>847.5</ele>
        <time>2021-10-01T09:14:01Z</time>
      </trkpt>
      <trkpt lat="42.3451540" lon="-3.7277460">
        <ele>847.4</ele>
        <time>2021-10-01T09:14:03Z</time>
      </trkpt>
      <trkpt lat="42.3451740" lon="-3.7277960">
        <ele>847.1</ele>
        <time>2021-10-01T09:14:04Z</time>
      </trkpt>
      <trkpt lat="42.3451890" lon="-3.7278610">
        <ele>846.9</ele>
        <time>2021-10-01T09:14:05Z</time>
      </trkpt>
      <trkpt lat="42.3452050" lon="-3.7279380">
        <ele>846.7</ele>
        <time>2021-10-01T09:14:07Z</time>
      </trkpt>
      <trkpt lat="42.3452220" lon="-3.7280240">
        <ele>846.6</ele>
        <time>2021-10-01T09:14:08Z</time>
      </trkpt>
      <trkpt lat="42.3452340" lon="-3.7280820">
        <ele>846.5</ele>
        <time>2021-10-01T09:14:10Z</time>
      </trkpt>
      <trkpt lat="42.3452820" lon="-3.7282270">
        <ele>846.4</ele>
        <time>2021-10-01T09:14:11Z</time>
      </trkpt>
      <trkpt lat="42.3453090" lon="-3.7283170">
        <ele>846.4</ele>
        <time>2021-10-01T09:14:12Z</time>
      </trkpt>
      <trkpt lat="42.3453240" lon="-3.7283700">
        <ele>846.4</ele>
        <time>2021-10-01T09:14:14Z</time>
      </trkpt>
      <trkpt lat="42.3453480" lon="-3.7284350">
        <ele>846.3</ele>
        <time>2021-10-01T09:14:15Z</time>
      </trkpt>
      <trkpt lat="42.3453670" lon="-3.7284920">
        <ele>846.3</ele>
        <time>2021-10-01T09:14:16Z</time>
      </trkpt>
      <trkpt lat="42.3453930" lon="-3.7285600">
        <ele>846.3</ele>
        <time>2021-10-01T09:14:17Z</time>
      </trkpt>
      <trkpt lat="42.3454330" lon="-3.7286860">
        <ele>846.2</ele>
        <time>2021-10-01T09:14:19Z</time>
      </trkpt>
      <trkpt lat="42.3454720" lon="-3.7288150">
        <ele>846.0</ele>
        <time>2021-10-01T09:14:21Z</time>
      </trkpt>
      <trkpt lat="42.3454940" lon="-3.7288800">
        <ele>846.0</ele>
        <time>2021-10-01T09:14:22Z</time>
      </trkpt>
      <trkpt lat="42.3455240" lon="-3.7289440">
        <ele>846.0</ele>
        <time>2021-10-01T09:14:23Z</time>
      </trkpt>
      <trkpt lat="42.3455510" lon="-3.7290100">
        <ele>846.0</ele>
        <time>2021-10-01T09:14:24Z</time>
      </trkpt>
      <trkpt lat="42.3455710" lon="-3.7290750">
        <ele>846.0</ele>
        <time>2021-10-01T09:14:25Z</time>
      </trkpt>
      <trkpt lat="42.3456070" lon="-3.7291930">
        <ele>846.0</ele>
        <time>2021-10-01T09:14:27Z</time>
      </trkpt>
      <trkpt lat="42.3456320" lon="-3.7292550">
        <ele>846.0</ele>
        <time>2021-10-01T09:14:28Z</time>
      </trkpt>
      <trkpt lat="42.3456720" lon="-3.7293770">
        <ele>846.0</ele>
        <time>2021-10-01T09:14:30Z</time>
      </trkpt>
      <trkpt lat="42.3456950" lon="-3.7294400">
        <ele>846.0</ele>
        <time>2021-10-01T09:14:31Z</time>
      </trkpt>
      <trkpt lat="42.3457460" lon="-3.7295820">
        <ele>845.9</ele>
        <time>2021-10-01T09:14:33Z</time>
      </trkpt>
      <trkpt lat="42.3457830" lon="-3.7297130">
        <ele>845.9</ele>
        <time>2021-10-01T09:14:35Z</time>
      </trkpt>
      <trkpt lat="42.3458010" lon="-3.7297720">
        <ele>845.9</ele>
        <time>2021-10-01T09:14:36Z</time>
      </trkpt>
      <trkpt lat="42.3458600" lon="-3.7298840">
        <ele>845.9</ele>
        <time>2021-10-01T09:14:38Z</time>
      </trkpt>
      <trkpt lat="42.3458950" lon="-3.7299500">
        <ele>845.9</ele>
        <time>2021-10-01T09:14:39Z</time>
      </trkpt>
      <trkpt lat="42.3459500" lon="-3.7300570">
        <ele>845.9</ele>
        <time>2021-10-01T09:14:41Z</time>
      </trkpt>
      <trkpt lat="42.3459790" lon="-3.7301640">
        <ele>845.9</ele>
        <time>2021-10-01T09:14:43Z</time>
      </trkpt>
      <trkpt lat="42.3460230" lon="-3.7303020">
        <ele>845.9</ele>
        <time>2021-10-01T09:14:45Z</time>
      </trkpt>
      <trkpt lat="42.3460360" lon="-3.7303650">
        <ele>845.9</ele>
        <time>2021-10-01T09:14:46Z</time>
      </trkpt>
      <trkpt lat="42.3460520" lon="-3.7304310">
        <ele>845.9</ele>
        <time>2021-10-01T09:14:47Z</time>
      </trkpt>
      <trkpt lat="42.3460750" lon="-3.7304940">
        <ele>845.9</ele>
        <time>2021-10-01T09:14:48Z</time>
      </trkpt>
      <trkpt lat="42.3461010" lon="-3.7305490">
        <ele>845.9</ele>
        <time>2021-10-01T09:14:49Z</time>
      </trkpt>
      <trkpt lat="42.3461560" lon="-3.7306540">
        <ele>845.8</ele>
        <time>2021-10-01T09:14:51Z</time>
      </trkpt>
      <trkpt lat="42.3461790" lon="-3.7307160">
        <ele>845.8</ele>
        <time>2021-10-01T09:14:52Z</time>
      </trkpt>
      <trkpt lat="42.3462130" lon="-3.7308520">
        <ele>845.8</ele>
        <time>2021-10-01T09:14:54Z</time>
      </trkpt>
      <trkpt lat="42.3462340" lon="-3.7309190">
        <ele>845.8</ele>
        <time>2021-10-01T09:14:55Z</time>
      </trkpt>
      <trkpt lat="42.3462810" lon="-3.7310590">
        <ele>845.8</ele>
        <time>2021-10-01T09:14:57Z</time>
      </trkpt>
      <trkpt lat="42.3463300" lon="-3.7311940">
        <ele>845.8</ele>
        <time>2021-10-01T09:14:59Z</time>
      </trkpt>
      <trkpt lat="42.3463520" lon="-3.7312580">
        <ele>845.8</ele>
        <time>2021-10-01T09:15:00Z</time>
      </trkpt>
      <trkpt lat="42.3463740" lon="-3.7313190">
        <ele>845.8</ele>
        <time>2021-10-01T09:15:01Z</time>
      </trkpt>
      <trkpt lat="42.3463960" lon="-3.7313820">
        <ele>845.8</ele>
        <time>2021-10-01T09:15:02Z</time>
      </trkpt>
      <trkpt lat="42.3464280" lon="-3.7314950">
        <ele>845.9</ele>
        <time>2021-10-01T09:15:04Z</time>
      </trkpt>
      <trkpt lat="42.3464750" lon="-3.7316220">
        <ele>845.9</ele>
        <time>2021-10-01T09:15:06Z</time>
      </trkpt>
      <trkpt lat="42.3465350" lon="-3.7317140">
        <ele>845.9</ele>
        <time>2021-10-01T09:15:08Z</time>
      </trkpt>
      <trkpt lat="42.3465680" lon="-3.7317550">
        <ele>845.9</ele>
        <time>2021-10-01T09:15:09Z</time>
      </trkpt>
      <trkpt lat="42.3466270" lon="-3.7318500">
        <ele>845.9</ele>
        <time>2021-10-01T09:15:11Z</time>
      </trkpt>
      <trkpt lat="42.3466720" lon="-3.7319610">
        <ele>845.8</ele>
        <time>2021-10-01T09:15:13Z</time>
      </trkpt>
      <trkpt lat="42.3467160" lon="-3.7320630">
        <ele>845.7</ele>
        <time>2021-10-01T09:15:15Z</time>
      </trkpt>
      <trkpt lat="42.3467470" lon="-3.7321570">
        <ele>845.6</ele>
        <time>2021-10-01T09:15:17Z</time>
      </trkpt>
      <trkpt lat="42.3467910" lon="-3.7322570">
        <ele>845.5</ele>
        <time>2021-10-01T09:15:18Z</time>
      </trkpt>
      <trkpt lat="42.3468460" lon="-3.7323970">
        <ele>845.5</ele>
        <time>2021-10-01T09:15:20Z</time>
      </trkpt>
      <trkpt lat="42.3468770" lon="-3.7324650">
        <ele>845.4</ele>
        <time>2021-10-01T09:15:21Z</time>
      </trkpt>
      <trkpt lat="42.3469400" lon="-3.7325870">
        <ele>845.4</ele>
        <time>2021-10-01T09:15:23Z</time>
      </trkpt>
      <trkpt lat="42.3469730" lon="-3.7326470">
        <ele>845.4</ele>
        <time>2021-10-01T09:15:24Z</time>
      </trkpt>
      <trkpt lat="42.3470460" lon="-3.7327550">
        <ele>845.4</ele>
        <time>2021-10-01T09:15:26Z</time>
      </trkpt>
      <trkpt lat="42.3470870" lon="-3.7328090">
        <ele>845.3</ele>
        <time>2021-10-01T09:15:27Z</time>
      </trkpt>
      <trkpt lat="42.3471300" lon="-3.7328620">
        <ele>845.3</ele>
        <time>2021-10-01T09:15:28Z</time>
      </trkpt>
      <trkpt lat="42.3472090" lon="-3.7329590">
        <ele>845.3</ele>
        <time>2021-10-01T09:15:30Z</time>
      </trkpt>
      <trkpt lat="42.3472870" lon="-3.7330570">
        <ele>845.3</ele>
        <time>2021-10-01T09:15:32Z</time>
      </trkpt>
      <trkpt lat="42.3473620" lon="-3.7331520">
        <ele>845.3</ele>
        <time>2021-10-01T09:15:34Z</time>
      </trkpt>
      <trkpt lat="42.3474010" lon="-3.7331990">
        <ele>845.2</ele>
        <time>2021-10-01T09:15:35Z</time>
      </trkpt>
      <trkpt lat="42.3474750" lon="-3.7332940">
        <ele>845.2</ele>
        <time>2021-10-01T09:15:37Z</time>
      </trkpt>
      <trkpt lat="42.3475160" lon="-3.7333430">
        <ele>845.2</ele>
        <time>2021-10-01T09:15:38Z</time>
      </trkpt>
      <trkpt lat="42.3475550" lon="-3.7333890">
        <ele>845.2</ele>
        <time>2021-10-01T09:15:39Z</time>
      </trkpt>
      <trkpt lat="42.3476330" lon="-3.7334870">
        <ele>845.2</ele>
        <time>2021-10-01T09:15:41Z</time>
      </trkpt>
      <trkpt lat="42.3477130" lon="-3.7335880">
        <ele>845.2</ele>
        <time>2021-10-01T09:15:43Z</time>
      </trkpt>
      <trkpt lat="42.3477910" lon="-3.7336850">
        <ele>845.2</ele>
        <time>2021-10-01T09:15:45Z</time>
      </trkpt>
      <trkpt lat="42.3478280" lon="-3.7337330">
        <ele>845.2</ele>
        <time>2021-10-01T09:15:46Z</time>
      </trkpt>
      <trkpt lat="42.3478970" lon="-3.7338240">
        <ele>845.2</ele>
        <time>2021-10-01T09:15:48Z</time>
      </trkpt>
      <trkpt lat="42.3479730" lon="-3.7339160">
        <ele>845.2</ele>
        <time>2021-10-01T09:15:50Z</time>
      </trkpt>
      <trkpt lat="42.3480510" lon="-3.7340080">
        <ele>845.3</ele>
        <time>2021-10-01T09:15:52Z</time>
      </trkpt>
      <trkpt lat="42.3481160" lon="-3.7340830">
        <ele>845.3</ele>
        <time>2021-10-01T09:15:54Z</time>
      </trkpt>
      <trkpt lat="42.3481550" lon="-3.7341340">
        <ele>845.3</ele>
        <time>2021-10-01T09:15:55Z</time>
      </trkpt>
      <trkpt lat="42.3481960" lon="-3.7341880">
        <ele>845.3</ele>
        <time>2021-10-01T09:15:56Z</time>
      </trkpt>
      <trkpt lat="42.3482340" lon="-3.7342400">
        <ele>845.3</ele>
        <time>2021-10-01T09:15:57Z</time>
      </trkpt>
      <trkpt lat="42.3483010" lon="-3.7343480">
        <ele>845.3</ele>
        <time>2021-10-01T09:15:59Z</time>
      </trkpt>
      <trkpt lat="42.3483310" lon="-3.7344070">
        <ele>845.2</ele>
        <time>2021-10-01T09:16:00Z</time>
      </trkpt>
      <trkpt lat="42.3483850" lon="-3.7345240">
        <ele>845.2</ele>
        <time>2021-10-01T09:16:02Z</time>
      </trkpt>
      <trkpt lat="42.3484070" lon="-3.7345830">
        <ele>845.2</ele>
        <time>2021-10-01T09:16:03Z</time>
      </trkpt>
      <trkpt lat="42.3484460" lon="-3.7347010">
        <ele>845.2</ele>
        <time>2021-10-01T09:16:05Z</time>
      </trkpt>
      <trkpt lat="42.3484900" lon="-3.7348250">
        <ele>845.2</ele>
        <time>2021-10-01T09:16:07Z</time>
      </trkpt>
      <trkpt lat="42.3485130" lon="-3.7348870">
        <ele>845.2</ele>
        <time>2021-10-01T09:16:08Z</time>
      </trkpt>
      <trkpt lat="42.3485620" lon="-3.7350030">
        <ele>845.2</ele>
        <time>2021-10-01T09:16:10Z</time>
      </trkpt>
      <trkpt lat="42.3486100" lon="-3.7351180">
        <ele>845.2</ele>
        <time>2021-10-01T09:16:12Z</time>
      </trkpt>
      <trkpt lat="42.3486360" lon="-3.7351730">
        <ele>845.2</ele>
        <time>2021-10-01T09:16:13Z</time>
      </trkpt>
      <trkpt lat="42.3486850" lon="-3.7352840">
        <ele>845.2</ele>
        <time>2021-10-01T09:16:15Z</time>
      </trkpt>
      <trkpt lat="42.3487260" lon="-3.7354040">
        <ele>845.2</ele>
        <time>2021-10-01T09:16:17Z</time>
      </trkpt>
      <trkpt lat="42.3487710" lon="-3.7355230">
        <ele>845.2</ele>
        <time>2021-10-01T09:16:19Z</time>
      </trkpt>
      <trkpt lat="42.3488240" lon="-3.7356390">
        <ele>845.2</ele>
        <time>2021-10-01T09:16:21Z</time>
      </trkpt>
      <trkpt lat="42.3488410" lon="-3.7357090">
        <ele>845.2</ele>
        <time>2021-10-01T09:16:22Z</time>
      </trkpt>
      <trkpt lat="42.3488710" lon="-3.7358430">
        <ele>845.2</ele>
        <time>2021-10-01T09:16:24Z</time>
      </trkpt>
      <trkpt lat="42.3489160" lon="-3.7359510">
        <ele>845.2</ele>
        <time>2021-10-01T09:16:26Z</time>
      </trkpt>
      <trkpt lat="42.3489400" lon="-3.7360140">
        <ele>845.3</ele>
        <time>2021-10-01T09:16:27Z</time>
      </trkpt>
      <trkpt lat="42.3489770" lon="-3.7360990">
        <ele>845.3</ele>
        <time>2021-10-01T09:16:29Z</time>
      </trkpt>
      <trkpt lat="42.3489970" lon="-3.7361440">
        <ele>845.3</ele>
        <time>2021-10-01T09:16:30Z</time>
      </trkpt>
      <trkpt lat="42.3490400" lon="-3.7362200">
        <ele>845.4</ele>
        <time>2021-10-01T09:16:32Z</time>
      </trkpt>
      <trkpt lat="42.3490610" lon="-3.7362570">
        <ele>845.4</ele>
        <time>2021-10-01T09:16:33Z</time>
      </trkpt>
      <trkpt lat="42.3490960" lon="-3.7362660">
        <ele>845.4</ele>
        <time>2021-10-01T09:16:34Z</time>
      </trkpt>
      <trkpt lat="42.3491240" lon="-3.7362780">
        <ele>845.5</ele>
        <time>2021-10-01T09:16:35Z</time>
      </trkpt>
      <trkpt lat="42.3491860" lon="-3.7362750">
        <ele>845.5</ele>
        <time>2021-10-01T09:16:37Z</time>
      </trkpt>
      <trkpt lat="42.3492350" lon="-3.7362540">
        <ele>845.6</ele>
        <time>2021-10-01T09:16:39Z</time>
      </trkpt>
      <trkpt lat="42.3492800" lon="-3.7362720">
        <ele>845.7</ele>
        <time>2021-10-01T09:16:40Z</time>
      </trkpt>
      <trkpt lat="42.3493040" lon="-3.7362690">
        <ele>845.6</ele>
        <time>2021-10-01T09:16:41Z</time>
      </trkpt>
      <trkpt lat="42.3493420" lon="-3.7362770">
        <ele>845.6</ele>
        <time>2021-10-01T09:16:43Z</time>
      </trkpt>
      <trkpt lat="42.3493910" lon="-3.7363020">
        <ele>845.5</ele>
        <time>2021-10-01T09:16:44Z</time>
      </trkpt>
      <trkpt lat="42.3494560" lon="-3.7363410">
        <ele>845.5</ele>
        <time>2021-10-01T09:16:46Z</time>
      </trkpt>
      <trkpt lat="42.3494880" lon="-3.7363890">
        <ele>845.4</ele>
        <time>2021-10-01T09:16:47Z</time>
      </trkpt>
      <trkpt lat="42.3495160" lon="-3.7364380">
        <ele>845.3</ele>
        <time>2021-10-01T09:16:48Z</time>
      </trkpt>
      <trkpt lat="42.3495590" lon="-3.7365410">
        <ele>845.3</ele>
        <time>2021-10-01T09:16:50Z</time>
      </trkpt>
      <trkpt lat="42.3495840" lon="-3.7366000">
        <ele>845.3</ele>
        <time>2021-10-01T09:16:51Z</time>
      </trkpt>
      <trkpt lat="42.3496020" lon="-3.7366920">
        <ele>845.3</ele>
        <time>2021-10-01T09:16:52Z</time>
      </trkpt>
      <trkpt lat="42.3496450" lon="-3.7368170">
        <ele>845.2</ele>
        <time>2021-10-01T09:16:54Z</time>
      </trkpt>
      <trkpt lat="42.3496840" lon="-3.7369340">
        <ele>845.2</ele>
        <time>2021-10-01T09:16:56Z</time>
      </trkpt>
      <trkpt lat="42.3497120" lon="-3.7370310">
        <ele>845.1</ele>
        <time>2021-10-01T09:16:58Z</time>
      </trkpt>
      <trkpt lat="42.3497400" lon="-3.7371010">
        <ele>845.1</ele>
        <time>2021-10-01T09:16:59Z</time>
      </trkpt>
      <trkpt lat="42.3497680" lon="-3.7371930">
        <ele>845.0</ele>
        <time>2021-10-01T09:17:01Z</time>
      </trkpt>
      <trkpt lat="42.3497910" lon="-3.7373050">
        <ele>845.0</ele>
        <time>2021-10-01T09:17:03Z</time>
      </trkpt>
      <trkpt lat="42.3498220" lon="-3.7374070">
        <ele>845.1</ele>
        <time>2021-10-01T09:17:05Z</time>
      </trkpt>
      <trkpt lat="42.3498550" lon="-3.7374950">
        <ele>845.1</ele>
        <time>2021-10-01T09:17:06Z</time>
      </trkpt>
      <trkpt lat="42.3498960" lon="-3.7376130">
        <ele>845.1</ele>
        <time>2021-10-01T09:17:08Z</time>
      </trkpt>
      <trkpt lat="42.3499150" lon="-3.7376700">
        <ele>845.1</ele>
        <time>2021-10-01T09:17:09Z</time>
      </trkpt>
      <trkpt lat="42.3499320" lon="-3.7377130">
        <ele>845.1</ele>
        <time>2021-10-01T09:17:10Z</time>
      </trkpt>
      <trkpt lat="42.3499580" lon="-3.7377840">
        <ele>845.1</ele>
        <time>2021-10-01T09:17:12Z</time>
      </trkpt>
      <trkpt lat="42.3499780" lon="-3.7378450">
        <ele>845.2</ele>
        <time>2021-10-01T09:17:13Z</time>
      </trkpt>
      <trkpt lat="42.3499910" lon="-3.7379270">
        <ele>845.2</ele>
        <time>2021-10-01T09:17:15Z</time>
      </trkpt>
      <trkpt lat="42.3500080" lon="-3.7379780">
        <ele>845.2</ele>
        <time>2021-10-01T09:17:16Z</time>
      </trkpt>
      <trkpt lat="42.3500360" lon="-3.7380370">
        <ele>845.2</ele>
        <time>2021-10-01T09:17:17Z</time>
      </trkpt>
      <trkpt lat="42.3500730" lon="-3.7380840">
        <ele>845.2</ele>
        <time>2021-10-01T09:17:19Z</time>
      </trkpt>
      <trkpt lat="42.3500970" lon="-3.7381390">
        <ele>845.2</ele>
        <time>2021-10-01T09:17:20Z</time>
      </trkpt>
      <trkpt lat="42.3501080" lon="-3.7381890">
        <ele>845.2</ele>
        <time>2021-10-01T09:17:21Z</time>
      </trkpt>
      <trkpt lat="42.3501250" lon="-3.7382460">
        <ele>845.1</ele>
        <time>2021-10-01T09:17:23Z</time>
      </trkpt>
      <trkpt lat="42.3501370" lon="-3.7383080">
        <ele>845.1</ele>
        <time>2021-10-01T09:17:24Z</time>
      </trkpt>
      <trkpt lat="42.3501470" lon="-3.7383540">
        <ele>845.1</ele>
        <time>2021-10-01T09:17:25Z</time>
      </trkpt>
      <trkpt lat="42.3501570" lon="-3.7383910">
        <ele>845.1</ele>
        <time>2021-10-01T09:17:26Z</time>
      </trkpt>
      <trkpt lat="42.3501600" lon="-3.7384150">
        <ele>845.1</ele>
        <time>2021-10-01T09:17:27Z</time>
      </trkpt>
      <trkpt lat="42.3501550" lon="-3.7384110">
        <ele>845.1</ele>
        <time>2021-10-01T09:17:29Z</time>
      </trkpt>
      <trkpt lat="42.3501490" lon="-3.7384100">
        <ele>845.1</ele>
        <time>2021-10-01T09:17:30Z</time>
      </trkpt>
      <trkpt lat="42.3501410" lon="-3.7383860">
        <ele>845.1</ele>
        <time>2021-10-01T09:18:32Z</time>
      </trkpt>
      <trkpt lat="42.3501420" lon="-3.7383860">
        <ele>845.1</ele>
        <time>2021-10-01T09:18:33Z</time>
      </trkpt>
      <trkpt lat="42.3501440" lon="-3.7383850">
        <ele>845.1</ele>
        <time>2021-10-01T09:18:34Z</time>
      </trkpt>
      <trkpt lat="42.3501470" lon="-3.7383810">
        <ele>845.1</ele>
        <time>2021-10-01T09:18:35Z</time>
      </trkpt>
      <trkpt lat="42.3501490" lon="-3.7383750">
        <ele>845.1</ele>
        <time>2021-10-01T09:18:36Z</time>
      </trkpt>
      <trkpt lat="42.3501550" lon="-3.7383660">
        <ele>845.1</ele>
        <time>2021-10-01T09:18:37Z</time>
      </trkpt>
      <trkpt lat="42.3501650" lon="-3.7383640">
        <ele>845.1</ele>
        <time>2021-10-01T09:18:39Z</time>
      </trkpt>
      <trkpt lat="42.3501700" lon="-3.7383790">
        <ele>845.1</ele>
        <time>2021-10-01T09:18:40Z</time>
      </trkpt>
      <trkpt lat="42.3501660" lon="-3.7383870">
        <ele>845.1</ele>
        <time>2021-10-01T09:18:42Z</time>
      </trkpt>
      <trkpt lat="42.3501800" lon="-3.7384060">
        <ele>845.1</ele>
        <time>2021-10-01T09:18:43Z</time>
      </trkpt>
      <trkpt lat="42.3502130" lon="-3.7384890">
        <ele>845.1</ele>
        <time>2021-10-01T09:18:44Z</time>
      </trkpt>
      <trkpt lat="42.3502350" lon="-3.7385540">
        <ele>845.1</ele>
        <time>2021-10-01T09:18:46Z</time>
      </trkpt>
      <trkpt lat="42.3502590" lon="-3.7386300">
        <ele>845.1</ele>
        <time>2021-10-01T09:18:47Z</time>
      </trkpt>
      <trkpt lat="42.3502960" lon="-3.7387410">
        <ele>845.1</ele>
        <time>2021-10-01T09:18:49Z</time>
      </trkpt>
      <trkpt lat="42.3503170" lon="-3.7388020">
        <ele>845.1</ele>
        <time>2021-10-01T09:18:50Z</time>
      </trkpt>
      <trkpt lat="42.3503480" lon="-3.7389050">
        <ele>845.0</ele>
        <time>2021-10-01T09:18:52Z</time>
      </trkpt>
      <trkpt lat="42.3503760" lon="-3.7389880">
        <ele>844.9</ele>
        <time>2021-10-01T09:18:53Z</time>
      </trkpt>
      <trkpt lat="42.3504260" lon="-3.7390940">
        <ele>844.8</ele>
        <time>2021-10-01T09:18:55Z</time>
      </trkpt>
      <trkpt lat="42.3504540" lon="-3.7391500">
        <ele>844.8</ele>
        <time>2021-10-01T09:18:56Z</time>
      </trkpt>
      <trkpt lat="42.3504820" lon="-3.7392080">
        <ele>844.8</ele>
        <time>2021-10-01T09:18:57Z</time>
      </trkpt>
      <trkpt lat="42.3505470" lon="-3.7393160">
        <ele>844.8</ele>
        <time>2021-10-01T09:18:59Z</time>
      </trkpt>
      <trkpt lat="42.3505790" lon="-3.7393720">
        <ele>844.8</ele>
        <time>2021-10-01T09:19:00Z</time>
      </trkpt>
      <trkpt lat="42.3506430" lon="-3.7394850">
        <ele>844.8</ele>
        <time>2021-10-01T09:19:02Z</time>
      </trkpt>
      <trkpt lat="42.3507160" lon="-3.7396000">
        <ele>844.8</ele>
        <time>2021-10-01T09:19:04Z</time>
      </trkpt>
      <trkpt lat="42.3507570" lon="-3.7396560">
        <ele>844.8</ele>
        <time>2021-10-01T09:19:05Z</time>
      </trkpt>
      <trkpt lat="42.3507960" lon="-3.7397130">
        <ele>844.8</ele>
        <time>2021-10-01T09:19:06Z</time>
      </trkpt>
      <trkpt lat="42.3508300" lon="-3.7397760">
        <ele>844.8</ele>
        <time>2021-10-01T09:19:07Z</time>
      </trkpt>
      <trkpt lat="42.3508950" lon="-3.7398790">
        <ele>844.8</ele>
        <time>2021-10-01T09:19:09Z</time>
      </trkpt>
      <trkpt lat="42.3509650" lon="-3.7399880">
        <ele>844.8</ele>
        <time>2021-10-01T09:19:11Z</time>
      </trkpt>
      <trkpt lat="42.3510290" lon="-3.7400970">
        <ele>844.9</ele>
        <time>2021-10-01T09:19:13Z</time>
      </trkpt>
      <trkpt lat="42.3510600" lon="-3.7401510">
        <ele>844.9</ele>
        <time>2021-10-01T09:19:14Z</time>
      </trkpt>
      <trkpt lat="42.3511220" lon="-3.7402550">
        <ele>845.0</ele>
        <time>2021-10-01T09:19:16Z</time>
      </trkpt>
      <trkpt lat="42.3511410" lon="-3.7402910">
        <ele>845.0</ele>
        <time>2021-10-01T09:19:17Z</time>
      </trkpt>
      <trkpt lat="42.3511550" lon="-3.7403240">
        <ele>845.0</ele>
        <time>2021-10-01T09:19:18Z</time>
      </trkpt>
      <trkpt lat="42.3511890" lon="-3.7403910">
        <ele>845.1</ele>
        <time>2021-10-01T09:19:20Z</time>
      </trkpt>
      <trkpt lat="42.3512110" lon="-3.7404270">
        <ele>845.1</ele>
        <time>2021-10-01T09:19:21Z</time>
      </trkpt>
      <trkpt lat="42.3512660" lon="-3.7405150">
        <ele>845.0</ele>
        <time>2021-10-01T09:19:23Z</time>
      </trkpt>
      <trkpt lat="42.3513340" lon="-3.7406380">
        <ele>844.8</ele>
        <time>2021-10-01T09:19:25Z</time>
      </trkpt>
      <trkpt lat="42.3514140" lon="-3.7407670">
        <ele>844.7</ele>
        <time>2021-10-01T09:19:27Z</time>
      </trkpt>
      <trkpt lat="42.3514540" lon="-3.7408380">
        <ele>844.7</ele>
        <time>2021-10-01T09:19:28Z</time>
      </trkpt>
      <trkpt lat="42.3514870" lon="-3.7409110">
        <ele>844.8</ele>
        <time>2021-10-01T09:19:29Z</time>
      </trkpt>
      <trkpt lat="42.3515340" lon="-3.7410530">
        <ele>844.8</ele>
        <time>2021-10-01T09:19:31Z</time>
      </trkpt>
      <trkpt lat="42.3515620" lon="-3.7411940">
        <ele>845.0</ele>
        <time>2021-10-01T09:19:33Z</time>
      </trkpt>
      <trkpt lat="42.3515750" lon="-3.7412600">
        <ele>845.0</ele>
        <time>2021-10-01T09:19:34Z</time>
      </trkpt>
      <trkpt lat="42.3516080" lon="-3.7413930">
        <ele>845.0</ele>
        <time>2021-10-01T09:19:36Z</time>
      </trkpt>
      <trkpt lat="42.3516440" lon="-3.7415360">
        <ele>845.1</ele>
        <time>2021-10-01T09:19:38Z</time>
      </trkpt>
      <trkpt lat="42.3516650" lon="-3.7416090">
        <ele>845.1</ele>
        <time>2021-10-01T09:19:39Z</time>
      </trkpt>
      <trkpt lat="42.3516790" lon="-3.7416820">
        <ele>845.0</ele>
        <time>2021-10-01T09:19:40Z</time>
      </trkpt>
      <trkpt lat="42.3517040" lon="-3.7418000">
        <ele>845.0</ele>
        <time>2021-10-01T09:19:42Z</time>
      </trkpt>
      <trkpt lat="42.3517420" lon="-3.7419480">
        <ele>844.9</ele>
        <time>2021-10-01T09:19:44Z</time>
      </trkpt>
      <trkpt lat="42.3517810" lon="-3.7421000">
        <ele>844.9</ele>
        <time>2021-10-01T09:19:46Z</time>
      </trkpt>
      <trkpt lat="42.3518110" lon="-3.7422430">
        <ele>844.9</ele>
        <time>2021-10-01T09:19:48Z</time>
      </trkpt>
      <trkpt lat="42.3518460" lon="-3.7423740">
        <ele>844.9</ele>
        <time>2021-10-01T09:19:50Z</time>
      </trkpt>
      <trkpt lat="42.3518690" lon="-3.7424420">
        <ele>844.8</ele>
        <time>2021-10-01T09:19:51Z</time>
      </trkpt>
      <trkpt lat="42.3519110" lon="-3.7425850">
        <ele>844.8</ele>
        <time>2021-10-01T09:19:53Z</time>
      </trkpt>
      <trkpt lat="42.3519270" lon="-3.7426540">
        <ele>844.8</ele>
        <time>2021-10-01T09:19:54Z</time>
      </trkpt>
      <trkpt lat="42.3519550" lon="-3.7428000">
        <ele>844.9</ele>
        <time>2021-10-01T09:19:56Z</time>
      </trkpt>
      <trkpt lat="42.3519770" lon="-3.7429350">
        <ele>844.9</ele>
        <time>2021-10-01T09:19:58Z</time>
      </trkpt>
      <trkpt lat="42.3519950" lon="-3.7430030">
        <ele>844.9</ele>
        <time>2021-10-01T09:19:59Z</time>
      </trkpt>
      <trkpt lat="42.3520280" lon="-3.7431450">
        <ele>844.9</ele>
        <time>2021-10-01T09:20:01Z</time>
      </trkpt>
      <trkpt lat="42.3520430" lon="-3.7432200">
        <ele>844.9</ele>
        <time>2021-10-01T09:20:02Z</time>
      </trkpt>
      <trkpt lat="42.3520820" lon="-3.7433660">
        <ele>845.0</ele>
        <time>2021-10-01T09:20:04Z</time>
      </trkpt>
      <trkpt lat="42.3521210" lon="-3.7435090">
        <ele>845.0</ele>
        <time>2021-10-01T09:20:06Z</time>
      </trkpt>
      <trkpt lat="42.3521370" lon="-3.7435780">
        <ele>845.0</ele>
        <time>2021-10-01T09:20:07Z</time>
      </trkpt>
      <trkpt lat="42.3521500" lon="-3.7436460">
        <ele>845.0</ele>
        <time>2021-10-01T09:20:08Z</time>
      </trkpt>
      <trkpt lat="42.3521910" lon="-3.7437880">
        <ele>845.0</ele>
        <time>2021-10-01T09:20:10Z</time>
      </trkpt>
      <trkpt lat="42.3522360" lon="-3.7439290">
        <ele>844.9</ele>
        <time>2021-10-01T09:20:12Z</time>
      </trkpt>
      <trkpt lat="42.3522490" lon="-3.7440010">
        <ele>844.8</ele>
        <time>2021-10-01T09:20:13Z</time>
      </trkpt>
      <trkpt lat="42.3522800" lon="-3.7441330">
        <ele>844.8</ele>
        <time>2021-10-01T09:20:15Z</time>
      </trkpt>
      <trkpt lat="42.3522960" lon="-3.7441940">
        <ele>844.7</ele>
        <time>2021-10-01T09:20:16Z</time>
      </trkpt>
      <trkpt lat="42.3523330" lon="-3.7443040">
        <ele>844.6</ele>
        <time>2021-10-01T09:20:18Z</time>
      </trkpt>
      <trkpt lat="42.3523600" lon="-3.7443830">
        <ele>844.6</ele>
        <time>2021-10-01T09:20:20Z</time>
      </trkpt>
      <trkpt lat="42.3523640" lon="-3.7444380">
        <ele>844.6</ele>
        <time>2021-10-01T09:20:21Z</time>
      </trkpt>
      <trkpt lat="42.3523710" lon="-3.7444850">
        <ele>844.6</ele>
        <time>2021-10-01T09:20:22Z</time>
      </trkpt>
      <trkpt lat="42.3524000" lon="-3.7445540">
        <ele>844.6</ele>
        <time>2021-10-01T09:20:24Z</time>
      </trkpt>
      <trkpt lat="42.3524490" lon="-3.7446130">
        <ele>844.6</ele>
        <time>2021-10-01T09:20:25Z</time>
      </trkpt>
      <trkpt lat="42.3525180" lon="-3.7446380">
        <ele>844.6</ele>
        <time>2021-10-01T09:20:26Z</time>
      </trkpt>
      <trkpt lat="42.3525640" lon="-3.7446740">
        <ele>844.7</ele>
        <time>2021-10-01T09:20:27Z</time>
      </trkpt>
      <trkpt lat="42.3526060" lon="-3.7447160">
        <ele>844.7</ele>
        <time>2021-10-01T09:20:28Z</time>
      </trkpt>
      <trkpt lat="42.3526660" lon="-3.7448270">
        <ele>844.7</ele>
        <time>2021-10-01T09:20:30Z</time>
      </trkpt>
      <trkpt lat="42.3526880" lon="-3.7449000">
        <ele>844.6</ele>
        <time>2021-10-01T09:20:31Z</time>
      </trkpt>
      <trkpt lat="42.3527090" lon="-3.7449730">
        <ele>844.6</ele>
        <time>2021-10-01T09:20:32Z</time>
      </trkpt>
      <trkpt lat="42.3527290" lon="-3.7450470">
        <ele>844.5</ele>
        <time>2021-10-01T09:20:33Z</time>
      </trkpt>
      <trkpt lat="42.3527510" lon="-3.7451280">
        <ele>844.4</ele>
        <time>2021-10-01T09:20:34Z</time>
      </trkpt>
      <trkpt lat="42.3527740" lon="-3.7452140">
        <ele>844.4</ele>
        <time>2021-10-01T09:20:35Z</time>
      </trkpt>
      <trkpt lat="42.3528090" lon="-3.7453710">
        <ele>844.2</ele>
        <time>2021-10-01T09:20:37Z</time>
      </trkpt>
      <trkpt lat="42.3528300" lon="-3.7454470">
        <ele>844.2</ele>
        <time>2021-10-01T09:20:38Z</time>
      </trkpt>
      <trkpt lat="42.3528920" lon="-3.7456050">
        <ele>844.1</ele>
        <time>2021-10-01T09:20:40Z</time>
      </trkpt>
      <trkpt lat="42.3529460" lon="-3.7457580">
        <ele>844.0</ele>
        <time>2021-10-01T09:20:42Z</time>
      </trkpt>
      <trkpt lat="42.3529710" lon="-3.7458300">
        <ele>844.0</ele>
        <time>2021-10-01T09:20:43Z</time>
      </trkpt>
      <trkpt lat="42.3529950" lon="-3.7459010">
        <ele>844.0</ele>
        <time>2021-10-01T09:20:44Z</time>
      </trkpt>
      <trkpt lat="42.3530180" lon="-3.7459800">
        <ele>843.9</ele>
        <time>2021-10-01T09:20:45Z</time>
      </trkpt>
      <trkpt lat="42.3530680" lon="-3.7461410">
        <ele>843.8</ele>
        <time>2021-10-01T09:20:47Z</time>
      </trkpt>
      <trkpt lat="42.3531170" lon="-3.7462990">
        <ele>843.6</ele>
        <time>2021-10-01T09:20:49Z</time>
      </trkpt>
      <trkpt lat="42.3531430" lon="-3.7463820">
        <ele>843.6</ele>
        <time>2021-10-01T09:20:50Z</time>
      </trkpt>
      <trkpt lat="42.3531650" lon="-3.7464670">
        <ele>843.5</ele>
        <time>2021-10-01T09:20:51Z</time>
      </trkpt>
      <trkpt lat="42.3532120" lon="-3.7466240">
        <ele>843.4</ele>
        <time>2021-10-01T09:20:53Z</time>
      </trkpt>
      <trkpt lat="42.3532350" lon="-3.7467150">
        <ele>843.4</ele>
        <time>2021-10-01T09:20:54Z</time>
      </trkpt>
      <trkpt lat="42.3532780" lon="-3.7468930">
        <ele>843.2</ele>
        <time>2021-10-01T09:20:56Z</time>
      </trkpt>
      <trkpt lat="42.3533040" lon="-3.7469730">
        <ele>843.2</ele>
        <time>2021-10-01T09:20:57Z</time>
      </trkpt>
      <trkpt lat="42.3533500" lon="-3.7471350">
        <ele>843.0</ele>
        <time>2021-10-01T09:20:59Z</time>
      </trkpt>
      <trkpt lat="42.3533670" lon="-3.7472200">
        <ele>842.9</ele>
        <time>2021-10-01T09:21:00Z</time>
      </trkpt>
      <trkpt lat="42.3534100" lon="-3.7473860">
        <ele>842.8</ele>
        <time>2021-10-01T09:21:02Z</time>
      </trkpt>
      <trkpt lat="42.3534500" lon="-3.7475560">
        <ele>842.7</ele>
        <time>2021-10-01T09:21:04Z</time>
      </trkpt>
      <trkpt lat="42.3534760" lon="-3.7476450">
        <ele>842.6</ele>
        <time>2021-10-01T09:21:05Z</time>
      </trkpt>
      <trkpt lat="42.3535250" lon="-3.7478190">
        <ele>842.4</ele>
        <time>2021-10-01T09:21:07Z</time>
      </trkpt>
      <trkpt lat="42.3535510" lon="-3.7479070">
        <ele>842.3</ele>
        <time>2021-10-01T09:21:08Z</time>
      </trkpt>
      <trkpt lat="42.3535730" lon="-3.7479890">
        <ele>842.2</ele>
        <time>2021-10-01T09:21:09Z</time>
      </trkpt>
      <trkpt lat="42.3536190" lon="-3.7481670">
        <ele>842.0</ele>
        <time>2021-10-01T09:21:11Z</time>
      </trkpt>
      <trkpt lat="42.3536410" lon="-3.7482600">
        <ele>841.9</ele>
        <time>2021-10-01T09:21:12Z</time>
      </trkpt>
      <trkpt lat="42.3536620" lon="-3.7483530">
        <ele>841.9</ele>
        <time>2021-10-01T09:21:13Z</time>
      </trkpt>
      <trkpt lat="42.3537060" lon="-3.7485410">
        <ele>841.7</ele>
        <time>2021-10-01T09:21:15Z</time>
      </trkpt>
      <trkpt lat="42.3537620" lon="-3.7487300">
        <ele>841.5</ele>
        <time>2021-10-01T09:21:17Z</time>
      </trkpt>
      <trkpt lat="42.3537850" lon="-3.7488250">
        <ele>841.3</ele>
        <time>2021-10-01T09:21:18Z</time>
      </trkpt>
      <trkpt lat="42.3538100" lon="-3.7489230">
        <ele>841.2</ele>
        <time>2021-10-01T09:21:19Z</time>
      </trkpt>
      <trkpt lat="42.3538590" lon="-3.7491190">
        <ele>841.0</ele>
        <time>2021-10-01T09:21:21Z</time>
      </trkpt>
      <trkpt lat="42.3538810" lon="-3.7492150">
        <ele>840.9</ele>
        <time>2021-10-01T09:21:22Z</time>
      </trkpt>
      <trkpt lat="42.3538990" lon="-3.7493110">
        <ele>840.8</ele>
        <time>2021-10-01T09:21:23Z</time>
      </trkpt>
      <trkpt lat="42.3539410" lon="-3.7494990">
        <ele>840.7</ele>
        <time>2021-10-01T09:21:25Z</time>
      </trkpt>
      <trkpt lat="42.3539850" lon="-3.7496880">
        <ele>840.5</ele>
        <time>2021-10-01T09:21:27Z</time>
      </trkpt>
      <trkpt lat="42.3540070" lon="-3.7497790">
        <ele>840.4</ele>
        <time>2021-10-01T09:21:28Z</time>
      </trkpt>
      <trkpt lat="42.3540290" lon="-3.7498760">
        <ele>840.3</ele>
        <time>2021-10-01T09:21:29Z</time>
      </trkpt>
      <trkpt lat="42.3540700" lon="-3.7500670">
        <ele>840.1</ele>
        <time>2021-10-01T09:21:31Z</time>
      </trkpt>
      <trkpt lat="42.3540970" lon="-3.7501630">
        <ele>840.0</ele>
        <time>2021-10-01T09:21:32Z</time>
      </trkpt>
      <trkpt lat="42.3541160" lon="-3.7502560">
        <ele>839.9</ele>
        <time>2021-10-01T09:21:33Z</time>
      </trkpt>
      <trkpt lat="42.3541530" lon="-3.7504550">
        <ele>839.8</ele>
        <time>2021-10-01T09:21:35Z</time>
      </trkpt>
      <trkpt lat="42.3541940" lon="-3.7506530">
        <ele>839.6</ele>
        <time>2021-10-01T09:21:37Z</time>
      </trkpt>
      <trkpt lat="42.3542190" lon="-3.7507490">
        <ele>839.5</ele>
        <time>2021-10-01T09:21:38Z</time>
      </trkpt>
      <trkpt lat="42.3542590" lon="-3.7509350">
        <ele>839.4</ele>
        <time>2021-10-01T09:21:40Z</time>
      </trkpt>
      <trkpt lat="42.3542900" lon="-3.7511200">
        <ele>839.3</ele>
        <time>2021-10-01T09:21:42Z</time>
      </trkpt>
      <trkpt lat="42.3543190" lon="-3.7513050">
        <ele>839.2</ele>
        <time>2021-10-01T09:21:44Z</time>
      </trkpt>
      <trkpt lat="42.3543530" lon="-3.7514880">
        <ele>839.1</ele>
        <time>2021-10-01T09:21:46Z</time>
      </trkpt>
      <trkpt lat="42.3543830" lon="-3.7516730">
        <ele>839.1</ele>
        <time>2021-10-01T09:21:48Z</time>
      </trkpt>
      <trkpt lat="42.3544170" lon="-3.7518590">
        <ele>839.0</ele>
        <time>2021-10-01T09:21:50Z</time>
      </trkpt>
      <trkpt lat="42.3544340" lon="-3.7519510">
        <ele>839.0</ele>
        <time>2021-10-01T09:21:51Z</time>
      </trkpt>
      <trkpt lat="42.3544640" lon="-3.7521220">
        <ele>838.9</ele>
        <time>2021-10-01T09:21:53Z</time>
      </trkpt>
      <trkpt lat="42.3544810" lon="-3.7522070">
        <ele>838.9</ele>
        <time>2021-10-01T09:21:54Z</time>
      </trkpt>
      <trkpt lat="42.3544940" lon="-3.7522940">
        <ele>838.9</ele>
        <time>2021-10-01T09:21:55Z</time>
      </trkpt>
      <trkpt lat="42.3545270" lon="-3.7524660">
        <ele>838.8</ele>
        <time>2021-10-01T09:21:57Z</time>
      </trkpt>
      <trkpt lat="42.3545470" lon="-3.7525560">
        <ele>838.8</ele>
        <time>2021-10-01T09:21:58Z</time>
      </trkpt>
      <trkpt lat="42.3545840" lon="-3.7527330">
        <ele>838.8</ele>
        <time>2021-10-01T09:22:00Z</time>
      </trkpt>
      <trkpt lat="42.3546110" lon="-3.7529100">
        <ele>838.8</ele>
        <time>2021-10-01T09:22:02Z</time>
      </trkpt>
      <trkpt lat="42.3546380" lon="-3.7530850">
        <ele>838.7</ele>
        <time>2021-10-01T09:22:04Z</time>
      </trkpt>
      <trkpt lat="42.3546560" lon="-3.7531760">
        <ele>838.7</ele>
        <time>2021-10-01T09:22:05Z</time>
      </trkpt>
      <trkpt lat="42.3546860" lon="-3.7533550">
        <ele>838.6</ele>
        <time>2021-10-01T09:22:07Z</time>
      </trkpt>
      <trkpt lat="42.3547030" lon="-3.7534470">
        <ele>838.6</ele>
        <time>2021-10-01T09:22:08Z</time>
      </trkpt>
      <trkpt lat="42.3547330" lon="-3.7536260">
        <ele>838.5</ele>
        <time>2021-10-01T09:22:10Z</time>
      </trkpt>
      <trkpt lat="42.3547490" lon="-3.7537150">
        <ele>838.5</ele>
        <time>2021-10-01T09:22:11Z</time>
      </trkpt>
      <trkpt lat="42.3547850" lon="-3.7538990">
        <ele>838.4</ele>
        <time>2021-10-01T09:22:13Z</time>
      </trkpt>
      <trkpt lat="42.3548250" lon="-3.7540660">
        <ele>838.3</ele>
        <time>2021-10-01T09:22:15Z</time>
      </trkpt>
      <trkpt lat="42.3548460" lon="-3.7541570">
        <ele>838.3</ele>
        <time>2021-10-01T09:22:16Z</time>
      </trkpt>
      <trkpt lat="42.3548670" lon="-3.7542430">
        <ele>838.3</ele>
        <time>2021-10-01T09:22:17Z</time>
      </trkpt>
      <trkpt lat="42.3549000" lon="-3.7544110">
        <ele>838.2</ele>
        <time>2021-10-01T09:22:19Z</time>
      </trkpt>
      <trkpt lat="42.3549150" lon="-3.7544970">
        <ele>838.2</ele>
        <time>2021-10-01T09:22:20Z</time>
      </trkpt>
      <trkpt lat="42.3549290" lon="-3.7545830">
        <ele>838.2</ele>
        <time>2021-10-01T09:22:21Z</time>
      </trkpt>
      <trkpt lat="42.3549590" lon="-3.7547500">
        <ele>838.1</ele>
        <time>2021-10-01T09:22:23Z</time>
      </trkpt>
      <trkpt lat="42.3549780" lon="-3.7548350">
        <ele>838.1</ele>
        <time>2021-10-01T09:22:24Z</time>
      </trkpt>
      <trkpt lat="42.3550130" lon="-3.7549970">
        <ele>838.0</ele>
        <time>2021-10-01T09:22:26Z</time>
      </trkpt>
      <trkpt lat="42.3550340" lon="-3.7550790">
        <ele>837.9</ele>
        <time>2021-10-01T09:22:27Z</time>
      </trkpt>
      <trkpt lat="42.3550720" lon="-3.7552460">
        <ele>837.9</ele>
        <time>2021-10-01T09:22:29Z</time>
      </trkpt>
      <trkpt lat="42.3550920" lon="-3.7553290">
        <ele>837.8</ele>
        <time>2021-10-01T09:22:30Z</time>
      </trkpt>
      <trkpt lat="42.3551320" lon="-3.7554870">
        <ele>837.7</ele>
        <time>2021-10-01T09:22:32Z</time>
      </trkpt>
      <trkpt lat="42.3551490" lon="-3.7555700">
        <ele>837.7</ele>
        <time>2021-10-01T09:22:33Z</time>
      </trkpt>
      <trkpt lat="42.3551710" lon="-3.7556540">
        <ele>837.7</ele>
        <time>2021-10-01T09:22:34Z</time>
      </trkpt>
      <trkpt lat="42.3551940" lon="-3.7557400">
        <ele>837.6</ele>
        <time>2021-10-01T09:22:35Z</time>
      </trkpt>
      <trkpt lat="42.3552360" lon="-3.7559020">
        <ele>837.6</ele>
        <time>2021-10-01T09:22:37Z</time>
      </trkpt>
      <trkpt lat="42.3552620" lon="-3.7559810">
        <ele>837.5</ele>
        <time>2021-10-01T09:22:38Z</time>
      </trkpt>
      <trkpt lat="42.3553130" lon="-3.7561400">
        <ele>837.4</ele>
        <time>2021-10-01T09:22:40Z</time>
      </trkpt>
      <trkpt lat="42.3553650" lon="-3.7562980">
        <ele>837.3</ele>
        <time>2021-10-01T09:22:42Z</time>
      </trkpt>
      <trkpt lat="42.3553940" lon="-3.7563760">
        <ele>837.3</ele>
        <time>2021-10-01T09:22:43Z</time>
      </trkpt>
      <trkpt lat="42.3554470" lon="-3.7565360">
        <ele>837.2</ele>
        <time>2021-10-01T09:22:45Z</time>
      </trkpt>
      <trkpt lat="42.3554740" lon="-3.7566150">
        <ele>837.2</ele>
        <time>2021-10-01T09:22:46Z</time>
      </trkpt>
      <trkpt lat="42.3555230" lon="-3.7567650">
        <ele>837.1</ele>
        <time>2021-10-01T09:22:48Z</time>
      </trkpt>
      <trkpt lat="42.3555510" lon="-3.7568410">
        <ele>837.1</ele>
        <time>2021-10-01T09:22:49Z</time>
      </trkpt>
      <trkpt lat="42.3555780" lon="-3.7569190">
        <ele>837.0</ele>
        <time>2021-10-01T09:22:50Z</time>
      </trkpt>
      <trkpt lat="42.3556290" lon="-3.7570670">
        <ele>837.0</ele>
        <time>2021-10-01T09:22:52Z</time>
      </trkpt>
      <trkpt lat="42.3556560" lon="-3.7571410">
        <ele>836.9</ele>
        <time>2021-10-01T09:22:53Z</time>
      </trkpt>
      <trkpt lat="42.3557120" lon="-3.7572910">
        <ele>836.9</ele>
        <time>2021-10-01T09:22:55Z</time>
      </trkpt>
      <trkpt lat="42.3557660" lon="-3.7574390">
        <ele>836.8</ele>
        <time>2021-10-01T09:22:57Z</time>
      </trkpt>
      <trkpt lat="42.3558180" lon="-3.7575800">
        <ele>836.8</ele>
        <time>2021-10-01T09:22:59Z</time>
      </trkpt>
      <trkpt lat="42.3558730" lon="-3.7577180">
        <ele>836.7</ele>
        <time>2021-10-01T09:23:01Z</time>
      </trkpt>
      <trkpt lat="42.3559280" lon="-3.7578600">
        <ele>836.7</ele>
        <time>2021-10-01T09:23:03Z</time>
      </trkpt>
      <trkpt lat="42.3559540" lon="-3.7579290">
        <ele>836.7</ele>
        <time>2021-10-01T09:23:04Z</time>
      </trkpt>
      <trkpt lat="42.3559990" lon="-3.7580630">
        <ele>836.6</ele>
        <time>2021-10-01T09:23:06Z</time>
      </trkpt>
      <trkpt lat="42.3560220" lon="-3.7582060">
        <ele>836.6</ele>
        <time>2021-10-01T09:23:08Z</time>
      </trkpt>
      <trkpt lat="42.3560000" lon="-3.7583400">
        <ele>836.6</ele>
        <time>2021-10-01T09:23:10Z</time>
      </trkpt>
      <trkpt lat="42.3559860" lon="-3.7584000">
        <ele>836.7</ele>
        <time>2021-10-01T09:23:11Z</time>
      </trkpt>
      <trkpt lat="42.3559340" lon="-3.7584880">
        <ele>836.8</ele>
        <time>2021-10-01T09:23:13Z</time>
      </trkpt>
      <trkpt lat="42.3558650" lon="-3.7585500">
        <ele>836.9</ele>
        <time>2021-10-01T09:23:15Z</time>
      </trkpt>
      <trkpt lat="42.3558450" lon="-3.7585590">
        <ele>836.9</ele>
        <time>2021-10-01T09:23:16Z</time>
      </trkpt>
      <trkpt lat="42.3558470" lon="-3.7586170">
        <ele>837.0</ele>
        <time>2021-10-01T09:23:18Z</time>
      </trkpt>
      <trkpt lat="42.3558550" lon="-3.7586600">
        <ele>837.0</ele>
        <time>2021-10-01T09:23:19Z</time>
      </trkpt>
      <trkpt lat="42.3558810" lon="-3.7587170">
        <ele>836.8</ele>
        <time>2021-10-01T09:23:21Z</time>
      </trkpt>
      <trkpt lat="42.3559080" lon="-3.7587480">
        <ele>836.8</ele>
        <time>2021-10-01T09:23:22Z</time>
      </trkpt>
      <trkpt lat="42.3559380" lon="-3.7587400">
        <ele>836.7</ele>
        <time>2021-10-01T09:23:23Z</time>
      </trkpt>
      <trkpt lat="42.3559750" lon="-3.7587300">
        <ele>836.7</ele>
        <time>2021-10-01T09:23:24Z</time>
      </trkpt>
      <trkpt lat="42.3560370" lon="-3.7587290">
        <ele>836.6</ele>
        <time>2021-10-01T09:23:25Z</time>
      </trkpt>
      <trkpt lat="42.3561470" lon="-3.7587620">
        <ele>836.5</ele>
        <time>2021-10-01T09:23:27Z</time>
      </trkpt>
      <trkpt lat="42.3562560" lon="-3.7588240">
        <ele>836.4</ele>
        <time>2021-10-01T09:23:29Z</time>
      </trkpt>
      <trkpt lat="42.3563180" lon="-3.7588560">
        <ele>836.4</ele>
        <time>2021-10-01T09:23:30Z</time>
      </trkpt>
      <trkpt lat="42.3564210" lon="-3.7589300">
        <ele>836.4</ele>
        <time>2021-10-01T09:23:32Z</time>
      </trkpt>
      <trkpt lat="42.3564540" lon="-3.7589180">
        <ele>836.4</ele>
        <time>2021-10-01T09:23:34Z</time>
      </trkpt>
      <trkpt lat="42.3564840" lon="-3.7589020">
        <ele>836.4</ele>
        <time>2021-10-01T09:23:35Z</time>
      </trkpt>
      <trkpt lat="42.3565390" lon="-3.7588610">
        <ele>836.6</ele>
        <time>2021-10-01T09:23:37Z</time>
      </trkpt>
      <trkpt lat="42.3565980" lon="-3.7588700">
        <ele>836.6</ele>
        <time>2021-10-01T09:23:38Z</time>
      </trkpt>
      <trkpt lat="42.3566380" lon="-3.7589000">
        <ele>836.5</ele>
        <time>2021-10-01T09:23:39Z</time>
      </trkpt>
      <trkpt lat="42.3566640" lon="-3.7589440">
        <ele>836.5</ele>
        <time>2021-10-01T09:23:40Z</time>
      </trkpt>
      <trkpt lat="42.3567050" lon="-3.7590840">
        <ele>836.4</ele>
        <time>2021-10-01T09:23:42Z</time>
      </trkpt>
      <trkpt lat="42.3567290" lon="-3.7591550">
        <ele>836.4</ele>
        <time>2021-10-01T09:23:43Z</time>
      </trkpt>
      <trkpt lat="42.3567790" lon="-3.7592960">
        <ele>836.4</ele>
        <time>2021-10-01T09:23:45Z</time>
      </trkpt>
      <trkpt lat="42.3568340" lon="-3.7594320">
        <ele>836.5</ele>
        <time>2021-10-01T09:23:47Z</time>
      </trkpt>
      <trkpt lat="42.3568960" lon="-3.7595670">
        <ele>836.4</ele>
        <time>2021-10-01T09:23:49Z</time>
      </trkpt>
      <trkpt lat="42.3569230" lon="-3.7596330">
        <ele>836.3</ele>
        <time>2021-10-01T09:23:50Z</time>
      </trkpt>
      <trkpt lat="42.3569490" lon="-3.7597010">
        <ele>836.2</ele>
        <time>2021-10-01T09:23:51Z</time>
      </trkpt>
      <trkpt lat="42.3569990" lon="-3.7598370">
        <ele>836.1</ele>
        <time>2021-10-01T09:23:53Z</time>
      </trkpt>
      <trkpt lat="42.3570620" lon="-3.7599820">
        <ele>836.0</ele>
        <time>2021-10-01T09:23:55Z</time>
      </trkpt>
      <trkpt lat="42.3571220" lon="-3.7601200">
        <ele>835.9</ele>
        <time>2021-10-01T09:23:57Z</time>
      </trkpt>
      <trkpt lat="42.3571700" lon="-3.7602650">
        <ele>835.8</ele>
        <time>2021-10-01T09:23:59Z</time>
      </trkpt>
      <trkpt lat="42.3571930" lon="-3.7603370">
        <ele>835.8</ele>
        <time>2021-10-01T09:24:00Z</time>
      </trkpt>
      <trkpt lat="42.3572420" lon="-3.7604810">
        <ele>835.8</ele>
        <time>2021-10-01T09:24:02Z</time>
      </trkpt>
      <trkpt lat="42.3572830" lon="-3.7606160">
        <ele>835.7</ele>
        <time>2021-10-01T09:24:04Z</time>
      </trkpt>
      <trkpt lat="42.3573110" lon="-3.7606780">
        <ele>835.7</ele>
        <time>2021-10-01T09:24:05Z</time>
      </trkpt>
      <trkpt lat="42.3573790" lon="-3.7608360">
        <ele>835.5</ele>
        <time>2021-10-01T09:24:07Z</time>
      </trkpt>
      <trkpt lat="42.3574050" lon="-3.7609190">
        <ele>835.5</ele>
        <time>2021-10-01T09:24:08Z</time>
      </trkpt>
      <trkpt lat="42.3574360" lon="-3.7610740">
        <ele>835.4</ele>
        <time>2021-10-01T09:24:10Z</time>
      </trkpt>
      <trkpt lat="42.3574470" lon="-3.7611550">
        <ele>835.4</ele>
        <time>2021-10-01T09:24:11Z</time>
      </trkpt>
      <trkpt lat="42.3574800" lon="-3.7613170">
        <ele>835.3</ele>
        <time>2021-10-01T09:24:13Z</time>
      </trkpt>
      <trkpt lat="42.3575290" lon="-3.7614730">
        <ele>835.2</ele>
        <time>2021-10-01T09:24:15Z</time>
      </trkpt>
      <trkpt lat="42.3575540" lon="-3.7615520">
        <ele>835.2</ele>
        <time>2021-10-01T09:24:16Z</time>
      </trkpt>
      <trkpt lat="42.3575970" lon="-3.7617130">
        <ele>835.2</ele>
        <time>2021-10-01T09:24:18Z</time>
      </trkpt>
      <trkpt lat="42.3576110" lon="-3.7617920">
        <ele>835.2</ele>
        <time>2021-10-01T09:24:19Z</time>
      </trkpt>
      <trkpt lat="42.3576270" lon="-3.7618710">
        <ele>835.2</ele>
        <time>2021-10-01T09:24:20Z</time>
      </trkpt>
      <trkpt lat="42.3576670" lon="-3.7620220">
        <ele>835.2</ele>
        <time>2021-10-01T09:24:22Z</time>
      </trkpt>
      <trkpt lat="42.3576860" lon="-3.7620940">
        <ele>835.2</ele>
        <time>2021-10-01T09:24:23Z</time>
      </trkpt>
      <trkpt lat="42.3577090" lon="-3.7621650">
        <ele>835.3</ele>
        <time>2021-10-01T09:24:24Z</time>
      </trkpt>
      <trkpt lat="42.3577890" lon="-3.7622600">
        <ele>835.3</ele>
        <time>2021-10-01T09:24:26Z</time>
      </trkpt>
      <trkpt lat="42.3578940" lon="-3.7622630">
        <ele>835.3</ele>
        <time>2021-10-01T09:24:28Z</time>
      </trkpt>
      <trkpt lat="42.3579450" lon="-3.7622520">
        <ele>835.3</ele>
        <time>2021-10-01T09:24:29Z</time>
      </trkpt>
      <trkpt lat="42.3580210" lon="-3.7622920">
        <ele>835.3</ele>
        <time>2021-10-01T09:24:31Z</time>
      </trkpt>
      <trkpt lat="42.3580420" lon="-3.7623450">
        <ele>835.2</ele>
        <time>2021-10-01T09:24:32Z</time>
      </trkpt>
      <trkpt lat="42.3580170" lon="-3.7624460">
        <ele>835.1</ele>
        <time>2021-10-01T09:24:34Z</time>
      </trkpt>
      <trkpt lat="42.3579860" lon="-3.7624960">
        <ele>835.1</ele>
        <time>2021-10-01T09:24:35Z</time>
      </trkpt>
      <trkpt lat="42.3579350" lon="-3.7625740">
        <ele>835.1</ele>
        <time>2021-10-01T09:24:37Z</time>
      </trkpt>
      <trkpt lat="42.3579030" lon="-3.7626390">
        <ele>835.1</ele>
        <time>2021-10-01T09:24:38Z</time>
      </trkpt>
      <trkpt lat="42.3578920" lon="-3.7627860">
        <ele>835.1</ele>
        <time>2021-10-01T09:24:40Z</time>
      </trkpt>
      <trkpt lat="42.3579260" lon="-3.7629160">
        <ele>835.0</ele>
        <time>2021-10-01T09:24:42Z</time>
      </trkpt>
      <trkpt lat="42.3579740" lon="-3.7630770">
        <ele>835.0</ele>
        <time>2021-10-01T09:24:44Z</time>
      </trkpt>
      <trkpt lat="42.3579990" lon="-3.7631640">
        <ele>835.0</ele>
        <time>2021-10-01T09:24:45Z</time>
      </trkpt>
      <trkpt lat="42.3580210" lon="-3.7632520">
        <ele>835.0</ele>
        <time>2021-10-01T09:24:46Z</time>
      </trkpt>
      <trkpt lat="42.3580560" lon="-3.7634130">
        <ele>835.0</ele>
        <time>2021-10-01T09:24:48Z</time>
      </trkpt>
      <trkpt lat="42.3580980" lon="-3.7635640">
        <ele>835.0</ele>
        <time>2021-10-01T09:24:50Z</time>
      </trkpt>
      <trkpt lat="42.3581440" lon="-3.7637100">
        <ele>835.0</ele>
        <time>2021-10-01T09:24:52Z</time>
      </trkpt>
      <trkpt lat="42.3581630" lon="-3.7637890">
        <ele>835.0</ele>
        <time>2021-10-01T09:24:53Z</time>
      </trkpt>
      <trkpt lat="42.3582050" lon="-3.7639620">
        <ele>834.9</ele>
        <time>2021-10-01T09:24:55Z</time>
      </trkpt>
      <trkpt lat="42.3582240" lon="-3.7640450">
        <ele>834.9</ele>
        <time>2021-10-01T09:24:56Z</time>
      </trkpt>
      <trkpt lat="42.3582410" lon="-3.7641310">
        <ele>834.9</ele>
        <time>2021-10-01T09:24:57Z</time>
      </trkpt>
      <trkpt lat="42.3583080" lon="-3.7642940">
        <ele>834.9</ele>
        <time>2021-10-01T09:24:59Z</time>
      </trkpt>
      <trkpt lat="42.3583370" lon="-3.7643730">
        <ele>834.9</ele>
        <time>2021-10-01T09:25:00Z</time>
      </trkpt>
      <trkpt lat="42.3583610" lon="-3.7644520">
        <ele>834.8</ele>
        <time>2021-10-01T09:25:01Z</time>
      </trkpt>
      <trkpt lat="42.3583800" lon="-3.7645280">
        <ele>834.8</ele>
        <time>2021-10-01T09:25:02Z</time>
      </trkpt>
      <trkpt lat="42.3583970" lon="-3.7646080">
        <ele>834.8</ele>
        <time>2021-10-01T09:25:03Z</time>
      </trkpt>
      <trkpt lat="42.3584330" lon="-3.7647610">
        <ele>834.8</ele>
        <time>2021-10-01T09:25:05Z</time>
      </trkpt>
      <trkpt lat="42.3584760" lon="-3.7649130">
        <ele>834.7</ele>
        <time>2021-10-01T09:25:07Z</time>
      </trkpt>
      <trkpt lat="42.3585060" lon="-3.7650530">
        <ele>834.7</ele>
        <time>2021-10-01T09:25:09Z</time>
      </trkpt>
      <trkpt lat="42.3585200" lon="-3.7651140">
        <ele>834.7</ele>
        <time>2021-10-01T09:25:10Z</time>
      </trkpt>
      <trkpt lat="42.3585510" lon="-3.7652430">
        <ele>834.6</ele>
        <time>2021-10-01T09:25:12Z</time>
      </trkpt>
      <trkpt lat="42.3585720" lon="-3.7653220">
        <ele>834.6</ele>
        <time>2021-10-01T09:25:13Z</time>
      </trkpt>
      <trkpt lat="42.3586230" lon="-3.7654760">
        <ele>834.7</ele>
        <time>2021-10-01T09:25:15Z</time>
      </trkpt>
      <trkpt lat="42.3586430" lon="-3.7655490">
        <ele>834.7</ele>
        <time>2021-10-01T09:25:16Z</time>
      </trkpt>
      <trkpt lat="42.3586810" lon="-3.7656900">
        <ele>834.7</ele>
        <time>2021-10-01T09:25:18Z</time>
      </trkpt>
      <trkpt lat="42.3587020" lon="-3.7657700">
        <ele>834.7</ele>
        <time>2021-10-01T09:25:19Z</time>
      </trkpt>
      <trkpt lat="42.3587240" lon="-3.7658510">
        <ele>834.6</ele>
        <time>2021-10-01T09:25:20Z</time>
      </trkpt>
      <trkpt lat="42.3587770" lon="-3.7659990">
        <ele>834.6</ele>
        <time>2021-10-01T09:25:22Z</time>
      </trkpt>
      <trkpt lat="42.3587980" lon="-3.7660650">
        <ele>834.5</ele>
        <time>2021-10-01T09:25:23Z</time>
      </trkpt>
      <trkpt lat="42.3588160" lon="-3.7661290">
        <ele>834.5</ele>
        <time>2021-10-01T09:25:24Z</time>
      </trkpt>
      <trkpt lat="42.3588620" lon="-3.7662560">
        <ele>834.5</ele>
        <time>2021-10-01T09:25:26Z</time>
      </trkpt>
      <trkpt lat="42.3588870" lon="-3.7663220">
        <ele>834.5</ele>
        <time>2021-10-01T09:25:27Z</time>
      </trkpt>
      <trkpt lat="42.3589150" lon="-3.7663870">
        <ele>834.5</ele>
        <time>2021-10-01T09:25:28Z</time>
      </trkpt>
      <trkpt lat="42.3589630" lon="-3.7665210">
        <ele>834.5</ele>
        <time>2021-10-01T09:25:30Z</time>
      </trkpt>
      <trkpt lat="42.3590200" lon="-3.7666660">
        <ele>834.5</ele>
        <time>2021-10-01T09:25:32Z</time>
      </trkpt>
      <trkpt lat="42.3590810" lon="-3.7668140">
        <ele>834.4</ele>
        <time>2021-10-01T09:25:34Z</time>
      </trkpt>
      <trkpt lat="42.3591090" lon="-3.7668820">
        <ele>834.4</ele>
        <time>2021-10-01T09:25:35Z</time>
      </trkpt>
      <trkpt lat="42.3591530" lon="-3.7669940">
        <ele>834.4</ele>
        <time>2021-10-01T09:25:37Z</time>
      </trkpt>
      <trkpt lat="42.3592050" lon="-3.7671420">
        <ele>834.3</ele>
        <time>2021-10-01T09:25:39Z</time>
      </trkpt>
      <trkpt lat="42.3592510" lon="-3.7672810">
        <ele>834.3</ele>
        <time>2021-10-01T09:25:41Z</time>
      </trkpt>
      <trkpt lat="42.3592740" lon="-3.7673480">
        <ele>834.2</ele>
        <time>2021-10-01T09:25:42Z</time>
      </trkpt>
      <trkpt lat="42.3593320" lon="-3.7674800">
        <ele>834.2</ele>
        <time>2021-10-01T09:25:44Z</time>
      </trkpt>
      <trkpt lat="42.3593940" lon="-3.7675990">
        <ele>834.2</ele>
        <time>2021-10-01T09:25:46Z</time>
      </trkpt>
      <trkpt lat="42.3594490" lon="-3.7677240">
        <ele>834.1</ele>
        <time>2021-10-01T09:25:48Z</time>
      </trkpt>
      <trkpt lat="42.3595010" lon="-3.7678440">
        <ele>834.1</ele>
        <time>2021-10-01T09:25:50Z</time>
      </trkpt>
      <trkpt lat="42.3595280" lon="-3.7679060">
        <ele>834.0</ele>
        <time>2021-10-01T09:25:51Z</time>
      </trkpt>
      <trkpt lat="42.3595500" lon="-3.7679670">
        <ele>834.0</ele>
        <time>2021-10-01T09:25:52Z</time>
      </trkpt>
      <trkpt lat="42.3595940" lon="-3.7680930">
        <ele>834.0</ele>
        <time>2021-10-01T09:25:54Z</time>
      </trkpt>
      <trkpt lat="42.3596170" lon="-3.7681480">
        <ele>834.0</ele>
        <time>2021-10-01T09:25:55Z</time>
      </trkpt>
      <trkpt lat="42.3596520" lon="-3.7682400">
        <ele>834.0</ele>
        <time>2021-10-01T09:25:57Z</time>
      </trkpt>
      <trkpt lat="42.3596750" lon="-3.7682770">
        <ele>834.0</ele>
        <time>2021-10-01T09:25:58Z</time>
      </trkpt>
      <trkpt lat="42.3597140" lon="-3.7682720">
        <ele>834.0</ele>
        <time>2021-10-01T09:25:59Z</time>
      </trkpt>
      <trkpt lat="42.3597280" lon="-3.7682680">
        <ele>834.0</ele>
        <time>2021-10-01T09:26:00Z</time>
      </trkpt>
      <trkpt lat="42.3597550" lon="-3.7682500">
        <ele>834.0</ele>
        <time>2021-10-01T09:26:01Z</time>
      </trkpt>
      <trkpt lat="42.3597460" lon="-3.7682200">
        <ele>834.0</ele>
        <time>2021-10-01T09:26:03Z</time>
      </trkpt>
      <trkpt lat="42.3597480" lon="-3.7682230">
        <ele>834.0</ele>
        <time>2021-10-01T09:26:04Z</time>
      </trkpt>
      <trkpt lat="42.3597470" lon="-3.7682440">
        <ele>834.0</ele>
        <time>2021-10-01T09:26:05Z</time>
      </trkpt>
      <trkpt lat="42.3597430" lon="-3.7682480">
        <ele>834.0</ele>
        <time>2021-10-01T09:26:07Z</time>
      </trkpt>
      <trkpt lat="42.3597430" lon="-3.7682490">
        <ele>834.0</ele>
        <time>2021-10-01T09:26:08Z</time>
      </trkpt>
      <trkpt lat="42.3597500" lon="-3.7682560">
        <ele>834.0</ele>
        <time>2021-10-01T09:26:10Z</time>
      </trkpt>
      <trkpt lat="42.3597710" lon="-3.7682740">
        <ele>834.0</ele>
        <time>2021-10-01T09:26:11Z</time>
      </trkpt>
      <trkpt lat="42.3597790" lon="-3.7682800">
        <ele>834.0</ele>
        <time>2021-10-01T09:26:13Z</time>
      </trkpt>
      <trkpt lat="42.3597250" lon="-3.7684970">
        <ele>834.0</ele>
        <time>2021-10-01T09:27:10Z</time>
      </trkpt>
      <trkpt lat="42.3597270" lon="-3.7684810">
        <ele>834.0</ele>
        <time>2021-10-01T09:27:12Z</time>
      </trkpt>
      <trkpt lat="42.3597270" lon="-3.7684730">
        <ele>834.0</ele>
        <time>2021-10-01T09:27:13Z</time>
      </trkpt>
      <trkpt lat="42.3597240" lon="-3.7684620">
        <ele>834.0</ele>
        <time>2021-10-01T09:27:15Z</time>
      </trkpt>
      <trkpt lat="42.3597240" lon="-3.7684610">
        <ele>834.0</ele>
        <time>2021-10-01T09:27:16Z</time>
      </trkpt>
      <trkpt lat="42.3597240" lon="-3.7684600">
        <ele>834.0</ele>
        <time>2021-10-01T09:27:17Z</time>
      </trkpt>
      <trkpt lat="42.3597240" lon="-3.7684600">
        <ele>834.0</ele>
        <time>2021-10-01T09:27:18Z</time>
      </trkpt>
      <trkpt lat="42.3597260" lon="-3.7684580">
        <ele>834.0</ele>
        <time>2021-10-01T09:27:20Z</time>
      </trkpt>
      <trkpt lat="42.3597310" lon="-3.7684530">
        <ele>834.0</ele>
        <time>2021-10-01T09:27:22Z</time>
      </trkpt>
      <trkpt lat="42.3597340" lon="-3.7684500">
        <ele>834.0</ele>
        <time>2021-10-01T09:27:24Z</time>
      </trkpt>
      <trkpt lat="42.3597520" lon="-3.7684670">
        <ele>834.0</ele>
        <time>2021-10-01T09:27:25Z</time>
      </trkpt>
      <trkpt lat="42.3597520" lon="-3.7684670">
        <ele>834.0</ele>
        <time>2021-10-01T09:27:25Z</time>
      </trkpt>
      <trkpt lat="42.3598140" lon="-3.7685220">
        <ele>834.0</ele>
        <time>2021-10-01T09:27:27Z</time>
      </trkpt>
      <trkpt lat="42.3598390" lon="-3.7685480">
        <ele>834.0</ele>
        <time>2021-10-01T09:27:28Z</time>
      </trkpt>
      <trkpt lat="42.3598790" lon="-3.7686610">
        <ele>834.1</ele>
        <time>2021-10-01T09:27:30Z</time>
      </trkpt>
      <trkpt lat="42.3598780" lon="-3.7687430">
        <ele>834.0</ele>
        <time>2021-10-01T09:27:31Z</time>
      </trkpt>
      <trkpt lat="42.3598730" lon="-3.7688340">
        <ele>833.9</ele>
        <time>2021-10-01T09:27:32Z</time>
      </trkpt>
      <trkpt lat="42.3598750" lon="-3.7689240">
        <ele>833.9</ele>
        <time>2021-10-01T09:27:33Z</time>
      </trkpt>
      <trkpt lat="42.3598780" lon="-3.7690120">
        <ele>833.9</ele>
        <time>2021-10-01T09:27:34Z</time>
      </trkpt>
      <trkpt lat="42.3599030" lon="-3.7691710">
        <ele>833.8</ele>
        <time>2021-10-01T09:27:36Z</time>
      </trkpt>
      <trkpt lat="42.3599680" lon="-3.7693380">
        <ele>833.5</ele>
        <time>2021-10-01T09:27:38Z</time>
      </trkpt>
      <trkpt lat="42.3600550" lon="-3.7694690">
        <ele>833.3</ele>
        <time>2021-10-01T09:27:40Z</time>
      </trkpt>
      <trkpt lat="42.3601490" lon="-3.7695920">
        <ele>833.1</ele>
        <time>2021-10-01T09:27:42Z</time>
      </trkpt>
      <trkpt lat="42.3602340" lon="-3.7697220">
        <ele>833.0</ele>
        <time>2021-10-01T09:27:44Z</time>
      </trkpt>
      <trkpt lat="42.3602740" lon="-3.7697950">
        <ele>832.9</ele>
        <time>2021-10-01T09:27:45Z</time>
      </trkpt>
      <trkpt lat="42.3603460" lon="-3.7699520">
        <ele>832.7</ele>
        <time>2021-10-01T09:27:47Z</time>
      </trkpt>
      <trkpt lat="42.3604200" lon="-3.7701100">
        <ele>832.6</ele>
        <time>2021-10-01T09:27:49Z</time>
      </trkpt>
      <trkpt lat="42.3604520" lon="-3.7701720">
        <ele>832.5</ele>
        <time>2021-10-01T09:27:50Z</time>
      </trkpt>
      <trkpt lat="42.3605160" lon="-3.7702830">
        <ele>832.4</ele>
        <time>2021-10-01T09:27:52Z</time>
      </trkpt>
      <trkpt lat="42.3605780" lon="-3.7703910">
        <ele>832.4</ele>
        <time>2021-10-01T09:27:54Z</time>
      </trkpt>
      <trkpt lat="42.3606090" lon="-3.7704570">
        <ele>832.4</ele>
        <time>2021-10-01T09:27:55Z</time>
      </trkpt>
      <trkpt lat="42.3606340" lon="-3.7705250">
        <ele>832.3</ele>
        <time>2021-10-01T09:27:56Z</time>
      </trkpt>
      <trkpt lat="42.3606770" lon="-3.7706730">
        <ele>832.3</ele>
        <time>2021-10-01T09:27:58Z</time>
      </trkpt>
      <trkpt lat="42.3607170" lon="-3.7708240">
        <ele>832.3</ele>
        <time>2021-10-01T09:28:00Z</time>
      </trkpt>
      <trkpt lat="42.3607310" lon="-3.7708980">
        <ele>832.3</ele>
        <time>2021-10-01T09:28:01Z</time>
      </trkpt>
      <trkpt lat="42.3607630" lon="-3.7710390">
        <ele>832.2</ele>
        <time>2021-10-01T09:28:03Z</time>
      </trkpt>
      <trkpt lat="42.3607830" lon="-3.7711170">
        <ele>832.2</ele>
        <time>2021-10-01T09:28:04Z</time>
      </trkpt>
      <trkpt lat="42.3608130" lon="-3.7712710">
        <ele>832.3</ele>
        <time>2021-10-01T09:28:06Z</time>
      </trkpt>
      <trkpt lat="42.3608310" lon="-3.7713550">
        <ele>832.3</ele>
        <time>2021-10-01T09:28:07Z</time>
      </trkpt>
      <trkpt lat="42.3608670" lon="-3.7714990">
        <ele>832.3</ele>
        <time>2021-10-01T09:28:09Z</time>
      </trkpt>
      <trkpt lat="42.3608800" lon="-3.7715630">
        <ele>832.3</ele>
        <time>2021-10-01T09:28:10Z</time>
      </trkpt>
      <trkpt lat="42.3608880" lon="-3.7716310">
        <ele>832.2</ele>
        <time>2021-10-01T09:28:11Z</time>
      </trkpt>
      <trkpt lat="42.3609110" lon="-3.7717850">
        <ele>832.1</ele>
        <time>2021-10-01T09:28:13Z</time>
      </trkpt>
      <trkpt lat="42.3609240" lon="-3.7718620">
        <ele>832.1</ele>
        <time>2021-10-01T09:28:14Z</time>
      </trkpt>
      <trkpt lat="42.3609410" lon="-3.7720220">
        <ele>832.0</ele>
        <time>2021-10-01T09:28:16Z</time>
      </trkpt>
      <trkpt lat="42.3609520" lon="-3.7721820">
        <ele>831.9</ele>
        <time>2021-10-01T09:28:18Z</time>
      </trkpt>
      <trkpt lat="42.3609380" lon="-3.7723250">
        <ele>831.9</ele>
        <time>2021-10-01T09:28:20Z</time>
      </trkpt>
      <trkpt lat="42.3609290" lon="-3.7724850">
        <ele>831.8</ele>
        <time>2021-10-01T09:28:22Z</time>
      </trkpt>
      <trkpt lat="42.3609230" lon="-3.7725710">
        <ele>831.8</ele>
        <time>2021-10-01T09:28:23Z</time>
      </trkpt>
      <trkpt lat="42.3609140" lon="-3.7727390">
        <ele>831.8</ele>
        <time>2021-10-01T09:28:25Z</time>
      </trkpt>
      <trkpt lat="42.3608930" lon="-3.7729050">
        <ele>831.7</ele>
        <time>2021-10-01T09:28:27Z</time>
      </trkpt>
      <trkpt lat="42.3608930" lon="-3.7730730">
        <ele>831.6</ele>
        <time>2021-10-01T09:28:29Z</time>
      </trkpt>
      <trkpt lat="42.3608860" lon="-3.7731510">
        <ele>831.5</ele>
        <time>2021-10-01T09:28:30Z</time>
      </trkpt>
      <trkpt lat="42.3608710" lon="-3.7732230">
        <ele>831.5</ele>
        <time>2021-10-01T09:28:31Z</time>
      </trkpt>
      <trkpt lat="42.3608610" lon="-3.7732960">
        <ele>831.5</ele>
        <time>2021-10-01T09:28:32Z</time>
      </trkpt>
      <trkpt lat="42.3608530" lon="-3.7734380">
        <ele>831.4</ele>
        <time>2021-10-01T09:28:34Z</time>
      </trkpt>
      <trkpt lat="42.3608560" lon="-3.7735130">
        <ele>831.4</ele>
        <time>2021-10-01T09:28:35Z</time>
      </trkpt>
      <trkpt lat="42.3608800" lon="-3.7736540">
        <ele>831.4</ele>
        <time>2021-10-01T09:28:37Z</time>
      </trkpt>
      <trkpt lat="42.3609190" lon="-3.7737850">
        <ele>831.4</ele>
        <time>2021-10-01T09:28:39Z</time>
      </trkpt>
      <trkpt lat="42.3609550" lon="-3.7738430">
        <ele>831.4</ele>
        <time>2021-10-01T09:28:40Z</time>
      </trkpt>
      <trkpt lat="42.3610310" lon="-3.7739460">
        <ele>831.3</ele>
        <time>2021-10-01T09:28:42Z</time>
      </trkpt>
      <trkpt lat="42.3610900" lon="-3.7740580">
        <ele>831.3</ele>
        <time>2021-10-01T09:28:44Z</time>
      </trkpt>
      <trkpt lat="42.3611140" lon="-3.7741230">
        <ele>831.3</ele>
        <time>2021-10-01T09:28:45Z</time>
      </trkpt>
      <trkpt lat="42.3611700" lon="-3.7742540">
        <ele>831.3</ele>
        <time>2021-10-01T09:28:47Z</time>
      </trkpt>
      <trkpt lat="42.3612360" lon="-3.7743800">
        <ele>831.3</ele>
        <time>2021-10-01T09:28:49Z</time>
      </trkpt>
      <trkpt lat="42.3612980" lon="-3.7745090">
        <ele>831.2</ele>
        <time>2021-10-01T09:28:51Z</time>
      </trkpt>
      <trkpt lat="42.3613560" lon="-3.7746320">
        <ele>831.2</ele>
        <time>2021-10-01T09:28:53Z</time>
      </trkpt>
      <trkpt lat="42.3614190" lon="-3.7747560">
        <ele>831.2</ele>
        <time>2021-10-01T09:28:55Z</time>
      </trkpt>
      <trkpt lat="42.3614510" lon="-3.7748180">
        <ele>831.1</ele>
        <time>2021-10-01T09:28:56Z</time>
      </trkpt>
      <trkpt lat="42.3615180" lon="-3.7749410">
        <ele>831.1</ele>
        <time>2021-10-01T09:28:58Z</time>
      </trkpt>
      <trkpt lat="42.3615530" lon="-3.7749980">
        <ele>831.1</ele>
        <time>2021-10-01T09:28:59Z</time>
      </trkpt>
      <trkpt lat="42.3616210" lon="-3.7751120">
        <ele>831.1</ele>
        <time>2021-10-01T09:29:01Z</time>
      </trkpt>
      <trkpt lat="42.3616880" lon="-3.7752220">
        <ele>831.1</ele>
        <time>2021-10-01T09:29:03Z</time>
      </trkpt>
      <trkpt lat="42.3617220" lon="-3.7752800">
        <ele>831.1</ele>
        <time>2021-10-01T09:29:04Z</time>
      </trkpt>
      <trkpt lat="42.3617850" lon="-3.7753830">
        <ele>831.1</ele>
        <time>2021-10-01T09:29:06Z</time>
      </trkpt>
      <trkpt lat="42.3618210" lon="-3.7754340">
        <ele>831.1</ele>
        <time>2021-10-01T09:29:07Z</time>
      </trkpt>
      <trkpt lat="42.3618920" lon="-3.7755400">
        <ele>831.1</ele>
        <time>2021-10-01T09:29:09Z</time>
      </trkpt>
      <trkpt lat="42.3619510" lon="-3.7756480">
        <ele>831.0</ele>
        <time>2021-10-01T09:29:11Z</time>
      </trkpt>
      <trkpt lat="42.3620370" lon="-3.7757590">
        <ele>831.0</ele>
        <time>2021-10-01T09:29:13Z</time>
      </trkpt>
      <trkpt lat="42.3621340" lon="-3.7758620">
        <ele>831.0</ele>
        <time>2021-10-01T09:29:15Z</time>
      </trkpt>
      <trkpt lat="42.3622220" lon="-3.7759510">
        <ele>831.0</ele>
        <time>2021-10-01T09:29:17Z</time>
      </trkpt>
      <trkpt lat="42.3622640" lon="-3.7759970">
        <ele>831.0</ele>
        <time>2021-10-01T09:29:18Z</time>
      </trkpt>
      <trkpt lat="42.3623460" lon="-3.7760910">
        <ele>831.0</ele>
        <time>2021-10-01T09:29:20Z</time>
      </trkpt>
      <trkpt lat="42.3623920" lon="-3.7761360">
        <ele>831.0</ele>
        <time>2021-10-01T09:29:21Z</time>
      </trkpt>
      <trkpt lat="42.3624870" lon="-3.7762230">
        <ele>831.0</ele>
        <time>2021-10-01T09:29:23Z</time>
      </trkpt>
      <trkpt lat="42.3625780" lon="-3.7763010">
        <ele>831.1</ele>
        <time>2021-10-01T09:29:25Z</time>
      </trkpt>
      <trkpt lat="42.3626230" lon="-3.7763390">
        <ele>831.1</ele>
        <time>2021-10-01T09:29:26Z</time>
      </trkpt>
      <trkpt lat="42.3627140" lon="-3.7764090">
        <ele>831.2</ele>
        <time>2021-10-01T09:29:28Z</time>
      </trkpt>
      <trkpt lat="42.3627580" lon="-3.7764480">
        <ele>831.2</ele>
        <time>2021-10-01T09:29:29Z</time>
      </trkpt>
      <trkpt lat="42.3627980" lon="-3.7764870">
        <ele>831.3</ele>
        <time>2021-10-01T09:29:30Z</time>
      </trkpt>
      <trkpt lat="42.3628320" lon="-3.7765250">
        <ele>831.3</ele>
        <time>2021-10-01T09:29:31Z</time>
      </trkpt>
      <trkpt lat="42.3629060" lon="-3.7765940">
        <ele>831.4</ele>
        <time>2021-10-01T09:29:33Z</time>
      </trkpt>
      <trkpt lat="42.3629850" lon="-3.7766500">
        <ele>831.5</ele>
        <time>2021-10-01T09:29:35Z</time>
      </trkpt>
      <trkpt lat="42.3630730" lon="-3.7767050">
        <ele>831.6</ele>
        <time>2021-10-01T09:29:37Z</time>
      </trkpt>
      <trkpt lat="42.3631510" lon="-3.7767500">
        <ele>831.7</ele>
        <time>2021-10-01T09:29:39Z</time>
      </trkpt>
      <trkpt lat="42.3632320" lon="-3.7768150">
        <ele>831.7</ele>
        <time>2021-10-01T09:29:41Z</time>
      </trkpt>
      <trkpt lat="42.3632760" lon="-3.7768510">
        <ele>831.7</ele>
        <time>2021-10-01T09:29:42Z</time>
      </trkpt>
      <trkpt lat="42.3633620" lon="-3.7769280">
        <ele>831.8</ele>
        <time>2021-10-01T09:29:44Z</time>
      </trkpt>
      <trkpt lat="42.3634000" lon="-3.7769600">
        <ele>831.8</ele>
        <time>2021-10-01T09:29:45Z</time>
      </trkpt>
      <trkpt lat="42.3633780" lon="-3.7770250">
        <ele>831.8</ele>
        <time>2021-10-01T09:29:46Z</time>
      </trkpt>
      <trkpt lat="42.3634080" lon="-3.7770660">
        <ele>831.8</ele>
        <time>2021-10-01T09:29:48Z</time>
      </trkpt>
      <trkpt lat="42.3634450" lon="-3.7771000">
        <ele>831.9</ele>
        <time>2021-10-01T09:29:49Z</time>
      </trkpt>
      <trkpt lat="42.3634810" lon="-3.7771420">
        <ele>831.9</ele>
        <time>2021-10-01T09:29:50Z</time>
      </trkpt>
      <trkpt lat="42.3635080" lon="-3.7771850">
        <ele>832.1</ele>
        <time>2021-10-01T09:29:51Z</time>
      </trkpt>
      <trkpt lat="42.3635410" lon="-3.7772370">
        <ele>832.3</ele>
        <time>2021-10-01T09:29:53Z</time>
      </trkpt>
      <trkpt lat="42.3635520" lon="-3.7772580">
        <ele>832.4</ele>
        <time>2021-10-01T09:29:54Z</time>
      </trkpt>
      <trkpt lat="42.3635580" lon="-3.7772530">
        <ele>832.4</ele>
        <time>2021-10-01T09:29:55Z</time>
      </trkpt>
      <trkpt lat="42.3635660" lon="-3.7772450">
        <ele>832.4</ele>
        <time>2021-10-01T09:29:57Z</time>
      </trkpt>
      <trkpt lat="42.3635760" lon="-3.7772340">
        <ele>832.4</ele>
        <time>2021-10-01T09:29:59Z</time>
      </trkpt>
      <trkpt lat="42.3635820" lon="-3.7772290">
        <ele>832.4</ele>
        <time>2021-10-01T09:30:00Z</time>
      </trkpt>
      <trkpt lat="42.3635920" lon="-3.7772370">
        <ele>832.5</ele>
        <time>2021-10-01T09:32:01Z</time>
      </trkpt>
      <trkpt lat="42.3635920" lon="-3.7772370">
        <ele>832.5</ele>
        <time>2021-10-01T09:32:03Z</time>
      </trkpt>
      <trkpt lat="42.3635920" lon="-3.7772370">
        <ele>832.5</ele>
        <time>2021-10-01T09:32:04Z</time>
      </trkpt>
      <trkpt lat="42.3635920" lon="-3.7772370">
        <ele>832.5</ele>
        <time>2021-10-01T09:32:06Z</time>
      </trkpt>
      <trkpt lat="42.3635920" lon="-3.7772370">
        <ele>832.5</ele>
        <time>2021-10-01T09:32:07Z</time>
      </trkpt>
      <trkpt lat="42.3635920" lon="-3.7772370">
        <ele>832.5</ele>
        <time>2021-10-01T09:32:09Z</time>
      </trkpt>
      <trkpt lat="42.3635920" lon="-3.7772380">
        <ele>832.5</ele>
        <time>2021-10-01T09:32:10Z</time>
      </trkpt>
      <trkpt lat="42.3635920" lon="-3.7772380">
        <ele>832.5</ele>
        <time>2021-10-01T09:32:11Z</time>
      </trkpt>
      <trkpt lat="42.3635940" lon="-3.7773190">
        <ele>832.6</ele>
        <time>2021-10-01T09:32:16Z</time>
      </trkpt>
      <trkpt lat="42.3635940" lon="-3.7773700">
        <ele>832.6</ele>
        <time>2021-10-01T09:32:17Z</time>
      </trkpt>
      <trkpt lat="42.3635910" lon="-3.7774610">
        <ele>832.7</ele>
        <time>2021-10-01T09:32:19Z</time>
      </trkpt>
      <trkpt lat="42.3635950" lon="-3.7775390">
        <ele>832.8</ele>
        <time>2021-10-01T09:32:20Z</time>
      </trkpt>
      <trkpt lat="42.3635990" lon="-3.7776010">
        <ele>832.8</ele>
        <time>2021-10-01T09:32:21Z</time>
      </trkpt>
      <trkpt lat="42.3636060" lon="-3.7776620">
        <ele>832.9</ele>
        <time>2021-10-01T09:32:22Z</time>
      </trkpt>
      <trkpt lat="42.3636180" lon="-3.7776930">
        <ele>832.8</ele>
        <time>2021-10-01T09:32:24Z</time>
      </trkpt>
      <trkpt lat="42.3636250" lon="-3.7776970">
        <ele>832.8</ele>
        <time>2021-10-01T09:32:25Z</time>
      </trkpt>
      <trkpt lat="42.3636320" lon="-3.7776820">
        <ele>832.8</ele>
        <time>2021-10-01T09:32:27Z</time>
      </trkpt>
      <trkpt lat="42.3636360" lon="-3.7776740">
        <ele>832.8</ele>
        <time>2021-10-01T09:32:28Z</time>
      </trkpt>
      <trkpt lat="42.3636410" lon="-3.7776630">
        <ele>832.8</ele>
        <time>2021-10-01T09:32:29Z</time>
      </trkpt>
      <trkpt lat="42.3636500" lon="-3.7776270">
        <ele>832.8</ele>
        <time>2021-10-01T09:32:30Z</time>
      </trkpt>
      <trkpt lat="42.3636530" lon="-3.7775830">
        <ele>832.8</ele>
        <time>2021-10-01T09:32:31Z</time>
      </trkpt>
      <trkpt lat="42.3636520" lon="-3.7775280">
        <ele>832.7</ele>
        <time>2021-10-01T09:32:32Z</time>
      </trkpt>
      <trkpt lat="42.3636480" lon="-3.7774710">
        <ele>832.7</ele>
        <time>2021-10-01T09:32:34Z</time>
      </trkpt>
      <trkpt lat="42.3636420" lon="-3.7774040">
        <ele>832.6</ele>
        <time>2021-10-01T09:32:35Z</time>
      </trkpt>
      <trkpt lat="42.3636260" lon="-3.7773370">
        <ele>832.5</ele>
        <time>2021-10-01T09:32:36Z</time>
      </trkpt>
      <trkpt lat="42.3635530" lon="-3.7772080">
        <ele>832.2</ele>
        <time>2021-10-01T09:32:37Z</time>
      </trkpt>
      <trkpt lat="42.3634660" lon="-3.7770890">
        <ele>831.9</ele>
        <time>2021-10-01T09:32:39Z</time>
      </trkpt>
      <trkpt lat="42.3633680" lon="-3.7769930">
        <ele>831.8</ele>
        <time>2021-10-01T09:32:41Z</time>
      </trkpt>
      <trkpt lat="42.3633240" lon="-3.7769490">
        <ele>831.8</ele>
        <time>2021-10-01T09:32:42Z</time>
      </trkpt>
      <trkpt lat="42.3632810" lon="-3.7769100">
        <ele>831.7</ele>
        <time>2021-10-01T09:32:43Z</time>
      </trkpt>
      <trkpt lat="42.3632370" lon="-3.7768750">
        <ele>831.7</ele>
        <time>2021-10-01T09:32:44Z</time>
      </trkpt>
      <trkpt lat="42.3631890" lon="-3.7768410">
        <ele>831.7</ele>
        <time>2021-10-01T09:32:45Z</time>
      </trkpt>
      <trkpt lat="42.3631060" lon="-3.7767650">
        <ele>831.6</ele>
        <time>2021-10-01T09:32:47Z</time>
      </trkpt>
      <trkpt lat="42.3630680" lon="-3.7767260">
        <ele>831.6</ele>
        <time>2021-10-01T09:32:48Z</time>
      </trkpt>
      <trkpt lat="42.3630270" lon="-3.7766830">
        <ele>831.5</ele>
        <time>2021-10-01T09:32:49Z</time>
      </trkpt>
      <trkpt lat="42.3629750" lon="-3.7766400">
        <ele>831.5</ele>
        <time>2021-10-01T09:32:50Z</time>
      </trkpt>
      <trkpt lat="42.3628790" lon="-3.7765560">
        <ele>831.4</ele>
        <time>2021-10-01T09:32:52Z</time>
      </trkpt>
      <trkpt lat="42.3628290" lon="-3.7765010">
        <ele>831.3</ele>
        <time>2021-10-01T09:32:53Z</time>
      </trkpt>
      <trkpt lat="42.3627460" lon="-3.7764100">
        <ele>831.2</ele>
        <time>2021-10-01T09:32:55Z</time>
      </trkpt>
      <trkpt lat="42.3627040" lon="-3.7763710">
        <ele>831.2</ele>
        <time>2021-10-01T09:32:56Z</time>
      </trkpt>
      <trkpt lat="42.3626110" lon="-3.7762920">
        <ele>831.1</ele>
        <time>2021-10-01T09:32:58Z</time>
      </trkpt>
      <trkpt lat="42.3624960" lon="-3.7762220">
        <ele>831.0</ele>
        <time>2021-10-01T09:33:00Z</time>
      </trkpt>
      <trkpt lat="42.3623840" lon="-3.7761370">
        <ele>831.0</ele>
        <time>2021-10-01T09:33:02Z</time>
      </trkpt>
      <trkpt lat="42.3622770" lon="-3.7760430">
        <ele>831.0</ele>
        <time>2021-10-01T09:33:04Z</time>
      </trkpt>
      <trkpt lat="42.3621800" lon="-3.7759550">
        <ele>831.0</ele>
        <time>2021-10-01T09:33:06Z</time>
      </trkpt>
      <trkpt lat="42.3621350" lon="-3.7759160">
        <ele>831.0</ele>
        <time>2021-10-01T09:33:07Z</time>
      </trkpt>
      <trkpt lat="42.3620460" lon="-3.7758240">
        <ele>831.0</ele>
        <time>2021-10-01T09:33:09Z</time>
      </trkpt>
      <trkpt lat="42.3619980" lon="-3.7757750">
        <ele>831.0</ele>
        <time>2021-10-01T09:33:10Z</time>
      </trkpt>
      <trkpt lat="42.3619010" lon="-3.7756710">
        <ele>831.0</ele>
        <time>2021-10-01T09:33:12Z</time>
      </trkpt>
      <trkpt lat="42.3618640" lon="-3.7756120">
        <ele>831.1</ele>
        <time>2021-10-01T09:33:13Z</time>
      </trkpt>
      <trkpt lat="42.3618220" lon="-3.7755500">
        <ele>831.1</ele>
        <time>2021-10-01T09:33:14Z</time>
      </trkpt>
      <trkpt lat="42.3617790" lon="-3.7754890">
        <ele>831.1</ele>
        <time>2021-10-01T09:33:15Z</time>
      </trkpt>
      <trkpt lat="42.3617400" lon="-3.7754310">
        <ele>831.1</ele>
        <time>2021-10-01T09:33:16Z</time>
      </trkpt>
      <trkpt lat="42.3617060" lon="-3.7753730">
        <ele>831.1</ele>
        <time>2021-10-01T09:33:17Z</time>
      </trkpt>
      <trkpt lat="42.3616670" lon="-3.7753080">
        <ele>831.1</ele>
        <time>2021-10-01T09:33:18Z</time>
      </trkpt>
      <trkpt lat="42.3615880" lon="-3.7751860">
        <ele>831.1</ele>
        <time>2021-10-01T09:33:20Z</time>
      </trkpt>
      <trkpt lat="42.3615460" lon="-3.7751240">
        <ele>831.1</ele>
        <time>2021-10-01T09:33:21Z</time>
      </trkpt>
      <trkpt lat="42.3614770" lon="-3.7749830">
        <ele>831.1</ele>
        <time>2021-10-01T09:33:23Z</time>
      </trkpt>
      <trkpt lat="42.3614450" lon="-3.7749140">
        <ele>831.1</ele>
        <time>2021-10-01T09:33:24Z</time>
      </trkpt>
      <trkpt lat="42.3613950" lon="-3.7747760">
        <ele>831.2</ele>
        <time>2021-10-01T09:33:26Z</time>
      </trkpt>
      <trkpt lat="42.3613350" lon="-3.7746380">
        <ele>831.2</ele>
        <time>2021-10-01T09:33:28Z</time>
      </trkpt>
      <trkpt lat="42.3613060" lon="-3.7745650">
        <ele>831.2</ele>
        <time>2021-10-01T09:33:29Z</time>
      </trkpt>
      <trkpt lat="42.3612490" lon="-3.7744340">
        <ele>831.3</ele>
        <time>2021-10-01T09:33:31Z</time>
      </trkpt>
      <trkpt lat="42.3611840" lon="-3.7743040">
        <ele>831.3</ele>
        <time>2021-10-01T09:33:33Z</time>
      </trkpt>
      <trkpt lat="42.3611350" lon="-3.7741810">
        <ele>831.3</ele>
        <time>2021-10-01T09:33:35Z</time>
      </trkpt>
      <trkpt lat="42.3611120" lon="-3.7741170">
        <ele>831.3</ele>
        <time>2021-10-01T09:33:36Z</time>
      </trkpt>
      <trkpt lat="42.3610620" lon="-3.7739930">
        <ele>831.3</ele>
        <time>2021-10-01T09:33:38Z</time>
      </trkpt>
      <trkpt lat="42.3610010" lon="-3.7738780">
        <ele>831.3</ele>
        <time>2021-10-01T09:33:40Z</time>
      </trkpt>
      <trkpt lat="42.3609070" lon="-3.7738090">
        <ele>831.4</ele>
        <time>2021-10-01T09:33:42Z</time>
      </trkpt>
      <trkpt lat="42.3608500" lon="-3.7737750">
        <ele>831.4</ele>
        <time>2021-10-01T09:33:44Z</time>
      </trkpt>
      <trkpt lat="42.3607650" lon="-3.7737760">
        <ele>831.4</ele>
        <time>2021-10-01T09:33:46Z</time>
      </trkpt>
      <trkpt lat="42.3607180" lon="-3.7737870">
        <ele>831.5</ele>
        <time>2021-10-01T09:33:47Z</time>
      </trkpt>
      <trkpt lat="42.3606630" lon="-3.7737980">
        <ele>831.5</ele>
        <time>2021-10-01T09:33:48Z</time>
      </trkpt>
      <trkpt lat="42.3605360" lon="-3.7738190">
        <ele>831.6</ele>
        <time>2021-10-01T09:33:50Z</time>
      </trkpt>
      <trkpt lat="42.3604740" lon="-3.7738270">
        <ele>831.6</ele>
        <time>2021-10-01T09:33:51Z</time>
      </trkpt>
      <trkpt lat="42.3603610" lon="-3.7738360">
        <ele>831.7</ele>
        <time>2021-10-01T09:33:53Z</time>
      </trkpt>
      <trkpt lat="42.3603030" lon="-3.7738440">
        <ele>831.8</ele>
        <time>2021-10-01T09:33:54Z</time>
      </trkpt>
      <trkpt lat="42.3601940" lon="-3.7738510">
        <ele>831.9</ele>
        <time>2021-10-01T09:33:56Z</time>
      </trkpt>
      <trkpt lat="42.3601430" lon="-3.7738640">
        <ele>832.0</ele>
        <time>2021-10-01T09:33:57Z</time>
      </trkpt>
      <trkpt lat="42.3600630" lon="-3.7738860">
        <ele>832.2</ele>
        <time>2021-10-01T09:33:59Z</time>
      </trkpt>
      <trkpt lat="42.3600230" lon="-3.7739220">
        <ele>832.3</ele>
        <time>2021-10-01T09:34:00Z</time>
      </trkpt>
      <trkpt lat="42.3599810" lon="-3.7739380">
        <ele>832.4</ele>
        <time>2021-10-01T09:34:01Z</time>
      </trkpt>
      <trkpt lat="42.3599190" lon="-3.7739780">
        <ele>832.5</ele>
        <time>2021-10-01T09:34:02Z</time>
      </trkpt>
      <trkpt lat="42.3598800" lon="-3.7740120">
        <ele>832.5</ele>
        <time>2021-10-01T09:34:03Z</time>
      </trkpt>
      <trkpt lat="42.3598420" lon="-3.7740500">
        <ele>832.5</ele>
        <time>2021-10-01T09:34:04Z</time>
      </trkpt>
      <trkpt lat="42.3597940" lon="-3.7741050">
        <ele>832.5</ele>
        <time>2021-10-01T09:34:06Z</time>
      </trkpt>
      <trkpt lat="42.3597580" lon="-3.7741390">
        <ele>832.5</ele>
        <time>2021-10-01T09:34:07Z</time>
      </trkpt>
      <trkpt lat="42.3596950" lon="-3.7741860">
        <ele>832.5</ele>
        <time>2021-10-01T09:34:09Z</time>
      </trkpt>
      <trkpt lat="42.3596590" lon="-3.7742150">
        <ele>832.4</ele>
        <time>2021-10-01T09:34:10Z</time>
      </trkpt>
      <trkpt lat="42.3596080" lon="-3.7743030">
        <ele>832.3</ele>
        <time>2021-10-01T09:34:11Z</time>
      </trkpt>
      <trkpt lat="42.3595370" lon="-3.7744090">
        <ele>832.1</ele>
        <time>2021-10-01T09:34:13Z</time>
      </trkpt>
      <trkpt lat="42.3594880" lon="-3.7744660">
        <ele>832.1</ele>
        <time>2021-10-01T09:34:14Z</time>
      </trkpt>
      <trkpt lat="42.3594470" lon="-3.7745190">
        <ele>832.0</ele>
        <time>2021-10-01T09:34:15Z</time>
      </trkpt>
      <trkpt lat="42.3593650" lon="-3.7746410">
        <ele>831.8</ele>
        <time>2021-10-01T09:34:17Z</time>
      </trkpt>
      <trkpt lat="42.3593320" lon="-3.7747110">
        <ele>831.8</ele>
        <time>2021-10-01T09:34:18Z</time>
      </trkpt>
      <trkpt lat="42.3593240" lon="-3.7747880">
        <ele>831.8</ele>
        <time>2021-10-01T09:34:19Z</time>
      </trkpt>
      <trkpt lat="42.3593320" lon="-3.7749440">
        <ele>831.8</ele>
        <time>2021-10-01T09:34:21Z</time>
      </trkpt>
      <trkpt lat="42.3593450" lon="-3.7750210">
        <ele>831.8</ele>
        <time>2021-10-01T09:34:22Z</time>
      </trkpt>
      <trkpt lat="42.3593570" lon="-3.7750930">
        <ele>831.8</ele>
        <time>2021-10-01T09:34:23Z</time>
      </trkpt>
      <trkpt lat="42.3593660" lon="-3.7751660">
        <ele>831.8</ele>
        <time>2021-10-01T09:34:24Z</time>
      </trkpt>
      <trkpt lat="42.3593210" lon="-3.7753020">
        <ele>831.7</ele>
        <time>2021-10-01T09:34:26Z</time>
      </trkpt>
      <trkpt lat="42.3592710" lon="-3.7753430">
        <ele>831.6</ele>
        <time>2021-10-01T09:34:27Z</time>
      </trkpt>
      <trkpt lat="42.3591620" lon="-3.7754190">
        <ele>831.4</ele>
        <time>2021-10-01T09:34:29Z</time>
      </trkpt>
      <trkpt lat="42.3590620" lon="-3.7754970">
        <ele>831.2</ele>
        <time>2021-10-01T09:34:31Z</time>
      </trkpt>
      <trkpt lat="42.3590060" lon="-3.7755210">
        <ele>831.1</ele>
        <time>2021-10-01T09:34:32Z</time>
      </trkpt>
      <trkpt lat="42.3588910" lon="-3.7754980">
        <ele>830.9</ele>
        <time>2021-10-01T09:34:34Z</time>
      </trkpt>
      <trkpt lat="42.3588360" lon="-3.7754620">
        <ele>830.9</ele>
        <time>2021-10-01T09:34:35Z</time>
      </trkpt>
      <trkpt lat="42.3587250" lon="-3.7753990">
        <ele>830.8</ele>
        <time>2021-10-01T09:34:37Z</time>
      </trkpt>
      <trkpt lat="42.3586010" lon="-3.7753830">
        <ele>830.7</ele>
        <time>2021-10-01T09:34:39Z</time>
      </trkpt>
      <trkpt lat="42.3584860" lon="-3.7754150">
        <ele>830.6</ele>
        <time>2021-10-01T09:34:41Z</time>
      </trkpt>
      <trkpt lat="42.3583850" lon="-3.7755050">
        <ele>830.5</ele>
        <time>2021-10-01T09:34:43Z</time>
      </trkpt>
      <trkpt lat="42.3583420" lon="-3.7755620">
        <ele>830.5</ele>
        <time>2021-10-01T09:34:44Z</time>
      </trkpt>
      <trkpt lat="42.3583040" lon="-3.7756290">
        <ele>830.4</ele>
        <time>2021-10-01T09:34:45Z</time>
      </trkpt>
      <trkpt lat="42.3582710" lon="-3.7757000">
        <ele>830.4</ele>
        <time>2021-10-01T09:34:46Z</time>
      </trkpt>
      <trkpt lat="42.3582060" lon="-3.7758410">
        <ele>830.4</ele>
        <time>2021-10-01T09:34:48Z</time>
      </trkpt>
      <trkpt lat="42.3581300" lon="-3.7759690">
        <ele>830.3</ele>
        <time>2021-10-01T09:34:50Z</time>
      </trkpt>
      <trkpt lat="42.3580430" lon="-3.7760910">
        <ele>830.3</ele>
        <time>2021-10-01T09:34:52Z</time>
      </trkpt>
      <trkpt lat="42.3579940" lon="-3.7761510">
        <ele>830.2</ele>
        <time>2021-10-01T09:34:53Z</time>
      </trkpt>
      <trkpt lat="42.3578930" lon="-3.7762550">
        <ele>830.3</ele>
        <time>2021-10-01T09:34:55Z</time>
      </trkpt>
      <trkpt lat="42.3578390" lon="-3.7762980">
        <ele>830.3</ele>
        <time>2021-10-01T09:34:56Z</time>
      </trkpt>
      <trkpt lat="42.3577810" lon="-3.7763330">
        <ele>830.3</ele>
        <time>2021-10-01T09:34:57Z</time>
      </trkpt>
      <trkpt lat="42.3576690" lon="-3.7763950">
        <ele>830.3</ele>
        <time>2021-10-01T09:34:59Z</time>
      </trkpt>
      <trkpt lat="42.3575480" lon="-3.7764390">
        <ele>830.3</ele>
        <time>2021-10-01T09:35:01Z</time>
      </trkpt>
      <trkpt lat="42.3574240" lon="-3.7764620">
        <ele>830.3</ele>
        <time>2021-10-01T09:35:03Z</time>
      </trkpt>
      <trkpt lat="42.3572960" lon="-3.7764640">
        <ele>830.4</ele>
        <time>2021-10-01T09:35:05Z</time>
      </trkpt>
      <trkpt lat="42.3572260" lon="-3.7764460">
        <ele>830.4</ele>
        <time>2021-10-01T09:35:06Z</time>
      </trkpt>
      <trkpt lat="42.3571020" lon="-3.7764120">
        <ele>830.4</ele>
        <time>2021-10-01T09:35:08Z</time>
      </trkpt>
      <trkpt lat="42.3569630" lon="-3.7763940">
        <ele>830.4</ele>
        <time>2021-10-01T09:35:10Z</time>
      </trkpt>
      <trkpt lat="42.3568930" lon="-3.7763930">
        <ele>830.4</ele>
        <time>2021-10-01T09:35:11Z</time>
      </trkpt>
      <trkpt lat="42.3568250" lon="-3.7763940">
        <ele>830.4</ele>
        <time>2021-10-01T09:35:12Z</time>
      </trkpt>
      <trkpt lat="42.3567010" lon="-3.7764300">
        <ele>830.3</ele>
        <time>2021-10-01T09:35:14Z</time>
      </trkpt>
      <trkpt lat="42.3566450" lon="-3.7764590">
        <ele>830.3</ele>
        <time>2021-10-01T09:35:15Z</time>
      </trkpt>
      <trkpt lat="42.3565910" lon="-3.7764960">
        <ele>830.3</ele>
        <time>2021-10-01T09:35:16Z</time>
      </trkpt>
      <trkpt lat="42.3564920" lon="-3.7765820">
        <ele>830.3</ele>
        <time>2021-10-01T09:35:18Z</time>
      </trkpt>
      <trkpt lat="42.3564490" lon="-3.7766380">
        <ele>830.4</ele>
        <time>2021-10-01T09:35:19Z</time>
      </trkpt>
      <trkpt lat="42.3563720" lon="-3.7767640">
        <ele>830.4</ele>
        <time>2021-10-01T09:35:21Z</time>
      </trkpt>
      <trkpt lat="42.3563070" lon="-3.7768980">
        <ele>830.4</ele>
        <time>2021-10-01T09:35:23Z</time>
      </trkpt>
      <trkpt lat="42.3562540" lon="-3.7770430">
        <ele>830.4</ele>
        <time>2021-10-01T09:35:25Z</time>
      </trkpt>
      <trkpt lat="42.3561960" lon="-3.7771940">
        <ele>830.4</ele>
        <time>2021-10-01T09:35:27Z</time>
      </trkpt>
      <trkpt lat="42.3561690" lon="-3.7772640">
        <ele>830.5</ele>
        <time>2021-10-01T09:35:28Z</time>
      </trkpt>
      <trkpt lat="42.3561040" lon="-3.7774020">
        <ele>830.5</ele>
        <time>2021-10-01T09:35:30Z</time>
      </trkpt>
      <trkpt lat="42.3560430" lon="-3.7775360">
        <ele>830.5</ele>
        <time>2021-10-01T09:35:32Z</time>
      </trkpt>
      <trkpt lat="42.3560070" lon="-3.7775930">
        <ele>830.5</ele>
        <time>2021-10-01T09:35:33Z</time>
      </trkpt>
      <trkpt lat="42.3559420" lon="-3.7777180">
        <ele>830.4</ele>
        <time>2021-10-01T09:35:35Z</time>
      </trkpt>
      <trkpt lat="42.3559070" lon="-3.7777810">
        <ele>830.4</ele>
        <time>2021-10-01T09:35:36Z</time>
      </trkpt>
      <trkpt lat="42.3558330" lon="-3.7779160">
        <ele>830.4</ele>
        <time>2021-10-01T09:35:38Z</time>
      </trkpt>
      <trkpt lat="42.3557600" lon="-3.7780530">
        <ele>830.3</ele>
        <time>2021-10-01T09:35:40Z</time>
      </trkpt>
      <trkpt lat="42.3557220" lon="-3.7781200">
        <ele>830.2</ele>
        <time>2021-10-01T09:35:41Z</time>
      </trkpt>
      <trkpt lat="42.3556470" lon="-3.7782630">
        <ele>830.2</ele>
        <time>2021-10-01T09:35:43Z</time>
      </trkpt>
      <trkpt lat="42.3556090" lon="-3.7783320">
        <ele>830.2</ele>
        <time>2021-10-01T09:35:44Z</time>
      </trkpt>
      <trkpt lat="42.3555460" lon="-3.7784680">
        <ele>830.2</ele>
        <time>2021-10-01T09:35:46Z</time>
      </trkpt>
      <trkpt lat="42.3554870" lon="-3.7786130">
        <ele>830.1</ele>
        <time>2021-10-01T09:35:48Z</time>
      </trkpt>
      <trkpt lat="42.3554230" lon="-3.7787530">
        <ele>830.1</ele>
        <time>2021-10-01T09:35:50Z</time>
      </trkpt>
      <trkpt lat="42.3553930" lon="-3.7788230">
        <ele>830.1</ele>
        <time>2021-10-01T09:35:51Z</time>
      </trkpt>
      <trkpt lat="42.3553610" lon="-3.7788960">
        <ele>830.1</ele>
        <time>2021-10-01T09:35:52Z</time>
      </trkpt>
      <trkpt lat="42.3552990" lon="-3.7790370">
        <ele>830.0</ele>
        <time>2021-10-01T09:35:54Z</time>
      </trkpt>
      <trkpt lat="42.3552740" lon="-3.7791110">
        <ele>830.0</ele>
        <time>2021-10-01T09:35:55Z</time>
      </trkpt>
      <trkpt lat="42.3552360" lon="-3.7792350">
        <ele>829.9</ele>
        <time>2021-10-01T09:35:57Z</time>
      </trkpt>
      <trkpt lat="42.3551920" lon="-3.7793600">
        <ele>829.9</ele>
        <time>2021-10-01T09:35:59Z</time>
      </trkpt>
      <trkpt lat="42.3551720" lon="-3.7794320">
        <ele>829.9</ele>
        <time>2021-10-01T09:36:00Z</time>
      </trkpt>
      <trkpt lat="42.3551260" lon="-3.7795610">
        <ele>829.8</ele>
        <time>2021-10-01T09:36:02Z</time>
      </trkpt>
      <trkpt lat="42.3550740" lon="-3.7796780">
        <ele>829.8</ele>
        <time>2021-10-01T09:36:04Z</time>
      </trkpt>
      <trkpt lat="42.3550170" lon="-3.7797920">
        <ele>829.8</ele>
        <time>2021-10-01T09:36:06Z</time>
      </trkpt>
      <trkpt lat="42.3549910" lon="-3.7798540">
        <ele>829.8</ele>
        <time>2021-10-01T09:36:07Z</time>
      </trkpt>
      <trkpt lat="42.3549380" lon="-3.7799760">
        <ele>829.8</ele>
        <time>2021-10-01T09:36:09Z</time>
      </trkpt>
      <trkpt lat="42.3549160" lon="-3.7800420">
        <ele>829.8</ele>
        <time>2021-10-01T09:36:10Z</time>
      </trkpt>
      <trkpt lat="42.3548710" lon="-3.7801590">
        <ele>829.7</ele>
        <time>2021-10-01T09:36:12Z</time>
      </trkpt>
      <trkpt lat="42.3548480" lon="-3.7802150">
        <ele>829.7</ele>
        <time>2021-10-01T09:36:13Z</time>
      </trkpt>
      <trkpt lat="42.3548230" lon="-3.7802720">
        <ele>829.7</ele>
        <time>2021-10-01T09:36:14Z</time>
      </trkpt>
      <trkpt lat="42.3547650" lon="-3.7803880">
        <ele>829.6</ele>
        <time>2021-10-01T09:36:16Z</time>
      </trkpt>
      <trkpt lat="42.3547400" lon="-3.7804550">
        <ele>829.6</ele>
        <time>2021-10-01T09:36:17Z</time>
      </trkpt>
      <trkpt lat="42.3547140" lon="-3.7805250">
        <ele>829.5</ele>
        <time>2021-10-01T09:36:18Z</time>
      </trkpt>
      <trkpt lat="42.3546840" lon="-3.7805900">
        <ele>829.5</ele>
        <time>2021-10-01T09:36:19Z</time>
      </trkpt>
      <trkpt lat="42.3546550" lon="-3.7806540">
        <ele>829.4</ele>
        <time>2021-10-01T09:36:20Z</time>
      </trkpt>
      <trkpt lat="42.3545990" lon="-3.7807830">
        <ele>829.4</ele>
        <time>2021-10-01T09:36:22Z</time>
      </trkpt>
      <trkpt lat="42.3545720" lon="-3.7808440">
        <ele>829.4</ele>
        <time>2021-10-01T09:36:23Z</time>
      </trkpt>
      <trkpt lat="42.3545440" lon="-3.7809030">
        <ele>829.3</ele>
        <time>2021-10-01T09:36:24Z</time>
      </trkpt>
      <trkpt lat="42.3544920" lon="-3.7810230">
        <ele>829.3</ele>
        <time>2021-10-01T09:36:26Z</time>
      </trkpt>
      <trkpt lat="42.3544670" lon="-3.7810860">
        <ele>829.3</ele>
        <time>2021-10-01T09:36:27Z</time>
      </trkpt>
      <trkpt lat="42.3544430" lon="-3.7811460">
        <ele>829.2</ele>
        <time>2021-10-01T09:36:28Z</time>
      </trkpt>
      <trkpt lat="42.3543930" lon="-3.7812620">
        <ele>829.2</ele>
        <time>2021-10-01T09:36:30Z</time>
      </trkpt>
      <trkpt lat="42.3543700" lon="-3.7813210">
        <ele>829.2</ele>
        <time>2021-10-01T09:36:31Z</time>
      </trkpt>
      <trkpt lat="42.3543150" lon="-3.7814340">
        <ele>829.1</ele>
        <time>2021-10-01T09:36:33Z</time>
      </trkpt>
      <trkpt lat="42.3542580" lon="-3.7815600">
        <ele>829.1</ele>
        <time>2021-10-01T09:36:35Z</time>
      </trkpt>
      <trkpt lat="42.3542070" lon="-3.7816840">
        <ele>829.0</ele>
        <time>2021-10-01T09:36:37Z</time>
      </trkpt>
      <trkpt lat="42.3541540" lon="-3.7818030">
        <ele>829.0</ele>
        <time>2021-10-01T09:36:39Z</time>
      </trkpt>
      <trkpt lat="42.3541290" lon="-3.7818610">
        <ele>828.9</ele>
        <time>2021-10-01T09:36:40Z</time>
      </trkpt>
      <trkpt lat="42.3541020" lon="-3.7819210">
        <ele>828.9</ele>
        <time>2021-10-01T09:36:41Z</time>
      </trkpt>
      <trkpt lat="42.3540420" lon="-3.7820440">
        <ele>828.9</ele>
        <time>2021-10-01T09:36:43Z</time>
      </trkpt>
      <trkpt lat="42.3540100" lon="-3.7821030">
        <ele>828.9</ele>
        <time>2021-10-01T09:36:44Z</time>
      </trkpt>
      <trkpt lat="42.3539830" lon="-3.7821620">
        <ele>828.8</ele>
        <time>2021-10-01T09:36:45Z</time>
      </trkpt>
      <trkpt lat="42.3539570" lon="-3.7822230">
        <ele>828.8</ele>
        <time>2021-10-01T09:36:46Z</time>
      </trkpt>
      <trkpt lat="42.3539130" lon="-3.7823430">
        <ele>828.8</ele>
        <time>2021-10-01T09:36:48Z</time>
      </trkpt>
      <trkpt lat="42.3538600" lon="-3.7824640">
        <ele>828.8</ele>
        <time>2021-10-01T09:36:50Z</time>
      </trkpt>
      <trkpt lat="42.3538300" lon="-3.7825220">
        <ele>828.8</ele>
        <time>2021-10-01T09:36:51Z</time>
      </trkpt>
      <trkpt lat="42.3538050" lon="-3.7825830">
        <ele>828.8</ele>
        <time>2021-10-01T09:36:52Z</time>
      </trkpt>
      <trkpt lat="42.3537730" lon="-3.7826410">
        <ele>828.8</ele>
        <time>2021-10-01T09:36:53Z</time>
      </trkpt>
      <trkpt lat="42.3537080" lon="-3.7827570">
        <ele>828.8</ele>
        <time>2021-10-01T09:36:55Z</time>
      </trkpt>
      <trkpt lat="42.3536510" lon="-3.7828880">
        <ele>828.7</ele>
        <time>2021-10-01T09:36:57Z</time>
      </trkpt>
      <trkpt lat="42.3535920" lon="-3.7830150">
        <ele>828.7</ele>
        <time>2021-10-01T09:36:59Z</time>
      </trkpt>
      <trkpt lat="42.3535640" lon="-3.7830790">
        <ele>828.7</ele>
        <time>2021-10-01T09:37:00Z</time>
      </trkpt>
      <trkpt lat="42.3535350" lon="-3.7831390">
        <ele>828.7</ele>
        <time>2021-10-01T09:37:01Z</time>
      </trkpt>
      <trkpt lat="42.3535060" lon="-3.7832030">
        <ele>828.7</ele>
        <time>2021-10-01T09:37:02Z</time>
      </trkpt>
      <trkpt lat="42.3534460" lon="-3.7833220">
        <ele>828.7</ele>
        <time>2021-10-01T09:37:04Z</time>
      </trkpt>
      <trkpt lat="42.3533930" lon="-3.7834580">
        <ele>828.7</ele>
        <time>2021-10-01T09:37:06Z</time>
      </trkpt>
      <trkpt lat="42.3533410" lon="-3.7835930">
        <ele>828.7</ele>
        <time>2021-10-01T09:37:08Z</time>
      </trkpt>
      <trkpt lat="42.3532750" lon="-3.7837170">
        <ele>828.6</ele>
        <time>2021-10-01T09:37:10Z</time>
      </trkpt>
      <trkpt lat="42.3532430" lon="-3.7837760">
        <ele>828.6</ele>
        <time>2021-10-01T09:37:11Z</time>
      </trkpt>
      <trkpt lat="42.3531870" lon="-3.7839030">
        <ele>828.6</ele>
        <time>2021-10-01T09:37:13Z</time>
      </trkpt>
      <trkpt lat="42.3531610" lon="-3.7839650">
        <ele>828.6</ele>
        <time>2021-10-01T09:37:14Z</time>
      </trkpt>
      <trkpt lat="42.3531310" lon="-3.7840250">
        <ele>828.5</ele>
        <time>2021-10-01T09:37:15Z</time>
      </trkpt>
      <trkpt lat="42.3530710" lon="-3.7841400">
        <ele>828.5</ele>
        <time>2021-10-01T09:37:17Z</time>
      </trkpt>
      <trkpt lat="42.3530070" lon="-3.7842730">
        <ele>828.4</ele>
        <time>2021-10-01T09:37:19Z</time>
      </trkpt>
      <trkpt lat="42.3529590" lon="-3.7844050">
        <ele>828.4</ele>
        <time>2021-10-01T09:37:21Z</time>
      </trkpt>
      <trkpt lat="42.3529270" lon="-3.7844580">
        <ele>828.4</ele>
        <time>2021-10-01T09:37:22Z</time>
      </trkpt>
      <trkpt lat="42.3528700" lon="-3.7845910">
        <ele>828.5</ele>
        <time>2021-10-01T09:37:24Z</time>
      </trkpt>
      <trkpt lat="42.3528420" lon="-3.7846630">
        <ele>828.5</ele>
        <time>2021-10-01T09:37:25Z</time>
      </trkpt>
      <trkpt lat="42.3528040" lon="-3.7848160">
        <ele>828.5</ele>
        <time>2021-10-01T09:37:27Z</time>
      </trkpt>
      <trkpt lat="42.3528050" lon="-3.7848960">
        <ele>828.5</ele>
        <time>2021-10-01T09:37:28Z</time>
      </trkpt>
      <trkpt lat="42.3528200" lon="-3.7849860">
        <ele>828.5</ele>
        <time>2021-10-01T09:37:29Z</time>
      </trkpt>
      <trkpt lat="42.3528950" lon="-3.7851260">
        <ele>828.5</ele>
        <time>2021-10-01T09:37:31Z</time>
      </trkpt>
      <trkpt lat="42.3529920" lon="-3.7852270">
        <ele>828.4</ele>
        <time>2021-10-01T09:37:33Z</time>
      </trkpt>
      <trkpt lat="42.3530370" lon="-3.7852830">
        <ele>828.4</ele>
        <time>2021-10-01T09:37:34Z</time>
      </trkpt>
      <trkpt lat="42.3531300" lon="-3.7854040">
        <ele>828.5</ele>
        <time>2021-10-01T09:37:36Z</time>
      </trkpt>
      <trkpt lat="42.3531980" lon="-3.7855340">
        <ele>828.5</ele>
        <time>2021-10-01T09:37:38Z</time>
      </trkpt>
      <trkpt lat="42.3532250" lon="-3.7856090">
        <ele>828.5</ele>
        <time>2021-10-01T09:37:39Z</time>
      </trkpt>
      <trkpt lat="42.3532500" lon="-3.7856830">
        <ele>828.5</ele>
        <time>2021-10-01T09:37:40Z</time>
      </trkpt>
      <trkpt lat="42.3532850" lon="-3.7858160">
        <ele>828.5</ele>
        <time>2021-10-01T09:37:42Z</time>
      </trkpt>
      <trkpt lat="42.3533200" lon="-3.7859590">
        <ele>828.5</ele>
        <time>2021-10-01T09:37:44Z</time>
      </trkpt>
      <trkpt lat="42.3533580" lon="-3.7860980">
        <ele>828.5</ele>
        <time>2021-10-01T09:37:46Z</time>
      </trkpt>
      <trkpt lat="42.3533780" lon="-3.7861650">
        <ele>828.5</ele>
        <time>2021-10-01T09:37:47Z</time>
      </trkpt>
      <trkpt lat="42.3534110" lon="-3.7862970">
        <ele>828.5</ele>
        <time>2021-10-01T09:37:49Z</time>
      </trkpt>
      <trkpt lat="42.3534210" lon="-3.7863600">
        <ele>828.5</ele>
        <time>2021-10-01T09:37:50Z</time>
      </trkpt>
      <trkpt lat="42.3534250" lon="-3.7864260">
        <ele>828.5</ele>
        <time>2021-10-01T09:37:51Z</time>
      </trkpt>
      <trkpt lat="42.3534180" lon="-3.7865690">
        <ele>828.5</ele>
        <time>2021-10-01T09:37:53Z</time>
      </trkpt>
      <trkpt lat="42.3534090" lon="-3.7866440">
        <ele>828.5</ele>
        <time>2021-10-01T09:37:54Z</time>
      </trkpt>
      <trkpt lat="42.3533510" lon="-3.7867570">
        <ele>828.5</ele>
        <time>2021-10-01T09:37:56Z</time>
      </trkpt>
      <trkpt lat="42.3533080" lon="-3.7868050">
        <ele>828.4</ele>
        <time>2021-10-01T09:37:57Z</time>
      </trkpt>
      <trkpt lat="42.3532640" lon="-3.7868450">
        <ele>828.3</ele>
        <time>2021-10-01T09:37:58Z</time>
      </trkpt>
      <trkpt lat="42.3531570" lon="-3.7869240">
        <ele>828.1</ele>
        <time>2021-10-01T09:38:00Z</time>
      </trkpt>
      <trkpt lat="42.3530380" lon="-3.7869540">
        <ele>827.9</ele>
        <time>2021-10-01T09:38:02Z</time>
      </trkpt>
      <trkpt lat="42.3529270" lon="-3.7869470">
        <ele>827.8</ele>
        <time>2021-10-01T09:38:04Z</time>
      </trkpt>
      <trkpt lat="42.3528680" lon="-3.7869440">
        <ele>827.7</ele>
        <time>2021-10-01T09:38:05Z</time>
      </trkpt>
      <trkpt lat="42.3527570" lon="-3.7869150">
        <ele>827.7</ele>
        <time>2021-10-01T09:38:07Z</time>
      </trkpt>
      <trkpt lat="42.3527040" lon="-3.7868970">
        <ele>827.6</ele>
        <time>2021-10-01T09:38:08Z</time>
      </trkpt>
      <trkpt lat="42.3525870" lon="-3.7868620">
        <ele>827.6</ele>
        <time>2021-10-01T09:38:10Z</time>
      </trkpt>
      <trkpt lat="42.3525320" lon="-3.7868500">
        <ele>827.6</ele>
        <time>2021-10-01T09:38:11Z</time>
      </trkpt>
      <trkpt lat="42.3524280" lon="-3.7868280">
        <ele>827.6</ele>
        <time>2021-10-01T09:38:13Z</time>
      </trkpt>
      <trkpt lat="42.3523730" lon="-3.7868110">
        <ele>827.6</ele>
        <time>2021-10-01T09:38:14Z</time>
      </trkpt>
      <trkpt lat="42.3522620" lon="-3.7867890">
        <ele>827.7</ele>
        <time>2021-10-01T09:38:16Z</time>
      </trkpt>
      <trkpt lat="42.3522110" lon="-3.7867790">
        <ele>827.7</ele>
        <time>2021-10-01T09:38:17Z</time>
      </trkpt>
      <trkpt lat="42.3521080" lon="-3.7867530">
        <ele>827.7</ele>
        <time>2021-10-01T09:38:19Z</time>
      </trkpt>
      <trkpt lat="42.3520010" lon="-3.7867400">
        <ele>827.8</ele>
        <time>2021-10-01T09:38:21Z</time>
      </trkpt>
      <trkpt lat="42.3518890" lon="-3.7867480">
        <ele>827.8</ele>
        <time>2021-10-01T09:38:23Z</time>
      </trkpt>
      <trkpt lat="42.3518330" lon="-3.7867680">
        <ele>827.8</ele>
        <time>2021-10-01T09:38:24Z</time>
      </trkpt>
      <trkpt lat="42.3517810" lon="-3.7867980">
        <ele>827.8</ele>
        <time>2021-10-01T09:38:25Z</time>
      </trkpt>
      <trkpt lat="42.3516740" lon="-3.7868850">
        <ele>827.7</ele>
        <time>2021-10-01T09:38:27Z</time>
      </trkpt>
      <trkpt lat="42.3516040" lon="-3.7869940">
        <ele>827.7</ele>
        <time>2021-10-01T09:38:29Z</time>
      </trkpt>
      <trkpt lat="42.3515510" lon="-3.7871220">
        <ele>827.7</ele>
        <time>2021-10-01T09:38:31Z</time>
      </trkpt>
      <trkpt lat="42.3515290" lon="-3.7871930">
        <ele>827.7</ele>
        <time>2021-10-01T09:38:32Z</time>
      </trkpt>
      <trkpt lat="42.3515070" lon="-3.7872640">
        <ele>827.6</ele>
        <time>2021-10-01T09:38:33Z</time>
      </trkpt>
      <trkpt lat="42.3514580" lon="-3.7873960">
        <ele>827.6</ele>
        <time>2021-10-01T09:38:35Z</time>
      </trkpt>
      <trkpt lat="42.3514330" lon="-3.7874600">
        <ele>827.6</ele>
        <time>2021-10-01T09:38:36Z</time>
      </trkpt>
      <trkpt lat="42.3514080" lon="-3.7875260">
        <ele>827.6</ele>
        <time>2021-10-01T09:38:37Z</time>
      </trkpt>
      <trkpt lat="42.3513870" lon="-3.7875950">
        <ele>827.6</ele>
        <time>2021-10-01T09:38:38Z</time>
      </trkpt>
      <trkpt lat="42.3513390" lon="-3.7877190">
        <ele>827.5</ele>
        <time>2021-10-01T09:38:40Z</time>
      </trkpt>
      <trkpt lat="42.3513190" lon="-3.7877770">
        <ele>827.5</ele>
        <time>2021-10-01T09:38:41Z</time>
      </trkpt>
      <trkpt lat="42.3512880" lon="-3.7878930">
        <ele>827.5</ele>
        <time>2021-10-01T09:38:43Z</time>
      </trkpt>
      <trkpt lat="42.3512780" lon="-3.7879460">
        <ele>827.4</ele>
        <time>2021-10-01T09:38:44Z</time>
      </trkpt>
      <trkpt lat="42.3512340" lon="-3.7880580">
        <ele>827.4</ele>
        <time>2021-10-01T09:38:46Z</time>
      </trkpt>
      <trkpt lat="42.3512090" lon="-3.7881190">
        <ele>827.4</ele>
        <time>2021-10-01T09:38:47Z</time>
      </trkpt>
      <trkpt lat="42.3511580" lon="-3.7882460">
        <ele>827.3</ele>
        <time>2021-10-01T09:38:49Z</time>
      </trkpt>
      <trkpt lat="42.3511330" lon="-3.7883110">
        <ele>827.3</ele>
        <time>2021-10-01T09:38:50Z</time>
      </trkpt>
      <trkpt lat="42.3510870" lon="-3.7884370">
        <ele>827.4</ele>
        <time>2021-10-01T09:38:52Z</time>
      </trkpt>
      <trkpt lat="42.3510410" lon="-3.7885610">
        <ele>827.4</ele>
        <time>2021-10-01T09:38:54Z</time>
      </trkpt>
      <trkpt lat="42.3518700" lon="-3.7868990">
        <ele>827.6</ele>
        <time>2021-10-01T09:38:30Z</time>
      </trkpt>
      <trkpt lat="42.3518330" lon="-3.7869440">
        <ele>827.8</ele>
        <time>2021-10-01T09:38:31Z</time>
      </trkpt>
      <trkpt lat="42.3516340" lon="-3.7873650">
        <ele>826.8</ele>
        <time>2021-10-01T09:38:38Z</time>
      </trkpt>
      <trkpt lat="42.3513270" lon="-3.7880420">
        <ele>826.8</ele>
        <time>2021-10-01T09:38:49Z</time>
      </trkpt>
      <trkpt lat="42.3510490" lon="-3.7887040">
        <ele>827.0</ele>
        <time>2021-10-01T09:39:00Z</time>
      </trkpt>
      <trkpt lat="42.3509500" lon="-3.7894800">
        <ele>827.8</ele>
        <time>2021-10-01T09:39:12Z</time>
      </trkpt>
      <trkpt lat="42.3509390" lon="-3.7896160">
        <ele>828.0</ele>
        <time>2021-10-01T09:39:14Z</time>
      </trkpt>
      <trkpt lat="42.3508990" lon="-3.7903900">
        <ele>827.8</ele>
        <time>2021-10-01T09:39:25Z</time>
      </trkpt>
      <trkpt lat="42.3508890" lon="-3.7905250">
        <ele>827.8</ele>
        <time>2021-10-01T09:39:27Z</time>
      </trkpt>
      <trkpt lat="42.3508630" lon="-3.7906520">
        <ele>827.8</ele>
        <time>2021-10-01T09:39:29Z</time>
      </trkpt>
      <trkpt lat="42.3507020" lon="-3.7909950">
        <ele>827.2</ele>
        <time>2021-10-01T09:39:35Z</time>
      </trkpt>
      <trkpt lat="42.3506120" lon="-3.7917620">
        <ele>827.0</ele>
        <time>2021-10-01T09:39:46Z</time>
      </trkpt>
      <trkpt lat="42.3506550" lon="-3.7919580">
        <ele>827.0</ele>
        <time>2021-10-01T09:39:49Z</time>
      </trkpt>
      <trkpt lat="42.3506820" lon="-3.7920170">
        <ele>827.0</ele>
        <time>2021-10-01T09:39:50Z</time>
      </trkpt>
      <trkpt lat="42.3507390" lon="-3.7921250">
        <ele>826.8</ele>
        <time>2021-10-01T09:39:52Z</time>
      </trkpt>
      <trkpt lat="42.3507900" lon="-3.7922390">
        <ele>826.8</ele>
        <time>2021-10-01T09:39:54Z</time>
      </trkpt>
      <trkpt lat="42.3508090" lon="-3.7924630">
        <ele>827.0</ele>
        <time>2021-10-01T09:39:57Z</time>
      </trkpt>
      <trkpt lat="42.3508110" lon="-3.7925430">
        <ele>826.8</ele>
        <time>2021-10-01T09:39:58Z</time>
      </trkpt>
      <trkpt lat="42.3508000" lon="-3.7927980">
        <ele>826.8</ele>
        <time>2021-10-01T09:40:01Z</time>
      </trkpt>
      <trkpt lat="42.3507930" lon="-3.7931340">
        <ele>826.6</ele>
        <time>2021-10-01T09:40:05Z</time>
      </trkpt>
      <trkpt lat="42.3507910" lon="-3.7933880">
        <ele>826.2</ele>
        <time>2021-10-01T09:40:08Z</time>
      </trkpt>
      <trkpt lat="42.3507370" lon="-3.7941390">
        <ele>826.0</ele>
        <time>2021-10-01T09:40:17Z</time>
      </trkpt>
      <trkpt lat="42.3507190" lon="-3.7944450">
        <ele>826.0</ele>
        <time>2021-10-01T09:40:21Z</time>
      </trkpt>
      <trkpt lat="42.3509080" lon="-3.7946630">
        <ele>826.4</ele>
        <time>2021-10-01T09:40:26Z</time>
      </trkpt>
      <trkpt lat="42.3511240" lon="-3.7947940">
        <ele>827.4</ele>
        <time>2021-10-01T09:40:30Z</time>
      </trkpt>
      <trkpt lat="42.3515990" lon="-3.7951710">
        <ele>827.8</ele>
        <time>2021-10-01T09:40:39Z</time>
      </trkpt>
      <trkpt lat="42.3516430" lon="-3.7952220">
        <ele>827.8</ele>
        <time>2021-10-01T09:40:40Z</time>
      </trkpt>
      <trkpt lat="42.3516510" lon="-3.7957390">
        <ele>827.2</ele>
        <time>2021-10-01T09:40:47Z</time>
      </trkpt>
      <trkpt lat="42.3515860" lon="-3.7959720">
        <ele>826.8</ele>
        <time>2021-10-01T09:40:50Z</time>
      </trkpt>
      <trkpt lat="42.3513870" lon="-3.7963600">
        <ele>826.4</ele>
        <time>2021-10-01T09:40:56Z</time>
      </trkpt>
      <trkpt lat="42.3509600" lon="-3.7963130">
        <ele>826.6</ele>
        <time>2021-10-01T09:41:04Z</time>
      </trkpt>
      <trkpt lat="42.3505560" lon="-3.7960530">
        <ele>826.4</ele>
        <time>2021-10-01T09:41:11Z</time>
      </trkpt>
      <trkpt lat="42.3502010" lon="-3.7962350">
        <ele>826.2</ele>
        <time>2021-10-01T09:41:18Z</time>
      </trkpt>
      <trkpt lat="42.3500020" lon="-3.7965090">
        <ele>826.4</ele>
        <time>2021-10-01T09:41:24Z</time>
      </trkpt>
      <trkpt lat="42.3499480" lon="-3.7968100">
        <ele>827.4</ele>
        <time>2021-10-01T09:41:29Z</time>
      </trkpt>
      <trkpt lat="42.3499630" lon="-3.7969630">
        <ele>827.8</ele>
        <time>2021-10-01T09:41:31Z</time>
      </trkpt>
      <trkpt lat="42.3499820" lon="-3.7971670">
        <ele>828.2</ele>
        <time>2021-10-01T09:41:34Z</time>
      </trkpt>
      <trkpt lat="42.3499720" lon="-3.7972820">
        <ele>828.2</ele>
        <time>2021-10-01T09:41:36Z</time>
      </trkpt>
      <trkpt lat="42.3500030" lon="-3.7977940">
        <ele>828.6</ele>
        <time>2021-10-01T09:41:44Z</time>
      </trkpt>
      <trkpt lat="42.3500060" lon="-3.7979230">
        <ele>828.8</ele>
        <time>2021-10-01T09:41:46Z</time>
      </trkpt>
      <trkpt lat="42.3500050" lon="-3.7983870">
        <ele>829.0</ele>
        <time>2021-10-01T09:41:53Z</time>
      </trkpt>
      <trkpt lat="42.3500050" lon="-3.7986000">
        <ele>829.0</ele>
        <time>2021-10-01T09:41:56Z</time>
      </trkpt>
      <trkpt lat="42.3499870" lon="-3.7992550">
        <ele>828.4</ele>
        <time>2021-10-01T09:42:05Z</time>
      </trkpt>
      <trkpt lat="42.3499660" lon="-3.7994990">
        <ele>828.0</ele>
        <time>2021-10-01T09:42:09Z</time>
      </trkpt>
      <trkpt lat="42.3498770" lon="-3.7998790">
        <ele>827.8</ele>
        <time>2021-10-01T09:42:15Z</time>
      </trkpt>
      <trkpt lat="42.3497310" lon="-3.8004030">
        <ele>826.4</ele>
        <time>2021-10-01T09:42:22Z</time>
      </trkpt>
      <trkpt lat="42.3496140" lon="-3.8006840">
        <ele>825.4</ele>
        <time>2021-10-01T09:42:26Z</time>
      </trkpt>
      <trkpt lat="42.3493350" lon="-3.8013160">
        <ele>825.0</ele>
        <time>2021-10-01T09:42:35Z</time>
      </trkpt>
      <trkpt lat="42.3492770" lon="-3.8014510">
        <ele>825.0</ele>
        <time>2021-10-01T09:42:37Z</time>
      </trkpt>
      <trkpt lat="42.3489130" lon="-3.8020770">
        <ele>825.6</ele>
        <time>2021-10-01T09:42:47Z</time>
      </trkpt>
      <trkpt lat="42.3486620" lon="-3.8024600">
        <ele>825.8</ele>
        <time>2021-10-01T09:42:54Z</time>
      </trkpt>
      <trkpt lat="42.3486200" lon="-3.8025040">
        <ele>825.8</ele>
        <time>2021-10-01T09:42:55Z</time>
      </trkpt>
      <trkpt lat="42.3482020" lon="-3.8030100">
        <ele>825.2</ele>
        <time>2021-10-01T09:43:04Z</time>
      </trkpt>
      <trkpt lat="42.3481360" lon="-3.8031470">
        <ele>824.2</ele>
        <time>2021-10-01T09:43:06Z</time>
      </trkpt>
      <trkpt lat="42.3477990" lon="-3.8037920">
        <ele>823.2</ele>
        <time>2021-10-01T09:43:16Z</time>
      </trkpt>
      <trkpt lat="42.3476000" lon="-3.8041700">
        <ele>823.4</ele>
        <time>2021-10-01T09:43:22Z</time>
      </trkpt>
      <trkpt lat="42.3475840" lon="-3.8046480">
        <ele>823.8</ele>
        <time>2021-10-01T09:43:28Z</time>
      </trkpt>
      <trkpt lat="42.3476320" lon="-3.8050590">
        <ele>824.0</ele>
        <time>2021-10-01T09:43:33Z</time>
      </trkpt>
      <trkpt lat="42.3475950" lon="-3.8058120">
        <ele>824.2</ele>
        <time>2021-10-01T09:43:42Z</time>
      </trkpt>
      <trkpt lat="42.3475500" lon="-3.8063940">
        <ele>824.4</ele>
        <time>2021-10-01T09:43:49Z</time>
      </trkpt>
      <trkpt lat="42.3475820" lon="-3.8072000">
        <ele>824.8</ele>
        <time>2021-10-01T09:43:59Z</time>
      </trkpt>
      <trkpt lat="42.3476080" lon="-3.8075240">
        <ele>825.2</ele>
        <time>2021-10-01T09:44:03Z</time>
      </trkpt>
      <trkpt lat="42.3476910" lon="-3.8082920">
        <ele>825.8</ele>
        <time>2021-10-01T09:44:13Z</time>
      </trkpt>
      <trkpt lat="42.3477030" lon="-3.8084460">
        <ele>826.2</ele>
        <time>2021-10-01T09:44:15Z</time>
      </trkpt>
      <trkpt lat="42.3477650" lon="-3.8092020">
        <ele>826.8</ele>
        <time>2021-10-01T09:44:25Z</time>
      </trkpt>
      <trkpt lat="42.3478040" lon="-3.8095680">
        <ele>827.2</ele>
        <time>2021-10-01T09:44:30Z</time>
      </trkpt>
      <trkpt lat="42.3478580" lon="-3.8100000">
        <ele>827.8</ele>
        <time>2021-10-01T09:44:36Z</time>
      </trkpt>
      <trkpt lat="42.3478690" lon="-3.8101450">
        <ele>827.8</ele>
        <time>2021-10-01T09:44:38Z</time>
      </trkpt>
      <trkpt lat="42.3479670" lon="-3.8108470">
        <ele>828.4</ele>
        <time>2021-10-01T09:44:48Z</time>
      </trkpt>
      <trkpt lat="42.3480810" lon="-3.8115340">
        <ele>828.6</ele>
        <time>2021-10-01T09:44:57Z</time>
      </trkpt>
      <trkpt lat="42.3482300" lon="-3.8122980">
        <ele>828.2</ele>
        <time>2021-10-01T09:45:07Z</time>
      </trkpt>
      <trkpt lat="42.3483060" lon="-3.8127580">
        <ele>828.6</ele>
        <time>2021-10-01T09:45:13Z</time>
      </trkpt>
      <trkpt lat="42.3484030" lon="-3.8132920">
        <ele>828.6</ele>
        <time>2021-10-01T09:45:20Z</time>
      </trkpt>
      <trkpt lat="42.3484150" lon="-3.8135830">
        <ele>828.6</ele>
        <time>2021-10-01T09:45:24Z</time>
      </trkpt>
      <trkpt lat="42.3484870" lon="-3.8137740">
        <ele>828.6</ele>
        <time>2021-10-01T09:45:27Z</time>
      </trkpt>
      <trkpt lat="42.3487430" lon="-3.8144530">
        <ele>828.4</ele>
        <time>2021-10-01T09:45:37Z</time>
      </trkpt>
      <trkpt lat="42.3488680" lon="-3.8147850">
        <ele>828.2</ele>
        <time>2021-10-01T09:45:42Z</time>
      </trkpt>
      <trkpt lat="42.3489150" lon="-3.8149100">
        <ele>828.2</ele>
        <time>2021-10-01T09:45:44Z</time>
      </trkpt>
      <trkpt lat="42.3489390" lon="-3.8149710">
        <ele>828.0</ele>
        <time>2021-10-01T09:45:45Z</time>
      </trkpt>
      <trkpt lat="42.3489650" lon="-3.8150290">
        <ele>828.0</ele>
        <time>2021-10-01T09:45:46Z</time>
      </trkpt>
      <trkpt lat="42.3490700" lon="-3.8151700">
        <ele>827.4</ele>
        <time>2021-10-01T09:45:49Z</time>
      </trkpt>
      <trkpt lat="42.3491250" lon="-3.8153630">
        <ele>827.0</ele>
        <time>2021-10-01T09:45:52Z</time>
      </trkpt>
      <trkpt lat="42.3491260" lon="-3.8155110">
        <ele>826.8</ele>
        <time>2021-10-01T09:45:54Z</time>
      </trkpt>
      <trkpt lat="42.3491170" lon="-3.8155860">
        <ele>826.2</ele>
        <time>2021-10-01T09:45:55Z</time>
      </trkpt>
      <trkpt lat="42.3490710" lon="-3.8157340">
        <ele>825.8</ele>
        <time>2021-10-01T09:45:57Z</time>
      </trkpt>
      <trkpt lat="42.3489970" lon="-3.8158700">
        <ele>825.6</ele>
        <time>2021-10-01T09:45:59Z</time>
      </trkpt>
      <trkpt lat="42.3489270" lon="-3.8160150">
        <ele>825.2</ele>
        <time>2021-10-01T09:46:01Z</time>
      </trkpt>
      <trkpt lat="42.3487840" lon="-3.8163100">
        <ele>824.2</ele>
        <time>2021-10-01T09:46:05Z</time>
      </trkpt>
      <trkpt lat="42.3487140" lon="-3.8164380">
        <ele>824.0</ele>
        <time>2021-10-01T09:46:07Z</time>
      </trkpt>
      <trkpt lat="42.3486850" lon="-3.8165040">
        <ele>823.6</ele>
        <time>2021-10-01T09:46:08Z</time>
      </trkpt>
      <trkpt lat="42.3485930" lon="-3.8168430">
        <ele>823.0</ele>
        <time>2021-10-01T09:46:13Z</time>
      </trkpt>
      <trkpt lat="42.3485710" lon="-3.8169050">
        <ele>823.0</ele>
        <time>2021-10-01T09:46:14Z</time>
      </trkpt>
      <trkpt lat="42.3485240" lon="-3.8170330">
        <ele>822.8</ele>
        <time>2021-10-01T09:46:16Z</time>
      </trkpt>
      <trkpt lat="42.3484870" lon="-3.8171670">
        <ele>822.6</ele>
        <time>2021-10-01T09:46:18Z</time>
      </trkpt>
      <trkpt lat="42.3484690" lon="-3.8172360">
        <ele>822.4</ele>
        <time>2021-10-01T09:46:19Z</time>
      </trkpt>
      <trkpt lat="42.3484090" lon="-3.8174460">
        <ele>822.4</ele>
        <time>2021-10-01T09:46:22Z</time>
      </trkpt>
      <trkpt lat="42.3483470" lon="-3.8176580">
        <ele>822.0</ele>
        <time>2021-10-01T09:46:25Z</time>
      </trkpt>
      <trkpt lat="42.3483010" lon="-3.8177990">
        <ele>822.0</ele>
        <time>2021-10-01T09:46:27Z</time>
      </trkpt>
      <trkpt lat="42.3481940" lon="-3.8181670">
        <ele>821.2</ele>
        <time>2021-10-01T09:46:32Z</time>
      </trkpt>
      <trkpt lat="42.3481410" lon="-3.8183140">
        <ele>820.8</ele>
        <time>2021-10-01T09:46:34Z</time>
      </trkpt>
      <trkpt lat="42.3480430" lon="-3.8187040">
        <ele>820.6</ele>
        <time>2021-10-01T09:46:39Z</time>
      </trkpt>
      <trkpt lat="42.3480190" lon="-3.8189490">
        <ele>820.6</ele>
        <time>2021-10-01T09:46:42Z</time>
      </trkpt>
      <trkpt lat="42.3480010" lon="-3.8191090">
        <ele>820.8</ele>
        <time>2021-10-01T09:46:44Z</time>
      </trkpt>
      <trkpt lat="42.3479800" lon="-3.8192640">
        <ele>821.0</ele>
        <time>2021-10-01T09:46:46Z</time>
      </trkpt>
      <trkpt lat="42.3479690" lon="-3.8193370">
        <ele>821.0</ele>
        <time>2021-10-01T09:46:47Z</time>
      </trkpt>
      <trkpt lat="42.3479620" lon="-3.8195100">
        <ele>821.2</ele>
        <time>2021-10-01T09:46:50Z</time>
      </trkpt>
      <trkpt lat="42.3479960" lon="-3.8196750">
        <ele>821.2</ele>
        <time>2021-10-01T09:46:53Z</time>
      </trkpt>
      <trkpt lat="42.3479980" lon="-3.8197990">
        <ele>821.4</ele>
        <time>2021-10-01T09:46:55Z</time>
      </trkpt>
      <trkpt lat="42.3479810" lon="-3.8199260">
        <ele>821.6</ele>
        <time>2021-10-01T09:46:57Z</time>
      </trkpt>
      <trkpt lat="42.3479490" lon="-3.8201850">
        <ele>821.8</ele>
        <time>2021-10-01T09:47:01Z</time>
      </trkpt>
      <trkpt lat="42.3479480" lon="-3.8202500">
        <ele>822.0</ele>
        <time>2021-10-01T09:47:02Z</time>
      </trkpt>
      <trkpt lat="42.3481090" lon="-3.8205450">
        <ele>822.4</ele>
        <time>2021-10-01T09:47:08Z</time>
      </trkpt>
      <trkpt lat="42.3481490" lon="-3.8205890">
        <ele>822.4</ele>
        <time>2021-10-01T09:47:09Z</time>
      </trkpt>
      <trkpt lat="42.3482260" lon="-3.8206850">
        <ele>822.4</ele>
        <time>2021-10-01T09:47:11Z</time>
      </trkpt>
      <trkpt lat="42.3483470" lon="-3.8208360">
        <ele>822.6</ele>
        <time>2021-10-01T09:47:14Z</time>
      </trkpt>
      <trkpt lat="42.3484290" lon="-3.8209430">
        <ele>822.8</ele>
        <time>2021-10-01T09:47:16Z</time>
      </trkpt>
      <trkpt lat="42.3484640" lon="-3.8210060">
        <ele>823.0</ele>
        <time>2021-10-01T09:47:17Z</time>
      </trkpt>
      <trkpt lat="42.3485380" lon="-3.8212080">
        <ele>823.6</ele>
        <time>2021-10-01T09:47:20Z</time>
      </trkpt>
      <trkpt lat="42.3486480" lon="-3.8214700">
        <ele>823.8</ele>
        <time>2021-10-01T09:47:24Z</time>
      </trkpt>
      <trkpt lat="42.3487160" lon="-3.8215890">
        <ele>823.8</ele>
        <time>2021-10-01T09:47:26Z</time>
      </trkpt>
      <trkpt lat="42.3487560" lon="-3.8216410">
        <ele>823.8</ele>
        <time>2021-10-01T09:47:27Z</time>
      </trkpt>
      <trkpt lat="42.3488500" lon="-3.8217190">
        <ele>823.8</ele>
        <time>2021-10-01T09:47:29Z</time>
      </trkpt>
      <trkpt lat="42.3490580" lon="-3.8216960">
        <ele>823.8</ele>
        <time>2021-10-01T09:47:33Z</time>
      </trkpt>
      <trkpt lat="42.3492150" lon="-3.8216460">
        <ele>823.6</ele>
        <time>2021-10-01T09:47:36Z</time>
      </trkpt>
      <trkpt lat="42.3493510" lon="-3.8219550">
        <ele>823.2</ele>
        <time>2021-10-01T09:47:42Z</time>
      </trkpt>
      <trkpt lat="42.3493140" lon="-3.8221010">
        <ele>823.0</ele>
        <time>2021-10-01T09:47:44Z</time>
      </trkpt>
      <trkpt lat="42.3492480" lon="-3.8223220">
        <ele>822.6</ele>
        <time>2021-10-01T09:47:47Z</time>
      </trkpt>
      <trkpt lat="42.3491570" lon="-3.8230500">
        <ele>822.2</ele>
        <time>2021-10-01T09:47:56Z</time>
      </trkpt>
      <trkpt lat="42.3491180" lon="-3.8236420">
        <ele>821.8</ele>
        <time>2021-10-01T09:48:03Z</time>
      </trkpt>
      <trkpt lat="42.3489690" lon="-3.8243650">
        <ele>821.8</ele>
        <time>2021-10-01T09:48:12Z</time>
      </trkpt>
      <trkpt lat="42.3488560" lon="-3.8246720">
        <ele>821.6</ele>
        <time>2021-10-01T09:48:16Z</time>
      </trkpt>
      <trkpt lat="42.3486350" lon="-3.8253820">
        <ele>821.2</ele>
        <time>2021-10-01T09:48:25Z</time>
      </trkpt>
      <trkpt lat="42.3484710" lon="-3.8259070">
        <ele>821.2</ele>
        <time>2021-10-01T09:48:32Z</time>
      </trkpt>
      <trkpt lat="42.3482530" lon="-3.8266380">
        <ele>821.0</ele>
        <time>2021-10-01T09:48:42Z</time>
      </trkpt>
      <trkpt lat="42.3480440" lon="-3.8273630">
        <ele>821.8</ele>
        <time>2021-10-01T09:48:52Z</time>
      </trkpt>
      <trkpt lat="42.3478880" lon="-3.8279670">
        <ele>821.8</ele>
        <time>2021-10-01T09:49:00Z</time>
      </trkpt>
      <trkpt lat="42.3477360" lon="-3.8284170">
        <ele>821.8</ele>
        <time>2021-10-01T09:49:06Z</time>
      </trkpt>
      <trkpt lat="42.3473640" lon="-3.8286540">
        <ele>821.6</ele>
        <time>2021-10-01T09:49:13Z</time>
      </trkpt>
      <trkpt lat="42.3467830" lon="-3.8287130">
        <ele>821.6</ele>
        <time>2021-10-01T09:49:23Z</time>
      </trkpt>
      <trkpt lat="42.3463630" lon="-3.8287520">
        <ele>822.4</ele>
        <time>2021-10-01T09:49:31Z</time>
      </trkpt>
      <trkpt lat="42.3462090" lon="-3.8287800">
        <ele>823.0</ele>
        <time>2021-10-01T09:49:34Z</time>
      </trkpt>
      <trkpt lat="42.3460090" lon="-3.8288400">
        <ele>824.2</ele>
        <time>2021-10-01T09:49:38Z</time>
      </trkpt>
      <trkpt lat="42.3458640" lon="-3.8289200">
        <ele>824.4</ele>
        <time>2021-10-01T09:49:41Z</time>
      </trkpt>
      <trkpt lat="42.3456720" lon="-3.8290710">
        <ele>825.4</ele>
        <time>2021-10-01T09:49:45Z</time>
      </trkpt>
      <trkpt lat="42.3454500" lon="-3.8292620">
        <ele>826.6</ele>
        <time>2021-10-01T09:49:50Z</time>
      </trkpt>
      <trkpt lat="42.3453600" lon="-3.8293310">
        <ele>826.8</ele>
        <time>2021-10-01T09:49:52Z</time>
      </trkpt>
      <trkpt lat="42.3450880" lon="-3.8295390">
        <ele>827.4</ele>
        <time>2021-10-01T09:49:58Z</time>
      </trkpt>
      <trkpt lat="42.3445440" lon="-3.8297740">
        <ele>827.4</ele>
        <time>2021-10-01T09:50:08Z</time>
      </trkpt>
      <trkpt lat="42.3440890" lon="-3.8300010">
        <ele>826.2</ele>
        <time>2021-10-01T09:50:16Z</time>
      </trkpt>
      <trkpt lat="42.3438030" lon="-3.8301750">
        <ele>825.8</ele>
        <time>2021-10-01T09:50:21Z</time>
      </trkpt>
      <trkpt lat="42.3435780" lon="-3.8303330">
        <ele>825.6</ele>
        <time>2021-10-01T09:50:25Z</time>
      </trkpt>
      <trkpt lat="42.3433190" lon="-3.8305710">
        <ele>825.4</ele>
        <time>2021-10-01T09:50:30Z</time>
      </trkpt>
      <trkpt lat="42.3430840" lon="-3.8308230">
        <ele>825.2</ele>
        <time>2021-10-01T09:50:35Z</time>
      </trkpt>
      <trkpt lat="42.3426620" lon="-3.8313900">
        <ele>825.0</ele>
        <time>2021-10-01T09:50:45Z</time>
      </trkpt>
      <trkpt lat="42.3422750" lon="-3.8320010">
        <ele>824.8</ele>
        <time>2021-10-01T09:50:55Z</time>
      </trkpt>
      <trkpt lat="42.3420830" lon="-3.8323040">
        <ele>824.6</ele>
        <time>2021-10-01T09:51:00Z</time>
      </trkpt>
      <trkpt lat="42.3417100" lon="-3.8328790">
        <ele>825.0</ele>
        <time>2021-10-01T09:51:10Z</time>
      </trkpt>
      <trkpt lat="42.3415230" lon="-3.8331810">
        <ele>825.8</ele>
        <time>2021-10-01T09:51:15Z</time>
      </trkpt>
      <trkpt lat="42.3413660" lon="-3.8333810">
        <ele>826.4</ele>
        <time>2021-10-01T09:51:19Z</time>
      </trkpt>
      <trkpt lat="42.3413250" lon="-3.8334200">
        <ele>826.4</ele>
        <time>2021-10-01T09:51:20Z</time>
      </trkpt>
      <trkpt lat="42.3409600" lon="-3.8335510">
        <ele>826.4</ele>
        <time>2021-10-01T09:51:27Z</time>
      </trkpt>
      <trkpt lat="42.3408460" lon="-3.8335460">
        <ele>826.4</ele>
        <time>2021-10-01T09:51:29Z</time>
      </trkpt>
      <trkpt lat="42.3407100" lon="-3.8335160">
        <ele>826.4</ele>
        <time>2021-10-01T09:51:32Z</time>
      </trkpt>
      <trkpt lat="42.3406370" lon="-3.8337400">
        <ele>826.0</ele>
        <time>2021-10-01T09:51:37Z</time>
      </trkpt>
      <trkpt lat="42.3406080" lon="-3.8339530">
        <ele>826.4</ele>
        <time>2021-10-01T09:51:41Z</time>
      </trkpt>
      <trkpt lat="42.3406040" lon="-3.8340090">
        <ele>826.4</ele>
        <time>2021-10-01T09:51:42Z</time>
      </trkpt>
      <trkpt lat="42.3405990" lon="-3.8341790">
        <ele>826.6</ele>
        <time>2021-10-01T09:51:45Z</time>
      </trkpt>
      <trkpt lat="42.3405940" lon="-3.8343410">
        <ele>827.0</ele>
        <time>2021-10-01T09:51:48Z</time>
      </trkpt>
      <trkpt lat="42.3405140" lon="-3.8346190">
        <ele>827.4</ele>
        <time>2021-10-01T09:51:53Z</time>
      </trkpt>
      <trkpt lat="42.3404750" lon="-3.8347310">
        <ele>827.8</ele>
        <time>2021-10-01T09:51:55Z</time>
      </trkpt>
      <trkpt lat="42.3404060" lon="-3.8348650">
        <ele>828.2</ele>
        <time>2021-10-01T09:51:58Z</time>
      </trkpt>
      <trkpt lat="42.3403250" lon="-3.8350020">
        <ele>828.6</ele>
        <time>2021-10-01T09:52:02Z</time>
      </trkpt>
      <trkpt lat="42.3402650" lon="-3.8351030">
        <ele>829.8</ele>
        <time>2021-10-01T09:52:05Z</time>
      </trkpt>
      <trkpt lat="42.3402060" lon="-3.8351490">
        <ele>830.8</ele>
        <time>2021-10-01T09:52:07Z</time>
      </trkpt>
      <trkpt lat="42.3401690" lon="-3.8351650">
        <ele>831.4</ele>
        <time>2021-10-01T09:52:08Z</time>
      </trkpt>
      <trkpt lat="42.3401320" lon="-3.8351860">
        <ele>831.8</ele>
        <time>2021-10-01T09:52:09Z</time>
      </trkpt>
      <trkpt lat="42.3399990" lon="-3.8353080">
        <ele>832.6</ele>
        <time>2021-10-01T09:52:13Z</time>
      </trkpt>
      <trkpt lat="42.3400070" lon="-3.8355720">
        <ele>832.6</ele>
        <time>2021-10-01T09:52:18Z</time>
      </trkpt>
      <trkpt lat="42.3401300" lon="-3.8360530">
        <ele>831.2</ele>
        <time>2021-10-01T09:52:25Z</time>
      </trkpt>
      <trkpt lat="42.3401590" lon="-3.8362090">
        <ele>831.0</ele>
        <time>2021-10-01T09:52:27Z</time>
      </trkpt>
      <trkpt lat="42.3401660" lon="-3.8362890">
        <ele>830.6</ele>
        <time>2021-10-01T09:52:28Z</time>
      </trkpt>
      <trkpt lat="42.3401830" lon="-3.8365300">
        <ele>829.8</ele>
        <time>2021-10-01T09:52:31Z</time>
      </trkpt>
      <trkpt lat="42.3402110" lon="-3.8367640">
        <ele>829.0</ele>
        <time>2021-10-01T09:52:34Z</time>
      </trkpt>
      <trkpt lat="42.3402410" lon="-3.8369150">
        <ele>828.8</ele>
        <time>2021-10-01T09:52:36Z</time>
      </trkpt>
      <trkpt lat="42.3403250" lon="-3.8372940">
        <ele>828.2</ele>
        <time>2021-10-01T09:52:41Z</time>
      </trkpt>
      <trkpt lat="42.3403280" lon="-3.8376140">
        <ele>828.0</ele>
        <time>2021-10-01T09:52:45Z</time>
      </trkpt>
      <trkpt lat="42.3403200" lon="-3.8376940">
        <ele>827.8</ele>
        <time>2021-10-01T09:52:46Z</time>
      </trkpt>
      <trkpt lat="42.3402740" lon="-3.8382480">
        <ele>827.4</ele>
        <time>2021-10-01T09:52:54Z</time>
      </trkpt>
      <trkpt lat="42.3402960" lon="-3.8384940">
        <ele>827.6</ele>
        <time>2021-10-01T09:52:58Z</time>
      </trkpt>
      <trkpt lat="42.3403210" lon="-3.8386220">
        <ele>827.6</ele>
        <time>2021-10-01T09:53:00Z</time>
      </trkpt>
      <trkpt lat="42.3403740" lon="-3.8388870">
        <ele>828.0</ele>
        <time>2021-10-01T09:53:04Z</time>
      </trkpt>
      <trkpt lat="42.3404310" lon="-3.8393040">
        <ele>828.4</ele>
        <time>2021-10-01T09:53:10Z</time>
      </trkpt>
      <trkpt lat="42.3404900" lon="-3.8397430">
        <ele>828.6</ele>
        <time>2021-10-01T09:53:16Z</time>
      </trkpt>
      <trkpt lat="42.3404970" lon="-3.8398200">
        <ele>829.0</ele>
        <time>2021-10-01T09:53:17Z</time>
      </trkpt>
      <trkpt lat="42.3405250" lon="-3.8403730">
        <ele>829.2</ele>
        <time>2021-10-01T09:53:24Z</time>
      </trkpt>
      <trkpt lat="42.3404960" lon="-3.8411120">
        <ele>828.8</ele>
        <time>2021-10-01T09:53:35Z</time>
      </trkpt>
      <trkpt lat="42.3404820" lon="-3.8414890">
        <ele>829.6</ele>
        <time>2021-10-01T09:53:41Z</time>
      </trkpt>
      <trkpt lat="42.3404650" lon="-3.8416140">
        <ele>830.0</ele>
        <time>2021-10-01T09:53:43Z</time>
      </trkpt>
      <trkpt lat="42.3403960" lon="-3.8419770">
        <ele>831.0</ele>
        <time>2021-10-01T09:53:49Z</time>
      </trkpt>
      <trkpt lat="42.3403590" lon="-3.8422180">
        <ele>831.4</ele>
        <time>2021-10-01T09:53:53Z</time>
      </trkpt>
      <trkpt lat="42.3403530" lon="-3.8423380">
        <ele>832.2</ele>
        <time>2021-10-01T09:53:55Z</time>
      </trkpt>
      <trkpt lat="42.3403390" lon="-3.8425110">
        <ele>833.2</ele>
        <time>2021-10-01T09:53:58Z</time>
      </trkpt>
      <trkpt lat="42.3403330" lon="-3.8425680">
        <ele>833.6</ele>
        <time>2021-10-01T09:53:59Z</time>
      </trkpt>
      <trkpt lat="42.3403140" lon="-3.8427360">
        <ele>834.6</ele>
        <time>2021-10-01T09:54:02Z</time>
      </trkpt>
      <trkpt lat="42.3402880" lon="-3.8429580">
        <ele>835.8</ele>
        <time>2021-10-01T09:54:06Z</time>
      </trkpt>
      <trkpt lat="42.3402620" lon="-3.8431660">
        <ele>837.0</ele>
        <time>2021-10-01T09:54:10Z</time>
      </trkpt>
      <trkpt lat="42.3402310" lon="-3.8434770">
        <ele>838.2</ele>
        <time>2021-10-01T09:54:16Z</time>
      </trkpt>
      <trkpt lat="42.3402240" lon="-3.8437550">
        <ele>838.8</ele>
        <time>2021-10-01T09:54:21Z</time>
      </trkpt>
      <trkpt lat="42.3402390" lon="-3.8439200">
        <ele>839.2</ele>
        <time>2021-10-01T09:54:24Z</time>
      </trkpt>
      <trkpt lat="42.3403010" lon="-3.8444140">
        <ele>840.4</ele>
        <time>2021-10-01T09:54:33Z</time>
      </trkpt>
      <trkpt lat="42.3404000" lon="-3.8451620">
        <ele>841.4</ele>
        <time>2021-10-01T09:54:46Z</time>
      </trkpt>
      <trkpt lat="42.3404070" lon="-3.8452220">
        <ele>841.4</ele>
        <time>2021-10-01T09:54:47Z</time>
      </trkpt>
      <trkpt lat="42.3404400" lon="-3.8456780">
        <ele>841.6</ele>
        <time>2021-10-01T09:54:54Z</time>
      </trkpt>
      <trkpt lat="42.3404260" lon="-3.8463160">
        <ele>841.4</ele>
        <time>2021-10-01T09:55:03Z</time>
      </trkpt>
      <trkpt lat="42.3404850" lon="-3.8470580">
        <ele>841.6</ele>
        <time>2021-10-01T09:55:14Z</time>
      </trkpt>
      <trkpt lat="42.3405560" lon="-3.8477960">
        <ele>842.4</ele>
        <time>2021-10-01T09:55:25Z</time>
      </trkpt>
      <trkpt lat="42.3406320" lon="-3.8485440">
        <ele>842.8</ele>
        <time>2021-10-01T09:55:36Z</time>
      </trkpt>
      <trkpt lat="42.3407260" lon="-3.8492780">
        <ele>843.0</ele>
        <time>2021-10-01T09:55:47Z</time>
      </trkpt>
      <trkpt lat="42.3408190" lon="-3.8495660">
        <ele>843.2</ele>
        <time>2021-10-01T09:55:52Z</time>
      </trkpt>
      <trkpt lat="42.3408650" lon="-3.8496530">
        <ele>843.6</ele>
        <time>2021-10-01T09:55:54Z</time>
      </trkpt>
      <trkpt lat="42.3409170" lon="-3.8497370">
        <ele>844.4</ele>
        <time>2021-10-01T09:55:56Z</time>
      </trkpt>
      <trkpt lat="42.3409850" lon="-3.8498270">
        <ele>844.8</ele>
        <time>2021-10-01T09:55:58Z</time>
      </trkpt>
      <trkpt lat="42.3410540" lon="-3.8499300">
        <ele>845.0</ele>
        <time>2021-10-01T09:56:00Z</time>
      </trkpt>
      <trkpt lat="42.3411930" lon="-3.8503510">
        <ele>845.6</ele>
        <time>2021-10-01T09:56:07Z</time>
      </trkpt>
      <trkpt lat="42.3412390" lon="-3.8507190">
        <ele>845.8</ele>
        <time>2021-10-01T09:56:13Z</time>
      </trkpt>
      <trkpt lat="42.3413010" lon="-3.8514460">
        <ele>847.0</ele>
        <time>2021-10-01T09:56:25Z</time>
      </trkpt>
      <trkpt lat="42.3413100" lon="-3.8515590">
        <ele>847.2</ele>
        <time>2021-10-01T09:56:27Z</time>
      </trkpt>
      <trkpt lat="42.3413340" lon="-3.8518150">
        <ele>848.0</ele>
        <time>2021-10-01T09:56:32Z</time>
      </trkpt>
      <trkpt lat="42.3413480" lon="-3.8520270">
        <ele>848.8</ele>
        <time>2021-10-01T09:56:36Z</time>
      </trkpt>
      <trkpt lat="42.3413510" lon="-3.8520850">
        <ele>849.2</ele>
        <time>2021-10-01T09:56:37Z</time>
      </trkpt>
      <trkpt lat="42.3413580" lon="-3.8523230">
        <ele>850.4</ele>
        <time>2021-10-01T09:56:41Z</time>
      </trkpt>
      <trkpt lat="42.3413710" lon="-3.8525860">
        <ele>851.0</ele>
        <time>2021-10-01T09:56:46Z</time>
      </trkpt>
      <trkpt lat="42.3413740" lon="-3.8526370">
        <ele>851.4</ele>
        <time>2021-10-01T09:56:47Z</time>
      </trkpt>
      <trkpt lat="42.3414000" lon="-3.8528970">
        <ele>852.6</ele>
        <time>2021-10-01T09:56:52Z</time>
      </trkpt>
      <trkpt lat="42.3414400" lon="-3.8532150">
        <ele>853.8</ele>
        <time>2021-10-01T09:56:58Z</time>
      </trkpt>
      <trkpt lat="42.3414880" lon="-3.8536300">
        <ele>854.8</ele>
        <time>2021-10-01T09:57:06Z</time>
      </trkpt>
      <trkpt lat="42.3414970" lon="-3.8539400">
        <ele>855.8</ele>
        <time>2021-10-01T09:57:12Z</time>
      </trkpt>
      <trkpt lat="42.3414690" lon="-3.8543660">
        <ele>856.4</ele>
        <time>2021-10-01T09:57:20Z</time>
      </trkpt>
      <trkpt lat="42.3414400" lon="-3.8545250">
        <ele>857.0</ele>
        <time>2021-10-01T09:57:23Z</time>
      </trkpt>
      <trkpt lat="42.3413820" lon="-3.8549480">
        <ele>858.0</ele>
        <time>2021-10-01T09:57:31Z</time>
      </trkpt>
      <trkpt lat="42.3413300" lon="-3.8552900">
        <ele>859.2</ele>
        <time>2021-10-01T09:57:37Z</time>
      </trkpt>
      <trkpt lat="42.3412070" lon="-3.8560330">
        <ele>859.2</ele>
        <time>2021-10-01T09:57:49Z</time>
      </trkpt>
      <trkpt lat="42.3411680" lon="-3.8564300">
        <ele>859.0</ele>
        <time>2021-10-01T09:57:55Z</time>
      </trkpt>
      <trkpt lat="42.3411240" lon="-3.8568160">
        <ele>858.8</ele>
        <time>2021-10-01T09:58:01Z</time>
      </trkpt>
      <trkpt lat="42.3410270" lon="-3.8575850">
        <ele>859.0</ele>
        <time>2021-10-01T09:58:13Z</time>
      </trkpt>
      <trkpt lat="42.3409320" lon="-3.8582470">
        <ele>860.4</ele>
        <time>2021-10-01T09:58:24Z</time>
      </trkpt>
      <trkpt lat="42.3409360" lon="-3.8585040">
        <ele>861.4</ele>
        <time>2021-10-01T09:58:29Z</time>
      </trkpt>
      <trkpt lat="42.3409500" lon="-3.8586660">
        <ele>862.6</ele>
        <time>2021-10-01T09:58:32Z</time>
      </trkpt>
      <trkpt lat="42.3409330" lon="-3.8592380">
        <ele>863.0</ele>
        <time>2021-10-01T09:58:40Z</time>
      </trkpt>
      <trkpt lat="42.3409260" lon="-3.8596030">
        <ele>862.6</ele>
        <time>2021-10-01T09:58:45Z</time>
      </trkpt>
      <trkpt lat="42.3409260" lon="-3.8602570">
        <ele>862.2</ele>
        <time>2021-10-01T09:58:54Z</time>
      </trkpt>
      <trkpt lat="42.3408560" lon="-3.8609990">
        <ele>862.4</ele>
        <time>2021-10-01T09:59:05Z</time>
      </trkpt>
      <trkpt lat="42.3408230" lon="-3.8612710">
        <ele>863.0</ele>
        <time>2021-10-01T09:59:09Z</time>
      </trkpt>
      <trkpt lat="42.3407940" lon="-3.8617510">
        <ele>863.6</ele>
        <time>2021-10-01T09:59:16Z</time>
      </trkpt>
      <trkpt lat="42.3407880" lon="-3.8621390">
        <ele>864.4</ele>
        <time>2021-10-01T09:59:22Z</time>
      </trkpt>
      <trkpt lat="42.3407870" lon="-3.8622050">
        <ele>864.8</ele>
        <time>2021-10-01T09:59:23Z</time>
      </trkpt>
      <trkpt lat="42.3407870" lon="-3.8625390">
        <ele>866.0</ele>
        <time>2021-10-01T09:59:28Z</time>
      </trkpt>
      <trkpt lat="42.3407760" lon="-3.8627340">
        <ele>866.0</ele>
        <time>2021-10-01T09:59:31Z</time>
      </trkpt>
      <trkpt lat="42.3407950" lon="-3.8631910">
        <ele>866.2</ele>
        <time>2021-10-01T09:59:38Z</time>
      </trkpt>
      <trkpt lat="42.3407940" lon="-3.8635160">
        <ele>866.4</ele>
        <time>2021-10-01T09:59:43Z</time>
      </trkpt>
      <trkpt lat="42.3407810" lon="-3.8638480">
        <ele>867.0</ele>
        <time>2021-10-01T09:59:48Z</time>
      </trkpt>
      <trkpt lat="42.3407860" lon="-3.8643480">
        <ele>867.2</ele>
        <time>2021-10-01T09:59:56Z</time>
      </trkpt>
      <trkpt lat="42.3408340" lon="-3.8645580">
        <ele>867.8</ele>
        <time>2021-10-01T10:00:00Z</time>
      </trkpt>
      <trkpt lat="42.3408560" lon="-3.8646060">
        <ele>868.0</ele>
        <time>2021-10-01T10:00:01Z</time>
      </trkpt>
      <trkpt lat="42.3410070" lon="-3.8649680">
        <ele>869.0</ele>
        <time>2021-10-01T10:00:08Z</time>
      </trkpt>
      <trkpt lat="42.3410870" lon="-3.8651800">
        <ele>869.6</ele>
        <time>2021-10-01T10:00:12Z</time>
      </trkpt>
      <trkpt lat="42.3411570" lon="-3.8654130">
        <ele>869.8</ele>
        <time>2021-10-01T10:00:16Z</time>
      </trkpt>
      <trkpt lat="42.3412280" lon="-3.8657060">
        <ele>870.0</ele>
        <time>2021-10-01T10:00:21Z</time>
      </trkpt>
      <trkpt lat="42.3413070" lon="-3.8661260">
        <ele>871.2</ele>
        <time>2021-10-01T10:00:28Z</time>
      </trkpt>
      <trkpt lat="42.3414070" lon="-3.8667300">
        <ele>872.2</ele>
        <time>2021-10-01T10:00:39Z</time>
      </trkpt>
      <trkpt lat="42.3414240" lon="-3.8670210">
        <ele>873.4</ele>
        <time>2021-10-01T10:00:45Z</time>
      </trkpt>
      <trkpt lat="42.3414380" lon="-3.8672660">
        <ele>874.2</ele>
        <time>2021-10-01T10:00:50Z</time>
      </trkpt>
      <trkpt lat="42.3414410" lon="-3.8673150">
        <ele>874.4</ele>
        <time>2021-10-01T10:00:51Z</time>
      </trkpt>
      <trkpt lat="42.3414540" lon="-3.8674590">
        <ele>875.6</ele>
        <time>2021-10-01T10:00:54Z</time>
      </trkpt>
      <trkpt lat="42.3414970" lon="-3.8676810">
        <ele>876.8</ele>
        <time>2021-10-01T10:00:59Z</time>
      </trkpt>
      <trkpt lat="42.3415040" lon="-3.8678660">
        <ele>877.8</ele>
        <time>2021-10-01T10:01:03Z</time>
      </trkpt>
      <trkpt lat="42.3415400" lon="-3.8681260">
        <ele>878.8</ele>
        <time>2021-10-01T10:01:09Z</time>
      </trkpt>
      <trkpt lat="42.3415730" lon="-3.8683610">
        <ele>879.8</ele>
        <time>2021-10-01T10:01:14Z</time>
      </trkpt>
      <trkpt lat="42.3416300" lon="-3.8686260">
        <ele>881.0</ele>
        <time>2021-10-01T10:01:19Z</time>
      </trkpt>
      <trkpt lat="42.3416510" lon="-3.8687390">
        <ele>881.4</ele>
        <time>2021-10-01T10:01:21Z</time>
      </trkpt>
      <trkpt lat="42.3416710" lon="-3.8689240">
        <ele>882.0</ele>
        <time>2021-10-01T10:01:24Z</time>
      </trkpt>
      <trkpt lat="42.3417290" lon="-3.8696730">
        <ele>882.0</ele>
        <time>2021-10-01T10:01:36Z</time>
      </trkpt>
      <trkpt lat="42.3418130" lon="-3.8704330">
        <ele>882.0</ele>
        <time>2021-10-01T10:01:48Z</time>
      </trkpt>
      <trkpt lat="42.3418920" lon="-3.8711410">
        <ele>883.2</ele>
        <time>2021-10-01T10:01:59Z</time>
      </trkpt>
      <trkpt lat="42.3419400" lon="-3.8716740">
        <ele>884.0</ele>
        <time>2021-10-01T10:02:07Z</time>
      </trkpt>
      <trkpt lat="42.3419340" lon="-3.8721890">
        <ele>884.2</ele>
        <time>2021-10-01T10:02:15Z</time>
      </trkpt>
      <trkpt lat="42.3419310" lon="-3.8722520">
        <ele>884.2</ele>
        <time>2021-10-01T10:02:16Z</time>
      </trkpt>
      <trkpt lat="42.3419200" lon="-3.8726150">
        <ele>884.4</ele>
        <time>2021-10-01T10:02:22Z</time>
      </trkpt>
      <trkpt lat="42.3419270" lon="-3.8727310">
        <ele>884.6</ele>
        <time>2021-10-01T10:02:24Z</time>
      </trkpt>
      <trkpt lat="42.3419350" lon="-3.8728560">
        <ele>885.0</ele>
        <time>2021-10-01T10:02:26Z</time>
      </trkpt>
      <trkpt lat="42.3419630" lon="-3.8729830">
        <ele>885.6</ele>
        <time>2021-10-01T10:02:28Z</time>
      </trkpt>
      <trkpt lat="42.3420690" lon="-3.8737030">
        <ele>886.6</ele>
        <time>2021-10-01T10:02:39Z</time>
      </trkpt>
      <trkpt lat="42.3420730" lon="-3.8741140">
        <ele>887.0</ele>
        <time>2021-10-01T10:02:46Z</time>
      </trkpt>
      <trkpt lat="42.3420840" lon="-3.8744230">
        <ele>887.8</ele>
        <time>2021-10-01T10:02:52Z</time>
      </trkpt>
      <trkpt lat="42.3420670" lon="-3.8745630">
        <ele>889.0</ele>
        <time>2021-10-01T10:02:55Z</time>
      </trkpt>
      <trkpt lat="42.3420030" lon="-3.8747870">
        <ele>890.0</ele>
        <time>2021-10-01T10:03:00Z</time>
      </trkpt>
      <trkpt lat="42.3419210" lon="-3.8749500">
        <ele>891.2</ele>
        <time>2021-10-01T10:03:04Z</time>
      </trkpt>
      <trkpt lat="42.3418430" lon="-3.8752190">
        <ele>892.2</ele>
        <time>2021-10-01T10:03:10Z</time>
      </trkpt>
      <trkpt lat="42.3418440" lon="-3.8754620">
        <ele>893.4</ele>
        <time>2021-10-01T10:03:15Z</time>
      </trkpt>
      <trkpt lat="42.3418510" lon="-3.8756110">
        <ele>894.4</ele>
        <time>2021-10-01T10:03:18Z</time>
      </trkpt>
      <trkpt lat="42.3419200" lon="-3.8762110">
        <ele>895.4</ele>
        <time>2021-10-01T10:03:30Z</time>
      </trkpt>
      <trkpt lat="42.3419570" lon="-3.8765140">
        <ele>896.6</ele>
        <time>2021-10-01T10:03:36Z</time>
      </trkpt>
      <trkpt lat="42.3419680" lon="-3.8767800">
        <ele>897.8</ele>
        <time>2021-10-01T10:03:41Z</time>
      </trkpt>
      <trkpt lat="42.3419590" lon="-3.8772520">
        <ele>898.8</ele>
        <time>2021-10-01T10:03:50Z</time>
      </trkpt>
      <trkpt lat="42.3419140" lon="-3.8775960">
        <ele>899.8</ele>
        <time>2021-10-01T10:03:57Z</time>
      </trkpt>
      <trkpt lat="42.3418830" lon="-3.8778370">
        <ele>901.2</ele>
        <time>2021-10-01T10:04:02Z</time>
      </trkpt>
      <trkpt lat="42.3418540" lon="-3.8780240">
        <ele>902.2</ele>
        <time>2021-10-01T10:04:06Z</time>
      </trkpt>
      <trkpt lat="42.3417840" lon="-3.8784200">
        <ele>903.2</ele>
        <time>2021-10-01T10:04:15Z</time>
      </trkpt>
      <trkpt lat="42.3417290" lon="-3.8786650">
        <ele>904.2</ele>
        <time>2021-10-01T10:04:21Z</time>
      </trkpt>
      <trkpt lat="42.3416520" lon="-3.8789960">
        <ele>905.4</ele>
        <time>2021-10-01T10:04:29Z</time>
      </trkpt>
      <trkpt lat="42.3416600" lon="-3.8791720">
        <ele>906.4</ele>
        <time>2021-10-01T10:04:33Z</time>
      </trkpt>
      <trkpt lat="42.3417020" lon="-3.8793370">
        <ele>907.6</ele>
        <time>2021-10-01T10:04:37Z</time>
      </trkpt>
      <trkpt lat="42.3417130" lon="-3.8794670">
        <ele>908.6</ele>
        <time>2021-10-01T10:04:40Z</time>
      </trkpt>
      <trkpt lat="42.3417100" lon="-3.8796890">
        <ele>910.0</ele>
        <time>2021-10-01T10:04:45Z</time>
      </trkpt>
      <trkpt lat="42.3417290" lon="-3.8798150">
        <ele>911.0</ele>
        <time>2021-10-01T10:04:48Z</time>
      </trkpt>
      <trkpt lat="42.3417610" lon="-3.8799500">
        <ele>912.2</ele>
        <time>2021-10-01T10:04:52Z</time>
      </trkpt>
      <trkpt lat="42.3417740" lon="-3.8800000">
        <ele>912.8</ele>
        <time>2021-10-01T10:04:56Z</time>
      </trkpt>
      <trkpt lat="42.3417840" lon="-3.8800690">
        <ele>915.0</ele>
        <time>2021-10-01T10:05:29Z</time>
      </trkpt>
      <trkpt lat="42.3417860" lon="-3.8800940">
        <ele>915.0</ele>
        <time>2021-10-01T10:05:30Z</time>
      </trkpt>
      <trkpt lat="42.3418690" lon="-3.8808190">
        <ele>915.2</ele>
        <time>2021-10-01T10:05:48Z</time>
      </trkpt>
      <trkpt lat="42.3418740" lon="-3.8810790">
        <ele>915.2</ele>
        <time>2021-10-01T10:05:53Z</time>
      </trkpt>
      <trkpt lat="42.3418860" lon="-3.8814430">
        <ele>916.2</ele>
        <time>2021-10-01T10:06:00Z</time>
      </trkpt>
      <trkpt lat="42.3418940" lon="-3.8814970">
        <ele>916.4</ele>
        <time>2021-10-01T10:06:01Z</time>
      </trkpt>
      <trkpt lat="42.3419120" lon="-3.8816070">
        <ele>916.6</ele>
        <time>2021-10-01T10:06:03Z</time>
      </trkpt>
      <trkpt lat="42.3419350" lon="-3.8818360">
        <ele>916.8</ele>
        <time>2021-10-01T10:06:07Z</time>
      </trkpt>
      <trkpt lat="42.3419760" lon="-3.8821340">
        <ele>917.2</ele>
        <time>2021-10-01T10:06:12Z</time>
      </trkpt>
      <trkpt lat="42.3419970" lon="-3.8822510">
        <ele>917.4</ele>
        <time>2021-10-01T10:06:14Z</time>
      </trkpt>
      <trkpt lat="42.3419970" lon="-3.8825030">
        <ele>917.6</ele>
        <time>2021-10-01T10:06:18Z</time>
      </trkpt>
      <trkpt lat="42.3419980" lon="-3.8831240">
        <ele>917.8</ele>
        <time>2021-10-01T10:06:28Z</time>
      </trkpt>
      <trkpt lat="42.3420110" lon="-3.8834120">
        <ele>918.2</ele>
        <time>2021-10-01T10:06:33Z</time>
      </trkpt>
      <trkpt lat="42.3420170" lon="-3.8834650">
        <ele>918.4</ele>
        <time>2021-10-01T10:06:34Z</time>
      </trkpt>
      <trkpt lat="42.3420350" lon="-3.8837390">
        <ele>918.8</ele>
        <time>2021-10-01T10:06:39Z</time>
      </trkpt>
      <trkpt lat="42.3420580" lon="-3.8839630">
        <ele>919.4</ele>
        <time>2021-10-01T10:06:43Z</time>
      </trkpt>
      <trkpt lat="42.3421470" lon="-3.8845070">
        <ele>920.6</ele>
        <time>2021-10-01T10:06:53Z</time>
      </trkpt>
      <trkpt lat="42.3421700" lon="-3.8846160">
        <ele>921.0</ele>
        <time>2021-10-01T10:06:55Z</time>
      </trkpt>
      <trkpt lat="42.3422200" lon="-3.8848420">
        <ele>921.8</ele>
        <time>2021-10-01T10:06:59Z</time>
      </trkpt>
      <trkpt lat="42.3422540" lon="-3.8850270">
        <ele>922.2</ele>
        <time>2021-10-01T10:07:02Z</time>
      </trkpt>
      <trkpt lat="42.3423010" lon="-3.8853490">
        <ele>922.4</ele>
        <time>2021-10-01T10:07:07Z</time>
      </trkpt>
      <trkpt lat="42.3423620" lon="-3.8858100">
        <ele>922.0</ele>
        <time>2021-10-01T10:07:14Z</time>
      </trkpt>
      <trkpt lat="42.3423940" lon="-3.8862660">
        <ele>921.8</ele>
        <time>2021-10-01T10:07:21Z</time>
      </trkpt>
      <trkpt lat="42.3424080" lon="-3.8865310">
        <ele>921.8</ele>
        <time>2021-10-01T10:07:25Z</time>
      </trkpt>
      <trkpt lat="42.3424100" lon="-3.8866580">
        <ele>921.6</ele>
        <time>2021-10-01T10:07:27Z</time>
      </trkpt>
      <trkpt lat="42.3424220" lon="-3.8872310">
        <ele>920.6</ele>
        <time>2021-10-01T10:07:35Z</time>
      </trkpt>
      <trkpt lat="42.3424440" lon="-3.8877280">
        <ele>919.4</ele>
        <time>2021-10-01T10:07:41Z</time>
      </trkpt>
      <trkpt lat="42.3424650" lon="-3.8881280">
        <ele>919.0</ele>
        <time>2021-10-01T10:07:46Z</time>
      </trkpt>
      <trkpt lat="42.3424710" lon="-3.8882810">
        <ele>919.0</ele>
        <time>2021-10-01T10:07:48Z</time>
      </trkpt>
      <trkpt lat="42.3424760" lon="-3.8884990">
        <ele>918.8</ele>
        <time>2021-10-01T10:07:51Z</time>
      </trkpt>
      <trkpt lat="42.3424720" lon="-3.8886380">
        <ele>918.8</ele>
        <time>2021-10-01T10:07:53Z</time>
      </trkpt>
      <trkpt lat="42.3424650" lon="-3.8887050">
        <ele>918.8</ele>
        <time>2021-10-01T10:07:54Z</time>
      </trkpt>
      <trkpt lat="42.3424500" lon="-3.8888350">
        <ele>918.6</ele>
        <time>2021-10-01T10:07:56Z</time>
      </trkpt>
      <trkpt lat="42.3424490" lon="-3.8888980">
        <ele>918.4</ele>
        <time>2021-10-01T10:07:57Z</time>
      </trkpt>
      <trkpt lat="42.3424410" lon="-3.8891730">
        <ele>918.2</ele>
        <time>2021-10-01T10:08:01Z</time>
      </trkpt>
      <trkpt lat="42.3424230" lon="-3.8893940">
        <ele>918.0</ele>
        <time>2021-10-01T10:08:04Z</time>
      </trkpt>
      <trkpt lat="42.3423980" lon="-3.8895350">
        <ele>917.6</ele>
        <time>2021-10-01T10:08:06Z</time>
      </trkpt>
      <trkpt lat="42.3423560" lon="-3.8898300">
        <ele>917.4</ele>
        <time>2021-10-01T10:08:10Z</time>
      </trkpt>
      <trkpt lat="42.3423350" lon="-3.8899940">
        <ele>917.2</ele>
        <time>2021-10-01T10:08:12Z</time>
      </trkpt>
      <trkpt lat="42.3423090" lon="-3.8901700">
        <ele>916.8</ele>
        <time>2021-10-01T10:08:14Z</time>
      </trkpt>
      <trkpt lat="42.3422800" lon="-3.8903560">
        <ele>916.4</ele>
        <time>2021-10-01T10:08:16Z</time>
      </trkpt>
      <trkpt lat="42.3422650" lon="-3.8904470">
        <ele>916.4</ele>
        <time>2021-10-01T10:08:17Z</time>
      </trkpt>
      <trkpt lat="42.3422190" lon="-3.8907120">
        <ele>916.0</ele>
        <time>2021-10-01T10:08:20Z</time>
      </trkpt>
      <trkpt lat="42.3421700" lon="-3.8909600">
        <ele>916.0</ele>
        <time>2021-10-01T10:08:23Z</time>
      </trkpt>
      <trkpt lat="42.3419780" lon="-3.8916650">
        <ele>917.0</ele>
        <time>2021-10-01T10:08:33Z</time>
      </trkpt>
      <trkpt lat="42.3418970" lon="-3.8919220">
        <ele>918.8</ele>
        <time>2021-10-01T10:08:37Z</time>
      </trkpt>
      <trkpt lat="42.3417510" lon="-3.8925060">
        <ele>920.0</ele>
        <time>2021-10-01T10:08:46Z</time>
      </trkpt>
      <trkpt lat="42.3416610" lon="-3.8929020">
        <ele>921.0</ele>
        <time>2021-10-01T10:08:52Z</time>
      </trkpt>
      <trkpt lat="42.3415140" lon="-3.8934770">
        <ele>922.2</ele>
        <time>2021-10-01T10:09:01Z</time>
      </trkpt>
      <trkpt lat="42.3413250" lon="-3.8940300">
        <ele>923.2</ele>
        <time>2021-10-01T10:09:10Z</time>
      </trkpt>
      <trkpt lat="42.3411800" lon="-3.8946100">
        <ele>923.6</ele>
        <time>2021-10-01T10:09:19Z</time>
      </trkpt>
      <trkpt lat="42.3410970" lon="-3.8949510">
        <ele>923.8</ele>
        <time>2021-10-01T10:09:24Z</time>
      </trkpt>
      <trkpt lat="42.3410450" lon="-3.8951740">
        <ele>923.6</ele>
        <time>2021-10-01T10:09:27Z</time>
      </trkpt>
      <trkpt lat="42.3409880" lon="-3.8954420">
        <ele>923.4</ele>
        <time>2021-10-01T10:09:30Z</time>
      </trkpt>
      <trkpt lat="42.3409190" lon="-3.8958390">
        <ele>922.0</ele>
        <time>2021-10-01T10:09:34Z</time>
      </trkpt>
      <trkpt lat="42.3408900" lon="-3.8960250">
        <ele>920.2</ele>
        <time>2021-10-01T10:09:36Z</time>
      </trkpt>
      <trkpt lat="42.3408780" lon="-3.8961270">
        <ele>919.2</ele>
        <time>2021-10-01T10:09:37Z</time>
      </trkpt>
      <trkpt lat="42.3408740" lon="-3.8962410">
        <ele>917.8</ele>
        <time>2021-10-01T10:09:38Z</time>
      </trkpt>
      <trkpt lat="42.3408790" lon="-3.8963680">
        <ele>916.6</ele>
        <time>2021-10-01T10:09:39Z</time>
      </trkpt>
      <trkpt lat="42.3408910" lon="-3.8965060">
        <ele>915.2</ele>
        <time>2021-10-01T10:09:40Z</time>
      </trkpt>
      <trkpt lat="42.3409050" lon="-3.8966500">
        <ele>913.8</ele>
        <time>2021-10-01T10:09:41Z</time>
      </trkpt>
      <trkpt lat="42.3409210" lon="-3.8967990">
        <ele>912.4</ele>
        <time>2021-10-01T10:09:42Z</time>
      </trkpt>
      <trkpt lat="42.3409370" lon="-3.8969470">
        <ele>911.2</ele>
        <time>2021-10-01T10:09:43Z</time>
      </trkpt>
      <trkpt lat="42.3409520" lon="-3.8970930">
        <ele>910.0</ele>
        <time>2021-10-01T10:09:44Z</time>
      </trkpt>
      <trkpt lat="42.3409650" lon="-3.8972370">
        <ele>908.6</ele>
        <time>2021-10-01T10:09:45Z</time>
      </trkpt>
      <trkpt lat="42.3409750" lon="-3.8973760">
        <ele>906.8</ele>
        <time>2021-10-01T10:09:46Z</time>
      </trkpt>
      <trkpt lat="42.3409800" lon="-3.8975110">
        <ele>904.2</ele>
        <time>2021-10-01T10:09:47Z</time>
      </trkpt>
      <trkpt lat="42.3409800" lon="-3.8976430">
        <ele>902.0</ele>
        <time>2021-10-01T10:09:48Z</time>
      </trkpt>
      <trkpt lat="42.3409710" lon="-3.8977720">
        <ele>899.4</ele>
        <time>2021-10-01T10:09:49Z</time>
      </trkpt>
      <trkpt lat="42.3409530" lon="-3.8978970">
        <ele>896.8</ele>
        <time>2021-10-01T10:09:50Z</time>
      </trkpt>
      <trkpt lat="42.3409270" lon="-3.8980200">
        <ele>894.4</ele>
        <time>2021-10-01T10:09:51Z</time>
      </trkpt>
      <trkpt lat="42.3408950" lon="-3.8981400">
        <ele>892.6</ele>
        <time>2021-10-01T10:09:52Z</time>
      </trkpt>
      <trkpt lat="42.3408610" lon="-3.8982580">
        <ele>891.4</ele>
        <time>2021-10-01T10:09:53Z</time>
      </trkpt>
      <trkpt lat="42.3407620" lon="-3.8986060">
        <ele>890.2</ele>
        <time>2021-10-01T10:09:56Z</time>
      </trkpt>
      <trkpt lat="42.3407330" lon="-3.8987260">
        <ele>889.0</ele>
        <time>2021-10-01T10:09:57Z</time>
      </trkpt>
      <trkpt lat="42.3407100" lon="-3.8988560">
        <ele>886.0</ele>
        <time>2021-10-01T10:09:58Z</time>
      </trkpt>
      <trkpt lat="42.3406940" lon="-3.8990000">
        <ele>884.8</ele>
        <time>2021-10-01T10:09:59Z</time>
      </trkpt>
      <trkpt lat="42.3406790" lon="-3.8993200">
        <ele>882.6</ele>
        <time>2021-10-01T10:10:01Z</time>
      </trkpt>
      <trkpt lat="42.3406810" lon="-3.8994920">
        <ele>881.2</ele>
        <time>2021-10-01T10:10:02Z</time>
      </trkpt>
      <trkpt lat="42.3406890" lon="-3.8996690">
        <ele>879.8</ele>
        <time>2021-10-01T10:10:03Z</time>
      </trkpt>
      <trkpt lat="42.3406990" lon="-3.8998500">
        <ele>878.4</ele>
        <time>2021-10-01T10:10:04Z</time>
      </trkpt>
      <trkpt lat="42.3407080" lon="-3.9000320">
        <ele>876.6</ele>
        <time>2021-10-01T10:10:05Z</time>
      </trkpt>
      <trkpt lat="42.3407130" lon="-3.9002110">
        <ele>874.6</ele>
        <time>2021-10-01T10:10:06Z</time>
      </trkpt>
      <trkpt lat="42.3407150" lon="-3.9003850">
        <ele>872.6</ele>
        <time>2021-10-01T10:10:07Z</time>
      </trkpt>
      <trkpt lat="42.3407150" lon="-3.9005490">
        <ele>871.0</ele>
        <time>2021-10-01T10:10:08Z</time>
      </trkpt>
      <trkpt lat="42.3407130" lon="-3.9007020">
        <ele>869.0</ele>
        <time>2021-10-01T10:10:09Z</time>
      </trkpt>
      <trkpt lat="42.3407100" lon="-3.9008440">
        <ele>866.8</ele>
        <time>2021-10-01T10:10:10Z</time>
      </trkpt>
      <trkpt lat="42.3407070" lon="-3.9009800">
        <ele>864.6</ele>
        <time>2021-10-01T10:10:11Z</time>
      </trkpt>
      <trkpt lat="42.3407040" lon="-3.9011110">
        <ele>862.4</ele>
        <time>2021-10-01T10:10:12Z</time>
      </trkpt>
      <trkpt lat="42.3407000" lon="-3.9012360">
        <ele>860.4</ele>
        <time>2021-10-01T10:10:13Z</time>
      </trkpt>
      <trkpt lat="42.3406980" lon="-3.9013550">
        <ele>859.0</ele>
        <time>2021-10-01T10:10:14Z</time>
      </trkpt>
      <trkpt lat="42.3406960" lon="-3.9015860">
        <ele>857.6</ele>
        <time>2021-10-01T10:10:16Z</time>
      </trkpt>
      <trkpt lat="42.3406930" lon="-3.9018180">
        <ele>856.8</ele>
        <time>2021-10-01T10:10:18Z</time>
      </trkpt>
      <trkpt lat="42.3406960" lon="-3.9020550">
        <ele>856.6</ele>
        <time>2021-10-01T10:10:20Z</time>
      </trkpt>
      <trkpt lat="42.3407020" lon="-3.9021740">
        <ele>856.4</ele>
        <time>2021-10-01T10:10:21Z</time>
      </trkpt>
      <trkpt lat="42.3407310" lon="-3.9028050">
        <ele>855.2</ele>
        <time>2021-10-01T10:10:26Z</time>
      </trkpt>
      <trkpt lat="42.3407420" lon="-3.9032120">
        <ele>853.8</ele>
        <time>2021-10-01T10:10:29Z</time>
      </trkpt>
      <trkpt lat="42.3407420" lon="-3.9036430">
        <ele>852.4</ele>
        <time>2021-10-01T10:10:32Z</time>
      </trkpt>
      <trkpt lat="42.3407400" lon="-3.9037930">
        <ele>851.0</ele>
        <time>2021-10-01T10:10:33Z</time>
      </trkpt>
      <trkpt lat="42.3407240" lon="-3.9040940">
        <ele>849.4</ele>
        <time>2021-10-01T10:10:35Z</time>
      </trkpt>
      <trkpt lat="42.3406930" lon="-3.9043850">
        <ele>848.0</ele>
        <time>2021-10-01T10:10:37Z</time>
      </trkpt>
      <trkpt lat="42.3406530" lon="-3.9046660">
        <ele>846.0</ele>
        <time>2021-10-01T10:10:39Z</time>
      </trkpt>
      <trkpt lat="42.3406330" lon="-3.9048030">
        <ele>844.8</ele>
        <time>2021-10-01T10:10:40Z</time>
      </trkpt>
      <trkpt lat="42.3406170" lon="-3.9049390">
        <ele>843.6</ele>
        <time>2021-10-01T10:10:41Z</time>
      </trkpt>
      <trkpt lat="42.3406020" lon="-3.9050720">
        <ele>842.4</ele>
        <time>2021-10-01T10:10:42Z</time>
      </trkpt>
      <trkpt lat="42.3405840" lon="-3.9053270">
        <ele>841.0</ele>
        <time>2021-10-01T10:10:44Z</time>
      </trkpt>
      <trkpt lat="42.3405770" lon="-3.9055580">
        <ele>840.6</ele>
        <time>2021-10-01T10:10:46Z</time>
      </trkpt>
      <trkpt lat="42.3405810" lon="-3.9057660">
        <ele>840.6</ele>
        <time>2021-10-01T10:10:48Z</time>
      </trkpt>
      <trkpt lat="42.3406110" lon="-3.9060860">
        <ele>840.4</ele>
        <time>2021-10-01T10:10:52Z</time>
      </trkpt>
      <trkpt lat="42.3406130" lon="-3.9061580">
        <ele>840.6</ele>
        <time>2021-10-01T10:10:53Z</time>
      </trkpt>
      <trkpt lat="42.3406240" lon="-3.9063090">
        <ele>840.6</ele>
        <time>2021-10-01T10:10:55Z</time>
      </trkpt>
      <trkpt lat="42.3406400" lon="-3.9063870">
        <ele>840.8</ele>
        <time>2021-10-01T10:10:56Z</time>
      </trkpt>
      <trkpt lat="42.3406590" lon="-3.9064700">
        <ele>840.8</ele>
        <time>2021-10-01T10:10:57Z</time>
      </trkpt>
      <trkpt lat="42.3406760" lon="-3.9065590">
        <ele>840.8</ele>
        <time>2021-10-01T10:10:58Z</time>
      </trkpt>
      <trkpt lat="42.3407090" lon="-3.9067460">
        <ele>840.8</ele>
        <time>2021-10-01T10:11:00Z</time>
      </trkpt>
      <trkpt lat="42.3407360" lon="-3.9069440">
        <ele>840.8</ele>
        <time>2021-10-01T10:11:02Z</time>
      </trkpt>
      <trkpt lat="42.3407530" lon="-3.9072430">
        <ele>840.6</ele>
        <time>2021-10-01T10:11:05Z</time>
      </trkpt>
      <trkpt lat="42.3407470" lon="-3.9074400">
        <ele>839.4</ele>
        <time>2021-10-01T10:11:07Z</time>
      </trkpt>
      <trkpt lat="42.3407270" lon="-3.9078380">
        <ele>838.2</ele>
        <time>2021-10-01T10:11:11Z</time>
      </trkpt>
      <trkpt lat="42.3407150" lon="-3.9081360">
        <ele>837.4</ele>
        <time>2021-10-01T10:11:14Z</time>
      </trkpt>
      <trkpt lat="42.3407170" lon="-3.9082340">
        <ele>837.0</ele>
        <time>2021-10-01T10:11:15Z</time>
      </trkpt>
      <trkpt lat="42.3407250" lon="-3.9088140">
        <ele>836.0</ele>
        <time>2021-10-01T10:11:21Z</time>
      </trkpt>
      <trkpt lat="42.3407420" lon="-3.9091210">
        <ele>835.8</ele>
        <time>2021-10-01T10:11:24Z</time>
      </trkpt>
      <trkpt lat="42.3407480" lon="-3.9093370">
        <ele>835.8</ele>
        <time>2021-10-01T10:11:26Z</time>
      </trkpt>
      <trkpt lat="42.3407350" lon="-3.9095570">
        <ele>835.8</ele>
        <time>2021-10-01T10:11:28Z</time>
      </trkpt>
      <trkpt lat="42.3407160" lon="-3.9098870">
        <ele>835.4</ele>
        <time>2021-10-01T10:11:31Z</time>
      </trkpt>
      <trkpt lat="42.3407090" lon="-3.9101070">
        <ele>834.8</ele>
        <time>2021-10-01T10:11:33Z</time>
      </trkpt>
      <trkpt lat="42.3406940" lon="-3.9107510">
        <ele>833.8</ele>
        <time>2021-10-01T10:11:39Z</time>
      </trkpt>
      <trkpt lat="42.3406880" lon="-3.9111680">
        <ele>832.6</ele>
        <time>2021-10-01T10:11:43Z</time>
      </trkpt>
      <trkpt lat="42.3406630" lon="-3.9119940">
        <ele>831.8</ele>
        <time>2021-10-01T10:11:51Z</time>
      </trkpt>
      <trkpt lat="42.3406460" lon="-3.9127850">
        <ele>832.0</ele>
        <time>2021-10-01T10:11:59Z</time>
      </trkpt>
      <trkpt lat="42.3406130" lon="-3.9135510">
        <ele>831.8</ele>
        <time>2021-10-01T10:12:07Z</time>
      </trkpt>
      <trkpt lat="42.3405480" lon="-3.9143120">
        <ele>831.6</ele>
        <time>2021-10-01T10:12:15Z</time>
      </trkpt>
      <trkpt lat="42.3404810" lon="-3.9148730">
        <ele>831.4</ele>
        <time>2021-10-01T10:12:21Z</time>
      </trkpt>
      <trkpt lat="42.3404360" lon="-3.9152490">
        <ele>830.8</ele>
        <time>2021-10-01T10:12:25Z</time>
      </trkpt>
      <trkpt lat="42.3403720" lon="-3.9158070">
        <ele>830.4</ele>
        <time>2021-10-01T10:12:31Z</time>
      </trkpt>
      <trkpt lat="42.3403560" lon="-3.9158990">
        <ele>830.2</ele>
        <time>2021-10-01T10:12:32Z</time>
      </trkpt>
      <trkpt lat="42.3403080" lon="-3.9164490">
        <ele>829.8</ele>
        <time>2021-10-01T10:12:38Z</time>
      </trkpt>
      <trkpt lat="42.3402890" lon="-3.9166920">
        <ele>829.4</ele>
        <time>2021-10-01T10:12:41Z</time>
      </trkpt>
      <trkpt lat="42.3402800" lon="-3.9167670">
        <ele>829.2</ele>
        <time>2021-10-01T10:12:42Z</time>
      </trkpt>
      <trkpt lat="42.3402620" lon="-3.9169030">
        <ele>829.0</ele>
        <time>2021-10-01T10:12:44Z</time>
      </trkpt>
      <trkpt lat="42.3402050" lon="-3.9174200">
        <ele>828.6</ele>
        <time>2021-10-01T10:12:51Z</time>
      </trkpt>
      <trkpt lat="42.3401850" lon="-3.9176270">
        <ele>828.4</ele>
        <time>2021-10-01T10:12:53Z</time>
      </trkpt>
      <trkpt lat="42.3401750" lon="-3.9177350">
        <ele>828.2</ele>
        <time>2021-10-01T10:12:54Z</time>
      </trkpt>
      <trkpt lat="42.3401530" lon="-3.9179480">
        <ele>827.2</ele>
        <time>2021-10-01T10:12:56Z</time>
      </trkpt>
      <trkpt lat="42.3401320" lon="-3.9181540">
        <ele>826.2</ele>
        <time>2021-10-01T10:12:58Z</time>
      </trkpt>
      <trkpt lat="42.3401100" lon="-3.9183520">
        <ele>824.6</ele>
        <time>2021-10-01T10:13:00Z</time>
      </trkpt>
      <trkpt lat="42.3400730" lon="-3.9187160">
        <ele>823.8</ele>
        <time>2021-10-01T10:13:04Z</time>
      </trkpt>
      <trkpt lat="42.3400590" lon="-3.9188810">
        <ele>823.8</ele>
        <time>2021-10-01T10:13:06Z</time>
      </trkpt>
      <trkpt lat="42.3400440" lon="-3.9190360">
        <ele>823.8</ele>
        <time>2021-10-01T10:13:08Z</time>
      </trkpt>
      <trkpt lat="42.3400180" lon="-3.9191830">
        <ele>823.8</ele>
        <time>2021-10-01T10:13:10Z</time>
      </trkpt>
      <trkpt lat="42.3399120" lon="-3.9194650">
        <ele>823.8</ele>
        <time>2021-10-01T10:13:14Z</time>
      </trkpt>
      <trkpt lat="42.3398540" lon="-3.9197060">
        <ele>823.6</ele>
        <time>2021-10-01T10:13:17Z</time>
      </trkpt>
      <trkpt lat="42.3397910" lon="-3.9199490">
        <ele>823.2</ele>
        <time>2021-10-01T10:13:20Z</time>
      </trkpt>
      <trkpt lat="42.3397410" lon="-3.9201160">
        <ele>822.6</ele>
        <time>2021-10-01T10:13:22Z</time>
      </trkpt>
      <trkpt lat="42.3396480" lon="-3.9203730">
        <ele>821.6</ele>
        <time>2021-10-01T10:13:25Z</time>
      </trkpt>
      <trkpt lat="42.3395410" lon="-3.9206250">
        <ele>821.4</ele>
        <time>2021-10-01T10:13:28Z</time>
      </trkpt>
      <trkpt lat="42.3395020" lon="-3.9207030">
        <ele>821.4</ele>
        <time>2021-10-01T10:13:29Z</time>
      </trkpt>
      <trkpt lat="42.3391420" lon="-3.9213420">
        <ele>821.0</ele>
        <time>2021-10-01T10:13:38Z</time>
      </trkpt>
      <trkpt lat="42.3390530" lon="-3.9215620">
        <ele>821.2</ele>
        <time>2021-10-01T10:13:41Z</time>
      </trkpt>
      <trkpt lat="42.3388210" lon="-3.9222230">
        <ele>821.4</ele>
        <time>2021-10-01T10:13:50Z</time>
      </trkpt>
      <trkpt lat="42.3387190" lon="-3.9229990">
        <ele>822.2</ele>
        <time>2021-10-01T10:14:00Z</time>
      </trkpt>
      <trkpt lat="42.3386460" lon="-3.9234300">
        <ele>822.0</ele>
        <time>2021-10-01T10:14:06Z</time>
      </trkpt>
      <trkpt lat="42.3386080" lon="-3.9236390">
        <ele>822.4</ele>
        <time>2021-10-01T10:14:09Z</time>
      </trkpt>
      <trkpt lat="42.3385860" lon="-3.9237740">
        <ele>822.4</ele>
        <time>2021-10-01T10:14:11Z</time>
      </trkpt>
      <trkpt lat="42.3385790" lon="-3.9238400">
        <ele>822.4</ele>
        <time>2021-10-01T10:14:12Z</time>
      </trkpt>
      <trkpt lat="42.3385780" lon="-3.9239050">
        <ele>822.6</ele>
        <time>2021-10-01T10:14:13Z</time>
      </trkpt>
      <trkpt lat="42.3385670" lon="-3.9240300">
        <ele>822.6</ele>
        <time>2021-10-01T10:14:15Z</time>
      </trkpt>
      <trkpt lat="42.3385410" lon="-3.9241490">
        <ele>822.6</ele>
        <time>2021-10-01T10:14:17Z</time>
      </trkpt>
      <trkpt lat="42.3384910" lon="-3.9243280">
        <ele>822.6</ele>
        <time>2021-10-01T10:14:20Z</time>
      </trkpt>
      <trkpt lat="42.3384120" lon="-3.9245090">
        <ele>822.6</ele>
        <time>2021-10-01T10:14:23Z</time>
      </trkpt>
      <trkpt lat="42.3383800" lon="-3.9245650">
        <ele>822.6</ele>
        <time>2021-10-01T10:14:24Z</time>
      </trkpt>
      <trkpt lat="42.3383040" lon="-3.9250020">
        <ele>822.8</ele>
        <time>2021-10-01T10:14:31Z</time>
      </trkpt>
      <trkpt lat="42.3383520" lon="-3.9253120">
        <ele>823.0</ele>
        <time>2021-10-01T10:14:36Z</time>
      </trkpt>
      <trkpt lat="42.3384050" lon="-3.9256110">
        <ele>823.6</ele>
        <time>2021-10-01T10:14:41Z</time>
      </trkpt>
      <trkpt lat="42.3384430" lon="-3.9258050">
        <ele>824.6</ele>
        <time>2021-10-01T10:14:44Z</time>
      </trkpt>
      <trkpt lat="42.3384590" lon="-3.9258710">
        <ele>824.6</ele>
        <time>2021-10-01T10:14:45Z</time>
      </trkpt>
      <trkpt lat="42.3385160" lon="-3.9261540">
        <ele>825.0</ele>
        <time>2021-10-01T10:14:49Z</time>
      </trkpt>
      <trkpt lat="42.3386340" lon="-3.9266520">
        <ele>826.0</ele>
        <time>2021-10-01T10:14:57Z</time>
      </trkpt>
      <trkpt lat="42.3386630" lon="-3.9268090">
        <ele>826.4</ele>
        <time>2021-10-01T10:15:00Z</time>
      </trkpt>
      <trkpt lat="42.3386210" lon="-3.9271730">
        <ele>827.0</ele>
        <time>2021-10-01T10:15:06Z</time>
      </trkpt>
      <trkpt lat="42.3385280" lon="-3.9274940">
        <ele>827.6</ele>
        <time>2021-10-01T10:15:11Z</time>
      </trkpt>
      <trkpt lat="42.3384720" lon="-3.9276920">
        <ele>827.8</ele>
        <time>2021-10-01T10:15:14Z</time>
      </trkpt>
      <trkpt lat="42.3384310" lon="-3.9278150">
        <ele>828.0</ele>
        <time>2021-10-01T10:15:16Z</time>
      </trkpt>
      <trkpt lat="42.3382980" lon="-3.9281510">
        <ele>828.6</ele>
        <time>2021-10-01T10:15:22Z</time>
      </trkpt>
      <trkpt lat="42.3382490" lon="-3.9282620">
        <ele>829.2</ele>
        <time>2021-10-01T10:15:24Z</time>
      </trkpt>
      <trkpt lat="42.3381140" lon="-3.9285970">
        <ele>830.2</ele>
        <time>2021-10-01T10:15:30Z</time>
      </trkpt>
      <trkpt lat="42.3380160" lon="-3.9288800">
        <ele>830.6</ele>
        <time>2021-10-01T10:15:35Z</time>
      </trkpt>
      <trkpt lat="42.3379340" lon="-3.9291560">
        <ele>831.0</ele>
        <time>2021-10-01T10:15:40Z</time>
      </trkpt>
      <trkpt lat="42.3378460" lon="-3.9293620">
        <ele>831.4</ele>
        <time>2021-10-01T10:15:44Z</time>
      </trkpt>
      <trkpt lat="42.3376280" lon="-3.9299810">
        <ele>832.0</ele>
        <time>2021-10-01T10:15:55Z</time>
      </trkpt>
      <trkpt lat="42.3376320" lon="-3.9302250">
        <ele>832.2</ele>
        <time>2021-10-01T10:15:59Z</time>
      </trkpt>
      <trkpt lat="42.3376700" lon="-3.9304130">
        <ele>832.4</ele>
        <time>2021-10-01T10:16:02Z</time>
      </trkpt>
      <trkpt lat="42.3377450" lon="-3.9308130">
        <ele>833.4</ele>
        <time>2021-10-01T10:16:08Z</time>
      </trkpt>
      <trkpt lat="42.3378610" lon="-3.9315330">
        <ele>834.4</ele>
        <time>2021-10-01T10:16:19Z</time>
      </trkpt>
      <trkpt lat="42.3378920" lon="-3.9317710">
        <ele>835.0</ele>
        <time>2021-10-01T10:16:23Z</time>
      </trkpt>
      <trkpt lat="42.3379090" lon="-3.9320150">
        <ele>835.6</ele>
        <time>2021-10-01T10:16:27Z</time>
      </trkpt>
      <trkpt lat="42.3379590" lon="-3.9327440">
        <ele>836.4</ele>
        <time>2021-10-01T10:16:39Z</time>
      </trkpt>
      <trkpt lat="42.3379650" lon="-3.9328670">
        <ele>836.6</ele>
        <time>2021-10-01T10:16:41Z</time>
      </trkpt>
      <trkpt lat="42.3379650" lon="-3.9329290">
        <ele>836.6</ele>
        <time>2021-10-01T10:16:42Z</time>
      </trkpt>
      <trkpt lat="42.3379260" lon="-3.9333060">
        <ele>837.6</ele>
        <time>2021-10-01T10:16:48Z</time>
      </trkpt>
      <trkpt lat="42.3377130" lon="-3.9340000">
        <ele>837.8</ele>
        <time>2021-10-01T10:17:00Z</time>
      </trkpt>
      <trkpt lat="42.3375560" lon="-3.9343960">
        <ele>837.8</ele>
        <time>2021-10-01T10:17:07Z</time>
      </trkpt>
      <trkpt lat="42.3373860" lon="-3.9349360">
        <ele>837.6</ele>
        <time>2021-10-01T10:17:16Z</time>
      </trkpt>
      <trkpt lat="42.3372120" lon="-3.9356790">
        <ele>838.0</ele>
        <time>2021-10-01T10:17:28Z</time>
      </trkpt>
      <trkpt lat="42.3370850" lon="-3.9363120">
        <ele>838.8</ele>
        <time>2021-10-01T10:17:38Z</time>
      </trkpt>
      <trkpt lat="42.3370370" lon="-3.9367200">
        <ele>839.8</ele>
        <time>2021-10-01T10:17:45Z</time>
      </trkpt>
      <trkpt lat="42.3370150" lon="-3.9369680">
        <ele>841.0</ele>
        <time>2021-10-01T10:17:49Z</time>
      </trkpt>
      <trkpt lat="42.3369900" lon="-3.9371460">
        <ele>841.8</ele>
        <time>2021-10-01T10:17:52Z</time>
      </trkpt>
      <trkpt lat="42.3369550" lon="-3.9372560">
        <ele>842.0</ele>
        <time>2021-10-01T10:17:54Z</time>
      </trkpt>
      <trkpt lat="42.3369050" lon="-3.9373570">
        <ele>842.2</ele>
        <time>2021-10-01T10:17:56Z</time>
      </trkpt>
      <trkpt lat="42.3368770" lon="-3.9374060">
        <ele>842.4</ele>
        <time>2021-10-01T10:17:57Z</time>
      </trkpt>
      <trkpt lat="42.3368250" lon="-3.9375010">
        <ele>842.4</ele>
        <time>2021-10-01T10:17:59Z</time>
      </trkpt>
      <trkpt lat="42.3367790" lon="-3.9376650">
        <ele>843.2</ele>
        <time>2021-10-01T10:18:02Z</time>
      </trkpt>
      <trkpt lat="42.3367480" lon="-3.9377730">
        <ele>843.6</ele>
        <time>2021-10-01T10:18:04Z</time>
      </trkpt>
      <trkpt lat="42.3366740" lon="-3.9379840">
        <ele>844.2</ele>
        <time>2021-10-01T10:18:08Z</time>
      </trkpt>
      <trkpt lat="42.3365090" lon="-3.9384020">
        <ele>845.2</ele>
        <time>2021-10-01T10:18:17Z</time>
      </trkpt>
      <trkpt lat="42.3363560" lon="-3.9387810">
        <ele>846.4</ele>
        <time>2021-10-01T10:18:26Z</time>
      </trkpt>
      <trkpt lat="42.3362630" lon="-3.9391570">
        <ele>847.6</ele>
        <time>2021-10-01T10:18:34Z</time>
      </trkpt>
      <trkpt lat="42.3361470" lon="-3.9396490">
        <ele>848.6</ele>
        <time>2021-10-01T10:18:44Z</time>
      </trkpt>
      <trkpt lat="42.3360650" lon="-3.9399990">
        <ele>849.2</ele>
        <time>2021-10-01T10:18:51Z</time>
      </trkpt>
      <trkpt lat="42.3359680" lon="-3.9404730">
        <ele>849.8</ele>
        <time>2021-10-01T10:19:00Z</time>
      </trkpt>
      <trkpt lat="42.3358420" lon="-3.9412210">
        <ele>850.8</ele>
        <time>2021-10-01T10:19:14Z</time>
      </trkpt>
      <trkpt lat="42.3358210" lon="-3.9413230">
        <ele>851.0</ele>
        <time>2021-10-01T10:19:16Z</time>
      </trkpt>
      <trkpt lat="42.3357020" lon="-3.9418160">
        <ele>852.0</ele>
        <time>2021-10-01T10:19:26Z</time>
      </trkpt>
      <trkpt lat="42.3355790" lon="-3.9422500">
        <ele>853.2</ele>
        <time>2021-10-01T10:19:35Z</time>
      </trkpt>
      <trkpt lat="42.3354880" lon="-3.9426430">
        <ele>854.2</ele>
        <time>2021-10-01T10:19:43Z</time>
      </trkpt>
      <trkpt lat="42.3353940" lon="-3.9430080">
        <ele>855.2</ele>
        <time>2021-10-01T10:19:51Z</time>
      </trkpt>
      <trkpt lat="42.3353280" lon="-3.9431630">
        <ele>855.8</ele>
        <time>2021-10-01T10:19:55Z</time>
      </trkpt>
      <trkpt lat="42.3352710" lon="-3.9432740">
        <ele>856.2</ele>
        <time>2021-10-01T10:19:58Z</time>
      </trkpt>
      <trkpt lat="42.3352140" lon="-3.9433810">
        <ele>856.8</ele>
        <time>2021-10-01T10:20:01Z</time>
      </trkpt>
      <trkpt lat="42.3351510" lon="-3.9434820">
        <ele>857.4</ele>
        <time>2021-10-01T10:20:04Z</time>
      </trkpt>
      <trkpt lat="42.3350680" lon="-3.9436110">
        <ele>858.8</ele>
        <time>2021-10-01T10:20:08Z</time>
      </trkpt>
      <trkpt lat="42.3349420" lon="-3.9438310">
        <ele>859.8</ele>
        <time>2021-10-01T10:20:14Z</time>
      </trkpt>
      <trkpt lat="42.3346520" lon="-3.9442730">
        <ele>860.8</ele>
        <time>2021-10-01T10:20:26Z</time>
      </trkpt>
      <trkpt lat="42.3346260" lon="-3.9443170">
        <ele>860.8</ele>
        <time>2021-10-01T10:20:27Z</time>
      </trkpt>
      <trkpt lat="42.3345360" lon="-3.9444510">
        <ele>860.8</ele>
        <time>2021-10-01T10:20:30Z</time>
      </trkpt>
      <trkpt lat="42.3343540" lon="-3.9447520">
        <ele>860.2</ele>
        <time>2021-10-01T10:20:36Z</time>
      </trkpt>
      <trkpt lat="42.3342230" lon="-3.9451040">
        <ele>859.6</ele>
        <time>2021-10-01T10:20:42Z</time>
      </trkpt>
      <trkpt lat="42.3340160" lon="-3.9457700">
        <ele>860.0</ele>
        <time>2021-10-01T10:20:54Z</time>
      </trkpt>
      <trkpt lat="42.3339580" lon="-3.9460460">
        <ele>860.2</ele>
        <time>2021-10-01T10:20:59Z</time>
      </trkpt>
      <trkpt lat="42.3338960" lon="-3.9462560">
        <ele>860.8</ele>
        <time>2021-10-01T10:21:03Z</time>
      </trkpt>
      <trkpt lat="42.3337980" lon="-3.9465010">
        <ele>862.0</ele>
        <time>2021-10-01T10:21:08Z</time>
      </trkpt>
      <trkpt lat="42.3337230" lon="-3.9467500">
        <ele>863.2</ele>
        <time>2021-10-01T10:21:13Z</time>
      </trkpt>
      <trkpt lat="42.3336390" lon="-3.9470430">
        <ele>864.2</ele>
        <time>2021-10-01T10:21:19Z</time>
      </trkpt>
      <trkpt lat="42.3335320" lon="-3.9473280">
        <ele>865.4</ele>
        <time>2021-10-01T10:21:26Z</time>
      </trkpt>
      <trkpt lat="42.3334470" lon="-3.9475760">
        <ele>866.8</ele>
        <time>2021-10-01T10:21:32Z</time>
      </trkpt>
      <trkpt lat="42.3334070" lon="-3.9477450">
        <ele>867.8</ele>
        <time>2021-10-01T10:21:36Z</time>
      </trkpt>
      <trkpt lat="42.3333320" lon="-3.9479580">
        <ele>868.8</ele>
        <time>2021-10-01T10:21:41Z</time>
      </trkpt>
      <trkpt lat="42.3331260" lon="-3.9484480">
        <ele>869.8</ele>
        <time>2021-10-01T10:21:52Z</time>
      </trkpt>
      <trkpt lat="42.3328300" lon="-3.9490580">
        <ele>869.8</ele>
        <time>2021-10-01T10:22:07Z</time>
      </trkpt>
      <trkpt lat="42.3327280" lon="-3.9492390">
        <ele>870.2</ele>
        <time>2021-10-01T10:22:12Z</time>
      </trkpt>
      <trkpt lat="42.3326140" lon="-3.9494470">
        <ele>871.2</ele>
        <time>2021-10-01T10:22:18Z</time>
      </trkpt>
      <trkpt lat="42.3324560" lon="-3.9497140">
        <ele>872.0</ele>
        <time>2021-10-01T10:22:25Z</time>
      </trkpt>
      <trkpt lat="42.3323270" lon="-3.9499740">
        <ele>872.2</ele>
        <time>2021-10-01T10:22:31Z</time>
      </trkpt>
      <trkpt lat="42.3322920" lon="-3.9500700">
        <ele>872.2</ele>
        <time>2021-10-01T10:22:33Z</time>
      </trkpt>
      <trkpt lat="42.3323160" lon="-3.9505610">
        <ele>873.0</ele>
        <time>2021-10-01T10:22:43Z</time>
      </trkpt>
      <trkpt lat="42.3323010" lon="-3.9507500">
        <ele>873.2</ele>
        <time>2021-10-01T10:22:47Z</time>
      </trkpt>
      <trkpt lat="42.3319130" lon="-3.9512460">
        <ele>874.4</ele>
        <time>2021-10-01T10:23:02Z</time>
      </trkpt>
      <trkpt lat="42.3315990" lon="-3.9516250">
        <ele>875.6</ele>
        <time>2021-10-01T10:23:14Z</time>
      </trkpt>
      <trkpt lat="42.3313920" lon="-3.9519370">
        <ele>876.6</ele>
        <time>2021-10-01T10:23:23Z</time>
      </trkpt>
      <trkpt lat="42.3311560" lon="-3.9523300">
        <ele>877.6</ele>
        <time>2021-10-01T10:23:34Z</time>
      </trkpt>
      <trkpt lat="42.3310490" lon="-3.9525590">
        <ele>878.6</ele>
        <time>2021-10-01T10:23:40Z</time>
      </trkpt>
      <trkpt lat="42.3309960" lon="-3.9526660">
        <ele>879.2</ele>
        <time>2021-10-01T10:23:43Z</time>
      </trkpt>
      <trkpt lat="42.3309180" lon="-3.9528080">
        <ele>879.4</ele>
        <time>2021-10-01T10:23:47Z</time>
      </trkpt>
      <trkpt lat="42.3308090" lon="-3.9529870">
        <ele>880.0</ele>
        <time>2021-10-01T10:23:52Z</time>
      </trkpt>
      <trkpt lat="42.3306830" lon="-3.9531840">
        <ele>881.0</ele>
        <time>2021-10-01T10:23:57Z</time>
      </trkpt>
      <trkpt lat="42.3303330" lon="-3.9537570">
        <ele>882.0</ele>
        <time>2021-10-01T10:24:10Z</time>
      </trkpt>
      <trkpt lat="42.3302780" lon="-3.9538410">
        <ele>882.2</ele>
        <time>2021-10-01T10:24:12Z</time>
      </trkpt>
      <trkpt lat="42.3300740" lon="-3.9541160">
        <ele>883.2</ele>
        <time>2021-10-01T10:24:19Z</time>
      </trkpt>
      <trkpt lat="42.3299160" lon="-3.9543610">
        <ele>884.2</ele>
        <time>2021-10-01T10:24:25Z</time>
      </trkpt>
      <trkpt lat="42.3297070" lon="-3.9547740">
        <ele>884.4</ele>
        <time>2021-10-01T10:24:33Z</time>
      </trkpt>
      <trkpt lat="42.3294810" lon="-3.9551850">
        <ele>885.4</ele>
        <time>2021-10-01T10:24:41Z</time>
      </trkpt>
      <trkpt lat="42.3293230" lon="-3.9554820">
        <ele>886.4</ele>
        <time>2021-10-01T10:24:47Z</time>
      </trkpt>
      <trkpt lat="42.3291290" lon="-3.9558610">
        <ele>887.8</ele>
        <time>2021-10-01T10:24:55Z</time>
      </trkpt>
      <trkpt lat="42.3289590" lon="-3.9562460">
        <ele>889.0</ele>
        <time>2021-10-01T10:25:03Z</time>
      </trkpt>
      <trkpt lat="42.3288760" lon="-3.9564410">
        <ele>890.0</ele>
        <time>2021-10-01T10:25:07Z</time>
      </trkpt>
      <trkpt lat="42.3287680" lon="-3.9567060">
        <ele>891.2</ele>
        <time>2021-10-01T10:25:13Z</time>
      </trkpt>
      <trkpt lat="42.3287160" lon="-3.9568400">
        <ele>892.2</ele>
        <time>2021-10-01T10:25:16Z</time>
      </trkpt>
      <trkpt lat="42.3286840" lon="-3.9569300">
        <ele>893.4</ele>
        <time>2021-10-01T10:25:18Z</time>
      </trkpt>
      <trkpt lat="42.3286270" lon="-3.9571050">
        <ele>894.4</ele>
        <time>2021-10-01T10:25:22Z</time>
      </trkpt>
      <trkpt lat="42.3285710" lon="-3.9573210">
        <ele>895.6</ele>
        <time>2021-10-01T10:25:27Z</time>
      </trkpt>
      <trkpt lat="42.3285200" lon="-3.9575580">
        <ele>896.8</ele>
        <time>2021-10-01T10:25:33Z</time>
      </trkpt>
      <trkpt lat="42.3284730" lon="-3.9577480">
        <ele>898.0</ele>
        <time>2021-10-01T10:25:38Z</time>
      </trkpt>
      <trkpt lat="42.3284220" lon="-3.9579450">
        <ele>899.0</ele>
        <time>2021-10-01T10:25:43Z</time>
      </trkpt>
      <trkpt lat="42.3283690" lon="-3.9581520">
        <ele>900.2</ele>
        <time>2021-10-01T10:25:48Z</time>
      </trkpt>
      <trkpt lat="42.3282850" lon="-3.9585450">
        <ele>901.4</ele>
        <time>2021-10-01T10:25:58Z</time>
      </trkpt>
      <trkpt lat="42.3282670" lon="-3.9586860">
        <ele>902.6</ele>
        <time>2021-10-01T10:26:02Z</time>
      </trkpt>
      <trkpt lat="42.3282770" lon="-3.9588220">
        <ele>903.6</ele>
        <time>2021-10-01T10:26:06Z</time>
      </trkpt>
      <trkpt lat="42.3282720" lon="-3.9590290">
        <ele>904.8</ele>
        <time>2021-10-01T10:26:12Z</time>
      </trkpt>
      <trkpt lat="42.3282650" lon="-3.9591330">
        <ele>906.0</ele>
        <time>2021-10-01T10:26:15Z</time>
      </trkpt>
      <trkpt lat="42.3282450" lon="-3.9593380">
        <ele>907.2</ele>
        <time>2021-10-01T10:26:21Z</time>
      </trkpt>
      <trkpt lat="42.3282420" lon="-3.9595730">
        <ele>908.4</ele>
        <time>2021-10-01T10:26:28Z</time>
      </trkpt>
      <trkpt lat="42.3282650" lon="-3.9597500">
        <ele>909.6</ele>
        <time>2021-10-01T10:26:33Z</time>
      </trkpt>
      <trkpt lat="42.3282780" lon="-3.9599060">
        <ele>911.0</ele>
        <time>2021-10-01T10:26:37Z</time>
      </trkpt>
      <trkpt lat="42.3283060" lon="-3.9601430">
        <ele>912.2</ele>
        <time>2021-10-01T10:26:43Z</time>
      </trkpt>
      <trkpt lat="42.3283560" lon="-3.9604890">
        <ele>913.6</ele>
        <time>2021-10-01T10:26:52Z</time>
      </trkpt>
      <trkpt lat="42.3283970" lon="-3.9606640">
        <ele>914.6</ele>
        <time>2021-10-01T10:26:57Z</time>
      </trkpt>
      <trkpt lat="42.3284170" lon="-3.9608090">
        <ele>915.6</ele>
        <time>2021-10-01T10:27:01Z</time>
      </trkpt>
      <trkpt lat="42.3284330" lon="-3.9609550">
        <ele>916.6</ele>
        <time>2021-10-01T10:27:05Z</time>
      </trkpt>
      <trkpt lat="42.3284600" lon="-3.9612230">
        <ele>917.8</ele>
        <time>2021-10-01T10:27:12Z</time>
      </trkpt>
      <trkpt lat="42.3284910" lon="-3.9614930">
        <ele>919.0</ele>
        <time>2021-10-01T10:27:19Z</time>
      </trkpt>
      <trkpt lat="42.3285320" lon="-3.9617180">
        <ele>920.0</ele>
        <time>2021-10-01T10:27:25Z</time>
      </trkpt>
      <trkpt lat="42.3285710" lon="-3.9619180">
        <ele>921.2</ele>
        <time>2021-10-01T10:27:31Z</time>
      </trkpt>
      <trkpt lat="42.3285960" lon="-3.9621100">
        <ele>922.4</ele>
        <time>2021-10-01T10:27:37Z</time>
      </trkpt>
      <trkpt lat="42.3286040" lon="-3.9622350">
        <ele>923.4</ele>
        <time>2021-10-01T10:27:41Z</time>
      </trkpt>
      <trkpt lat="42.3286070" lon="-3.9623570">
        <ele>924.4</ele>
        <time>2021-10-01T10:27:45Z</time>
      </trkpt>
      <trkpt lat="42.3286050" lon="-3.9624810">
        <ele>925.6</ele>
        <time>2021-10-01T10:27:49Z</time>
      </trkpt>
      <trkpt lat="42.3285940" lon="-3.9627300">
        <ele>926.8</ele>
        <time>2021-10-01T10:27:56Z</time>
      </trkpt>
      <trkpt lat="42.3285690" lon="-3.9628600">
        <ele>927.8</ele>
        <time>2021-10-01T10:28:00Z</time>
      </trkpt>
      <trkpt lat="42.3285720" lon="-3.9629650">
        <ele>929.2</ele>
        <time>2021-10-01T10:28:03Z</time>
      </trkpt>
      <trkpt lat="42.3285810" lon="-3.9630800">
        <ele>930.2</ele>
        <time>2021-10-01T10:28:06Z</time>
      </trkpt>
      <trkpt lat="42.3286040" lon="-3.9631990">
        <ele>931.6</ele>
        <time>2021-10-01T10:28:09Z</time>
      </trkpt>
      <trkpt lat="42.3286220" lon="-3.9633050">
        <ele>932.6</ele>
        <time>2021-10-01T10:28:12Z</time>
      </trkpt>
      <trkpt lat="42.3286610" lon="-3.9634320">
        <ele>933.8</ele>
        <time>2021-10-01T10:28:16Z</time>
      </trkpt>
      <trkpt lat="42.3286930" lon="-3.9635250">
        <ele>935.0</ele>
        <time>2021-10-01T10:28:19Z</time>
      </trkpt>
      <trkpt lat="42.3287270" lon="-3.9636570">
        <ele>936.0</ele>
        <time>2021-10-01T10:28:23Z</time>
      </trkpt>
      <trkpt lat="42.3287150" lon="-3.9638440">
        <ele>937.2</ele>
        <time>2021-10-01T10:28:28Z</time>
      </trkpt>
      <trkpt lat="42.3286600" lon="-3.9641500">
        <ele>937.6</ele>
        <time>2021-10-01T10:28:35Z</time>
      </trkpt>
      <trkpt lat="42.3286210" lon="-3.9645030">
        <ele>937.6</ele>
        <time>2021-10-01T10:28:42Z</time>
      </trkpt>
      <trkpt lat="42.3285650" lon="-3.9652540">
        <ele>937.8</ele>
        <time>2021-10-01T10:28:55Z</time>
      </trkpt>
      <trkpt lat="42.3285520" lon="-3.9655660">
        <ele>938.2</ele>
        <time>2021-10-01T10:29:00Z</time>
      </trkpt>
      <trkpt lat="42.3285210" lon="-3.9658810">
        <ele>938.4</ele>
        <time>2021-10-01T10:29:05Z</time>
      </trkpt>
      <trkpt lat="42.3283570" lon="-3.9666270">
        <ele>938.4</ele>
        <time>2021-10-01T10:29:17Z</time>
      </trkpt>
      <trkpt lat="42.3282910" lon="-3.9668790">
        <ele>938.4</ele>
        <time>2021-10-01T10:29:21Z</time>
      </trkpt>
      <trkpt lat="42.3282460" lon="-3.9670610">
        <ele>938.2</ele>
        <time>2021-10-01T10:29:24Z</time>
      </trkpt>
      <trkpt lat="42.3282310" lon="-3.9671170">
        <ele>938.2</ele>
        <time>2021-10-01T10:29:25Z</time>
      </trkpt>
      <trkpt lat="42.3282010" lon="-3.9672190">
        <ele>938.2</ele>
        <time>2021-10-01T10:29:27Z</time>
      </trkpt>
      <trkpt lat="42.3281800" lon="-3.9673160">
        <ele>938.2</ele>
        <time>2021-10-01T10:29:29Z</time>
      </trkpt>
      <trkpt lat="42.3281720" lon="-3.9673680">
        <ele>938.4</ele>
        <time>2021-10-01T10:29:30Z</time>
      </trkpt>
      <trkpt lat="42.3281540" lon="-3.9674880">
        <ele>938.2</ele>
        <time>2021-10-01T10:29:32Z</time>
      </trkpt>
      <trkpt lat="42.3281160" lon="-3.9677100">
        <ele>938.0</ele>
        <time>2021-10-01T10:29:35Z</time>
      </trkpt>
      <trkpt lat="42.3280850" lon="-3.9678720">
        <ele>938.0</ele>
        <time>2021-10-01T10:29:37Z</time>
      </trkpt>
      <trkpt lat="42.3279830" lon="-3.9686170">
        <ele>937.2</ele>
        <time>2021-10-01T10:29:46Z</time>
      </trkpt>
      <trkpt lat="42.3279150" lon="-3.9693640">
        <ele>936.6</ele>
        <time>2021-10-01T10:29:55Z</time>
      </trkpt>
      <trkpt lat="42.3278980" lon="-3.9695300">
        <ele>936.4</ele>
        <time>2021-10-01T10:29:57Z</time>
      </trkpt>
      <trkpt lat="42.3277940" lon="-3.9701730">
        <ele>936.4</ele>
        <time>2021-10-01T10:30:05Z</time>
      </trkpt>
      <trkpt lat="42.3277510" lon="-3.9703210">
        <ele>936.2</ele>
        <time>2021-10-01T10:30:07Z</time>
      </trkpt>
      <trkpt lat="42.3276480" lon="-3.9705960">
        <ele>936.4</ele>
        <time>2021-10-01T10:30:11Z</time>
      </trkpt>
      <trkpt lat="42.3275560" lon="-3.9713490">
        <ele>936.6</ele>
        <time>2021-10-01T10:30:21Z</time>
      </trkpt>
      <trkpt lat="42.3275000" lon="-3.9718960">
        <ele>936.6</ele>
        <time>2021-10-01T10:30:28Z</time>
      </trkpt>
      <trkpt lat="42.3274840" lon="-3.9726670">
        <ele>936.4</ele>
        <time>2021-10-01T10:30:38Z</time>
      </trkpt>
      <trkpt lat="42.3274780" lon="-3.9734050">
        <ele>936.4</ele>
        <time>2021-10-01T10:30:47Z</time>
      </trkpt>
      <trkpt lat="42.3274870" lon="-3.9737270">
        <ele>936.2</ele>
        <time>2021-10-01T10:30:51Z</time>
      </trkpt>
      <trkpt lat="42.3275400" lon="-3.9745180">
        <ele>935.6</ele>
        <time>2021-10-01T10:31:01Z</time>
      </trkpt>
      <trkpt lat="42.3276510" lon="-3.9752930">
        <ele>935.4</ele>
        <time>2021-10-01T10:31:11Z</time>
      </trkpt>
      <trkpt lat="42.3277140" lon="-3.9758770">
        <ele>935.0</ele>
        <time>2021-10-01T10:31:18Z</time>
      </trkpt>
      <trkpt lat="42.3277380" lon="-3.9762170">
        <ele>935.2</ele>
        <time>2021-10-01T10:31:22Z</time>
      </trkpt>
      <trkpt lat="42.3277970" lon="-3.9767830">
        <ele>935.0</ele>
        <time>2021-10-01T10:31:29Z</time>
      </trkpt>
      <trkpt lat="42.3278190" lon="-3.9769400">
        <ele>935.2</ele>
        <time>2021-10-01T10:31:31Z</time>
      </trkpt>
      <trkpt lat="42.3278200" lon="-3.9777280">
        <ele>935.2</ele>
        <time>2021-10-01T10:31:41Z</time>
      </trkpt>
      <trkpt lat="42.3278210" lon="-3.9780420">
        <ele>934.8</ele>
        <time>2021-10-01T10:31:45Z</time>
      </trkpt>
      <trkpt lat="42.3278170" lon="-3.9785300">
        <ele>934.6</ele>
        <time>2021-10-01T10:31:51Z</time>
      </trkpt>
      <trkpt lat="42.3278180" lon="-3.9787710">
        <ele>934.4</ele>
        <time>2021-10-01T10:31:54Z</time>
      </trkpt>
      <trkpt lat="42.3278370" lon="-3.9791930">
        <ele>933.8</ele>
        <time>2021-10-01T10:31:59Z</time>
      </trkpt>
      <trkpt lat="42.3278340" lon="-3.9799640">
        <ele>933.0</ele>
        <time>2021-10-01T10:32:08Z</time>
      </trkpt>
      <trkpt lat="42.3278250" lon="-3.9801280">
        <ele>932.8</ele>
        <time>2021-10-01T10:32:10Z</time>
      </trkpt>
      <trkpt lat="42.3278110" lon="-3.9804620">
        <ele>932.2</ele>
        <time>2021-10-01T10:32:14Z</time>
      </trkpt>
      <trkpt lat="42.3278290" lon="-3.9812290">
        <ele>932.2</ele>
        <time>2021-10-01T10:32:24Z</time>
      </trkpt>
      <trkpt lat="42.3278480" lon="-3.9814600">
        <ele>932.4</ele>
        <time>2021-10-01T10:32:27Z</time>
      </trkpt>
      <trkpt lat="42.3278670" lon="-3.9816850">
        <ele>932.4</ele>
        <time>2021-10-01T10:32:30Z</time>
      </trkpt>
      <trkpt lat="42.3278870" lon="-3.9818280">
        <ele>932.4</ele>
        <time>2021-10-01T10:32:32Z</time>
      </trkpt>
      <trkpt lat="42.3278900" lon="-3.9818990">
        <ele>932.0</ele>
        <time>2021-10-01T10:32:33Z</time>
      </trkpt>
      <trkpt lat="42.3278820" lon="-3.9819730">
        <ele>931.6</ele>
        <time>2021-10-01T10:32:34Z</time>
      </trkpt>
      <trkpt lat="42.3277630" lon="-3.9823000">
        <ele>930.6</ele>
        <time>2021-10-01T10:32:38Z</time>
      </trkpt>
      <trkpt lat="42.3277200" lon="-3.9823910">
        <ele>930.6</ele>
        <time>2021-10-01T10:32:39Z</time>
      </trkpt>
      <trkpt lat="42.3275780" lon="-3.9826830">
        <ele>928.4</ele>
        <time>2021-10-01T10:32:42Z</time>
      </trkpt>
      <trkpt lat="42.3275260" lon="-3.9827870">
        <ele>927.0</ele>
        <time>2021-10-01T10:32:43Z</time>
      </trkpt>
      <trkpt lat="42.3274710" lon="-3.9828930">
        <ele>925.6</ele>
        <time>2021-10-01T10:32:44Z</time>
      </trkpt>
      <trkpt lat="42.3274140" lon="-3.9830000">
        <ele>924.2</ele>
        <time>2021-10-01T10:32:45Z</time>
      </trkpt>
      <trkpt lat="42.3273520" lon="-3.9831060">
        <ele>923.0</ele>
        <time>2021-10-01T10:32:46Z</time>
      </trkpt>
      <trkpt lat="42.3272840" lon="-3.9832100">
        <ele>921.6</ele>
        <time>2021-10-01T10:32:47Z</time>
      </trkpt>
      <trkpt lat="42.3272100" lon="-3.9833090">
        <ele>920.4</ele>
        <time>2021-10-01T10:32:48Z</time>
      </trkpt>
      <trkpt lat="42.3271320" lon="-3.9833980">
        <ele>919.2</ele>
        <time>2021-10-01T10:32:49Z</time>
      </trkpt>
      <trkpt lat="42.3270550" lon="-3.9834820">
        <ele>917.6</ele>
        <time>2021-10-01T10:32:50Z</time>
      </trkpt>
      <trkpt lat="42.3269830" lon="-3.9835710">
        <ele>916.0</ele>
        <time>2021-10-01T10:32:51Z</time>
      </trkpt>
      <trkpt lat="42.3269120" lon="-3.9836650">
        <ele>914.2</ele>
        <time>2021-10-01T10:32:52Z</time>
      </trkpt>
      <trkpt lat="42.3268430" lon="-3.9837640">
        <ele>912.6</ele>
        <time>2021-10-01T10:32:53Z</time>
      </trkpt>
      <trkpt lat="42.3267790" lon="-3.9838700">
        <ele>910.4</ele>
        <time>2021-10-01T10:32:54Z</time>
      </trkpt>
      <trkpt lat="42.3267200" lon="-3.9839810">
        <ele>907.4</ele>
        <time>2021-10-01T10:32:55Z</time>
      </trkpt>
      <trkpt lat="42.3266230" lon="-3.9842190">
        <ele>905.6</ele>
        <time>2021-10-01T10:32:57Z</time>
      </trkpt>
      <trkpt lat="42.3265880" lon="-3.9843440">
        <ele>904.6</ele>
        <time>2021-10-01T10:32:58Z</time>
      </trkpt>
      <trkpt lat="42.3265590" lon="-3.9844720">
        <ele>903.4</ele>
        <time>2021-10-01T10:32:59Z</time>
      </trkpt>
      <trkpt lat="42.3265080" lon="-3.9847240">
        <ele>901.6</ele>
        <time>2021-10-01T10:33:01Z</time>
      </trkpt>
      <trkpt lat="42.3264580" lon="-3.9849710">
        <ele>900.6</ele>
        <time>2021-10-01T10:33:03Z</time>
      </trkpt>
      <trkpt lat="42.3263320" lon="-3.9856900">
        <ele>899.2</ele>
        <time>2021-10-01T10:33:09Z</time>
      </trkpt>
      <trkpt lat="42.3263000" lon="-3.9859280">
        <ele>897.6</ele>
        <time>2021-10-01T10:33:11Z</time>
      </trkpt>
      <trkpt lat="42.3262530" lon="-3.9862930">
        <ele>896.8</ele>
        <time>2021-10-01T10:33:14Z</time>
      </trkpt>
      <trkpt lat="42.3262160" lon="-3.9865330">
        <ele>896.4</ele>
        <time>2021-10-01T10:33:16Z</time>
      </trkpt>
      <trkpt lat="42.3261290" lon="-3.9869800">
        <ele>895.4</ele>
        <time>2021-10-01T10:33:20Z</time>
      </trkpt>
      <trkpt lat="42.3260780" lon="-3.9871840">
        <ele>893.8</ele>
        <time>2021-10-01T10:33:22Z</time>
      </trkpt>
      <trkpt lat="42.3259790" lon="-3.9874670">
        <ele>892.6</ele>
        <time>2021-10-01T10:33:25Z</time>
      </trkpt>
      <trkpt lat="42.3259500" lon="-3.9875600">
        <ele>892.6</ele>
        <time>2021-10-01T10:33:26Z</time>
      </trkpt>
      <trkpt lat="42.3259240" lon="-3.9877580">
        <ele>892.4</ele>
        <time>2021-10-01T10:33:28Z</time>
      </trkpt>
      <trkpt lat="42.3259490" lon="-3.9879620">
        <ele>892.2</ele>
        <time>2021-10-01T10:33:30Z</time>
      </trkpt>
      <trkpt lat="42.3259770" lon="-3.9881670">
        <ele>892.2</ele>
        <time>2021-10-01T10:33:32Z</time>
      </trkpt>
      <trkpt lat="42.3259890" lon="-3.9883650">
        <ele>892.2</ele>
        <time>2021-10-01T10:33:34Z</time>
      </trkpt>
      <trkpt lat="42.3259940" lon="-3.9886390">
        <ele>892.2</ele>
        <time>2021-10-01T10:33:37Z</time>
      </trkpt>
      <trkpt lat="42.3259980" lon="-3.9888890">
        <ele>892.4</ele>
        <time>2021-10-01T10:33:40Z</time>
      </trkpt>
      <trkpt lat="42.3260010" lon="-3.9891200">
        <ele>893.0</ele>
        <time>2021-10-01T10:33:43Z</time>
      </trkpt>
      <trkpt lat="42.3260030" lon="-3.9893320">
        <ele>894.0</ele>
        <time>2021-10-01T10:33:46Z</time>
      </trkpt>
      <trkpt lat="42.3260070" lon="-3.9895430">
        <ele>895.2</ele>
        <time>2021-10-01T10:33:49Z</time>
      </trkpt>
      <trkpt lat="42.3260200" lon="-3.9898100">
        <ele>896.2</ele>
        <time>2021-10-01T10:33:53Z</time>
      </trkpt>
      <trkpt lat="42.3260500" lon="-3.9901250">
        <ele>897.4</ele>
        <time>2021-10-01T10:33:58Z</time>
      </trkpt>
      <trkpt lat="42.3260930" lon="-3.9904410">
        <ele>898.6</ele>
        <time>2021-10-01T10:34:04Z</time>
      </trkpt>
      <trkpt lat="42.3261070" lon="-3.9907120">
        <ele>899.8</ele>
        <time>2021-10-01T10:34:09Z</time>
      </trkpt>
      <trkpt lat="42.3261170" lon="-3.9912770">
        <ele>900.8</ele>
        <time>2021-10-01T10:34:19Z</time>
      </trkpt>
      <trkpt lat="42.3261250" lon="-3.9915700">
        <ele>902.0</ele>
        <time>2021-10-01T10:34:24Z</time>
      </trkpt>
      <trkpt lat="42.3261370" lon="-3.9922860">
        <ele>903.2</ele>
        <time>2021-10-01T10:34:37Z</time>
      </trkpt>
      <trkpt lat="42.3261180" lon="-3.9925030">
        <ele>904.2</ele>
        <time>2021-10-01T10:34:41Z</time>
      </trkpt>
      <trkpt lat="42.3260850" lon="-3.9927570">
        <ele>905.2</ele>
        <time>2021-10-01T10:34:46Z</time>
      </trkpt>
      <trkpt lat="42.3260330" lon="-3.9930530">
        <ele>906.4</ele>
        <time>2021-10-01T10:34:53Z</time>
      </trkpt>
      <trkpt lat="42.3259780" lon="-3.9932370">
        <ele>907.6</ele>
        <time>2021-10-01T10:34:58Z</time>
      </trkpt>
      <trkpt lat="42.3259410" lon="-3.9933390">
        <ele>908.8</ele>
        <time>2021-10-01T10:35:01Z</time>
      </trkpt>
      <trkpt lat="42.3258840" lon="-3.9934670">
        <ele>910.2</ele>
        <time>2021-10-01T10:35:05Z</time>
      </trkpt>
      <trkpt lat="42.3257970" lon="-3.9936060">
        <ele>911.4</ele>
        <time>2021-10-01T10:35:10Z</time>
      </trkpt>
      <trkpt lat="42.3257170" lon="-3.9937020">
        <ele>912.4</ele>
        <time>2021-10-01T10:35:14Z</time>
      </trkpt>
      <trkpt lat="42.3256410" lon="-3.9938050">
        <ele>913.4</ele>
        <time>2021-10-01T10:35:18Z</time>
      </trkpt>
      <trkpt lat="42.3255710" lon="-3.9939120">
        <ele>914.6</ele>
        <time>2021-10-01T10:35:22Z</time>
      </trkpt>
      <trkpt lat="42.3255040" lon="-3.9940190">
        <ele>915.8</ele>
        <time>2021-10-01T10:35:26Z</time>
      </trkpt>
      <trkpt lat="42.3254510" lon="-3.9941380">
        <ele>916.8</ele>
        <time>2021-10-01T10:35:30Z</time>
      </trkpt>
      <trkpt lat="42.3254110" lon="-3.9943030">
        <ele>918.0</ele>
        <time>2021-10-01T10:35:35Z</time>
      </trkpt>
      <trkpt lat="42.3254040" lon="-3.9944730">
        <ele>919.2</ele>
        <time>2021-10-01T10:35:40Z</time>
      </trkpt>
      <trkpt lat="42.3253930" lon="-3.9946550">
        <ele>920.4</ele>
        <time>2021-10-01T10:35:45Z</time>
      </trkpt>
      <trkpt lat="42.3253740" lon="-3.9948100">
        <ele>921.8</ele>
        <time>2021-10-01T10:35:49Z</time>
      </trkpt>
      <trkpt lat="42.3253460" lon="-3.9950020">
        <ele>922.8</ele>
        <time>2021-10-01T10:35:54Z</time>
      </trkpt>
      <trkpt lat="42.3253130" lon="-3.9951920">
        <ele>924.0</ele>
        <time>2021-10-01T10:35:59Z</time>
      </trkpt>
      <trkpt lat="42.3252660" lon="-3.9954150">
        <ele>925.2</ele>
        <time>2021-10-01T10:36:05Z</time>
      </trkpt>
      <trkpt lat="42.3252300" lon="-3.9955200">
        <ele>925.6</ele>
        <time>2021-10-01T10:36:08Z</time>
      </trkpt>
      <trkpt lat="42.3251540" lon="-3.9958020">
        <ele>926.2</ele>
        <time>2021-10-01T10:36:16Z</time>
      </trkpt>
      <trkpt lat="42.3250530" lon="-3.9959900">
        <ele>927.2</ele>
        <time>2021-10-01T10:36:22Z</time>
      </trkpt>
      <trkpt lat="42.3248130" lon="-3.9962860">
        <ele>928.4</ele>
        <time>2021-10-01T10:36:32Z</time>
      </trkpt>
      <trkpt lat="42.3246330" lon="-3.9967580">
        <ele>929.4</ele>
        <time>2021-10-01T10:36:43Z</time>
      </trkpt>
      <trkpt lat="42.3245340" lon="-3.9970380">
        <ele>929.8</ele>
        <time>2021-10-01T10:36:49Z</time>
      </trkpt>
      <trkpt lat="42.3244210" lon="-3.9973280">
        <ele>930.0</ele>
        <time>2021-10-01T10:36:55Z</time>
      </trkpt>
      <trkpt lat="42.3241450" lon="-3.9979600">
        <ele>929.8</ele>
        <time>2021-10-01T10:37:08Z</time>
      </trkpt>
      <trkpt lat="42.3239980" lon="-3.9984070">
        <ele>930.8</ele>
        <time>2021-10-01T10:37:17Z</time>
      </trkpt>
      <trkpt lat="42.3238060" lon="-3.9989870">
        <ele>931.8</ele>
        <time>2021-10-01T10:37:28Z</time>
      </trkpt>
      <trkpt lat="42.3237410" lon="-3.9993360">
        <ele>932.2</ele>
        <time>2021-10-01T10:37:34Z</time>
      </trkpt>
      <trkpt lat="42.3235210" lon="-4.0000640">
        <ele>932.4</ele>
        <time>2021-10-01T10:37:47Z</time>
      </trkpt>
      <trkpt lat="42.3233480" lon="-4.0007620">
        <ele>932.6</ele>
        <time>2021-10-01T10:37:58Z</time>
      </trkpt>
      <trkpt lat="42.3232870" lon="-4.0010190">
        <ele>932.6</ele>
        <time>2021-10-01T10:38:02Z</time>
      </trkpt>
      <trkpt lat="42.3231960" lon="-4.0014240">
        <ele>932.4</ele>
        <time>2021-10-01T10:38:08Z</time>
      </trkpt>
      <trkpt lat="42.3230480" lon="-4.0020620">
        <ele>931.6</ele>
        <time>2021-10-01T10:38:18Z</time>
      </trkpt>
      <trkpt lat="42.3230120" lon="-4.0024870">
        <ele>931.8</ele>
        <time>2021-10-01T10:38:24Z</time>
      </trkpt>
      <trkpt lat="42.3228270" lon="-4.0032530">
        <ele>931.4</ele>
        <time>2021-10-01T10:38:34Z</time>
      </trkpt>
      <trkpt lat="42.3227290" lon="-4.0036930">
        <ele>930.8</ele>
        <time>2021-10-01T10:38:40Z</time>
      </trkpt>
      <trkpt lat="42.3225680" lon="-4.0044280">
        <ele>931.4</ele>
        <time>2021-10-01T10:38:50Z</time>
      </trkpt>
      <trkpt lat="42.3224610" lon="-4.0051720">
        <ele>931.4</ele>
        <time>2021-10-01T10:38:59Z</time>
      </trkpt>
      <trkpt lat="42.3223800" lon="-4.0056140">
        <ele>931.0</ele>
        <time>2021-10-01T10:39:04Z</time>
      </trkpt>
      <trkpt lat="42.3221990" lon="-4.0063450">
        <ele>930.4</ele>
        <time>2021-10-01T10:39:13Z</time>
      </trkpt>
      <trkpt lat="42.3220750" lon="-4.0068060">
        <ele>929.6</ele>
        <time>2021-10-01T10:39:19Z</time>
      </trkpt>
      <trkpt lat="42.3219650" lon="-4.0073080">
        <ele>928.8</ele>
        <time>2021-10-01T10:39:26Z</time>
      </trkpt>
      <trkpt lat="42.3219090" lon="-4.0075200">
        <ele>928.6</ele>
        <time>2021-10-01T10:39:29Z</time>
      </trkpt>
      <trkpt lat="42.3217290" lon="-4.0082150">
        <ele>928.2</ele>
        <time>2021-10-01T10:39:39Z</time>
      </trkpt>
      <trkpt lat="42.3215260" lon="-4.0089470">
        <ele>928.2</ele>
        <time>2021-10-01T10:39:50Z</time>
      </trkpt>
      <trkpt lat="42.3214130" lon="-4.0093510">
        <ele>928.6</ele>
        <time>2021-10-01T10:39:56Z</time>
      </trkpt>
      <trkpt lat="42.3212710" lon="-4.0100700">
        <ele>928.6</ele>
        <time>2021-10-01T10:40:06Z</time>
      </trkpt>
      <trkpt lat="42.3210950" lon="-4.0107810">
        <ele>928.4</ele>
        <time>2021-10-01T10:40:16Z</time>
      </trkpt>
      <trkpt lat="42.3210150" lon="-4.0112150">
        <ele>928.2</ele>
        <time>2021-10-01T10:40:22Z</time>
      </trkpt>
      <trkpt lat="42.3208500" lon="-4.0119110">
        <ele>928.6</ele>
        <time>2021-10-01T10:40:32Z</time>
      </trkpt>
      <trkpt lat="42.3206970" lon="-4.0126150">
        <ele>929.0</ele>
        <time>2021-10-01T10:40:42Z</time>
      </trkpt>
      <trkpt lat="42.3206020" lon="-4.0130870">
        <ele>929.8</ele>
        <time>2021-10-01T10:40:49Z</time>
      </trkpt>
      <trkpt lat="42.3204560" lon="-4.0138460">
        <ele>930.2</ele>
        <time>2021-10-01T10:41:00Z</time>
      </trkpt>
      <trkpt lat="42.3203290" lon="-4.0145590">
        <ele>930.2</ele>
        <time>2021-10-01T10:41:10Z</time>
      </trkpt>
      <trkpt lat="42.3201780" lon="-4.0152730">
        <ele>929.8</ele>
        <time>2021-10-01T10:41:20Z</time>
      </trkpt>
      <trkpt lat="42.3199660" lon="-4.0160190">
        <ele>929.2</ele>
        <time>2021-10-01T10:41:31Z</time>
      </trkpt>
      <trkpt lat="42.3197540" lon="-4.0167460">
        <ele>929.4</ele>
        <time>2021-10-01T10:41:42Z</time>
      </trkpt>
      <trkpt lat="42.3196450" lon="-4.0170820">
        <ele>929.4</ele>
        <time>2021-10-01T10:41:47Z</time>
      </trkpt>
      <trkpt lat="42.3193650" lon="-4.0177830">
        <ele>929.2</ele>
        <time>2021-10-01T10:41:58Z</time>
      </trkpt>
      <trkpt lat="42.3191160" lon="-4.0184580">
        <ele>930.0</ele>
        <time>2021-10-01T10:42:09Z</time>
      </trkpt>
      <trkpt lat="42.3188740" lon="-4.0191230">
        <ele>930.0</ele>
        <time>2021-10-01T10:42:19Z</time>
      </trkpt>
      <trkpt lat="42.3186240" lon="-4.0197750">
        <ele>930.2</ele>
        <time>2021-10-01T10:42:29Z</time>
      </trkpt>
      <trkpt lat="42.3183610" lon="-4.0204910">
        <ele>930.2</ele>
        <time>2021-10-01T10:42:40Z</time>
      </trkpt>
      <trkpt lat="42.3181400" lon="-4.0210960">
        <ele>930.8</ele>
        <time>2021-10-01T10:42:49Z</time>
      </trkpt>
      <trkpt lat="42.3178840" lon="-4.0217670">
        <ele>930.2</ele>
        <time>2021-10-01T10:42:59Z</time>
      </trkpt>
      <trkpt lat="42.3177030" lon="-4.0222280">
        <ele>929.8</ele>
        <time>2021-10-01T10:43:06Z</time>
      </trkpt>
      <trkpt lat="42.3174240" lon="-4.0229160">
        <ele>928.8</ele>
        <time>2021-10-01T10:43:16Z</time>
      </trkpt>
      <trkpt lat="42.3173960" lon="-4.0229870">
        <ele>928.6</ele>
        <time>2021-10-01T10:43:17Z</time>
      </trkpt>
      <trkpt lat="42.3172230" lon="-4.0233960">
        <ele>927.6</ele>
        <time>2021-10-01T10:43:23Z</time>
      </trkpt>
      <trkpt lat="42.3169370" lon="-4.0240320">
        <ele>927.8</ele>
        <time>2021-10-01T10:43:33Z</time>
      </trkpt>
      <trkpt lat="42.3168240" lon="-4.0242950">
        <ele>928.8</ele>
        <time>2021-10-01T10:43:37Z</time>
      </trkpt>
      <trkpt lat="42.3166050" lon="-4.0247900">
        <ele>929.4</ele>
        <time>2021-10-01T10:43:44Z</time>
      </trkpt>
      <trkpt lat="42.3162900" lon="-4.0254850">
        <ele>927.4</ele>
        <time>2021-10-01T10:43:53Z</time>
      </trkpt>
      <trkpt lat="42.3161910" lon="-4.0257140">
        <ele>926.2</ele>
        <time>2021-10-01T10:43:56Z</time>
      </trkpt>
      <trkpt lat="42.3158620" lon="-4.0263920">
        <ele>925.2</ele>
        <time>2021-10-01T10:44:05Z</time>
      </trkpt>
      <trkpt lat="42.3158270" lon="-4.0264650">
        <ele>925.0</ele>
        <time>2021-10-01T10:44:06Z</time>
      </trkpt>
      <trkpt lat="42.3155690" lon="-4.0270880">
        <ele>924.2</ele>
        <time>2021-10-01T10:44:14Z</time>
      </trkpt>
      <trkpt lat="42.3155390" lon="-4.0271660">
        <ele>924.0</ele>
        <time>2021-10-01T10:44:15Z</time>
      </trkpt>
      <trkpt lat="42.3152620" lon="-4.0278450">
        <ele>922.6</ele>
        <time>2021-10-01T10:44:24Z</time>
      </trkpt>
      <trkpt lat="42.3150290" lon="-4.0285180">
        <ele>921.8</ele>
        <time>2021-10-01T10:44:33Z</time>
      </trkpt>
      <trkpt lat="42.3147830" lon="-4.0291780">
        <ele>921.8</ele>
        <time>2021-10-01T10:44:42Z</time>
      </trkpt>
      <trkpt lat="42.3146600" lon="-4.0294600">
        <ele>922.0</ele>
        <time>2021-10-01T10:44:46Z</time>
      </trkpt>
      <trkpt lat="42.3144680" lon="-4.0296720">
        <ele>922.0</ele>
        <time>2021-10-01T10:44:50Z</time>
      </trkpt>
      <trkpt lat="42.3143040" lon="-4.0298280">
        <ele>921.8</ele>
        <time>2021-10-01T10:44:53Z</time>
      </trkpt>
      <trkpt lat="42.3142550" lon="-4.0298900">
        <ele>921.6</ele>
        <time>2021-10-01T10:44:54Z</time>
      </trkpt>
      <trkpt lat="42.3141870" lon="-4.0300430">
        <ele>921.4</ele>
        <time>2021-10-01T10:44:56Z</time>
      </trkpt>
      <trkpt lat="42.3141760" lon="-4.0304870">
        <ele>920.4</ele>
        <time>2021-10-01T10:45:01Z</time>
      </trkpt>
      <trkpt lat="42.3141890" lon="-4.0305610">
        <ele>920.4</ele>
        <time>2021-10-01T10:45:02Z</time>
      </trkpt>
      <trkpt lat="42.3141980" lon="-4.0306320">
        <ele>920.4</ele>
        <time>2021-10-01T10:45:03Z</time>
      </trkpt>
      <trkpt lat="42.3141780" lon="-4.0308420">
        <ele>920.4</ele>
        <time>2021-10-01T10:45:06Z</time>
      </trkpt>
      <trkpt lat="42.3141600" lon="-4.0309120">
        <ele>920.4</ele>
        <time>2021-10-01T10:45:07Z</time>
      </trkpt>
      <trkpt lat="42.3140980" lon="-4.0311780">
        <ele>921.0</ele>
        <time>2021-10-01T10:45:11Z</time>
      </trkpt>
      <trkpt lat="42.3140330" lon="-4.0314110">
        <ele>921.4</ele>
        <time>2021-10-01T10:45:15Z</time>
      </trkpt>
      <trkpt lat="42.3140210" lon="-4.0314610">
        <ele>921.4</ele>
        <time>2021-10-01T10:45:16Z</time>
      </trkpt>
      <trkpt lat="42.3139990" lon="-4.0315390">
        <ele>921.6</ele>
        <time>2021-10-01T10:45:18Z</time>
      </trkpt>
      <trkpt lat="42.3138470" lon="-4.0321310">
        <ele>921.8</ele>
        <time>2021-10-01T10:45:27Z</time>
      </trkpt>
      <trkpt lat="42.3137990" lon="-4.0323680">
        <ele>921.8</ele>
        <time>2021-10-01T10:45:30Z</time>
      </trkpt>
      <trkpt lat="42.3137480" lon="-4.0326940">
        <ele>921.0</ele>
        <time>2021-10-01T10:45:34Z</time>
      </trkpt>
      <trkpt lat="42.3136830" lon="-4.0334440">
        <ele>920.8</ele>
        <time>2021-10-01T10:45:43Z</time>
      </trkpt>
      <trkpt lat="42.3136050" lon="-4.0340170">
        <ele>920.2</ele>
        <time>2021-10-01T10:45:50Z</time>
      </trkpt>
      <trkpt lat="42.3134310" lon="-4.0347080">
        <ele>920.0</ele>
        <time>2021-10-01T10:45:59Z</time>
      </trkpt>
      <trkpt lat="42.3133130" lon="-4.0354250">
        <ele>921.0</ele>
        <time>2021-10-01T10:46:08Z</time>
      </trkpt>
      <trkpt lat="42.3132250" lon="-4.0359640">
        <ele>920.8</ele>
        <time>2021-10-01T10:46:15Z</time>
      </trkpt>
      <trkpt lat="42.3131730" lon="-4.0362710">
        <ele>920.4</ele>
        <time>2021-10-01T10:46:19Z</time>
      </trkpt>
      <trkpt lat="42.3131190" lon="-4.0365750">
        <ele>920.2</ele>
        <time>2021-10-01T10:46:23Z</time>
      </trkpt>
      <trkpt lat="42.3129770" lon="-4.0372940">
        <ele>919.6</ele>
        <time>2021-10-01T10:46:32Z</time>
      </trkpt>
      <trkpt lat="42.3128660" lon="-4.0380230">
        <ele>919.8</ele>
        <time>2021-10-01T10:46:41Z</time>
      </trkpt>
      <trkpt lat="42.3128470" lon="-4.0380980">
        <ele>919.8</ele>
        <time>2021-10-01T10:46:42Z</time>
      </trkpt>
      <trkpt lat="42.3127220" lon="-4.0383580">
        <ele>920.0</ele>
        <time>2021-10-01T10:46:46Z</time>
      </trkpt>
      <trkpt lat="42.3126950" lon="-4.0384130">
        <ele>920.0</ele>
        <time>2021-10-01T10:46:47Z</time>
      </trkpt>
      <trkpt lat="42.3126650" lon="-4.0385040">
        <ele>920.0</ele>
        <time>2021-10-01T10:46:49Z</time>
      </trkpt>
      <trkpt lat="42.3126470" lon="-4.0386250">
        <ele>920.2</ele>
        <time>2021-10-01T10:46:52Z</time>
      </trkpt>
      <trkpt lat="42.3126220" lon="-4.0392120">
        <ele>920.2</ele>
        <time>2021-10-01T10:47:00Z</time>
      </trkpt>
      <trkpt lat="42.3125650" lon="-4.0394610">
        <ele>920.2</ele>
        <time>2021-10-01T10:47:03Z</time>
      </trkpt>
      <trkpt lat="42.3125210" lon="-4.0396320">
        <ele>919.6</ele>
        <time>2021-10-01T10:47:05Z</time>
      </trkpt>
      <trkpt lat="42.3125070" lon="-4.0397080">
        <ele>919.2</ele>
        <time>2021-10-01T10:47:06Z</time>
      </trkpt>
      <trkpt lat="42.3124980" lon="-4.0397780">
        <ele>918.4</ele>
        <time>2021-10-01T10:47:07Z</time>
      </trkpt>
      <trkpt lat="42.3124950" lon="-4.0398420">
        <ele>917.6</ele>
        <time>2021-10-01T10:47:08Z</time>
      </trkpt>
      <trkpt lat="42.3125030" lon="-4.0399000">
        <ele>916.6</ele>
        <time>2021-10-01T10:47:09Z</time>
      </trkpt>
      <trkpt lat="42.3125140" lon="-4.0400280">
        <ele>915.0</ele>
        <time>2021-10-01T10:47:11Z</time>
      </trkpt>
      <trkpt lat="42.3125100" lon="-4.0401010">
        <ele>914.4</ele>
        <time>2021-10-01T10:47:12Z</time>
      </trkpt>
      <trkpt lat="42.3125050" lon="-4.0402570">
        <ele>914.0</ele>
        <time>2021-10-01T10:47:14Z</time>
      </trkpt>
      <trkpt lat="42.3125090" lon="-4.0403380">
        <ele>913.8</ele>
        <time>2021-10-01T10:47:15Z</time>
      </trkpt>
      <trkpt lat="42.3125220" lon="-4.0404980">
        <ele>913.0</ele>
        <time>2021-10-01T10:47:17Z</time>
      </trkpt>
      <trkpt lat="42.3125310" lon="-4.0405750">
        <ele>912.4</ele>
        <time>2021-10-01T10:47:18Z</time>
      </trkpt>
      <trkpt lat="42.3125650" lon="-4.0407270">
        <ele>911.0</ele>
        <time>2021-10-01T10:47:20Z</time>
      </trkpt>
      <trkpt lat="42.3126220" lon="-4.0408720">
        <ele>909.6</ele>
        <time>2021-10-01T10:47:22Z</time>
      </trkpt>
      <trkpt lat="42.3126490" lon="-4.0409410">
        <ele>909.0</ele>
        <time>2021-10-01T10:47:23Z</time>
      </trkpt>
      <trkpt lat="42.3126670" lon="-4.0410120">
        <ele>908.2</ele>
        <time>2021-10-01T10:47:24Z</time>
      </trkpt>
      <trkpt lat="42.3126910" lon="-4.0411620">
        <ele>907.2</ele>
        <time>2021-10-01T10:47:26Z</time>
      </trkpt>
      <trkpt lat="42.3127200" lon="-4.0413170">
        <ele>906.0</ele>
        <time>2021-10-01T10:47:28Z</time>
      </trkpt>
      <trkpt lat="42.3127430" lon="-4.0414560">
        <ele>904.8</ele>
        <time>2021-10-01T10:47:30Z</time>
      </trkpt>
      <trkpt lat="42.3127590" lon="-4.0415150">
        <ele>904.0</ele>
        <time>2021-10-01T10:47:31Z</time>
      </trkpt>
      <trkpt lat="42.3127690" lon="-4.0415760">
        <ele>903.2</ele>
        <time>2021-10-01T10:47:32Z</time>
      </trkpt>
      <trkpt lat="42.3127800" lon="-4.0417010">
        <ele>901.6</ele>
        <time>2021-10-01T10:47:34Z</time>
      </trkpt>
      <trkpt lat="42.3127820" lon="-4.0418430">
        <ele>900.0</ele>
        <time>2021-10-01T10:47:36Z</time>
      </trkpt>
      <trkpt lat="42.3127750" lon="-4.0420800">
        <ele>898.6</ele>
        <time>2021-10-01T10:47:39Z</time>
      </trkpt>
      <trkpt lat="42.3127680" lon="-4.0422250">
        <ele>897.2</ele>
        <time>2021-10-01T10:47:41Z</time>
      </trkpt>
      <trkpt lat="42.3127630" lon="-4.0422930">
        <ele>896.0</ele>
        <time>2021-10-01T10:47:42Z</time>
      </trkpt>
      <trkpt lat="42.3127570" lon="-4.0423620">
        <ele>894.8</ele>
        <time>2021-10-01T10:47:43Z</time>
      </trkpt>
      <trkpt lat="42.3127560" lon="-4.0424360">
        <ele>893.6</ele>
        <time>2021-10-01T10:47:44Z</time>
      </trkpt>
      <trkpt lat="42.3127610" lon="-4.0425180">
        <ele>892.6</ele>
        <time>2021-10-01T10:47:45Z</time>
      </trkpt>
      <trkpt lat="42.3127630" lon="-4.0426910">
        <ele>891.0</ele>
        <time>2021-10-01T10:47:47Z</time>
      </trkpt>
      <trkpt lat="42.3127610" lon="-4.0428570">
        <ele>889.0</ele>
        <time>2021-10-01T10:47:49Z</time>
      </trkpt>
      <trkpt lat="42.3127600" lon="-4.0430100">
        <ele>887.4</ele>
        <time>2021-10-01T10:47:51Z</time>
      </trkpt>
      <trkpt lat="42.3127630" lon="-4.0430800">
        <ele>886.0</ele>
        <time>2021-10-01T10:47:52Z</time>
      </trkpt>
      <trkpt lat="42.3127670" lon="-4.0431460">
        <ele>884.6</ele>
        <time>2021-10-01T10:47:53Z</time>
      </trkpt>
      <trkpt lat="42.3127660" lon="-4.0432160">
        <ele>883.8</ele>
        <time>2021-10-01T10:47:54Z</time>
      </trkpt>
      <trkpt lat="42.3127610" lon="-4.0432940">
        <ele>883.0</ele>
        <time>2021-10-01T10:47:55Z</time>
      </trkpt>
      <trkpt lat="42.3127550" lon="-4.0434580">
        <ele>881.6</ele>
        <time>2021-10-01T10:47:57Z</time>
      </trkpt>
      <trkpt lat="42.3127600" lon="-4.0437670">
        <ele>880.0</ele>
        <time>2021-10-01T10:48:01Z</time>
      </trkpt>
      <trkpt lat="42.3127640" lon="-4.0439010">
        <ele>878.4</ele>
        <time>2021-10-01T10:48:03Z</time>
      </trkpt>
      <trkpt lat="42.3127640" lon="-4.0440100">
        <ele>877.0</ele>
        <time>2021-10-01T10:48:05Z</time>
      </trkpt>
      <trkpt lat="42.3127430" lon="-4.0441730">
        <ele>875.6</ele>
        <time>2021-10-01T10:48:08Z</time>
      </trkpt>
      <trkpt lat="42.3127350" lon="-4.0443130">
        <ele>874.8</ele>
        <time>2021-10-01T10:48:10Z</time>
      </trkpt>
      <trkpt lat="42.3127310" lon="-4.0443770">
        <ele>874.4</ele>
        <time>2021-10-01T10:48:11Z</time>
      </trkpt>
      <trkpt lat="42.3127250" lon="-4.0445420">
        <ele>873.2</ele>
        <time>2021-10-01T10:48:14Z</time>
      </trkpt>
      <trkpt lat="42.3127160" lon="-4.0446780">
        <ele>871.6</ele>
        <time>2021-10-01T10:48:16Z</time>
      </trkpt>
      <trkpt lat="42.3126880" lon="-4.0448190">
        <ele>870.2</ele>
        <time>2021-10-01T10:48:18Z</time>
      </trkpt>
      <trkpt lat="42.3126810" lon="-4.0448940">
        <ele>869.8</ele>
        <time>2021-10-01T10:48:19Z</time>
      </trkpt>
      <trkpt lat="42.3126800" lon="-4.0450510">
        <ele>869.0</ele>
        <time>2021-10-01T10:48:21Z</time>
      </trkpt>
      <trkpt lat="42.3126790" lon="-4.0451970">
        <ele>868.0</ele>
        <time>2021-10-01T10:48:23Z</time>
      </trkpt>
      <trkpt lat="42.3127080" lon="-4.0454150">
        <ele>866.8</ele>
        <time>2021-10-01T10:48:26Z</time>
      </trkpt>
      <trkpt lat="42.3127940" lon="-4.0457450">
        <ele>866.6</ele>
        <time>2021-10-01T10:48:31Z</time>
      </trkpt>
      <trkpt lat="42.3128400" lon="-4.0458640">
        <ele>866.6</ele>
        <time>2021-10-01T10:48:33Z</time>
      </trkpt>
      <trkpt lat="42.3128870" lon="-4.0459790">
        <ele>866.4</ele>
        <time>2021-10-01T10:48:35Z</time>
      </trkpt>
      <trkpt lat="42.3131280" lon="-4.0464010">
        <ele>866.2</ele>
        <time>2021-10-01T10:48:43Z</time>
      </trkpt>
      <trkpt lat="42.3131950" lon="-4.0465090">
        <ele>866.0</ele>
        <time>2021-10-01T10:48:45Z</time>
      </trkpt>
      <trkpt lat="42.3134600" lon="-4.0468800">
        <ele>865.8</ele>
        <time>2021-10-01T10:48:52Z</time>
      </trkpt>
      <trkpt lat="42.3135790" lon="-4.0471230">
        <ele>865.6</ele>
        <time>2021-10-01T10:48:56Z</time>
      </trkpt>
      <trkpt lat="42.3136180" lon="-4.0472590">
        <ele>865.4</ele>
        <time>2021-10-01T10:48:58Z</time>
      </trkpt>
      <trkpt lat="42.3136330" lon="-4.0473290">
        <ele>865.4</ele>
        <time>2021-10-01T10:48:59Z</time>
      </trkpt>
      <trkpt lat="42.3136600" lon="-4.0474670">
        <ele>865.2</ele>
        <time>2021-10-01T10:49:01Z</time>
      </trkpt>
      <trkpt lat="42.3136900" lon="-4.0477430">
        <ele>864.8</ele>
        <time>2021-10-01T10:49:05Z</time>
      </trkpt>
      <trkpt lat="42.3137540" lon="-4.0483010">
        <ele>863.8</ele>
        <time>2021-10-01T10:49:17Z</time>
      </trkpt>
      <trkpt lat="42.3137950" lon="-4.0484720">
        <ele>866.2</ele>
        <time>2021-10-01T10:53:50Z</time>
      </trkpt>
      <trkpt lat="42.3139450" lon="-4.0489850">
        <ele>864.4</ele>
        <time>2021-10-01T10:53:59Z</time>
      </trkpt>
      <trkpt lat="42.3139900" lon="-4.0491290">
        <ele>863.6</ele>
        <time>2021-10-01T10:54:01Z</time>
      </trkpt>
      <trkpt lat="42.3140110" lon="-4.0491980">
        <ele>863.2</ele>
        <time>2021-10-01T10:54:02Z</time>
      </trkpt>
      <trkpt lat="42.3140440" lon="-4.0493460">
        <ele>861.2</ele>
        <time>2021-10-01T10:54:04Z</time>
      </trkpt>
      <trkpt lat="42.3140240" lon="-4.0496430">
        <ele>860.0</ele>
        <time>2021-10-01T10:54:08Z</time>
      </trkpt>
      <trkpt lat="42.3139990" lon="-4.0495710">
        <ele>859.8</ele>
        <time>2021-10-01T10:54:16Z</time>
      </trkpt>
      <trkpt lat="42.3140330" lon="-4.0497060">
        <ele>859.8</ele>
        <time>2021-10-01T10:54:22Z</time>
      </trkpt>
      <trkpt lat="42.3139290" lon="-4.0501140">
        <ele>859.0</ele>
        <time>2021-10-01T10:54:28Z</time>
      </trkpt>
      <trkpt lat="42.3138860" lon="-4.0502700">
        <ele>857.8</ele>
        <time>2021-10-01T10:54:30Z</time>
      </trkpt>
      <trkpt lat="42.3138420" lon="-4.0504320">
        <ele>856.6</ele>
        <time>2021-10-01T10:54:32Z</time>
      </trkpt>
      <trkpt lat="42.3138030" lon="-4.0506000">
        <ele>855.8</ele>
        <time>2021-10-01T10:54:34Z</time>
      </trkpt>
      <trkpt lat="42.3137740" lon="-4.0507820">
        <ele>855.2</ele>
        <time>2021-10-01T10:54:36Z</time>
      </trkpt>
      <trkpt lat="42.3137580" lon="-4.0509790">
        <ele>853.8</ele>
        <time>2021-10-01T10:54:38Z</time>
      </trkpt>
      <trkpt lat="42.3137570" lon="-4.0511810">
        <ele>852.0</ele>
        <time>2021-10-01T10:54:40Z</time>
      </trkpt>
      <trkpt lat="42.3137620" lon="-4.0512800">
        <ele>851.0</ele>
        <time>2021-10-01T10:54:41Z</time>
      </trkpt>
      <trkpt lat="42.3137800" lon="-4.0514740">
        <ele>850.0</ele>
        <time>2021-10-01T10:54:43Z</time>
      </trkpt>
      <trkpt lat="42.3138050" lon="-4.0516570">
        <ele>849.4</ele>
        <time>2021-10-01T10:54:45Z</time>
      </trkpt>
      <trkpt lat="42.3138460" lon="-4.0519050">
        <ele>849.2</ele>
        <time>2021-10-01T10:54:48Z</time>
      </trkpt>
      <trkpt lat="42.3138570" lon="-4.0520690">
        <ele>848.8</ele>
        <time>2021-10-01T10:54:50Z</time>
      </trkpt>
      <trkpt lat="42.3138750" lon="-4.0522330">
        <ele>848.8</ele>
        <time>2021-10-01T10:54:52Z</time>
      </trkpt>
      <trkpt lat="42.3138950" lon="-4.0523900">
        <ele>849.0</ele>
        <time>2021-10-01T10:54:54Z</time>
      </trkpt>
      <trkpt lat="42.3139160" lon="-4.0525440">
        <ele>849.2</ele>
        <time>2021-10-01T10:54:56Z</time>
      </trkpt>
      <trkpt lat="42.3139330" lon="-4.0526920">
        <ele>849.2</ele>
        <time>2021-10-01T10:54:58Z</time>
      </trkpt>
      <trkpt lat="42.3139580" lon="-4.0529030">
        <ele>849.6</ele>
        <time>2021-10-01T10:55:01Z</time>
      </trkpt>
      <trkpt lat="42.3139680" lon="-4.0530850">
        <ele>850.2</ele>
        <time>2021-10-01T10:55:04Z</time>
      </trkpt>
      <trkpt lat="42.3139710" lon="-4.0531430">
        <ele>850.4</ele>
        <time>2021-10-01T10:55:05Z</time>
      </trkpt>
      <trkpt lat="42.3139810" lon="-4.0532550">
        <ele>851.0</ele>
        <time>2021-10-01T10:55:07Z</time>
      </trkpt>
      <trkpt lat="42.3140180" lon="-4.0534040">
        <ele>851.8</ele>
        <time>2021-10-01T10:55:10Z</time>
      </trkpt>
      <trkpt lat="42.3140310" lon="-4.0535420">
        <ele>852.4</ele>
        <time>2021-10-01T10:55:13Z</time>
      </trkpt>
      <trkpt lat="42.3140120" lon="-4.0536890">
        <ele>853.6</ele>
        <time>2021-10-01T10:55:16Z</time>
      </trkpt>
      <trkpt lat="42.3139980" lon="-4.0537420">
        <ele>854.2</ele>
        <time>2021-10-01T10:55:17Z</time>
      </trkpt>
      <trkpt lat="42.3139460" lon="-4.0539050">
        <ele>854.8</ele>
        <time>2021-10-01T10:55:20Z</time>
      </trkpt>
      <trkpt lat="42.3139310" lon="-4.0539600">
        <ele>855.0</ele>
        <time>2021-10-01T10:55:21Z</time>
      </trkpt>
      <trkpt lat="42.3139050" lon="-4.0540750">
        <ele>855.2</ele>
        <time>2021-10-01T10:55:23Z</time>
      </trkpt>
      <trkpt lat="42.3137410" lon="-4.0547600">
        <ele>855.2</ele>
        <time>2021-10-01T10:55:34Z</time>
      </trkpt>
      <trkpt lat="42.3136200" lon="-4.0555250">
        <ele>854.6</ele>
        <time>2021-10-01T10:55:45Z</time>
      </trkpt>
      <trkpt lat="42.3134860" lon="-4.0561640">
        <ele>854.4</ele>
        <time>2021-10-01T10:55:54Z</time>
      </trkpt>
      <trkpt lat="42.3134070" lon="-4.0565940">
        <ele>854.0</ele>
        <time>2021-10-01T10:56:00Z</time>
      </trkpt>
      <trkpt lat="42.3133350" lon="-4.0568000">
        <ele>854.2</ele>
        <time>2021-10-01T10:56:03Z</time>
      </trkpt>
      <trkpt lat="42.3131610" lon="-4.0572790">
        <ele>854.0</ele>
        <time>2021-10-01T10:56:10Z</time>
      </trkpt>
      <trkpt lat="42.3129960" lon="-4.0577230">
        <ele>854.2</ele>
        <time>2021-10-01T10:56:17Z</time>
      </trkpt>
      <trkpt lat="42.3128200" lon="-4.0583640">
        <ele>855.2</ele>
        <time>2021-10-01T10:56:28Z</time>
      </trkpt>
      <trkpt lat="42.3127900" lon="-4.0584850">
        <ele>855.8</ele>
        <time>2021-10-01T10:56:30Z</time>
      </trkpt>
      <trkpt lat="42.3127580" lon="-4.0586000">
        <ele>856.2</ele>
        <time>2021-10-01T10:56:32Z</time>
      </trkpt>
      <trkpt lat="42.3127140" lon="-4.0587660">
        <ele>856.8</ele>
        <time>2021-10-01T10:56:35Z</time>
      </trkpt>
      <trkpt lat="42.3126500" lon="-4.0589400">
        <ele>857.6</ele>
        <time>2021-10-01T10:56:38Z</time>
      </trkpt>
      <trkpt lat="42.3124420" lon="-4.0594150">
        <ele>857.8</ele>
        <time>2021-10-01T10:56:46Z</time>
      </trkpt>
      <trkpt lat="42.3122210" lon="-4.0601140">
        <ele>857.4</ele>
        <time>2021-10-01T10:56:57Z</time>
      </trkpt>
      <trkpt lat="42.3121180" lon="-4.0605820">
        <ele>857.4</ele>
        <time>2021-10-01T10:57:04Z</time>
      </trkpt>
      <trkpt lat="42.3117830" lon="-4.0612050">
        <ele>857.8</ele>
        <time>2021-10-01T10:57:14Z</time>
      </trkpt>
      <trkpt lat="42.3114800" lon="-4.0618400">
        <ele>858.2</ele>
        <time>2021-10-01T10:57:24Z</time>
      </trkpt>
      <trkpt lat="42.3112940" lon="-4.0623020">
        <ele>858.0</ele>
        <time>2021-10-01T10:57:31Z</time>
      </trkpt>
      <trkpt lat="42.3112310" lon="-4.0624250">
        <ele>857.8</ele>
        <time>2021-10-01T10:57:33Z</time>
      </trkpt>
      <trkpt lat="42.3111640" lon="-4.0625500">
        <ele>857.8</ele>
        <time>2021-10-01T10:57:35Z</time>
      </trkpt>
      <trkpt lat="42.3110930" lon="-4.0626810">
        <ele>857.6</ele>
        <time>2021-10-01T10:57:37Z</time>
      </trkpt>
      <trkpt lat="42.3110460" lon="-4.0628350">
        <ele>857.6</ele>
        <time>2021-10-01T10:57:39Z</time>
      </trkpt>
      <trkpt lat="42.3110190" lon="-4.0629930">
        <ele>857.6</ele>
        <time>2021-10-01T10:57:41Z</time>
      </trkpt>
      <trkpt lat="42.3109910" lon="-4.0632270">
        <ele>856.8</ele>
        <time>2021-10-01T10:57:44Z</time>
      </trkpt>
      <trkpt lat="42.3109290" lon="-4.0634490">
        <ele>856.2</ele>
        <time>2021-10-01T10:57:47Z</time>
      </trkpt>
      <trkpt lat="42.3108770" lon="-4.0635920">
        <ele>855.8</ele>
        <time>2021-10-01T10:57:49Z</time>
      </trkpt>
      <trkpt lat="42.3108550" lon="-4.0636660">
        <ele>855.8</ele>
        <time>2021-10-01T10:57:50Z</time>
      </trkpt>
      <trkpt lat="42.3108210" lon="-4.0638150">
        <ele>855.6</ele>
        <time>2021-10-01T10:57:52Z</time>
      </trkpt>
      <trkpt lat="42.3107990" lon="-4.0638900">
        <ele>855.6</ele>
        <time>2021-10-01T10:57:53Z</time>
      </trkpt>
      <trkpt lat="42.3107000" lon="-4.0641030">
        <ele>854.6</ele>
        <time>2021-10-01T10:57:56Z</time>
      </trkpt>
      <trkpt lat="42.3106730" lon="-4.0641790">
        <ele>854.6</ele>
        <time>2021-10-01T10:57:57Z</time>
      </trkpt>
      <trkpt lat="42.3106380" lon="-4.0643410">
        <ele>854.2</ele>
        <time>2021-10-01T10:57:59Z</time>
      </trkpt>
      <trkpt lat="42.3106300" lon="-4.0644960">
        <ele>853.8</ele>
        <time>2021-10-01T10:58:01Z</time>
      </trkpt>
      <trkpt lat="42.3106280" lon="-4.0645650">
        <ele>853.2</ele>
        <time>2021-10-01T10:58:02Z</time>
      </trkpt>
      <trkpt lat="42.3106290" lon="-4.0646850">
        <ele>852.8</ele>
        <time>2021-10-01T10:58:04Z</time>
      </trkpt>
      <trkpt lat="42.3106300" lon="-4.0647340">
        <ele>852.8</ele>
        <time>2021-10-01T10:58:05Z</time>
      </trkpt>
      <trkpt lat="42.3106340" lon="-4.0648890">
        <ele>852.8</ele>
        <time>2021-10-01T10:58:10Z</time>
      </trkpt>
      <trkpt lat="42.3106340" lon="-4.0649240">
        <ele>853.0</ele>
        <time>2021-10-01T10:58:11Z</time>
      </trkpt>
      <trkpt lat="42.3106320" lon="-4.0649660">
        <ele>853.0</ele>
        <time>2021-10-01T10:58:12Z</time>
      </trkpt>
      <trkpt lat="42.3106250" lon="-4.0650640">
        <ele>853.2</ele>
        <time>2021-10-01T10:58:14Z</time>
      </trkpt>
      <trkpt lat="42.3106230" lon="-4.0651170">
        <ele>853.2</ele>
        <time>2021-10-01T10:58:15Z</time>
      </trkpt>
      <trkpt lat="42.3106250" lon="-4.0652340">
        <ele>853.2</ele>
        <time>2021-10-01T10:58:17Z</time>
      </trkpt>
      <trkpt lat="42.3106350" lon="-4.0654300">
        <ele>853.4</ele>
        <time>2021-10-01T10:58:20Z</time>
      </trkpt>
      <trkpt lat="42.3107250" lon="-4.0659980">
        <ele>852.8</ele>
        <time>2021-10-01T10:58:28Z</time>
      </trkpt>
      <trkpt lat="42.3107360" lon="-4.0664150">
        <ele>851.8</ele>
        <time>2021-10-01T10:58:33Z</time>
      </trkpt>
      <trkpt lat="42.3107240" lon="-4.0665800">
        <ele>850.2</ele>
        <time>2021-10-01T10:58:35Z</time>
      </trkpt>
      <trkpt lat="42.3106990" lon="-4.0669080">
        <ele>848.8</ele>
        <time>2021-10-01T10:58:39Z</time>
      </trkpt>
      <trkpt lat="42.3106710" lon="-4.0673170">
        <ele>848.2</ele>
        <time>2021-10-01T10:58:44Z</time>
      </trkpt>
      <trkpt lat="42.3106820" lon="-4.0675350">
        <ele>848.2</ele>
        <time>2021-10-01T10:58:47Z</time>
      </trkpt>
      <trkpt lat="42.3107310" lon="-4.0677960">
        <ele>848.2</ele>
        <time>2021-10-01T10:58:51Z</time>
      </trkpt>
      <trkpt lat="42.3106630" lon="-4.0683510">
        <ele>849.2</ele>
        <time>2021-10-01T10:58:59Z</time>
      </trkpt>
      <trkpt lat="42.3106960" lon="-4.0685700">
        <ele>849.4</ele>
        <time>2021-10-01T10:59:02Z</time>
      </trkpt>
      <trkpt lat="42.3107190" lon="-4.0686970">
        <ele>849.4</ele>
        <time>2021-10-01T10:59:04Z</time>
      </trkpt>
      <trkpt lat="42.3107420" lon="-4.0688780">
        <ele>849.0</ele>
        <time>2021-10-01T10:59:07Z</time>
      </trkpt>
      <trkpt lat="42.3107460" lon="-4.0689360">
        <ele>848.8</ele>
        <time>2021-10-01T10:59:08Z</time>
      </trkpt>
      <trkpt lat="42.3107300" lon="-4.0691760">
        <ele>848.8</ele>
        <time>2021-10-01T10:59:12Z</time>
      </trkpt>
      <trkpt lat="42.3107500" lon="-4.0692950">
        <ele>847.8</ele>
        <time>2021-10-01T10:59:14Z</time>
      </trkpt>
      <trkpt lat="42.3107990" lon="-4.0694700">
        <ele>846.6</ele>
        <time>2021-10-01T10:59:18Z</time>
      </trkpt>
      <trkpt lat="42.3108290" lon="-4.0696500">
        <ele>845.6</ele>
        <time>2021-10-01T10:59:23Z</time>
      </trkpt>
      <trkpt lat="42.3108360" lon="-4.0697560">
        <ele>845.0</ele>
        <time>2021-10-01T10:59:26Z</time>
      </trkpt>
      <trkpt lat="42.3108300" lon="-4.0698130">
        <ele>844.4</ele>
        <time>2021-10-01T10:59:28Z</time>
      </trkpt>
      <trkpt lat="42.3108070" lon="-4.0699440">
        <ele>843.4</ele>
        <time>2021-10-01T10:59:34Z</time>
      </trkpt>
      <trkpt lat="42.3108080" lon="-4.0700680">
        <ele>842.4</ele>
        <time>2021-10-01T10:59:39Z</time>
      </trkpt>
      <trkpt lat="42.3108270" lon="-4.0702980">
        <ele>841.4</ele>
        <time>2021-10-01T10:59:44Z</time>
      </trkpt>
      <trkpt lat="42.3108250" lon="-4.0703570">
        <ele>841.2</ele>
        <time>2021-10-01T10:59:45Z</time>
      </trkpt>
      <trkpt lat="42.3108100" lon="-4.0704640">
        <ele>840.0</ele>
        <time>2021-10-01T10:59:47Z</time>
      </trkpt>
      <trkpt lat="42.3107960" lon="-4.0705360">
        <ele>839.6</ele>
        <time>2021-10-01T10:59:49Z</time>
      </trkpt>
      <trkpt lat="42.3107840" lon="-4.0705700">
        <ele>838.8</ele>
        <time>2021-10-01T10:59:50Z</time>
      </trkpt>
      <trkpt lat="42.3107380" lon="-4.0706370">
        <ele>837.6</ele>
        <time>2021-10-01T10:59:52Z</time>
      </trkpt>
      <trkpt lat="42.3106900" lon="-4.0707250">
        <ele>837.2</ele>
        <time>2021-10-01T10:59:54Z</time>
      </trkpt>
      <trkpt lat="42.3105900" lon="-4.0709190">
        <ele>836.4</ele>
        <time>2021-10-01T10:59:58Z</time>
      </trkpt>
      <trkpt lat="42.3105130" lon="-4.0710320">
        <ele>835.4</ele>
        <time>2021-10-01T11:00:01Z</time>
      </trkpt>
      <trkpt lat="42.3104650" lon="-4.0711050">
        <ele>834.8</ele>
        <time>2021-10-01T11:00:03Z</time>
      </trkpt>
      <trkpt lat="42.3103730" lon="-4.0713300">
        <ele>834.4</ele>
        <time>2021-10-01T11:00:08Z</time>
      </trkpt>
      <trkpt lat="42.3103000" lon="-4.0714440">
        <ele>834.4</ele>
        <time>2021-10-01T11:00:11Z</time>
      </trkpt>
      <trkpt lat="42.3102650" lon="-4.0715290">
        <ele>834.2</ele>
        <time>2021-10-01T11:00:13Z</time>
      </trkpt>
      <trkpt lat="42.3102240" lon="-4.0716400">
        <ele>834.0</ele>
        <time>2021-10-01T11:00:15Z</time>
      </trkpt>
      <trkpt lat="42.3101540" lon="-4.0718170">
        <ele>833.6</ele>
        <time>2021-10-01T11:00:18Z</time>
      </trkpt>
      <trkpt lat="42.3100340" lon="-4.0721760">
        <ele>833.4</ele>
        <time>2021-10-01T11:00:25Z</time>
      </trkpt>
      <trkpt lat="42.3099530" lon="-4.0724880">
        <ele>833.4</ele>
        <time>2021-10-01T11:00:30Z</time>
      </trkpt>
      <trkpt lat="42.3098160" lon="-4.0732420">
        <ele>833.2</ele>
        <time>2021-10-01T11:00:42Z</time>
      </trkpt>
      <trkpt lat="42.3097420" lon="-4.0736370">
        <ele>833.0</ele>
        <time>2021-10-01T11:00:48Z</time>
      </trkpt>
      <trkpt lat="42.3097150" lon="-4.0738890">
        <ele>832.8</ele>
        <time>2021-10-01T11:00:52Z</time>
      </trkpt>
      <trkpt lat="42.3097170" lon="-4.0741780">
        <ele>832.6</ele>
        <time>2021-10-01T11:00:57Z</time>
      </trkpt>
      <trkpt lat="42.3097000" lon="-4.0746840">
        <ele>832.6</ele>
        <time>2021-10-01T11:01:05Z</time>
      </trkpt>
      <trkpt lat="42.3096790" lon="-4.0748210">
        <ele>832.2</ele>
        <time>2021-10-01T11:01:07Z</time>
      </trkpt>
      <trkpt lat="42.3096140" lon="-4.0751590">
        <ele>831.8</ele>
        <time>2021-10-01T11:01:12Z</time>
      </trkpt>
      <trkpt lat="42.3095870" lon="-4.0752850">
        <ele>831.8</ele>
        <time>2021-10-01T11:01:14Z</time>
      </trkpt>
      <trkpt lat="42.3094830" lon="-4.0756770">
        <ele>831.2</ele>
        <time>2021-10-01T11:01:20Z</time>
      </trkpt>
      <trkpt lat="42.3094640" lon="-4.0757410">
        <ele>831.2</ele>
        <time>2021-10-01T11:01:21Z</time>
      </trkpt>
      <trkpt lat="42.3092460" lon="-4.0764420">
        <ele>831.0</ele>
        <time>2021-10-01T11:01:32Z</time>
      </trkpt>
      <trkpt lat="42.3091970" lon="-4.0766750">
        <ele>831.2</ele>
        <time>2021-10-01T11:01:36Z</time>
      </trkpt>
      <trkpt lat="42.3091730" lon="-4.0768330">
        <ele>831.8</ele>
        <time>2021-10-01T11:01:39Z</time>
      </trkpt>
      <trkpt lat="42.3091650" lon="-4.0769180">
        <ele>832.2</ele>
        <time>2021-10-01T11:01:41Z</time>
      </trkpt>
      <trkpt lat="42.3091610" lon="-4.0769890">
        <ele>832.4</ele>
        <time>2021-10-01T11:01:43Z</time>
      </trkpt>
      <trkpt lat="42.3091370" lon="-4.0772040">
        <ele>833.0</ele>
        <time>2021-10-01T11:01:49Z</time>
      </trkpt>
      <trkpt lat="42.3090980" lon="-4.0773840">
        <ele>833.2</ele>
        <time>2021-10-01T11:01:52Z</time>
      </trkpt>
      <trkpt lat="42.3090430" lon="-4.0775760">
        <ele>833.2</ele>
        <time>2021-10-01T11:01:55Z</time>
      </trkpt>
      <trkpt lat="42.3089680" lon="-4.0778200">
        <ele>832.2</ele>
        <time>2021-10-01T11:01:59Z</time>
      </trkpt>
      <trkpt lat="42.3089110" lon="-4.0779800">
        <ele>831.6</ele>
        <time>2021-10-01T11:02:02Z</time>
      </trkpt>
      <trkpt lat="42.3088090" lon="-4.0782480">
        <ele>831.2</ele>
        <time>2021-10-01T11:02:08Z</time>
      </trkpt>
      <trkpt lat="42.3087580" lon="-4.0783880">
        <ele>831.2</ele>
        <time>2021-10-01T11:02:12Z</time>
      </trkpt>
      <trkpt lat="42.3087240" lon="-4.0784890">
        <ele>831.8</ele>
        <time>2021-10-01T11:02:16Z</time>
      </trkpt>
      <trkpt lat="42.3086700" lon="-4.0787630">
        <ele>832.6</ele>
        <time>2021-10-01T11:02:25Z</time>
      </trkpt>
      <trkpt lat="42.3086340" lon="-4.0790120">
        <ele>832.6</ele>
        <time>2021-10-01T11:02:31Z</time>
      </trkpt>
      <trkpt lat="42.3085210" lon="-4.0794630">
        <ele>831.4</ele>
        <time>2021-10-01T11:02:38Z</time>
      </trkpt>
      <trkpt lat="42.3085080" lon="-4.0795360">
        <ele>830.8</ele>
        <time>2021-10-01T11:02:39Z</time>
      </trkpt>
      <trkpt lat="42.3084900" lon="-4.0796100">
        <ele>829.6</ele>
        <time>2021-10-01T11:02:40Z</time>
      </trkpt>
      <trkpt lat="42.3084220" lon="-4.0798360">
        <ele>828.6</ele>
        <time>2021-10-01T11:02:43Z</time>
      </trkpt>
      <trkpt lat="42.3083480" lon="-4.0800630">
        <ele>827.4</ele>
        <time>2021-10-01T11:02:46Z</time>
      </trkpt>
      <trkpt lat="42.3082600" lon="-4.0802760">
        <ele>826.2</ele>
        <time>2021-10-01T11:02:49Z</time>
      </trkpt>
      <trkpt lat="42.3080670" lon="-4.0809510">
        <ele>825.6</ele>
        <time>2021-10-01T11:02:58Z</time>
      </trkpt>
      <trkpt lat="42.3079130" lon="-4.0814090">
        <ele>826.0</ele>
        <time>2021-10-01T11:03:05Z</time>
      </trkpt>
      <trkpt lat="42.3076050" lon="-4.0820340">
        <ele>826.0</ele>
        <time>2021-10-01T11:03:15Z</time>
      </trkpt>
      <trkpt lat="42.3075450" lon="-4.0821560">
        <ele>826.0</ele>
        <time>2021-10-01T11:03:17Z</time>
      </trkpt>
      <trkpt lat="42.3074590" lon="-4.0823250">
        <ele>826.0</ele>
        <time>2021-10-01T11:03:20Z</time>
      </trkpt>
      <trkpt lat="42.3073130" lon="-4.0826460">
        <ele>826.0</ele>
        <time>2021-10-01T11:03:26Z</time>
      </trkpt>
      <trkpt lat="42.3072760" lon="-4.0827460">
        <ele>826.0</ele>
        <time>2021-10-01T11:03:28Z</time>
      </trkpt>
      <trkpt lat="42.3071610" lon="-4.0830800">
        <ele>826.2</ele>
        <time>2021-10-01T11:03:35Z</time>
      </trkpt>
      <trkpt lat="42.3071180" lon="-4.0832010">
        <ele>826.2</ele>
        <time>2021-10-01T11:03:37Z</time>
      </trkpt>
      <trkpt lat="42.3070690" lon="-4.0833320">
        <ele>826.2</ele>
        <time>2021-10-01T11:03:39Z</time>
      </trkpt>
      <trkpt lat="42.3070160" lon="-4.0834640">
        <ele>826.2</ele>
        <time>2021-10-01T11:03:41Z</time>
      </trkpt>
      <trkpt lat="42.3069380" lon="-4.0836510">
        <ele>826.2</ele>
        <time>2021-10-01T11:03:44Z</time>
      </trkpt>
      <trkpt lat="42.3065940" lon="-4.0842330">
        <ele>825.4</ele>
        <time>2021-10-01T11:03:54Z</time>
      </trkpt>
      <trkpt lat="42.3064850" lon="-4.0844020">
        <ele>825.2</ele>
        <time>2021-10-01T11:03:57Z</time>
      </trkpt>
      <trkpt lat="42.3064040" lon="-4.0845030">
        <ele>825.2</ele>
        <time>2021-10-01T11:03:59Z</time>
      </trkpt>
      <trkpt lat="42.3059960" lon="-4.0849860">
        <ele>824.6</ele>
        <time>2021-10-01T11:04:09Z</time>
      </trkpt>
      <trkpt lat="42.3056150" lon="-4.0855890">
        <ele>824.4</ele>
        <time>2021-10-01T11:04:20Z</time>
      </trkpt>
      <trkpt lat="42.3055440" lon="-4.0856860">
        <ele>824.4</ele>
        <time>2021-10-01T11:04:22Z</time>
      </trkpt>
      <trkpt lat="42.3051040" lon="-4.0861890">
        <ele>824.4</ele>
        <time>2021-10-01T11:04:34Z</time>
      </trkpt>
      <trkpt lat="42.3048970" lon="-4.0864210">
        <ele>824.6</ele>
        <time>2021-10-01T11:04:40Z</time>
      </trkpt>
      <trkpt lat="42.3048060" lon="-4.0865550">
        <ele>825.2</ele>
        <time>2021-10-01T11:04:43Z</time>
      </trkpt>
      <trkpt lat="42.3047460" lon="-4.0866550">
        <ele>825.4</ele>
        <time>2021-10-01T11:04:45Z</time>
      </trkpt>
      <trkpt lat="42.3046590" lon="-4.0868080">
        <ele>825.8</ele>
        <time>2021-10-01T11:04:48Z</time>
      </trkpt>
      <trkpt lat="42.3045600" lon="-4.0869710">
        <ele>825.8</ele>
        <time>2021-10-01T11:04:51Z</time>
      </trkpt>
      <trkpt lat="42.3043220" lon="-4.0872910">
        <ele>825.8</ele>
        <time>2021-10-01T11:04:57Z</time>
      </trkpt>
      <trkpt lat="42.3042090" lon="-4.0874330">
        <ele>825.6</ele>
        <time>2021-10-01T11:05:00Z</time>
      </trkpt>
      <trkpt lat="42.3041070" lon="-4.0875790">
        <ele>825.2</ele>
        <time>2021-10-01T11:05:03Z</time>
      </trkpt>
      <trkpt lat="42.3040370" lon="-4.0876650">
        <ele>825.0</ele>
        <time>2021-10-01T11:05:05Z</time>
      </trkpt>
      <trkpt lat="42.3039510" lon="-4.0877110">
        <ele>824.8</ele>
        <time>2021-10-01T11:05:07Z</time>
      </trkpt>
      <trkpt lat="42.3038530" lon="-4.0876840">
        <ele>824.6</ele>
        <time>2021-10-01T11:05:09Z</time>
      </trkpt>
      <trkpt lat="42.3037570" lon="-4.0876410">
        <ele>824.4</ele>
        <time>2021-10-01T11:05:11Z</time>
      </trkpt>
      <trkpt lat="42.3037110" lon="-4.0876220">
        <ele>824.4</ele>
        <time>2021-10-01T11:05:12Z</time>
      </trkpt>
      <trkpt lat="42.3036340" lon="-4.0875920">
        <ele>824.2</ele>
        <time>2021-10-01T11:05:14Z</time>
      </trkpt>
      <trkpt lat="42.3034530" lon="-4.0875200">
        <ele>824.2</ele>
        <time>2021-10-01T11:05:20Z</time>
      </trkpt>
      <trkpt lat="42.3032260" lon="-4.0874340">
        <ele>823.8</ele>
        <time>2021-10-01T11:05:25Z</time>
      </trkpt>
      <trkpt lat="42.3031770" lon="-4.0874220">
        <ele>823.8</ele>
        <time>2021-10-01T11:05:26Z</time>
      </trkpt>
      <trkpt lat="42.3030840" lon="-4.0874370">
        <ele>823.4</ele>
        <time>2021-10-01T11:05:28Z</time>
      </trkpt>
      <trkpt lat="42.3030440" lon="-4.0874680">
        <ele>823.0</ele>
        <time>2021-10-01T11:05:29Z</time>
      </trkpt>
      <trkpt lat="42.3029950" lon="-4.0875760">
        <ele>822.6</ele>
        <time>2021-10-01T11:05:31Z</time>
      </trkpt>
      <trkpt lat="42.3029750" lon="-4.0876420">
        <ele>822.0</ele>
        <time>2021-10-01T11:05:32Z</time>
      </trkpt>
      <trkpt lat="42.3029500" lon="-4.0877070">
        <ele>821.6</ele>
        <time>2021-10-01T11:05:33Z</time>
      </trkpt>
      <trkpt lat="42.3028970" lon="-4.0878440">
        <ele>820.8</ele>
        <time>2021-10-01T11:05:35Z</time>
      </trkpt>
      <trkpt lat="42.3028700" lon="-4.0879170">
        <ele>820.4</ele>
        <time>2021-10-01T11:05:36Z</time>
      </trkpt>
      <trkpt lat="42.3028130" lon="-4.0880670">
        <ele>819.6</ele>
        <time>2021-10-01T11:05:38Z</time>
      </trkpt>
      <trkpt lat="42.3027540" lon="-4.0882280">
        <ele>818.2</ele>
        <time>2021-10-01T11:05:40Z</time>
      </trkpt>
      <trkpt lat="42.3026900" lon="-4.0883980">
        <ele>817.6</ele>
        <time>2021-10-01T11:05:42Z</time>
      </trkpt>
      <trkpt lat="42.3026580" lon="-4.0884860">
        <ele>817.2</ele>
        <time>2021-10-01T11:05:43Z</time>
      </trkpt>
      <trkpt lat="42.3025630" lon="-4.0887410">
        <ele>816.6</ele>
        <time>2021-10-01T11:05:46Z</time>
      </trkpt>
      <trkpt lat="42.3023750" lon="-4.0892360">
        <ele>816.2</ele>
        <time>2021-10-01T11:05:52Z</time>
      </trkpt>
      <trkpt lat="42.3021120" lon="-4.0899520">
        <ele>815.8</ele>
        <time>2021-10-01T11:06:01Z</time>
      </trkpt>
      <trkpt lat="42.3018480" lon="-4.0906450">
        <ele>815.6</ele>
        <time>2021-10-01T11:06:10Z</time>
      </trkpt>
      <trkpt lat="42.3016410" lon="-4.0911370">
        <ele>815.6</ele>
        <time>2021-10-01T11:06:17Z</time>
      </trkpt>
      <trkpt lat="42.3015660" lon="-4.0912540">
        <ele>815.6</ele>
        <time>2021-10-01T11:06:19Z</time>
      </trkpt>
      <trkpt lat="42.3013680" lon="-4.0914330">
        <ele>815.8</ele>
        <time>2021-10-01T11:06:23Z</time>
      </trkpt>
      <trkpt lat="42.3008330" lon="-4.0917590">
        <ele>815.4</ele>
        <time>2021-10-01T11:06:32Z</time>
      </trkpt>
      <trkpt lat="42.3006510" lon="-4.0918770">
        <ele>815.0</ele>
        <time>2021-10-01T11:06:35Z</time>
      </trkpt>
      <trkpt lat="42.3001070" lon="-4.0922300">
        <ele>814.0</ele>
        <time>2021-10-01T11:06:44Z</time>
      </trkpt>
      <trkpt lat="42.2996920" lon="-4.0924820">
        <ele>812.8</ele>
        <time>2021-10-01T11:06:51Z</time>
      </trkpt>
      <trkpt lat="42.2991840" lon="-4.0928000">
        <ele>812.6</ele>
        <time>2021-10-01T11:07:00Z</time>
      </trkpt>
      <trkpt lat="42.2986990" lon="-4.0931450">
        <ele>813.4</ele>
        <time>2021-10-01T11:07:09Z</time>
      </trkpt>
      <trkpt lat="42.2982190" lon="-4.0935380">
        <ele>813.6</ele>
        <time>2021-10-01T11:07:18Z</time>
      </trkpt>
      <trkpt lat="42.2977360" lon="-4.0939370">
        <ele>813.6</ele>
        <time>2021-10-01T11:07:27Z</time>
      </trkpt>
      <trkpt lat="42.2973360" lon="-4.0942630">
        <ele>813.8</ele>
        <time>2021-10-01T11:07:34Z</time>
      </trkpt>
      <trkpt lat="42.2971620" lon="-4.0944050">
        <ele>813.6</ele>
        <time>2021-10-01T11:07:37Z</time>
      </trkpt>
      <trkpt lat="42.2966430" lon="-4.0948240">
        <ele>812.6</ele>
        <time>2021-10-01T11:07:46Z</time>
      </trkpt>
      <trkpt lat="42.2961390" lon="-4.0952370">
        <ele>812.4</ele>
        <time>2021-10-01T11:07:55Z</time>
      </trkpt>
      <trkpt lat="42.2957620" lon="-4.0955440">
        <ele>812.6</ele>
        <time>2021-10-01T11:08:02Z</time>
      </trkpt>
      <trkpt lat="42.2954000" lon="-4.0958400">
        <ele>812.8</ele>
        <time>2021-10-01T11:08:09Z</time>
      </trkpt>
      <trkpt lat="42.2949760" lon="-4.0962890">
        <ele>813.2</ele>
        <time>2021-10-01T11:08:18Z</time>
      </trkpt>
      <trkpt lat="42.2945510" lon="-4.0968510">
        <ele>812.8</ele>
        <time>2021-10-01T11:08:28Z</time>
      </trkpt>
      <trkpt lat="42.2943670" lon="-4.0970830">
        <ele>812.4</ele>
        <time>2021-10-01T11:08:32Z</time>
      </trkpt>
      <trkpt lat="42.2939420" lon="-4.0976400">
        <ele>812.0</ele>
        <time>2021-10-01T11:08:41Z</time>
      </trkpt>
      <trkpt lat="42.2938940" lon="-4.0977030">
        <ele>811.2</ele>
        <time>2021-10-01T11:08:42Z</time>
      </trkpt>
      <trkpt lat="42.2937470" lon="-4.0978820">
        <ele>810.0</ele>
        <time>2021-10-01T11:08:45Z</time>
      </trkpt>
      <trkpt lat="42.2933380" lon="-4.0984300">
        <ele>809.2</ele>
        <time>2021-10-01T11:08:54Z</time>
      </trkpt>
      <trkpt lat="42.2932480" lon="-4.0985290">
        <ele>809.2</ele>
        <time>2021-10-01T11:08:56Z</time>
      </trkpt>
      <trkpt lat="42.2931130" lon="-4.0986580">
        <ele>809.4</ele>
        <time>2021-10-01T11:08:59Z</time>
      </trkpt>
      <trkpt lat="42.2930320" lon="-4.0987280">
        <ele>809.6</ele>
        <time>2021-10-01T11:09:02Z</time>
      </trkpt>
      <trkpt lat="42.2929880" lon="-4.0987640">
        <ele>809.8</ele>
        <time>2021-10-01T11:09:04Z</time>
      </trkpt>
      <trkpt lat="42.2928840" lon="-4.0988610">
        <ele>810.2</ele>
        <time>2021-10-01T11:09:08Z</time>
      </trkpt>
      <trkpt lat="42.2928250" lon="-4.0989390">
        <ele>810.2</ele>
        <time>2021-10-01T11:09:10Z</time>
      </trkpt>
      <trkpt lat="42.2925430" lon="-4.0995830">
        <ele>810.0</ele>
        <time>2021-10-01T11:09:23Z</time>
      </trkpt>
      <trkpt lat="42.2924130" lon="-4.0999250">
        <ele>810.0</ele>
        <time>2021-10-01T11:09:29Z</time>
      </trkpt>
      <trkpt lat="42.2923000" lon="-4.1002220">
        <ele>810.0</ele>
        <time>2021-10-01T11:09:34Z</time>
      </trkpt>
      <trkpt lat="42.2920580" lon="-4.1008910">
        <ele>809.6</ele>
        <time>2021-10-01T11:09:45Z</time>
      </trkpt>
      <trkpt lat="42.2918980" lon="-4.1012850">
        <ele>809.6</ele>
        <time>2021-10-01T11:09:51Z</time>
      </trkpt>
      <trkpt lat="42.2916560" lon="-4.1020030">
        <ele>809.4</ele>
        <time>2021-10-01T11:10:01Z</time>
      </trkpt>
      <trkpt lat="42.2916390" lon="-4.1020800">
        <ele>809.4</ele>
        <time>2021-10-01T11:10:02Z</time>
      </trkpt>
      <trkpt lat="42.2915590" lon="-4.1026220">
        <ele>809.2</ele>
        <time>2021-10-01T11:10:09Z</time>
      </trkpt>
      <trkpt lat="42.2915320" lon="-4.1029210">
        <ele>809.2</ele>
        <time>2021-10-01T11:10:13Z</time>
      </trkpt>
      <trkpt lat="42.2915320" lon="-4.1029940">
        <ele>809.0</ele>
        <time>2021-10-01T11:10:14Z</time>
      </trkpt>
      <trkpt lat="42.2915380" lon="-4.1032900">
        <ele>807.8</ele>
        <time>2021-10-01T11:10:18Z</time>
      </trkpt>
      <trkpt lat="42.2915680" lon="-4.1040310">
        <ele>807.2</ele>
        <time>2021-10-01T11:10:28Z</time>
      </trkpt>
      <trkpt lat="42.2915960" lon="-4.1048030">
        <ele>806.8</ele>
        <time>2021-10-01T11:10:38Z</time>
      </trkpt>
      <trkpt lat="42.2916010" lon="-4.1048810">
        <ele>806.8</ele>
        <time>2021-10-01T11:10:39Z</time>
      </trkpt>
      <trkpt lat="42.2916200" lon="-4.1053600">
        <ele>805.8</ele>
        <time>2021-10-01T11:10:45Z</time>
      </trkpt>
      <trkpt lat="42.2916420" lon="-4.1059450">
        <ele>805.0</ele>
        <time>2021-10-01T11:10:52Z</time>
      </trkpt>
      <trkpt lat="42.2916610" lon="-4.1063850">
        <ele>804.6</ele>
        <time>2021-10-01T11:10:57Z</time>
      </trkpt>
      <trkpt lat="42.2916850" lon="-4.1069950">
        <ele>803.6</ele>
        <time>2021-10-01T11:11:04Z</time>
      </trkpt>
      <trkpt lat="42.2917090" lon="-4.1077180">
        <ele>803.2</ele>
        <time>2021-10-01T11:11:12Z</time>
      </trkpt>
      <trkpt lat="42.2917260" lon="-4.1082610">
        <ele>802.2</ele>
        <time>2021-10-01T11:11:18Z</time>
      </trkpt>
      <trkpt lat="42.2917420" lon="-4.1087210">
        <ele>801.4</ele>
        <time>2021-10-01T11:11:23Z</time>
      </trkpt>
      <trkpt lat="42.2917480" lon="-4.1089050">
        <ele>800.8</ele>
        <time>2021-10-01T11:11:25Z</time>
      </trkpt>
      <trkpt lat="42.2917710" lon="-4.1094430">
        <ele>799.8</ele>
        <time>2021-10-01T11:11:31Z</time>
      </trkpt>
      <trkpt lat="42.2918070" lon="-4.1102410">
        <ele>799.0</ele>
        <time>2021-10-01T11:11:40Z</time>
      </trkpt>
      <trkpt lat="42.2918090" lon="-4.1103300">
        <ele>798.8</ele>
        <time>2021-10-01T11:11:41Z</time>
      </trkpt>
      <trkpt lat="42.2918410" lon="-4.1110320">
        <ele>798.6</ele>
        <time>2021-10-01T11:11:49Z</time>
      </trkpt>
      <trkpt lat="42.2918670" lon="-4.1118110">
        <ele>798.4</ele>
        <time>2021-10-01T11:11:58Z</time>
      </trkpt>
      <trkpt lat="42.2918920" lon="-4.1125630">
        <ele>798.6</ele>
        <time>2021-10-01T11:12:07Z</time>
      </trkpt>
      <trkpt lat="42.2919200" lon="-4.1132060">
        <ele>798.6</ele>
        <time>2021-10-01T11:12:15Z</time>
      </trkpt>
      <trkpt lat="42.2919430" lon="-4.1138680">
        <ele>798.6</ele>
        <time>2021-10-01T11:12:23Z</time>
      </trkpt>
      <trkpt lat="42.2919630" lon="-4.1142960">
        <ele>798.4</ele>
        <time>2021-10-01T11:12:28Z</time>
      </trkpt>
      <trkpt lat="42.2919720" lon="-4.1145550">
        <ele>798.4</ele>
        <time>2021-10-01T11:12:31Z</time>
      </trkpt>
      <trkpt lat="42.2919930" lon="-4.1149620">
        <ele>798.4</ele>
        <time>2021-10-01T11:12:36Z</time>
      </trkpt>
      <trkpt lat="42.2920100" lon="-4.1157600">
        <ele>798.6</ele>
        <time>2021-10-01T11:12:46Z</time>
      </trkpt>
      <trkpt lat="42.2920270" lon="-4.1162320">
        <ele>799.0</ele>
        <time>2021-10-01T11:12:52Z</time>
      </trkpt>
      <trkpt lat="42.2920540" lon="-4.1169830">
        <ele>799.4</ele>
        <time>2021-10-01T11:13:02Z</time>
      </trkpt>
      <trkpt lat="42.2920820" lon="-4.1177380">
        <ele>799.6</ele>
        <time>2021-10-01T11:13:12Z</time>
      </trkpt>
      <trkpt lat="42.2921000" lon="-4.1182700">
        <ele>799.6</ele>
        <time>2021-10-01T11:13:19Z</time>
      </trkpt>
      <trkpt lat="42.2921120" lon="-4.1185800">
        <ele>800.0</ele>
        <time>2021-10-01T11:13:23Z</time>
      </trkpt>
      <trkpt lat="42.2921310" lon="-4.1191370">
        <ele>799.8</ele>
        <time>2021-10-01T11:13:30Z</time>
      </trkpt>
      <trkpt lat="42.2921410" lon="-4.1193760">
        <ele>799.8</ele>
        <time>2021-10-01T11:13:33Z</time>
      </trkpt>
      <trkpt lat="42.2921520" lon="-4.1197050">
        <ele>799.6</ele>
        <time>2021-10-01T11:13:37Z</time>
      </trkpt>
      <trkpt lat="42.2921710" lon="-4.1202980">
        <ele>799.2</ele>
        <time>2021-10-01T11:13:44Z</time>
      </trkpt>
      <trkpt lat="42.2921890" lon="-4.1207300">
        <ele>799.0</ele>
        <time>2021-10-01T11:13:49Z</time>
      </trkpt>
      <trkpt lat="42.2922070" lon="-4.1212560">
        <ele>797.8</ele>
        <time>2021-10-01T11:13:55Z</time>
      </trkpt>
      <trkpt lat="42.2922250" lon="-4.1217970">
        <ele>797.2</ele>
        <time>2021-10-01T11:14:01Z</time>
      </trkpt>
      <trkpt lat="42.2922340" lon="-4.1220750">
        <ele>796.8</ele>
        <time>2021-10-01T11:14:04Z</time>
      </trkpt>
      <trkpt lat="42.2922420" lon="-4.1222610">
        <ele>796.6</ele>
        <time>2021-10-01T11:14:06Z</time>
      </trkpt>
      <trkpt lat="42.2922680" lon="-4.1229100">
        <ele>795.6</ele>
        <time>2021-10-01T11:14:13Z</time>
      </trkpt>
      <trkpt lat="42.2922870" lon="-4.1234470">
        <ele>794.6</ele>
        <time>2021-10-01T11:14:19Z</time>
      </trkpt>
      <trkpt lat="42.2922920" lon="-4.1236890">
        <ele>794.2</ele>
        <time>2021-10-01T11:14:22Z</time>
      </trkpt>
      <trkpt lat="42.2922970" lon="-4.1238360">
        <ele>794.2</ele>
        <time>2021-10-01T11:14:24Z</time>
      </trkpt>
      <trkpt lat="42.2922990" lon="-4.1240420">
        <ele>794.2</ele>
        <time>2021-10-01T11:14:27Z</time>
      </trkpt>
      <trkpt lat="42.2923010" lon="-4.1241630">
        <ele>794.4</ele>
        <time>2021-10-01T11:14:29Z</time>
      </trkpt>
      <trkpt lat="42.2922870" lon="-4.1242790">
        <ele>795.0</ele>
        <time>2021-10-01T11:14:31Z</time>
      </trkpt>
      <trkpt lat="42.2922680" lon="-4.1243820">
        <ele>795.6</ele>
        <time>2021-10-01T11:14:33Z</time>
      </trkpt>
      <trkpt lat="42.2922590" lon="-4.1244200">
        <ele>795.8</ele>
        <time>2021-10-01T11:14:34Z</time>
      </trkpt>
      <trkpt lat="42.2922260" lon="-4.1245650">
        <ele>796.0</ele>
        <time>2021-10-01T11:14:38Z</time>
      </trkpt>
      <trkpt lat="42.2921580" lon="-4.1249400">
        <ele>796.0</ele>
        <time>2021-10-01T11:14:46Z</time>
      </trkpt>
      <trkpt lat="42.2921510" lon="-4.1249960">
        <ele>795.8</ele>
        <time>2021-10-01T11:14:47Z</time>
      </trkpt>
      <trkpt lat="42.2921310" lon="-4.1251260">
        <ele>795.4</ele>
        <time>2021-10-01T11:14:49Z</time>
      </trkpt>
      <trkpt lat="42.2921120" lon="-4.1252740">
        <ele>795.2</ele>
        <time>2021-10-01T11:14:51Z</time>
      </trkpt>
      <trkpt lat="42.2921050" lon="-4.1253510">
        <ele>795.2</ele>
        <time>2021-10-01T11:14:52Z</time>
      </trkpt>
      <trkpt lat="42.2920970" lon="-4.1255050">
        <ele>795.0</ele>
        <time>2021-10-01T11:14:54Z</time>
      </trkpt>
      <trkpt lat="42.2920880" lon="-4.1256570">
        <ele>794.4</ele>
        <time>2021-10-01T11:14:56Z</time>
      </trkpt>
      <trkpt lat="42.2921010" lon="-4.1263930">
        <ele>793.6</ele>
        <time>2021-10-01T11:15:06Z</time>
      </trkpt>
      <trkpt lat="42.2921870" lon="-4.1269060">
        <ele>793.6</ele>
        <time>2021-10-01T11:15:14Z</time>
      </trkpt>
      <trkpt lat="42.2922230" lon="-4.1271420">
        <ele>794.2</ele>
        <time>2021-10-01T11:15:18Z</time>
      </trkpt>
      <trkpt lat="42.2924020" lon="-4.1273550">
        <ele>794.6</ele>
        <time>2021-10-01T11:15:25Z</time>
      </trkpt>
      <trkpt lat="42.2924320" lon="-4.1274900">
        <ele>796.0</ele>
        <time>2021-10-01T11:15:28Z</time>
      </trkpt>
      <trkpt lat="42.2924420" lon="-4.1275350">
        <ele>796.2</ele>
        <time>2021-10-01T11:15:29Z</time>
      </trkpt>
      <trkpt lat="42.2924650" lon="-4.1276600">
        <ele>796.8</ele>
        <time>2021-10-01T11:15:32Z</time>
      </trkpt>
      <trkpt lat="42.2924840" lon="-4.1277450">
        <ele>797.0</ele>
        <time>2021-10-01T11:15:34Z</time>
      </trkpt>
      <trkpt lat="42.2925430" lon="-4.1280340">
        <ele>798.0</ele>
        <time>2021-10-01T11:15:42Z</time>
      </trkpt>
      <trkpt lat="42.2925730" lon="-4.1281920">
        <ele>799.2</ele>
        <time>2021-10-01T11:15:46Z</time>
      </trkpt>
      <trkpt lat="42.2925880" lon="-4.1282810">
        <ele>799.2</ele>
        <time>2021-10-01T11:15:48Z</time>
      </trkpt>
      <trkpt lat="42.2925930" lon="-4.1283780">
        <ele>799.4</ele>
        <time>2021-10-01T11:15:50Z</time>
      </trkpt>
      <trkpt lat="42.2925760" lon="-4.1285260">
        <ele>799.4</ele>
        <time>2021-10-01T11:15:53Z</time>
      </trkpt>
      <trkpt lat="42.2925230" lon="-4.1286540">
        <ele>799.2</ele>
        <time>2021-10-01T11:15:56Z</time>
      </trkpt>
      <trkpt lat="42.2924380" lon="-4.1288160">
        <ele>798.8</ele>
        <time>2021-10-01T11:16:00Z</time>
      </trkpt>
      <trkpt lat="42.2923510" lon="-4.1289050">
        <ele>798.6</ele>
        <time>2021-10-01T11:16:03Z</time>
      </trkpt>
      <trkpt lat="42.2922530" lon="-4.1290160">
        <ele>798.6</ele>
        <time>2021-10-01T11:16:11Z</time>
      </trkpt>
      <trkpt lat="42.2922590" lon="-4.1290350">
        <ele>799.4</ele>
        <time>2021-10-01T11:17:05Z</time>
      </trkpt>
      <trkpt lat="42.2922690" lon="-4.1290530">
        <ele>799.4</ele>
        <time>2021-10-01T11:17:06Z</time>
      </trkpt>
      <trkpt lat="42.2922920" lon="-4.1291140">
        <ele>799.4</ele>
        <time>2021-10-01T11:17:08Z</time>
      </trkpt>
      <trkpt lat="42.2923010" lon="-4.1291940">
        <ele>799.4</ele>
        <time>2021-10-01T11:17:10Z</time>
      </trkpt>
      <trkpt lat="42.2923080" lon="-4.1292440">
        <ele>799.4</ele>
        <time>2021-10-01T11:17:11Z</time>
      </trkpt>
      <trkpt lat="42.2923170" lon="-4.1293380">
        <ele>799.4</ele>
        <time>2021-10-01T11:17:13Z</time>
      </trkpt>
      <trkpt lat="42.2923170" lon="-4.1294350">
        <ele>799.4</ele>
        <time>2021-10-01T11:17:15Z</time>
      </trkpt>
      <trkpt lat="42.2923170" lon="-4.1295690">
        <ele>799.4</ele>
        <time>2021-10-01T11:17:18Z</time>
      </trkpt>
      <trkpt lat="42.2923200" lon="-4.1297440">
        <ele>799.8</ele>
        <time>2021-10-01T11:17:22Z</time>
      </trkpt>
      <trkpt lat="42.2923300" lon="-4.1299560">
        <ele>800.6</ele>
        <time>2021-10-01T11:17:27Z</time>
      </trkpt>
      <trkpt lat="42.2923700" lon="-4.1301930">
        <ele>801.8</ele>
        <time>2021-10-01T11:17:33Z</time>
      </trkpt>
      <trkpt lat="42.2923940" lon="-4.1303220">
        <ele>802.6</ele>
        <time>2021-10-01T11:17:36Z</time>
      </trkpt>
      <trkpt lat="42.2924170" lon="-4.1304550">
        <ele>803.0</ele>
        <time>2021-10-01T11:17:39Z</time>
      </trkpt>
      <trkpt lat="42.2924280" lon="-4.1305860">
        <ele>803.8</ele>
        <time>2021-10-01T11:17:42Z</time>
      </trkpt>
      <trkpt lat="42.2924300" lon="-4.1306280">
        <ele>804.4</ele>
        <time>2021-10-01T11:17:43Z</time>
      </trkpt>
      <trkpt lat="42.2924340" lon="-4.1307520">
        <ele>805.0</ele>
        <time>2021-10-01T11:17:46Z</time>
      </trkpt>
      <trkpt lat="42.2924360" lon="-4.1308350">
        <ele>805.4</ele>
        <time>2021-10-01T11:17:48Z</time>
      </trkpt>
      <trkpt lat="42.2924450" lon="-4.1309620">
        <ele>806.4</ele>
        <time>2021-10-01T11:17:51Z</time>
      </trkpt>
      <trkpt lat="42.2924530" lon="-4.1310550">
        <ele>807.6</ele>
        <time>2021-10-01T11:17:53Z</time>
      </trkpt>
      <trkpt lat="42.2924630" lon="-4.1311980">
        <ele>808.0</ele>
        <time>2021-10-01T11:17:56Z</time>
      </trkpt>
      <trkpt lat="42.2924740" lon="-4.1312840">
        <ele>808.0</ele>
        <time>2021-10-01T11:17:58Z</time>
      </trkpt>
      <trkpt lat="42.2924690" lon="-4.1313650">
        <ele>808.2</ele>
        <time>2021-10-01T11:18:00Z</time>
      </trkpt>
      <trkpt lat="42.2924570" lon="-4.1314380">
        <ele>808.4</ele>
        <time>2021-10-01T11:18:03Z</time>
      </trkpt>
      <trkpt lat="42.2924570" lon="-4.1314430">
        <ele>808.4</ele>
        <time>2021-10-01T11:18:04Z</time>
      </trkpt>
      <trkpt lat="42.2924590" lon="-4.1314580">
        <ele>809.0</ele>
        <time>2021-10-01T11:18:46Z</time>
      </trkpt>
      <trkpt lat="42.2924660" lon="-4.1314790">
        <ele>809.0</ele>
        <time>2021-10-01T11:18:47Z</time>
      </trkpt>
      <trkpt lat="42.2924690" lon="-4.1315050">
        <ele>809.2</ele>
        <time>2021-10-01T11:18:48Z</time>
      </trkpt>
      <trkpt lat="42.2924700" lon="-4.1315340">
        <ele>809.2</ele>
        <time>2021-10-01T11:18:49Z</time>
      </trkpt>
      <trkpt lat="42.2924590" lon="-4.1316090">
        <ele>809.2</ele>
        <time>2021-10-01T11:18:51Z</time>
      </trkpt>
      <trkpt lat="42.2924380" lon="-4.1316910">
        <ele>809.4</ele>
        <time>2021-10-01T11:18:53Z</time>
      </trkpt>
      <trkpt lat="42.2923780" lon="-4.1318030">
        <ele>809.4</ele>
        <time>2021-10-01T11:18:56Z</time>
      </trkpt>
      <trkpt lat="42.2921620" lon="-4.1319210">
        <ele>809.4</ele>
        <time>2021-10-01T11:19:02Z</time>
      </trkpt>
      <trkpt lat="42.2920400" lon="-4.1319810">
        <ele>809.4</ele>
        <time>2021-10-01T11:19:05Z</time>
      </trkpt>
      <trkpt lat="42.2919140" lon="-4.1320520">
        <ele>809.4</ele>
        <time>2021-10-01T11:19:08Z</time>
      </trkpt>
      <trkpt lat="42.2915300" lon="-4.1323410">
        <ele>810.4</ele>
        <time>2021-10-01T11:19:17Z</time>
      </trkpt>
      <trkpt lat="42.2914190" lon="-4.1324100">
        <ele>810.4</ele>
        <time>2021-10-01T11:19:19Z</time>
      </trkpt>
      <trkpt lat="42.2913000" lon="-4.1324730">
        <ele>810.2</ele>
        <time>2021-10-01T11:19:21Z</time>
      </trkpt>
      <trkpt lat="42.2911770" lon="-4.1325270">
        <ele>809.8</ele>
        <time>2021-10-01T11:19:23Z</time>
      </trkpt>
      <trkpt lat="42.2910530" lon="-4.1325810">
        <ele>808.4</ele>
        <time>2021-10-01T11:19:25Z</time>
      </trkpt>
      <trkpt lat="42.2909910" lon="-4.1326090">
        <ele>807.6</ele>
        <time>2021-10-01T11:19:26Z</time>
      </trkpt>
      <trkpt lat="42.2908670" lon="-4.1326690">
        <ele>806.8</ele>
        <time>2021-10-01T11:19:28Z</time>
      </trkpt>
      <trkpt lat="42.2908060" lon="-4.1326990">
        <ele>806.6</ele>
        <time>2021-10-01T11:19:29Z</time>
      </trkpt>
      <trkpt lat="42.2906240" lon="-4.1327800">
        <ele>806.2</ele>
        <time>2021-10-01T11:19:32Z</time>
      </trkpt>
      <trkpt lat="42.2904430" lon="-4.1328700">
        <ele>805.6</ele>
        <time>2021-10-01T11:19:35Z</time>
      </trkpt>
      <trkpt lat="42.2903880" lon="-4.1329090">
        <ele>805.4</ele>
        <time>2021-10-01T11:19:36Z</time>
      </trkpt>
      <trkpt lat="42.2900880" lon="-4.1331860">
        <ele>804.4</ele>
        <time>2021-10-01T11:19:42Z</time>
      </trkpt>
      <trkpt lat="42.2900470" lon="-4.1332280">
        <ele>804.2</ele>
        <time>2021-10-01T11:19:43Z</time>
      </trkpt>
      <trkpt lat="42.2899220" lon="-4.1333240">
        <ele>804.0</ele>
        <time>2021-10-01T11:19:46Z</time>
      </trkpt>
      <trkpt lat="42.2898800" lon="-4.1333570">
        <ele>804.0</ele>
        <time>2021-10-01T11:19:47Z</time>
      </trkpt>
      <trkpt lat="42.2898410" lon="-4.1333950">
        <ele>804.0</ele>
        <time>2021-10-01T11:19:48Z</time>
      </trkpt>
      <trkpt lat="42.2897640" lon="-4.1334730">
        <ele>804.0</ele>
        <time>2021-10-01T11:19:50Z</time>
      </trkpt>
      <trkpt lat="42.2896830" lon="-4.1335470">
        <ele>804.0</ele>
        <time>2021-10-01T11:19:52Z</time>
      </trkpt>
      <trkpt lat="42.2894500" lon="-4.1337810">
        <ele>804.0</ele>
        <time>2021-10-01T11:19:58Z</time>
      </trkpt>
      <trkpt lat="42.2893710" lon="-4.1338890">
        <ele>804.2</ele>
        <time>2021-10-01T11:20:01Z</time>
      </trkpt>
      <trkpt lat="42.2893340" lon="-4.1339660">
        <ele>804.2</ele>
        <time>2021-10-01T11:20:03Z</time>
      </trkpt>
      <trkpt lat="42.2892980" lon="-4.1340370">
        <ele>805.2</ele>
        <time>2021-10-01T11:20:05Z</time>
      </trkpt>
      <trkpt lat="42.2892770" lon="-4.1340680">
        <ele>805.4</ele>
        <time>2021-10-01T11:20:06Z</time>
      </trkpt>
      <trkpt lat="42.2892390" lon="-4.1341340">
        <ele>806.4</ele>
        <time>2021-10-01T11:20:08Z</time>
      </trkpt>
      <trkpt lat="42.2892210" lon="-4.1341670">
        <ele>806.8</ele>
        <time>2021-10-01T11:20:09Z</time>
      </trkpt>
      <trkpt lat="42.2891820" lon="-4.1342310">
        <ele>807.8</ele>
        <time>2021-10-01T11:20:11Z</time>
      </trkpt>
      <trkpt lat="42.2891650" lon="-4.1342650">
        <ele>808.2</ele>
        <time>2021-10-01T11:20:12Z</time>
      </trkpt>
      <trkpt lat="42.2891150" lon="-4.1343690">
        <ele>809.0</ele>
        <time>2021-10-01T11:20:15Z</time>
      </trkpt>
      <trkpt lat="42.2890970" lon="-4.1344010">
        <ele>809.2</ele>
        <time>2021-10-01T11:20:16Z</time>
      </trkpt>
      <trkpt lat="42.2890290" lon="-4.1345440">
        <ele>810.4</ele>
        <time>2021-10-01T11:20:20Z</time>
      </trkpt>
      <trkpt lat="42.2889200" lon="-4.1347870">
        <ele>811.6</ele>
        <time>2021-10-01T11:20:26Z</time>
      </trkpt>
      <trkpt lat="42.2889000" lon="-4.1348290">
        <ele>811.6</ele>
        <time>2021-10-01T11:20:27Z</time>
      </trkpt>
      <trkpt lat="42.2888520" lon="-4.1349610">
        <ele>811.6</ele>
        <time>2021-10-01T11:20:30Z</time>
      </trkpt>
      <trkpt lat="42.2887160" lon="-4.1352480">
        <ele>811.8</ele>
        <time>2021-10-01T11:20:39Z</time>
      </trkpt>
      <trkpt lat="42.2886790" lon="-4.1353760">
        <ele>812.8</ele>
        <time>2021-10-01T11:20:43Z</time>
      </trkpt>
      <trkpt lat="42.2886260" lon="-4.1355930">
        <ele>814.0</ele>
        <time>2021-10-01T11:20:48Z</time>
      </trkpt>
      <trkpt lat="42.2885390" lon="-4.1359890">
        <ele>814.6</ele>
        <time>2021-10-01T11:20:56Z</time>
      </trkpt>
      <trkpt lat="42.2884500" lon="-4.1363180">
        <ele>815.0</ele>
        <time>2021-10-01T11:21:03Z</time>
      </trkpt>
      <trkpt lat="42.2883310" lon="-4.1366980">
        <ele>815.2</ele>
        <time>2021-10-01T11:21:11Z</time>
      </trkpt>
      <trkpt lat="42.2882570" lon="-4.1369730">
        <ele>816.4</ele>
        <time>2021-10-01T11:21:17Z</time>
      </trkpt>
      <trkpt lat="42.2881770" lon="-4.1373070">
        <ele>817.4</ele>
        <time>2021-10-01T11:21:24Z</time>
      </trkpt>
      <trkpt lat="42.2881610" lon="-4.1373640">
        <ele>817.4</ele>
        <time>2021-10-01T11:21:25Z</time>
      </trkpt>
      <trkpt lat="42.2881330" lon="-4.1374880">
        <ele>817.6</ele>
        <time>2021-10-01T11:21:27Z</time>
      </trkpt>
      <trkpt lat="42.2881010" lon="-4.1376330">
        <ele>817.6</ele>
        <time>2021-10-01T11:21:29Z</time>
      </trkpt>
      <trkpt lat="42.2880670" lon="-4.1377760">
        <ele>817.6</ele>
        <time>2021-10-01T11:21:31Z</time>
      </trkpt>
      <trkpt lat="42.2880400" lon="-4.1379070">
        <ele>817.2</ele>
        <time>2021-10-01T11:21:33Z</time>
      </trkpt>
      <trkpt lat="42.2880270" lon="-4.1379670">
        <ele>816.6</ele>
        <time>2021-10-01T11:21:34Z</time>
      </trkpt>
      <trkpt lat="42.2880070" lon="-4.1380780">
        <ele>816.0</ele>
        <time>2021-10-01T11:21:36Z</time>
      </trkpt>
      <trkpt lat="42.2879930" lon="-4.1381850">
        <ele>815.6</ele>
        <time>2021-10-01T11:21:38Z</time>
      </trkpt>
      <trkpt lat="42.2879800" lon="-4.1383330">
        <ele>815.4</ele>
        <time>2021-10-01T11:21:41Z</time>
      </trkpt>
      <trkpt lat="42.2879880" lon="-4.1384650">
        <ele>815.2</ele>
        <time>2021-10-01T11:21:44Z</time>
      </trkpt>
      <trkpt lat="42.2880170" lon="-4.1386590">
        <ele>816.0</ele>
        <time>2021-10-01T11:21:49Z</time>
      </trkpt>
      <trkpt lat="42.2880510" lon="-4.1387610">
        <ele>816.2</ele>
        <time>2021-10-01T11:21:52Z</time>
      </trkpt>
      <trkpt lat="42.2880930" lon="-4.1388590">
        <ele>816.8</ele>
        <time>2021-10-01T11:21:55Z</time>
      </trkpt>
      <trkpt lat="42.2881170" lon="-4.1389810">
        <ele>817.4</ele>
        <time>2021-10-01T11:21:58Z</time>
      </trkpt>
      <trkpt lat="42.2881410" lon="-4.1391540">
        <ele>817.8</ele>
        <time>2021-10-01T11:22:02Z</time>
      </trkpt>
      <trkpt lat="42.2881910" lon="-4.1394670">
        <ele>818.8</ele>
        <time>2021-10-01T11:22:10Z</time>
      </trkpt>
      <trkpt lat="42.2882470" lon="-4.1396580">
        <ele>820.0</ele>
        <time>2021-10-01T11:22:14Z</time>
      </trkpt>
      <trkpt lat="42.2883290" lon="-4.1398330">
        <ele>820.6</ele>
        <time>2021-10-01T11:22:18Z</time>
      </trkpt>
      <trkpt lat="42.2885390" lon="-4.1402730">
        <ele>821.0</ele>
        <time>2021-10-01T11:22:28Z</time>
      </trkpt>
      <trkpt lat="42.2886630" lon="-4.1405910">
        <ele>821.6</ele>
        <time>2021-10-01T11:22:35Z</time>
      </trkpt>
      <trkpt lat="42.2886920" lon="-4.1406820">
        <ele>821.6</ele>
        <time>2021-10-01T11:22:37Z</time>
      </trkpt>
      <trkpt lat="42.2887620" lon="-4.1408100">
        <ele>821.6</ele>
        <time>2021-10-01T11:22:40Z</time>
      </trkpt>
      <trkpt lat="42.2888820" lon="-4.1410110">
        <ele>821.6</ele>
        <time>2021-10-01T11:22:45Z</time>
      </trkpt>
      <trkpt lat="42.2890340" lon="-4.1412940">
        <ele>821.6</ele>
        <time>2021-10-01T11:22:52Z</time>
      </trkpt>
      <trkpt lat="42.2890960" lon="-4.1414290">
        <ele>821.6</ele>
        <time>2021-10-01T11:22:55Z</time>
      </trkpt>
      <trkpt lat="42.2891690" lon="-4.1415700">
        <ele>821.6</ele>
        <time>2021-10-01T11:22:58Z</time>
      </trkpt>
      <trkpt lat="42.2891940" lon="-4.1416160">
        <ele>821.6</ele>
        <time>2021-10-01T11:22:59Z</time>
      </trkpt>
      <trkpt lat="42.2892710" lon="-4.1417540">
        <ele>821.4</ele>
        <time>2021-10-01T11:23:02Z</time>
      </trkpt>
      <trkpt lat="42.2893760" lon="-4.1419400">
        <ele>819.8</ele>
        <time>2021-10-01T11:23:06Z</time>
      </trkpt>
      <trkpt lat="42.2894220" lon="-4.1420470">
        <ele>819.6</ele>
        <time>2021-10-01T11:23:08Z</time>
      </trkpt>
      <trkpt lat="42.2894600" lon="-4.1421610">
        <ele>818.2</ele>
        <time>2021-10-01T11:23:10Z</time>
      </trkpt>
      <trkpt lat="42.2895120" lon="-4.1423230">
        <ele>817.0</ele>
        <time>2021-10-01T11:23:13Z</time>
      </trkpt>
      <trkpt lat="42.2895910" lon="-4.1425480">
        <ele>815.8</ele>
        <time>2021-10-01T11:23:16Z</time>
      </trkpt>
      <trkpt lat="42.2897110" lon="-4.1428030">
        <ele>815.4</ele>
        <time>2021-10-01T11:23:26Z</time>
      </trkpt>
      <trkpt lat="42.2897090" lon="-4.1428050">
        <ele>815.4</ele>
        <time>2021-10-01T11:23:27Z</time>
      </trkpt>
      <trkpt lat="42.2896060" lon="-4.1427320">
        <ele>820.2</ele>
        <time>2021-10-01T12:19:24Z</time>
      </trkpt>
      <trkpt lat="42.2896080" lon="-4.1427540">
        <ele>820.2</ele>
        <time>2021-10-01T12:19:26Z</time>
      </trkpt>
      <trkpt lat="42.2896170" lon="-4.1427720">
        <ele>820.2</ele>
        <time>2021-10-01T12:19:27Z</time>
      </trkpt>
      <trkpt lat="42.2896360" lon="-4.1428010">
        <ele>820.2</ele>
        <time>2021-10-01T12:19:29Z</time>
      </trkpt>
      <trkpt lat="42.2896480" lon="-4.1428140">
        <ele>820.2</ele>
        <time>2021-10-01T12:19:30Z</time>
      </trkpt>
      <trkpt lat="42.2896950" lon="-4.1428510">
        <ele>819.8</ele>
        <time>2021-10-01T12:19:33Z</time>
      </trkpt>
      <trkpt lat="42.2897300" lon="-4.1428910">
        <ele>819.8</ele>
        <time>2021-10-01T12:19:35Z</time>
      </trkpt>
      <trkpt lat="42.2897740" lon="-4.1429920">
        <ele>819.6</ele>
        <time>2021-10-01T12:19:38Z</time>
      </trkpt>
      <trkpt lat="42.2897870" lon="-4.1430560">
        <ele>819.8</ele>
        <time>2021-10-01T12:19:39Z</time>
      </trkpt>
      <trkpt lat="42.2899690" lon="-4.1437380">
        <ele>820.0</ele>
        <time>2021-10-01T12:19:52Z</time>
      </trkpt>
      <trkpt lat="42.2902180" lon="-4.1442820">
        <ele>819.8</ele>
        <time>2021-10-01T12:20:04Z</time>
      </trkpt>
      <trkpt lat="42.2902420" lon="-4.1443390">
        <ele>819.6</ele>
        <time>2021-10-01T12:20:05Z</time>
      </trkpt>
      <trkpt lat="42.2902810" lon="-4.1444600">
        <ele>819.4</ele>
        <time>2021-10-01T12:20:07Z</time>
      </trkpt>
      <trkpt lat="42.2902920" lon="-4.1445250">
        <ele>819.4</ele>
        <time>2021-10-01T12:20:08Z</time>
      </trkpt>
      <trkpt lat="42.2902910" lon="-4.1446570">
        <ele>818.8</ele>
        <time>2021-10-01T12:20:10Z</time>
      </trkpt>
      <trkpt lat="42.2901870" lon="-4.1449280">
        <ele>817.6</ele>
        <time>2021-10-01T12:20:14Z</time>
      </trkpt>
      <trkpt lat="42.2901490" lon="-4.1449900">
        <ele>817.2</ele>
        <time>2021-10-01T12:20:15Z</time>
      </trkpt>
      <trkpt lat="42.2900810" lon="-4.1451220">
        <ele>816.8</ele>
        <time>2021-10-01T12:20:17Z</time>
      </trkpt>
      <trkpt lat="42.2900580" lon="-4.1451840">
        <ele>816.4</ele>
        <time>2021-10-01T12:20:18Z</time>
      </trkpt>
      <trkpt lat="42.2900160" lon="-4.1453690">
        <ele>815.2</ele>
        <time>2021-10-01T12:20:21Z</time>
      </trkpt>
      <trkpt lat="42.2900100" lon="-4.1454170">
        <ele>814.8</ele>
        <time>2021-10-01T12:20:22Z</time>
      </trkpt>
      <trkpt lat="42.2900010" lon="-4.1454880">
        <ele>814.2</ele>
        <time>2021-10-01T12:20:24Z</time>
      </trkpt>
      <trkpt lat="42.2899660" lon="-4.1456280">
        <ele>813.4</ele>
        <time>2021-10-01T12:20:27Z</time>
      </trkpt>
      <trkpt lat="42.2899530" lon="-4.1456880">
        <ele>813.2</ele>
        <time>2021-10-01T12:20:28Z</time>
      </trkpt>
      <trkpt lat="42.2899360" lon="-4.1459770">
        <ele>812.6</ele>
        <time>2021-10-01T12:20:32Z</time>
      </trkpt>
      <trkpt lat="42.2899390" lon="-4.1461460">
        <ele>812.0</ele>
        <time>2021-10-01T12:20:34Z</time>
      </trkpt>
      <trkpt lat="42.2899370" lon="-4.1463310">
        <ele>810.8</ele>
        <time>2021-10-01T12:20:36Z</time>
      </trkpt>
      <trkpt lat="42.2899280" lon="-4.1465280">
        <ele>808.8</ele>
        <time>2021-10-01T12:20:38Z</time>
      </trkpt>
      <trkpt lat="42.2899270" lon="-4.1467390">
        <ele>807.2</ele>
        <time>2021-10-01T12:20:40Z</time>
      </trkpt>
      <trkpt lat="42.2899310" lon="-4.1469540">
        <ele>806.0</ele>
        <time>2021-10-01T12:20:42Z</time>
      </trkpt>
      <trkpt lat="42.2899380" lon="-4.1471610">
        <ele>804.4</ele>
        <time>2021-10-01T12:20:44Z</time>
      </trkpt>
      <trkpt lat="42.2899440" lon="-4.1473470">
        <ele>803.0</ele>
        <time>2021-10-01T12:20:46Z</time>
      </trkpt>
      <trkpt lat="42.2899430" lon="-4.1474930">
        <ele>801.8</ele>
        <time>2021-10-01T12:20:48Z</time>
      </trkpt>
      <trkpt lat="42.2899350" lon="-4.1476290">
        <ele>801.2</ele>
        <time>2021-10-01T12:20:51Z</time>
      </trkpt>
      <trkpt lat="42.2899250" lon="-4.1477110">
        <ele>801.2</ele>
        <time>2021-10-01T12:20:53Z</time>
      </trkpt>
      <trkpt lat="42.2899190" lon="-4.1478030">
        <ele>801.2</ele>
        <time>2021-10-01T12:20:55Z</time>
      </trkpt>
      <trkpt lat="42.2899100" lon="-4.1479200">
        <ele>801.2</ele>
        <time>2021-10-01T12:20:57Z</time>
      </trkpt>
      <trkpt lat="42.2899000" lon="-4.1480700">
        <ele>800.8</ele>
        <time>2021-10-01T12:20:59Z</time>
      </trkpt>
      <trkpt lat="42.2898920" lon="-4.1481530">
        <ele>800.6</ele>
        <time>2021-10-01T12:21:00Z</time>
      </trkpt>
      <trkpt lat="42.2898790" lon="-4.1484240">
        <ele>800.6</ele>
        <time>2021-10-01T12:21:03Z</time>
      </trkpt>
      <trkpt lat="42.2898860" lon="-4.1486150">
        <ele>799.8</ele>
        <time>2021-10-01T12:21:05Z</time>
      </trkpt>
      <trkpt lat="42.2899040" lon="-4.1488050">
        <ele>798.8</ele>
        <time>2021-10-01T12:21:07Z</time>
      </trkpt>
      <trkpt lat="42.2899420" lon="-4.1490850">
        <ele>797.4</ele>
        <time>2021-10-01T12:21:10Z</time>
      </trkpt>
      <trkpt lat="42.2899920" lon="-4.1493590">
        <ele>796.4</ele>
        <time>2021-10-01T12:21:13Z</time>
      </trkpt>
      <trkpt lat="42.2900390" lon="-4.1497200">
        <ele>796.2</ele>
        <time>2021-10-01T12:21:17Z</time>
      </trkpt>
      <trkpt lat="42.2900760" lon="-4.1505240">
        <ele>795.6</ele>
        <time>2021-10-01T12:21:26Z</time>
      </trkpt>
      <trkpt lat="42.2900460" lon="-4.1513080">
        <ele>795.0</ele>
        <time>2021-10-01T12:21:35Z</time>
      </trkpt>
      <trkpt lat="42.2900330" lon="-4.1515670">
        <ele>794.8</ele>
        <time>2021-10-01T12:21:38Z</time>
      </trkpt>
      <trkpt lat="42.2900140" lon="-4.1519110">
        <ele>794.8</ele>
        <time>2021-10-01T12:21:42Z</time>
      </trkpt>
      <trkpt lat="42.2899700" lon="-4.1526710">
        <ele>794.2</ele>
        <time>2021-10-01T12:21:51Z</time>
      </trkpt>
      <trkpt lat="42.2899470" lon="-4.1531550">
        <ele>794.0</ele>
        <time>2021-10-01T12:21:57Z</time>
      </trkpt>
      <trkpt lat="42.2898980" lon="-4.1539040">
        <ele>793.4</ele>
        <time>2021-10-01T12:22:07Z</time>
      </trkpt>
      <trkpt lat="42.2898920" lon="-4.1541270">
        <ele>793.0</ele>
        <time>2021-10-01T12:22:10Z</time>
      </trkpt>
      <trkpt lat="42.2898850" lon="-4.1545000">
        <ele>792.6</ele>
        <time>2021-10-01T12:22:15Z</time>
      </trkpt>
      <trkpt lat="42.2898590" lon="-4.1548660">
        <ele>792.6</ele>
        <time>2021-10-01T12:22:20Z</time>
      </trkpt>
      <trkpt lat="42.2898430" lon="-4.1550020">
        <ele>792.6</ele>
        <time>2021-10-01T12:22:22Z</time>
      </trkpt>
      <trkpt lat="42.2898260" lon="-4.1551340">
        <ele>792.4</ele>
        <time>2021-10-01T12:22:24Z</time>
      </trkpt>
      <trkpt lat="42.2897860" lon="-4.1555780">
        <ele>792.2</ele>
        <time>2021-10-01T12:22:30Z</time>
      </trkpt>
      <trkpt lat="42.2897700" lon="-4.1558280">
        <ele>792.0</ele>
        <time>2021-10-01T12:22:33Z</time>
      </trkpt>
      <trkpt lat="42.2897620" lon="-4.1561890">
        <ele>791.2</ele>
        <time>2021-10-01T12:22:37Z</time>
      </trkpt>
      <trkpt lat="42.2897510" lon="-4.1564690">
        <ele>789.8</ele>
        <time>2021-10-01T12:22:40Z</time>
      </trkpt>
      <trkpt lat="42.2897410" lon="-4.1566620">
        <ele>788.2</ele>
        <time>2021-10-01T12:22:42Z</time>
      </trkpt>
      <trkpt lat="42.2897230" lon="-4.1569500">
        <ele>786.8</ele>
        <time>2021-10-01T12:22:45Z</time>
      </trkpt>
      <trkpt lat="42.2897160" lon="-4.1571390">
        <ele>785.6</ele>
        <time>2021-10-01T12:22:47Z</time>
      </trkpt>
      <trkpt lat="42.2897060" lon="-4.1574180">
        <ele>784.6</ele>
        <time>2021-10-01T12:22:50Z</time>
      </trkpt>
      <trkpt lat="42.2897220" lon="-4.1577840">
        <ele>784.2</ele>
        <time>2021-10-01T12:22:54Z</time>
      </trkpt>
      <trkpt lat="42.2898150" lon="-4.1585220">
        <ele>784.2</ele>
        <time>2021-10-01T12:23:03Z</time>
      </trkpt>
      <trkpt lat="42.2898460" lon="-4.1587250">
        <ele>784.2</ele>
        <time>2021-10-01T12:23:06Z</time>
      </trkpt>
      <trkpt lat="42.2898670" lon="-4.1588480">
        <ele>784.4</ele>
        <time>2021-10-01T12:23:08Z</time>
      </trkpt>
      <trkpt lat="42.2898890" lon="-4.1590170">
        <ele>784.6</ele>
        <time>2021-10-01T12:23:11Z</time>
      </trkpt>
      <trkpt lat="42.2899320" lon="-4.1592710">
        <ele>785.0</ele>
        <time>2021-10-01T12:23:16Z</time>
      </trkpt>
      <trkpt lat="42.2899570" lon="-4.1594930">
        <ele>785.4</ele>
        <time>2021-10-01T12:23:21Z</time>
      </trkpt>
      <trkpt lat="42.2899680" lon="-4.1596720">
        <ele>785.6</ele>
        <time>2021-10-01T12:23:26Z</time>
      </trkpt>
      <trkpt lat="42.2899760" lon="-4.1597750">
        <ele>786.0</ele>
        <time>2021-10-01T12:23:29Z</time>
      </trkpt>
      <trkpt lat="42.2899800" lon="-4.1598400">
        <ele>786.2</ele>
        <time>2021-10-01T12:23:31Z</time>
      </trkpt>
      <trkpt lat="42.2899880" lon="-4.1599280">
        <ele>786.2</ele>
        <time>2021-10-01T12:23:33Z</time>
      </trkpt>
      <trkpt lat="42.2899940" lon="-4.1600300">
        <ele>786.2</ele>
        <time>2021-10-01T12:23:35Z</time>
      </trkpt>
      <trkpt lat="42.2900040" lon="-4.1601440">
        <ele>786.2</ele>
        <time>2021-10-01T12:23:37Z</time>
      </trkpt>
      <trkpt lat="42.2900100" lon="-4.1603340">
        <ele>786.0</ele>
        <time>2021-10-01T12:23:40Z</time>
      </trkpt>
      <trkpt lat="42.2899960" lon="-4.1608240">
        <ele>785.6</ele>
        <time>2021-10-01T12:23:47Z</time>
      </trkpt>
      <trkpt lat="42.2899940" lon="-4.1608930">
        <ele>785.4</ele>
        <time>2021-10-01T12:23:48Z</time>
      </trkpt>
      <trkpt lat="42.2899870" lon="-4.1610910">
        <ele>785.0</ele>
        <time>2021-10-01T12:23:51Z</time>
      </trkpt>
      <trkpt lat="42.2899700" lon="-4.1618580">
        <ele>785.0</ele>
        <time>2021-10-01T12:24:04Z</time>
      </trkpt>
      <trkpt lat="42.2899600" lon="-4.1625860">
        <ele>785.8</ele>
        <time>2021-10-01T12:24:17Z</time>
      </trkpt>
      <trkpt lat="42.2900140" lon="-4.1630180">
        <ele>786.0</ele>
        <time>2021-10-01T12:24:26Z</time>
      </trkpt>
      <trkpt lat="42.2901310" lon="-4.1633000">
        <ele>786.8</ele>
        <time>2021-10-01T12:24:35Z</time>
      </trkpt>
      <trkpt lat="42.2902750" lon="-4.1636650">
        <ele>787.0</ele>
        <time>2021-10-01T12:24:46Z</time>
      </trkpt>
      <trkpt lat="42.2902820" lon="-4.1637110">
        <ele>787.2</ele>
        <time>2021-10-01T12:26:26Z</time>
      </trkpt>
      <trkpt lat="42.2902930" lon="-4.1637400">
        <ele>787.2</ele>
        <time>2021-10-01T12:26:27Z</time>
      </trkpt>
      <trkpt lat="42.2903110" lon="-4.1637760">
        <ele>787.4</ele>
        <time>2021-10-01T12:26:28Z</time>
      </trkpt>
      <trkpt lat="42.2903330" lon="-4.1638180">
        <ele>787.2</ele>
        <time>2021-10-01T12:26:29Z</time>
      </trkpt>
      <trkpt lat="42.2903580" lon="-4.1638660">
        <ele>787.2</ele>
        <time>2021-10-01T12:26:30Z</time>
      </trkpt>
      <trkpt lat="42.2903830" lon="-4.1639160">
        <ele>787.2</ele>
        <time>2021-10-01T12:26:31Z</time>
      </trkpt>
      <trkpt lat="42.2904070" lon="-4.1639660">
        <ele>786.8</ele>
        <time>2021-10-01T12:26:32Z</time>
      </trkpt>
      <trkpt lat="42.2904320" lon="-4.1640170">
        <ele>786.6</ele>
        <time>2021-10-01T12:26:33Z</time>
      </trkpt>
      <trkpt lat="42.2904900" lon="-4.1641180">
        <ele>786.2</ele>
        <time>2021-10-01T12:26:35Z</time>
      </trkpt>
      <trkpt lat="42.2905190" lon="-4.1641700">
        <ele>786.0</ele>
        <time>2021-10-01T12:26:36Z</time>
      </trkpt>
      <trkpt lat="42.2905720" lon="-4.1642760">
        <ele>785.4</ele>
        <time>2021-10-01T12:26:38Z</time>
      </trkpt>
      <trkpt lat="42.2905970" lon="-4.1643280">
        <ele>785.2</ele>
        <time>2021-10-01T12:26:39Z</time>
      </trkpt>
      <trkpt lat="42.2907500" lon="-4.1646440">
        <ele>785.0</ele>
        <time>2021-10-01T12:26:45Z</time>
      </trkpt>
      <trkpt lat="42.2909330" lon="-4.1650460">
        <ele>785.6</ele>
        <time>2021-10-01T12:26:52Z</time>
      </trkpt>
      <trkpt lat="42.2910510" lon="-4.1653320">
        <ele>785.6</ele>
        <time>2021-10-01T12:26:57Z</time>
      </trkpt>
      <trkpt lat="42.2911020" lon="-4.1655140">
        <ele>785.8</ele>
        <time>2021-10-01T12:27:00Z</time>
      </trkpt>
      <trkpt lat="42.2911070" lon="-4.1658230">
        <ele>786.2</ele>
        <time>2021-10-01T12:27:05Z</time>
      </trkpt>
      <trkpt lat="42.2910890" lon="-4.1659460">
        <ele>786.2</ele>
        <time>2021-10-01T12:27:07Z</time>
      </trkpt>
      <trkpt lat="42.2909830" lon="-4.1665260">
        <ele>786.6</ele>
        <time>2021-10-01T12:27:17Z</time>
      </trkpt>
      <trkpt lat="42.2909460" lon="-4.1667920">
        <ele>787.8</ele>
        <time>2021-10-01T12:27:22Z</time>
      </trkpt>
      <trkpt lat="42.2909140" lon="-4.1671300">
        <ele>789.0</ele>
        <time>2021-10-01T12:27:29Z</time>
      </trkpt>
      <trkpt lat="42.2909140" lon="-4.1675220">
        <ele>790.0</ele>
        <time>2021-10-01T12:27:37Z</time>
      </trkpt>
      <trkpt lat="42.2909040" lon="-4.1677160">
        <ele>791.4</ele>
        <time>2021-10-01T12:27:41Z</time>
      </trkpt>
      <trkpt lat="42.2908390" lon="-4.1679180">
        <ele>792.4</ele>
        <time>2021-10-01T12:27:46Z</time>
      </trkpt>
      <trkpt lat="42.2907920" lon="-4.1680360">
        <ele>793.6</ele>
        <time>2021-10-01T12:27:49Z</time>
      </trkpt>
      <trkpt lat="42.2907530" lon="-4.1681730">
        <ele>794.8</ele>
        <time>2021-10-01T12:27:53Z</time>
      </trkpt>
      <trkpt lat="42.2907470" lon="-4.1683050">
        <ele>796.0</ele>
        <time>2021-10-01T12:27:57Z</time>
      </trkpt>
      <trkpt lat="42.2907490" lon="-4.1684000">
        <ele>797.6</ele>
        <time>2021-10-01T12:28:00Z</time>
      </trkpt>
      <trkpt lat="42.2907310" lon="-4.1685160">
        <ele>798.8</ele>
        <time>2021-10-01T12:28:04Z</time>
      </trkpt>
      <trkpt lat="42.2907320" lon="-4.1685730">
        <ele>800.0</ele>
        <time>2021-10-01T12:28:06Z</time>
      </trkpt>
      <trkpt lat="42.2907350" lon="-4.1686260">
        <ele>801.0</ele>
        <time>2021-10-01T12:28:08Z</time>
      </trkpt>
      <trkpt lat="42.2907390" lon="-4.1687050">
        <ele>802.2</ele>
        <time>2021-10-01T12:28:11Z</time>
      </trkpt>
      <trkpt lat="42.2907400" lon="-4.1687550">
        <ele>802.8</ele>
        <time>2021-10-01T12:28:13Z</time>
      </trkpt>
      <trkpt lat="42.2907410" lon="-4.1687800">
        <ele>803.4</ele>
        <time>2021-10-01T12:28:14Z</time>
      </trkpt>
      <trkpt lat="42.2907450" lon="-4.1688560">
        <ele>804.6</ele>
        <time>2021-10-01T12:28:17Z</time>
      </trkpt>
      <trkpt lat="42.2907550" lon="-4.1689260">
        <ele>805.8</ele>
        <time>2021-10-01T12:28:20Z</time>
      </trkpt>
      <trkpt lat="42.2907760" lon="-4.1690150">
        <ele>807.0</ele>
        <time>2021-10-01T12:28:24Z</time>
      </trkpt>
      <trkpt lat="42.2907970" lon="-4.1690780">
        <ele>808.2</ele>
        <time>2021-10-01T12:28:27Z</time>
      </trkpt>
      <trkpt lat="42.2908150" lon="-4.1691420">
        <ele>809.6</ele>
        <time>2021-10-01T12:28:30Z</time>
      </trkpt>
      <trkpt lat="42.2908440" lon="-4.1692500">
        <ele>810.6</ele>
        <time>2021-10-01T12:28:35Z</time>
      </trkpt>
      <trkpt lat="42.2908540" lon="-4.1693570">
        <ele>812.0</ele>
        <time>2021-10-01T12:28:40Z</time>
      </trkpt>
      <trkpt lat="42.2908520" lon="-4.1694430">
        <ele>813.2</ele>
        <time>2021-10-01T12:28:44Z</time>
      </trkpt>
      <trkpt lat="42.2908310" lon="-4.1695290">
        <ele>814.4</ele>
        <time>2021-10-01T12:28:48Z</time>
      </trkpt>
      <trkpt lat="42.2907970" lon="-4.1696090">
        <ele>815.8</ele>
        <time>2021-10-01T12:28:52Z</time>
      </trkpt>
      <trkpt lat="42.2907530" lon="-4.1696780">
        <ele>817.0</ele>
        <time>2021-10-01T12:28:56Z</time>
      </trkpt>
      <trkpt lat="42.2907050" lon="-4.1697370">
        <ele>818.2</ele>
        <time>2021-10-01T12:29:00Z</time>
      </trkpt>
      <trkpt lat="42.2906560" lon="-4.1697930">
        <ele>819.2</ele>
        <time>2021-10-01T12:29:04Z</time>
      </trkpt>
      <trkpt lat="42.2905730" lon="-4.1698670">
        <ele>820.8</ele>
        <time>2021-10-01T12:29:10Z</time>
      </trkpt>
      <trkpt lat="42.2905430" lon="-4.1698900">
        <ele>821.6</ele>
        <time>2021-10-01T12:29:12Z</time>
      </trkpt>
      <trkpt lat="42.2905290" lon="-4.1699040">
        <ele>822.0</ele>
        <time>2021-10-01T12:29:13Z</time>
      </trkpt>
      <trkpt lat="42.2904980" lon="-4.1699240">
        <ele>822.8</ele>
        <time>2021-10-01T12:29:15Z</time>
      </trkpt>
      <trkpt lat="42.2904820" lon="-4.1699340">
        <ele>823.4</ele>
        <time>2021-10-01T12:29:16Z</time>
      </trkpt>
      <trkpt lat="42.2904330" lon="-4.1699730">
        <ele>824.2</ele>
        <time>2021-10-01T12:29:19Z</time>
      </trkpt>
      <trkpt lat="42.2904180" lon="-4.1699860">
        <ele>824.6</ele>
        <time>2021-10-01T12:29:20Z</time>
      </trkpt>
      <trkpt lat="42.2903480" lon="-4.1700590">
        <ele>825.6</ele>
        <time>2021-10-01T12:29:25Z</time>
      </trkpt>
      <trkpt lat="42.2902900" lon="-4.1701490">
        <ele>827.0</ele>
        <time>2021-10-01T12:29:30Z</time>
      </trkpt>
      <trkpt lat="42.2902530" lon="-4.1702320">
        <ele>828.0</ele>
        <time>2021-10-01T12:29:34Z</time>
      </trkpt>
      <trkpt lat="42.2902250" lon="-4.1703250">
        <ele>829.2</ele>
        <time>2021-10-01T12:29:38Z</time>
      </trkpt>
      <trkpt lat="42.2901810" lon="-4.1704870">
        <ele>830.4</ele>
        <time>2021-10-01T12:29:45Z</time>
      </trkpt>
      <trkpt lat="42.2901570" lon="-4.1706050">
        <ele>831.6</ele>
        <time>2021-10-01T12:29:50Z</time>
      </trkpt>
      <trkpt lat="42.2901390" lon="-4.1707480">
        <ele>832.6</ele>
        <time>2021-10-01T12:29:56Z</time>
      </trkpt>
      <trkpt lat="42.2901230" lon="-4.1708700">
        <ele>833.6</ele>
        <time>2021-10-01T12:30:01Z</time>
      </trkpt>
      <trkpt lat="42.2901050" lon="-4.1709870">
        <ele>835.0</ele>
        <time>2021-10-01T12:30:06Z</time>
      </trkpt>
      <trkpt lat="42.2900920" lon="-4.1711040">
        <ele>836.2</ele>
        <time>2021-10-01T12:30:11Z</time>
      </trkpt>
      <trkpt lat="42.2900830" lon="-4.1712470">
        <ele>837.4</ele>
        <time>2021-10-01T12:30:17Z</time>
      </trkpt>
      <trkpt lat="42.2900840" lon="-4.1713430">
        <ele>838.6</ele>
        <time>2021-10-01T12:30:21Z</time>
      </trkpt>
      <trkpt lat="42.2900800" lon="-4.1714770">
        <ele>839.8</ele>
        <time>2021-10-01T12:30:27Z</time>
      </trkpt>
      <trkpt lat="42.2900620" lon="-4.1715680">
        <ele>841.2</ele>
        <time>2021-10-01T12:30:31Z</time>
      </trkpt>
      <trkpt lat="42.2900160" lon="-4.1716470">
        <ele>842.4</ele>
        <time>2021-10-01T12:30:35Z</time>
      </trkpt>
      <trkpt lat="42.2899500" lon="-4.1717040">
        <ele>843.8</ele>
        <time>2021-10-01T12:30:39Z</time>
      </trkpt>
      <trkpt lat="42.2899000" lon="-4.1717440">
        <ele>845.0</ele>
        <time>2021-10-01T12:30:42Z</time>
      </trkpt>
      <trkpt lat="42.2898330" lon="-4.1717940">
        <ele>846.4</ele>
        <time>2021-10-01T12:30:46Z</time>
      </trkpt>
      <trkpt lat="42.2897880" lon="-4.1718380">
        <ele>847.6</ele>
        <time>2021-10-01T12:30:49Z</time>
      </trkpt>
      <trkpt lat="42.2897320" lon="-4.1719070">
        <ele>848.8</ele>
        <time>2021-10-01T12:30:53Z</time>
      </trkpt>
      <trkpt lat="42.2896830" lon="-4.1719920">
        <ele>849.8</ele>
        <time>2021-10-01T12:30:57Z</time>
      </trkpt>
      <trkpt lat="42.2896340" lon="-4.1721290">
        <ele>851.0</ele>
        <time>2021-10-01T12:31:02Z</time>
      </trkpt>
      <trkpt lat="42.2896100" lon="-4.1722180">
        <ele>852.4</ele>
        <time>2021-10-01T12:31:05Z</time>
      </trkpt>
      <trkpt lat="42.2895760" lon="-4.1723950">
        <ele>853.6</ele>
        <time>2021-10-01T12:31:11Z</time>
      </trkpt>
      <trkpt lat="42.2895040" lon="-4.1727760">
        <ele>854.6</ele>
        <time>2021-10-01T12:31:23Z</time>
      </trkpt>
      <trkpt lat="42.2894280" lon="-4.1729410">
        <ele>855.8</ele>
        <time>2021-10-01T12:31:29Z</time>
      </trkpt>
      <trkpt lat="42.2893630" lon="-4.1730270">
        <ele>857.4</ele>
        <time>2021-10-01T12:31:33Z</time>
      </trkpt>
      <trkpt lat="42.2893000" lon="-4.1730990">
        <ele>858.4</ele>
        <time>2021-10-01T12:31:37Z</time>
      </trkpt>
      <trkpt lat="42.2892050" lon="-4.1732000">
        <ele>859.8</ele>
        <time>2021-10-01T12:31:43Z</time>
      </trkpt>
      <trkpt lat="42.2891660" lon="-4.1732610">
        <ele>860.8</ele>
        <time>2021-10-01T12:31:46Z</time>
      </trkpt>
      <trkpt lat="42.2891050" lon="-4.1734230">
        <ele>862.0</ele>
        <time>2021-10-01T12:31:53Z</time>
      </trkpt>
      <trkpt lat="42.2890860" lon="-4.1734990">
        <ele>863.0</ele>
        <time>2021-10-01T12:31:56Z</time>
      </trkpt>
      <trkpt lat="42.2890610" lon="-4.1737140">
        <ele>864.2</ele>
        <time>2021-10-01T12:32:04Z</time>
      </trkpt>
      <trkpt lat="42.2890670" lon="-4.1738260">
        <ele>865.2</ele>
        <time>2021-10-01T12:32:08Z</time>
      </trkpt>
      <trkpt lat="42.2890680" lon="-4.1740390">
        <ele>866.6</ele>
        <time>2021-10-01T12:32:15Z</time>
      </trkpt>
      <trkpt lat="42.2890410" lon="-4.1741760">
        <ele>867.6</ele>
        <time>2021-10-01T12:32:20Z</time>
      </trkpt>
      <trkpt lat="42.2889910" lon="-4.1743290">
        <ele>869.0</ele>
        <time>2021-10-01T12:32:26Z</time>
      </trkpt>
      <trkpt lat="42.2889560" lon="-4.1744300">
        <ele>870.4</ele>
        <time>2021-10-01T12:32:30Z</time>
      </trkpt>
      <trkpt lat="42.2889290" lon="-4.1745370">
        <ele>871.6</ele>
        <time>2021-10-01T12:32:34Z</time>
      </trkpt>
      <trkpt lat="42.2889040" lon="-4.1746690">
        <ele>872.6</ele>
        <time>2021-10-01T12:32:39Z</time>
      </trkpt>
      <trkpt lat="42.2888970" lon="-4.1747800">
        <ele>873.8</ele>
        <time>2021-10-01T12:32:43Z</time>
      </trkpt>
      <trkpt lat="42.2888940" lon="-4.1748670">
        <ele>874.8</ele>
        <time>2021-10-01T12:32:46Z</time>
      </trkpt>
      <trkpt lat="42.2888900" lon="-4.1750450">
        <ele>876.0</ele>
        <time>2021-10-01T12:32:52Z</time>
      </trkpt>
      <trkpt lat="42.2888740" lon="-4.1752530">
        <ele>877.0</ele>
        <time>2021-10-01T12:32:59Z</time>
      </trkpt>
      <trkpt lat="42.2888630" lon="-4.1753970">
        <ele>878.2</ele>
        <time>2021-10-01T12:33:04Z</time>
      </trkpt>
      <trkpt lat="42.2888510" lon="-4.1755420">
        <ele>879.6</ele>
        <time>2021-10-01T12:33:09Z</time>
      </trkpt>
      <trkpt lat="42.2888380" lon="-4.1756530">
        <ele>880.8</ele>
        <time>2021-10-01T12:33:13Z</time>
      </trkpt>
      <trkpt lat="42.2888210" lon="-4.1757890">
        <ele>882.0</ele>
        <time>2021-10-01T12:33:18Z</time>
      </trkpt>
      <trkpt lat="42.2887950" lon="-4.1759320">
        <ele>883.0</ele>
        <time>2021-10-01T12:33:24Z</time>
      </trkpt>
      <trkpt lat="42.2887900" lon="-4.1760170">
        <ele>884.0</ele>
        <time>2021-10-01T12:33:28Z</time>
      </trkpt>
      <trkpt lat="42.2887500" lon="-4.1761330">
        <ele>885.6</ele>
        <time>2021-10-01T12:33:33Z</time>
      </trkpt>
      <trkpt lat="42.2887060" lon="-4.1762630">
        <ele>886.6</ele>
        <time>2021-10-01T12:33:37Z</time>
      </trkpt>
      <trkpt lat="42.2886450" lon="-4.1763680">
        <ele>887.6</ele>
        <time>2021-10-01T12:33:41Z</time>
      </trkpt>
      <trkpt lat="42.2885930" lon="-4.1764420">
        <ele>888.8</ele>
        <time>2021-10-01T12:33:44Z</time>
      </trkpt>
      <trkpt lat="42.2884950" lon="-4.1765620">
        <ele>889.8</ele>
        <time>2021-10-01T12:33:49Z</time>
      </trkpt>
      <trkpt lat="42.2884380" lon="-4.1766320">
        <ele>891.2</ele>
        <time>2021-10-01T12:33:52Z</time>
      </trkpt>
      <trkpt lat="42.2883830" lon="-4.1767060">
        <ele>892.2</ele>
        <time>2021-10-01T12:33:55Z</time>
      </trkpt>
      <trkpt lat="42.2882930" lon="-4.1768200">
        <ele>893.4</ele>
        <time>2021-10-01T12:34:00Z</time>
      </trkpt>
      <trkpt lat="42.2881950" lon="-4.1769570">
        <ele>894.8</ele>
        <time>2021-10-01T12:34:06Z</time>
      </trkpt>
      <trkpt lat="42.2881640" lon="-4.1770390">
        <ele>895.8</ele>
        <time>2021-10-01T12:34:09Z</time>
      </trkpt>
      <trkpt lat="42.2881310" lon="-4.1771780">
        <ele>897.0</ele>
        <time>2021-10-01T12:34:14Z</time>
      </trkpt>
      <trkpt lat="42.2881240" lon="-4.1773530">
        <ele>898.4</ele>
        <time>2021-10-01T12:34:20Z</time>
      </trkpt>
      <trkpt lat="42.2880920" lon="-4.1775190">
        <ele>899.4</ele>
        <time>2021-10-01T12:34:26Z</time>
      </trkpt>
      <trkpt lat="42.2880560" lon="-4.1776440">
        <ele>900.8</ele>
        <time>2021-10-01T12:34:31Z</time>
      </trkpt>
      <trkpt lat="42.2880260" lon="-4.1777420">
        <ele>902.0</ele>
        <time>2021-10-01T12:34:35Z</time>
      </trkpt>
      <trkpt lat="42.2879950" lon="-4.1778350">
        <ele>903.2</ele>
        <time>2021-10-01T12:34:39Z</time>
      </trkpt>
      <trkpt lat="42.2879230" lon="-4.1779870">
        <ele>904.4</ele>
        <time>2021-10-01T12:34:46Z</time>
      </trkpt>
      <trkpt lat="42.2878820" lon="-4.1780380">
        <ele>905.6</ele>
        <time>2021-10-01T12:34:49Z</time>
      </trkpt>
      <trkpt lat="42.2878540" lon="-4.1780690">
        <ele>906.8</ele>
        <time>2021-10-01T12:34:51Z</time>
      </trkpt>
      <trkpt lat="42.2877970" lon="-4.1781050">
        <ele>908.2</ele>
        <time>2021-10-01T12:34:54Z</time>
      </trkpt>
      <trkpt lat="42.2877780" lon="-4.1781200">
        <ele>908.2</ele>
        <time>2021-10-01T12:34:55Z</time>
      </trkpt>
      <trkpt lat="42.2877200" lon="-4.1781620">
        <ele>909.2</ele>
        <time>2021-10-01T12:34:58Z</time>
      </trkpt>
      <trkpt lat="42.2876160" lon="-4.1782640">
        <ele>910.4</ele>
        <time>2021-10-01T12:35:04Z</time>
      </trkpt>
      <trkpt lat="42.2875470" lon="-4.1783680">
        <ele>911.4</ele>
        <time>2021-10-01T12:35:09Z</time>
      </trkpt>
      <trkpt lat="42.2874930" lon="-4.1784790">
        <ele>912.4</ele>
        <time>2021-10-01T12:35:14Z</time>
      </trkpt>
      <trkpt lat="42.2874400" lon="-4.1786090">
        <ele>913.8</ele>
        <time>2021-10-01T12:35:20Z</time>
      </trkpt>
      <trkpt lat="42.2874120" lon="-4.1787000">
        <ele>914.8</ele>
        <time>2021-10-01T12:35:24Z</time>
      </trkpt>
      <trkpt lat="42.2873870" lon="-4.1787690">
        <ele>916.0</ele>
        <time>2021-10-01T12:35:27Z</time>
      </trkpt>
      <trkpt lat="42.2873370" lon="-4.1789120">
        <ele>917.2</ele>
        <time>2021-10-01T12:35:33Z</time>
      </trkpt>
      <trkpt lat="42.2873130" lon="-4.1789810">
        <ele>918.4</ele>
        <time>2021-10-01T12:35:36Z</time>
      </trkpt>
      <trkpt lat="42.2872900" lon="-4.1790530">
        <ele>919.6</ele>
        <time>2021-10-01T12:35:39Z</time>
      </trkpt>
      <trkpt lat="42.2872790" lon="-4.1790740">
        <ele>919.6</ele>
        <time>2021-10-01T12:35:40Z</time>
      </trkpt>
      <trkpt lat="42.2872430" lon="-4.1791120">
        <ele>920.2</ele>
        <time>2021-10-01T12:35:44Z</time>
      </trkpt>
      <trkpt lat="42.2872640" lon="-4.1791880">
        <ele>922.8</ele>
        <time>2021-10-01T12:36:43Z</time>
      </trkpt>
      <trkpt lat="42.2872720" lon="-4.1792170">
        <ele>922.4</ele>
        <time>2021-10-01T12:36:44Z</time>
      </trkpt>
      <trkpt lat="42.2872980" lon="-4.1793120">
        <ele>921.8</ele>
        <time>2021-10-01T12:36:47Z</time>
      </trkpt>
      <trkpt lat="42.2873180" lon="-4.1795110">
        <ele>920.6</ele>
        <time>2021-10-01T12:36:53Z</time>
      </trkpt>
      <trkpt lat="42.2873670" lon="-4.1798410">
        <ele>920.0</ele>
        <time>2021-10-01T12:37:00Z</time>
      </trkpt>
      <trkpt lat="42.2873730" lon="-4.1798980">
        <ele>919.8</ele>
        <time>2021-10-01T12:37:01Z</time>
      </trkpt>
      <trkpt lat="42.2873820" lon="-4.1801390">
        <ele>919.8</ele>
        <time>2021-10-01T12:37:05Z</time>
      </trkpt>
      <trkpt lat="42.2873790" lon="-4.1802000">
        <ele>919.8</ele>
        <time>2021-10-01T12:37:06Z</time>
      </trkpt>
      <trkpt lat="42.2873770" lon="-4.1809770">
        <ele>919.6</ele>
        <time>2021-10-01T12:37:18Z</time>
      </trkpt>
      <trkpt lat="42.2874090" lon="-4.1815110">
        <ele>919.2</ele>
        <time>2021-10-01T12:37:26Z</time>
      </trkpt>
      <trkpt lat="42.2874010" lon="-4.1820580">
        <ele>919.0</ele>
        <time>2021-10-01T12:37:34Z</time>
      </trkpt>
      <trkpt lat="42.2873190" lon="-4.1828340">
        <ele>918.4</ele>
        <time>2021-10-01T12:37:45Z</time>
      </trkpt>
      <trkpt lat="42.2872760" lon="-4.1833480">
        <ele>918.0</ele>
        <time>2021-10-01T12:37:52Z</time>
      </trkpt>
      <trkpt lat="42.2871890" lon="-4.1840870">
        <ele>918.0</ele>
        <time>2021-10-01T12:38:02Z</time>
      </trkpt>
      <trkpt lat="42.2870660" lon="-4.1845780">
        <ele>919.0</ele>
        <time>2021-10-01T12:38:09Z</time>
      </trkpt>
      <trkpt lat="42.2868950" lon="-4.1849990">
        <ele>919.8</ele>
        <time>2021-10-01T12:38:17Z</time>
      </trkpt>
      <trkpt lat="42.2868940" lon="-4.1850000">
        <ele>920.0</ele>
        <time>2021-10-01T12:38:18Z</time>
      </trkpt>
      <trkpt lat="42.2868720" lon="-4.1850350">
        <ele>921.4</ele>
        <time>2021-10-01T12:38:37Z</time>
      </trkpt>
      <trkpt lat="42.2867570" lon="-4.1852610">
        <ele>921.2</ele>
        <time>2021-10-01T12:38:42Z</time>
      </trkpt>
      <trkpt lat="42.2866430" lon="-4.1855030">
        <ele>920.6</ele>
        <time>2021-10-01T12:38:45Z</time>
      </trkpt>
      <trkpt lat="42.2866090" lon="-4.1856080">
        <ele>919.6</ele>
        <time>2021-10-01T12:38:46Z</time>
      </trkpt>
      <trkpt lat="42.2865500" lon="-4.1858410">
        <ele>918.0</ele>
        <time>2021-10-01T12:38:48Z</time>
      </trkpt>
      <trkpt lat="42.2865210" lon="-4.1859590">
        <ele>916.4</ele>
        <time>2021-10-01T12:38:49Z</time>
      </trkpt>
      <trkpt lat="42.2864960" lon="-4.1860750">
        <ele>914.8</ele>
        <time>2021-10-01T12:38:50Z</time>
      </trkpt>
      <trkpt lat="42.2864750" lon="-4.1861950">
        <ele>913.4</ele>
        <time>2021-10-01T12:38:51Z</time>
      </trkpt>
      <trkpt lat="42.2864550" lon="-4.1863200">
        <ele>912.0</ele>
        <time>2021-10-01T12:38:52Z</time>
      </trkpt>
      <trkpt lat="42.2864340" lon="-4.1864490">
        <ele>909.6</ele>
        <time>2021-10-01T12:38:53Z</time>
      </trkpt>
      <trkpt lat="42.2864110" lon="-4.1865820">
        <ele>907.2</ele>
        <time>2021-10-01T12:38:54Z</time>
      </trkpt>
      <trkpt lat="42.2863860" lon="-4.1867180">
        <ele>904.8</ele>
        <time>2021-10-01T12:38:55Z</time>
      </trkpt>
      <trkpt lat="42.2863590" lon="-4.1868560">
        <ele>902.8</ele>
        <time>2021-10-01T12:38:56Z</time>
      </trkpt>
      <trkpt lat="42.2863320" lon="-4.1869910">
        <ele>901.0</ele>
        <time>2021-10-01T12:38:57Z</time>
      </trkpt>
      <trkpt lat="42.2863050" lon="-4.1871250">
        <ele>899.4</ele>
        <time>2021-10-01T12:38:58Z</time>
      </trkpt>
      <trkpt lat="42.2862770" lon="-4.1872580">
        <ele>897.6</ele>
        <time>2021-10-01T12:38:59Z</time>
      </trkpt>
      <trkpt lat="42.2862460" lon="-4.1873930">
        <ele>895.8</ele>
        <time>2021-10-01T12:39:00Z</time>
      </trkpt>
      <trkpt lat="42.2862120" lon="-4.1875280">
        <ele>893.4</ele>
        <time>2021-10-01T12:39:01Z</time>
      </trkpt>
      <trkpt lat="42.2861740" lon="-4.1876620">
        <ele>890.8</ele>
        <time>2021-10-01T12:39:02Z</time>
      </trkpt>
      <trkpt lat="42.2861280" lon="-4.1877940">
        <ele>888.6</ele>
        <time>2021-10-01T12:39:03Z</time>
      </trkpt>
      <trkpt lat="42.2860700" lon="-4.1879210">
        <ele>886.6</ele>
        <time>2021-10-01T12:39:04Z</time>
      </trkpt>
      <trkpt lat="42.2860100" lon="-4.1880520">
        <ele>884.4</ele>
        <time>2021-10-01T12:39:05Z</time>
      </trkpt>
      <trkpt lat="42.2859600" lon="-4.1881940">
        <ele>882.2</ele>
        <time>2021-10-01T12:39:06Z</time>
      </trkpt>
      <trkpt lat="42.2859290" lon="-4.1883440">
        <ele>880.0</ele>
        <time>2021-10-01T12:39:07Z</time>
      </trkpt>
      <trkpt lat="42.2859130" lon="-4.1884940">
        <ele>878.0</ele>
        <time>2021-10-01T12:39:08Z</time>
      </trkpt>
      <trkpt lat="42.2859060" lon="-4.1886290">
        <ele>875.0</ele>
        <time>2021-10-01T12:39:09Z</time>
      </trkpt>
      <trkpt lat="42.2859040" lon="-4.1887430">
        <ele>872.2</ele>
        <time>2021-10-01T12:39:10Z</time>
      </trkpt>
      <trkpt lat="42.2859050" lon="-4.1888490">
        <ele>869.6</ele>
        <time>2021-10-01T12:39:11Z</time>
      </trkpt>
      <trkpt lat="42.2859070" lon="-4.1889600">
        <ele>867.6</ele>
        <time>2021-10-01T12:39:12Z</time>
      </trkpt>
      <trkpt lat="42.2859060" lon="-4.1890790">
        <ele>865.2</ele>
        <time>2021-10-01T12:39:13Z</time>
      </trkpt>
      <trkpt lat="42.2859090" lon="-4.1892030">
        <ele>863.0</ele>
        <time>2021-10-01T12:39:14Z</time>
      </trkpt>
      <trkpt lat="42.2859180" lon="-4.1893310">
        <ele>861.0</ele>
        <time>2021-10-01T12:39:15Z</time>
      </trkpt>
      <trkpt lat="42.2859360" lon="-4.1894630">
        <ele>860.0</ele>
        <time>2021-10-01T12:39:16Z</time>
      </trkpt>
      <trkpt lat="42.2859840" lon="-4.1897390">
        <ele>858.8</ele>
        <time>2021-10-01T12:39:18Z</time>
      </trkpt>
      <trkpt lat="42.2860390" lon="-4.1901690">
        <ele>855.8</ele>
        <time>2021-10-01T12:39:21Z</time>
      </trkpt>
      <trkpt lat="42.2860510" lon="-4.1903150">
        <ele>854.0</ele>
        <time>2021-10-01T12:39:22Z</time>
      </trkpt>
      <trkpt lat="42.2860600" lon="-4.1904610">
        <ele>852.4</ele>
        <time>2021-10-01T12:39:23Z</time>
      </trkpt>
      <trkpt lat="42.2860670" lon="-4.1906070">
        <ele>851.2</ele>
        <time>2021-10-01T12:39:24Z</time>
      </trkpt>
      <trkpt lat="42.2860730" lon="-4.1907500">
        <ele>850.0</ele>
        <time>2021-10-01T12:39:25Z</time>
      </trkpt>
      <trkpt lat="42.2860790" lon="-4.1908910">
        <ele>849.0</ele>
        <time>2021-10-01T12:39:26Z</time>
      </trkpt>
      <trkpt lat="42.2860870" lon="-4.1910300">
        <ele>847.6</ele>
        <time>2021-10-01T12:39:27Z</time>
      </trkpt>
      <trkpt lat="42.2861000" lon="-4.1911650">
        <ele>846.4</ele>
        <time>2021-10-01T12:39:28Z</time>
      </trkpt>
      <trkpt lat="42.2861150" lon="-4.1912980">
        <ele>844.8</ele>
        <time>2021-10-01T12:39:29Z</time>
      </trkpt>
      <trkpt lat="42.2861430" lon="-4.1915590">
        <ele>843.2</ele>
        <time>2021-10-01T12:39:31Z</time>
      </trkpt>
      <trkpt lat="42.2861590" lon="-4.1918150">
        <ele>842.0</ele>
        <time>2021-10-01T12:39:33Z</time>
      </trkpt>
      <trkpt lat="42.2861790" lon="-4.1921940">
        <ele>840.8</ele>
        <time>2021-10-01T12:39:36Z</time>
      </trkpt>
      <trkpt lat="42.2861970" lon="-4.1925630">
        <ele>839.8</ele>
        <time>2021-10-01T12:39:39Z</time>
      </trkpt>
      <trkpt lat="42.2862010" lon="-4.1926850">
        <ele>839.6</ele>
        <time>2021-10-01T12:39:40Z</time>
      </trkpt>
      <trkpt lat="42.2861990" lon="-4.1931650">
        <ele>838.4</ele>
        <time>2021-10-01T12:39:44Z</time>
      </trkpt>
      <trkpt lat="42.2861910" lon="-4.1934040">
        <ele>837.2</ele>
        <time>2021-10-01T12:39:46Z</time>
      </trkpt>
      <trkpt lat="42.2861740" lon="-4.1938750">
        <ele>836.8</ele>
        <time>2021-10-01T12:39:50Z</time>
      </trkpt>
      <trkpt lat="42.2861530" lon="-4.1943390">
        <ele>836.6</ele>
        <time>2021-10-01T12:39:54Z</time>
      </trkpt>
      <trkpt lat="42.2861160" lon="-4.1945600">
        <ele>836.2</ele>
        <time>2021-10-01T12:39:56Z</time>
      </trkpt>
      <trkpt lat="42.2860370" lon="-4.1953550">
        <ele>835.8</ele>
        <time>2021-10-01T12:40:03Z</time>
      </trkpt>
      <trkpt lat="42.2860310" lon="-4.1955870">
        <ele>835.0</ele>
        <time>2021-10-01T12:40:05Z</time>
      </trkpt>
      <trkpt lat="42.2860260" lon="-4.1959420">
        <ele>834.0</ele>
        <time>2021-10-01T12:40:08Z</time>
      </trkpt>
      <trkpt lat="42.2860280" lon="-4.1964050">
        <ele>832.6</ele>
        <time>2021-10-01T12:40:12Z</time>
      </trkpt>
      <trkpt lat="42.2860280" lon="-4.1966260">
        <ele>831.4</ele>
        <time>2021-10-01T12:40:14Z</time>
      </trkpt>
      <trkpt lat="42.2860260" lon="-4.1968360">
        <ele>830.4</ele>
        <time>2021-10-01T12:40:16Z</time>
      </trkpt>
      <trkpt lat="42.2859970" lon="-4.1976360">
        <ele>829.8</ele>
        <time>2021-10-01T12:40:24Z</time>
      </trkpt>
      <trkpt lat="42.2859980" lon="-4.1977330">
        <ele>829.8</ele>
        <time>2021-10-01T12:40:25Z</time>
      </trkpt>
      <trkpt lat="42.2860300" lon="-4.1981200">
        <ele>829.8</ele>
        <time>2021-10-01T12:40:29Z</time>
      </trkpt>
      <trkpt lat="42.2860620" lon="-4.1985140">
        <ele>829.8</ele>
        <time>2021-10-01T12:40:33Z</time>
      </trkpt>
      <trkpt lat="42.2860750" lon="-4.1987120">
        <ele>829.6</ele>
        <time>2021-10-01T12:40:35Z</time>
      </trkpt>
      <trkpt lat="42.2860990" lon="-4.1990140">
        <ele>829.6</ele>
        <time>2021-10-01T12:40:38Z</time>
      </trkpt>
      <trkpt lat="42.2861340" lon="-4.1993100">
        <ele>828.4</ele>
        <time>2021-10-01T12:40:41Z</time>
      </trkpt>
      <trkpt lat="42.2861820" lon="-4.1996950">
        <ele>827.4</ele>
        <time>2021-10-01T12:40:45Z</time>
      </trkpt>
      <trkpt lat="42.2862460" lon="-4.2004410">
        <ele>826.8</ele>
        <time>2021-10-01T12:40:53Z</time>
      </trkpt>
      <trkpt lat="42.2863200" lon="-4.2008710">
        <ele>826.8</ele>
        <time>2021-10-01T12:40:58Z</time>
      </trkpt>
      <trkpt lat="42.2863540" lon="-4.2010530">
        <ele>826.8</ele>
        <time>2021-10-01T12:41:00Z</time>
      </trkpt>
      <trkpt lat="42.2863600" lon="-4.2011490">
        <ele>826.8</ele>
        <time>2021-10-01T12:41:01Z</time>
      </trkpt>
      <trkpt lat="42.2862800" lon="-4.2014240">
        <ele>826.4</ele>
        <time>2021-10-01T12:41:04Z</time>
      </trkpt>
      <trkpt lat="42.2861720" lon="-4.2015840">
        <ele>825.6</ele>
        <time>2021-10-01T12:41:06Z</time>
      </trkpt>
      <trkpt lat="42.2861160" lon="-4.2016620">
        <ele>825.2</ele>
        <time>2021-10-01T12:41:07Z</time>
      </trkpt>
      <trkpt lat="42.2860660" lon="-4.2017470">
        <ele>825.0</ele>
        <time>2021-10-01T12:41:08Z</time>
      </trkpt>
      <trkpt lat="42.2860160" lon="-4.2019600">
        <ele>824.2</ele>
        <time>2021-10-01T12:41:10Z</time>
      </trkpt>
      <trkpt lat="42.2860060" lon="-4.2022020">
        <ele>822.6</ele>
        <time>2021-10-01T12:41:12Z</time>
      </trkpt>
      <trkpt lat="42.2859930" lon="-4.2023230">
        <ele>821.6</ele>
        <time>2021-10-01T12:41:13Z</time>
      </trkpt>
      <trkpt lat="42.2859710" lon="-4.2024440">
        <ele>820.2</ele>
        <time>2021-10-01T12:41:14Z</time>
      </trkpt>
      <trkpt lat="42.2859430" lon="-4.2025620">
        <ele>818.8</ele>
        <time>2021-10-01T12:41:15Z</time>
      </trkpt>
      <trkpt lat="42.2859130" lon="-4.2026800">
        <ele>817.8</ele>
        <time>2021-10-01T12:41:16Z</time>
      </trkpt>
      <trkpt lat="42.2858820" lon="-4.2027960">
        <ele>816.6</ele>
        <time>2021-10-01T12:41:17Z</time>
      </trkpt>
      <trkpt lat="42.2858530" lon="-4.2029130">
        <ele>815.4</ele>
        <time>2021-10-01T12:41:18Z</time>
      </trkpt>
      <trkpt lat="42.2858260" lon="-4.2030310">
        <ele>814.2</ele>
        <time>2021-10-01T12:41:19Z</time>
      </trkpt>
      <trkpt lat="42.2857840" lon="-4.2032750">
        <ele>812.8</ele>
        <time>2021-10-01T12:41:21Z</time>
      </trkpt>
      <trkpt lat="42.2857570" lon="-4.2035200">
        <ele>811.8</ele>
        <time>2021-10-01T12:41:23Z</time>
      </trkpt>
      <trkpt lat="42.2857420" lon="-4.2037580">
        <ele>810.8</ele>
        <time>2021-10-01T12:41:25Z</time>
      </trkpt>
      <trkpt lat="42.2857410" lon="-4.2041000">
        <ele>809.2</ele>
        <time>2021-10-01T12:41:28Z</time>
      </trkpt>
      <trkpt lat="42.2857450" lon="-4.2043170">
        <ele>808.0</ele>
        <time>2021-10-01T12:41:30Z</time>
      </trkpt>
      <trkpt lat="42.2857530" lon="-4.2047340">
        <ele>806.8</ele>
        <time>2021-10-01T12:41:34Z</time>
      </trkpt>
      <trkpt lat="42.2857570" lon="-4.2053360">
        <ele>806.0</ele>
        <time>2021-10-01T12:41:40Z</time>
      </trkpt>
      <trkpt lat="42.2857680" lon="-4.2057970">
        <ele>805.8</ele>
        <time>2021-10-01T12:41:45Z</time>
      </trkpt>
      <trkpt lat="42.2857740" lon="-4.2059650">
        <ele>805.8</ele>
        <time>2021-10-01T12:41:47Z</time>
      </trkpt>
      <trkpt lat="42.2857530" lon="-4.2063750">
        <ele>805.8</ele>
        <time>2021-10-01T12:41:52Z</time>
      </trkpt>
      <trkpt lat="42.2857280" lon="-4.2067160">
        <ele>806.0</ele>
        <time>2021-10-01T12:41:56Z</time>
      </trkpt>
      <trkpt lat="42.2857000" lon="-4.2070490">
        <ele>806.0</ele>
        <time>2021-10-01T12:42:00Z</time>
      </trkpt>
      <trkpt lat="42.2857020" lon="-4.2072060">
        <ele>806.2</ele>
        <time>2021-10-01T12:42:02Z</time>
      </trkpt>
      <trkpt lat="42.2856390" lon="-4.2077250">
        <ele>806.0</ele>
        <time>2021-10-01T12:42:09Z</time>
      </trkpt>
      <trkpt lat="42.2856570" lon="-4.2082740">
        <ele>805.6</ele>
        <time>2021-10-01T12:42:16Z</time>
      </trkpt>
      <trkpt lat="42.2855840" lon="-4.2090630">
        <ele>805.8</ele>
        <time>2021-10-01T12:42:26Z</time>
      </trkpt>
      <trkpt lat="42.2854960" lon="-4.2097830">
        <ele>805.8</ele>
        <time>2021-10-01T12:42:35Z</time>
      </trkpt>
      <trkpt lat="42.2854690" lon="-4.2099830">
        <ele>805.6</ele>
        <time>2021-10-01T12:42:38Z</time>
      </trkpt>
      <trkpt lat="42.2854650" lon="-4.2101660">
        <ele>805.6</ele>
        <time>2021-10-01T12:42:41Z</time>
      </trkpt>
      <trkpt lat="42.2853970" lon="-4.2105090">
        <ele>805.0</ele>
        <time>2021-10-01T12:42:46Z</time>
      </trkpt>
      <trkpt lat="42.2853770" lon="-4.2105770">
        <ele>805.0</ele>
        <time>2021-10-01T12:42:47Z</time>
      </trkpt>
      <trkpt lat="42.2853050" lon="-4.2107830">
        <ele>805.0</ele>
        <time>2021-10-01T12:42:50Z</time>
      </trkpt>
      <trkpt lat="42.2852490" lon="-4.2109190">
        <ele>805.0</ele>
        <time>2021-10-01T12:42:52Z</time>
      </trkpt>
      <trkpt lat="42.2851420" lon="-4.2112090">
        <ele>805.0</ele>
        <time>2021-10-01T12:42:56Z</time>
      </trkpt>
      <trkpt lat="42.2849150" lon="-4.2119140">
        <ele>805.0</ele>
        <time>2021-10-01T12:43:06Z</time>
      </trkpt>
      <trkpt lat="42.2847050" lon="-4.2126470">
        <ele>805.0</ele>
        <time>2021-10-01T12:43:16Z</time>
      </trkpt>
      <trkpt lat="42.2846450" lon="-4.2128720">
        <ele>805.0</ele>
        <time>2021-10-01T12:43:19Z</time>
      </trkpt>
      <trkpt lat="42.2845450" lon="-4.2132520">
        <ele>804.6</ele>
        <time>2021-10-01T12:43:24Z</time>
      </trkpt>
      <trkpt lat="42.2844450" lon="-4.2136370">
        <ele>804.4</ele>
        <time>2021-10-01T12:43:29Z</time>
      </trkpt>
      <trkpt lat="42.2843230" lon="-4.2140930">
        <ele>804.2</ele>
        <time>2021-10-01T12:43:35Z</time>
      </trkpt>
      <trkpt lat="42.2841350" lon="-4.2146790">
        <ele>804.0</ele>
        <time>2021-10-01T12:43:43Z</time>
      </trkpt>
      <trkpt lat="42.2839170" lon="-4.2153480">
        <ele>803.8</ele>
        <time>2021-10-01T12:43:52Z</time>
      </trkpt>
      <trkpt lat="42.2837980" lon="-4.2157280">
        <ele>803.6</ele>
        <time>2021-10-01T12:43:57Z</time>
      </trkpt>
      <trkpt lat="42.2836660" lon="-4.2162590">
        <ele>802.4</ele>
        <time>2021-10-01T12:44:04Z</time>
      </trkpt>
      <trkpt lat="42.2836020" lon="-4.2166410">
        <ele>801.8</ele>
        <time>2021-10-01T12:44:09Z</time>
      </trkpt>
      <trkpt lat="42.2835970" lon="-4.2167160">
        <ele>801.8</ele>
        <time>2021-10-01T12:44:10Z</time>
      </trkpt>
      <trkpt lat="42.2835210" lon="-4.2175080">
        <ele>801.8</ele>
        <time>2021-10-01T12:44:20Z</time>
      </trkpt>
      <trkpt lat="42.2834770" lon="-4.2180810">
        <ele>801.4</ele>
        <time>2021-10-01T12:44:27Z</time>
      </trkpt>
      <trkpt lat="42.2834220" lon="-4.2185810">
        <ele>801.2</ele>
        <time>2021-10-01T12:44:33Z</time>
      </trkpt>
      <trkpt lat="42.2833290" lon="-4.2193320">
        <ele>800.6</ele>
        <time>2021-10-01T12:44:42Z</time>
      </trkpt>
      <trkpt lat="42.2832390" lon="-4.2200770">
        <ele>800.2</ele>
        <time>2021-10-01T12:44:51Z</time>
      </trkpt>
      <trkpt lat="42.2831300" lon="-4.2208140">
        <ele>799.6</ele>
        <time>2021-10-01T12:45:00Z</time>
      </trkpt>
      <trkpt lat="42.2829820" lon="-4.2215390">
        <ele>799.8</ele>
        <time>2021-10-01T12:45:09Z</time>
      </trkpt>
      <trkpt lat="42.2828320" lon="-4.2221680">
        <ele>799.6</ele>
        <time>2021-10-01T12:45:17Z</time>
      </trkpt>
      <trkpt lat="42.2826540" lon="-4.2228680">
        <ele>799.0</ele>
        <time>2021-10-01T12:45:26Z</time>
      </trkpt>
      <trkpt lat="42.2825800" lon="-4.2231820">
        <ele>799.0</ele>
        <time>2021-10-01T12:45:30Z</time>
      </trkpt>
      <trkpt lat="42.2823880" lon="-4.2236760">
        <ele>799.0</ele>
        <time>2021-10-01T12:45:37Z</time>
      </trkpt>
      <trkpt lat="42.2823280" lon="-4.2238100">
        <ele>798.8</ele>
        <time>2021-10-01T12:45:39Z</time>
      </trkpt>
      <trkpt lat="42.2822230" lon="-4.2240790">
        <ele>798.4</ele>
        <time>2021-10-01T12:45:43Z</time>
      </trkpt>
      <trkpt lat="42.2820120" lon="-4.2248170">
        <ele>799.6</ele>
        <time>2021-10-01T12:45:54Z</time>
      </trkpt>
      <trkpt lat="42.2819740" lon="-4.2249460">
        <ele>799.8</ele>
        <time>2021-10-01T12:45:56Z</time>
      </trkpt>
      <trkpt lat="42.2817200" lon="-4.2256650">
        <ele>800.2</ele>
        <time>2021-10-01T12:46:07Z</time>
      </trkpt>
      <trkpt lat="42.2815670" lon="-4.2259360">
        <ele>800.8</ele>
        <time>2021-10-01T12:46:12Z</time>
      </trkpt>
      <trkpt lat="42.2814750" lon="-4.2260820">
        <ele>802.0</ele>
        <time>2021-10-01T12:46:15Z</time>
      </trkpt>
      <trkpt lat="42.2813950" lon="-4.2262270">
        <ele>803.0</ele>
        <time>2021-10-01T12:46:18Z</time>
      </trkpt>
      <trkpt lat="42.2813250" lon="-4.2263680">
        <ele>804.2</ele>
        <time>2021-10-01T12:46:21Z</time>
      </trkpt>
      <trkpt lat="42.2812730" lon="-4.2265030">
        <ele>805.4</ele>
        <time>2021-10-01T12:46:24Z</time>
      </trkpt>
      <trkpt lat="42.2812420" lon="-4.2266370">
        <ele>806.8</ele>
        <time>2021-10-01T12:46:27Z</time>
      </trkpt>
      <trkpt lat="42.2812140" lon="-4.2267620">
        <ele>808.0</ele>
        <time>2021-10-01T12:46:30Z</time>
      </trkpt>
      <trkpt lat="42.2811870" lon="-4.2269230">
        <ele>809.2</ele>
        <time>2021-10-01T12:46:34Z</time>
      </trkpt>
      <trkpt lat="42.2811790" lon="-4.2270520">
        <ele>810.2</ele>
        <time>2021-10-01T12:46:37Z</time>
      </trkpt>
      <trkpt lat="42.2811920" lon="-4.2272720">
        <ele>811.2</ele>
        <time>2021-10-01T12:46:42Z</time>
      </trkpt>
      <trkpt lat="42.2811990" lon="-4.2274970">
        <ele>812.6</ele>
        <time>2021-10-01T12:46:47Z</time>
      </trkpt>
      <trkpt lat="42.2812490" lon="-4.2280470">
        <ele>813.6</ele>
        <time>2021-10-01T12:46:59Z</time>
      </trkpt>
      <trkpt lat="42.2812750" lon="-4.2283360">
        <ele>814.8</ele>
        <time>2021-10-01T12:47:05Z</time>
      </trkpt>
      <trkpt lat="42.2813270" lon="-4.2289890">
        <ele>815.2</ele>
        <time>2021-10-01T12:47:16Z</time>
      </trkpt>
      <trkpt lat="42.2813740" lon="-4.2295640">
        <ele>814.4</ele>
        <time>2021-10-01T12:47:24Z</time>
      </trkpt>
      <trkpt lat="42.2814150" lon="-4.2299560">
        <ele>813.8</ele>
        <time>2021-10-01T12:47:29Z</time>
      </trkpt>
      <trkpt lat="42.2814450" lon="-4.2302910">
        <ele>812.4</ele>
        <time>2021-10-01T12:47:33Z</time>
      </trkpt>
      <trkpt lat="42.2814850" lon="-4.2307280">
        <ele>811.4</ele>
        <time>2021-10-01T12:47:38Z</time>
      </trkpt>
      <trkpt lat="42.2815130" lon="-4.2310770">
        <ele>811.0</ele>
        <time>2021-10-01T12:47:42Z</time>
      </trkpt>
      <trkpt lat="42.2815730" lon="-4.2317630">
        <ele>810.4</ele>
        <time>2021-10-01T12:47:50Z</time>
      </trkpt>
      <trkpt lat="42.2815810" lon="-4.2318490">
        <ele>810.6</ele>
        <time>2021-10-01T12:47:51Z</time>
      </trkpt>
      <trkpt lat="42.2816400" lon="-4.2326270">
        <ele>809.6</ele>
        <time>2021-10-01T12:48:00Z</time>
      </trkpt>
      <trkpt lat="42.2816470" lon="-4.2327130">
        <ele>809.6</ele>
        <time>2021-10-01T12:48:01Z</time>
      </trkpt>
      <trkpt lat="42.2816910" lon="-4.2334530">
        <ele>809.0</ele>
        <time>2021-10-01T12:48:10Z</time>
      </trkpt>
      <trkpt lat="42.2817270" lon="-4.2342490">
        <ele>809.0</ele>
        <time>2021-10-01T12:48:20Z</time>
      </trkpt>
      <trkpt lat="42.2817170" lon="-4.2347890">
        <ele>808.8</ele>
        <time>2021-10-01T12:48:26Z</time>
      </trkpt>
      <trkpt lat="42.2816820" lon="-4.2351820">
        <ele>808.2</ele>
        <time>2021-10-01T12:48:30Z</time>
      </trkpt>
      <trkpt lat="42.2816510" lon="-4.2356070">
        <ele>807.0</ele>
        <time>2021-10-01T12:48:34Z</time>
      </trkpt>
      <trkpt lat="42.2816380" lon="-4.2359370">
        <ele>805.6</ele>
        <time>2021-10-01T12:48:37Z</time>
      </trkpt>
      <trkpt lat="42.2816350" lon="-4.2362660">
        <ele>804.4</ele>
        <time>2021-10-01T12:48:40Z</time>
      </trkpt>
      <trkpt lat="42.2816500" lon="-4.2365600">
        <ele>803.6</ele>
        <time>2021-10-01T12:48:43Z</time>
      </trkpt>
      <trkpt lat="42.2816520" lon="-4.2366440">
        <ele>803.4</ele>
        <time>2021-10-01T12:48:44Z</time>
      </trkpt>
      <trkpt lat="42.2815870" lon="-4.2369560">
        <ele>802.6</ele>
        <time>2021-10-01T12:48:49Z</time>
      </trkpt>
      <trkpt lat="42.2815490" lon="-4.2371670">
        <ele>802.2</ele>
        <time>2021-10-01T12:48:52Z</time>
      </trkpt>
      <trkpt lat="42.2814130" lon="-4.2377400">
        <ele>801.0</ele>
        <time>2021-10-01T12:48:59Z</time>
      </trkpt>
      <trkpt lat="42.2813240" lon="-4.2380010">
        <ele>800.6</ele>
        <time>2021-10-01T12:49:02Z</time>
      </trkpt>
      <trkpt lat="42.2811950" lon="-4.2383610">
        <ele>799.8</ele>
        <time>2021-10-01T12:49:06Z</time>
      </trkpt>
      <trkpt lat="42.2811300" lon="-4.2385420">
        <ele>798.8</ele>
        <time>2021-10-01T12:49:08Z</time>
      </trkpt>
      <trkpt lat="42.2810660" lon="-4.2387190">
        <ele>797.6</ele>
        <time>2021-10-01T12:49:10Z</time>
      </trkpt>
      <trkpt lat="42.2809680" lon="-4.2389810">
        <ele>796.4</ele>
        <time>2021-10-01T12:49:13Z</time>
      </trkpt>
      <trkpt lat="42.2807960" lon="-4.2394190">
        <ele>795.2</ele>
        <time>2021-10-01T12:49:18Z</time>
      </trkpt>
      <trkpt lat="42.2807160" lon="-4.2395820">
        <ele>794.8</ele>
        <time>2021-10-01T12:49:20Z</time>
      </trkpt>
      <trkpt lat="42.2806380" lon="-4.2397450">
        <ele>794.0</ele>
        <time>2021-10-01T12:49:22Z</time>
      </trkpt>
      <trkpt lat="42.2805650" lon="-4.2399110">
        <ele>793.4</ele>
        <time>2021-10-01T12:49:24Z</time>
      </trkpt>
      <trkpt lat="42.2805300" lon="-4.2399930">
        <ele>793.0</ele>
        <time>2021-10-01T12:49:25Z</time>
      </trkpt>
      <trkpt lat="42.2804630" lon="-4.2401540">
        <ele>792.6</ele>
        <time>2021-10-01T12:49:27Z</time>
      </trkpt>
      <trkpt lat="42.2803910" lon="-4.2403080">
        <ele>792.4</ele>
        <time>2021-10-01T12:49:29Z</time>
      </trkpt>
      <trkpt lat="42.2803100" lon="-4.2404540">
        <ele>792.2</ele>
        <time>2021-10-01T12:49:31Z</time>
      </trkpt>
      <trkpt lat="42.2802740" lon="-4.2405310">
        <ele>792.0</ele>
        <time>2021-10-01T12:49:32Z</time>
      </trkpt>
      <trkpt lat="42.2799700" lon="-4.2412070">
        <ele>791.2</ele>
        <time>2021-10-01T12:49:41Z</time>
      </trkpt>
      <trkpt lat="42.2798980" lon="-4.2413650">
        <ele>791.0</ele>
        <time>2021-10-01T12:49:43Z</time>
      </trkpt>
      <trkpt lat="42.2796760" lon="-4.2418120">
        <ele>790.6</ele>
        <time>2021-10-01T12:49:48Z</time>
      </trkpt>
      <trkpt lat="42.2795650" lon="-4.2420050">
        <ele>790.0</ele>
        <time>2021-10-01T12:49:50Z</time>
      </trkpt>
      <trkpt lat="42.2794470" lon="-4.2422010">
        <ele>788.4</ele>
        <time>2021-10-01T12:49:52Z</time>
      </trkpt>
      <trkpt lat="42.2793880" lon="-4.2422960">
        <ele>787.4</ele>
        <time>2021-10-01T12:49:53Z</time>
      </trkpt>
      <trkpt lat="42.2792780" lon="-4.2424840">
        <ele>785.4</ele>
        <time>2021-10-01T12:49:55Z</time>
      </trkpt>
      <trkpt lat="42.2792300" lon="-4.2425770">
        <ele>784.0</ele>
        <time>2021-10-01T12:49:56Z</time>
      </trkpt>
      <trkpt lat="42.2791860" lon="-4.2426700">
        <ele>782.4</ele>
        <time>2021-10-01T12:49:57Z</time>
      </trkpt>
      <trkpt lat="42.2791440" lon="-4.2427600">
        <ele>781.4</ele>
        <time>2021-10-01T12:49:58Z</time>
      </trkpt>
      <trkpt lat="42.2790290" lon="-4.2430200">
        <ele>780.6</ele>
        <time>2021-10-01T12:50:01Z</time>
      </trkpt>
      <trkpt lat="42.2789740" lon="-4.2431780">
        <ele>780.4</ele>
        <time>2021-10-01T12:50:03Z</time>
      </trkpt>
      <trkpt lat="42.2789110" lon="-4.2433900">
        <ele>780.4</ele>
        <time>2021-10-01T12:50:06Z</time>
      </trkpt>
      <trkpt lat="42.2788500" lon="-4.2435790">
        <ele>780.6</ele>
        <time>2021-10-01T12:50:09Z</time>
      </trkpt>
      <trkpt lat="42.2788220" lon="-4.2437160">
        <ele>781.0</ele>
        <time>2021-10-01T12:50:11Z</time>
      </trkpt>
      <trkpt lat="42.2787930" lon="-4.2438600">
        <ele>781.2</ele>
        <time>2021-10-01T12:50:13Z</time>
      </trkpt>
      <trkpt lat="42.2787660" lon="-4.2440090">
        <ele>781.2</ele>
        <time>2021-10-01T12:50:15Z</time>
      </trkpt>
      <trkpt lat="42.2787420" lon="-4.2441590">
        <ele>781.4</ele>
        <time>2021-10-01T12:50:17Z</time>
      </trkpt>
      <trkpt lat="42.2787190" lon="-4.2443010">
        <ele>781.6</ele>
        <time>2021-10-01T12:50:19Z</time>
      </trkpt>
      <trkpt lat="42.2786990" lon="-4.2444390">
        <ele>781.6</ele>
        <time>2021-10-01T12:50:21Z</time>
      </trkpt>
      <trkpt lat="42.2786790" lon="-4.2447590">
        <ele>782.2</ele>
        <time>2021-10-01T12:50:26Z</time>
      </trkpt>
      <trkpt lat="42.2786470" lon="-4.2448640">
        <ele>783.0</ele>
        <time>2021-10-01T12:50:28Z</time>
      </trkpt>
      <trkpt lat="42.2786040" lon="-4.2449590">
        <ele>783.6</ele>
        <time>2021-10-01T12:50:30Z</time>
      </trkpt>
      <trkpt lat="42.2785620" lon="-4.2450550">
        <ele>784.2</ele>
        <time>2021-10-01T12:50:32Z</time>
      </trkpt>
      <trkpt lat="42.2784740" lon="-4.2452440">
        <ele>784.6</ele>
        <time>2021-10-01T12:50:36Z</time>
      </trkpt>
      <trkpt lat="42.2784100" lon="-4.2453900">
        <ele>785.2</ele>
        <time>2021-10-01T12:50:39Z</time>
      </trkpt>
      <trkpt lat="42.2783550" lon="-4.2455240">
        <ele>786.6</ele>
        <time>2021-10-01T12:50:42Z</time>
      </trkpt>
      <trkpt lat="42.2783370" lon="-4.2455840">
        <ele>787.6</ele>
        <time>2021-10-01T12:50:46Z</time>
      </trkpt>
      <trkpt lat="42.2783060" lon="-4.2456240">
        <ele>790.0</ele>
        <time>2021-10-01T12:50:59Z</time>
      </trkpt>
      <trkpt lat="42.2782930" lon="-4.2456550">
        <ele>790.0</ele>
        <time>2021-10-01T12:51:00Z</time>
      </trkpt>
      <trkpt lat="42.2782290" lon="-4.2458000">
        <ele>790.0</ele>
        <time>2021-10-01T12:51:03Z</time>
      </trkpt>
      <trkpt lat="42.2779960" lon="-4.2463310">
        <ele>789.0</ele>
        <time>2021-10-01T12:51:11Z</time>
      </trkpt>
      <trkpt lat="42.2779270" lon="-4.2464990">
        <ele>788.6</ele>
        <time>2021-10-01T12:51:13Z</time>
      </trkpt>
      <trkpt lat="42.2778550" lon="-4.2466770">
        <ele>787.8</ele>
        <time>2021-10-01T12:51:15Z</time>
      </trkpt>
      <trkpt lat="42.2777840" lon="-4.2468480">
        <ele>786.8</ele>
        <time>2021-10-01T12:51:17Z</time>
      </trkpt>
      <trkpt lat="42.2776600" lon="-4.2470760">
        <ele>784.8</ele>
        <time>2021-10-01T12:51:20Z</time>
      </trkpt>
      <trkpt lat="42.2775980" lon="-4.2472460">
        <ele>784.6</ele>
        <time>2021-10-01T12:51:24Z</time>
      </trkpt>
      <trkpt lat="42.2776210" lon="-4.2472910">
        <ele>784.2</ele>
        <time>2021-10-01T12:51:27Z</time>
      </trkpt>
      <trkpt lat="42.2776220" lon="-4.2472920">
        <ele>784.2</ele>
        <time>2021-10-01T12:51:28Z</time>
      </trkpt>
      <trkpt lat="42.2775790" lon="-4.2473390">
        <ele>786.0</ele>
        <time>2021-10-01T12:53:13Z</time>
      </trkpt>
      <trkpt lat="42.2775700" lon="-4.2473690">
        <ele>786.2</ele>
        <time>2021-10-01T12:53:14Z</time>
      </trkpt>
      <trkpt lat="42.2775270" lon="-4.2477760">
        <ele>784.6</ele>
        <time>2021-10-01T12:53:23Z</time>
      </trkpt>
      <trkpt lat="42.2775830" lon="-4.2482600">
        <ele>784.0</ele>
        <time>2021-10-01T12:53:31Z</time>
      </trkpt>
      <trkpt lat="42.2776830" lon="-4.2485050">
        <ele>783.4</ele>
        <time>2021-10-01T12:53:35Z</time>
      </trkpt>
      <trkpt lat="42.2778510" lon="-4.2487710">
        <ele>783.2</ele>
        <time>2021-10-01T12:53:40Z</time>
      </trkpt>
      <trkpt lat="42.2782940" lon="-4.2492300">
        <ele>783.4</ele>
        <time>2021-10-01T12:53:50Z</time>
      </trkpt>
      <trkpt lat="42.2786460" lon="-4.2495450">
        <ele>783.2</ele>
        <time>2021-10-01T12:53:57Z</time>
      </trkpt>
      <trkpt lat="42.2790830" lon="-4.2498570">
        <ele>782.8</ele>
        <time>2021-10-01T12:54:05Z</time>
      </trkpt>
      <trkpt lat="42.2795960" lon="-4.2500870">
        <ele>783.0</ele>
        <time>2021-10-01T12:54:14Z</time>
      </trkpt>
      <trkpt lat="42.2800620" lon="-4.2500870">
        <ele>783.2</ele>
        <time>2021-10-01T12:54:22Z</time>
      </trkpt>
      <trkpt lat="42.2806560" lon="-4.2501080">
        <ele>783.2</ele>
        <time>2021-10-01T12:54:32Z</time>
      </trkpt>
      <trkpt lat="42.2811980" lon="-4.2502350">
        <ele>783.4</ele>
        <time>2021-10-01T12:54:41Z</time>
      </trkpt>
      <trkpt lat="42.2816200" lon="-4.2503550">
        <ele>783.4</ele>
        <time>2021-10-01T12:54:48Z</time>
      </trkpt>
      <trkpt lat="42.2817440" lon="-4.2503970">
        <ele>783.4</ele>
        <time>2021-10-01T12:54:50Z</time>
      </trkpt>
      <trkpt lat="42.2820250" lon="-4.2505570">
        <ele>783.2</ele>
        <time>2021-10-01T12:54:55Z</time>
      </trkpt>
      <trkpt lat="42.2820750" lon="-4.2506020">
        <ele>783.0</ele>
        <time>2021-10-01T12:54:56Z</time>
      </trkpt>
      <trkpt lat="42.2824260" lon="-4.2510400">
        <ele>783.0</ele>
        <time>2021-10-01T12:55:04Z</time>
      </trkpt>
      <trkpt lat="42.2828750" lon="-4.2514960">
        <ele>782.8</ele>
        <time>2021-10-01T12:55:13Z</time>
      </trkpt>
      <trkpt lat="42.2831560" lon="-4.2518490">
        <ele>782.0</ele>
        <time>2021-10-01T12:55:19Z</time>
      </trkpt>
      <trkpt lat="42.2835590" lon="-4.2523720">
        <ele>781.2</ele>
        <time>2021-10-01T12:55:28Z</time>
      </trkpt>
      <trkpt lat="42.2836040" lon="-4.2524260">
        <ele>781.2</ele>
        <time>2021-10-01T12:55:29Z</time>
      </trkpt>
      <trkpt lat="42.2841070" lon="-4.2528570">
        <ele>782.2</ele>
        <time>2021-10-01T12:55:39Z</time>
      </trkpt>
      <trkpt lat="42.2841600" lon="-4.2528920">
        <ele>782.2</ele>
        <time>2021-10-01T12:55:40Z</time>
      </trkpt>
      <trkpt lat="42.2845710" lon="-4.2531920">
        <ele>782.4</ele>
        <time>2021-10-01T12:55:48Z</time>
      </trkpt>
      <trkpt lat="42.2850220" lon="-4.2536730">
        <ele>782.6</ele>
        <time>2021-10-01T12:55:58Z</time>
      </trkpt>
      <trkpt lat="42.2851770" lon="-4.2539690">
        <ele>782.8</ele>
        <time>2021-10-01T12:56:03Z</time>
      </trkpt>
      <trkpt lat="42.2852710" lon="-4.2541690">
        <ele>783.2</ele>
        <time>2021-10-01T12:56:08Z</time>
      </trkpt>
      <trkpt lat="42.2852720" lon="-4.2541700">
        <ele>783.4</ele>
        <time>2021-10-01T12:56:09Z</time>
      </trkpt>
      <trkpt lat="42.2852790" lon="-4.2541920">
        <ele>786.8</ele>
        <time>2021-10-01T12:56:28Z</time>
      </trkpt>
      <trkpt lat="42.2852900" lon="-4.2542130">
        <ele>786.8</ele>
        <time>2021-10-01T12:56:29Z</time>
      </trkpt>
      <trkpt lat="42.2853290" lon="-4.2542580">
        <ele>786.8</ele>
        <time>2021-10-01T12:56:31Z</time>
      </trkpt>
      <trkpt lat="42.2854170" lon="-4.2543430">
        <ele>786.6</ele>
        <time>2021-10-01T12:56:34Z</time>
      </trkpt>
      <trkpt lat="42.2856160" lon="-4.2545790">
        <ele>785.6</ele>
        <time>2021-10-01T12:56:40Z</time>
      </trkpt>
      <trkpt lat="42.2860060" lon="-4.2550480">
        <ele>784.6</ele>
        <time>2021-10-01T12:56:51Z</time>
      </trkpt>
      <trkpt lat="42.2863680" lon="-4.2555870">
        <ele>783.8</ele>
        <time>2021-10-01T12:57:02Z</time>
      </trkpt>
      <trkpt lat="42.2864400" lon="-4.2557490">
        <ele>783.8</ele>
        <time>2021-10-01T12:57:05Z</time>
      </trkpt>
      <trkpt lat="42.2865010" lon="-4.2558940">
        <ele>784.0</ele>
        <time>2021-10-01T12:57:08Z</time>
      </trkpt>
      <trkpt lat="42.2866640" lon="-4.2561000">
        <ele>784.4</ele>
        <time>2021-10-01T12:57:13Z</time>
      </trkpt>
      <trkpt lat="42.2870640" lon="-4.2564490">
        <ele>785.0</ele>
        <time>2021-10-01T12:57:23Z</time>
      </trkpt>
      <trkpt lat="42.2871290" lon="-4.2565290">
        <ele>785.0</ele>
        <time>2021-10-01T12:57:25Z</time>
      </trkpt>
      <trkpt lat="42.2870920" lon="-4.2567960">
        <ele>785.0</ele>
        <time>2021-10-01T12:57:30Z</time>
      </trkpt>
      <trkpt lat="42.2870560" lon="-4.2569100">
        <ele>785.0</ele>
        <time>2021-10-01T12:57:32Z</time>
      </trkpt>
      <trkpt lat="42.2870420" lon="-4.2570330">
        <ele>785.0</ele>
        <time>2021-10-01T12:57:34Z</time>
      </trkpt>
      <trkpt lat="42.2870360" lon="-4.2571580">
        <ele>785.2</ele>
        <time>2021-10-01T12:57:36Z</time>
      </trkpt>
      <trkpt lat="42.2870590" lon="-4.2574090">
        <ele>785.2</ele>
        <time>2021-10-01T12:57:40Z</time>
      </trkpt>
      <trkpt lat="42.2871400" lon="-4.2576460">
        <ele>785.4</ele>
        <time>2021-10-01T12:57:44Z</time>
      </trkpt>
      <trkpt lat="42.2871880" lon="-4.2577650">
        <ele>785.4</ele>
        <time>2021-10-01T12:57:46Z</time>
      </trkpt>
      <trkpt lat="42.2872590" lon="-4.2580000">
        <ele>785.4</ele>
        <time>2021-10-01T12:57:50Z</time>
      </trkpt>
      <trkpt lat="42.2872730" lon="-4.2587290">
        <ele>785.8</ele>
        <time>2021-10-01T12:58:01Z</time>
      </trkpt>
      <trkpt lat="42.2872760" lon="-4.2592460">
        <ele>786.0</ele>
        <time>2021-10-01T12:58:08Z</time>
      </trkpt>
      <trkpt lat="42.2872660" lon="-4.2595360">
        <ele>785.6</ele>
        <time>2021-10-01T12:58:12Z</time>
      </trkpt>
      <trkpt lat="42.2871960" lon="-4.2603030">
        <ele>784.4</ele>
        <time>2021-10-01T12:58:22Z</time>
      </trkpt>
      <trkpt lat="42.2871270" lon="-4.2610740">
        <ele>784.4</ele>
        <time>2021-10-01T12:58:32Z</time>
      </trkpt>
      <trkpt lat="42.2870400" lon="-4.2616610">
        <ele>784.4</ele>
        <time>2021-10-01T12:58:40Z</time>
      </trkpt>
      <trkpt lat="42.2867400" lon="-4.2622810">
        <ele>784.4</ele>
        <time>2021-10-01T12:58:50Z</time>
      </trkpt>
      <trkpt lat="42.2863980" lon="-4.2628530">
        <ele>785.0</ele>
        <time>2021-10-01T12:59:00Z</time>
      </trkpt>
      <trkpt lat="42.2860470" lon="-4.2634340">
        <ele>785.2</ele>
        <time>2021-10-01T12:59:10Z</time>
      </trkpt>
      <trkpt lat="42.2856850" lon="-4.2640100">
        <ele>785.2</ele>
        <time>2021-10-01T12:59:20Z</time>
      </trkpt>
      <trkpt lat="42.2855650" lon="-4.2642590">
        <ele>785.2</ele>
        <time>2021-10-01T12:59:24Z</time>
      </trkpt>
      <trkpt lat="42.2854000" lon="-4.2648150">
        <ele>785.8</ele>
        <time>2021-10-01T12:59:32Z</time>
      </trkpt>
      <trkpt lat="42.2851930" lon="-4.2655160">
        <ele>786.4</ele>
        <time>2021-10-01T12:59:42Z</time>
      </trkpt>
      <trkpt lat="42.2849930" lon="-4.2662410">
        <ele>786.2</ele>
        <time>2021-10-01T12:59:52Z</time>
      </trkpt>
      <trkpt lat="42.2847830" lon="-4.2669340">
        <ele>786.2</ele>
        <time>2021-10-01T13:00:02Z</time>
      </trkpt>
      <trkpt lat="42.2845670" lon="-4.2676140">
        <ele>786.6</ele>
        <time>2021-10-01T13:00:12Z</time>
      </trkpt>
      <trkpt lat="42.2845270" lon="-4.2677420">
        <ele>786.6</ele>
        <time>2021-10-01T13:00:14Z</time>
      </trkpt>
      <trkpt lat="42.2843570" lon="-4.2682300">
        <ele>787.2</ele>
        <time>2021-10-01T13:00:22Z</time>
      </trkpt>
      <trkpt lat="42.2843300" lon="-4.2683600">
        <ele>787.2</ele>
        <time>2021-10-01T13:00:24Z</time>
      </trkpt>
      <trkpt lat="42.2843040" lon="-4.2685550">
        <ele>787.6</ele>
        <time>2021-10-01T13:00:27Z</time>
      </trkpt>
      <trkpt lat="42.2842970" lon="-4.2686200">
        <ele>787.6</ele>
        <time>2021-10-01T13:00:28Z</time>
      </trkpt>
      <trkpt lat="42.2842860" lon="-4.2686830">
        <ele>788.0</ele>
        <time>2021-10-01T13:00:29Z</time>
      </trkpt>
      <trkpt lat="42.2842170" lon="-4.2689850">
        <ele>788.6</ele>
        <time>2021-10-01T13:00:34Z</time>
      </trkpt>
      <trkpt lat="42.2842040" lon="-4.2690460">
        <ele>789.0</ele>
        <time>2021-10-01T13:00:35Z</time>
      </trkpt>
      <trkpt lat="42.2841710" lon="-4.2691710">
        <ele>790.0</ele>
        <time>2021-10-01T13:00:37Z</time>
      </trkpt>
      <trkpt lat="42.2841160" lon="-4.2693700">
        <ele>791.4</ele>
        <time>2021-10-01T13:00:40Z</time>
      </trkpt>
      <trkpt lat="42.2838960" lon="-4.2700720">
        <ele>792.0</ele>
        <time>2021-10-01T13:00:51Z</time>
      </trkpt>
      <trkpt lat="42.2837590" lon="-4.2705260">
        <ele>792.4</ele>
        <time>2021-10-01T13:00:58Z</time>
      </trkpt>
      <trkpt lat="42.2835470" lon="-4.2712170">
        <ele>792.4</ele>
        <time>2021-10-01T13:01:09Z</time>
      </trkpt>
      <trkpt lat="42.2833840" lon="-4.2717240">
        <ele>792.4</ele>
        <time>2021-10-01T13:01:17Z</time>
      </trkpt>
      <trkpt lat="42.2831670" lon="-4.2724100">
        <ele>792.0</ele>
        <time>2021-10-01T13:01:28Z</time>
      </trkpt>
      <trkpt lat="42.2830500" lon="-4.2727810">
        <ele>791.4</ele>
        <time>2021-10-01T13:01:34Z</time>
      </trkpt>
      <trkpt lat="42.2828330" lon="-4.2734530">
        <ele>791.0</ele>
        <time>2021-10-01T13:01:45Z</time>
      </trkpt>
      <trkpt lat="42.2826180" lon="-4.2741490">
        <ele>791.6</ele>
        <time>2021-10-01T13:01:56Z</time>
      </trkpt>
      <trkpt lat="42.2824460" lon="-4.2748750">
        <ele>792.4</ele>
        <time>2021-10-01T13:02:07Z</time>
      </trkpt>
      <trkpt lat="42.2824050" lon="-4.2750750">
        <ele>792.6</ele>
        <time>2021-10-01T13:02:10Z</time>
      </trkpt>
      <trkpt lat="42.2822660" lon="-4.2758090">
        <ele>793.2</ele>
        <time>2021-10-01T13:02:21Z</time>
      </trkpt>
      <trkpt lat="42.2822330" lon="-4.2760850">
        <ele>793.6</ele>
        <time>2021-10-01T13:02:25Z</time>
      </trkpt>
      <trkpt lat="42.2821690" lon="-4.2766970">
        <ele>794.0</ele>
        <time>2021-10-01T13:02:34Z</time>
      </trkpt>
      <trkpt lat="42.2820750" lon="-4.2770900">
        <ele>794.2</ele>
        <time>2021-10-01T13:02:40Z</time>
      </trkpt>
      <trkpt lat="42.2820480" lon="-4.2772960">
        <ele>794.2</ele>
        <time>2021-10-01T13:02:43Z</time>
      </trkpt>
      <trkpt lat="42.2819040" lon="-4.2780460">
        <ele>794.6</ele>
        <time>2021-10-01T13:02:54Z</time>
      </trkpt>
      <trkpt lat="42.2817650" lon="-4.2787980">
        <ele>794.8</ele>
        <time>2021-10-01T13:03:05Z</time>
      </trkpt>
      <trkpt lat="42.2817530" lon="-4.2788650">
        <ele>794.8</ele>
        <time>2021-10-01T13:03:06Z</time>
      </trkpt>
      <trkpt lat="42.2816130" lon="-4.2796060">
        <ele>795.0</ele>
        <time>2021-10-01T13:03:17Z</time>
      </trkpt>
      <trkpt lat="42.2815720" lon="-4.2798730">
        <ele>795.0</ele>
        <time>2021-10-01T13:03:21Z</time>
      </trkpt>
      <trkpt lat="42.2814330" lon="-4.2806110">
        <ele>795.6</ele>
        <time>2021-10-01T13:03:32Z</time>
      </trkpt>
      <trkpt lat="42.2814100" lon="-4.2807460">
        <ele>796.0</ele>
        <time>2021-10-01T13:03:34Z</time>
      </trkpt>
      <trkpt lat="42.2813010" lon="-4.2814920">
        <ele>796.8</ele>
        <time>2021-10-01T13:03:45Z</time>
      </trkpt>
      <trkpt lat="42.2812630" lon="-4.2818170">
        <ele>797.2</ele>
        <time>2021-10-01T13:03:50Z</time>
      </trkpt>
      <trkpt lat="42.2811840" lon="-4.2823640">
        <ele>797.6</ele>
        <time>2021-10-01T13:03:58Z</time>
      </trkpt>
      <trkpt lat="42.2810920" lon="-4.2827720">
        <ele>797.6</ele>
        <time>2021-10-01T13:04:04Z</time>
      </trkpt>
      <trkpt lat="42.2810250" lon="-4.2830250">
        <ele>797.8</ele>
        <time>2021-10-01T13:04:08Z</time>
      </trkpt>
      <trkpt lat="42.2809790" lon="-4.2831940">
        <ele>798.0</ele>
        <time>2021-10-01T13:04:11Z</time>
      </trkpt>
      <trkpt lat="42.2809530" lon="-4.2832990">
        <ele>798.4</ele>
        <time>2021-10-01T13:04:13Z</time>
      </trkpt>
      <trkpt lat="42.2808640" lon="-4.2839280">
        <ele>799.4</ele>
        <time>2021-10-01T13:04:23Z</time>
      </trkpt>
      <trkpt lat="42.2808000" lon="-4.2846670">
        <ele>800.4</ele>
        <time>2021-10-01T13:04:35Z</time>
      </trkpt>
      <trkpt lat="42.2807980" lon="-4.2847240">
        <ele>800.4</ele>
        <time>2021-10-01T13:04:36Z</time>
      </trkpt>
      <trkpt lat="42.2807990" lon="-4.2851200">
        <ele>801.6</ele>
        <time>2021-10-01T13:04:43Z</time>
      </trkpt>
      <trkpt lat="42.2808090" lon="-4.2854530">
        <ele>803.0</ele>
        <time>2021-10-01T13:04:49Z</time>
      </trkpt>
      <trkpt lat="42.2808430" lon="-4.2858280">
        <ele>804.0</ele>
        <time>2021-10-01T13:04:56Z</time>
      </trkpt>
      <trkpt lat="42.2808910" lon="-4.2861450">
        <ele>805.4</ele>
        <time>2021-10-01T13:05:02Z</time>
      </trkpt>
      <trkpt lat="42.2809220" lon="-4.2863580">
        <ele>806.6</ele>
        <time>2021-10-01T13:05:06Z</time>
      </trkpt>
      <trkpt lat="42.2809130" lon="-4.2866760">
        <ele>807.2</ele>
        <time>2021-10-01T13:05:12Z</time>
      </trkpt>
      <trkpt lat="42.2808610" lon="-4.2868290">
        <ele>807.6</ele>
        <time>2021-10-01T13:05:15Z</time>
      </trkpt>
      <trkpt lat="42.2807050" lon="-4.2872270">
        <ele>808.6</ele>
        <time>2021-10-01T13:05:23Z</time>
      </trkpt>
      <trkpt lat="42.2804320" lon="-4.2878910">
        <ele>809.6</ele>
        <time>2021-10-01T13:05:36Z</time>
      </trkpt>
      <trkpt lat="42.2804120" lon="-4.2879420">
        <ele>809.6</ele>
        <time>2021-10-01T13:05:37Z</time>
      </trkpt>
      <trkpt lat="42.2801650" lon="-4.2886360">
        <ele>810.4</ele>
        <time>2021-10-01T13:05:50Z</time>
      </trkpt>
      <trkpt lat="42.2800690" lon="-4.2889240">
        <ele>810.4</ele>
        <time>2021-10-01T13:05:55Z</time>
      </trkpt>
      <trkpt lat="42.2800130" lon="-4.2890980">
        <ele>810.4</ele>
        <time>2021-10-01T13:05:58Z</time>
      </trkpt>
      <trkpt lat="42.2797920" lon="-4.2897670">
        <ele>810.0</ele>
        <time>2021-10-01T13:06:09Z</time>
      </trkpt>
      <trkpt lat="42.2796440" lon="-4.2901910">
        <ele>810.8</ele>
        <time>2021-10-01T13:06:16Z</time>
      </trkpt>
      <trkpt lat="42.2794730" lon="-4.2906760">
        <ele>812.0</ele>
        <time>2021-10-01T13:06:24Z</time>
      </trkpt>
      <trkpt lat="42.2792290" lon="-4.2913840">
        <ele>812.8</ele>
        <time>2021-10-01T13:06:36Z</time>
      </trkpt>
      <trkpt lat="42.2791600" lon="-4.2916750">
        <ele>813.2</ele>
        <time>2021-10-01T13:06:41Z</time>
      </trkpt>
      <trkpt lat="42.2790920" lon="-4.2921760">
        <ele>814.4</ele>
        <time>2021-10-01T13:06:49Z</time>
      </trkpt>
      <trkpt lat="42.2790760" lon="-4.2927680">
        <ele>814.6</ele>
        <time>2021-10-01T13:06:58Z</time>
      </trkpt>
      <trkpt lat="42.2790750" lon="-4.2930330">
        <ele>815.4</ele>
        <time>2021-10-01T13:07:02Z</time>
      </trkpt>
      <trkpt lat="42.2790700" lon="-4.2934750">
        <ele>816.4</ele>
        <time>2021-10-01T13:07:09Z</time>
      </trkpt>
      <trkpt lat="42.2790390" lon="-4.2942230">
        <ele>816.6</ele>
        <time>2021-10-01T13:07:21Z</time>
      </trkpt>
      <trkpt lat="42.2789950" lon="-4.2949650">
        <ele>817.6</ele>
        <time>2021-10-01T13:07:34Z</time>
      </trkpt>
      <trkpt lat="42.2789630" lon="-4.2952550">
        <ele>818.8</ele>
        <time>2021-10-01T13:07:39Z</time>
      </trkpt>
      <trkpt lat="42.2788740" lon="-4.2960060">
        <ele>819.6</ele>
        <time>2021-10-01T13:07:52Z</time>
      </trkpt>
      <trkpt lat="42.2787950" lon="-4.2965340">
        <ele>820.0</ele>
        <time>2021-10-01T13:08:02Z</time>
      </trkpt>
      <trkpt lat="42.2787140" lon="-4.2967910">
        <ele>821.0</ele>
        <time>2021-10-01T13:08:07Z</time>
      </trkpt>
      <trkpt lat="42.2785710" lon="-4.2970780">
        <ele>822.0</ele>
        <time>2021-10-01T13:08:13Z</time>
      </trkpt>
      <trkpt lat="42.2784630" lon="-4.2972640">
        <ele>822.8</ele>
        <time>2021-10-01T13:08:17Z</time>
      </trkpt>
      <trkpt lat="42.2784000" lon="-4.2973490">
        <ele>823.2</ele>
        <time>2021-10-01T13:08:19Z</time>
      </trkpt>
      <trkpt lat="42.2782120" lon="-4.2976160">
        <ele>823.6</ele>
        <time>2021-10-01T13:08:25Z</time>
      </trkpt>
      <trkpt lat="42.2781310" lon="-4.2977600">
        <ele>823.6</ele>
        <time>2021-10-01T13:08:28Z</time>
      </trkpt>
      <trkpt lat="42.2779210" lon="-4.2984300">
        <ele>822.8</ele>
        <time>2021-10-01T13:08:40Z</time>
      </trkpt>
      <trkpt lat="42.2777150" lon="-4.2991450">
        <ele>823.0</ele>
        <time>2021-10-01T13:08:53Z</time>
      </trkpt>
      <trkpt lat="42.2775360" lon="-4.2997510">
        <ele>824.4</ele>
        <time>2021-10-01T13:09:05Z</time>
      </trkpt>
      <trkpt lat="42.2774210" lon="-4.3001280">
        <ele>825.4</ele>
        <time>2021-10-01T13:09:13Z</time>
      </trkpt>
      <trkpt lat="42.2772960" lon="-4.3005190">
        <ele>826.4</ele>
        <time>2021-10-01T13:09:21Z</time>
      </trkpt>
      <trkpt lat="42.2772610" lon="-4.3006310">
        <ele>826.8</ele>
        <time>2021-10-01T13:09:23Z</time>
      </trkpt>
      <trkpt lat="42.2771740" lon="-4.3009050">
        <ele>827.6</ele>
        <time>2021-10-01T13:09:28Z</time>
      </trkpt>
      <trkpt lat="42.2770890" lon="-4.3011670">
        <ele>828.0</ele>
        <time>2021-10-01T13:09:33Z</time>
      </trkpt>
      <trkpt lat="42.2769810" lon="-4.3015220">
        <ele>829.2</ele>
        <time>2021-10-01T13:09:40Z</time>
      </trkpt>
      <trkpt lat="42.2769190" lon="-4.3017040">
        <ele>830.2</ele>
        <time>2021-10-01T13:09:44Z</time>
      </trkpt>
      <trkpt lat="42.2768160" lon="-4.3019590">
        <ele>831.4</ele>
        <time>2021-10-01T13:09:50Z</time>
      </trkpt>
      <trkpt lat="42.2767250" lon="-4.3021470">
        <ele>832.6</ele>
        <time>2021-10-01T13:09:55Z</time>
      </trkpt>
      <trkpt lat="42.2766180" lon="-4.3023680">
        <ele>833.8</ele>
        <time>2021-10-01T13:10:01Z</time>
      </trkpt>
      <trkpt lat="42.2765340" lon="-4.3025470">
        <ele>835.0</ele>
        <time>2021-10-01T13:10:06Z</time>
      </trkpt>
      <trkpt lat="42.2764400" lon="-4.3027720">
        <ele>836.2</ele>
        <time>2021-10-01T13:10:12Z</time>
      </trkpt>
      <trkpt lat="42.2763730" lon="-4.3029680">
        <ele>837.2</ele>
        <time>2021-10-01T13:10:17Z</time>
      </trkpt>
      <trkpt lat="42.2763250" lon="-4.3031240">
        <ele>838.4</ele>
        <time>2021-10-01T13:10:21Z</time>
      </trkpt>
      <trkpt lat="42.2762830" lon="-4.3032450">
        <ele>839.4</ele>
        <time>2021-10-01T13:10:24Z</time>
      </trkpt>
      <trkpt lat="42.2762380" lon="-4.3034060">
        <ele>840.4</ele>
        <time>2021-10-01T13:10:28Z</time>
      </trkpt>
      <trkpt lat="42.2761340" lon="-4.3037290">
        <ele>841.6</ele>
        <time>2021-10-01T13:10:36Z</time>
      </trkpt>
      <trkpt lat="42.2760770" lon="-4.3039020">
        <ele>842.8</ele>
        <time>2021-10-01T13:10:40Z</time>
      </trkpt>
      <trkpt lat="42.2759950" lon="-4.3041590">
        <ele>842.8</ele>
        <time>2021-10-01T13:10:44Z</time>
      </trkpt>
      <trkpt lat="42.2759000" lon="-4.3044980">
        <ele>843.0</ele>
        <time>2021-10-01T13:10:48Z</time>
      </trkpt>
      <trkpt lat="42.2758300" lon="-4.3047750">
        <ele>841.0</ele>
        <time>2021-10-01T13:10:51Z</time>
      </trkpt>
      <trkpt lat="42.2758080" lon="-4.3048680">
        <ele>840.0</ele>
        <time>2021-10-01T13:10:52Z</time>
      </trkpt>
      <trkpt lat="42.2757620" lon="-4.3050550">
        <ele>838.4</ele>
        <time>2021-10-01T13:10:54Z</time>
      </trkpt>
      <trkpt lat="42.2757140" lon="-4.3052440">
        <ele>837.0</ele>
        <time>2021-10-01T13:10:56Z</time>
      </trkpt>
      <trkpt lat="42.2756680" lon="-4.3054320">
        <ele>835.6</ele>
        <time>2021-10-01T13:10:58Z</time>
      </trkpt>
      <trkpt lat="42.2756230" lon="-4.3056220">
        <ele>834.2</ele>
        <time>2021-10-01T13:11:00Z</time>
      </trkpt>
      <trkpt lat="42.2755550" lon="-4.3059100">
        <ele>833.2</ele>
        <time>2021-10-01T13:11:03Z</time>
      </trkpt>
      <trkpt lat="42.2754170" lon="-4.3064890">
        <ele>832.0</ele>
        <time>2021-10-01T13:11:09Z</time>
      </trkpt>
      <trkpt lat="42.2753250" lon="-4.3068670">
        <ele>831.0</ele>
        <time>2021-10-01T13:11:13Z</time>
      </trkpt>
      <trkpt lat="42.2751820" lon="-4.3074210">
        <ele>830.0</ele>
        <time>2021-10-01T13:11:19Z</time>
      </trkpt>
      <trkpt lat="42.2749930" lon="-4.3081500">
        <ele>829.8</ele>
        <time>2021-10-01T13:11:27Z</time>
      </trkpt>
      <trkpt lat="42.2747730" lon="-4.3087590">
        <ele>829.8</ele>
        <time>2021-10-01T13:11:34Z</time>
      </trkpt>
      <trkpt lat="42.2746900" lon="-4.3090420">
        <ele>829.6</ele>
        <time>2021-10-01T13:11:37Z</time>
      </trkpt>
      <trkpt lat="42.2746270" lon="-4.3093400">
        <ele>828.4</ele>
        <time>2021-10-01T13:11:40Z</time>
      </trkpt>
      <trkpt lat="42.2745530" lon="-4.3096390">
        <ele>827.0</ele>
        <time>2021-10-01T13:11:43Z</time>
      </trkpt>
      <trkpt lat="42.2744490" lon="-4.3099310">
        <ele>825.8</ele>
        <time>2021-10-01T13:11:46Z</time>
      </trkpt>
      <trkpt lat="42.2743330" lon="-4.3102010">
        <ele>824.4</ele>
        <time>2021-10-01T13:11:49Z</time>
      </trkpt>
      <trkpt lat="42.2741450" lon="-4.3106210">
        <ele>823.4</ele>
        <time>2021-10-01T13:11:54Z</time>
      </trkpt>
      <trkpt lat="42.2738690" lon="-4.3112590">
        <ele>822.4</ele>
        <time>2021-10-01T13:12:02Z</time>
      </trkpt>
      <trkpt lat="42.2738360" lon="-4.3113360">
        <ele>822.6</ele>
        <time>2021-10-01T13:12:03Z</time>
      </trkpt>
      <trkpt lat="42.2736740" lon="-4.3117010">
        <ele>822.4</ele>
        <time>2021-10-01T13:12:08Z</time>
      </trkpt>
      <trkpt lat="42.2736470" lon="-4.3117630">
        <ele>822.4</ele>
        <time>2021-10-01T13:12:09Z</time>
      </trkpt>
      <trkpt lat="42.2735850" lon="-4.3119140">
        <ele>822.4</ele>
        <time>2021-10-01T13:12:12Z</time>
      </trkpt>
      <trkpt lat="42.2735460" lon="-4.3120090">
        <ele>822.4</ele>
        <time>2021-10-01T13:12:14Z</time>
      </trkpt>
      <trkpt lat="42.2735030" lon="-4.3121260">
        <ele>822.4</ele>
        <time>2021-10-01T13:12:16Z</time>
      </trkpt>
      <trkpt lat="42.2734260" lon="-4.3123200">
        <ele>822.4</ele>
        <time>2021-10-01T13:12:19Z</time>
      </trkpt>
      <trkpt lat="42.2733410" lon="-4.3125280">
        <ele>822.4</ele>
        <time>2021-10-01T13:12:22Z</time>
      </trkpt>
      <trkpt lat="42.2732180" lon="-4.3128020">
        <ele>822.0</ele>
        <time>2021-10-01T13:12:26Z</time>
      </trkpt>
      <trkpt lat="42.2731850" lon="-4.3128690">
        <ele>821.6</ele>
        <time>2021-10-01T13:12:27Z</time>
      </trkpt>
      <trkpt lat="42.2730560" lon="-4.3131470">
        <ele>821.0</ele>
        <time>2021-10-01T13:12:31Z</time>
      </trkpt>
      <trkpt lat="42.2729000" lon="-4.3135020">
        <ele>820.8</ele>
        <time>2021-10-01T13:12:36Z</time>
      </trkpt>
      <trkpt lat="42.2728300" lon="-4.3136330">
        <ele>820.8</ele>
        <time>2021-10-01T13:12:38Z</time>
      </trkpt>
      <trkpt lat="42.2726080" lon="-4.3141120">
        <ele>821.0</ele>
        <time>2021-10-01T13:12:45Z</time>
      </trkpt>
      <trkpt lat="42.2724880" lon="-4.3144030">
        <ele>820.8</ele>
        <time>2021-10-01T13:12:49Z</time>
      </trkpt>
      <trkpt lat="42.2723650" lon="-4.3147520">
        <ele>820.8</ele>
        <time>2021-10-01T13:12:54Z</time>
      </trkpt>
      <trkpt lat="42.2721150" lon="-4.3154740">
        <ele>820.8</ele>
        <time>2021-10-01T13:13:04Z</time>
      </trkpt>
      <trkpt lat="42.2720460" lon="-4.3157020">
        <ele>820.6</ele>
        <time>2021-10-01T13:13:07Z</time>
      </trkpt>
      <trkpt lat="42.2720000" lon="-4.3158440">
        <ele>820.6</ele>
        <time>2021-10-01T13:13:09Z</time>
      </trkpt>
      <trkpt lat="42.2719350" lon="-4.3160500">
        <ele>820.2</ele>
        <time>2021-10-01T13:13:12Z</time>
      </trkpt>
      <trkpt lat="42.2718940" lon="-4.3161950">
        <ele>819.6</ele>
        <time>2021-10-01T13:13:14Z</time>
      </trkpt>
      <trkpt lat="42.2718240" lon="-4.3165250">
        <ele>819.0</ele>
        <time>2021-10-01T13:13:18Z</time>
      </trkpt>
      <trkpt lat="42.2717510" lon="-4.3168690">
        <ele>818.0</ele>
        <time>2021-10-01T13:13:22Z</time>
      </trkpt>
      <trkpt lat="42.2716650" lon="-4.3173050">
        <ele>816.8</ele>
        <time>2021-10-01T13:13:27Z</time>
      </trkpt>
      <trkpt lat="42.2715080" lon="-4.3180780">
        <ele>816.2</ele>
        <time>2021-10-01T13:13:36Z</time>
      </trkpt>
      <trkpt lat="42.2714060" lon="-4.3185690">
        <ele>816.0</ele>
        <time>2021-10-01T13:13:42Z</time>
      </trkpt>
      <trkpt lat="42.2712930" lon="-4.3190990">
        <ele>814.8</ele>
        <time>2021-10-01T13:13:49Z</time>
      </trkpt>
      <trkpt lat="42.2712420" lon="-4.3194000">
        <ele>814.8</ele>
        <time>2021-10-01T13:13:53Z</time>
      </trkpt>
      <trkpt lat="42.2710800" lon="-4.3201760">
        <ele>815.0</ele>
        <time>2021-10-01T13:14:03Z</time>
      </trkpt>
      <trkpt lat="42.2709170" lon="-4.3209430">
        <ele>814.8</ele>
        <time>2021-10-01T13:14:13Z</time>
      </trkpt>
      <trkpt lat="42.2707480" lon="-4.3216640">
        <ele>814.6</ele>
        <time>2021-10-01T13:14:23Z</time>
      </trkpt>
      <trkpt lat="42.2706220" lon="-4.3223970">
        <ele>815.0</ele>
        <time>2021-10-01T13:14:33Z</time>
      </trkpt>
      <trkpt lat="42.2704630" lon="-4.3231040">
        <ele>815.6</ele>
        <time>2021-10-01T13:14:43Z</time>
      </trkpt>
      <trkpt lat="42.2703020" lon="-4.3238010">
        <ele>815.4</ele>
        <time>2021-10-01T13:14:53Z</time>
      </trkpt>
      <trkpt lat="42.2701260" lon="-4.3245340">
        <ele>815.0</ele>
        <time>2021-10-01T13:15:04Z</time>
      </trkpt>
      <trkpt lat="42.2699350" lon="-4.3252450">
        <ele>815.0</ele>
        <time>2021-10-01T13:15:14Z</time>
      </trkpt>
      <trkpt lat="42.2698460" lon="-4.3255230">
        <ele>814.6</ele>
        <time>2021-10-01T13:15:18Z</time>
      </trkpt>
      <trkpt lat="42.2698040" lon="-4.3256540">
        <ele>814.0</ele>
        <time>2021-10-01T13:15:20Z</time>
      </trkpt>
      <trkpt lat="42.2697660" lon="-4.3257710">
        <ele>813.8</ele>
        <time>2021-10-01T13:15:22Z</time>
      </trkpt>
      <trkpt lat="42.2697160" lon="-4.3259080">
        <ele>813.8</ele>
        <time>2021-10-01T13:15:25Z</time>
      </trkpt>
      <trkpt lat="42.2697010" lon="-4.3259570">
        <ele>813.8</ele>
        <time>2021-10-01T13:15:26Z</time>
      </trkpt>
      <trkpt lat="42.2696210" lon="-4.3262020">
        <ele>813.4</ele>
        <time>2021-10-01T13:15:30Z</time>
      </trkpt>
      <trkpt lat="42.2695680" lon="-4.3263470">
        <ele>813.0</ele>
        <time>2021-10-01T13:15:32Z</time>
      </trkpt>
      <trkpt lat="42.2695080" lon="-4.3265050">
        <ele>813.0</ele>
        <time>2021-10-01T13:15:34Z</time>
      </trkpt>
      <trkpt lat="42.2694210" lon="-4.3267420">
        <ele>812.8</ele>
        <time>2021-10-01T13:15:37Z</time>
      </trkpt>
      <trkpt lat="42.2692840" lon="-4.3271200">
        <ele>811.8</ele>
        <time>2021-10-01T13:15:42Z</time>
      </trkpt>
      <trkpt lat="42.2692030" lon="-4.3273430">
        <ele>811.4</ele>
        <time>2021-10-01T13:15:45Z</time>
      </trkpt>
      <trkpt lat="42.2690310" lon="-4.3278000">
        <ele>810.6</ele>
        <time>2021-10-01T13:15:51Z</time>
      </trkpt>
      <trkpt lat="42.2689340" lon="-4.3280550">
        <ele>808.8</ele>
        <time>2021-10-01T13:15:54Z</time>
      </trkpt>
      <trkpt lat="42.2688040" lon="-4.3284010">
        <ele>808.0</ele>
        <time>2021-10-01T13:15:58Z</time>
      </trkpt>
      <trkpt lat="42.2687730" lon="-4.3284860">
        <ele>808.0</ele>
        <time>2021-10-01T13:15:59Z</time>
      </trkpt>
      <trkpt lat="42.2685580" lon="-4.3290520">
        <ele>807.0</ele>
        <time>2021-10-01T13:16:06Z</time>
      </trkpt>
      <trkpt lat="42.2682880" lon="-4.3297580">
        <ele>806.6</ele>
        <time>2021-10-01T13:16:15Z</time>
      </trkpt>
      <trkpt lat="42.2682320" lon="-4.3299140">
        <ele>806.6</ele>
        <time>2021-10-01T13:16:17Z</time>
      </trkpt>
      <trkpt lat="42.2681720" lon="-4.3300690">
        <ele>806.4</ele>
        <time>2021-10-01T13:16:19Z</time>
      </trkpt>
      <trkpt lat="42.2679860" lon="-4.3305290">
        <ele>806.0</ele>
        <time>2021-10-01T13:16:25Z</time>
      </trkpt>
      <trkpt lat="42.2678180" lon="-4.3308990">
        <ele>806.0</ele>
        <time>2021-10-01T13:16:30Z</time>
      </trkpt>
      <trkpt lat="42.2675090" lon="-4.3315550">
        <ele>805.6</ele>
        <time>2021-10-01T13:16:39Z</time>
      </trkpt>
      <trkpt lat="42.2671970" lon="-4.3322450">
        <ele>805.2</ele>
        <time>2021-10-01T13:16:48Z</time>
      </trkpt>
      <trkpt lat="42.2669540" lon="-4.3327780">
        <ele>804.8</ele>
        <time>2021-10-01T13:16:55Z</time>
      </trkpt>
      <trkpt lat="42.2667800" lon="-4.3331560">
        <ele>804.0</ele>
        <time>2021-10-01T13:17:00Z</time>
      </trkpt>
      <trkpt lat="42.2666210" lon="-4.3335300">
        <ele>803.4</ele>
        <time>2021-10-01T13:17:05Z</time>
      </trkpt>
      <trkpt lat="42.2665020" lon="-4.3337950">
        <ele>803.2</ele>
        <time>2021-10-01T13:17:09Z</time>
      </trkpt>
      <trkpt lat="42.2664130" lon="-4.3339900">
        <ele>803.2</ele>
        <time>2021-10-01T13:17:12Z</time>
      </trkpt>
      <trkpt lat="42.2663180" lon="-4.3341860">
        <ele>803.0</ele>
        <time>2021-10-01T13:17:15Z</time>
      </trkpt>
      <trkpt lat="42.2660870" lon="-4.3346870">
        <ele>802.6</ele>
        <time>2021-10-01T13:17:22Z</time>
      </trkpt>
      <trkpt lat="42.2659320" lon="-4.3350500">
        <ele>801.8</ele>
        <time>2021-10-01T13:17:27Z</time>
      </trkpt>
      <trkpt lat="42.2657730" lon="-4.3354120">
        <ele>800.6</ele>
        <time>2021-10-01T13:17:32Z</time>
      </trkpt>
      <trkpt lat="42.2654850" lon="-4.3360540">
        <ele>800.0</ele>
        <time>2021-10-01T13:17:41Z</time>
      </trkpt>
      <trkpt lat="42.2654300" lon="-4.3361930">
        <ele>800.0</ele>
        <time>2021-10-01T13:17:43Z</time>
      </trkpt>
      <trkpt lat="42.2651270" lon="-4.3368520">
        <ele>800.4</ele>
        <time>2021-10-01T13:17:53Z</time>
      </trkpt>
      <trkpt lat="42.2648210" lon="-4.3374570">
        <ele>800.8</ele>
        <time>2021-10-01T13:18:03Z</time>
      </trkpt>
      <trkpt lat="42.2646000" lon="-4.3378940">
        <ele>800.8</ele>
        <time>2021-10-01T13:18:11Z</time>
      </trkpt>
      <trkpt lat="42.2644590" lon="-4.3381700">
        <ele>800.8</ele>
        <time>2021-10-01T13:18:16Z</time>
      </trkpt>
      <trkpt lat="42.2641590" lon="-4.3388010">
        <ele>801.2</ele>
        <time>2021-10-01T13:18:27Z</time>
      </trkpt>
      <trkpt lat="42.2638290" lon="-4.3394490">
        <ele>801.6</ele>
        <time>2021-10-01T13:18:38Z</time>
      </trkpt>
      <trkpt lat="42.2635790" lon="-4.3398980">
        <ele>801.6</ele>
        <time>2021-10-01T13:18:46Z</time>
      </trkpt>
      <trkpt lat="42.2634220" lon="-4.3401880">
        <ele>802.0</ele>
        <time>2021-10-01T13:18:51Z</time>
      </trkpt>
      <trkpt lat="42.2630980" lon="-4.3408490">
        <ele>802.8</ele>
        <time>2021-10-01T13:19:02Z</time>
      </trkpt>
      <trkpt lat="42.2629320" lon="-4.3412230">
        <ele>802.4</ele>
        <time>2021-10-01T13:19:08Z</time>
      </trkpt>
      <trkpt lat="42.2627740" lon="-4.3416350">
        <ele>802.2</ele>
        <time>2021-10-01T13:19:14Z</time>
      </trkpt>
      <trkpt lat="42.2626760" lon="-4.3419370">
        <ele>801.8</ele>
        <time>2021-10-01T13:19:18Z</time>
      </trkpt>
      <trkpt lat="42.2625810" lon="-4.3422490">
        <ele>801.0</ele>
        <time>2021-10-01T13:19:22Z</time>
      </trkpt>
      <trkpt lat="42.2625060" lon="-4.3424890">
        <ele>800.6</ele>
        <time>2021-10-01T13:19:25Z</time>
      </trkpt>
      <trkpt lat="42.2623680" lon="-4.3428980">
        <ele>799.8</ele>
        <time>2021-10-01T13:19:30Z</time>
      </trkpt>
      <trkpt lat="42.2622210" lon="-4.3432920">
        <ele>798.8</ele>
        <time>2021-10-01T13:19:35Z</time>
      </trkpt>
      <trkpt lat="42.2620620" lon="-4.3436480">
        <ele>797.8</ele>
        <time>2021-10-01T13:19:40Z</time>
      </trkpt>
      <trkpt lat="42.2617110" lon="-4.3442610">
        <ele>797.6</ele>
        <time>2021-10-01T13:19:50Z</time>
      </trkpt>
      <trkpt lat="42.2615890" lon="-4.3444820">
        <ele>797.8</ele>
        <time>2021-10-01T13:19:54Z</time>
      </trkpt>
      <trkpt lat="42.2615060" lon="-4.3446340">
        <ele>797.8</ele>
        <time>2021-10-01T13:19:57Z</time>
      </trkpt>
      <trkpt lat="42.2614090" lon="-4.3448060">
        <ele>797.8</ele>
        <time>2021-10-01T13:20:01Z</time>
      </trkpt>
      <trkpt lat="42.2612980" lon="-4.3449270">
        <ele>798.2</ele>
        <time>2021-10-01T13:20:06Z</time>
      </trkpt>
      <trkpt lat="42.2613150" lon="-4.3449210">
        <ele>800.8</ele>
        <time>2021-10-01T13:42:31Z</time>
      </trkpt>
      <trkpt lat="42.2613040" lon="-4.3449420">
        <ele>800.8</ele>
        <time>2021-10-01T13:42:32Z</time>
      </trkpt>
      <trkpt lat="42.2612190" lon="-4.3450160">
        <ele>800.8</ele>
        <time>2021-10-01T13:42:36Z</time>
      </trkpt>
      <trkpt lat="42.2611120" lon="-4.3450840">
        <ele>800.2</ele>
        <time>2021-10-01T13:42:40Z</time>
      </trkpt>
      <trkpt lat="42.2610640" lon="-4.3451030">
        <ele>799.8</ele>
        <time>2021-10-01T13:42:43Z</time>
      </trkpt>
      <trkpt lat="42.2610550" lon="-4.3451000">
        <ele>799.8</ele>
        <time>2021-10-01T13:42:45Z</time>
      </trkpt>
      <trkpt lat="42.2610390" lon="-4.3451690">
        <ele>801.0</ele>
        <time>2021-10-01T13:43:02Z</time>
      </trkpt>
      <trkpt lat="42.2610280" lon="-4.3452040">
        <ele>801.0</ele>
        <time>2021-10-01T13:43:03Z</time>
      </trkpt>
      <trkpt lat="42.2609750" lon="-4.3453220">
        <ele>800.8</ele>
        <time>2021-10-01T13:43:06Z</time>
      </trkpt>
      <trkpt lat="42.2609330" lon="-4.3454120">
        <ele>800.8</ele>
        <time>2021-10-01T13:43:08Z</time>
      </trkpt>
      <trkpt lat="42.2607940" lon="-4.3455940">
        <ele>800.0</ele>
        <time>2021-10-01T13:43:13Z</time>
      </trkpt>
      <trkpt lat="42.2607690" lon="-4.3456330">
        <ele>799.8</ele>
        <time>2021-10-01T13:43:14Z</time>
      </trkpt>
      <trkpt lat="42.2606760" lon="-4.3461280">
        <ele>799.4</ele>
        <time>2021-10-01T13:43:26Z</time>
      </trkpt>
      <trkpt lat="42.2607960" lon="-4.3464920">
        <ele>800.4</ele>
        <time>2021-10-01T13:43:35Z</time>
      </trkpt>
      <trkpt lat="42.2607810" lon="-4.3466450">
        <ele>800.6</ele>
        <time>2021-10-01T13:43:38Z</time>
      </trkpt>
      <trkpt lat="42.2607500" lon="-4.3467420">
        <ele>800.6</ele>
        <time>2021-10-01T13:43:40Z</time>
      </trkpt>
      <trkpt lat="42.2607040" lon="-4.3468830">
        <ele>800.6</ele>
        <time>2021-10-01T13:43:43Z</time>
      </trkpt>
      <trkpt lat="42.2606320" lon="-4.3470420">
        <ele>800.6</ele>
        <time>2021-10-01T13:43:48Z</time>
      </trkpt>
      <trkpt lat="42.2606100" lon="-4.3470510">
        <ele>800.8</ele>
        <time>2021-10-01T13:43:49Z</time>
      </trkpt>
      <trkpt lat="42.2605230" lon="-4.3470590">
        <ele>801.2</ele>
        <time>2021-10-01T13:43:52Z</time>
      </trkpt>
      <trkpt lat="42.2604570" lon="-4.3470550">
        <ele>802.0</ele>
        <time>2021-10-01T13:43:54Z</time>
      </trkpt>
      <trkpt lat="42.2603290" lon="-4.3470620">
        <ele>802.6</ele>
        <time>2021-10-01T13:43:58Z</time>
      </trkpt>
      <trkpt lat="42.2603050" lon="-4.3470850">
        <ele>802.6</ele>
        <time>2021-10-01T13:43:59Z</time>
      </trkpt>
      <trkpt lat="42.2602740" lon="-4.3472480">
        <ele>802.6</ele>
        <time>2021-10-01T13:44:04Z</time>
      </trkpt>
      <trkpt lat="42.2602450" lon="-4.3473510">
        <ele>802.6</ele>
        <time>2021-10-01T13:44:07Z</time>
      </trkpt>
      <trkpt lat="42.2602920" lon="-4.3472860">
        <ele>802.4</ele>
        <time>2021-10-01T13:44:15Z</time>
      </trkpt>
      <trkpt lat="42.2602880" lon="-4.3471100">
        <ele>802.4</ele>
        <time>2021-10-01T13:44:19Z</time>
      </trkpt>
      <trkpt lat="42.2602330" lon="-4.3470510">
        <ele>802.4</ele>
        <time>2021-10-01T13:44:21Z</time>
      </trkpt>
      <trkpt lat="42.2601520" lon="-4.3470030">
        <ele>802.4</ele>
        <time>2021-10-01T13:44:23Z</time>
      </trkpt>
      <trkpt lat="42.2600760" lon="-4.3469640">
        <ele>802.4</ele>
        <time>2021-10-01T13:44:25Z</time>
      </trkpt>
      <trkpt lat="42.2599870" lon="-4.3469300">
        <ele>802.2</ele>
        <time>2021-10-01T13:44:28Z</time>
      </trkpt>
      <trkpt lat="42.2598310" lon="-4.3468520">
        <ele>801.2</ele>
        <time>2021-10-01T13:44:34Z</time>
      </trkpt>
      <trkpt lat="42.2596870" lon="-4.3467860">
        <ele>801.0</ele>
        <time>2021-10-01T13:44:38Z</time>
      </trkpt>
      <trkpt lat="42.2595900" lon="-4.3467240">
        <ele>800.8</ele>
        <time>2021-10-01T13:44:41Z</time>
      </trkpt>
      <trkpt lat="42.2595520" lon="-4.3466720">
        <ele>800.8</ele>
        <time>2021-10-01T13:44:43Z</time>
      </trkpt>
      <trkpt lat="42.2595040" lon="-4.3465060">
        <ele>800.0</ele>
        <time>2021-10-01T13:44:47Z</time>
      </trkpt>
      <trkpt lat="42.2594540" lon="-4.3464460">
        <ele>800.0</ele>
        <time>2021-10-01T13:44:49Z</time>
      </trkpt>
      <trkpt lat="42.2593510" lon="-4.3464530">
        <ele>799.8</ele>
        <time>2021-10-01T13:44:52Z</time>
      </trkpt>
      <trkpt lat="42.2592820" lon="-4.3464860">
        <ele>799.6</ele>
        <time>2021-10-01T13:44:54Z</time>
      </trkpt>
      <trkpt lat="42.2591620" lon="-4.3465490">
        <ele>799.6</ele>
        <time>2021-10-01T13:44:58Z</time>
      </trkpt>
      <trkpt lat="42.2590880" lon="-4.3466220">
        <ele>799.4</ele>
        <time>2021-10-01T13:45:01Z</time>
      </trkpt>
      <trkpt lat="42.2590350" lon="-4.3467710">
        <ele>799.4</ele>
        <time>2021-10-01T13:45:05Z</time>
      </trkpt>
      <trkpt lat="42.2589250" lon="-4.3467250">
        <ele>799.4</ele>
        <time>2021-10-01T13:45:10Z</time>
      </trkpt>
      <trkpt lat="42.2589050" lon="-4.3466830">
        <ele>799.4</ele>
        <time>2021-10-01T13:45:11Z</time>
      </trkpt>
      <trkpt lat="42.2588830" lon="-4.3466420">
        <ele>799.4</ele>
        <time>2021-10-01T13:45:12Z</time>
      </trkpt>
      <trkpt lat="42.2588320" lon="-4.3465650">
        <ele>799.4</ele>
        <time>2021-10-01T13:45:14Z</time>
      </trkpt>
      <trkpt lat="42.2587750" lon="-4.3464960">
        <ele>799.4</ele>
        <time>2021-10-01T13:45:16Z</time>
      </trkpt>
      <trkpt lat="42.2586970" lon="-4.3464260">
        <ele>799.4</ele>
        <time>2021-10-01T13:45:19Z</time>
      </trkpt>
      <trkpt lat="42.2586660" lon="-4.3464000">
        <ele>799.4</ele>
        <time>2021-10-01T13:45:21Z</time>
      </trkpt>
      <trkpt lat="42.2586310" lon="-4.3464260">
        <ele>799.4</ele>
        <time>2021-10-01T13:45:24Z</time>
      </trkpt>
      <trkpt lat="42.2586010" lon="-4.3464750">
        <ele>799.4</ele>
        <time>2021-10-01T13:45:26Z</time>
      </trkpt>
      <trkpt lat="42.2585580" lon="-4.3465280">
        <ele>799.2</ele>
        <time>2021-10-01T13:45:28Z</time>
      </trkpt>
      <trkpt lat="42.2585150" lon="-4.3465850">
        <ele>799.2</ele>
        <time>2021-10-01T13:45:30Z</time>
      </trkpt>
      <trkpt lat="42.2584530" lon="-4.3466820">
        <ele>799.4</ele>
        <time>2021-10-01T13:45:33Z</time>
      </trkpt>
      <trkpt lat="42.2582350" lon="-4.3470920">
        <ele>799.2</ele>
        <time>2021-10-01T13:45:43Z</time>
      </trkpt>
      <trkpt lat="42.2580200" lon="-4.3477640">
        <ele>799.6</ele>
        <time>2021-10-01T13:45:57Z</time>
      </trkpt>
      <trkpt lat="42.2581980" lon="-4.3478790">
        <ele>799.6</ele>
        <time>2021-10-01T13:46:02Z</time>
      </trkpt>
      <trkpt lat="42.2583550" lon="-4.3479540">
        <ele>799.2</ele>
        <time>2021-10-01T13:46:05Z</time>
      </trkpt>
      <trkpt lat="42.2584650" lon="-4.3480110">
        <ele>799.0</ele>
        <time>2021-10-01T13:46:07Z</time>
      </trkpt>
      <trkpt lat="42.2586150" lon="-4.3481310">
        <ele>798.8</ele>
        <time>2021-10-01T13:46:10Z</time>
      </trkpt>
      <trkpt lat="42.2588290" lon="-4.3483410">
        <ele>798.8</ele>
        <time>2021-10-01T13:46:15Z</time>
      </trkpt>
      <trkpt lat="42.2591750" lon="-4.3487380">
        <ele>799.6</ele>
        <time>2021-10-01T13:46:24Z</time>
      </trkpt>
      <trkpt lat="42.2592570" lon="-4.3488110">
        <ele>799.8</ele>
        <time>2021-10-01T13:46:26Z</time>
      </trkpt>
      <trkpt lat="42.2593010" lon="-4.3488370">
        <ele>800.0</ele>
        <time>2021-10-01T13:46:27Z</time>
      </trkpt>
      <trkpt lat="42.2596100" lon="-4.3487000">
        <ele>800.4</ele>
        <time>2021-10-01T13:46:34Z</time>
      </trkpt>
      <trkpt lat="42.2597370" lon="-4.3485790">
        <ele>801.0</ele>
        <time>2021-10-01T13:46:37Z</time>
      </trkpt>
      <trkpt lat="42.2597780" lon="-4.3485460">
        <ele>801.2</ele>
        <time>2021-10-01T13:46:38Z</time>
      </trkpt>
      <trkpt lat="42.2598210" lon="-4.3485210">
        <ele>801.4</ele>
        <time>2021-10-01T13:46:39Z</time>
      </trkpt>
      <trkpt lat="42.2599610" lon="-4.3484990">
        <ele>802.2</ele>
        <time>2021-10-01T13:46:42Z</time>
      </trkpt>
      <trkpt lat="42.2600090" lon="-4.3485020">
        <ele>802.4</ele>
        <time>2021-10-01T13:46:43Z</time>
      </trkpt>
      <trkpt lat="42.2603520" lon="-4.3485670">
        <ele>803.2</ele>
        <time>2021-10-01T13:46:50Z</time>
      </trkpt>
      <trkpt lat="42.2606900" lon="-4.3486310">
        <ele>803.2</ele>
        <time>2021-10-01T13:46:56Z</time>
      </trkpt>
      <trkpt lat="42.2608580" lon="-4.3486740">
        <ele>802.8</ele>
        <time>2021-10-01T13:46:59Z</time>
      </trkpt>
      <trkpt lat="42.2609120" lon="-4.3486980">
        <ele>802.8</ele>
        <time>2021-10-01T13:47:00Z</time>
      </trkpt>
      <trkpt lat="42.2611130" lon="-4.3488390">
        <ele>802.6</ele>
        <time>2021-10-01T13:47:04Z</time>
      </trkpt>
      <trkpt lat="42.2612400" lon="-4.3489870">
        <ele>802.4</ele>
        <time>2021-10-01T13:47:07Z</time>
      </trkpt>
      <trkpt lat="42.2613340" lon="-4.3491810">
        <ele>802.4</ele>
        <time>2021-10-01T13:47:10Z</time>
      </trkpt>
      <trkpt lat="42.2613890" lon="-4.3493200">
        <ele>802.2</ele>
        <time>2021-10-01T13:47:12Z</time>
      </trkpt>
      <trkpt lat="42.2614470" lon="-4.3494510">
        <ele>801.8</ele>
        <time>2021-10-01T13:47:14Z</time>
      </trkpt>
      <trkpt lat="42.2615450" lon="-4.3496350">
        <ele>801.6</ele>
        <time>2021-10-01T13:47:17Z</time>
      </trkpt>
      <trkpt lat="42.2616620" lon="-4.3498000">
        <ele>801.6</ele>
        <time>2021-10-01T13:47:20Z</time>
      </trkpt>
      <trkpt lat="42.2618650" lon="-4.3500430">
        <ele>802.2</ele>
        <time>2021-10-01T13:47:25Z</time>
      </trkpt>
      <trkpt lat="42.2619920" lon="-4.3501870">
        <ele>803.2</ele>
        <time>2021-10-01T13:47:28Z</time>
      </trkpt>
      <trkpt lat="42.2622550" lon="-4.3504840">
        <ele>804.0</ele>
        <time>2021-10-01T13:47:34Z</time>
      </trkpt>
      <trkpt lat="42.2624750" lon="-4.3507350">
        <ele>804.4</ele>
        <time>2021-10-01T13:47:39Z</time>
      </trkpt>
      <trkpt lat="42.2625250" lon="-4.3507730">
        <ele>804.4</ele>
        <time>2021-10-01T13:47:40Z</time>
      </trkpt>
      <trkpt lat="42.2629260" lon="-4.3510370">
        <ele>804.8</ele>
        <time>2021-10-01T13:47:48Z</time>
      </trkpt>
      <trkpt lat="42.2630060" lon="-4.3512760">
        <ele>804.8</ele>
        <time>2021-10-01T13:47:52Z</time>
      </trkpt>
      <trkpt lat="42.2629370" lon="-4.3514640">
        <ele>804.8</ele>
        <time>2021-10-01T13:47:55Z</time>
      </trkpt>
      <trkpt lat="42.2626350" lon="-4.3521220">
        <ele>803.8</ele>
        <time>2021-10-01T13:48:05Z</time>
      </trkpt>
      <trkpt lat="42.2625750" lon="-4.3522630">
        <ele>803.2</ele>
        <time>2021-10-01T13:48:07Z</time>
      </trkpt>
      <trkpt lat="42.2623810" lon="-4.3526890">
        <ele>802.8</ele>
        <time>2021-10-01T13:48:13Z</time>
      </trkpt>
      <trkpt lat="42.2621950" lon="-4.3531440">
        <ele>802.8</ele>
        <time>2021-10-01T13:48:19Z</time>
      </trkpt>
      <trkpt lat="42.2618950" lon="-4.3537930">
        <ele>802.4</ele>
        <time>2021-10-01T13:48:28Z</time>
      </trkpt>
      <trkpt lat="42.2617910" lon="-4.3540020">
        <ele>802.2</ele>
        <time>2021-10-01T13:48:31Z</time>
      </trkpt>
      <trkpt lat="42.2616820" lon="-4.3542070">
        <ele>802.2</ele>
        <time>2021-10-01T13:48:34Z</time>
      </trkpt>
      <trkpt lat="42.2613440" lon="-4.3547820">
        <ele>802.2</ele>
        <time>2021-10-01T13:48:43Z</time>
      </trkpt>
      <trkpt lat="42.2610070" lon="-4.3553740">
        <ele>802.2</ele>
        <time>2021-10-01T13:48:52Z</time>
      </trkpt>
      <trkpt lat="42.2608520" lon="-4.3556410">
        <ele>802.4</ele>
        <time>2021-10-01T13:48:56Z</time>
      </trkpt>
      <trkpt lat="42.2605780" lon="-4.3561200">
        <ele>802.4</ele>
        <time>2021-10-01T13:49:03Z</time>
      </trkpt>
      <trkpt lat="42.2602570" lon="-4.3566790">
        <ele>802.8</ele>
        <time>2021-10-01T13:49:11Z</time>
      </trkpt>
      <trkpt lat="42.2599180" lon="-4.3572800">
        <ele>803.4</ele>
        <time>2021-10-01T13:49:20Z</time>
      </trkpt>
      <trkpt lat="42.2595730" lon="-4.3578850">
        <ele>804.2</ele>
        <time>2021-10-01T13:49:30Z</time>
      </trkpt>
      <trkpt lat="42.2595130" lon="-4.3580040">
        <ele>804.4</ele>
        <time>2021-10-01T13:49:32Z</time>
      </trkpt>
      <trkpt lat="42.2594430" lon="-4.3582060">
        <ele>804.6</ele>
        <time>2021-10-01T13:49:35Z</time>
      </trkpt>
      <trkpt lat="42.2592980" lon="-4.3589270">
        <ele>805.4</ele>
        <time>2021-10-01T13:49:45Z</time>
      </trkpt>
      <trkpt lat="42.2592820" lon="-4.3590000">
        <ele>805.4</ele>
        <time>2021-10-01T13:49:46Z</time>
      </trkpt>
      <trkpt lat="42.2591140" lon="-4.3597230">
        <ele>805.6</ele>
        <time>2021-10-01T13:49:56Z</time>
      </trkpt>
      <trkpt lat="42.2590060" lon="-4.3604550">
        <ele>805.4</ele>
        <time>2021-10-01T13:50:06Z</time>
      </trkpt>
      <trkpt lat="42.2589560" lon="-4.3610610">
        <ele>806.4</ele>
        <time>2021-10-01T13:50:14Z</time>
      </trkpt>
      <trkpt lat="42.2588760" lon="-4.3618580">
        <ele>806.2</ele>
        <time>2021-10-01T13:50:24Z</time>
      </trkpt>
      <trkpt lat="42.2588130" lon="-4.3624240">
        <ele>805.2</ele>
        <time>2021-10-01T13:50:31Z</time>
      </trkpt>
      <trkpt lat="42.2587210" lon="-4.3631420">
        <ele>805.0</ele>
        <time>2021-10-01T13:50:40Z</time>
      </trkpt>
      <trkpt lat="42.2585390" lon="-4.3638520">
        <ele>805.6</ele>
        <time>2021-10-01T13:50:51Z</time>
      </trkpt>
      <trkpt lat="42.2584520" lon="-4.3639850">
        <ele>806.4</ele>
        <time>2021-10-01T13:50:54Z</time>
      </trkpt>
      <trkpt lat="42.2584130" lon="-4.3640900">
        <ele>807.2</ele>
        <time>2021-10-01T13:50:56Z</time>
      </trkpt>
      <trkpt lat="42.2583970" lon="-4.3641430">
        <ele>807.8</ele>
        <time>2021-10-01T13:50:57Z</time>
      </trkpt>
      <trkpt lat="42.2583570" lon="-4.3643140">
        <ele>808.8</ele>
        <time>2021-10-01T13:51:00Z</time>
      </trkpt>
      <trkpt lat="42.2583390" lon="-4.3644360">
        <ele>809.2</ele>
        <time>2021-10-01T13:51:02Z</time>
      </trkpt>
      <trkpt lat="42.2583300" lon="-4.3652050">
        <ele>809.2</ele>
        <time>2021-10-01T13:51:13Z</time>
      </trkpt>
      <trkpt lat="42.2583400" lon="-4.3659670">
        <ele>808.6</ele>
        <time>2021-10-01T13:51:23Z</time>
      </trkpt>
      <trkpt lat="42.2583380" lon="-4.3664200">
        <ele>808.6</ele>
        <time>2021-10-01T13:51:29Z</time>
      </trkpt>
      <trkpt lat="42.2583410" lon="-4.3672110">
        <ele>808.8</ele>
        <time>2021-10-01T13:51:39Z</time>
      </trkpt>
      <trkpt lat="42.2583440" lon="-4.3679390">
        <ele>808.8</ele>
        <time>2021-10-01T13:51:48Z</time>
      </trkpt>
      <trkpt lat="42.2583420" lon="-4.3687000">
        <ele>809.2</ele>
        <time>2021-10-01T13:51:58Z</time>
      </trkpt>
      <trkpt lat="42.2583280" lon="-4.3690330">
        <ele>809.4</ele>
        <time>2021-10-01T13:52:03Z</time>
      </trkpt>
      <trkpt lat="42.2583290" lon="-4.3691380">
        <ele>809.6</ele>
        <time>2021-10-01T13:52:05Z</time>
      </trkpt>
      <trkpt lat="42.2583290" lon="-4.3692170">
        <ele>809.6</ele>
        <time>2021-10-01T13:52:07Z</time>
      </trkpt>
      <trkpt lat="42.2583450" lon="-4.3695090">
        <ele>810.0</ele>
        <time>2021-10-01T13:52:13Z</time>
      </trkpt>
      <trkpt lat="42.2583470" lon="-4.3700950">
        <ele>810.0</ele>
        <time>2021-10-01T13:52:22Z</time>
      </trkpt>
      <trkpt lat="42.2583580" lon="-4.3704070">
        <ele>809.6</ele>
        <time>2021-10-01T13:52:26Z</time>
      </trkpt>
      <trkpt lat="42.2583570" lon="-4.3707530">
        <ele>809.2</ele>
        <time>2021-10-01T13:52:30Z</time>
      </trkpt>
      <trkpt lat="42.2583610" lon="-4.3708410">
        <ele>808.8</ele>
        <time>2021-10-01T13:52:31Z</time>
      </trkpt>
      <trkpt lat="42.2583560" lon="-4.3711970">
        <ele>808.6</ele>
        <time>2021-10-01T13:52:35Z</time>
      </trkpt>
      <trkpt lat="42.2583580" lon="-4.3719900">
        <ele>808.4</ele>
        <time>2021-10-01T13:52:44Z</time>
      </trkpt>
      <trkpt lat="42.2583560" lon="-4.3727540">
        <ele>808.4</ele>
        <time>2021-10-01T13:52:53Z</time>
      </trkpt>
      <trkpt lat="42.2583550" lon="-4.3734940">
        <ele>808.8</ele>
        <time>2021-10-01T13:53:02Z</time>
      </trkpt>
      <trkpt lat="42.2583530" lon="-4.3742310">
        <ele>809.0</ele>
        <time>2021-10-01T13:53:11Z</time>
      </trkpt>
      <trkpt lat="42.2583560" lon="-4.3743940">
        <ele>809.0</ele>
        <time>2021-10-01T13:53:13Z</time>
      </trkpt>
      <trkpt lat="42.2583220" lon="-4.3751420">
        <ele>808.6</ele>
        <time>2021-10-01T13:53:22Z</time>
      </trkpt>
      <trkpt lat="42.2583020" lon="-4.3758810">
        <ele>808.6</ele>
        <time>2021-10-01T13:53:31Z</time>
      </trkpt>
      <trkpt lat="42.2583210" lon="-4.3766220">
        <ele>808.6</ele>
        <time>2021-10-01T13:53:40Z</time>
      </trkpt>
      <trkpt lat="42.2583420" lon="-4.3774100">
        <ele>808.6</ele>
        <time>2021-10-01T13:53:50Z</time>
      </trkpt>
      <trkpt lat="42.2583450" lon="-4.3779650">
        <ele>808.6</ele>
        <time>2021-10-01T13:53:57Z</time>
      </trkpt>
      <trkpt lat="42.2583490" lon="-4.3787160">
        <ele>808.8</ele>
        <time>2021-10-01T13:54:06Z</time>
      </trkpt>
      <trkpt lat="42.2583530" lon="-4.3793860">
        <ele>809.0</ele>
        <time>2021-10-01T13:54:14Z</time>
      </trkpt>
      <trkpt lat="42.2583540" lon="-4.3801790">
        <ele>809.0</ele>
        <time>2021-10-01T13:54:24Z</time>
      </trkpt>
      <trkpt lat="42.2584500" lon="-4.3809530">
        <ele>809.0</ele>
        <time>2021-10-01T13:54:34Z</time>
      </trkpt>
      <trkpt lat="42.2586440" lon="-4.3816960">
        <ele>809.4</ele>
        <time>2021-10-01T13:54:44Z</time>
      </trkpt>
      <trkpt lat="42.2587980" lon="-4.3822890">
        <ele>809.4</ele>
        <time>2021-10-01T13:54:52Z</time>
      </trkpt>
      <trkpt lat="42.2588920" lon="-4.3826510">
        <ele>809.2</ele>
        <time>2021-10-01T13:54:57Z</time>
      </trkpt>
      <trkpt lat="42.2590860" lon="-4.3833740">
        <ele>809.0</ele>
        <time>2021-10-01T13:55:07Z</time>
      </trkpt>
      <trkpt lat="42.2591660" lon="-4.3836970">
        <ele>809.0</ele>
        <time>2021-10-01T13:55:11Z</time>
      </trkpt>
      <trkpt lat="42.2592240" lon="-4.3839500">
        <ele>809.0</ele>
        <time>2021-10-01T13:55:14Z</time>
      </trkpt>
      <trkpt lat="42.2592840" lon="-4.3841960">
        <ele>808.6</ele>
        <time>2021-10-01T13:55:17Z</time>
      </trkpt>
      <trkpt lat="42.2593450" lon="-4.3844330">
        <ele>808.2</ele>
        <time>2021-10-01T13:55:20Z</time>
      </trkpt>
      <trkpt lat="42.2594440" lon="-4.3848260">
        <ele>807.8</ele>
        <time>2021-10-01T13:55:25Z</time>
      </trkpt>
      <trkpt lat="42.2596680" lon="-4.3855620">
        <ele>807.2</ele>
        <time>2021-10-01T13:55:35Z</time>
      </trkpt>
      <trkpt lat="42.2597520" lon="-4.3857600">
        <ele>807.2</ele>
        <time>2021-10-01T13:55:38Z</time>
      </trkpt>
      <trkpt lat="42.2601380" lon="-4.3862040">
        <ele>807.8</ele>
        <time>2021-10-01T13:55:47Z</time>
      </trkpt>
      <trkpt lat="42.2606260" lon="-4.3866200">
        <ele>808.8</ele>
        <time>2021-10-01T13:55:57Z</time>
      </trkpt>
      <trkpt lat="42.2611200" lon="-4.3870440">
        <ele>809.2</ele>
        <time>2021-10-01T13:56:07Z</time>
      </trkpt>
      <trkpt lat="42.2613210" lon="-4.3872140">
        <ele>809.6</ele>
        <time>2021-10-01T13:56:11Z</time>
      </trkpt>
      <trkpt lat="42.2616290" lon="-4.3874760">
        <ele>809.6</ele>
        <time>2021-10-01T13:56:17Z</time>
      </trkpt>
      <trkpt lat="42.2617770" lon="-4.3876060">
        <ele>809.6</ele>
        <time>2021-10-01T13:56:20Z</time>
      </trkpt>
      <trkpt lat="42.2621050" lon="-4.3879040">
        <ele>809.6</ele>
        <time>2021-10-01T13:56:27Z</time>
      </trkpt>
      <trkpt lat="42.2621860" lon="-4.3879830">
        <ele>809.6</ele>
        <time>2021-10-01T13:56:29Z</time>
      </trkpt>
      <trkpt lat="42.2622670" lon="-4.3880490">
        <ele>810.0</ele>
        <time>2021-10-01T13:56:31Z</time>
      </trkpt>
      <trkpt lat="42.2624870" lon="-4.3882610">
        <ele>810.0</ele>
        <time>2021-10-01T13:56:36Z</time>
      </trkpt>
      <trkpt lat="42.2626530" lon="-4.3883990">
        <ele>810.0</ele>
        <time>2021-10-01T13:56:39Z</time>
      </trkpt>
      <trkpt lat="42.2627660" lon="-4.3884980">
        <ele>810.0</ele>
        <time>2021-10-01T13:56:41Z</time>
      </trkpt>
      <trkpt lat="42.2629300" lon="-4.3886840">
        <ele>809.8</ele>
        <time>2021-10-01T13:56:44Z</time>
      </trkpt>
      <trkpt lat="42.2630210" lon="-4.3888470">
        <ele>809.6</ele>
        <time>2021-10-01T13:56:46Z</time>
      </trkpt>
      <trkpt lat="42.2631260" lon="-4.3891100">
        <ele>809.4</ele>
        <time>2021-10-01T13:56:49Z</time>
      </trkpt>
      <trkpt lat="42.2631810" lon="-4.3892950">
        <ele>809.0</ele>
        <time>2021-10-01T13:56:51Z</time>
      </trkpt>
      <trkpt lat="42.2632030" lon="-4.3893870">
        <ele>808.6</ele>
        <time>2021-10-01T13:56:52Z</time>
      </trkpt>
      <trkpt lat="42.2632400" lon="-4.3895690">
        <ele>808.4</ele>
        <time>2021-10-01T13:56:54Z</time>
      </trkpt>
      <trkpt lat="42.2633770" lon="-4.3902790">
        <ele>808.4</ele>
        <time>2021-10-01T13:57:02Z</time>
      </trkpt>
      <trkpt lat="42.2635090" lon="-4.3910450">
        <ele>808.8</ele>
        <time>2021-10-01T13:57:11Z</time>
      </trkpt>
      <trkpt lat="42.2636440" lon="-4.3917970">
        <ele>808.6</ele>
        <time>2021-10-01T13:57:20Z</time>
      </trkpt>
      <trkpt lat="42.2637010" lon="-4.3922150">
        <ele>808.6</ele>
        <time>2021-10-01T13:57:25Z</time>
      </trkpt>
      <trkpt lat="42.2637180" lon="-4.3922970">
        <ele>808.6</ele>
        <time>2021-10-01T13:57:26Z</time>
      </trkpt>
      <trkpt lat="42.2638660" lon="-4.3930320">
        <ele>809.0</ele>
        <time>2021-10-01T13:57:35Z</time>
      </trkpt>
      <trkpt lat="42.2639850" lon="-4.3937620">
        <ele>809.2</ele>
        <time>2021-10-01T13:57:44Z</time>
      </trkpt>
      <trkpt lat="42.2641210" lon="-4.3944750">
        <ele>809.0</ele>
        <time>2021-10-01T13:57:53Z</time>
      </trkpt>
      <trkpt lat="42.2642430" lon="-4.3951960">
        <ele>809.4</ele>
        <time>2021-10-01T13:58:02Z</time>
      </trkpt>
      <trkpt lat="42.2643730" lon="-4.3959170">
        <ele>809.4</ele>
        <time>2021-10-01T13:58:11Z</time>
      </trkpt>
      <trkpt lat="42.2645160" lon="-4.3966130">
        <ele>809.2</ele>
        <time>2021-10-01T13:58:20Z</time>
      </trkpt>
      <trkpt lat="42.2646190" lon="-4.3973780">
        <ele>809.4</ele>
        <time>2021-10-01T13:58:30Z</time>
      </trkpt>
      <trkpt lat="42.2645890" lon="-4.3977620">
        <ele>809.4</ele>
        <time>2021-10-01T13:58:35Z</time>
      </trkpt>
      <trkpt lat="42.2644930" lon="-4.3980550">
        <ele>809.4</ele>
        <time>2021-10-01T13:58:40Z</time>
      </trkpt>
      <trkpt lat="42.2643250" lon="-4.3982940">
        <ele>809.2</ele>
        <time>2021-10-01T13:58:45Z</time>
      </trkpt>
      <trkpt lat="42.2642560" lon="-4.3983780">
        <ele>809.2</ele>
        <time>2021-10-01T13:58:47Z</time>
      </trkpt>
      <trkpt lat="42.2641890" lon="-4.3984510">
        <ele>809.2</ele>
        <time>2021-10-01T13:58:49Z</time>
      </trkpt>
      <trkpt lat="42.2639950" lon="-4.3986960">
        <ele>808.6</ele>
        <time>2021-10-01T13:58:55Z</time>
      </trkpt>
      <trkpt lat="42.2638450" lon="-4.3989500">
        <ele>809.0</ele>
        <time>2021-10-01T13:59:02Z</time>
      </trkpt>
      <trkpt lat="42.2638170" lon="-4.3989920">
        <ele>809.0</ele>
        <time>2021-10-01T13:59:04Z</time>
      </trkpt>
      <trkpt lat="42.2635980" lon="-4.3991830">
        <ele>809.4</ele>
        <time>2021-10-01T13:59:12Z</time>
      </trkpt>
      <trkpt lat="42.2634810" lon="-4.3993100">
        <ele>809.4</ele>
        <time>2021-10-01T13:59:15Z</time>
      </trkpt>
      <trkpt lat="42.2633200" lon="-4.3994910">
        <ele>809.2</ele>
        <time>2021-10-01T13:59:19Z</time>
      </trkpt>
      <trkpt lat="42.2632150" lon="-4.3996060">
        <ele>807.6</ele>
        <time>2021-10-01T13:59:22Z</time>
      </trkpt>
      <trkpt lat="42.2631590" lon="-4.3996790">
        <ele>806.2</ele>
        <time>2021-10-01T13:59:24Z</time>
      </trkpt>
      <trkpt lat="42.2631620" lon="-4.3998660">
        <ele>805.2</ele>
        <time>2021-10-01T13:59:28Z</time>
      </trkpt>
      <trkpt lat="42.2632670" lon="-4.3999640">
        <ele>804.4</ele>
        <time>2021-10-01T13:59:31Z</time>
      </trkpt>
      <trkpt lat="42.2633110" lon="-4.3999880">
        <ele>804.2</ele>
        <time>2021-10-01T13:59:32Z</time>
      </trkpt>
      <trkpt lat="42.2635520" lon="-4.4000030">
        <ele>803.0</ele>
        <time>2021-10-01T13:59:37Z</time>
      </trkpt>
      <trkpt lat="42.2638000" lon="-4.3999450">
        <ele>802.8</ele>
        <time>2021-10-01T13:59:42Z</time>
      </trkpt>
      <trkpt lat="42.2642020" lon="-4.3998240">
        <ele>802.8</ele>
        <time>2021-10-01T13:59:50Z</time>
      </trkpt>
      <trkpt lat="42.2644490" lon="-4.3997880">
        <ele>803.4</ele>
        <time>2021-10-01T13:59:55Z</time>
      </trkpt>
      <trkpt lat="42.2646550" lon="-4.3998430">
        <ele>803.8</ele>
        <time>2021-10-01T13:59:59Z</time>
      </trkpt>
      <trkpt lat="42.2647580" lon="-4.3999010">
        <ele>804.0</ele>
        <time>2021-10-01T14:00:01Z</time>
      </trkpt>
      <trkpt lat="42.2649030" lon="-4.4000370">
        <ele>804.0</ele>
        <time>2021-10-01T14:00:04Z</time>
      </trkpt>
      <trkpt lat="42.2649430" lon="-4.4000910">
        <ele>804.0</ele>
        <time>2021-10-01T14:00:05Z</time>
      </trkpt>
      <trkpt lat="42.2651790" lon="-4.4004110">
        <ele>804.2</ele>
        <time>2021-10-01T14:00:11Z</time>
      </trkpt>
      <trkpt lat="42.2654370" lon="-4.4006840">
        <ele>804.2</ele>
        <time>2021-10-01T14:00:17Z</time>
      </trkpt>
      <trkpt lat="42.2655920" lon="-4.4008110">
        <ele>804.0</ele>
        <time>2021-10-01T14:00:20Z</time>
      </trkpt>
      <trkpt lat="42.2657060" lon="-4.4008960">
        <ele>803.8</ele>
        <time>2021-10-01T14:00:22Z</time>
      </trkpt>
      <trkpt lat="42.2658230" lon="-4.4009870">
        <ele>803.8</ele>
        <time>2021-10-01T14:00:24Z</time>
      </trkpt>
      <trkpt lat="42.2660050" lon="-4.4011320">
        <ele>803.6</ele>
        <time>2021-10-01T14:00:27Z</time>
      </trkpt>
      <trkpt lat="42.2660670" lon="-4.4011910">
        <ele>803.0</ele>
        <time>2021-10-01T14:00:28Z</time>
      </trkpt>
      <trkpt lat="42.2661730" lon="-4.4013470">
        <ele>801.8</ele>
        <time>2021-10-01T14:00:30Z</time>
      </trkpt>
      <trkpt lat="42.2662830" lon="-4.4016490">
        <ele>801.6</ele>
        <time>2021-10-01T14:00:33Z</time>
      </trkpt>
      <trkpt lat="42.2663520" lon="-4.4018500">
        <ele>801.0</ele>
        <time>2021-10-01T14:00:35Z</time>
      </trkpt>
      <trkpt lat="42.2663820" lon="-4.4019450">
        <ele>800.2</ele>
        <time>2021-10-01T14:00:36Z</time>
      </trkpt>
      <trkpt lat="42.2663980" lon="-4.4020390">
        <ele>798.8</ele>
        <time>2021-10-01T14:00:37Z</time>
      </trkpt>
      <trkpt lat="42.2664060" lon="-4.4021320">
        <ele>797.6</ele>
        <time>2021-10-01T14:00:38Z</time>
      </trkpt>
      <trkpt lat="42.2663990" lon="-4.4023200">
        <ele>796.0</ele>
        <time>2021-10-01T14:00:40Z</time>
      </trkpt>
      <trkpt lat="42.2663870" lon="-4.4024080">
        <ele>795.6</ele>
        <time>2021-10-01T14:00:41Z</time>
      </trkpt>
      <trkpt lat="42.2663700" lon="-4.4025790">
        <ele>795.2</ele>
        <time>2021-10-01T14:00:43Z</time>
      </trkpt>
      <trkpt lat="42.2663550" lon="-4.4027440">
        <ele>795.2</ele>
        <time>2021-10-01T14:00:45Z</time>
      </trkpt>
      <trkpt lat="42.2663450" lon="-4.4029040">
        <ele>795.0</ele>
        <time>2021-10-01T14:00:47Z</time>
      </trkpt>
      <trkpt lat="42.2663100" lon="-4.4032390">
        <ele>795.2</ele>
        <time>2021-10-01T14:00:51Z</time>
      </trkpt>
      <trkpt lat="42.2662440" lon="-4.4040030">
        <ele>796.8</ele>
        <time>2021-10-01T14:01:00Z</time>
      </trkpt>
      <trkpt lat="42.2661980" lon="-4.4045870">
        <ele>796.4</ele>
        <time>2021-10-01T14:01:07Z</time>
      </trkpt>
      <trkpt lat="42.2661400" lon="-4.4052360">
        <ele>796.2</ele>
        <time>2021-10-01T14:01:15Z</time>
      </trkpt>
      <trkpt lat="42.2661170" lon="-4.4055530">
        <ele>796.4</ele>
        <time>2021-10-01T14:01:19Z</time>
      </trkpt>
      <trkpt lat="42.2661010" lon="-4.4059270">
        <ele>796.8</ele>
        <time>2021-10-01T14:01:24Z</time>
      </trkpt>
      <trkpt lat="42.2661010" lon="-4.4060750">
        <ele>796.8</ele>
        <time>2021-10-01T14:01:26Z</time>
      </trkpt>
      <trkpt lat="42.2660580" lon="-4.4064190">
        <ele>797.0</ele>
        <time>2021-10-01T14:01:31Z</time>
      </trkpt>
      <trkpt lat="42.2659800" lon="-4.4066070">
        <ele>797.0</ele>
        <time>2021-10-01T14:01:34Z</time>
      </trkpt>
      <trkpt lat="42.2658570" lon="-4.4067640">
        <ele>796.8</ele>
        <time>2021-10-01T14:01:37Z</time>
      </trkpt>
      <trkpt lat="42.2656760" lon="-4.4069810">
        <ele>796.2</ele>
        <time>2021-10-01T14:01:41Z</time>
      </trkpt>
      <trkpt lat="42.2654010" lon="-4.4075120">
        <ele>795.2</ele>
        <time>2021-10-01T14:01:49Z</time>
      </trkpt>
      <trkpt lat="42.2653110" lon="-4.4079410">
        <ele>794.8</ele>
        <time>2021-10-01T14:01:55Z</time>
      </trkpt>
      <trkpt lat="42.2652900" lon="-4.4085320">
        <ele>794.6</ele>
        <time>2021-10-01T14:02:03Z</time>
      </trkpt>
      <trkpt lat="42.2652830" lon="-4.4089070">
        <ele>795.0</ele>
        <time>2021-10-01T14:02:08Z</time>
      </trkpt>
      <trkpt lat="42.2652650" lon="-4.4092190">
        <ele>796.4</ele>
        <time>2021-10-01T14:02:12Z</time>
      </trkpt>
      <trkpt lat="42.2652590" lon="-4.4095270">
        <ele>796.8</ele>
        <time>2021-10-01T14:02:16Z</time>
      </trkpt>
      <trkpt lat="42.2652460" lon="-4.4097570">
        <ele>797.6</ele>
        <time>2021-10-01T14:02:19Z</time>
      </trkpt>
      <trkpt lat="42.2652330" lon="-4.4099750">
        <ele>798.0</ele>
        <time>2021-10-01T14:02:22Z</time>
      </trkpt>
      <trkpt lat="42.2652150" lon="-4.4102000">
        <ele>798.4</ele>
        <time>2021-10-01T14:02:25Z</time>
      </trkpt>
      <trkpt lat="42.2652080" lon="-4.4102780">
        <ele>798.6</ele>
        <time>2021-10-01T14:02:26Z</time>
      </trkpt>
      <trkpt lat="42.2651800" lon="-4.4110690">
        <ele>799.4</ele>
        <time>2021-10-01T14:02:36Z</time>
      </trkpt>
      <trkpt lat="42.2651710" lon="-4.4113070">
        <ele>799.2</ele>
        <time>2021-10-01T14:02:39Z</time>
      </trkpt>
      <trkpt lat="42.2651720" lon="-4.4115380">
        <ele>799.2</ele>
        <time>2021-10-01T14:02:42Z</time>
      </trkpt>
      <trkpt lat="42.2652010" lon="-4.4120350">
        <ele>799.0</ele>
        <time>2021-10-01T14:02:49Z</time>
      </trkpt>
      <trkpt lat="42.2651910" lon="-4.4127790">
        <ele>799.8</ele>
        <time>2021-10-01T14:03:00Z</time>
      </trkpt>
      <trkpt lat="42.2651910" lon="-4.4128910">
        <ele>800.2</ele>
        <time>2021-10-01T14:03:02Z</time>
      </trkpt>
      <trkpt lat="42.2652140" lon="-4.4116140">
        <ele>800.4</ele>
        <time>2021-10-01T14:03:35Z</time>
      </trkpt>
      <trkpt lat="42.2651560" lon="-4.4116870">
        <ele>800.4</ele>
        <time>2021-10-01T14:03:40Z</time>
      </trkpt>
      <trkpt lat="42.2651550" lon="-4.4117750">
        <ele>800.4</ele>
        <time>2021-10-01T14:03:42Z</time>
      </trkpt>
      <trkpt lat="42.2651490" lon="-4.4118730">
        <ele>800.6</ele>
        <time>2021-10-01T14:03:44Z</time>
      </trkpt>
      <trkpt lat="42.2651430" lon="-4.4119760">
        <ele>800.8</ele>
        <time>2021-10-01T14:03:46Z</time>
      </trkpt>
      <trkpt lat="42.2651370" lon="-4.4120840">
        <ele>800.8</ele>
        <time>2021-10-01T14:03:48Z</time>
      </trkpt>
      <trkpt lat="42.2651320" lon="-4.4121950">
        <ele>800.8</ele>
        <time>2021-10-01T14:03:50Z</time>
      </trkpt>
      <trkpt lat="42.2651260" lon="-4.4123060">
        <ele>800.8</ele>
        <time>2021-10-01T14:03:52Z</time>
      </trkpt>
      <trkpt lat="42.2651170" lon="-4.4124140">
        <ele>801.0</ele>
        <time>2021-10-01T14:03:54Z</time>
      </trkpt>
      <trkpt lat="42.2651060" lon="-4.4125770">
        <ele>802.2</ele>
        <time>2021-10-01T14:03:57Z</time>
      </trkpt>
      <trkpt lat="42.2650830" lon="-4.4128510">
        <ele>803.2</ele>
        <time>2021-10-01T14:04:02Z</time>
      </trkpt>
      <trkpt lat="42.2650660" lon="-4.4130790">
        <ele>804.4</ele>
        <time>2021-10-01T14:04:06Z</time>
      </trkpt>
      <trkpt lat="42.2650340" lon="-4.4134700">
        <ele>805.4</ele>
        <time>2021-10-01T14:04:13Z</time>
      </trkpt>
      <trkpt lat="42.2650420" lon="-4.4135280">
        <ele>805.4</ele>
        <time>2021-10-01T14:04:14Z</time>
      </trkpt>
      <trkpt lat="42.2651040" lon="-4.4139560">
        <ele>805.4</ele>
        <time>2021-10-01T14:04:21Z</time>
      </trkpt>
      <trkpt lat="42.2652140" lon="-4.4141610">
        <ele>805.6</ele>
        <time>2021-10-01T14:04:25Z</time>
      </trkpt>
      <trkpt lat="42.2652730" lon="-4.4142600">
        <ele>805.6</ele>
        <time>2021-10-01T14:04:27Z</time>
      </trkpt>
      <trkpt lat="42.2652600" lon="-4.4148820">
        <ele>806.2</ele>
        <time>2021-10-01T14:04:37Z</time>
      </trkpt>
      <trkpt lat="42.2651810" lon="-4.4150600">
        <ele>806.2</ele>
        <time>2021-10-01T14:04:40Z</time>
      </trkpt>
      <trkpt lat="42.2651570" lon="-4.4153870">
        <ele>806.0</ele>
        <time>2021-10-01T14:04:45Z</time>
      </trkpt>
      <trkpt lat="42.2651780" lon="-4.4158380">
        <ele>806.2</ele>
        <time>2021-10-01T14:04:52Z</time>
      </trkpt>
      <trkpt lat="42.2652160" lon="-4.4163160">
        <ele>806.6</ele>
        <time>2021-10-01T14:05:01Z</time>
      </trkpt>
      <trkpt lat="42.2652550" lon="-4.4167070">
        <ele>807.0</ele>
        <time>2021-10-01T14:05:08Z</time>
      </trkpt>
      <trkpt lat="42.2652700" lon="-4.4168450">
        <ele>807.4</ele>
        <time>2021-10-01T14:05:11Z</time>
      </trkpt>
      <trkpt lat="42.2652760" lon="-4.4169000">
        <ele>807.6</ele>
        <time>2021-10-01T14:05:13Z</time>
      </trkpt>
      <trkpt lat="42.2652990" lon="-4.4170130">
        <ele>807.6</ele>
        <time>2021-10-01T14:05:16Z</time>
      </trkpt>
      <trkpt lat="42.2653130" lon="-4.4170890">
        <ele>807.6</ele>
        <time>2021-10-01T14:05:18Z</time>
      </trkpt>
      <trkpt lat="42.2653230" lon="-4.4171450">
        <ele>807.6</ele>
        <time>2021-10-01T14:05:20Z</time>
      </trkpt>
      <trkpt lat="42.2653680" lon="-4.4174140">
        <ele>807.6</ele>
        <time>2021-10-01T14:05:27Z</time>
      </trkpt>
      <trkpt lat="42.2654200" lon="-4.4176130">
        <ele>807.6</ele>
        <time>2021-10-01T14:05:30Z</time>
      </trkpt>
      <trkpt lat="42.2655710" lon="-4.4178250">
        <ele>806.8</ele>
        <time>2021-10-01T14:05:34Z</time>
      </trkpt>
      <trkpt lat="42.2656150" lon="-4.4178710">
        <ele>806.6</ele>
        <time>2021-10-01T14:05:35Z</time>
      </trkpt>
      <trkpt lat="42.2656560" lon="-4.4179260">
        <ele>806.4</ele>
        <time>2021-10-01T14:05:36Z</time>
      </trkpt>
      <trkpt lat="42.2657580" lon="-4.4182970">
        <ele>805.4</ele>
        <time>2021-10-01T14:05:41Z</time>
      </trkpt>
      <trkpt lat="42.2656330" lon="-4.4186730">
        <ele>804.4</ele>
        <time>2021-10-01T14:05:46Z</time>
      </trkpt>
      <trkpt lat="42.2655960" lon="-4.4187410">
        <ele>804.0</ele>
        <time>2021-10-01T14:05:47Z</time>
      </trkpt>
      <trkpt lat="42.2655640" lon="-4.4188150">
        <ele>803.6</ele>
        <time>2021-10-01T14:05:48Z</time>
      </trkpt>
      <trkpt lat="42.2655290" lon="-4.4189790">
        <ele>803.0</ele>
        <time>2021-10-01T14:05:50Z</time>
      </trkpt>
      <trkpt lat="42.2655320" lon="-4.4192500">
        <ele>802.6</ele>
        <time>2021-10-01T14:05:53Z</time>
      </trkpt>
      <trkpt lat="42.2655760" lon="-4.4197310">
        <ele>802.0</ele>
        <time>2021-10-01T14:05:58Z</time>
      </trkpt>
      <trkpt lat="42.2656250" lon="-4.4202020">
        <ele>800.6</ele>
        <time>2021-10-01T14:06:03Z</time>
      </trkpt>
      <trkpt lat="42.2656550" lon="-4.4204890">
        <ele>799.2</ele>
        <time>2021-10-01T14:06:06Z</time>
      </trkpt>
      <trkpt lat="42.2656940" lon="-4.4208680">
        <ele>798.2</ele>
        <time>2021-10-01T14:06:10Z</time>
      </trkpt>
      <trkpt lat="42.2657120" lon="-4.4210460">
        <ele>797.4</ele>
        <time>2021-10-01T14:06:12Z</time>
      </trkpt>
      <trkpt lat="42.2657200" lon="-4.4211330">
        <ele>797.0</ele>
        <time>2021-10-01T14:06:13Z</time>
      </trkpt>
      <trkpt lat="42.2657480" lon="-4.4214770">
        <ele>795.6</ele>
        <time>2021-10-01T14:06:17Z</time>
      </trkpt>
      <trkpt lat="42.2657620" lon="-4.4216460">
        <ele>795.2</ele>
        <time>2021-10-01T14:06:19Z</time>
      </trkpt>
      <trkpt lat="42.2657810" lon="-4.4218180">
        <ele>795.0</ele>
        <time>2021-10-01T14:06:21Z</time>
      </trkpt>
      <trkpt lat="42.2657980" lon="-4.4219950">
        <ele>795.0</ele>
        <time>2021-10-01T14:06:23Z</time>
      </trkpt>
      <trkpt lat="42.2658130" lon="-4.4221760">
        <ele>795.0</ele>
        <time>2021-10-01T14:06:25Z</time>
      </trkpt>
      <trkpt lat="42.2658220" lon="-4.4222680">
        <ele>794.8</ele>
        <time>2021-10-01T14:06:26Z</time>
      </trkpt>
      <trkpt lat="42.2658520" lon="-4.4225480">
        <ele>795.0</ele>
        <time>2021-10-01T14:06:29Z</time>
      </trkpt>
      <trkpt lat="42.2658880" lon="-4.4229140">
        <ele>795.0</ele>
        <time>2021-10-01T14:06:33Z</time>
      </trkpt>
      <trkpt lat="42.2659660" lon="-4.4236590">
        <ele>795.0</ele>
        <time>2021-10-01T14:06:42Z</time>
      </trkpt>
      <trkpt lat="42.2660180" lon="-4.4242230">
        <ele>795.2</ele>
        <time>2021-10-01T14:06:49Z</time>
      </trkpt>
      <trkpt lat="42.2660970" lon="-4.4249790">
        <ele>795.8</ele>
        <time>2021-10-01T14:06:59Z</time>
      </trkpt>
      <trkpt lat="42.2661430" lon="-4.4254210">
        <ele>795.8</ele>
        <time>2021-10-01T14:07:06Z</time>
      </trkpt>
      <trkpt lat="42.2661520" lon="-4.4255090">
        <ele>795.8</ele>
        <time>2021-10-01T14:07:08Z</time>
      </trkpt>
      <trkpt lat="42.2661580" lon="-4.4255960">
        <ele>795.8</ele>
        <time>2021-10-01T14:07:11Z</time>
      </trkpt>
      <trkpt lat="42.2662040" lon="-4.4260700">
        <ele>796.0</ele>
        <time>2021-10-01T14:07:19Z</time>
      </trkpt>
      <trkpt lat="42.2662280" lon="-4.4263260">
        <ele>796.0</ele>
        <time>2021-10-01T14:07:22Z</time>
      </trkpt>
      <trkpt lat="42.2662540" lon="-4.4265710">
        <ele>795.4</ele>
        <time>2021-10-01T14:07:25Z</time>
      </trkpt>
      <trkpt lat="42.2663070" lon="-4.4270620">
        <ele>795.2</ele>
        <time>2021-10-01T14:07:31Z</time>
      </trkpt>
      <trkpt lat="42.2663810" lon="-4.4278210">
        <ele>795.0</ele>
        <time>2021-10-01T14:07:40Z</time>
      </trkpt>
      <trkpt lat="42.2664490" lon="-4.4285760">
        <ele>794.6</ele>
        <time>2021-10-01T14:07:49Z</time>
      </trkpt>
      <trkpt lat="42.2665170" lon="-4.4293260">
        <ele>794.4</ele>
        <time>2021-10-01T14:07:58Z</time>
      </trkpt>
      <trkpt lat="42.2665900" lon="-4.4300640">
        <ele>794.4</ele>
        <time>2021-10-01T14:08:07Z</time>
      </trkpt>
      <trkpt lat="42.2666680" lon="-4.4308200">
        <ele>794.4</ele>
        <time>2021-10-01T14:08:17Z</time>
      </trkpt>
      <trkpt lat="42.2667400" lon="-4.4315590">
        <ele>794.6</ele>
        <time>2021-10-01T14:08:27Z</time>
      </trkpt>
      <trkpt lat="42.2668110" lon="-4.4323420">
        <ele>794.6</ele>
        <time>2021-10-01T14:08:37Z</time>
      </trkpt>
      <trkpt lat="42.2668850" lon="-4.4331260">
        <ele>793.6</ele>
        <time>2021-10-01T14:08:47Z</time>
      </trkpt>
      <trkpt lat="42.2669580" lon="-4.4338670">
        <ele>792.8</ele>
        <time>2021-10-01T14:08:57Z</time>
      </trkpt>
      <trkpt lat="42.2670370" lon="-4.4346170">
        <ele>792.6</ele>
        <time>2021-10-01T14:09:08Z</time>
      </trkpt>
      <trkpt lat="42.2670970" lon="-4.4352970">
        <ele>793.0</ele>
        <time>2021-10-01T14:09:18Z</time>
      </trkpt>
      <trkpt lat="42.2671710" lon="-4.4360490">
        <ele>793.4</ele>
        <time>2021-10-01T14:09:29Z</time>
      </trkpt>
      <trkpt lat="42.2672530" lon="-4.4367790">
        <ele>794.6</ele>
        <time>2021-10-01T14:09:39Z</time>
      </trkpt>
      <trkpt lat="42.2673010" lon="-4.4373160">
        <ele>795.4</ele>
        <time>2021-10-01T14:09:46Z</time>
      </trkpt>
      <trkpt lat="42.2673430" lon="-4.4378380">
        <ele>795.8</ele>
        <time>2021-10-01T14:09:53Z</time>
      </trkpt>
      <trkpt lat="42.2674240" lon="-4.4386230">
        <ele>796.6</ele>
        <time>2021-10-01T14:10:04Z</time>
      </trkpt>
      <trkpt lat="42.2674530" lon="-4.4389800">
        <ele>796.8</ele>
        <time>2021-10-01T14:10:09Z</time>
      </trkpt>
      <trkpt lat="42.2675170" lon="-4.4396880">
        <ele>797.2</ele>
        <time>2021-10-01T14:10:19Z</time>
      </trkpt>
      <trkpt lat="42.2675530" lon="-4.4401150">
        <ele>797.4</ele>
        <time>2021-10-01T14:10:25Z</time>
      </trkpt>
      <trkpt lat="42.2675750" lon="-4.4403320">
        <ele>797.6</ele>
        <time>2021-10-01T14:10:28Z</time>
      </trkpt>
      <trkpt lat="42.2676070" lon="-4.4407870">
        <ele>797.4</ele>
        <time>2021-10-01T14:10:34Z</time>
      </trkpt>
      <trkpt lat="42.2676390" lon="-4.4410960">
        <ele>797.4</ele>
        <time>2021-10-01T14:10:38Z</time>
      </trkpt>
      <trkpt lat="42.2676650" lon="-4.4413290">
        <ele>797.0</ele>
        <time>2021-10-01T14:10:41Z</time>
      </trkpt>
      <trkpt lat="42.2677120" lon="-4.4417960">
        <ele>795.6</ele>
        <time>2021-10-01T14:10:47Z</time>
      </trkpt>
      <trkpt lat="42.2677700" lon="-4.4422770">
        <ele>795.2</ele>
        <time>2021-10-01T14:10:53Z</time>
      </trkpt>
      <trkpt lat="42.2679060" lon="-4.4425670">
        <ele>795.2</ele>
        <time>2021-10-01T14:10:57Z</time>
      </trkpt>
      <trkpt lat="42.2682330" lon="-4.4431450">
        <ele>795.2</ele>
        <time>2021-10-01T14:11:07Z</time>
      </trkpt>
      <trkpt lat="42.2685810" lon="-4.4437810">
        <ele>795.0</ele>
        <time>2021-10-01T14:11:17Z</time>
      </trkpt>
      <trkpt lat="42.2687960" lon="-4.4441930">
        <ele>795.4</ele>
        <time>2021-10-01T14:11:23Z</time>
      </trkpt>
      <trkpt lat="42.2690120" lon="-4.4445800">
        <ele>795.6</ele>
        <time>2021-10-01T14:11:29Z</time>
      </trkpt>
      <trkpt lat="42.2691130" lon="-4.4447570">
        <ele>795.8</ele>
        <time>2021-10-01T14:11:32Z</time>
      </trkpt>
      <trkpt lat="42.2692080" lon="-4.4449280">
        <ele>796.0</ele>
        <time>2021-10-01T14:11:35Z</time>
      </trkpt>
      <trkpt lat="42.2692360" lon="-4.4449860">
        <ele>796.0</ele>
        <time>2021-10-01T14:11:36Z</time>
      </trkpt>
      <trkpt lat="42.2693540" lon="-4.4454100">
        <ele>796.2</ele>
        <time>2021-10-01T14:11:43Z</time>
      </trkpt>
      <trkpt lat="42.2693410" lon="-4.4455360">
        <ele>796.4</ele>
        <time>2021-10-01T14:11:45Z</time>
      </trkpt>
      <trkpt lat="42.2691860" lon="-4.4460680">
        <ele>796.0</ele>
        <time>2021-10-01T14:11:53Z</time>
      </trkpt>
      <trkpt lat="42.2691550" lon="-4.4461380">
        <ele>795.8</ele>
        <time>2021-10-01T14:11:55Z</time>
      </trkpt>
      <trkpt lat="42.2691330" lon="-4.4461410">
        <ele>796.2</ele>
        <time>2021-10-01T14:11:56Z</time>
      </trkpt>
      <trkpt lat="42.2691230" lon="-4.4459870">
        <ele>797.6</ele>
        <time>2021-10-01T14:14:36Z</time>
      </trkpt>
      <trkpt lat="42.2691230" lon="-4.4459870">
        <ele>797.6</ele>
        <time>2021-10-01T14:14:37Z</time>
      </trkpt>
      <trkpt lat="42.2690960" lon="-4.4460220">
        <ele>797.8</ele>
        <time>2021-10-01T14:14:41Z</time>
      </trkpt>
      <trkpt lat="42.2690560" lon="-4.4460800">
        <ele>797.8</ele>
        <time>2021-10-01T14:14:43Z</time>
      </trkpt>
      <trkpt lat="42.2689950" lon="-4.4461770">
        <ele>797.8</ele>
        <time>2021-10-01T14:14:46Z</time>
      </trkpt>
      <trkpt lat="42.2688920" lon="-4.4462720">
        <ele>796.2</ele>
        <time>2021-10-01T14:14:49Z</time>
      </trkpt>
      <trkpt lat="42.2687490" lon="-4.4464070">
        <ele>795.4</ele>
        <time>2021-10-01T14:14:53Z</time>
      </trkpt>
      <trkpt lat="42.2687140" lon="-4.4464360">
        <ele>795.2</ele>
        <time>2021-10-01T14:14:54Z</time>
      </trkpt>
      <trkpt lat="42.2686490" lon="-4.4464860">
        <ele>795.2</ele>
        <time>2021-10-01T14:14:56Z</time>
      </trkpt>
      <trkpt lat="42.2686060" lon="-4.4465270">
        <ele>795.2</ele>
        <time>2021-10-01T14:14:58Z</time>
      </trkpt>
      <trkpt lat="42.2685820" lon="-4.4465630">
        <ele>795.0</ele>
        <time>2021-10-01T14:15:00Z</time>
      </trkpt>
      <trkpt lat="42.2686000" lon="-4.4466780">
        <ele>794.8</ele>
        <time>2021-10-01T14:15:03Z</time>
      </trkpt>
      <trkpt lat="42.2686340" lon="-4.4468040">
        <ele>794.6</ele>
        <time>2021-10-01T14:15:05Z</time>
      </trkpt>
      <trkpt lat="42.2686730" lon="-4.4469340">
        <ele>794.4</ele>
        <time>2021-10-01T14:15:07Z</time>
      </trkpt>
      <trkpt lat="42.2687260" lon="-4.4471420">
        <ele>794.4</ele>
        <time>2021-10-01T14:15:10Z</time>
      </trkpt>
      <trkpt lat="42.2687590" lon="-4.4472770">
        <ele>794.2</ele>
        <time>2021-10-01T14:15:12Z</time>
      </trkpt>
      <trkpt lat="42.2688130" lon="-4.4475510">
        <ele>793.0</ele>
        <time>2021-10-01T14:15:16Z</time>
      </trkpt>
      <trkpt lat="42.2687910" lon="-4.4478350">
        <ele>792.6</ele>
        <time>2021-10-01T14:15:20Z</time>
      </trkpt>
      <trkpt lat="42.2687280" lon="-4.4482710">
        <ele>792.6</ele>
        <time>2021-10-01T14:15:26Z</time>
      </trkpt>
      <trkpt lat="42.2687520" lon="-4.4484910">
        <ele>792.6</ele>
        <time>2021-10-01T14:15:29Z</time>
      </trkpt>
      <trkpt lat="42.2688550" lon="-4.4487620">
        <ele>792.6</ele>
        <time>2021-10-01T14:15:33Z</time>
      </trkpt>
      <trkpt lat="42.2689940" lon="-4.4490040">
        <ele>793.0</ele>
        <time>2021-10-01T14:15:37Z</time>
      </trkpt>
      <trkpt lat="42.2690870" lon="-4.4491490">
        <ele>794.0</ele>
        <time>2021-10-01T14:15:40Z</time>
      </trkpt>
      <trkpt lat="42.2692180" lon="-4.4493530">
        <ele>794.8</ele>
        <time>2021-10-01T14:15:45Z</time>
      </trkpt>
      <trkpt lat="42.2692960" lon="-4.4494280">
        <ele>795.2</ele>
        <time>2021-10-01T14:15:48Z</time>
      </trkpt>
      <trkpt lat="42.2692860" lon="-4.4494960">
        <ele>795.6</ele>
        <time>2021-10-01T14:15:51Z</time>
      </trkpt>
      <trkpt lat="42.2691770" lon="-4.4493680">
        <ele>796.2</ele>
        <time>2021-10-01T14:15:58Z</time>
      </trkpt>
      <trkpt lat="42.2691760" lon="-4.4493670">
        <ele>796.4</ele>
        <time>2021-10-01T14:15:59Z</time>
      </trkpt>
      <trkpt lat="42.2691490" lon="-4.4493890">
        <ele>797.0</ele>
        <time>2021-10-01T14:16:28Z</time>
      </trkpt>
      <trkpt lat="42.2691330" lon="-4.4494120">
        <ele>797.0</ele>
        <time>2021-10-01T14:16:29Z</time>
      </trkpt>
      <trkpt lat="42.2691060" lon="-4.4494750">
        <ele>797.0</ele>
        <time>2021-10-01T14:16:31Z</time>
      </trkpt>
      <trkpt lat="42.2690920" lon="-4.4495160">
        <ele>797.0</ele>
        <time>2021-10-01T14:16:32Z</time>
      </trkpt>
      <trkpt lat="42.2690520" lon="-4.4496030">
        <ele>796.6</ele>
        <time>2021-10-01T14:16:34Z</time>
      </trkpt>
      <trkpt lat="42.2690020" lon="-4.4496940">
        <ele>795.6</ele>
        <time>2021-10-01T14:16:36Z</time>
      </trkpt>
      <trkpt lat="42.2689770" lon="-4.4497430">
        <ele>795.0</ele>
        <time>2021-10-01T14:16:37Z</time>
      </trkpt>
      <trkpt lat="42.2688970" lon="-4.4498980">
        <ele>794.6</ele>
        <time>2021-10-01T14:16:40Z</time>
      </trkpt>
      <trkpt lat="42.2687730" lon="-4.4502640">
        <ele>794.0</ele>
        <time>2021-10-01T14:16:46Z</time>
      </trkpt>
      <trkpt lat="42.2687250" lon="-4.4507920">
        <ele>793.6</ele>
        <time>2021-10-01T14:16:53Z</time>
      </trkpt>
      <trkpt lat="42.2687430" lon="-4.4509590">
        <ele>792.8</ele>
        <time>2021-10-01T14:16:55Z</time>
      </trkpt>
      <trkpt lat="42.2687990" lon="-4.4512100">
        <ele>792.2</ele>
        <time>2021-10-01T14:16:58Z</time>
      </trkpt>
      <trkpt lat="42.2688510" lon="-4.4513740">
        <ele>792.0</ele>
        <time>2021-10-01T14:17:00Z</time>
      </trkpt>
      <trkpt lat="42.2689600" lon="-4.4516780">
        <ele>792.0</ele>
        <time>2021-10-01T14:17:04Z</time>
      </trkpt>
      <trkpt lat="42.2692360" lon="-4.4523180">
        <ele>792.4</ele>
        <time>2021-10-01T14:17:13Z</time>
      </trkpt>
      <trkpt lat="42.2693800" lon="-4.4526940">
        <ele>792.6</ele>
        <time>2021-10-01T14:17:18Z</time>
      </trkpt>
      <trkpt lat="42.2695930" lon="-4.4532850">
        <ele>792.8</ele>
        <time>2021-10-01T14:17:26Z</time>
      </trkpt>
      <trkpt lat="42.2698600" lon="-4.4539940">
        <ele>793.0</ele>
        <time>2021-10-01T14:17:36Z</time>
      </trkpt>
      <trkpt lat="42.2701290" lon="-4.4546900">
        <ele>793.6</ele>
        <time>2021-10-01T14:17:46Z</time>
      </trkpt>
      <trkpt lat="42.2703940" lon="-4.4553920">
        <ele>793.6</ele>
        <time>2021-10-01T14:17:56Z</time>
      </trkpt>
      <trkpt lat="42.2706510" lon="-4.4560770">
        <ele>793.4</ele>
        <time>2021-10-01T14:18:06Z</time>
      </trkpt>
      <trkpt lat="42.2708920" lon="-4.4567350">
        <ele>792.8</ele>
        <time>2021-10-01T14:18:16Z</time>
      </trkpt>
      <trkpt lat="42.2710710" lon="-4.4572150">
        <ele>793.0</ele>
        <time>2021-10-01T14:18:23Z</time>
      </trkpt>
      <trkpt lat="42.2713250" lon="-4.4578950">
        <ele>793.6</ele>
        <time>2021-10-01T14:18:33Z</time>
      </trkpt>
      <trkpt lat="42.2714760" lon="-4.4583060">
        <ele>793.8</ele>
        <time>2021-10-01T14:18:39Z</time>
      </trkpt>
      <trkpt lat="42.2717280" lon="-4.4589760">
        <ele>794.2</ele>
        <time>2021-10-01T14:18:49Z</time>
      </trkpt>
      <trkpt lat="42.2719770" lon="-4.4596370">
        <ele>793.6</ele>
        <time>2021-10-01T14:18:59Z</time>
      </trkpt>
      <trkpt lat="42.2722350" lon="-4.4603180">
        <ele>794.0</ele>
        <time>2021-10-01T14:19:09Z</time>
      </trkpt>
      <trkpt lat="42.2724870" lon="-4.4610000">
        <ele>794.0</ele>
        <time>2021-10-01T14:19:19Z</time>
      </trkpt>
      <trkpt lat="42.2726650" lon="-4.4614710">
        <ele>794.0</ele>
        <time>2021-10-01T14:19:26Z</time>
      </trkpt>
      <trkpt lat="42.2729230" lon="-4.4621240">
        <ele>794.8</ele>
        <time>2021-10-01T14:19:36Z</time>
      </trkpt>
      <trkpt lat="42.2731150" lon="-4.4625720">
        <ele>795.0</ele>
        <time>2021-10-01T14:19:43Z</time>
      </trkpt>
      <trkpt lat="42.2734420" lon="-4.4632050">
        <ele>795.2</ele>
        <time>2021-10-01T14:19:53Z</time>
      </trkpt>
      <trkpt lat="42.2737800" lon="-4.4637760">
        <ele>795.6</ele>
        <time>2021-10-01T14:20:02Z</time>
      </trkpt>
      <trkpt lat="42.2741310" lon="-4.4643300">
        <ele>795.8</ele>
        <time>2021-10-01T14:20:11Z</time>
      </trkpt>
      <trkpt lat="42.2744010" lon="-4.4647600">
        <ele>795.8</ele>
        <time>2021-10-01T14:20:18Z</time>
      </trkpt>
      <trkpt lat="42.2746630" lon="-4.4651790">
        <ele>795.4</ele>
        <time>2021-10-01T14:20:25Z</time>
      </trkpt>
      <trkpt lat="42.2750330" lon="-4.4657510">
        <ele>795.0</ele>
        <time>2021-10-01T14:20:34Z</time>
      </trkpt>
      <trkpt lat="42.2754180" lon="-4.4663600">
        <ele>795.4</ele>
        <time>2021-10-01T14:20:44Z</time>
      </trkpt>
      <trkpt lat="42.2756080" lon="-4.4666560">
        <ele>796.2</ele>
        <time>2021-10-01T14:20:49Z</time>
      </trkpt>
      <trkpt lat="42.2759750" lon="-4.4672390">
        <ele>796.2</ele>
        <time>2021-10-01T14:20:59Z</time>
      </trkpt>
      <trkpt lat="42.2762250" lon="-4.4676420">
        <ele>797.2</ele>
        <time>2021-10-01T14:21:06Z</time>
      </trkpt>
      <trkpt lat="42.2765820" lon="-4.4682070">
        <ele>797.2</ele>
        <time>2021-10-01T14:21:16Z</time>
      </trkpt>
      <trkpt lat="42.2769440" lon="-4.4687900">
        <ele>797.4</ele>
        <time>2021-10-01T14:21:26Z</time>
      </trkpt>
      <trkpt lat="42.2773170" lon="-4.4693720">
        <ele>797.6</ele>
        <time>2021-10-01T14:21:36Z</time>
      </trkpt>
      <trkpt lat="42.2776850" lon="-4.4699600">
        <ele>797.6</ele>
        <time>2021-10-01T14:21:45Z</time>
      </trkpt>
      <trkpt lat="42.2779620" lon="-4.4703970">
        <ele>797.6</ele>
        <time>2021-10-01T14:21:52Z</time>
      </trkpt>
      <trkpt lat="42.2783390" lon="-4.4709840">
        <ele>797.6</ele>
        <time>2021-10-01T14:22:02Z</time>
      </trkpt>
      <trkpt lat="42.2787180" lon="-4.4715790">
        <ele>796.8</ele>
        <time>2021-10-01T14:22:12Z</time>
      </trkpt>
      <trkpt lat="42.2790970" lon="-4.4721690">
        <ele>797.2</ele>
        <time>2021-10-01T14:22:22Z</time>
      </trkpt>
      <trkpt lat="42.2793710" lon="-4.4725970">
        <ele>798.2</ele>
        <time>2021-10-01T14:22:29Z</time>
      </trkpt>
      <trkpt lat="42.2797550" lon="-4.4732000">
        <ele>798.4</ele>
        <time>2021-10-01T14:22:39Z</time>
      </trkpt>
      <trkpt lat="42.2801380" lon="-4.4738000">
        <ele>798.6</ele>
        <time>2021-10-01T14:22:49Z</time>
      </trkpt>
      <trkpt lat="42.2805090" lon="-4.4743850">
        <ele>798.8</ele>
        <time>2021-10-01T14:22:58Z</time>
      </trkpt>
      <trkpt lat="42.2808250" lon="-4.4748860">
        <ele>799.2</ele>
        <time>2021-10-01T14:23:05Z</time>
      </trkpt>
      <trkpt lat="42.2812150" lon="-4.4754990">
        <ele>799.0</ele>
        <time>2021-10-01T14:23:14Z</time>
      </trkpt>
      <trkpt lat="42.2815070" lon="-4.4759670">
        <ele>798.8</ele>
        <time>2021-10-01T14:23:21Z</time>
      </trkpt>
      <trkpt lat="42.2816770" lon="-4.4762310">
        <ele>798.8</ele>
        <time>2021-10-01T14:23:25Z</time>
      </trkpt>
      <trkpt lat="42.2820430" lon="-4.4768160">
        <ele>799.6</ele>
        <time>2021-10-01T14:23:34Z</time>
      </trkpt>
      <trkpt lat="42.2824220" lon="-4.4774190">
        <ele>800.0</ele>
        <time>2021-10-01T14:23:44Z</time>
      </trkpt>
      <trkpt lat="42.2826800" lon="-4.4778150">
        <ele>800.4</ele>
        <time>2021-10-01T14:23:51Z</time>
      </trkpt>
      <trkpt lat="42.2828610" lon="-4.4781040">
        <ele>800.8</ele>
        <time>2021-10-01T14:23:56Z</time>
      </trkpt>
      <trkpt lat="42.2832020" lon="-4.4786510">
        <ele>800.8</ele>
        <time>2021-10-01T14:24:06Z</time>
      </trkpt>
      <trkpt lat="42.2834020" lon="-4.4789720">
        <ele>801.2</ele>
        <time>2021-10-01T14:24:12Z</time>
      </trkpt>
      <trkpt lat="42.2835510" lon="-4.4792450">
        <ele>801.2</ele>
        <time>2021-10-01T14:24:17Z</time>
      </trkpt>
      <trkpt lat="42.2836940" lon="-4.4795220">
        <ele>801.2</ele>
        <time>2021-10-01T14:24:22Z</time>
      </trkpt>
      <trkpt lat="42.2840120" lon="-4.4799490">
        <ele>801.2</ele>
        <time>2021-10-01T14:24:31Z</time>
      </trkpt>
      <trkpt lat="42.2840480" lon="-4.4799950">
        <ele>801.4</ele>
        <time>2021-10-01T14:24:32Z</time>
      </trkpt>
      <trkpt lat="42.2842900" lon="-4.4802990">
        <ele>802.4</ele>
        <time>2021-10-01T14:24:39Z</time>
      </trkpt>
      <trkpt lat="42.2845490" lon="-4.4806150">
        <ele>803.4</ele>
        <time>2021-10-01T14:24:46Z</time>
      </trkpt>
      <trkpt lat="42.2847890" lon="-4.4808900">
        <ele>803.8</ele>
        <time>2021-10-01T14:24:52Z</time>
      </trkpt>
      <trkpt lat="42.2849110" lon="-4.4810150">
        <ele>803.8</ele>
        <time>2021-10-01T14:24:55Z</time>
      </trkpt>
      <trkpt lat="42.2852060" lon="-4.4814720">
        <ele>804.2</ele>
        <time>2021-10-01T14:25:04Z</time>
      </trkpt>
      <trkpt lat="42.2852730" lon="-4.4815790">
        <ele>804.0</ele>
        <time>2021-10-01T14:25:06Z</time>
      </trkpt>
      <trkpt lat="42.2855590" lon="-4.4819000">
        <ele>804.4</ele>
        <time>2021-10-01T14:25:13Z</time>
      </trkpt>
      <trkpt lat="42.2858620" lon="-4.4822230">
        <ele>804.4</ele>
        <time>2021-10-01T14:25:20Z</time>
      </trkpt>
      <trkpt lat="42.2860030" lon="-4.4823370">
        <ele>804.4</ele>
        <time>2021-10-01T14:25:23Z</time>
      </trkpt>
      <trkpt lat="42.2864400" lon="-4.4827810">
        <ele>804.0</ele>
        <time>2021-10-01T14:25:32Z</time>
      </trkpt>
      <trkpt lat="42.2865870" lon="-4.4829700">
        <ele>803.2</ele>
        <time>2021-10-01T14:25:35Z</time>
      </trkpt>
      <trkpt lat="42.2867610" lon="-4.4832210">
        <ele>802.0</ele>
        <time>2021-10-01T14:25:39Z</time>
      </trkpt>
      <trkpt lat="42.2871570" lon="-4.4837830">
        <ele>801.6</ele>
        <time>2021-10-01T14:25:49Z</time>
      </trkpt>
      <trkpt lat="42.2874230" lon="-4.4840910">
        <ele>802.4</ele>
        <time>2021-10-01T14:25:55Z</time>
      </trkpt>
      <trkpt lat="42.2876880" lon="-4.4844760">
        <ele>802.6</ele>
        <time>2021-10-01T14:26:02Z</time>
      </trkpt>
      <trkpt lat="42.2880520" lon="-4.4850230">
        <ele>803.0</ele>
        <time>2021-10-01T14:26:12Z</time>
      </trkpt>
      <trkpt lat="42.2882510" lon="-4.4852780">
        <ele>803.2</ele>
        <time>2021-10-01T14:26:17Z</time>
      </trkpt>
      <trkpt lat="42.2884090" lon="-4.4855100">
        <ele>803.4</ele>
        <time>2021-10-01T14:26:21Z</time>
      </trkpt>
      <trkpt lat="42.2886180" lon="-4.4858160">
        <ele>803.8</ele>
        <time>2021-10-01T14:26:26Z</time>
      </trkpt>
      <trkpt lat="42.2889120" lon="-4.4862450">
        <ele>804.0</ele>
        <time>2021-10-01T14:26:33Z</time>
      </trkpt>
      <trkpt lat="42.2893010" lon="-4.4868140">
        <ele>803.4</ele>
        <time>2021-10-01T14:26:43Z</time>
      </trkpt>
      <trkpt lat="42.2897000" lon="-4.4873930">
        <ele>803.4</ele>
        <time>2021-10-01T14:26:54Z</time>
      </trkpt>
      <trkpt lat="42.2899260" lon="-4.4877200">
        <ele>803.4</ele>
        <time>2021-10-01T14:27:00Z</time>
      </trkpt>
      <trkpt lat="42.2903190" lon="-4.4882890">
        <ele>803.6</ele>
        <time>2021-10-01T14:27:11Z</time>
      </trkpt>
      <trkpt lat="42.2906690" lon="-4.4887900">
        <ele>804.4</ele>
        <time>2021-10-01T14:27:21Z</time>
      </trkpt>
      <trkpt lat="42.2909050" lon="-4.4891370">
        <ele>804.6</ele>
        <time>2021-10-01T14:27:28Z</time>
      </trkpt>
      <trkpt lat="42.2912870" lon="-4.4896930">
        <ele>804.8</ele>
        <time>2021-10-01T14:27:39Z</time>
      </trkpt>
      <trkpt lat="42.2916670" lon="-4.4902530">
        <ele>805.0</ele>
        <time>2021-10-01T14:27:50Z</time>
      </trkpt>
      <trkpt lat="42.2920730" lon="-4.4908310">
        <ele>805.2</ele>
        <time>2021-10-01T14:28:01Z</time>
      </trkpt>
      <trkpt lat="42.2923230" lon="-4.4912010">
        <ele>805.2</ele>
        <time>2021-10-01T14:28:08Z</time>
      </trkpt>
      <trkpt lat="42.2927010" lon="-4.4917550">
        <ele>805.2</ele>
        <time>2021-10-01T14:28:18Z</time>
      </trkpt>
      <trkpt lat="42.2930810" lon="-4.4923040">
        <ele>805.0</ele>
        <time>2021-10-01T14:28:28Z</time>
      </trkpt>
      <trkpt lat="42.2934660" lon="-4.4928580">
        <ele>805.2</ele>
        <time>2021-10-01T14:28:38Z</time>
      </trkpt>
      <trkpt lat="42.2936580" lon="-4.4931360">
        <ele>805.6</ele>
        <time>2021-10-01T14:28:43Z</time>
      </trkpt>
      <trkpt lat="42.2940370" lon="-4.4936950">
        <ele>806.4</ele>
        <time>2021-10-01T14:28:53Z</time>
      </trkpt>
      <trkpt lat="42.2941520" lon="-4.4938660">
        <ele>806.6</ele>
        <time>2021-10-01T14:28:56Z</time>
      </trkpt>
      <trkpt lat="42.2945340" lon="-4.4944180">
        <ele>807.0</ele>
        <time>2021-10-01T14:29:06Z</time>
      </trkpt>
      <trkpt lat="42.2948750" lon="-4.4949070">
        <ele>807.8</ele>
        <time>2021-10-01T14:29:15Z</time>
      </trkpt>
      <trkpt lat="42.2952500" lon="-4.4954540">
        <ele>808.4</ele>
        <time>2021-10-01T14:29:25Z</time>
      </trkpt>
      <trkpt lat="42.2956550" lon="-4.4960420">
        <ele>808.6</ele>
        <time>2021-10-01T14:29:36Z</time>
      </trkpt>
      <trkpt lat="42.2960340" lon="-4.4965940">
        <ele>808.6</ele>
        <time>2021-10-01T14:29:46Z</time>
      </trkpt>
      <trkpt lat="42.2964240" lon="-4.4971630">
        <ele>808.2</ele>
        <time>2021-10-01T14:29:56Z</time>
      </trkpt>
      <trkpt lat="42.2967790" lon="-4.4976830">
        <ele>808.2</ele>
        <time>2021-10-01T14:30:05Z</time>
      </trkpt>
      <trkpt lat="42.2971760" lon="-4.4982800">
        <ele>808.4</ele>
        <time>2021-10-01T14:30:15Z</time>
      </trkpt>
      <trkpt lat="42.2974110" lon="-4.4986430">
        <ele>808.6</ele>
        <time>2021-10-01T14:30:21Z</time>
      </trkpt>
      <trkpt lat="42.2975220" lon="-4.4988230">
        <ele>808.6</ele>
        <time>2021-10-01T14:30:24Z</time>
      </trkpt>
      <trkpt lat="42.2975570" lon="-4.4988820">
        <ele>808.8</ele>
        <time>2021-10-01T14:30:25Z</time>
      </trkpt>
      <trkpt lat="42.2976520" lon="-4.4990610">
        <ele>808.8</ele>
        <time>2021-10-01T14:30:28Z</time>
      </trkpt>
      <trkpt lat="42.2977750" lon="-4.4993010">
        <ele>808.8</ele>
        <time>2021-10-01T14:30:32Z</time>
      </trkpt>
      <trkpt lat="42.2980400" lon="-4.4997530">
        <ele>808.6</ele>
        <time>2021-10-01T14:30:39Z</time>
      </trkpt>
      <trkpt lat="42.2983770" lon="-4.5003380">
        <ele>808.6</ele>
        <time>2021-10-01T14:30:47Z</time>
      </trkpt>
      <trkpt lat="42.2986440" lon="-4.5009020">
        <ele>808.4</ele>
        <time>2021-10-01T14:30:54Z</time>
      </trkpt>
      <trkpt lat="42.2988670" lon="-4.5013520">
        <ele>808.0</ele>
        <time>2021-10-01T14:31:00Z</time>
      </trkpt>
      <trkpt lat="42.2989460" lon="-4.5014910">
        <ele>808.0</ele>
        <time>2021-10-01T14:31:02Z</time>
      </trkpt>
      <trkpt lat="42.2990700" lon="-4.5016840">
        <ele>807.8</ele>
        <time>2021-10-01T14:31:05Z</time>
      </trkpt>
      <trkpt lat="42.2991310" lon="-4.5018210">
        <ele>807.8</ele>
        <time>2021-10-01T14:31:07Z</time>
      </trkpt>
      <trkpt lat="42.2994280" lon="-4.5024500">
        <ele>807.0</ele>
        <time>2021-10-01T14:31:17Z</time>
      </trkpt>
      <trkpt lat="42.2995690" lon="-4.5027830">
        <ele>806.8</ele>
        <time>2021-10-01T14:31:22Z</time>
      </trkpt>
      <trkpt lat="42.2997170" lon="-4.5031350">
        <ele>807.2</ele>
        <time>2021-10-01T14:31:27Z</time>
      </trkpt>
      <trkpt lat="42.2999830" lon="-4.5037710">
        <ele>808.0</ele>
        <time>2021-10-01T14:31:36Z</time>
      </trkpt>
      <trkpt lat="42.3001000" lon="-4.5040550">
        <ele>808.2</ele>
        <time>2021-10-01T14:31:40Z</time>
      </trkpt>
      <trkpt lat="42.3003620" lon="-4.5046760">
        <ele>807.8</ele>
        <time>2021-10-01T14:31:49Z</time>
      </trkpt>
      <trkpt lat="42.3004070" lon="-4.5048180">
        <ele>807.4</ele>
        <time>2021-10-01T14:31:51Z</time>
      </trkpt>
      <trkpt lat="42.3006780" lon="-4.5054640">
        <ele>807.0</ele>
        <time>2021-10-01T14:32:01Z</time>
      </trkpt>
      <trkpt lat="42.3009510" lon="-4.5061140">
        <ele>807.8</ele>
        <time>2021-10-01T14:32:11Z</time>
      </trkpt>
      <trkpt lat="42.3010630" lon="-4.5063760">
        <ele>808.0</ele>
        <time>2021-10-01T14:32:15Z</time>
      </trkpt>
      <trkpt lat="42.3013300" lon="-4.5070180">
        <ele>808.2</ele>
        <time>2021-10-01T14:32:25Z</time>
      </trkpt>
      <trkpt lat="42.3016180" lon="-4.5077030">
        <ele>808.6</ele>
        <time>2021-10-01T14:32:36Z</time>
      </trkpt>
      <trkpt lat="42.3017840" lon="-4.5081040">
        <ele>808.6</ele>
        <time>2021-10-01T14:32:42Z</time>
      </trkpt>
      <trkpt lat="42.3018650" lon="-4.5082940">
        <ele>808.8</ele>
        <time>2021-10-01T14:32:45Z</time>
      </trkpt>
      <trkpt lat="42.3019990" lon="-4.5086070">
        <ele>808.8</ele>
        <time>2021-10-01T14:32:50Z</time>
      </trkpt>
      <trkpt lat="42.3022660" lon="-4.5092420">
        <ele>809.2</ele>
        <time>2021-10-01T14:33:00Z</time>
      </trkpt>
      <trkpt lat="42.3023870" lon="-4.5095250">
        <ele>809.6</ele>
        <time>2021-10-01T14:33:05Z</time>
      </trkpt>
      <trkpt lat="42.3024120" lon="-4.5095730">
        <ele>809.6</ele>
        <time>2021-10-01T14:33:06Z</time>
      </trkpt>
      <trkpt lat="42.3027110" lon="-4.5102610">
        <ele>809.2</ele>
        <time>2021-10-01T14:33:17Z</time>
      </trkpt>
      <trkpt lat="42.3028240" lon="-4.5105420">
        <ele>808.6</ele>
        <time>2021-10-01T14:33:21Z</time>
      </trkpt>
      <trkpt lat="42.3029450" lon="-4.5108280">
        <ele>808.2</ele>
        <time>2021-10-01T14:33:25Z</time>
      </trkpt>
      <trkpt lat="42.3030370" lon="-4.5110430">
        <ele>808.0</ele>
        <time>2021-10-01T14:33:28Z</time>
      </trkpt>
      <trkpt lat="42.3032120" lon="-4.5114640">
        <ele>808.0</ele>
        <time>2021-10-01T14:33:34Z</time>
      </trkpt>
      <trkpt lat="42.3034870" lon="-4.5121140">
        <ele>809.6</ele>
        <time>2021-10-01T14:33:44Z</time>
      </trkpt>
      <trkpt lat="42.3035150" lon="-4.5121740">
        <ele>809.8</ele>
        <time>2021-10-01T14:33:45Z</time>
      </trkpt>
      <trkpt lat="42.3035440" lon="-4.5122340">
        <ele>810.2</ele>
        <time>2021-10-01T14:33:46Z</time>
      </trkpt>
      <trkpt lat="42.3038060" lon="-4.5128680">
        <ele>811.0</ele>
        <time>2021-10-01T14:33:56Z</time>
      </trkpt>
      <trkpt lat="42.3040100" lon="-4.5133490">
        <ele>812.0</ele>
        <time>2021-10-01T14:34:04Z</time>
      </trkpt>
      <trkpt lat="42.3042320" lon="-4.5138730">
        <ele>813.0</ele>
        <time>2021-10-01T14:34:13Z</time>
      </trkpt>
      <trkpt lat="42.3045070" lon="-4.5145020">
        <ele>814.0</ele>
        <time>2021-10-01T14:34:24Z</time>
      </trkpt>
      <trkpt lat="42.3047090" lon="-4.5149700">
        <ele>814.2</ele>
        <time>2021-10-01T14:34:32Z</time>
      </trkpt>
      <trkpt lat="42.3049930" lon="-4.5156410">
        <ele>815.0</ele>
        <time>2021-10-01T14:34:43Z</time>
      </trkpt>
      <trkpt lat="42.3050180" lon="-4.5157020">
        <ele>815.4</ele>
        <time>2021-10-01T14:34:44Z</time>
      </trkpt>
      <trkpt lat="42.3051200" lon="-4.5159460">
        <ele>815.8</ele>
        <time>2021-10-01T14:34:48Z</time>
      </trkpt>
      <trkpt lat="42.3053810" lon="-4.5165910">
        <ele>816.0</ele>
        <time>2021-10-01T14:34:58Z</time>
      </trkpt>
      <trkpt lat="42.3056320" lon="-4.5171930">
        <ele>816.0</ele>
        <time>2021-10-01T14:35:07Z</time>
      </trkpt>
      <trkpt lat="42.3059040" lon="-4.5178600">
        <ele>815.2</ele>
        <time>2021-10-01T14:35:17Z</time>
      </trkpt>
      <trkpt lat="42.3061790" lon="-4.5185050">
        <ele>815.4</ele>
        <time>2021-10-01T14:35:27Z</time>
      </trkpt>
      <trkpt lat="42.3064570" lon="-4.5191730">
        <ele>815.8</ele>
        <time>2021-10-01T14:35:37Z</time>
      </trkpt>
      <trkpt lat="42.3066100" lon="-4.5195290">
        <ele>816.2</ele>
        <time>2021-10-01T14:35:42Z</time>
      </trkpt>
      <trkpt lat="42.3068980" lon="-4.5201870">
        <ele>816.2</ele>
        <time>2021-10-01T14:35:51Z</time>
      </trkpt>
      <trkpt lat="42.3069840" lon="-4.5203950">
        <ele>816.4</ele>
        <time>2021-10-01T14:35:54Z</time>
      </trkpt>
      <trkpt lat="42.3072120" lon="-4.5209460">
        <ele>816.4</ele>
        <time>2021-10-01T14:36:02Z</time>
      </trkpt>
      <trkpt lat="42.3075020" lon="-4.5216270">
        <ele>816.6</ele>
        <time>2021-10-01T14:36:12Z</time>
      </trkpt>
      <trkpt lat="42.3077920" lon="-4.5223200">
        <ele>816.8</ele>
        <time>2021-10-01T14:36:22Z</time>
      </trkpt>
      <trkpt lat="42.3080690" lon="-4.5229820">
        <ele>816.6</ele>
        <time>2021-10-01T14:36:32Z</time>
      </trkpt>
      <trkpt lat="42.3083360" lon="-4.5236160">
        <ele>816.8</ele>
        <time>2021-10-01T14:36:42Z</time>
      </trkpt>
      <trkpt lat="42.3086000" lon="-4.5242610">
        <ele>817.2</ele>
        <time>2021-10-01T14:36:52Z</time>
      </trkpt>
      <trkpt lat="42.3086780" lon="-4.5244460">
        <ele>817.4</ele>
        <time>2021-10-01T14:36:55Z</time>
      </trkpt>
      <trkpt lat="42.3089490" lon="-4.5250780">
        <ele>818.0</ele>
        <time>2021-10-01T14:37:05Z</time>
      </trkpt>
      <trkpt lat="42.3092250" lon="-4.5257440">
        <ele>818.2</ele>
        <time>2021-10-01T14:37:15Z</time>
      </trkpt>
      <trkpt lat="42.3095040" lon="-4.5264070">
        <ele>818.0</ele>
        <time>2021-10-01T14:37:25Z</time>
      </trkpt>
      <trkpt lat="42.3095310" lon="-4.5264750">
        <ele>818.0</ele>
        <time>2021-10-01T14:37:26Z</time>
      </trkpt>
      <trkpt lat="42.3098160" lon="-4.5271520">
        <ele>818.2</ele>
        <time>2021-10-01T14:37:36Z</time>
      </trkpt>
      <trkpt lat="42.3100210" lon="-4.5276310">
        <ele>818.4</ele>
        <time>2021-10-01T14:37:43Z</time>
      </trkpt>
      <trkpt lat="42.3103060" lon="-4.5283230">
        <ele>818.6</ele>
        <time>2021-10-01T14:37:53Z</time>
      </trkpt>
      <trkpt lat="42.3106010" lon="-4.5290090">
        <ele>819.0</ele>
        <time>2021-10-01T14:38:03Z</time>
      </trkpt>
      <trkpt lat="42.3108910" lon="-4.5296930">
        <ele>819.4</ele>
        <time>2021-10-01T14:38:13Z</time>
      </trkpt>
      <trkpt lat="42.3111740" lon="-4.5303630">
        <ele>819.2</ele>
        <time>2021-10-01T14:38:23Z</time>
      </trkpt>
      <trkpt lat="42.3114520" lon="-4.5310210">
        <ele>818.6</ele>
        <time>2021-10-01T14:38:33Z</time>
      </trkpt>
      <trkpt lat="42.3117290" lon="-4.5316720">
        <ele>819.0</ele>
        <time>2021-10-01T14:38:43Z</time>
      </trkpt>
      <trkpt lat="42.3117810" lon="-4.5318030">
        <ele>819.6</ele>
        <time>2021-10-01T14:38:45Z</time>
      </trkpt>
      <trkpt lat="42.3120290" lon="-4.5324530">
        <ele>820.0</ele>
        <time>2021-10-01T14:38:55Z</time>
      </trkpt>
      <trkpt lat="42.3122470" lon="-4.5331510">
        <ele>820.0</ele>
        <time>2021-10-01T14:39:05Z</time>
      </trkpt>
      <trkpt lat="42.3124690" lon="-4.5338800">
        <ele>820.2</ele>
        <time>2021-10-01T14:39:15Z</time>
      </trkpt>
      <trkpt lat="42.3126230" lon="-4.5343940">
        <ele>820.6</ele>
        <time>2021-10-01T14:39:22Z</time>
      </trkpt>
      <trkpt lat="42.3128480" lon="-4.5351350">
        <ele>820.8</ele>
        <time>2021-10-01T14:39:32Z</time>
      </trkpt>
      <trkpt lat="42.3130720" lon="-4.5358810">
        <ele>820.8</ele>
        <time>2021-10-01T14:39:42Z</time>
      </trkpt>
      <trkpt lat="42.3131940" lon="-4.5362820">
        <ele>820.4</ele>
        <time>2021-10-01T14:39:47Z</time>
      </trkpt>
      <trkpt lat="42.3134110" lon="-4.5370000">
        <ele>820.0</ele>
        <time>2021-10-01T14:39:56Z</time>
      </trkpt>
      <trkpt lat="42.3135510" lon="-4.5374620">
        <ele>820.2</ele>
        <time>2021-10-01T14:40:02Z</time>
      </trkpt>
      <trkpt lat="42.3137500" lon="-4.5381440">
        <ele>820.4</ele>
        <time>2021-10-01T14:40:11Z</time>
      </trkpt>
      <trkpt lat="42.3139600" lon="-4.5388530">
        <ele>820.4</ele>
        <time>2021-10-01T14:40:21Z</time>
      </trkpt>
      <trkpt lat="42.3141650" lon="-4.5395330">
        <ele>820.0</ele>
        <time>2021-10-01T14:40:31Z</time>
      </trkpt>
      <trkpt lat="42.3143780" lon="-4.5402430">
        <ele>819.8</ele>
        <time>2021-10-01T14:40:42Z</time>
      </trkpt>
      <trkpt lat="42.3145900" lon="-4.5409490">
        <ele>820.2</ele>
        <time>2021-10-01T14:40:53Z</time>
      </trkpt>
      <trkpt lat="42.3147960" lon="-4.5416240">
        <ele>820.4</ele>
        <time>2021-10-01T14:41:03Z</time>
      </trkpt>
      <trkpt lat="42.3150180" lon="-4.5421920">
        <ele>820.0</ele>
        <time>2021-10-01T14:41:12Z</time>
      </trkpt>
      <trkpt lat="42.3151770" lon="-4.5423380">
        <ele>820.0</ele>
        <time>2021-10-01T14:41:16Z</time>
      </trkpt>
      <trkpt lat="42.3152190" lon="-4.5423630">
        <ele>820.0</ele>
        <time>2021-10-01T14:41:17Z</time>
      </trkpt>
      <trkpt lat="42.3153070" lon="-4.5424370">
        <ele>820.8</ele>
        <time>2021-10-01T14:41:20Z</time>
      </trkpt>
      <trkpt lat="42.3156510" lon="-4.5422800">
        <ele>821.6</ele>
        <time>2021-10-01T14:41:30Z</time>
      </trkpt>
      <trkpt lat="42.3158760" lon="-4.5423410">
        <ele>822.4</ele>
        <time>2021-10-01T14:41:35Z</time>
      </trkpt>
      <trkpt lat="42.3160050" lon="-4.5423900">
        <ele>822.6</ele>
        <time>2021-10-01T14:41:38Z</time>
      </trkpt>
      <trkpt lat="42.3160490" lon="-4.5424060">
        <ele>822.6</ele>
        <time>2021-10-01T14:41:39Z</time>
      </trkpt>
      <trkpt lat="42.3161750" lon="-4.5424530">
        <ele>823.0</ele>
        <time>2021-10-01T14:41:42Z</time>
      </trkpt>
      <trkpt lat="42.3162900" lon="-4.5424900">
        <ele>823.2</ele>
        <time>2021-10-01T14:41:45Z</time>
      </trkpt>
      <trkpt lat="42.3163850" lon="-4.5425360">
        <ele>823.8</ele>
        <time>2021-10-01T14:41:48Z</time>
      </trkpt>
      <trkpt lat="42.3164270" lon="-4.5425750">
        <ele>825.0</ele>
        <time>2021-10-01T14:41:51Z</time>
      </trkpt>
      <trkpt lat="42.3164290" lon="-4.5425750">
        <ele>825.6</ele>
        <time>2021-10-01T14:41:52Z</time>
      </trkpt>
      <trkpt lat="42.3164680" lon="-4.5426180">
        <ele>828.0</ele>
        <time>2021-10-01T14:42:38Z</time>
      </trkpt>
      <trkpt lat="42.3164750" lon="-4.5426560">
        <ele>828.0</ele>
        <time>2021-10-01T14:42:39Z</time>
      </trkpt>
      <trkpt lat="42.3164730" lon="-4.5428790">
        <ele>827.6</ele>
        <time>2021-10-01T14:42:44Z</time>
      </trkpt>
      <trkpt lat="42.3164640" lon="-4.5430160">
        <ele>826.8</ele>
        <time>2021-10-01T14:42:47Z</time>
      </trkpt>
      <trkpt lat="42.3164930" lon="-4.5430900">
        <ele>826.4</ele>
        <time>2021-10-01T14:42:49Z</time>
      </trkpt>
      <trkpt lat="42.3166860" lon="-4.5431450">
        <ele>826.4</ele>
        <time>2021-10-01T14:42:55Z</time>
      </trkpt>
      <trkpt lat="42.3169160" lon="-4.5432090">
        <ele>826.6</ele>
        <time>2021-10-01T14:43:02Z</time>
      </trkpt>
      <trkpt lat="42.3170170" lon="-4.5432380">
        <ele>827.2</ele>
        <time>2021-10-01T14:43:05Z</time>
      </trkpt>
      <trkpt lat="42.3171220" lon="-4.5432650">
        <ele>827.6</ele>
        <time>2021-10-01T14:43:08Z</time>
      </trkpt>
      <trkpt lat="42.3171930" lon="-4.5432710">
        <ele>828.0</ele>
        <time>2021-10-01T14:43:10Z</time>
      </trkpt>
      <trkpt lat="42.3172660" lon="-4.5432840">
        <ele>828.4</ele>
        <time>2021-10-01T14:43:12Z</time>
      </trkpt>
      <trkpt lat="42.3173960" lon="-4.5433030">
        <ele>829.2</ele>
        <time>2021-10-01T14:43:16Z</time>
      </trkpt>
      <trkpt lat="42.3174510" lon="-4.5433290">
        <ele>829.8</ele>
        <time>2021-10-01T14:43:19Z</time>
      </trkpt>
      <trkpt lat="42.3174750" lon="-4.5433370">
        <ele>830.0</ele>
        <time>2021-10-01T14:43:21Z</time>
      </trkpt>
      <trkpt lat="42.3174750" lon="-4.5433780">
        <ele>830.0</ele>
        <time>2021-10-01T14:43:24Z</time>
      </trkpt>
      <trkpt lat="42.3173550" lon="-4.5436170">
        <ele>830.0</ele>
        <time>2021-10-01T14:43:30Z</time>
      </trkpt>
      <trkpt lat="42.3172000" lon="-4.5439290">
        <ele>828.2</ele>
        <time>2021-10-01T14:43:35Z</time>
      </trkpt>
      <trkpt lat="42.3171710" lon="-4.5439960">
        <ele>827.6</ele>
        <time>2021-10-01T14:43:36Z</time>
      </trkpt>
      <trkpt lat="42.3170860" lon="-4.5441980">
        <ele>827.0</ele>
        <time>2021-10-01T14:43:39Z</time>
      </trkpt>
      <trkpt lat="42.3169800" lon="-4.5444690">
        <ele>826.0</ele>
        <time>2021-10-01T14:43:43Z</time>
      </trkpt>
      <trkpt lat="42.3169320" lon="-4.5446020">
        <ele>825.4</ele>
        <time>2021-10-01T14:43:45Z</time>
      </trkpt>
      <trkpt lat="42.3168290" lon="-4.5448690">
        <ele>825.0</ele>
        <time>2021-10-01T14:43:49Z</time>
      </trkpt>
      <trkpt lat="42.3167780" lon="-4.5450100">
        <ele>825.0</ele>
        <time>2021-10-01T14:43:51Z</time>
      </trkpt>
      <trkpt lat="42.3165830" lon="-4.5454890">
        <ele>823.6</ele>
        <time>2021-10-01T14:43:58Z</time>
      </trkpt>
      <trkpt lat="42.3165460" lon="-4.5455480">
        <ele>823.2</ele>
        <time>2021-10-01T14:43:59Z</time>
      </trkpt>
      <trkpt lat="42.3164200" lon="-4.5457020">
        <ele>822.6</ele>
        <time>2021-10-01T14:44:02Z</time>
      </trkpt>
      <trkpt lat="42.3161680" lon="-4.5459710">
        <ele>822.4</ele>
        <time>2021-10-01T14:44:08Z</time>
      </trkpt>
      <trkpt lat="42.3160890" lon="-4.5460960">
        <ele>822.6</ele>
        <time>2021-10-01T14:44:11Z</time>
      </trkpt>
      <trkpt lat="42.3161020" lon="-4.5461990">
        <ele>822.6</ele>
        <time>2021-10-01T14:44:13Z</time>
      </trkpt>
      <trkpt lat="42.3161440" lon="-4.5463110">
        <ele>822.8</ele>
        <time>2021-10-01T14:44:15Z</time>
      </trkpt>
      <trkpt lat="42.3161700" lon="-4.5463680">
        <ele>822.8</ele>
        <time>2021-10-01T14:44:16Z</time>
      </trkpt>
      <trkpt lat="42.3161980" lon="-4.5464260">
        <ele>823.2</ele>
        <time>2021-10-01T14:44:17Z</time>
      </trkpt>
      <trkpt lat="42.3162570" lon="-4.5465500">
        <ele>823.2</ele>
        <time>2021-10-01T14:44:19Z</time>
      </trkpt>
      <trkpt lat="42.3162860" lon="-4.5466150">
        <ele>823.2</ele>
        <time>2021-10-01T14:44:20Z</time>
      </trkpt>
      <trkpt lat="42.3163370" lon="-4.5467510">
        <ele>823.2</ele>
        <time>2021-10-01T14:44:22Z</time>
      </trkpt>
      <trkpt lat="42.3163820" lon="-4.5468800">
        <ele>823.2</ele>
        <time>2021-10-01T14:44:24Z</time>
      </trkpt>
      <trkpt lat="42.3164210" lon="-4.5470040">
        <ele>823.2</ele>
        <time>2021-10-01T14:44:26Z</time>
      </trkpt>
      <trkpt lat="42.3164560" lon="-4.5471210">
        <ele>823.2</ele>
        <time>2021-10-01T14:44:28Z</time>
      </trkpt>
      <trkpt lat="42.3165100" lon="-4.5472870">
        <ele>824.2</ele>
        <time>2021-10-01T14:44:31Z</time>
      </trkpt>
      <trkpt lat="42.3165640" lon="-4.5474560">
        <ele>825.4</ele>
        <time>2021-10-01T14:44:34Z</time>
      </trkpt>
      <trkpt lat="42.3166340" lon="-4.5476750">
        <ele>826.8</ele>
        <time>2021-10-01T14:44:38Z</time>
      </trkpt>
      <trkpt lat="42.3167250" lon="-4.5479330">
        <ele>827.6</ele>
        <time>2021-10-01T14:44:43Z</time>
      </trkpt>
      <trkpt lat="42.3169290" lon="-4.5485710">
        <ele>827.8</ele>
        <time>2021-10-01T14:44:55Z</time>
      </trkpt>
      <trkpt lat="42.3170120" lon="-4.5488420">
        <ele>829.0</ele>
        <time>2021-10-01T14:45:00Z</time>
      </trkpt>
      <trkpt lat="42.3172180" lon="-4.5495180">
        <ele>829.8</ele>
        <time>2021-10-01T14:45:13Z</time>
      </trkpt>
      <trkpt lat="42.3173490" lon="-4.5499330">
        <ele>830.0</ele>
        <time>2021-10-01T14:45:21Z</time>
      </trkpt>
      <trkpt lat="42.3175660" lon="-4.5506400">
        <ele>830.4</ele>
        <time>2021-10-01T14:45:34Z</time>
      </trkpt>
      <trkpt lat="42.3176130" lon="-4.5507990">
        <ele>831.0</ele>
        <time>2021-10-01T14:45:37Z</time>
      </trkpt>
      <trkpt lat="42.3176750" lon="-4.5510140">
        <ele>832.0</ele>
        <time>2021-10-01T14:45:41Z</time>
      </trkpt>
      <trkpt lat="42.3177180" lon="-4.5511490">
        <ele>832.6</ele>
        <time>2021-10-01T14:45:44Z</time>
      </trkpt>
      <trkpt lat="42.3177390" lon="-4.5512140">
        <ele>832.8</ele>
        <time>2021-10-01T14:45:46Z</time>
      </trkpt>
      <trkpt lat="42.3177970" lon="-4.5513850">
        <ele>833.0</ele>
        <time>2021-10-01T14:45:50Z</time>
      </trkpt>
      <trkpt lat="42.3178780" lon="-4.5516450">
        <ele>833.4</ele>
        <time>2021-10-01T14:45:54Z</time>
      </trkpt>
      <trkpt lat="42.3179770" lon="-4.5519740">
        <ele>833.4</ele>
        <time>2021-10-01T14:45:59Z</time>
      </trkpt>
      <trkpt lat="42.3181980" lon="-4.5527070">
        <ele>833.4</ele>
        <time>2021-10-01T14:46:11Z</time>
      </trkpt>
      <trkpt lat="42.3184150" lon="-4.5534250">
        <ele>834.0</ele>
        <time>2021-10-01T14:46:23Z</time>
      </trkpt>
      <trkpt lat="42.3184350" lon="-4.5534870">
        <ele>834.2</ele>
        <time>2021-10-01T14:46:24Z</time>
      </trkpt>
      <trkpt lat="42.3186470" lon="-4.5541820">
        <ele>834.2</ele>
        <time>2021-10-01T14:46:35Z</time>
      </trkpt>
      <trkpt lat="42.3188660" lon="-4.5548880">
        <ele>834.8</ele>
        <time>2021-10-01T14:46:46Z</time>
      </trkpt>
      <trkpt lat="42.3189510" lon="-4.5551640">
        <ele>834.8</ele>
        <time>2021-10-01T14:46:50Z</time>
      </trkpt>
      <trkpt lat="42.3190120" lon="-4.5553670">
        <ele>835.2</ele>
        <time>2021-10-01T14:46:53Z</time>
      </trkpt>
      <trkpt lat="42.3191890" lon="-4.5559500">
        <ele>836.2</ele>
        <time>2021-10-01T14:47:02Z</time>
      </trkpt>
      <trkpt lat="42.3193360" lon="-4.5564490">
        <ele>837.2</ele>
        <time>2021-10-01T14:47:10Z</time>
      </trkpt>
      <trkpt lat="42.3195490" lon="-4.5571400">
        <ele>837.4</ele>
        <time>2021-10-01T14:47:21Z</time>
      </trkpt>
      <trkpt lat="42.3197240" lon="-4.5577110">
        <ele>838.4</ele>
        <time>2021-10-01T14:47:30Z</time>
      </trkpt>
      <trkpt lat="42.3199110" lon="-4.5583210">
        <ele>839.4</ele>
        <time>2021-10-01T14:47:40Z</time>
      </trkpt>
      <trkpt lat="42.3199290" lon="-4.5583820">
        <ele>839.4</ele>
        <time>2021-10-01T14:47:41Z</time>
      </trkpt>
      <trkpt lat="42.3200350" lon="-4.5587370">
        <ele>840.6</ele>
        <time>2021-10-01T14:47:47Z</time>
      </trkpt>
      <trkpt lat="42.3202570" lon="-4.5594690">
        <ele>841.4</ele>
        <time>2021-10-01T14:47:58Z</time>
      </trkpt>
      <trkpt lat="42.3204640" lon="-4.5601410">
        <ele>841.2</ele>
        <time>2021-10-01T14:48:08Z</time>
      </trkpt>
      <trkpt lat="42.3206860" lon="-4.5608530">
        <ele>841.2</ele>
        <time>2021-10-01T14:48:19Z</time>
      </trkpt>
      <trkpt lat="42.3209050" lon="-4.5615820">
        <ele>841.2</ele>
        <time>2021-10-01T14:48:30Z</time>
      </trkpt>
      <trkpt lat="42.3210280" lon="-4.5619740">
        <ele>841.6</ele>
        <time>2021-10-01T14:48:36Z</time>
      </trkpt>
      <trkpt lat="42.3211770" lon="-4.5624650">
        <ele>842.8</ele>
        <time>2021-10-01T14:48:44Z</time>
      </trkpt>
      <trkpt lat="42.3213890" lon="-4.5631530">
        <ele>843.4</ele>
        <time>2021-10-01T14:48:56Z</time>
      </trkpt>
      <trkpt lat="42.3214840" lon="-4.5634790">
        <ele>843.8</ele>
        <time>2021-10-01T14:49:01Z</time>
      </trkpt>
      <trkpt lat="42.3215660" lon="-4.5637570">
        <ele>844.6</ele>
        <time>2021-10-01T14:49:05Z</time>
      </trkpt>
      <trkpt lat="42.3215850" lon="-4.5638220">
        <ele>845.0</ele>
        <time>2021-10-01T14:49:06Z</time>
      </trkpt>
      <trkpt lat="42.3216780" lon="-4.5641220">
        <ele>845.6</ele>
        <time>2021-10-01T14:49:11Z</time>
      </trkpt>
      <trkpt lat="42.3217160" lon="-4.5642350">
        <ele>846.2</ele>
        <time>2021-10-01T14:49:13Z</time>
      </trkpt>
      <trkpt lat="42.3217500" lon="-4.5643470">
        <ele>847.4</ele>
        <time>2021-10-01T14:49:15Z</time>
      </trkpt>
      <trkpt lat="42.3217840" lon="-4.5644550">
        <ele>848.4</ele>
        <time>2021-10-01T14:49:17Z</time>
      </trkpt>
      <trkpt lat="42.3218800" lon="-4.5647800">
        <ele>849.6</ele>
        <time>2021-10-01T14:49:23Z</time>
      </trkpt>
      <trkpt lat="42.3219770" lon="-4.5651090">
        <ele>850.6</ele>
        <time>2021-10-01T14:49:29Z</time>
      </trkpt>
      <trkpt lat="42.3221870" lon="-4.5658000">
        <ele>851.6</ele>
        <time>2021-10-01T14:49:42Z</time>
      </trkpt>
      <trkpt lat="42.3223610" lon="-4.5663170">
        <ele>852.8</ele>
        <time>2021-10-01T14:49:53Z</time>
      </trkpt>
      <trkpt lat="42.3224550" lon="-4.5665710">
        <ele>854.0</ele>
        <time>2021-10-01T14:49:58Z</time>
      </trkpt>
      <trkpt lat="42.3225850" lon="-4.5669140">
        <ele>855.0</ele>
        <time>2021-10-01T14:50:05Z</time>
      </trkpt>
      <trkpt lat="42.3226920" lon="-4.5671820">
        <ele>856.0</ele>
        <time>2021-10-01T14:50:11Z</time>
      </trkpt>
      <trkpt lat="42.3227710" lon="-4.5673550">
        <ele>857.2</ele>
        <time>2021-10-01T14:50:15Z</time>
      </trkpt>
      <trkpt lat="42.3228850" lon="-4.5676130">
        <ele>858.2</ele>
        <time>2021-10-01T14:50:21Z</time>
      </trkpt>
      <trkpt lat="42.3230350" lon="-4.5679770">
        <ele>859.2</ele>
        <time>2021-10-01T14:50:29Z</time>
      </trkpt>
      <trkpt lat="42.3231480" lon="-4.5682470">
        <ele>860.4</ele>
        <time>2021-10-01T14:50:34Z</time>
      </trkpt>
      <trkpt lat="42.3233580" lon="-4.5687480">
        <ele>861.4</ele>
        <time>2021-10-01T14:50:44Z</time>
      </trkpt>
      <trkpt lat="42.3234890" lon="-4.5690660">
        <ele>862.0</ele>
        <time>2021-10-01T14:50:50Z</time>
      </trkpt>
      <trkpt lat="42.3236500" lon="-4.5694350">
        <ele>862.6</ele>
        <time>2021-10-01T14:50:57Z</time>
      </trkpt>
      <trkpt lat="42.3238120" lon="-4.5698150">
        <ele>863.6</ele>
        <time>2021-10-01T14:51:04Z</time>
      </trkpt>
      <trkpt lat="42.3240950" lon="-4.5704580">
        <ele>864.0</ele>
        <time>2021-10-01T14:51:16Z</time>
      </trkpt>
      <trkpt lat="42.3242990" lon="-4.5709080">
        <ele>864.6</ele>
        <time>2021-10-01T14:51:24Z</time>
      </trkpt>
      <trkpt lat="42.3245350" lon="-4.5713800">
        <ele>864.6</ele>
        <time>2021-10-01T14:51:32Z</time>
      </trkpt>
      <trkpt lat="42.3246640" lon="-4.5716260">
        <ele>864.6</ele>
        <time>2021-10-01T14:51:36Z</time>
      </trkpt>
      <trkpt lat="42.3249330" lon="-4.5721450">
        <ele>863.8</ele>
        <time>2021-10-01T14:51:44Z</time>
      </trkpt>
      <trkpt lat="42.3249990" lon="-4.5722750">
        <ele>863.4</ele>
        <time>2021-10-01T14:51:46Z</time>
      </trkpt>
      <trkpt lat="42.3253110" lon="-4.5728770">
        <ele>862.8</ele>
        <time>2021-10-01T14:51:56Z</time>
      </trkpt>
      <trkpt lat="42.3256300" lon="-4.5734910">
        <ele>862.8</ele>
        <time>2021-10-01T14:52:06Z</time>
      </trkpt>
      <trkpt lat="42.3259580" lon="-4.5741340">
        <ele>864.0</ele>
        <time>2021-10-01T14:52:17Z</time>
      </trkpt>
      <trkpt lat="42.3260740" lon="-4.5743620">
        <ele>864.6</ele>
        <time>2021-10-01T14:52:21Z</time>
      </trkpt>
      <trkpt lat="42.3262720" lon="-4.5747490">
        <ele>865.8</ele>
        <time>2021-10-01T14:52:28Z</time>
      </trkpt>
      <trkpt lat="42.3265910" lon="-4.5753680">
        <ele>866.4</ele>
        <time>2021-10-01T14:52:39Z</time>
      </trkpt>
      <trkpt lat="42.3267610" lon="-4.5757020">
        <ele>867.0</ele>
        <time>2021-10-01T14:52:45Z</time>
      </trkpt>
      <trkpt lat="42.3269050" lon="-4.5759730">
        <ele>868.0</ele>
        <time>2021-10-01T14:52:50Z</time>
      </trkpt>
      <trkpt lat="42.3272250" lon="-4.5765890">
        <ele>868.8</ele>
        <time>2021-10-01T14:53:01Z</time>
      </trkpt>
      <trkpt lat="42.3275140" lon="-4.5771530">
        <ele>869.2</ele>
        <time>2021-10-01T14:53:11Z</time>
      </trkpt>
      <trkpt lat="42.3278490" lon="-4.5777940">
        <ele>869.8</ele>
        <time>2021-10-01T14:53:22Z</time>
      </trkpt>
      <trkpt lat="42.3281570" lon="-4.5783920">
        <ele>869.4</ele>
        <time>2021-10-01T14:53:31Z</time>
      </trkpt>
      <trkpt lat="42.3284180" lon="-4.5788980">
        <ele>868.2</ele>
        <time>2021-10-01T14:53:38Z</time>
      </trkpt>
      <trkpt lat="42.3284560" lon="-4.5789710">
        <ele>868.0</ele>
        <time>2021-10-01T14:53:39Z</time>
      </trkpt>
      <trkpt lat="42.3286460" lon="-4.5793350">
        <ele>866.8</ele>
        <time>2021-10-01T14:53:44Z</time>
      </trkpt>
      <trkpt lat="42.3288030" lon="-4.5796490">
        <ele>866.0</ele>
        <time>2021-10-01T14:53:48Z</time>
      </trkpt>
      <trkpt lat="42.3288430" lon="-4.5797300">
        <ele>865.4</ele>
        <time>2021-10-01T14:53:49Z</time>
      </trkpt>
      <trkpt lat="42.3290120" lon="-4.5800610">
        <ele>864.0</ele>
        <time>2021-10-01T14:53:53Z</time>
      </trkpt>
      <trkpt lat="42.3291430" lon="-4.5803160">
        <ele>863.0</ele>
        <time>2021-10-01T14:53:56Z</time>
      </trkpt>
      <trkpt lat="42.3292730" lon="-4.5805700">
        <ele>861.8</ele>
        <time>2021-10-01T14:53:59Z</time>
      </trkpt>
      <trkpt lat="42.3294830" lon="-4.5809740">
        <ele>860.2</ele>
        <time>2021-10-01T14:54:04Z</time>
      </trkpt>
      <trkpt lat="42.3298080" lon="-4.5815950">
        <ele>859.2</ele>
        <time>2021-10-01T14:54:12Z</time>
      </trkpt>
      <trkpt lat="42.3301300" lon="-4.5822220">
        <ele>858.8</ele>
        <time>2021-10-01T14:54:20Z</time>
      </trkpt>
      <trkpt lat="42.3303090" lon="-4.5825950">
        <ele>858.6</ele>
        <time>2021-10-01T14:54:25Z</time>
      </trkpt>
      <trkpt lat="42.3306090" lon="-4.5831810">
        <ele>858.0</ele>
        <time>2021-10-01T14:54:33Z</time>
      </trkpt>
      <trkpt lat="42.3309600" lon="-4.5838520">
        <ele>857.0</ele>
        <time>2021-10-01T14:54:42Z</time>
      </trkpt>
      <trkpt lat="42.3312160" lon="-4.5843500">
        <ele>856.2</ele>
        <time>2021-10-01T14:54:48Z</time>
      </trkpt>
      <trkpt lat="42.3312580" lon="-4.5844350">
        <ele>855.8</ele>
        <time>2021-10-01T14:54:49Z</time>
      </trkpt>
      <trkpt lat="42.3313870" lon="-4.5846890">
        <ele>854.6</ele>
        <time>2021-10-01T14:54:52Z</time>
      </trkpt>
      <trkpt lat="42.3315630" lon="-4.5850340">
        <ele>853.4</ele>
        <time>2021-10-01T14:54:56Z</time>
      </trkpt>
      <trkpt lat="42.3317440" lon="-4.5853840">
        <ele>852.6</ele>
        <time>2021-10-01T14:55:00Z</time>
      </trkpt>
      <trkpt lat="42.3317880" lon="-4.5854720">
        <ele>852.2</ele>
        <time>2021-10-01T14:55:01Z</time>
      </trkpt>
      <trkpt lat="42.3320120" lon="-4.5859060">
        <ele>851.0</ele>
        <time>2021-10-01T14:55:06Z</time>
      </trkpt>
      <trkpt lat="42.3323510" lon="-4.5865580">
        <ele>850.4</ele>
        <time>2021-10-01T14:55:14Z</time>
      </trkpt>
      <trkpt lat="42.3326610" lon="-4.5871620">
        <ele>850.4</ele>
        <time>2021-10-01T14:55:22Z</time>
      </trkpt>
      <trkpt lat="42.3330010" lon="-4.5878190">
        <ele>850.2</ele>
        <time>2021-10-01T14:55:31Z</time>
      </trkpt>
      <trkpt lat="42.3331830" lon="-4.5881750">
        <ele>850.0</ele>
        <time>2021-10-01T14:55:36Z</time>
      </trkpt>
      <trkpt lat="42.3333600" lon="-4.5885220">
        <ele>848.8</ele>
        <time>2021-10-01T14:55:41Z</time>
      </trkpt>
      <trkpt lat="42.3336510" lon="-4.5890820">
        <ele>848.2</ele>
        <time>2021-10-01T14:55:49Z</time>
      </trkpt>
      <trkpt lat="42.3337620" lon="-4.5892960">
        <ele>847.8</ele>
        <time>2021-10-01T14:55:52Z</time>
      </trkpt>
      <trkpt lat="42.3339500" lon="-4.5896610">
        <ele>846.6</ele>
        <time>2021-10-01T14:55:57Z</time>
      </trkpt>
      <trkpt lat="42.3341380" lon="-4.5900380">
        <ele>845.8</ele>
        <time>2021-10-01T14:56:02Z</time>
      </trkpt>
      <trkpt lat="42.3341760" lon="-4.5901140">
        <ele>845.6</ele>
        <time>2021-10-01T14:56:03Z</time>
      </trkpt>
      <trkpt lat="42.3344850" lon="-4.5907140">
        <ele>845.0</ele>
        <time>2021-10-01T14:56:11Z</time>
      </trkpt>
      <trkpt lat="42.3347520" lon="-4.5912340">
        <ele>844.6</ele>
        <time>2021-10-01T14:56:18Z</time>
      </trkpt>
      <trkpt lat="42.3350610" lon="-4.5918310">
        <ele>844.4</ele>
        <time>2021-10-01T14:56:26Z</time>
      </trkpt>
      <trkpt lat="42.3353960" lon="-4.5924860">
        <ele>844.2</ele>
        <time>2021-10-01T14:56:35Z</time>
      </trkpt>
      <trkpt lat="42.3356110" lon="-4.5929060">
        <ele>843.4</ele>
        <time>2021-10-01T14:56:41Z</time>
      </trkpt>
      <trkpt lat="42.3358200" lon="-4.5933160">
        <ele>843.2</ele>
        <time>2021-10-01T14:56:47Z</time>
      </trkpt>
      <trkpt lat="42.3360010" lon="-4.5936670">
        <ele>843.0</ele>
        <time>2021-10-01T14:56:52Z</time>
      </trkpt>
      <trkpt lat="42.3363210" lon="-4.5942930">
        <ele>843.6</ele>
        <time>2021-10-01T14:57:01Z</time>
      </trkpt>
      <trkpt lat="42.3364560" lon="-4.5945580">
        <ele>844.0</ele>
        <time>2021-10-01T14:57:05Z</time>
      </trkpt>
      <trkpt lat="42.3367630" lon="-4.5951420">
        <ele>844.6</ele>
        <time>2021-10-01T14:57:14Z</time>
      </trkpt>
      <trkpt lat="42.3370080" lon="-4.5955610">
        <ele>844.8</ele>
        <time>2021-10-01T14:57:21Z</time>
      </trkpt>
      <trkpt lat="42.3372500" lon="-4.5959400">
        <ele>844.6</ele>
        <time>2021-10-01T14:57:28Z</time>
      </trkpt>
      <trkpt lat="42.3373090" lon="-4.5960350">
        <ele>844.6</ele>
        <time>2021-10-01T14:57:30Z</time>
      </trkpt>
      <trkpt lat="42.3374520" lon="-4.5966830">
        <ele>845.0</ele>
        <time>2021-10-01T14:57:41Z</time>
      </trkpt>
      <trkpt lat="42.3374570" lon="-4.5974060">
        <ele>845.0</ele>
        <time>2021-10-01T14:57:51Z</time>
      </trkpt>
      <trkpt lat="42.3374680" lon="-4.5981860">
        <ele>845.0</ele>
        <time>2021-10-01T14:58:02Z</time>
      </trkpt>
      <trkpt lat="42.3374750" lon="-4.5988880">
        <ele>845.2</ele>
        <time>2021-10-01T14:58:12Z</time>
      </trkpt>
      <trkpt lat="42.3374580" lon="-4.5992620">
        <ele>845.4</ele>
        <time>2021-10-01T14:58:18Z</time>
      </trkpt>
      <trkpt lat="42.3374590" lon="-4.5993750">
        <ele>845.6</ele>
        <time>2021-10-01T14:58:20Z</time>
      </trkpt>
      <trkpt lat="42.3374560" lon="-4.5994320">
        <ele>845.8</ele>
        <time>2021-10-01T14:58:21Z</time>
      </trkpt>
      <trkpt lat="42.3374200" lon="-4.5996620">
        <ele>846.6</ele>
        <time>2021-10-01T14:58:25Z</time>
      </trkpt>
      <trkpt lat="42.3373220" lon="-4.6004110">
        <ele>847.0</ele>
        <time>2021-10-01T14:58:37Z</time>
      </trkpt>
      <trkpt lat="42.3373080" lon="-4.6005270">
        <ele>847.0</ele>
        <time>2021-10-01T14:58:39Z</time>
      </trkpt>
      <trkpt lat="42.3370150" lon="-4.6010710">
        <ele>836.2</ele>
        <time>2021-10-02T07:14:35Z</time>
      </trkpt>
      <trkpt lat="42.3370380" lon="-4.6011490">
        <ele>836.2</ele>
        <time>2021-10-02T07:14:37Z</time>
      </trkpt>
      <trkpt lat="42.3370740" lon="-4.6012780">
        <ele>836.8</ele>
        <time>2021-10-02T07:14:40Z</time>
      </trkpt>
      <trkpt lat="42.3370870" lon="-4.6013210">
        <ele>836.8</ele>
        <time>2021-10-02T07:14:41Z</time>
      </trkpt>
      <trkpt lat="42.3371110" lon="-4.6014100">
        <ele>836.8</ele>
        <time>2021-10-02T07:14:43Z</time>
      </trkpt>
      <trkpt lat="42.3371380" lon="-4.6015000">
        <ele>836.8</ele>
        <time>2021-10-02T07:14:45Z</time>
      </trkpt>
      <trkpt lat="42.3371850" lon="-4.6016740">
        <ele>837.2</ele>
        <time>2021-10-02T07:14:49Z</time>
      </trkpt>
      <trkpt lat="42.3373330" lon="-4.6023760">
        <ele>837.6</ele>
        <time>2021-10-02T07:15:04Z</time>
      </trkpt>
      <trkpt lat="42.3374600" lon="-4.6027750">
        <ele>838.0</ele>
        <time>2021-10-02T07:15:13Z</time>
      </trkpt>
      <trkpt lat="42.3375500" lon="-4.6030560">
        <ele>838.0</ele>
        <time>2021-10-02T07:15:19Z</time>
      </trkpt>
      <trkpt lat="42.3376170" lon="-4.6032410">
        <ele>838.0</ele>
        <time>2021-10-02T07:15:23Z</time>
      </trkpt>
      <trkpt lat="42.3378590" lon="-4.6036250">
        <ele>838.4</ele>
        <time>2021-10-02T07:15:34Z</time>
      </trkpt>
      <trkpt lat="42.3379110" lon="-4.6036520">
        <ele>838.6</ele>
        <time>2021-10-02T07:15:36Z</time>
      </trkpt>
      <trkpt lat="42.3379620" lon="-4.6036770">
        <ele>838.6</ele>
        <time>2021-10-02T07:15:38Z</time>
      </trkpt>
      <trkpt lat="42.3379830" lon="-4.6036950">
        <ele>838.6</ele>
        <time>2021-10-02T07:15:39Z</time>
      </trkpt>
      <trkpt lat="42.3380160" lon="-4.6037650">
        <ele>838.6</ele>
        <time>2021-10-02T07:15:41Z</time>
      </trkpt>
      <trkpt lat="42.3380180" lon="-4.6038800">
        <ele>838.6</ele>
        <time>2021-10-02T07:15:43Z</time>
      </trkpt>
      <trkpt lat="42.3380240" lon="-4.6039370">
        <ele>838.4</ele>
        <time>2021-10-02T07:15:44Z</time>
      </trkpt>
      <trkpt lat="42.3381570" lon="-4.6041710">
        <ele>837.4</ele>
        <time>2021-10-02T07:15:50Z</time>
      </trkpt>
      <trkpt lat="42.3381870" lon="-4.6042020">
        <ele>837.4</ele>
        <time>2021-10-02T07:15:51Z</time>
      </trkpt>
      <trkpt lat="42.3382710" lon="-4.6043390">
        <ele>837.2</ele>
        <time>2021-10-02T07:15:56Z</time>
      </trkpt>
      <trkpt lat="42.3383230" lon="-4.6044290">
        <ele>837.4</ele>
        <time>2021-10-02T07:16:00Z</time>
      </trkpt>
      <trkpt lat="42.3383830" lon="-4.6044870">
        <ele>838.4</ele>
        <time>2021-10-02T07:16:03Z</time>
      </trkpt>
      <trkpt lat="42.3383910" lon="-4.6045100">
        <ele>838.6</ele>
        <time>2021-10-02T07:16:04Z</time>
      </trkpt>
      <trkpt lat="42.3384270" lon="-4.6045930">
        <ele>839.0</ele>
        <time>2021-10-02T07:16:07Z</time>
      </trkpt>
      <trkpt lat="42.3384880" lon="-4.6047010">
        <ele>839.2</ele>
        <time>2021-10-02T07:16:10Z</time>
      </trkpt>
      <trkpt lat="42.3385250" lon="-4.6047930">
        <ele>839.2</ele>
        <time>2021-10-02T07:16:12Z</time>
      </trkpt>
      <trkpt lat="42.3385900" lon="-4.6049490">
        <ele>839.6</ele>
        <time>2021-10-02T07:16:15Z</time>
      </trkpt>
      <trkpt lat="42.3386120" lon="-4.6050060">
        <ele>839.8</ele>
        <time>2021-10-02T07:16:16Z</time>
      </trkpt>
      <trkpt lat="42.3386870" lon="-4.6052370">
        <ele>840.0</ele>
        <time>2021-10-02T07:16:20Z</time>
      </trkpt>
      <trkpt lat="42.3387620" lon="-4.6054980">
        <ele>840.0</ele>
        <time>2021-10-02T07:16:24Z</time>
      </trkpt>
      <trkpt lat="42.3388000" lon="-4.6056460">
        <ele>840.0</ele>
        <time>2021-10-02T07:16:26Z</time>
      </trkpt>
      <trkpt lat="42.3388930" lon="-4.6059410">
        <ele>839.6</ele>
        <time>2021-10-02T07:16:30Z</time>
      </trkpt>
      <trkpt lat="42.3389640" lon="-4.6060690">
        <ele>838.8</ele>
        <time>2021-10-02T07:16:32Z</time>
      </trkpt>
      <trkpt lat="42.3390090" lon="-4.6061270">
        <ele>838.4</ele>
        <time>2021-10-02T07:16:33Z</time>
      </trkpt>
      <trkpt lat="42.3390570" lon="-4.6061870">
        <ele>838.2</ele>
        <time>2021-10-02T07:16:34Z</time>
      </trkpt>
      <trkpt lat="42.3391080" lon="-4.6062490">
        <ele>838.2</ele>
        <time>2021-10-02T07:16:35Z</time>
      </trkpt>
      <trkpt lat="42.3391650" lon="-4.6063040">
        <ele>837.8</ele>
        <time>2021-10-02T07:16:36Z</time>
      </trkpt>
      <trkpt lat="42.3393580" lon="-4.6064310">
        <ele>837.4</ele>
        <time>2021-10-02T07:16:39Z</time>
      </trkpt>
      <trkpt lat="42.3394750" lon="-4.6064960">
        <ele>836.6</ele>
        <time>2021-10-02T07:16:41Z</time>
      </trkpt>
      <trkpt lat="42.3395250" lon="-4.6065220">
        <ele>836.2</ele>
        <time>2021-10-02T07:16:42Z</time>
      </trkpt>
      <trkpt lat="42.3396070" lon="-4.6065780">
        <ele>835.4</ele>
        <time>2021-10-02T07:16:44Z</time>
      </trkpt>
      <trkpt lat="42.3396700" lon="-4.6066740">
        <ele>835.0</ele>
        <time>2021-10-02T07:16:46Z</time>
      </trkpt>
      <trkpt lat="42.3396980" lon="-4.6068080">
        <ele>834.8</ele>
        <time>2021-10-02T07:16:48Z</time>
      </trkpt>
      <trkpt lat="42.3396940" lon="-4.6069630">
        <ele>834.6</ele>
        <time>2021-10-02T07:16:50Z</time>
      </trkpt>
      <trkpt lat="42.3396770" lon="-4.6072300">
        <ele>834.0</ele>
        <time>2021-10-02T07:16:53Z</time>
      </trkpt>
      <trkpt lat="42.3396590" lon="-4.6075210">
        <ele>833.8</ele>
        <time>2021-10-02T07:16:56Z</time>
      </trkpt>
      <trkpt lat="42.3396530" lon="-4.6076220">
        <ele>833.8</ele>
        <time>2021-10-02T07:16:57Z</time>
      </trkpt>
      <trkpt lat="42.3396480" lon="-4.6077250">
        <ele>833.4</ele>
        <time>2021-10-02T07:16:58Z</time>
      </trkpt>
      <trkpt lat="42.3396420" lon="-4.6078280">
        <ele>833.0</ele>
        <time>2021-10-02T07:16:59Z</time>
      </trkpt>
      <trkpt lat="42.3396320" lon="-4.6080290">
        <ele>831.6</ele>
        <time>2021-10-02T07:17:01Z</time>
      </trkpt>
      <trkpt lat="42.3396290" lon="-4.6082220">
        <ele>830.6</ele>
        <time>2021-10-02T07:17:03Z</time>
      </trkpt>
      <trkpt lat="42.3396650" lon="-4.6084090">
        <ele>829.4</ele>
        <time>2021-10-02T07:17:05Z</time>
      </trkpt>
      <trkpt lat="42.3397800" lon="-4.6086680">
        <ele>828.2</ele>
        <time>2021-10-02T07:17:08Z</time>
      </trkpt>
      <trkpt lat="42.3398690" lon="-4.6088240">
        <ele>827.2</ele>
        <time>2021-10-02T07:17:10Z</time>
      </trkpt>
      <trkpt lat="42.3399980" lon="-4.6090540">
        <ele>825.8</ele>
        <time>2021-10-02T07:17:13Z</time>
      </trkpt>
      <trkpt lat="42.3400790" lon="-4.6092040">
        <ele>825.2</ele>
        <time>2021-10-02T07:17:15Z</time>
      </trkpt>
      <trkpt lat="42.3402030" lon="-4.6094170">
        <ele>824.8</ele>
        <time>2021-10-02T07:17:18Z</time>
      </trkpt>
      <trkpt lat="42.3403280" lon="-4.6096270">
        <ele>824.8</ele>
        <time>2021-10-02T07:17:21Z</time>
      </trkpt>
      <trkpt lat="42.3404090" lon="-4.6097670">
        <ele>824.8</ele>
        <time>2021-10-02T07:17:23Z</time>
      </trkpt>
      <trkpt lat="42.3404890" lon="-4.6099060">
        <ele>824.8</ele>
        <time>2021-10-02T07:17:25Z</time>
      </trkpt>
      <trkpt lat="42.3406760" lon="-4.6102650">
        <ele>825.0</ele>
        <time>2021-10-02T07:17:30Z</time>
      </trkpt>
      <trkpt lat="42.3407280" lon="-4.6104270">
        <ele>825.0</ele>
        <time>2021-10-02T07:17:32Z</time>
      </trkpt>
      <trkpt lat="42.3407650" lon="-4.6106860">
        <ele>825.4</ele>
        <time>2021-10-02T07:17:35Z</time>
      </trkpt>
      <trkpt lat="42.3407690" lon="-4.6107730">
        <ele>825.4</ele>
        <time>2021-10-02T07:17:36Z</time>
      </trkpt>
      <trkpt lat="42.3407630" lon="-4.6111210">
        <ele>825.6</ele>
        <time>2021-10-02T07:17:40Z</time>
      </trkpt>
      <trkpt lat="42.3407460" lon="-4.6116290">
        <ele>825.8</ele>
        <time>2021-10-02T07:17:46Z</time>
      </trkpt>
      <trkpt lat="42.3407570" lon="-4.6123860">
        <ele>826.8</ele>
        <time>2021-10-02T07:17:55Z</time>
      </trkpt>
      <trkpt lat="42.3407660" lon="-4.6125560">
        <ele>827.0</ele>
        <time>2021-10-02T07:17:57Z</time>
      </trkpt>
      <trkpt lat="42.3408110" lon="-4.6129750">
        <ele>827.2</ele>
        <time>2021-10-02T07:18:02Z</time>
      </trkpt>
      <trkpt lat="42.3409390" lon="-4.6134600">
        <ele>827.2</ele>
        <time>2021-10-02T07:18:08Z</time>
      </trkpt>
      <trkpt lat="42.3408980" lon="-4.6139800">
        <ele>827.0</ele>
        <time>2021-10-02T07:18:14Z</time>
      </trkpt>
      <trkpt lat="42.3409100" lon="-4.6143410">
        <ele>826.8</ele>
        <time>2021-10-02T07:18:18Z</time>
      </trkpt>
      <trkpt lat="42.3409820" lon="-4.6151530">
        <ele>826.6</ele>
        <time>2021-10-02T07:18:27Z</time>
      </trkpt>
      <trkpt lat="42.3410240" lon="-4.6158920">
        <ele>826.8</ele>
        <time>2021-10-02T07:18:35Z</time>
      </trkpt>
      <trkpt lat="42.3410580" lon="-4.6166450">
        <ele>826.8</ele>
        <time>2021-10-02T07:18:43Z</time>
      </trkpt>
      <trkpt lat="42.3410920" lon="-4.6173930">
        <ele>826.6</ele>
        <time>2021-10-02T07:18:51Z</time>
      </trkpt>
      <trkpt lat="42.3411290" lon="-4.6181550">
        <ele>826.2</ele>
        <time>2021-10-02T07:18:59Z</time>
      </trkpt>
      <trkpt lat="42.3411630" lon="-4.6189260">
        <ele>826.2</ele>
        <time>2021-10-02T07:19:07Z</time>
      </trkpt>
      <trkpt lat="42.3412240" lon="-4.6196860">
        <ele>826.2</ele>
        <time>2021-10-02T07:19:15Z</time>
      </trkpt>
      <trkpt lat="42.3413030" lon="-4.6204360">
        <ele>826.2</ele>
        <time>2021-10-02T07:19:23Z</time>
      </trkpt>
      <trkpt lat="42.3413540" lon="-4.6209920">
        <ele>826.4</ele>
        <time>2021-10-02T07:19:29Z</time>
      </trkpt>
      <trkpt lat="42.3412880" lon="-4.6217090">
        <ele>826.4</ele>
        <time>2021-10-02T07:19:37Z</time>
      </trkpt>
      <trkpt lat="42.3413780" lon="-4.6219920">
        <ele>826.4</ele>
        <time>2021-10-02T07:19:41Z</time>
      </trkpt>
      <trkpt lat="42.3414650" lon="-4.6222880">
        <ele>826.8</ele>
        <time>2021-10-02T07:19:45Z</time>
      </trkpt>
      <trkpt lat="42.3415070" lon="-4.6228160">
        <ele>827.0</ele>
        <time>2021-10-02T07:19:51Z</time>
      </trkpt>
      <trkpt lat="42.3415610" lon="-4.6235680">
        <ele>826.8</ele>
        <time>2021-10-02T07:19:59Z</time>
      </trkpt>
      <trkpt lat="42.3416190" lon="-4.6243340">
        <ele>826.6</ele>
        <time>2021-10-02T07:20:07Z</time>
      </trkpt>
      <trkpt lat="42.3416750" lon="-4.6250980">
        <ele>827.0</ele>
        <time>2021-10-02T07:20:15Z</time>
      </trkpt>
      <trkpt lat="42.3417430" lon="-4.6258720">
        <ele>827.2</ele>
        <time>2021-10-02T07:20:23Z</time>
      </trkpt>
      <trkpt lat="42.3418140" lon="-4.6266250">
        <ele>827.4</ele>
        <time>2021-10-02T07:20:31Z</time>
      </trkpt>
      <trkpt lat="42.3418960" lon="-4.6273770">
        <ele>827.6</ele>
        <time>2021-10-02T07:20:39Z</time>
      </trkpt>
      <trkpt lat="42.3419880" lon="-4.6281370">
        <ele>827.6</ele>
        <time>2021-10-02T07:20:47Z</time>
      </trkpt>
      <trkpt lat="42.3420740" lon="-4.6289020">
        <ele>827.8</ele>
        <time>2021-10-02T07:20:55Z</time>
      </trkpt>
      <trkpt lat="42.3420910" lon="-4.6290940">
        <ele>827.8</ele>
        <time>2021-10-02T07:20:57Z</time>
      </trkpt>
      <trkpt lat="42.3421600" lon="-4.6298550">
        <ele>827.8</ele>
        <time>2021-10-02T07:21:05Z</time>
      </trkpt>
      <trkpt lat="42.3422210" lon="-4.6306040">
        <ele>828.0</ele>
        <time>2021-10-02T07:21:13Z</time>
      </trkpt>
      <trkpt lat="42.3422290" lon="-4.6306980">
        <ele>828.2</ele>
        <time>2021-10-02T07:21:14Z</time>
      </trkpt>
      <trkpt lat="42.3422840" lon="-4.6314760">
        <ele>828.2</ele>
        <time>2021-10-02T07:21:22Z</time>
      </trkpt>
      <trkpt lat="42.3423240" lon="-4.6322460">
        <ele>828.0</ele>
        <time>2021-10-02T07:21:30Z</time>
      </trkpt>
      <trkpt lat="42.3424120" lon="-4.6330150">
        <ele>827.8</ele>
        <time>2021-10-02T07:21:38Z</time>
      </trkpt>
      <trkpt lat="42.3424840" lon="-4.6338210">
        <ele>827.6</ele>
        <time>2021-10-02T07:21:46Z</time>
      </trkpt>
      <trkpt lat="42.3425530" lon="-4.6345440">
        <ele>827.4</ele>
        <time>2021-10-02T07:21:53Z</time>
      </trkpt>
      <trkpt lat="42.3426270" lon="-4.6353610">
        <ele>827.4</ele>
        <time>2021-10-02T07:22:01Z</time>
      </trkpt>
      <trkpt lat="42.3427050" lon="-4.6361780">
        <ele>827.4</ele>
        <time>2021-10-02T07:22:09Z</time>
      </trkpt>
      <trkpt lat="42.3427820" lon="-4.6369640">
        <ele>827.6</ele>
        <time>2021-10-02T07:22:17Z</time>
      </trkpt>
      <trkpt lat="42.3428480" lon="-4.6377510">
        <ele>828.2</ele>
        <time>2021-10-02T07:22:25Z</time>
      </trkpt>
      <trkpt lat="42.3429090" lon="-4.6385130">
        <ele>828.6</ele>
        <time>2021-10-02T07:22:33Z</time>
      </trkpt>
      <trkpt lat="42.3429700" lon="-4.6392930">
        <ele>829.0</ele>
        <time>2021-10-02T07:22:41Z</time>
      </trkpt>
      <trkpt lat="42.3430280" lon="-4.6400710">
        <ele>829.0</ele>
        <time>2021-10-02T07:22:49Z</time>
      </trkpt>
      <trkpt lat="42.3430870" lon="-4.6408570">
        <ele>829.0</ele>
        <time>2021-10-02T07:22:57Z</time>
      </trkpt>
      <trkpt lat="42.3431410" lon="-4.6415370">
        <ele>829.0</ele>
        <time>2021-10-02T07:23:04Z</time>
      </trkpt>
      <trkpt lat="42.3432010" lon="-4.6423060">
        <ele>829.0</ele>
        <time>2021-10-02T07:23:12Z</time>
      </trkpt>
      <trkpt lat="42.3432610" lon="-4.6430760">
        <ele>829.0</ele>
        <time>2021-10-02T07:23:20Z</time>
      </trkpt>
      <trkpt lat="42.3433170" lon="-4.6438510">
        <ele>828.8</ele>
        <time>2021-10-02T07:23:28Z</time>
      </trkpt>
      <trkpt lat="42.3433760" lon="-4.6446200">
        <ele>829.0</ele>
        <time>2021-10-02T07:23:36Z</time>
      </trkpt>
      <trkpt lat="42.3434160" lon="-4.6452000">
        <ele>829.4</ele>
        <time>2021-10-02T07:23:42Z</time>
      </trkpt>
      <trkpt lat="42.3434720" lon="-4.6459680">
        <ele>829.6</ele>
        <time>2021-10-02T07:23:50Z</time>
      </trkpt>
      <trkpt lat="42.3435270" lon="-4.6467280">
        <ele>829.8</ele>
        <time>2021-10-02T07:23:58Z</time>
      </trkpt>
      <trkpt lat="42.3435700" lon="-4.6474820">
        <ele>829.8</ele>
        <time>2021-10-02T07:24:06Z</time>
      </trkpt>
      <trkpt lat="42.3436090" lon="-4.6482850">
        <ele>830.2</ele>
        <time>2021-10-02T07:24:15Z</time>
      </trkpt>
      <trkpt lat="42.3436480" lon="-4.6488810">
        <ele>830.4</ele>
        <time>2021-10-02T07:24:22Z</time>
      </trkpt>
      <trkpt lat="42.3436560" lon="-4.6489670">
        <ele>830.4</ele>
        <time>2021-10-02T07:24:23Z</time>
      </trkpt>
      <trkpt lat="42.3437390" lon="-4.6497540">
        <ele>830.4</ele>
        <time>2021-10-02T07:24:32Z</time>
      </trkpt>
      <trkpt lat="42.3437950" lon="-4.6504790">
        <ele>830.4</ele>
        <time>2021-10-02T07:24:40Z</time>
      </trkpt>
      <trkpt lat="42.3438130" lon="-4.6507540">
        <ele>830.4</ele>
        <time>2021-10-02T07:24:43Z</time>
      </trkpt>
      <trkpt lat="42.3438800" lon="-4.6514810">
        <ele>830.4</ele>
        <time>2021-10-02T07:24:51Z</time>
      </trkpt>
      <trkpt lat="42.3439760" lon="-4.6522730">
        <ele>830.6</ele>
        <time>2021-10-02T07:25:00Z</time>
      </trkpt>
      <trkpt lat="42.3440910" lon="-4.6530620">
        <ele>830.8</ele>
        <time>2021-10-02T07:25:09Z</time>
      </trkpt>
      <trkpt lat="42.3442560" lon="-4.6538000">
        <ele>830.8</ele>
        <time>2021-10-02T07:25:17Z</time>
      </trkpt>
      <trkpt lat="42.3444400" lon="-4.6545380">
        <ele>830.6</ele>
        <time>2021-10-02T07:25:25Z</time>
      </trkpt>
      <trkpt lat="42.3446300" lon="-4.6552940">
        <ele>830.6</ele>
        <time>2021-10-02T07:25:33Z</time>
      </trkpt>
      <trkpt lat="42.3448290" lon="-4.6560710">
        <ele>830.6</ele>
        <time>2021-10-02T07:25:41Z</time>
      </trkpt>
      <trkpt lat="42.3450270" lon="-4.6568520">
        <ele>830.6</ele>
        <time>2021-10-02T07:25:49Z</time>
      </trkpt>
      <trkpt lat="42.3450650" lon="-4.6570490">
        <ele>830.6</ele>
        <time>2021-10-02T07:25:51Z</time>
      </trkpt>
      <trkpt lat="42.3451190" lon="-4.6578410">
        <ele>830.8</ele>
        <time>2021-10-02T07:25:59Z</time>
      </trkpt>
      <trkpt lat="42.3449930" lon="-4.6585530">
        <ele>831.4</ele>
        <time>2021-10-02T07:26:07Z</time>
      </trkpt>
      <trkpt lat="42.3449640" lon="-4.6586330">
        <ele>831.4</ele>
        <time>2021-10-02T07:26:08Z</time>
      </trkpt>
      <trkpt lat="42.3447650" lon="-4.6590980">
        <ele>832.6</ele>
        <time>2021-10-02T07:26:14Z</time>
      </trkpt>
      <trkpt lat="42.3445820" lon="-4.6594690">
        <ele>833.2</ele>
        <time>2021-10-02T07:26:19Z</time>
      </trkpt>
      <trkpt lat="42.3445110" lon="-4.6596150">
        <ele>833.8</ele>
        <time>2021-10-02T07:26:21Z</time>
      </trkpt>
      <trkpt lat="42.3443160" lon="-4.6603250">
        <ele>834.0</ele>
        <time>2021-10-02T07:26:29Z</time>
      </trkpt>
      <trkpt lat="42.3442760" lon="-4.6610270">
        <ele>832.8</ele>
        <time>2021-10-02T07:26:36Z</time>
      </trkpt>
      <trkpt lat="42.3442670" lon="-4.6617980">
        <ele>832.6</ele>
        <time>2021-10-02T07:26:44Z</time>
      </trkpt>
      <trkpt lat="42.3442470" lon="-4.6625720">
        <ele>833.2</ele>
        <time>2021-10-02T07:26:52Z</time>
      </trkpt>
      <trkpt lat="42.3442280" lon="-4.6633380">
        <ele>833.4</ele>
        <time>2021-10-02T07:27:00Z</time>
      </trkpt>
      <trkpt lat="42.3442070" lon="-4.6640880">
        <ele>833.6</ele>
        <time>2021-10-02T07:27:08Z</time>
      </trkpt>
      <trkpt lat="42.3442010" lon="-4.6642710">
        <ele>833.8</ele>
        <time>2021-10-02T07:27:10Z</time>
      </trkpt>
      <trkpt lat="42.3441770" lon="-4.6650630">
        <ele>834.2</ele>
        <time>2021-10-02T07:27:19Z</time>
      </trkpt>
      <trkpt lat="42.3441830" lon="-4.6654020">
        <ele>834.8</ele>
        <time>2021-10-02T07:27:23Z</time>
      </trkpt>
      <trkpt lat="42.3442020" lon="-4.6658090">
        <ele>835.0</ele>
        <time>2021-10-02T07:27:28Z</time>
      </trkpt>
      <trkpt lat="42.3441600" lon="-4.6665790">
        <ele>835.2</ele>
        <time>2021-10-02T07:27:37Z</time>
      </trkpt>
      <trkpt lat="42.3441540" lon="-4.6666680">
        <ele>835.2</ele>
        <time>2021-10-02T07:27:38Z</time>
      </trkpt>
      <trkpt lat="42.3441220" lon="-4.6670270">
        <ele>835.2</ele>
        <time>2021-10-02T07:27:42Z</time>
      </trkpt>
      <trkpt lat="42.3440620" lon="-4.6678280">
        <ele>835.0</ele>
        <time>2021-10-02T07:27:51Z</time>
      </trkpt>
      <trkpt lat="42.3440080" lon="-4.6685690">
        <ele>835.2</ele>
        <time>2021-10-02T07:27:59Z</time>
      </trkpt>
      <trkpt lat="42.3439900" lon="-4.6688490">
        <ele>835.2</ele>
        <time>2021-10-02T07:28:02Z</time>
      </trkpt>
      <trkpt lat="42.3439730" lon="-4.6691240">
        <ele>835.4</ele>
        <time>2021-10-02T07:28:05Z</time>
      </trkpt>
      <trkpt lat="42.3439510" lon="-4.6695560">
        <ele>835.4</ele>
        <time>2021-10-02T07:28:10Z</time>
      </trkpt>
      <trkpt lat="42.3439180" lon="-4.6698330">
        <ele>835.6</ele>
        <time>2021-10-02T07:28:14Z</time>
      </trkpt>
      <trkpt lat="42.3439150" lon="-4.6698980">
        <ele>835.6</ele>
        <time>2021-10-02T07:28:15Z</time>
      </trkpt>
      <trkpt lat="42.3439090" lon="-4.6700410">
        <ele>836.0</ele>
        <time>2021-10-02T07:28:17Z</time>
      </trkpt>
      <trkpt lat="42.3438890" lon="-4.6702040">
        <ele>836.0</ele>
        <time>2021-10-02T07:28:19Z</time>
      </trkpt>
      <trkpt lat="42.3438600" lon="-4.6705770">
        <ele>836.2</ele>
        <time>2021-10-02T07:28:23Z</time>
      </trkpt>
      <trkpt lat="42.3438410" lon="-4.6708570">
        <ele>836.2</ele>
        <time>2021-10-02T07:28:26Z</time>
      </trkpt>
      <trkpt lat="42.3437980" lon="-4.6713210">
        <ele>836.0</ele>
        <time>2021-10-02T07:28:31Z</time>
      </trkpt>
      <trkpt lat="42.3437250" lon="-4.6720650">
        <ele>835.8</ele>
        <time>2021-10-02T07:28:39Z</time>
      </trkpt>
      <trkpt lat="42.3436750" lon="-4.6727570">
        <ele>835.8</ele>
        <time>2021-10-02T07:28:47Z</time>
      </trkpt>
      <trkpt lat="42.3436080" lon="-4.6735240">
        <ele>836.0</ele>
        <time>2021-10-02T07:28:56Z</time>
      </trkpt>
      <trkpt lat="42.3435700" lon="-4.6739020">
        <ele>836.0</ele>
        <time>2021-10-02T07:29:00Z</time>
      </trkpt>
      <trkpt lat="42.3434760" lon="-4.6746370">
        <ele>836.0</ele>
        <time>2021-10-02T07:29:08Z</time>
      </trkpt>
      <trkpt lat="42.3434270" lon="-4.6753250">
        <ele>836.2</ele>
        <time>2021-10-02T07:29:16Z</time>
      </trkpt>
      <trkpt lat="42.3434090" lon="-4.6755270">
        <ele>836.4</ele>
        <time>2021-10-02T07:29:19Z</time>
      </trkpt>
      <trkpt lat="42.3433810" lon="-4.6757150">
        <ele>836.8</ele>
        <time>2021-10-02T07:29:22Z</time>
      </trkpt>
      <trkpt lat="42.3433750" lon="-4.6757830">
        <ele>837.2</ele>
        <time>2021-10-02T07:29:23Z</time>
      </trkpt>
      <trkpt lat="42.3433430" lon="-4.6762050">
        <ele>837.4</ele>
        <time>2021-10-02T07:29:28Z</time>
      </trkpt>
      <trkpt lat="42.3432920" lon="-4.6767230">
        <ele>837.2</ele>
        <time>2021-10-02T07:29:34Z</time>
      </trkpt>
      <trkpt lat="42.3432800" lon="-4.6768930">
        <ele>837.2</ele>
        <time>2021-10-02T07:29:36Z</time>
      </trkpt>
      <trkpt lat="42.3431990" lon="-4.6776650">
        <ele>837.0</ele>
        <time>2021-10-02T07:29:45Z</time>
      </trkpt>
      <trkpt lat="42.3431280" lon="-4.6784470">
        <ele>837.0</ele>
        <time>2021-10-02T07:29:54Z</time>
      </trkpt>
      <trkpt lat="42.3430570" lon="-4.6792400">
        <ele>837.2</ele>
        <time>2021-10-02T07:30:03Z</time>
      </trkpt>
      <trkpt lat="42.3429780" lon="-4.6799630">
        <ele>837.4</ele>
        <time>2021-10-02T07:30:11Z</time>
      </trkpt>
      <trkpt lat="42.3429020" lon="-4.6807750">
        <ele>837.2</ele>
        <time>2021-10-02T07:30:20Z</time>
      </trkpt>
      <trkpt lat="42.3428910" lon="-4.6809600">
        <ele>837.2</ele>
        <time>2021-10-02T07:30:22Z</time>
      </trkpt>
      <trkpt lat="42.3428190" lon="-4.6815370">
        <ele>836.8</ele>
        <time>2021-10-02T07:30:28Z</time>
      </trkpt>
      <trkpt lat="42.3427430" lon="-4.6823020">
        <ele>836.8</ele>
        <time>2021-10-02T07:30:36Z</time>
      </trkpt>
      <trkpt lat="42.3426400" lon="-4.6830450">
        <ele>836.8</ele>
        <time>2021-10-02T07:30:44Z</time>
      </trkpt>
      <trkpt lat="42.3425630" lon="-4.6837820">
        <ele>837.0</ele>
        <time>2021-10-02T07:30:52Z</time>
      </trkpt>
      <trkpt lat="42.3424650" lon="-4.6845750">
        <ele>837.0</ele>
        <time>2021-10-02T07:31:01Z</time>
      </trkpt>
      <trkpt lat="42.3424380" lon="-4.6847470">
        <ele>837.0</ele>
        <time>2021-10-02T07:31:03Z</time>
      </trkpt>
      <trkpt lat="42.3424240" lon="-4.6849990">
        <ele>837.0</ele>
        <time>2021-10-02T07:31:06Z</time>
      </trkpt>
      <trkpt lat="42.3423920" lon="-4.6852390">
        <ele>837.2</ele>
        <time>2021-10-02T07:31:09Z</time>
      </trkpt>
      <trkpt lat="42.3423600" lon="-4.6855210">
        <ele>837.6</ele>
        <time>2021-10-02T07:31:13Z</time>
      </trkpt>
      <trkpt lat="42.3423450" lon="-4.6856960">
        <ele>837.8</ele>
        <time>2021-10-02T07:31:16Z</time>
      </trkpt>
      <trkpt lat="42.3423430" lon="-4.6858280">
        <ele>838.0</ele>
        <time>2021-10-02T07:31:18Z</time>
      </trkpt>
      <trkpt lat="42.3423370" lon="-4.6859030">
        <ele>838.2</ele>
        <time>2021-10-02T07:31:19Z</time>
      </trkpt>
      <trkpt lat="42.3422990" lon="-4.6862590">
        <ele>838.4</ele>
        <time>2021-10-02T07:31:23Z</time>
      </trkpt>
      <trkpt lat="42.3422490" lon="-4.6866350">
        <ele>838.4</ele>
        <time>2021-10-02T07:31:27Z</time>
      </trkpt>
      <trkpt lat="42.3421640" lon="-4.6873840">
        <ele>837.6</ele>
        <time>2021-10-02T07:31:35Z</time>
      </trkpt>
      <trkpt lat="42.3421150" lon="-4.6878320">
        <ele>837.6</ele>
        <time>2021-10-02T07:31:40Z</time>
      </trkpt>
      <trkpt lat="42.3420210" lon="-4.6886130">
        <ele>837.6</ele>
        <time>2021-10-02T07:31:49Z</time>
      </trkpt>
      <trkpt lat="42.3419650" lon="-4.6891930">
        <ele>838.2</ele>
        <time>2021-10-02T07:31:56Z</time>
      </trkpt>
      <trkpt lat="42.3419440" lon="-4.6894180">
        <ele>838.4</ele>
        <time>2021-10-02T07:31:59Z</time>
      </trkpt>
      <trkpt lat="42.3418780" lon="-4.6901600">
        <ele>838.6</ele>
        <time>2021-10-02T07:32:08Z</time>
      </trkpt>
      <trkpt lat="42.3417920" lon="-4.6909330">
        <ele>838.6</ele>
        <time>2021-10-02T07:32:17Z</time>
      </trkpt>
      <trkpt lat="42.3417080" lon="-4.6917020">
        <ele>838.6</ele>
        <time>2021-10-02T07:32:26Z</time>
      </trkpt>
      <trkpt lat="42.3416180" lon="-4.6924690">
        <ele>838.6</ele>
        <time>2021-10-02T07:32:35Z</time>
      </trkpt>
      <trkpt lat="42.3415280" lon="-4.6930360">
        <ele>839.0</ele>
        <time>2021-10-02T07:32:42Z</time>
      </trkpt>
      <trkpt lat="42.3414950" lon="-4.6933930">
        <ele>839.2</ele>
        <time>2021-10-02T07:32:47Z</time>
      </trkpt>
      <trkpt lat="42.3414630" lon="-4.6937360">
        <ele>839.4</ele>
        <time>2021-10-02T07:32:51Z</time>
      </trkpt>
      <trkpt lat="42.3414360" lon="-4.6939900">
        <ele>839.4</ele>
        <time>2021-10-02T07:32:54Z</time>
      </trkpt>
      <trkpt lat="42.3413980" lon="-4.6942400">
        <ele>839.6</ele>
        <time>2021-10-02T07:32:57Z</time>
      </trkpt>
      <trkpt lat="42.3412910" lon="-4.6950090">
        <ele>839.6</ele>
        <time>2021-10-02T07:33:06Z</time>
      </trkpt>
      <trkpt lat="42.3411960" lon="-4.6957870">
        <ele>839.8</ele>
        <time>2021-10-02T07:33:15Z</time>
      </trkpt>
      <trkpt lat="42.3411190" lon="-4.6965590">
        <ele>840.0</ele>
        <time>2021-10-02T07:33:24Z</time>
      </trkpt>
      <trkpt lat="42.3410120" lon="-4.6972910">
        <ele>840.2</ele>
        <time>2021-10-02T07:33:33Z</time>
      </trkpt>
      <trkpt lat="42.3409940" lon="-4.6974400">
        <ele>840.2</ele>
        <time>2021-10-02T07:33:35Z</time>
      </trkpt>
      <trkpt lat="42.3409690" lon="-4.6976590">
        <ele>840.4</ele>
        <time>2021-10-02T07:33:38Z</time>
      </trkpt>
      <trkpt lat="42.3408700" lon="-4.6983770">
        <ele>841.0</ele>
        <time>2021-10-02T07:33:47Z</time>
      </trkpt>
      <trkpt lat="42.3408040" lon="-4.6988180">
        <ele>841.0</ele>
        <time>2021-10-02T07:33:52Z</time>
      </trkpt>
      <trkpt lat="42.3407460" lon="-4.6992560">
        <ele>840.8</ele>
        <time>2021-10-02T07:33:57Z</time>
      </trkpt>
      <trkpt lat="42.3406540" lon="-4.7000410">
        <ele>840.8</ele>
        <time>2021-10-02T07:34:06Z</time>
      </trkpt>
      <trkpt lat="42.3405630" lon="-4.7008140">
        <ele>841.2</ele>
        <time>2021-10-02T07:34:15Z</time>
      </trkpt>
      <trkpt lat="42.3404790" lon="-4.7014720">
        <ele>841.2</ele>
        <time>2021-10-02T07:34:23Z</time>
      </trkpt>
      <trkpt lat="42.3403920" lon="-4.7021020">
        <ele>841.6</ele>
        <time>2021-10-02T07:34:31Z</time>
      </trkpt>
      <trkpt lat="42.3403040" lon="-4.7028740">
        <ele>842.0</ele>
        <time>2021-10-02T07:34:41Z</time>
      </trkpt>
      <trkpt lat="42.3402530" lon="-4.7032990">
        <ele>842.2</ele>
        <time>2021-10-02T07:34:47Z</time>
      </trkpt>
      <trkpt lat="42.3402260" lon="-4.7035560">
        <ele>842.6</ele>
        <time>2021-10-02T07:34:51Z</time>
      </trkpt>
      <trkpt lat="42.3401950" lon="-4.7037820">
        <ele>843.0</ele>
        <time>2021-10-02T07:34:55Z</time>
      </trkpt>
      <trkpt lat="42.3401890" lon="-4.7038380">
        <ele>843.2</ele>
        <time>2021-10-02T07:34:56Z</time>
      </trkpt>
      <trkpt lat="42.3401790" lon="-4.7038930">
        <ele>843.4</ele>
        <time>2021-10-02T07:34:57Z</time>
      </trkpt>
      <trkpt lat="42.3400580" lon="-4.7046050">
        <ele>843.6</ele>
        <time>2021-10-02T07:35:08Z</time>
      </trkpt>
      <trkpt lat="42.3399860" lon="-4.7051280">
        <ele>843.2</ele>
        <time>2021-10-02T07:35:15Z</time>
      </trkpt>
      <trkpt lat="42.3399670" lon="-4.7052750">
        <ele>843.0</ele>
        <time>2021-10-02T07:35:17Z</time>
      </trkpt>
      <trkpt lat="42.3398680" lon="-4.7060150">
        <ele>843.2</ele>
        <time>2021-10-02T07:35:27Z</time>
      </trkpt>
      <trkpt lat="42.3397680" lon="-4.7067550">
        <ele>843.6</ele>
        <time>2021-10-02T07:35:37Z</time>
      </trkpt>
      <trkpt lat="42.3396980" lon="-4.7072950">
        <ele>844.0</ele>
        <time>2021-10-02T07:35:45Z</time>
      </trkpt>
      <trkpt lat="42.3396250" lon="-4.7077830">
        <ele>844.4</ele>
        <time>2021-10-02T07:35:52Z</time>
      </trkpt>
      <trkpt lat="42.3395690" lon="-4.7081590">
        <ele>844.4</ele>
        <time>2021-10-02T07:35:57Z</time>
      </trkpt>
      <trkpt lat="42.3394840" lon="-4.7087700">
        <ele>844.4</ele>
        <time>2021-10-02T07:36:05Z</time>
      </trkpt>
      <trkpt lat="42.3393880" lon="-4.7095360">
        <ele>844.4</ele>
        <time>2021-10-02T07:36:15Z</time>
      </trkpt>
      <trkpt lat="42.3392810" lon="-4.7103170">
        <ele>844.4</ele>
        <time>2021-10-02T07:36:25Z</time>
      </trkpt>
      <trkpt lat="42.3391730" lon="-4.7110930">
        <ele>844.2</ele>
        <time>2021-10-02T07:36:35Z</time>
      </trkpt>
      <trkpt lat="42.3390680" lon="-4.7118080">
        <ele>844.2</ele>
        <time>2021-10-02T07:36:44Z</time>
      </trkpt>
      <trkpt lat="42.3389650" lon="-4.7125350">
        <ele>844.2</ele>
        <time>2021-10-02T07:36:53Z</time>
      </trkpt>
      <trkpt lat="42.3388880" lon="-4.7130820">
        <ele>844.4</ele>
        <time>2021-10-02T07:37:00Z</time>
      </trkpt>
      <trkpt lat="42.3387560" lon="-4.7138360">
        <ele>844.6</ele>
        <time>2021-10-02T07:37:10Z</time>
      </trkpt>
      <trkpt lat="42.3386660" lon="-4.7146210">
        <ele>844.8</ele>
        <time>2021-10-02T07:37:20Z</time>
      </trkpt>
      <trkpt lat="42.3385530" lon="-4.7153760">
        <ele>845.0</ele>
        <time>2021-10-02T07:37:30Z</time>
      </trkpt>
      <trkpt lat="42.3384830" lon="-4.7158810">
        <ele>845.0</ele>
        <time>2021-10-02T07:37:37Z</time>
      </trkpt>
      <trkpt lat="42.3384480" lon="-4.7161590">
        <ele>845.2</ele>
        <time>2021-10-02T07:37:41Z</time>
      </trkpt>
      <trkpt lat="42.3383360" lon="-4.7168960">
        <ele>845.0</ele>
        <time>2021-10-02T07:37:51Z</time>
      </trkpt>
      <trkpt lat="42.3382470" lon="-4.7174960">
        <ele>844.8</ele>
        <time>2021-10-02T07:37:59Z</time>
      </trkpt>
      <trkpt lat="42.3381350" lon="-4.7182560">
        <ele>845.4</ele>
        <time>2021-10-02T07:38:09Z</time>
      </trkpt>
      <trkpt lat="42.3381220" lon="-4.7183320">
        <ele>845.4</ele>
        <time>2021-10-02T07:38:10Z</time>
      </trkpt>
      <trkpt lat="42.3380240" lon="-4.7191060">
        <ele>845.6</ele>
        <time>2021-10-02T07:38:20Z</time>
      </trkpt>
      <trkpt lat="42.3379910" lon="-4.7194020">
        <ele>845.6</ele>
        <time>2021-10-02T07:38:24Z</time>
      </trkpt>
      <trkpt lat="42.3379210" lon="-4.7197310">
        <ele>845.8</ele>
        <time>2021-10-02T07:38:29Z</time>
      </trkpt>
      <trkpt lat="42.3378830" lon="-4.7201010">
        <ele>845.8</ele>
        <time>2021-10-02T07:38:34Z</time>
      </trkpt>
      <trkpt lat="42.3378740" lon="-4.7201790">
        <ele>845.8</ele>
        <time>2021-10-02T07:38:35Z</time>
      </trkpt>
      <trkpt lat="42.3378420" lon="-4.7204090">
        <ele>845.8</ele>
        <time>2021-10-02T07:38:38Z</time>
      </trkpt>
      <trkpt lat="42.3377370" lon="-4.7211650">
        <ele>846.0</ele>
        <time>2021-10-02T07:38:48Z</time>
      </trkpt>
      <trkpt lat="42.3377050" lon="-4.7213980">
        <ele>846.0</ele>
        <time>2021-10-02T07:38:51Z</time>
      </trkpt>
      <trkpt lat="42.3376070" lon="-4.7221150">
        <ele>846.0</ele>
        <time>2021-10-02T07:39:00Z</time>
      </trkpt>
      <trkpt lat="42.3374920" lon="-4.7228990">
        <ele>846.2</ele>
        <time>2021-10-02T07:39:10Z</time>
      </trkpt>
      <trkpt lat="42.3373850" lon="-4.7236530">
        <ele>846.2</ele>
        <time>2021-10-02T07:39:20Z</time>
      </trkpt>
      <trkpt lat="42.3373320" lon="-4.7241140">
        <ele>846.6</ele>
        <time>2021-10-02T07:39:26Z</time>
      </trkpt>
      <trkpt lat="42.3372180" lon="-4.7248960">
        <ele>847.2</ele>
        <time>2021-10-02T07:39:36Z</time>
      </trkpt>
      <trkpt lat="42.3371070" lon="-4.7256190">
        <ele>847.0</ele>
        <time>2021-10-02T07:39:45Z</time>
      </trkpt>
      <trkpt lat="42.3369960" lon="-4.7263160">
        <ele>846.4</ele>
        <time>2021-10-02T07:39:54Z</time>
      </trkpt>
      <trkpt lat="42.3368660" lon="-4.7270290">
        <ele>846.4</ele>
        <time>2021-10-02T07:40:03Z</time>
      </trkpt>
      <trkpt lat="42.3367770" lon="-4.7276550">
        <ele>846.2</ele>
        <time>2021-10-02T07:40:11Z</time>
      </trkpt>
      <trkpt lat="42.3367120" lon="-4.7280990">
        <ele>846.4</ele>
        <time>2021-10-02T07:40:17Z</time>
      </trkpt>
      <trkpt lat="42.3366000" lon="-4.7288540">
        <ele>846.8</ele>
        <time>2021-10-02T07:40:27Z</time>
      </trkpt>
      <trkpt lat="42.3364990" lon="-4.7296230">
        <ele>846.6</ele>
        <time>2021-10-02T07:40:37Z</time>
      </trkpt>
      <trkpt lat="42.3364260" lon="-4.7301540">
        <ele>846.8</ele>
        <time>2021-10-02T07:40:44Z</time>
      </trkpt>
      <trkpt lat="42.3363480" lon="-4.7306920">
        <ele>847.0</ele>
        <time>2021-10-02T07:40:51Z</time>
      </trkpt>
      <trkpt lat="42.3362560" lon="-4.7313000">
        <ele>847.4</ele>
        <time>2021-10-02T07:40:59Z</time>
      </trkpt>
      <trkpt lat="42.3361480" lon="-4.7320380">
        <ele>847.8</ele>
        <time>2021-10-02T07:41:09Z</time>
      </trkpt>
      <trkpt lat="42.3361210" lon="-4.7322650">
        <ele>848.4</ele>
        <time>2021-10-02T07:41:12Z</time>
      </trkpt>
      <trkpt lat="42.3360080" lon="-4.7330390">
        <ele>848.6</ele>
        <time>2021-10-02T07:41:22Z</time>
      </trkpt>
      <trkpt lat="42.3358880" lon="-4.7338050">
        <ele>848.0</ele>
        <time>2021-10-02T07:41:32Z</time>
      </trkpt>
      <trkpt lat="42.3357690" lon="-4.7345560">
        <ele>848.6</ele>
        <time>2021-10-02T07:41:42Z</time>
      </trkpt>
      <trkpt lat="42.3356940" lon="-4.7350100">
        <ele>849.0</ele>
        <time>2021-10-02T07:41:48Z</time>
      </trkpt>
      <trkpt lat="42.3356350" lon="-4.7353880">
        <ele>849.4</ele>
        <time>2021-10-02T07:41:53Z</time>
      </trkpt>
      <trkpt lat="42.3355100" lon="-4.7361260">
        <ele>850.0</ele>
        <time>2021-10-02T07:42:03Z</time>
      </trkpt>
      <trkpt lat="42.3353860" lon="-4.7368960">
        <ele>850.2</ele>
        <time>2021-10-02T07:42:13Z</time>
      </trkpt>
      <trkpt lat="42.3353730" lon="-4.7369730">
        <ele>850.4</ele>
        <time>2021-10-02T07:42:14Z</time>
      </trkpt>
      <trkpt lat="42.3352520" lon="-4.7377470">
        <ele>850.6</ele>
        <time>2021-10-02T07:42:24Z</time>
      </trkpt>
      <trkpt lat="42.3351330" lon="-4.7385110">
        <ele>850.8</ele>
        <time>2021-10-02T07:42:34Z</time>
      </trkpt>
      <trkpt lat="42.3350600" lon="-4.7388830">
        <ele>851.0</ele>
        <time>2021-10-02T07:42:39Z</time>
      </trkpt>
      <trkpt lat="42.3349290" lon="-4.7396270">
        <ele>850.8</ele>
        <time>2021-10-02T07:42:49Z</time>
      </trkpt>
      <trkpt lat="42.3348040" lon="-4.7403420">
        <ele>850.8</ele>
        <time>2021-10-02T07:42:59Z</time>
      </trkpt>
      <trkpt lat="42.3347100" lon="-4.7409250">
        <ele>851.2</ele>
        <time>2021-10-02T07:43:07Z</time>
      </trkpt>
      <trkpt lat="42.3346130" lon="-4.7417060">
        <ele>851.4</ele>
        <time>2021-10-02T07:43:17Z</time>
      </trkpt>
      <trkpt lat="42.3345000" lon="-4.7424190">
        <ele>851.2</ele>
        <time>2021-10-02T07:43:26Z</time>
      </trkpt>
      <trkpt lat="42.3343820" lon="-4.7431320">
        <ele>851.2</ele>
        <time>2021-10-02T07:43:35Z</time>
      </trkpt>
      <trkpt lat="42.3342530" lon="-4.7439020">
        <ele>851.2</ele>
        <time>2021-10-02T07:43:45Z</time>
      </trkpt>
      <trkpt lat="42.3341280" lon="-4.7446760">
        <ele>851.6</ele>
        <time>2021-10-02T07:43:55Z</time>
      </trkpt>
      <trkpt lat="42.3340110" lon="-4.7454150">
        <ele>851.6</ele>
        <time>2021-10-02T07:44:04Z</time>
      </trkpt>
      <trkpt lat="42.3338970" lon="-4.7461220">
        <ele>851.4</ele>
        <time>2021-10-02T07:44:13Z</time>
      </trkpt>
      <trkpt lat="42.3337740" lon="-4.7469030">
        <ele>851.8</ele>
        <time>2021-10-02T07:44:23Z</time>
      </trkpt>
      <trkpt lat="42.3336370" lon="-4.7476780">
        <ele>852.0</ele>
        <time>2021-10-02T07:44:33Z</time>
      </trkpt>
      <trkpt lat="42.3335170" lon="-4.7484520">
        <ele>851.4</ele>
        <time>2021-10-02T07:44:43Z</time>
      </trkpt>
      <trkpt lat="42.3334750" lon="-4.7487620">
        <ele>852.2</ele>
        <time>2021-10-02T07:44:47Z</time>
      </trkpt>
      <trkpt lat="42.3333860" lon="-4.7493590">
        <ele>853.2</ele>
        <time>2021-10-02T07:44:55Z</time>
      </trkpt>
      <trkpt lat="42.3332850" lon="-4.7501490">
        <ele>853.2</ele>
        <time>2021-10-02T07:45:05Z</time>
      </trkpt>
      <trkpt lat="42.3332340" lon="-4.7505430">
        <ele>852.2</ele>
        <time>2021-10-02T07:45:10Z</time>
      </trkpt>
      <trkpt lat="42.3331270" lon="-4.7513200">
        <ele>852.2</ele>
        <time>2021-10-02T07:45:20Z</time>
      </trkpt>
      <trkpt lat="42.3330330" lon="-4.7520920">
        <ele>852.6</ele>
        <time>2021-10-02T07:45:30Z</time>
      </trkpt>
      <trkpt lat="42.3329000" lon="-4.7528700">
        <ele>852.4</ele>
        <time>2021-10-02T07:45:40Z</time>
      </trkpt>
      <trkpt lat="42.3328040" lon="-4.7536620">
        <ele>852.4</ele>
        <time>2021-10-02T07:45:50Z</time>
      </trkpt>
      <trkpt lat="42.3326990" lon="-4.7543810">
        <ele>852.6</ele>
        <time>2021-10-02T07:45:59Z</time>
      </trkpt>
      <trkpt lat="42.3326280" lon="-4.7549370">
        <ele>852.8</ele>
        <time>2021-10-02T07:46:06Z</time>
      </trkpt>
      <trkpt lat="42.3326160" lon="-4.7550870">
        <ele>853.0</ele>
        <time>2021-10-02T07:46:08Z</time>
      </trkpt>
      <trkpt lat="42.3325230" lon="-4.7556470">
        <ele>853.2</ele>
        <time>2021-10-02T07:46:16Z</time>
      </trkpt>
      <trkpt lat="42.3324380" lon="-4.7562380">
        <ele>854.2</ele>
        <time>2021-10-02T07:46:25Z</time>
      </trkpt>
      <trkpt lat="42.3323360" lon="-4.7569880">
        <ele>854.8</ele>
        <time>2021-10-02T07:46:36Z</time>
      </trkpt>
      <trkpt lat="42.3323000" lon="-4.7573450">
        <ele>855.0</ele>
        <time>2021-10-02T07:46:41Z</time>
      </trkpt>
      <trkpt lat="42.3322550" lon="-4.7576540">
        <ele>855.0</ele>
        <time>2021-10-02T07:46:45Z</time>
      </trkpt>
      <trkpt lat="42.3322030" lon="-4.7580070">
        <ele>855.0</ele>
        <time>2021-10-02T07:46:49Z</time>
      </trkpt>
      <trkpt lat="42.3321790" lon="-4.7581890">
        <ele>855.0</ele>
        <time>2021-10-02T07:46:51Z</time>
      </trkpt>
      <trkpt lat="42.3321560" lon="-4.7584340">
        <ele>855.2</ele>
        <time>2021-10-02T07:46:54Z</time>
      </trkpt>
      <trkpt lat="42.3321330" lon="-4.7585750">
        <ele>855.2</ele>
        <time>2021-10-02T07:46:56Z</time>
      </trkpt>
      <trkpt lat="42.3321030" lon="-4.7587730">
        <ele>855.4</ele>
        <time>2021-10-02T07:46:59Z</time>
      </trkpt>
      <trkpt lat="42.3320800" lon="-4.7589010">
        <ele>856.4</ele>
        <time>2021-10-02T07:47:01Z</time>
      </trkpt>
      <trkpt lat="42.3320560" lon="-4.7590260">
        <ele>858.2</ele>
        <time>2021-10-02T07:47:03Z</time>
      </trkpt>
      <trkpt lat="42.3320290" lon="-4.7591510">
        <ele>859.4</ele>
        <time>2021-10-02T07:47:05Z</time>
      </trkpt>
      <trkpt lat="42.3320050" lon="-4.7592760">
        <ele>860.6</ele>
        <time>2021-10-02T07:47:07Z</time>
      </trkpt>
      <trkpt lat="42.3319500" lon="-4.7595280">
        <ele>861.8</ele>
        <time>2021-10-02T07:47:11Z</time>
      </trkpt>
      <trkpt lat="42.3317920" lon="-4.7603030">
        <ele>862.4</ele>
        <time>2021-10-02T07:47:22Z</time>
      </trkpt>
      <trkpt lat="42.3316660" lon="-4.7609170">
        <ele>862.4</ele>
        <time>2021-10-02T07:47:30Z</time>
      </trkpt>
      <trkpt lat="42.3315310" lon="-4.7616270">
        <ele>861.6</ele>
        <time>2021-10-02T07:47:38Z</time>
      </trkpt>
      <trkpt lat="42.3314890" lon="-4.7618010">
        <ele>860.4</ele>
        <time>2021-10-02T07:47:40Z</time>
      </trkpt>
      <trkpt lat="42.3314440" lon="-4.7620510">
        <ele>859.2</ele>
        <time>2021-10-02T07:47:43Z</time>
      </trkpt>
      <trkpt lat="42.3313010" lon="-4.7628000">
        <ele>858.6</ele>
        <time>2021-10-02T07:47:53Z</time>
      </trkpt>
      <trkpt lat="42.3311910" lon="-4.7633540">
        <ele>860.2</ele>
        <time>2021-10-02T07:48:01Z</time>
      </trkpt>
      <trkpt lat="42.3311480" lon="-4.7635660">
        <ele>860.8</ele>
        <time>2021-10-02T07:48:04Z</time>
      </trkpt>
      <trkpt lat="42.3311200" lon="-4.7637100">
        <ele>861.2</ele>
        <time>2021-10-02T07:48:06Z</time>
      </trkpt>
      <trkpt lat="42.3309820" lon="-4.7644250">
        <ele>862.4</ele>
        <time>2021-10-02T07:48:16Z</time>
      </trkpt>
      <trkpt lat="42.3308720" lon="-4.7650000">
        <ele>863.2</ele>
        <time>2021-10-02T07:48:24Z</time>
      </trkpt>
      <trkpt lat="42.3307230" lon="-4.7657440">
        <ele>863.0</ele>
        <time>2021-10-02T07:48:34Z</time>
      </trkpt>
      <trkpt lat="42.3305810" lon="-4.7664930">
        <ele>863.0</ele>
        <time>2021-10-02T07:48:44Z</time>
      </trkpt>
      <trkpt lat="42.3304660" lon="-4.7670910">
        <ele>863.4</ele>
        <time>2021-10-02T07:48:52Z</time>
      </trkpt>
      <trkpt lat="42.3303180" lon="-4.7678290">
        <ele>863.6</ele>
        <time>2021-10-02T07:49:02Z</time>
      </trkpt>
      <trkpt lat="42.3301590" lon="-4.7685760">
        <ele>864.0</ele>
        <time>2021-10-02T07:49:12Z</time>
      </trkpt>
      <trkpt lat="42.3301080" lon="-4.7688920">
        <ele>864.2</ele>
        <time>2021-10-02T07:49:16Z</time>
      </trkpt>
      <trkpt lat="42.3299570" lon="-4.7696310">
        <ele>864.2</ele>
        <time>2021-10-02T07:49:26Z</time>
      </trkpt>
      <trkpt lat="42.3298140" lon="-4.7703300">
        <ele>865.2</ele>
        <time>2021-10-02T07:49:36Z</time>
      </trkpt>
      <trkpt lat="42.3297730" lon="-4.7705420">
        <ele>866.2</ele>
        <time>2021-10-02T07:49:39Z</time>
      </trkpt>
      <trkpt lat="42.3297120" lon="-4.7708180">
        <ele>866.6</ele>
        <time>2021-10-02T07:49:43Z</time>
      </trkpt>
      <trkpt lat="42.3296700" lon="-4.7711770">
        <ele>867.8</ele>
        <time>2021-10-02T07:49:48Z</time>
      </trkpt>
      <trkpt lat="42.3296330" lon="-4.7715390">
        <ele>868.8</ele>
        <time>2021-10-02T07:49:53Z</time>
      </trkpt>
      <trkpt lat="42.3295650" lon="-4.7722810">
        <ele>869.2</ele>
        <time>2021-10-02T07:50:03Z</time>
      </trkpt>
      <trkpt lat="42.3295050" lon="-4.7730250">
        <ele>869.0</ele>
        <time>2021-10-02T07:50:13Z</time>
      </trkpt>
      <trkpt lat="42.3294300" lon="-4.7737720">
        <ele>869.2</ele>
        <time>2021-10-02T07:50:23Z</time>
      </trkpt>
      <trkpt lat="42.3293740" lon="-4.7745250">
        <ele>869.6</ele>
        <time>2021-10-02T07:50:33Z</time>
      </trkpt>
      <trkpt lat="42.3293190" lon="-4.7753200">
        <ele>869.8</ele>
        <time>2021-10-02T07:50:43Z</time>
      </trkpt>
      <trkpt lat="42.3292580" lon="-4.7761150">
        <ele>869.4</ele>
        <time>2021-10-02T07:50:53Z</time>
      </trkpt>
      <trkpt lat="42.3291970" lon="-4.7769150">
        <ele>869.4</ele>
        <time>2021-10-02T07:51:03Z</time>
      </trkpt>
      <trkpt lat="42.3291630" lon="-4.7773940">
        <ele>869.8</ele>
        <time>2021-10-02T07:51:09Z</time>
      </trkpt>
      <trkpt lat="42.3291140" lon="-4.7781870">
        <ele>870.4</ele>
        <time>2021-10-02T07:51:19Z</time>
      </trkpt>
      <trkpt lat="42.3291110" lon="-4.7782670">
        <ele>870.4</ele>
        <time>2021-10-02T07:51:20Z</time>
      </trkpt>
      <trkpt lat="42.3290990" lon="-4.7790000">
        <ele>870.8</ele>
        <time>2021-10-02T07:51:29Z</time>
      </trkpt>
      <trkpt lat="42.3290890" lon="-4.7794140">
        <ele>871.0</ele>
        <time>2021-10-02T07:51:34Z</time>
      </trkpt>
      <trkpt lat="42.3290710" lon="-4.7802200">
        <ele>871.0</ele>
        <time>2021-10-02T07:51:44Z</time>
      </trkpt>
      <trkpt lat="42.3290580" lon="-4.7809660">
        <ele>871.0</ele>
        <time>2021-10-02T07:51:53Z</time>
      </trkpt>
      <trkpt lat="42.3290470" lon="-4.7816980">
        <ele>870.8</ele>
        <time>2021-10-02T07:52:02Z</time>
      </trkpt>
      <trkpt lat="42.3290270" lon="-4.7823990">
        <ele>870.8</ele>
        <time>2021-10-02T07:52:10Z</time>
      </trkpt>
      <trkpt lat="42.3290310" lon="-4.7832060">
        <ele>870.6</ele>
        <time>2021-10-02T07:52:19Z</time>
      </trkpt>
      <trkpt lat="42.3290260" lon="-4.7840210">
        <ele>871.0</ele>
        <time>2021-10-02T07:52:28Z</time>
      </trkpt>
      <trkpt lat="42.3290120" lon="-4.7848350">
        <ele>871.4</ele>
        <time>2021-10-02T07:52:37Z</time>
      </trkpt>
      <trkpt lat="42.3290020" lon="-4.7856210">
        <ele>871.6</ele>
        <time>2021-10-02T07:52:46Z</time>
      </trkpt>
      <trkpt lat="42.3290060" lon="-4.7864240">
        <ele>871.6</ele>
        <time>2021-10-02T07:52:55Z</time>
      </trkpt>
      <trkpt lat="42.3290110" lon="-4.7871690">
        <ele>871.4</ele>
        <time>2021-10-02T07:53:03Z</time>
      </trkpt>
      <trkpt lat="42.3290020" lon="-4.7879690">
        <ele>871.2</ele>
        <time>2021-10-02T07:53:12Z</time>
      </trkpt>
      <trkpt lat="42.3290280" lon="-4.7887310">
        <ele>871.6</ele>
        <time>2021-10-02T07:53:21Z</time>
      </trkpt>
      <trkpt lat="42.3290310" lon="-4.7889020">
        <ele>872.0</ele>
        <time>2021-10-02T07:53:23Z</time>
      </trkpt>
      <trkpt lat="42.3290390" lon="-4.7896720">
        <ele>872.4</ele>
        <time>2021-10-02T07:53:32Z</time>
      </trkpt>
      <trkpt lat="42.3290570" lon="-4.7902810">
        <ele>872.6</ele>
        <time>2021-10-02T07:53:39Z</time>
      </trkpt>
      <trkpt lat="42.3290730" lon="-4.7910890">
        <ele>872.4</ele>
        <time>2021-10-02T07:53:48Z</time>
      </trkpt>
      <trkpt lat="42.3291040" lon="-4.7918950">
        <ele>871.6</ele>
        <time>2021-10-02T07:53:57Z</time>
      </trkpt>
      <trkpt lat="42.3290960" lon="-4.7926810">
        <ele>871.6</ele>
        <time>2021-10-02T07:54:06Z</time>
      </trkpt>
      <trkpt lat="42.3290620" lon="-4.7934680">
        <ele>871.6</ele>
        <time>2021-10-02T07:54:15Z</time>
      </trkpt>
      <trkpt lat="42.3290350" lon="-4.7942440">
        <ele>871.6</ele>
        <time>2021-10-02T07:54:24Z</time>
      </trkpt>
      <trkpt lat="42.3290190" lon="-4.7950350">
        <ele>871.2</ele>
        <time>2021-10-02T07:54:33Z</time>
      </trkpt>
      <trkpt lat="42.3289860" lon="-4.7958240">
        <ele>871.0</ele>
        <time>2021-10-02T07:54:42Z</time>
      </trkpt>
      <trkpt lat="42.3289570" lon="-4.7965610">
        <ele>871.0</ele>
        <time>2021-10-02T07:54:51Z</time>
      </trkpt>
      <trkpt lat="42.3289290" lon="-4.7972910">
        <ele>871.0</ele>
        <time>2021-10-02T07:55:00Z</time>
      </trkpt>
      <trkpt lat="42.3289110" lon="-4.7979710">
        <ele>871.2</ele>
        <time>2021-10-02T07:55:08Z</time>
      </trkpt>
      <trkpt lat="42.3288870" lon="-4.7987750">
        <ele>871.2</ele>
        <time>2021-10-02T07:55:17Z</time>
      </trkpt>
      <trkpt lat="42.3288850" lon="-4.7995100">
        <ele>870.8</ele>
        <time>2021-10-02T07:55:25Z</time>
      </trkpt>
      <trkpt lat="42.3289000" lon="-4.7997070">
        <ele>870.8</ele>
        <time>2021-10-02T07:55:27Z</time>
      </trkpt>
      <trkpt lat="42.3289450" lon="-4.8002430">
        <ele>870.2</ele>
        <time>2021-10-02T07:55:32Z</time>
      </trkpt>
      <trkpt lat="42.3289670" lon="-4.8004770">
        <ele>869.4</ele>
        <time>2021-10-02T07:55:34Z</time>
      </trkpt>
      <trkpt lat="42.3289900" lon="-4.8007230">
        <ele>868.4</ele>
        <time>2021-10-02T07:55:36Z</time>
      </trkpt>
      <trkpt lat="42.3290000" lon="-4.8008510">
        <ele>867.2</ele>
        <time>2021-10-02T07:55:37Z</time>
      </trkpt>
      <trkpt lat="42.3290200" lon="-4.8011080">
        <ele>865.8</ele>
        <time>2021-10-02T07:55:39Z</time>
      </trkpt>
      <trkpt lat="42.3290370" lon="-4.8013630">
        <ele>864.2</ele>
        <time>2021-10-02T07:55:41Z</time>
      </trkpt>
      <trkpt lat="42.3290580" lon="-4.8016050">
        <ele>862.2</ele>
        <time>2021-10-02T07:55:43Z</time>
      </trkpt>
      <trkpt lat="42.3290710" lon="-4.8017210">
        <ele>861.2</ele>
        <time>2021-10-02T07:55:44Z</time>
      </trkpt>
      <trkpt lat="42.3290920" lon="-4.8019330">
        <ele>859.4</ele>
        <time>2021-10-02T07:55:46Z</time>
      </trkpt>
      <trkpt lat="42.3290990" lon="-4.8022640">
        <ele>858.6</ele>
        <time>2021-10-02T07:55:51Z</time>
      </trkpt>
      <trkpt lat="42.3289370" lon="-4.8023230">
        <ele>859.0</ele>
        <time>2021-10-02T07:55:56Z</time>
      </trkpt>
      <trkpt lat="42.3287820" lon="-4.8024690">
        <ele>859.2</ele>
        <time>2021-10-02T07:56:00Z</time>
      </trkpt>
      <trkpt lat="42.3287430" lon="-4.8025210">
        <ele>859.4</ele>
        <time>2021-10-02T07:56:01Z</time>
      </trkpt>
      <trkpt lat="42.3285810" lon="-4.8029510">
        <ele>859.2</ele>
        <time>2021-10-02T07:56:07Z</time>
      </trkpt>
      <trkpt lat="42.3285630" lon="-4.8032260">
        <ele>857.6</ele>
        <time>2021-10-02T07:56:10Z</time>
      </trkpt>
      <trkpt lat="42.3285670" lon="-4.8033190">
        <ele>857.4</ele>
        <time>2021-10-02T07:56:11Z</time>
      </trkpt>
      <trkpt lat="42.3285710" lon="-4.8035040">
        <ele>856.4</ele>
        <time>2021-10-02T07:56:13Z</time>
      </trkpt>
      <trkpt lat="42.3285590" lon="-4.8037750">
        <ele>855.0</ele>
        <time>2021-10-02T07:56:16Z</time>
      </trkpt>
      <trkpt lat="42.3285170" lon="-4.8042030">
        <ele>854.2</ele>
        <time>2021-10-02T07:56:21Z</time>
      </trkpt>
      <trkpt lat="42.3284770" lon="-4.8046350">
        <ele>854.0</ele>
        <time>2021-10-02T07:56:26Z</time>
      </trkpt>
      <trkpt lat="42.3284880" lon="-4.8047210">
        <ele>853.8</ele>
        <time>2021-10-02T07:56:27Z</time>
      </trkpt>
      <trkpt lat="42.3289440" lon="-4.8051150">
        <ele>853.0</ele>
        <time>2021-10-02T07:56:36Z</time>
      </trkpt>
      <trkpt lat="42.3290030" lon="-4.8051220">
        <ele>852.8</ele>
        <time>2021-10-02T07:56:37Z</time>
      </trkpt>
      <trkpt lat="42.3291640" lon="-4.8051180">
        <ele>852.8</ele>
        <time>2021-10-02T07:56:40Z</time>
      </trkpt>
      <trkpt lat="42.3292540" lon="-4.8051160">
        <ele>852.8</ele>
        <time>2021-10-02T07:56:43Z</time>
      </trkpt>
      <trkpt lat="42.3292590" lon="-4.8052290">
        <ele>853.4</ele>
        <time>2021-10-02T07:56:46Z</time>
      </trkpt>
      <trkpt lat="42.3292530" lon="-4.8053370">
        <ele>854.0</ele>
        <time>2021-10-02T07:56:48Z</time>
      </trkpt>
      <trkpt lat="42.3292590" lon="-4.8054620">
        <ele>854.2</ele>
        <time>2021-10-02T07:56:50Z</time>
      </trkpt>
      <trkpt lat="42.3292760" lon="-4.8057500">
        <ele>854.2</ele>
        <time>2021-10-02T07:56:54Z</time>
      </trkpt>
      <trkpt lat="42.3293010" lon="-4.8061330">
        <ele>853.8</ele>
        <time>2021-10-02T07:56:59Z</time>
      </trkpt>
      <trkpt lat="42.3293160" lon="-4.8066390">
        <ele>853.2</ele>
        <time>2021-10-02T07:57:05Z</time>
      </trkpt>
      <trkpt lat="42.3293300" lon="-4.8069000">
        <ele>853.2</ele>
        <time>2021-10-02T07:57:08Z</time>
      </trkpt>
      <trkpt lat="42.3293490" lon="-4.8071580">
        <ele>852.8</ele>
        <time>2021-10-02T07:57:11Z</time>
      </trkpt>
      <trkpt lat="42.3293830" lon="-4.8075990">
        <ele>852.6</ele>
        <time>2021-10-02T07:57:16Z</time>
      </trkpt>
      <trkpt lat="42.3294020" lon="-4.8081180">
        <ele>852.8</ele>
        <time>2021-10-02T07:57:22Z</time>
      </trkpt>
      <trkpt lat="42.3293990" lon="-4.8088710">
        <ele>853.2</ele>
        <time>2021-10-02T07:57:31Z</time>
      </trkpt>
      <trkpt lat="42.3294610" lon="-4.8095950">
        <ele>853.2</ele>
        <time>2021-10-02T07:57:40Z</time>
      </trkpt>
      <trkpt lat="42.3295100" lon="-4.8103430">
        <ele>853.4</ele>
        <time>2021-10-02T07:57:49Z</time>
      </trkpt>
      <trkpt lat="42.3294830" lon="-4.8106030">
        <ele>853.4</ele>
        <time>2021-10-02T07:57:52Z</time>
      </trkpt>
      <trkpt lat="42.3294580" lon="-4.8107700">
        <ele>853.0</ele>
        <time>2021-10-02T07:57:54Z</time>
      </trkpt>
      <trkpt lat="42.3294930" lon="-4.8115620">
        <ele>852.4</ele>
        <time>2021-10-02T07:58:03Z</time>
      </trkpt>
      <trkpt lat="42.3295380" lon="-4.8123210">
        <ele>852.0</ele>
        <time>2021-10-02T07:58:12Z</time>
      </trkpt>
      <trkpt lat="42.3296650" lon="-4.8128090">
        <ele>852.0</ele>
        <time>2021-10-02T07:58:19Z</time>
      </trkpt>
      <trkpt lat="42.3297020" lon="-4.8128940">
        <ele>853.8</ele>
        <time>2021-10-02T07:58:27Z</time>
      </trkpt>
      <trkpt lat="42.3297260" lon="-4.8128880">
        <ele>854.4</ele>
        <time>2021-10-02T07:58:29Z</time>
      </trkpt>
      <trkpt lat="42.3297400" lon="-4.8129020">
        <ele>854.8</ele>
        <time>2021-10-02T07:58:30Z</time>
      </trkpt>
      <trkpt lat="42.3298140" lon="-4.8130200">
        <ele>855.2</ele>
        <time>2021-10-02T07:58:34Z</time>
      </trkpt>
      <trkpt lat="42.3301880" lon="-4.8136340">
        <ele>854.2</ele>
        <time>2021-10-02T07:58:47Z</time>
      </trkpt>
      <trkpt lat="42.3303030" lon="-4.8137970">
        <ele>853.6</ele>
        <time>2021-10-02T07:58:50Z</time>
      </trkpt>
      <trkpt lat="42.3306720" lon="-4.8143980">
        <ele>853.2</ele>
        <time>2021-10-02T07:59:00Z</time>
      </trkpt>
      <trkpt lat="42.3309710" lon="-4.8148760">
        <ele>853.4</ele>
        <time>2021-10-02T07:59:08Z</time>
      </trkpt>
      <trkpt lat="42.3313480" lon="-4.8155030">
        <ele>853.6</ele>
        <time>2021-10-02T07:59:18Z</time>
      </trkpt>
      <trkpt lat="42.3314920" lon="-4.8157500">
        <ele>853.8</ele>
        <time>2021-10-02T07:59:22Z</time>
      </trkpt>
      <trkpt lat="42.3315680" lon="-4.8158670">
        <ele>854.0</ele>
        <time>2021-10-02T07:59:24Z</time>
      </trkpt>
      <trkpt lat="42.3316850" lon="-4.8160550">
        <ele>854.0</ele>
        <time>2021-10-02T07:59:27Z</time>
      </trkpt>
      <trkpt lat="42.3320320" lon="-4.8166180">
        <ele>854.2</ele>
        <time>2021-10-02T07:59:36Z</time>
      </trkpt>
      <trkpt lat="42.3321550" lon="-4.8167980">
        <ele>854.2</ele>
        <time>2021-10-02T07:59:39Z</time>
      </trkpt>
      <trkpt lat="42.3325040" lon="-4.8173930">
        <ele>854.0</ele>
        <time>2021-10-02T07:59:48Z</time>
      </trkpt>
      <trkpt lat="42.3328530" lon="-4.8180310">
        <ele>854.0</ele>
        <time>2021-10-02T07:59:57Z</time>
      </trkpt>
      <trkpt lat="42.3329720" lon="-4.8182360">
        <ele>854.4</ele>
        <time>2021-10-02T08:00:00Z</time>
      </trkpt>
      <trkpt lat="42.3332980" lon="-4.8188600">
        <ele>854.6</ele>
        <time>2021-10-02T08:00:09Z</time>
      </trkpt>
      <trkpt lat="42.3336140" lon="-4.8194710">
        <ele>854.6</ele>
        <time>2021-10-02T08:00:18Z</time>
      </trkpt>
      <trkpt lat="42.3338310" lon="-4.8198590">
        <ele>855.0</ele>
        <time>2021-10-02T08:00:24Z</time>
      </trkpt>
      <trkpt lat="42.3341830" lon="-4.8205110">
        <ele>855.4</ele>
        <time>2021-10-02T08:00:34Z</time>
      </trkpt>
      <trkpt lat="42.3343380" lon="-4.8208380">
        <ele>855.8</ele>
        <time>2021-10-02T08:00:39Z</time>
      </trkpt>
      <trkpt lat="42.3344240" lon="-4.8210290">
        <ele>855.8</ele>
        <time>2021-10-02T08:00:42Z</time>
      </trkpt>
      <trkpt lat="42.3344910" lon="-4.8211470">
        <ele>856.0</ele>
        <time>2021-10-02T08:00:44Z</time>
      </trkpt>
      <trkpt lat="42.3346590" lon="-4.8214530">
        <ele>856.2</ele>
        <time>2021-10-02T08:00:49Z</time>
      </trkpt>
      <trkpt lat="42.3349890" lon="-4.8221180">
        <ele>856.8</ele>
        <time>2021-10-02T08:00:59Z</time>
      </trkpt>
      <trkpt lat="42.3351920" lon="-4.8225010">
        <ele>857.0</ele>
        <time>2021-10-02T08:01:05Z</time>
      </trkpt>
      <trkpt lat="42.3352240" lon="-4.8225670">
        <ele>857.0</ele>
        <time>2021-10-02T08:01:06Z</time>
      </trkpt>
      <trkpt lat="42.3355460" lon="-4.8231880">
        <ele>857.2</ele>
        <time>2021-10-02T08:01:15Z</time>
      </trkpt>
      <trkpt lat="42.3356650" lon="-4.8234000">
        <ele>857.2</ele>
        <time>2021-10-02T08:01:18Z</time>
      </trkpt>
      <trkpt lat="42.3360060" lon="-4.8240080">
        <ele>857.2</ele>
        <time>2021-10-02T08:01:27Z</time>
      </trkpt>
      <trkpt lat="42.3362030" lon="-4.8244010">
        <ele>857.4</ele>
        <time>2021-10-02T08:01:33Z</time>
      </trkpt>
      <trkpt lat="42.3365350" lon="-4.8250670">
        <ele>858.0</ele>
        <time>2021-10-02T08:01:43Z</time>
      </trkpt>
      <trkpt lat="42.3367720" lon="-4.8255370">
        <ele>858.4</ele>
        <time>2021-10-02T08:01:50Z</time>
      </trkpt>
      <trkpt lat="42.3370780" lon="-4.8261530">
        <ele>859.0</ele>
        <time>2021-10-02T08:01:59Z</time>
      </trkpt>
      <trkpt lat="42.3373790" lon="-4.8267710">
        <ele>859.2</ele>
        <time>2021-10-02T08:02:08Z</time>
      </trkpt>
      <trkpt lat="42.3375460" lon="-4.8271260">
        <ele>859.4</ele>
        <time>2021-10-02T08:02:13Z</time>
      </trkpt>
      <trkpt lat="42.3378550" lon="-4.8277500">
        <ele>859.4</ele>
        <time>2021-10-02T08:02:22Z</time>
      </trkpt>
      <trkpt lat="42.3381580" lon="-4.8283720">
        <ele>859.6</ele>
        <time>2021-10-02T08:02:31Z</time>
      </trkpt>
      <trkpt lat="42.3381900" lon="-4.8284430">
        <ele>859.6</ele>
        <time>2021-10-02T08:02:32Z</time>
      </trkpt>
      <trkpt lat="42.3383870" lon="-4.8288560">
        <ele>859.8</ele>
        <time>2021-10-02T08:02:38Z</time>
      </trkpt>
      <trkpt lat="42.3386750" lon="-4.8295260">
        <ele>860.4</ele>
        <time>2021-10-02T08:02:47Z</time>
      </trkpt>
      <trkpt lat="42.3389650" lon="-4.8301970">
        <ele>860.4</ele>
        <time>2021-10-02T08:02:56Z</time>
      </trkpt>
      <trkpt lat="42.3392500" lon="-4.8308620">
        <ele>860.8</ele>
        <time>2021-10-02T08:03:05Z</time>
      </trkpt>
      <trkpt lat="42.3395150" lon="-4.8315230">
        <ele>861.2</ele>
        <time>2021-10-02T08:03:14Z</time>
      </trkpt>
      <trkpt lat="42.3396100" lon="-4.8317360">
        <ele>861.2</ele>
        <time>2021-10-02T08:03:17Z</time>
      </trkpt>
      <trkpt lat="42.3398760" lon="-4.8323940">
        <ele>861.2</ele>
        <time>2021-10-02T08:03:26Z</time>
      </trkpt>
      <trkpt lat="42.3401370" lon="-4.8330220">
        <ele>861.4</ele>
        <time>2021-10-02T08:03:35Z</time>
      </trkpt>
      <trkpt lat="42.3402530" lon="-4.8332840">
        <ele>862.2</ele>
        <time>2021-10-02T08:03:39Z</time>
      </trkpt>
      <trkpt lat="42.3403230" lon="-4.8334520">
        <ele>862.4</ele>
        <time>2021-10-02T08:03:42Z</time>
      </trkpt>
      <trkpt lat="42.3403900" lon="-4.8335750">
        <ele>862.6</ele>
        <time>2021-10-02T08:03:45Z</time>
      </trkpt>
      <trkpt lat="42.3404450" lon="-4.8338870">
        <ele>863.4</ele>
        <time>2021-10-02T08:03:50Z</time>
      </trkpt>
      <trkpt lat="42.3404860" lon="-4.8340790">
        <ele>863.6</ele>
        <time>2021-10-02T08:03:53Z</time>
      </trkpt>
      <trkpt lat="42.3404700" lon="-4.8341980">
        <ele>863.8</ele>
        <time>2021-10-02T08:03:55Z</time>
      </trkpt>
      <trkpt lat="42.3405030" lon="-4.8344720">
        <ele>863.8</ele>
        <time>2021-10-02T08:03:59Z</time>
      </trkpt>
      <trkpt lat="42.3406580" lon="-4.8349720">
        <ele>862.6</ele>
        <time>2021-10-02T08:04:06Z</time>
      </trkpt>
      <trkpt lat="42.3409220" lon="-4.8356340">
        <ele>862.4</ele>
        <time>2021-10-02T08:04:16Z</time>
      </trkpt>
      <trkpt lat="42.3411870" lon="-4.8363370">
        <ele>862.8</ele>
        <time>2021-10-02T08:04:26Z</time>
      </trkpt>
      <trkpt lat="42.3412960" lon="-4.8366080">
        <ele>863.2</ele>
        <time>2021-10-02T08:04:30Z</time>
      </trkpt>
      <trkpt lat="42.3413910" lon="-4.8368780">
        <ele>863.4</ele>
        <time>2021-10-02T08:04:34Z</time>
      </trkpt>
      <trkpt lat="42.3416620" lon="-4.8375860">
        <ele>864.0</ele>
        <time>2021-10-02T08:04:45Z</time>
      </trkpt>
      <trkpt lat="42.3416840" lon="-4.8376490">
        <ele>864.4</ele>
        <time>2021-10-02T08:04:46Z</time>
      </trkpt>
      <trkpt lat="42.3418000" lon="-4.8379620">
        <ele>865.0</ele>
        <time>2021-10-02T08:04:51Z</time>
      </trkpt>
      <trkpt lat="42.3418570" lon="-4.8380880">
        <ele>865.4</ele>
        <time>2021-10-02T08:04:53Z</time>
      </trkpt>
      <trkpt lat="42.3419650" lon="-4.8383330">
        <ele>866.4</ele>
        <time>2021-10-02T08:04:57Z</time>
      </trkpt>
      <trkpt lat="42.3419900" lon="-4.8383910">
        <ele>866.4</ele>
        <time>2021-10-02T08:04:58Z</time>
      </trkpt>
      <trkpt lat="42.3420660" lon="-4.8385540">
        <ele>866.6</ele>
        <time>2021-10-02T08:05:01Z</time>
      </trkpt>
      <trkpt lat="42.3421470" lon="-4.8387120">
        <ele>867.6</ele>
        <time>2021-10-02T08:05:04Z</time>
      </trkpt>
      <trkpt lat="42.3422880" lon="-4.8389860">
        <ele>869.0</ele>
        <time>2021-10-02T08:05:09Z</time>
      </trkpt>
      <trkpt lat="42.3423620" lon="-4.8391540">
        <ele>870.2</ele>
        <time>2021-10-02T08:05:12Z</time>
      </trkpt>
      <trkpt lat="42.3424750" lon="-4.8394380">
        <ele>871.4</ele>
        <time>2021-10-02T08:05:17Z</time>
      </trkpt>
      <trkpt lat="42.3425450" lon="-4.8396080">
        <ele>872.6</ele>
        <time>2021-10-02T08:05:20Z</time>
      </trkpt>
      <trkpt lat="42.3426520" lon="-4.8399030">
        <ele>873.8</ele>
        <time>2021-10-02T08:05:25Z</time>
      </trkpt>
      <trkpt lat="42.3428100" lon="-4.8404560">
        <ele>875.0</ele>
        <time>2021-10-02T08:05:34Z</time>
      </trkpt>
      <trkpt lat="42.3429220" lon="-4.8408980">
        <ele>876.2</ele>
        <time>2021-10-02T08:05:41Z</time>
      </trkpt>
      <trkpt lat="42.3430600" lon="-4.8415770">
        <ele>876.4</ele>
        <time>2021-10-02T08:05:51Z</time>
      </trkpt>
      <trkpt lat="42.3431750" lon="-4.8422220">
        <ele>877.0</ele>
        <time>2021-10-02T08:06:01Z</time>
      </trkpt>
      <trkpt lat="42.3431840" lon="-4.8423450">
        <ele>877.2</ele>
        <time>2021-10-02T08:06:03Z</time>
      </trkpt>
      <trkpt lat="42.3432550" lon="-4.8428680">
        <ele>878.2</ele>
        <time>2021-10-02T08:06:12Z</time>
      </trkpt>
      <trkpt lat="42.3433030" lon="-4.8431430">
        <ele>879.6</ele>
        <time>2021-10-02T08:06:17Z</time>
      </trkpt>
      <trkpt lat="42.3433410" lon="-4.8433010">
        <ele>880.8</ele>
        <time>2021-10-02T08:06:20Z</time>
      </trkpt>
      <trkpt lat="42.3434280" lon="-4.8436610">
        <ele>882.0</ele>
        <time>2021-10-02T08:06:27Z</time>
      </trkpt>
      <trkpt lat="42.3434860" lon="-4.8439010">
        <ele>883.0</ele>
        <time>2021-10-02T08:06:32Z</time>
      </trkpt>
      <trkpt lat="42.3435250" lon="-4.8440870">
        <ele>884.2</ele>
        <time>2021-10-02T08:06:36Z</time>
      </trkpt>
      <trkpt lat="42.3436480" lon="-4.8445460">
        <ele>884.4</ele>
        <time>2021-10-02T08:06:47Z</time>
      </trkpt>
      <trkpt lat="42.3437300" lon="-4.8448020">
        <ele>884.4</ele>
        <time>2021-10-02T08:06:53Z</time>
      </trkpt>
      <trkpt lat="42.3439610" lon="-4.8454960">
        <ele>884.2</ele>
        <time>2021-10-02T08:07:08Z</time>
      </trkpt>
      <trkpt lat="42.3442090" lon="-4.8461730">
        <ele>884.0</ele>
        <time>2021-10-02T08:07:22Z</time>
      </trkpt>
      <trkpt lat="42.3443750" lon="-4.8466640">
        <ele>884.0</ele>
        <time>2021-10-02T08:07:32Z</time>
      </trkpt>
      <trkpt lat="42.3444560" lon="-4.8468610">
        <ele>883.8</ele>
        <time>2021-10-02T08:07:36Z</time>
      </trkpt>
      <trkpt lat="42.3445430" lon="-4.8471420">
        <ele>882.8</ele>
        <time>2021-10-02T08:07:41Z</time>
      </trkpt>
      <trkpt lat="42.3447520" lon="-4.8478250">
        <ele>882.6</ele>
        <time>2021-10-02T08:07:53Z</time>
      </trkpt>
      <trkpt lat="42.3450060" lon="-4.8485180">
        <ele>883.0</ele>
        <time>2021-10-02T08:08:05Z</time>
      </trkpt>
      <trkpt lat="42.3450240" lon="-4.8485790">
        <ele>883.2</ele>
        <time>2021-10-02T08:08:06Z</time>
      </trkpt>
      <trkpt lat="42.3452640" lon="-4.8492320">
        <ele>883.4</ele>
        <time>2021-10-02T08:08:17Z</time>
      </trkpt>
      <trkpt lat="42.3453510" lon="-4.8494710">
        <ele>883.4</ele>
        <time>2021-10-02T08:08:21Z</time>
      </trkpt>
      <trkpt lat="42.3455530" lon="-4.8500090">
        <ele>883.8</ele>
        <time>2021-10-02T08:08:30Z</time>
      </trkpt>
      <trkpt lat="42.3456960" lon="-4.8503570">
        <ele>884.0</ele>
        <time>2021-10-02T08:08:36Z</time>
      </trkpt>
      <trkpt lat="42.3459480" lon="-4.8510680">
        <ele>884.2</ele>
        <time>2021-10-02T08:08:47Z</time>
      </trkpt>
      <trkpt lat="42.3460750" lon="-4.8514110">
        <ele>884.2</ele>
        <time>2021-10-02T08:08:52Z</time>
      </trkpt>
      <trkpt lat="42.3463240" lon="-4.8520900">
        <ele>884.2</ele>
        <time>2021-10-02T08:09:02Z</time>
      </trkpt>
      <trkpt lat="42.3465690" lon="-4.8527550">
        <ele>884.6</ele>
        <time>2021-10-02T08:09:12Z</time>
      </trkpt>
      <trkpt lat="42.3468040" lon="-4.8533580">
        <ele>885.2</ele>
        <time>2021-10-02T08:09:21Z</time>
      </trkpt>
      <trkpt lat="42.3469450" lon="-4.8537680">
        <ele>885.4</ele>
        <time>2021-10-02T08:09:27Z</time>
      </trkpt>
      <trkpt lat="42.3471900" lon="-4.8544250">
        <ele>885.2</ele>
        <time>2021-10-02T08:09:38Z</time>
      </trkpt>
      <trkpt lat="42.3474540" lon="-4.8551230">
        <ele>885.4</ele>
        <time>2021-10-02T08:09:49Z</time>
      </trkpt>
      <trkpt lat="42.3477130" lon="-4.8557870">
        <ele>885.6</ele>
        <time>2021-10-02T08:09:59Z</time>
      </trkpt>
      <trkpt lat="42.3479420" lon="-4.8564670">
        <ele>885.6</ele>
        <time>2021-10-02T08:10:09Z</time>
      </trkpt>
      <trkpt lat="42.3480640" lon="-4.8569420">
        <ele>883.8</ele>
        <time>2021-10-02T08:10:16Z</time>
      </trkpt>
      <trkpt lat="42.3480810" lon="-4.8570740">
        <ele>883.4</ele>
        <time>2021-10-02T08:10:18Z</time>
      </trkpt>
      <trkpt lat="42.3481150" lon="-4.8572730">
        <ele>882.0</ele>
        <time>2021-10-02T08:10:21Z</time>
      </trkpt>
      <trkpt lat="42.3481350" lon="-4.8573880">
        <ele>880.8</ele>
        <time>2021-10-02T08:10:23Z</time>
      </trkpt>
      <trkpt lat="42.3481430" lon="-4.8575160">
        <ele>879.6</ele>
        <time>2021-10-02T08:10:26Z</time>
      </trkpt>
      <trkpt lat="42.3481530" lon="-4.8578730">
        <ele>879.2</ele>
        <time>2021-10-02T08:10:32Z</time>
      </trkpt>
      <trkpt lat="42.3481550" lon="-4.8582810">
        <ele>879.2</ele>
        <time>2021-10-02T08:10:38Z</time>
      </trkpt>
      <trkpt lat="42.3481380" lon="-4.8586430">
        <ele>879.4</ele>
        <time>2021-10-02T08:10:43Z</time>
      </trkpt>
      <trkpt lat="42.3481260" lon="-4.8587260">
        <ele>879.4</ele>
        <time>2021-10-02T08:10:44Z</time>
      </trkpt>
      <trkpt lat="42.3480770" lon="-4.8588780">
        <ele>879.4</ele>
        <time>2021-10-02T08:10:46Z</time>
      </trkpt>
      <trkpt lat="42.3480070" lon="-4.8589880">
        <ele>879.6</ele>
        <time>2021-10-02T08:10:48Z</time>
      </trkpt>
      <trkpt lat="42.3477180" lon="-4.8595470">
        <ele>879.6</ele>
        <time>2021-10-02T08:10:56Z</time>
      </trkpt>
      <trkpt lat="42.3476910" lon="-4.8597290">
        <ele>879.4</ele>
        <time>2021-10-02T08:10:58Z</time>
      </trkpt>
      <trkpt lat="42.3477010" lon="-4.8599180">
        <ele>879.4</ele>
        <time>2021-10-02T08:11:00Z</time>
      </trkpt>
      <trkpt lat="42.3478690" lon="-4.8603490">
        <ele>879.0</ele>
        <time>2021-10-02T08:11:05Z</time>
      </trkpt>
      <trkpt lat="42.3480860" lon="-4.8606990">
        <ele>878.2</ele>
        <time>2021-10-02T08:11:10Z</time>
      </trkpt>
      <trkpt lat="42.3483250" lon="-4.8612310">
        <ele>878.2</ele>
        <time>2021-10-02T08:11:16Z</time>
      </trkpt>
      <trkpt lat="42.3486130" lon="-4.8618850">
        <ele>878.2</ele>
        <time>2021-10-02T08:11:24Z</time>
      </trkpt>
      <trkpt lat="42.3488310" lon="-4.8622370">
        <ele>878.2</ele>
        <time>2021-10-02T08:11:29Z</time>
      </trkpt>
      <trkpt lat="42.3493210" lon="-4.8627070">
        <ele>878.2</ele>
        <time>2021-10-02T08:11:37Z</time>
      </trkpt>
      <trkpt lat="42.3498330" lon="-4.8631510">
        <ele>878.0</ele>
        <time>2021-10-02T08:11:44Z</time>
      </trkpt>
      <trkpt lat="42.3503390" lon="-4.8635770">
        <ele>878.0</ele>
        <time>2021-10-02T08:11:51Z</time>
      </trkpt>
      <trkpt lat="42.3505350" lon="-4.8637590">
        <ele>878.0</ele>
        <time>2021-10-02T08:11:54Z</time>
      </trkpt>
      <trkpt lat="42.3510000" lon="-4.8641510">
        <ele>878.0</ele>
        <time>2021-10-02T08:12:02Z</time>
      </trkpt>
      <trkpt lat="42.3511050" lon="-4.8642100">
        <ele>878.0</ele>
        <time>2021-10-02T08:12:04Z</time>
      </trkpt>
      <trkpt lat="42.3512830" lon="-4.8642870">
        <ele>878.4</ele>
        <time>2021-10-02T08:12:07Z</time>
      </trkpt>
      <trkpt lat="42.3514910" lon="-4.8643590">
        <ele>878.2</ele>
        <time>2021-10-02T08:12:10Z</time>
      </trkpt>
      <trkpt lat="42.3516990" lon="-4.8644500">
        <ele>878.4</ele>
        <time>2021-10-02T08:12:13Z</time>
      </trkpt>
      <trkpt lat="42.3518940" lon="-4.8645330">
        <ele>878.6</ele>
        <time>2021-10-02T08:12:16Z</time>
      </trkpt>
      <trkpt lat="42.3521940" lon="-4.8646800">
        <ele>878.6</ele>
        <time>2021-10-02T08:12:21Z</time>
      </trkpt>
      <trkpt lat="42.3527230" lon="-4.8648960">
        <ele>879.0</ele>
        <time>2021-10-02T08:12:29Z</time>
      </trkpt>
      <trkpt lat="42.3531720" lon="-4.8650100">
        <ele>879.0</ele>
        <time>2021-10-02T08:12:35Z</time>
      </trkpt>
      <trkpt lat="42.3533710" lon="-4.8650980">
        <ele>877.8</ele>
        <time>2021-10-02T08:12:38Z</time>
      </trkpt>
      <trkpt lat="42.3534930" lon="-4.8651720">
        <ele>877.0</ele>
        <time>2021-10-02T08:12:40Z</time>
      </trkpt>
      <trkpt lat="42.3536560" lon="-4.8652690">
        <ele>876.2</ele>
        <time>2021-10-02T08:12:43Z</time>
      </trkpt>
      <trkpt lat="42.3536900" lon="-4.8653010">
        <ele>875.8</ele>
        <time>2021-10-02T08:12:44Z</time>
      </trkpt>
      <trkpt lat="42.3536990" lon="-4.8654120">
        <ele>874.8</ele>
        <time>2021-10-02T08:12:47Z</time>
      </trkpt>
      <trkpt lat="42.3536810" lon="-4.8654560">
        <ele>874.6</ele>
        <time>2021-10-02T08:12:48Z</time>
      </trkpt>
      <trkpt lat="42.3536470" lon="-4.8655640">
        <ele>874.4</ele>
        <time>2021-10-02T08:12:50Z</time>
      </trkpt>
      <trkpt lat="42.3535680" lon="-4.8659500">
        <ele>873.8</ele>
        <time>2021-10-02T08:12:56Z</time>
      </trkpt>
      <trkpt lat="42.3535190" lon="-4.8661480">
        <ele>872.8</ele>
        <time>2021-10-02T08:12:59Z</time>
      </trkpt>
      <trkpt lat="42.3534710" lon="-4.8664610">
        <ele>872.6</ele>
        <time>2021-10-02T08:13:05Z</time>
      </trkpt>
      <trkpt lat="42.3535200" lon="-4.8664820">
        <ele>872.6</ele>
        <time>2021-10-02T08:13:08Z</time>
      </trkpt>
      <trkpt lat="42.3535340" lon="-4.8664870">
        <ele>872.6</ele>
        <time>2021-10-02T08:13:09Z</time>
      </trkpt>
      <trkpt lat="42.3537130" lon="-4.8665800">
        <ele>872.6</ele>
        <time>2021-10-02T08:13:18Z</time>
      </trkpt>
      <trkpt lat="42.3539010" lon="-4.8666230">
        <ele>871.8</ele>
        <time>2021-10-02T08:13:24Z</time>
      </trkpt>
      <trkpt lat="42.3540410" lon="-4.8664240">
        <ele>871.6</ele>
        <time>2021-10-02T08:13:29Z</time>
      </trkpt>
      <trkpt lat="42.3542260" lon="-4.8662810">
        <ele>871.4</ele>
        <time>2021-10-02T08:13:33Z</time>
      </trkpt>
      <trkpt lat="42.3547290" lon="-4.8659430">
        <ele>871.0</ele>
        <time>2021-10-02T08:13:43Z</time>
      </trkpt>
      <trkpt lat="42.3552120" lon="-4.8656100">
        <ele>871.0</ele>
        <time>2021-10-02T08:13:53Z</time>
      </trkpt>
      <trkpt lat="42.3556950" lon="-4.8652530">
        <ele>871.2</ele>
        <time>2021-10-02T08:14:03Z</time>
      </trkpt>
      <trkpt lat="42.3562290" lon="-4.8650560">
        <ele>871.4</ele>
        <time>2021-10-02T08:14:13Z</time>
      </trkpt>
      <trkpt lat="42.3564860" lon="-4.8650480">
        <ele>870.8</ele>
        <time>2021-10-02T08:14:18Z</time>
      </trkpt>
      <trkpt lat="42.3567540" lon="-4.8650430">
        <ele>870.6</ele>
        <time>2021-10-02T08:14:23Z</time>
      </trkpt>
      <trkpt lat="42.3571870" lon="-4.8650420">
        <ele>871.4</ele>
        <time>2021-10-02T08:14:31Z</time>
      </trkpt>
      <trkpt lat="42.3574590" lon="-4.8650430">
        <ele>871.8</ele>
        <time>2021-10-02T08:14:36Z</time>
      </trkpt>
      <trkpt lat="42.3575130" lon="-4.8650450">
        <ele>871.8</ele>
        <time>2021-10-02T08:14:37Z</time>
      </trkpt>
      <trkpt lat="42.3580770" lon="-4.8650790">
        <ele>872.8</ele>
        <time>2021-10-02T08:14:47Z</time>
      </trkpt>
      <trkpt lat="42.3581300" lon="-4.8650900">
        <ele>872.8</ele>
        <time>2021-10-02T08:14:48Z</time>
      </trkpt>
      <trkpt lat="42.3583810" lon="-4.8651290">
        <ele>873.2</ele>
        <time>2021-10-02T08:14:53Z</time>
      </trkpt>
      <trkpt lat="42.3584810" lon="-4.8651660">
        <ele>873.2</ele>
        <time>2021-10-02T08:14:56Z</time>
      </trkpt>
      <trkpt lat="42.3585270" lon="-4.8653060">
        <ele>873.2</ele>
        <time>2021-10-02T08:15:00Z</time>
      </trkpt>
      <trkpt lat="42.3585390" lon="-4.8653380">
        <ele>873.2</ele>
        <time>2021-10-02T08:15:01Z</time>
      </trkpt>
      <trkpt lat="42.3585640" lon="-4.8653990">
        <ele>873.2</ele>
        <time>2021-10-02T08:15:03Z</time>
      </trkpt>
      <trkpt lat="42.3587560" lon="-4.8654360">
        <ele>873.2</ele>
        <time>2021-10-02T08:15:08Z</time>
      </trkpt>
      <trkpt lat="42.3589170" lon="-4.8654690">
        <ele>873.0</ele>
        <time>2021-10-02T08:15:11Z</time>
      </trkpt>
      <trkpt lat="42.3590300" lon="-4.8654970">
        <ele>872.6</ele>
        <time>2021-10-02T08:15:13Z</time>
      </trkpt>
      <trkpt lat="42.3592700" lon="-4.8655660">
        <ele>872.6</ele>
        <time>2021-10-02T08:15:17Z</time>
      </trkpt>
      <trkpt lat="42.3595250" lon="-4.8656330">
        <ele>872.6</ele>
        <time>2021-10-02T08:15:21Z</time>
      </trkpt>
      <trkpt lat="42.3597900" lon="-4.8657180">
        <ele>872.6</ele>
        <time>2021-10-02T08:15:25Z</time>
      </trkpt>
      <trkpt lat="42.3603170" lon="-4.8658790">
        <ele>873.0</ele>
        <time>2021-10-02T08:15:33Z</time>
      </trkpt>
      <trkpt lat="42.3608410" lon="-4.8659970">
        <ele>873.0</ele>
        <time>2021-10-02T08:15:41Z</time>
      </trkpt>
      <trkpt lat="42.3611150" lon="-4.8660700">
        <ele>873.2</ele>
        <time>2021-10-02T08:15:45Z</time>
      </trkpt>
      <trkpt lat="42.3616710" lon="-4.8662510">
        <ele>873.4</ele>
        <time>2021-10-02T08:15:53Z</time>
      </trkpt>
      <trkpt lat="42.3619480" lon="-4.8663340">
        <ele>873.4</ele>
        <time>2021-10-02T08:15:57Z</time>
      </trkpt>
      <trkpt lat="42.3621340" lon="-4.8663930">
        <ele>873.4</ele>
        <time>2021-10-02T08:16:00Z</time>
      </trkpt>
      <trkpt lat="42.3622360" lon="-4.8664330">
        <ele>873.4</ele>
        <time>2021-10-02T08:16:02Z</time>
      </trkpt>
      <trkpt lat="42.3624190" lon="-4.8665200">
        <ele>873.6</ele>
        <time>2021-10-02T08:16:06Z</time>
      </trkpt>
      <trkpt lat="42.3625680" lon="-4.8666280">
        <ele>873.8</ele>
        <time>2021-10-02T08:16:09Z</time>
      </trkpt>
      <trkpt lat="42.3627720" lon="-4.8668130">
        <ele>873.8</ele>
        <time>2021-10-02T08:16:13Z</time>
      </trkpt>
      <trkpt lat="42.3630390" lon="-4.8671300">
        <ele>874.0</ele>
        <time>2021-10-02T08:16:19Z</time>
      </trkpt>
      <trkpt lat="42.3631090" lon="-4.8672420">
        <ele>874.0</ele>
        <time>2021-10-02T08:16:21Z</time>
      </trkpt>
      <trkpt lat="42.3632440" lon="-4.8673330">
        <ele>874.2</ele>
        <time>2021-10-02T08:16:26Z</time>
      </trkpt>
      <trkpt lat="42.3633010" lon="-4.8674550">
        <ele>874.2</ele>
        <time>2021-10-02T08:16:29Z</time>
      </trkpt>
      <trkpt lat="42.3633850" lon="-4.8676520">
        <ele>874.2</ele>
        <time>2021-10-02T08:16:32Z</time>
      </trkpt>
      <trkpt lat="42.3634670" lon="-4.8678700">
        <ele>874.2</ele>
        <time>2021-10-02T08:16:35Z</time>
      </trkpt>
      <trkpt lat="42.3635540" lon="-4.8680810">
        <ele>874.0</ele>
        <time>2021-10-02T08:16:38Z</time>
      </trkpt>
      <trkpt lat="42.3636400" lon="-4.8682560">
        <ele>874.0</ele>
        <time>2021-10-02T08:16:41Z</time>
      </trkpt>
      <trkpt lat="42.3636170" lon="-4.8683570">
        <ele>873.8</ele>
        <time>2021-10-02T08:16:45Z</time>
      </trkpt>
      <trkpt lat="42.3636030" lon="-4.8683760">
        <ele>873.8</ele>
        <time>2021-10-02T08:16:46Z</time>
      </trkpt>
      <trkpt lat="42.3635810" lon="-4.8684310">
        <ele>873.8</ele>
        <time>2021-10-02T08:16:48Z</time>
      </trkpt>
      <trkpt lat="42.3636630" lon="-4.8686630">
        <ele>873.8</ele>
        <time>2021-10-02T08:16:53Z</time>
      </trkpt>
      <trkpt lat="42.3637970" lon="-4.8690010">
        <ele>873.4</ele>
        <time>2021-10-02T08:16:58Z</time>
      </trkpt>
      <trkpt lat="42.3639660" lon="-4.8694360">
        <ele>873.2</ele>
        <time>2021-10-02T08:17:04Z</time>
      </trkpt>
      <trkpt lat="42.3642200" lon="-4.8700800">
        <ele>873.6</ele>
        <time>2021-10-02T08:17:13Z</time>
      </trkpt>
      <trkpt lat="42.3644830" lon="-4.8707890">
        <ele>874.0</ele>
        <time>2021-10-02T08:17:23Z</time>
      </trkpt>
      <trkpt lat="42.3647260" lon="-4.8713910">
        <ele>874.8</ele>
        <time>2021-10-02T08:17:32Z</time>
      </trkpt>
      <trkpt lat="42.3649080" lon="-4.8718570">
        <ele>875.0</ele>
        <time>2021-10-02T08:17:39Z</time>
      </trkpt>
      <trkpt lat="42.3650940" lon="-4.8723530">
        <ele>875.8</ele>
        <time>2021-10-02T08:17:47Z</time>
      </trkpt>
      <trkpt lat="42.3652090" lon="-4.8726490">
        <ele>876.2</ele>
        <time>2021-10-02T08:17:52Z</time>
      </trkpt>
      <trkpt lat="42.3653220" lon="-4.8729540">
        <ele>876.6</ele>
        <time>2021-10-02T08:17:57Z</time>
      </trkpt>
      <trkpt lat="42.3653680" lon="-4.8730740">
        <ele>876.8</ele>
        <time>2021-10-02T08:17:59Z</time>
      </trkpt>
      <trkpt lat="42.3656430" lon="-4.8737710">
        <ele>877.8</ele>
        <time>2021-10-02T08:18:11Z</time>
      </trkpt>
      <trkpt lat="42.3656640" lon="-4.8738300">
        <ele>877.8</ele>
        <time>2021-10-02T08:18:12Z</time>
      </trkpt>
      <trkpt lat="42.3658810" lon="-4.8745080">
        <ele>878.0</ele>
        <time>2021-10-02T08:18:23Z</time>
      </trkpt>
      <trkpt lat="42.3659740" lon="-4.8750280">
        <ele>878.2</ele>
        <time>2021-10-02T08:18:31Z</time>
      </trkpt>
      <trkpt lat="42.3660020" lon="-4.8752700">
        <ele>878.2</ele>
        <time>2021-10-02T08:18:35Z</time>
      </trkpt>
      <trkpt lat="42.3659620" lon="-4.8759310">
        <ele>878.0</ele>
        <time>2021-10-02T08:18:47Z</time>
      </trkpt>
      <trkpt lat="42.3659510" lon="-4.8760450">
        <ele>878.0</ele>
        <time>2021-10-02T08:18:49Z</time>
      </trkpt>
      <trkpt lat="42.3658650" lon="-4.8768210">
        <ele>878.4</ele>
        <time>2021-10-02T08:19:01Z</time>
      </trkpt>
      <trkpt lat="42.3658470" lon="-4.8770280">
        <ele>878.4</ele>
        <time>2021-10-02T08:19:04Z</time>
      </trkpt>
      <trkpt lat="42.3658160" lon="-4.8772290">
        <ele>878.4</ele>
        <time>2021-10-02T08:19:07Z</time>
      </trkpt>
      <trkpt lat="42.3658100" lon="-4.8772970">
        <ele>878.4</ele>
        <time>2021-10-02T08:19:08Z</time>
      </trkpt>
      <trkpt lat="42.3658040" lon="-4.8775780">
        <ele>878.0</ele>
        <time>2021-10-02T08:19:12Z</time>
      </trkpt>
      <trkpt lat="42.3656980" lon="-4.8783570">
        <ele>877.8</ele>
        <time>2021-10-02T08:19:23Z</time>
      </trkpt>
      <trkpt lat="42.3655970" lon="-4.8791260">
        <ele>878.4</ele>
        <time>2021-10-02T08:19:34Z</time>
      </trkpt>
      <trkpt lat="42.3655330" lon="-4.8797740">
        <ele>879.0</ele>
        <time>2021-10-02T08:19:43Z</time>
      </trkpt>
      <trkpt lat="42.3654480" lon="-4.8805290">
        <ele>879.4</ele>
        <time>2021-10-02T08:19:53Z</time>
      </trkpt>
      <trkpt lat="42.3653490" lon="-4.8813020">
        <ele>879.8</ele>
        <time>2021-10-02T08:20:03Z</time>
      </trkpt>
      <trkpt lat="42.3653330" lon="-4.8814560">
        <ele>879.8</ele>
        <time>2021-10-02T08:20:05Z</time>
      </trkpt>
      <trkpt lat="42.3653030" lon="-4.8816900">
        <ele>880.0</ele>
        <time>2021-10-02T08:20:08Z</time>
      </trkpt>
      <trkpt lat="42.3652740" lon="-4.8819320">
        <ele>880.4</ele>
        <time>2021-10-02T08:20:11Z</time>
      </trkpt>
      <trkpt lat="42.3652100" lon="-4.8825370">
        <ele>880.6</ele>
        <time>2021-10-02T08:20:18Z</time>
      </trkpt>
      <trkpt lat="42.3651420" lon="-4.8830890">
        <ele>880.8</ele>
        <time>2021-10-02T08:20:24Z</time>
      </trkpt>
      <trkpt lat="42.3650800" lon="-4.8836710">
        <ele>880.6</ele>
        <time>2021-10-02T08:20:30Z</time>
      </trkpt>
      <trkpt lat="42.3650480" lon="-4.8839610">
        <ele>880.6</ele>
        <time>2021-10-02T08:20:33Z</time>
      </trkpt>
      <trkpt lat="42.3649590" lon="-4.8846980">
        <ele>880.6</ele>
        <time>2021-10-02T08:20:41Z</time>
      </trkpt>
      <trkpt lat="42.3648660" lon="-4.8854570">
        <ele>880.8</ele>
        <time>2021-10-02T08:20:50Z</time>
      </trkpt>
      <trkpt lat="42.3648430" lon="-4.8858340">
        <ele>881.0</ele>
        <time>2021-10-02T08:20:55Z</time>
      </trkpt>
      <trkpt lat="42.3647620" lon="-4.8865640">
        <ele>881.2</ele>
        <time>2021-10-02T08:21:04Z</time>
      </trkpt>
      <trkpt lat="42.3647430" lon="-4.8867250">
        <ele>881.2</ele>
        <time>2021-10-02T08:21:06Z</time>
      </trkpt>
      <trkpt lat="42.3646710" lon="-4.8872720">
        <ele>881.6</ele>
        <time>2021-10-02T08:21:13Z</time>
      </trkpt>
      <trkpt lat="42.3646680" lon="-4.8873400">
        <ele>881.6</ele>
        <time>2021-10-02T08:21:14Z</time>
      </trkpt>
      <trkpt lat="42.3646180" lon="-4.8876790">
        <ele>882.0</ele>
        <time>2021-10-02T08:21:20Z</time>
      </trkpt>
      <trkpt lat="42.3645040" lon="-4.8879680">
        <ele>882.0</ele>
        <time>2021-10-02T08:21:24Z</time>
      </trkpt>
      <trkpt lat="42.3643610" lon="-4.8884320">
        <ele>881.8</ele>
        <time>2021-10-02T08:21:30Z</time>
      </trkpt>
      <trkpt lat="42.3643020" lon="-4.8886660">
        <ele>881.8</ele>
        <time>2021-10-02T08:21:33Z</time>
      </trkpt>
      <trkpt lat="42.3642570" lon="-4.8888190">
        <ele>881.6</ele>
        <time>2021-10-02T08:21:35Z</time>
      </trkpt>
      <trkpt lat="42.3642280" lon="-4.8888920">
        <ele>881.6</ele>
        <time>2021-10-02T08:21:36Z</time>
      </trkpt>
      <trkpt lat="42.3641620" lon="-4.8890320">
        <ele>881.6</ele>
        <time>2021-10-02T08:21:38Z</time>
      </trkpt>
      <trkpt lat="42.3640880" lon="-4.8891660">
        <ele>881.6</ele>
        <time>2021-10-02T08:21:40Z</time>
      </trkpt>
      <trkpt lat="42.3640040" lon="-4.8892900">
        <ele>881.6</ele>
        <time>2021-10-02T08:21:42Z</time>
      </trkpt>
      <trkpt lat="42.3639100" lon="-4.8894000">
        <ele>881.4</ele>
        <time>2021-10-02T08:21:44Z</time>
      </trkpt>
      <trkpt lat="42.3635830" lon="-4.8896980">
        <ele>881.4</ele>
        <time>2021-10-02T08:21:50Z</time>
      </trkpt>
      <trkpt lat="42.3631830" lon="-4.8900890">
        <ele>880.4</ele>
        <time>2021-10-02T08:21:57Z</time>
      </trkpt>
      <trkpt lat="42.3631390" lon="-4.8901550">
        <ele>880.0</ele>
        <time>2021-10-02T08:21:58Z</time>
      </trkpt>
      <trkpt lat="42.3631000" lon="-4.8902200">
        <ele>879.4</ele>
        <time>2021-10-02T08:21:59Z</time>
      </trkpt>
      <trkpt lat="42.3630600" lon="-4.8902780">
        <ele>879.2</ele>
        <time>2021-10-02T08:22:00Z</time>
      </trkpt>
      <trkpt lat="42.3630170" lon="-4.8903250">
        <ele>879.0</ele>
        <time>2021-10-02T08:22:01Z</time>
      </trkpt>
      <trkpt lat="42.3627930" lon="-4.8903470">
        <ele>878.8</ele>
        <time>2021-10-02T08:22:05Z</time>
      </trkpt>
      <trkpt lat="42.3626650" lon="-4.8903410">
        <ele>878.8</ele>
        <time>2021-10-02T08:22:07Z</time>
      </trkpt>
      <trkpt lat="42.3623940" lon="-4.8905990">
        <ele>878.8</ele>
        <time>2021-10-02T08:22:12Z</time>
      </trkpt>
      <trkpt lat="42.3621280" lon="-4.8910380">
        <ele>878.8</ele>
        <time>2021-10-02T08:22:18Z</time>
      </trkpt>
      <trkpt lat="42.3622130" lon="-4.8913490">
        <ele>878.8</ele>
        <time>2021-10-02T08:22:24Z</time>
      </trkpt>
      <trkpt lat="42.3622610" lon="-4.8913620">
        <ele>878.8</ele>
        <time>2021-10-02T08:22:25Z</time>
      </trkpt>
      <trkpt lat="42.3623540" lon="-4.8913940">
        <ele>878.8</ele>
        <time>2021-10-02T08:22:27Z</time>
      </trkpt>
      <trkpt lat="42.3624300" lon="-4.8914660">
        <ele>878.8</ele>
        <time>2021-10-02T08:22:29Z</time>
      </trkpt>
      <trkpt lat="42.3624620" lon="-4.8915850">
        <ele>878.8</ele>
        <time>2021-10-02T08:22:31Z</time>
      </trkpt>
      <trkpt lat="42.3624490" lon="-4.8917180">
        <ele>878.8</ele>
        <time>2021-10-02T08:22:33Z</time>
      </trkpt>
      <trkpt lat="42.3624290" lon="-4.8919220">
        <ele>878.6</ele>
        <time>2021-10-02T08:22:36Z</time>
      </trkpt>
      <trkpt lat="42.3623970" lon="-4.8921870">
        <ele>878.4</ele>
        <time>2021-10-02T08:22:40Z</time>
      </trkpt>
      <trkpt lat="42.3623500" lon="-4.8923800">
        <ele>878.4</ele>
        <time>2021-10-02T08:22:45Z</time>
      </trkpt>
      <trkpt lat="42.3623170" lon="-4.8924270">
        <ele>878.6</ele>
        <time>2021-10-02T08:22:54Z</time>
      </trkpt>
      <trkpt lat="42.3622570" lon="-4.8925700">
        <ele>878.6</ele>
        <time>2021-10-02T08:22:57Z</time>
      </trkpt>
      <trkpt lat="42.3621750" lon="-4.8927710">
        <ele>878.6</ele>
        <time>2021-10-02T08:23:00Z</time>
      </trkpt>
      <trkpt lat="42.3619090" lon="-4.8935080">
        <ele>878.8</ele>
        <time>2021-10-02T08:23:09Z</time>
      </trkpt>
      <trkpt lat="42.3616750" lon="-4.8942420">
        <ele>879.0</ele>
        <time>2021-10-02T08:23:17Z</time>
      </trkpt>
      <trkpt lat="42.3613860" lon="-4.8949420">
        <ele>879.2</ele>
        <time>2021-10-02T08:23:25Z</time>
      </trkpt>
      <trkpt lat="42.3611290" lon="-4.8956340">
        <ele>879.0</ele>
        <time>2021-10-02T08:23:33Z</time>
      </trkpt>
      <trkpt lat="42.3610470" lon="-4.8960030">
        <ele>877.6</ele>
        <time>2021-10-02T08:23:37Z</time>
      </trkpt>
      <trkpt lat="42.3609830" lon="-4.8963780">
        <ele>876.4</ele>
        <time>2021-10-02T08:23:41Z</time>
      </trkpt>
      <trkpt lat="42.3608850" lon="-4.8969190">
        <ele>876.0</ele>
        <time>2021-10-02T08:23:47Z</time>
      </trkpt>
      <trkpt lat="42.3607750" lon="-4.8974890">
        <ele>876.2</ele>
        <time>2021-10-02T08:23:53Z</time>
      </trkpt>
      <trkpt lat="42.3607350" lon="-4.8977050">
        <ele>876.2</ele>
        <time>2021-10-02T08:23:55Z</time>
      </trkpt>
      <trkpt lat="42.3606760" lon="-4.8980330">
        <ele>876.6</ele>
        <time>2021-10-02T08:23:58Z</time>
      </trkpt>
      <trkpt lat="42.3606140" lon="-4.8985660">
        <ele>876.6</ele>
        <time>2021-10-02T08:24:03Z</time>
      </trkpt>
      <trkpt lat="42.3606190" lon="-4.8993890">
        <ele>876.8</ele>
        <time>2021-10-02T08:24:11Z</time>
      </trkpt>
      <trkpt lat="42.3605110" lon="-4.9002060">
        <ele>876.4</ele>
        <time>2021-10-02T08:24:19Z</time>
      </trkpt>
      <trkpt lat="42.3603960" lon="-4.9009230">
        <ele>876.2</ele>
        <time>2021-10-02T08:24:26Z</time>
      </trkpt>
      <trkpt lat="42.3603550" lon="-4.9016510">
        <ele>876.6</ele>
        <time>2021-10-02T08:24:33Z</time>
      </trkpt>
      <trkpt lat="42.3603520" lon="-4.9024760">
        <ele>877.2</ele>
        <time>2021-10-02T08:24:41Z</time>
      </trkpt>
      <trkpt lat="42.3604230" lon="-4.9029540">
        <ele>877.2</ele>
        <time>2021-10-02T08:24:46Z</time>
      </trkpt>
      <trkpt lat="42.3604510" lon="-4.9030430">
        <ele>877.2</ele>
        <time>2021-10-02T08:24:47Z</time>
      </trkpt>
      <trkpt lat="42.3605080" lon="-4.9032200">
        <ele>877.2</ele>
        <time>2021-10-02T08:24:49Z</time>
      </trkpt>
      <trkpt lat="42.3605790" lon="-4.9034910">
        <ele>877.2</ele>
        <time>2021-10-02T08:24:52Z</time>
      </trkpt>
      <trkpt lat="42.3607450" lon="-4.9040560">
        <ele>877.2</ele>
        <time>2021-10-02T08:24:58Z</time>
      </trkpt>
      <trkpt lat="42.3609030" lon="-4.9044370">
        <ele>877.2</ele>
        <time>2021-10-02T08:25:02Z</time>
      </trkpt>
      <trkpt lat="42.3612090" lon="-4.9050740">
        <ele>877.2</ele>
        <time>2021-10-02T08:25:09Z</time>
      </trkpt>
      <trkpt lat="42.3612900" lon="-4.9052330">
        <ele>877.2</ele>
        <time>2021-10-02T08:25:11Z</time>
      </trkpt>
      <trkpt lat="42.3613230" lon="-4.9053070">
        <ele>877.2</ele>
        <time>2021-10-02T08:25:12Z</time>
      </trkpt>
      <trkpt lat="42.3612810" lon="-4.9057690">
        <ele>877.0</ele>
        <time>2021-10-02T08:25:18Z</time>
      </trkpt>
      <trkpt lat="42.3612070" lon="-4.9059220">
        <ele>877.0</ele>
        <time>2021-10-02T08:25:20Z</time>
      </trkpt>
      <trkpt lat="42.3611690" lon="-4.9060020">
        <ele>876.8</ele>
        <time>2021-10-02T08:25:21Z</time>
      </trkpt>
      <trkpt lat="42.3610910" lon="-4.9061670">
        <ele>876.6</ele>
        <time>2021-10-02T08:25:23Z</time>
      </trkpt>
      <trkpt lat="42.3610140" lon="-4.9063370">
        <ele>876.6</ele>
        <time>2021-10-02T08:25:25Z</time>
      </trkpt>
      <trkpt lat="42.3608990" lon="-4.9065830">
        <ele>876.6</ele>
        <time>2021-10-02T08:25:28Z</time>
      </trkpt>
      <trkpt lat="42.3605950" lon="-4.9072310">
        <ele>877.0</ele>
        <time>2021-10-02T08:25:36Z</time>
      </trkpt>
      <trkpt lat="42.3602990" lon="-4.9078710">
        <ele>877.0</ele>
        <time>2021-10-02T08:25:44Z</time>
      </trkpt>
      <trkpt lat="42.3600750" lon="-4.9083500">
        <ele>877.2</ele>
        <time>2021-10-02T08:25:50Z</time>
      </trkpt>
      <trkpt lat="42.3597730" lon="-4.9089910">
        <ele>877.2</ele>
        <time>2021-10-02T08:25:58Z</time>
      </trkpt>
      <trkpt lat="42.3594610" lon="-4.9093820">
        <ele>877.2</ele>
        <time>2021-10-02T08:26:04Z</time>
      </trkpt>
      <trkpt lat="42.3592800" lon="-4.9095380">
        <ele>877.0</ele>
        <time>2021-10-02T08:26:07Z</time>
      </trkpt>
      <trkpt lat="42.3591560" lon="-4.9098510">
        <ele>877.0</ele>
        <time>2021-10-02T08:26:11Z</time>
      </trkpt>
      <trkpt lat="42.3591270" lon="-4.9100610">
        <ele>876.8</ele>
        <time>2021-10-02T08:26:13Z</time>
      </trkpt>
      <trkpt lat="42.3592390" lon="-4.9106090">
        <ele>876.8</ele>
        <time>2021-10-02T08:26:18Z</time>
      </trkpt>
      <trkpt lat="42.3593560" lon="-4.9109220">
        <ele>876.2</ele>
        <time>2021-10-02T08:26:21Z</time>
      </trkpt>
      <trkpt lat="42.3594190" lon="-4.9111270">
        <ele>876.0</ele>
        <time>2021-10-02T08:26:23Z</time>
      </trkpt>
      <trkpt lat="42.3593520" lon="-4.9116110">
        <ele>875.4</ele>
        <time>2021-10-02T08:26:28Z</time>
      </trkpt>
      <trkpt lat="42.3593290" lon="-4.9116890">
        <ele>875.2</ele>
        <time>2021-10-02T08:26:29Z</time>
      </trkpt>
      <trkpt lat="42.3592980" lon="-4.9118350">
        <ele>875.4</ele>
        <time>2021-10-02T08:26:31Z</time>
      </trkpt>
      <trkpt lat="42.3592900" lon="-4.9120380">
        <ele>875.2</ele>
        <time>2021-10-02T08:26:34Z</time>
      </trkpt>
      <trkpt lat="42.3592940" lon="-4.9120940">
        <ele>875.2</ele>
        <time>2021-10-02T08:26:35Z</time>
      </trkpt>
      <trkpt lat="42.3593040" lon="-4.9122240">
        <ele>875.2</ele>
        <time>2021-10-02T08:26:37Z</time>
      </trkpt>
      <trkpt lat="42.3593720" lon="-4.9126780">
        <ele>875.0</ele>
        <time>2021-10-02T08:26:42Z</time>
      </trkpt>
      <trkpt lat="42.3594710" lon="-4.9129370">
        <ele>875.0</ele>
        <time>2021-10-02T08:26:45Z</time>
      </trkpt>
      <trkpt lat="42.3596490" lon="-4.9133360">
        <ele>874.8</ele>
        <time>2021-10-02T08:26:50Z</time>
      </trkpt>
      <trkpt lat="42.3597070" lon="-4.9134990">
        <ele>874.8</ele>
        <time>2021-10-02T08:26:52Z</time>
      </trkpt>
      <trkpt lat="42.3597820" lon="-4.9137610">
        <ele>874.8</ele>
        <time>2021-10-02T08:26:55Z</time>
      </trkpt>
      <trkpt lat="42.3598370" lon="-4.9139450">
        <ele>875.0</ele>
        <time>2021-10-02T08:26:57Z</time>
      </trkpt>
      <trkpt lat="42.3599160" lon="-4.9142090">
        <ele>875.0</ele>
        <time>2021-10-02T08:27:00Z</time>
      </trkpt>
      <trkpt lat="42.3599430" lon="-4.9142930">
        <ele>874.8</ele>
        <time>2021-10-02T08:27:01Z</time>
      </trkpt>
      <trkpt lat="42.3600890" lon="-4.9146840">
        <ele>874.8</ele>
        <time>2021-10-02T08:27:06Z</time>
      </trkpt>
      <trkpt lat="42.3603590" lon="-4.9154040">
        <ele>874.8</ele>
        <time>2021-10-02T08:27:16Z</time>
      </trkpt>
      <trkpt lat="42.3606050" lon="-4.9159820">
        <ele>874.6</ele>
        <time>2021-10-02T08:27:25Z</time>
      </trkpt>
      <trkpt lat="42.3607480" lon="-4.9165120">
        <ele>874.6</ele>
        <time>2021-10-02T08:27:33Z</time>
      </trkpt>
      <trkpt lat="42.3607780" lon="-4.9166420">
        <ele>874.4</ele>
        <time>2021-10-02T08:27:35Z</time>
      </trkpt>
      <trkpt lat="42.3608770" lon="-4.9170870">
        <ele>873.2</ele>
        <time>2021-10-02T08:27:42Z</time>
      </trkpt>
      <trkpt lat="42.3608720" lon="-4.9178570">
        <ele>872.8</ele>
        <time>2021-10-02T08:27:54Z</time>
      </trkpt>
      <trkpt lat="42.3608090" lon="-4.9186230">
        <ele>872.6</ele>
        <time>2021-10-02T08:28:07Z</time>
      </trkpt>
      <trkpt lat="42.3607990" lon="-4.9188640">
        <ele>871.6</ele>
        <time>2021-10-02T08:28:11Z</time>
      </trkpt>
      <trkpt lat="42.3607780" lon="-4.9194390">
        <ele>870.8</ele>
        <time>2021-10-02T08:28:21Z</time>
      </trkpt>
      <trkpt lat="42.3607630" lon="-4.9202110">
        <ele>870.8</ele>
        <time>2021-10-02T08:28:35Z</time>
      </trkpt>
      <trkpt lat="42.3607840" lon="-4.9209830">
        <ele>870.8</ele>
        <time>2021-10-02T08:28:48Z</time>
      </trkpt>
      <trkpt lat="42.3607890" lon="-4.9210410">
        <ele>870.6</ele>
        <time>2021-10-02T08:28:49Z</time>
      </trkpt>
      <trkpt lat="42.3609310" lon="-4.9216930">
        <ele>870.4</ele>
        <time>2021-10-02T08:29:00Z</time>
      </trkpt>
      <trkpt lat="42.3609850" lon="-4.9221570">
        <ele>870.4</ele>
        <time>2021-10-02T08:29:07Z</time>
      </trkpt>
      <trkpt lat="42.3609830" lon="-4.9223990">
        <ele>870.4</ele>
        <time>2021-10-02T08:29:10Z</time>
      </trkpt>
      <trkpt lat="42.3609760" lon="-4.9226620">
        <ele>870.4</ele>
        <time>2021-10-02T08:29:13Z</time>
      </trkpt>
      <trkpt lat="42.3609650" lon="-4.9229350">
        <ele>870.0</ele>
        <time>2021-10-02T08:29:16Z</time>
      </trkpt>
      <trkpt lat="42.3609430" lon="-4.9232200">
        <ele>870.2</ele>
        <time>2021-10-02T08:29:19Z</time>
      </trkpt>
      <trkpt lat="42.3608990" lon="-4.9235190">
        <ele>870.0</ele>
        <time>2021-10-02T08:29:22Z</time>
      </trkpt>
      <trkpt lat="42.3608450" lon="-4.9238260">
        <ele>869.8</ele>
        <time>2021-10-02T08:29:25Z</time>
      </trkpt>
      <trkpt lat="42.3607690" lon="-4.9242190">
        <ele>869.8</ele>
        <time>2021-10-02T08:29:29Z</time>
      </trkpt>
      <trkpt lat="42.3607150" lon="-4.9244990">
        <ele>869.8</ele>
        <time>2021-10-02T08:29:32Z</time>
      </trkpt>
      <trkpt lat="42.3606160" lon="-4.9249420">
        <ele>870.0</ele>
        <time>2021-10-02T08:29:37Z</time>
      </trkpt>
      <trkpt lat="42.3605510" lon="-4.9252000">
        <ele>870.0</ele>
        <time>2021-10-02T08:29:40Z</time>
      </trkpt>
      <trkpt lat="42.3605100" lon="-4.9253730">
        <ele>870.0</ele>
        <time>2021-10-02T08:29:42Z</time>
      </trkpt>
      <trkpt lat="42.3604510" lon="-4.9256280">
        <ele>870.0</ele>
        <time>2021-10-02T08:29:45Z</time>
      </trkpt>
      <trkpt lat="42.3604170" lon="-4.9257970">
        <ele>870.0</ele>
        <time>2021-10-02T08:29:47Z</time>
      </trkpt>
      <trkpt lat="42.3604010" lon="-4.9258790">
        <ele>870.0</ele>
        <time>2021-10-02T08:29:48Z</time>
      </trkpt>
      <trkpt lat="42.3603850" lon="-4.9259590">
        <ele>870.0</ele>
        <time>2021-10-02T08:29:49Z</time>
      </trkpt>
      <trkpt lat="42.3603620" lon="-4.9261180">
        <ele>870.0</ele>
        <time>2021-10-02T08:29:51Z</time>
      </trkpt>
      <trkpt lat="42.3604410" lon="-4.9263070">
        <ele>870.0</ele>
        <time>2021-10-02T08:29:54Z</time>
      </trkpt>
      <trkpt lat="42.3604850" lon="-4.9263450">
        <ele>870.0</ele>
        <time>2021-10-02T08:29:55Z</time>
      </trkpt>
      <trkpt lat="42.3605260" lon="-4.9263830">
        <ele>870.0</ele>
        <time>2021-10-02T08:29:56Z</time>
      </trkpt>
      <trkpt lat="42.3605770" lon="-4.9264900">
        <ele>870.0</ele>
        <time>2021-10-02T08:29:58Z</time>
      </trkpt>
      <trkpt lat="42.3606290" lon="-4.9266810">
        <ele>870.0</ele>
        <time>2021-10-02T08:30:01Z</time>
      </trkpt>
      <trkpt lat="42.3604760" lon="-4.9271260">
        <ele>870.0</ele>
        <time>2021-10-02T08:30:08Z</time>
      </trkpt>
      <trkpt lat="42.3603190" lon="-4.9272280">
        <ele>869.8</ele>
        <time>2021-10-02T08:30:11Z</time>
      </trkpt>
      <trkpt lat="42.3601680" lon="-4.9273490">
        <ele>869.6</ele>
        <time>2021-10-02T08:30:14Z</time>
      </trkpt>
      <trkpt lat="42.3600400" lon="-4.9276380">
        <ele>869.6</ele>
        <time>2021-10-02T08:30:18Z</time>
      </trkpt>
      <trkpt lat="42.3599870" lon="-4.9278880">
        <ele>869.4</ele>
        <time>2021-10-02T08:30:21Z</time>
      </trkpt>
      <trkpt lat="42.3599090" lon="-4.9283030">
        <ele>869.4</ele>
        <time>2021-10-02T08:30:26Z</time>
      </trkpt>
      <trkpt lat="42.3597660" lon="-4.9288390">
        <ele>869.6</ele>
        <time>2021-10-02T08:30:33Z</time>
      </trkpt>
      <trkpt lat="42.3597060" lon="-4.9289730">
        <ele>869.8</ele>
        <time>2021-10-02T08:30:35Z</time>
      </trkpt>
      <trkpt lat="42.3594240" lon="-4.9293850">
        <ele>869.8</ele>
        <time>2021-10-02T08:30:42Z</time>
      </trkpt>
      <trkpt lat="42.3590330" lon="-4.9299710">
        <ele>869.8</ele>
        <time>2021-10-02T08:30:52Z</time>
      </trkpt>
      <trkpt lat="42.3588290" lon="-4.9306860">
        <ele>869.8</ele>
        <time>2021-10-02T08:31:02Z</time>
      </trkpt>
      <trkpt lat="42.3587630" lon="-4.9312630">
        <ele>869.4</ele>
        <time>2021-10-02T08:31:10Z</time>
      </trkpt>
      <trkpt lat="42.3589120" lon="-4.9319930">
        <ele>869.6</ele>
        <time>2021-10-02T08:31:21Z</time>
      </trkpt>
      <trkpt lat="42.3589880" lon="-4.9323500">
        <ele>869.4</ele>
        <time>2021-10-02T08:31:27Z</time>
      </trkpt>
      <trkpt lat="42.3590980" lon="-4.9328120">
        <ele>869.2</ele>
        <time>2021-10-02T08:31:35Z</time>
      </trkpt>
      <trkpt lat="42.3591460" lon="-4.9329820">
        <ele>867.8</ele>
        <time>2021-10-02T08:31:38Z</time>
      </trkpt>
      <trkpt lat="42.3591840" lon="-4.9331370">
        <ele>866.6</ele>
        <time>2021-10-02T08:31:41Z</time>
      </trkpt>
      <trkpt lat="42.3592360" lon="-4.9333060">
        <ele>866.0</ele>
        <time>2021-10-02T08:31:45Z</time>
      </trkpt>
      <trkpt lat="42.3594420" lon="-4.9339930">
        <ele>866.2</ele>
        <time>2021-10-02T08:31:56Z</time>
      </trkpt>
      <trkpt lat="42.3595510" lon="-4.9344540">
        <ele>866.2</ele>
        <time>2021-10-02T08:32:03Z</time>
      </trkpt>
      <trkpt lat="42.3596420" lon="-4.9352370">
        <ele>866.4</ele>
        <time>2021-10-02T08:32:14Z</time>
      </trkpt>
      <trkpt lat="42.3596750" lon="-4.9355700">
        <ele>866.4</ele>
        <time>2021-10-02T08:32:19Z</time>
      </trkpt>
      <trkpt lat="42.3597270" lon="-4.9363660">
        <ele>866.6</ele>
        <time>2021-10-02T08:32:30Z</time>
      </trkpt>
      <trkpt lat="42.3597830" lon="-4.9371040">
        <ele>866.8</ele>
        <time>2021-10-02T08:32:40Z</time>
      </trkpt>
      <trkpt lat="42.3598070" lon="-4.9375300">
        <ele>866.8</ele>
        <time>2021-10-02T08:32:46Z</time>
      </trkpt>
      <trkpt lat="42.3596890" lon="-4.9382960">
        <ele>867.0</ele>
        <time>2021-10-02T08:32:57Z</time>
      </trkpt>
      <trkpt lat="42.3595510" lon="-4.9388880">
        <ele>867.4</ele>
        <time>2021-10-02T08:33:06Z</time>
      </trkpt>
      <trkpt lat="42.3594360" lon="-4.9395320">
        <ele>867.4</ele>
        <time>2021-10-02T08:33:16Z</time>
      </trkpt>
      <trkpt lat="42.3594320" lon="-4.9403260">
        <ele>867.8</ele>
        <time>2021-10-02T08:33:27Z</time>
      </trkpt>
      <trkpt lat="42.3595310" lon="-4.9408510">
        <ele>868.0</ele>
        <time>2021-10-02T08:33:34Z</time>
      </trkpt>
      <trkpt lat="42.3595640" lon="-4.9410030">
        <ele>868.0</ele>
        <time>2021-10-02T08:33:36Z</time>
      </trkpt>
      <trkpt lat="42.3595920" lon="-4.9411600">
        <ele>868.2</ele>
        <time>2021-10-02T08:33:38Z</time>
      </trkpt>
      <trkpt lat="42.3596010" lon="-4.9413260">
        <ele>868.2</ele>
        <time>2021-10-02T08:33:40Z</time>
      </trkpt>
      <trkpt lat="42.3595830" lon="-4.9414980">
        <ele>868.0</ele>
        <time>2021-10-02T08:33:42Z</time>
      </trkpt>
      <trkpt lat="42.3595150" lon="-4.9417730">
        <ele>868.0</ele>
        <time>2021-10-02T08:33:45Z</time>
      </trkpt>
      <trkpt lat="42.3594040" lon="-4.9421980">
        <ele>868.0</ele>
        <time>2021-10-02T08:33:49Z</time>
      </trkpt>
      <trkpt lat="42.3593570" lon="-4.9430170">
        <ele>868.0</ele>
        <time>2021-10-02T08:33:56Z</time>
      </trkpt>
      <trkpt lat="42.3592840" lon="-4.9436820">
        <ele>867.0</ele>
        <time>2021-10-02T08:34:02Z</time>
      </trkpt>
      <trkpt lat="42.3592660" lon="-4.9437850">
        <ele>866.8</ele>
        <time>2021-10-02T08:34:03Z</time>
      </trkpt>
      <trkpt lat="42.3591770" lon="-4.9442920">
        <ele>866.8</ele>
        <time>2021-10-02T08:34:08Z</time>
      </trkpt>
      <trkpt lat="42.3591610" lon="-4.9450410">
        <ele>867.0</ele>
        <time>2021-10-02T08:34:15Z</time>
      </trkpt>
      <trkpt lat="42.3591970" lon="-4.9454900">
        <ele>867.0</ele>
        <time>2021-10-02T08:34:19Z</time>
      </trkpt>
      <trkpt lat="42.3593590" lon="-4.9458730">
        <ele>867.0</ele>
        <time>2021-10-02T08:34:23Z</time>
      </trkpt>
      <trkpt lat="42.3595600" lon="-4.9460710">
        <ele>867.0</ele>
        <time>2021-10-02T08:34:26Z</time>
      </trkpt>
      <trkpt lat="42.3596340" lon="-4.9461230">
        <ele>867.0</ele>
        <time>2021-10-02T08:34:27Z</time>
      </trkpt>
      <trkpt lat="42.3598710" lon="-4.9462850">
        <ele>867.0</ele>
        <time>2021-10-02T08:34:30Z</time>
      </trkpt>
      <trkpt lat="42.3603980" lon="-4.9466360">
        <ele>867.0</ele>
        <time>2021-10-02T08:34:37Z</time>
      </trkpt>
      <trkpt lat="42.3604760" lon="-4.9466700">
        <ele>867.0</ele>
        <time>2021-10-02T08:34:38Z</time>
      </trkpt>
      <trkpt lat="42.3607250" lon="-4.9467390">
        <ele>866.2</ele>
        <time>2021-10-02T08:34:41Z</time>
      </trkpt>
      <trkpt lat="42.3611530" lon="-4.9468380">
        <ele>866.0</ele>
        <time>2021-10-02T08:34:46Z</time>
      </trkpt>
      <trkpt lat="42.3615040" lon="-4.9469760">
        <ele>866.0</ele>
        <time>2021-10-02T08:34:50Z</time>
      </trkpt>
      <trkpt lat="42.3620650" lon="-4.9473070">
        <ele>866.0</ele>
        <time>2021-10-02T08:34:56Z</time>
      </trkpt>
      <trkpt lat="42.3626390" lon="-4.9476360">
        <ele>866.0</ele>
        <time>2021-10-02T08:35:02Z</time>
      </trkpt>
      <trkpt lat="42.3631010" lon="-4.9478470">
        <ele>866.0</ele>
        <time>2021-10-02T08:35:07Z</time>
      </trkpt>
      <trkpt lat="42.3631930" lon="-4.9478990">
        <ele>866.0</ele>
        <time>2021-10-02T08:35:08Z</time>
      </trkpt>
      <trkpt lat="42.3633690" lon="-4.9480400">
        <ele>865.8</ele>
        <time>2021-10-02T08:35:10Z</time>
      </trkpt>
      <trkpt lat="42.3637630" lon="-4.9484850">
        <ele>865.8</ele>
        <time>2021-10-02T08:35:15Z</time>
      </trkpt>
      <trkpt lat="42.3642140" lon="-4.9489830">
        <ele>865.8</ele>
        <time>2021-10-02T08:35:21Z</time>
      </trkpt>
      <trkpt lat="42.3642670" lon="-4.9490560">
        <ele>865.8</ele>
        <time>2021-10-02T08:35:22Z</time>
      </trkpt>
      <trkpt lat="42.3643250" lon="-4.9495910">
        <ele>865.6</ele>
        <time>2021-10-02T08:35:28Z</time>
      </trkpt>
      <trkpt lat="42.3643260" lon="-4.9496830">
        <ele>865.6</ele>
        <time>2021-10-02T08:35:29Z</time>
      </trkpt>
      <trkpt lat="42.3643690" lon="-4.9504140">
        <ele>866.0</ele>
        <time>2021-10-02T08:35:37Z</time>
      </trkpt>
      <trkpt lat="42.3643360" lon="-4.9507690">
        <ele>866.0</ele>
        <time>2021-10-02T08:35:41Z</time>
      </trkpt>
      <trkpt lat="42.3643200" lon="-4.9510240">
        <ele>866.0</ele>
        <time>2021-10-02T08:35:44Z</time>
      </trkpt>
      <trkpt lat="42.3640180" lon="-4.9513070">
        <ele>866.2</ele>
        <time>2021-10-02T08:35:51Z</time>
      </trkpt>
      <trkpt lat="42.3638830" lon="-4.9514670">
        <ele>866.4</ele>
        <time>2021-10-02T08:35:54Z</time>
      </trkpt>
      <trkpt lat="42.3638120" lon="-4.9516110">
        <ele>866.6</ele>
        <time>2021-10-02T08:35:56Z</time>
      </trkpt>
      <trkpt lat="42.3637380" lon="-4.9517610">
        <ele>866.6</ele>
        <time>2021-10-02T08:35:58Z</time>
      </trkpt>
      <trkpt lat="42.3634720" lon="-4.9524650">
        <ele>866.6</ele>
        <time>2021-10-02T08:36:07Z</time>
      </trkpt>
      <trkpt lat="42.3634120" lon="-4.9527190">
        <ele>866.6</ele>
        <time>2021-10-02T08:36:10Z</time>
      </trkpt>
      <trkpt lat="42.3634720" lon="-4.9532320">
        <ele>866.6</ele>
        <time>2021-10-02T08:36:16Z</time>
      </trkpt>
      <trkpt lat="42.3635800" lon="-4.9535650">
        <ele>866.6</ele>
        <time>2021-10-02T08:36:20Z</time>
      </trkpt>
      <trkpt lat="42.3636860" lon="-4.9538830">
        <ele>866.6</ele>
        <time>2021-10-02T08:36:24Z</time>
      </trkpt>
      <trkpt lat="42.3637000" lon="-4.9539670">
        <ele>865.6</ele>
        <time>2021-10-02T08:36:25Z</time>
      </trkpt>
      <trkpt lat="42.3636990" lon="-4.9541350">
        <ele>864.2</ele>
        <time>2021-10-02T08:36:27Z</time>
      </trkpt>
      <trkpt lat="42.3636930" lon="-4.9542150">
        <ele>863.8</ele>
        <time>2021-10-02T08:36:28Z</time>
      </trkpt>
      <trkpt lat="42.3636890" lon="-4.9542930">
        <ele>863.6</ele>
        <time>2021-10-02T08:36:29Z</time>
      </trkpt>
      <trkpt lat="42.3637140" lon="-4.9544410">
        <ele>863.4</ele>
        <time>2021-10-02T08:36:31Z</time>
      </trkpt>
      <trkpt lat="42.3639140" lon="-4.9545600">
        <ele>863.2</ele>
        <time>2021-10-02T08:36:36Z</time>
      </trkpt>
      <trkpt lat="42.3639630" lon="-4.9545700">
        <ele>863.2</ele>
        <time>2021-10-02T08:36:37Z</time>
      </trkpt>
      <trkpt lat="42.3640560" lon="-4.9546270">
        <ele>863.2</ele>
        <time>2021-10-02T08:36:39Z</time>
      </trkpt>
      <trkpt lat="42.3641300" lon="-4.9547380">
        <ele>863.2</ele>
        <time>2021-10-02T08:36:41Z</time>
      </trkpt>
      <trkpt lat="42.3641680" lon="-4.9549580">
        <ele>863.0</ele>
        <time>2021-10-02T08:36:44Z</time>
      </trkpt>
      <trkpt lat="42.3641680" lon="-4.9550330">
        <ele>863.0</ele>
        <time>2021-10-02T08:36:45Z</time>
      </trkpt>
      <trkpt lat="42.3641650" lon="-4.9551770">
        <ele>862.8</ele>
        <time>2021-10-02T08:36:47Z</time>
      </trkpt>
      <trkpt lat="42.3644080" lon="-4.9553800">
        <ele>862.4</ele>
        <time>2021-10-02T08:36:54Z</time>
      </trkpt>
      <trkpt lat="42.3647840" lon="-4.9553840">
        <ele>861.4</ele>
        <time>2021-10-02T08:37:01Z</time>
      </trkpt>
      <trkpt lat="42.3648350" lon="-4.9553800">
        <ele>861.0</ele>
        <time>2021-10-02T08:37:02Z</time>
      </trkpt>
      <trkpt lat="42.3649230" lon="-4.9553820">
        <ele>860.4</ele>
        <time>2021-10-02T08:37:04Z</time>
      </trkpt>
      <trkpt lat="42.3649720" lon="-4.9555690">
        <ele>860.0</ele>
        <time>2021-10-02T08:37:08Z</time>
      </trkpt>
      <trkpt lat="42.3649690" lon="-4.9560980">
        <ele>859.2</ele>
        <time>2021-10-02T08:37:16Z</time>
      </trkpt>
      <trkpt lat="42.3649670" lon="-4.9563780">
        <ele>858.6</ele>
        <time>2021-10-02T08:37:21Z</time>
      </trkpt>
      <trkpt lat="42.3649670" lon="-4.9567950">
        <ele>858.6</ele>
        <time>2021-10-02T08:37:28Z</time>
      </trkpt>
      <trkpt lat="42.3649580" lon="-4.9570430">
        <ele>858.8</ele>
        <time>2021-10-02T08:37:32Z</time>
      </trkpt>
      <trkpt lat="42.3649540" lon="-4.9577880">
        <ele>859.4</ele>
        <time>2021-10-02T08:37:45Z</time>
      </trkpt>
      <trkpt lat="42.3649570" lon="-4.9580400">
        <ele>859.8</ele>
        <time>2021-10-02T08:37:49Z</time>
      </trkpt>
      <trkpt lat="42.3649580" lon="-4.9582320">
        <ele>860.0</ele>
        <time>2021-10-02T08:37:52Z</time>
      </trkpt>
      <trkpt lat="42.3649640" lon="-4.9584260">
        <ele>860.6</ele>
        <time>2021-10-02T08:37:55Z</time>
      </trkpt>
      <trkpt lat="42.3649640" lon="-4.9584900">
        <ele>860.8</ele>
        <time>2021-10-02T08:37:56Z</time>
      </trkpt>
      <trkpt lat="42.3649650" lon="-4.9586900">
        <ele>860.8</ele>
        <time>2021-10-02T08:37:59Z</time>
      </trkpt>
      <trkpt lat="42.3649650" lon="-4.9588910">
        <ele>861.0</ele>
        <time>2021-10-02T08:38:02Z</time>
      </trkpt>
      <trkpt lat="42.3649720" lon="-4.9591480">
        <ele>861.0</ele>
        <time>2021-10-02T08:38:06Z</time>
      </trkpt>
      <trkpt lat="42.3650270" lon="-4.9599330">
        <ele>861.0</ele>
        <time>2021-10-02T08:38:17Z</time>
      </trkpt>
      <trkpt lat="42.3650710" lon="-4.9604360">
        <ele>860.8</ele>
        <time>2021-10-02T08:38:24Z</time>
      </trkpt>
      <trkpt lat="42.3651010" lon="-4.9611010">
        <ele>861.4</ele>
        <time>2021-10-02T08:38:34Z</time>
      </trkpt>
      <trkpt lat="42.3651040" lon="-4.9611420">
        <ele>861.6</ele>
        <time>2021-10-02T08:38:37Z</time>
      </trkpt>
      <trkpt lat="42.3651050" lon="-4.9611860">
        <ele>860.2</ele>
        <time>2021-10-02T08:39:37Z</time>
      </trkpt>
      <trkpt lat="42.3651080" lon="-4.9612240">
        <ele>860.2</ele>
        <time>2021-10-02T08:39:38Z</time>
      </trkpt>
      <trkpt lat="42.3651150" lon="-4.9613200">
        <ele>860.2</ele>
        <time>2021-10-02T08:39:40Z</time>
      </trkpt>
      <trkpt lat="42.3651170" lon="-4.9613760">
        <ele>860.2</ele>
        <time>2021-10-02T08:39:41Z</time>
      </trkpt>
      <trkpt lat="42.3651250" lon="-4.9614980">
        <ele>860.2</ele>
        <time>2021-10-02T08:39:43Z</time>
      </trkpt>
      <trkpt lat="42.3651410" lon="-4.9616350">
        <ele>860.0</ele>
        <time>2021-10-02T08:39:45Z</time>
      </trkpt>
      <trkpt lat="42.3651620" lon="-4.9618540">
        <ele>860.0</ele>
        <time>2021-10-02T08:39:48Z</time>
      </trkpt>
      <trkpt lat="42.3651850" lon="-4.9621530">
        <ele>860.0</ele>
        <time>2021-10-02T08:39:52Z</time>
      </trkpt>
      <trkpt lat="42.3652160" lon="-4.9625890">
        <ele>860.0</ele>
        <time>2021-10-02T08:39:58Z</time>
      </trkpt>
      <trkpt lat="42.3652480" lon="-4.9629690">
        <ele>860.4</ele>
        <time>2021-10-02T08:40:03Z</time>
      </trkpt>
      <trkpt lat="42.3653020" lon="-4.9636410">
        <ele>861.0</ele>
        <time>2021-10-02T08:40:13Z</time>
      </trkpt>
      <trkpt lat="42.3653230" lon="-4.9640090">
        <ele>861.6</ele>
        <time>2021-10-02T08:40:18Z</time>
      </trkpt>
      <trkpt lat="42.3653360" lon="-4.9642630">
        <ele>861.6</ele>
        <time>2021-10-02T08:40:21Z</time>
      </trkpt>
      <trkpt lat="42.3653530" lon="-4.9645090">
        <ele>861.8</ele>
        <time>2021-10-02T08:40:24Z</time>
      </trkpt>
      <trkpt lat="42.3653710" lon="-4.9647530">
        <ele>862.0</ele>
        <time>2021-10-02T08:40:27Z</time>
      </trkpt>
      <trkpt lat="42.3654230" lon="-4.9654900">
        <ele>862.6</ele>
        <time>2021-10-02T08:40:36Z</time>
      </trkpt>
      <trkpt lat="42.3654780" lon="-4.9662650">
        <ele>863.2</ele>
        <time>2021-10-02T08:40:46Z</time>
      </trkpt>
      <trkpt lat="42.3655190" lon="-4.9667420">
        <ele>863.6</ele>
        <time>2021-10-02T08:40:52Z</time>
      </trkpt>
      <trkpt lat="42.3655690" lon="-4.9674970">
        <ele>864.6</ele>
        <time>2021-10-02T08:41:01Z</time>
      </trkpt>
      <trkpt lat="42.3655780" lon="-4.9675810">
        <ele>864.8</ele>
        <time>2021-10-02T08:41:02Z</time>
      </trkpt>
      <trkpt lat="42.3656160" lon="-4.9682660">
        <ele>865.2</ele>
        <time>2021-10-02T08:41:11Z</time>
      </trkpt>
      <trkpt lat="42.3656290" lon="-4.9684090">
        <ele>865.2</ele>
        <time>2021-10-02T08:41:13Z</time>
      </trkpt>
      <trkpt lat="42.3656330" lon="-4.9685490">
        <ele>865.4</ele>
        <time>2021-10-02T08:41:15Z</time>
      </trkpt>
      <trkpt lat="42.3656460" lon="-4.9688270">
        <ele>865.8</ele>
        <time>2021-10-02T08:41:19Z</time>
      </trkpt>
      <trkpt lat="42.3656970" lon="-4.9695730">
        <ele>866.4</ele>
        <time>2021-10-02T08:41:30Z</time>
      </trkpt>
      <trkpt lat="42.3657340" lon="-4.9701050">
        <ele>866.8</ele>
        <time>2021-10-02T08:41:38Z</time>
      </trkpt>
      <trkpt lat="42.3658000" lon="-4.9708300">
        <ele>867.4</ele>
        <time>2021-10-02T08:41:49Z</time>
      </trkpt>
      <trkpt lat="42.3658290" lon="-4.9712790">
        <ele>868.0</ele>
        <time>2021-10-02T08:41:56Z</time>
      </trkpt>
      <trkpt lat="42.3658530" lon="-4.9719550">
        <ele>868.6</ele>
        <time>2021-10-02T08:42:07Z</time>
      </trkpt>
      <trkpt lat="42.3658600" lon="-4.9721300">
        <ele>868.6</ele>
        <time>2021-10-02T08:42:11Z</time>
      </trkpt>
      <trkpt lat="42.3658700" lon="-4.9723450">
        <ele>869.0</ele>
        <time>2021-10-02T08:42:16Z</time>
      </trkpt>
      <trkpt lat="42.3658590" lon="-4.9725760">
        <ele>869.2</ele>
        <time>2021-10-02T08:42:20Z</time>
      </trkpt>
      <trkpt lat="42.3657000" lon="-4.9727630">
        <ele>869.4</ele>
        <time>2021-10-02T08:42:25Z</time>
      </trkpt>
      <trkpt lat="42.3655520" lon="-4.9728310">
        <ele>869.2</ele>
        <time>2021-10-02T08:42:28Z</time>
      </trkpt>
      <trkpt lat="42.3654110" lon="-4.9729440">
        <ele>869.0</ele>
        <time>2021-10-02T08:42:31Z</time>
      </trkpt>
      <trkpt lat="42.3652640" lon="-4.9732340">
        <ele>869.0</ele>
        <time>2021-10-02T08:42:36Z</time>
      </trkpt>
      <trkpt lat="42.3652300" lon="-4.9734480">
        <ele>869.0</ele>
        <time>2021-10-02T08:42:39Z</time>
      </trkpt>
      <trkpt lat="42.3652220" lon="-4.9735970">
        <ele>869.2</ele>
        <time>2021-10-02T08:42:41Z</time>
      </trkpt>
      <trkpt lat="42.3652370" lon="-4.9737610">
        <ele>869.4</ele>
        <time>2021-10-02T08:42:43Z</time>
      </trkpt>
      <trkpt lat="42.3653230" lon="-4.9740070">
        <ele>869.4</ele>
        <time>2021-10-02T08:42:46Z</time>
      </trkpt>
      <trkpt lat="42.3654100" lon="-4.9741600">
        <ele>869.4</ele>
        <time>2021-10-02T08:42:48Z</time>
      </trkpt>
      <trkpt lat="42.3654850" lon="-4.9743170">
        <ele>869.4</ele>
        <time>2021-10-02T08:42:50Z</time>
      </trkpt>
      <trkpt lat="42.3655390" lon="-4.9744820">
        <ele>869.4</ele>
        <time>2021-10-02T08:42:52Z</time>
      </trkpt>
      <trkpt lat="42.3655830" lon="-4.9746440">
        <ele>869.6</ele>
        <time>2021-10-02T08:42:54Z</time>
      </trkpt>
      <trkpt lat="42.3656010" lon="-4.9752750">
        <ele>870.2</ele>
        <time>2021-10-02T08:43:01Z</time>
      </trkpt>
      <trkpt lat="42.3655780" lon="-4.9753740">
        <ele>870.2</ele>
        <time>2021-10-02T08:43:02Z</time>
      </trkpt>
      <trkpt lat="42.3654640" lon="-4.9756560">
        <ele>870.4</ele>
        <time>2021-10-02T08:43:05Z</time>
      </trkpt>
      <trkpt lat="42.3653620" lon="-4.9758300">
        <ele>870.4</ele>
        <time>2021-10-02T08:43:07Z</time>
      </trkpt>
      <trkpt lat="42.3651290" lon="-4.9762900">
        <ele>870.4</ele>
        <time>2021-10-02T08:43:12Z</time>
      </trkpt>
      <trkpt lat="42.3650570" lon="-4.9764760">
        <ele>870.4</ele>
        <time>2021-10-02T08:43:14Z</time>
      </trkpt>
      <trkpt lat="42.3649630" lon="-4.9767590">
        <ele>870.4</ele>
        <time>2021-10-02T08:43:17Z</time>
      </trkpt>
      <trkpt lat="42.3649380" lon="-4.9768580">
        <ele>870.4</ele>
        <time>2021-10-02T08:43:18Z</time>
      </trkpt>
      <trkpt lat="42.3648910" lon="-4.9771680">
        <ele>870.4</ele>
        <time>2021-10-02T08:43:21Z</time>
      </trkpt>
      <trkpt lat="42.3648860" lon="-4.9774840">
        <ele>870.4</ele>
        <time>2021-10-02T08:43:24Z</time>
      </trkpt>
      <trkpt lat="42.3649410" lon="-4.9778990">
        <ele>870.4</ele>
        <time>2021-10-02T08:43:28Z</time>
      </trkpt>
      <trkpt lat="42.3650290" lon="-4.9782120">
        <ele>870.4</ele>
        <time>2021-10-02T08:43:31Z</time>
      </trkpt>
      <trkpt lat="42.3652160" lon="-4.9785480">
        <ele>870.4</ele>
        <time>2021-10-02T08:43:35Z</time>
      </trkpt>
      <trkpt lat="42.3653180" lon="-4.9786720">
        <ele>870.2</ele>
        <time>2021-10-02T08:43:37Z</time>
      </trkpt>
      <trkpt lat="42.3654610" lon="-4.9788340">
        <ele>870.2</ele>
        <time>2021-10-02T08:43:40Z</time>
      </trkpt>
      <trkpt lat="42.3655730" lon="-4.9789680">
        <ele>870.0</ele>
        <time>2021-10-02T08:43:43Z</time>
      </trkpt>
      <trkpt lat="42.3656060" lon="-4.9792250">
        <ele>870.0</ele>
        <time>2021-10-02T08:43:48Z</time>
      </trkpt>
      <trkpt lat="42.3655950" lon="-4.9792930">
        <ele>870.0</ele>
        <time>2021-10-02T08:43:49Z</time>
      </trkpt>
      <trkpt lat="42.3655790" lon="-4.9794490">
        <ele>870.0</ele>
        <time>2021-10-02T08:43:51Z</time>
      </trkpt>
      <trkpt lat="42.3655630" lon="-4.9796180">
        <ele>869.8</ele>
        <time>2021-10-02T08:43:53Z</time>
      </trkpt>
      <trkpt lat="42.3655380" lon="-4.9798630">
        <ele>869.8</ele>
        <time>2021-10-02T08:43:59Z</time>
      </trkpt>
      <trkpt lat="42.3655310" lon="-4.9799450">
        <ele>872.8</ele>
        <time>2021-10-02T08:47:41Z</time>
      </trkpt>
      <trkpt lat="42.3655300" lon="-4.9799840">
        <ele>872.8</ele>
        <time>2021-10-02T08:47:42Z</time>
      </trkpt>
      <trkpt lat="42.3655160" lon="-4.9801750">
        <ele>873.0</ele>
        <time>2021-10-02T08:47:46Z</time>
      </trkpt>
      <trkpt lat="42.3655050" lon="-4.9803680">
        <ele>873.0</ele>
        <time>2021-10-02T08:47:49Z</time>
      </trkpt>
      <trkpt lat="42.3654940" lon="-4.9806010">
        <ele>873.0</ele>
        <time>2021-10-02T08:47:52Z</time>
      </trkpt>
      <trkpt lat="42.3654810" lon="-4.9808590">
        <ele>873.2</ele>
        <time>2021-10-02T08:47:55Z</time>
      </trkpt>
      <trkpt lat="42.3654670" lon="-4.9816350">
        <ele>873.2</ele>
        <time>2021-10-02T08:48:04Z</time>
      </trkpt>
      <trkpt lat="42.3654850" lon="-4.9819130">
        <ele>873.2</ele>
        <time>2021-10-02T08:48:07Z</time>
      </trkpt>
      <trkpt lat="42.3655260" lon="-4.9824210">
        <ele>873.0</ele>
        <time>2021-10-02T08:48:12Z</time>
      </trkpt>
      <trkpt lat="42.3655390" lon="-4.9826320">
        <ele>873.2</ele>
        <time>2021-10-02T08:48:14Z</time>
      </trkpt>
      <trkpt lat="42.3655820" lon="-4.9830630">
        <ele>873.2</ele>
        <time>2021-10-02T08:48:18Z</time>
      </trkpt>
      <trkpt lat="42.3656370" lon="-4.9836030">
        <ele>873.2</ele>
        <time>2021-10-02T08:48:23Z</time>
      </trkpt>
      <trkpt lat="42.3656970" lon="-4.9841290">
        <ele>873.2</ele>
        <time>2021-10-02T08:48:28Z</time>
      </trkpt>
      <trkpt lat="42.3657450" lon="-4.9846240">
        <ele>872.8</ele>
        <time>2021-10-02T08:48:33Z</time>
      </trkpt>
      <trkpt lat="42.3657680" lon="-4.9848080">
        <ele>872.8</ele>
        <time>2021-10-02T08:48:35Z</time>
      </trkpt>
      <trkpt lat="42.3657840" lon="-4.9849670">
        <ele>872.8</ele>
        <time>2021-10-02T08:48:37Z</time>
      </trkpt>
      <trkpt lat="42.3658270" lon="-4.9853920">
        <ele>873.0</ele>
        <time>2021-10-02T08:48:43Z</time>
      </trkpt>
      <trkpt lat="42.3658480" lon="-4.9855640">
        <ele>873.0</ele>
        <time>2021-10-02T08:48:45Z</time>
      </trkpt>
      <trkpt lat="42.3658690" lon="-4.9857480">
        <ele>873.2</ele>
        <time>2021-10-02T08:48:47Z</time>
      </trkpt>
      <trkpt lat="42.3658910" lon="-4.9859450">
        <ele>873.2</ele>
        <time>2021-10-02T08:48:49Z</time>
      </trkpt>
      <trkpt lat="42.3659220" lon="-4.9862540">
        <ele>873.2</ele>
        <time>2021-10-02T08:48:52Z</time>
      </trkpt>
      <trkpt lat="42.3659580" lon="-4.9866830">
        <ele>873.2</ele>
        <time>2021-10-02T08:48:56Z</time>
      </trkpt>
      <trkpt lat="42.3660030" lon="-4.9871320">
        <ele>873.0</ele>
        <time>2021-10-02T08:49:00Z</time>
      </trkpt>
      <trkpt lat="42.3660630" lon="-4.9876950">
        <ele>873.2</ele>
        <time>2021-10-02T08:49:05Z</time>
      </trkpt>
      <trkpt lat="42.3661310" lon="-4.9883380">
        <ele>873.4</ele>
        <time>2021-10-02T08:49:11Z</time>
      </trkpt>
      <trkpt lat="42.3661810" lon="-4.9888580">
        <ele>873.6</ele>
        <time>2021-10-02T08:49:16Z</time>
      </trkpt>
      <trkpt lat="42.3662570" lon="-4.9896490">
        <ele>873.4</ele>
        <time>2021-10-02T08:49:24Z</time>
      </trkpt>
      <trkpt lat="42.3662960" lon="-4.9900310">
        <ele>872.6</ele>
        <time>2021-10-02T08:49:28Z</time>
      </trkpt>
      <trkpt lat="42.3663070" lon="-4.9901270">
        <ele>871.6</ele>
        <time>2021-10-02T08:49:29Z</time>
      </trkpt>
      <trkpt lat="42.3663370" lon="-4.9904170">
        <ele>870.4</ele>
        <time>2021-10-02T08:49:32Z</time>
      </trkpt>
      <trkpt lat="42.3664250" lon="-4.9912390">
        <ele>869.6</ele>
        <time>2021-10-02T08:49:40Z</time>
      </trkpt>
      <trkpt lat="42.3664480" lon="-4.9914560">
        <ele>869.6</ele>
        <time>2021-10-02T08:49:42Z</time>
      </trkpt>
      <trkpt lat="42.3665270" lon="-4.9922070">
        <ele>869.6</ele>
        <time>2021-10-02T08:49:49Z</time>
      </trkpt>
      <trkpt lat="42.3665690" lon="-4.9926290">
        <ele>869.6</ele>
        <time>2021-10-02T08:49:53Z</time>
      </trkpt>
      <trkpt lat="42.3666420" lon="-4.9932550">
        <ele>869.8</ele>
        <time>2021-10-02T08:49:59Z</time>
      </trkpt>
      <trkpt lat="42.3667200" lon="-4.9939930">
        <ele>869.8</ele>
        <time>2021-10-02T08:50:06Z</time>
      </trkpt>
      <trkpt lat="42.3668060" lon="-4.9948160">
        <ele>870.0</ele>
        <time>2021-10-02T08:50:14Z</time>
      </trkpt>
      <trkpt lat="42.3668470" lon="-4.9952260">
        <ele>870.0</ele>
        <time>2021-10-02T08:50:18Z</time>
      </trkpt>
      <trkpt lat="42.3668670" lon="-4.9954260">
        <ele>870.0</ele>
        <time>2021-10-02T08:50:20Z</time>
      </trkpt>
      <trkpt lat="42.3668910" lon="-4.9956250">
        <ele>870.0</ele>
        <time>2021-10-02T08:50:22Z</time>
      </trkpt>
      <trkpt lat="42.3669300" lon="-4.9960060">
        <ele>870.0</ele>
        <time>2021-10-02T08:50:26Z</time>
      </trkpt>
      <trkpt lat="42.3669310" lon="-4.9960880">
        <ele>870.0</ele>
        <time>2021-10-02T08:50:27Z</time>
      </trkpt>
      <trkpt lat="42.3668980" lon="-4.9964310">
        <ele>869.8</ele>
        <time>2021-10-02T08:50:31Z</time>
      </trkpt>
      <trkpt lat="42.3669230" lon="-4.9967130">
        <ele>869.8</ele>
        <time>2021-10-02T08:50:34Z</time>
      </trkpt>
      <trkpt lat="42.3669420" lon="-4.9968970">
        <ele>869.8</ele>
        <time>2021-10-02T08:50:36Z</time>
      </trkpt>
      <trkpt lat="42.3669920" lon="-4.9973940">
        <ele>869.8</ele>
        <time>2021-10-02T08:50:42Z</time>
      </trkpt>
      <trkpt lat="42.3670090" lon="-4.9975290">
        <ele>869.8</ele>
        <time>2021-10-02T08:50:44Z</time>
      </trkpt>
      <trkpt lat="42.3670260" lon="-4.9976950">
        <ele>870.0</ele>
        <time>2021-10-02T08:50:47Z</time>
      </trkpt>
      <trkpt lat="42.3670440" lon="-4.9978710">
        <ele>870.0</ele>
        <time>2021-10-02T08:50:50Z</time>
      </trkpt>
      <trkpt lat="42.3670600" lon="-4.9980150">
        <ele>870.0</ele>
        <time>2021-10-02T08:50:52Z</time>
      </trkpt>
      <trkpt lat="42.3670760" lon="-4.9981790">
        <ele>870.0</ele>
        <time>2021-10-02T08:50:54Z</time>
      </trkpt>
      <trkpt lat="42.3671090" lon="-4.9984390">
        <ele>870.2</ele>
        <time>2021-10-02T08:50:57Z</time>
      </trkpt>
      <trkpt lat="42.3671300" lon="-4.9986280">
        <ele>870.2</ele>
        <time>2021-10-02T08:50:59Z</time>
      </trkpt>
      <trkpt lat="42.3671530" lon="-4.9988170">
        <ele>870.2</ele>
        <time>2021-10-02T08:51:01Z</time>
      </trkpt>
      <trkpt lat="42.3671800" lon="-4.9990930">
        <ele>870.2</ele>
        <time>2021-10-02T08:51:04Z</time>
      </trkpt>
      <trkpt lat="42.3672110" lon="-4.9994160">
        <ele>870.0</ele>
        <time>2021-10-02T08:51:08Z</time>
      </trkpt>
      <trkpt lat="42.3672990" lon="-4.9995610">
        <ele>869.8</ele>
        <time>2021-10-02T08:51:12Z</time>
      </trkpt>
      <trkpt lat="42.3673170" lon="-4.9995760">
        <ele>869.6</ele>
        <time>2021-10-02T08:51:13Z</time>
      </trkpt>
      <trkpt lat="42.3673440" lon="-4.9996120">
        <ele>869.2</ele>
        <time>2021-10-02T08:51:16Z</time>
      </trkpt>
      <trkpt lat="42.3673910" lon="-4.9996870">
        <ele>869.2</ele>
        <time>2021-10-02T08:51:20Z</time>
      </trkpt>
      <trkpt lat="42.3674340" lon="-4.9998580">
        <ele>869.0</ele>
        <time>2021-10-02T08:51:23Z</time>
      </trkpt>
      <trkpt lat="42.3676120" lon="-4.9999580">
        <ele>869.2</ele>
        <time>2021-10-02T08:51:28Z</time>
      </trkpt>
      <trkpt lat="42.3676690" lon="-4.9999440">
        <ele>869.0</ele>
        <time>2021-10-02T08:51:29Z</time>
      </trkpt>
      <trkpt lat="42.3681590" lon="-4.9998850">
        <ele>868.2</ele>
        <time>2021-10-02T08:51:37Z</time>
      </trkpt>
      <trkpt lat="42.3686590" lon="-4.9997970">
        <ele>867.8</ele>
        <time>2021-10-02T08:51:45Z</time>
      </trkpt>
      <trkpt lat="42.3691960" lon="-4.9996900">
        <ele>868.0</ele>
        <time>2021-10-02T08:51:54Z</time>
      </trkpt>
      <trkpt lat="42.3695630" lon="-4.9996370">
        <ele>868.0</ele>
        <time>2021-10-02T08:52:00Z</time>
      </trkpt>
      <trkpt lat="42.3698160" lon="-4.9996030">
        <ele>868.2</ele>
        <time>2021-10-02T08:52:04Z</time>
      </trkpt>
      <trkpt lat="42.3703540" lon="-4.9994850">
        <ele>868.6</ele>
        <time>2021-10-02T08:52:13Z</time>
      </trkpt>
      <trkpt lat="42.3704430" lon="-4.9994510">
        <ele>868.6</ele>
        <time>2021-10-02T08:52:15Z</time>
      </trkpt>
      <trkpt lat="42.3704760" lon="-4.9994570">
        <ele>868.6</ele>
        <time>2021-10-02T08:52:16Z</time>
      </trkpt>
      <trkpt lat="42.3705290" lon="-4.9995190">
        <ele>868.6</ele>
        <time>2021-10-02T08:52:18Z</time>
      </trkpt>
      <trkpt lat="42.3706380" lon="-4.9998750">
        <ele>868.4</ele>
        <time>2021-10-02T08:52:27Z</time>
      </trkpt>
      <trkpt lat="42.3706130" lon="-4.9999900">
        <ele>868.4</ele>
        <time>2021-10-02T08:52:29Z</time>
      </trkpt>
      <trkpt lat="42.3705910" lon="-5.0000440">
        <ele>868.4</ele>
        <time>2021-10-02T08:52:30Z</time>
      </trkpt>
      <trkpt lat="42.3705690" lon="-5.0001040">
        <ele>868.2</ele>
        <time>2021-10-02T08:52:31Z</time>
      </trkpt>
      <trkpt lat="42.3705450" lon="-5.0001600">
        <ele>868.4</ele>
        <time>2021-10-02T08:52:32Z</time>
      </trkpt>
      <trkpt lat="42.3704840" lon="-5.0002590">
        <ele>868.2</ele>
        <time>2021-10-02T08:52:34Z</time>
      </trkpt>
      <trkpt lat="42.3703890" lon="-5.0003840">
        <ele>868.2</ele>
        <time>2021-10-02T08:52:37Z</time>
      </trkpt>
      <trkpt lat="42.3703240" lon="-5.0004600">
        <ele>868.2</ele>
        <time>2021-10-02T08:52:39Z</time>
      </trkpt>
      <trkpt lat="42.3702590" lon="-5.0005540">
        <ele>868.2</ele>
        <time>2021-10-02T08:52:41Z</time>
      </trkpt>
      <trkpt lat="42.3701520" lon="-5.0007000">
        <ele>868.2</ele>
        <time>2021-10-02T08:52:44Z</time>
      </trkpt>
      <trkpt lat="42.3698960" lon="-5.0010710">
        <ele>868.0</ele>
        <time>2021-10-02T08:52:52Z</time>
      </trkpt>
      <trkpt lat="42.3698910" lon="-5.0010690">
        <ele>868.0</ele>
        <time>2021-10-02T08:52:54Z</time>
      </trkpt>
      <trkpt lat="42.3698790" lon="-5.0010830">
        <ele>866.4</ele>
        <time>2021-10-02T08:53:18Z</time>
      </trkpt>
      <trkpt lat="42.3698650" lon="-5.0011090">
        <ele>866.2</ele>
        <time>2021-10-02T08:53:19Z</time>
      </trkpt>
      <trkpt lat="42.3698090" lon="-5.0012330">
        <ele>865.8</ele>
        <time>2021-10-02T08:53:22Z</time>
      </trkpt>
      <trkpt lat="42.3697910" lon="-5.0012860">
        <ele>865.8</ele>
        <time>2021-10-02T08:53:23Z</time>
      </trkpt>
      <trkpt lat="42.3697390" lon="-5.0014530">
        <ele>865.4</ele>
        <time>2021-10-02T08:53:26Z</time>
      </trkpt>
      <trkpt lat="42.3696790" lon="-5.0017420">
        <ele>865.0</ele>
        <time>2021-10-02T08:53:30Z</time>
      </trkpt>
      <trkpt lat="42.3696320" lon="-5.0020040">
        <ele>864.6</ele>
        <time>2021-10-02T08:53:33Z</time>
      </trkpt>
      <trkpt lat="42.3695640" lon="-5.0023660">
        <ele>864.8</ele>
        <time>2021-10-02T08:53:37Z</time>
      </trkpt>
      <trkpt lat="42.3694840" lon="-5.0029590">
        <ele>864.8</ele>
        <time>2021-10-02T08:53:44Z</time>
      </trkpt>
      <trkpt lat="42.3694760" lon="-5.0032720">
        <ele>864.6</ele>
        <time>2021-10-02T08:53:48Z</time>
      </trkpt>
      <trkpt lat="42.3694870" lon="-5.0037480">
        <ele>864.0</ele>
        <time>2021-10-02T08:53:54Z</time>
      </trkpt>
      <trkpt lat="42.3694870" lon="-5.0038290">
        <ele>864.2</ele>
        <time>2021-10-02T08:53:55Z</time>
      </trkpt>
      <trkpt lat="42.3694870" lon="-5.0042260">
        <ele>863.8</ele>
        <time>2021-10-02T08:54:00Z</time>
      </trkpt>
      <trkpt lat="42.3694820" lon="-5.0048170">
        <ele>863.4</ele>
        <time>2021-10-02T08:54:08Z</time>
      </trkpt>
      <trkpt lat="42.3694910" lon="-5.0055980">
        <ele>862.6</ele>
        <time>2021-10-02T08:54:18Z</time>
      </trkpt>
      <trkpt lat="42.3694850" lon="-5.0058660">
        <ele>862.6</ele>
        <time>2021-10-02T08:54:21Z</time>
      </trkpt>
      <trkpt lat="42.3694880" lon="-5.0062790">
        <ele>862.2</ele>
        <time>2021-10-02T08:54:26Z</time>
      </trkpt>
      <trkpt lat="42.3695530" lon="-5.0070170">
        <ele>861.8</ele>
        <time>2021-10-02T08:54:35Z</time>
      </trkpt>
      <trkpt lat="42.3695630" lon="-5.0070960">
        <ele>861.8</ele>
        <time>2021-10-02T08:54:36Z</time>
      </trkpt>
      <trkpt lat="42.3696240" lon="-5.0074890">
        <ele>860.6</ele>
        <time>2021-10-02T08:54:41Z</time>
      </trkpt>
      <trkpt lat="42.3696960" lon="-5.0078730">
        <ele>859.8</ele>
        <time>2021-10-02T08:54:46Z</time>
      </trkpt>
      <trkpt lat="42.3697810" lon="-5.0083970">
        <ele>858.6</ele>
        <time>2021-10-02T08:54:53Z</time>
      </trkpt>
      <trkpt lat="42.3698020" lon="-5.0087440">
        <ele>858.4</ele>
        <time>2021-10-02T08:54:58Z</time>
      </trkpt>
      <trkpt lat="42.3698730" lon="-5.0094950">
        <ele>858.2</ele>
        <time>2021-10-02T08:55:09Z</time>
      </trkpt>
      <trkpt lat="42.3698870" lon="-5.0097000">
        <ele>857.4</ele>
        <time>2021-10-02T08:55:12Z</time>
      </trkpt>
      <trkpt lat="42.3699020" lon="-5.0099040">
        <ele>856.0</ele>
        <time>2021-10-02T08:55:15Z</time>
      </trkpt>
      <trkpt lat="42.3699210" lon="-5.0103090">
        <ele>855.0</ele>
        <time>2021-10-02T08:55:21Z</time>
      </trkpt>
      <trkpt lat="42.3699780" lon="-5.0110570">
        <ele>854.2</ele>
        <time>2021-10-02T08:55:32Z</time>
      </trkpt>
      <trkpt lat="42.3699840" lon="-5.0111260">
        <ele>854.2</ele>
        <time>2021-10-02T08:55:33Z</time>
      </trkpt>
      <trkpt lat="42.3700110" lon="-5.0118930">
        <ele>853.6</ele>
        <time>2021-10-02T08:55:44Z</time>
      </trkpt>
      <trkpt lat="42.3700370" lon="-5.0121670">
        <ele>853.6</ele>
        <time>2021-10-02T08:55:48Z</time>
      </trkpt>
      <trkpt lat="42.3702290" lon="-5.0124760">
        <ele>853.4</ele>
        <time>2021-10-02T08:55:54Z</time>
      </trkpt>
      <trkpt lat="42.3702820" lon="-5.0126570">
        <ele>853.4</ele>
        <time>2021-10-02T08:55:57Z</time>
      </trkpt>
      <trkpt lat="42.3702900" lon="-5.0127180">
        <ele>853.2</ele>
        <time>2021-10-02T08:55:58Z</time>
      </trkpt>
      <trkpt lat="42.3701680" lon="-5.0129620">
        <ele>852.8</ele>
        <time>2021-10-02T08:56:03Z</time>
      </trkpt>
      <trkpt lat="42.3701380" lon="-5.0130060">
        <ele>852.8</ele>
        <time>2021-10-02T08:56:04Z</time>
      </trkpt>
      <trkpt lat="42.3700920" lon="-5.0132620">
        <ele>852.4</ele>
        <time>2021-10-02T08:56:08Z</time>
      </trkpt>
      <trkpt lat="42.3701160" lon="-5.0134870">
        <ele>852.2</ele>
        <time>2021-10-02T08:56:11Z</time>
      </trkpt>
      <trkpt lat="42.3701850" lon="-5.0142650">
        <ele>851.4</ele>
        <time>2021-10-02T08:56:21Z</time>
      </trkpt>
      <trkpt lat="42.3701300" lon="-5.0150200">
        <ele>851.0</ele>
        <time>2021-10-02T08:56:31Z</time>
      </trkpt>
      <trkpt lat="42.3700440" lon="-5.0157790">
        <ele>850.6</ele>
        <time>2021-10-02T08:56:41Z</time>
      </trkpt>
      <trkpt lat="42.3700420" lon="-5.0158530">
        <ele>850.6</ele>
        <time>2021-10-02T08:56:42Z</time>
      </trkpt>
      <trkpt lat="42.3700430" lon="-5.0161510">
        <ele>850.4</ele>
        <time>2021-10-02T08:56:46Z</time>
      </trkpt>
      <trkpt lat="42.3700560" lon="-5.0166070">
        <ele>850.2</ele>
        <time>2021-10-02T08:56:52Z</time>
      </trkpt>
      <trkpt lat="42.3700640" lon="-5.0168320">
        <ele>850.0</ele>
        <time>2021-10-02T08:56:55Z</time>
      </trkpt>
      <trkpt lat="42.3700620" lon="-5.0173640">
        <ele>849.8</ele>
        <time>2021-10-02T08:57:02Z</time>
      </trkpt>
      <trkpt lat="42.3700700" lon="-5.0177710">
        <ele>849.8</ele>
        <time>2021-10-02T08:57:08Z</time>
      </trkpt>
      <trkpt lat="42.3700740" lon="-5.0185500">
        <ele>849.0</ele>
        <time>2021-10-02T08:57:19Z</time>
      </trkpt>
      <trkpt lat="42.3701020" lon="-5.0191520">
        <ele>849.0</ele>
        <time>2021-10-02T08:57:27Z</time>
      </trkpt>
      <trkpt lat="42.3701740" lon="-5.0199260">
        <ele>848.4</ele>
        <time>2021-10-02T08:57:37Z</time>
      </trkpt>
      <trkpt lat="42.3702220" lon="-5.0207060">
        <ele>848.0</ele>
        <time>2021-10-02T08:57:47Z</time>
      </trkpt>
      <trkpt lat="42.3702320" lon="-5.0209300">
        <ele>848.0</ele>
        <time>2021-10-02T08:57:50Z</time>
      </trkpt>
      <trkpt lat="42.3702510" lon="-5.0214690">
        <ele>847.6</ele>
        <time>2021-10-02T08:57:58Z</time>
      </trkpt>
      <trkpt lat="42.3702560" lon="-5.0215840">
        <ele>847.6</ele>
        <time>2021-10-02T08:58:00Z</time>
      </trkpt>
      <trkpt lat="42.3702190" lon="-5.0223540">
        <ele>847.4</ele>
        <time>2021-10-02T08:58:11Z</time>
      </trkpt>
      <trkpt lat="42.3702260" lon="-5.0227900">
        <ele>847.4</ele>
        <time>2021-10-02T08:58:17Z</time>
      </trkpt>
      <trkpt lat="42.3702350" lon="-5.0228590">
        <ele>847.4</ele>
        <time>2021-10-02T08:58:18Z</time>
      </trkpt>
      <trkpt lat="42.3704210" lon="-5.0232780">
        <ele>847.2</ele>
        <time>2021-10-02T08:58:25Z</time>
      </trkpt>
      <trkpt lat="42.3706630" lon="-5.0236370">
        <ele>847.0</ele>
        <time>2021-10-02T08:58:32Z</time>
      </trkpt>
      <trkpt lat="42.3707860" lon="-5.0237430">
        <ele>846.8</ele>
        <time>2021-10-02T08:58:35Z</time>
      </trkpt>
      <trkpt lat="42.3709510" lon="-5.0239080">
        <ele>846.8</ele>
        <time>2021-10-02T08:58:39Z</time>
      </trkpt>
      <trkpt lat="42.3710660" lon="-5.0243070">
        <ele>846.6</ele>
        <time>2021-10-02T08:58:45Z</time>
      </trkpt>
      <trkpt lat="42.3711090" lon="-5.0246870">
        <ele>846.6</ele>
        <time>2021-10-02T08:58:50Z</time>
      </trkpt>
      <trkpt lat="42.3711630" lon="-5.0250910">
        <ele>846.4</ele>
        <time>2021-10-02T08:58:56Z</time>
      </trkpt>
      <trkpt lat="42.3713100" lon="-5.0255070">
        <ele>846.4</ele>
        <time>2021-10-02T08:59:03Z</time>
      </trkpt>
      <trkpt lat="42.3713340" lon="-5.0255590">
        <ele>846.4</ele>
        <time>2021-10-02T08:59:04Z</time>
      </trkpt>
      <trkpt lat="42.3713850" lon="-5.0256510">
        <ele>846.4</ele>
        <time>2021-10-02T08:59:06Z</time>
      </trkpt>
      <trkpt lat="42.3714330" lon="-5.0257460">
        <ele>846.4</ele>
        <time>2021-10-02T08:59:09Z</time>
      </trkpt>
      <trkpt lat="42.3714480" lon="-5.0257820">
        <ele>846.2</ele>
        <time>2021-10-02T08:59:12Z</time>
      </trkpt>
      <trkpt lat="42.3714750" lon="-5.0258200">
        <ele>846.2</ele>
        <time>2021-10-02T08:59:15Z</time>
      </trkpt>
      <trkpt lat="42.3713850" lon="-5.0259710">
        <ele>846.0</ele>
        <time>2021-10-02T08:59:19Z</time>
      </trkpt>
      <trkpt lat="42.3711730" lon="-5.0261700">
        <ele>845.6</ele>
        <time>2021-10-02T08:59:24Z</time>
      </trkpt>
      <trkpt lat="42.3710050" lon="-5.0263280">
        <ele>845.2</ele>
        <time>2021-10-02T08:59:28Z</time>
      </trkpt>
      <trkpt lat="42.3709230" lon="-5.0264010">
        <ele>844.8</ele>
        <time>2021-10-02T08:59:30Z</time>
      </trkpt>
      <trkpt lat="42.3708880" lon="-5.0264280">
        <ele>844.6</ele>
        <time>2021-10-02T08:59:31Z</time>
      </trkpt>
      <trkpt lat="42.3708560" lon="-5.0264480">
        <ele>844.4</ele>
        <time>2021-10-02T08:59:32Z</time>
      </trkpt>
      <trkpt lat="42.3708240" lon="-5.0264650">
        <ele>844.2</ele>
        <time>2021-10-02T08:59:33Z</time>
      </trkpt>
      <trkpt lat="42.3707530" lon="-5.0264960">
        <ele>844.0</ele>
        <time>2021-10-02T08:59:35Z</time>
      </trkpt>
      <trkpt lat="42.3706720" lon="-5.0265240">
        <ele>843.8</ele>
        <time>2021-10-02T08:59:37Z</time>
      </trkpt>
      <trkpt lat="42.3705830" lon="-5.0265690">
        <ele>843.6</ele>
        <time>2021-10-02T08:59:39Z</time>
      </trkpt>
      <trkpt lat="42.3705140" lon="-5.0268780">
        <ele>843.6</ele>
        <time>2021-10-02T08:59:44Z</time>
      </trkpt>
      <trkpt lat="42.3705420" lon="-5.0270230">
        <ele>843.6</ele>
        <time>2021-10-02T08:59:46Z</time>
      </trkpt>
      <trkpt lat="42.3705880" lon="-5.0273180">
        <ele>843.4</ele>
        <time>2021-10-02T08:59:50Z</time>
      </trkpt>
      <trkpt lat="42.3706170" lon="-5.0274760">
        <ele>843.2</ele>
        <time>2021-10-02T08:59:52Z</time>
      </trkpt>
      <trkpt lat="42.3706500" lon="-5.0279290">
        <ele>842.8</ele>
        <time>2021-10-02T08:59:58Z</time>
      </trkpt>
      <trkpt lat="42.3706590" lon="-5.0280690">
        <ele>842.8</ele>
        <time>2021-10-02T09:00:00Z</time>
      </trkpt>
      <trkpt lat="42.3706720" lon="-5.0282090">
        <ele>842.8</ele>
        <time>2021-10-02T09:00:02Z</time>
      </trkpt>
      <trkpt lat="42.3706940" lon="-5.0286330">
        <ele>842.8</ele>
        <time>2021-10-02T09:00:08Z</time>
      </trkpt>
      <trkpt lat="42.3706990" lon="-5.0287440">
        <ele>842.8</ele>
        <time>2021-10-02T09:00:10Z</time>
      </trkpt>
      <trkpt lat="42.3707370" lon="-5.0289080">
        <ele>842.8</ele>
        <time>2021-10-02T09:00:13Z</time>
      </trkpt>
      <trkpt lat="42.3707660" lon="-5.0290130">
        <ele>842.8</ele>
        <time>2021-10-02T09:00:15Z</time>
      </trkpt>
      <trkpt lat="42.3707820" lon="-5.0291090">
        <ele>842.6</ele>
        <time>2021-10-02T09:00:17Z</time>
      </trkpt>
      <trkpt lat="42.3707930" lon="-5.0292470">
        <ele>842.4</ele>
        <time>2021-10-02T09:00:20Z</time>
      </trkpt>
      <trkpt lat="42.3708010" lon="-5.0294140">
        <ele>842.0</ele>
        <time>2021-10-02T09:00:25Z</time>
      </trkpt>
      <trkpt lat="42.3707980" lon="-5.0294430">
        <ele>841.8</ele>
        <time>2021-10-02T09:00:26Z</time>
      </trkpt>
      <trkpt lat="42.3707910" lon="-5.0295180">
        <ele>841.6</ele>
        <time>2021-10-02T09:00:30Z</time>
      </trkpt>
      <trkpt lat="42.3707990" lon="-5.0296630">
        <ele>840.8</ele>
        <time>2021-10-02T09:00:34Z</time>
      </trkpt>
      <trkpt lat="42.3707990" lon="-5.0297770">
        <ele>840.4</ele>
        <time>2021-10-02T09:00:36Z</time>
      </trkpt>
      <trkpt lat="42.3707960" lon="-5.0298990">
        <ele>840.2</ele>
        <time>2021-10-02T09:00:38Z</time>
      </trkpt>
      <trkpt lat="42.3707850" lon="-5.0301280">
        <ele>839.6</ele>
        <time>2021-10-02T09:00:42Z</time>
      </trkpt>
      <trkpt lat="42.3707700" lon="-5.0303670">
        <ele>839.2</ele>
        <time>2021-10-02T09:00:46Z</time>
      </trkpt>
      <trkpt lat="42.3707630" lon="-5.0304960">
        <ele>838.8</ele>
        <time>2021-10-02T09:00:48Z</time>
      </trkpt>
      <trkpt lat="42.3707600" lon="-5.0306190">
        <ele>838.8</ele>
        <time>2021-10-02T09:00:50Z</time>
      </trkpt>
      <trkpt lat="42.3707600" lon="-5.0306750">
        <ele>838.6</ele>
        <time>2021-10-02T09:00:51Z</time>
      </trkpt>
      <trkpt lat="42.3707400" lon="-5.0309110">
        <ele>838.0</ele>
        <time>2021-10-02T09:00:58Z</time>
      </trkpt>
      <trkpt lat="42.3707360" lon="-5.0309300">
        <ele>837.6</ele>
        <time>2021-10-02T09:01:00Z</time>
      </trkpt>
      <trkpt lat="42.3707280" lon="-5.0309730">
        <ele>837.2</ele>
        <time>2021-10-02T09:01:03Z</time>
      </trkpt>
      <trkpt lat="42.3707270" lon="-5.0310110">
        <ele>837.0</ele>
        <time>2021-10-02T09:01:05Z</time>
      </trkpt>
      <trkpt lat="42.3707320" lon="-5.0310680">
        <ele>836.8</ele>
        <time>2021-10-02T09:01:07Z</time>
      </trkpt>
      <trkpt lat="42.3707290" lon="-5.0311460">
        <ele>836.6</ele>
        <time>2021-10-02T09:01:11Z</time>
      </trkpt>
      <trkpt lat="42.3707150" lon="-5.0311980">
        <ele>836.4</ele>
        <time>2021-10-02T09:01:13Z</time>
      </trkpt>
      <trkpt lat="42.3706780" lon="-5.0313210">
        <ele>836.0</ele>
        <time>2021-10-02T09:01:16Z</time>
      </trkpt>
      <trkpt lat="42.3705870" lon="-5.0315930">
        <ele>835.4</ele>
        <time>2021-10-02T09:01:21Z</time>
      </trkpt>
      <trkpt lat="42.3705510" lon="-5.0317100">
        <ele>835.2</ele>
        <time>2021-10-02T09:01:23Z</time>
      </trkpt>
      <trkpt lat="42.3704980" lon="-5.0318910">
        <ele>835.2</ele>
        <time>2021-10-02T09:01:26Z</time>
      </trkpt>
      <trkpt lat="42.3704840" lon="-5.0319530">
        <ele>834.8</ele>
        <time>2021-10-02T09:01:27Z</time>
      </trkpt>
      <trkpt lat="42.3704660" lon="-5.0320830">
        <ele>834.8</ele>
        <time>2021-10-02T09:01:29Z</time>
      </trkpt>
      <trkpt lat="42.3704670" lon="-5.0328230">
        <ele>834.4</ele>
        <time>2021-10-02T09:01:40Z</time>
      </trkpt>
      <trkpt lat="42.3704640" lon="-5.0331860">
        <ele>834.2</ele>
        <time>2021-10-02T09:01:45Z</time>
      </trkpt>
      <trkpt lat="42.3704610" lon="-5.0334010">
        <ele>834.2</ele>
        <time>2021-10-02T09:01:48Z</time>
      </trkpt>
      <trkpt lat="42.3704550" lon="-5.0335240">
        <ele>834.2</ele>
        <time>2021-10-02T09:01:50Z</time>
      </trkpt>
      <trkpt lat="42.3704510" lon="-5.0336070">
        <ele>834.2</ele>
        <time>2021-10-02T09:01:52Z</time>
      </trkpt>
      <trkpt lat="42.3704290" lon="-5.0338360">
        <ele>834.0</ele>
        <time>2021-10-02T09:01:58Z</time>
      </trkpt>
      <trkpt lat="42.3703980" lon="-5.0339280">
        <ele>834.0</ele>
        <time>2021-10-02T09:02:00Z</time>
      </trkpt>
      <trkpt lat="42.3703530" lon="-5.0340950">
        <ele>833.8</ele>
        <time>2021-10-02T09:02:03Z</time>
      </trkpt>
      <trkpt lat="42.3701350" lon="-5.0348070">
        <ele>833.0</ele>
        <time>2021-10-02T09:02:14Z</time>
      </trkpt>
      <trkpt lat="42.3700070" lon="-5.0350190">
        <ele>832.6</ele>
        <time>2021-10-02T09:02:17Z</time>
      </trkpt>
      <trkpt lat="42.3697090" lon="-5.0352630">
        <ele>832.2</ele>
        <time>2021-10-02T09:02:22Z</time>
      </trkpt>
      <trkpt lat="42.3695860" lon="-5.0353430">
        <ele>832.0</ele>
        <time>2021-10-02T09:02:24Z</time>
      </trkpt>
      <trkpt lat="42.3692630" lon="-5.0355680">
        <ele>831.4</ele>
        <time>2021-10-02T09:02:29Z</time>
      </trkpt>
      <trkpt lat="42.3690540" lon="-5.0356900">
        <ele>831.0</ele>
        <time>2021-10-02T09:02:32Z</time>
      </trkpt>
      <trkpt lat="42.3687910" lon="-5.0358900">
        <ele>829.8</ele>
        <time>2021-10-02T09:02:39Z</time>
      </trkpt>
      <trkpt lat="42.3687910" lon="-5.0358980">
        <ele>829.6</ele>
        <time>2021-10-02T09:02:41Z</time>
      </trkpt>
      <trkpt lat="42.3687650" lon="-5.0359670">
        <ele>829.4</ele>
        <time>2021-10-02T09:02:46Z</time>
      </trkpt>
      <trkpt lat="42.3687660" lon="-5.0360050">
        <ele>829.4</ele>
        <time>2021-10-02T09:02:47Z</time>
      </trkpt>
      <trkpt lat="42.3687760" lon="-5.0360970">
        <ele>829.4</ele>
        <time>2021-10-02T09:02:49Z</time>
      </trkpt>
      <trkpt lat="42.3687830" lon="-5.0361990">
        <ele>829.2</ele>
        <time>2021-10-02T09:02:51Z</time>
      </trkpt>
      <trkpt lat="42.3687890" lon="-5.0362540">
        <ele>829.0</ele>
        <time>2021-10-02T09:02:52Z</time>
      </trkpt>
      <trkpt lat="42.3687980" lon="-5.0363140">
        <ele>828.8</ele>
        <time>2021-10-02T09:02:53Z</time>
      </trkpt>
      <trkpt lat="42.3688650" lon="-5.0367490">
        <ele>828.2</ele>
        <time>2021-10-02T09:02:59Z</time>
      </trkpt>
      <trkpt lat="42.3689570" lon="-5.0369860">
        <ele>828.0</ele>
        <time>2021-10-02T09:03:02Z</time>
      </trkpt>
      <trkpt lat="42.3691270" lon="-5.0374090">
        <ele>827.8</ele>
        <time>2021-10-02T09:03:07Z</time>
      </trkpt>
      <trkpt lat="42.3693580" lon="-5.0379800">
        <ele>827.0</ele>
        <time>2021-10-02T09:03:14Z</time>
      </trkpt>
      <trkpt lat="42.3693830" lon="-5.0380580">
        <ele>826.8</ele>
        <time>2021-10-02T09:03:15Z</time>
      </trkpt>
      <trkpt lat="42.3694020" lon="-5.0381360">
        <ele>826.8</ele>
        <time>2021-10-02T09:03:16Z</time>
      </trkpt>
      <trkpt lat="42.3694330" lon="-5.0382810">
        <ele>826.8</ele>
        <time>2021-10-02T09:03:18Z</time>
      </trkpt>
      <trkpt lat="42.3695160" lon="-5.0384840">
        <ele>826.6</ele>
        <time>2021-10-02T09:03:21Z</time>
      </trkpt>
      <trkpt lat="42.3695890" lon="-5.0386210">
        <ele>826.6</ele>
        <time>2021-10-02T09:03:23Z</time>
      </trkpt>
      <trkpt lat="42.3696930" lon="-5.0388450">
        <ele>826.6</ele>
        <time>2021-10-02T09:03:26Z</time>
      </trkpt>
      <trkpt lat="42.3697900" lon="-5.0390900">
        <ele>826.6</ele>
        <time>2021-10-02T09:03:29Z</time>
      </trkpt>
      <trkpt lat="42.3699180" lon="-5.0394170">
        <ele>826.6</ele>
        <time>2021-10-02T09:03:33Z</time>
      </trkpt>
      <trkpt lat="42.3701480" lon="-5.0400120">
        <ele>826.6</ele>
        <time>2021-10-02T09:03:40Z</time>
      </trkpt>
      <trkpt lat="42.3704070" lon="-5.0406700">
        <ele>827.0</ele>
        <time>2021-10-02T09:03:48Z</time>
      </trkpt>
      <trkpt lat="42.3706630" lon="-5.0413430">
        <ele>827.2</ele>
        <time>2021-10-02T09:03:56Z</time>
      </trkpt>
      <trkpt lat="42.3709080" lon="-5.0420160">
        <ele>827.2</ele>
        <time>2021-10-02T09:04:04Z</time>
      </trkpt>
      <trkpt lat="42.3711980" lon="-5.0427320">
        <ele>827.0</ele>
        <time>2021-10-02T09:04:13Z</time>
      </trkpt>
      <trkpt lat="42.3713600" lon="-5.0431440">
        <ele>827.0</ele>
        <time>2021-10-02T09:04:18Z</time>
      </trkpt>
      <trkpt lat="42.3715170" lon="-5.0435750">
        <ele>827.0</ele>
        <time>2021-10-02T09:04:23Z</time>
      </trkpt>
      <trkpt lat="42.3717600" lon="-5.0442390">
        <ele>827.0</ele>
        <time>2021-10-02T09:04:31Z</time>
      </trkpt>
      <trkpt lat="42.3719700" lon="-5.0447920">
        <ele>827.0</ele>
        <time>2021-10-02T09:04:38Z</time>
      </trkpt>
      <trkpt lat="42.3722220" lon="-5.0454960">
        <ele>826.8</ele>
        <time>2021-10-02T09:04:47Z</time>
      </trkpt>
      <trkpt lat="42.3725330" lon="-5.0461710">
        <ele>826.6</ele>
        <time>2021-10-02T09:04:56Z</time>
      </trkpt>
      <trkpt lat="42.3726430" lon="-5.0463880">
        <ele>826.2</ele>
        <time>2021-10-02T09:04:59Z</time>
      </trkpt>
      <trkpt lat="42.3726730" lon="-5.0464580">
        <ele>826.0</ele>
        <time>2021-10-02T09:05:00Z</time>
      </trkpt>
      <trkpt lat="42.3727830" lon="-5.0467760">
        <ele>825.6</ele>
        <time>2021-10-02T09:05:05Z</time>
      </trkpt>
      <trkpt lat="42.3728830" lon="-5.0469700">
        <ele>825.4</ele>
        <time>2021-10-02T09:05:09Z</time>
      </trkpt>
      <trkpt lat="42.3730460" lon="-5.0472630">
        <ele>825.2</ele>
        <time>2021-10-02T09:05:16Z</time>
      </trkpt>
      <trkpt lat="42.3731420" lon="-5.0474490">
        <ele>825.0</ele>
        <time>2021-10-02T09:05:19Z</time>
      </trkpt>
      <trkpt lat="42.3732520" lon="-5.0476570">
        <ele>825.0</ele>
        <time>2021-10-02T09:05:22Z</time>
      </trkpt>
      <trkpt lat="42.3733270" lon="-5.0477970">
        <ele>825.0</ele>
        <time>2021-10-02T09:05:24Z</time>
      </trkpt>
      <trkpt lat="42.3736470" lon="-5.0484080">
        <ele>824.4</ele>
        <time>2021-10-02T09:05:33Z</time>
      </trkpt>
      <trkpt lat="42.3737470" lon="-5.0486020">
        <ele>824.2</ele>
        <time>2021-10-02T09:05:36Z</time>
      </trkpt>
      <trkpt lat="42.3739570" lon="-5.0490340">
        <ele>823.8</ele>
        <time>2021-10-02T09:05:43Z</time>
      </trkpt>
      <trkpt lat="42.3739730" lon="-5.0492730">
        <ele>823.6</ele>
        <time>2021-10-02T09:05:47Z</time>
      </trkpt>
      <trkpt lat="42.3739270" lon="-5.0493560">
        <ele>823.6</ele>
        <time>2021-10-02T09:05:49Z</time>
      </trkpt>
      <trkpt lat="42.3738660" lon="-5.0495170">
        <ele>823.2</ele>
        <time>2021-10-02T09:05:53Z</time>
      </trkpt>
      <trkpt lat="42.3738750" lon="-5.0495620">
        <ele>823.0</ele>
        <time>2021-10-02T09:05:54Z</time>
      </trkpt>
      <trkpt lat="42.3740250" lon="-5.0497210">
        <ele>822.0</ele>
        <time>2021-10-02T09:05:59Z</time>
      </trkpt>
      <trkpt lat="42.3740960" lon="-5.0497960">
        <ele>821.6</ele>
        <time>2021-10-02T09:06:01Z</time>
      </trkpt>
      <trkpt lat="42.3742660" lon="-5.0498610">
        <ele>821.0</ele>
        <time>2021-10-02T09:06:05Z</time>
      </trkpt>
      <trkpt lat="42.3743090" lon="-5.0498710">
        <ele>821.0</ele>
        <time>2021-10-02T09:06:06Z</time>
      </trkpt>
      <trkpt lat="42.3743510" lon="-5.0498880">
        <ele>820.4</ele>
        <time>2021-10-02T09:06:07Z</time>
      </trkpt>
      <trkpt lat="42.3744310" lon="-5.0499460">
        <ele>818.8</ele>
        <time>2021-10-02T09:06:09Z</time>
      </trkpt>
      <trkpt lat="42.3745260" lon="-5.0500870">
        <ele>817.6</ele>
        <time>2021-10-02T09:06:12Z</time>
      </trkpt>
      <trkpt lat="42.3745540" lon="-5.0501420">
        <ele>817.4</ele>
        <time>2021-10-02T09:06:13Z</time>
      </trkpt>
      <trkpt lat="42.3746980" lon="-5.0504190">
        <ele>816.8</ele>
        <time>2021-10-02T09:06:18Z</time>
      </trkpt>
      <trkpt lat="42.3748230" lon="-5.0506380">
        <ele>816.8</ele>
        <time>2021-10-02T09:06:22Z</time>
      </trkpt>
      <trkpt lat="42.3749410" lon="-5.0508720">
        <ele>816.6</ele>
        <time>2021-10-02T09:06:26Z</time>
      </trkpt>
      <trkpt lat="42.3750270" lon="-5.0510460">
        <ele>816.6</ele>
        <time>2021-10-02T09:06:29Z</time>
      </trkpt>
      <trkpt lat="42.3753610" lon="-5.0516410">
        <ele>816.4</ele>
        <time>2021-10-02T09:06:39Z</time>
      </trkpt>
      <trkpt lat="42.3755280" lon="-5.0520510">
        <ele>816.2</ele>
        <time>2021-10-02T09:06:45Z</time>
      </trkpt>
      <trkpt lat="42.3757390" lon="-5.0527590">
        <ele>816.0</ele>
        <time>2021-10-02T09:06:55Z</time>
      </trkpt>
      <trkpt lat="42.3758560" lon="-5.0533270">
        <ele>815.8</ele>
        <time>2021-10-02T09:07:03Z</time>
      </trkpt>
      <trkpt lat="42.3758880" lon="-5.0535360">
        <ele>815.8</ele>
        <time>2021-10-02T09:07:06Z</time>
      </trkpt>
      <trkpt lat="42.3759590" lon="-5.0538850">
        <ele>815.8</ele>
        <time>2021-10-02T09:07:11Z</time>
      </trkpt>
      <trkpt lat="42.3760170" lon="-5.0542420">
        <ele>815.4</ele>
        <time>2021-10-02T09:07:16Z</time>
      </trkpt>
      <trkpt lat="42.3761280" lon="-5.0549240">
        <ele>814.8</ele>
        <time>2021-10-02T09:07:26Z</time>
      </trkpt>
      <trkpt lat="42.3762050" lon="-5.0553170">
        <ele>814.6</ele>
        <time>2021-10-02T09:07:32Z</time>
      </trkpt>
      <trkpt lat="42.3762600" lon="-5.0555940">
        <ele>814.6</ele>
        <time>2021-10-02T09:07:36Z</time>
      </trkpt>
      <trkpt lat="42.3762730" lon="-5.0556640">
        <ele>814.4</ele>
        <time>2021-10-02T09:07:37Z</time>
      </trkpt>
      <trkpt lat="42.3763220" lon="-5.0559450">
        <ele>814.2</ele>
        <time>2021-10-02T09:07:41Z</time>
      </trkpt>
      <trkpt lat="42.3763710" lon="-5.0562230">
        <ele>813.8</ele>
        <time>2021-10-02T09:07:45Z</time>
      </trkpt>
      <trkpt lat="42.3764480" lon="-5.0567620">
        <ele>813.6</ele>
        <time>2021-10-02T09:07:53Z</time>
      </trkpt>
      <trkpt lat="42.3765160" lon="-5.0570330">
        <ele>813.4</ele>
        <time>2021-10-02T09:07:57Z</time>
      </trkpt>
      <trkpt lat="42.3765450" lon="-5.0571750">
        <ele>813.2</ele>
        <time>2021-10-02T09:07:59Z</time>
      </trkpt>
      <trkpt lat="42.3765890" lon="-5.0573860">
        <ele>813.0</ele>
        <time>2021-10-02T09:08:02Z</time>
      </trkpt>
      <trkpt lat="42.3766320" lon="-5.0575970">
        <ele>812.8</ele>
        <time>2021-10-02T09:08:05Z</time>
      </trkpt>
      <trkpt lat="42.3767130" lon="-5.0579500">
        <ele>812.2</ele>
        <time>2021-10-02T09:08:10Z</time>
      </trkpt>
      <trkpt lat="42.3768520" lon="-5.0585000">
        <ele>810.8</ele>
        <time>2021-10-02T09:08:18Z</time>
      </trkpt>
      <trkpt lat="42.3770300" lon="-5.0591820">
        <ele>809.6</ele>
        <time>2021-10-02T09:08:28Z</time>
      </trkpt>
      <trkpt lat="42.3772220" lon="-5.0599150">
        <ele>808.6</ele>
        <time>2021-10-02T09:08:39Z</time>
      </trkpt>
      <trkpt lat="42.3773710" lon="-5.0604890">
        <ele>807.0</ele>
        <time>2021-10-02T09:08:48Z</time>
      </trkpt>
      <trkpt lat="42.3775560" lon="-5.0611750">
        <ele>805.8</ele>
        <time>2021-10-02T09:08:59Z</time>
      </trkpt>
      <trkpt lat="42.3775700" lon="-5.0612350">
        <ele>805.4</ele>
        <time>2021-10-02T09:09:02Z</time>
      </trkpt>
      <trkpt lat="42.3775860" lon="-5.0612920">
        <ele>770.8</ele>
        <time>2021-10-02T09:11:55Z</time>
      </trkpt>
      <trkpt lat="42.3775910" lon="-5.0613190">
        <ele>770.4</ele>
        <time>2021-10-02T09:11:56Z</time>
      </trkpt>
      <trkpt lat="42.3776390" lon="-5.0614930">
        <ele>770.0</ele>
        <time>2021-10-02T09:12:00Z</time>
      </trkpt>
      <trkpt lat="42.3776680" lon="-5.0615990">
        <ele>769.6</ele>
        <time>2021-10-02T09:12:02Z</time>
      </trkpt>
      <trkpt lat="42.3777140" lon="-5.0617660">
        <ele>769.4</ele>
        <time>2021-10-02T09:12:05Z</time>
      </trkpt>
      <trkpt lat="42.3779060" lon="-5.0625020">
        <ele>768.0</ele>
        <time>2021-10-02T09:12:17Z</time>
      </trkpt>
      <trkpt lat="42.3779610" lon="-5.0626920">
        <ele>767.8</ele>
        <time>2021-10-02T09:12:20Z</time>
      </trkpt>
      <trkpt lat="42.3781560" lon="-5.0634210">
        <ele>767.2</ele>
        <time>2021-10-02T09:12:31Z</time>
      </trkpt>
      <trkpt lat="42.3782480" lon="-5.0636980">
        <ele>766.8</ele>
        <time>2021-10-02T09:12:35Z</time>
      </trkpt>
      <trkpt lat="42.3783020" lon="-5.0638400">
        <ele>766.8</ele>
        <time>2021-10-02T09:12:37Z</time>
      </trkpt>
      <trkpt lat="42.3783930" lon="-5.0640470">
        <ele>766.8</ele>
        <time>2021-10-02T09:12:40Z</time>
      </trkpt>
      <trkpt lat="42.3787180" lon="-5.0646890">
        <ele>766.6</ele>
        <time>2021-10-02T09:12:49Z</time>
      </trkpt>
      <trkpt lat="42.3789210" lon="-5.0650330">
        <ele>766.6</ele>
        <time>2021-10-02T09:12:54Z</time>
      </trkpt>
      <trkpt lat="42.3792750" lon="-5.0656170">
        <ele>766.4</ele>
        <time>2021-10-02T09:13:03Z</time>
      </trkpt>
      <trkpt lat="42.3794620" lon="-5.0659190">
        <ele>766.0</ele>
        <time>2021-10-02T09:13:08Z</time>
      </trkpt>
      <trkpt lat="42.3797180" lon="-5.0663320">
        <ele>766.0</ele>
        <time>2021-10-02T09:13:15Z</time>
      </trkpt>
      <trkpt lat="42.3798280" lon="-5.0665110">
        <ele>765.4</ele>
        <time>2021-10-02T09:13:18Z</time>
      </trkpt>
      <trkpt lat="42.3798650" lon="-5.0665680">
        <ele>765.4</ele>
        <time>2021-10-02T09:13:19Z</time>
      </trkpt>
      <trkpt lat="42.3800060" lon="-5.0667900">
        <ele>765.4</ele>
        <time>2021-10-02T09:13:23Z</time>
      </trkpt>
      <trkpt lat="42.3800690" lon="-5.0668940">
        <ele>765.4</ele>
        <time>2021-10-02T09:13:25Z</time>
      </trkpt>
      <trkpt lat="42.3801280" lon="-5.0669880">
        <ele>765.2</ele>
        <time>2021-10-02T09:13:27Z</time>
      </trkpt>
      <trkpt lat="42.3801960" lon="-5.0670990">
        <ele>765.2</ele>
        <time>2021-10-02T09:13:30Z</time>
      </trkpt>
      <trkpt lat="42.3802380" lon="-5.0671690">
        <ele>765.2</ele>
        <time>2021-10-02T09:13:33Z</time>
      </trkpt>
      <trkpt lat="42.3802740" lon="-5.0672300">
        <ele>765.0</ele>
        <time>2021-10-02T09:13:37Z</time>
      </trkpt>
      <trkpt lat="42.3803600" lon="-5.0673550">
        <ele>764.4</ele>
        <time>2021-10-02T09:13:43Z</time>
      </trkpt>
      <trkpt lat="42.3804160" lon="-5.0674430">
        <ele>764.0</ele>
        <time>2021-10-02T09:13:45Z</time>
      </trkpt>
      <trkpt lat="42.3805060" lon="-5.0675760">
        <ele>763.8</ele>
        <time>2021-10-02T09:13:48Z</time>
      </trkpt>
      <trkpt lat="42.3806720" lon="-5.0678000">
        <ele>763.0</ele>
        <time>2021-10-02T09:13:55Z</time>
      </trkpt>
      <trkpt lat="42.3806900" lon="-5.0678300">
        <ele>762.4</ele>
        <time>2021-10-02T09:13:56Z</time>
      </trkpt>
      <trkpt lat="42.3808890" lon="-5.0682460">
        <ele>761.2</ele>
        <time>2021-10-02T09:14:07Z</time>
      </trkpt>
      <trkpt lat="42.3809360" lon="-5.0683710">
        <ele>761.0</ele>
        <time>2021-10-02T09:14:09Z</time>
      </trkpt>
      <trkpt lat="42.3809840" lon="-5.0685010">
        <ele>760.8</ele>
        <time>2021-10-02T09:14:11Z</time>
      </trkpt>
      <trkpt lat="42.3810400" lon="-5.0686340">
        <ele>760.6</ele>
        <time>2021-10-02T09:14:13Z</time>
      </trkpt>
      <trkpt lat="42.3811210" lon="-5.0688350">
        <ele>760.0</ele>
        <time>2021-10-02T09:14:16Z</time>
      </trkpt>
      <trkpt lat="42.3812170" lon="-5.0691070">
        <ele>759.8</ele>
        <time>2021-10-02T09:14:20Z</time>
      </trkpt>
      <trkpt lat="42.3813080" lon="-5.0693830">
        <ele>758.4</ele>
        <time>2021-10-02T09:14:24Z</time>
      </trkpt>
      <trkpt lat="42.3814190" lon="-5.0697290">
        <ele>757.8</ele>
        <time>2021-10-02T09:14:29Z</time>
      </trkpt>
      <trkpt lat="42.3816220" lon="-5.0703210">
        <ele>757.4</ele>
        <time>2021-10-02T09:14:38Z</time>
      </trkpt>
      <trkpt lat="42.3818510" lon="-5.0710380">
        <ele>757.4</ele>
        <time>2021-10-02T09:14:49Z</time>
      </trkpt>
      <trkpt lat="42.3820210" lon="-5.0715960">
        <ele>757.4</ele>
        <time>2021-10-02T09:14:58Z</time>
      </trkpt>
      <trkpt lat="42.3820820" lon="-5.0718530">
        <ele>757.4</ele>
        <time>2021-10-02T09:15:02Z</time>
      </trkpt>
      <trkpt lat="42.3821410" lon="-5.0722530">
        <ele>758.0</ele>
        <time>2021-10-02T09:15:08Z</time>
      </trkpt>
      <trkpt lat="42.3821620" lon="-5.0725990">
        <ele>758.2</ele>
        <time>2021-10-02T09:15:13Z</time>
      </trkpt>
      <trkpt lat="42.3821820" lon="-5.0733930">
        <ele>758.6</ele>
        <time>2021-10-02T09:15:25Z</time>
      </trkpt>
      <trkpt lat="42.3822070" lon="-5.0738190">
        <ele>759.0</ele>
        <time>2021-10-02T09:15:32Z</time>
      </trkpt>
      <trkpt lat="42.3822940" lon="-5.0739390">
        <ele>759.4</ele>
        <time>2021-10-02T09:15:35Z</time>
      </trkpt>
      <trkpt lat="42.3823870" lon="-5.0741880">
        <ele>759.4</ele>
        <time>2021-10-02T09:15:40Z</time>
      </trkpt>
      <trkpt lat="42.3823960" lon="-5.0743150">
        <ele>759.6</ele>
        <time>2021-10-02T09:15:42Z</time>
      </trkpt>
      <trkpt lat="42.3824070" lon="-5.0745790">
        <ele>760.0</ele>
        <time>2021-10-02T09:15:46Z</time>
      </trkpt>
      <trkpt lat="42.3824140" lon="-5.0747130">
        <ele>760.0</ele>
        <time>2021-10-02T09:15:48Z</time>
      </trkpt>
      <trkpt lat="42.3824210" lon="-5.0749150">
        <ele>760.2</ele>
        <time>2021-10-02T09:15:51Z</time>
      </trkpt>
      <trkpt lat="42.3824440" lon="-5.0751590">
        <ele>760.6</ele>
        <time>2021-10-02T09:15:55Z</time>
      </trkpt>
      <trkpt lat="42.3824500" lon="-5.0752180">
        <ele>760.8</ele>
        <time>2021-10-02T09:15:56Z</time>
      </trkpt>
      <trkpt lat="42.3824600" lon="-5.0753330">
        <ele>760.8</ele>
        <time>2021-10-02T09:15:58Z</time>
      </trkpt>
      <trkpt lat="42.3824790" lon="-5.0756230">
        <ele>761.6</ele>
        <time>2021-10-02T09:16:02Z</time>
      </trkpt>
      <trkpt lat="42.3824780" lon="-5.0756950">
        <ele>761.6</ele>
        <time>2021-10-02T09:16:03Z</time>
      </trkpt>
      <trkpt lat="42.3824950" lon="-5.0760660">
        <ele>762.8</ele>
        <time>2021-10-02T09:16:08Z</time>
      </trkpt>
      <trkpt lat="42.3825020" lon="-5.0763240">
        <ele>763.4</ele>
        <time>2021-10-02T09:16:12Z</time>
      </trkpt>
      <trkpt lat="42.3824920" lon="-5.0763820">
        <ele>763.8</ele>
        <time>2021-10-02T09:16:13Z</time>
      </trkpt>
      <trkpt lat="42.3824400" lon="-5.0765530">
        <ele>764.6</ele>
        <time>2021-10-02T09:16:17Z</time>
      </trkpt>
      <trkpt lat="42.3824650" lon="-5.0766330">
        <ele>765.2</ele>
        <time>2021-10-02T09:16:19Z</time>
      </trkpt>
      <trkpt lat="42.3825500" lon="-5.0767960">
        <ele>765.6</ele>
        <time>2021-10-02T09:16:24Z</time>
      </trkpt>
      <trkpt lat="42.3825720" lon="-5.0768540">
        <ele>765.8</ele>
        <time>2021-10-02T09:16:26Z</time>
      </trkpt>
      <trkpt lat="42.3824590" lon="-5.0770480">
        <ele>766.6</ele>
        <time>2021-10-02T09:16:31Z</time>
      </trkpt>
      <trkpt lat="42.3824310" lon="-5.0771760">
        <ele>766.8</ele>
        <time>2021-10-02T09:16:33Z</time>
      </trkpt>
      <trkpt lat="42.3824220" lon="-5.0772430">
        <ele>766.8</ele>
        <time>2021-10-02T09:16:34Z</time>
      </trkpt>
      <trkpt lat="42.3825150" lon="-5.0774830">
        <ele>767.2</ele>
        <time>2021-10-02T09:16:38Z</time>
      </trkpt>
      <trkpt lat="42.3826010" lon="-5.0775990">
        <ele>767.2</ele>
        <time>2021-10-02T09:16:40Z</time>
      </trkpt>
      <trkpt lat="42.3826390" lon="-5.0776630">
        <ele>767.2</ele>
        <time>2021-10-02T09:16:41Z</time>
      </trkpt>
      <trkpt lat="42.3829020" lon="-5.0781240">
        <ele>768.0</ele>
        <time>2021-10-02T09:16:49Z</time>
      </trkpt>
      <trkpt lat="42.3829250" lon="-5.0781910">
        <ele>768.2</ele>
        <time>2021-10-02T09:16:50Z</time>
      </trkpt>
      <trkpt lat="42.3830290" lon="-5.0787290">
        <ele>768.8</ele>
        <time>2021-10-02T09:16:57Z</time>
      </trkpt>
      <trkpt lat="42.3830590" lon="-5.0788890">
        <ele>768.8</ele>
        <time>2021-10-02T09:16:59Z</time>
      </trkpt>
      <trkpt lat="42.3831760" lon="-5.0796130">
        <ele>769.0</ele>
        <time>2021-10-02T09:17:08Z</time>
      </trkpt>
      <trkpt lat="42.3832980" lon="-5.0803450">
        <ele>769.2</ele>
        <time>2021-10-02T09:17:17Z</time>
      </trkpt>
      <trkpt lat="42.3833120" lon="-5.0804280">
        <ele>769.4</ele>
        <time>2021-10-02T09:17:18Z</time>
      </trkpt>
      <trkpt lat="42.3834070" lon="-5.0810210">
        <ele>770.2</ele>
        <time>2021-10-02T09:17:25Z</time>
      </trkpt>
      <trkpt lat="42.3834840" lon="-5.0814380">
        <ele>771.2</ele>
        <time>2021-10-02T09:17:30Z</time>
      </trkpt>
      <trkpt lat="42.3835610" lon="-5.0819220">
        <ele>772.0</ele>
        <time>2021-10-02T09:17:36Z</time>
      </trkpt>
      <trkpt lat="42.3836790" lon="-5.0826880">
        <ele>772.6</ele>
        <time>2021-10-02T09:17:46Z</time>
      </trkpt>
      <trkpt lat="42.3836920" lon="-5.0827640">
        <ele>772.8</ele>
        <time>2021-10-02T09:17:47Z</time>
      </trkpt>
      <trkpt lat="42.3837370" lon="-5.0830830">
        <ele>773.2</ele>
        <time>2021-10-02T09:17:51Z</time>
      </trkpt>
      <trkpt lat="42.3837750" lon="-5.0833410">
        <ele>773.4</ele>
        <time>2021-10-02T09:17:54Z</time>
      </trkpt>
      <trkpt lat="42.3837860" lon="-5.0834250">
        <ele>773.6</ele>
        <time>2021-10-02T09:17:55Z</time>
      </trkpt>
      <trkpt lat="42.3838450" lon="-5.0840040">
        <ele>774.4</ele>
        <time>2021-10-02T09:18:02Z</time>
      </trkpt>
      <trkpt lat="42.3838950" lon="-5.0847950">
        <ele>775.2</ele>
        <time>2021-10-02T09:18:11Z</time>
      </trkpt>
      <trkpt lat="42.3839410" lon="-5.0855170">
        <ele>776.0</ele>
        <time>2021-10-02T09:18:19Z</time>
      </trkpt>
      <trkpt lat="42.3839850" lon="-5.0862620">
        <ele>776.8</ele>
        <time>2021-10-02T09:18:27Z</time>
      </trkpt>
      <trkpt lat="42.3839950" lon="-5.0864530">
        <ele>776.8</ele>
        <time>2021-10-02T09:18:29Z</time>
      </trkpt>
      <trkpt lat="42.3840210" lon="-5.0869350">
        <ele>777.6</ele>
        <time>2021-10-02T09:18:34Z</time>
      </trkpt>
      <trkpt lat="42.3840790" lon="-5.0877160">
        <ele>778.2</ele>
        <time>2021-10-02T09:18:42Z</time>
      </trkpt>
      <trkpt lat="42.3840970" lon="-5.0881080">
        <ele>778.4</ele>
        <time>2021-10-02T09:18:46Z</time>
      </trkpt>
      <trkpt lat="42.3841520" lon="-5.0888980">
        <ele>778.8</ele>
        <time>2021-10-02T09:18:54Z</time>
      </trkpt>
      <trkpt lat="42.3841750" lon="-5.0892890">
        <ele>779.2</ele>
        <time>2021-10-02T09:18:58Z</time>
      </trkpt>
      <trkpt lat="42.3842090" lon="-5.0898640">
        <ele>779.8</ele>
        <time>2021-10-02T09:19:04Z</time>
      </trkpt>
      <trkpt lat="42.3842030" lon="-5.0904300">
        <ele>779.8</ele>
        <time>2021-10-02T09:19:10Z</time>
      </trkpt>
      <trkpt lat="42.3841730" lon="-5.0911810">
        <ele>780.6</ele>
        <time>2021-10-02T09:19:18Z</time>
      </trkpt>
      <trkpt lat="42.3841620" lon="-5.0914710">
        <ele>780.8</ele>
        <time>2021-10-02T09:19:21Z</time>
      </trkpt>
      <trkpt lat="42.3841360" lon="-5.0922470">
        <ele>781.4</ele>
        <time>2021-10-02T09:19:29Z</time>
      </trkpt>
      <trkpt lat="42.3841310" lon="-5.0923420">
        <ele>781.6</ele>
        <time>2021-10-02T09:19:30Z</time>
      </trkpt>
      <trkpt lat="42.3841080" lon="-5.0928950">
        <ele>782.6</ele>
        <time>2021-10-02T09:19:36Z</time>
      </trkpt>
      <trkpt lat="42.3840730" lon="-5.0937060">
        <ele>783.2</ele>
        <time>2021-10-02T09:19:45Z</time>
      </trkpt>
      <trkpt lat="42.3840700" lon="-5.0937940">
        <ele>783.4</ele>
        <time>2021-10-02T09:19:46Z</time>
      </trkpt>
      <trkpt lat="42.3840510" lon="-5.0944060">
        <ele>784.0</ele>
        <time>2021-10-02T09:19:53Z</time>
      </trkpt>
      <trkpt lat="42.3840440" lon="-5.0946640">
        <ele>784.4</ele>
        <time>2021-10-02T09:19:56Z</time>
      </trkpt>
      <trkpt lat="42.3840120" lon="-5.0954200">
        <ele>785.0</ele>
        <time>2021-10-02T09:20:05Z</time>
      </trkpt>
      <trkpt lat="42.3840080" lon="-5.0955820">
        <ele>785.2</ele>
        <time>2021-10-02T09:20:07Z</time>
      </trkpt>
      <trkpt lat="42.3839770" lon="-5.0962400">
        <ele>786.2</ele>
        <time>2021-10-02T09:20:15Z</time>
      </trkpt>
      <trkpt lat="42.3839530" lon="-5.0966470">
        <ele>786.4</ele>
        <time>2021-10-02T09:20:20Z</time>
      </trkpt>
      <trkpt lat="42.3839470" lon="-5.0969650">
        <ele>786.6</ele>
        <time>2021-10-02T09:20:24Z</time>
      </trkpt>
      <trkpt lat="42.3839620" lon="-5.0972150">
        <ele>787.0</ele>
        <time>2021-10-02T09:20:27Z</time>
      </trkpt>
      <trkpt lat="42.3839980" lon="-5.0976980">
        <ele>787.8</ele>
        <time>2021-10-02T09:20:33Z</time>
      </trkpt>
      <trkpt lat="42.3840270" lon="-5.0980910">
        <ele>788.0</ele>
        <time>2021-10-02T09:20:38Z</time>
      </trkpt>
      <trkpt lat="42.3840770" lon="-5.0988240">
        <ele>788.4</ele>
        <time>2021-10-02T09:20:47Z</time>
      </trkpt>
      <trkpt lat="42.3841220" lon="-5.0994950">
        <ele>789.2</ele>
        <time>2021-10-02T09:20:55Z</time>
      </trkpt>
      <trkpt lat="42.3841650" lon="-5.1002690">
        <ele>790.0</ele>
        <time>2021-10-02T09:21:04Z</time>
      </trkpt>
      <trkpt lat="42.3841830" lon="-5.1005260">
        <ele>790.2</ele>
        <time>2021-10-02T09:21:07Z</time>
      </trkpt>
      <trkpt lat="42.3842310" lon="-5.1012150">
        <ele>791.2</ele>
        <time>2021-10-02T09:21:15Z</time>
      </trkpt>
      <trkpt lat="42.3842790" lon="-5.1020130">
        <ele>792.0</ele>
        <time>2021-10-02T09:21:24Z</time>
      </trkpt>
      <trkpt lat="42.3842860" lon="-5.1021040">
        <ele>792.0</ele>
        <time>2021-10-02T09:21:25Z</time>
      </trkpt>
      <trkpt lat="42.3843340" lon="-5.1028320">
        <ele>792.8</ele>
        <time>2021-10-02T09:21:33Z</time>
      </trkpt>
      <trkpt lat="42.3843500" lon="-5.1031040">
        <ele>792.8</ele>
        <time>2021-10-02T09:21:36Z</time>
      </trkpt>
      <trkpt lat="42.3844020" lon="-5.1038990">
        <ele>793.0</ele>
        <time>2021-10-02T09:21:45Z</time>
      </trkpt>
      <trkpt lat="42.3844490" lon="-5.1046000">
        <ele>793.8</ele>
        <time>2021-10-02T09:21:53Z</time>
      </trkpt>
      <trkpt lat="42.3844860" lon="-5.1051270">
        <ele>794.6</ele>
        <time>2021-10-02T09:21:59Z</time>
      </trkpt>
      <trkpt lat="42.3845340" lon="-5.1059060">
        <ele>795.2</ele>
        <time>2021-10-02T09:22:08Z</time>
      </trkpt>
      <trkpt lat="42.3845460" lon="-5.1060820">
        <ele>795.4</ele>
        <time>2021-10-02T09:22:10Z</time>
      </trkpt>
      <trkpt lat="42.3846020" lon="-5.1068860">
        <ele>796.4</ele>
        <time>2021-10-02T09:22:19Z</time>
      </trkpt>
      <trkpt lat="42.3846080" lon="-5.1069760">
        <ele>796.2</ele>
        <time>2021-10-02T09:22:20Z</time>
      </trkpt>
      <trkpt lat="42.3846520" lon="-5.1077170">
        <ele>796.6</ele>
        <time>2021-10-02T09:22:28Z</time>
      </trkpt>
      <trkpt lat="42.3846580" lon="-5.1079890">
        <ele>797.0</ele>
        <time>2021-10-02T09:22:31Z</time>
      </trkpt>
      <trkpt lat="42.3846500" lon="-5.1081530">
        <ele>797.0</ele>
        <time>2021-10-02T09:22:33Z</time>
      </trkpt>
      <trkpt lat="42.3846590" lon="-5.1082310">
        <ele>797.2</ele>
        <time>2021-10-02T09:22:34Z</time>
      </trkpt>
      <trkpt lat="42.3846990" lon="-5.1085560">
        <ele>797.6</ele>
        <time>2021-10-02T09:22:38Z</time>
      </trkpt>
      <trkpt lat="42.3846880" lon="-5.1088730">
        <ele>798.0</ele>
        <time>2021-10-02T09:22:42Z</time>
      </trkpt>
      <trkpt lat="42.3846710" lon="-5.1090150">
        <ele>798.0</ele>
        <time>2021-10-02T09:22:44Z</time>
      </trkpt>
      <trkpt lat="42.3846820" lon="-5.1092320">
        <ele>798.0</ele>
        <time>2021-10-02T09:22:47Z</time>
      </trkpt>
      <trkpt lat="42.3846700" lon="-5.1095350">
        <ele>798.4</ele>
        <time>2021-10-02T09:22:51Z</time>
      </trkpt>
      <trkpt lat="42.3846440" lon="-5.1096990">
        <ele>798.4</ele>
        <time>2021-10-02T09:22:53Z</time>
      </trkpt>
      <trkpt lat="42.3845660" lon="-5.1099300">
        <ele>798.6</ele>
        <time>2021-10-02T09:22:56Z</time>
      </trkpt>
      <trkpt lat="42.3845620" lon="-5.1100900">
        <ele>798.8</ele>
        <time>2021-10-02T09:22:58Z</time>
      </trkpt>
      <trkpt lat="42.3846150" lon="-5.1102340">
        <ele>798.8</ele>
        <time>2021-10-02T09:23:00Z</time>
      </trkpt>
      <trkpt lat="42.3846490" lon="-5.1102940">
        <ele>798.8</ele>
        <time>2021-10-02T09:23:01Z</time>
      </trkpt>
      <trkpt lat="42.3847070" lon="-5.1104030">
        <ele>799.0</ele>
        <time>2021-10-02T09:23:03Z</time>
      </trkpt>
      <trkpt lat="42.3847350" lon="-5.1106580">
        <ele>799.2</ele>
        <time>2021-10-02T09:23:07Z</time>
      </trkpt>
      <trkpt lat="42.3847620" lon="-5.1109510">
        <ele>799.4</ele>
        <time>2021-10-02T09:23:11Z</time>
      </trkpt>
      <trkpt lat="42.3848010" lon="-5.1112430">
        <ele>799.8</ele>
        <time>2021-10-02T09:23:15Z</time>
      </trkpt>
      <trkpt lat="42.3848300" lon="-5.1113890">
        <ele>800.0</ele>
        <time>2021-10-02T09:23:17Z</time>
      </trkpt>
      <trkpt lat="42.3848920" lon="-5.1116050">
        <ele>800.0</ele>
        <time>2021-10-02T09:23:20Z</time>
      </trkpt>
      <trkpt lat="42.3850930" lon="-5.1122860">
        <ele>800.2</ele>
        <time>2021-10-02T09:23:30Z</time>
      </trkpt>
      <trkpt lat="42.3851840" lon="-5.1126270">
        <ele>800.6</ele>
        <time>2021-10-02T09:23:35Z</time>
      </trkpt>
      <trkpt lat="42.3853680" lon="-5.1133280">
        <ele>801.4</ele>
        <time>2021-10-02T09:23:45Z</time>
      </trkpt>
      <trkpt lat="42.3854410" lon="-5.1135400">
        <ele>801.4</ele>
        <time>2021-10-02T09:23:48Z</time>
      </trkpt>
      <trkpt lat="42.3856430" lon="-5.1142240">
        <ele>802.0</ele>
        <time>2021-10-02T09:23:57Z</time>
      </trkpt>
      <trkpt lat="42.3858070" lon="-5.1149700">
        <ele>802.0</ele>
        <time>2021-10-02T09:24:06Z</time>
      </trkpt>
      <trkpt lat="42.3858860" lon="-5.1153930">
        <ele>802.2</ele>
        <time>2021-10-02T09:24:11Z</time>
      </trkpt>
      <trkpt lat="42.3860030" lon="-5.1159980">
        <ele>802.8</ele>
        <time>2021-10-02T09:24:18Z</time>
      </trkpt>
      <trkpt lat="42.3860740" lon="-5.1163520">
        <ele>802.8</ele>
        <time>2021-10-02T09:24:22Z</time>
      </trkpt>
      <trkpt lat="42.3861630" lon="-5.1168590">
        <ele>803.2</ele>
        <time>2021-10-02T09:24:28Z</time>
      </trkpt>
      <trkpt lat="42.3863210" lon="-5.1175700">
        <ele>803.6</ele>
        <time>2021-10-02T09:24:37Z</time>
      </trkpt>
      <trkpt lat="42.3864680" lon="-5.1180290">
        <ele>803.8</ele>
        <time>2021-10-02T09:24:43Z</time>
      </trkpt>
      <trkpt lat="42.3866980" lon="-5.1187290">
        <ele>804.0</ele>
        <time>2021-10-02T09:24:52Z</time>
      </trkpt>
      <trkpt lat="42.3868260" lon="-5.1191340">
        <ele>804.0</ele>
        <time>2021-10-02T09:24:57Z</time>
      </trkpt>
      <trkpt lat="42.3870380" lon="-5.1198950">
        <ele>803.6</ele>
        <time>2021-10-02T09:25:06Z</time>
      </trkpt>
      <trkpt lat="42.3871910" lon="-5.1206250">
        <ele>803.6</ele>
        <time>2021-10-02T09:25:15Z</time>
      </trkpt>
      <trkpt lat="42.3873400" lon="-5.1213260">
        <ele>803.0</ele>
        <time>2021-10-02T09:25:24Z</time>
      </trkpt>
      <trkpt lat="42.3874860" lon="-5.1220420">
        <ele>802.6</ele>
        <time>2021-10-02T09:25:33Z</time>
      </trkpt>
      <trkpt lat="42.3876330" lon="-5.1227810">
        <ele>802.6</ele>
        <time>2021-10-02T09:25:42Z</time>
      </trkpt>
      <trkpt lat="42.3877800" lon="-5.1235500">
        <ele>802.2</ele>
        <time>2021-10-02T09:25:51Z</time>
      </trkpt>
      <trkpt lat="42.3879420" lon="-5.1243410">
        <ele>802.0</ele>
        <time>2021-10-02T09:26:00Z</time>
      </trkpt>
      <trkpt lat="42.3880890" lon="-5.1250730">
        <ele>802.2</ele>
        <time>2021-10-02T09:26:08Z</time>
      </trkpt>
      <trkpt lat="42.3881220" lon="-5.1252520">
        <ele>802.2</ele>
        <time>2021-10-02T09:26:10Z</time>
      </trkpt>
      <trkpt lat="42.3881730" lon="-5.1255160">
        <ele>802.2</ele>
        <time>2021-10-02T09:26:13Z</time>
      </trkpt>
      <trkpt lat="42.3882560" lon="-5.1259420">
        <ele>802.4</ele>
        <time>2021-10-02T09:26:18Z</time>
      </trkpt>
      <trkpt lat="42.3884070" lon="-5.1266830">
        <ele>802.0</ele>
        <time>2021-10-02T09:26:27Z</time>
      </trkpt>
      <trkpt lat="42.3885020" lon="-5.1271600">
        <ele>802.0</ele>
        <time>2021-10-02T09:26:33Z</time>
      </trkpt>
      <trkpt lat="42.3886430" lon="-5.1279360">
        <ele>801.8</ele>
        <time>2021-10-02T09:26:43Z</time>
      </trkpt>
      <trkpt lat="42.3887560" lon="-5.1284660">
        <ele>801.8</ele>
        <time>2021-10-02T09:26:50Z</time>
      </trkpt>
      <trkpt lat="42.3888310" lon="-5.1288520">
        <ele>801.8</ele>
        <time>2021-10-02T09:26:55Z</time>
      </trkpt>
      <trkpt lat="42.3888740" lon="-5.1290810">
        <ele>801.8</ele>
        <time>2021-10-02T09:26:58Z</time>
      </trkpt>
      <trkpt lat="42.3889270" lon="-5.1293820">
        <ele>802.0</ele>
        <time>2021-10-02T09:27:02Z</time>
      </trkpt>
      <trkpt lat="42.3890050" lon="-5.1298420">
        <ele>801.8</ele>
        <time>2021-10-02T09:27:08Z</time>
      </trkpt>
      <trkpt lat="42.3891550" lon="-5.1305480">
        <ele>802.0</ele>
        <time>2021-10-02T09:27:17Z</time>
      </trkpt>
      <trkpt lat="42.3892280" lon="-5.1308320">
        <ele>802.0</ele>
        <time>2021-10-02T09:27:20Z</time>
      </trkpt>
      <trkpt lat="42.3893310" lon="-5.1312360">
        <ele>801.4</ele>
        <time>2021-10-02T09:27:24Z</time>
      </trkpt>
      <trkpt lat="42.3893730" lon="-5.1314530">
        <ele>801.2</ele>
        <time>2021-10-02T09:27:26Z</time>
      </trkpt>
      <trkpt lat="42.3894160" lon="-5.1316650">
        <ele>801.0</ele>
        <time>2021-10-02T09:27:28Z</time>
      </trkpt>
      <trkpt lat="42.3894560" lon="-5.1318690">
        <ele>800.8</ele>
        <time>2021-10-02T09:27:30Z</time>
      </trkpt>
      <trkpt lat="42.3895010" lon="-5.1321630">
        <ele>800.8</ele>
        <time>2021-10-02T09:27:33Z</time>
      </trkpt>
      <trkpt lat="42.3895260" lon="-5.1325450">
        <ele>800.8</ele>
        <time>2021-10-02T09:27:37Z</time>
      </trkpt>
      <trkpt lat="42.3894890" lon="-5.1329220">
        <ele>800.8</ele>
        <time>2021-10-02T09:27:41Z</time>
      </trkpt>
      <trkpt lat="42.3894320" lon="-5.1332910">
        <ele>800.8</ele>
        <time>2021-10-02T09:27:45Z</time>
      </trkpt>
      <trkpt lat="42.3893840" lon="-5.1335650">
        <ele>800.4</ele>
        <time>2021-10-02T09:27:48Z</time>
      </trkpt>
      <trkpt lat="42.3892920" lon="-5.1340920">
        <ele>800.4</ele>
        <time>2021-10-02T09:27:54Z</time>
      </trkpt>
      <trkpt lat="42.3892470" lon="-5.1343440">
        <ele>800.2</ele>
        <time>2021-10-02T09:27:57Z</time>
      </trkpt>
      <trkpt lat="42.3892210" lon="-5.1345110">
        <ele>800.2</ele>
        <time>2021-10-02T09:27:59Z</time>
      </trkpt>
      <trkpt lat="42.3891850" lon="-5.1347440">
        <ele>800.4</ele>
        <time>2021-10-02T09:28:02Z</time>
      </trkpt>
      <trkpt lat="42.3891330" lon="-5.1350280">
        <ele>799.6</ele>
        <time>2021-10-02T09:28:06Z</time>
      </trkpt>
      <trkpt lat="42.3890680" lon="-5.1354300">
        <ele>799.0</ele>
        <time>2021-10-02T09:28:12Z</time>
      </trkpt>
      <trkpt lat="42.3889360" lon="-5.1361740">
        <ele>798.6</ele>
        <time>2021-10-02T09:28:24Z</time>
      </trkpt>
      <trkpt lat="42.3889130" lon="-5.1362930">
        <ele>798.2</ele>
        <time>2021-10-02T09:28:26Z</time>
      </trkpt>
      <trkpt lat="42.3887860" lon="-5.1370280">
        <ele>797.2</ele>
        <time>2021-10-02T09:28:39Z</time>
      </trkpt>
      <trkpt lat="42.3887390" lon="-5.1373190">
        <ele>796.4</ele>
        <time>2021-10-02T09:28:44Z</time>
      </trkpt>
      <trkpt lat="42.3886790" lon="-5.1375990">
        <ele>795.2</ele>
        <time>2021-10-02T09:28:49Z</time>
      </trkpt>
      <trkpt lat="42.3885780" lon="-5.1382600">
        <ele>794.8</ele>
        <time>2021-10-02T09:29:01Z</time>
      </trkpt>
      <trkpt lat="42.3884580" lon="-5.1390000">
        <ele>793.8</ele>
        <time>2021-10-02T09:29:13Z</time>
      </trkpt>
      <trkpt lat="42.3884290" lon="-5.1391230">
        <ele>793.6</ele>
        <time>2021-10-02T09:29:15Z</time>
      </trkpt>
      <trkpt lat="42.3884200" lon="-5.1391860">
        <ele>793.6</ele>
        <time>2021-10-02T09:29:16Z</time>
      </trkpt>
      <trkpt lat="42.3883500" lon="-5.1396190">
        <ele>792.4</ele>
        <time>2021-10-02T09:29:23Z</time>
      </trkpt>
      <trkpt lat="42.3882700" lon="-5.1400560">
        <ele>792.0</ele>
        <time>2021-10-02T09:29:30Z</time>
      </trkpt>
      <trkpt lat="42.3881600" lon="-5.1407920">
        <ele>792.0</ele>
        <time>2021-10-02T09:29:41Z</time>
      </trkpt>
      <trkpt lat="42.3881160" lon="-5.1412340">
        <ele>791.4</ele>
        <time>2021-10-02T09:29:48Z</time>
      </trkpt>
      <trkpt lat="42.3880520" lon="-5.1419970">
        <ele>791.0</ele>
        <time>2021-10-02T09:30:00Z</time>
      </trkpt>
      <trkpt lat="42.3880470" lon="-5.1420590">
        <ele>790.8</ele>
        <time>2021-10-02T09:30:01Z</time>
      </trkpt>
      <trkpt lat="42.3880360" lon="-5.1421210">
        <ele>790.2</ele>
        <time>2021-10-02T09:30:02Z</time>
      </trkpt>
      <trkpt lat="42.3879380" lon="-5.1427790">
        <ele>789.2</ele>
        <time>2021-10-02T09:30:13Z</time>
      </trkpt>
      <trkpt lat="42.3879050" lon="-5.1431030">
        <ele>789.2</ele>
        <time>2021-10-02T09:30:18Z</time>
      </trkpt>
      <trkpt lat="42.3878140" lon="-5.1438350">
        <ele>788.8</ele>
        <time>2021-10-02T09:30:29Z</time>
      </trkpt>
      <trkpt lat="42.3877650" lon="-5.1441180">
        <ele>788.8</ele>
        <time>2021-10-02T09:30:33Z</time>
      </trkpt>
      <trkpt lat="42.3877570" lon="-5.1448300">
        <ele>788.8</ele>
        <time>2021-10-02T09:30:43Z</time>
      </trkpt>
      <trkpt lat="42.3878100" lon="-5.1449930">
        <ele>788.6</ele>
        <time>2021-10-02T09:30:46Z</time>
      </trkpt>
      <trkpt lat="42.3878610" lon="-5.1452220">
        <ele>788.6</ele>
        <time>2021-10-02T09:30:51Z</time>
      </trkpt>
      <trkpt lat="42.3876980" lon="-5.1453750">
        <ele>788.4</ele>
        <time>2021-10-02T09:30:56Z</time>
      </trkpt>
      <trkpt lat="42.3876350" lon="-5.1454510">
        <ele>788.0</ele>
        <time>2021-10-02T09:30:58Z</time>
      </trkpt>
      <trkpt lat="42.3875220" lon="-5.1455450">
        <ele>787.8</ele>
        <time>2021-10-02T09:31:01Z</time>
      </trkpt>
      <trkpt lat="42.3874790" lon="-5.1455830">
        <ele>787.8</ele>
        <time>2021-10-02T09:31:02Z</time>
      </trkpt>
      <trkpt lat="42.3874040" lon="-5.1456690">
        <ele>787.6</ele>
        <time>2021-10-02T09:31:04Z</time>
      </trkpt>
      <trkpt lat="42.3874090" lon="-5.1458590">
        <ele>787.2</ele>
        <time>2021-10-02T09:31:08Z</time>
      </trkpt>
      <trkpt lat="42.3874500" lon="-5.1459370">
        <ele>786.8</ele>
        <time>2021-10-02T09:31:10Z</time>
      </trkpt>
      <trkpt lat="42.3876250" lon="-5.1460250">
        <ele>786.8</ele>
        <time>2021-10-02T09:31:15Z</time>
      </trkpt>
      <trkpt lat="42.3876990" lon="-5.1460950">
        <ele>786.6</ele>
        <time>2021-10-02T09:31:17Z</time>
      </trkpt>
      <trkpt lat="42.3879160" lon="-5.1462540">
        <ele>786.0</ele>
        <time>2021-10-02T09:31:22Z</time>
      </trkpt>
      <trkpt lat="42.3879690" lon="-5.1462800">
        <ele>785.8</ele>
        <time>2021-10-02T09:31:23Z</time>
      </trkpt>
      <trkpt lat="42.3880940" lon="-5.1463130">
        <ele>785.4</ele>
        <time>2021-10-02T09:31:25Z</time>
      </trkpt>
      <trkpt lat="42.3882350" lon="-5.1463330">
        <ele>785.0</ele>
        <time>2021-10-02T09:31:27Z</time>
      </trkpt>
      <trkpt lat="42.3883760" lon="-5.1463540">
        <ele>784.8</ele>
        <time>2021-10-02T09:31:29Z</time>
      </trkpt>
      <trkpt lat="42.3884970" lon="-5.1463750">
        <ele>784.4</ele>
        <time>2021-10-02T09:31:31Z</time>
      </trkpt>
      <trkpt lat="42.3889190" lon="-5.1467990">
        <ele>783.2</ele>
        <time>2021-10-02T09:31:40Z</time>
      </trkpt>
      <trkpt lat="42.3891310" lon="-5.1469820">
        <ele>782.8</ele>
        <time>2021-10-02T09:31:44Z</time>
      </trkpt>
      <trkpt lat="42.3893380" lon="-5.1471600">
        <ele>782.0</ele>
        <time>2021-10-02T09:31:48Z</time>
      </trkpt>
      <trkpt lat="42.3896380" lon="-5.1474800">
        <ele>781.4</ele>
        <time>2021-10-02T09:31:55Z</time>
      </trkpt>
      <trkpt lat="42.3897310" lon="-5.1476680">
        <ele>781.4</ele>
        <time>2021-10-02T09:31:58Z</time>
      </trkpt>
      <trkpt lat="42.3898380" lon="-5.1478550">
        <ele>781.0</ele>
        <time>2021-10-02T09:32:01Z</time>
      </trkpt>
      <trkpt lat="42.3899520" lon="-5.1480380">
        <ele>780.8</ele>
        <time>2021-10-02T09:32:04Z</time>
      </trkpt>
      <trkpt lat="42.3900250" lon="-5.1481590">
        <ele>780.8</ele>
        <time>2021-10-02T09:32:06Z</time>
      </trkpt>
      <trkpt lat="42.3903260" lon="-5.1486710">
        <ele>780.4</ele>
        <time>2021-10-02T09:32:15Z</time>
      </trkpt>
      <trkpt lat="42.3905090" lon="-5.1490030">
        <ele>780.2</ele>
        <time>2021-10-02T09:32:21Z</time>
      </trkpt>
      <trkpt lat="42.3906210" lon="-5.1492310">
        <ele>780.4</ele>
        <time>2021-10-02T09:32:25Z</time>
      </trkpt>
      <trkpt lat="42.3907310" lon="-5.1494630">
        <ele>780.2</ele>
        <time>2021-10-02T09:32:29Z</time>
      </trkpt>
      <trkpt lat="42.3908070" lon="-5.1496420">
        <ele>780.0</ele>
        <time>2021-10-02T09:32:32Z</time>
      </trkpt>
      <trkpt lat="42.3909120" lon="-5.1498830">
        <ele>779.8</ele>
        <time>2021-10-02T09:32:36Z</time>
      </trkpt>
      <trkpt lat="42.3911900" lon="-5.1505690">
        <ele>779.6</ele>
        <time>2021-10-02T09:32:47Z</time>
      </trkpt>
      <trkpt lat="42.3914430" lon="-5.1512570">
        <ele>779.0</ele>
        <time>2021-10-02T09:32:57Z</time>
      </trkpt>
      <trkpt lat="42.3917460" lon="-5.1519130">
        <ele>777.8</ele>
        <time>2021-10-02T09:33:07Z</time>
      </trkpt>
      <trkpt lat="42.3919750" lon="-5.1523550">
        <ele>778.0</ele>
        <time>2021-10-02T09:33:14Z</time>
      </trkpt>
      <trkpt lat="42.3923300" lon="-5.1529890">
        <ele>777.8</ele>
        <time>2021-10-02T09:33:25Z</time>
      </trkpt>
      <trkpt lat="42.3926830" lon="-5.1536300">
        <ele>778.4</ele>
        <time>2021-10-02T09:33:36Z</time>
      </trkpt>
      <trkpt lat="42.3930080" lon="-5.1542490">
        <ele>779.0</ele>
        <time>2021-10-02T09:33:46Z</time>
      </trkpt>
      <trkpt lat="42.3933580" lon="-5.1548630">
        <ele>778.0</ele>
        <time>2021-10-02T09:33:56Z</time>
      </trkpt>
      <trkpt lat="42.3936260" lon="-5.1553590">
        <ele>778.6</ele>
        <time>2021-10-02T09:34:04Z</time>
      </trkpt>
      <trkpt lat="42.3937350" lon="-5.1555370">
        <ele>778.8</ele>
        <time>2021-10-02T09:34:07Z</time>
      </trkpt>
      <trkpt lat="42.3939040" lon="-5.1558390">
        <ele>778.8</ele>
        <time>2021-10-02T09:34:12Z</time>
      </trkpt>
      <trkpt lat="42.3942040" lon="-5.1563740">
        <ele>779.0</ele>
        <time>2021-10-02T09:34:21Z</time>
      </trkpt>
      <trkpt lat="42.3944900" lon="-5.1570110">
        <ele>779.2</ele>
        <time>2021-10-02T09:34:31Z</time>
      </trkpt>
      <trkpt lat="42.3946850" lon="-5.1574500">
        <ele>779.2</ele>
        <time>2021-10-02T09:34:38Z</time>
      </trkpt>
      <trkpt lat="42.3947920" lon="-5.1577040">
        <ele>779.4</ele>
        <time>2021-10-02T09:34:42Z</time>
      </trkpt>
      <trkpt lat="42.3948980" lon="-5.1579510">
        <ele>779.2</ele>
        <time>2021-10-02T09:34:46Z</time>
      </trkpt>
      <trkpt lat="42.3951830" lon="-5.1586320">
        <ele>779.2</ele>
        <time>2021-10-02T09:34:57Z</time>
      </trkpt>
      <trkpt lat="42.3953160" lon="-5.1589460">
        <ele>779.8</ele>
        <time>2021-10-02T09:35:02Z</time>
      </trkpt>
      <trkpt lat="42.3955870" lon="-5.1595940">
        <ele>780.0</ele>
        <time>2021-10-02T09:35:12Z</time>
      </trkpt>
      <trkpt lat="42.3956960" lon="-5.1598520">
        <ele>780.2</ele>
        <time>2021-10-02T09:35:16Z</time>
      </trkpt>
      <trkpt lat="42.3959750" lon="-5.1605020">
        <ele>780.6</ele>
        <time>2021-10-02T09:35:26Z</time>
      </trkpt>
      <trkpt lat="42.3960310" lon="-5.1606330">
        <ele>780.8</ele>
        <time>2021-10-02T09:35:28Z</time>
      </trkpt>
      <trkpt lat="42.3963060" lon="-5.1612870">
        <ele>781.2</ele>
        <time>2021-10-02T09:35:38Z</time>
      </trkpt>
      <trkpt lat="42.3963640" lon="-5.1614200">
        <ele>781.4</ele>
        <time>2021-10-02T09:35:40Z</time>
      </trkpt>
      <trkpt lat="42.3965460" lon="-5.1618440">
        <ele>781.6</ele>
        <time>2021-10-02T09:35:46Z</time>
      </trkpt>
      <trkpt lat="42.3967420" lon="-5.1623060">
        <ele>782.0</ele>
        <time>2021-10-02T09:35:52Z</time>
      </trkpt>
      <trkpt lat="42.3967760" lon="-5.1623860">
        <ele>781.8</ele>
        <time>2021-10-02T09:35:53Z</time>
      </trkpt>
      <trkpt lat="42.3968910" lon="-5.1626330">
        <ele>782.0</ele>
        <time>2021-10-02T09:35:56Z</time>
      </trkpt>
      <trkpt lat="42.3969970" lon="-5.1629020">
        <ele>782.0</ele>
        <time>2021-10-02T09:35:59Z</time>
      </trkpt>
      <trkpt lat="42.3970730" lon="-5.1630850">
        <ele>782.2</ele>
        <time>2021-10-02T09:36:01Z</time>
      </trkpt>
      <trkpt lat="42.3971450" lon="-5.1632770">
        <ele>782.4</ele>
        <time>2021-10-02T09:36:03Z</time>
      </trkpt>
      <trkpt lat="42.3972320" lon="-5.1635820">
        <ele>782.4</ele>
        <time>2021-10-02T09:36:06Z</time>
      </trkpt>
      <trkpt lat="42.3972580" lon="-5.1636840">
        <ele>782.4</ele>
        <time>2021-10-02T09:36:07Z</time>
      </trkpt>
      <trkpt lat="42.3973840" lon="-5.1641820">
        <ele>782.4</ele>
        <time>2021-10-02T09:36:12Z</time>
      </trkpt>
      <trkpt lat="42.3974350" lon="-5.1643840">
        <ele>782.4</ele>
        <time>2021-10-02T09:36:14Z</time>
      </trkpt>
      <trkpt lat="42.3975060" lon="-5.1646960">
        <ele>782.4</ele>
        <time>2021-10-02T09:36:17Z</time>
      </trkpt>
      <trkpt lat="42.3976050" lon="-5.1651110">
        <ele>782.4</ele>
        <time>2021-10-02T09:36:21Z</time>
      </trkpt>
      <trkpt lat="42.3976770" lon="-5.1654130">
        <ele>782.2</ele>
        <time>2021-10-02T09:36:24Z</time>
      </trkpt>
      <trkpt lat="42.3977280" lon="-5.1656180">
        <ele>782.0</ele>
        <time>2021-10-02T09:36:26Z</time>
      </trkpt>
      <trkpt lat="42.3977730" lon="-5.1658250">
        <ele>782.0</ele>
        <time>2021-10-02T09:36:28Z</time>
      </trkpt>
      <trkpt lat="42.3978210" lon="-5.1660250">
        <ele>782.0</ele>
        <time>2021-10-02T09:36:30Z</time>
      </trkpt>
      <trkpt lat="42.3979110" lon="-5.1664170">
        <ele>782.0</ele>
        <time>2021-10-02T09:36:34Z</time>
      </trkpt>
      <trkpt lat="42.3979870" lon="-5.1667050">
        <ele>782.6</ele>
        <time>2021-10-02T09:36:37Z</time>
      </trkpt>
      <trkpt lat="42.3982390" lon="-5.1674210">
        <ele>783.4</ele>
        <time>2021-10-02T09:36:45Z</time>
      </trkpt>
      <trkpt lat="42.3983080" lon="-5.1675950">
        <ele>783.6</ele>
        <time>2021-10-02T09:36:47Z</time>
      </trkpt>
      <trkpt lat="42.3985240" lon="-5.1681070">
        <ele>784.4</ele>
        <time>2021-10-02T09:36:53Z</time>
      </trkpt>
      <trkpt lat="42.3986550" lon="-5.1684440">
        <ele>785.2</ele>
        <time>2021-10-02T09:36:57Z</time>
      </trkpt>
      <trkpt lat="42.3987190" lon="-5.1686110">
        <ele>785.4</ele>
        <time>2021-10-02T09:36:59Z</time>
      </trkpt>
      <trkpt lat="42.3989360" lon="-5.1691700">
        <ele>786.2</ele>
        <time>2021-10-02T09:37:06Z</time>
      </trkpt>
      <trkpt lat="42.3991950" lon="-5.1698230">
        <ele>786.8</ele>
        <time>2021-10-02T09:37:15Z</time>
      </trkpt>
      <trkpt lat="42.3993810" lon="-5.1702900">
        <ele>786.8</ele>
        <time>2021-10-02T09:37:22Z</time>
      </trkpt>
      <trkpt lat="42.3996460" lon="-5.1709750">
        <ele>787.2</ele>
        <time>2021-10-02T09:37:33Z</time>
      </trkpt>
      <trkpt lat="42.3997860" lon="-5.1713260">
        <ele>787.6</ele>
        <time>2021-10-02T09:37:39Z</time>
      </trkpt>
      <trkpt lat="42.3999740" lon="-5.1718450">
        <ele>788.2</ele>
        <time>2021-10-02T09:37:48Z</time>
      </trkpt>
      <trkpt lat="42.4002630" lon="-5.1725330">
        <ele>789.2</ele>
        <time>2021-10-02T09:37:59Z</time>
      </trkpt>
      <trkpt lat="42.4004770" lon="-5.1730870">
        <ele>789.8</ele>
        <time>2021-10-02T09:38:07Z</time>
      </trkpt>
      <trkpt lat="42.4007350" lon="-5.1737380">
        <ele>790.4</ele>
        <time>2021-10-02T09:38:16Z</time>
      </trkpt>
      <trkpt lat="42.4008230" lon="-5.1739580">
        <ele>790.6</ele>
        <time>2021-10-02T09:38:19Z</time>
      </trkpt>
      <trkpt lat="42.4009380" lon="-5.1742440">
        <ele>790.6</ele>
        <time>2021-10-02T09:38:23Z</time>
      </trkpt>
      <trkpt lat="42.4012040" lon="-5.1749020">
        <ele>791.0</ele>
        <time>2021-10-02T09:38:32Z</time>
      </trkpt>
      <trkpt lat="42.4012960" lon="-5.1751230">
        <ele>791.0</ele>
        <time>2021-10-02T09:38:35Z</time>
      </trkpt>
      <trkpt lat="42.4015000" lon="-5.1756410">
        <ele>791.6</ele>
        <time>2021-10-02T09:38:42Z</time>
      </trkpt>
      <trkpt lat="42.4017690" lon="-5.1763260">
        <ele>791.6</ele>
        <time>2021-10-02T09:38:51Z</time>
      </trkpt>
      <trkpt lat="42.4020520" lon="-5.1770340">
        <ele>792.2</ele>
        <time>2021-10-02T09:39:00Z</time>
      </trkpt>
      <trkpt lat="42.4021830" lon="-5.1773570">
        <ele>792.4</ele>
        <time>2021-10-02T09:39:04Z</time>
      </trkpt>
      <trkpt lat="42.4024170" lon="-5.1779420">
        <ele>793.0</ele>
        <time>2021-10-02T09:39:11Z</time>
      </trkpt>
      <trkpt lat="42.4026810" lon="-5.1786000">
        <ele>792.8</ele>
        <time>2021-10-02T09:39:19Z</time>
      </trkpt>
      <trkpt lat="42.4028440" lon="-5.1790190">
        <ele>792.8</ele>
        <time>2021-10-02T09:39:24Z</time>
      </trkpt>
      <trkpt lat="42.4031130" lon="-5.1796930">
        <ele>793.0</ele>
        <time>2021-10-02T09:39:32Z</time>
      </trkpt>
      <trkpt lat="42.4033730" lon="-5.1803470">
        <ele>793.6</ele>
        <time>2021-10-02T09:39:40Z</time>
      </trkpt>
      <trkpt lat="42.4034040" lon="-5.1804260">
        <ele>793.4</ele>
        <time>2021-10-02T09:39:41Z</time>
      </trkpt>
      <trkpt lat="42.4036770" lon="-5.1811210">
        <ele>794.2</ele>
        <time>2021-10-02T09:39:50Z</time>
      </trkpt>
      <trkpt lat="42.4037060" lon="-5.1811990">
        <ele>794.2</ele>
        <time>2021-10-02T09:39:51Z</time>
      </trkpt>
      <trkpt lat="42.4039780" lon="-5.1818760">
        <ele>794.2</ele>
        <time>2021-10-02T09:40:00Z</time>
      </trkpt>
      <trkpt lat="42.4042400" lon="-5.1825370">
        <ele>793.4</ele>
        <time>2021-10-02T09:40:09Z</time>
      </trkpt>
      <trkpt lat="42.4044950" lon="-5.1832290">
        <ele>793.4</ele>
        <time>2021-10-02T09:40:18Z</time>
      </trkpt>
      <trkpt lat="42.4047630" lon="-5.1839040">
        <ele>793.8</ele>
        <time>2021-10-02T09:40:27Z</time>
      </trkpt>
      <trkpt lat="42.4050470" lon="-5.1845320">
        <ele>794.0</ele>
        <time>2021-10-02T09:40:36Z</time>
      </trkpt>
      <trkpt lat="42.4053670" lon="-5.1852100">
        <ele>794.0</ele>
        <time>2021-10-02T09:40:46Z</time>
      </trkpt>
      <trkpt lat="42.4056890" lon="-5.1858630">
        <ele>793.4</ele>
        <time>2021-10-02T09:40:56Z</time>
      </trkpt>
      <trkpt lat="42.4059980" lon="-5.1865100">
        <ele>793.2</ele>
        <time>2021-10-02T09:41:06Z</time>
      </trkpt>
      <trkpt lat="42.4063070" lon="-5.1871620">
        <ele>792.4</ele>
        <time>2021-10-02T09:41:16Z</time>
      </trkpt>
      <trkpt lat="42.4065980" lon="-5.1877760">
        <ele>792.6</ele>
        <time>2021-10-02T09:41:25Z</time>
      </trkpt>
      <trkpt lat="42.4069000" lon="-5.1884090">
        <ele>792.4</ele>
        <time>2021-10-02T09:41:34Z</time>
      </trkpt>
      <trkpt lat="42.4072190" lon="-5.1890920">
        <ele>792.6</ele>
        <time>2021-10-02T09:41:44Z</time>
      </trkpt>
      <trkpt lat="42.4073920" lon="-5.1894440">
        <ele>792.8</ele>
        <time>2021-10-02T09:41:49Z</time>
      </trkpt>
      <trkpt lat="42.4076860" lon="-5.1900860">
        <ele>792.4</ele>
        <time>2021-10-02T09:41:58Z</time>
      </trkpt>
      <trkpt lat="42.4079710" lon="-5.1907230">
        <ele>792.0</ele>
        <time>2021-10-02T09:42:07Z</time>
      </trkpt>
      <trkpt lat="42.4082680" lon="-5.1913420">
        <ele>791.6</ele>
        <time>2021-10-02T09:42:16Z</time>
      </trkpt>
      <trkpt lat="42.4085600" lon="-5.1919860">
        <ele>791.6</ele>
        <time>2021-10-02T09:42:25Z</time>
      </trkpt>
      <trkpt lat="42.4086900" lon="-5.1922780">
        <ele>791.4</ele>
        <time>2021-10-02T09:42:29Z</time>
      </trkpt>
      <trkpt lat="42.4088950" lon="-5.1927200">
        <ele>791.4</ele>
        <time>2021-10-02T09:42:35Z</time>
      </trkpt>
      <trkpt lat="42.4092100" lon="-5.1934040">
        <ele>791.2</ele>
        <time>2021-10-02T09:42:44Z</time>
      </trkpt>
      <trkpt lat="42.4095000" lon="-5.1940290">
        <ele>789.8</ele>
        <time>2021-10-02T09:42:52Z</time>
      </trkpt>
      <trkpt lat="42.4096860" lon="-5.1944310">
        <ele>789.8</ele>
        <time>2021-10-02T09:42:57Z</time>
      </trkpt>
      <trkpt lat="42.4098720" lon="-5.1948370">
        <ele>789.8</ele>
        <time>2021-10-02T09:43:02Z</time>
      </trkpt>
      <trkpt lat="42.4101360" lon="-5.1954140">
        <ele>790.0</ele>
        <time>2021-10-02T09:43:09Z</time>
      </trkpt>
      <trkpt lat="42.4104390" lon="-5.1960850">
        <ele>790.2</ele>
        <time>2021-10-02T09:43:17Z</time>
      </trkpt>
      <trkpt lat="42.4105880" lon="-5.1964150">
        <ele>790.2</ele>
        <time>2021-10-02T09:43:21Z</time>
      </trkpt>
      <trkpt lat="42.4108830" lon="-5.1970560">
        <ele>790.2</ele>
        <time>2021-10-02T09:43:29Z</time>
      </trkpt>
      <trkpt lat="42.4111720" lon="-5.1976910">
        <ele>790.0</ele>
        <time>2021-10-02T09:43:37Z</time>
      </trkpt>
      <trkpt lat="42.4113180" lon="-5.1980130">
        <ele>790.0</ele>
        <time>2021-10-02T09:43:41Z</time>
      </trkpt>
      <trkpt lat="42.4115710" lon="-5.1985890">
        <ele>790.4</ele>
        <time>2021-10-02T09:43:48Z</time>
      </trkpt>
      <trkpt lat="42.4117120" lon="-5.1989260">
        <ele>790.4</ele>
        <time>2021-10-02T09:43:52Z</time>
      </trkpt>
      <trkpt lat="42.4119550" lon="-5.1994950">
        <ele>790.6</ele>
        <time>2021-10-02T09:43:59Z</time>
      </trkpt>
      <trkpt lat="42.4120900" lon="-5.1998180">
        <ele>790.6</ele>
        <time>2021-10-02T09:44:03Z</time>
      </trkpt>
      <trkpt lat="42.4123610" lon="-5.2004700">
        <ele>790.6</ele>
        <time>2021-10-02T09:44:11Z</time>
      </trkpt>
      <trkpt lat="42.4126230" lon="-5.2011180">
        <ele>790.6</ele>
        <time>2021-10-02T09:44:19Z</time>
      </trkpt>
      <trkpt lat="42.4126560" lon="-5.2011990">
        <ele>790.6</ele>
        <time>2021-10-02T09:44:20Z</time>
      </trkpt>
      <trkpt lat="42.4129640" lon="-5.2018310">
        <ele>790.6</ele>
        <time>2021-10-02T09:44:28Z</time>
      </trkpt>
      <trkpt lat="42.4132860" lon="-5.2024500">
        <ele>790.2</ele>
        <time>2021-10-02T09:44:36Z</time>
      </trkpt>
      <trkpt lat="42.4135160" lon="-5.2029140">
        <ele>790.2</ele>
        <time>2021-10-02T09:44:42Z</time>
      </trkpt>
      <trkpt lat="42.4138220" lon="-5.2035650">
        <ele>790.2</ele>
        <time>2021-10-02T09:44:50Z</time>
      </trkpt>
      <trkpt lat="42.4139400" lon="-5.2038080">
        <ele>790.2</ele>
        <time>2021-10-02T09:44:53Z</time>
      </trkpt>
      <trkpt lat="42.4141050" lon="-5.2041120">
        <ele>790.4</ele>
        <time>2021-10-02T09:44:57Z</time>
      </trkpt>
      <trkpt lat="42.4141810" lon="-5.2042640">
        <ele>790.8</ele>
        <time>2021-10-02T09:44:59Z</time>
      </trkpt>
      <trkpt lat="42.4144650" lon="-5.2048890">
        <ele>790.8</ele>
        <time>2021-10-02T09:45:07Z</time>
      </trkpt>
      <trkpt lat="42.4147850" lon="-5.2055370">
        <ele>790.8</ele>
        <time>2021-10-02T09:45:16Z</time>
      </trkpt>
      <trkpt lat="42.4151450" lon="-5.2061340">
        <ele>790.6</ele>
        <time>2021-10-02T09:45:25Z</time>
      </trkpt>
      <trkpt lat="42.4154310" lon="-5.2067830">
        <ele>790.8</ele>
        <time>2021-10-02T09:45:33Z</time>
      </trkpt>
      <trkpt lat="42.4155860" lon="-5.2070890">
        <ele>790.8</ele>
        <time>2021-10-02T09:45:37Z</time>
      </trkpt>
      <trkpt lat="42.4159270" lon="-5.2077640">
        <ele>791.0</ele>
        <time>2021-10-02T09:45:46Z</time>
      </trkpt>
      <trkpt lat="42.4163060" lon="-5.2083930">
        <ele>791.0</ele>
        <time>2021-10-02T09:45:55Z</time>
      </trkpt>
      <trkpt lat="42.4166350" lon="-5.2089390">
        <ele>791.2</ele>
        <time>2021-10-02T09:46:03Z</time>
      </trkpt>
      <trkpt lat="42.4170090" lon="-5.2095730">
        <ele>791.2</ele>
        <time>2021-10-02T09:46:12Z</time>
      </trkpt>
      <trkpt lat="42.4173050" lon="-5.2100660">
        <ele>791.4</ele>
        <time>2021-10-02T09:46:19Z</time>
      </trkpt>
      <trkpt lat="42.4175490" lon="-5.2104790">
        <ele>791.6</ele>
        <time>2021-10-02T09:46:25Z</time>
      </trkpt>
      <trkpt lat="42.4178980" lon="-5.2110960">
        <ele>791.8</ele>
        <time>2021-10-02T09:46:34Z</time>
      </trkpt>
      <trkpt lat="42.4180930" lon="-5.2114430">
        <ele>792.4</ele>
        <time>2021-10-02T09:46:39Z</time>
      </trkpt>
      <trkpt lat="42.4184340" lon="-5.2120670">
        <ele>793.0</ele>
        <time>2021-10-02T09:46:48Z</time>
      </trkpt>
      <trkpt lat="42.4184670" lon="-5.2121400">
        <ele>793.2</ele>
        <time>2021-10-02T09:46:49Z</time>
      </trkpt>
      <trkpt lat="42.4187830" lon="-5.2127840">
        <ele>793.2</ele>
        <time>2021-10-02T09:46:58Z</time>
      </trkpt>
      <trkpt lat="42.4190940" lon="-5.2134400">
        <ele>793.0</ele>
        <time>2021-10-02T09:47:07Z</time>
      </trkpt>
      <trkpt lat="42.4194130" lon="-5.2140850">
        <ele>793.4</ele>
        <time>2021-10-02T09:47:16Z</time>
      </trkpt>
      <trkpt lat="42.4194780" lon="-5.2142280">
        <ele>793.6</ele>
        <time>2021-10-02T09:47:18Z</time>
      </trkpt>
      <trkpt lat="42.4197230" lon="-5.2147060">
        <ele>794.2</ele>
        <time>2021-10-02T09:47:25Z</time>
      </trkpt>
      <trkpt lat="42.4198590" lon="-5.2149780">
        <ele>794.2</ele>
        <time>2021-10-02T09:47:29Z</time>
      </trkpt>
      <trkpt lat="42.4200790" lon="-5.2153530">
        <ele>794.4</ele>
        <time>2021-10-02T09:47:35Z</time>
      </trkpt>
      <trkpt lat="42.4203380" lon="-5.2157610">
        <ele>794.6</ele>
        <time>2021-10-02T09:47:42Z</time>
      </trkpt>
      <trkpt lat="42.4204400" lon="-5.2159500">
        <ele>795.0</ele>
        <time>2021-10-02T09:47:45Z</time>
      </trkpt>
      <trkpt lat="42.4207440" lon="-5.2165750">
        <ele>795.0</ele>
        <time>2021-10-02T09:47:55Z</time>
      </trkpt>
      <trkpt lat="42.4210360" lon="-5.2171930">
        <ele>795.4</ele>
        <time>2021-10-02T09:48:04Z</time>
      </trkpt>
      <trkpt lat="42.4211960" lon="-5.2175210">
        <ele>795.6</ele>
        <time>2021-10-02T09:48:09Z</time>
      </trkpt>
      <trkpt lat="42.4215100" lon="-5.2181350">
        <ele>796.2</ele>
        <time>2021-10-02T09:48:19Z</time>
      </trkpt>
      <trkpt lat="42.4215930" lon="-5.2183120">
        <ele>796.4</ele>
        <time>2021-10-02T09:48:22Z</time>
      </trkpt>
      <trkpt lat="42.4216200" lon="-5.2183680">
        <ele>796.4</ele>
        <time>2021-10-02T09:48:23Z</time>
      </trkpt>
      <trkpt lat="42.4218500" lon="-5.2187950">
        <ele>797.0</ele>
        <time>2021-10-02T09:48:30Z</time>
      </trkpt>
      <trkpt lat="42.4220910" lon="-5.2192790">
        <ele>797.0</ele>
        <time>2021-10-02T09:48:38Z</time>
      </trkpt>
      <trkpt lat="42.4223780" lon="-5.2199020">
        <ele>797.8</ele>
        <time>2021-10-02T09:48:48Z</time>
      </trkpt>
      <trkpt lat="42.4224550" lon="-5.2200800">
        <ele>798.4</ele>
        <time>2021-10-02T09:48:51Z</time>
      </trkpt>
      <trkpt lat="42.4225290" lon="-5.2202080">
        <ele>798.4</ele>
        <time>2021-10-02T09:48:54Z</time>
      </trkpt>
      <trkpt lat="42.4225670" lon="-5.2202480">
        <ele>798.8</ele>
        <time>2021-10-02T09:48:57Z</time>
      </trkpt>
      <trkpt lat="42.4225670" lon="-5.2202520">
        <ele>798.8</ele>
        <time>2021-10-02T09:48:58Z</time>
      </trkpt>
      <trkpt lat="42.4225380" lon="-5.2202630">
        <ele>772.6</ele>
        <time>2021-10-02T09:55:46Z</time>
      </trkpt>
      <trkpt lat="42.4225330" lon="-5.2202830">
        <ele>772.6</ele>
        <time>2021-10-02T09:55:47Z</time>
      </trkpt>
      <trkpt lat="42.4225350" lon="-5.2203370">
        <ele>772.4</ele>
        <time>2021-10-02T09:55:49Z</time>
      </trkpt>
      <trkpt lat="42.4225370" lon="-5.2203700">
        <ele>772.4</ele>
        <time>2021-10-02T09:55:50Z</time>
      </trkpt>
      <trkpt lat="42.4225630" lon="-5.2205360">
        <ele>772.4</ele>
        <time>2021-10-02T09:55:54Z</time>
      </trkpt>
      <trkpt lat="42.4225920" lon="-5.2206860">
        <ele>772.4</ele>
        <time>2021-10-02T09:55:57Z</time>
      </trkpt>
      <trkpt lat="42.4226300" lon="-5.2208360">
        <ele>772.2</ele>
        <time>2021-10-02T09:56:00Z</time>
      </trkpt>
      <trkpt lat="42.4227020" lon="-5.2211800">
        <ele>772.4</ele>
        <time>2021-10-02T09:56:06Z</time>
      </trkpt>
      <trkpt lat="42.4227200" lon="-5.2213450">
        <ele>772.4</ele>
        <time>2021-10-02T09:56:09Z</time>
      </trkpt>
      <trkpt lat="42.4227330" lon="-5.2214330">
        <ele>772.8</ele>
        <time>2021-10-02T09:56:11Z</time>
      </trkpt>
      <trkpt lat="42.4227470" lon="-5.2215230">
        <ele>773.0</ele>
        <time>2021-10-02T09:56:13Z</time>
      </trkpt>
      <trkpt lat="42.4227860" lon="-5.2216760">
        <ele>773.2</ele>
        <time>2021-10-02T09:56:16Z</time>
      </trkpt>
      <trkpt lat="42.4228550" lon="-5.2218930">
        <ele>773.6</ele>
        <time>2021-10-02T09:56:20Z</time>
      </trkpt>
      <trkpt lat="42.4228870" lon="-5.2219960">
        <ele>773.8</ele>
        <time>2021-10-02T09:56:22Z</time>
      </trkpt>
      <trkpt lat="42.4229180" lon="-5.2220980">
        <ele>774.2</ele>
        <time>2021-10-02T09:56:24Z</time>
      </trkpt>
      <trkpt lat="42.4230140" lon="-5.2223770">
        <ele>774.8</ele>
        <time>2021-10-02T09:56:30Z</time>
      </trkpt>
      <trkpt lat="42.4230500" lon="-5.2224540">
        <ele>774.8</ele>
        <time>2021-10-02T09:56:32Z</time>
      </trkpt>
      <trkpt lat="42.4231210" lon="-5.2225830">
        <ele>775.2</ele>
        <time>2021-10-02T09:56:36Z</time>
      </trkpt>
      <trkpt lat="42.4230550" lon="-5.2224790">
        <ele>893.0</ele>
        <time>2021-10-02T10:44:19Z</time>
      </trkpt>
      <trkpt lat="42.4231640" lon="-5.2226460">
        <ele>893.0</ele>
        <time>2021-10-02T10:44:22Z</time>
      </trkpt>
      <trkpt lat="42.4233460" lon="-5.2228580">
        <ele>893.0</ele>
        <time>2021-10-02T10:44:26Z</time>
      </trkpt>
      <trkpt lat="42.4237810" lon="-5.2233810">
        <ele>892.6</ele>
        <time>2021-10-02T10:44:35Z</time>
      </trkpt>
      <trkpt lat="42.4239650" lon="-5.2236250">
        <ele>892.4</ele>
        <time>2021-10-02T10:44:39Z</time>
      </trkpt>
      <trkpt lat="42.4241350" lon="-5.2238910">
        <ele>892.2</ele>
        <time>2021-10-02T10:44:43Z</time>
      </trkpt>
      <trkpt lat="42.4242160" lon="-5.2240280">
        <ele>892.2</ele>
        <time>2021-10-02T10:44:45Z</time>
      </trkpt>
      <trkpt lat="42.4242510" lon="-5.2240970">
        <ele>892.2</ele>
        <time>2021-10-02T10:44:46Z</time>
      </trkpt>
      <trkpt lat="42.4245050" lon="-5.2245780">
        <ele>892.2</ele>
        <time>2021-10-02T10:44:53Z</time>
      </trkpt>
      <trkpt lat="42.4246030" lon="-5.2247730">
        <ele>892.2</ele>
        <time>2021-10-02T10:44:56Z</time>
      </trkpt>
      <trkpt lat="42.4245490" lon="-5.2246500">
        <ele>894.8</ele>
        <time>2021-10-02T10:45:29Z</time>
      </trkpt>
      <trkpt lat="42.4245600" lon="-5.2246700">
        <ele>894.8</ele>
        <time>2021-10-02T10:45:30Z</time>
      </trkpt>
      <trkpt lat="42.4246630" lon="-5.2248570">
        <ele>894.2</ele>
        <time>2021-10-02T10:45:34Z</time>
      </trkpt>
      <trkpt lat="42.4247480" lon="-5.2250220">
        <ele>893.8</ele>
        <time>2021-10-02T10:45:37Z</time>
      </trkpt>
      <trkpt lat="42.4249670" lon="-5.2254430">
        <ele>893.2</ele>
        <time>2021-10-02T10:45:44Z</time>
      </trkpt>
      <trkpt lat="42.4250710" lon="-5.2256270">
        <ele>892.8</ele>
        <time>2021-10-02T10:45:47Z</time>
      </trkpt>
      <trkpt lat="42.4254650" lon="-5.2262160">
        <ele>892.8</ele>
        <time>2021-10-02T10:45:57Z</time>
      </trkpt>
      <trkpt lat="42.4258490" lon="-5.2267680">
        <ele>893.2</ele>
        <time>2021-10-02T10:46:06Z</time>
      </trkpt>
      <trkpt lat="42.4262260" lon="-5.2273200">
        <ele>893.0</ele>
        <time>2021-10-02T10:46:15Z</time>
      </trkpt>
      <trkpt lat="42.4266000" lon="-5.2278710">
        <ele>893.0</ele>
        <time>2021-10-02T10:46:24Z</time>
      </trkpt>
      <trkpt lat="42.4269210" lon="-5.2284860">
        <ele>892.4</ele>
        <time>2021-10-02T10:46:33Z</time>
      </trkpt>
      <trkpt lat="42.4269870" lon="-5.2286260">
        <ele>892.2</ele>
        <time>2021-10-02T10:46:35Z</time>
      </trkpt>
      <trkpt lat="42.4272890" lon="-5.2292420">
        <ele>892.2</ele>
        <time>2021-10-02T10:46:44Z</time>
      </trkpt>
      <trkpt lat="42.4275910" lon="-5.2298630">
        <ele>892.2</ele>
        <time>2021-10-02T10:46:53Z</time>
      </trkpt>
      <trkpt lat="42.4277220" lon="-5.2301390">
        <ele>892.6</ele>
        <time>2021-10-02T10:46:57Z</time>
      </trkpt>
      <trkpt lat="42.4280350" lon="-5.2308010">
        <ele>892.6</ele>
        <time>2021-10-02T10:47:06Z</time>
      </trkpt>
      <trkpt lat="42.4282120" lon="-5.2311700">
        <ele>892.6</ele>
        <time>2021-10-02T10:47:11Z</time>
      </trkpt>
      <trkpt lat="42.4285330" lon="-5.2318230">
        <ele>892.4</ele>
        <time>2021-10-02T10:47:20Z</time>
      </trkpt>
      <trkpt lat="42.4288500" lon="-5.2324840">
        <ele>892.6</ele>
        <time>2021-10-02T10:47:29Z</time>
      </trkpt>
      <trkpt lat="42.4291650" lon="-5.2331670">
        <ele>892.8</ele>
        <time>2021-10-02T10:47:38Z</time>
      </trkpt>
      <trkpt lat="42.4294890" lon="-5.2338340">
        <ele>893.0</ele>
        <time>2021-10-02T10:47:47Z</time>
      </trkpt>
      <trkpt lat="42.4297820" lon="-5.2344560">
        <ele>892.8</ele>
        <time>2021-10-02T10:47:55Z</time>
      </trkpt>
      <trkpt lat="42.4300850" lon="-5.2350800">
        <ele>892.4</ele>
        <time>2021-10-02T10:48:03Z</time>
      </trkpt>
      <trkpt lat="42.4304100" lon="-5.2357660">
        <ele>892.2</ele>
        <time>2021-10-02T10:48:12Z</time>
      </trkpt>
      <trkpt lat="42.4306280" lon="-5.2362180">
        <ele>891.8</ele>
        <time>2021-10-02T10:48:18Z</time>
      </trkpt>
      <trkpt lat="42.4309240" lon="-5.2368470">
        <ele>891.2</ele>
        <time>2021-10-02T10:48:26Z</time>
      </trkpt>
      <trkpt lat="42.4311740" lon="-5.2375140">
        <ele>891.0</ele>
        <time>2021-10-02T10:48:34Z</time>
      </trkpt>
      <trkpt lat="42.4314310" lon="-5.2382460">
        <ele>891.6</ele>
        <time>2021-10-02T10:48:43Z</time>
      </trkpt>
      <trkpt lat="42.4316570" lon="-5.2389130">
        <ele>891.6</ele>
        <time>2021-10-02T10:48:51Z</time>
      </trkpt>
      <trkpt lat="42.4318770" lon="-5.2395870">
        <ele>891.2</ele>
        <time>2021-10-02T10:48:59Z</time>
      </trkpt>
      <trkpt lat="42.4319050" lon="-5.2396720">
        <ele>890.8</ele>
        <time>2021-10-02T10:49:00Z</time>
      </trkpt>
      <trkpt lat="42.4321410" lon="-5.2403740">
        <ele>889.8</ele>
        <time>2021-10-02T10:49:08Z</time>
      </trkpt>
      <trkpt lat="42.4323150" lon="-5.2409030">
        <ele>889.0</ele>
        <time>2021-10-02T10:49:14Z</time>
      </trkpt>
      <trkpt lat="42.4324520" lon="-5.2413230">
        <ele>888.0</ele>
        <time>2021-10-02T10:49:19Z</time>
      </trkpt>
      <trkpt lat="42.4326910" lon="-5.2420530">
        <ele>887.4</ele>
        <time>2021-10-02T10:49:28Z</time>
      </trkpt>
      <trkpt lat="42.4329160" lon="-5.2427460">
        <ele>887.0</ele>
        <time>2021-10-02T10:49:36Z</time>
      </trkpt>
      <trkpt lat="42.4329450" lon="-5.2428360">
        <ele>887.0</ele>
        <time>2021-10-02T10:49:37Z</time>
      </trkpt>
      <trkpt lat="42.4330000" lon="-5.2430180">
        <ele>886.6</ele>
        <time>2021-10-02T10:49:39Z</time>
      </trkpt>
      <trkpt lat="42.4330570" lon="-5.2432040">
        <ele>886.4</ele>
        <time>2021-10-02T10:49:41Z</time>
      </trkpt>
      <trkpt lat="42.4331870" lon="-5.2435970">
        <ele>885.8</ele>
        <time>2021-10-02T10:49:45Z</time>
      </trkpt>
      <trkpt lat="42.4332870" lon="-5.2439070">
        <ele>884.4</ele>
        <time>2021-10-02T10:49:48Z</time>
      </trkpt>
      <trkpt lat="42.4334050" lon="-5.2442940">
        <ele>883.0</ele>
        <time>2021-10-02T10:49:52Z</time>
      </trkpt>
      <trkpt lat="42.4335600" lon="-5.2447270">
        <ele>882.4</ele>
        <time>2021-10-02T10:49:57Z</time>
      </trkpt>
      <trkpt lat="42.4336990" lon="-5.2450500">
        <ele>882.2</ele>
        <time>2021-10-02T10:50:01Z</time>
      </trkpt>
      <trkpt lat="42.4337350" lon="-5.2451270">
        <ele>882.0</ele>
        <time>2021-10-02T10:50:02Z</time>
      </trkpt>
      <trkpt lat="42.4337700" lon="-5.2452010">
        <ele>882.0</ele>
        <time>2021-10-02T10:50:03Z</time>
      </trkpt>
      <trkpt lat="42.4338830" lon="-5.2454020">
        <ele>882.4</ele>
        <time>2021-10-02T10:50:06Z</time>
      </trkpt>
      <trkpt lat="42.4339590" lon="-5.2455250">
        <ele>882.4</ele>
        <time>2021-10-02T10:50:08Z</time>
      </trkpt>
      <trkpt lat="42.4340630" lon="-5.2457030">
        <ele>883.0</ele>
        <time>2021-10-02T10:50:11Z</time>
      </trkpt>
      <trkpt lat="42.4340950" lon="-5.2457620">
        <ele>883.2</ele>
        <time>2021-10-02T10:50:12Z</time>
      </trkpt>
      <trkpt lat="42.4342040" lon="-5.2459300">
        <ele>884.2</ele>
        <time>2021-10-02T10:50:15Z</time>
      </trkpt>
      <trkpt lat="42.4343090" lon="-5.2460990">
        <ele>885.2</ele>
        <time>2021-10-02T10:50:18Z</time>
      </trkpt>
      <trkpt lat="42.4345460" lon="-5.2464960">
        <ele>886.2</ele>
        <time>2021-10-02T10:50:25Z</time>
      </trkpt>
      <trkpt lat="42.4345810" lon="-5.2465550">
        <ele>886.2</ele>
        <time>2021-10-02T10:50:26Z</time>
      </trkpt>
      <trkpt lat="42.4347230" lon="-5.2467970">
        <ele>887.4</ele>
        <time>2021-10-02T10:50:30Z</time>
      </trkpt>
      <trkpt lat="42.4347570" lon="-5.2468550">
        <ele>887.6</ele>
        <time>2021-10-02T10:50:31Z</time>
      </trkpt>
      <trkpt lat="42.4351310" lon="-5.2474770">
        <ele>888.6</ele>
        <time>2021-10-02T10:50:42Z</time>
      </trkpt>
      <trkpt lat="42.4351650" lon="-5.2475360">
        <ele>888.6</ele>
        <time>2021-10-02T10:50:43Z</time>
      </trkpt>
      <trkpt lat="42.4354460" lon="-5.2480250">
        <ele>888.8</ele>
        <time>2021-10-02T10:50:51Z</time>
      </trkpt>
      <trkpt lat="42.4357120" lon="-5.2484710">
        <ele>888.4</ele>
        <time>2021-10-02T10:50:58Z</time>
      </trkpt>
      <trkpt lat="42.4360550" lon="-5.2490500">
        <ele>888.4</ele>
        <time>2021-10-02T10:51:07Z</time>
      </trkpt>
      <trkpt lat="42.4364270" lon="-5.2496690">
        <ele>888.6</ele>
        <time>2021-10-02T10:51:17Z</time>
      </trkpt>
      <trkpt lat="42.4367930" lon="-5.2502970">
        <ele>889.4</ele>
        <time>2021-10-02T10:51:27Z</time>
      </trkpt>
      <trkpt lat="42.4371580" lon="-5.2509190">
        <ele>889.6</ele>
        <time>2021-10-02T10:51:37Z</time>
      </trkpt>
      <trkpt lat="42.4373720" lon="-5.2512930">
        <ele>889.8</ele>
        <time>2021-10-02T10:51:43Z</time>
      </trkpt>
      <trkpt lat="42.4377310" lon="-5.2519090">
        <ele>889.8</ele>
        <time>2021-10-02T10:51:53Z</time>
      </trkpt>
      <trkpt lat="42.4381000" lon="-5.2525190">
        <ele>889.8</ele>
        <time>2021-10-02T10:52:03Z</time>
      </trkpt>
      <trkpt lat="42.4383480" lon="-5.2529500">
        <ele>890.2</ele>
        <time>2021-10-02T10:52:10Z</time>
      </trkpt>
      <trkpt lat="42.4387070" lon="-5.2535740">
        <ele>890.8</ele>
        <time>2021-10-02T10:52:20Z</time>
      </trkpt>
      <trkpt lat="42.4390250" lon="-5.2541000">
        <ele>891.0</ele>
        <time>2021-10-02T10:52:29Z</time>
      </trkpt>
      <trkpt lat="42.4393710" lon="-5.2547010">
        <ele>891.2</ele>
        <time>2021-10-02T10:52:39Z</time>
      </trkpt>
      <trkpt lat="42.4396790" lon="-5.2551710">
        <ele>891.4</ele>
        <time>2021-10-02T10:52:47Z</time>
      </trkpt>
      <trkpt lat="42.4399890" lon="-5.2556320">
        <ele>891.2</ele>
        <time>2021-10-02T10:52:55Z</time>
      </trkpt>
      <trkpt lat="42.4401110" lon="-5.2558000">
        <ele>891.4</ele>
        <time>2021-10-02T10:52:58Z</time>
      </trkpt>
      <trkpt lat="42.4405050" lon="-5.2563910">
        <ele>892.4</ele>
        <time>2021-10-02T10:53:08Z</time>
      </trkpt>
      <trkpt lat="42.4408780" lon="-5.2569240">
        <ele>892.4</ele>
        <time>2021-10-02T10:53:17Z</time>
      </trkpt>
      <trkpt lat="42.4412470" lon="-5.2574590">
        <ele>892.4</ele>
        <time>2021-10-02T10:53:26Z</time>
      </trkpt>
      <trkpt lat="42.4414570" lon="-5.2577610">
        <ele>892.4</ele>
        <time>2021-10-02T10:53:31Z</time>
      </trkpt>
      <trkpt lat="42.4416330" lon="-5.2580050">
        <ele>892.6</ele>
        <time>2021-10-02T10:53:35Z</time>
      </trkpt>
      <trkpt lat="42.4418070" lon="-5.2582630">
        <ele>892.8</ele>
        <time>2021-10-02T10:53:39Z</time>
      </trkpt>
      <trkpt lat="42.4418520" lon="-5.2583250">
        <ele>893.0</ele>
        <time>2021-10-02T10:53:40Z</time>
      </trkpt>
      <trkpt lat="42.4422460" lon="-5.2588850">
        <ele>893.2</ele>
        <time>2021-10-02T10:53:49Z</time>
      </trkpt>
      <trkpt lat="42.4424640" lon="-5.2591980">
        <ele>892.8</ele>
        <time>2021-10-02T10:53:54Z</time>
      </trkpt>
      <trkpt lat="42.4427250" lon="-5.2595770">
        <ele>892.6</ele>
        <time>2021-10-02T10:54:00Z</time>
      </trkpt>
      <trkpt lat="42.4429100" lon="-5.2598340">
        <ele>892.4</ele>
        <time>2021-10-02T10:54:04Z</time>
      </trkpt>
      <trkpt lat="42.4431400" lon="-5.2601680">
        <ele>892.0</ele>
        <time>2021-10-02T10:54:09Z</time>
      </trkpt>
      <trkpt lat="42.4432800" lon="-5.2603620">
        <ele>891.0</ele>
        <time>2021-10-02T10:54:12Z</time>
      </trkpt>
      <trkpt lat="42.4434600" lon="-5.2606210">
        <ele>889.8</ele>
        <time>2021-10-02T10:54:16Z</time>
      </trkpt>
      <trkpt lat="42.4438640" lon="-5.2612110">
        <ele>889.6</ele>
        <time>2021-10-02T10:54:25Z</time>
      </trkpt>
      <trkpt lat="42.4442430" lon="-5.2617560">
        <ele>889.2</ele>
        <time>2021-10-02T10:54:33Z</time>
      </trkpt>
      <trkpt lat="42.4443950" lon="-5.2619690">
        <ele>889.0</ele>
        <time>2021-10-02T10:54:36Z</time>
      </trkpt>
      <trkpt lat="42.4446040" lon="-5.2622690">
        <ele>887.8</ele>
        <time>2021-10-02T10:54:40Z</time>
      </trkpt>
      <trkpt lat="42.4447110" lon="-5.2624240">
        <ele>887.6</ele>
        <time>2021-10-02T10:54:42Z</time>
      </trkpt>
      <trkpt lat="42.4450380" lon="-5.2629390">
        <ele>886.6</ele>
        <time>2021-10-02T10:54:48Z</time>
      </trkpt>
      <trkpt lat="42.4452020" lon="-5.2632290">
        <ele>885.4</ele>
        <time>2021-10-02T10:54:51Z</time>
      </trkpt>
      <trkpt lat="42.4453750" lon="-5.2635240">
        <ele>884.2</ele>
        <time>2021-10-02T10:54:54Z</time>
      </trkpt>
      <trkpt lat="42.4454340" lon="-5.2636240">
        <ele>883.0</ele>
        <time>2021-10-02T10:54:55Z</time>
      </trkpt>
      <trkpt lat="42.4454940" lon="-5.2637240">
        <ele>882.0</ele>
        <time>2021-10-02T10:54:56Z</time>
      </trkpt>
      <trkpt lat="42.4455530" lon="-5.2638250">
        <ele>880.2</ele>
        <time>2021-10-02T10:54:57Z</time>
      </trkpt>
      <trkpt lat="42.4456700" lon="-5.2640250">
        <ele>879.0</ele>
        <time>2021-10-02T10:54:59Z</time>
      </trkpt>
      <trkpt lat="42.4458460" lon="-5.2643070">
        <ele>878.2</ele>
        <time>2021-10-02T10:55:02Z</time>
      </trkpt>
      <trkpt lat="42.4459020" lon="-5.2644000">
        <ele>877.8</ele>
        <time>2021-10-02T10:55:03Z</time>
      </trkpt>
      <trkpt lat="42.4460140" lon="-5.2645820">
        <ele>877.6</ele>
        <time>2021-10-02T10:55:05Z</time>
      </trkpt>
      <trkpt lat="42.4461190" lon="-5.2647610">
        <ele>877.6</ele>
        <time>2021-10-02T10:55:07Z</time>
      </trkpt>
      <trkpt lat="42.4462170" lon="-5.2649330">
        <ele>877.6</ele>
        <time>2021-10-02T10:55:09Z</time>
      </trkpt>
      <trkpt lat="42.4463110" lon="-5.2650920">
        <ele>877.6</ele>
        <time>2021-10-02T10:55:11Z</time>
      </trkpt>
      <trkpt lat="42.4463990" lon="-5.2652450">
        <ele>878.0</ele>
        <time>2021-10-02T10:55:13Z</time>
      </trkpt>
      <trkpt lat="42.4464820" lon="-5.2653890">
        <ele>879.0</ele>
        <time>2021-10-02T10:55:15Z</time>
      </trkpt>
      <trkpt lat="42.4465220" lon="-5.2654580">
        <ele>879.2</ele>
        <time>2021-10-02T10:55:16Z</time>
      </trkpt>
      <trkpt lat="42.4466380" lon="-5.2656590">
        <ele>880.6</ele>
        <time>2021-10-02T10:55:19Z</time>
      </trkpt>
      <trkpt lat="42.4467170" lon="-5.2657880">
        <ele>881.6</ele>
        <time>2021-10-02T10:55:21Z</time>
      </trkpt>
      <trkpt lat="42.4467910" lon="-5.2659230">
        <ele>882.6</ele>
        <time>2021-10-02T10:55:23Z</time>
      </trkpt>
      <trkpt lat="42.4469090" lon="-5.2661270">
        <ele>883.8</ele>
        <time>2021-10-02T10:55:26Z</time>
      </trkpt>
      <trkpt lat="42.4472530" lon="-5.2667080">
        <ele>884.6</ele>
        <time>2021-10-02T10:55:35Z</time>
      </trkpt>
      <trkpt lat="42.4475930" lon="-5.2672930">
        <ele>885.0</ele>
        <time>2021-10-02T10:55:44Z</time>
      </trkpt>
      <trkpt lat="42.4479410" lon="-5.2678710">
        <ele>885.0</ele>
        <time>2021-10-02T10:55:53Z</time>
      </trkpt>
      <trkpt lat="42.4481660" lon="-5.2683520">
        <ele>884.8</ele>
        <time>2021-10-02T10:56:00Z</time>
      </trkpt>
      <trkpt lat="42.4484510" lon="-5.2690530">
        <ele>884.4</ele>
        <time>2021-10-02T10:56:10Z</time>
      </trkpt>
      <trkpt lat="42.4486430" lon="-5.2695520">
        <ele>884.4</ele>
        <time>2021-10-02T10:56:17Z</time>
      </trkpt>
      <trkpt lat="42.4489080" lon="-5.2701940">
        <ele>884.4</ele>
        <time>2021-10-02T10:56:26Z</time>
      </trkpt>
      <trkpt lat="42.4491840" lon="-5.2708730">
        <ele>884.2</ele>
        <time>2021-10-02T10:56:35Z</time>
      </trkpt>
      <trkpt lat="42.4494430" lon="-5.2715090">
        <ele>883.2</ele>
        <time>2021-10-02T10:56:43Z</time>
      </trkpt>
      <trkpt lat="42.4495390" lon="-5.2717460">
        <ele>882.8</ele>
        <time>2021-10-02T10:56:46Z</time>
      </trkpt>
      <trkpt lat="42.4497960" lon="-5.2723820">
        <ele>882.4</ele>
        <time>2021-10-02T10:56:55Z</time>
      </trkpt>
      <trkpt lat="42.4499790" lon="-5.2728410">
        <ele>883.2</ele>
        <time>2021-10-02T10:57:02Z</time>
      </trkpt>
      <trkpt lat="42.4502430" lon="-5.2735020">
        <ele>884.2</ele>
        <time>2021-10-02T10:57:12Z</time>
      </trkpt>
      <trkpt lat="42.4505180" lon="-5.2741830">
        <ele>884.4</ele>
        <time>2021-10-02T10:57:22Z</time>
      </trkpt>
      <trkpt lat="42.4505310" lon="-5.2742090">
        <ele>884.4</ele>
        <time>2021-10-02T10:57:23Z</time>
      </trkpt>
      <trkpt lat="42.4505350" lon="-5.2742110">
        <ele>884.8</ele>
        <time>2021-10-02T10:57:25Z</time>
      </trkpt>
      <trkpt lat="42.4505390" lon="-5.2742370">
        <ele>886.2</ele>
        <time>2021-10-02T10:57:41Z</time>
      </trkpt>
      <trkpt lat="42.4505450" lon="-5.2742630">
        <ele>886.2</ele>
        <time>2021-10-02T10:57:42Z</time>
      </trkpt>
      <trkpt lat="42.4506220" lon="-5.2744340">
        <ele>886.2</ele>
        <time>2021-10-02T10:57:46Z</time>
      </trkpt>
      <trkpt lat="42.4506960" lon="-5.2746310">
        <ele>886.2</ele>
        <time>2021-10-02T10:57:49Z</time>
      </trkpt>
      <trkpt lat="42.4508190" lon="-5.2749340">
        <ele>885.8</ele>
        <time>2021-10-02T10:57:53Z</time>
      </trkpt>
      <trkpt lat="42.4509110" lon="-5.2751710">
        <ele>885.2</ele>
        <time>2021-10-02T10:57:56Z</time>
      </trkpt>
      <trkpt lat="42.4510060" lon="-5.2754080">
        <ele>884.4</ele>
        <time>2021-10-02T10:57:59Z</time>
      </trkpt>
      <trkpt lat="42.4512600" lon="-5.2760530">
        <ele>883.6</ele>
        <time>2021-10-02T10:58:07Z</time>
      </trkpt>
      <trkpt lat="42.4514810" lon="-5.2766060">
        <ele>883.4</ele>
        <time>2021-10-02T10:58:14Z</time>
      </trkpt>
      <trkpt lat="42.4517440" lon="-5.2772580">
        <ele>883.4</ele>
        <time>2021-10-02T10:58:22Z</time>
      </trkpt>
      <trkpt lat="42.4520200" lon="-5.2779530">
        <ele>883.4</ele>
        <time>2021-10-02T10:58:30Z</time>
      </trkpt>
      <trkpt lat="42.4523120" lon="-5.2786710">
        <ele>882.4</ele>
        <time>2021-10-02T10:58:38Z</time>
      </trkpt>
      <trkpt lat="42.4523490" lon="-5.2787640">
        <ele>882.4</ele>
        <time>2021-10-02T10:58:39Z</time>
      </trkpt>
      <trkpt lat="42.4524550" lon="-5.2790520">
        <ele>882.0</ele>
        <time>2021-10-02T10:58:42Z</time>
      </trkpt>
      <trkpt lat="42.4525300" lon="-5.2792510">
        <ele>881.4</ele>
        <time>2021-10-02T10:58:44Z</time>
      </trkpt>
      <trkpt lat="42.4527920" lon="-5.2798600">
        <ele>880.4</ele>
        <time>2021-10-02T10:58:50Z</time>
      </trkpt>
      <trkpt lat="42.4528360" lon="-5.2799650">
        <ele>880.2</ele>
        <time>2021-10-02T10:58:51Z</time>
      </trkpt>
      <trkpt lat="42.4528820" lon="-5.2800690">
        <ele>880.0</ele>
        <time>2021-10-02T10:58:52Z</time>
      </trkpt>
      <trkpt lat="42.4529760" lon="-5.2802750">
        <ele>879.0</ele>
        <time>2021-10-02T10:58:54Z</time>
      </trkpt>
      <trkpt lat="42.4530640" lon="-5.2804840">
        <ele>877.2</ele>
        <time>2021-10-02T10:58:56Z</time>
      </trkpt>
      <trkpt lat="42.4531070" lon="-5.2805870">
        <ele>876.2</ele>
        <time>2021-10-02T10:58:57Z</time>
      </trkpt>
      <trkpt lat="42.4531960" lon="-5.2807890">
        <ele>875.4</ele>
        <time>2021-10-02T10:58:59Z</time>
      </trkpt>
      <trkpt lat="42.4532380" lon="-5.2808910">
        <ele>874.8</ele>
        <time>2021-10-02T10:59:00Z</time>
      </trkpt>
      <trkpt lat="42.4533210" lon="-5.2810900">
        <ele>873.8</ele>
        <time>2021-10-02T10:59:02Z</time>
      </trkpt>
      <trkpt lat="42.4533610" lon="-5.2811880">
        <ele>873.6</ele>
        <time>2021-10-02T10:59:03Z</time>
      </trkpt>
      <trkpt lat="42.4534410" lon="-5.2813820">
        <ele>873.4</ele>
        <time>2021-10-02T10:59:05Z</time>
      </trkpt>
      <trkpt lat="42.4535200" lon="-5.2815740">
        <ele>873.4</ele>
        <time>2021-10-02T10:59:07Z</time>
      </trkpt>
      <trkpt lat="42.4536020" lon="-5.2817650">
        <ele>873.4</ele>
        <time>2021-10-02T10:59:09Z</time>
      </trkpt>
      <trkpt lat="42.4536820" lon="-5.2819490">
        <ele>873.4</ele>
        <time>2021-10-02T10:59:11Z</time>
      </trkpt>
      <trkpt lat="42.4537910" lon="-5.2822180">
        <ele>874.2</ele>
        <time>2021-10-02T10:59:14Z</time>
      </trkpt>
      <trkpt lat="42.4539030" lon="-5.2824770">
        <ele>874.6</ele>
        <time>2021-10-02T10:59:17Z</time>
      </trkpt>
      <trkpt lat="42.4540150" lon="-5.2827430">
        <ele>874.8</ele>
        <time>2021-10-02T10:59:20Z</time>
      </trkpt>
      <trkpt lat="42.4542930" lon="-5.2834090">
        <ele>875.4</ele>
        <time>2021-10-02T10:59:28Z</time>
      </trkpt>
      <trkpt lat="42.4545010" lon="-5.2839010">
        <ele>876.0</ele>
        <time>2021-10-02T10:59:34Z</time>
      </trkpt>
      <trkpt lat="42.4547760" lon="-5.2845540">
        <ele>876.6</ele>
        <time>2021-10-02T10:59:42Z</time>
      </trkpt>
      <trkpt lat="42.4550430" lon="-5.2851930">
        <ele>876.6</ele>
        <time>2021-10-02T10:59:50Z</time>
      </trkpt>
      <trkpt lat="42.4553340" lon="-5.2858900">
        <ele>877.0</ele>
        <time>2021-10-02T10:59:59Z</time>
      </trkpt>
      <trkpt lat="42.4556220" lon="-5.2865750">
        <ele>877.2</ele>
        <time>2021-10-02T11:00:08Z</time>
      </trkpt>
      <trkpt lat="42.4558660" lon="-5.2871680">
        <ele>877.2</ele>
        <time>2021-10-02T11:00:16Z</time>
      </trkpt>
      <trkpt lat="42.4561440" lon="-5.2878310">
        <ele>877.8</ele>
        <time>2021-10-02T11:00:25Z</time>
      </trkpt>
      <trkpt lat="42.4563030" lon="-5.2882000">
        <ele>878.0</ele>
        <time>2021-10-02T11:00:30Z</time>
      </trkpt>
      <trkpt lat="42.4564000" lon="-5.2884230">
        <ele>878.4</ele>
        <time>2021-10-02T11:00:33Z</time>
      </trkpt>
      <trkpt lat="42.4566310" lon="-5.2889690">
        <ele>878.6</ele>
        <time>2021-10-02T11:00:40Z</time>
      </trkpt>
      <trkpt lat="42.4569020" lon="-5.2896050">
        <ele>878.4</ele>
        <time>2021-10-02T11:00:48Z</time>
      </trkpt>
      <trkpt lat="42.4571660" lon="-5.2902590">
        <ele>878.4</ele>
        <time>2021-10-02T11:00:56Z</time>
      </trkpt>
      <trkpt lat="42.4574130" lon="-5.2908390">
        <ele>878.0</ele>
        <time>2021-10-02T11:01:03Z</time>
      </trkpt>
      <trkpt lat="42.4576910" lon="-5.2914870">
        <ele>877.8</ele>
        <time>2021-10-02T11:01:11Z</time>
      </trkpt>
      <trkpt lat="42.4579580" lon="-5.2921360">
        <ele>878.0</ele>
        <time>2021-10-02T11:01:19Z</time>
      </trkpt>
      <trkpt lat="42.4582190" lon="-5.2927750">
        <ele>877.8</ele>
        <time>2021-10-02T11:01:27Z</time>
      </trkpt>
      <trkpt lat="42.4584980" lon="-5.2934330">
        <ele>877.8</ele>
        <time>2021-10-02T11:01:35Z</time>
      </trkpt>
      <trkpt lat="42.4587400" lon="-5.2941730">
        <ele>877.6</ele>
        <time>2021-10-02T11:01:43Z</time>
      </trkpt>
      <trkpt lat="42.4588270" lon="-5.2944740">
        <ele>877.0</ele>
        <time>2021-10-02T11:01:46Z</time>
      </trkpt>
      <trkpt lat="42.4588560" lon="-5.2945780">
        <ele>876.6</ele>
        <time>2021-10-02T11:01:47Z</time>
      </trkpt>
      <trkpt lat="42.4589150" lon="-5.2947880">
        <ele>875.6</ele>
        <time>2021-10-02T11:01:49Z</time>
      </trkpt>
      <trkpt lat="42.4590010" lon="-5.2950970">
        <ele>874.8</ele>
        <time>2021-10-02T11:01:52Z</time>
      </trkpt>
      <trkpt lat="42.4590570" lon="-5.2952920">
        <ele>874.6</ele>
        <time>2021-10-02T11:01:54Z</time>
      </trkpt>
      <trkpt lat="42.4591360" lon="-5.2955740">
        <ele>873.6</ele>
        <time>2021-10-02T11:01:57Z</time>
      </trkpt>
      <trkpt lat="42.4592140" lon="-5.2958480">
        <ele>873.2</ele>
        <time>2021-10-02T11:02:00Z</time>
      </trkpt>
      <trkpt lat="42.4593140" lon="-5.2962000">
        <ele>873.2</ele>
        <time>2021-10-02T11:02:04Z</time>
      </trkpt>
      <trkpt lat="42.4594070" lon="-5.2965330">
        <ele>874.2</ele>
        <time>2021-10-02T11:02:08Z</time>
      </trkpt>
      <trkpt lat="42.4594790" lon="-5.2967690">
        <ele>874.6</ele>
        <time>2021-10-02T11:02:11Z</time>
      </trkpt>
      <trkpt lat="42.4595850" lon="-5.2971470">
        <ele>875.2</ele>
        <time>2021-10-02T11:02:16Z</time>
      </trkpt>
      <trkpt lat="42.4596300" lon="-5.2972950">
        <ele>875.8</ele>
        <time>2021-10-02T11:02:18Z</time>
      </trkpt>
      <trkpt lat="42.4596990" lon="-5.2975270">
        <ele>876.2</ele>
        <time>2021-10-02T11:02:21Z</time>
      </trkpt>
      <trkpt lat="42.4597450" lon="-5.2976820">
        <ele>876.8</ele>
        <time>2021-10-02T11:02:23Z</time>
      </trkpt>
      <trkpt lat="42.4599620" lon="-5.2984350">
        <ele>877.8</ele>
        <time>2021-10-02T11:02:33Z</time>
      </trkpt>
      <trkpt lat="42.4600000" lon="-5.2985840">
        <ele>877.8</ele>
        <time>2021-10-02T11:02:35Z</time>
      </trkpt>
      <trkpt lat="42.4601680" lon="-5.2991670">
        <ele>878.0</ele>
        <time>2021-10-02T11:02:43Z</time>
      </trkpt>
      <trkpt lat="42.4602870" lon="-5.2996010">
        <ele>878.4</ele>
        <time>2021-10-02T11:02:49Z</time>
      </trkpt>
      <trkpt lat="42.4605130" lon="-5.3003100">
        <ele>878.8</ele>
        <time>2021-10-02T11:02:59Z</time>
      </trkpt>
      <trkpt lat="42.4607490" lon="-5.3010370">
        <ele>879.0</ele>
        <time>2021-10-02T11:03:09Z</time>
      </trkpt>
      <trkpt lat="42.4608770" lon="-5.3014360">
        <ele>879.0</ele>
        <time>2021-10-02T11:03:14Z</time>
      </trkpt>
      <trkpt lat="42.4609870" lon="-5.3017640">
        <ele>878.8</ele>
        <time>2021-10-02T11:03:18Z</time>
      </trkpt>
      <trkpt lat="42.4612180" lon="-5.3024770">
        <ele>878.8</ele>
        <time>2021-10-02T11:03:27Z</time>
      </trkpt>
      <trkpt lat="42.4614510" lon="-5.3031970">
        <ele>878.6</ele>
        <time>2021-10-02T11:03:36Z</time>
      </trkpt>
      <trkpt lat="42.4616330" lon="-5.3037830">
        <ele>877.8</ele>
        <time>2021-10-02T11:03:43Z</time>
      </trkpt>
      <trkpt lat="42.4617690" lon="-5.3042150">
        <ele>877.2</ele>
        <time>2021-10-02T11:03:48Z</time>
      </trkpt>
      <trkpt lat="42.4618200" lon="-5.3043900">
        <ele>876.6</ele>
        <time>2021-10-02T11:03:50Z</time>
      </trkpt>
      <trkpt lat="42.4618750" lon="-5.3045640">
        <ele>876.2</ele>
        <time>2021-10-02T11:03:52Z</time>
      </trkpt>
      <trkpt lat="42.4620980" lon="-5.3052730">
        <ele>875.2</ele>
        <time>2021-10-02T11:04:00Z</time>
      </trkpt>
      <trkpt lat="42.4623210" lon="-5.3059870">
        <ele>874.4</ele>
        <time>2021-10-02T11:04:08Z</time>
      </trkpt>
      <trkpt lat="42.4625190" lon="-5.3066110">
        <ele>874.0</ele>
        <time>2021-10-02T11:04:15Z</time>
      </trkpt>
      <trkpt lat="42.4627430" lon="-5.3073410">
        <ele>873.8</ele>
        <time>2021-10-02T11:04:23Z</time>
      </trkpt>
      <trkpt lat="42.4628920" lon="-5.3077960">
        <ele>873.2</ele>
        <time>2021-10-02T11:04:28Z</time>
      </trkpt>
      <trkpt lat="42.4630070" lon="-5.3081660">
        <ele>872.2</ele>
        <time>2021-10-02T11:04:32Z</time>
      </trkpt>
      <trkpt lat="42.4632160" lon="-5.3088210">
        <ele>871.2</ele>
        <time>2021-10-02T11:04:39Z</time>
      </trkpt>
      <trkpt lat="42.4633310" lon="-5.3091910">
        <ele>869.8</ele>
        <time>2021-10-02T11:04:43Z</time>
      </trkpt>
      <trkpt lat="42.4635330" lon="-5.3098210">
        <ele>869.2</ele>
        <time>2021-10-02T11:04:50Z</time>
      </trkpt>
      <trkpt lat="42.4636420" lon="-5.3101810">
        <ele>868.8</ele>
        <time>2021-10-02T11:04:54Z</time>
      </trkpt>
      <trkpt lat="42.4637550" lon="-5.3105360">
        <ele>868.8</ele>
        <time>2021-10-02T11:04:58Z</time>
      </trkpt>
      <trkpt lat="42.4639570" lon="-5.3112740">
        <ele>868.8</ele>
        <time>2021-10-02T11:05:06Z</time>
      </trkpt>
      <trkpt lat="42.4640570" lon="-5.3117750">
        <ele>868.8</ele>
        <time>2021-10-02T11:05:11Z</time>
      </trkpt>
      <trkpt lat="42.4641700" lon="-5.3123780">
        <ele>867.8</ele>
        <time>2021-10-02T11:05:17Z</time>
      </trkpt>
      <trkpt lat="42.4642450" lon="-5.3127720">
        <ele>866.8</ele>
        <time>2021-10-02T11:05:21Z</time>
      </trkpt>
      <trkpt lat="42.4644020" lon="-5.3135720">
        <ele>866.0</ele>
        <time>2021-10-02T11:05:29Z</time>
      </trkpt>
      <trkpt lat="42.4644200" lon="-5.3136670">
        <ele>865.4</ele>
        <time>2021-10-02T11:05:30Z</time>
      </trkpt>
      <trkpt lat="42.4645600" lon="-5.3144020">
        <ele>864.8</ele>
        <time>2021-10-02T11:05:38Z</time>
      </trkpt>
      <trkpt lat="42.4647000" lon="-5.3151270">
        <ele>865.6</ele>
        <time>2021-10-02T11:05:46Z</time>
      </trkpt>
      <trkpt lat="42.4648350" lon="-5.3158160">
        <ele>866.0</ele>
        <time>2021-10-02T11:05:54Z</time>
      </trkpt>
      <trkpt lat="42.4648630" lon="-5.3159910">
        <ele>866.0</ele>
        <time>2021-10-02T11:05:56Z</time>
      </trkpt>
      <trkpt lat="42.4650000" lon="-5.3166930">
        <ele>866.4</ele>
        <time>2021-10-02T11:06:04Z</time>
      </trkpt>
      <trkpt lat="42.4650820" lon="-5.3171270">
        <ele>866.6</ele>
        <time>2021-10-02T11:06:09Z</time>
      </trkpt>
      <trkpt lat="42.4652300" lon="-5.3178860">
        <ele>866.8</ele>
        <time>2021-10-02T11:06:18Z</time>
      </trkpt>
      <trkpt lat="42.4653520" lon="-5.3186500">
        <ele>866.8</ele>
        <time>2021-10-02T11:06:27Z</time>
      </trkpt>
      <trkpt lat="42.4653470" lon="-5.3190090">
        <ele>866.6</ele>
        <time>2021-10-02T11:06:31Z</time>
      </trkpt>
      <trkpt lat="42.4653100" lon="-5.3194640">
        <ele>866.4</ele>
        <time>2021-10-02T11:06:36Z</time>
      </trkpt>
      <trkpt lat="42.4652690" lon="-5.3199090">
        <ele>866.4</ele>
        <time>2021-10-02T11:06:41Z</time>
      </trkpt>
      <trkpt lat="42.4652070" lon="-5.3205040">
        <ele>866.4</ele>
        <time>2021-10-02T11:06:48Z</time>
      </trkpt>
      <trkpt lat="42.4651340" lon="-5.3212430">
        <ele>865.8</ele>
        <time>2021-10-02T11:06:57Z</time>
      </trkpt>
      <trkpt lat="42.4650960" lon="-5.3216420">
        <ele>865.8</ele>
        <time>2021-10-02T11:07:02Z</time>
      </trkpt>
      <trkpt lat="42.4650270" lon="-5.3223550">
        <ele>866.0</ele>
        <time>2021-10-02T11:07:11Z</time>
      </trkpt>
      <trkpt lat="42.4649520" lon="-5.3231540">
        <ele>866.0</ele>
        <time>2021-10-02T11:07:21Z</time>
      </trkpt>
      <trkpt lat="42.4648760" lon="-5.3239510">
        <ele>866.0</ele>
        <time>2021-10-02T11:07:31Z</time>
      </trkpt>
      <trkpt lat="42.4648090" lon="-5.3246150">
        <ele>866.2</ele>
        <time>2021-10-02T11:07:39Z</time>
      </trkpt>
      <trkpt lat="42.4647510" lon="-5.3252670">
        <ele>865.8</ele>
        <time>2021-10-02T11:07:47Z</time>
      </trkpt>
      <trkpt lat="42.4646760" lon="-5.3260020">
        <ele>865.4</ele>
        <time>2021-10-02T11:07:56Z</time>
      </trkpt>
      <trkpt lat="42.4646050" lon="-5.3267230">
        <ele>865.0</ele>
        <time>2021-10-02T11:08:05Z</time>
      </trkpt>
      <trkpt lat="42.4645360" lon="-5.3274600">
        <ele>864.8</ele>
        <time>2021-10-02T11:08:14Z</time>
      </trkpt>
      <trkpt lat="42.4645160" lon="-5.3277290">
        <ele>864.6</ele>
        <time>2021-10-02T11:08:17Z</time>
      </trkpt>
      <trkpt lat="42.4645200" lon="-5.3279180">
        <ele>864.4</ele>
        <time>2021-10-02T11:08:19Z</time>
      </trkpt>
      <trkpt lat="42.4645820" lon="-5.3282020">
        <ele>864.2</ele>
        <time>2021-10-02T11:08:22Z</time>
      </trkpt>
      <trkpt lat="42.4646130" lon="-5.3282950">
        <ele>864.0</ele>
        <time>2021-10-02T11:08:23Z</time>
      </trkpt>
      <trkpt lat="42.4646500" lon="-5.3283850">
        <ele>864.0</ele>
        <time>2021-10-02T11:08:24Z</time>
      </trkpt>
      <trkpt lat="42.4647460" lon="-5.3285530">
        <ele>863.4</ele>
        <time>2021-10-02T11:08:26Z</time>
      </trkpt>
      <trkpt lat="42.4648670" lon="-5.3286950">
        <ele>862.4</ele>
        <time>2021-10-02T11:08:28Z</time>
      </trkpt>
      <trkpt lat="42.4650850" lon="-5.3288480">
        <ele>861.6</ele>
        <time>2021-10-02T11:08:31Z</time>
      </trkpt>
      <trkpt lat="42.4651620" lon="-5.3288860">
        <ele>861.2</ele>
        <time>2021-10-02T11:08:32Z</time>
      </trkpt>
      <trkpt lat="42.4654020" lon="-5.3289860">
        <ele>859.8</ele>
        <time>2021-10-02T11:08:35Z</time>
      </trkpt>
      <trkpt lat="42.4657150" lon="-5.3290920">
        <ele>859.0</ele>
        <time>2021-10-02T11:08:39Z</time>
      </trkpt>
      <trkpt lat="42.4657880" lon="-5.3291110">
        <ele>858.8</ele>
        <time>2021-10-02T11:08:40Z</time>
      </trkpt>
      <trkpt lat="42.4659350" lon="-5.3291450">
        <ele>858.6</ele>
        <time>2021-10-02T11:08:42Z</time>
      </trkpt>
      <trkpt lat="42.4663590" lon="-5.3292880">
        <ele>858.4</ele>
        <time>2021-10-02T11:08:48Z</time>
      </trkpt>
      <trkpt lat="42.4665790" lon="-5.3293540">
        <ele>858.4</ele>
        <time>2021-10-02T11:08:51Z</time>
      </trkpt>
      <trkpt lat="42.4667230" lon="-5.3294010">
        <ele>858.4</ele>
        <time>2021-10-02T11:08:53Z</time>
      </trkpt>
      <trkpt lat="42.4670090" lon="-5.3295130">
        <ele>857.8</ele>
        <time>2021-10-02T11:08:57Z</time>
      </trkpt>
      <trkpt lat="42.4674470" lon="-5.3297090">
        <ele>857.4</ele>
        <time>2021-10-02T11:09:03Z</time>
      </trkpt>
      <trkpt lat="42.4677080" lon="-5.3299380">
        <ele>857.0</ele>
        <time>2021-10-02T11:09:07Z</time>
      </trkpt>
      <trkpt lat="42.4679230" lon="-5.3302300">
        <ele>856.6</ele>
        <time>2021-10-02T11:09:11Z</time>
      </trkpt>
      <trkpt lat="42.4680800" lon="-5.3305740">
        <ele>855.6</ele>
        <time>2021-10-02T11:09:15Z</time>
      </trkpt>
      <trkpt lat="42.4682550" lon="-5.3312490">
        <ele>854.6</ele>
        <time>2021-10-02T11:09:22Z</time>
      </trkpt>
      <trkpt lat="42.4683350" lon="-5.3316400">
        <ele>854.2</ele>
        <time>2021-10-02T11:09:26Z</time>
      </trkpt>
      <trkpt lat="42.4683990" lon="-5.3323370">
        <ele>853.4</ele>
        <time>2021-10-02T11:09:33Z</time>
      </trkpt>
      <trkpt lat="42.4683960" lon="-5.3329160">
        <ele>852.6</ele>
        <time>2021-10-02T11:09:39Z</time>
      </trkpt>
      <trkpt lat="42.4683970" lon="-5.3332000">
        <ele>852.2</ele>
        <time>2021-10-02T11:09:42Z</time>
      </trkpt>
      <trkpt lat="42.4683970" lon="-5.3333870">
        <ele>851.8</ele>
        <time>2021-10-02T11:09:44Z</time>
      </trkpt>
      <trkpt lat="42.4683960" lon="-5.3334800">
        <ele>851.4</ele>
        <time>2021-10-02T11:09:45Z</time>
      </trkpt>
      <trkpt lat="42.4683940" lon="-5.3335710">
        <ele>851.2</ele>
        <time>2021-10-02T11:09:46Z</time>
      </trkpt>
      <trkpt lat="42.4683870" lon="-5.3338430">
        <ele>850.8</ele>
        <time>2021-10-02T11:09:49Z</time>
      </trkpt>
      <trkpt lat="42.4683890" lon="-5.3342100">
        <ele>850.8</ele>
        <time>2021-10-02T11:09:53Z</time>
      </trkpt>
      <trkpt lat="42.4683890" lon="-5.3349410">
        <ele>851.8</ele>
        <time>2021-10-02T11:10:01Z</time>
      </trkpt>
      <trkpt lat="42.4683860" lon="-5.3353130">
        <ele>852.0</ele>
        <time>2021-10-02T11:10:05Z</time>
      </trkpt>
      <trkpt lat="42.4683810" lon="-5.3358760">
        <ele>852.0</ele>
        <time>2021-10-02T11:10:11Z</time>
      </trkpt>
      <trkpt lat="42.4683830" lon="-5.3362290">
        <ele>852.0</ele>
        <time>2021-10-02T11:10:15Z</time>
      </trkpt>
      <trkpt lat="42.4683780" lon="-5.3366360">
        <ele>852.0</ele>
        <time>2021-10-02T11:10:20Z</time>
      </trkpt>
      <trkpt lat="42.4684060" lon="-5.3370910">
        <ele>852.6</ele>
        <time>2021-10-02T11:10:26Z</time>
      </trkpt>
      <trkpt lat="42.4684870" lon="-5.3375010">
        <ele>853.6</ele>
        <time>2021-10-02T11:10:32Z</time>
      </trkpt>
      <trkpt lat="42.4685950" lon="-5.3378050">
        <ele>855.0</ele>
        <time>2021-10-02T11:10:37Z</time>
      </trkpt>
      <trkpt lat="42.4687260" lon="-5.3380390">
        <ele>855.8</ele>
        <time>2021-10-02T11:10:41Z</time>
      </trkpt>
      <trkpt lat="42.4688540" lon="-5.3381850">
        <ele>856.0</ele>
        <time>2021-10-02T11:10:44Z</time>
      </trkpt>
      <trkpt lat="42.4690460" lon="-5.3383600">
        <ele>856.2</ele>
        <time>2021-10-02T11:10:48Z</time>
      </trkpt>
      <trkpt lat="42.4692530" lon="-5.3385610">
        <ele>856.4</ele>
        <time>2021-10-02T11:10:52Z</time>
      </trkpt>
      <trkpt lat="42.4696640" lon="-5.3389940">
        <ele>856.2</ele>
        <time>2021-10-02T11:11:00Z</time>
      </trkpt>
      <trkpt lat="42.4698320" lon="-5.3391910">
        <ele>856.2</ele>
        <time>2021-10-02T11:11:04Z</time>
      </trkpt>
      <trkpt lat="42.4699850" lon="-5.3393590">
        <ele>856.8</ele>
        <time>2021-10-02T11:11:08Z</time>
      </trkpt>
      <trkpt lat="42.4700210" lon="-5.3394010">
        <ele>857.2</ele>
        <time>2021-10-02T11:11:09Z</time>
      </trkpt>
      <trkpt lat="42.4700900" lon="-5.3394860">
        <ele>858.4</ele>
        <time>2021-10-02T11:11:11Z</time>
      </trkpt>
      <trkpt lat="42.4701560" lon="-5.3395730">
        <ele>859.4</ele>
        <time>2021-10-02T11:11:13Z</time>
      </trkpt>
      <trkpt lat="42.4702510" lon="-5.3396990">
        <ele>860.4</ele>
        <time>2021-10-02T11:11:16Z</time>
      </trkpt>
      <trkpt lat="42.4703910" lon="-5.3400100">
        <ele>861.4</ele>
        <time>2021-10-02T11:11:22Z</time>
      </trkpt>
      <trkpt lat="42.4704780" lon="-5.3403620">
        <ele>862.6</ele>
        <time>2021-10-02T11:11:28Z</time>
      </trkpt>
      <trkpt lat="42.4705320" lon="-5.3406600">
        <ele>863.8</ele>
        <time>2021-10-02T11:11:33Z</time>
      </trkpt>
      <trkpt lat="42.4705810" lon="-5.3411560">
        <ele>865.0</ele>
        <time>2021-10-02T11:11:41Z</time>
      </trkpt>
      <trkpt lat="42.4706260" lon="-5.3416630">
        <ele>865.6</ele>
        <time>2021-10-02T11:11:49Z</time>
      </trkpt>
      <trkpt lat="42.4706750" lon="-5.3422770">
        <ele>865.8</ele>
        <time>2021-10-02T11:11:58Z</time>
      </trkpt>
      <trkpt lat="42.4707160" lon="-5.3427010">
        <ele>866.0</ele>
        <time>2021-10-02T11:12:04Z</time>
      </trkpt>
      <trkpt lat="42.4707590" lon="-5.3433920">
        <ele>866.4</ele>
        <time>2021-10-02T11:12:13Z</time>
      </trkpt>
      <trkpt lat="42.4707450" lon="-5.3441920">
        <ele>865.6</ele>
        <time>2021-10-02T11:12:23Z</time>
      </trkpt>
      <trkpt lat="42.4707260" lon="-5.3446040">
        <ele>865.2</ele>
        <time>2021-10-02T11:12:28Z</time>
      </trkpt>
      <trkpt lat="42.4706780" lon="-5.3453350">
        <ele>865.2</ele>
        <time>2021-10-02T11:12:37Z</time>
      </trkpt>
      <trkpt lat="42.4706380" lon="-5.3460900">
        <ele>864.8</ele>
        <time>2021-10-02T11:12:46Z</time>
      </trkpt>
      <trkpt lat="42.4706260" lon="-5.3467020">
        <ele>863.8</ele>
        <time>2021-10-02T11:12:53Z</time>
      </trkpt>
      <trkpt lat="42.4706430" lon="-5.3470600">
        <ele>862.8</ele>
        <time>2021-10-02T11:12:57Z</time>
      </trkpt>
      <trkpt lat="42.4706490" lon="-5.3471520">
        <ele>862.8</ele>
        <time>2021-10-02T11:12:58Z</time>
      </trkpt>
      <trkpt lat="42.4706770" lon="-5.3474310">
        <ele>862.4</ele>
        <time>2021-10-02T11:13:01Z</time>
      </trkpt>
      <trkpt lat="42.4707220" lon="-5.3477170">
        <ele>862.0</ele>
        <time>2021-10-02T11:13:04Z</time>
      </trkpt>
      <trkpt lat="42.4707460" lon="-5.3478120">
        <ele>861.6</ele>
        <time>2021-10-02T11:13:05Z</time>
      </trkpt>
      <trkpt lat="42.4708790" lon="-5.3481850">
        <ele>860.8</ele>
        <time>2021-10-02T11:13:09Z</time>
      </trkpt>
      <trkpt lat="42.4709910" lon="-5.3484680">
        <ele>859.6</ele>
        <time>2021-10-02T11:13:12Z</time>
      </trkpt>
      <trkpt lat="42.4710670" lon="-5.3486560">
        <ele>859.2</ele>
        <time>2021-10-02T11:13:14Z</time>
      </trkpt>
      <trkpt lat="42.4711060" lon="-5.3487500">
        <ele>858.8</ele>
        <time>2021-10-02T11:13:15Z</time>
      </trkpt>
      <trkpt lat="42.4711450" lon="-5.3488450">
        <ele>858.0</ele>
        <time>2021-10-02T11:13:16Z</time>
      </trkpt>
      <trkpt lat="42.4711850" lon="-5.3489410">
        <ele>857.0</ele>
        <time>2021-10-02T11:13:17Z</time>
      </trkpt>
      <trkpt lat="42.4712240" lon="-5.3490370">
        <ele>856.2</ele>
        <time>2021-10-02T11:13:18Z</time>
      </trkpt>
      <trkpt lat="42.4712630" lon="-5.3491340">
        <ele>856.0</ele>
        <time>2021-10-02T11:13:19Z</time>
      </trkpt>
      <trkpt lat="42.4714190" lon="-5.3495310">
        <ele>854.8</ele>
        <time>2021-10-02T11:13:23Z</time>
      </trkpt>
      <trkpt lat="42.4715780" lon="-5.3499340">
        <ele>853.0</ele>
        <time>2021-10-02T11:13:27Z</time>
      </trkpt>
      <trkpt lat="42.4716990" lon="-5.3502450">
        <ele>851.8</ele>
        <time>2021-10-02T11:13:30Z</time>
      </trkpt>
      <trkpt lat="42.4718080" lon="-5.3505670">
        <ele>850.4</ele>
        <time>2021-10-02T11:13:33Z</time>
      </trkpt>
      <trkpt lat="42.4718810" lon="-5.3508950">
        <ele>849.4</ele>
        <time>2021-10-02T11:13:36Z</time>
      </trkpt>
      <trkpt lat="42.4719590" lon="-5.3512080">
        <ele>848.2</ele>
        <time>2021-10-02T11:13:39Z</time>
      </trkpt>
      <trkpt lat="42.4720550" lon="-5.3516020">
        <ele>847.2</ele>
        <time>2021-10-02T11:13:43Z</time>
      </trkpt>
      <trkpt lat="42.4722880" lon="-5.3522650">
        <ele>847.0</ele>
        <time>2021-10-02T11:13:51Z</time>
      </trkpt>
      <trkpt lat="42.4723490" lon="-5.3524110">
        <ele>847.0</ele>
        <time>2021-10-02T11:13:53Z</time>
      </trkpt>
      <trkpt lat="42.4724480" lon="-5.3526060">
        <ele>847.2</ele>
        <time>2021-10-02T11:13:56Z</time>
      </trkpt>
      <trkpt lat="42.4724990" lon="-5.3527010">
        <ele>847.2</ele>
        <time>2021-10-02T11:13:58Z</time>
      </trkpt>
      <trkpt lat="42.4724990" lon="-5.3527870">
        <ele>847.6</ele>
        <time>2021-10-02T11:14:00Z</time>
      </trkpt>
      <trkpt lat="42.4725100" lon="-5.3530140">
        <ele>848.2</ele>
        <time>2021-10-02T11:14:05Z</time>
      </trkpt>
      <trkpt lat="42.4725750" lon="-5.3531520">
        <ele>848.2</ele>
        <time>2021-10-02T11:14:08Z</time>
      </trkpt>
      <trkpt lat="42.4726390" lon="-5.3532450">
        <ele>848.2</ele>
        <time>2021-10-02T11:14:10Z</time>
      </trkpt>
      <trkpt lat="42.4727140" lon="-5.3533530">
        <ele>848.2</ele>
        <time>2021-10-02T11:14:12Z</time>
      </trkpt>
      <trkpt lat="42.4728690" lon="-5.3535740">
        <ele>848.0</ele>
        <time>2021-10-02T11:14:15Z</time>
      </trkpt>
      <trkpt lat="42.4730260" lon="-5.3538220">
        <ele>847.6</ele>
        <time>2021-10-02T11:14:18Z</time>
      </trkpt>
      <trkpt lat="42.4731090" lon="-5.3540210">
        <ele>846.8</ele>
        <time>2021-10-02T11:14:20Z</time>
      </trkpt>
      <trkpt lat="42.4731470" lon="-5.3541250">
        <ele>845.6</ele>
        <time>2021-10-02T11:14:21Z</time>
      </trkpt>
      <trkpt lat="42.4731850" lon="-5.3542300">
        <ele>844.0</ele>
        <time>2021-10-02T11:14:22Z</time>
      </trkpt>
      <trkpt lat="42.4732260" lon="-5.3543340">
        <ele>842.6</ele>
        <time>2021-10-02T11:14:23Z</time>
      </trkpt>
      <trkpt lat="42.4732650" lon="-5.3544380">
        <ele>841.2</ele>
        <time>2021-10-02T11:14:24Z</time>
      </trkpt>
      <trkpt lat="42.4733410" lon="-5.3546450">
        <ele>840.4</ele>
        <time>2021-10-02T11:14:26Z</time>
      </trkpt>
      <trkpt lat="42.4733870" lon="-5.3547410">
        <ele>840.0</ele>
        <time>2021-10-02T11:14:27Z</time>
      </trkpt>
      <trkpt lat="42.4734860" lon="-5.3549190">
        <ele>839.0</ele>
        <time>2021-10-02T11:14:29Z</time>
      </trkpt>
      <trkpt lat="42.4735910" lon="-5.3550860">
        <ele>837.8</ele>
        <time>2021-10-02T11:14:31Z</time>
      </trkpt>
      <trkpt lat="42.4738260" lon="-5.3553780">
        <ele>836.6</ele>
        <time>2021-10-02T11:14:35Z</time>
      </trkpt>
      <trkpt lat="42.4740910" lon="-5.3557220">
        <ele>835.4</ele>
        <time>2021-10-02T11:14:40Z</time>
      </trkpt>
      <trkpt lat="42.4742490" lon="-5.3560250">
        <ele>835.0</ele>
        <time>2021-10-02T11:14:44Z</time>
      </trkpt>
      <trkpt lat="42.4743540" lon="-5.3562560">
        <ele>835.0</ele>
        <time>2021-10-02T11:14:47Z</time>
      </trkpt>
      <trkpt lat="42.4746380" lon="-5.3568700">
        <ele>834.6</ele>
        <time>2021-10-02T11:14:55Z</time>
      </trkpt>
      <trkpt lat="42.4749330" lon="-5.3573770">
        <ele>834.8</ele>
        <time>2021-10-02T11:15:02Z</time>
      </trkpt>
      <trkpt lat="42.4750910" lon="-5.3575870">
        <ele>834.6</ele>
        <time>2021-10-02T11:15:05Z</time>
      </trkpt>
      <trkpt lat="42.4753060" lon="-5.3578560">
        <ele>834.4</ele>
        <time>2021-10-02T11:15:09Z</time>
      </trkpt>
      <trkpt lat="42.4754200" lon="-5.3579780">
        <ele>834.4</ele>
        <time>2021-10-02T11:15:11Z</time>
      </trkpt>
      <trkpt lat="42.4758560" lon="-5.3584590">
        <ele>834.6</ele>
        <time>2021-10-02T11:15:19Z</time>
      </trkpt>
      <trkpt lat="42.4761830" lon="-5.3589480">
        <ele>834.8</ele>
        <time>2021-10-02T11:15:26Z</time>
      </trkpt>
      <trkpt lat="42.4764420" lon="-5.3594990">
        <ele>834.2</ele>
        <time>2021-10-02T11:15:33Z</time>
      </trkpt>
      <trkpt lat="42.4767070" lon="-5.3600480">
        <ele>833.8</ele>
        <time>2021-10-02T11:15:40Z</time>
      </trkpt>
      <trkpt lat="42.4770010" lon="-5.3606780">
        <ele>833.6</ele>
        <time>2021-10-02T11:15:48Z</time>
      </trkpt>
      <trkpt lat="42.4772930" lon="-5.3613120">
        <ele>834.0</ele>
        <time>2021-10-02T11:15:56Z</time>
      </trkpt>
      <trkpt lat="42.4775890" lon="-5.3619570">
        <ele>834.2</ele>
        <time>2021-10-02T11:16:04Z</time>
      </trkpt>
      <trkpt lat="42.4779010" lon="-5.3626180">
        <ele>834.0</ele>
        <time>2021-10-02T11:16:12Z</time>
      </trkpt>
      <trkpt lat="42.4781900" lon="-5.3632470">
        <ele>834.2</ele>
        <time>2021-10-02T11:16:20Z</time>
      </trkpt>
      <trkpt lat="42.4785120" lon="-5.3639320">
        <ele>834.0</ele>
        <time>2021-10-02T11:16:29Z</time>
      </trkpt>
      <trkpt lat="42.4788150" lon="-5.3645800">
        <ele>833.8</ele>
        <time>2021-10-02T11:16:37Z</time>
      </trkpt>
      <trkpt lat="42.4788540" lon="-5.3646620">
        <ele>833.6</ele>
        <time>2021-10-02T11:16:38Z</time>
      </trkpt>
      <trkpt lat="42.4790730" lon="-5.3651610">
        <ele>833.0</ele>
        <time>2021-10-02T11:16:44Z</time>
      </trkpt>
      <trkpt lat="42.4791380" lon="-5.3653350">
        <ele>832.4</ele>
        <time>2021-10-02T11:16:46Z</time>
      </trkpt>
      <trkpt lat="42.4792700" lon="-5.3657960">
        <ele>832.2</ele>
        <time>2021-10-02T11:16:51Z</time>
      </trkpt>
      <trkpt lat="42.4794100" lon="-5.3662880">
        <ele>831.6</ele>
        <time>2021-10-02T11:16:56Z</time>
      </trkpt>
      <trkpt lat="42.4795560" lon="-5.3666930">
        <ele>830.2</ele>
        <time>2021-10-02T11:17:00Z</time>
      </trkpt>
      <trkpt lat="42.4797550" lon="-5.3672250">
        <ele>828.8</ele>
        <time>2021-10-02T11:17:05Z</time>
      </trkpt>
      <trkpt lat="42.4799210" lon="-5.3677810">
        <ele>827.6</ele>
        <time>2021-10-02T11:17:10Z</time>
      </trkpt>
      <trkpt lat="42.4799910" lon="-5.3680060">
        <ele>826.6</ele>
        <time>2021-10-02T11:17:12Z</time>
      </trkpt>
      <trkpt lat="42.4800610" lon="-5.3682360">
        <ele>825.2</ele>
        <time>2021-10-02T11:17:14Z</time>
      </trkpt>
      <trkpt lat="42.4801320" lon="-5.3684730">
        <ele>824.2</ele>
        <time>2021-10-02T11:17:16Z</time>
      </trkpt>
      <trkpt lat="42.4801680" lon="-5.3685910">
        <ele>824.2</ele>
        <time>2021-10-02T11:17:17Z</time>
      </trkpt>
      <trkpt lat="42.4802430" lon="-5.3688230">
        <ele>824.0</ele>
        <time>2021-10-02T11:17:19Z</time>
      </trkpt>
      <trkpt lat="42.4803170" lon="-5.3690570">
        <ele>823.6</ele>
        <time>2021-10-02T11:17:21Z</time>
      </trkpt>
      <trkpt lat="42.4804290" lon="-5.3693950">
        <ele>823.6</ele>
        <time>2021-10-02T11:17:24Z</time>
      </trkpt>
      <trkpt lat="42.4804970" lon="-5.3696130">
        <ele>823.6</ele>
        <time>2021-10-02T11:17:26Z</time>
      </trkpt>
      <trkpt lat="42.4805850" lon="-5.3699250">
        <ele>823.8</ele>
        <time>2021-10-02T11:17:29Z</time>
      </trkpt>
      <trkpt lat="42.4807020" lon="-5.3703020">
        <ele>824.8</ele>
        <time>2021-10-02T11:17:33Z</time>
      </trkpt>
      <trkpt lat="42.4807590" lon="-5.3704820">
        <ele>826.0</ele>
        <time>2021-10-02T11:17:35Z</time>
      </trkpt>
      <trkpt lat="42.4808150" lon="-5.3706580">
        <ele>827.0</ele>
        <time>2021-10-02T11:17:37Z</time>
      </trkpt>
      <trkpt lat="42.4808720" lon="-5.3708260">
        <ele>828.2</ele>
        <time>2021-10-02T11:17:39Z</time>
      </trkpt>
      <trkpt lat="42.4809190" lon="-5.3709850">
        <ele>829.8</ele>
        <time>2021-10-02T11:17:41Z</time>
      </trkpt>
      <trkpt lat="42.4809630" lon="-5.3711340">
        <ele>831.2</ele>
        <time>2021-10-02T11:17:43Z</time>
      </trkpt>
      <trkpt lat="42.4810220" lon="-5.3713370">
        <ele>832.4</ele>
        <time>2021-10-02T11:17:46Z</time>
      </trkpt>
      <trkpt lat="42.4811070" lon="-5.3716060">
        <ele>833.4</ele>
        <time>2021-10-02T11:17:50Z</time>
      </trkpt>
      <trkpt lat="42.4811500" lon="-5.3717440">
        <ele>834.4</ele>
        <time>2021-10-02T11:17:52Z</time>
      </trkpt>
      <trkpt lat="42.4812370" lon="-5.3720370">
        <ele>835.2</ele>
        <time>2021-10-02T11:17:56Z</time>
      </trkpt>
      <trkpt lat="42.4813950" lon="-5.3725510">
        <ele>835.4</ele>
        <time>2021-10-02T11:18:02Z</time>
      </trkpt>
      <trkpt lat="42.4814840" lon="-5.3728510">
        <ele>835.0</ele>
        <time>2021-10-02T11:18:05Z</time>
      </trkpt>
      <trkpt lat="42.4815810" lon="-5.3731720">
        <ele>833.0</ele>
        <time>2021-10-02T11:18:08Z</time>
      </trkpt>
      <trkpt lat="42.4816530" lon="-5.3733960">
        <ele>832.0</ele>
        <time>2021-10-02T11:18:10Z</time>
      </trkpt>
      <trkpt lat="42.4817290" lon="-5.3736260">
        <ele>830.6</ele>
        <time>2021-10-02T11:18:12Z</time>
      </trkpt>
      <trkpt lat="42.4818010" lon="-5.3738590">
        <ele>829.6</ele>
        <time>2021-10-02T11:18:14Z</time>
      </trkpt>
      <trkpt lat="42.4818670" lon="-5.3740880">
        <ele>828.0</ele>
        <time>2021-10-02T11:18:16Z</time>
      </trkpt>
      <trkpt lat="42.4819270" lon="-5.3743120">
        <ele>826.2</ele>
        <time>2021-10-02T11:18:18Z</time>
      </trkpt>
      <trkpt lat="42.4819880" lon="-5.3745310">
        <ele>825.0</ele>
        <time>2021-10-02T11:18:20Z</time>
      </trkpt>
      <trkpt lat="42.4821880" lon="-5.3751570">
        <ele>824.0</ele>
        <time>2021-10-02T11:18:26Z</time>
      </trkpt>
      <trkpt lat="42.4824010" lon="-5.3758690">
        <ele>824.2</ele>
        <time>2021-10-02T11:18:33Z</time>
      </trkpt>
      <trkpt lat="42.4826190" lon="-5.3765710">
        <ele>824.0</ele>
        <time>2021-10-02T11:18:40Z</time>
      </trkpt>
      <trkpt lat="42.4828330" lon="-5.3772660">
        <ele>823.8</ele>
        <time>2021-10-02T11:18:47Z</time>
      </trkpt>
      <trkpt lat="42.4829810" lon="-5.3777500">
        <ele>823.8</ele>
        <time>2021-10-02T11:18:52Z</time>
      </trkpt>
      <trkpt lat="42.4832140" lon="-5.3784990">
        <ele>823.8</ele>
        <time>2021-10-02T11:19:00Z</time>
      </trkpt>
      <trkpt lat="42.4834370" lon="-5.3792430">
        <ele>823.8</ele>
        <time>2021-10-02T11:19:08Z</time>
      </trkpt>
      <trkpt lat="42.4836670" lon="-5.3799740">
        <ele>823.8</ele>
        <time>2021-10-02T11:19:16Z</time>
      </trkpt>
      <trkpt lat="42.4838050" lon="-5.3804430">
        <ele>823.6</ele>
        <time>2021-10-02T11:19:21Z</time>
      </trkpt>
      <trkpt lat="42.4840360" lon="-5.3811910">
        <ele>823.4</ele>
        <time>2021-10-02T11:19:29Z</time>
      </trkpt>
      <trkpt lat="42.4840640" lon="-5.3812820">
        <ele>823.4</ele>
        <time>2021-10-02T11:19:30Z</time>
      </trkpt>
      <trkpt lat="42.4842820" lon="-5.3820020">
        <ele>822.8</ele>
        <time>2021-10-02T11:19:38Z</time>
      </trkpt>
      <trkpt lat="42.4845030" lon="-5.3827270">
        <ele>822.6</ele>
        <time>2021-10-02T11:19:46Z</time>
      </trkpt>
      <trkpt lat="42.4847020" lon="-5.3833800">
        <ele>822.4</ele>
        <time>2021-10-02T11:19:53Z</time>
      </trkpt>
      <trkpt lat="42.4849070" lon="-5.3840450">
        <ele>821.8</ele>
        <time>2021-10-02T11:20:00Z</time>
      </trkpt>
      <trkpt lat="42.4849620" lon="-5.3842290">
        <ele>821.4</ele>
        <time>2021-10-02T11:20:02Z</time>
      </trkpt>
      <trkpt lat="42.4850440" lon="-5.3844990">
        <ele>820.8</ele>
        <time>2021-10-02T11:20:05Z</time>
      </trkpt>
      <trkpt lat="42.4852640" lon="-5.3852160">
        <ele>820.4</ele>
        <time>2021-10-02T11:20:13Z</time>
      </trkpt>
      <trkpt lat="42.4854820" lon="-5.3859240">
        <ele>819.8</ele>
        <time>2021-10-02T11:20:21Z</time>
      </trkpt>
      <trkpt lat="42.4857490" lon="-5.3865790">
        <ele>819.8</ele>
        <time>2021-10-02T11:20:29Z</time>
      </trkpt>
      <trkpt lat="42.4860180" lon="-5.3872190">
        <ele>820.2</ele>
        <time>2021-10-02T11:20:37Z</time>
      </trkpt>
      <trkpt lat="42.4862940" lon="-5.3878540">
        <ele>820.2</ele>
        <time>2021-10-02T11:20:45Z</time>
      </trkpt>
      <trkpt lat="42.4865920" lon="-5.3885480">
        <ele>820.2</ele>
        <time>2021-10-02T11:20:54Z</time>
      </trkpt>
      <trkpt lat="42.4868720" lon="-5.3891990">
        <ele>820.2</ele>
        <time>2021-10-02T11:21:02Z</time>
      </trkpt>
      <trkpt lat="42.4870890" lon="-5.3897060">
        <ele>820.2</ele>
        <time>2021-10-02T11:21:08Z</time>
      </trkpt>
      <trkpt lat="42.4873680" lon="-5.3903550">
        <ele>820.4</ele>
        <time>2021-10-02T11:21:16Z</time>
      </trkpt>
      <trkpt lat="42.4876570" lon="-5.3910210">
        <ele>820.2</ele>
        <time>2021-10-02T11:21:24Z</time>
      </trkpt>
      <trkpt lat="42.4879400" lon="-5.3916810">
        <ele>820.2</ele>
        <time>2021-10-02T11:21:32Z</time>
      </trkpt>
      <trkpt lat="42.4882310" lon="-5.3923710">
        <ele>820.0</ele>
        <time>2021-10-02T11:21:40Z</time>
      </trkpt>
      <trkpt lat="42.4882680" lon="-5.3924600">
        <ele>820.0</ele>
        <time>2021-10-02T11:21:41Z</time>
      </trkpt>
      <trkpt lat="42.4885580" lon="-5.3931550">
        <ele>819.8</ele>
        <time>2021-10-02T11:21:49Z</time>
      </trkpt>
      <trkpt lat="42.4888060" lon="-5.3937360">
        <ele>819.8</ele>
        <time>2021-10-02T11:21:56Z</time>
      </trkpt>
      <trkpt lat="42.4889130" lon="-5.3939820">
        <ele>819.8</ele>
        <time>2021-10-02T11:21:59Z</time>
      </trkpt>
      <trkpt lat="42.4891790" lon="-5.3946170">
        <ele>819.8</ele>
        <time>2021-10-02T11:22:07Z</time>
      </trkpt>
      <trkpt lat="42.4893170" lon="-5.3949360">
        <ele>819.8</ele>
        <time>2021-10-02T11:22:11Z</time>
      </trkpt>
      <trkpt lat="42.4896150" lon="-5.3956130">
        <ele>820.2</ele>
        <time>2021-10-02T11:22:20Z</time>
      </trkpt>
      <trkpt lat="42.4899050" lon="-5.3963160">
        <ele>820.2</ele>
        <time>2021-10-02T11:22:29Z</time>
      </trkpt>
      <trkpt lat="42.4900450" lon="-5.3966320">
        <ele>820.0</ele>
        <time>2021-10-02T11:22:33Z</time>
      </trkpt>
      <trkpt lat="42.4901820" lon="-5.3969550">
        <ele>819.8</ele>
        <time>2021-10-02T11:22:37Z</time>
      </trkpt>
      <trkpt lat="42.4904580" lon="-5.3975980">
        <ele>819.8</ele>
        <time>2021-10-02T11:22:45Z</time>
      </trkpt>
      <trkpt lat="42.4906550" lon="-5.3980670">
        <ele>819.8</ele>
        <time>2021-10-02T11:22:51Z</time>
      </trkpt>
      <trkpt lat="42.4908540" lon="-5.3985270">
        <ele>819.8</ele>
        <time>2021-10-02T11:22:57Z</time>
      </trkpt>
      <trkpt lat="42.4910150" lon="-5.3989060">
        <ele>819.6</ele>
        <time>2021-10-02T11:23:02Z</time>
      </trkpt>
      <trkpt lat="42.4911460" lon="-5.3992060">
        <ele>819.2</ele>
        <time>2021-10-02T11:23:06Z</time>
      </trkpt>
      <trkpt lat="42.4914310" lon="-5.3998900">
        <ele>819.2</ele>
        <time>2021-10-02T11:23:15Z</time>
      </trkpt>
      <trkpt lat="42.4917180" lon="-5.4005690">
        <ele>819.6</ele>
        <time>2021-10-02T11:23:24Z</time>
      </trkpt>
      <trkpt lat="42.4920170" lon="-5.4012740">
        <ele>819.6</ele>
        <time>2021-10-02T11:23:33Z</time>
      </trkpt>
      <trkpt lat="42.4923070" lon="-5.4019600">
        <ele>819.6</ele>
        <time>2021-10-02T11:23:42Z</time>
      </trkpt>
      <trkpt lat="42.4926030" lon="-5.4026640">
        <ele>819.6</ele>
        <time>2021-10-02T11:23:51Z</time>
      </trkpt>
      <trkpt lat="42.4928940" lon="-5.4033330">
        <ele>819.8</ele>
        <time>2021-10-02T11:24:00Z</time>
      </trkpt>
      <trkpt lat="42.4931840" lon="-5.4039820">
        <ele>819.6</ele>
        <time>2021-10-02T11:24:09Z</time>
      </trkpt>
      <trkpt lat="42.4934720" lon="-5.4046260">
        <ele>819.4</ele>
        <time>2021-10-02T11:24:18Z</time>
      </trkpt>
      <trkpt lat="42.4937720" lon="-5.4053080">
        <ele>819.2</ele>
        <time>2021-10-02T11:24:28Z</time>
      </trkpt>
      <trkpt lat="42.4938220" lon="-5.4054380">
        <ele>819.4</ele>
        <time>2021-10-02T11:24:30Z</time>
      </trkpt>
      <trkpt lat="42.4939130" lon="-5.4057080">
        <ele>819.8</ele>
        <time>2021-10-02T11:24:34Z</time>
      </trkpt>
      <trkpt lat="42.4939830" lon="-5.4059050">
        <ele>820.2</ele>
        <time>2021-10-02T11:24:37Z</time>
      </trkpt>
      <trkpt lat="42.4940560" lon="-5.4060980">
        <ele>821.0</ele>
        <time>2021-10-02T11:24:40Z</time>
      </trkpt>
      <trkpt lat="42.4941230" lon="-5.4062950">
        <ele>821.6</ele>
        <time>2021-10-02T11:24:43Z</time>
      </trkpt>
      <trkpt lat="42.4941470" lon="-5.4063580">
        <ele>822.2</ele>
        <time>2021-10-02T11:24:44Z</time>
      </trkpt>
      <trkpt lat="42.4942170" lon="-5.4065560">
        <ele>823.4</ele>
        <time>2021-10-02T11:24:47Z</time>
      </trkpt>
      <trkpt lat="42.4942850" lon="-5.4067570">
        <ele>824.6</ele>
        <time>2021-10-02T11:24:50Z</time>
      </trkpt>
      <trkpt lat="42.4943540" lon="-5.4070350">
        <ele>825.8</ele>
        <time>2021-10-02T11:24:54Z</time>
      </trkpt>
      <trkpt lat="42.4943660" lon="-5.4071000">
        <ele>826.0</ele>
        <time>2021-10-02T11:24:55Z</time>
      </trkpt>
      <trkpt lat="42.4943830" lon="-5.4073630">
        <ele>826.8</ele>
        <time>2021-10-02T11:24:59Z</time>
      </trkpt>
      <trkpt lat="42.4943920" lon="-5.4076410">
        <ele>827.0</ele>
        <time>2021-10-02T11:25:03Z</time>
      </trkpt>
      <trkpt lat="42.4945060" lon="-5.4079670">
        <ele>827.4</ele>
        <time>2021-10-02T11:25:08Z</time>
      </trkpt>
      <trkpt lat="42.4946540" lon="-5.4081260">
        <ele>827.4</ele>
        <time>2021-10-02T11:25:11Z</time>
      </trkpt>
      <trkpt lat="42.4947160" lon="-5.4081690">
        <ele>827.2</ele>
        <time>2021-10-02T11:25:12Z</time>
      </trkpt>
      <trkpt lat="42.4948490" lon="-5.4082600">
        <ele>827.2</ele>
        <time>2021-10-02T11:25:14Z</time>
      </trkpt>
      <trkpt lat="42.4950630" lon="-5.4084050">
        <ele>827.0</ele>
        <time>2021-10-02T11:25:17Z</time>
      </trkpt>
      <trkpt lat="42.4951330" lon="-5.4084660">
        <ele>825.8</ele>
        <time>2021-10-02T11:25:18Z</time>
      </trkpt>
      <trkpt lat="42.4952650" lon="-5.4086170">
        <ele>824.8</ele>
        <time>2021-10-02T11:25:20Z</time>
      </trkpt>
      <trkpt lat="42.4953680" lon="-5.4088100">
        <ele>823.6</ele>
        <time>2021-10-02T11:25:22Z</time>
      </trkpt>
      <trkpt lat="42.4954110" lon="-5.4089140">
        <ele>823.4</ele>
        <time>2021-10-02T11:25:23Z</time>
      </trkpt>
      <trkpt lat="42.4954900" lon="-5.4091130">
        <ele>822.2</ele>
        <time>2021-10-02T11:25:25Z</time>
      </trkpt>
      <trkpt lat="42.4955650" lon="-5.4093070">
        <ele>820.2</ele>
        <time>2021-10-02T11:25:27Z</time>
      </trkpt>
      <trkpt lat="42.4956390" lon="-5.4095020">
        <ele>819.0</ele>
        <time>2021-10-02T11:25:29Z</time>
      </trkpt>
      <trkpt lat="42.4958170" lon="-5.4099720">
        <ele>817.8</ele>
        <time>2021-10-02T11:25:34Z</time>
      </trkpt>
      <trkpt lat="42.4959570" lon="-5.4103330">
        <ele>816.8</ele>
        <time>2021-10-02T11:25:38Z</time>
      </trkpt>
      <trkpt lat="42.4962160" lon="-5.4110360">
        <ele>816.8</ele>
        <time>2021-10-02T11:25:46Z</time>
      </trkpt>
      <trkpt lat="42.4964710" lon="-5.4117120">
        <ele>817.0</ele>
        <time>2021-10-02T11:25:54Z</time>
      </trkpt>
      <trkpt lat="42.4967370" lon="-5.4123740">
        <ele>817.2</ele>
        <time>2021-10-02T11:26:02Z</time>
      </trkpt>
      <trkpt lat="42.4968790" lon="-5.4126930">
        <ele>817.2</ele>
        <time>2021-10-02T11:26:06Z</time>
      </trkpt>
      <trkpt lat="42.4971490" lon="-5.4133270">
        <ele>817.4</ele>
        <time>2021-10-02T11:26:14Z</time>
      </trkpt>
      <trkpt lat="42.4974210" lon="-5.4140070">
        <ele>817.0</ele>
        <time>2021-10-02T11:26:23Z</time>
      </trkpt>
      <trkpt lat="42.4975360" lon="-5.4143730">
        <ele>816.4</ele>
        <time>2021-10-02T11:26:28Z</time>
      </trkpt>
      <trkpt lat="42.4975710" lon="-5.4145150">
        <ele>816.2</ele>
        <time>2021-10-02T11:26:30Z</time>
      </trkpt>
      <trkpt lat="42.4976610" lon="-5.4148500">
        <ele>816.2</ele>
        <time>2021-10-02T11:26:35Z</time>
      </trkpt>
      <trkpt lat="42.4977010" lon="-5.4149740">
        <ele>816.2</ele>
        <time>2021-10-02T11:26:38Z</time>
      </trkpt>
      <trkpt lat="42.4977120" lon="-5.4149920">
        <ele>816.2</ele>
        <time>2021-10-02T11:26:40Z</time>
      </trkpt>
      <trkpt lat="42.4977370" lon="-5.4150290">
        <ele>816.4</ele>
        <time>2021-10-02T11:26:42Z</time>
      </trkpt>
      <trkpt lat="42.4977830" lon="-5.4151480">
        <ele>817.0</ele>
        <time>2021-10-02T11:26:45Z</time>
      </trkpt>
      <trkpt lat="42.4978520" lon="-5.4152730">
        <ele>817.4</ele>
        <time>2021-10-02T11:26:48Z</time>
      </trkpt>
      <trkpt lat="42.4978760" lon="-5.4153140">
        <ele>817.4</ele>
        <time>2021-10-02T11:26:49Z</time>
      </trkpt>
      <trkpt lat="42.4980660" lon="-5.4156260">
        <ele>817.8</ele>
        <time>2021-10-02T11:26:57Z</time>
      </trkpt>
      <trkpt lat="42.4981030" lon="-5.4157330">
        <ele>818.0</ele>
        <time>2021-10-02T11:27:00Z</time>
      </trkpt>
      <trkpt lat="42.4981650" lon="-5.4159270">
        <ele>818.2</ele>
        <time>2021-10-02T11:27:05Z</time>
      </trkpt>
      <trkpt lat="42.4982090" lon="-5.4160300">
        <ele>818.4</ele>
        <time>2021-10-02T11:27:07Z</time>
      </trkpt>
      <trkpt lat="42.4984330" lon="-5.4166610">
        <ele>818.2</ele>
        <time>2021-10-02T11:27:18Z</time>
      </trkpt>
      <trkpt lat="42.4984640" lon="-5.4167770">
        <ele>818.2</ele>
        <time>2021-10-02T11:27:20Z</time>
      </trkpt>
      <trkpt lat="42.4984970" lon="-5.4169510">
        <ele>818.2</ele>
        <time>2021-10-02T11:27:23Z</time>
      </trkpt>
      <trkpt lat="42.4985030" lon="-5.4170530">
        <ele>818.2</ele>
        <time>2021-10-02T11:27:25Z</time>
      </trkpt>
      <trkpt lat="42.4985220" lon="-5.4171570">
        <ele>818.2</ele>
        <time>2021-10-02T11:27:27Z</time>
      </trkpt>
      <trkpt lat="42.4986200" lon="-5.4173780">
        <ele>818.4</ele>
        <time>2021-10-02T11:27:31Z</time>
      </trkpt>
      <trkpt lat="42.4989480" lon="-5.4180310">
        <ele>818.8</ele>
        <time>2021-10-02T11:27:42Z</time>
      </trkpt>
      <trkpt lat="42.4993720" lon="-5.4185040">
        <ele>819.0</ele>
        <time>2021-10-02T11:27:52Z</time>
      </trkpt>
      <trkpt lat="42.4995050" lon="-5.4186130">
        <ele>819.0</ele>
        <time>2021-10-02T11:27:55Z</time>
      </trkpt>
      <trkpt lat="42.4997650" lon="-5.4188760">
        <ele>819.0</ele>
        <time>2021-10-02T11:28:01Z</time>
      </trkpt>
      <trkpt lat="42.4999420" lon="-5.4190480">
        <ele>819.0</ele>
        <time>2021-10-02T11:28:05Z</time>
      </trkpt>
      <trkpt lat="42.5004140" lon="-5.4193180">
        <ele>818.6</ele>
        <time>2021-10-02T11:28:14Z</time>
      </trkpt>
      <trkpt lat="42.5005550" lon="-5.4194200">
        <ele>818.6</ele>
        <time>2021-10-02T11:28:17Z</time>
      </trkpt>
      <trkpt lat="42.5007030" lon="-5.4195110">
        <ele>818.8</ele>
        <time>2021-10-02T11:28:20Z</time>
      </trkpt>
      <trkpt lat="42.5008570" lon="-5.4196120">
        <ele>819.2</ele>
        <time>2021-10-02T11:28:23Z</time>
      </trkpt>
      <trkpt lat="42.5013980" lon="-5.4199220">
        <ele>820.0</ele>
        <time>2021-10-02T11:28:33Z</time>
      </trkpt>
      <trkpt lat="42.5015110" lon="-5.4199940">
        <ele>820.0</ele>
        <time>2021-10-02T11:28:35Z</time>
      </trkpt>
      <trkpt lat="42.5016840" lon="-5.4201090">
        <ele>819.8</ele>
        <time>2021-10-02T11:28:38Z</time>
      </trkpt>
      <trkpt lat="42.5018660" lon="-5.4202240">
        <ele>819.4</ele>
        <time>2021-10-02T11:28:41Z</time>
      </trkpt>
      <trkpt lat="42.5023610" lon="-5.4205840">
        <ele>817.6</ele>
        <time>2021-10-02T11:28:49Z</time>
      </trkpt>
      <trkpt lat="42.5024780" lon="-5.4206880">
        <ele>817.0</ele>
        <time>2021-10-02T11:28:51Z</time>
      </trkpt>
      <trkpt lat="42.5025350" lon="-5.4207410">
        <ele>816.8</ele>
        <time>2021-10-02T11:28:52Z</time>
      </trkpt>
      <trkpt lat="42.5029000" lon="-5.4211750">
        <ele>815.6</ele>
        <time>2021-10-02T11:28:59Z</time>
      </trkpt>
      <trkpt lat="42.5030900" lon="-5.4213230">
        <ele>815.0</ele>
        <time>2021-10-02T11:29:02Z</time>
      </trkpt>
      <trkpt lat="42.5032220" lon="-5.4214120">
        <ele>814.2</ele>
        <time>2021-10-02T11:29:04Z</time>
      </trkpt>
      <trkpt lat="42.5035480" lon="-5.4216440">
        <ele>813.4</ele>
        <time>2021-10-02T11:29:09Z</time>
      </trkpt>
      <trkpt lat="42.5037360" lon="-5.4217800">
        <ele>813.2</ele>
        <time>2021-10-02T11:29:12Z</time>
      </trkpt>
      <trkpt lat="42.5040510" lon="-5.4220000">
        <ele>813.0</ele>
        <time>2021-10-02T11:29:17Z</time>
      </trkpt>
      <trkpt lat="42.5043070" lon="-5.4221880">
        <ele>812.6</ele>
        <time>2021-10-02T11:29:21Z</time>
      </trkpt>
      <trkpt lat="42.5044920" lon="-5.4223290">
        <ele>812.4</ele>
        <time>2021-10-02T11:29:24Z</time>
      </trkpt>
      <trkpt lat="42.5047980" lon="-5.4225410">
        <ele>812.2</ele>
        <time>2021-10-02T11:29:29Z</time>
      </trkpt>
      <trkpt lat="42.5052260" lon="-5.4228450">
        <ele>812.2</ele>
        <time>2021-10-02T11:29:36Z</time>
      </trkpt>
      <trkpt lat="42.5057560" lon="-5.4232320">
        <ele>812.4</ele>
        <time>2021-10-02T11:29:45Z</time>
      </trkpt>
      <trkpt lat="42.5059900" lon="-5.4234020">
        <ele>812.8</ele>
        <time>2021-10-02T11:29:49Z</time>
      </trkpt>
      <trkpt lat="42.5065070" lon="-5.4237770">
        <ele>812.8</ele>
        <time>2021-10-02T11:29:58Z</time>
      </trkpt>
      <trkpt lat="42.5068400" lon="-5.4240460">
        <ele>812.8</ele>
        <time>2021-10-02T11:30:04Z</time>
      </trkpt>
      <trkpt lat="42.5073710" lon="-5.4244390">
        <ele>813.6</ele>
        <time>2021-10-02T11:30:13Z</time>
      </trkpt>
      <trkpt lat="42.5076030" lon="-5.4246080">
        <ele>813.6</ele>
        <time>2021-10-02T11:30:17Z</time>
      </trkpt>
      <trkpt lat="42.5077040" lon="-5.4246660">
        <ele>813.4</ele>
        <time>2021-10-02T11:30:19Z</time>
      </trkpt>
      <trkpt lat="42.5078290" lon="-5.4247770">
        <ele>813.4</ele>
        <time>2021-10-02T11:30:22Z</time>
      </trkpt>
      <trkpt lat="42.5078750" lon="-5.4248140">
        <ele>813.4</ele>
        <time>2021-10-02T11:30:23Z</time>
      </trkpt>
      <trkpt lat="42.5081600" lon="-5.4250250">
        <ele>813.0</ele>
        <time>2021-10-02T11:30:28Z</time>
      </trkpt>
      <trkpt lat="42.5084040" lon="-5.4252150">
        <ele>812.8</ele>
        <time>2021-10-02T11:30:32Z</time>
      </trkpt>
      <trkpt lat="42.5085910" lon="-5.4253610">
        <ele>812.6</ele>
        <time>2021-10-02T11:30:35Z</time>
      </trkpt>
      <trkpt lat="42.5087570" lon="-5.4255300">
        <ele>812.6</ele>
        <time>2021-10-02T11:30:38Z</time>
      </trkpt>
      <trkpt lat="42.5090290" lon="-5.4260210">
        <ele>812.6</ele>
        <time>2021-10-02T11:30:45Z</time>
      </trkpt>
      <trkpt lat="42.5095790" lon="-5.4262620">
        <ele>812.6</ele>
        <time>2021-10-02T11:30:54Z</time>
      </trkpt>
      <trkpt lat="42.5101190" lon="-5.4264870">
        <ele>813.2</ele>
        <time>2021-10-02T11:31:03Z</time>
      </trkpt>
      <trkpt lat="42.5102880" lon="-5.4265860">
        <ele>813.2</ele>
        <time>2021-10-02T11:31:06Z</time>
      </trkpt>
      <trkpt lat="42.5105330" lon="-5.4267690">
        <ele>813.6</ele>
        <time>2021-10-02T11:31:11Z</time>
      </trkpt>
      <trkpt lat="42.5109000" lon="-5.4270030">
        <ele>813.8</ele>
        <time>2021-10-02T11:31:18Z</time>
      </trkpt>
      <trkpt lat="42.5113840" lon="-5.4273500">
        <ele>813.8</ele>
        <time>2021-10-02T11:31:27Z</time>
      </trkpt>
      <trkpt lat="42.5118800" lon="-5.4277130">
        <ele>813.8</ele>
        <time>2021-10-02T11:31:36Z</time>
      </trkpt>
      <trkpt lat="42.5122170" lon="-5.4279710">
        <ele>814.0</ele>
        <time>2021-10-02T11:31:42Z</time>
      </trkpt>
      <trkpt lat="42.5127210" lon="-5.4283450">
        <ele>813.8</ele>
        <time>2021-10-02T11:31:51Z</time>
      </trkpt>
      <trkpt lat="42.5128930" lon="-5.4284590">
        <ele>813.8</ele>
        <time>2021-10-02T11:31:54Z</time>
      </trkpt>
      <trkpt lat="42.5133880" lon="-5.4288290">
        <ele>813.8</ele>
        <time>2021-10-02T11:32:03Z</time>
      </trkpt>
      <trkpt lat="42.5136730" lon="-5.4290530">
        <ele>813.8</ele>
        <time>2021-10-02T11:32:08Z</time>
      </trkpt>
      <trkpt lat="42.5137950" lon="-5.4291310">
        <ele>814.0</ele>
        <time>2021-10-02T11:32:10Z</time>
      </trkpt>
      <trkpt lat="42.5139690" lon="-5.4292810">
        <ele>814.0</ele>
        <time>2021-10-02T11:32:13Z</time>
      </trkpt>
      <trkpt lat="42.5141470" lon="-5.4294030">
        <ele>814.2</ele>
        <time>2021-10-02T11:32:16Z</time>
      </trkpt>
      <trkpt lat="42.5146640" lon="-5.4297570">
        <ele>814.2</ele>
        <time>2021-10-02T11:32:25Z</time>
      </trkpt>
      <trkpt lat="42.5151570" lon="-5.4301280">
        <ele>814.0</ele>
        <time>2021-10-02T11:32:34Z</time>
      </trkpt>
      <trkpt lat="42.5156670" lon="-5.4305020">
        <ele>813.8</ele>
        <time>2021-10-02T11:32:43Z</time>
      </trkpt>
      <trkpt lat="42.5161910" lon="-5.4308860">
        <ele>814.0</ele>
        <time>2021-10-02T11:32:52Z</time>
      </trkpt>
      <trkpt lat="42.5163650" lon="-5.4310140">
        <ele>814.0</ele>
        <time>2021-10-02T11:32:55Z</time>
      </trkpt>
      <trkpt lat="42.5168840" lon="-5.4313940">
        <ele>814.0</ele>
        <time>2021-10-02T11:33:04Z</time>
      </trkpt>
      <trkpt lat="42.5174090" lon="-5.4317760">
        <ele>814.0</ele>
        <time>2021-10-02T11:33:13Z</time>
      </trkpt>
      <trkpt lat="42.5176550" lon="-5.4319580">
        <ele>813.8</ele>
        <time>2021-10-02T11:33:17Z</time>
      </trkpt>
      <trkpt lat="42.5181870" lon="-5.4323430">
        <ele>813.8</ele>
        <time>2021-10-02T11:33:26Z</time>
      </trkpt>
      <trkpt lat="42.5184630" lon="-5.4325550">
        <ele>814.2</ele>
        <time>2021-10-02T11:33:31Z</time>
      </trkpt>
      <trkpt lat="42.5185640" lon="-5.4326360">
        <ele>814.4</ele>
        <time>2021-10-02T11:33:33Z</time>
      </trkpt>
      <trkpt lat="42.5186560" lon="-5.4327050">
        <ele>814.6</ele>
        <time>2021-10-02T11:33:35Z</time>
      </trkpt>
      <trkpt lat="42.5187330" lon="-5.4327660">
        <ele>814.6</ele>
        <time>2021-10-02T11:33:37Z</time>
      </trkpt>
      <trkpt lat="42.5187650" lon="-5.4327980">
        <ele>814.8</ele>
        <time>2021-10-02T11:33:38Z</time>
      </trkpt>
      <trkpt lat="42.5190380" lon="-5.4330100">
        <ele>814.8</ele>
        <time>2021-10-02T11:33:44Z</time>
      </trkpt>
      <trkpt lat="42.5192740" lon="-5.4331730">
        <ele>814.8</ele>
        <time>2021-10-02T11:33:48Z</time>
      </trkpt>
      <trkpt lat="42.5194030" lon="-5.4332480">
        <ele>814.6</ele>
        <time>2021-10-02T11:33:50Z</time>
      </trkpt>
      <trkpt lat="42.5195910" lon="-5.4333830">
        <ele>814.2</ele>
        <time>2021-10-02T11:33:53Z</time>
      </trkpt>
      <trkpt lat="42.5200870" lon="-5.4337410">
        <ele>814.0</ele>
        <time>2021-10-02T11:34:02Z</time>
      </trkpt>
      <trkpt lat="42.5203300" lon="-5.4339260">
        <ele>814.4</ele>
        <time>2021-10-02T11:34:07Z</time>
      </trkpt>
      <trkpt lat="42.5203710" lon="-5.4339730">
        <ele>814.8</ele>
        <time>2021-10-02T11:34:08Z</time>
      </trkpt>
      <trkpt lat="42.5204830" lon="-5.4342240">
        <ele>815.0</ele>
        <time>2021-10-02T11:34:12Z</time>
      </trkpt>
      <trkpt lat="42.5206310" lon="-5.4346220">
        <ele>815.4</ele>
        <time>2021-10-02T11:34:18Z</time>
      </trkpt>
      <trkpt lat="42.5208590" lon="-5.4347310">
        <ele>815.4</ele>
        <time>2021-10-02T11:34:23Z</time>
      </trkpt>
      <trkpt lat="42.5212720" lon="-5.4346650">
        <ele>815.8</ele>
        <time>2021-10-02T11:34:31Z</time>
      </trkpt>
      <trkpt lat="42.5214250" lon="-5.4347070">
        <ele>816.2</ele>
        <time>2021-10-02T11:34:34Z</time>
      </trkpt>
      <trkpt lat="42.5214730" lon="-5.4347370">
        <ele>816.2</ele>
        <time>2021-10-02T11:34:35Z</time>
      </trkpt>
      <trkpt lat="42.5218790" lon="-5.4350480">
        <ele>816.6</ele>
        <time>2021-10-02T11:34:43Z</time>
      </trkpt>
      <trkpt lat="42.5223590" lon="-5.4353990">
        <ele>816.6</ele>
        <time>2021-10-02T11:34:52Z</time>
      </trkpt>
      <trkpt lat="42.5228700" lon="-5.4357730">
        <ele>816.6</ele>
        <time>2021-10-02T11:35:02Z</time>
      </trkpt>
      <trkpt lat="42.5233030" lon="-5.4360840">
        <ele>816.8</ele>
        <time>2021-10-02T11:35:10Z</time>
      </trkpt>
      <trkpt lat="42.5235350" lon="-5.4362660">
        <ele>816.8</ele>
        <time>2021-10-02T11:35:14Z</time>
      </trkpt>
      <trkpt lat="42.5240620" lon="-5.4366500">
        <ele>816.6</ele>
        <time>2021-10-02T11:35:23Z</time>
      </trkpt>
      <trkpt lat="42.5242360" lon="-5.4367850">
        <ele>816.4</ele>
        <time>2021-10-02T11:35:26Z</time>
      </trkpt>
      <trkpt lat="42.5244670" lon="-5.4369600">
        <ele>816.2</ele>
        <time>2021-10-02T11:35:30Z</time>
      </trkpt>
      <trkpt lat="42.5249990" lon="-5.4373380">
        <ele>815.6</ele>
        <time>2021-10-02T11:35:39Z</time>
      </trkpt>
      <trkpt lat="42.5255100" lon="-5.4377000">
        <ele>815.8</ele>
        <time>2021-10-02T11:35:48Z</time>
      </trkpt>
      <trkpt lat="42.5260250" lon="-5.4380780">
        <ele>816.0</ele>
        <time>2021-10-02T11:35:57Z</time>
      </trkpt>
      <trkpt lat="42.5265420" lon="-5.4384700">
        <ele>815.8</ele>
        <time>2021-10-02T11:36:06Z</time>
      </trkpt>
      <trkpt lat="42.5268440" lon="-5.4386860">
        <ele>815.8</ele>
        <time>2021-10-02T11:36:11Z</time>
      </trkpt>
      <trkpt lat="42.5273640" lon="-5.4390970">
        <ele>815.6</ele>
        <time>2021-10-02T11:36:20Z</time>
      </trkpt>
      <trkpt lat="42.5277630" lon="-5.4393990">
        <ele>816.0</ele>
        <time>2021-10-02T11:36:27Z</time>
      </trkpt>
      <trkpt lat="42.5282870" lon="-5.4397890">
        <ele>816.0</ele>
        <time>2021-10-02T11:36:36Z</time>
      </trkpt>
      <trkpt lat="42.5285940" lon="-5.4400160">
        <ele>815.8</ele>
        <time>2021-10-02T11:36:41Z</time>
      </trkpt>
      <trkpt lat="42.5289530" lon="-5.4402790">
        <ele>815.8</ele>
        <time>2021-10-02T11:36:47Z</time>
      </trkpt>
      <trkpt lat="42.5294790" lon="-5.4406360">
        <ele>816.4</ele>
        <time>2021-10-02T11:36:56Z</time>
      </trkpt>
      <trkpt lat="42.5299730" lon="-5.4409920">
        <ele>816.4</ele>
        <time>2021-10-02T11:37:04Z</time>
      </trkpt>
      <trkpt lat="42.5304520" lon="-5.4413430">
        <ele>816.4</ele>
        <time>2021-10-02T11:37:12Z</time>
      </trkpt>
      <trkpt lat="42.5307390" lon="-5.4415530">
        <ele>816.6</ele>
        <time>2021-10-02T11:37:17Z</time>
      </trkpt>
      <trkpt lat="42.5309600" lon="-5.4417150">
        <ele>816.6</ele>
        <time>2021-10-02T11:37:21Z</time>
      </trkpt>
      <trkpt lat="42.5311700" lon="-5.4418470">
        <ele>816.8</ele>
        <time>2021-10-02T11:37:25Z</time>
      </trkpt>
      <trkpt lat="42.5312690" lon="-5.4418870">
        <ele>817.0</ele>
        <time>2021-10-02T11:37:27Z</time>
      </trkpt>
      <trkpt lat="42.5313950" lon="-5.4419510">
        <ele>817.2</ele>
        <time>2021-10-02T11:37:30Z</time>
      </trkpt>
      <trkpt lat="42.5314360" lon="-5.4419750">
        <ele>817.2</ele>
        <time>2021-10-02T11:37:31Z</time>
      </trkpt>
      <trkpt lat="42.5316900" lon="-5.4421670">
        <ele>818.0</ele>
        <time>2021-10-02T11:37:37Z</time>
      </trkpt>
      <trkpt lat="42.5321890" lon="-5.4425330">
        <ele>818.2</ele>
        <time>2021-10-02T11:37:48Z</time>
      </trkpt>
      <trkpt lat="42.5324120" lon="-5.4427180">
        <ele>818.2</ele>
        <time>2021-10-02T11:37:53Z</time>
      </trkpt>
      <trkpt lat="42.5325080" lon="-5.4428630">
        <ele>818.2</ele>
        <time>2021-10-02T11:37:56Z</time>
      </trkpt>
      <trkpt lat="42.5325350" lon="-5.4431410">
        <ele>818.2</ele>
        <time>2021-10-02T11:38:00Z</time>
      </trkpt>
      <trkpt lat="42.5326110" lon="-5.4435230">
        <ele>818.2</ele>
        <time>2021-10-02T11:38:05Z</time>
      </trkpt>
      <trkpt lat="42.5326640" lon="-5.4437410">
        <ele>817.8</ele>
        <time>2021-10-02T11:38:08Z</time>
      </trkpt>
      <trkpt lat="42.5328900" lon="-5.4442740">
        <ele>817.6</ele>
        <time>2021-10-02T11:38:16Z</time>
      </trkpt>
      <trkpt lat="42.5331730" lon="-5.4445580">
        <ele>817.6</ele>
        <time>2021-10-02T11:38:22Z</time>
      </trkpt>
      <trkpt lat="42.5334730" lon="-5.4447390">
        <ele>817.6</ele>
        <time>2021-10-02T11:38:27Z</time>
      </trkpt>
      <trkpt lat="42.5339840" lon="-5.4450360">
        <ele>818.0</ele>
        <time>2021-10-02T11:38:36Z</time>
      </trkpt>
      <trkpt lat="42.5341530" lon="-5.4451300">
        <ele>818.0</ele>
        <time>2021-10-02T11:38:39Z</time>
      </trkpt>
      <trkpt lat="42.5344490" lon="-5.4455370">
        <ele>818.0</ele>
        <time>2021-10-02T11:38:46Z</time>
      </trkpt>
      <trkpt lat="42.5346720" lon="-5.4456350">
        <ele>818.2</ele>
        <time>2021-10-02T11:38:50Z</time>
      </trkpt>
      <trkpt lat="42.5350610" lon="-5.4451260">
        <ele>818.6</ele>
        <time>2021-10-02T11:39:01Z</time>
      </trkpt>
      <trkpt lat="42.5351730" lon="-5.4450060">
        <ele>818.8</ele>
        <time>2021-10-02T11:39:04Z</time>
      </trkpt>
      <trkpt lat="42.5352640" lon="-5.4448750">
        <ele>819.6</ele>
        <time>2021-10-02T11:39:07Z</time>
      </trkpt>
      <trkpt lat="42.5354590" lon="-5.4449220">
        <ele>820.2</ele>
        <time>2021-10-02T11:39:12Z</time>
      </trkpt>
      <trkpt lat="42.5357270" lon="-5.4450920">
        <ele>820.2</ele>
        <time>2021-10-02T11:39:18Z</time>
      </trkpt>
      <trkpt lat="42.5358820" lon="-5.4451340">
        <ele>820.0</ele>
        <time>2021-10-02T11:39:21Z</time>
      </trkpt>
      <trkpt lat="42.5364130" lon="-5.4455070">
        <ele>819.8</ele>
        <time>2021-10-02T11:39:31Z</time>
      </trkpt>
      <trkpt lat="42.5367040" lon="-5.4457210">
        <ele>819.8</ele>
        <time>2021-10-02T11:39:36Z</time>
      </trkpt>
      <trkpt lat="42.5370000" lon="-5.4459670">
        <ele>819.6</ele>
        <time>2021-10-02T11:39:41Z</time>
      </trkpt>
      <trkpt lat="42.5372240" lon="-5.4462060">
        <ele>819.4</ele>
        <time>2021-10-02T11:39:45Z</time>
      </trkpt>
      <trkpt lat="42.5376420" lon="-5.4465310">
        <ele>819.0</ele>
        <time>2021-10-02T11:39:52Z</time>
      </trkpt>
      <trkpt lat="42.5377840" lon="-5.4467210">
        <ele>819.0</ele>
        <time>2021-10-02T11:39:55Z</time>
      </trkpt>
      <trkpt lat="42.5382020" lon="-5.4470610">
        <ele>818.6</ele>
        <time>2021-10-02T11:40:02Z</time>
      </trkpt>
      <trkpt lat="42.5384550" lon="-5.4472310">
        <ele>817.6</ele>
        <time>2021-10-02T11:40:06Z</time>
      </trkpt>
      <trkpt lat="42.5389260" lon="-5.4475910">
        <ele>817.4</ele>
        <time>2021-10-02T11:40:14Z</time>
      </trkpt>
      <trkpt lat="42.5393570" lon="-5.4479220">
        <ele>817.4</ele>
        <time>2021-10-02T11:40:21Z</time>
      </trkpt>
      <trkpt lat="42.5398900" lon="-5.4483020">
        <ele>817.6</ele>
        <time>2021-10-02T11:40:30Z</time>
      </trkpt>
      <trkpt lat="42.5400520" lon="-5.4484190">
        <ele>817.6</ele>
        <time>2021-10-02T11:40:33Z</time>
      </trkpt>
      <trkpt lat="42.5405350" lon="-5.4487880">
        <ele>818.4</ele>
        <time>2021-10-02T11:40:42Z</time>
      </trkpt>
      <trkpt lat="42.5409820" lon="-5.4490630">
        <ele>818.6</ele>
        <time>2021-10-02T11:40:50Z</time>
      </trkpt>
      <trkpt lat="42.5412280" lon="-5.4491140">
        <ele>818.8</ele>
        <time>2021-10-02T11:40:56Z</time>
      </trkpt>
      <trkpt lat="42.5413520" lon="-5.4491980">
        <ele>818.8</ele>
        <time>2021-10-02T11:40:59Z</time>
      </trkpt>
      <trkpt lat="42.5414860" lon="-5.4492990">
        <ele>820.2</ele>
        <time>2021-10-02T11:41:02Z</time>
      </trkpt>
      <trkpt lat="42.5417540" lon="-5.4495180">
        <ele>820.4</ele>
        <time>2021-10-02T11:41:08Z</time>
      </trkpt>
      <trkpt lat="42.5418650" lon="-5.4496650">
        <ele>820.6</ele>
        <time>2021-10-02T11:41:11Z</time>
      </trkpt>
      <trkpt lat="42.5419510" lon="-5.4497740">
        <ele>820.4</ele>
        <time>2021-10-02T11:41:13Z</time>
      </trkpt>
      <trkpt lat="42.5420920" lon="-5.4499030">
        <ele>820.4</ele>
        <time>2021-10-02T11:41:16Z</time>
      </trkpt>
      <trkpt lat="42.5421630" lon="-5.4500230">
        <ele>820.4</ele>
        <time>2021-10-02T11:41:18Z</time>
      </trkpt>
      <trkpt lat="42.5422010" lon="-5.4500790">
        <ele>820.0</ele>
        <time>2021-10-02T11:41:19Z</time>
      </trkpt>
      <trkpt lat="42.5423310" lon="-5.4502380">
        <ele>819.2</ele>
        <time>2021-10-02T11:41:22Z</time>
      </trkpt>
      <trkpt lat="42.5423770" lon="-5.4502860">
        <ele>819.0</ele>
        <time>2021-10-02T11:41:23Z</time>
      </trkpt>
      <trkpt lat="42.5425230" lon="-5.4504060">
        <ele>818.8</ele>
        <time>2021-10-02T11:41:26Z</time>
      </trkpt>
      <trkpt lat="42.5426620" lon="-5.4504920">
        <ele>818.8</ele>
        <time>2021-10-02T11:41:29Z</time>
      </trkpt>
      <trkpt lat="42.5427380" lon="-5.4505720">
        <ele>818.8</ele>
        <time>2021-10-02T11:41:31Z</time>
      </trkpt>
      <trkpt lat="42.5427180" lon="-5.4511770">
        <ele>818.8</ele>
        <time>2021-10-02T11:41:41Z</time>
      </trkpt>
      <trkpt lat="42.5427130" lon="-5.4512080">
        <ele>818.8</ele>
        <time>2021-10-02T11:41:42Z</time>
      </trkpt>
      <trkpt lat="42.5427990" lon="-5.4513300">
        <ele>819.6</ele>
        <time>2021-10-02T11:41:46Z</time>
      </trkpt>
      <trkpt lat="42.5428610" lon="-5.4514070">
        <ele>820.8</ele>
        <time>2021-10-02T11:41:48Z</time>
      </trkpt>
      <trkpt lat="42.5429610" lon="-5.4515190">
        <ele>821.2</ele>
        <time>2021-10-02T11:41:51Z</time>
      </trkpt>
      <trkpt lat="42.5429930" lon="-5.4515560">
        <ele>821.4</ele>
        <time>2021-10-02T11:41:52Z</time>
      </trkpt>
      <trkpt lat="42.5430830" lon="-5.4516650">
        <ele>821.4</ele>
        <time>2021-10-02T11:41:55Z</time>
      </trkpt>
      <trkpt lat="42.5431070" lon="-5.4517120">
        <ele>821.4</ele>
        <time>2021-10-02T11:41:56Z</time>
      </trkpt>
      <trkpt lat="42.5432020" lon="-5.4519110">
        <ele>821.4</ele>
        <time>2021-10-02T11:42:00Z</time>
      </trkpt>
      <trkpt lat="42.5433400" lon="-5.4522740">
        <ele>821.2</ele>
        <time>2021-10-02T11:42:06Z</time>
      </trkpt>
      <trkpt lat="42.5433640" lon="-5.4523420">
        <ele>820.8</ele>
        <time>2021-10-02T11:42:07Z</time>
      </trkpt>
      <trkpt lat="42.5434040" lon="-5.4524800">
        <ele>820.2</ele>
        <time>2021-10-02T11:42:09Z</time>
      </trkpt>
      <trkpt lat="42.5434200" lon="-5.4525500">
        <ele>820.0</ele>
        <time>2021-10-02T11:42:10Z</time>
      </trkpt>
      <trkpt lat="42.5434630" lon="-5.4527640">
        <ele>819.2</ele>
        <time>2021-10-02T11:42:13Z</time>
      </trkpt>
      <trkpt lat="42.5435030" lon="-5.4529780">
        <ele>819.0</ele>
        <time>2021-10-02T11:42:16Z</time>
      </trkpt>
      <trkpt lat="42.5436250" lon="-5.4535700">
        <ele>819.0</ele>
        <time>2021-10-02T11:42:25Z</time>
      </trkpt>
      <trkpt lat="42.5438870" lon="-5.4537350">
        <ele>820.0</ele>
        <time>2021-10-02T11:42:36Z</time>
      </trkpt>
      <trkpt lat="42.5438830" lon="-5.4537670">
        <ele>820.2</ele>
        <time>2021-10-02T11:42:37Z</time>
      </trkpt>
      <trkpt lat="42.5438920" lon="-5.4538760">
        <ele>820.6</ele>
        <time>2021-10-02T11:42:40Z</time>
      </trkpt>
      <trkpt lat="42.5439300" lon="-5.4540090">
        <ele>821.2</ele>
        <time>2021-10-02T11:42:43Z</time>
      </trkpt>
      <trkpt lat="42.5439670" lon="-5.4541760">
        <ele>821.8</ele>
        <time>2021-10-02T11:42:46Z</time>
      </trkpt>
      <trkpt lat="42.5439850" lon="-5.4542840">
        <ele>822.4</ele>
        <time>2021-10-02T11:42:48Z</time>
      </trkpt>
      <trkpt lat="42.5441290" lon="-5.4546930">
        <ele>823.2</ele>
        <time>2021-10-02T11:42:57Z</time>
      </trkpt>
      <trkpt lat="42.5441570" lon="-5.4547800">
        <ele>823.2</ele>
        <time>2021-10-02T11:42:59Z</time>
      </trkpt>
      <trkpt lat="42.5441210" lon="-5.4551020">
        <ele>823.4</ele>
        <time>2021-10-02T11:43:06Z</time>
      </trkpt>
      <trkpt lat="42.5441520" lon="-5.4552230">
        <ele>823.6</ele>
        <time>2021-10-02T11:43:08Z</time>
      </trkpt>
      <trkpt lat="42.5442220" lon="-5.4555530">
        <ele>823.6</ele>
        <time>2021-10-02T11:43:13Z</time>
      </trkpt>
      <trkpt lat="42.5442760" lon="-5.4559460">
        <ele>823.6</ele>
        <time>2021-10-02T11:43:18Z</time>
      </trkpt>
      <trkpt lat="42.5443880" lon="-5.4567400">
        <ele>823.4</ele>
        <time>2021-10-02T11:43:28Z</time>
      </trkpt>
      <trkpt lat="42.5445050" lon="-5.4573530">
        <ele>823.8</ele>
        <time>2021-10-02T11:43:36Z</time>
      </trkpt>
      <trkpt lat="42.5446460" lon="-5.4578290">
        <ele>824.8</ele>
        <time>2021-10-02T11:43:43Z</time>
      </trkpt>
      <trkpt lat="42.5448390" lon="-5.4582050">
        <ele>825.4</ele>
        <time>2021-10-02T11:43:49Z</time>
      </trkpt>
      <trkpt lat="42.5449140" lon="-5.4583260">
        <ele>825.8</ele>
        <time>2021-10-02T11:43:51Z</time>
      </trkpt>
      <trkpt lat="42.5451510" lon="-5.4586460">
        <ele>827.0</ele>
        <time>2021-10-02T11:43:57Z</time>
      </trkpt>
      <trkpt lat="42.5453110" lon="-5.4588620">
        <ele>827.4</ele>
        <time>2021-10-02T11:44:01Z</time>
      </trkpt>
      <trkpt lat="42.5455900" lon="-5.4592540">
        <ele>827.8</ele>
        <time>2021-10-02T11:44:08Z</time>
      </trkpt>
      <trkpt lat="42.5460090" lon="-5.4598260">
        <ele>827.8</ele>
        <time>2021-10-02T11:44:18Z</time>
      </trkpt>
      <trkpt lat="42.5463730" lon="-5.4602660">
        <ele>827.6</ele>
        <time>2021-10-02T11:44:26Z</time>
      </trkpt>
      <trkpt lat="42.5467250" lon="-5.4608280">
        <ele>827.4</ele>
        <time>2021-10-02T11:44:35Z</time>
      </trkpt>
      <trkpt lat="42.5468600" lon="-5.4609880">
        <ele>827.6</ele>
        <time>2021-10-02T11:44:38Z</time>
      </trkpt>
      <trkpt lat="42.5471320" lon="-5.4612680">
        <ele>827.8</ele>
        <time>2021-10-02T11:44:44Z</time>
      </trkpt>
      <trkpt lat="42.5472430" lon="-5.4614590">
        <ele>828.0</ele>
        <time>2021-10-02T11:44:47Z</time>
      </trkpt>
      <trkpt lat="42.5475960" lon="-5.4620280">
        <ele>828.2</ele>
        <time>2021-10-02T11:44:56Z</time>
      </trkpt>
      <trkpt lat="42.5478930" lon="-5.4624570">
        <ele>828.4</ele>
        <time>2021-10-02T11:45:03Z</time>
      </trkpt>
      <trkpt lat="42.5481530" lon="-5.4627100">
        <ele>828.6</ele>
        <time>2021-10-02T11:45:08Z</time>
      </trkpt>
      <trkpt lat="42.5483880" lon="-5.4630360">
        <ele>828.6</ele>
        <time>2021-10-02T11:45:13Z</time>
      </trkpt>
      <trkpt lat="42.5486280" lon="-5.4633760">
        <ele>828.6</ele>
        <time>2021-10-02T11:45:18Z</time>
      </trkpt>
      <trkpt lat="42.5488290" lon="-5.4636560">
        <ele>828.4</ele>
        <time>2021-10-02T11:45:22Z</time>
      </trkpt>
      <trkpt lat="42.5492560" lon="-5.4642370">
        <ele>828.4</ele>
        <time>2021-10-02T11:45:31Z</time>
      </trkpt>
      <trkpt lat="42.5496610" lon="-5.4648390">
        <ele>828.4</ele>
        <time>2021-10-02T11:45:40Z</time>
      </trkpt>
      <trkpt lat="42.5500760" lon="-5.4653930">
        <ele>828.8</ele>
        <time>2021-10-02T11:45:49Z</time>
      </trkpt>
      <trkpt lat="42.5503270" lon="-5.4657600">
        <ele>829.2</ele>
        <time>2021-10-02T11:45:55Z</time>
      </trkpt>
      <trkpt lat="42.5507090" lon="-5.4663090">
        <ele>829.8</ele>
        <time>2021-10-02T11:46:04Z</time>
      </trkpt>
      <trkpt lat="42.5508360" lon="-5.4664750">
        <ele>830.0</ele>
        <time>2021-10-02T11:46:07Z</time>
      </trkpt>
      <trkpt lat="42.5509890" lon="-5.4664920">
        <ele>830.2</ele>
        <time>2021-10-02T11:46:10Z</time>
      </trkpt>
      <trkpt lat="42.5510410" lon="-5.4664740">
        <ele>830.2</ele>
        <time>2021-10-02T11:46:11Z</time>
      </trkpt>
      <trkpt lat="42.5510970" lon="-5.4664670">
        <ele>830.2</ele>
        <time>2021-10-02T11:46:12Z</time>
      </trkpt>
      <trkpt lat="42.5513210" lon="-5.4665710">
        <ele>830.2</ele>
        <time>2021-10-02T11:46:16Z</time>
      </trkpt>
      <trkpt lat="42.5514800" lon="-5.4667030">
        <ele>830.4</ele>
        <time>2021-10-02T11:46:19Z</time>
      </trkpt>
      <trkpt lat="42.5517180" lon="-5.4669700">
        <ele>830.6</ele>
        <time>2021-10-02T11:46:24Z</time>
      </trkpt>
      <trkpt lat="42.5519960" lon="-5.4673140">
        <ele>830.8</ele>
        <time>2021-10-02T11:46:30Z</time>
      </trkpt>
      <trkpt lat="42.5523300" lon="-5.4676370">
        <ele>831.2</ele>
        <time>2021-10-02T11:46:36Z</time>
      </trkpt>
      <trkpt lat="42.5527450" lon="-5.4680750">
        <ele>831.6</ele>
        <time>2021-10-02T11:46:44Z</time>
      </trkpt>
      <trkpt lat="42.5530410" lon="-5.4683580">
        <ele>831.8</ele>
        <time>2021-10-02T11:46:50Z</time>
      </trkpt>
      <trkpt lat="42.5532240" lon="-5.4685410">
        <ele>832.4</ele>
        <time>2021-10-02T11:46:54Z</time>
      </trkpt>
      <trkpt lat="42.5532700" lon="-5.4685830">
        <ele>833.0</ele>
        <time>2021-10-02T11:46:55Z</time>
      </trkpt>
      <trkpt lat="42.5534030" lon="-5.4687090">
        <ele>834.0</ele>
        <time>2021-10-02T11:46:58Z</time>
      </trkpt>
      <trkpt lat="42.5534480" lon="-5.4687510">
        <ele>834.4</ele>
        <time>2021-10-02T11:46:59Z</time>
      </trkpt>
      <trkpt lat="42.5536170" lon="-5.4689190">
        <ele>835.6</ele>
        <time>2021-10-02T11:47:03Z</time>
      </trkpt>
      <trkpt lat="42.5537350" lon="-5.4690630">
        <ele>836.6</ele>
        <time>2021-10-02T11:47:06Z</time>
      </trkpt>
      <trkpt lat="42.5540020" lon="-5.4694350">
        <ele>837.8</ele>
        <time>2021-10-02T11:47:13Z</time>
      </trkpt>
      <trkpt lat="42.5543770" lon="-5.4699500">
        <ele>838.2</ele>
        <time>2021-10-02T11:47:23Z</time>
      </trkpt>
      <trkpt lat="42.5544570" lon="-5.4700420">
        <ele>838.2</ele>
        <time>2021-10-02T11:47:25Z</time>
      </trkpt>
      <trkpt lat="42.5547620" lon="-5.4704090">
        <ele>838.8</ele>
        <time>2021-10-02T11:47:33Z</time>
      </trkpt>
      <trkpt lat="42.5548550" lon="-5.4706390">
        <ele>839.0</ele>
        <time>2021-10-02T11:47:37Z</time>
      </trkpt>
      <trkpt lat="42.5549500" lon="-5.4707970">
        <ele>839.2</ele>
        <time>2021-10-02T11:47:40Z</time>
      </trkpt>
      <trkpt lat="42.5549880" lon="-5.4708430">
        <ele>839.4</ele>
        <time>2021-10-02T11:47:41Z</time>
      </trkpt>
      <trkpt lat="42.5552980" lon="-5.4713140">
        <ele>839.8</ele>
        <time>2021-10-02T11:47:50Z</time>
      </trkpt>
      <trkpt lat="42.5556720" lon="-5.4719370">
        <ele>840.4</ele>
        <time>2021-10-02T11:48:01Z</time>
      </trkpt>
      <trkpt lat="42.5558710" lon="-5.4724690">
        <ele>840.6</ele>
        <time>2021-10-02T11:48:09Z</time>
      </trkpt>
      <trkpt lat="42.5562050" lon="-5.4730790">
        <ele>840.6</ele>
        <time>2021-10-02T11:48:19Z</time>
      </trkpt>
      <trkpt lat="42.5563310" lon="-5.4733300">
        <ele>840.8</ele>
        <time>2021-10-02T11:48:23Z</time>
      </trkpt>
      <trkpt lat="42.5563970" lon="-5.4736310">
        <ele>841.0</ele>
        <time>2021-10-02T11:48:27Z</time>
      </trkpt>
      <trkpt lat="42.5566310" lon="-5.4743800">
        <ele>841.0</ele>
        <time>2021-10-02T11:48:37Z</time>
      </trkpt>
      <trkpt lat="42.5569130" lon="-5.4751030">
        <ele>839.8</ele>
        <time>2021-10-02T11:48:46Z</time>
      </trkpt>
      <trkpt lat="42.5570770" lon="-5.4754770">
        <ele>840.0</ele>
        <time>2021-10-02T11:48:51Z</time>
      </trkpt>
      <trkpt lat="42.5574570" lon="-5.4760400">
        <ele>840.2</ele>
        <time>2021-10-02T11:49:00Z</time>
      </trkpt>
      <trkpt lat="42.5576720" lon="-5.4763510">
        <ele>841.0</ele>
        <time>2021-10-02T11:49:05Z</time>
      </trkpt>
      <trkpt lat="42.5579220" lon="-5.4767290">
        <ele>841.6</ele>
        <time>2021-10-02T11:49:11Z</time>
      </trkpt>
      <trkpt lat="42.5582920" lon="-5.4773550">
        <ele>841.6</ele>
        <time>2021-10-02T11:49:20Z</time>
      </trkpt>
      <trkpt lat="42.5586470" lon="-5.4779930">
        <ele>842.2</ele>
        <time>2021-10-02T11:49:29Z</time>
      </trkpt>
      <trkpt lat="42.5589810" lon="-5.4786250">
        <ele>843.2</ele>
        <time>2021-10-02T11:49:38Z</time>
      </trkpt>
      <trkpt lat="42.5591540" lon="-5.4789930">
        <ele>843.2</ele>
        <time>2021-10-02T11:49:43Z</time>
      </trkpt>
      <trkpt lat="42.5593240" lon="-5.4793150">
        <ele>843.8</ele>
        <time>2021-10-02T11:49:48Z</time>
      </trkpt>
      <trkpt lat="42.5595560" lon="-5.4796310">
        <ele>844.6</ele>
        <time>2021-10-02T11:49:54Z</time>
      </trkpt>
      <trkpt lat="42.5597250" lon="-5.4798040">
        <ele>845.8</ele>
        <time>2021-10-02T11:49:58Z</time>
      </trkpt>
      <trkpt lat="42.5599360" lon="-5.4800080">
        <ele>846.8</ele>
        <time>2021-10-02T11:50:03Z</time>
      </trkpt>
      <trkpt lat="42.5601070" lon="-5.4801730">
        <ele>847.8</ele>
        <time>2021-10-02T11:50:07Z</time>
      </trkpt>
      <trkpt lat="42.5605720" lon="-5.4806490">
        <ele>848.4</ele>
        <time>2021-10-02T11:50:18Z</time>
      </trkpt>
      <trkpt lat="42.5606580" lon="-5.4807420">
        <ele>849.0</ele>
        <time>2021-10-02T11:50:20Z</time>
      </trkpt>
      <trkpt lat="42.5608740" lon="-5.4809940">
        <ele>849.6</ele>
        <time>2021-10-02T11:50:25Z</time>
      </trkpt>
      <trkpt lat="42.5610350" lon="-5.4812250">
        <ele>849.6</ele>
        <time>2021-10-02T11:50:29Z</time>
      </trkpt>
      <trkpt lat="42.5612390" lon="-5.4815290">
        <ele>849.4</ele>
        <time>2021-10-02T11:50:34Z</time>
      </trkpt>
      <trkpt lat="42.5614030" lon="-5.4817770">
        <ele>848.6</ele>
        <time>2021-10-02T11:50:38Z</time>
      </trkpt>
      <trkpt lat="42.5617900" lon="-5.4822580">
        <ele>848.0</ele>
        <time>2021-10-02T11:50:46Z</time>
      </trkpt>
      <trkpt lat="42.5622280" lon="-5.4828130">
        <ele>847.4</ele>
        <time>2021-10-02T11:50:55Z</time>
      </trkpt>
      <trkpt lat="42.5623930" lon="-5.4830300">
        <ele>847.4</ele>
        <time>2021-10-02T11:50:59Z</time>
      </trkpt>
      <trkpt lat="42.5624930" lon="-5.4831690">
        <ele>847.4</ele>
        <time>2021-10-02T11:51:02Z</time>
      </trkpt>
      <trkpt lat="42.5626300" lon="-5.4833640">
        <ele>847.8</ele>
        <time>2021-10-02T11:51:06Z</time>
      </trkpt>
      <trkpt lat="42.5627260" lon="-5.4835440">
        <ele>847.8</ele>
        <time>2021-10-02T11:51:09Z</time>
      </trkpt>
      <trkpt lat="42.5627970" lon="-5.4837480">
        <ele>848.0</ele>
        <time>2021-10-02T11:51:12Z</time>
      </trkpt>
      <trkpt lat="42.5628840" lon="-5.4840130">
        <ele>848.4</ele>
        <time>2021-10-02T11:51:16Z</time>
      </trkpt>
      <trkpt lat="42.5630100" lon="-5.4844140">
        <ele>848.6</ele>
        <time>2021-10-02T11:51:22Z</time>
      </trkpt>
      <trkpt lat="42.5632240" lon="-5.4850010">
        <ele>849.2</ele>
        <time>2021-10-02T11:51:31Z</time>
      </trkpt>
      <trkpt lat="42.5633500" lon="-5.4853200">
        <ele>850.0</ele>
        <time>2021-10-02T11:51:36Z</time>
      </trkpt>
      <trkpt lat="42.5633930" lon="-5.4854490">
        <ele>850.2</ele>
        <time>2021-10-02T11:51:38Z</time>
      </trkpt>
      <trkpt lat="42.5634200" lon="-5.4855120">
        <ele>850.2</ele>
        <time>2021-10-02T11:51:39Z</time>
      </trkpt>
      <trkpt lat="42.5635320" lon="-5.4856640">
        <ele>850.4</ele>
        <time>2021-10-02T11:51:42Z</time>
      </trkpt>
      <trkpt lat="42.5635730" lon="-5.4857030">
        <ele>850.6</ele>
        <time>2021-10-02T11:51:43Z</time>
      </trkpt>
      <trkpt lat="42.5637870" lon="-5.4858840">
        <ele>850.8</ele>
        <time>2021-10-02T11:51:48Z</time>
      </trkpt>
      <trkpt lat="42.5641410" lon="-5.4862550">
        <ele>851.0</ele>
        <time>2021-10-02T11:51:56Z</time>
      </trkpt>
      <trkpt lat="42.5643600" lon="-5.4864930">
        <ele>851.0</ele>
        <time>2021-10-02T11:52:01Z</time>
      </trkpt>
      <trkpt lat="42.5643970" lon="-5.4868900">
        <ele>850.6</ele>
        <time>2021-10-02T11:52:06Z</time>
      </trkpt>
      <trkpt lat="42.5643680" lon="-5.4876830">
        <ele>850.2</ele>
        <time>2021-10-02T11:52:16Z</time>
      </trkpt>
      <trkpt lat="42.5643750" lon="-5.4882300">
        <ele>850.4</ele>
        <time>2021-10-02T11:52:23Z</time>
      </trkpt>
      <trkpt lat="42.5644610" lon="-5.4885260">
        <ele>851.2</ele>
        <time>2021-10-02T11:52:27Z</time>
      </trkpt>
      <trkpt lat="42.5645750" lon="-5.4887990">
        <ele>851.4</ele>
        <time>2021-10-02T11:52:31Z</time>
      </trkpt>
      <trkpt lat="42.5647140" lon="-5.4891470">
        <ele>851.6</ele>
        <time>2021-10-02T11:52:36Z</time>
      </trkpt>
      <trkpt lat="42.5648370" lon="-5.4894990">
        <ele>852.0</ele>
        <time>2021-10-02T11:52:41Z</time>
      </trkpt>
      <trkpt lat="42.5649390" lon="-5.4897650">
        <ele>852.2</ele>
        <time>2021-10-02T11:52:45Z</time>
      </trkpt>
      <trkpt lat="42.5650330" lon="-5.4900280">
        <ele>852.6</ele>
        <time>2021-10-02T11:52:49Z</time>
      </trkpt>
      <trkpt lat="42.5651730" lon="-5.4904170">
        <ele>853.6</ele>
        <time>2021-10-02T11:52:55Z</time>
      </trkpt>
      <trkpt lat="42.5653310" lon="-5.4909330">
        <ele>854.8</ele>
        <time>2021-10-02T11:53:03Z</time>
      </trkpt>
      <trkpt lat="42.5654020" lon="-5.4911910">
        <ele>855.0</ele>
        <time>2021-10-02T11:53:07Z</time>
      </trkpt>
      <trkpt lat="42.5656210" lon="-5.4919250">
        <ele>855.8</ele>
        <time>2021-10-02T11:53:18Z</time>
      </trkpt>
      <trkpt lat="42.5656440" lon="-5.4919960">
        <ele>856.0</ele>
        <time>2021-10-02T11:53:19Z</time>
      </trkpt>
      <trkpt lat="42.5657920" lon="-5.4925100">
        <ele>855.6</ele>
        <time>2021-10-02T11:53:26Z</time>
      </trkpt>
      <trkpt lat="42.5660110" lon="-5.4930540">
        <ele>855.8</ele>
        <time>2021-10-02T11:53:34Z</time>
      </trkpt>
      <trkpt lat="42.5661610" lon="-5.4933380">
        <ele>855.8</ele>
        <time>2021-10-02T11:53:38Z</time>
      </trkpt>
      <trkpt lat="42.5663010" lon="-5.4935940">
        <ele>855.8</ele>
        <time>2021-10-02T11:53:42Z</time>
      </trkpt>
      <trkpt lat="42.5663360" lon="-5.4936490">
        <ele>855.8</ele>
        <time>2021-10-02T11:53:43Z</time>
      </trkpt>
      <trkpt lat="42.5664310" lon="-5.4938020">
        <ele>856.2</ele>
        <time>2021-10-02T11:53:46Z</time>
      </trkpt>
      <trkpt lat="42.5665030" lon="-5.4939580">
        <ele>857.0</ele>
        <time>2021-10-02T11:53:49Z</time>
      </trkpt>
      <trkpt lat="42.5665220" lon="-5.4940090">
        <ele>857.6</ele>
        <time>2021-10-02T11:53:50Z</time>
      </trkpt>
      <trkpt lat="42.5665550" lon="-5.4941030">
        <ele>858.6</ele>
        <time>2021-10-02T11:53:52Z</time>
      </trkpt>
      <trkpt lat="42.5665830" lon="-5.4941910">
        <ele>859.6</ele>
        <time>2021-10-02T11:53:54Z</time>
      </trkpt>
      <trkpt lat="42.5666100" lon="-5.4942760">
        <ele>860.8</ele>
        <time>2021-10-02T11:53:56Z</time>
      </trkpt>
      <trkpt lat="42.5666450" lon="-5.4944020">
        <ele>862.2</ele>
        <time>2021-10-02T11:53:59Z</time>
      </trkpt>
      <trkpt lat="42.5666700" lon="-5.4945290">
        <ele>863.4</ele>
        <time>2021-10-02T11:54:02Z</time>
      </trkpt>
      <trkpt lat="42.5667070" lon="-5.4946820">
        <ele>864.8</ele>
        <time>2021-10-02T11:54:06Z</time>
      </trkpt>
      <trkpt lat="42.5667370" lon="-5.4947930">
        <ele>866.0</ele>
        <time>2021-10-02T11:54:09Z</time>
      </trkpt>
      <trkpt lat="42.5667860" lon="-5.4949410">
        <ele>867.4</ele>
        <time>2021-10-02T11:54:13Z</time>
      </trkpt>
      <trkpt lat="42.5668170" lon="-5.4950470">
        <ele>868.4</ele>
        <time>2021-10-02T11:54:16Z</time>
      </trkpt>
      <trkpt lat="42.5668500" lon="-5.4951520">
        <ele>869.4</ele>
        <time>2021-10-02T11:54:19Z</time>
      </trkpt>
      <trkpt lat="42.5668930" lon="-5.4952560">
        <ele>870.6</ele>
        <time>2021-10-02T11:54:22Z</time>
      </trkpt>
      <trkpt lat="42.5669340" lon="-5.4953610">
        <ele>871.8</ele>
        <time>2021-10-02T11:54:25Z</time>
      </trkpt>
      <trkpt lat="42.5670090" lon="-5.4955870">
        <ele>872.8</ele>
        <time>2021-10-02T11:54:31Z</time>
      </trkpt>
      <trkpt lat="42.5671520" lon="-5.4960300">
        <ele>874.0</ele>
        <time>2021-10-02T11:54:41Z</time>
      </trkpt>
      <trkpt lat="42.5672730" lon="-5.4961890">
        <ele>874.2</ele>
        <time>2021-10-02T11:54:45Z</time>
      </trkpt>
      <trkpt lat="42.5675130" lon="-5.4966160">
        <ele>874.6</ele>
        <time>2021-10-02T11:54:54Z</time>
      </trkpt>
      <trkpt lat="42.5676480" lon="-5.4971040">
        <ele>874.6</ele>
        <time>2021-10-02T11:55:02Z</time>
      </trkpt>
      <trkpt lat="42.5676790" lon="-5.4973030">
        <ele>874.6</ele>
        <time>2021-10-02T11:55:05Z</time>
      </trkpt>
      <trkpt lat="42.5676800" lon="-5.4975190">
        <ele>874.4</ele>
        <time>2021-10-02T11:55:08Z</time>
      </trkpt>
      <trkpt lat="42.5677000" lon="-5.4978930">
        <ele>874.2</ele>
        <time>2021-10-02T11:55:13Z</time>
      </trkpt>
      <trkpt lat="42.5677800" lon="-5.4986840">
        <ele>873.2</ele>
        <time>2021-10-02T11:55:23Z</time>
      </trkpt>
      <trkpt lat="42.5677910" lon="-5.4987670">
        <ele>873.0</ele>
        <time>2021-10-02T11:55:24Z</time>
      </trkpt>
      <trkpt lat="42.5678190" lon="-5.4990240">
        <ele>872.6</ele>
        <time>2021-10-02T11:55:27Z</time>
      </trkpt>
      <trkpt lat="42.5678630" lon="-5.4993910">
        <ele>871.8</ele>
        <time>2021-10-02T11:55:31Z</time>
      </trkpt>
      <trkpt lat="42.5678890" lon="-5.4996870">
        <ele>871.2</ele>
        <time>2021-10-02T11:55:34Z</time>
      </trkpt>
      <trkpt lat="42.5679130" lon="-5.4998890">
        <ele>870.6</ele>
        <time>2021-10-02T11:55:36Z</time>
      </trkpt>
      <trkpt lat="42.5679520" lon="-5.5001890">
        <ele>869.2</ele>
        <time>2021-10-02T11:55:39Z</time>
      </trkpt>
      <trkpt lat="42.5679760" lon="-5.5003830">
        <ele>868.2</ele>
        <time>2021-10-02T11:55:41Z</time>
      </trkpt>
      <trkpt lat="42.5680000" lon="-5.5005730">
        <ele>866.8</ele>
        <time>2021-10-02T11:55:43Z</time>
      </trkpt>
      <trkpt lat="42.5680980" lon="-5.5012910">
        <ele>865.8</ele>
        <time>2021-10-02T11:55:51Z</time>
      </trkpt>
      <trkpt lat="42.5682160" lon="-5.5020170">
        <ele>866.0</ele>
        <time>2021-10-02T11:56:00Z</time>
      </trkpt>
      <trkpt lat="42.5682470" lon="-5.5022650">
        <ele>866.4</ele>
        <time>2021-10-02T11:56:03Z</time>
      </trkpt>
      <trkpt lat="42.5683610" lon="-5.5029900">
        <ele>867.2</ele>
        <time>2021-10-02T11:56:12Z</time>
      </trkpt>
      <trkpt lat="42.5685070" lon="-5.5036900">
        <ele>868.0</ele>
        <time>2021-10-02T11:56:21Z</time>
      </trkpt>
      <trkpt lat="42.5687290" lon="-5.5044400">
        <ele>868.2</ele>
        <time>2021-10-02T11:56:31Z</time>
      </trkpt>
      <trkpt lat="42.5689350" lon="-5.5051670">
        <ele>867.6</ele>
        <time>2021-10-02T11:56:40Z</time>
      </trkpt>
      <trkpt lat="42.5692140" lon="-5.5058120">
        <ele>867.8</ele>
        <time>2021-10-02T11:56:49Z</time>
      </trkpt>
      <trkpt lat="42.5693340" lon="-5.5061170">
        <ele>867.8</ele>
        <time>2021-10-02T11:56:53Z</time>
      </trkpt>
      <trkpt lat="42.5694440" lon="-5.5064190">
        <ele>868.0</ele>
        <time>2021-10-02T11:56:57Z</time>
      </trkpt>
      <trkpt lat="42.5696160" lon="-5.5071560">
        <ele>868.8</ele>
        <time>2021-10-02T11:57:07Z</time>
      </trkpt>
      <trkpt lat="42.5696310" lon="-5.5072260">
        <ele>869.0</ele>
        <time>2021-10-02T11:57:08Z</time>
      </trkpt>
      <trkpt lat="42.5697030" lon="-5.5075720">
        <ele>870.4</ele>
        <time>2021-10-02T11:57:13Z</time>
      </trkpt>
      <trkpt lat="42.5697550" lon="-5.5077670">
        <ele>871.2</ele>
        <time>2021-10-02T11:57:16Z</time>
      </trkpt>
      <trkpt lat="42.5697790" lon="-5.5078970">
        <ele>871.4</ele>
        <time>2021-10-02T11:57:18Z</time>
      </trkpt>
      <trkpt lat="42.5699010" lon="-5.5084910">
        <ele>872.6</ele>
        <time>2021-10-02T11:57:27Z</time>
      </trkpt>
      <trkpt lat="42.5700590" lon="-5.5092120">
        <ele>873.6</ele>
        <time>2021-10-02T11:57:38Z</time>
      </trkpt>
      <trkpt lat="42.5700730" lon="-5.5092760">
        <ele>873.6</ele>
        <time>2021-10-02T11:57:39Z</time>
      </trkpt>
      <trkpt lat="42.5701690" lon="-5.5097330">
        <ele>874.6</ele>
        <time>2021-10-02T11:57:46Z</time>
      </trkpt>
      <trkpt lat="42.5702340" lon="-5.5100540">
        <ele>875.8</ele>
        <time>2021-10-02T11:57:51Z</time>
      </trkpt>
      <trkpt lat="42.5703280" lon="-5.5105040">
        <ele>876.8</ele>
        <time>2021-10-02T11:57:59Z</time>
      </trkpt>
      <trkpt lat="42.5703770" lon="-5.5107430">
        <ele>878.0</ele>
        <time>2021-10-02T11:58:04Z</time>
      </trkpt>
      <trkpt lat="42.5704200" lon="-5.5109730">
        <ele>879.2</ele>
        <time>2021-10-02T11:58:09Z</time>
      </trkpt>
      <trkpt lat="42.5704710" lon="-5.5112020">
        <ele>880.4</ele>
        <time>2021-10-02T11:58:14Z</time>
      </trkpt>
      <trkpt lat="42.5705080" lon="-5.5113890">
        <ele>881.6</ele>
        <time>2021-10-02T11:58:18Z</time>
      </trkpt>
      <trkpt lat="42.5705330" lon="-5.5115290">
        <ele>882.6</ele>
        <time>2021-10-02T11:58:21Z</time>
      </trkpt>
      <trkpt lat="42.5705690" lon="-5.5117130">
        <ele>884.0</ele>
        <time>2021-10-02T11:58:25Z</time>
      </trkpt>
      <trkpt lat="42.5706470" lon="-5.5120390">
        <ele>885.2</ele>
        <time>2021-10-02T11:58:32Z</time>
      </trkpt>
      <trkpt lat="42.5707230" lon="-5.5123490">
        <ele>886.2</ele>
        <time>2021-10-02T11:58:38Z</time>
      </trkpt>
      <trkpt lat="42.5708520" lon="-5.5129230">
        <ele>886.6</ele>
        <time>2021-10-02T11:58:48Z</time>
      </trkpt>
      <trkpt lat="42.5709370" lon="-5.5133490">
        <ele>887.4</ele>
        <time>2021-10-02T11:58:57Z</time>
      </trkpt>
      <trkpt lat="42.5709730" lon="-5.5135870">
        <ele>888.6</ele>
        <time>2021-10-02T11:59:02Z</time>
      </trkpt>
      <trkpt lat="42.5710440" lon="-5.5138820">
        <ele>889.8</ele>
        <time>2021-10-02T11:59:08Z</time>
      </trkpt>
      <trkpt lat="42.5711390" lon="-5.5143070">
        <ele>890.8</ele>
        <time>2021-10-02T11:59:16Z</time>
      </trkpt>
      <trkpt lat="42.5712060" lon="-5.5146440">
        <ele>892.2</ele>
        <time>2021-10-02T11:59:24Z</time>
      </trkpt>
      <trkpt lat="42.5712320" lon="-5.5147620">
        <ele>893.2</ele>
        <time>2021-10-02T11:59:27Z</time>
      </trkpt>
      <trkpt lat="42.5712600" lon="-5.5148840">
        <ele>894.4</ele>
        <time>2021-10-02T11:59:30Z</time>
      </trkpt>
      <trkpt lat="42.5712890" lon="-5.5150060">
        <ele>895.6</ele>
        <time>2021-10-02T11:59:33Z</time>
      </trkpt>
      <trkpt lat="42.5713210" lon="-5.5151660">
        <ele>897.0</ele>
        <time>2021-10-02T11:59:37Z</time>
      </trkpt>
      <trkpt lat="42.5713480" lon="-5.5152820">
        <ele>898.2</ele>
        <time>2021-10-02T11:59:40Z</time>
      </trkpt>
      <trkpt lat="42.5714000" lon="-5.5154700">
        <ele>899.6</ele>
        <time>2021-10-02T11:59:45Z</time>
      </trkpt>
      <trkpt lat="42.5714580" lon="-5.5157060">
        <ele>900.8</ele>
        <time>2021-10-02T11:59:51Z</time>
      </trkpt>
      <trkpt lat="42.5714970" lon="-5.5159210">
        <ele>902.2</ele>
        <time>2021-10-02T11:59:56Z</time>
      </trkpt>
      <trkpt lat="42.5715350" lon="-5.5161020">
        <ele>903.2</ele>
        <time>2021-10-02T12:00:00Z</time>
      </trkpt>
      <trkpt lat="42.5715900" lon="-5.5162940">
        <ele>903.8</ele>
        <time>2021-10-02T12:00:04Z</time>
      </trkpt>
      <trkpt lat="42.5716140" lon="-5.5163990">
        <ele>904.2</ele>
        <time>2021-10-02T12:00:06Z</time>
      </trkpt>
      <trkpt lat="42.5716270" lon="-5.5164500">
        <ele>904.2</ele>
        <time>2021-10-02T12:00:07Z</time>
      </trkpt>
      <trkpt lat="42.5716780" lon="-5.5166480">
        <ele>905.2</ele>
        <time>2021-10-02T12:00:11Z</time>
      </trkpt>
      <trkpt lat="42.5717050" lon="-5.5167350">
        <ele>905.4</ele>
        <time>2021-10-02T12:00:13Z</time>
      </trkpt>
      <trkpt lat="42.5718050" lon="-5.5172190">
        <ele>906.4</ele>
        <time>2021-10-02T12:00:24Z</time>
      </trkpt>
      <trkpt lat="42.5718410" lon="-5.5173950">
        <ele>907.4</ele>
        <time>2021-10-02T12:00:28Z</time>
      </trkpt>
      <trkpt lat="42.5718710" lon="-5.5175770">
        <ele>908.8</ele>
        <time>2021-10-02T12:00:32Z</time>
      </trkpt>
      <trkpt lat="42.5718910" lon="-5.5177160">
        <ele>910.0</ele>
        <time>2021-10-02T12:00:35Z</time>
      </trkpt>
      <trkpt lat="42.5719430" lon="-5.5179500">
        <ele>911.2</ele>
        <time>2021-10-02T12:00:40Z</time>
      </trkpt>
      <trkpt lat="42.5720630" lon="-5.5183790">
        <ele>911.2</ele>
        <time>2021-10-02T12:00:47Z</time>
      </trkpt>
      <trkpt lat="42.5721600" lon="-5.5187770">
        <ele>909.8</ele>
        <time>2021-10-02T12:00:52Z</time>
      </trkpt>
      <trkpt lat="42.5722070" lon="-5.5189590">
        <ele>908.4</ele>
        <time>2021-10-02T12:00:54Z</time>
      </trkpt>
      <trkpt lat="42.5722600" lon="-5.5191550">
        <ele>907.2</ele>
        <time>2021-10-02T12:00:56Z</time>
      </trkpt>
      <trkpt lat="42.5723370" lon="-5.5194660">
        <ele>906.2</ele>
        <time>2021-10-02T12:00:59Z</time>
      </trkpt>
      <trkpt lat="42.5724080" lon="-5.5197780">
        <ele>904.2</ele>
        <time>2021-10-02T12:01:02Z</time>
      </trkpt>
      <trkpt lat="42.5724550" lon="-5.5199820">
        <ele>903.0</ele>
        <time>2021-10-02T12:01:04Z</time>
      </trkpt>
      <trkpt lat="42.5724990" lon="-5.5201870">
        <ele>901.8</ele>
        <time>2021-10-02T12:01:06Z</time>
      </trkpt>
      <trkpt lat="42.5725910" lon="-5.5208460">
        <ele>901.4</ele>
        <time>2021-10-02T12:01:14Z</time>
      </trkpt>
      <trkpt lat="42.5725900" lon="-5.5210650">
        <ele>903.2</ele>
        <time>2021-10-02T12:01:17Z</time>
      </trkpt>
      <trkpt lat="42.5726000" lon="-5.5211380">
        <ele>904.2</ele>
        <time>2021-10-02T12:01:18Z</time>
      </trkpt>
      <trkpt lat="42.5726210" lon="-5.5212060">
        <ele>904.6</ele>
        <time>2021-10-02T12:01:19Z</time>
      </trkpt>
      <trkpt lat="42.5727350" lon="-5.5214610">
        <ele>905.2</ele>
        <time>2021-10-02T12:01:23Z</time>
      </trkpt>
      <trkpt lat="42.5727600" lon="-5.5215310">
        <ele>905.2</ele>
        <time>2021-10-02T12:01:24Z</time>
      </trkpt>
      <trkpt lat="42.5728040" lon="-5.5216830">
        <ele>905.2</ele>
        <time>2021-10-02T12:01:26Z</time>
      </trkpt>
      <trkpt lat="42.5728690" lon="-5.5219320">
        <ele>905.2</ele>
        <time>2021-10-02T12:01:29Z</time>
      </trkpt>
      <trkpt lat="42.5730110" lon="-5.5226370">
        <ele>903.6</ele>
        <time>2021-10-02T12:01:36Z</time>
      </trkpt>
      <trkpt lat="42.5730460" lon="-5.5228480">
        <ele>902.4</ele>
        <time>2021-10-02T12:01:38Z</time>
      </trkpt>
      <trkpt lat="42.5730860" lon="-5.5230470">
        <ele>901.0</ele>
        <time>2021-10-02T12:01:40Z</time>
      </trkpt>
      <trkpt lat="42.5731260" lon="-5.5232340">
        <ele>900.6</ele>
        <time>2021-10-02T12:01:42Z</time>
      </trkpt>
      <trkpt lat="42.5731800" lon="-5.5234820">
        <ele>900.4</ele>
        <time>2021-10-02T12:01:45Z</time>
      </trkpt>
      <trkpt lat="42.5732320" lon="-5.5237540">
        <ele>900.8</ele>
        <time>2021-10-02T12:01:49Z</time>
      </trkpt>
      <trkpt lat="42.5732610" lon="-5.5238780">
        <ele>902.2</ele>
        <time>2021-10-02T12:01:51Z</time>
      </trkpt>
      <trkpt lat="42.5732820" lon="-5.5239970">
        <ele>903.6</ele>
        <time>2021-10-02T12:01:53Z</time>
      </trkpt>
      <trkpt lat="42.5732750" lon="-5.5241360">
        <ele>905.0</ele>
        <time>2021-10-02T12:01:56Z</time>
      </trkpt>
      <trkpt lat="42.5732150" lon="-5.5242650">
        <ele>905.8</ele>
        <time>2021-10-02T12:01:59Z</time>
      </trkpt>
      <trkpt lat="42.5731850" lon="-5.5243100">
        <ele>906.2</ele>
        <time>2021-10-02T12:02:00Z</time>
      </trkpt>
      <trkpt lat="42.5730720" lon="-5.5244390">
        <ele>906.6</ele>
        <time>2021-10-02T12:02:03Z</time>
      </trkpt>
      <trkpt lat="42.5728560" lon="-5.5246550">
        <ele>906.8</ele>
        <time>2021-10-02T12:02:08Z</time>
      </trkpt>
      <trkpt lat="42.5725180" lon="-5.5250230">
        <ele>906.0</ele>
        <time>2021-10-02T12:02:16Z</time>
      </trkpt>
      <trkpt lat="42.5723780" lon="-5.5251650">
        <ele>905.4</ele>
        <time>2021-10-02T12:02:19Z</time>
      </trkpt>
      <trkpt lat="42.5722800" lon="-5.5252680">
        <ele>905.0</ele>
        <time>2021-10-02T12:02:21Z</time>
      </trkpt>
      <trkpt lat="42.5721130" lon="-5.5254340">
        <ele>904.6</ele>
        <time>2021-10-02T12:02:24Z</time>
      </trkpt>
      <trkpt lat="42.5720560" lon="-5.5254950">
        <ele>904.6</ele>
        <time>2021-10-02T12:02:25Z</time>
      </trkpt>
      <trkpt lat="42.5719710" lon="-5.5256480">
        <ele>904.4</ele>
        <time>2021-10-02T12:02:27Z</time>
      </trkpt>
      <trkpt lat="42.5719590" lon="-5.5258960">
        <ele>904.0</ele>
        <time>2021-10-02T12:02:30Z</time>
      </trkpt>
      <trkpt lat="42.5720440" lon="-5.5261880">
        <ele>903.4</ele>
        <time>2021-10-02T12:02:34Z</time>
      </trkpt>
      <trkpt lat="42.5720960" lon="-5.5264160">
        <ele>903.4</ele>
        <time>2021-10-02T12:02:37Z</time>
      </trkpt>
      <trkpt lat="42.5721140" lon="-5.5264900">
        <ele>903.4</ele>
        <time>2021-10-02T12:02:38Z</time>
      </trkpt>
      <trkpt lat="42.5721490" lon="-5.5266310">
        <ele>903.4</ele>
        <time>2021-10-02T12:02:40Z</time>
      </trkpt>
      <trkpt lat="42.5722350" lon="-5.5268180">
        <ele>903.8</ele>
        <time>2021-10-02T12:02:43Z</time>
      </trkpt>
      <trkpt lat="42.5722880" lon="-5.5269310">
        <ele>904.4</ele>
        <time>2021-10-02T12:02:45Z</time>
      </trkpt>
      <trkpt lat="42.5723860" lon="-5.5271370">
        <ele>905.4</ele>
        <time>2021-10-02T12:02:49Z</time>
      </trkpt>
      <trkpt lat="42.5724670" lon="-5.5272700">
        <ele>907.0</ele>
        <time>2021-10-02T12:02:52Z</time>
      </trkpt>
      <trkpt lat="42.5725560" lon="-5.5273500">
        <ele>908.4</ele>
        <time>2021-10-02T12:02:55Z</time>
      </trkpt>
      <trkpt lat="42.5726740" lon="-5.5273840">
        <ele>909.2</ele>
        <time>2021-10-02T12:02:59Z</time>
      </trkpt>
      <trkpt lat="42.5727020" lon="-5.5273840">
        <ele>909.4</ele>
        <time>2021-10-02T12:03:00Z</time>
      </trkpt>
      <trkpt lat="42.5727560" lon="-5.5273850">
        <ele>910.4</ele>
        <time>2021-10-02T12:03:02Z</time>
      </trkpt>
      <trkpt lat="42.5728110" lon="-5.5273810">
        <ele>911.6</ele>
        <time>2021-10-02T12:03:04Z</time>
      </trkpt>
      <trkpt lat="42.5728660" lon="-5.5273860">
        <ele>912.8</ele>
        <time>2021-10-02T12:03:06Z</time>
      </trkpt>
      <trkpt lat="42.5729460" lon="-5.5274110">
        <ele>914.2</ele>
        <time>2021-10-02T12:03:09Z</time>
      </trkpt>
      <trkpt lat="42.5730240" lon="-5.5274590">
        <ele>915.6</ele>
        <time>2021-10-02T12:03:12Z</time>
      </trkpt>
      <trkpt lat="42.5731130" lon="-5.5275650">
        <ele>916.8</ele>
        <time>2021-10-02T12:03:16Z</time>
      </trkpt>
      <trkpt lat="42.5732200" lon="-5.5278990">
        <ele>917.8</ele>
        <time>2021-10-02T12:03:25Z</time>
      </trkpt>
      <trkpt lat="42.5732580" lon="-5.5281760">
        <ele>919.0</ele>
        <time>2021-10-02T12:03:32Z</time>
      </trkpt>
      <trkpt lat="42.5732730" lon="-5.5283440">
        <ele>920.4</ele>
        <time>2021-10-02T12:03:36Z</time>
      </trkpt>
      <trkpt lat="42.5733210" lon="-5.5288890">
        <ele>921.4</ele>
        <time>2021-10-02T12:03:47Z</time>
      </trkpt>
      <trkpt lat="42.5733940" lon="-5.5291850">
        <ele>921.2</ele>
        <time>2021-10-02T12:03:52Z</time>
      </trkpt>
      <trkpt lat="42.5734950" lon="-5.5294390">
        <ele>920.6</ele>
        <time>2021-10-02T12:03:56Z</time>
      </trkpt>
      <trkpt lat="42.5735600" lon="-5.5295630">
        <ele>920.4</ele>
        <time>2021-10-02T12:03:58Z</time>
      </trkpt>
      <trkpt lat="42.5736380" lon="-5.5297050">
        <ele>919.8</ele>
        <time>2021-10-02T12:04:00Z</time>
      </trkpt>
      <trkpt lat="42.5737180" lon="-5.5298510">
        <ele>919.4</ele>
        <time>2021-10-02T12:04:02Z</time>
      </trkpt>
      <trkpt lat="42.5737900" lon="-5.5299790">
        <ele>918.2</ele>
        <time>2021-10-02T12:04:04Z</time>
      </trkpt>
      <trkpt lat="42.5738480" lon="-5.5300950">
        <ele>917.2</ele>
        <time>2021-10-02T12:04:06Z</time>
      </trkpt>
      <trkpt lat="42.5738960" lon="-5.5302020">
        <ele>916.6</ele>
        <time>2021-10-02T12:04:09Z</time>
      </trkpt>
      <trkpt lat="42.5738970" lon="-5.5302320">
        <ele>916.6</ele>
        <time>2021-10-02T12:04:11Z</time>
      </trkpt>
      <trkpt lat="42.5738960" lon="-5.5302560">
        <ele>916.6</ele>
        <time>2021-10-02T12:04:13Z</time>
      </trkpt>
      <trkpt lat="42.5738880" lon="-5.5302850">
        <ele>916.6</ele>
        <time>2021-10-02T12:04:15Z</time>
      </trkpt>
      <trkpt lat="42.5738260" lon="-5.5303160">
        <ele>916.8</ele>
        <time>2021-10-02T12:04:18Z</time>
      </trkpt>
      <trkpt lat="42.5738490" lon="-5.5304290">
        <ele>916.8</ele>
        <time>2021-10-02T12:04:24Z</time>
      </trkpt>
      <trkpt lat="42.5738250" lon="-5.5303870">
        <ele>916.8</ele>
        <time>2021-10-02T12:04:26Z</time>
      </trkpt>
      <trkpt lat="42.5737840" lon="-5.5303600">
        <ele>917.0</ele>
        <time>2021-10-02T12:04:30Z</time>
      </trkpt>
      <trkpt lat="42.5738230" lon="-5.5304400">
        <ele>917.6</ele>
        <time>2021-10-02T12:04:33Z</time>
      </trkpt>
      <trkpt lat="42.5738910" lon="-5.5306040">
        <ele>918.0</ele>
        <time>2021-10-02T12:04:37Z</time>
      </trkpt>
      <trkpt lat="42.5739940" lon="-5.5308210">
        <ele>918.4</ele>
        <time>2021-10-02T12:04:43Z</time>
      </trkpt>
      <trkpt lat="42.5738850" lon="-5.5309620">
        <ele>919.4</ele>
        <time>2021-10-02T12:04:48Z</time>
      </trkpt>
      <trkpt lat="42.5738510" lon="-5.5309890">
        <ele>919.8</ele>
        <time>2021-10-02T12:04:49Z</time>
      </trkpt>
      <trkpt lat="42.5737590" lon="-5.5310710">
        <ele>920.4</ele>
        <time>2021-10-02T12:04:52Z</time>
      </trkpt>
      <trkpt lat="42.5737490" lon="-5.5310970">
        <ele>920.4</ele>
        <time>2021-10-02T12:04:53Z</time>
      </trkpt>
      <trkpt lat="42.5737930" lon="-5.5312040">
        <ele>920.4</ele>
        <time>2021-10-02T12:04:56Z</time>
      </trkpt>
      <trkpt lat="42.5738920" lon="-5.5314200">
        <ele>920.4</ele>
        <time>2021-10-02T12:05:00Z</time>
      </trkpt>
      <trkpt lat="42.5739810" lon="-5.5316340">
        <ele>920.2</ele>
        <time>2021-10-02T12:05:03Z</time>
      </trkpt>
      <trkpt lat="42.5740650" lon="-5.5318790">
        <ele>918.8</ele>
        <time>2021-10-02T12:05:06Z</time>
      </trkpt>
      <trkpt lat="42.5741100" lon="-5.5320380">
        <ele>917.6</ele>
        <time>2021-10-02T12:05:08Z</time>
      </trkpt>
      <trkpt lat="42.5741530" lon="-5.5321960">
        <ele>916.4</ele>
        <time>2021-10-02T12:05:10Z</time>
      </trkpt>
      <trkpt lat="42.5742520" lon="-5.5325600">
        <ele>915.6</ele>
        <time>2021-10-02T12:05:15Z</time>
      </trkpt>
      <trkpt lat="42.5743000" lon="-5.5327770">
        <ele>915.2</ele>
        <time>2021-10-02T12:05:18Z</time>
      </trkpt>
      <trkpt lat="42.5743530" lon="-5.5330090">
        <ele>915.0</ele>
        <time>2021-10-02T12:05:21Z</time>
      </trkpt>
      <trkpt lat="42.5743890" lon="-5.5331850">
        <ele>915.0</ele>
        <time>2021-10-02T12:05:23Z</time>
      </trkpt>
      <trkpt lat="42.5744370" lon="-5.5334730">
        <ele>915.0</ele>
        <time>2021-10-02T12:05:26Z</time>
      </trkpt>
      <trkpt lat="42.5744510" lon="-5.5335700">
        <ele>915.0</ele>
        <time>2021-10-02T12:05:27Z</time>
      </trkpt>
      <trkpt lat="42.5744510" lon="-5.5337740">
        <ele>914.0</ele>
        <time>2021-10-02T12:05:29Z</time>
      </trkpt>
      <trkpt lat="42.5744520" lon="-5.5338780">
        <ele>913.2</ele>
        <time>2021-10-02T12:05:30Z</time>
      </trkpt>
      <trkpt lat="42.5744610" lon="-5.5339830">
        <ele>912.6</ele>
        <time>2021-10-02T12:05:31Z</time>
      </trkpt>
      <trkpt lat="42.5744890" lon="-5.5342010">
        <ele>911.4</ele>
        <time>2021-10-02T12:05:33Z</time>
      </trkpt>
      <trkpt lat="42.5745060" lon="-5.5343120">
        <ele>910.4</ele>
        <time>2021-10-02T12:05:34Z</time>
      </trkpt>
      <trkpt lat="42.5745240" lon="-5.5344250">
        <ele>909.4</ele>
        <time>2021-10-02T12:05:35Z</time>
      </trkpt>
      <trkpt lat="42.5745570" lon="-5.5346490">
        <ele>907.8</ele>
        <time>2021-10-02T12:05:37Z</time>
      </trkpt>
      <trkpt lat="42.5745860" lon="-5.5348630">
        <ele>906.2</ele>
        <time>2021-10-02T12:05:39Z</time>
      </trkpt>
      <trkpt lat="42.5746130" lon="-5.5350730">
        <ele>904.6</ele>
        <time>2021-10-02T12:05:41Z</time>
      </trkpt>
      <trkpt lat="42.5746420" lon="-5.5352620">
        <ele>903.2</ele>
        <time>2021-10-02T12:05:43Z</time>
      </trkpt>
      <trkpt lat="42.5747000" lon="-5.5354360">
        <ele>901.6</ele>
        <time>2021-10-02T12:05:45Z</time>
      </trkpt>
      <trkpt lat="42.5747360" lon="-5.5356300">
        <ele>899.8</ele>
        <time>2021-10-02T12:05:47Z</time>
      </trkpt>
      <trkpt lat="42.5747450" lon="-5.5359300">
        <ele>898.8</ele>
        <time>2021-10-02T12:05:50Z</time>
      </trkpt>
      <trkpt lat="42.5747490" lon="-5.5360260">
        <ele>898.0</ele>
        <time>2021-10-02T12:05:51Z</time>
      </trkpt>
      <trkpt lat="42.5747590" lon="-5.5361210">
        <ele>897.0</ele>
        <time>2021-10-02T12:05:52Z</time>
      </trkpt>
      <trkpt lat="42.5747860" lon="-5.5363030">
        <ele>895.4</ele>
        <time>2021-10-02T12:05:54Z</time>
      </trkpt>
      <trkpt lat="42.5748080" lon="-5.5364890">
        <ele>894.2</ele>
        <time>2021-10-02T12:05:56Z</time>
      </trkpt>
      <trkpt lat="42.5748320" lon="-5.5366920">
        <ele>893.6</ele>
        <time>2021-10-02T12:05:58Z</time>
      </trkpt>
      <trkpt lat="42.5748580" lon="-5.5369010">
        <ele>893.0</ele>
        <time>2021-10-02T12:06:00Z</time>
      </trkpt>
      <trkpt lat="42.5749110" lon="-5.5373240">
        <ele>891.4</ele>
        <time>2021-10-02T12:06:04Z</time>
      </trkpt>
      <trkpt lat="42.5749400" lon="-5.5375380">
        <ele>890.2</ele>
        <time>2021-10-02T12:06:06Z</time>
      </trkpt>
      <trkpt lat="42.5749550" lon="-5.5377540">
        <ele>889.4</ele>
        <time>2021-10-02T12:06:08Z</time>
      </trkpt>
      <trkpt lat="42.5749520" lon="-5.5378630">
        <ele>889.0</ele>
        <time>2021-10-02T12:06:09Z</time>
      </trkpt>
      <trkpt lat="42.5749110" lon="-5.5382620">
        <ele>887.8</ele>
        <time>2021-10-02T12:06:13Z</time>
      </trkpt>
      <trkpt lat="42.5748820" lon="-5.5385120">
        <ele>887.6</ele>
        <time>2021-10-02T12:06:17Z</time>
      </trkpt>
      <trkpt lat="42.5749300" lon="-5.5386060">
        <ele>887.6</ele>
        <time>2021-10-02T12:06:19Z</time>
      </trkpt>
      <trkpt lat="42.5749830" lon="-5.5387070">
        <ele>887.2</ele>
        <time>2021-10-02T12:06:21Z</time>
      </trkpt>
      <trkpt lat="42.5750060" lon="-5.5388430">
        <ele>887.2</ele>
        <time>2021-10-02T12:06:23Z</time>
      </trkpt>
      <trkpt lat="42.5750190" lon="-5.5389140">
        <ele>887.2</ele>
        <time>2021-10-02T12:06:24Z</time>
      </trkpt>
      <trkpt lat="42.5751050" lon="-5.5390920">
        <ele>887.0</ele>
        <time>2021-10-02T12:06:27Z</time>
      </trkpt>
      <trkpt lat="42.5751430" lon="-5.5391490">
        <ele>887.0</ele>
        <time>2021-10-02T12:06:28Z</time>
      </trkpt>
      <trkpt lat="42.5752390" lon="-5.5393370">
        <ele>886.8</ele>
        <time>2021-10-02T12:06:31Z</time>
      </trkpt>
      <trkpt lat="42.5752630" lon="-5.5394060">
        <ele>886.8</ele>
        <time>2021-10-02T12:06:32Z</time>
      </trkpt>
      <trkpt lat="42.5753770" lon="-5.5399500">
        <ele>885.8</ele>
        <time>2021-10-02T12:06:39Z</time>
      </trkpt>
      <trkpt lat="42.5755090" lon="-5.5404990">
        <ele>885.2</ele>
        <time>2021-10-02T12:06:45Z</time>
      </trkpt>
      <trkpt lat="42.5755360" lon="-5.5405940">
        <ele>884.8</ele>
        <time>2021-10-02T12:06:46Z</time>
      </trkpt>
      <trkpt lat="42.5755830" lon="-5.5407740">
        <ele>883.6</ele>
        <time>2021-10-02T12:06:48Z</time>
      </trkpt>
      <trkpt lat="42.5756000" lon="-5.5408640">
        <ele>883.2</ele>
        <time>2021-10-02T12:06:49Z</time>
      </trkpt>
      <trkpt lat="42.5756140" lon="-5.5409540">
        <ele>882.6</ele>
        <time>2021-10-02T12:06:50Z</time>
      </trkpt>
      <trkpt lat="42.5756520" lon="-5.5411160">
        <ele>881.4</ele>
        <time>2021-10-02T12:06:52Z</time>
      </trkpt>
      <trkpt lat="42.5757010" lon="-5.5412550">
        <ele>880.2</ele>
        <time>2021-10-02T12:06:54Z</time>
      </trkpt>
      <trkpt lat="42.5758060" lon="-5.5415350">
        <ele>879.0</ele>
        <time>2021-10-02T12:06:58Z</time>
      </trkpt>
      <trkpt lat="42.5759440" lon="-5.5418530">
        <ele>878.2</ele>
        <time>2021-10-02T12:07:02Z</time>
      </trkpt>
      <trkpt lat="42.5759800" lon="-5.5419370">
        <ele>878.0</ele>
        <time>2021-10-02T12:07:03Z</time>
      </trkpt>
      <trkpt lat="42.5760940" lon="-5.5421870">
        <ele>876.2</ele>
        <time>2021-10-02T12:07:06Z</time>
      </trkpt>
      <trkpt lat="42.5761750" lon="-5.5423530">
        <ele>874.4</ele>
        <time>2021-10-02T12:07:08Z</time>
      </trkpt>
      <trkpt lat="42.5762580" lon="-5.5425160">
        <ele>873.2</ele>
        <time>2021-10-02T12:07:10Z</time>
      </trkpt>
      <trkpt lat="42.5763350" lon="-5.5426830">
        <ele>872.2</ele>
        <time>2021-10-02T12:07:12Z</time>
      </trkpt>
      <trkpt lat="42.5764230" lon="-5.5429480">
        <ele>871.0</ele>
        <time>2021-10-02T12:07:15Z</time>
      </trkpt>
      <trkpt lat="42.5764800" lon="-5.5431240">
        <ele>870.6</ele>
        <time>2021-10-02T12:07:17Z</time>
      </trkpt>
      <trkpt lat="42.5765740" lon="-5.5433740">
        <ele>869.8</ele>
        <time>2021-10-02T12:07:20Z</time>
      </trkpt>
      <trkpt lat="42.5765840" lon="-5.5436240">
        <ele>868.8</ele>
        <time>2021-10-02T12:07:23Z</time>
      </trkpt>
      <trkpt lat="42.5765680" lon="-5.5437600">
        <ele>868.4</ele>
        <time>2021-10-02T12:07:25Z</time>
      </trkpt>
      <trkpt lat="42.5766230" lon="-5.5439190">
        <ele>868.2</ele>
        <time>2021-10-02T12:07:29Z</time>
      </trkpt>
      <trkpt lat="42.5767190" lon="-5.5440320">
        <ele>867.8</ele>
        <time>2021-10-02T12:07:32Z</time>
      </trkpt>
      <trkpt lat="42.5768620" lon="-5.5440520">
        <ele>867.8</ele>
        <time>2021-10-02T12:07:36Z</time>
      </trkpt>
      <trkpt lat="42.5769580" lon="-5.5441480">
        <ele>867.8</ele>
        <time>2021-10-02T12:07:39Z</time>
      </trkpt>
      <trkpt lat="42.5769870" lon="-5.5442000">
        <ele>867.6</ele>
        <time>2021-10-02T12:07:40Z</time>
      </trkpt>
      <trkpt lat="42.5770510" lon="-5.5443060">
        <ele>867.4</ele>
        <time>2021-10-02T12:07:42Z</time>
      </trkpt>
      <trkpt lat="42.5771170" lon="-5.5444180">
        <ele>867.2</ele>
        <time>2021-10-02T12:07:44Z</time>
      </trkpt>
      <trkpt lat="42.5772120" lon="-5.5446030">
        <ele>866.6</ele>
        <time>2021-10-02T12:07:47Z</time>
      </trkpt>
      <trkpt lat="42.5773340" lon="-5.5447520">
        <ele>865.4</ele>
        <time>2021-10-02T12:07:50Z</time>
      </trkpt>
      <trkpt lat="42.5774490" lon="-5.5449420">
        <ele>864.0</ele>
        <time>2021-10-02T12:07:53Z</time>
      </trkpt>
      <trkpt lat="42.5776050" lon="-5.5452340">
        <ele>863.0</ele>
        <time>2021-10-02T12:07:57Z</time>
      </trkpt>
      <trkpt lat="42.5778160" lon="-5.5456650">
        <ele>861.8</ele>
        <time>2021-10-02T12:08:02Z</time>
      </trkpt>
      <trkpt lat="42.5779060" lon="-5.5458570">
        <ele>860.4</ele>
        <time>2021-10-02T12:08:04Z</time>
      </trkpt>
      <trkpt lat="42.5780440" lon="-5.5461510">
        <ele>859.0</ele>
        <time>2021-10-02T12:08:07Z</time>
      </trkpt>
      <trkpt lat="42.5781880" lon="-5.5464460">
        <ele>857.8</ele>
        <time>2021-10-02T12:08:10Z</time>
      </trkpt>
      <trkpt lat="42.5782830" lon="-5.5466470">
        <ele>857.0</ele>
        <time>2021-10-02T12:08:12Z</time>
      </trkpt>
      <trkpt lat="42.5783290" lon="-5.5467490">
        <ele>856.6</ele>
        <time>2021-10-02T12:08:13Z</time>
      </trkpt>
      <trkpt lat="42.5784210" lon="-5.5469550">
        <ele>855.2</ele>
        <time>2021-10-02T12:08:15Z</time>
      </trkpt>
      <trkpt lat="42.5785170" lon="-5.5471580">
        <ele>854.2</ele>
        <time>2021-10-02T12:08:17Z</time>
      </trkpt>
      <trkpt lat="42.5786550" lon="-5.5474590">
        <ele>853.0</ele>
        <time>2021-10-02T12:08:20Z</time>
      </trkpt>
      <trkpt lat="42.5788820" lon="-5.5479380">
        <ele>851.8</ele>
        <time>2021-10-02T12:08:25Z</time>
      </trkpt>
      <trkpt lat="42.5791040" lon="-5.5483870">
        <ele>850.8</ele>
        <time>2021-10-02T12:08:30Z</time>
      </trkpt>
      <trkpt lat="42.5791490" lon="-5.5484760">
        <ele>850.6</ele>
        <time>2021-10-02T12:08:31Z</time>
      </trkpt>
      <trkpt lat="42.5791960" lon="-5.5485690">
        <ele>850.6</ele>
        <time>2021-10-02T12:08:32Z</time>
      </trkpt>
      <trkpt lat="42.5792880" lon="-5.5487570">
        <ele>850.2</ele>
        <time>2021-10-02T12:08:34Z</time>
      </trkpt>
      <trkpt lat="42.5793730" lon="-5.5489470">
        <ele>849.8</ele>
        <time>2021-10-02T12:08:36Z</time>
      </trkpt>
      <trkpt lat="42.5794170" lon="-5.5490420">
        <ele>849.6</ele>
        <time>2021-10-02T12:08:37Z</time>
      </trkpt>
      <trkpt lat="42.5795100" lon="-5.5492300">
        <ele>848.6</ele>
        <time>2021-10-02T12:08:39Z</time>
      </trkpt>
      <trkpt lat="42.5795560" lon="-5.5493260">
        <ele>848.2</ele>
        <time>2021-10-02T12:08:40Z</time>
      </trkpt>
      <trkpt lat="42.5797760" lon="-5.5498000">
        <ele>847.0</ele>
        <time>2021-10-02T12:08:45Z</time>
      </trkpt>
      <trkpt lat="42.5799090" lon="-5.5500750">
        <ele>846.8</ele>
        <time>2021-10-02T12:08:48Z</time>
      </trkpt>
      <trkpt lat="42.5802300" lon="-5.5507300">
        <ele>846.0</ele>
        <time>2021-10-02T12:08:55Z</time>
      </trkpt>
      <trkpt lat="42.5802740" lon="-5.5508240">
        <ele>846.0</ele>
        <time>2021-10-02T12:08:56Z</time>
      </trkpt>
      <trkpt lat="42.5805300" lon="-5.5513870">
        <ele>845.4</ele>
        <time>2021-10-02T12:09:02Z</time>
      </trkpt>
      <trkpt lat="42.5806170" lon="-5.5515730">
        <ele>845.0</ele>
        <time>2021-10-02T12:09:04Z</time>
      </trkpt>
      <trkpt lat="42.5807870" lon="-5.5519490">
        <ele>844.0</ele>
        <time>2021-10-02T12:09:08Z</time>
      </trkpt>
      <trkpt lat="42.5808670" lon="-5.5521390">
        <ele>843.8</ele>
        <time>2021-10-02T12:09:10Z</time>
      </trkpt>
      <trkpt lat="42.5809290" lon="-5.5523420">
        <ele>843.2</ele>
        <time>2021-10-02T12:09:12Z</time>
      </trkpt>
      <trkpt lat="42.5809670" lon="-5.5525550">
        <ele>842.8</ele>
        <time>2021-10-02T12:09:14Z</time>
      </trkpt>
      <trkpt lat="42.5810090" lon="-5.5530240">
        <ele>841.8</ele>
        <time>2021-10-02T12:09:18Z</time>
      </trkpt>
      <trkpt lat="42.5810550" lon="-5.5533790">
        <ele>840.4</ele>
        <time>2021-10-02T12:09:21Z</time>
      </trkpt>
      <trkpt lat="42.5811300" lon="-5.5537000">
        <ele>839.0</ele>
        <time>2021-10-02T12:09:24Z</time>
      </trkpt>
      <trkpt lat="42.5811880" lon="-5.5538930">
        <ele>837.8</ele>
        <time>2021-10-02T12:09:26Z</time>
      </trkpt>
      <trkpt lat="42.5812800" lon="-5.5541630">
        <ele>836.6</ele>
        <time>2021-10-02T12:09:29Z</time>
      </trkpt>
      <trkpt lat="42.5814160" lon="-5.5546670">
        <ele>836.2</ele>
        <time>2021-10-02T12:09:36Z</time>
      </trkpt>
      <trkpt lat="42.5814120" lon="-5.5546980">
        <ele>836.2</ele>
        <time>2021-10-02T12:09:37Z</time>
      </trkpt>
      <trkpt lat="42.5813970" lon="-5.5548030">
        <ele>836.2</ele>
        <time>2021-10-02T12:09:40Z</time>
      </trkpt>
      <trkpt lat="42.5814070" lon="-5.5549140">
        <ele>836.8</ele>
        <time>2021-10-02T12:09:42Z</time>
      </trkpt>
      <trkpt lat="42.5814180" lon="-5.5549670">
        <ele>837.6</ele>
        <time>2021-10-02T12:09:43Z</time>
      </trkpt>
      <trkpt lat="42.5814500" lon="-5.5550560">
        <ele>838.4</ele>
        <time>2021-10-02T12:09:45Z</time>
      </trkpt>
      <trkpt lat="42.5814810" lon="-5.5551590">
        <ele>838.6</ele>
        <time>2021-10-02T12:09:47Z</time>
      </trkpt>
      <trkpt lat="42.5815330" lon="-5.5553550">
        <ele>838.6</ele>
        <time>2021-10-02T12:09:50Z</time>
      </trkpt>
      <trkpt lat="42.5815810" lon="-5.5554760">
        <ele>838.8</ele>
        <time>2021-10-02T12:09:52Z</time>
      </trkpt>
      <trkpt lat="42.5816560" lon="-5.5556400">
        <ele>839.2</ele>
        <time>2021-10-02T12:09:55Z</time>
      </trkpt>
      <trkpt lat="42.5817340" lon="-5.5557990">
        <ele>839.2</ele>
        <time>2021-10-02T12:09:58Z</time>
      </trkpt>
      <trkpt lat="42.5818370" lon="-5.5559910">
        <ele>839.8</ele>
        <time>2021-10-02T12:10:02Z</time>
      </trkpt>
      <trkpt lat="42.5819120" lon="-5.5561430">
        <ele>840.0</ele>
        <time>2021-10-02T12:10:05Z</time>
      </trkpt>
      <trkpt lat="42.5819840" lon="-5.5562890">
        <ele>840.2</ele>
        <time>2021-10-02T12:10:08Z</time>
      </trkpt>
      <trkpt lat="42.5820120" lon="-5.5563410">
        <ele>840.2</ele>
        <time>2021-10-02T12:10:09Z</time>
      </trkpt>
      <trkpt lat="42.5821320" lon="-5.5564830">
        <ele>840.0</ele>
        <time>2021-10-02T12:10:12Z</time>
      </trkpt>
      <trkpt lat="42.5825720" lon="-5.5566550">
        <ele>839.2</ele>
        <time>2021-10-02T12:10:24Z</time>
      </trkpt>
      <trkpt lat="42.5826210" lon="-5.5565770">
        <ele>839.2</ele>
        <time>2021-10-02T12:10:26Z</time>
      </trkpt>
      <trkpt lat="42.5827230" lon="-5.5564630">
        <ele>839.4</ele>
        <time>2021-10-02T12:10:30Z</time>
      </trkpt>
      <trkpt lat="42.5828240" lon="-5.5565210">
        <ele>839.6</ele>
        <time>2021-10-02T12:10:34Z</time>
      </trkpt>
      <trkpt lat="42.5830940" lon="-5.5568580">
        <ele>841.0</ele>
        <time>2021-10-02T12:10:43Z</time>
      </trkpt>
      <trkpt lat="42.5831300" lon="-5.5568980">
        <ele>841.0</ele>
        <time>2021-10-02T12:10:44Z</time>
      </trkpt>
      <trkpt lat="42.5832070" lon="-5.5569600">
        <ele>841.2</ele>
        <time>2021-10-02T12:10:46Z</time>
      </trkpt>
      <trkpt lat="42.5833730" lon="-5.5570840">
        <ele>841.2</ele>
        <time>2021-10-02T12:10:50Z</time>
      </trkpt>
      <trkpt lat="42.5834110" lon="-5.5571280">
        <ele>841.2</ele>
        <time>2021-10-02T12:10:51Z</time>
      </trkpt>
      <trkpt lat="42.5835270" lon="-5.5572760">
        <ele>841.0</ele>
        <time>2021-10-02T12:10:54Z</time>
      </trkpt>
      <trkpt lat="42.5835710" lon="-5.5573160">
        <ele>841.0</ele>
        <time>2021-10-02T12:10:55Z</time>
      </trkpt>
      <trkpt lat="42.5839310" lon="-5.5576170">
        <ele>840.6</ele>
        <time>2021-10-02T12:11:03Z</time>
      </trkpt>
      <trkpt lat="42.5840220" lon="-5.5576760">
        <ele>840.6</ele>
        <time>2021-10-02T12:11:05Z</time>
      </trkpt>
      <trkpt lat="42.5842350" lon="-5.5578660">
        <ele>840.6</ele>
        <time>2021-10-02T12:11:10Z</time>
      </trkpt>
      <trkpt lat="42.5846150" lon="-5.5582250">
        <ele>840.6</ele>
        <time>2021-10-02T12:11:19Z</time>
      </trkpt>
      <trkpt lat="42.5850460" lon="-5.5586470">
        <ele>840.8</ele>
        <time>2021-10-02T12:11:30Z</time>
      </trkpt>
      <trkpt lat="42.5851860" lon="-5.5587350">
        <ele>840.8</ele>
        <time>2021-10-02T12:11:33Z</time>
      </trkpt>
      <trkpt lat="42.5852300" lon="-5.5587740">
        <ele>841.0</ele>
        <time>2021-10-02T12:11:34Z</time>
      </trkpt>
      <trkpt lat="42.5854370" lon="-5.5589630">
        <ele>841.0</ele>
        <time>2021-10-02T12:11:39Z</time>
      </trkpt>
      <trkpt lat="42.5856190" lon="-5.5591740">
        <ele>841.0</ele>
        <time>2021-10-02T12:11:44Z</time>
      </trkpt>
      <trkpt lat="42.5857020" lon="-5.5592580">
        <ele>841.0</ele>
        <time>2021-10-02T12:11:46Z</time>
      </trkpt>
      <trkpt lat="42.5858410" lon="-5.5593570">
        <ele>841.2</ele>
        <time>2021-10-02T12:11:49Z</time>
      </trkpt>
      <trkpt lat="42.5861490" lon="-5.5596330">
        <ele>841.6</ele>
        <time>2021-10-02T12:11:56Z</time>
      </trkpt>
      <trkpt lat="42.5863390" lon="-5.5598410">
        <ele>841.8</ele>
        <time>2021-10-02T12:12:01Z</time>
      </trkpt>
      <trkpt lat="42.5864720" lon="-5.5599810">
        <ele>841.8</ele>
        <time>2021-10-02T12:12:05Z</time>
      </trkpt>
      <trkpt lat="42.5869440" lon="-5.5604220">
        <ele>842.0</ele>
        <time>2021-10-02T12:12:19Z</time>
      </trkpt>
      <trkpt lat="42.5870710" lon="-5.5605740">
        <ele>842.0</ele>
        <time>2021-10-02T12:12:23Z</time>
      </trkpt>
      <trkpt lat="42.5871900" lon="-5.5608190">
        <ele>841.8</ele>
        <time>2021-10-02T12:12:28Z</time>
      </trkpt>
      <trkpt lat="42.5872230" lon="-5.5609300">
        <ele>841.8</ele>
        <time>2021-10-02T12:12:30Z</time>
      </trkpt>
      <trkpt lat="42.5872500" lon="-5.5610930">
        <ele>841.8</ele>
        <time>2021-10-02T12:12:33Z</time>
      </trkpt>
      <trkpt lat="42.5872780" lon="-5.5612230">
        <ele>841.6</ele>
        <time>2021-10-02T12:12:36Z</time>
      </trkpt>
      <trkpt lat="42.5873020" lon="-5.5612580">
        <ele>841.6</ele>
        <time>2021-10-02T12:12:38Z</time>
      </trkpt>
      <trkpt lat="42.5873070" lon="-5.5612760">
        <ele>841.6</ele>
        <time>2021-10-02T12:12:40Z</time>
      </trkpt>
      <trkpt lat="42.5873970" lon="-5.5612670">
        <ele>841.8</ele>
        <time>2021-10-02T12:12:46Z</time>
      </trkpt>
      <trkpt lat="42.5874400" lon="-5.5611550">
        <ele>842.2</ele>
        <time>2021-10-02T12:12:49Z</time>
      </trkpt>
      <trkpt lat="42.5877000" lon="-5.5609690">
        <ele>842.2</ele>
        <time>2021-10-02T12:13:01Z</time>
      </trkpt>
      <trkpt lat="42.5877890" lon="-5.5609790">
        <ele>842.0</ele>
        <time>2021-10-02T12:13:03Z</time>
      </trkpt>
      <trkpt lat="42.5879570" lon="-5.5610950">
        <ele>842.0</ele>
        <time>2021-10-02T12:13:06Z</time>
      </trkpt>
      <trkpt lat="42.5881260" lon="-5.5612440">
        <ele>842.0</ele>
        <time>2021-10-02T12:13:09Z</time>
      </trkpt>
      <trkpt lat="42.5886070" lon="-5.5616200">
        <ele>841.2</ele>
        <time>2021-10-02T12:13:18Z</time>
      </trkpt>
      <trkpt lat="42.5891050" lon="-5.5619830">
        <ele>841.6</ele>
        <time>2021-10-02T12:13:28Z</time>
      </trkpt>
      <trkpt lat="42.5895120" lon="-5.5622870">
        <ele>842.0</ele>
        <time>2021-10-02T12:13:36Z</time>
      </trkpt>
      <trkpt lat="42.5896800" lon="-5.5624040">
        <ele>842.0</ele>
        <time>2021-10-02T12:13:39Z</time>
      </trkpt>
      <trkpt lat="42.5901970" lon="-5.5627840">
        <ele>842.2</ele>
        <time>2021-10-02T12:13:49Z</time>
      </trkpt>
      <trkpt lat="42.5902830" lon="-5.5628530">
        <ele>842.6</ele>
        <time>2021-10-02T12:13:51Z</time>
      </trkpt>
      <trkpt lat="42.5903990" lon="-5.5629430">
        <ele>842.8</ele>
        <time>2021-10-02T12:13:54Z</time>
      </trkpt>
      <trkpt lat="42.5905420" lon="-5.5630780">
        <ele>843.4</ele>
        <time>2021-10-02T12:14:00Z</time>
      </trkpt>
      <trkpt lat="42.5905680" lon="-5.5631000">
        <ele>843.6</ele>
        <time>2021-10-02T12:14:01Z</time>
      </trkpt>
      <trkpt lat="42.5906160" lon="-5.5631410">
        <ele>844.6</ele>
        <time>2021-10-02T12:14:03Z</time>
      </trkpt>
      <trkpt lat="42.5919960" lon="-5.5641470">
        <ele>847.8</ele>
        <time>2021-10-02T12:16:16Z</time>
      </trkpt>
      <trkpt lat="42.5920150" lon="-5.5641510">
        <ele>847.8</ele>
        <time>2021-10-02T12:16:17Z</time>
      </trkpt>
      <trkpt lat="42.5922560" lon="-5.5642020">
        <ele>847.6</ele>
        <time>2021-10-02T12:16:22Z</time>
      </trkpt>
      <trkpt lat="42.5928230" lon="-5.5643360">
        <ele>847.0</ele>
        <time>2021-10-02T12:16:34Z</time>
      </trkpt>
      <trkpt lat="42.5932850" lon="-5.5644660">
        <ele>847.4</ele>
        <time>2021-10-02T12:16:45Z</time>
      </trkpt>
      <trkpt lat="42.5932900" lon="-5.5644960">
        <ele>847.4</ele>
        <time>2021-10-02T12:16:47Z</time>
      </trkpt>
      <trkpt lat="42.5932440" lon="-5.5645090">
        <ele>847.6</ele>
        <time>2021-10-02T12:16:49Z</time>
      </trkpt>
      <trkpt lat="42.5931450" lon="-5.5646950">
        <ele>848.0</ele>
        <time>2021-10-02T12:16:56Z</time>
      </trkpt>
      <trkpt lat="42.5930890" lon="-5.5649450">
        <ele>848.0</ele>
        <time>2021-10-02T12:17:02Z</time>
      </trkpt>
      <trkpt lat="42.5929980" lon="-5.5652550">
        <ele>848.2</ele>
        <time>2021-10-02T12:17:11Z</time>
      </trkpt>
      <trkpt lat="42.5930110" lon="-5.5653780">
        <ele>848.4</ele>
        <time>2021-10-02T12:17:15Z</time>
      </trkpt>
      <trkpt lat="42.5930800" lon="-5.5654290">
        <ele>848.4</ele>
        <time>2021-10-02T12:17:17Z</time>
      </trkpt>
      <trkpt lat="42.5931740" lon="-5.5654860">
        <ele>848.4</ele>
        <time>2021-10-02T12:17:19Z</time>
      </trkpt>
      <trkpt lat="42.5932770" lon="-5.5655420">
        <ele>848.4</ele>
        <time>2021-10-02T12:17:21Z</time>
      </trkpt>
      <trkpt lat="42.5933350" lon="-5.5655700">
        <ele>848.4</ele>
        <time>2021-10-02T12:17:22Z</time>
      </trkpt>
      <trkpt lat="42.5938980" lon="-5.5657700">
        <ele>847.6</ele>
        <time>2021-10-02T12:17:32Z</time>
      </trkpt>
      <trkpt lat="42.5944810" lon="-5.5659420">
        <ele>848.2</ele>
        <time>2021-10-02T12:17:42Z</time>
      </trkpt>
      <trkpt lat="42.5947640" lon="-5.5660240">
        <ele>848.4</ele>
        <time>2021-10-02T12:17:47Z</time>
      </trkpt>
      <trkpt lat="42.5949600" lon="-5.5660780">
        <ele>848.8</ele>
        <time>2021-10-02T12:17:50Z</time>
      </trkpt>
      <trkpt lat="42.5951360" lon="-5.5661670">
        <ele>849.0</ele>
        <time>2021-10-02T12:17:53Z</time>
      </trkpt>
      <trkpt lat="42.5952350" lon="-5.5662520">
        <ele>849.2</ele>
        <time>2021-10-02T12:17:55Z</time>
      </trkpt>
      <trkpt lat="42.5953510" lon="-5.5664150">
        <ele>849.2</ele>
        <time>2021-10-02T12:17:58Z</time>
      </trkpt>
      <trkpt lat="42.5954760" lon="-5.5665330">
        <ele>849.2</ele>
        <time>2021-10-02T12:18:01Z</time>
      </trkpt>
      <trkpt lat="42.5956120" lon="-5.5666420">
        <ele>849.4</ele>
        <time>2021-10-02T12:18:05Z</time>
      </trkpt>
      <trkpt lat="42.5957550" lon="-5.5665340">
        <ele>850.0</ele>
        <time>2021-10-02T12:18:09Z</time>
      </trkpt>
      <trkpt lat="42.5959340" lon="-5.5663580">
        <ele>851.2</ele>
        <time>2021-10-02T12:18:13Z</time>
      </trkpt>
      <trkpt lat="42.5961030" lon="-5.5661700">
        <ele>851.2</ele>
        <time>2021-10-02T12:18:17Z</time>
      </trkpt>
      <trkpt lat="42.5962260" lon="-5.5660330">
        <ele>851.4</ele>
        <time>2021-10-02T12:18:20Z</time>
      </trkpt>
      <trkpt lat="42.5963670" lon="-5.5658740">
        <ele>851.4</ele>
        <time>2021-10-02T12:18:24Z</time>
      </trkpt>
      <trkpt lat="42.5964290" lon="-5.5658090">
        <ele>851.6</ele>
        <time>2021-10-02T12:18:26Z</time>
      </trkpt>
      <trkpt lat="42.5964590" lon="-5.5657870">
        <ele>851.6</ele>
        <time>2021-10-02T12:18:27Z</time>
      </trkpt>
      <trkpt lat="42.5966370" lon="-5.5657440">
        <ele>852.0</ele>
        <time>2021-10-02T12:18:34Z</time>
      </trkpt>
      <trkpt lat="42.5966630" lon="-5.5657440">
        <ele>852.2</ele>
        <time>2021-10-02T12:18:36Z</time>
      </trkpt>
      <trkpt lat="42.5968120" lon="-5.5657330">
        <ele>853.0</ele>
        <time>2021-10-02T12:18:55Z</time>
      </trkpt>
      <trkpt lat="42.5969010" lon="-5.5657380">
        <ele>853.0</ele>
        <time>2021-10-02T12:18:57Z</time>
      </trkpt>
      <trkpt lat="42.5971830" lon="-5.5657560">
        <ele>853.0</ele>
        <time>2021-10-02T12:19:02Z</time>
      </trkpt>
      <trkpt lat="42.5972450" lon="-5.5657630">
        <ele>852.8</ele>
        <time>2021-10-02T12:19:03Z</time>
      </trkpt>
      <trkpt lat="42.5973720" lon="-5.5657680">
        <ele>852.8</ele>
        <time>2021-10-02T12:19:05Z</time>
      </trkpt>
      <trkpt lat="42.5975480" lon="-5.5657540">
        <ele>853.0</ele>
        <time>2021-10-02T12:19:08Z</time>
      </trkpt>
      <trkpt lat="42.5977180" lon="-5.5657440">
        <ele>853.0</ele>
        <time>2021-10-02T12:19:11Z</time>
      </trkpt>
      <trkpt lat="42.5977640" lon="-5.5657480">
        <ele>853.0</ele>
        <time>2021-10-02T12:19:12Z</time>
      </trkpt>
      <trkpt lat="42.5979080" lon="-5.5658260">
        <ele>853.2</ele>
        <time>2021-10-02T12:19:17Z</time>
      </trkpt>
      <trkpt lat="42.5979530" lon="-5.5658440">
        <ele>854.2</ele>
        <time>2021-10-02T12:19:20Z</time>
      </trkpt>
      <trkpt lat="42.5980110" lon="-5.5658510">
        <ele>855.2</ele>
        <time>2021-10-02T12:19:22Z</time>
      </trkpt>
      <trkpt lat="42.5981360" lon="-5.5658830">
        <ele>856.4</ele>
        <time>2021-10-02T12:19:26Z</time>
      </trkpt>
      <trkpt lat="42.5984060" lon="-5.5658640">
        <ele>857.4</ele>
        <time>2021-10-02T12:19:35Z</time>
      </trkpt>
      <trkpt lat="42.5985900" lon="-5.5658780">
        <ele>858.2</ele>
        <time>2021-10-02T12:19:41Z</time>
      </trkpt>
      <trkpt lat="42.5986460" lon="-5.5658930">
        <ele>858.6</ele>
        <time>2021-10-02T12:19:43Z</time>
      </trkpt>
      <trkpt lat="42.5987760" lon="-5.5658920">
        <ele>858.8</ele>
        <time>2021-10-02T12:19:48Z</time>
      </trkpt>
      <trkpt lat="42.5988910" lon="-5.5658840">
        <ele>859.4</ele>
        <time>2021-10-02T12:19:52Z</time>
      </trkpt>
      <trkpt lat="42.5990010" lon="-5.5658900">
        <ele>859.8</ele>
        <time>2021-10-02T12:19:56Z</time>
      </trkpt>
      <trkpt lat="42.5990390" lon="-5.5660240">
        <ele>860.4</ele>
        <time>2021-10-02T12:20:01Z</time>
      </trkpt>
      <trkpt lat="42.5990370" lon="-5.5660550">
        <ele>860.6</ele>
        <time>2021-10-02T12:20:02Z</time>
      </trkpt>
      <trkpt lat="42.5990360" lon="-5.5660880">
        <ele>860.8</ele>
        <time>2021-10-02T12:20:03Z</time>
      </trkpt>
      <trkpt lat="42.5990260" lon="-5.5661910">
        <ele>861.6</ele>
        <time>2021-10-02T12:20:06Z</time>
      </trkpt>
      <trkpt lat="42.5989810" lon="-5.5663800">
        <ele>862.4</ele>
        <time>2021-10-02T12:20:12Z</time>
      </trkpt>
      <trkpt lat="42.5989470" lon="-5.5664560">
        <ele>862.6</ele>
        <time>2021-10-02T12:20:15Z</time>
      </trkpt>
      <trkpt lat="42.5989270" lon="-5.5665650">
        <ele>863.2</ele>
        <time>2021-10-02T12:20:20Z</time>
      </trkpt>
      <trkpt lat="42.5990120" lon="-5.5666610">
        <ele>863.8</ele>
        <time>2021-10-02T12:20:26Z</time>
      </trkpt>
      <trkpt lat="42.5990910" lon="-5.5668120">
        <ele>863.8</ele>
        <time>2021-10-02T12:20:33Z</time>
      </trkpt>
      <trkpt lat="42.5990700" lon="-5.5668650">
        <ele>863.8</ele>
        <time>2021-10-02T12:20:36Z</time>
      </trkpt>
      <trkpt lat="42.5990700" lon="-5.5668650">
        <ele>864.0</ele>
        <time>2021-10-02T12:20:37Z</time>
      </trkpt>
      <trkpt lat="42.6014630" lon="-5.5822490">
        <ele>828.8</ele>
        <time>2021-10-03T09:45:45Z</time>
      </trkpt>
      <trkpt lat="42.6014720" lon="-5.5822580">
        <ele>829.0</ele>
        <time>2021-10-03T09:45:46Z</time>
      </trkpt>
      <trkpt lat="42.6014800" lon="-5.5822770">
        <ele>828.6</ele>
        <time>2021-10-03T09:45:47Z</time>
      </trkpt>
      <trkpt lat="42.6014850" lon="-5.5823330">
        <ele>828.6</ele>
        <time>2021-10-03T09:45:49Z</time>
      </trkpt>
      <trkpt lat="42.6014610" lon="-5.5824460">
        <ele>828.4</ele>
        <time>2021-10-03T09:45:52Z</time>
      </trkpt>
      <trkpt lat="42.6013290" lon="-5.5828400">
        <ele>828.8</ele>
        <time>2021-10-03T09:46:01Z</time>
      </trkpt>
      <trkpt lat="42.6013150" lon="-5.5828850">
        <ele>828.8</ele>
        <time>2021-10-03T09:46:02Z</time>
      </trkpt>
      <trkpt lat="42.6012270" lon="-5.5831490">
        <ele>828.8</ele>
        <time>2021-10-03T09:46:08Z</time>
      </trkpt>
      <trkpt lat="42.6009660" lon="-5.5837950">
        <ele>828.0</ele>
        <time>2021-10-03T09:46:20Z</time>
      </trkpt>
      <trkpt lat="42.6008960" lon="-5.5839720">
        <ele>827.6</ele>
        <time>2021-10-03T09:46:23Z</time>
      </trkpt>
      <trkpt lat="42.6008070" lon="-5.5842110">
        <ele>827.4</ele>
        <time>2021-10-03T09:46:27Z</time>
      </trkpt>
      <trkpt lat="42.6007540" lon="-5.5843980">
        <ele>827.0</ele>
        <time>2021-10-03T09:46:30Z</time>
      </trkpt>
      <trkpt lat="42.6007350" lon="-5.5844600">
        <ele>826.8</ele>
        <time>2021-10-03T09:46:31Z</time>
      </trkpt>
      <trkpt lat="42.6006930" lon="-5.5845830">
        <ele>826.6</ele>
        <time>2021-10-03T09:46:33Z</time>
      </trkpt>
      <trkpt lat="42.6004420" lon="-5.5852700">
        <ele>826.0</ele>
        <time>2021-10-03T09:46:45Z</time>
      </trkpt>
      <trkpt lat="42.6004040" lon="-5.5853710">
        <ele>825.8</ele>
        <time>2021-10-03T09:46:47Z</time>
      </trkpt>
      <trkpt lat="42.6003830" lon="-5.5854980">
        <ele>826.0</ele>
        <time>2021-10-03T09:46:51Z</time>
      </trkpt>
      <trkpt lat="42.6005330" lon="-5.5857430">
        <ele>826.4</ele>
        <time>2021-10-03T09:47:05Z</time>
      </trkpt>
      <trkpt lat="42.6005630" lon="-5.5858160">
        <ele>826.2</ele>
        <time>2021-10-03T09:47:08Z</time>
      </trkpt>
      <trkpt lat="42.6005790" lon="-5.5858920">
        <ele>826.0</ele>
        <time>2021-10-03T09:47:13Z</time>
      </trkpt>
      <trkpt lat="42.6005650" lon="-5.5859530">
        <ele>826.0</ele>
        <time>2021-10-03T09:47:21Z</time>
      </trkpt>
      <trkpt lat="42.6005320" lon="-5.5859670">
        <ele>826.0</ele>
        <time>2021-10-03T09:47:23Z</time>
      </trkpt>
      <trkpt lat="42.6005060" lon="-5.5859660">
        <ele>826.0</ele>
        <time>2021-10-03T09:47:24Z</time>
      </trkpt>
      <trkpt lat="42.6004760" lon="-5.5859750">
        <ele>826.0</ele>
        <time>2021-10-03T09:47:25Z</time>
      </trkpt>
      <trkpt lat="42.6004060" lon="-5.5860070">
        <ele>826.2</ele>
        <time>2021-10-03T09:47:27Z</time>
      </trkpt>
      <trkpt lat="42.6002910" lon="-5.5860370">
        <ele>825.8</ele>
        <time>2021-10-03T09:47:30Z</time>
      </trkpt>
      <trkpt lat="42.6002540" lon="-5.5860420">
        <ele>825.6</ele>
        <time>2021-10-03T09:47:31Z</time>
      </trkpt>
      <trkpt lat="42.6001340" lon="-5.5861460">
        <ele>825.2</ele>
        <time>2021-10-03T09:47:35Z</time>
      </trkpt>
      <trkpt lat="42.6000870" lon="-5.5862490">
        <ele>825.2</ele>
        <time>2021-10-03T09:47:37Z</time>
      </trkpt>
      <trkpt lat="42.5998360" lon="-5.5869040">
        <ele>825.2</ele>
        <time>2021-10-03T09:47:48Z</time>
      </trkpt>
      <trkpt lat="42.5996010" lon="-5.5875300">
        <ele>825.2</ele>
        <time>2021-10-03T09:48:03Z</time>
      </trkpt>
      <trkpt lat="42.5994990" lon="-5.5878350">
        <ele>825.2</ele>
        <time>2021-10-03T09:48:08Z</time>
      </trkpt>
      <trkpt lat="42.5992620" lon="-5.5885240">
        <ele>824.8</ele>
        <time>2021-10-03T09:48:18Z</time>
      </trkpt>
      <trkpt lat="42.5991580" lon="-5.5888140">
        <ele>824.2</ele>
        <time>2021-10-03T09:48:22Z</time>
      </trkpt>
      <trkpt lat="42.5989240" lon="-5.5894880">
        <ele>823.4</ele>
        <time>2021-10-03T09:48:31Z</time>
      </trkpt>
      <trkpt lat="42.5988770" lon="-5.5896450">
        <ele>823.2</ele>
        <time>2021-10-03T09:48:33Z</time>
      </trkpt>
      <trkpt lat="42.5988140" lon="-5.5898890">
        <ele>823.0</ele>
        <time>2021-10-03T09:48:36Z</time>
      </trkpt>
      <trkpt lat="42.5987990" lon="-5.5899710">
        <ele>823.0</ele>
        <time>2021-10-03T09:48:37Z</time>
      </trkpt>
      <trkpt lat="42.5987520" lon="-5.5904520">
        <ele>822.2</ele>
        <time>2021-10-03T09:48:43Z</time>
      </trkpt>
      <trkpt lat="42.5987040" lon="-5.5912360">
        <ele>822.8</ele>
        <time>2021-10-03T09:48:53Z</time>
      </trkpt>
      <trkpt lat="42.5986960" lon="-5.5913160">
        <ele>823.0</ele>
        <time>2021-10-03T09:48:54Z</time>
      </trkpt>
      <trkpt lat="42.5986810" lon="-5.5915600">
        <ele>823.2</ele>
        <time>2021-10-03T09:48:57Z</time>
      </trkpt>
      <trkpt lat="42.5986680" lon="-5.5923020">
        <ele>823.6</ele>
        <time>2021-10-03T09:49:06Z</time>
      </trkpt>
      <trkpt lat="42.5986270" lon="-5.5929610">
        <ele>823.4</ele>
        <time>2021-10-03T09:49:15Z</time>
      </trkpt>
      <trkpt lat="42.5985570" lon="-5.5937060">
        <ele>824.0</ele>
        <time>2021-10-03T09:49:28Z</time>
      </trkpt>
      <trkpt lat="42.5985240" lon="-5.5937800">
        <ele>824.2</ele>
        <time>2021-10-03T09:49:30Z</time>
      </trkpt>
      <trkpt lat="42.5984650" lon="-5.5938180">
        <ele>824.2</ele>
        <time>2021-10-03T09:49:32Z</time>
      </trkpt>
      <trkpt lat="42.5983760" lon="-5.5938240">
        <ele>824.4</ele>
        <time>2021-10-03T09:49:35Z</time>
      </trkpt>
      <trkpt lat="42.5983860" lon="-5.5937850">
        <ele>824.6</ele>
        <time>2021-10-03T09:49:38Z</time>
      </trkpt>
      <trkpt lat="42.5984410" lon="-5.5938280">
        <ele>825.0</ele>
        <time>2021-10-03T09:49:41Z</time>
      </trkpt>
      <trkpt lat="42.5985470" lon="-5.5940180">
        <ele>825.0</ele>
        <time>2021-10-03T09:49:46Z</time>
      </trkpt>
      <trkpt lat="42.5985610" lon="-5.5942680">
        <ele>825.0</ele>
        <time>2021-10-03T09:49:50Z</time>
      </trkpt>
      <trkpt lat="42.5985500" lon="-5.5947050">
        <ele>823.4</ele>
        <time>2021-10-03T09:49:56Z</time>
      </trkpt>
      <trkpt lat="42.5984980" lon="-5.5955030">
        <ele>823.0</ele>
        <time>2021-10-03T09:50:07Z</time>
      </trkpt>
      <trkpt lat="42.5984900" lon="-5.5957980">
        <ele>823.2</ele>
        <time>2021-10-03T09:50:11Z</time>
      </trkpt>
      <trkpt lat="42.5984330" lon="-5.5963190">
        <ele>823.6</ele>
        <time>2021-10-03T09:50:18Z</time>
      </trkpt>
      <trkpt lat="42.5984130" lon="-5.5969270">
        <ele>823.8</ele>
        <time>2021-10-03T09:50:26Z</time>
      </trkpt>
      <trkpt lat="42.5983810" lon="-5.5975210">
        <ele>822.2</ele>
        <time>2021-10-03T09:50:34Z</time>
      </trkpt>
      <trkpt lat="42.5984390" lon="-5.5980140">
        <ele>821.6</ele>
        <time>2021-10-03T09:50:42Z</time>
      </trkpt>
      <trkpt lat="42.5986270" lon="-5.5982620">
        <ele>821.4</ele>
        <time>2021-10-03T09:50:47Z</time>
      </trkpt>
      <trkpt lat="42.5986750" lon="-5.5982890">
        <ele>821.4</ele>
        <time>2021-10-03T09:50:48Z</time>
      </trkpt>
      <trkpt lat="42.5987210" lon="-5.5983210">
        <ele>821.6</ele>
        <time>2021-10-03T09:50:49Z</time>
      </trkpt>
      <trkpt lat="42.5989000" lon="-5.5985300">
        <ele>822.0</ele>
        <time>2021-10-03T09:50:54Z</time>
      </trkpt>
      <trkpt lat="42.5989260" lon="-5.5985720">
        <ele>822.2</ele>
        <time>2021-10-03T09:50:55Z</time>
      </trkpt>
      <trkpt lat="42.5989640" lon="-5.5986640">
        <ele>822.6</ele>
        <time>2021-10-03T09:50:57Z</time>
      </trkpt>
      <trkpt lat="42.5988630" lon="-5.5987500">
        <ele>823.4</ele>
        <time>2021-10-03T09:51:02Z</time>
      </trkpt>
      <trkpt lat="42.5988560" lon="-5.5988760">
        <ele>824.2</ele>
        <time>2021-10-03T09:51:06Z</time>
      </trkpt>
      <trkpt lat="42.5988720" lon="-5.5989220">
        <ele>824.4</ele>
        <time>2021-10-03T09:51:07Z</time>
      </trkpt>
      <trkpt lat="42.5989130" lon="-5.5990220">
        <ele>824.6</ele>
        <time>2021-10-03T09:51:09Z</time>
      </trkpt>
      <trkpt lat="42.5989900" lon="-5.5993190">
        <ele>825.0</ele>
        <time>2021-10-03T09:51:15Z</time>
      </trkpt>
      <trkpt lat="42.5990040" lon="-5.5994250">
        <ele>825.4</ele>
        <time>2021-10-03T09:51:17Z</time>
      </trkpt>
      <trkpt lat="42.5990080" lon="-5.5994790">
        <ele>825.4</ele>
        <time>2021-10-03T09:51:18Z</time>
      </trkpt>
      <trkpt lat="42.5990100" lon="-5.5995920">
        <ele>825.6</ele>
        <time>2021-10-03T09:51:20Z</time>
      </trkpt>
      <trkpt lat="42.5989960" lon="-5.5998240">
        <ele>826.6</ele>
        <time>2021-10-03T09:51:24Z</time>
      </trkpt>
      <trkpt lat="42.5989510" lon="-5.6000460">
        <ele>827.6</ele>
        <time>2021-10-03T09:51:28Z</time>
      </trkpt>
      <trkpt lat="42.5988630" lon="-5.6003180">
        <ele>829.2</ele>
        <time>2021-10-03T09:51:34Z</time>
      </trkpt>
      <trkpt lat="42.5988240" lon="-5.6004030">
        <ele>830.8</ele>
        <time>2021-10-03T09:51:36Z</time>
      </trkpt>
      <trkpt lat="42.5988040" lon="-5.6004440">
        <ele>832.2</ele>
        <time>2021-10-03T09:51:37Z</time>
      </trkpt>
      <trkpt lat="42.5987670" lon="-5.6005270">
        <ele>833.2</ele>
        <time>2021-10-03T09:51:39Z</time>
      </trkpt>
      <trkpt lat="42.5987430" lon="-5.6005700">
        <ele>833.6</ele>
        <time>2021-10-03T09:51:40Z</time>
      </trkpt>
      <trkpt lat="42.5986800" lon="-5.6006610">
        <ele>833.8</ele>
        <time>2021-10-03T09:51:42Z</time>
      </trkpt>
      <trkpt lat="42.5985720" lon="-5.6007890">
        <ele>833.8</ele>
        <time>2021-10-03T09:51:45Z</time>
      </trkpt>
      <trkpt lat="42.5985300" lon="-5.6008260">
        <ele>833.8</ele>
        <time>2021-10-03T09:51:46Z</time>
      </trkpt>
      <trkpt lat="42.5984290" lon="-5.6009030">
        <ele>833.8</ele>
        <time>2021-10-03T09:51:48Z</time>
      </trkpt>
      <trkpt lat="42.5982200" lon="-5.6010870">
        <ele>832.2</ele>
        <time>2021-10-03T09:51:52Z</time>
      </trkpt>
      <trkpt lat="42.5981340" lon="-5.6011880">
        <ele>831.0</ele>
        <time>2021-10-03T09:51:54Z</time>
      </trkpt>
      <trkpt lat="42.5980780" lon="-5.6012650">
        <ele>829.4</ele>
        <time>2021-10-03T09:51:56Z</time>
      </trkpt>
      <trkpt lat="42.5980190" lon="-5.6013350">
        <ele>828.0</ele>
        <time>2021-10-03T09:51:58Z</time>
      </trkpt>
      <trkpt lat="42.5979180" lon="-5.6015660">
        <ele>826.8</ele>
        <time>2021-10-03T09:52:02Z</time>
      </trkpt>
      <trkpt lat="42.5979000" lon="-5.6016350">
        <ele>826.4</ele>
        <time>2021-10-03T09:52:03Z</time>
      </trkpt>
      <trkpt lat="42.5978470" lon="-5.6018430">
        <ele>825.6</ele>
        <time>2021-10-03T09:52:06Z</time>
      </trkpt>
      <trkpt lat="42.5977400" lon="-5.6022580">
        <ele>824.6</ele>
        <time>2021-10-03T09:52:12Z</time>
      </trkpt>
      <trkpt lat="42.5976390" lon="-5.6026010">
        <ele>824.2</ele>
        <time>2021-10-03T09:52:17Z</time>
      </trkpt>
      <trkpt lat="42.5975760" lon="-5.6027860">
        <ele>823.8</ele>
        <time>2021-10-03T09:52:20Z</time>
      </trkpt>
      <trkpt lat="42.5975120" lon="-5.6029460">
        <ele>823.8</ele>
        <time>2021-10-03T09:52:23Z</time>
      </trkpt>
      <trkpt lat="42.5972690" lon="-5.6036250">
        <ele>823.8</ele>
        <time>2021-10-03T09:52:35Z</time>
      </trkpt>
      <trkpt lat="42.5971440" lon="-5.6039660">
        <ele>824.2</ele>
        <time>2021-10-03T09:52:42Z</time>
      </trkpt>
      <trkpt lat="42.5971210" lon="-5.6040340">
        <ele>824.2</ele>
        <time>2021-10-03T09:52:44Z</time>
      </trkpt>
      <trkpt lat="42.5970480" lon="-5.6042520">
        <ele>824.2</ele>
        <time>2021-10-03T09:52:49Z</time>
      </trkpt>
      <trkpt lat="42.5969160" lon="-5.6045760">
        <ele>825.8</ele>
        <time>2021-10-03T09:52:56Z</time>
      </trkpt>
      <trkpt lat="42.5967690" lon="-5.6049040">
        <ele>826.6</ele>
        <time>2021-10-03T09:53:04Z</time>
      </trkpt>
      <trkpt lat="42.5967320" lon="-5.6050110">
        <ele>827.0</ele>
        <time>2021-10-03T09:53:06Z</time>
      </trkpt>
      <trkpt lat="42.5966900" lon="-5.6051270">
        <ele>827.2</ele>
        <time>2021-10-03T09:53:08Z</time>
      </trkpt>
      <trkpt lat="42.5966440" lon="-5.6052430">
        <ele>827.4</ele>
        <time>2021-10-03T09:53:10Z</time>
      </trkpt>
      <trkpt lat="42.5965810" lon="-5.6054130">
        <ele>828.0</ele>
        <time>2021-10-03T09:53:13Z</time>
      </trkpt>
      <trkpt lat="42.5965470" lon="-5.6055280">
        <ele>828.2</ele>
        <time>2021-10-03T09:53:15Z</time>
      </trkpt>
      <trkpt lat="42.5965030" lon="-5.6057620">
        <ele>829.4</ele>
        <time>2021-10-03T09:53:19Z</time>
      </trkpt>
      <trkpt lat="42.5964760" lon="-5.6059380">
        <ele>830.6</ele>
        <time>2021-10-03T09:53:24Z</time>
      </trkpt>
      <trkpt lat="42.5964600" lon="-5.6061190">
        <ele>831.8</ele>
        <time>2021-10-03T09:53:30Z</time>
      </trkpt>
      <trkpt lat="42.5964660" lon="-5.6061530">
        <ele>831.8</ele>
        <time>2021-10-03T09:53:31Z</time>
      </trkpt>
      <trkpt lat="42.5967360" lon="-5.6063160">
        <ele>832.0</ele>
        <time>2021-10-03T09:53:39Z</time>
      </trkpt>
      <trkpt lat="42.5969450" lon="-5.6064270">
        <ele>832.0</ele>
        <time>2021-10-03T09:53:44Z</time>
      </trkpt>
      <trkpt lat="42.5969940" lon="-5.6066790">
        <ele>832.4</ele>
        <time>2021-10-03T09:53:49Z</time>
      </trkpt>
      <trkpt lat="42.5969880" lon="-5.6069890">
        <ele>833.0</ele>
        <time>2021-10-03T09:53:54Z</time>
      </trkpt>
      <trkpt lat="42.5969800" lon="-5.6071460">
        <ele>833.4</ele>
        <time>2021-10-03T09:53:57Z</time>
      </trkpt>
      <trkpt lat="42.5969600" lon="-5.6073980">
        <ele>833.8</ele>
        <time>2021-10-03T09:54:02Z</time>
      </trkpt>
      <trkpt lat="42.5969580" lon="-5.6074480">
        <ele>833.8</ele>
        <time>2021-10-03T09:54:03Z</time>
      </trkpt>
      <trkpt lat="42.5970530" lon="-5.6075260">
        <ele>833.8</ele>
        <time>2021-10-03T09:54:07Z</time>
      </trkpt>
      <trkpt lat="42.5971250" lon="-5.6075290">
        <ele>833.8</ele>
        <time>2021-10-03T09:54:09Z</time>
      </trkpt>
      <trkpt lat="42.5971760" lon="-5.6075650">
        <ele>833.8</ele>
        <time>2021-10-03T09:54:11Z</time>
      </trkpt>
      <trkpt lat="42.5971780" lon="-5.6077660">
        <ele>833.6</ele>
        <time>2021-10-03T09:54:15Z</time>
      </trkpt>
      <trkpt lat="42.5971580" lon="-5.6079980">
        <ele>833.4</ele>
        <time>2021-10-03T09:54:19Z</time>
      </trkpt>
      <trkpt lat="42.5971610" lon="-5.6081090">
        <ele>833.2</ele>
        <time>2021-10-03T09:54:21Z</time>
      </trkpt>
      <trkpt lat="42.5971570" lon="-5.6082730">
        <ele>833.2</ele>
        <time>2021-10-03T09:54:24Z</time>
      </trkpt>
      <trkpt lat="42.5971630" lon="-5.6083500">
        <ele>833.4</ele>
        <time>2021-10-03T09:54:26Z</time>
      </trkpt>
      <trkpt lat="42.5971900" lon="-5.6084090">
        <ele>833.2</ele>
        <time>2021-10-03T09:54:28Z</time>
      </trkpt>
      <trkpt lat="42.5972890" lon="-5.6084710">
        <ele>833.2</ele>
        <time>2021-10-03T09:54:31Z</time>
      </trkpt>
      <trkpt lat="42.5973720" lon="-5.6085310">
        <ele>833.2</ele>
        <time>2021-10-03T09:54:33Z</time>
      </trkpt>
      <trkpt lat="42.5974590" lon="-5.6086000">
        <ele>833.2</ele>
        <time>2021-10-03T09:54:35Z</time>
      </trkpt>
      <trkpt lat="42.5979540" lon="-5.6089840">
        <ele>832.4</ele>
        <time>2021-10-03T09:54:46Z</time>
      </trkpt>
      <trkpt lat="42.5984580" lon="-5.6093550">
        <ele>833.2</ele>
        <time>2021-10-03T09:54:57Z</time>
      </trkpt>
      <trkpt lat="42.5985830" lon="-5.6094500">
        <ele>833.6</ele>
        <time>2021-10-03T09:55:00Z</time>
      </trkpt>
      <trkpt lat="42.5986190" lon="-5.6094820">
        <ele>833.6</ele>
        <time>2021-10-03T09:55:01Z</time>
      </trkpt>
      <trkpt lat="42.5986790" lon="-5.6097030">
        <ele>834.4</ele>
        <time>2021-10-03T09:55:05Z</time>
      </trkpt>
      <trkpt lat="42.5986640" lon="-5.6098360">
        <ele>834.8</ele>
        <time>2021-10-03T09:55:07Z</time>
      </trkpt>
      <trkpt lat="42.5985590" lon="-5.6104290">
        <ele>835.4</ele>
        <time>2021-10-03T09:55:16Z</time>
      </trkpt>
      <trkpt lat="42.5985290" lon="-5.6105500">
        <ele>835.2</ele>
        <time>2021-10-03T09:55:18Z</time>
      </trkpt>
      <trkpt lat="42.5984400" lon="-5.6106730">
        <ele>835.6</ele>
        <time>2021-10-03T09:55:21Z</time>
      </trkpt>
      <trkpt lat="42.5983210" lon="-5.6107060">
        <ele>835.6</ele>
        <time>2021-10-03T09:55:24Z</time>
      </trkpt>
      <trkpt lat="42.5981850" lon="-5.6106520">
        <ele>836.0</ele>
        <time>2021-10-03T09:55:27Z</time>
      </trkpt>
      <trkpt lat="42.5979380" lon="-5.6105440">
        <ele>836.2</ele>
        <time>2021-10-03T09:55:32Z</time>
      </trkpt>
      <trkpt lat="42.5978400" lon="-5.6105000">
        <ele>836.0</ele>
        <time>2021-10-03T09:55:34Z</time>
      </trkpt>
      <trkpt lat="42.5976930" lon="-5.6104370">
        <ele>835.2</ele>
        <time>2021-10-03T09:55:37Z</time>
      </trkpt>
      <trkpt lat="42.5974520" lon="-5.6103530">
        <ele>834.8</ele>
        <time>2021-10-03T09:55:42Z</time>
      </trkpt>
      <trkpt lat="42.5970750" lon="-5.6102250">
        <ele>834.2</ele>
        <time>2021-10-03T09:55:50Z</time>
      </trkpt>
      <trkpt lat="42.5968430" lon="-5.6101590">
        <ele>833.8</ele>
        <time>2021-10-03T09:55:55Z</time>
      </trkpt>
      <trkpt lat="42.5965810" lon="-5.6100770">
        <ele>833.4</ele>
        <time>2021-10-03T09:56:01Z</time>
      </trkpt>
      <trkpt lat="42.5964370" lon="-5.6100390">
        <ele>833.4</ele>
        <time>2021-10-03T09:56:06Z</time>
      </trkpt>
      <trkpt lat="42.5964080" lon="-5.6100510">
        <ele>833.4</ele>
        <time>2021-10-03T09:56:08Z</time>
      </trkpt>
      <trkpt lat="42.5963810" lon="-5.6100150">
        <ele>833.4</ele>
        <time>2021-10-03T09:56:10Z</time>
      </trkpt>
      <trkpt lat="42.5963640" lon="-5.6099960">
        <ele>833.6</ele>
        <time>2021-10-03T09:56:11Z</time>
      </trkpt>
      <trkpt lat="42.5963120" lon="-5.6099770">
        <ele>833.6</ele>
        <time>2021-10-03T09:56:13Z</time>
      </trkpt>
      <trkpt lat="42.5962520" lon="-5.6099640">
        <ele>833.6</ele>
        <time>2021-10-03T09:56:15Z</time>
      </trkpt>
      <trkpt lat="42.5961920" lon="-5.6099540">
        <ele>833.8</ele>
        <time>2021-10-03T09:56:17Z</time>
      </trkpt>
      <trkpt lat="42.5961170" lon="-5.6099290">
        <ele>833.8</ele>
        <time>2021-10-03T09:56:21Z</time>
      </trkpt>
      <trkpt lat="42.5960950" lon="-5.6100030">
        <ele>834.2</ele>
        <time>2021-10-03T09:56:24Z</time>
      </trkpt>
      <trkpt lat="42.5960860" lon="-5.6100600">
        <ele>834.2</ele>
        <time>2021-10-03T09:56:25Z</time>
      </trkpt>
      <trkpt lat="42.5960780" lon="-5.6101200">
        <ele>834.2</ele>
        <time>2021-10-03T09:56:26Z</time>
      </trkpt>
      <trkpt lat="42.5960610" lon="-5.6102550">
        <ele>834.0</ele>
        <time>2021-10-03T09:56:28Z</time>
      </trkpt>
      <trkpt lat="42.5960440" lon="-5.6103980">
        <ele>834.2</ele>
        <time>2021-10-03T09:56:30Z</time>
      </trkpt>
      <trkpt lat="42.5960290" lon="-5.6105360">
        <ele>834.6</ele>
        <time>2021-10-03T09:56:32Z</time>
      </trkpt>
      <trkpt lat="42.5960150" lon="-5.6106700">
        <ele>835.0</ele>
        <time>2021-10-03T09:56:34Z</time>
      </trkpt>
      <trkpt lat="42.5960050" lon="-5.6107420">
        <ele>835.2</ele>
        <time>2021-10-03T09:56:35Z</time>
      </trkpt>
      <trkpt lat="42.5959850" lon="-5.6108780">
        <ele>835.6</ele>
        <time>2021-10-03T09:56:37Z</time>
      </trkpt>
      <trkpt lat="42.5959480" lon="-5.6111250">
        <ele>836.4</ele>
        <time>2021-10-03T09:56:41Z</time>
      </trkpt>
      <trkpt lat="42.5959120" lon="-5.6112910">
        <ele>836.8</ele>
        <time>2021-10-03T09:56:44Z</time>
      </trkpt>
      <trkpt lat="42.5957940" lon="-5.6116030">
        <ele>837.2</ele>
        <time>2021-10-03T09:56:50Z</time>
      </trkpt>
      <trkpt lat="42.5957720" lon="-5.6116510">
        <ele>837.6</ele>
        <time>2021-10-03T09:56:51Z</time>
      </trkpt>
      <trkpt lat="42.5957270" lon="-5.6117420">
        <ele>838.8</ele>
        <time>2021-10-03T09:56:53Z</time>
      </trkpt>
      <trkpt lat="42.5955970" lon="-5.6118980">
        <ele>840.0</ele>
        <time>2021-10-03T09:56:57Z</time>
      </trkpt>
      <trkpt lat="42.5954480" lon="-5.6120110">
        <ele>840.4</ele>
        <time>2021-10-03T09:57:01Z</time>
      </trkpt>
      <trkpt lat="42.5953300" lon="-5.6120720">
        <ele>841.0</ele>
        <time>2021-10-03T09:57:04Z</time>
      </trkpt>
      <trkpt lat="42.5951180" lon="-5.6121310">
        <ele>842.2</ele>
        <time>2021-10-03T09:57:09Z</time>
      </trkpt>
      <trkpt lat="42.5948560" lon="-5.6121370">
        <ele>843.4</ele>
        <time>2021-10-03T09:57:15Z</time>
      </trkpt>
      <trkpt lat="42.5946890" lon="-5.6121240">
        <ele>844.4</ele>
        <time>2021-10-03T09:57:19Z</time>
      </trkpt>
      <trkpt lat="42.5944880" lon="-5.6120720">
        <ele>845.4</ele>
        <time>2021-10-03T09:57:24Z</time>
      </trkpt>
      <trkpt lat="42.5942960" lon="-5.6120480">
        <ele>846.2</ele>
        <time>2021-10-03T09:57:29Z</time>
      </trkpt>
      <trkpt lat="42.5942580" lon="-5.6121640">
        <ele>846.6</ele>
        <time>2021-10-03T09:57:32Z</time>
      </trkpt>
      <trkpt lat="42.5942950" lon="-5.6123870">
        <ele>846.8</ele>
        <time>2021-10-03T09:57:37Z</time>
      </trkpt>
      <trkpt lat="42.5943350" lon="-5.6126200">
        <ele>847.6</ele>
        <time>2021-10-03T09:57:42Z</time>
      </trkpt>
      <trkpt lat="42.5943610" lon="-5.6127810">
        <ele>849.0</ele>
        <time>2021-10-03T09:57:46Z</time>
      </trkpt>
      <trkpt lat="42.5943760" lon="-5.6128600">
        <ele>850.4</ele>
        <time>2021-10-03T09:57:48Z</time>
      </trkpt>
      <trkpt lat="42.5943970" lon="-5.6129760">
        <ele>851.8</ele>
        <time>2021-10-03T09:57:51Z</time>
      </trkpt>
      <trkpt lat="42.5944110" lon="-5.6130910">
        <ele>853.0</ele>
        <time>2021-10-03T09:57:54Z</time>
      </trkpt>
      <trkpt lat="42.5943820" lon="-5.6132670">
        <ele>854.0</ele>
        <time>2021-10-03T09:57:59Z</time>
      </trkpt>
      <trkpt lat="42.5943400" lon="-5.6133560">
        <ele>855.2</ele>
        <time>2021-10-03T09:58:02Z</time>
      </trkpt>
      <trkpt lat="42.5942960" lon="-5.6134470">
        <ele>856.8</ele>
        <time>2021-10-03T09:58:05Z</time>
      </trkpt>
      <trkpt lat="42.5942430" lon="-5.6135440">
        <ele>858.2</ele>
        <time>2021-10-03T09:58:08Z</time>
      </trkpt>
      <trkpt lat="42.5941850" lon="-5.6136440">
        <ele>859.4</ele>
        <time>2021-10-03T09:58:11Z</time>
      </trkpt>
      <trkpt lat="42.5941100" lon="-5.6137850">
        <ele>860.4</ele>
        <time>2021-10-03T09:58:15Z</time>
      </trkpt>
      <trkpt lat="42.5939750" lon="-5.6140180">
        <ele>861.6</ele>
        <time>2021-10-03T09:58:21Z</time>
      </trkpt>
      <trkpt lat="42.5936840" lon="-5.6146390">
        <ele>862.0</ele>
        <time>2021-10-03T09:58:33Z</time>
      </trkpt>
      <trkpt lat="42.5934850" lon="-5.6151370">
        <ele>860.8</ele>
        <time>2021-10-03T09:58:41Z</time>
      </trkpt>
      <trkpt lat="42.5933770" lon="-5.6153970">
        <ele>860.4</ele>
        <time>2021-10-03T09:58:45Z</time>
      </trkpt>
      <trkpt lat="42.5932010" lon="-5.6157830">
        <ele>860.6</ele>
        <time>2021-10-03T09:58:51Z</time>
      </trkpt>
      <trkpt lat="42.5931230" lon="-5.6159930">
        <ele>860.2</ele>
        <time>2021-10-03T09:58:54Z</time>
      </trkpt>
      <trkpt lat="42.5929110" lon="-5.6165460">
        <ele>860.0</ele>
        <time>2021-10-03T09:59:02Z</time>
      </trkpt>
      <trkpt lat="42.5928110" lon="-5.6168280">
        <ele>859.8</ele>
        <time>2021-10-03T09:59:06Z</time>
      </trkpt>
      <trkpt lat="42.5926400" lon="-5.6172280">
        <ele>859.8</ele>
        <time>2021-10-03T09:59:12Z</time>
      </trkpt>
      <trkpt lat="42.5925200" lon="-5.6174890">
        <ele>860.2</ele>
        <time>2021-10-03T09:59:16Z</time>
      </trkpt>
      <trkpt lat="42.5922560" lon="-5.6180300">
        <ele>860.8</ele>
        <time>2021-10-03T09:59:25Z</time>
      </trkpt>
      <trkpt lat="42.5921630" lon="-5.6182050">
        <ele>861.0</ele>
        <time>2021-10-03T09:59:28Z</time>
      </trkpt>
      <trkpt lat="42.5920590" lon="-5.6183790">
        <ele>861.0</ele>
        <time>2021-10-03T09:59:31Z</time>
      </trkpt>
      <trkpt lat="42.5919800" lon="-5.6186610">
        <ele>861.0</ele>
        <time>2021-10-03T09:59:35Z</time>
      </trkpt>
      <trkpt lat="42.5917470" lon="-5.6193350">
        <ele>861.0</ele>
        <time>2021-10-03T09:59:45Z</time>
      </trkpt>
      <trkpt lat="42.5914730" lon="-5.6199820">
        <ele>861.0</ele>
        <time>2021-10-03T09:59:55Z</time>
      </trkpt>
      <trkpt lat="42.5913950" lon="-5.6201670">
        <ele>861.6</ele>
        <time>2021-10-03T09:59:58Z</time>
      </trkpt>
      <trkpt lat="42.5912740" lon="-5.6204650">
        <ele>862.8</ele>
        <time>2021-10-03T10:00:03Z</time>
      </trkpt>
      <trkpt lat="42.5911540" lon="-5.6207480">
        <ele>863.0</ele>
        <time>2021-10-03T10:00:08Z</time>
      </trkpt>
      <trkpt lat="42.5910430" lon="-5.6209590">
        <ele>863.6</ele>
        <time>2021-10-03T10:00:12Z</time>
      </trkpt>
      <trkpt lat="42.5908880" lon="-5.6212690">
        <ele>864.0</ele>
        <time>2021-10-03T10:00:18Z</time>
      </trkpt>
      <trkpt lat="42.5908160" lon="-5.6214280">
        <ele>864.2</ele>
        <time>2021-10-03T10:00:21Z</time>
      </trkpt>
      <trkpt lat="42.5904950" lon="-5.6220230">
        <ele>864.8</ele>
        <time>2021-10-03T10:00:32Z</time>
      </trkpt>
      <trkpt lat="42.5901910" lon="-5.6226640">
        <ele>865.4</ele>
        <time>2021-10-03T10:00:43Z</time>
      </trkpt>
      <trkpt lat="42.5898960" lon="-5.6232790">
        <ele>864.2</ele>
        <time>2021-10-03T10:00:54Z</time>
      </trkpt>
      <trkpt lat="42.5895810" lon="-5.6239460">
        <ele>864.6</ele>
        <time>2021-10-03T10:01:05Z</time>
      </trkpt>
      <trkpt lat="42.5894920" lon="-5.6241400">
        <ele>865.4</ele>
        <time>2021-10-03T10:01:08Z</time>
      </trkpt>
      <trkpt lat="42.5894590" lon="-5.6241990">
        <ele>865.6</ele>
        <time>2021-10-03T10:01:09Z</time>
      </trkpt>
      <trkpt lat="42.5891610" lon="-5.6248150">
        <ele>866.2</ele>
        <time>2021-10-03T10:01:19Z</time>
      </trkpt>
      <trkpt lat="42.5889780" lon="-5.6251720">
        <ele>866.2</ele>
        <time>2021-10-03T10:01:25Z</time>
      </trkpt>
      <trkpt lat="42.5887980" lon="-5.6255420">
        <ele>867.2</ele>
        <time>2021-10-03T10:01:31Z</time>
      </trkpt>
      <trkpt lat="42.5887390" lon="-5.6256640">
        <ele>868.0</ele>
        <time>2021-10-03T10:01:33Z</time>
      </trkpt>
      <trkpt lat="42.5885860" lon="-5.6259560">
        <ele>869.2</ele>
        <time>2021-10-03T10:01:38Z</time>
      </trkpt>
      <trkpt lat="42.5884790" lon="-5.6261030">
        <ele>869.8</ele>
        <time>2021-10-03T10:01:41Z</time>
      </trkpt>
      <trkpt lat="42.5883700" lon="-5.6262360">
        <ele>870.0</ele>
        <time>2021-10-03T10:01:44Z</time>
      </trkpt>
      <trkpt lat="42.5882940" lon="-5.6263090">
        <ele>870.6</ele>
        <time>2021-10-03T10:01:46Z</time>
      </trkpt>
      <trkpt lat="42.5881710" lon="-5.6263890">
        <ele>871.2</ele>
        <time>2021-10-03T10:01:49Z</time>
      </trkpt>
      <trkpt lat="42.5881290" lon="-5.6264140">
        <ele>871.4</ele>
        <time>2021-10-03T10:01:50Z</time>
      </trkpt>
      <trkpt lat="42.5880060" lon="-5.6264800">
        <ele>872.6</ele>
        <time>2021-10-03T10:01:53Z</time>
      </trkpt>
      <trkpt lat="42.5879290" lon="-5.6265310">
        <ele>873.4</ele>
        <time>2021-10-03T10:01:55Z</time>
      </trkpt>
      <trkpt lat="42.5878910" lon="-5.6265580">
        <ele>874.0</ele>
        <time>2021-10-03T10:01:56Z</time>
      </trkpt>
      <trkpt lat="42.5878160" lon="-5.6266150">
        <ele>875.0</ele>
        <time>2021-10-03T10:01:58Z</time>
      </trkpt>
      <trkpt lat="42.5877410" lon="-5.6266790">
        <ele>876.0</ele>
        <time>2021-10-03T10:02:00Z</time>
      </trkpt>
      <trkpt lat="42.5876330" lon="-5.6267940">
        <ele>877.2</ele>
        <time>2021-10-03T10:02:03Z</time>
      </trkpt>
      <trkpt lat="42.5875960" lon="-5.6268310">
        <ele>877.2</ele>
        <time>2021-10-03T10:02:04Z</time>
      </trkpt>
      <trkpt lat="42.5875620" lon="-5.6268720">
        <ele>877.2</ele>
        <time>2021-10-03T10:02:05Z</time>
      </trkpt>
      <trkpt lat="42.5874700" lon="-5.6270120">
        <ele>878.4</ele>
        <time>2021-10-03T10:02:08Z</time>
      </trkpt>
      <trkpt lat="42.5873090" lon="-5.6272450">
        <ele>879.2</ele>
        <time>2021-10-03T10:02:13Z</time>
      </trkpt>
      <trkpt lat="42.5870780" lon="-5.6275670">
        <ele>879.8</ele>
        <time>2021-10-03T10:02:20Z</time>
      </trkpt>
      <trkpt lat="42.5868800" lon="-5.6278670">
        <ele>880.4</ele>
        <time>2021-10-03T10:02:26Z</time>
      </trkpt>
      <trkpt lat="42.5865680" lon="-5.6284880">
        <ele>880.4</ele>
        <time>2021-10-03T10:02:37Z</time>
      </trkpt>
      <trkpt lat="42.5864390" lon="-5.6287550">
        <ele>880.4</ele>
        <time>2021-10-03T10:02:42Z</time>
      </trkpt>
      <trkpt lat="42.5862240" lon="-5.6288170">
        <ele>881.0</ele>
        <time>2021-10-03T10:02:47Z</time>
      </trkpt>
      <trkpt lat="42.5861820" lon="-5.6288150">
        <ele>881.0</ele>
        <time>2021-10-03T10:02:48Z</time>
      </trkpt>
      <trkpt lat="42.5861000" lon="-5.6288420">
        <ele>881.6</ele>
        <time>2021-10-03T10:02:50Z</time>
      </trkpt>
      <trkpt lat="42.5860060" lon="-5.6289450">
        <ele>883.0</ele>
        <time>2021-10-03T10:02:53Z</time>
      </trkpt>
      <trkpt lat="42.5859530" lon="-5.6291030">
        <ele>883.8</ele>
        <time>2021-10-03T10:02:56Z</time>
      </trkpt>
      <trkpt lat="42.5858710" lon="-5.6293850">
        <ele>884.4</ele>
        <time>2021-10-03T10:03:01Z</time>
      </trkpt>
      <trkpt lat="42.5858580" lon="-5.6294400">
        <ele>884.4</ele>
        <time>2021-10-03T10:03:02Z</time>
      </trkpt>
      <trkpt lat="42.5858050" lon="-5.6296560">
        <ele>884.8</ele>
        <time>2021-10-03T10:03:06Z</time>
      </trkpt>
      <trkpt lat="42.5857410" lon="-5.6298130">
        <ele>884.8</ele>
        <time>2021-10-03T10:03:09Z</time>
      </trkpt>
      <trkpt lat="42.5856110" lon="-5.6301340">
        <ele>886.6</ele>
        <time>2021-10-03T10:03:15Z</time>
      </trkpt>
      <trkpt lat="42.5855710" lon="-5.6302430">
        <ele>887.6</ele>
        <time>2021-10-03T10:03:17Z</time>
      </trkpt>
      <trkpt lat="42.5854880" lon="-5.6304560">
        <ele>888.8</ele>
        <time>2021-10-03T10:03:21Z</time>
      </trkpt>
      <trkpt lat="42.5853700" lon="-5.6307430">
        <ele>889.2</ele>
        <time>2021-10-03T10:03:26Z</time>
      </trkpt>
      <trkpt lat="42.5852530" lon="-5.6310700">
        <ele>889.0</ele>
        <time>2021-10-03T10:03:31Z</time>
      </trkpt>
      <trkpt lat="42.5851380" lon="-5.6313160">
        <ele>888.2</ele>
        <time>2021-10-03T10:03:35Z</time>
      </trkpt>
      <trkpt lat="42.5850170" lon="-5.6315420">
        <ele>888.2</ele>
        <time>2021-10-03T10:03:39Z</time>
      </trkpt>
      <trkpt lat="42.5849870" lon="-5.6315980">
        <ele>888.2</ele>
        <time>2021-10-03T10:03:40Z</time>
      </trkpt>
      <trkpt lat="42.5849150" lon="-5.6318360">
        <ele>888.2</ele>
        <time>2021-10-03T10:03:44Z</time>
      </trkpt>
      <trkpt lat="42.5848670" lon="-5.6319980">
        <ele>888.4</ele>
        <time>2021-10-03T10:03:47Z</time>
      </trkpt>
      <trkpt lat="42.5847440" lon="-5.6321550">
        <ele>888.6</ele>
        <time>2021-10-03T10:03:51Z</time>
      </trkpt>
      <trkpt lat="42.5847090" lon="-5.6321920">
        <ele>888.8</ele>
        <time>2021-10-03T10:03:52Z</time>
      </trkpt>
      <trkpt lat="42.5846220" lon="-5.6324270">
        <ele>889.0</ele>
        <time>2021-10-03T10:03:56Z</time>
      </trkpt>
      <trkpt lat="42.5845490" lon="-5.6326200">
        <ele>889.0</ele>
        <time>2021-10-03T10:03:59Z</time>
      </trkpt>
      <trkpt lat="42.5844320" lon="-5.6329500">
        <ele>889.0</ele>
        <time>2021-10-03T10:04:04Z</time>
      </trkpt>
      <trkpt lat="42.5842560" lon="-5.6333980">
        <ele>889.2</ele>
        <time>2021-10-03T10:04:11Z</time>
      </trkpt>
      <trkpt lat="42.5841990" lon="-5.6335150">
        <ele>889.4</ele>
        <time>2021-10-03T10:04:13Z</time>
      </trkpt>
      <trkpt lat="42.5840990" lon="-5.6337850">
        <ele>889.6</ele>
        <time>2021-10-03T10:04:17Z</time>
      </trkpt>
      <trkpt lat="42.5840700" lon="-5.6338530">
        <ele>889.8</ele>
        <time>2021-10-03T10:04:18Z</time>
      </trkpt>
      <trkpt lat="42.5839760" lon="-5.6341430">
        <ele>890.4</ele>
        <time>2021-10-03T10:04:22Z</time>
      </trkpt>
      <trkpt lat="42.5839240" lon="-5.6342860">
        <ele>891.0</ele>
        <time>2021-10-03T10:04:24Z</time>
      </trkpt>
      <trkpt lat="42.5838500" lon="-5.6344970">
        <ele>891.6</ele>
        <time>2021-10-03T10:04:27Z</time>
      </trkpt>
      <trkpt lat="42.5837730" lon="-5.6347010">
        <ele>892.0</ele>
        <time>2021-10-03T10:04:30Z</time>
      </trkpt>
      <trkpt lat="42.5837010" lon="-5.6348990">
        <ele>892.4</ele>
        <time>2021-10-03T10:04:33Z</time>
      </trkpt>
      <trkpt lat="42.5835510" lon="-5.6352780">
        <ele>893.2</ele>
        <time>2021-10-03T10:04:39Z</time>
      </trkpt>
      <trkpt lat="42.5834720" lon="-5.6354570">
        <ele>894.2</ele>
        <time>2021-10-03T10:04:42Z</time>
      </trkpt>
      <trkpt lat="42.5834150" lon="-5.6355750">
        <ele>895.4</ele>
        <time>2021-10-03T10:04:44Z</time>
      </trkpt>
      <trkpt lat="42.5833260" lon="-5.6357430">
        <ele>896.6</ele>
        <time>2021-10-03T10:04:47Z</time>
      </trkpt>
      <trkpt lat="42.5831490" lon="-5.6360540">
        <ele>897.8</ele>
        <time>2021-10-03T10:04:53Z</time>
      </trkpt>
      <trkpt lat="42.5829780" lon="-5.6363310">
        <ele>898.2</ele>
        <time>2021-10-03T10:04:59Z</time>
      </trkpt>
      <trkpt lat="42.5829040" lon="-5.6364450">
        <ele>898.6</ele>
        <time>2021-10-03T10:05:02Z</time>
      </trkpt>
      <trkpt lat="42.5828770" lon="-5.6364830">
        <ele>898.8</ele>
        <time>2021-10-03T10:05:03Z</time>
      </trkpt>
      <trkpt lat="42.5827590" lon="-5.6366640">
        <ele>899.0</ele>
        <time>2021-10-03T10:05:07Z</time>
      </trkpt>
      <trkpt lat="42.5825960" lon="-5.6369320">
        <ele>899.6</ele>
        <time>2021-10-03T10:05:12Z</time>
      </trkpt>
      <trkpt lat="42.5824190" lon="-5.6372120">
        <ele>899.8</ele>
        <time>2021-10-03T10:05:17Z</time>
      </trkpt>
      <trkpt lat="42.5821180" lon="-5.6376830">
        <ele>899.8</ele>
        <time>2021-10-03T10:05:25Z</time>
      </trkpt>
      <trkpt lat="42.5819390" lon="-5.6379870">
        <ele>899.8</ele>
        <time>2021-10-03T10:05:30Z</time>
      </trkpt>
      <trkpt lat="42.5818600" lon="-5.6381290">
        <ele>900.2</ele>
        <time>2021-10-03T10:05:33Z</time>
      </trkpt>
      <trkpt lat="42.5818220" lon="-5.6381910">
        <ele>900.2</ele>
        <time>2021-10-03T10:05:35Z</time>
      </trkpt>
      <trkpt lat="42.5817870" lon="-5.6382550">
        <ele>900.2</ele>
        <time>2021-10-03T10:05:38Z</time>
      </trkpt>
      <trkpt lat="42.5817710" lon="-5.6382790">
        <ele>900.2</ele>
        <time>2021-10-03T10:05:40Z</time>
      </trkpt>
      <trkpt lat="42.5817650" lon="-5.6382900">
        <ele>900.8</ele>
        <time>2021-10-03T10:05:41Z</time>
      </trkpt>
      <trkpt lat="42.5817560" lon="-5.6383150">
        <ele>902.0</ele>
        <time>2021-10-03T10:05:44Z</time>
      </trkpt>
      <trkpt lat="42.5817410" lon="-5.6383640">
        <ele>902.2</ele>
        <time>2021-10-03T10:05:47Z</time>
      </trkpt>
      <trkpt lat="42.5816960" lon="-5.6384280">
        <ele>902.2</ele>
        <time>2021-10-03T10:05:49Z</time>
      </trkpt>
      <trkpt lat="42.5815930" lon="-5.6385610">
        <ele>902.2</ele>
        <time>2021-10-03T10:05:52Z</time>
      </trkpt>
      <trkpt lat="42.5815150" lon="-5.6386810">
        <ele>902.2</ele>
        <time>2021-10-03T10:05:54Z</time>
      </trkpt>
      <trkpt lat="42.5813410" lon="-5.6389590">
        <ele>901.6</ele>
        <time>2021-10-03T10:05:59Z</time>
      </trkpt>
      <trkpt lat="42.5812780" lon="-5.6390610">
        <ele>901.6</ele>
        <time>2021-10-03T10:06:01Z</time>
      </trkpt>
      <trkpt lat="42.5812160" lon="-5.6391610">
        <ele>901.6</ele>
        <time>2021-10-03T10:06:03Z</time>
      </trkpt>
      <trkpt lat="42.5809420" lon="-5.6396190">
        <ele>901.6</ele>
        <time>2021-10-03T10:06:11Z</time>
      </trkpt>
      <trkpt lat="42.5806750" lon="-5.6400480">
        <ele>901.4</ele>
        <time>2021-10-03T10:06:18Z</time>
      </trkpt>
      <trkpt lat="42.5804410" lon="-5.6404160">
        <ele>900.8</ele>
        <time>2021-10-03T10:06:24Z</time>
      </trkpt>
      <trkpt lat="42.5802800" lon="-5.6406630">
        <ele>899.8</ele>
        <time>2021-10-03T10:06:28Z</time>
      </trkpt>
      <trkpt lat="42.5802380" lon="-5.6407240">
        <ele>899.8</ele>
        <time>2021-10-03T10:06:29Z</time>
      </trkpt>
      <trkpt lat="42.5799850" lon="-5.6411090">
        <ele>898.4</ele>
        <time>2021-10-03T10:06:35Z</time>
      </trkpt>
      <trkpt lat="42.5797540" lon="-5.6414040">
        <ele>898.0</ele>
        <time>2021-10-03T10:06:40Z</time>
      </trkpt>
      <trkpt lat="42.5796770" lon="-5.6415200">
        <ele>898.0</ele>
        <time>2021-10-03T10:06:42Z</time>
      </trkpt>
      <trkpt lat="42.5796010" lon="-5.6416200">
        <ele>897.8</ele>
        <time>2021-10-03T10:06:44Z</time>
      </trkpt>
      <trkpt lat="42.5794980" lon="-5.6416680">
        <ele>897.8</ele>
        <time>2021-10-03T10:06:46Z</time>
      </trkpt>
      <trkpt lat="42.5793310" lon="-5.6417340">
        <ele>897.8</ele>
        <time>2021-10-03T10:06:49Z</time>
      </trkpt>
      <trkpt lat="42.5791690" lon="-5.6419810">
        <ele>897.6</ele>
        <time>2021-10-03T10:06:53Z</time>
      </trkpt>
      <trkpt lat="42.5791180" lon="-5.6420560">
        <ele>897.4</ele>
        <time>2021-10-03T10:06:54Z</time>
      </trkpt>
      <trkpt lat="42.5787250" lon="-5.6425660">
        <ele>896.6</ele>
        <time>2021-10-03T10:07:00Z</time>
      </trkpt>
      <trkpt lat="42.5786600" lon="-5.6426690">
        <ele>895.4</ele>
        <time>2021-10-03T10:07:01Z</time>
      </trkpt>
      <trkpt lat="42.5785960" lon="-5.6427740">
        <ele>894.2</ele>
        <time>2021-10-03T10:07:02Z</time>
      </trkpt>
      <trkpt lat="42.5785340" lon="-5.6428790">
        <ele>893.0</ele>
        <time>2021-10-03T10:07:03Z</time>
      </trkpt>
      <trkpt lat="42.5784720" lon="-5.6429830">
        <ele>891.6</ele>
        <time>2021-10-03T10:07:04Z</time>
      </trkpt>
      <trkpt lat="42.5784120" lon="-5.6430910">
        <ele>890.2</ele>
        <time>2021-10-03T10:07:05Z</time>
      </trkpt>
      <trkpt lat="42.5783550" lon="-5.6432020">
        <ele>889.2</ele>
        <time>2021-10-03T10:07:06Z</time>
      </trkpt>
      <trkpt lat="42.5782980" lon="-5.6433170">
        <ele>887.8</ele>
        <time>2021-10-03T10:07:07Z</time>
      </trkpt>
      <trkpt lat="42.5782420" lon="-5.6434340">
        <ele>886.2</ele>
        <time>2021-10-03T10:07:08Z</time>
      </trkpt>
      <trkpt lat="42.5781340" lon="-5.6436780">
        <ele>884.6</ele>
        <time>2021-10-03T10:07:10Z</time>
      </trkpt>
      <trkpt lat="42.5780390" lon="-5.6439360">
        <ele>883.4</ele>
        <time>2021-10-03T10:07:12Z</time>
      </trkpt>
      <trkpt lat="42.5779570" lon="-5.6441960">
        <ele>882.0</ele>
        <time>2021-10-03T10:07:14Z</time>
      </trkpt>
      <trkpt lat="42.5778920" lon="-5.6444470">
        <ele>881.0</ele>
        <time>2021-10-03T10:07:16Z</time>
      </trkpt>
      <trkpt lat="42.5778410" lon="-5.6446810">
        <ele>879.4</ele>
        <time>2021-10-03T10:07:18Z</time>
      </trkpt>
      <trkpt lat="42.5777790" lon="-5.6449350">
        <ele>878.8</ele>
        <time>2021-10-03T10:07:21Z</time>
      </trkpt>
      <trkpt lat="42.5777200" lon="-5.6451260">
        <ele>878.6</ele>
        <time>2021-10-03T10:07:27Z</time>
      </trkpt>
      <trkpt lat="42.5777120" lon="-5.6452080">
        <ele>880.0</ele>
        <time>2021-10-03T10:07:29Z</time>
      </trkpt>
      <trkpt lat="42.5777070" lon="-5.6452560">
        <ele>881.0</ele>
        <time>2021-10-03T10:07:30Z</time>
      </trkpt>
      <trkpt lat="42.5776900" lon="-5.6453640">
        <ele>881.8</ele>
        <time>2021-10-03T10:07:32Z</time>
      </trkpt>
      <trkpt lat="42.5776550" lon="-5.6454770">
        <ele>882.0</ele>
        <time>2021-10-03T10:07:34Z</time>
      </trkpt>
      <trkpt lat="42.5776330" lon="-5.6455300">
        <ele>882.2</ele>
        <time>2021-10-03T10:07:35Z</time>
      </trkpt>
      <trkpt lat="42.5775870" lon="-5.6456320">
        <ele>882.6</ele>
        <time>2021-10-03T10:07:37Z</time>
      </trkpt>
      <trkpt lat="42.5775240" lon="-5.6457800">
        <ele>882.8</ele>
        <time>2021-10-03T10:07:40Z</time>
      </trkpt>
      <trkpt lat="42.5774460" lon="-5.6459510">
        <ele>883.0</ele>
        <time>2021-10-03T10:07:44Z</time>
      </trkpt>
      <trkpt lat="42.5774270" lon="-5.6460460">
        <ele>883.6</ele>
        <time>2021-10-03T10:07:47Z</time>
      </trkpt>
      <trkpt lat="42.5774540" lon="-5.6461280">
        <ele>884.2</ele>
        <time>2021-10-03T10:07:49Z</time>
      </trkpt>
      <trkpt lat="42.5774870" lon="-5.6462920">
        <ele>885.4</ele>
        <time>2021-10-03T10:07:52Z</time>
      </trkpt>
      <trkpt lat="42.5775250" lon="-5.6464040">
        <ele>885.6</ele>
        <time>2021-10-03T10:07:54Z</time>
      </trkpt>
      <trkpt lat="42.5775430" lon="-5.6464610">
        <ele>885.8</ele>
        <time>2021-10-03T10:07:55Z</time>
      </trkpt>
      <trkpt lat="42.5775450" lon="-5.6466450">
        <ele>886.0</ele>
        <time>2021-10-03T10:07:58Z</time>
      </trkpt>
      <trkpt lat="42.5775360" lon="-5.6467070">
        <ele>886.0</ele>
        <time>2021-10-03T10:07:59Z</time>
      </trkpt>
      <trkpt lat="42.5775140" lon="-5.6468330">
        <ele>886.2</ele>
        <time>2021-10-03T10:08:01Z</time>
      </trkpt>
      <trkpt lat="42.5774960" lon="-5.6469560">
        <ele>886.4</ele>
        <time>2021-10-03T10:08:03Z</time>
      </trkpt>
      <trkpt lat="42.5774840" lon="-5.6470180">
        <ele>886.4</ele>
        <time>2021-10-03T10:08:04Z</time>
      </trkpt>
      <trkpt lat="42.5774570" lon="-5.6471330">
        <ele>886.6</ele>
        <time>2021-10-03T10:08:06Z</time>
      </trkpt>
      <trkpt lat="42.5774460" lon="-5.6471880">
        <ele>886.8</ele>
        <time>2021-10-03T10:08:07Z</time>
      </trkpt>
      <trkpt lat="42.5774280" lon="-5.6473020">
        <ele>887.8</ele>
        <time>2021-10-03T10:08:09Z</time>
      </trkpt>
      <trkpt lat="42.5773810" lon="-5.6475160">
        <ele>889.0</ele>
        <time>2021-10-03T10:08:13Z</time>
      </trkpt>
      <trkpt lat="42.5773200" lon="-5.6477200">
        <ele>890.0</ele>
        <time>2021-10-03T10:08:17Z</time>
      </trkpt>
      <trkpt lat="42.5772290" lon="-5.6479150">
        <ele>891.2</ele>
        <time>2021-10-03T10:08:21Z</time>
      </trkpt>
      <trkpt lat="42.5770850" lon="-5.6481320">
        <ele>892.2</ele>
        <time>2021-10-03T10:08:26Z</time>
      </trkpt>
      <trkpt lat="42.5770540" lon="-5.6481710">
        <ele>892.4</ele>
        <time>2021-10-03T10:08:27Z</time>
      </trkpt>
      <trkpt lat="42.5769380" lon="-5.6483250">
        <ele>893.0</ele>
        <time>2021-10-03T10:08:31Z</time>
      </trkpt>
      <trkpt lat="42.5768910" lon="-5.6484170">
        <ele>893.6</ele>
        <time>2021-10-03T10:08:33Z</time>
      </trkpt>
      <trkpt lat="42.5768260" lon="-5.6486310">
        <ele>894.6</ele>
        <time>2021-10-03T10:08:37Z</time>
      </trkpt>
      <trkpt lat="42.5768180" lon="-5.6486890">
        <ele>894.6</ele>
        <time>2021-10-03T10:08:38Z</time>
      </trkpt>
      <trkpt lat="42.5768040" lon="-5.6491830">
        <ele>894.8</ele>
        <time>2021-10-03T10:08:46Z</time>
      </trkpt>
      <trkpt lat="42.5767950" lon="-5.6493130">
        <ele>894.8</ele>
        <time>2021-10-03T10:08:48Z</time>
      </trkpt>
      <trkpt lat="42.5767490" lon="-5.6495040">
        <ele>894.6</ele>
        <time>2021-10-03T10:08:51Z</time>
      </trkpt>
      <trkpt lat="42.5767030" lon="-5.6496210">
        <ele>894.4</ele>
        <time>2021-10-03T10:08:53Z</time>
      </trkpt>
      <trkpt lat="42.5766130" lon="-5.6497720">
        <ele>894.2</ele>
        <time>2021-10-03T10:08:56Z</time>
      </trkpt>
      <trkpt lat="42.5765600" lon="-5.6498760">
        <ele>894.0</ele>
        <time>2021-10-03T10:08:58Z</time>
      </trkpt>
      <trkpt lat="42.5765390" lon="-5.6499900">
        <ele>893.4</ele>
        <time>2021-10-03T10:09:00Z</time>
      </trkpt>
      <trkpt lat="42.5765470" lon="-5.6501540">
        <ele>893.2</ele>
        <time>2021-10-03T10:09:03Z</time>
      </trkpt>
      <trkpt lat="42.5765380" lon="-5.6503010">
        <ele>893.0</ele>
        <time>2021-10-03T10:09:06Z</time>
      </trkpt>
      <trkpt lat="42.5765250" lon="-5.6503510">
        <ele>893.0</ele>
        <time>2021-10-03T10:09:07Z</time>
      </trkpt>
      <trkpt lat="42.5764780" lon="-5.6504590">
        <ele>893.2</ele>
        <time>2021-10-03T10:09:09Z</time>
      </trkpt>
      <trkpt lat="42.5763970" lon="-5.6506210">
        <ele>893.6</ele>
        <time>2021-10-03T10:09:12Z</time>
      </trkpt>
      <trkpt lat="42.5763170" lon="-5.6507790">
        <ele>894.6</ele>
        <time>2021-10-03T10:09:15Z</time>
      </trkpt>
      <trkpt lat="42.5761240" lon="-5.6511450">
        <ele>896.0</ele>
        <time>2021-10-03T10:09:22Z</time>
      </trkpt>
      <trkpt lat="42.5759630" lon="-5.6514660">
        <ele>897.0</ele>
        <time>2021-10-03T10:09:28Z</time>
      </trkpt>
      <trkpt lat="42.5756610" lon="-5.6520840">
        <ele>896.8</ele>
        <time>2021-10-03T10:09:39Z</time>
      </trkpt>
      <trkpt lat="42.5753570" lon="-5.6526730">
        <ele>896.8</ele>
        <time>2021-10-03T10:09:50Z</time>
      </trkpt>
      <trkpt lat="42.5753360" lon="-5.6527240">
        <ele>896.8</ele>
        <time>2021-10-03T10:09:51Z</time>
      </trkpt>
      <trkpt lat="42.5753070" lon="-5.6528630">
        <ele>897.4</ele>
        <time>2021-10-03T10:09:54Z</time>
      </trkpt>
      <trkpt lat="42.5752850" lon="-5.6529600">
        <ele>897.6</ele>
        <time>2021-10-03T10:09:56Z</time>
      </trkpt>
      <trkpt lat="42.5752620" lon="-5.6530110">
        <ele>897.8</ele>
        <time>2021-10-03T10:09:57Z</time>
      </trkpt>
      <trkpt lat="42.5751330" lon="-5.6532200">
        <ele>898.0</ele>
        <time>2021-10-03T10:10:01Z</time>
      </trkpt>
      <trkpt lat="42.5747830" lon="-5.6538370">
        <ele>897.8</ele>
        <time>2021-10-03T10:10:12Z</time>
      </trkpt>
      <trkpt lat="42.5746390" lon="-5.6540650">
        <ele>897.4</ele>
        <time>2021-10-03T10:10:16Z</time>
      </trkpt>
      <trkpt lat="42.5745290" lon="-5.6542540">
        <ele>897.2</ele>
        <time>2021-10-03T10:10:19Z</time>
      </trkpt>
      <trkpt lat="42.5744330" lon="-5.6544780">
        <ele>897.0</ele>
        <time>2021-10-03T10:10:22Z</time>
      </trkpt>
      <trkpt lat="42.5744020" lon="-5.6545620">
        <ele>896.8</ele>
        <time>2021-10-03T10:10:23Z</time>
      </trkpt>
      <trkpt lat="42.5742650" lon="-5.6549230">
        <ele>895.4</ele>
        <time>2021-10-03T10:10:27Z</time>
      </trkpt>
      <trkpt lat="42.5741980" lon="-5.6551050">
        <ele>894.4</ele>
        <time>2021-10-03T10:10:29Z</time>
      </trkpt>
      <trkpt lat="42.5741370" lon="-5.6552860">
        <ele>892.6</ele>
        <time>2021-10-03T10:10:31Z</time>
      </trkpt>
      <trkpt lat="42.5740800" lon="-5.6554680">
        <ele>891.2</ele>
        <time>2021-10-03T10:10:33Z</time>
      </trkpt>
      <trkpt lat="42.5740060" lon="-5.6557410">
        <ele>889.6</ele>
        <time>2021-10-03T10:10:36Z</time>
      </trkpt>
      <trkpt lat="42.5739150" lon="-5.6561210">
        <ele>888.2</ele>
        <time>2021-10-03T10:10:40Z</time>
      </trkpt>
      <trkpt lat="42.5738260" lon="-5.6564870">
        <ele>887.2</ele>
        <time>2021-10-03T10:10:44Z</time>
      </trkpt>
      <trkpt lat="42.5738010" lon="-5.6565700">
        <ele>886.0</ele>
        <time>2021-10-03T10:10:45Z</time>
      </trkpt>
      <trkpt lat="42.5737730" lon="-5.6566510">
        <ele>885.0</ele>
        <time>2021-10-03T10:10:46Z</time>
      </trkpt>
      <trkpt lat="42.5736420" lon="-5.6568760">
        <ele>883.8</ele>
        <time>2021-10-03T10:10:49Z</time>
      </trkpt>
      <trkpt lat="42.5735910" lon="-5.6569450">
        <ele>883.4</ele>
        <time>2021-10-03T10:10:50Z</time>
      </trkpt>
      <trkpt lat="42.5735400" lon="-5.6570240">
        <ele>883.2</ele>
        <time>2021-10-03T10:10:51Z</time>
      </trkpt>
      <trkpt lat="42.5734520" lon="-5.6572200">
        <ele>882.6</ele>
        <time>2021-10-03T10:10:53Z</time>
      </trkpt>
      <trkpt lat="42.5733300" lon="-5.6575500">
        <ele>881.6</ele>
        <time>2021-10-03T10:10:56Z</time>
      </trkpt>
      <trkpt lat="42.5732890" lon="-5.6576560">
        <ele>880.4</ele>
        <time>2021-10-03T10:10:57Z</time>
      </trkpt>
      <trkpt lat="42.5732080" lon="-5.6578480">
        <ele>878.6</ele>
        <time>2021-10-03T10:10:59Z</time>
      </trkpt>
      <trkpt lat="42.5731670" lon="-5.6579320">
        <ele>875.2</ele>
        <time>2021-10-03T10:11:00Z</time>
      </trkpt>
      <trkpt lat="42.5731220" lon="-5.6580060">
        <ele>874.4</ele>
        <time>2021-10-03T10:11:01Z</time>
      </trkpt>
      <trkpt lat="42.5730790" lon="-5.6580760">
        <ele>873.8</ele>
        <time>2021-10-03T10:11:02Z</time>
      </trkpt>
      <trkpt lat="42.5730400" lon="-5.6581410">
        <ele>872.6</ele>
        <time>2021-10-03T10:11:03Z</time>
      </trkpt>
      <trkpt lat="42.5730020" lon="-5.6581970">
        <ele>872.0</ele>
        <time>2021-10-03T10:11:04Z</time>
      </trkpt>
      <trkpt lat="42.5729220" lon="-5.6582940">
        <ele>871.6</ele>
        <time>2021-10-03T10:11:06Z</time>
      </trkpt>
      <trkpt lat="42.5728790" lon="-5.6583340">
        <ele>871.6</ele>
        <time>2021-10-03T10:11:07Z</time>
      </trkpt>
      <trkpt lat="42.5727880" lon="-5.6583930">
        <ele>871.6</ele>
        <time>2021-10-03T10:11:09Z</time>
      </trkpt>
      <trkpt lat="42.5726380" lon="-5.6584280">
        <ele>871.6</ele>
        <time>2021-10-03T10:11:12Z</time>
      </trkpt>
      <trkpt lat="42.5725330" lon="-5.6584350">
        <ele>873.0</ele>
        <time>2021-10-03T10:11:14Z</time>
      </trkpt>
      <trkpt lat="42.5724280" lon="-5.6584410">
        <ele>874.4</ele>
        <time>2021-10-03T10:11:16Z</time>
      </trkpt>
      <trkpt lat="42.5722740" lon="-5.6584460">
        <ele>875.4</ele>
        <time>2021-10-03T10:11:19Z</time>
      </trkpt>
      <trkpt lat="42.5721240" lon="-5.6584550">
        <ele>875.8</ele>
        <time>2021-10-03T10:11:22Z</time>
      </trkpt>
      <trkpt lat="42.5719790" lon="-5.6584720">
        <ele>876.2</ele>
        <time>2021-10-03T10:11:25Z</time>
      </trkpt>
      <trkpt lat="42.5719310" lon="-5.6584770">
        <ele>876.6</ele>
        <time>2021-10-03T10:11:26Z</time>
      </trkpt>
      <trkpt lat="42.5717880" lon="-5.6584830">
        <ele>877.6</ele>
        <time>2021-10-03T10:11:29Z</time>
      </trkpt>
      <trkpt lat="42.5715960" lon="-5.6584930">
        <ele>878.2</ele>
        <time>2021-10-03T10:11:33Z</time>
      </trkpt>
      <trkpt lat="42.5714500" lon="-5.6585090">
        <ele>878.8</ele>
        <time>2021-10-03T10:11:36Z</time>
      </trkpt>
      <trkpt lat="42.5713550" lon="-5.6585130">
        <ele>879.0</ele>
        <time>2021-10-03T10:11:38Z</time>
      </trkpt>
      <trkpt lat="42.5711750" lon="-5.6584400">
        <ele>879.4</ele>
        <time>2021-10-03T10:11:42Z</time>
      </trkpt>
      <trkpt lat="42.5710200" lon="-5.6582900">
        <ele>879.4</ele>
        <time>2021-10-03T10:11:46Z</time>
      </trkpt>
      <trkpt lat="42.5709680" lon="-5.6580920">
        <ele>879.4</ele>
        <time>2021-10-03T10:11:49Z</time>
      </trkpt>
      <trkpt lat="42.5709570" lon="-5.6580130">
        <ele>879.4</ele>
        <time>2021-10-03T10:11:50Z</time>
      </trkpt>
      <trkpt lat="42.5709410" lon="-5.6578710">
        <ele>879.2</ele>
        <time>2021-10-03T10:11:52Z</time>
      </trkpt>
      <trkpt lat="42.5708830" lon="-5.6577260">
        <ele>878.4</ele>
        <time>2021-10-03T10:11:56Z</time>
      </trkpt>
      <trkpt lat="42.5708190" lon="-5.6577400">
        <ele>877.6</ele>
        <time>2021-10-03T10:11:58Z</time>
      </trkpt>
      <trkpt lat="42.5707760" lon="-5.6577910">
        <ele>876.6</ele>
        <time>2021-10-03T10:12:02Z</time>
      </trkpt>
      <trkpt lat="42.5707330" lon="-5.6578410">
        <ele>876.2</ele>
        <time>2021-10-03T10:12:19Z</time>
      </trkpt>
      <trkpt lat="42.5706900" lon="-5.6578920">
        <ele>876.2</ele>
        <time>2021-10-03T10:12:22Z</time>
      </trkpt>
      <trkpt lat="42.5706470" lon="-5.6579420">
        <ele>876.2</ele>
        <time>2021-10-03T10:12:23Z</time>
      </trkpt>
      <trkpt lat="42.5706040" lon="-5.6579920">
        <ele>876.8</ele>
        <time>2021-10-03T10:12:34Z</time>
      </trkpt>
      <trkpt lat="42.5705610" lon="-5.6580430">
        <ele>877.0</ele>
        <time>2021-10-03T10:13:09Z</time>
      </trkpt>
      <trkpt lat="42.5705180" lon="-5.6580930">
        <ele>877.0</ele>
        <time>2021-10-03T10:13:10Z</time>
      </trkpt>
      <trkpt lat="42.5704750" lon="-5.6581440">
        <ele>877.4</ele>
        <time>2021-10-03T10:13:15Z</time>
      </trkpt>
      <trkpt lat="42.5704320" lon="-5.6581940">
        <ele>877.4</ele>
        <time>2021-10-03T10:13:16Z</time>
      </trkpt>
      <trkpt lat="42.5702940" lon="-5.6584780">
        <ele>877.6</ele>
        <time>2021-10-03T10:13:24Z</time>
      </trkpt>
      <trkpt lat="42.5703700" lon="-5.6586610">
        <ele>877.6</ele>
        <time>2021-10-03T10:13:30Z</time>
      </trkpt>
      <trkpt lat="42.5704190" lon="-5.6587690">
        <ele>877.8</ele>
        <time>2021-10-03T10:13:33Z</time>
      </trkpt>
      <trkpt lat="42.5704700" lon="-5.6588880">
        <ele>877.8</ele>
        <time>2021-10-03T10:13:36Z</time>
      </trkpt>
      <trkpt lat="42.5705410" lon="-5.6589940">
        <ele>877.8</ele>
        <time>2021-10-03T10:13:39Z</time>
      </trkpt>
      <trkpt lat="42.5706210" lon="-5.6590730">
        <ele>878.0</ele>
        <time>2021-10-03T10:13:42Z</time>
      </trkpt>
      <trkpt lat="42.5706720" lon="-5.6591230">
        <ele>878.6</ele>
        <time>2021-10-03T10:13:44Z</time>
      </trkpt>
      <trkpt lat="42.5707480" lon="-5.6592100">
        <ele>879.4</ele>
        <time>2021-10-03T10:13:47Z</time>
      </trkpt>
      <trkpt lat="42.5707720" lon="-5.6592450">
        <ele>880.0</ele>
        <time>2021-10-03T10:13:48Z</time>
      </trkpt>
      <trkpt lat="42.5708190" lon="-5.6593190">
        <ele>881.2</ele>
        <time>2021-10-03T10:13:50Z</time>
      </trkpt>
      <trkpt lat="42.5708910" lon="-5.6594340">
        <ele>882.0</ele>
        <time>2021-10-03T10:13:53Z</time>
      </trkpt>
      <trkpt lat="42.5709150" lon="-5.6594730">
        <ele>882.2</ele>
        <time>2021-10-03T10:13:54Z</time>
      </trkpt>
      <trkpt lat="42.5709820" lon="-5.6595890">
        <ele>882.4</ele>
        <time>2021-10-03T10:13:57Z</time>
      </trkpt>
      <trkpt lat="42.5711300" lon="-5.6598310">
        <ele>883.4</ele>
        <time>2021-10-03T10:14:03Z</time>
      </trkpt>
      <trkpt lat="42.5714810" lon="-5.6603950">
        <ele>884.2</ele>
        <time>2021-10-03T10:14:16Z</time>
      </trkpt>
      <trkpt lat="42.5715420" lon="-5.6604700">
        <ele>884.4</ele>
        <time>2021-10-03T10:14:18Z</time>
      </trkpt>
      <trkpt lat="42.5718480" lon="-5.6607480">
        <ele>884.6</ele>
        <time>2021-10-03T10:14:27Z</time>
      </trkpt>
      <trkpt lat="42.5719550" lon="-5.6608900">
        <ele>885.2</ele>
        <time>2021-10-03T10:14:31Z</time>
      </trkpt>
      <trkpt lat="42.5720430" lon="-5.6610860">
        <ele>886.2</ele>
        <time>2021-10-03T10:14:36Z</time>
      </trkpt>
      <trkpt lat="42.5721160" lon="-5.6612730">
        <ele>887.4</ele>
        <time>2021-10-03T10:14:41Z</time>
      </trkpt>
      <trkpt lat="42.5721740" lon="-5.6613970">
        <ele>888.6</ele>
        <time>2021-10-03T10:14:45Z</time>
      </trkpt>
      <trkpt lat="42.5721860" lon="-5.6614280">
        <ele>888.8</ele>
        <time>2021-10-03T10:14:46Z</time>
      </trkpt>
      <trkpt lat="42.5722140" lon="-5.6615250">
        <ele>890.0</ele>
        <time>2021-10-03T10:14:49Z</time>
      </trkpt>
      <trkpt lat="42.5722060" lon="-5.6616300">
        <ele>891.0</ele>
        <time>2021-10-03T10:14:52Z</time>
      </trkpt>
      <trkpt lat="42.5721430" lon="-5.6617660">
        <ele>891.6</ele>
        <time>2021-10-03T10:14:56Z</time>
      </trkpt>
      <trkpt lat="42.5721060" lon="-5.6618330">
        <ele>892.4</ele>
        <time>2021-10-03T10:14:58Z</time>
      </trkpt>
      <trkpt lat="42.5720670" lon="-5.6619000">
        <ele>894.0</ele>
        <time>2021-10-03T10:15:00Z</time>
      </trkpt>
      <trkpt lat="42.5720140" lon="-5.6620080">
        <ele>895.4</ele>
        <time>2021-10-03T10:15:03Z</time>
      </trkpt>
      <trkpt lat="42.5719090" lon="-5.6623820">
        <ele>896.4</ele>
        <time>2021-10-03T10:15:12Z</time>
      </trkpt>
      <trkpt lat="42.5718610" lon="-5.6627140">
        <ele>897.2</ele>
        <time>2021-10-03T10:15:19Z</time>
      </trkpt>
      <trkpt lat="42.5718220" lon="-5.6629510">
        <ele>897.8</ele>
        <time>2021-10-03T10:15:24Z</time>
      </trkpt>
      <trkpt lat="42.5718000" lon="-5.6630910">
        <ele>898.4</ele>
        <time>2021-10-03T10:15:27Z</time>
      </trkpt>
      <trkpt lat="42.5717670" lon="-5.6633760">
        <ele>899.6</ele>
        <time>2021-10-03T10:15:33Z</time>
      </trkpt>
      <trkpt lat="42.5717570" lon="-5.6636690">
        <ele>900.8</ele>
        <time>2021-10-03T10:15:39Z</time>
      </trkpt>
      <trkpt lat="42.5716580" lon="-5.6643980">
        <ele>910.0</ele>
        <time>2021-10-03T10:15:53Z</time>
      </trkpt>
      <trkpt lat="42.5716480" lon="-5.6644560">
        <ele>901.8</ele>
        <time>2021-10-03T10:15:54Z</time>
      </trkpt>
      <trkpt lat="42.5716150" lon="-5.6647000">
        <ele>902.2</ele>
        <time>2021-10-03T10:15:58Z</time>
      </trkpt>
      <trkpt lat="42.5715820" lon="-5.6649570">
        <ele>902.2</ele>
        <time>2021-10-03T10:16:02Z</time>
      </trkpt>
      <trkpt lat="42.5715490" lon="-5.6652250">
        <ele>901.8</ele>
        <time>2021-10-03T10:16:06Z</time>
      </trkpt>
      <trkpt lat="42.5715050" lon="-5.6655740">
        <ele>901.4</ele>
        <time>2021-10-03T10:16:11Z</time>
      </trkpt>
      <trkpt lat="42.5714970" lon="-5.6657140">
        <ele>900.8</ele>
        <time>2021-10-03T10:16:13Z</time>
      </trkpt>
      <trkpt lat="42.5715140" lon="-5.6665210">
        <ele>899.8</ele>
        <time>2021-10-03T10:16:24Z</time>
      </trkpt>
      <trkpt lat="42.5715220" lon="-5.6669280">
        <ele>899.2</ele>
        <time>2021-10-03T10:16:29Z</time>
      </trkpt>
      <trkpt lat="42.5715030" lon="-5.6673580">
        <ele>898.8</ele>
        <time>2021-10-03T10:16:34Z</time>
      </trkpt>
      <trkpt lat="42.5714890" lon="-5.6675340">
        <ele>898.4</ele>
        <time>2021-10-03T10:16:36Z</time>
      </trkpt>
      <trkpt lat="42.5714650" lon="-5.6678970">
        <ele>898.2</ele>
        <time>2021-10-03T10:16:40Z</time>
      </trkpt>
      <trkpt lat="42.5714560" lon="-5.6681300">
        <ele>897.6</ele>
        <time>2021-10-03T10:16:43Z</time>
      </trkpt>
      <trkpt lat="42.5714600" lon="-5.6682000">
        <ele>897.4</ele>
        <time>2021-10-03T10:16:44Z</time>
      </trkpt>
      <trkpt lat="42.5714730" lon="-5.6682670">
        <ele>897.2</ele>
        <time>2021-10-03T10:16:45Z</time>
      </trkpt>
      <trkpt lat="42.5715210" lon="-5.6685530">
        <ele>896.2</ele>
        <time>2021-10-03T10:16:49Z</time>
      </trkpt>
      <trkpt lat="42.5715160" lon="-5.6686320">
        <ele>896.0</ele>
        <time>2021-10-03T10:16:50Z</time>
      </trkpt>
      <trkpt lat="42.5714910" lon="-5.6688810">
        <ele>895.2</ele>
        <time>2021-10-03T10:16:53Z</time>
      </trkpt>
      <trkpt lat="42.5714730" lon="-5.6691450">
        <ele>894.0</ele>
        <time>2021-10-03T10:16:56Z</time>
      </trkpt>
      <trkpt lat="42.5714780" lon="-5.6693240">
        <ele>892.6</ele>
        <time>2021-10-03T10:16:58Z</time>
      </trkpt>
      <trkpt lat="42.5714900" lon="-5.6695950">
        <ele>891.0</ele>
        <time>2021-10-03T10:17:01Z</time>
      </trkpt>
      <trkpt lat="42.5714950" lon="-5.6697800">
        <ele>890.4</ele>
        <time>2021-10-03T10:17:03Z</time>
      </trkpt>
      <trkpt lat="42.5714960" lon="-5.6699680">
        <ele>890.0</ele>
        <time>2021-10-03T10:17:05Z</time>
      </trkpt>
      <trkpt lat="42.5714970" lon="-5.6702530">
        <ele>889.4</ele>
        <time>2021-10-03T10:17:08Z</time>
      </trkpt>
      <trkpt lat="42.5715050" lon="-5.6710050">
        <ele>888.8</ele>
        <time>2021-10-03T10:17:16Z</time>
      </trkpt>
      <trkpt lat="42.5715060" lon="-5.6711000">
        <ele>888.6</ele>
        <time>2021-10-03T10:17:17Z</time>
      </trkpt>
      <trkpt lat="42.5714920" lon="-5.6718420">
        <ele>888.0</ele>
        <time>2021-10-03T10:17:25Z</time>
      </trkpt>
      <trkpt lat="42.5715080" lon="-5.6726370">
        <ele>889.0</ele>
        <time>2021-10-03T10:17:34Z</time>
      </trkpt>
      <trkpt lat="42.5715060" lon="-5.6733890">
        <ele>889.4</ele>
        <time>2021-10-03T10:17:43Z</time>
      </trkpt>
      <trkpt lat="42.5714970" lon="-5.6741320">
        <ele>889.4</ele>
        <time>2021-10-03T10:17:53Z</time>
      </trkpt>
      <trkpt lat="42.5714890" lon="-5.6743310">
        <ele>889.4</ele>
        <time>2021-10-03T10:17:56Z</time>
      </trkpt>
      <trkpt lat="42.5714680" lon="-5.6745200">
        <ele>889.6</ele>
        <time>2021-10-03T10:17:59Z</time>
      </trkpt>
      <trkpt lat="42.5713490" lon="-5.6748870">
        <ele>890.2</ele>
        <time>2021-10-03T10:18:05Z</time>
      </trkpt>
      <trkpt lat="42.5712240" lon="-5.6753250">
        <ele>890.4</ele>
        <time>2021-10-03T10:18:12Z</time>
      </trkpt>
      <trkpt lat="42.5712110" lon="-5.6753860">
        <ele>890.6</ele>
        <time>2021-10-03T10:18:13Z</time>
      </trkpt>
      <trkpt lat="42.5711950" lon="-5.6754500">
        <ele>890.8</ele>
        <time>2021-10-03T10:18:14Z</time>
      </trkpt>
      <trkpt lat="42.5710030" lon="-5.6761710">
        <ele>891.2</ele>
        <time>2021-10-03T10:18:25Z</time>
      </trkpt>
      <trkpt lat="42.5709110" lon="-5.6765560">
        <ele>891.2</ele>
        <time>2021-10-03T10:18:31Z</time>
      </trkpt>
      <trkpt lat="42.5708590" lon="-5.6767280">
        <ele>891.2</ele>
        <time>2021-10-03T10:18:34Z</time>
      </trkpt>
      <trkpt lat="42.5708200" lon="-5.6768310">
        <ele>891.2</ele>
        <time>2021-10-03T10:18:36Z</time>
      </trkpt>
      <trkpt lat="42.5706220" lon="-5.6775480">
        <ele>890.8</ele>
        <time>2021-10-03T10:18:48Z</time>
      </trkpt>
      <trkpt lat="42.5705930" lon="-5.6776740">
        <ele>890.6</ele>
        <time>2021-10-03T10:18:50Z</time>
      </trkpt>
      <trkpt lat="42.5705030" lon="-5.6779760">
        <ele>890.2</ele>
        <time>2021-10-03T10:18:55Z</time>
      </trkpt>
      <trkpt lat="42.5704160" lon="-5.6783060">
        <ele>890.4</ele>
        <time>2021-10-03T10:19:00Z</time>
      </trkpt>
      <trkpt lat="42.5703630" lon="-5.6785060">
        <ele>890.6</ele>
        <time>2021-10-03T10:19:03Z</time>
      </trkpt>
      <trkpt lat="42.5703230" lon="-5.6786910">
        <ele>890.4</ele>
        <time>2021-10-03T10:19:06Z</time>
      </trkpt>
      <trkpt lat="42.5702740" lon="-5.6788780">
        <ele>890.6</ele>
        <time>2021-10-03T10:19:09Z</time>
      </trkpt>
      <trkpt lat="42.5702230" lon="-5.6790750">
        <ele>890.2</ele>
        <time>2021-10-03T10:19:12Z</time>
      </trkpt>
      <trkpt lat="42.5702090" lon="-5.6791390">
        <ele>889.6</ele>
        <time>2021-10-03T10:19:13Z</time>
      </trkpt>
      <trkpt lat="42.5701980" lon="-5.6792060">
        <ele>889.0</ele>
        <time>2021-10-03T10:19:14Z</time>
      </trkpt>
      <trkpt lat="42.5701660" lon="-5.6793330">
        <ele>888.0</ele>
        <time>2021-10-03T10:19:16Z</time>
      </trkpt>
      <trkpt lat="42.5701550" lon="-5.6793930">
        <ele>887.6</ele>
        <time>2021-10-03T10:19:17Z</time>
      </trkpt>
      <trkpt lat="42.5701270" lon="-5.6795890">
        <ele>886.8</ele>
        <time>2021-10-03T10:19:20Z</time>
      </trkpt>
      <trkpt lat="42.5700230" lon="-5.6799480">
        <ele>886.2</ele>
        <time>2021-10-03T10:19:25Z</time>
      </trkpt>
      <trkpt lat="42.5699490" lon="-5.6801880">
        <ele>885.6</ele>
        <time>2021-10-03T10:19:28Z</time>
      </trkpt>
      <trkpt lat="42.5699030" lon="-5.6803570">
        <ele>884.4</ele>
        <time>2021-10-03T10:19:30Z</time>
      </trkpt>
      <trkpt lat="42.5698200" lon="-5.6806120">
        <ele>883.8</ele>
        <time>2021-10-03T10:19:33Z</time>
      </trkpt>
      <trkpt lat="42.5697880" lon="-5.6806960">
        <ele>882.8</ele>
        <time>2021-10-03T10:19:34Z</time>
      </trkpt>
      <trkpt lat="42.5697580" lon="-5.6807840">
        <ele>881.8</ele>
        <time>2021-10-03T10:19:35Z</time>
      </trkpt>
      <trkpt lat="42.5697100" lon="-5.6809670">
        <ele>880.6</ele>
        <time>2021-10-03T10:19:37Z</time>
      </trkpt>
      <trkpt lat="42.5696550" lon="-5.6811500">
        <ele>879.4</ele>
        <time>2021-10-03T10:19:39Z</time>
      </trkpt>
      <trkpt lat="42.5695590" lon="-5.6814160">
        <ele>878.4</ele>
        <time>2021-10-03T10:19:42Z</time>
      </trkpt>
      <trkpt lat="42.5694630" lon="-5.6816780">
        <ele>877.2</ele>
        <time>2021-10-03T10:19:45Z</time>
      </trkpt>
      <trkpt lat="42.5693090" lon="-5.6820750">
        <ele>876.0</ele>
        <time>2021-10-03T10:19:50Z</time>
      </trkpt>
      <trkpt lat="42.5692030" lon="-5.6823230">
        <ele>875.6</ele>
        <time>2021-10-03T10:19:54Z</time>
      </trkpt>
      <trkpt lat="42.5691650" lon="-5.6824420">
        <ele>875.6</ele>
        <time>2021-10-03T10:19:56Z</time>
      </trkpt>
      <trkpt lat="42.5690850" lon="-5.6826850">
        <ele>875.8</ele>
        <time>2021-10-03T10:20:01Z</time>
      </trkpt>
      <trkpt lat="42.5689690" lon="-5.6829560">
        <ele>875.8</ele>
        <time>2021-10-03T10:20:07Z</time>
      </trkpt>
      <trkpt lat="42.5688810" lon="-5.6831600">
        <ele>876.2</ele>
        <time>2021-10-03T10:20:11Z</time>
      </trkpt>
      <trkpt lat="42.5687970" lon="-5.6833240">
        <ele>876.6</ele>
        <time>2021-10-03T10:20:15Z</time>
      </trkpt>
      <trkpt lat="42.5687810" lon="-5.6833430">
        <ele>877.0</ele>
        <time>2021-10-03T10:20:18Z</time>
      </trkpt>
      <trkpt lat="42.5687980" lon="-5.6833600">
        <ele>879.6</ele>
        <time>2021-10-03T10:20:42Z</time>
      </trkpt>
      <trkpt lat="42.5688070" lon="-5.6833870">
        <ele>879.4</ele>
        <time>2021-10-03T10:20:43Z</time>
      </trkpt>
      <trkpt lat="42.5688110" lon="-5.6834230">
        <ele>879.4</ele>
        <time>2021-10-03T10:20:44Z</time>
      </trkpt>
      <trkpt lat="42.5688040" lon="-5.6834700">
        <ele>879.4</ele>
        <time>2021-10-03T10:20:45Z</time>
      </trkpt>
      <trkpt lat="42.5687660" lon="-5.6835750">
        <ele>879.4</ele>
        <time>2021-10-03T10:20:47Z</time>
      </trkpt>
      <trkpt lat="42.5687430" lon="-5.6836310">
        <ele>879.4</ele>
        <time>2021-10-03T10:20:48Z</time>
      </trkpt>
      <trkpt lat="42.5687030" lon="-5.6837280">
        <ele>879.6</ele>
        <time>2021-10-03T10:20:50Z</time>
      </trkpt>
      <trkpt lat="42.5686390" lon="-5.6838730">
        <ele>879.8</ele>
        <time>2021-10-03T10:20:53Z</time>
      </trkpt>
      <trkpt lat="42.5685480" lon="-5.6840980">
        <ele>879.8</ele>
        <time>2021-10-03T10:20:57Z</time>
      </trkpt>
      <trkpt lat="42.5684440" lon="-5.6843420">
        <ele>879.6</ele>
        <time>2021-10-03T10:21:01Z</time>
      </trkpt>
      <trkpt lat="42.5683680" lon="-5.6845260">
        <ele>879.8</ele>
        <time>2021-10-03T10:21:04Z</time>
      </trkpt>
      <trkpt lat="42.5682930" lon="-5.6847020">
        <ele>880.4</ele>
        <time>2021-10-03T10:21:07Z</time>
      </trkpt>
      <trkpt lat="42.5682690" lon="-5.6847610">
        <ele>880.6</ele>
        <time>2021-10-03T10:21:08Z</time>
      </trkpt>
      <trkpt lat="42.5681810" lon="-5.6849930">
        <ele>881.2</ele>
        <time>2021-10-03T10:21:12Z</time>
      </trkpt>
      <trkpt lat="42.5681370" lon="-5.6851070">
        <ele>881.8</ele>
        <time>2021-10-03T10:21:14Z</time>
      </trkpt>
      <trkpt lat="42.5680390" lon="-5.6853230">
        <ele>882.8</ele>
        <time>2021-10-03T10:21:18Z</time>
      </trkpt>
      <trkpt lat="42.5679110" lon="-5.6856370">
        <ele>883.8</ele>
        <time>2021-10-03T10:21:24Z</time>
      </trkpt>
      <trkpt lat="42.5678030" lon="-5.6858920">
        <ele>884.8</ele>
        <time>2021-10-03T10:21:29Z</time>
      </trkpt>
      <trkpt lat="42.5677030" lon="-5.6861420">
        <ele>886.0</ele>
        <time>2021-10-03T10:21:34Z</time>
      </trkpt>
      <trkpt lat="42.5676180" lon="-5.6863280">
        <ele>886.8</ele>
        <time>2021-10-03T10:21:38Z</time>
      </trkpt>
      <trkpt lat="42.5675370" lon="-5.6865190">
        <ele>887.0</ele>
        <time>2021-10-03T10:21:42Z</time>
      </trkpt>
      <trkpt lat="42.5673920" lon="-5.6868400">
        <ele>888.4</ele>
        <time>2021-10-03T10:21:49Z</time>
      </trkpt>
      <trkpt lat="42.5672460" lon="-5.6871600">
        <ele>889.4</ele>
        <time>2021-10-03T10:21:56Z</time>
      </trkpt>
      <trkpt lat="42.5671700" lon="-5.6873370">
        <ele>890.6</ele>
        <time>2021-10-03T10:22:00Z</time>
      </trkpt>
      <trkpt lat="42.5670670" lon="-5.6875180">
        <ele>891.8</ele>
        <time>2021-10-03T10:22:06Z</time>
      </trkpt>
      <trkpt lat="42.5670400" lon="-5.6875540">
        <ele>892.0</ele>
        <time>2021-10-03T10:22:08Z</time>
      </trkpt>
      <trkpt lat="42.5669430" lon="-5.6875360">
        <ele>892.6</ele>
        <time>2021-10-03T10:22:11Z</time>
      </trkpt>
      <trkpt lat="42.5669020" lon="-5.6875390">
        <ele>893.0</ele>
        <time>2021-10-03T10:22:12Z</time>
      </trkpt>
      <trkpt lat="42.5667490" lon="-5.6877540">
        <ele>893.6</ele>
        <time>2021-10-03T10:22:18Z</time>
      </trkpt>
      <trkpt lat="42.5666220" lon="-5.6880120">
        <ele>894.0</ele>
        <time>2021-10-03T10:22:23Z</time>
      </trkpt>
      <trkpt lat="42.5664920" lon="-5.6882860">
        <ele>893.8</ele>
        <time>2021-10-03T10:22:28Z</time>
      </trkpt>
      <trkpt lat="42.5661600" lon="-5.6889290">
        <ele>894.0</ele>
        <time>2021-10-03T10:22:40Z</time>
      </trkpt>
      <trkpt lat="42.5661310" lon="-5.6889820">
        <ele>894.2</ele>
        <time>2021-10-03T10:22:41Z</time>
      </trkpt>
      <trkpt lat="42.5658620" lon="-5.6894850">
        <ele>894.2</ele>
        <time>2021-10-03T10:22:50Z</time>
      </trkpt>
      <trkpt lat="42.5656440" lon="-5.6898470">
        <ele>894.8</ele>
        <time>2021-10-03T10:22:57Z</time>
      </trkpt>
      <trkpt lat="42.5654740" lon="-5.6901580">
        <ele>895.2</ele>
        <time>2021-10-03T10:23:03Z</time>
      </trkpt>
      <trkpt lat="42.5653290" lon="-5.6904230">
        <ele>895.8</ele>
        <time>2021-10-03T10:23:09Z</time>
      </trkpt>
      <trkpt lat="42.5652960" lon="-5.6904830">
        <ele>896.6</ele>
        <time>2021-10-03T10:23:11Z</time>
      </trkpt>
      <trkpt lat="42.5652810" lon="-5.6905080">
        <ele>896.8</ele>
        <time>2021-10-03T10:23:12Z</time>
      </trkpt>
      <trkpt lat="42.5649490" lon="-5.6911560">
        <ele>896.4</ele>
        <time>2021-10-03T10:23:24Z</time>
      </trkpt>
      <trkpt lat="42.5648800" lon="-5.6912960">
        <ele>896.0</ele>
        <time>2021-10-03T10:23:26Z</time>
      </trkpt>
      <trkpt lat="42.5647400" lon="-5.6915950">
        <ele>895.8</ele>
        <time>2021-10-03T10:23:30Z</time>
      </trkpt>
      <trkpt lat="42.5646720" lon="-5.6917340">
        <ele>895.4</ele>
        <time>2021-10-03T10:23:32Z</time>
      </trkpt>
      <trkpt lat="42.5645890" lon="-5.6918890">
        <ele>894.0</ele>
        <time>2021-10-03T10:23:35Z</time>
      </trkpt>
      <trkpt lat="42.5645290" lon="-5.6920920">
        <ele>893.6</ele>
        <time>2021-10-03T10:23:39Z</time>
      </trkpt>
      <trkpt lat="42.5643780" lon="-5.6923870">
        <ele>892.8</ele>
        <time>2021-10-03T10:23:44Z</time>
      </trkpt>
      <trkpt lat="42.5640580" lon="-5.6929880">
        <ele>892.0</ele>
        <time>2021-10-03T10:23:53Z</time>
      </trkpt>
      <trkpt lat="42.5640210" lon="-5.6930550">
        <ele>892.0</ele>
        <time>2021-10-03T10:23:54Z</time>
      </trkpt>
      <trkpt lat="42.5638680" lon="-5.6933140">
        <ele>891.4</ele>
        <time>2021-10-03T10:23:58Z</time>
      </trkpt>
      <trkpt lat="42.5638040" lon="-5.6934420">
        <ele>890.8</ele>
        <time>2021-10-03T10:24:01Z</time>
      </trkpt>
      <trkpt lat="42.5637300" lon="-5.6935930">
        <ele>890.2</ele>
        <time>2021-10-03T10:24:05Z</time>
      </trkpt>
      <trkpt lat="42.5634210" lon="-5.6941730">
        <ele>889.8</ele>
        <time>2021-10-03T10:24:15Z</time>
      </trkpt>
      <trkpt lat="42.5632060" lon="-5.6945730">
        <ele>888.6</ele>
        <time>2021-10-03T10:24:21Z</time>
      </trkpt>
      <trkpt lat="42.5628530" lon="-5.6952250">
        <ele>887.8</ele>
        <time>2021-10-03T10:24:30Z</time>
      </trkpt>
      <trkpt lat="42.5628140" lon="-5.6952990">
        <ele>887.6</ele>
        <time>2021-10-03T10:24:31Z</time>
      </trkpt>
      <trkpt lat="42.5626540" lon="-5.6955950">
        <ele>887.0</ele>
        <time>2021-10-03T10:24:35Z</time>
      </trkpt>
      <trkpt lat="42.5625010" lon="-5.6958910">
        <ele>886.4</ele>
        <time>2021-10-03T10:24:39Z</time>
      </trkpt>
      <trkpt lat="42.5623560" lon="-5.6961780">
        <ele>885.2</ele>
        <time>2021-10-03T10:24:43Z</time>
      </trkpt>
      <trkpt lat="42.5622870" lon="-5.6962930">
        <ele>884.6</ele>
        <time>2021-10-03T10:24:45Z</time>
      </trkpt>
      <trkpt lat="42.5621380" lon="-5.6965820">
        <ele>884.4</ele>
        <time>2021-10-03T10:24:52Z</time>
      </trkpt>
      <trkpt lat="42.5621180" lon="-5.6966150">
        <ele>884.6</ele>
        <time>2021-10-03T10:24:54Z</time>
      </trkpt>
      <trkpt lat="42.5621050" lon="-5.6966440">
        <ele>884.8</ele>
        <time>2021-10-03T10:24:56Z</time>
      </trkpt>
      <trkpt lat="42.5620450" lon="-5.6967390">
        <ele>886.2</ele>
        <time>2021-10-03T10:25:00Z</time>
      </trkpt>
      <trkpt lat="42.5617380" lon="-5.6973120">
        <ele>886.0</ele>
        <time>2021-10-03T10:25:13Z</time>
      </trkpt>
      <trkpt lat="42.5617200" lon="-5.6973740">
        <ele>886.0</ele>
        <time>2021-10-03T10:25:15Z</time>
      </trkpt>
      <trkpt lat="42.5617050" lon="-5.6975180">
        <ele>885.6</ele>
        <time>2021-10-03T10:25:18Z</time>
      </trkpt>
      <trkpt lat="42.5616570" lon="-5.6976450">
        <ele>885.2</ele>
        <time>2021-10-03T10:25:20Z</time>
      </trkpt>
      <trkpt lat="42.5615900" lon="-5.6977900">
        <ele>885.0</ele>
        <time>2021-10-03T10:25:22Z</time>
      </trkpt>
      <trkpt lat="42.5615150" lon="-5.6979370">
        <ele>885.0</ele>
        <time>2021-10-03T10:25:24Z</time>
      </trkpt>
      <trkpt lat="42.5614370" lon="-5.6980830">
        <ele>884.8</ele>
        <time>2021-10-03T10:25:26Z</time>
      </trkpt>
      <trkpt lat="42.5613560" lon="-5.6982310">
        <ele>884.2</ele>
        <time>2021-10-03T10:25:28Z</time>
      </trkpt>
      <trkpt lat="42.5610090" lon="-5.6988940">
        <ele>883.6</ele>
        <time>2021-10-03T10:25:37Z</time>
      </trkpt>
      <trkpt lat="42.5608200" lon="-5.6992450">
        <ele>883.4</ele>
        <time>2021-10-03T10:25:42Z</time>
      </trkpt>
      <trkpt lat="42.5605680" lon="-5.6997420">
        <ele>883.6</ele>
        <time>2021-10-03T10:25:49Z</time>
      </trkpt>
      <trkpt lat="42.5603890" lon="-5.7000730">
        <ele>885.4</ele>
        <time>2021-10-03T10:25:54Z</time>
      </trkpt>
      <trkpt lat="42.5602390" lon="-5.7003280">
        <ele>886.6</ele>
        <time>2021-10-03T10:25:58Z</time>
      </trkpt>
      <trkpt lat="42.5599660" lon="-5.7008660">
        <ele>887.6</ele>
        <time>2021-10-03T10:26:06Z</time>
      </trkpt>
      <trkpt lat="42.5598980" lon="-5.7009940">
        <ele>887.6</ele>
        <time>2021-10-03T10:26:08Z</time>
      </trkpt>
      <trkpt lat="42.5596740" lon="-5.7014390">
        <ele>888.0</ele>
        <time>2021-10-03T10:26:15Z</time>
      </trkpt>
      <trkpt lat="42.5594760" lon="-5.7018200">
        <ele>888.6</ele>
        <time>2021-10-03T10:26:22Z</time>
      </trkpt>
      <trkpt lat="42.5594540" lon="-5.7018650">
        <ele>888.8</ele>
        <time>2021-10-03T10:26:23Z</time>
      </trkpt>
      <trkpt lat="42.5593780" lon="-5.7020030">
        <ele>890.0</ele>
        <time>2021-10-03T10:26:27Z</time>
      </trkpt>
      <trkpt lat="42.5593340" lon="-5.7020810">
        <ele>891.0</ele>
        <time>2021-10-03T10:26:30Z</time>
      </trkpt>
      <trkpt lat="42.5592750" lon="-5.7021870">
        <ele>892.0</ele>
        <time>2021-10-03T10:26:35Z</time>
      </trkpt>
      <trkpt lat="42.5590890" lon="-5.7025090">
        <ele>892.4</ele>
        <time>2021-10-03T10:26:45Z</time>
      </trkpt>
      <trkpt lat="42.5589680" lon="-5.7026050">
        <ele>892.4</ele>
        <time>2021-10-03T10:26:48Z</time>
      </trkpt>
      <trkpt lat="42.5588460" lon="-5.7027270">
        <ele>892.4</ele>
        <time>2021-10-03T10:26:51Z</time>
      </trkpt>
      <trkpt lat="42.5588010" lon="-5.7027700">
        <ele>892.4</ele>
        <time>2021-10-03T10:26:52Z</time>
      </trkpt>
      <trkpt lat="42.5585810" lon="-5.7030270">
        <ele>892.4</ele>
        <time>2021-10-03T10:26:57Z</time>
      </trkpt>
      <trkpt lat="42.5582840" lon="-5.7034270">
        <ele>892.2</ele>
        <time>2021-10-03T10:27:04Z</time>
      </trkpt>
      <trkpt lat="42.5579920" lon="-5.7038970">
        <ele>892.6</ele>
        <time>2021-10-03T10:27:13Z</time>
      </trkpt>
      <trkpt lat="42.5579290" lon="-5.7039710">
        <ele>893.0</ele>
        <time>2021-10-03T10:27:15Z</time>
      </trkpt>
      <trkpt lat="42.5578990" lon="-5.7040130">
        <ele>893.0</ele>
        <time>2021-10-03T10:27:16Z</time>
      </trkpt>
      <trkpt lat="42.5578120" lon="-5.7041680">
        <ele>894.0</ele>
        <time>2021-10-03T10:27:19Z</time>
      </trkpt>
      <trkpt lat="42.5577470" lon="-5.7042840">
        <ele>895.2</ele>
        <time>2021-10-03T10:27:21Z</time>
      </trkpt>
      <trkpt lat="42.5576520" lon="-5.7044590">
        <ele>895.8</ele>
        <time>2021-10-03T10:27:24Z</time>
      </trkpt>
      <trkpt lat="42.5575620" lon="-5.7046230">
        <ele>896.0</ele>
        <time>2021-10-03T10:27:27Z</time>
      </trkpt>
      <trkpt lat="42.5575050" lon="-5.7047300">
        <ele>896.4</ele>
        <time>2021-10-03T10:27:29Z</time>
      </trkpt>
      <trkpt lat="42.5573750" lon="-5.7049860">
        <ele>897.0</ele>
        <time>2021-10-03T10:27:34Z</time>
      </trkpt>
      <trkpt lat="42.5573020" lon="-5.7051310">
        <ele>897.4</ele>
        <time>2021-10-03T10:27:37Z</time>
      </trkpt>
      <trkpt lat="42.5570450" lon="-5.7055640">
        <ele>898.4</ele>
        <time>2021-10-03T10:27:47Z</time>
      </trkpt>
      <trkpt lat="42.5569480" lon="-5.7057080">
        <ele>899.6</ele>
        <time>2021-10-03T10:27:51Z</time>
      </trkpt>
      <trkpt lat="42.5569290" lon="-5.7057870">
        <ele>900.0</ele>
        <time>2021-10-03T10:27:53Z</time>
      </trkpt>
      <trkpt lat="42.5569820" lon="-5.7058280">
        <ele>900.6</ele>
        <time>2021-10-03T10:27:56Z</time>
      </trkpt>
      <trkpt lat="42.5570670" lon="-5.7057860">
        <ele>901.0</ele>
        <time>2021-10-03T10:27:59Z</time>
      </trkpt>
      <trkpt lat="42.5571160" lon="-5.7057860">
        <ele>901.2</ele>
        <time>2021-10-03T10:28:01Z</time>
      </trkpt>
      <trkpt lat="42.5571290" lon="-5.7058280">
        <ele>901.8</ele>
        <time>2021-10-03T10:28:03Z</time>
      </trkpt>
      <trkpt lat="42.5570440" lon="-5.7060520">
        <ele>903.0</ele>
        <time>2021-10-03T10:28:09Z</time>
      </trkpt>
      <trkpt lat="42.5569670" lon="-5.7062030">
        <ele>904.0</ele>
        <time>2021-10-03T10:28:13Z</time>
      </trkpt>
      <trkpt lat="42.5568260" lon="-5.7064770">
        <ele>905.0</ele>
        <time>2021-10-03T10:28:20Z</time>
      </trkpt>
      <trkpt lat="42.5566240" lon="-5.7068930">
        <ele>906.2</ele>
        <time>2021-10-03T10:28:30Z</time>
      </trkpt>
      <trkpt lat="42.5564670" lon="-5.7072230">
        <ele>907.2</ele>
        <time>2021-10-03T10:28:37Z</time>
      </trkpt>
      <trkpt lat="42.5563350" lon="-5.7075090">
        <ele>907.8</ele>
        <time>2021-10-03T10:28:43Z</time>
      </trkpt>
      <trkpt lat="42.5562850" lon="-5.7076220">
        <ele>908.2</ele>
        <time>2021-10-03T10:28:46Z</time>
      </trkpt>
      <trkpt lat="42.5562680" lon="-5.7076620">
        <ele>908.2</ele>
        <time>2021-10-03T10:28:47Z</time>
      </trkpt>
      <trkpt lat="42.5559820" lon="-5.7083050">
        <ele>908.6</ele>
        <time>2021-10-03T10:28:58Z</time>
      </trkpt>
      <trkpt lat="42.5557210" lon="-5.7088780">
        <ele>907.0</ele>
        <time>2021-10-03T10:29:06Z</time>
      </trkpt>
      <trkpt lat="42.5556880" lon="-5.7089530">
        <ele>906.8</ele>
        <time>2021-10-03T10:29:07Z</time>
      </trkpt>
      <trkpt lat="42.5555860" lon="-5.7091890">
        <ele>906.4</ele>
        <time>2021-10-03T10:29:10Z</time>
      </trkpt>
      <trkpt lat="42.5554830" lon="-5.7094320">
        <ele>906.0</ele>
        <time>2021-10-03T10:29:13Z</time>
      </trkpt>
      <trkpt lat="42.5554150" lon="-5.7095930">
        <ele>905.8</ele>
        <time>2021-10-03T10:29:15Z</time>
      </trkpt>
      <trkpt lat="42.5553450" lon="-5.7097510">
        <ele>905.4</ele>
        <time>2021-10-03T10:29:17Z</time>
      </trkpt>
      <trkpt lat="42.5552740" lon="-5.7099030">
        <ele>904.4</ele>
        <time>2021-10-03T10:29:19Z</time>
      </trkpt>
      <trkpt lat="42.5550870" lon="-5.7102790">
        <ele>903.4</ele>
        <time>2021-10-03T10:29:24Z</time>
      </trkpt>
      <trkpt lat="42.5548810" lon="-5.7107580">
        <ele>903.0</ele>
        <time>2021-10-03T10:29:30Z</time>
      </trkpt>
      <trkpt lat="42.5547760" lon="-5.7109910">
        <ele>903.0</ele>
        <time>2021-10-03T10:29:33Z</time>
      </trkpt>
      <trkpt lat="42.5545700" lon="-5.7114430">
        <ele>902.8</ele>
        <time>2021-10-03T10:29:39Z</time>
      </trkpt>
      <trkpt lat="42.5544800" lon="-5.7116560">
        <ele>902.6</ele>
        <time>2021-10-03T10:29:42Z</time>
      </trkpt>
      <trkpt lat="42.5543180" lon="-5.7120110">
        <ele>902.4</ele>
        <time>2021-10-03T10:29:47Z</time>
      </trkpt>
      <trkpt lat="42.5540750" lon="-5.7125450">
        <ele>902.0</ele>
        <time>2021-10-03T10:29:54Z</time>
      </trkpt>
      <trkpt lat="42.5538160" lon="-5.7131370">
        <ele>902.0</ele>
        <time>2021-10-03T10:30:02Z</time>
      </trkpt>
      <trkpt lat="42.5535200" lon="-5.7138060">
        <ele>902.4</ele>
        <time>2021-10-03T10:30:13Z</time>
      </trkpt>
      <trkpt lat="42.5533830" lon="-5.7141000">
        <ele>903.0</ele>
        <time>2021-10-03T10:30:18Z</time>
      </trkpt>
      <trkpt lat="42.5533190" lon="-5.7142400">
        <ele>903.2</ele>
        <time>2021-10-03T10:30:20Z</time>
      </trkpt>
      <trkpt lat="42.5532860" lon="-5.7143070">
        <ele>903.2</ele>
        <time>2021-10-03T10:30:21Z</time>
      </trkpt>
      <trkpt lat="42.5531120" lon="-5.7145180">
        <ele>903.2</ele>
        <time>2021-10-03T10:30:25Z</time>
      </trkpt>
      <trkpt lat="42.5528540" lon="-5.7151250">
        <ele>903.0</ele>
        <time>2021-10-03T10:30:34Z</time>
      </trkpt>
      <trkpt lat="42.5528230" lon="-5.7151870">
        <ele>903.0</ele>
        <time>2021-10-03T10:30:35Z</time>
      </trkpt>
      <trkpt lat="42.5526800" lon="-5.7155000">
        <ele>902.6</ele>
        <time>2021-10-03T10:30:40Z</time>
      </trkpt>
      <trkpt lat="42.5524710" lon="-5.7160580">
        <ele>902.8</ele>
        <time>2021-10-03T10:30:49Z</time>
      </trkpt>
      <trkpt lat="42.5524070" lon="-5.7161680">
        <ele>903.2</ele>
        <time>2021-10-03T10:30:51Z</time>
      </trkpt>
      <trkpt lat="42.5523780" lon="-5.7162270">
        <ele>903.4</ele>
        <time>2021-10-03T10:30:52Z</time>
      </trkpt>
      <trkpt lat="42.5522720" lon="-5.7164870">
        <ele>904.2</ele>
        <time>2021-10-03T10:30:56Z</time>
      </trkpt>
      <trkpt lat="42.5522410" lon="-5.7165510">
        <ele>904.4</ele>
        <time>2021-10-03T10:30:57Z</time>
      </trkpt>
      <trkpt lat="42.5521480" lon="-5.7167460">
        <ele>905.8</ele>
        <time>2021-10-03T10:31:00Z</time>
      </trkpt>
      <trkpt lat="42.5518530" lon="-5.7173950">
        <ele>906.6</ele>
        <time>2021-10-03T10:31:10Z</time>
      </trkpt>
      <trkpt lat="42.5517970" lon="-5.7175230">
        <ele>906.8</ele>
        <time>2021-10-03T10:31:12Z</time>
      </trkpt>
      <trkpt lat="42.5514780" lon="-5.7181980">
        <ele>907.6</ele>
        <time>2021-10-03T10:31:23Z</time>
      </trkpt>
      <trkpt lat="42.5513500" lon="-5.7185090">
        <ele>907.6</ele>
        <time>2021-10-03T10:31:28Z</time>
      </trkpt>
      <trkpt lat="42.5511110" lon="-5.7189400">
        <ele>907.8</ele>
        <time>2021-10-03T10:31:35Z</time>
      </trkpt>
      <trkpt lat="42.5507970" lon="-5.7195490">
        <ele>908.2</ele>
        <time>2021-10-03T10:31:44Z</time>
      </trkpt>
      <trkpt lat="42.5505010" lon="-5.7201370">
        <ele>906.0</ele>
        <time>2021-10-03T10:31:52Z</time>
      </trkpt>
      <trkpt lat="42.5503860" lon="-5.7203570">
        <ele>905.0</ele>
        <time>2021-10-03T10:31:55Z</time>
      </trkpt>
      <trkpt lat="42.5503460" lon="-5.7204260">
        <ele>904.8</ele>
        <time>2021-10-03T10:31:56Z</time>
      </trkpt>
      <trkpt lat="42.5502600" lon="-5.7205600">
        <ele>904.8</ele>
        <time>2021-10-03T10:31:58Z</time>
      </trkpt>
      <trkpt lat="42.5500610" lon="-5.7208410">
        <ele>903.6</ele>
        <time>2021-10-03T10:32:02Z</time>
      </trkpt>
      <trkpt lat="42.5499190" lon="-5.7210400">
        <ele>903.0</ele>
        <time>2021-10-03T10:32:05Z</time>
      </trkpt>
      <trkpt lat="42.5498310" lon="-5.7211640">
        <ele>902.6</ele>
        <time>2021-10-03T10:32:07Z</time>
      </trkpt>
      <trkpt lat="42.5497080" lon="-5.7213330">
        <ele>901.0</ele>
        <time>2021-10-03T10:32:10Z</time>
      </trkpt>
      <trkpt lat="42.5496270" lon="-5.7214450">
        <ele>900.0</ele>
        <time>2021-10-03T10:32:12Z</time>
      </trkpt>
      <trkpt lat="42.5493560" lon="-5.7218480">
        <ele>899.4</ele>
        <time>2021-10-03T10:32:21Z</time>
      </trkpt>
      <trkpt lat="42.5492560" lon="-5.7219770">
        <ele>899.2</ele>
        <time>2021-10-03T10:32:24Z</time>
      </trkpt>
      <trkpt lat="42.5491560" lon="-5.7220750">
        <ele>899.0</ele>
        <time>2021-10-03T10:32:27Z</time>
      </trkpt>
      <trkpt lat="42.5488450" lon="-5.7223000">
        <ele>899.0</ele>
        <time>2021-10-03T10:32:37Z</time>
      </trkpt>
      <trkpt lat="42.5488330" lon="-5.7223190">
        <ele>899.0</ele>
        <time>2021-10-03T10:32:38Z</time>
      </trkpt>
      <trkpt lat="42.5487080" lon="-5.7224600">
        <ele>899.2</ele>
        <time>2021-10-03T10:32:45Z</time>
      </trkpt>
      <trkpt lat="42.5486540" lon="-5.7225100">
        <ele>899.0</ele>
        <time>2021-10-03T10:32:47Z</time>
      </trkpt>
      <trkpt lat="42.5485980" lon="-5.7225800">
        <ele>898.8</ele>
        <time>2021-10-03T10:32:49Z</time>
      </trkpt>
      <trkpt lat="42.5484470" lon="-5.7227880">
        <ele>898.8</ele>
        <time>2021-10-03T10:32:53Z</time>
      </trkpt>
      <trkpt lat="42.5483640" lon="-5.7229180">
        <ele>898.6</ele>
        <time>2021-10-03T10:32:55Z</time>
      </trkpt>
      <trkpt lat="42.5482880" lon="-5.7230450">
        <ele>898.6</ele>
        <time>2021-10-03T10:32:57Z</time>
      </trkpt>
      <trkpt lat="42.5481950" lon="-5.7232090">
        <ele>898.6</ele>
        <time>2021-10-03T10:33:00Z</time>
      </trkpt>
      <trkpt lat="42.5481060" lon="-5.7233800">
        <ele>898.6</ele>
        <time>2021-10-03T10:33:04Z</time>
      </trkpt>
      <trkpt lat="42.5479360" lon="-5.7236630">
        <ele>900.6</ele>
        <time>2021-10-03T10:33:10Z</time>
      </trkpt>
      <trkpt lat="42.5478040" lon="-5.7238750">
        <ele>901.2</ele>
        <time>2021-10-03T10:33:14Z</time>
      </trkpt>
      <trkpt lat="42.5476970" lon="-5.7240630">
        <ele>901.6</ele>
        <time>2021-10-03T10:33:19Z</time>
      </trkpt>
      <trkpt lat="42.5476100" lon="-5.7241740">
        <ele>902.4</ele>
        <time>2021-10-03T10:33:23Z</time>
      </trkpt>
      <trkpt lat="42.5475950" lon="-5.7241920">
        <ele>902.4</ele>
        <time>2021-10-03T10:33:24Z</time>
      </trkpt>
      <trkpt lat="42.5474670" lon="-5.7243810">
        <ele>902.8</ele>
        <time>2021-10-03T10:33:30Z</time>
      </trkpt>
      <trkpt lat="42.5473030" lon="-5.7246060">
        <ele>902.8</ele>
        <time>2021-10-03T10:33:34Z</time>
      </trkpt>
      <trkpt lat="42.5471620" lon="-5.7247990">
        <ele>902.8</ele>
        <time>2021-10-03T10:33:37Z</time>
      </trkpt>
      <trkpt lat="42.5469780" lon="-5.7250560">
        <ele>901.6</ele>
        <time>2021-10-03T10:33:41Z</time>
      </trkpt>
      <trkpt lat="42.5469320" lon="-5.7251190">
        <ele>901.2</ele>
        <time>2021-10-03T10:33:42Z</time>
      </trkpt>
      <trkpt lat="42.5467520" lon="-5.7253670">
        <ele>900.0</ele>
        <time>2021-10-03T10:33:46Z</time>
      </trkpt>
      <trkpt lat="42.5464390" lon="-5.7257890">
        <ele>899.4</ele>
        <time>2021-10-03T10:33:53Z</time>
      </trkpt>
      <trkpt lat="42.5460370" lon="-5.7263400">
        <ele>899.2</ele>
        <time>2021-10-03T10:34:02Z</time>
      </trkpt>
      <trkpt lat="42.5459500" lon="-5.7264650">
        <ele>899.0</ele>
        <time>2021-10-03T10:34:04Z</time>
      </trkpt>
      <trkpt lat="42.5455980" lon="-5.7269320">
        <ele>898.6</ele>
        <time>2021-10-03T10:34:12Z</time>
      </trkpt>
      <trkpt lat="42.5455030" lon="-5.7271020">
        <ele>898.2</ele>
        <time>2021-10-03T10:34:15Z</time>
      </trkpt>
      <trkpt lat="42.5453890" lon="-5.7272290">
        <ele>898.2</ele>
        <time>2021-10-03T10:34:18Z</time>
      </trkpt>
      <trkpt lat="42.5451770" lon="-5.7275190">
        <ele>898.0</ele>
        <time>2021-10-03T10:34:23Z</time>
      </trkpt>
      <trkpt lat="42.5449970" lon="-5.7277710">
        <ele>898.0</ele>
        <time>2021-10-03T10:34:27Z</time>
      </trkpt>
      <trkpt lat="42.5448660" lon="-5.7279550">
        <ele>897.6</ele>
        <time>2021-10-03T10:34:30Z</time>
      </trkpt>
      <trkpt lat="42.5444600" lon="-5.7284990">
        <ele>896.6</ele>
        <time>2021-10-03T10:34:39Z</time>
      </trkpt>
      <trkpt lat="42.5443720" lon="-5.7286260">
        <ele>896.6</ele>
        <time>2021-10-03T10:34:41Z</time>
      </trkpt>
      <trkpt lat="42.5439590" lon="-5.7291700">
        <ele>896.0</ele>
        <time>2021-10-03T10:34:50Z</time>
      </trkpt>
      <trkpt lat="42.5439140" lon="-5.7292310">
        <ele>895.8</ele>
        <time>2021-10-03T10:34:51Z</time>
      </trkpt>
      <trkpt lat="42.5437450" lon="-5.7294900">
        <ele>895.8</ele>
        <time>2021-10-03T10:34:55Z</time>
      </trkpt>
      <trkpt lat="42.5435110" lon="-5.7297850">
        <ele>895.6</ele>
        <time>2021-10-03T10:35:00Z</time>
      </trkpt>
      <trkpt lat="42.5431080" lon="-5.7303430">
        <ele>894.6</ele>
        <time>2021-10-03T10:35:09Z</time>
      </trkpt>
      <trkpt lat="42.5429050" lon="-5.7306540">
        <ele>894.6</ele>
        <time>2021-10-03T10:35:14Z</time>
      </trkpt>
      <trkpt lat="42.5426710" lon="-5.7309770">
        <ele>894.6</ele>
        <time>2021-10-03T10:35:20Z</time>
      </trkpt>
      <trkpt lat="42.5424980" lon="-5.7312080">
        <ele>895.0</ele>
        <time>2021-10-03T10:35:27Z</time>
      </trkpt>
      <trkpt lat="42.5423950" lon="-5.7313440">
        <ele>895.4</ele>
        <time>2021-10-03T10:35:30Z</time>
      </trkpt>
      <trkpt lat="42.5421480" lon="-5.7317210">
        <ele>895.6</ele>
        <time>2021-10-03T10:35:36Z</time>
      </trkpt>
      <trkpt lat="42.5420540" lon="-5.7318450">
        <ele>895.6</ele>
        <time>2021-10-03T10:35:38Z</time>
      </trkpt>
      <trkpt lat="42.5418340" lon="-5.7321750">
        <ele>894.4</ele>
        <time>2021-10-03T10:35:44Z</time>
      </trkpt>
      <trkpt lat="42.5418050" lon="-5.7322260">
        <ele>894.4</ele>
        <time>2021-10-03T10:35:45Z</time>
      </trkpt>
      <trkpt lat="42.5416950" lon="-5.7323810">
        <ele>894.0</ele>
        <time>2021-10-03T10:35:48Z</time>
      </trkpt>
      <trkpt lat="42.5415460" lon="-5.7326290">
        <ele>893.2</ele>
        <time>2021-10-03T10:35:52Z</time>
      </trkpt>
      <trkpt lat="42.5412040" lon="-5.7330660">
        <ele>892.8</ele>
        <time>2021-10-03T10:35:59Z</time>
      </trkpt>
      <trkpt lat="42.5409780" lon="-5.7333440">
        <ele>892.4</ele>
        <time>2021-10-03T10:36:03Z</time>
      </trkpt>
      <trkpt lat="42.5408580" lon="-5.7334630">
        <ele>891.6</ele>
        <time>2021-10-03T10:36:05Z</time>
      </trkpt>
      <trkpt lat="42.5406970" lon="-5.7336480">
        <ele>890.0</ele>
        <time>2021-10-03T10:36:08Z</time>
      </trkpt>
      <trkpt lat="42.5405960" lon="-5.7337590">
        <ele>888.8</ele>
        <time>2021-10-03T10:36:10Z</time>
      </trkpt>
      <trkpt lat="42.5404230" lon="-5.7339400">
        <ele>888.2</ele>
        <time>2021-10-03T10:36:14Z</time>
      </trkpt>
      <trkpt lat="42.5403270" lon="-5.7340030">
        <ele>888.2</ele>
        <time>2021-10-03T10:36:17Z</time>
      </trkpt>
      <trkpt lat="42.5402680" lon="-5.7340180">
        <ele>888.4</ele>
        <time>2021-10-03T10:36:19Z</time>
      </trkpt>
      <trkpt lat="42.5402370" lon="-5.7340370">
        <ele>889.0</ele>
        <time>2021-10-03T10:36:21Z</time>
      </trkpt>
      <trkpt lat="42.5401310" lon="-5.7342470">
        <ele>890.0</ele>
        <time>2021-10-03T10:36:28Z</time>
      </trkpt>
      <trkpt lat="42.5400680" lon="-5.7343430">
        <ele>890.2</ele>
        <time>2021-10-03T10:36:32Z</time>
      </trkpt>
      <trkpt lat="42.5399600" lon="-5.7344940">
        <ele>890.6</ele>
        <time>2021-10-03T10:36:41Z</time>
      </trkpt>
      <trkpt lat="42.5399430" lon="-5.7345190">
        <ele>890.6</ele>
        <time>2021-10-03T10:36:42Z</time>
      </trkpt>
      <trkpt lat="42.5398740" lon="-5.7346410">
        <ele>890.6</ele>
        <time>2021-10-03T10:36:45Z</time>
      </trkpt>
      <trkpt lat="42.5398150" lon="-5.7347440">
        <ele>890.6</ele>
        <time>2021-10-03T10:36:47Z</time>
      </trkpt>
      <trkpt lat="42.5397200" lon="-5.7349010">
        <ele>890.2</ele>
        <time>2021-10-03T10:36:50Z</time>
      </trkpt>
      <trkpt lat="42.5395940" lon="-5.7351380">
        <ele>889.6</ele>
        <time>2021-10-03T10:36:54Z</time>
      </trkpt>
      <trkpt lat="42.5395630" lon="-5.7351990">
        <ele>889.4</ele>
        <time>2021-10-03T10:36:55Z</time>
      </trkpt>
      <trkpt lat="42.5394380" lon="-5.7355170">
        <ele>888.4</ele>
        <time>2021-10-03T10:37:00Z</time>
      </trkpt>
      <trkpt lat="42.5393940" lon="-5.7356540">
        <ele>888.2</ele>
        <time>2021-10-03T10:37:02Z</time>
      </trkpt>
      <trkpt lat="42.5391060" lon="-5.7362080">
        <ele>888.0</ele>
        <time>2021-10-03T10:37:11Z</time>
      </trkpt>
      <trkpt lat="42.5387420" lon="-5.7368080">
        <ele>888.8</ele>
        <time>2021-10-03T10:37:21Z</time>
      </trkpt>
      <trkpt lat="42.5386140" lon="-5.7369620">
        <ele>888.8</ele>
        <time>2021-10-03T10:37:24Z</time>
      </trkpt>
      <trkpt lat="42.5383780" lon="-5.7371840">
        <ele>888.6</ele>
        <time>2021-10-03T10:37:29Z</time>
      </trkpt>
      <trkpt lat="42.5379570" lon="-5.7377650">
        <ele>888.0</ele>
        <time>2021-10-03T10:37:39Z</time>
      </trkpt>
      <trkpt lat="42.5377840" lon="-5.7380110">
        <ele>887.8</ele>
        <time>2021-10-03T10:37:43Z</time>
      </trkpt>
      <trkpt lat="42.5376910" lon="-5.7381240">
        <ele>887.8</ele>
        <time>2021-10-03T10:37:45Z</time>
      </trkpt>
      <trkpt lat="42.5374760" lon="-5.7384310">
        <ele>887.4</ele>
        <time>2021-10-03T10:37:50Z</time>
      </trkpt>
      <trkpt lat="42.5373110" lon="-5.7386720">
        <ele>887.2</ele>
        <time>2021-10-03T10:37:54Z</time>
      </trkpt>
      <trkpt lat="42.5371170" lon="-5.7389680">
        <ele>886.2</ele>
        <time>2021-10-03T10:37:59Z</time>
      </trkpt>
      <trkpt lat="42.5370740" lon="-5.7390230">
        <ele>886.2</ele>
        <time>2021-10-03T10:38:00Z</time>
      </trkpt>
      <trkpt lat="42.5369320" lon="-5.7392620">
        <ele>886.0</ele>
        <time>2021-10-03T10:38:04Z</time>
      </trkpt>
      <trkpt lat="42.5366840" lon="-5.7396090">
        <ele>886.2</ele>
        <time>2021-10-03T10:38:12Z</time>
      </trkpt>
      <trkpt lat="42.5364600" lon="-5.7399100">
        <ele>886.8</ele>
        <time>2021-10-03T10:38:17Z</time>
      </trkpt>
      <trkpt lat="42.5362770" lon="-5.7401650">
        <ele>887.2</ele>
        <time>2021-10-03T10:38:21Z</time>
      </trkpt>
      <trkpt lat="42.5361030" lon="-5.7404130">
        <ele>887.0</ele>
        <time>2021-10-03T10:38:25Z</time>
      </trkpt>
      <trkpt lat="42.5358690" lon="-5.7407100">
        <ele>886.6</ele>
        <time>2021-10-03T10:38:30Z</time>
      </trkpt>
      <trkpt lat="42.5355120" lon="-5.7413300">
        <ele>885.8</ele>
        <time>2021-10-03T10:38:39Z</time>
      </trkpt>
      <trkpt lat="42.5354380" lon="-5.7414700">
        <ele>885.6</ele>
        <time>2021-10-03T10:38:41Z</time>
      </trkpt>
      <trkpt lat="42.5350370" lon="-5.7420430">
        <ele>885.4</ele>
        <time>2021-10-03T10:38:50Z</time>
      </trkpt>
      <trkpt lat="42.5346870" lon="-5.7425190">
        <ele>885.4</ele>
        <time>2021-10-03T10:38:58Z</time>
      </trkpt>
      <trkpt lat="42.5343010" lon="-5.7430810">
        <ele>885.2</ele>
        <time>2021-10-03T10:39:07Z</time>
      </trkpt>
      <trkpt lat="42.5340390" lon="-5.7434340">
        <ele>885.2</ele>
        <time>2021-10-03T10:39:13Z</time>
      </trkpt>
      <trkpt lat="42.5336510" lon="-5.7439650">
        <ele>885.2</ele>
        <time>2021-10-03T10:39:22Z</time>
      </trkpt>
      <trkpt lat="42.5335120" lon="-5.7441270">
        <ele>885.0</ele>
        <time>2021-10-03T10:39:25Z</time>
      </trkpt>
      <trkpt lat="42.5331050" lon="-5.7446370">
        <ele>884.6</ele>
        <time>2021-10-03T10:39:34Z</time>
      </trkpt>
      <trkpt lat="42.5327050" lon="-5.7451580">
        <ele>884.6</ele>
        <time>2021-10-03T10:39:43Z</time>
      </trkpt>
      <trkpt lat="42.5326610" lon="-5.7452150">
        <ele>884.4</ele>
        <time>2021-10-03T10:39:44Z</time>
      </trkpt>
      <trkpt lat="42.5324080" lon="-5.7454900">
        <ele>884.4</ele>
        <time>2021-10-03T10:39:49Z</time>
      </trkpt>
      <trkpt lat="42.5322720" lon="-5.7456830">
        <ele>884.2</ele>
        <time>2021-10-03T10:39:52Z</time>
      </trkpt>
      <trkpt lat="42.5320870" lon="-5.7459240">
        <ele>884.2</ele>
        <time>2021-10-03T10:39:56Z</time>
      </trkpt>
      <trkpt lat="42.5317710" lon="-5.7463060">
        <ele>884.2</ele>
        <time>2021-10-03T10:40:03Z</time>
      </trkpt>
      <trkpt lat="42.5316350" lon="-5.7464530">
        <ele>884.4</ele>
        <time>2021-10-03T10:40:06Z</time>
      </trkpt>
      <trkpt lat="42.5315900" lon="-5.7465050">
        <ele>884.4</ele>
        <time>2021-10-03T10:40:07Z</time>
      </trkpt>
      <trkpt lat="42.5312890" lon="-5.7469350">
        <ele>883.8</ele>
        <time>2021-10-03T10:40:14Z</time>
      </trkpt>
      <trkpt lat="42.5309370" lon="-5.7475420">
        <ele>882.8</ele>
        <time>2021-10-03T10:40:23Z</time>
      </trkpt>
      <trkpt lat="42.5308980" lon="-5.7476070">
        <ele>882.6</ele>
        <time>2021-10-03T10:40:24Z</time>
      </trkpt>
      <trkpt lat="42.5308190" lon="-5.7477360">
        <ele>882.4</ele>
        <time>2021-10-03T10:40:26Z</time>
      </trkpt>
      <trkpt lat="42.5304330" lon="-5.7482730">
        <ele>882.0</ele>
        <time>2021-10-03T10:40:35Z</time>
      </trkpt>
      <trkpt lat="42.5300360" lon="-5.7488430">
        <ele>882.4</ele>
        <time>2021-10-03T10:40:44Z</time>
      </trkpt>
      <trkpt lat="42.5299920" lon="-5.7489120">
        <ele>882.4</ele>
        <time>2021-10-03T10:40:45Z</time>
      </trkpt>
      <trkpt lat="42.5297660" lon="-5.7492340">
        <ele>882.4</ele>
        <time>2021-10-03T10:40:50Z</time>
      </trkpt>
      <trkpt lat="42.5293840" lon="-5.7498040">
        <ele>882.6</ele>
        <time>2021-10-03T10:40:59Z</time>
      </trkpt>
      <trkpt lat="42.5291720" lon="-5.7500880">
        <ele>882.6</ele>
        <time>2021-10-03T10:41:04Z</time>
      </trkpt>
      <trkpt lat="42.5289280" lon="-5.7503850">
        <ele>882.6</ele>
        <time>2021-10-03T10:41:10Z</time>
      </trkpt>
      <trkpt lat="42.5285310" lon="-5.7508680">
        <ele>883.0</ele>
        <time>2021-10-03T10:41:20Z</time>
      </trkpt>
      <trkpt lat="42.5283810" lon="-5.7509270">
        <ele>883.4</ele>
        <time>2021-10-03T10:41:23Z</time>
      </trkpt>
      <trkpt lat="42.5283310" lon="-5.7509480">
        <ele>883.6</ele>
        <time>2021-10-03T10:41:24Z</time>
      </trkpt>
      <trkpt lat="42.5280180" lon="-5.7515650">
        <ele>883.4</ele>
        <time>2021-10-03T10:41:34Z</time>
      </trkpt>
      <trkpt lat="42.5278330" lon="-5.7519710">
        <ele>882.6</ele>
        <time>2021-10-03T10:41:40Z</time>
      </trkpt>
      <trkpt lat="42.5277550" lon="-5.7520930">
        <ele>882.4</ele>
        <time>2021-10-03T10:41:42Z</time>
      </trkpt>
      <trkpt lat="42.5276660" lon="-5.7521970">
        <ele>882.2</ele>
        <time>2021-10-03T10:41:44Z</time>
      </trkpt>
      <trkpt lat="42.5272670" lon="-5.7527650">
        <ele>883.0</ele>
        <time>2021-10-03T10:41:54Z</time>
      </trkpt>
      <trkpt lat="42.5268410" lon="-5.7533130">
        <ele>882.2</ele>
        <time>2021-10-03T10:42:04Z</time>
      </trkpt>
      <trkpt lat="42.5264670" lon="-5.7538660">
        <ele>882.0</ele>
        <time>2021-10-03T10:42:14Z</time>
      </trkpt>
      <trkpt lat="42.5261030" lon="-5.7544600">
        <ele>882.2</ele>
        <time>2021-10-03T10:42:24Z</time>
      </trkpt>
      <trkpt lat="42.5257060" lon="-5.7550260">
        <ele>882.0</ele>
        <time>2021-10-03T10:42:34Z</time>
      </trkpt>
      <trkpt lat="42.5253060" lon="-5.7555850">
        <ele>881.8</ele>
        <time>2021-10-03T10:42:44Z</time>
      </trkpt>
      <trkpt lat="42.5249640" lon="-5.7560410">
        <ele>881.8</ele>
        <time>2021-10-03T10:42:53Z</time>
      </trkpt>
      <trkpt lat="42.5245600" lon="-5.7566090">
        <ele>882.0</ele>
        <time>2021-10-03T10:43:03Z</time>
      </trkpt>
      <trkpt lat="42.5242030" lon="-5.7571680">
        <ele>881.8</ele>
        <time>2021-10-03T10:43:12Z</time>
      </trkpt>
      <trkpt lat="42.5239600" lon="-5.7575280">
        <ele>881.8</ele>
        <time>2021-10-03T10:43:18Z</time>
      </trkpt>
      <trkpt lat="42.5236150" lon="-5.7580150">
        <ele>881.8</ele>
        <time>2021-10-03T10:43:28Z</time>
      </trkpt>
      <trkpt lat="42.5232370" lon="-5.7585500">
        <ele>881.2</ele>
        <time>2021-10-03T10:43:39Z</time>
      </trkpt>
      <trkpt lat="42.5231990" lon="-5.7586090">
        <ele>881.0</ele>
        <time>2021-10-03T10:43:40Z</time>
      </trkpt>
      <trkpt lat="42.5230370" lon="-5.7588400">
        <ele>880.6</ele>
        <time>2021-10-03T10:43:44Z</time>
      </trkpt>
      <trkpt lat="42.5229220" lon="-5.7590250">
        <ele>880.0</ele>
        <time>2021-10-03T10:43:47Z</time>
      </trkpt>
      <trkpt lat="42.5225100" lon="-5.7596060">
        <ele>880.0</ele>
        <time>2021-10-03T10:43:57Z</time>
      </trkpt>
      <trkpt lat="42.5221270" lon="-5.7601430">
        <ele>880.0</ele>
        <time>2021-10-03T10:44:06Z</time>
      </trkpt>
      <trkpt lat="42.5218340" lon="-5.7605330">
        <ele>879.6</ele>
        <time>2021-10-03T10:44:13Z</time>
      </trkpt>
      <trkpt lat="42.5214280" lon="-5.7611350">
        <ele>880.0</ele>
        <time>2021-10-03T10:44:23Z</time>
      </trkpt>
      <trkpt lat="42.5210460" lon="-5.7617600">
        <ele>880.0</ele>
        <time>2021-10-03T10:44:32Z</time>
      </trkpt>
      <trkpt lat="42.5208230" lon="-5.7622740">
        <ele>879.0</ele>
        <time>2021-10-03T10:44:38Z</time>
      </trkpt>
      <trkpt lat="42.5207900" lon="-5.7623650">
        <ele>878.6</ele>
        <time>2021-10-03T10:44:39Z</time>
      </trkpt>
      <trkpt lat="42.5206800" lon="-5.7626260">
        <ele>877.0</ele>
        <time>2021-10-03T10:44:42Z</time>
      </trkpt>
      <trkpt lat="42.5206450" lon="-5.7627090">
        <ele>876.0</ele>
        <time>2021-10-03T10:44:43Z</time>
      </trkpt>
      <trkpt lat="42.5205820" lon="-5.7628730">
        <ele>874.8</ele>
        <time>2021-10-03T10:44:45Z</time>
      </trkpt>
      <trkpt lat="42.5205540" lon="-5.7629550">
        <ele>873.8</ele>
        <time>2021-10-03T10:44:46Z</time>
      </trkpt>
      <trkpt lat="42.5205000" lon="-5.7631180">
        <ele>872.6</ele>
        <time>2021-10-03T10:44:48Z</time>
      </trkpt>
      <trkpt lat="42.5204140" lon="-5.7633690">
        <ele>872.0</ele>
        <time>2021-10-03T10:44:51Z</time>
      </trkpt>
      <trkpt lat="42.5202790" lon="-5.7636900">
        <ele>871.4</ele>
        <time>2021-10-03T10:44:55Z</time>
      </trkpt>
      <trkpt lat="42.5200970" lon="-5.7640790">
        <ele>870.8</ele>
        <time>2021-10-03T10:45:00Z</time>
      </trkpt>
      <trkpt lat="42.5199450" lon="-5.7642540">
        <ele>870.8</ele>
        <time>2021-10-03T10:45:03Z</time>
      </trkpt>
      <trkpt lat="42.5197420" lon="-5.7644600">
        <ele>871.0</ele>
        <time>2021-10-03T10:45:07Z</time>
      </trkpt>
      <trkpt lat="42.5196500" lon="-5.7645700">
        <ele>871.2</ele>
        <time>2021-10-03T10:45:09Z</time>
      </trkpt>
      <trkpt lat="42.5194460" lon="-5.7647530">
        <ele>872.6</ele>
        <time>2021-10-03T10:45:13Z</time>
      </trkpt>
      <trkpt lat="42.5192910" lon="-5.7648590">
        <ele>873.0</ele>
        <time>2021-10-03T10:45:16Z</time>
      </trkpt>
      <trkpt lat="42.5190560" lon="-5.7649980">
        <ele>873.4</ele>
        <time>2021-10-03T10:45:21Z</time>
      </trkpt>
      <trkpt lat="42.5189750" lon="-5.7650730">
        <ele>873.6</ele>
        <time>2021-10-03T10:45:23Z</time>
      </trkpt>
      <trkpt lat="42.5188790" lon="-5.7652170">
        <ele>874.4</ele>
        <time>2021-10-03T10:45:26Z</time>
      </trkpt>
      <trkpt lat="42.5188470" lon="-5.7652650">
        <ele>874.8</ele>
        <time>2021-10-03T10:45:27Z</time>
      </trkpt>
      <trkpt lat="42.5187170" lon="-5.7653680">
        <ele>876.2</ele>
        <time>2021-10-03T10:45:30Z</time>
      </trkpt>
      <trkpt lat="42.5185640" lon="-5.7654510">
        <ele>877.0</ele>
        <time>2021-10-03T10:45:33Z</time>
      </trkpt>
      <trkpt lat="42.5184440" lon="-5.7655860">
        <ele>877.2</ele>
        <time>2021-10-03T10:45:36Z</time>
      </trkpt>
      <trkpt lat="42.5183250" lon="-5.7657680">
        <ele>877.8</ele>
        <time>2021-10-03T10:45:40Z</time>
      </trkpt>
      <trkpt lat="42.5182170" lon="-5.7659460">
        <ele>878.4</ele>
        <time>2021-10-03T10:45:44Z</time>
      </trkpt>
      <trkpt lat="42.5181440" lon="-5.7660770">
        <ele>879.4</ele>
        <time>2021-10-03T10:45:47Z</time>
      </trkpt>
      <trkpt lat="42.5180160" lon="-5.7662670">
        <ele>880.2</ele>
        <time>2021-10-03T10:45:51Z</time>
      </trkpt>
      <trkpt lat="42.5179470" lon="-5.7663610">
        <ele>880.4</ele>
        <time>2021-10-03T10:45:53Z</time>
      </trkpt>
      <trkpt lat="42.5176360" lon="-5.7667840">
        <ele>881.4</ele>
        <time>2021-10-03T10:46:02Z</time>
      </trkpt>
      <trkpt lat="42.5176010" lon="-5.7668320">
        <ele>881.4</ele>
        <time>2021-10-03T10:46:03Z</time>
      </trkpt>
      <trkpt lat="42.5174370" lon="-5.7670820">
        <ele>881.4</ele>
        <time>2021-10-03T10:46:08Z</time>
      </trkpt>
      <trkpt lat="42.5172280" lon="-5.7673660">
        <ele>880.8</ele>
        <time>2021-10-03T10:46:14Z</time>
      </trkpt>
      <trkpt lat="42.5171100" lon="-5.7675070">
        <ele>880.8</ele>
        <time>2021-10-03T10:46:17Z</time>
      </trkpt>
      <trkpt lat="42.5170280" lon="-5.7676110">
        <ele>880.8</ele>
        <time>2021-10-03T10:46:19Z</time>
      </trkpt>
      <trkpt lat="42.5169420" lon="-5.7677190">
        <ele>880.8</ele>
        <time>2021-10-03T10:46:21Z</time>
      </trkpt>
      <trkpt lat="42.5168040" lon="-5.7678980">
        <ele>880.4</ele>
        <time>2021-10-03T10:46:24Z</time>
      </trkpt>
      <trkpt lat="42.5166600" lon="-5.7681020">
        <ele>880.4</ele>
        <time>2021-10-03T10:46:27Z</time>
      </trkpt>
      <trkpt lat="42.5165470" lon="-5.7682540">
        <ele>879.8</ele>
        <time>2021-10-03T10:46:29Z</time>
      </trkpt>
      <trkpt lat="42.5164510" lon="-5.7684520">
        <ele>879.4</ele>
        <time>2021-10-03T10:46:31Z</time>
      </trkpt>
      <trkpt lat="42.5164040" lon="-5.7685620">
        <ele>878.8</ele>
        <time>2021-10-03T10:46:32Z</time>
      </trkpt>
      <trkpt lat="42.5163570" lon="-5.7686760">
        <ele>877.4</ele>
        <time>2021-10-03T10:46:33Z</time>
      </trkpt>
      <trkpt lat="42.5162730" lon="-5.7689210">
        <ele>875.8</ele>
        <time>2021-10-03T10:46:35Z</time>
      </trkpt>
      <trkpt lat="42.5162370" lon="-5.7690510">
        <ele>874.6</ele>
        <time>2021-10-03T10:46:36Z</time>
      </trkpt>
      <trkpt lat="42.5162070" lon="-5.7691840">
        <ele>873.4</ele>
        <time>2021-10-03T10:46:37Z</time>
      </trkpt>
      <trkpt lat="42.5161850" lon="-5.7693200">
        <ele>872.0</ele>
        <time>2021-10-03T10:46:38Z</time>
      </trkpt>
      <trkpt lat="42.5161730" lon="-5.7694570">
        <ele>870.0</ele>
        <time>2021-10-03T10:46:39Z</time>
      </trkpt>
      <trkpt lat="42.5161630" lon="-5.7695930">
        <ele>868.2</ele>
        <time>2021-10-03T10:46:40Z</time>
      </trkpt>
      <trkpt lat="42.5161500" lon="-5.7697230">
        <ele>866.4</ele>
        <time>2021-10-03T10:46:41Z</time>
      </trkpt>
      <trkpt lat="42.5161360" lon="-5.7698420">
        <ele>865.2</ele>
        <time>2021-10-03T10:46:42Z</time>
      </trkpt>
      <trkpt lat="42.5161070" lon="-5.7700500">
        <ele>864.2</ele>
        <time>2021-10-03T10:46:44Z</time>
      </trkpt>
      <trkpt lat="42.5160650" lon="-5.7703510">
        <ele>863.8</ele>
        <time>2021-10-03T10:46:48Z</time>
      </trkpt>
      <trkpt lat="42.5159840" lon="-5.7705800">
        <ele>864.2</ele>
        <time>2021-10-03T10:46:52Z</time>
      </trkpt>
      <trkpt lat="42.5159400" lon="-5.7707140">
        <ele>864.6</ele>
        <time>2021-10-03T10:46:54Z</time>
      </trkpt>
      <trkpt lat="42.5158800" lon="-5.7708580">
        <ele>864.6</ele>
        <time>2021-10-03T10:46:56Z</time>
      </trkpt>
      <trkpt lat="42.5158050" lon="-5.7710050">
        <ele>864.8</ele>
        <time>2021-10-03T10:46:58Z</time>
      </trkpt>
      <trkpt lat="42.5155980" lon="-5.7713390">
        <ele>864.8</ele>
        <time>2021-10-03T10:47:03Z</time>
      </trkpt>
      <trkpt lat="42.5155120" lon="-5.7714740">
        <ele>864.6</ele>
        <time>2021-10-03T10:47:05Z</time>
      </trkpt>
      <trkpt lat="42.5151430" lon="-5.7720780">
        <ele>863.6</ele>
        <time>2021-10-03T10:47:14Z</time>
      </trkpt>
      <trkpt lat="42.5148330" lon="-5.7726230">
        <ele>863.6</ele>
        <time>2021-10-03T10:47:22Z</time>
      </trkpt>
      <trkpt lat="42.5144870" lon="-5.7732350">
        <ele>863.4</ele>
        <time>2021-10-03T10:47:31Z</time>
      </trkpt>
      <trkpt lat="42.5144190" lon="-5.7733670">
        <ele>863.2</ele>
        <time>2021-10-03T10:47:33Z</time>
      </trkpt>
      <trkpt lat="42.5141380" lon="-5.7738670">
        <ele>862.0</ele>
        <time>2021-10-03T10:47:41Z</time>
      </trkpt>
      <trkpt lat="42.5140980" lon="-5.7739190">
        <ele>862.0</ele>
        <time>2021-10-03T10:47:42Z</time>
      </trkpt>
      <trkpt lat="42.5140570" lon="-5.7739640">
        <ele>862.0</ele>
        <time>2021-10-03T10:47:43Z</time>
      </trkpt>
      <trkpt lat="42.5139620" lon="-5.7740010">
        <ele>862.0</ele>
        <time>2021-10-03T10:47:45Z</time>
      </trkpt>
      <trkpt lat="42.5138720" lon="-5.7739560">
        <ele>862.0</ele>
        <time>2021-10-03T10:47:47Z</time>
      </trkpt>
      <trkpt lat="42.5138310" lon="-5.7739230">
        <ele>862.0</ele>
        <time>2021-10-03T10:47:48Z</time>
      </trkpt>
      <trkpt lat="42.5137130" lon="-5.7738300">
        <ele>862.4</ele>
        <time>2021-10-03T10:47:51Z</time>
      </trkpt>
      <trkpt lat="42.5136480" lon="-5.7737850">
        <ele>863.4</ele>
        <time>2021-10-03T10:47:53Z</time>
      </trkpt>
      <trkpt lat="42.5136270" lon="-5.7737790">
        <ele>863.8</ele>
        <time>2021-10-03T10:47:54Z</time>
      </trkpt>
      <trkpt lat="42.5135800" lon="-5.7738880">
        <ele>864.4</ele>
        <time>2021-10-03T10:47:59Z</time>
      </trkpt>
      <trkpt lat="42.5135740" lon="-5.7738910">
        <ele>864.6</ele>
        <time>2021-10-03T10:48:00Z</time>
      </trkpt>
      <trkpt lat="42.5135720" lon="-5.7738840">
        <ele>864.6</ele>
        <time>2021-10-03T10:48:01Z</time>
      </trkpt>
      <trkpt lat="42.5135870" lon="-5.7738280">
        <ele>864.8</ele>
        <time>2021-10-03T10:48:04Z</time>
      </trkpt>
      <trkpt lat="42.5135780" lon="-5.7737610">
        <ele>865.0</ele>
        <time>2021-10-03T10:48:09Z</time>
      </trkpt>
      <trkpt lat="42.5135630" lon="-5.7737460">
        <ele>866.0</ele>
        <time>2021-10-03T10:48:21Z</time>
      </trkpt>
      <trkpt lat="42.5135480" lon="-5.7737290">
        <ele>866.0</ele>
        <time>2021-10-03T10:48:22Z</time>
      </trkpt>
      <trkpt lat="42.5135160" lon="-5.7736740">
        <ele>866.0</ele>
        <time>2021-10-03T10:48:24Z</time>
      </trkpt>
      <trkpt lat="42.5133990" lon="-5.7738370">
        <ele>866.0</ele>
        <time>2021-10-03T10:48:31Z</time>
      </trkpt>
      <trkpt lat="42.5133370" lon="-5.7740090">
        <ele>864.2</ele>
        <time>2021-10-03T10:48:35Z</time>
      </trkpt>
      <trkpt lat="42.5132770" lon="-5.7741590">
        <ele>863.2</ele>
        <time>2021-10-03T10:48:38Z</time>
      </trkpt>
      <trkpt lat="42.5131500" lon="-5.7745700">
        <ele>862.4</ele>
        <time>2021-10-03T10:48:45Z</time>
      </trkpt>
      <trkpt lat="42.5131150" lon="-5.7746940">
        <ele>862.0</ele>
        <time>2021-10-03T10:48:47Z</time>
      </trkpt>
      <trkpt lat="42.5130550" lon="-5.7748780">
        <ele>861.8</ele>
        <time>2021-10-03T10:48:50Z</time>
      </trkpt>
      <trkpt lat="42.5129830" lon="-5.7750660">
        <ele>861.8</ele>
        <time>2021-10-03T10:48:53Z</time>
      </trkpt>
      <trkpt lat="42.5128940" lon="-5.7753250">
        <ele>861.6</ele>
        <time>2021-10-03T10:48:57Z</time>
      </trkpt>
      <trkpt lat="42.5128270" lon="-5.7755280">
        <ele>861.6</ele>
        <time>2021-10-03T10:49:00Z</time>
      </trkpt>
      <trkpt lat="42.5127350" lon="-5.7758050">
        <ele>861.4</ele>
        <time>2021-10-03T10:49:04Z</time>
      </trkpt>
      <trkpt lat="42.5126170" lon="-5.7761490">
        <ele>861.0</ele>
        <time>2021-10-03T10:49:09Z</time>
      </trkpt>
      <trkpt lat="42.5124490" lon="-5.7766130">
        <ele>859.8</ele>
        <time>2021-10-03T10:49:16Z</time>
      </trkpt>
      <trkpt lat="42.5122140" lon="-5.7772210">
        <ele>858.8</ele>
        <time>2021-10-03T10:49:25Z</time>
      </trkpt>
      <trkpt lat="42.5119730" lon="-5.7777200">
        <ele>858.4</ele>
        <time>2021-10-03T10:49:33Z</time>
      </trkpt>
      <trkpt lat="42.5116490" lon="-5.7783140">
        <ele>858.4</ele>
        <time>2021-10-03T10:49:43Z</time>
      </trkpt>
      <trkpt lat="42.5112960" lon="-5.7789520">
        <ele>859.2</ele>
        <time>2021-10-03T10:49:54Z</time>
      </trkpt>
      <trkpt lat="42.5111920" lon="-5.7791430">
        <ele>859.6</ele>
        <time>2021-10-03T10:49:57Z</time>
      </trkpt>
      <trkpt lat="42.5111610" lon="-5.7792110">
        <ele>859.6</ele>
        <time>2021-10-03T10:49:58Z</time>
      </trkpt>
      <trkpt lat="42.5110970" lon="-5.7793450">
        <ele>859.6</ele>
        <time>2021-10-03T10:50:00Z</time>
      </trkpt>
      <trkpt lat="42.5107480" lon="-5.7799760">
        <ele>858.8</ele>
        <time>2021-10-03T10:50:10Z</time>
      </trkpt>
      <trkpt lat="42.5106430" lon="-5.7801580">
        <ele>858.6</ele>
        <time>2021-10-03T10:50:13Z</time>
      </trkpt>
      <trkpt lat="42.5103030" lon="-5.7807790">
        <ele>858.2</ele>
        <time>2021-10-03T10:50:23Z</time>
      </trkpt>
      <trkpt lat="42.5099860" lon="-5.7813720">
        <ele>857.6</ele>
        <time>2021-10-03T10:50:33Z</time>
      </trkpt>
      <trkpt lat="42.5099530" lon="-5.7814290">
        <ele>857.0</ele>
        <time>2021-10-03T10:50:34Z</time>
      </trkpt>
      <trkpt lat="42.5096350" lon="-5.7820430">
        <ele>856.8</ele>
        <time>2021-10-03T10:50:44Z</time>
      </trkpt>
      <trkpt lat="42.5092880" lon="-5.7826860">
        <ele>857.0</ele>
        <time>2021-10-03T10:50:54Z</time>
      </trkpt>
      <trkpt lat="42.5091120" lon="-5.7830120">
        <ele>857.0</ele>
        <time>2021-10-03T10:50:59Z</time>
      </trkpt>
      <trkpt lat="42.5090070" lon="-5.7832060">
        <ele>856.8</ele>
        <time>2021-10-03T10:51:02Z</time>
      </trkpt>
      <trkpt lat="42.5088680" lon="-5.7834380">
        <ele>856.6</ele>
        <time>2021-10-03T10:51:06Z</time>
      </trkpt>
      <trkpt lat="42.5087970" lon="-5.7835780">
        <ele>856.6</ele>
        <time>2021-10-03T10:51:09Z</time>
      </trkpt>
      <trkpt lat="42.5086730" lon="-5.7838140">
        <ele>856.8</ele>
        <time>2021-10-03T10:51:15Z</time>
      </trkpt>
      <trkpt lat="42.5086330" lon="-5.7838880">
        <ele>857.4</ele>
        <time>2021-10-03T10:51:17Z</time>
      </trkpt>
      <trkpt lat="42.5085880" lon="-5.7839740">
        <ele>857.8</ele>
        <time>2021-10-03T10:51:20Z</time>
      </trkpt>
      <trkpt lat="42.5085780" lon="-5.7839980">
        <ele>857.8</ele>
        <time>2021-10-03T10:51:21Z</time>
      </trkpt>
      <trkpt lat="42.5084880" lon="-5.7841370">
        <ele>858.2</ele>
        <time>2021-10-03T10:51:27Z</time>
      </trkpt>
      <trkpt lat="42.5084300" lon="-5.7842420">
        <ele>858.2</ele>
        <time>2021-10-03T10:51:30Z</time>
      </trkpt>
      <trkpt lat="42.5084080" lon="-5.7842850">
        <ele>858.2</ele>
        <time>2021-10-03T10:51:31Z</time>
      </trkpt>
      <trkpt lat="42.5083550" lon="-5.7843910">
        <ele>858.2</ele>
        <time>2021-10-03T10:51:33Z</time>
      </trkpt>
      <trkpt lat="42.5082910" lon="-5.7845190">
        <ele>858.0</ele>
        <time>2021-10-03T10:51:35Z</time>
      </trkpt>
      <trkpt lat="42.5082210" lon="-5.7846480">
        <ele>857.6</ele>
        <time>2021-10-03T10:51:37Z</time>
      </trkpt>
      <trkpt lat="42.5081890" lon="-5.7847140">
        <ele>857.2</ele>
        <time>2021-10-03T10:51:38Z</time>
      </trkpt>
      <trkpt lat="42.5081230" lon="-5.7848450">
        <ele>856.8</ele>
        <time>2021-10-03T10:51:40Z</time>
      </trkpt>
      <trkpt lat="42.5078940" lon="-5.7852700">
        <ele>855.6</ele>
        <time>2021-10-03T10:51:47Z</time>
      </trkpt>
      <trkpt lat="42.5077770" lon="-5.7854910">
        <ele>855.6</ele>
        <time>2021-10-03T10:51:51Z</time>
      </trkpt>
      <trkpt lat="42.5074910" lon="-5.7860300">
        <ele>855.6</ele>
        <time>2021-10-03T10:52:01Z</time>
      </trkpt>
      <trkpt lat="42.5071360" lon="-5.7866750">
        <ele>855.2</ele>
        <time>2021-10-03T10:52:13Z</time>
      </trkpt>
      <trkpt lat="42.5069670" lon="-5.7869870">
        <ele>854.8</ele>
        <time>2021-10-03T10:52:18Z</time>
      </trkpt>
      <trkpt lat="42.5069010" lon="-5.7871110">
        <ele>854.6</ele>
        <time>2021-10-03T10:52:20Z</time>
      </trkpt>
      <trkpt lat="42.5065710" lon="-5.7877070">
        <ele>855.2</ele>
        <time>2021-10-03T10:52:30Z</time>
      </trkpt>
      <trkpt lat="42.5064750" lon="-5.7878880">
        <ele>855.6</ele>
        <time>2021-10-03T10:52:33Z</time>
      </trkpt>
      <trkpt lat="42.5061260" lon="-5.7885050">
        <ele>855.4</ele>
        <time>2021-10-03T10:52:43Z</time>
      </trkpt>
      <trkpt lat="42.5058330" lon="-5.7890620">
        <ele>854.4</ele>
        <time>2021-10-03T10:52:52Z</time>
      </trkpt>
      <trkpt lat="42.5055120" lon="-5.7896560">
        <ele>853.4</ele>
        <time>2021-10-03T10:53:02Z</time>
      </trkpt>
      <trkpt lat="42.5053890" lon="-5.7898770">
        <ele>853.2</ele>
        <time>2021-10-03T10:53:06Z</time>
      </trkpt>
      <trkpt lat="42.5050730" lon="-5.7904600">
        <ele>854.0</ele>
        <time>2021-10-03T10:53:16Z</time>
      </trkpt>
      <trkpt lat="42.5048490" lon="-5.7908560">
        <ele>854.2</ele>
        <time>2021-10-03T10:53:23Z</time>
      </trkpt>
      <trkpt lat="42.5047650" lon="-5.7910290">
        <ele>854.2</ele>
        <time>2021-10-03T10:53:26Z</time>
      </trkpt>
      <trkpt lat="42.5044220" lon="-5.7916850">
        <ele>853.8</ele>
        <time>2021-10-03T10:53:37Z</time>
      </trkpt>
      <trkpt lat="42.5040970" lon="-5.7922880">
        <ele>853.6</ele>
        <time>2021-10-03T10:53:47Z</time>
      </trkpt>
      <trkpt lat="42.5037430" lon="-5.7929250">
        <ele>853.0</ele>
        <time>2021-10-03T10:53:58Z</time>
      </trkpt>
      <trkpt lat="42.5034060" lon="-5.7935530">
        <ele>852.6</ele>
        <time>2021-10-03T10:54:09Z</time>
      </trkpt>
      <trkpt lat="42.5030600" lon="-5.7941970">
        <ele>852.4</ele>
        <time>2021-10-03T10:54:20Z</time>
      </trkpt>
      <trkpt lat="42.5029960" lon="-5.7943150">
        <ele>852.2</ele>
        <time>2021-10-03T10:54:22Z</time>
      </trkpt>
      <trkpt lat="42.5028070" lon="-5.7946600">
        <ele>852.0</ele>
        <time>2021-10-03T10:54:28Z</time>
      </trkpt>
      <trkpt lat="42.5027360" lon="-5.7947660">
        <ele>852.0</ele>
        <time>2021-10-03T10:54:30Z</time>
      </trkpt>
      <trkpt lat="42.5024160" lon="-5.7953540">
        <ele>851.6</ele>
        <time>2021-10-03T10:54:40Z</time>
      </trkpt>
      <trkpt lat="42.5021020" lon="-5.7959480">
        <ele>851.6</ele>
        <time>2021-10-03T10:54:50Z</time>
      </trkpt>
      <trkpt lat="42.5017690" lon="-5.7965780">
        <ele>852.0</ele>
        <time>2021-10-03T10:55:01Z</time>
      </trkpt>
      <trkpt lat="42.5015490" lon="-5.7969920">
        <ele>852.4</ele>
        <time>2021-10-03T10:55:08Z</time>
      </trkpt>
      <trkpt lat="42.5013150" lon="-5.7974220">
        <ele>852.0</ele>
        <time>2021-10-03T10:55:15Z</time>
      </trkpt>
      <trkpt lat="42.5009840" lon="-5.7980400">
        <ele>852.0</ele>
        <time>2021-10-03T10:55:25Z</time>
      </trkpt>
      <trkpt lat="42.5008460" lon="-5.7982760">
        <ele>852.0</ele>
        <time>2021-10-03T10:55:29Z</time>
      </trkpt>
      <trkpt lat="42.5006260" lon="-5.7986780">
        <ele>852.0</ele>
        <time>2021-10-03T10:55:36Z</time>
      </trkpt>
      <trkpt lat="42.5002830" lon="-5.7993100">
        <ele>852.0</ele>
        <time>2021-10-03T10:55:47Z</time>
      </trkpt>
      <trkpt lat="42.4999560" lon="-5.7999120">
        <ele>852.8</ele>
        <time>2021-10-03T10:55:57Z</time>
      </trkpt>
      <trkpt lat="42.4996130" lon="-5.8005540">
        <ele>851.4</ele>
        <time>2021-10-03T10:56:07Z</time>
      </trkpt>
      <trkpt lat="42.4995800" lon="-5.8006160">
        <ele>850.8</ele>
        <time>2021-10-03T10:56:08Z</time>
      </trkpt>
      <trkpt lat="42.4992430" lon="-5.8012340">
        <ele>850.2</ele>
        <time>2021-10-03T10:56:18Z</time>
      </trkpt>
      <trkpt lat="42.4988940" lon="-5.8018710">
        <ele>850.8</ele>
        <time>2021-10-03T10:56:28Z</time>
      </trkpt>
      <trkpt lat="42.4985610" lon="-5.8024910">
        <ele>851.0</ele>
        <time>2021-10-03T10:56:38Z</time>
      </trkpt>
      <trkpt lat="42.4982190" lon="-5.8031150">
        <ele>850.8</ele>
        <time>2021-10-03T10:56:49Z</time>
      </trkpt>
      <trkpt lat="42.4980370" lon="-5.8034390">
        <ele>850.6</ele>
        <time>2021-10-03T10:56:55Z</time>
      </trkpt>
      <trkpt lat="42.4979180" lon="-5.8036500">
        <ele>850.6</ele>
        <time>2021-10-03T10:56:59Z</time>
      </trkpt>
      <trkpt lat="42.4975990" lon="-5.8042430">
        <ele>850.8</ele>
        <time>2021-10-03T10:57:10Z</time>
      </trkpt>
      <trkpt lat="42.4973830" lon="-5.8046490">
        <ele>850.8</ele>
        <time>2021-10-03T10:57:17Z</time>
      </trkpt>
      <trkpt lat="42.4971250" lon="-5.8050470">
        <ele>850.4</ele>
        <time>2021-10-03T10:57:24Z</time>
      </trkpt>
      <trkpt lat="42.4967770" lon="-5.8056500">
        <ele>851.2</ele>
        <time>2021-10-03T10:57:34Z</time>
      </trkpt>
      <trkpt lat="42.4966690" lon="-5.8058400">
        <ele>851.4</ele>
        <time>2021-10-03T10:57:37Z</time>
      </trkpt>
      <trkpt lat="42.4965370" lon="-5.8061010">
        <ele>851.2</ele>
        <time>2021-10-03T10:57:41Z</time>
      </trkpt>
      <trkpt lat="42.4964700" lon="-5.8062330">
        <ele>851.2</ele>
        <time>2021-10-03T10:57:43Z</time>
      </trkpt>
      <trkpt lat="42.4964150" lon="-5.8064720">
        <ele>851.2</ele>
        <time>2021-10-03T10:57:46Z</time>
      </trkpt>
      <trkpt lat="42.4963830" lon="-5.8065440">
        <ele>851.2</ele>
        <time>2021-10-03T10:57:47Z</time>
      </trkpt>
      <trkpt lat="42.4960180" lon="-5.8071350">
        <ele>850.2</ele>
        <time>2021-10-03T10:57:56Z</time>
      </trkpt>
      <trkpt lat="42.4956570" lon="-5.8077160">
        <ele>849.8</ele>
        <time>2021-10-03T10:58:05Z</time>
      </trkpt>
      <trkpt lat="42.4956190" lon="-5.8077790">
        <ele>849.6</ele>
        <time>2021-10-03T10:58:06Z</time>
      </trkpt>
      <trkpt lat="42.4952310" lon="-5.8083790">
        <ele>849.0</ele>
        <time>2021-10-03T10:58:16Z</time>
      </trkpt>
      <trkpt lat="42.4949290" lon="-5.8088670">
        <ele>849.6</ele>
        <time>2021-10-03T10:58:24Z</time>
      </trkpt>
      <trkpt lat="42.4945560" lon="-5.8094720">
        <ele>849.2</ele>
        <time>2021-10-03T10:58:34Z</time>
      </trkpt>
      <trkpt lat="42.4943170" lon="-5.8098570">
        <ele>848.6</ele>
        <time>2021-10-03T10:58:40Z</time>
      </trkpt>
      <trkpt lat="42.4941540" lon="-5.8101280">
        <ele>847.4</ele>
        <time>2021-10-03T10:58:44Z</time>
      </trkpt>
      <trkpt lat="42.4939560" lon="-5.8105040">
        <ele>846.2</ele>
        <time>2021-10-03T10:58:49Z</time>
      </trkpt>
      <trkpt lat="42.4938790" lon="-5.8106600">
        <ele>845.8</ele>
        <time>2021-10-03T10:58:51Z</time>
      </trkpt>
      <trkpt lat="42.4936840" lon="-5.8110660">
        <ele>844.4</ele>
        <time>2021-10-03T10:58:56Z</time>
      </trkpt>
      <trkpt lat="42.4936030" lon="-5.8112380">
        <ele>843.2</ele>
        <time>2021-10-03T10:58:58Z</time>
      </trkpt>
      <trkpt lat="42.4932980" lon="-5.8118750">
        <ele>842.0</ele>
        <time>2021-10-03T10:59:05Z</time>
      </trkpt>
      <trkpt lat="42.4931170" lon="-5.8122590">
        <ele>840.4</ele>
        <time>2021-10-03T10:59:09Z</time>
      </trkpt>
      <trkpt lat="42.4929300" lon="-5.8126540">
        <ele>839.2</ele>
        <time>2021-10-03T10:59:13Z</time>
      </trkpt>
      <trkpt lat="42.4928430" lon="-5.8128610">
        <ele>837.6</ele>
        <time>2021-10-03T10:59:15Z</time>
      </trkpt>
      <trkpt lat="42.4927000" lon="-5.8131560">
        <ele>836.4</ele>
        <time>2021-10-03T10:59:18Z</time>
      </trkpt>
      <trkpt lat="42.4926160" lon="-5.8133390">
        <ele>835.8</ele>
        <time>2021-10-03T10:59:20Z</time>
      </trkpt>
      <trkpt lat="42.4926550" lon="-5.8135390">
        <ele>835.2</ele>
        <time>2021-10-03T10:59:23Z</time>
      </trkpt>
      <trkpt lat="42.4927020" lon="-5.8135840">
        <ele>835.0</ele>
        <time>2021-10-03T10:59:24Z</time>
      </trkpt>
      <trkpt lat="42.4927820" lon="-5.8136850">
        <ele>834.8</ele>
        <time>2021-10-03T10:59:26Z</time>
      </trkpt>
      <trkpt lat="42.4927410" lon="-5.8139470">
        <ele>834.6</ele>
        <time>2021-10-03T10:59:30Z</time>
      </trkpt>
      <trkpt lat="42.4926640" lon="-5.8140910">
        <ele>834.4</ele>
        <time>2021-10-03T10:59:32Z</time>
      </trkpt>
      <trkpt lat="42.4925000" lon="-5.8144260">
        <ele>834.4</ele>
        <time>2021-10-03T10:59:36Z</time>
      </trkpt>
      <trkpt lat="42.4923730" lon="-5.8146890">
        <ele>833.4</ele>
        <time>2021-10-03T10:59:39Z</time>
      </trkpt>
      <trkpt lat="42.4922440" lon="-5.8149600">
        <ele>832.4</ele>
        <time>2021-10-03T10:59:42Z</time>
      </trkpt>
      <trkpt lat="42.4919140" lon="-5.8155640">
        <ele>831.8</ele>
        <time>2021-10-03T10:59:49Z</time>
      </trkpt>
      <trkpt lat="42.4917460" lon="-5.8157830">
        <ele>831.6</ele>
        <time>2021-10-03T10:59:52Z</time>
      </trkpt>
      <trkpt lat="42.4915670" lon="-5.8159440">
        <ele>831.4</ele>
        <time>2021-10-03T10:59:55Z</time>
      </trkpt>
      <trkpt lat="42.4913320" lon="-5.8161830">
        <ele>831.2</ele>
        <time>2021-10-03T10:59:59Z</time>
      </trkpt>
      <trkpt lat="42.4909970" lon="-5.8168140">
        <ele>830.6</ele>
        <time>2021-10-03T11:00:07Z</time>
      </trkpt>
      <trkpt lat="42.4906970" lon="-5.8173530">
        <ele>830.8</ele>
        <time>2021-10-03T11:00:14Z</time>
      </trkpt>
      <trkpt lat="42.4904840" lon="-5.8177450">
        <ele>830.6</ele>
        <time>2021-10-03T11:00:19Z</time>
      </trkpt>
      <trkpt lat="42.4903680" lon="-5.8179900">
        <ele>830.8</ele>
        <time>2021-10-03T11:00:22Z</time>
      </trkpt>
      <trkpt lat="42.4901150" lon="-5.8184600">
        <ele>830.6</ele>
        <time>2021-10-03T11:00:28Z</time>
      </trkpt>
      <trkpt lat="42.4899480" lon="-5.8187770">
        <ele>830.4</ele>
        <time>2021-10-03T11:00:32Z</time>
      </trkpt>
      <trkpt lat="42.4897810" lon="-5.8190910">
        <ele>830.2</ele>
        <time>2021-10-03T11:00:36Z</time>
      </trkpt>
      <trkpt lat="42.4894580" lon="-5.8196910">
        <ele>830.2</ele>
        <time>2021-10-03T11:00:44Z</time>
      </trkpt>
      <trkpt lat="42.4893810" lon="-5.8198400">
        <ele>830.0</ele>
        <time>2021-10-03T11:00:46Z</time>
      </trkpt>
      <trkpt lat="42.4890310" lon="-5.8204780">
        <ele>829.8</ele>
        <time>2021-10-03T11:00:55Z</time>
      </trkpt>
      <trkpt lat="42.4889530" lon="-5.8206270">
        <ele>829.8</ele>
        <time>2021-10-03T11:00:57Z</time>
      </trkpt>
      <trkpt lat="42.4888770" lon="-5.8207750">
        <ele>829.6</ele>
        <time>2021-10-03T11:00:59Z</time>
      </trkpt>
      <trkpt lat="42.4885590" lon="-5.8213690">
        <ele>829.6</ele>
        <time>2021-10-03T11:01:07Z</time>
      </trkpt>
      <trkpt lat="42.4882380" lon="-5.8219670">
        <ele>829.8</ele>
        <time>2021-10-03T11:01:15Z</time>
      </trkpt>
      <trkpt lat="42.4878850" lon="-5.8226270">
        <ele>830.2</ele>
        <time>2021-10-03T11:01:24Z</time>
      </trkpt>
      <trkpt lat="42.4877230" lon="-5.8229030">
        <ele>830.2</ele>
        <time>2021-10-03T11:01:28Z</time>
      </trkpt>
      <trkpt lat="42.4876500" lon="-5.8230430">
        <ele>830.2</ele>
        <time>2021-10-03T11:01:30Z</time>
      </trkpt>
      <trkpt lat="42.4873350" lon="-5.8236590">
        <ele>830.0</ele>
        <time>2021-10-03T11:01:39Z</time>
      </trkpt>
      <trkpt lat="42.4870000" lon="-5.8242850">
        <ele>829.8</ele>
        <time>2021-10-03T11:01:48Z</time>
      </trkpt>
      <trkpt lat="42.4866640" lon="-5.8249020">
        <ele>829.8</ele>
        <time>2021-10-03T11:01:57Z</time>
      </trkpt>
      <trkpt lat="42.4864620" lon="-5.8253030">
        <ele>829.2</ele>
        <time>2021-10-03T11:02:03Z</time>
      </trkpt>
      <trkpt lat="42.4863800" lon="-5.8254010">
        <ele>829.2</ele>
        <time>2021-10-03T11:02:05Z</time>
      </trkpt>
      <trkpt lat="42.4863390" lon="-5.8257190">
        <ele>829.2</ele>
        <time>2021-10-03T11:02:10Z</time>
      </trkpt>
      <trkpt lat="42.4863350" lon="-5.8258280">
        <ele>829.4</ele>
        <time>2021-10-03T11:02:12Z</time>
      </trkpt>
      <trkpt lat="42.4861510" lon="-5.8261710">
        <ele>828.8</ele>
        <time>2021-10-03T11:02:19Z</time>
      </trkpt>
      <trkpt lat="42.4860430" lon="-5.8264630">
        <ele>829.0</ele>
        <time>2021-10-03T11:02:24Z</time>
      </trkpt>
      <trkpt lat="42.4858690" lon="-5.8269160">
        <ele>829.0</ele>
        <time>2021-10-03T11:02:31Z</time>
      </trkpt>
      <trkpt lat="42.4857960" lon="-5.8271330">
        <ele>829.4</ele>
        <time>2021-10-03T11:02:34Z</time>
      </trkpt>
      <trkpt lat="42.4856950" lon="-5.8274380">
        <ele>829.4</ele>
        <time>2021-10-03T11:02:38Z</time>
      </trkpt>
      <trkpt lat="42.4855640" lon="-5.8278960">
        <ele>828.4</ele>
        <time>2021-10-03T11:02:44Z</time>
      </trkpt>
      <trkpt lat="42.4855200" lon="-5.8280420">
        <ele>828.4</ele>
        <time>2021-10-03T11:02:46Z</time>
      </trkpt>
      <trkpt lat="42.4854950" lon="-5.8281970">
        <ele>828.2</ele>
        <time>2021-10-03T11:02:48Z</time>
      </trkpt>
      <trkpt lat="42.4854480" lon="-5.8283460">
        <ele>828.0</ele>
        <time>2021-10-03T11:02:50Z</time>
      </trkpt>
      <trkpt lat="42.4852940" lon="-5.8290590">
        <ele>828.0</ele>
        <time>2021-10-03T11:02:59Z</time>
      </trkpt>
      <trkpt lat="42.4852580" lon="-5.8292010">
        <ele>828.2</ele>
        <time>2021-10-03T11:03:01Z</time>
      </trkpt>
      <trkpt lat="42.4850330" lon="-5.8292500">
        <ele>828.6</ele>
        <time>2021-10-03T11:03:06Z</time>
      </trkpt>
      <trkpt lat="42.4848190" lon="-5.8291330">
        <ele>829.0</ele>
        <time>2021-10-03T11:03:10Z</time>
      </trkpt>
      <trkpt lat="42.4847130" lon="-5.8290890">
        <ele>830.2</ele>
        <time>2021-10-03T11:03:12Z</time>
      </trkpt>
      <trkpt lat="42.4846000" lon="-5.8290670">
        <ele>830.6</ele>
        <time>2021-10-03T11:03:15Z</time>
      </trkpt>
      <trkpt lat="42.4845020" lon="-5.8290260">
        <ele>831.0</ele>
        <time>2021-10-03T11:03:18Z</time>
      </trkpt>
      <trkpt lat="42.4843720" lon="-5.8292040">
        <ele>831.0</ele>
        <time>2021-10-03T11:03:22Z</time>
      </trkpt>
      <trkpt lat="42.4840530" lon="-5.8297970">
        <ele>830.4</ele>
        <time>2021-10-03T11:03:31Z</time>
      </trkpt>
      <trkpt lat="42.4837410" lon="-5.8303670">
        <ele>829.0</ele>
        <time>2021-10-03T11:03:39Z</time>
      </trkpt>
      <trkpt lat="42.4834120" lon="-5.8309880">
        <ele>828.4</ele>
        <time>2021-10-03T11:03:47Z</time>
      </trkpt>
      <trkpt lat="42.4833710" lon="-5.8310650">
        <ele>828.0</ele>
        <time>2021-10-03T11:03:48Z</time>
      </trkpt>
      <trkpt lat="42.4832490" lon="-5.8312920">
        <ele>826.4</ele>
        <time>2021-10-03T11:03:51Z</time>
      </trkpt>
      <trkpt lat="42.4828940" lon="-5.8319530">
        <ele>825.6</ele>
        <time>2021-10-03T11:04:00Z</time>
      </trkpt>
      <trkpt lat="42.4828150" lon="-5.8321080">
        <ele>825.4</ele>
        <time>2021-10-03T11:04:02Z</time>
      </trkpt>
      <trkpt lat="42.4824880" lon="-5.8327620">
        <ele>825.0</ele>
        <time>2021-10-03T11:04:10Z</time>
      </trkpt>
      <trkpt lat="42.4823120" lon="-5.8330810">
        <ele>824.4</ele>
        <time>2021-10-03T11:04:14Z</time>
      </trkpt>
      <trkpt lat="42.4820900" lon="-5.8334860">
        <ele>823.2</ele>
        <time>2021-10-03T11:04:19Z</time>
      </trkpt>
      <trkpt lat="42.4817440" lon="-5.8341250">
        <ele>822.6</ele>
        <time>2021-10-03T11:04:27Z</time>
      </trkpt>
      <trkpt lat="42.4814110" lon="-5.8347330">
        <ele>822.6</ele>
        <time>2021-10-03T11:04:35Z</time>
      </trkpt>
      <trkpt lat="42.4810680" lon="-5.8353900">
        <ele>822.8</ele>
        <time>2021-10-03T11:04:44Z</time>
      </trkpt>
      <trkpt lat="42.4808320" lon="-5.8358830">
        <ele>823.2</ele>
        <time>2021-10-03T11:04:51Z</time>
      </trkpt>
      <trkpt lat="42.4806280" lon="-5.8363190">
        <ele>823.6</ele>
        <time>2021-10-03T11:04:58Z</time>
      </trkpt>
      <trkpt lat="42.4804820" lon="-5.8365160">
        <ele>824.0</ele>
        <time>2021-10-03T11:05:02Z</time>
      </trkpt>
      <trkpt lat="42.4804460" lon="-5.8365790">
        <ele>824.4</ele>
        <time>2021-10-03T11:05:03Z</time>
      </trkpt>
      <trkpt lat="42.4801130" lon="-5.8371890">
        <ele>824.6</ele>
        <time>2021-10-03T11:05:12Z</time>
      </trkpt>
      <trkpt lat="42.4797670" lon="-5.8378240">
        <ele>823.8</ele>
        <time>2021-10-03T11:05:21Z</time>
      </trkpt>
      <trkpt lat="42.4795790" lon="-5.8381750">
        <ele>823.2</ele>
        <time>2021-10-03T11:05:26Z</time>
      </trkpt>
      <trkpt lat="42.4792430" lon="-5.8387840">
        <ele>823.4</ele>
        <time>2021-10-03T11:05:35Z</time>
      </trkpt>
      <trkpt lat="42.4790290" lon="-5.8391870">
        <ele>824.4</ele>
        <time>2021-10-03T11:05:41Z</time>
      </trkpt>
      <trkpt lat="42.4788470" lon="-5.8395390">
        <ele>824.6</ele>
        <time>2021-10-03T11:05:46Z</time>
      </trkpt>
      <trkpt lat="42.4785510" lon="-5.8400890">
        <ele>824.6</ele>
        <time>2021-10-03T11:05:54Z</time>
      </trkpt>
      <trkpt lat="42.4782130" lon="-5.8407220">
        <ele>824.4</ele>
        <time>2021-10-03T11:06:03Z</time>
      </trkpt>
      <trkpt lat="42.4778850" lon="-5.8413360">
        <ele>824.0</ele>
        <time>2021-10-03T11:06:12Z</time>
      </trkpt>
      <trkpt lat="42.4775650" lon="-5.8419280">
        <ele>824.2</ele>
        <time>2021-10-03T11:06:21Z</time>
      </trkpt>
      <trkpt lat="42.4772460" lon="-5.8425200">
        <ele>824.0</ele>
        <time>2021-10-03T11:06:30Z</time>
      </trkpt>
      <trkpt lat="42.4769080" lon="-5.8431580">
        <ele>823.4</ele>
        <time>2021-10-03T11:06:40Z</time>
      </trkpt>
      <trkpt lat="42.4768750" lon="-5.8432210">
        <ele>823.4</ele>
        <time>2021-10-03T11:06:41Z</time>
      </trkpt>
      <trkpt lat="42.4768420" lon="-5.8432850">
        <ele>823.4</ele>
        <time>2021-10-03T11:06:42Z</time>
      </trkpt>
      <trkpt lat="42.4768080" lon="-5.8433510">
        <ele>823.4</ele>
        <time>2021-10-03T11:06:43Z</time>
      </trkpt>
      <trkpt lat="42.4767100" lon="-5.8435630">
        <ele>823.2</ele>
        <time>2021-10-03T11:06:46Z</time>
      </trkpt>
      <trkpt lat="42.4764770" lon="-5.8440140">
        <ele>821.8</ele>
        <time>2021-10-03T11:06:52Z</time>
      </trkpt>
      <trkpt lat="42.4763550" lon="-5.8442490">
        <ele>820.8</ele>
        <time>2021-10-03T11:06:55Z</time>
      </trkpt>
      <trkpt lat="42.4762790" lon="-5.8444120">
        <ele>820.2</ele>
        <time>2021-10-03T11:06:57Z</time>
      </trkpt>
      <trkpt lat="42.4762370" lon="-5.8444890">
        <ele>819.6</ele>
        <time>2021-10-03T11:06:58Z</time>
      </trkpt>
      <trkpt lat="42.4761510" lon="-5.8446420">
        <ele>818.6</ele>
        <time>2021-10-03T11:07:00Z</time>
      </trkpt>
      <trkpt lat="42.4758170" lon="-5.8452950">
        <ele>817.6</ele>
        <time>2021-10-03T11:07:08Z</time>
      </trkpt>
      <trkpt lat="42.4755970" lon="-5.8456900">
        <ele>816.4</ele>
        <time>2021-10-03T11:07:13Z</time>
      </trkpt>
      <trkpt lat="42.4753890" lon="-5.8460780">
        <ele>815.4</ele>
        <time>2021-10-03T11:07:18Z</time>
      </trkpt>
      <trkpt lat="42.4750460" lon="-5.8467250">
        <ele>815.2</ele>
        <time>2021-10-03T11:07:26Z</time>
      </trkpt>
      <trkpt lat="42.4746870" lon="-5.8473650">
        <ele>815.2</ele>
        <time>2021-10-03T11:07:34Z</time>
      </trkpt>
      <trkpt lat="42.4744870" lon="-5.8477090">
        <ele>815.2</ele>
        <time>2021-10-03T11:07:39Z</time>
      </trkpt>
      <trkpt lat="42.4744210" lon="-5.8478430">
        <ele>815.4</ele>
        <time>2021-10-03T11:07:41Z</time>
      </trkpt>
      <trkpt lat="42.4742140" lon="-5.8482070">
        <ele>815.6</ele>
        <time>2021-10-03T11:07:46Z</time>
      </trkpt>
      <trkpt lat="42.4738790" lon="-5.8488200">
        <ele>815.4</ele>
        <time>2021-10-03T11:07:54Z</time>
      </trkpt>
      <trkpt lat="42.4736910" lon="-5.8492030">
        <ele>815.2</ele>
        <time>2021-10-03T11:07:59Z</time>
      </trkpt>
      <trkpt lat="42.4733560" lon="-5.8497880">
        <ele>814.8</ele>
        <time>2021-10-03T11:08:07Z</time>
      </trkpt>
      <trkpt lat="42.4730240" lon="-5.8504050">
        <ele>814.4</ele>
        <time>2021-10-03T11:08:15Z</time>
      </trkpt>
      <trkpt lat="42.4729410" lon="-5.8505590">
        <ele>814.4</ele>
        <time>2021-10-03T11:08:17Z</time>
      </trkpt>
      <trkpt lat="42.4726110" lon="-5.8511710">
        <ele>814.0</ele>
        <time>2021-10-03T11:08:25Z</time>
      </trkpt>
      <trkpt lat="42.4722850" lon="-5.8517770">
        <ele>813.8</ele>
        <time>2021-10-03T11:08:33Z</time>
      </trkpt>
      <trkpt lat="42.4719530" lon="-5.8523950">
        <ele>813.8</ele>
        <time>2021-10-03T11:08:41Z</time>
      </trkpt>
      <trkpt lat="42.4716210" lon="-5.8530200">
        <ele>813.2</ele>
        <time>2021-10-03T11:08:49Z</time>
      </trkpt>
      <trkpt lat="42.4714120" lon="-5.8534180">
        <ele>812.8</ele>
        <time>2021-10-03T11:08:54Z</time>
      </trkpt>
      <trkpt lat="42.4712840" lon="-5.8536570">
        <ele>812.6</ele>
        <time>2021-10-03T11:08:57Z</time>
      </trkpt>
      <trkpt lat="42.4709450" lon="-5.8542920">
        <ele>812.6</ele>
        <time>2021-10-03T11:09:05Z</time>
      </trkpt>
      <trkpt lat="42.4706110" lon="-5.8549250">
        <ele>812.6</ele>
        <time>2021-10-03T11:09:13Z</time>
      </trkpt>
      <trkpt lat="42.4702770" lon="-5.8555490">
        <ele>812.6</ele>
        <time>2021-10-03T11:09:21Z</time>
      </trkpt>
      <trkpt lat="42.4699520" lon="-5.8561550">
        <ele>812.6</ele>
        <time>2021-10-03T11:09:29Z</time>
      </trkpt>
      <trkpt lat="42.4697890" lon="-5.8564330">
        <ele>812.6</ele>
        <time>2021-10-03T11:09:33Z</time>
      </trkpt>
      <trkpt lat="42.4695990" lon="-5.8567870">
        <ele>812.6</ele>
        <time>2021-10-03T11:09:38Z</time>
      </trkpt>
      <trkpt lat="42.4692500" lon="-5.8574320">
        <ele>812.4</ele>
        <time>2021-10-03T11:09:47Z</time>
      </trkpt>
      <trkpt lat="42.4689630" lon="-5.8580100">
        <ele>812.4</ele>
        <time>2021-10-03T11:09:55Z</time>
      </trkpt>
      <trkpt lat="42.4686090" lon="-5.8586520">
        <ele>812.4</ele>
        <time>2021-10-03T11:10:04Z</time>
      </trkpt>
      <trkpt lat="42.4682940" lon="-5.8592290">
        <ele>812.2</ele>
        <time>2021-10-03T11:10:12Z</time>
      </trkpt>
      <trkpt lat="42.4680200" lon="-5.8597420">
        <ele>812.2</ele>
        <time>2021-10-03T11:10:19Z</time>
      </trkpt>
      <trkpt lat="42.4676710" lon="-5.8604070">
        <ele>811.8</ele>
        <time>2021-10-03T11:10:28Z</time>
      </trkpt>
      <trkpt lat="42.4673370" lon="-5.8610290">
        <ele>811.6</ele>
        <time>2021-10-03T11:10:37Z</time>
      </trkpt>
      <trkpt lat="42.4670060" lon="-5.8616340">
        <ele>811.6</ele>
        <time>2021-10-03T11:10:46Z</time>
      </trkpt>
      <trkpt lat="42.4668650" lon="-5.8619020">
        <ele>811.8</ele>
        <time>2021-10-03T11:10:50Z</time>
      </trkpt>
      <trkpt lat="42.4665080" lon="-5.8625500">
        <ele>812.0</ele>
        <time>2021-10-03T11:11:00Z</time>
      </trkpt>
      <trkpt lat="42.4661690" lon="-5.8631660">
        <ele>812.0</ele>
        <time>2021-10-03T11:11:09Z</time>
      </trkpt>
      <trkpt lat="42.4658230" lon="-5.8638100">
        <ele>811.6</ele>
        <time>2021-10-03T11:11:18Z</time>
      </trkpt>
      <trkpt lat="42.4654910" lon="-5.8644500">
        <ele>811.6</ele>
        <time>2021-10-03T11:11:27Z</time>
      </trkpt>
      <trkpt lat="42.4651570" lon="-5.8650830">
        <ele>811.6</ele>
        <time>2021-10-03T11:11:36Z</time>
      </trkpt>
      <trkpt lat="42.4648070" lon="-5.8657270">
        <ele>811.4</ele>
        <time>2021-10-03T11:11:45Z</time>
      </trkpt>
      <trkpt lat="42.4645650" lon="-5.8662290">
        <ele>811.2</ele>
        <time>2021-10-03T11:11:52Z</time>
      </trkpt>
      <trkpt lat="42.4645790" lon="-5.8665270">
        <ele>811.2</ele>
        <time>2021-10-03T11:11:56Z</time>
      </trkpt>
      <trkpt lat="42.4646510" lon="-5.8669140">
        <ele>810.8</ele>
        <time>2021-10-03T11:12:01Z</time>
      </trkpt>
      <trkpt lat="42.4646880" lon="-5.8671480">
        <ele>809.8</ele>
        <time>2021-10-03T11:12:04Z</time>
      </trkpt>
      <trkpt lat="42.4647050" lon="-5.8673010">
        <ele>809.4</ele>
        <time>2021-10-03T11:12:06Z</time>
      </trkpt>
      <trkpt lat="42.4647050" lon="-5.8675310">
        <ele>809.2</ele>
        <time>2021-10-03T11:12:09Z</time>
      </trkpt>
      <trkpt lat="42.4646060" lon="-5.8683190">
        <ele>809.2</ele>
        <time>2021-10-03T11:12:19Z</time>
      </trkpt>
      <trkpt lat="42.4645110" lon="-5.8690750">
        <ele>809.4</ele>
        <time>2021-10-03T11:12:29Z</time>
      </trkpt>
      <trkpt lat="42.4644820" lon="-5.8692730">
        <ele>809.0</ele>
        <time>2021-10-03T11:12:32Z</time>
      </trkpt>
      <trkpt lat="42.4644350" lon="-5.8694830">
        <ele>809.2</ele>
        <time>2021-10-03T11:12:36Z</time>
      </trkpt>
      <trkpt lat="42.4643940" lon="-5.8697960">
        <ele>809.6</ele>
        <time>2021-10-03T11:12:41Z</time>
      </trkpt>
      <trkpt lat="42.4643700" lon="-5.8700010">
        <ele>809.6</ele>
        <time>2021-10-03T11:12:44Z</time>
      </trkpt>
      <trkpt lat="42.4643310" lon="-5.8703520">
        <ele>809.6</ele>
        <time>2021-10-03T11:12:49Z</time>
      </trkpt>
      <trkpt lat="42.4642410" lon="-5.8710750">
        <ele>808.8</ele>
        <time>2021-10-03T11:12:59Z</time>
      </trkpt>
      <trkpt lat="42.4642310" lon="-5.8711480">
        <ele>808.6</ele>
        <time>2021-10-03T11:13:00Z</time>
      </trkpt>
      <trkpt lat="42.4641370" lon="-5.8718980">
        <ele>807.8</ele>
        <time>2021-10-03T11:13:10Z</time>
      </trkpt>
      <trkpt lat="42.4641060" lon="-5.8721980">
        <ele>807.4</ele>
        <time>2021-10-03T11:13:14Z</time>
      </trkpt>
      <trkpt lat="42.4640020" lon="-5.8729610">
        <ele>807.6</ele>
        <time>2021-10-03T11:13:24Z</time>
      </trkpt>
      <trkpt lat="42.4639290" lon="-5.8737540">
        <ele>807.2</ele>
        <time>2021-10-03T11:13:33Z</time>
      </trkpt>
      <trkpt lat="42.4639260" lon="-5.8742710">
        <ele>806.6</ele>
        <time>2021-10-03T11:13:39Z</time>
      </trkpt>
      <trkpt lat="42.4639190" lon="-5.8750070">
        <ele>806.4</ele>
        <time>2021-10-03T11:13:48Z</time>
      </trkpt>
      <trkpt lat="42.4639200" lon="-5.8757830">
        <ele>806.6</ele>
        <time>2021-10-03T11:13:58Z</time>
      </trkpt>
      <trkpt lat="42.4639350" lon="-5.8765660">
        <ele>808.0</ele>
        <time>2021-10-03T11:14:08Z</time>
      </trkpt>
      <trkpt lat="42.4639340" lon="-5.8767100">
        <ele>808.0</ele>
        <time>2021-10-03T11:14:10Z</time>
      </trkpt>
      <trkpt lat="42.4639310" lon="-5.8768310">
        <ele>808.0</ele>
        <time>2021-10-03T11:14:12Z</time>
      </trkpt>
      <trkpt lat="42.4639290" lon="-5.8769260">
        <ele>808.2</ele>
        <time>2021-10-03T11:14:14Z</time>
      </trkpt>
      <trkpt lat="42.4639220" lon="-5.8771250">
        <ele>808.6</ele>
        <time>2021-10-03T11:14:18Z</time>
      </trkpt>
      <trkpt lat="42.4639210" lon="-5.8773020">
        <ele>808.0</ele>
        <time>2021-10-03T11:14:21Z</time>
      </trkpt>
      <trkpt lat="42.4639280" lon="-5.8774180">
        <ele>807.8</ele>
        <time>2021-10-03T11:14:23Z</time>
      </trkpt>
      <trkpt lat="42.4639340" lon="-5.8775370">
        <ele>807.2</ele>
        <time>2021-10-03T11:14:25Z</time>
      </trkpt>
      <trkpt lat="42.4639480" lon="-5.8776540">
        <ele>806.8</ele>
        <time>2021-10-03T11:14:27Z</time>
      </trkpt>
      <trkpt lat="42.4639480" lon="-5.8778380">
        <ele>806.2</ele>
        <time>2021-10-03T11:14:30Z</time>
      </trkpt>
      <trkpt lat="42.4639530" lon="-5.8778970">
        <ele>806.0</ele>
        <time>2021-10-03T11:14:31Z</time>
      </trkpt>
      <trkpt lat="42.4639660" lon="-5.8780120">
        <ele>806.0</ele>
        <time>2021-10-03T11:14:33Z</time>
      </trkpt>
      <trkpt lat="42.4639800" lon="-5.8781260">
        <ele>806.0</ele>
        <time>2021-10-03T11:14:35Z</time>
      </trkpt>
      <trkpt lat="42.4640020" lon="-5.8783420">
        <ele>805.6</ele>
        <time>2021-10-03T11:14:39Z</time>
      </trkpt>
      <trkpt lat="42.4640280" lon="-5.8785450">
        <ele>805.2</ele>
        <time>2021-10-03T11:14:43Z</time>
      </trkpt>
      <trkpt lat="42.4640490" lon="-5.8789500">
        <ele>805.2</ele>
        <time>2021-10-03T11:14:50Z</time>
      </trkpt>
      <trkpt lat="42.4640500" lon="-5.8790960">
        <ele>805.0</ele>
        <time>2021-10-03T11:14:52Z</time>
      </trkpt>
      <trkpt lat="42.4640450" lon="-5.8793290">
        <ele>804.6</ele>
        <time>2021-10-03T11:14:55Z</time>
      </trkpt>
      <trkpt lat="42.4640170" lon="-5.8795540">
        <ele>804.4</ele>
        <time>2021-10-03T11:14:58Z</time>
      </trkpt>
      <trkpt lat="42.4640060" lon="-5.8796260">
        <ele>803.4</ele>
        <time>2021-10-03T11:14:59Z</time>
      </trkpt>
      <trkpt lat="42.4639680" lon="-5.8799030">
        <ele>802.2</ele>
        <time>2021-10-03T11:15:03Z</time>
      </trkpt>
      <trkpt lat="42.4639050" lon="-5.8803060">
        <ele>801.4</ele>
        <time>2021-10-03T11:15:09Z</time>
      </trkpt>
      <trkpt lat="42.4638840" lon="-5.8804220">
        <ele>801.4</ele>
        <time>2021-10-03T11:15:11Z</time>
      </trkpt>
      <trkpt lat="42.4638300" lon="-5.8806400">
        <ele>802.6</ele>
        <time>2021-10-03T11:15:17Z</time>
      </trkpt>
      <trkpt lat="42.4638170" lon="-5.8807360">
        <ele>806.0</ele>
        <time>2021-10-03T11:16:42Z</time>
      </trkpt>
      <trkpt lat="42.4638120" lon="-5.8807720">
        <ele>805.8</ele>
        <time>2021-10-03T11:16:43Z</time>
      </trkpt>
      <trkpt lat="42.4637470" lon="-5.8811670">
        <ele>804.8</ele>
        <time>2021-10-03T11:16:52Z</time>
      </trkpt>
      <trkpt lat="42.4637260" lon="-5.8813700">
        <ele>803.8</ele>
        <time>2021-10-03T11:16:56Z</time>
      </trkpt>
      <trkpt lat="42.4637020" lon="-5.8815530">
        <ele>803.6</ele>
        <time>2021-10-03T11:16:59Z</time>
      </trkpt>
      <trkpt lat="42.4636540" lon="-5.8818710">
        <ele>802.8</ele>
        <time>2021-10-03T11:17:04Z</time>
      </trkpt>
      <trkpt lat="42.4636250" lon="-5.8820320">
        <ele>801.8</ele>
        <time>2021-10-03T11:17:09Z</time>
      </trkpt>
      <trkpt lat="42.4636190" lon="-5.8821240">
        <ele>801.6</ele>
        <time>2021-10-03T11:17:11Z</time>
      </trkpt>
      <trkpt lat="42.4636100" lon="-5.8822280">
        <ele>801.4</ele>
        <time>2021-10-03T11:17:13Z</time>
      </trkpt>
      <trkpt lat="42.4635990" lon="-5.8824010">
        <ele>801.2</ele>
        <time>2021-10-03T11:17:16Z</time>
      </trkpt>
      <trkpt lat="42.4635880" lon="-5.8825810">
        <ele>801.0</ele>
        <time>2021-10-03T11:17:19Z</time>
      </trkpt>
      <trkpt lat="42.4635850" lon="-5.8826430">
        <ele>801.0</ele>
        <time>2021-10-03T11:17:20Z</time>
      </trkpt>
      <trkpt lat="42.4635800" lon="-5.8828830">
        <ele>800.8</ele>
        <time>2021-10-03T11:17:24Z</time>
      </trkpt>
      <trkpt lat="42.4635790" lon="-5.8829400">
        <ele>800.8</ele>
        <time>2021-10-03T11:17:25Z</time>
      </trkpt>
      <trkpt lat="42.4635640" lon="-5.8833430">
        <ele>801.2</ele>
        <time>2021-10-03T11:17:32Z</time>
      </trkpt>
      <trkpt lat="42.4635480" lon="-5.8837780">
        <ele>801.6</ele>
        <time>2021-10-03T11:17:39Z</time>
      </trkpt>
      <trkpt lat="42.4635230" lon="-5.8839570">
        <ele>801.6</ele>
        <time>2021-10-03T11:17:42Z</time>
      </trkpt>
      <trkpt lat="42.4635170" lon="-5.8841250">
        <ele>801.6</ele>
        <time>2021-10-03T11:17:45Z</time>
      </trkpt>
      <trkpt lat="42.4634720" lon="-5.8844420">
        <ele>801.4</ele>
        <time>2021-10-03T11:17:53Z</time>
      </trkpt>
      <trkpt lat="42.4634650" lon="-5.8844930">
        <ele>801.4</ele>
        <time>2021-10-03T11:17:55Z</time>
      </trkpt>
      <trkpt lat="42.4634720" lon="-5.8848040">
        <ele>801.8</ele>
        <time>2021-10-03T11:18:01Z</time>
      </trkpt>
      <trkpt lat="42.4634690" lon="-5.8848730">
        <ele>801.8</ele>
        <time>2021-10-03T11:18:02Z</time>
      </trkpt>
      <trkpt lat="42.4634490" lon="-5.8850850">
        <ele>801.8</ele>
        <time>2021-10-03T11:18:05Z</time>
      </trkpt>
      <trkpt lat="42.4633760" lon="-5.8854140">
        <ele>801.8</ele>
        <time>2021-10-03T11:18:10Z</time>
      </trkpt>
      <trkpt lat="42.4633390" lon="-5.8857740">
        <ele>801.0</ele>
        <time>2021-10-03T11:18:15Z</time>
      </trkpt>
      <trkpt lat="42.4633240" lon="-5.8865040">
        <ele>800.8</ele>
        <time>2021-10-03T11:18:25Z</time>
      </trkpt>
      <trkpt lat="42.4632140" lon="-5.8872410">
        <ele>801.4</ele>
        <time>2021-10-03T11:18:35Z</time>
      </trkpt>
      <trkpt lat="42.4631110" lon="-5.8876720">
        <ele>801.6</ele>
        <time>2021-10-03T11:18:41Z</time>
      </trkpt>
      <trkpt lat="42.4630330" lon="-5.8880000">
        <ele>801.6</ele>
        <time>2021-10-03T11:18:46Z</time>
      </trkpt>
      <trkpt lat="42.4632480" lon="-5.8881790">
        <ele>800.8</ele>
        <time>2021-10-03T11:18:52Z</time>
      </trkpt>
      <trkpt lat="42.4634100" lon="-5.8882580">
        <ele>800.4</ele>
        <time>2021-10-03T11:18:55Z</time>
      </trkpt>
      <trkpt lat="42.4635880" lon="-5.8883400">
        <ele>800.2</ele>
        <time>2021-10-03T11:18:58Z</time>
      </trkpt>
      <trkpt lat="42.4636470" lon="-5.8883670">
        <ele>800.2</ele>
        <time>2021-10-03T11:18:59Z</time>
      </trkpt>
      <trkpt lat="42.4637590" lon="-5.8884310">
        <ele>800.0</ele>
        <time>2021-10-03T11:19:01Z</time>
      </trkpt>
      <trkpt lat="42.4638590" lon="-5.8885170">
        <ele>799.8</ele>
        <time>2021-10-03T11:19:03Z</time>
      </trkpt>
      <trkpt lat="42.4641510" lon="-5.8889060">
        <ele>799.6</ele>
        <time>2021-10-03T11:19:10Z</time>
      </trkpt>
      <trkpt lat="42.4644940" lon="-5.8894840">
        <ele>799.6</ele>
        <time>2021-10-03T11:19:20Z</time>
      </trkpt>
      <trkpt lat="42.4645750" lon="-5.8896610">
        <ele>799.0</ele>
        <time>2021-10-03T11:19:23Z</time>
      </trkpt>
      <trkpt lat="42.4647810" lon="-5.8900460">
        <ele>798.2</ele>
        <time>2021-10-03T11:19:30Z</time>
      </trkpt>
      <trkpt lat="42.4651230" lon="-5.8906340">
        <ele>798.8</ele>
        <time>2021-10-03T11:19:41Z</time>
      </trkpt>
      <trkpt lat="42.4654830" lon="-5.8912450">
        <ele>799.4</ele>
        <time>2021-10-03T11:19:52Z</time>
      </trkpt>
      <trkpt lat="42.4658470" lon="-5.8918680">
        <ele>799.4</ele>
        <time>2021-10-03T11:20:03Z</time>
      </trkpt>
      <trkpt lat="42.4661400" lon="-5.8923780">
        <ele>800.0</ele>
        <time>2021-10-03T11:20:12Z</time>
      </trkpt>
      <trkpt lat="42.4664820" lon="-5.8930260">
        <ele>800.4</ele>
        <time>2021-10-03T11:20:23Z</time>
      </trkpt>
      <trkpt lat="42.4667210" lon="-5.8935050">
        <ele>800.4</ele>
        <time>2021-10-03T11:20:31Z</time>
      </trkpt>
      <trkpt lat="42.4669130" lon="-5.8938300">
        <ele>799.4</ele>
        <time>2021-10-03T11:20:37Z</time>
      </trkpt>
      <trkpt lat="42.4672000" lon="-5.8945120">
        <ele>800.0</ele>
        <time>2021-10-03T11:20:48Z</time>
      </trkpt>
      <trkpt lat="42.4672120" lon="-5.8945820">
        <ele>799.8</ele>
        <time>2021-10-03T11:20:49Z</time>
      </trkpt>
      <trkpt lat="42.4672150" lon="-5.8948740">
        <ele>800.0</ele>
        <time>2021-10-03T11:20:53Z</time>
      </trkpt>
      <trkpt lat="42.4671500" lon="-5.8956000">
        <ele>800.0</ele>
        <time>2021-10-03T11:21:03Z</time>
      </trkpt>
      <trkpt lat="42.4671300" lon="-5.8958080">
        <ele>800.2</ele>
        <time>2021-10-03T11:21:06Z</time>
      </trkpt>
      <trkpt lat="42.4671610" lon="-5.8963720">
        <ele>800.6</ele>
        <time>2021-10-03T11:21:14Z</time>
      </trkpt>
      <trkpt lat="42.4672590" lon="-5.8971350">
        <ele>800.6</ele>
        <time>2021-10-03T11:21:25Z</time>
      </trkpt>
      <trkpt lat="42.4673410" lon="-5.8978810">
        <ele>800.2</ele>
        <time>2021-10-03T11:21:36Z</time>
      </trkpt>
      <trkpt lat="42.4674320" lon="-5.8986300">
        <ele>799.8</ele>
        <time>2021-10-03T11:21:47Z</time>
      </trkpt>
      <trkpt lat="42.4675200" lon="-5.8993850">
        <ele>799.8</ele>
        <time>2021-10-03T11:21:58Z</time>
      </trkpt>
      <trkpt lat="42.4676040" lon="-5.9001320">
        <ele>799.6</ele>
        <time>2021-10-03T11:22:09Z</time>
      </trkpt>
      <trkpt lat="42.4676730" lon="-5.9007310">
        <ele>798.8</ele>
        <time>2021-10-03T11:22:18Z</time>
      </trkpt>
      <trkpt lat="42.4677650" lon="-5.9014870">
        <ele>799.0</ele>
        <time>2021-10-03T11:22:29Z</time>
      </trkpt>
      <trkpt lat="42.4677810" lon="-5.9016280">
        <ele>799.8</ele>
        <time>2021-10-03T11:22:31Z</time>
      </trkpt>
      <trkpt lat="42.4678680" lon="-5.9023910">
        <ele>800.6</ele>
        <time>2021-10-03T11:22:42Z</time>
      </trkpt>
      <trkpt lat="42.4678920" lon="-5.9025910">
        <ele>800.8</ele>
        <time>2021-10-03T11:22:45Z</time>
      </trkpt>
      <trkpt lat="42.4679800" lon="-5.9033140">
        <ele>801.4</ele>
        <time>2021-10-03T11:22:55Z</time>
      </trkpt>
      <trkpt lat="42.4680240" lon="-5.9036700">
        <ele>801.8</ele>
        <time>2021-10-03T11:23:00Z</time>
      </trkpt>
      <trkpt lat="42.4681030" lon="-5.9044530">
        <ele>802.0</ele>
        <time>2021-10-03T11:23:11Z</time>
      </trkpt>
      <trkpt lat="42.4681560" lon="-5.9051860">
        <ele>801.2</ele>
        <time>2021-10-03T11:23:21Z</time>
      </trkpt>
      <trkpt lat="42.4682160" lon="-5.9059470">
        <ele>801.0</ele>
        <time>2021-10-03T11:23:32Z</time>
      </trkpt>
      <trkpt lat="42.4682790" lon="-5.9067160">
        <ele>802.4</ele>
        <time>2021-10-03T11:23:43Z</time>
      </trkpt>
      <trkpt lat="42.4683530" lon="-5.9074730">
        <ele>802.6</ele>
        <time>2021-10-03T11:23:54Z</time>
      </trkpt>
      <trkpt lat="42.4683740" lon="-5.9076820">
        <ele>802.8</ele>
        <time>2021-10-03T11:23:57Z</time>
      </trkpt>
      <trkpt lat="42.4684010" lon="-5.9078930">
        <ele>803.0</ele>
        <time>2021-10-03T11:24:00Z</time>
      </trkpt>
      <trkpt lat="42.4684480" lon="-5.9084680">
        <ele>803.8</ele>
        <time>2021-10-03T11:24:08Z</time>
      </trkpt>
      <trkpt lat="42.4686050" lon="-5.9092220">
        <ele>804.2</ele>
        <time>2021-10-03T11:24:19Z</time>
      </trkpt>
      <trkpt lat="42.4687170" lon="-5.9095450">
        <ele>804.4</ele>
        <time>2021-10-03T11:24:24Z</time>
      </trkpt>
      <trkpt lat="42.4688260" lon="-5.9099050">
        <ele>804.4</ele>
        <time>2021-10-03T11:24:30Z</time>
      </trkpt>
      <trkpt lat="42.4688910" lon="-5.9100640">
        <ele>804.8</ele>
        <time>2021-10-03T11:24:33Z</time>
      </trkpt>
      <trkpt lat="42.4689760" lon="-5.9102000">
        <ele>805.0</ele>
        <time>2021-10-03T11:24:36Z</time>
      </trkpt>
      <trkpt lat="42.4692770" lon="-5.9104470">
        <ele>805.2</ele>
        <time>2021-10-03T11:24:44Z</time>
      </trkpt>
      <trkpt lat="42.4694980" lon="-5.9104690">
        <ele>805.6</ele>
        <time>2021-10-03T11:24:49Z</time>
      </trkpt>
      <trkpt lat="42.4695850" lon="-5.9105010">
        <ele>805.8</ele>
        <time>2021-10-03T11:24:51Z</time>
      </trkpt>
      <trkpt lat="42.4697430" lon="-5.9106270">
        <ele>806.2</ele>
        <time>2021-10-03T11:24:55Z</time>
      </trkpt>
      <trkpt lat="42.4698130" lon="-5.9106960">
        <ele>806.4</ele>
        <time>2021-10-03T11:24:57Z</time>
      </trkpt>
      <trkpt lat="42.4699060" lon="-5.9108970">
        <ele>806.4</ele>
        <time>2021-10-03T11:25:01Z</time>
      </trkpt>
      <trkpt lat="42.4699430" lon="-5.9110180">
        <ele>806.6</ele>
        <time>2021-10-03T11:25:03Z</time>
      </trkpt>
      <trkpt lat="42.4700150" lon="-5.9111920">
        <ele>806.8</ele>
        <time>2021-10-03T11:25:06Z</time>
      </trkpt>
      <trkpt lat="42.4700760" lon="-5.9112960">
        <ele>807.2</ele>
        <time>2021-10-03T11:25:08Z</time>
      </trkpt>
      <trkpt lat="42.4701860" lon="-5.9114200">
        <ele>807.4</ele>
        <time>2021-10-03T11:25:11Z</time>
      </trkpt>
      <trkpt lat="42.4702640" lon="-5.9114880">
        <ele>807.4</ele>
        <time>2021-10-03T11:25:13Z</time>
      </trkpt>
      <trkpt lat="42.4703370" lon="-5.9115470">
        <ele>807.6</ele>
        <time>2021-10-03T11:25:15Z</time>
      </trkpt>
      <trkpt lat="42.4703620" lon="-5.9115890">
        <ele>807.8</ele>
        <time>2021-10-03T11:25:16Z</time>
      </trkpt>
      <trkpt lat="42.4703250" lon="-5.9118050">
        <ele>808.4</ele>
        <time>2021-10-03T11:25:20Z</time>
      </trkpt>
      <trkpt lat="42.4702480" lon="-5.9120390">
        <ele>808.6</ele>
        <time>2021-10-03T11:25:24Z</time>
      </trkpt>
      <trkpt lat="42.4703030" lon="-5.9124350">
        <ele>808.4</ele>
        <time>2021-10-03T11:25:31Z</time>
      </trkpt>
      <trkpt lat="42.4704260" lon="-5.9126460">
        <ele>807.8</ele>
        <time>2021-10-03T11:25:35Z</time>
      </trkpt>
      <trkpt lat="42.4704950" lon="-5.9127370">
        <ele>807.8</ele>
        <time>2021-10-03T11:25:37Z</time>
      </trkpt>
      <trkpt lat="42.4705840" lon="-5.9128870">
        <ele>807.6</ele>
        <time>2021-10-03T11:25:40Z</time>
      </trkpt>
      <trkpt lat="42.4706880" lon="-5.9131000">
        <ele>807.8</ele>
        <time>2021-10-03T11:25:44Z</time>
      </trkpt>
      <trkpt lat="42.4708160" lon="-5.9133270">
        <ele>808.2</ele>
        <time>2021-10-03T11:25:49Z</time>
      </trkpt>
      <trkpt lat="42.4707800" lon="-5.9135080">
        <ele>809.0</ele>
        <time>2021-10-03T11:25:53Z</time>
      </trkpt>
      <trkpt lat="42.4707660" lon="-5.9135580">
        <ele>809.2</ele>
        <time>2021-10-03T11:25:54Z</time>
      </trkpt>
      <trkpt lat="42.4707230" lon="-5.9136640">
        <ele>810.0</ele>
        <time>2021-10-03T11:25:56Z</time>
      </trkpt>
      <trkpt lat="42.4707040" lon="-5.9137180">
        <ele>810.2</ele>
        <time>2021-10-03T11:25:57Z</time>
      </trkpt>
      <trkpt lat="42.4706200" lon="-5.9139390">
        <ele>810.6</ele>
        <time>2021-10-03T11:26:01Z</time>
      </trkpt>
      <trkpt lat="42.4706030" lon="-5.9139960">
        <ele>810.8</ele>
        <time>2021-10-03T11:26:02Z</time>
      </trkpt>
      <trkpt lat="42.4705880" lon="-5.9140530">
        <ele>811.0</ele>
        <time>2021-10-03T11:26:03Z</time>
      </trkpt>
      <trkpt lat="42.4705460" lon="-5.9142180">
        <ele>811.2</ele>
        <time>2021-10-03T11:26:06Z</time>
      </trkpt>
      <trkpt lat="42.4706910" lon="-5.9147320">
        <ele>810.8</ele>
        <time>2021-10-03T11:26:16Z</time>
      </trkpt>
      <trkpt lat="42.4708040" lon="-5.9151840">
        <ele>811.4</ele>
        <time>2021-10-03T11:26:25Z</time>
      </trkpt>
      <trkpt lat="42.4707570" lon="-5.9152430">
        <ele>812.2</ele>
        <time>2021-10-03T11:26:27Z</time>
      </trkpt>
      <trkpt lat="42.4706910" lon="-5.9152750">
        <ele>812.8</ele>
        <time>2021-10-03T11:26:29Z</time>
      </trkpt>
      <trkpt lat="42.4705920" lon="-5.9153210">
        <ele>813.4</ele>
        <time>2021-10-03T11:26:32Z</time>
      </trkpt>
      <trkpt lat="42.4704640" lon="-5.9154040">
        <ele>814.6</ele>
        <time>2021-10-03T11:26:36Z</time>
      </trkpt>
      <trkpt lat="42.4701290" lon="-5.9159790">
        <ele>815.6</ele>
        <time>2021-10-03T11:26:50Z</time>
      </trkpt>
      <trkpt lat="42.4700320" lon="-5.9160680">
        <ele>815.6</ele>
        <time>2021-10-03T11:26:53Z</time>
      </trkpt>
      <trkpt lat="42.4699540" lon="-5.9161080">
        <ele>815.8</ele>
        <time>2021-10-03T11:26:55Z</time>
      </trkpt>
      <trkpt lat="42.4697620" lon="-5.9162060">
        <ele>816.6</ele>
        <time>2021-10-03T11:27:00Z</time>
      </trkpt>
      <trkpt lat="42.4697090" lon="-5.9162390">
        <ele>816.8</ele>
        <time>2021-10-03T11:27:02Z</time>
      </trkpt>
      <trkpt lat="42.4695800" lon="-5.9164960">
        <ele>818.2</ele>
        <time>2021-10-03T11:27:11Z</time>
      </trkpt>
      <trkpt lat="42.4692620" lon="-5.9168510">
        <ele>819.4</ele>
        <time>2021-10-03T11:27:24Z</time>
      </trkpt>
      <trkpt lat="42.4688060" lon="-5.9172670">
        <ele>820.0</ele>
        <time>2021-10-03T11:27:37Z</time>
      </trkpt>
      <trkpt lat="42.4686010" lon="-5.9174910">
        <ele>820.6</ele>
        <time>2021-10-03T11:27:43Z</time>
      </trkpt>
      <trkpt lat="42.4684780" lon="-5.9176620">
        <ele>821.2</ele>
        <time>2021-10-03T11:27:47Z</time>
      </trkpt>
      <trkpt lat="42.4683480" lon="-5.9178270">
        <ele>821.2</ele>
        <time>2021-10-03T11:27:51Z</time>
      </trkpt>
      <trkpt lat="42.4681840" lon="-5.9179300">
        <ele>822.0</ele>
        <time>2021-10-03T11:27:55Z</time>
      </trkpt>
      <trkpt lat="42.4681390" lon="-5.9179490">
        <ele>822.0</ele>
        <time>2021-10-03T11:27:56Z</time>
      </trkpt>
      <trkpt lat="42.4676340" lon="-5.9181020">
        <ele>822.2</ele>
        <time>2021-10-03T11:28:06Z</time>
      </trkpt>
      <trkpt lat="42.4674690" lon="-5.9181500">
        <ele>822.8</ele>
        <time>2021-10-03T11:28:09Z</time>
      </trkpt>
      <trkpt lat="42.4670000" lon="-5.9182840">
        <ele>822.6</ele>
        <time>2021-10-03T11:28:17Z</time>
      </trkpt>
      <trkpt lat="42.4666400" lon="-5.9183890">
        <ele>823.0</ele>
        <time>2021-10-03T11:28:23Z</time>
      </trkpt>
      <trkpt lat="42.4664580" lon="-5.9184450">
        <ele>822.8</ele>
        <time>2021-10-03T11:28:26Z</time>
      </trkpt>
      <trkpt lat="42.4662750" lon="-5.9184980">
        <ele>822.8</ele>
        <time>2021-10-03T11:28:29Z</time>
      </trkpt>
      <trkpt lat="42.4660760" lon="-5.9185580">
        <ele>822.6</ele>
        <time>2021-10-03T11:28:32Z</time>
      </trkpt>
      <trkpt lat="42.4659380" lon="-5.9186000">
        <ele>822.6</ele>
        <time>2021-10-03T11:28:34Z</time>
      </trkpt>
      <trkpt lat="42.4655860" lon="-5.9187050">
        <ele>821.8</ele>
        <time>2021-10-03T11:28:39Z</time>
      </trkpt>
      <trkpt lat="42.4654450" lon="-5.9187470">
        <ele>821.2</ele>
        <time>2021-10-03T11:28:41Z</time>
      </trkpt>
      <trkpt lat="42.4653080" lon="-5.9187880">
        <ele>820.8</ele>
        <time>2021-10-03T11:28:43Z</time>
      </trkpt>
      <trkpt lat="42.4647530" lon="-5.9189540">
        <ele>820.2</ele>
        <time>2021-10-03T11:28:51Z</time>
      </trkpt>
      <trkpt lat="42.4645520" lon="-5.9190150">
        <ele>819.6</ele>
        <time>2021-10-03T11:28:54Z</time>
      </trkpt>
      <trkpt lat="42.4642970" lon="-5.9190880">
        <ele>818.8</ele>
        <time>2021-10-03T11:28:58Z</time>
      </trkpt>
      <trkpt lat="42.4638990" lon="-5.9192080">
        <ele>818.6</ele>
        <time>2021-10-03T11:29:05Z</time>
      </trkpt>
      <trkpt lat="42.4637510" lon="-5.9192500">
        <ele>819.0</ele>
        <time>2021-10-03T11:29:08Z</time>
      </trkpt>
      <trkpt lat="42.4636850" lon="-5.9194500">
        <ele>819.6</ele>
        <time>2021-10-03T11:29:12Z</time>
      </trkpt>
      <trkpt lat="42.4637070" lon="-5.9195630">
        <ele>819.8</ele>
        <time>2021-10-03T11:29:14Z</time>
      </trkpt>
      <trkpt lat="42.4637220" lon="-5.9196770">
        <ele>820.0</ele>
        <time>2021-10-03T11:29:16Z</time>
      </trkpt>
      <trkpt lat="42.4637300" lon="-5.9197870">
        <ele>820.2</ele>
        <time>2021-10-03T11:29:18Z</time>
      </trkpt>
      <trkpt lat="42.4637310" lon="-5.9198930">
        <ele>820.4</ele>
        <time>2021-10-03T11:29:20Z</time>
      </trkpt>
      <trkpt lat="42.4637340" lon="-5.9199860">
        <ele>820.6</ele>
        <time>2021-10-03T11:29:22Z</time>
      </trkpt>
      <trkpt lat="42.4637560" lon="-5.9201770">
        <ele>821.8</ele>
        <time>2021-10-03T11:29:27Z</time>
      </trkpt>
      <trkpt lat="42.4637690" lon="-5.9202510">
        <ele>822.8</ele>
        <time>2021-10-03T11:29:29Z</time>
      </trkpt>
      <trkpt lat="42.4637990" lon="-5.9204460">
        <ele>823.8</ele>
        <time>2021-10-03T11:29:34Z</time>
      </trkpt>
      <trkpt lat="42.4638100" lon="-5.9204810">
        <ele>824.0</ele>
        <time>2021-10-03T11:29:35Z</time>
      </trkpt>
      <trkpt lat="42.4638400" lon="-5.9205850">
        <ele>824.4</ele>
        <time>2021-10-03T11:29:38Z</time>
      </trkpt>
      <trkpt lat="42.4638550" lon="-5.9206540">
        <ele>825.0</ele>
        <time>2021-10-03T11:29:40Z</time>
      </trkpt>
      <trkpt lat="42.4638850" lon="-5.9207870">
        <ele>826.0</ele>
        <time>2021-10-03T11:29:44Z</time>
      </trkpt>
      <trkpt lat="42.4639420" lon="-5.9209060">
        <ele>826.6</ele>
        <time>2021-10-03T11:29:48Z</time>
      </trkpt>
      <trkpt lat="42.4639840" lon="-5.9210350">
        <ele>827.0</ele>
        <time>2021-10-03T11:29:52Z</time>
      </trkpt>
      <trkpt lat="42.4640130" lon="-5.9211680">
        <ele>828.2</ele>
        <time>2021-10-03T11:29:56Z</time>
      </trkpt>
      <trkpt lat="42.4640470" lon="-5.9212550">
        <ele>829.4</ele>
        <time>2021-10-03T11:29:59Z</time>
      </trkpt>
      <trkpt lat="42.4640760" lon="-5.9213070">
        <ele>829.8</ele>
        <time>2021-10-03T11:30:01Z</time>
      </trkpt>
      <trkpt lat="42.4641010" lon="-5.9214350">
        <ele>830.2</ele>
        <time>2021-10-03T11:30:05Z</time>
      </trkpt>
      <trkpt lat="42.4641090" lon="-5.9214980">
        <ele>830.6</ele>
        <time>2021-10-03T11:30:07Z</time>
      </trkpt>
      <trkpt lat="42.4641480" lon="-5.9216070">
        <ele>831.8</ele>
        <time>2021-10-03T11:30:11Z</time>
      </trkpt>
      <trkpt lat="42.4641890" lon="-5.9216760">
        <ele>833.0</ele>
        <time>2021-10-03T11:30:14Z</time>
      </trkpt>
      <trkpt lat="42.4641970" lon="-5.9217050">
        <ele>833.2</ele>
        <time>2021-10-03T11:30:15Z</time>
      </trkpt>
      <trkpt lat="42.4642370" lon="-5.9218520">
        <ele>834.0</ele>
        <time>2021-10-03T11:30:20Z</time>
      </trkpt>
      <trkpt lat="42.4642700" lon="-5.9219680">
        <ele>835.2</ele>
        <time>2021-10-03T11:30:24Z</time>
      </trkpt>
      <trkpt lat="42.4643120" lon="-5.9220770">
        <ele>836.4</ele>
        <time>2021-10-03T11:30:28Z</time>
      </trkpt>
      <trkpt lat="42.4643750" lon="-5.9222810">
        <ele>837.6</ele>
        <time>2021-10-03T11:30:35Z</time>
      </trkpt>
      <trkpt lat="42.4644340" lon="-5.9224630">
        <ele>839.0</ele>
        <time>2021-10-03T11:30:41Z</time>
      </trkpt>
      <trkpt lat="42.4645090" lon="-5.9226980">
        <ele>840.2</ele>
        <time>2021-10-03T11:30:48Z</time>
      </trkpt>
      <trkpt lat="42.4645450" lon="-5.9227920">
        <ele>841.2</ele>
        <time>2021-10-03T11:30:51Z</time>
      </trkpt>
      <trkpt lat="42.4645730" lon="-5.9229650">
        <ele>842.4</ele>
        <time>2021-10-03T11:30:56Z</time>
      </trkpt>
      <trkpt lat="42.4645990" lon="-5.9231710">
        <ele>843.6</ele>
        <time>2021-10-03T11:31:02Z</time>
      </trkpt>
      <trkpt lat="42.4646040" lon="-5.9234210">
        <ele>844.6</ele>
        <time>2021-10-03T11:31:09Z</time>
      </trkpt>
      <trkpt lat="42.4646080" lon="-5.9234930">
        <ele>846.0</ele>
        <time>2021-10-03T11:31:11Z</time>
      </trkpt>
      <trkpt lat="42.4646050" lon="-5.9236050">
        <ele>847.2</ele>
        <time>2021-10-03T11:31:14Z</time>
      </trkpt>
      <trkpt lat="42.4645890" lon="-5.9237550">
        <ele>848.6</ele>
        <time>2021-10-03T11:31:18Z</time>
      </trkpt>
      <trkpt lat="42.4645610" lon="-5.9238700">
        <ele>849.8</ele>
        <time>2021-10-03T11:31:21Z</time>
      </trkpt>
      <trkpt lat="42.4645190" lon="-5.9240690">
        <ele>850.8</ele>
        <time>2021-10-03T11:31:26Z</time>
      </trkpt>
      <trkpt lat="42.4644510" lon="-5.9242890">
        <ele>851.2</ele>
        <time>2021-10-03T11:31:31Z</time>
      </trkpt>
      <trkpt lat="42.4643900" lon="-5.9244520">
        <ele>851.2</ele>
        <time>2021-10-03T11:31:34Z</time>
      </trkpt>
      <trkpt lat="42.4643380" lon="-5.9245790">
        <ele>851.2</ele>
        <time>2021-10-03T11:31:36Z</time>
      </trkpt>
      <trkpt lat="42.4642570" lon="-5.9248000">
        <ele>851.0</ele>
        <time>2021-10-03T11:31:39Z</time>
      </trkpt>
      <trkpt lat="42.4641610" lon="-5.9251580">
        <ele>849.8</ele>
        <time>2021-10-03T11:31:43Z</time>
      </trkpt>
      <trkpt lat="42.4641310" lon="-5.9252550">
        <ele>849.4</ele>
        <time>2021-10-03T11:31:44Z</time>
      </trkpt>
      <trkpt lat="42.4640990" lon="-5.9253550">
        <ele>848.2</ele>
        <time>2021-10-03T11:31:45Z</time>
      </trkpt>
      <trkpt lat="42.4640260" lon="-5.9255640">
        <ele>846.4</ele>
        <time>2021-10-03T11:31:47Z</time>
      </trkpt>
      <trkpt lat="42.4639840" lon="-5.9256730">
        <ele>845.0</ele>
        <time>2021-10-03T11:31:48Z</time>
      </trkpt>
      <trkpt lat="42.4639390" lon="-5.9257840">
        <ele>843.6</ele>
        <time>2021-10-03T11:31:49Z</time>
      </trkpt>
      <trkpt lat="42.4638920" lon="-5.9258960">
        <ele>842.6</ele>
        <time>2021-10-03T11:31:50Z</time>
      </trkpt>
      <trkpt lat="42.4637920" lon="-5.9261270">
        <ele>841.4</ele>
        <time>2021-10-03T11:31:52Z</time>
      </trkpt>
      <trkpt lat="42.4637400" lon="-5.9262440">
        <ele>840.4</ele>
        <time>2021-10-03T11:31:53Z</time>
      </trkpt>
      <trkpt lat="42.4636880" lon="-5.9263630">
        <ele>839.6</ele>
        <time>2021-10-03T11:31:54Z</time>
      </trkpt>
      <trkpt lat="42.4636360" lon="-5.9264820">
        <ele>838.0</ele>
        <time>2021-10-03T11:31:55Z</time>
      </trkpt>
      <trkpt lat="42.4635840" lon="-5.9266030">
        <ele>836.4</ele>
        <time>2021-10-03T11:31:56Z</time>
      </trkpt>
      <trkpt lat="42.4635270" lon="-5.9267200">
        <ele>835.2</ele>
        <time>2021-10-03T11:31:57Z</time>
      </trkpt>
      <trkpt lat="42.4634680" lon="-5.9268350">
        <ele>833.8</ele>
        <time>2021-10-03T11:31:58Z</time>
      </trkpt>
      <trkpt lat="42.4634080" lon="-5.9269510">
        <ele>832.4</ele>
        <time>2021-10-03T11:31:59Z</time>
      </trkpt>
      <trkpt lat="42.4632910" lon="-5.9271820">
        <ele>831.4</ele>
        <time>2021-10-03T11:32:01Z</time>
      </trkpt>
      <trkpt lat="42.4631160" lon="-5.9275170">
        <ele>830.2</ele>
        <time>2021-10-03T11:32:04Z</time>
      </trkpt>
      <trkpt lat="42.4630590" lon="-5.9276270">
        <ele>830.0</ele>
        <time>2021-10-03T11:32:05Z</time>
      </trkpt>
      <trkpt lat="42.4628890" lon="-5.9279510">
        <ele>828.8</ele>
        <time>2021-10-03T11:32:08Z</time>
      </trkpt>
      <trkpt lat="42.4627790" lon="-5.9281590">
        <ele>828.2</ele>
        <time>2021-10-03T11:32:10Z</time>
      </trkpt>
      <trkpt lat="42.4627260" lon="-5.9282610">
        <ele>827.6</ele>
        <time>2021-10-03T11:32:11Z</time>
      </trkpt>
      <trkpt lat="42.4625560" lon="-5.9285430">
        <ele>826.8</ele>
        <time>2021-10-03T11:32:14Z</time>
      </trkpt>
      <trkpt lat="42.4624890" lon="-5.9286150">
        <ele>826.6</ele>
        <time>2021-10-03T11:32:15Z</time>
      </trkpt>
      <trkpt lat="42.4621760" lon="-5.9287580">
        <ele>826.2</ele>
        <time>2021-10-03T11:32:19Z</time>
      </trkpt>
      <trkpt lat="42.4620940" lon="-5.9287610">
        <ele>826.2</ele>
        <time>2021-10-03T11:32:20Z</time>
      </trkpt>
      <trkpt lat="42.4620130" lon="-5.9287640">
        <ele>826.4</ele>
        <time>2021-10-03T11:32:21Z</time>
      </trkpt>
      <trkpt lat="42.4619320" lon="-5.9287700">
        <ele>826.4</ele>
        <time>2021-10-03T11:32:22Z</time>
      </trkpt>
      <trkpt lat="42.4617720" lon="-5.9288010">
        <ele>826.2</ele>
        <time>2021-10-03T11:32:24Z</time>
      </trkpt>
      <trkpt lat="42.4616130" lon="-5.9288450">
        <ele>826.0</ele>
        <time>2021-10-03T11:32:26Z</time>
      </trkpt>
      <trkpt lat="42.4613720" lon="-5.9289080">
        <ele>826.0</ele>
        <time>2021-10-03T11:32:29Z</time>
      </trkpt>
      <trkpt lat="42.4612120" lon="-5.9289410">
        <ele>826.0</ele>
        <time>2021-10-03T11:32:31Z</time>
      </trkpt>
      <trkpt lat="42.4609800" lon="-5.9289850">
        <ele>825.8</ele>
        <time>2021-10-03T11:32:34Z</time>
      </trkpt>
      <trkpt lat="42.4607630" lon="-5.9290490">
        <ele>825.4</ele>
        <time>2021-10-03T11:32:37Z</time>
      </trkpt>
      <trkpt lat="42.4606970" lon="-5.9290810">
        <ele>825.0</ele>
        <time>2021-10-03T11:32:38Z</time>
      </trkpt>
      <trkpt lat="42.4604900" lon="-5.9292950">
        <ele>824.8</ele>
        <time>2021-10-03T11:32:42Z</time>
      </trkpt>
      <trkpt lat="42.4604510" lon="-5.9293580">
        <ele>824.8</ele>
        <time>2021-10-03T11:32:43Z</time>
      </trkpt>
      <trkpt lat="42.4604150" lon="-5.9294190">
        <ele>824.8</ele>
        <time>2021-10-03T11:32:44Z</time>
      </trkpt>
      <trkpt lat="42.4603780" lon="-5.9294780">
        <ele>824.8</ele>
        <time>2021-10-03T11:32:45Z</time>
      </trkpt>
      <trkpt lat="42.4602990" lon="-5.9295780">
        <ele>824.8</ele>
        <time>2021-10-03T11:32:47Z</time>
      </trkpt>
      <trkpt lat="42.4601180" lon="-5.9296940">
        <ele>825.2</ele>
        <time>2021-10-03T11:32:51Z</time>
      </trkpt>
      <trkpt lat="42.4600730" lon="-5.9297250">
        <ele>825.4</ele>
        <time>2021-10-03T11:32:52Z</time>
      </trkpt>
      <trkpt lat="42.4599880" lon="-5.9297910">
        <ele>825.8</ele>
        <time>2021-10-03T11:32:54Z</time>
      </trkpt>
      <trkpt lat="42.4598580" lon="-5.9299130">
        <ele>826.0</ele>
        <time>2021-10-03T11:32:57Z</time>
      </trkpt>
      <trkpt lat="42.4597300" lon="-5.9300380">
        <ele>826.0</ele>
        <time>2021-10-03T11:33:00Z</time>
      </trkpt>
      <trkpt lat="42.4595210" lon="-5.9301400">
        <ele>826.4</ele>
        <time>2021-10-03T11:33:04Z</time>
      </trkpt>
      <trkpt lat="42.4589800" lon="-5.9301850">
        <ele>826.0</ele>
        <time>2021-10-03T11:33:14Z</time>
      </trkpt>
      <trkpt lat="42.4587680" lon="-5.9302180">
        <ele>826.4</ele>
        <time>2021-10-03T11:33:18Z</time>
      </trkpt>
      <trkpt lat="42.4586150" lon="-5.9302430">
        <ele>826.2</ele>
        <time>2021-10-03T11:33:21Z</time>
      </trkpt>
      <trkpt lat="42.4584040" lon="-5.9302910">
        <ele>825.8</ele>
        <time>2021-10-03T11:33:26Z</time>
      </trkpt>
      <trkpt lat="42.4584180" lon="-5.9305230">
        <ele>826.8</ele>
        <time>2021-10-03T11:33:34Z</time>
      </trkpt>
      <trkpt lat="42.4584160" lon="-5.9306740">
        <ele>827.4</ele>
        <time>2021-10-03T11:33:38Z</time>
      </trkpt>
      <trkpt lat="42.4584130" lon="-5.9307110">
        <ele>827.4</ele>
        <time>2021-10-03T11:33:39Z</time>
      </trkpt>
      <trkpt lat="42.4584220" lon="-5.9308660">
        <ele>827.8</ele>
        <time>2021-10-03T11:33:46Z</time>
      </trkpt>
      <trkpt lat="42.4584920" lon="-5.9309550">
        <ele>830.4</ele>
        <time>2021-10-03T11:34:03Z</time>
      </trkpt>
      <trkpt lat="42.4585070" lon="-5.9309820">
        <ele>830.4</ele>
        <time>2021-10-03T11:34:04Z</time>
      </trkpt>
      <trkpt lat="42.4585330" lon="-5.9310460">
        <ele>830.2</ele>
        <time>2021-10-03T11:34:06Z</time>
      </trkpt>
      <trkpt lat="42.4586380" lon="-5.9312260">
        <ele>830.0</ele>
        <time>2021-10-03T11:34:12Z</time>
      </trkpt>
      <trkpt lat="42.4587080" lon="-5.9313950">
        <ele>830.2</ele>
        <time>2021-10-03T11:34:17Z</time>
      </trkpt>
      <trkpt lat="42.4587720" lon="-5.9315460">
        <ele>831.4</ele>
        <time>2021-10-03T11:34:21Z</time>
      </trkpt>
      <trkpt lat="42.4588770" lon="-5.9318170">
        <ele>832.4</ele>
        <time>2021-10-03T11:34:29Z</time>
      </trkpt>
      <trkpt lat="42.4589990" lon="-5.9320640">
        <ele>833.2</ele>
        <time>2021-10-03T11:34:36Z</time>
      </trkpt>
      <trkpt lat="42.4590960" lon="-5.9322440">
        <ele>833.6</ele>
        <time>2021-10-03T11:34:41Z</time>
      </trkpt>
      <trkpt lat="42.4591890" lon="-5.9323810">
        <ele>834.0</ele>
        <time>2021-10-03T11:34:45Z</time>
      </trkpt>
      <trkpt lat="42.4593470" lon="-5.9325960">
        <ele>834.6</ele>
        <time>2021-10-03T11:34:51Z</time>
      </trkpt>
      <trkpt lat="42.4595600" lon="-5.9329430">
        <ele>835.6</ele>
        <time>2021-10-03T11:35:00Z</time>
      </trkpt>
      <trkpt lat="42.4596880" lon="-5.9331520">
        <ele>836.6</ele>
        <time>2021-10-03T11:35:06Z</time>
      </trkpt>
      <trkpt lat="42.4598660" lon="-5.9334800">
        <ele>837.6</ele>
        <time>2021-10-03T11:35:15Z</time>
      </trkpt>
      <trkpt lat="42.4599510" lon="-5.9336990">
        <ele>838.8</ele>
        <time>2021-10-03T11:35:20Z</time>
      </trkpt>
      <trkpt lat="42.4600390" lon="-5.9339320">
        <ele>839.0</ele>
        <time>2021-10-03T11:35:25Z</time>
      </trkpt>
      <trkpt lat="42.4602970" lon="-5.9345740">
        <ele>839.0</ele>
        <time>2021-10-03T11:35:38Z</time>
      </trkpt>
      <trkpt lat="42.4606830" lon="-5.9350780">
        <ele>839.0</ele>
        <time>2021-10-03T11:35:51Z</time>
      </trkpt>
      <trkpt lat="42.4609940" lon="-5.9355380">
        <ele>840.2</ele>
        <time>2021-10-03T11:36:03Z</time>
      </trkpt>
      <trkpt lat="42.4610790" lon="-5.9356980">
        <ele>840.8</ele>
        <time>2021-10-03T11:36:07Z</time>
      </trkpt>
      <trkpt lat="42.4611420" lon="-5.9358190">
        <ele>841.0</ele>
        <time>2021-10-03T11:36:10Z</time>
      </trkpt>
      <trkpt lat="42.4611650" lon="-5.9358580">
        <ele>841.2</ele>
        <time>2021-10-03T11:36:11Z</time>
      </trkpt>
      <trkpt lat="42.4612560" lon="-5.9360160">
        <ele>842.4</ele>
        <time>2021-10-03T11:36:15Z</time>
      </trkpt>
      <trkpt lat="42.4615130" lon="-5.9364270">
        <ele>843.4</ele>
        <time>2021-10-03T11:36:26Z</time>
      </trkpt>
      <trkpt lat="42.4616790" lon="-5.9368020">
        <ele>844.6</ele>
        <time>2021-10-03T11:36:35Z</time>
      </trkpt>
      <trkpt lat="42.4617590" lon="-5.9370830">
        <ele>845.4</ele>
        <time>2021-10-03T11:36:41Z</time>
      </trkpt>
      <trkpt lat="42.4617830" lon="-5.9371790">
        <ele>845.6</ele>
        <time>2021-10-03T11:36:43Z</time>
      </trkpt>
      <trkpt lat="42.4618090" lon="-5.9372730">
        <ele>846.8</ele>
        <time>2021-10-03T11:36:45Z</time>
      </trkpt>
      <trkpt lat="42.4618960" lon="-5.9375070">
        <ele>847.8</ele>
        <time>2021-10-03T11:36:50Z</time>
      </trkpt>
      <trkpt lat="42.4622580" lon="-5.9381030">
        <ele>848.2</ele>
        <time>2021-10-03T11:37:05Z</time>
      </trkpt>
      <trkpt lat="42.4626670" lon="-5.9385970">
        <ele>848.6</ele>
        <time>2021-10-03T11:37:19Z</time>
      </trkpt>
      <trkpt lat="42.4626990" lon="-5.9386270">
        <ele>848.8</ele>
        <time>2021-10-03T11:37:20Z</time>
      </trkpt>
      <trkpt lat="42.4628490" lon="-5.9387670">
        <ele>850.2</ele>
        <time>2021-10-03T11:37:25Z</time>
      </trkpt>
      <trkpt lat="42.4630200" lon="-5.9389140">
        <ele>851.2</ele>
        <time>2021-10-03T11:37:31Z</time>
      </trkpt>
      <trkpt lat="42.4631250" lon="-5.9390060">
        <ele>852.4</ele>
        <time>2021-10-03T11:37:35Z</time>
      </trkpt>
      <trkpt lat="42.4632030" lon="-5.9390730">
        <ele>854.0</ele>
        <time>2021-10-03T11:37:38Z</time>
      </trkpt>
      <trkpt lat="42.4632540" lon="-5.9391190">
        <ele>855.0</ele>
        <time>2021-10-03T11:37:40Z</time>
      </trkpt>
      <trkpt lat="42.4633280" lon="-5.9391880">
        <ele>856.0</ele>
        <time>2021-10-03T11:37:43Z</time>
      </trkpt>
      <trkpt lat="42.4634720" lon="-5.9393300">
        <ele>857.2</ele>
        <time>2021-10-03T11:37:49Z</time>
      </trkpt>
      <trkpt lat="42.4635970" lon="-5.9394610">
        <ele>858.4</ele>
        <time>2021-10-03T11:37:54Z</time>
      </trkpt>
      <trkpt lat="42.4639550" lon="-5.9399830">
        <ele>859.2</ele>
        <time>2021-10-03T11:38:08Z</time>
      </trkpt>
      <trkpt lat="42.4640830" lon="-5.9402160">
        <ele>858.4</ele>
        <time>2021-10-03T11:38:13Z</time>
      </trkpt>
      <trkpt lat="42.4643300" lon="-5.9407640">
        <ele>858.0</ele>
        <time>2021-10-03T11:38:24Z</time>
      </trkpt>
      <trkpt lat="42.4645330" lon="-5.9414680">
        <ele>858.0</ele>
        <time>2021-10-03T11:38:38Z</time>
      </trkpt>
      <trkpt lat="42.4647680" lon="-5.9421350">
        <ele>858.0</ele>
        <time>2021-10-03T11:38:52Z</time>
      </trkpt>
      <trkpt lat="42.4650030" lon="-5.9425280">
        <ele>859.6</ele>
        <time>2021-10-03T11:39:02Z</time>
      </trkpt>
      <trkpt lat="42.4651180" lon="-5.9427140">
        <ele>860.6</ele>
        <time>2021-10-03T11:39:07Z</time>
      </trkpt>
      <trkpt lat="42.4652130" lon="-5.9428680">
        <ele>861.4</ele>
        <time>2021-10-03T11:39:11Z</time>
      </trkpt>
      <trkpt lat="42.4653650" lon="-5.9431390">
        <ele>862.6</ele>
        <time>2021-10-03T11:39:18Z</time>
      </trkpt>
      <trkpt lat="42.4654300" lon="-5.9433340">
        <ele>863.4</ele>
        <time>2021-10-03T11:39:22Z</time>
      </trkpt>
      <trkpt lat="42.4655300" lon="-5.9436400">
        <ele>863.4</ele>
        <time>2021-10-03T11:39:27Z</time>
      </trkpt>
      <trkpt lat="42.4656230" lon="-5.9439150">
        <ele>862.8</ele>
        <time>2021-10-03T11:39:31Z</time>
      </trkpt>
      <trkpt lat="42.4656890" lon="-5.9441280">
        <ele>861.8</ele>
        <time>2021-10-03T11:39:34Z</time>
      </trkpt>
      <trkpt lat="42.4657330" lon="-5.9442710">
        <ele>861.2</ele>
        <time>2021-10-03T11:39:36Z</time>
      </trkpt>
      <trkpt lat="42.4658170" lon="-5.9445720">
        <ele>860.0</ele>
        <time>2021-10-03T11:39:40Z</time>
      </trkpt>
      <trkpt lat="42.4658510" lon="-5.9447300">
        <ele>859.8</ele>
        <time>2021-10-03T11:39:42Z</time>
      </trkpt>
      <trkpt lat="42.4658810" lon="-5.9448870">
        <ele>859.4</ele>
        <time>2021-10-03T11:39:44Z</time>
      </trkpt>
      <trkpt lat="42.4658920" lon="-5.9449670">
        <ele>859.2</ele>
        <time>2021-10-03T11:39:45Z</time>
      </trkpt>
      <trkpt lat="42.4659070" lon="-5.9451300">
        <ele>858.8</ele>
        <time>2021-10-03T11:39:47Z</time>
      </trkpt>
      <trkpt lat="42.4659180" lon="-5.9452980">
        <ele>858.2</ele>
        <time>2021-10-03T11:39:49Z</time>
      </trkpt>
      <trkpt lat="42.4659230" lon="-5.9453820">
        <ele>857.8</ele>
        <time>2021-10-03T11:39:50Z</time>
      </trkpt>
      <trkpt lat="42.4659260" lon="-5.9454680">
        <ele>857.4</ele>
        <time>2021-10-03T11:39:51Z</time>
      </trkpt>
      <trkpt lat="42.4659250" lon="-5.9457280">
        <ele>856.2</ele>
        <time>2021-10-03T11:39:54Z</time>
      </trkpt>
      <trkpt lat="42.4659000" lon="-5.9459960">
        <ele>855.2</ele>
        <time>2021-10-03T11:39:57Z</time>
      </trkpt>
      <trkpt lat="42.4658700" lon="-5.9461810">
        <ele>853.6</ele>
        <time>2021-10-03T11:39:59Z</time>
      </trkpt>
      <trkpt lat="42.4658200" lon="-5.9464710">
        <ele>852.6</ele>
        <time>2021-10-03T11:40:02Z</time>
      </trkpt>
      <trkpt lat="42.4657510" lon="-5.9469570">
        <ele>851.8</ele>
        <time>2021-10-03T11:40:07Z</time>
      </trkpt>
      <trkpt lat="42.4657380" lon="-5.9470510">
        <ele>851.6</ele>
        <time>2021-10-03T11:40:08Z</time>
      </trkpt>
      <trkpt lat="42.4656850" lon="-5.9475120">
        <ele>850.2</ele>
        <time>2021-10-03T11:40:13Z</time>
      </trkpt>
      <trkpt lat="42.4656660" lon="-5.9476870">
        <ele>849.6</ele>
        <time>2021-10-03T11:40:15Z</time>
      </trkpt>
      <trkpt lat="42.4656320" lon="-5.9479410">
        <ele>849.2</ele>
        <time>2021-10-03T11:40:18Z</time>
      </trkpt>
      <trkpt lat="42.4656210" lon="-5.9480240">
        <ele>848.8</ele>
        <time>2021-10-03T11:40:19Z</time>
      </trkpt>
      <trkpt lat="42.4655900" lon="-5.9482620">
        <ele>847.6</ele>
        <time>2021-10-03T11:40:22Z</time>
      </trkpt>
      <trkpt lat="42.4655600" lon="-5.9484920">
        <ele>847.0</ele>
        <time>2021-10-03T11:40:25Z</time>
      </trkpt>
      <trkpt lat="42.4655290" lon="-5.9487180">
        <ele>846.4</ele>
        <time>2021-10-03T11:40:28Z</time>
      </trkpt>
      <trkpt lat="42.4654730" lon="-5.9490870">
        <ele>846.0</ele>
        <time>2021-10-03T11:40:33Z</time>
      </trkpt>
      <trkpt lat="42.4653630" lon="-5.9498100">
        <ele>846.2</ele>
        <time>2021-10-03T11:40:43Z</time>
      </trkpt>
      <trkpt lat="42.4653250" lon="-5.9500760">
        <ele>846.4</ele>
        <time>2021-10-03T11:40:47Z</time>
      </trkpt>
      <trkpt lat="42.4652830" lon="-5.9503430">
        <ele>847.0</ele>
        <time>2021-10-03T11:40:51Z</time>
      </trkpt>
      <trkpt lat="42.4652390" lon="-5.9506110">
        <ele>847.4</ele>
        <time>2021-10-03T11:40:55Z</time>
      </trkpt>
      <trkpt lat="42.4651670" lon="-5.9513120">
        <ele>847.8</ele>
        <time>2021-10-03T11:41:06Z</time>
      </trkpt>
      <trkpt lat="42.4651640" lon="-5.9515550">
        <ele>848.2</ele>
        <time>2021-10-03T11:41:10Z</time>
      </trkpt>
      <trkpt lat="42.4651630" lon="-5.9516170">
        <ele>848.4</ele>
        <time>2021-10-03T11:41:11Z</time>
      </trkpt>
      <trkpt lat="42.4651610" lon="-5.9517980">
        <ele>848.6</ele>
        <time>2021-10-03T11:41:14Z</time>
      </trkpt>
      <trkpt lat="42.4651590" lon="-5.9519780">
        <ele>849.4</ele>
        <time>2021-10-03T11:41:17Z</time>
      </trkpt>
      <trkpt lat="42.4651600" lon="-5.9522110">
        <ele>850.0</ele>
        <time>2021-10-03T11:41:21Z</time>
      </trkpt>
      <trkpt lat="42.4651570" lon="-5.9523830">
        <ele>850.4</ele>
        <time>2021-10-03T11:41:24Z</time>
      </trkpt>
      <trkpt lat="42.4651560" lon="-5.9526620">
        <ele>851.6</ele>
        <time>2021-10-03T11:41:29Z</time>
      </trkpt>
      <trkpt lat="42.4651500" lon="-5.9531660">
        <ele>852.6</ele>
        <time>2021-10-03T11:41:38Z</time>
      </trkpt>
      <trkpt lat="42.4651530" lon="-5.9534530">
        <ele>853.8</ele>
        <time>2021-10-03T11:41:43Z</time>
      </trkpt>
      <trkpt lat="42.4652400" lon="-5.9540200">
        <ele>854.8</ele>
        <time>2021-10-03T11:41:54Z</time>
      </trkpt>
      <trkpt lat="42.4653010" lon="-5.9542640">
        <ele>855.0</ele>
        <time>2021-10-03T11:41:59Z</time>
      </trkpt>
      <trkpt lat="42.4654800" lon="-5.9549680">
        <ele>855.4</ele>
        <time>2021-10-03T11:42:13Z</time>
      </trkpt>
      <trkpt lat="42.4655230" lon="-5.9551210">
        <ele>856.0</ele>
        <time>2021-10-03T11:42:16Z</time>
      </trkpt>
      <trkpt lat="42.4655820" lon="-5.9553220">
        <ele>856.8</ele>
        <time>2021-10-03T11:42:20Z</time>
      </trkpt>
      <trkpt lat="42.4656880" lon="-5.9557110">
        <ele>858.0</ele>
        <time>2021-10-03T11:42:28Z</time>
      </trkpt>
      <trkpt lat="42.4658200" lon="-5.9563080">
        <ele>859.0</ele>
        <time>2021-10-03T11:42:40Z</time>
      </trkpt>
      <trkpt lat="42.4658930" lon="-5.9567120">
        <ele>860.4</ele>
        <time>2021-10-03T11:42:48Z</time>
      </trkpt>
      <trkpt lat="42.4659120" lon="-5.9568130">
        <ele>861.4</ele>
        <time>2021-10-03T11:42:50Z</time>
      </trkpt>
      <trkpt lat="42.4659850" lon="-5.9572150">
        <ele>862.6</ele>
        <time>2021-10-03T11:42:58Z</time>
      </trkpt>
      <trkpt lat="42.4660510" lon="-5.9577280">
        <ele>863.8</ele>
        <time>2021-10-03T11:43:08Z</time>
      </trkpt>
      <trkpt lat="42.4660810" lon="-5.9578820">
        <ele>865.0</ele>
        <time>2021-10-03T11:43:11Z</time>
      </trkpt>
      <trkpt lat="42.4662630" lon="-5.9586220">
        <ele>865.8</ele>
        <time>2021-10-03T11:43:25Z</time>
      </trkpt>
      <trkpt lat="42.4663320" lon="-5.9588240">
        <ele>866.0</ele>
        <time>2021-10-03T11:43:29Z</time>
      </trkpt>
      <trkpt lat="42.4664800" lon="-5.9592630">
        <ele>867.0</ele>
        <time>2021-10-03T11:43:38Z</time>
      </trkpt>
      <trkpt lat="42.4665510" lon="-5.9596750">
        <ele>868.2</ele>
        <time>2021-10-03T11:43:46Z</time>
      </trkpt>
      <trkpt lat="42.4666140" lon="-5.9601480">
        <ele>869.2</ele>
        <time>2021-10-03T11:43:55Z</time>
      </trkpt>
      <trkpt lat="42.4666340" lon="-5.9603100">
        <ele>870.6</ele>
        <time>2021-10-03T11:43:58Z</time>
      </trkpt>
      <trkpt lat="42.4666680" lon="-5.9605820">
        <ele>871.6</ele>
        <time>2021-10-03T11:44:03Z</time>
      </trkpt>
      <trkpt lat="42.4667670" lon="-5.9613520">
        <ele>872.4</ele>
        <time>2021-10-03T11:44:17Z</time>
      </trkpt>
      <trkpt lat="42.4668030" lon="-5.9616180">
        <ele>872.8</ele>
        <time>2021-10-03T11:44:22Z</time>
      </trkpt>
      <trkpt lat="42.4669600" lon="-5.9622320">
        <ele>873.8</ele>
        <time>2021-10-03T11:44:34Z</time>
      </trkpt>
      <trkpt lat="42.4670420" lon="-5.9624210">
        <ele>874.8</ele>
        <time>2021-10-03T11:44:38Z</time>
      </trkpt>
      <trkpt lat="42.4671360" lon="-5.9627060">
        <ele>876.4</ele>
        <time>2021-10-03T11:44:44Z</time>
      </trkpt>
      <trkpt lat="42.4672010" lon="-5.9630370">
        <ele>877.6</ele>
        <time>2021-10-03T11:44:51Z</time>
      </trkpt>
      <trkpt lat="42.4672520" lon="-5.9632630">
        <ele>878.6</ele>
        <time>2021-10-03T11:44:56Z</time>
      </trkpt>
      <trkpt lat="42.4672620" lon="-5.9634030">
        <ele>879.8</ele>
        <time>2021-10-03T11:44:59Z</time>
      </trkpt>
      <trkpt lat="42.4673020" lon="-5.9638550">
        <ele>880.8</ele>
        <time>2021-10-03T11:45:09Z</time>
      </trkpt>
      <trkpt lat="42.4673130" lon="-5.9639430">
        <ele>881.4</ele>
        <time>2021-10-03T11:45:11Z</time>
      </trkpt>
      <trkpt lat="42.4673320" lon="-5.9641050">
        <ele>882.0</ele>
        <time>2021-10-03T11:45:15Z</time>
      </trkpt>
      <trkpt lat="42.4673200" lon="-5.9643110">
        <ele>883.0</ele>
        <time>2021-10-03T11:45:20Z</time>
      </trkpt>
      <trkpt lat="42.4673090" lon="-5.9644860">
        <ele>884.2</ele>
        <time>2021-10-03T11:45:24Z</time>
      </trkpt>
      <trkpt lat="42.4672820" lon="-5.9647130">
        <ele>885.6</ele>
        <time>2021-10-03T11:45:29Z</time>
      </trkpt>
      <trkpt lat="42.4672740" lon="-5.9650380">
        <ele>886.6</ele>
        <time>2021-10-03T11:45:36Z</time>
      </trkpt>
      <trkpt lat="42.4672940" lon="-5.9654400">
        <ele>887.6</ele>
        <time>2021-10-03T11:45:45Z</time>
      </trkpt>
      <trkpt lat="42.4673180" lon="-5.9657530">
        <ele>888.8</ele>
        <time>2021-10-03T11:45:52Z</time>
      </trkpt>
      <trkpt lat="42.4673470" lon="-5.9661010">
        <ele>890.0</ele>
        <time>2021-10-03T11:46:00Z</time>
      </trkpt>
      <trkpt lat="42.4674110" lon="-5.9663790">
        <ele>891.2</ele>
        <time>2021-10-03T11:46:07Z</time>
      </trkpt>
      <trkpt lat="42.4674660" lon="-5.9666100">
        <ele>892.2</ele>
        <time>2021-10-03T11:46:13Z</time>
      </trkpt>
      <trkpt lat="42.4674900" lon="-5.9667550">
        <ele>893.4</ele>
        <time>2021-10-03T11:46:17Z</time>
      </trkpt>
      <trkpt lat="42.4674970" lon="-5.9668620">
        <ele>894.4</ele>
        <time>2021-10-03T11:46:20Z</time>
      </trkpt>
      <trkpt lat="42.4675160" lon="-5.9670800">
        <ele>895.6</ele>
        <time>2021-10-03T11:46:26Z</time>
      </trkpt>
      <trkpt lat="42.4674440" lon="-5.9675060">
        <ele>896.6</ele>
        <time>2021-10-03T11:46:36Z</time>
      </trkpt>
      <trkpt lat="42.4674140" lon="-5.9676660">
        <ele>897.0</ele>
        <time>2021-10-03T11:46:39Z</time>
      </trkpt>
      <trkpt lat="42.4673860" lon="-5.9678910">
        <ele>897.4</ele>
        <time>2021-10-03T11:46:43Z</time>
      </trkpt>
      <trkpt lat="42.4673700" lon="-5.9680010">
        <ele>897.6</ele>
        <time>2021-10-03T11:46:45Z</time>
      </trkpt>
      <trkpt lat="42.4673350" lon="-5.9683930">
        <ele>897.4</ele>
        <time>2021-10-03T11:46:52Z</time>
      </trkpt>
      <trkpt lat="42.4673190" lon="-5.9685830">
        <ele>897.2</ele>
        <time>2021-10-03T11:46:55Z</time>
      </trkpt>
      <trkpt lat="42.4672910" lon="-5.9688200">
        <ele>896.8</ele>
        <time>2021-10-03T11:46:58Z</time>
      </trkpt>
      <trkpt lat="42.4672760" lon="-5.9689150">
        <ele>896.4</ele>
        <time>2021-10-03T11:46:59Z</time>
      </trkpt>
      <trkpt lat="42.4672020" lon="-5.9692360">
        <ele>894.8</ele>
        <time>2021-10-03T11:47:02Z</time>
      </trkpt>
      <trkpt lat="42.4671700" lon="-5.9693540">
        <ele>893.8</ele>
        <time>2021-10-03T11:47:03Z</time>
      </trkpt>
      <trkpt lat="42.4671470" lon="-5.9694750">
        <ele>893.2</ele>
        <time>2021-10-03T11:47:04Z</time>
      </trkpt>
      <trkpt lat="42.4671260" lon="-5.9697070">
        <ele>892.2</ele>
        <time>2021-10-03T11:47:06Z</time>
      </trkpt>
      <trkpt lat="42.4671150" lon="-5.9698170">
        <ele>890.8</ele>
        <time>2021-10-03T11:47:07Z</time>
      </trkpt>
      <trkpt lat="42.4670900" lon="-5.9700290">
        <ele>889.0</ele>
        <time>2021-10-03T11:47:09Z</time>
      </trkpt>
      <trkpt lat="42.4670690" lon="-5.9701230">
        <ele>887.0</ele>
        <time>2021-10-03T11:47:10Z</time>
      </trkpt>
      <trkpt lat="42.4670500" lon="-5.9702120">
        <ele>885.2</ele>
        <time>2021-10-03T11:47:11Z</time>
      </trkpt>
      <trkpt lat="42.4670340" lon="-5.9702980">
        <ele>884.2</ele>
        <time>2021-10-03T11:47:12Z</time>
      </trkpt>
      <trkpt lat="42.4670180" lon="-5.9703800">
        <ele>883.0</ele>
        <time>2021-10-03T11:47:13Z</time>
      </trkpt>
      <trkpt lat="42.4669630" lon="-5.9705920">
        <ele>882.6</ele>
        <time>2021-10-03T11:47:16Z</time>
      </trkpt>
      <trkpt lat="42.4668990" lon="-5.9707380">
        <ele>882.6</ele>
        <time>2021-10-03T11:47:19Z</time>
      </trkpt>
      <trkpt lat="42.4668490" lon="-5.9708470">
        <ele>883.0</ele>
        <time>2021-10-03T11:47:22Z</time>
      </trkpt>
      <trkpt lat="42.4668220" lon="-5.9709080">
        <ele>884.4</ele>
        <time>2021-10-03T11:47:24Z</time>
      </trkpt>
      <trkpt lat="42.4668100" lon="-5.9709360">
        <ele>885.6</ele>
        <time>2021-10-03T11:47:25Z</time>
      </trkpt>
      <trkpt lat="42.4667980" lon="-5.9709630">
        <ele>887.0</ele>
        <time>2021-10-03T11:47:26Z</time>
      </trkpt>
      <trkpt lat="42.4667850" lon="-5.9709890">
        <ele>888.0</ele>
        <time>2021-10-03T11:47:27Z</time>
      </trkpt>
      <trkpt lat="42.4667620" lon="-5.9710420">
        <ele>889.4</ele>
        <time>2021-10-03T11:47:29Z</time>
      </trkpt>
      <trkpt lat="42.4667410" lon="-5.9710970">
        <ele>890.6</ele>
        <time>2021-10-03T11:47:31Z</time>
      </trkpt>
      <trkpt lat="42.4667220" lon="-5.9711510">
        <ele>892.0</ele>
        <time>2021-10-03T11:47:33Z</time>
      </trkpt>
      <trkpt lat="42.4666910" lon="-5.9712270">
        <ele>893.0</ele>
        <time>2021-10-03T11:47:36Z</time>
      </trkpt>
      <trkpt lat="42.4666800" lon="-5.9712500">
        <ele>893.4</ele>
        <time>2021-10-03T11:47:37Z</time>
      </trkpt>
      <trkpt lat="42.4666600" lon="-5.9712990">
        <ele>894.4</ele>
        <time>2021-10-03T11:47:39Z</time>
      </trkpt>
      <trkpt lat="42.4666260" lon="-5.9713750">
        <ele>895.8</ele>
        <time>2021-10-03T11:47:42Z</time>
      </trkpt>
      <trkpt lat="42.4665510" lon="-5.9714960">
        <ele>897.0</ele>
        <time>2021-10-03T11:47:47Z</time>
      </trkpt>
      <trkpt lat="42.4664330" lon="-5.9716260">
        <ele>898.2</ele>
        <time>2021-10-03T11:47:53Z</time>
      </trkpt>
      <trkpt lat="42.4663130" lon="-5.9717990">
        <ele>899.4</ele>
        <time>2021-10-03T11:47:59Z</time>
      </trkpt>
      <trkpt lat="42.4661970" lon="-5.9720370">
        <ele>899.8</ele>
        <time>2021-10-03T11:48:05Z</time>
      </trkpt>
      <trkpt lat="42.4661570" lon="-5.9721590">
        <ele>899.8</ele>
        <time>2021-10-03T11:48:08Z</time>
      </trkpt>
      <trkpt lat="42.4661240" lon="-5.9723140">
        <ele>899.4</ele>
        <time>2021-10-03T11:48:12Z</time>
      </trkpt>
      <trkpt lat="42.4660720" lon="-5.9724830">
        <ele>899.0</ele>
        <time>2021-10-03T11:48:16Z</time>
      </trkpt>
      <trkpt lat="42.4659950" lon="-5.9726050">
        <ele>898.8</ele>
        <time>2021-10-03T11:48:20Z</time>
      </trkpt>
      <trkpt lat="42.4656890" lon="-5.9732140">
        <ele>898.8</ele>
        <time>2021-10-03T11:48:32Z</time>
      </trkpt>
      <trkpt lat="42.4655220" lon="-5.9735260">
        <ele>898.2</ele>
        <time>2021-10-03T11:48:37Z</time>
      </trkpt>
      <trkpt lat="42.4653450" lon="-5.9738220">
        <ele>897.8</ele>
        <time>2021-10-03T11:48:42Z</time>
      </trkpt>
      <trkpt lat="42.4653160" lon="-5.9738850">
        <ele>897.6</ele>
        <time>2021-10-03T11:48:43Z</time>
      </trkpt>
      <trkpt lat="42.4652610" lon="-5.9740150">
        <ele>897.2</ele>
        <time>2021-10-03T11:48:45Z</time>
      </trkpt>
      <trkpt lat="42.4651930" lon="-5.9741460">
        <ele>897.0</ele>
        <time>2021-10-03T11:48:47Z</time>
      </trkpt>
      <trkpt lat="42.4651100" lon="-5.9742980">
        <ele>896.6</ele>
        <time>2021-10-03T11:48:49Z</time>
      </trkpt>
      <trkpt lat="42.4649550" lon="-5.9745690">
        <ele>896.2</ele>
        <time>2021-10-03T11:48:52Z</time>
      </trkpt>
      <trkpt lat="42.4647570" lon="-5.9748820">
        <ele>895.6</ele>
        <time>2021-10-03T11:48:55Z</time>
      </trkpt>
      <trkpt lat="42.4646000" lon="-5.9750830">
        <ele>893.2</ele>
        <time>2021-10-03T11:48:57Z</time>
      </trkpt>
      <trkpt lat="42.4645120" lon="-5.9751770">
        <ele>891.8</ele>
        <time>2021-10-03T11:48:58Z</time>
      </trkpt>
      <trkpt lat="42.4644170" lon="-5.9752680">
        <ele>890.2</ele>
        <time>2021-10-03T11:48:59Z</time>
      </trkpt>
      <trkpt lat="42.4643170" lon="-5.9753530">
        <ele>889.0</ele>
        <time>2021-10-03T11:49:00Z</time>
      </trkpt>
      <trkpt lat="42.4641190" lon="-5.9755110">
        <ele>887.8</ele>
        <time>2021-10-03T11:49:02Z</time>
      </trkpt>
      <trkpt lat="42.4639170" lon="-5.9756540">
        <ele>885.8</ele>
        <time>2021-10-03T11:49:04Z</time>
      </trkpt>
      <trkpt lat="42.4638150" lon="-5.9757330">
        <ele>884.0</ele>
        <time>2021-10-03T11:49:05Z</time>
      </trkpt>
      <trkpt lat="42.4637140" lon="-5.9758250">
        <ele>882.0</ele>
        <time>2021-10-03T11:49:06Z</time>
      </trkpt>
      <trkpt lat="42.4636180" lon="-5.9759300">
        <ele>880.2</ele>
        <time>2021-10-03T11:49:07Z</time>
      </trkpt>
      <trkpt lat="42.4635290" lon="-5.9760480">
        <ele>878.8</ele>
        <time>2021-10-03T11:49:08Z</time>
      </trkpt>
      <trkpt lat="42.4634510" lon="-5.9761810">
        <ele>877.2</ele>
        <time>2021-10-03T11:49:09Z</time>
      </trkpt>
      <trkpt lat="42.4633850" lon="-5.9763270">
        <ele>875.4</ele>
        <time>2021-10-03T11:49:10Z</time>
      </trkpt>
      <trkpt lat="42.4633290" lon="-5.9764830">
        <ele>874.0</ele>
        <time>2021-10-03T11:49:11Z</time>
      </trkpt>
      <trkpt lat="42.4632760" lon="-5.9766420">
        <ele>872.4</ele>
        <time>2021-10-03T11:49:12Z</time>
      </trkpt>
      <trkpt lat="42.4632220" lon="-5.9767990">
        <ele>869.8</ele>
        <time>2021-10-03T11:49:13Z</time>
      </trkpt>
      <trkpt lat="42.4631680" lon="-5.9769540">
        <ele>868.2</ele>
        <time>2021-10-03T11:49:14Z</time>
      </trkpt>
      <trkpt lat="42.4630670" lon="-5.9772560">
        <ele>866.0</ele>
        <time>2021-10-03T11:49:16Z</time>
      </trkpt>
      <trkpt lat="42.4630280" lon="-5.9774000">
        <ele>864.8</ele>
        <time>2021-10-03T11:49:17Z</time>
      </trkpt>
      <trkpt lat="42.4629950" lon="-5.9775390">
        <ele>863.2</ele>
        <time>2021-10-03T11:49:18Z</time>
      </trkpt>
      <trkpt lat="42.4629620" lon="-5.9776650">
        <ele>861.8</ele>
        <time>2021-10-03T11:49:19Z</time>
      </trkpt>
      <trkpt lat="42.4629050" lon="-5.9778740">
        <ele>860.8</ele>
        <time>2021-10-03T11:49:21Z</time>
      </trkpt>
      <trkpt lat="42.4628740" lon="-5.9779600">
        <ele>860.6</ele>
        <time>2021-10-03T11:49:22Z</time>
      </trkpt>
      <trkpt lat="42.4628100" lon="-5.9781090">
        <ele>860.6</ele>
        <time>2021-10-03T11:49:24Z</time>
      </trkpt>
      <trkpt lat="42.4627580" lon="-5.9782440">
        <ele>860.6</ele>
        <time>2021-10-03T11:49:26Z</time>
      </trkpt>
      <trkpt lat="42.4627110" lon="-5.9783660">
        <ele>860.6</ele>
        <time>2021-10-03T11:49:28Z</time>
      </trkpt>
      <trkpt lat="42.4626600" lon="-5.9784700">
        <ele>862.4</ele>
        <time>2021-10-03T11:49:30Z</time>
      </trkpt>
      <trkpt lat="42.4626350" lon="-5.9785160">
        <ele>864.8</ele>
        <time>2021-10-03T11:49:31Z</time>
      </trkpt>
      <trkpt lat="42.4625870" lon="-5.9786020">
        <ele>867.2</ele>
        <time>2021-10-03T11:49:33Z</time>
      </trkpt>
      <trkpt lat="42.4625370" lon="-5.9786790">
        <ele>868.8</ele>
        <time>2021-10-03T11:49:35Z</time>
      </trkpt>
      <trkpt lat="42.4624920" lon="-5.9787550">
        <ele>869.8</ele>
        <time>2021-10-03T11:49:37Z</time>
      </trkpt>
      <trkpt lat="42.4624490" lon="-5.9788300">
        <ele>871.0</ele>
        <time>2021-10-03T11:49:39Z</time>
      </trkpt>
      <trkpt lat="42.4623890" lon="-5.9789230">
        <ele>871.8</ele>
        <time>2021-10-03T11:49:42Z</time>
      </trkpt>
      <trkpt lat="42.4623380" lon="-5.9790120">
        <ele>872.2</ele>
        <time>2021-10-03T11:49:45Z</time>
      </trkpt>
      <trkpt lat="42.4622360" lon="-5.9791740">
        <ele>873.4</ele>
        <time>2021-10-03T11:49:51Z</time>
      </trkpt>
      <trkpt lat="42.4621890" lon="-5.9792630">
        <ele>874.6</ele>
        <time>2021-10-03T11:49:54Z</time>
      </trkpt>
      <trkpt lat="42.4621570" lon="-5.9793240">
        <ele>876.0</ele>
        <time>2021-10-03T11:49:56Z</time>
      </trkpt>
      <trkpt lat="42.4620920" lon="-5.9794400">
        <ele>877.4</ele>
        <time>2021-10-03T11:50:00Z</time>
      </trkpt>
      <trkpt lat="42.4620140" lon="-5.9795840">
        <ele>878.4</ele>
        <time>2021-10-03T11:50:05Z</time>
      </trkpt>
      <trkpt lat="42.4619160" lon="-5.9797700">
        <ele>879.6</ele>
        <time>2021-10-03T11:50:11Z</time>
      </trkpt>
      <trkpt lat="42.4616830" lon="-5.9800900">
        <ele>880.6</ele>
        <time>2021-10-03T11:50:23Z</time>
      </trkpt>
      <trkpt lat="42.4616060" lon="-5.9802180">
        <ele>882.0</ele>
        <time>2021-10-03T11:50:27Z</time>
      </trkpt>
      <trkpt lat="42.4615220" lon="-5.9803850">
        <ele>883.2</ele>
        <time>2021-10-03T11:50:32Z</time>
      </trkpt>
      <trkpt lat="42.4614550" lon="-5.9804690">
        <ele>884.2</ele>
        <time>2021-10-03T11:50:35Z</time>
      </trkpt>
      <trkpt lat="42.4613550" lon="-5.9806080">
        <ele>885.6</ele>
        <time>2021-10-03T11:50:40Z</time>
      </trkpt>
      <trkpt lat="42.4612610" lon="-5.9807800">
        <ele>886.6</ele>
        <time>2021-10-03T11:50:46Z</time>
      </trkpt>
      <trkpt lat="42.4611980" lon="-5.9808930">
        <ele>887.6</ele>
        <time>2021-10-03T11:50:50Z</time>
      </trkpt>
      <trkpt lat="42.4610980" lon="-5.9810720">
        <ele>888.8</ele>
        <time>2021-10-03T11:50:57Z</time>
      </trkpt>
      <trkpt lat="42.4610450" lon="-5.9811710">
        <ele>890.0</ele>
        <time>2021-10-03T11:51:01Z</time>
      </trkpt>
      <trkpt lat="42.4609920" lon="-5.9812750">
        <ele>891.0</ele>
        <time>2021-10-03T11:51:05Z</time>
      </trkpt>
      <trkpt lat="42.4609610" lon="-5.9813900">
        <ele>892.2</ele>
        <time>2021-10-03T11:51:09Z</time>
      </trkpt>
      <trkpt lat="42.4609330" lon="-5.9815440">
        <ele>893.4</ele>
        <time>2021-10-03T11:51:14Z</time>
      </trkpt>
      <trkpt lat="42.4608870" lon="-5.9816980">
        <ele>894.4</ele>
        <time>2021-10-03T11:51:19Z</time>
      </trkpt>
      <trkpt lat="42.4608670" lon="-5.9817960">
        <ele>895.4</ele>
        <time>2021-10-03T11:51:22Z</time>
      </trkpt>
      <trkpt lat="42.4608460" lon="-5.9818940">
        <ele>896.6</ele>
        <time>2021-10-03T11:51:25Z</time>
      </trkpt>
      <trkpt lat="42.4608160" lon="-5.9819920">
        <ele>897.6</ele>
        <time>2021-10-03T11:51:28Z</time>
      </trkpt>
      <trkpt lat="42.4606370" lon="-5.9826470">
        <ele>897.4</ele>
        <time>2021-10-03T11:51:43Z</time>
      </trkpt>
      <trkpt lat="42.4605250" lon="-5.9831170">
        <ele>896.8</ele>
        <time>2021-10-03T11:51:52Z</time>
      </trkpt>
      <trkpt lat="42.4604870" lon="-5.9833270">
        <ele>897.0</ele>
        <time>2021-10-03T11:51:56Z</time>
      </trkpt>
      <trkpt lat="42.4604560" lon="-5.9834810">
        <ele>897.0</ele>
        <time>2021-10-03T11:51:59Z</time>
      </trkpt>
      <trkpt lat="42.4603850" lon="-5.9836720">
        <ele>897.0</ele>
        <time>2021-10-03T11:52:03Z</time>
      </trkpt>
      <trkpt lat="42.4603340" lon="-5.9839190">
        <ele>897.0</ele>
        <time>2021-10-03T11:52:08Z</time>
      </trkpt>
      <trkpt lat="42.4602990" lon="-5.9840960">
        <ele>897.2</ele>
        <time>2021-10-03T11:52:12Z</time>
      </trkpt>
      <trkpt lat="42.4602290" lon="-5.9845040">
        <ele>896.6</ele>
        <time>2021-10-03T11:52:19Z</time>
      </trkpt>
      <trkpt lat="42.4601940" lon="-5.9846960">
        <ele>896.4</ele>
        <time>2021-10-03T11:52:22Z</time>
      </trkpt>
      <trkpt lat="42.4601790" lon="-5.9847570">
        <ele>896.4</ele>
        <time>2021-10-03T11:52:23Z</time>
      </trkpt>
      <trkpt lat="42.4600730" lon="-5.9851130">
        <ele>896.8</ele>
        <time>2021-10-03T11:52:29Z</time>
      </trkpt>
      <trkpt lat="42.4598960" lon="-5.9858060">
        <ele>897.2</ele>
        <time>2021-10-03T11:52:41Z</time>
      </trkpt>
      <trkpt lat="42.4597740" lon="-5.9865400">
        <ele>896.2</ele>
        <time>2021-10-03T11:52:51Z</time>
      </trkpt>
      <trkpt lat="42.4597550" lon="-5.9867700">
        <ele>895.8</ele>
        <time>2021-10-03T11:52:54Z</time>
      </trkpt>
      <trkpt lat="42.4596790" lon="-5.9872220">
        <ele>895.4</ele>
        <time>2021-10-03T11:53:00Z</time>
      </trkpt>
      <trkpt lat="42.4596500" lon="-5.9873700">
        <ele>895.4</ele>
        <time>2021-10-03T11:53:02Z</time>
      </trkpt>
      <trkpt lat="42.4596180" lon="-5.9875230">
        <ele>895.4</ele>
        <time>2021-10-03T11:53:04Z</time>
      </trkpt>
      <trkpt lat="42.4595700" lon="-5.9878420">
        <ele>895.2</ele>
        <time>2021-10-03T11:53:08Z</time>
      </trkpt>
      <trkpt lat="42.4595360" lon="-5.9879960">
        <ele>894.8</ele>
        <time>2021-10-03T11:53:10Z</time>
      </trkpt>
      <trkpt lat="42.4594430" lon="-5.9886240">
        <ele>895.0</ele>
        <time>2021-10-03T11:53:18Z</time>
      </trkpt>
      <trkpt lat="42.4593760" lon="-5.9888400">
        <ele>895.0</ele>
        <time>2021-10-03T11:53:21Z</time>
      </trkpt>
      <trkpt lat="42.4593540" lon="-5.9891310">
        <ele>894.4</ele>
        <time>2021-10-03T11:53:25Z</time>
      </trkpt>
      <trkpt lat="42.4593380" lon="-5.9892700">
        <ele>894.2</ele>
        <time>2021-10-03T11:53:27Z</time>
      </trkpt>
      <trkpt lat="42.4593260" lon="-5.9893370">
        <ele>894.2</ele>
        <time>2021-10-03T11:53:28Z</time>
      </trkpt>
      <trkpt lat="42.4592930" lon="-5.9894700">
        <ele>893.8</ele>
        <time>2021-10-03T11:53:30Z</time>
      </trkpt>
      <trkpt lat="42.4592150" lon="-5.9899180">
        <ele>893.8</ele>
        <time>2021-10-03T11:53:36Z</time>
      </trkpt>
      <trkpt lat="42.4591990" lon="-5.9900760">
        <ele>894.0</ele>
        <time>2021-10-03T11:53:38Z</time>
      </trkpt>
      <trkpt lat="42.4590650" lon="-5.9908040">
        <ele>895.0</ele>
        <time>2021-10-03T11:53:47Z</time>
      </trkpt>
      <trkpt lat="42.4590340" lon="-5.9909680">
        <ele>895.4</ele>
        <time>2021-10-03T11:53:49Z</time>
      </trkpt>
      <trkpt lat="42.4589220" lon="-5.9916920">
        <ele>896.2</ele>
        <time>2021-10-03T11:53:58Z</time>
      </trkpt>
      <trkpt lat="42.4588480" lon="-5.9919830">
        <ele>896.2</ele>
        <time>2021-10-03T11:54:02Z</time>
      </trkpt>
      <trkpt lat="42.4584660" lon="-5.9925250">
        <ele>896.4</ele>
        <time>2021-10-03T11:54:12Z</time>
      </trkpt>
      <trkpt lat="42.4582510" lon="-5.9927800">
        <ele>897.4</ele>
        <time>2021-10-03T11:54:17Z</time>
      </trkpt>
      <trkpt lat="42.4578500" lon="-5.9932820">
        <ele>898.0</ele>
        <time>2021-10-03T11:54:26Z</time>
      </trkpt>
      <trkpt lat="42.4574270" lon="-5.9938210">
        <ele>896.4</ele>
        <time>2021-10-03T11:54:35Z</time>
      </trkpt>
      <trkpt lat="42.4571820" lon="-5.9941260">
        <ele>895.4</ele>
        <time>2021-10-03T11:54:40Z</time>
      </trkpt>
      <trkpt lat="42.4570890" lon="-5.9942470">
        <ele>895.2</ele>
        <time>2021-10-03T11:54:42Z</time>
      </trkpt>
      <trkpt lat="42.4566590" lon="-5.9947800">
        <ele>895.2</ele>
        <time>2021-10-03T11:54:51Z</time>
      </trkpt>
      <trkpt lat="42.4564260" lon="-5.9950840">
        <ele>895.2</ele>
        <time>2021-10-03T11:54:56Z</time>
      </trkpt>
      <trkpt lat="42.4563260" lon="-5.9951960">
        <ele>895.4</ele>
        <time>2021-10-03T11:54:58Z</time>
      </trkpt>
      <trkpt lat="42.4560490" lon="-5.9956660">
        <ele>895.2</ele>
        <time>2021-10-03T11:55:05Z</time>
      </trkpt>
      <trkpt lat="42.4556730" lon="-5.9962490">
        <ele>894.4</ele>
        <time>2021-10-03T11:55:14Z</time>
      </trkpt>
      <trkpt lat="42.4553090" lon="-5.9968350">
        <ele>894.4</ele>
        <time>2021-10-03T11:55:23Z</time>
      </trkpt>
      <trkpt lat="42.4550880" lon="-5.9972250">
        <ele>894.4</ele>
        <time>2021-10-03T11:55:29Z</time>
      </trkpt>
      <trkpt lat="42.4549020" lon="-5.9975070">
        <ele>894.4</ele>
        <time>2021-10-03T11:55:34Z</time>
      </trkpt>
      <trkpt lat="42.4547540" lon="-5.9977880">
        <ele>894.6</ele>
        <time>2021-10-03T11:55:39Z</time>
      </trkpt>
      <trkpt lat="42.4543950" lon="-5.9983980">
        <ele>895.2</ele>
        <time>2021-10-03T11:55:49Z</time>
      </trkpt>
      <trkpt lat="42.4541430" lon="-5.9988200">
        <ele>894.2</ele>
        <time>2021-10-03T11:55:56Z</time>
      </trkpt>
      <trkpt lat="42.4540090" lon="-5.9990830">
        <ele>893.6</ele>
        <time>2021-10-03T11:56:00Z</time>
      </trkpt>
      <trkpt lat="42.4538920" lon="-5.9997180">
        <ele>893.6</ele>
        <time>2021-10-03T11:56:09Z</time>
      </trkpt>
      <trkpt lat="42.4538950" lon="-5.9999970">
        <ele>893.2</ele>
        <time>2021-10-03T11:56:13Z</time>
      </trkpt>
      <trkpt lat="42.4539590" lon="-6.0004650">
        <ele>891.4</ele>
        <time>2021-10-03T11:56:19Z</time>
      </trkpt>
      <trkpt lat="42.4539970" lon="-6.0007140">
        <ele>890.2</ele>
        <time>2021-10-03T11:56:22Z</time>
      </trkpt>
      <trkpt lat="42.4540150" lon="-6.0008000">
        <ele>889.6</ele>
        <time>2021-10-03T11:56:23Z</time>
      </trkpt>
      <trkpt lat="42.4540710" lon="-6.0009800">
        <ele>888.8</ele>
        <time>2021-10-03T11:56:25Z</time>
      </trkpt>
      <trkpt lat="42.4542130" lon="-6.0014090">
        <ele>888.2</ele>
        <time>2021-10-03T11:56:29Z</time>
      </trkpt>
      <trkpt lat="42.4542750" lon="-6.0016840">
        <ele>887.6</ele>
        <time>2021-10-03T11:56:31Z</time>
      </trkpt>
      <trkpt lat="42.4542970" lon="-6.0018380">
        <ele>885.2</ele>
        <time>2021-10-03T11:56:32Z</time>
      </trkpt>
      <trkpt lat="42.4543180" lon="-6.0020000">
        <ele>882.6</ele>
        <time>2021-10-03T11:56:33Z</time>
      </trkpt>
      <trkpt lat="42.4543450" lon="-6.0021660">
        <ele>880.4</ele>
        <time>2021-10-03T11:56:34Z</time>
      </trkpt>
      <trkpt lat="42.4543770" lon="-6.0023350">
        <ele>878.8</ele>
        <time>2021-10-03T11:56:35Z</time>
      </trkpt>
      <trkpt lat="42.4544130" lon="-6.0025060">
        <ele>877.2</ele>
        <time>2021-10-03T11:56:36Z</time>
      </trkpt>
      <trkpt lat="42.4544890" lon="-6.0028670">
        <ele>874.8</ele>
        <time>2021-10-03T11:56:38Z</time>
      </trkpt>
      <trkpt lat="42.4545200" lon="-6.0030560">
        <ele>873.0</ele>
        <time>2021-10-03T11:56:39Z</time>
      </trkpt>
      <trkpt lat="42.4545410" lon="-6.0032470">
        <ele>870.0</ele>
        <time>2021-10-03T11:56:40Z</time>
      </trkpt>
      <trkpt lat="42.4545500" lon="-6.0034410">
        <ele>867.4</ele>
        <time>2021-10-03T11:56:41Z</time>
      </trkpt>
      <trkpt lat="42.4545470" lon="-6.0036370">
        <ele>864.0</ele>
        <time>2021-10-03T11:56:42Z</time>
      </trkpt>
      <trkpt lat="42.4545360" lon="-6.0038330">
        <ele>860.4</ele>
        <time>2021-10-03T11:56:43Z</time>
      </trkpt>
      <trkpt lat="42.4545220" lon="-6.0040300">
        <ele>858.4</ele>
        <time>2021-10-03T11:56:44Z</time>
      </trkpt>
      <trkpt lat="42.4545030" lon="-6.0042280">
        <ele>855.6</ele>
        <time>2021-10-03T11:56:45Z</time>
      </trkpt>
      <trkpt lat="42.4544810" lon="-6.0044270">
        <ele>851.4</ele>
        <time>2021-10-03T11:56:46Z</time>
      </trkpt>
      <trkpt lat="42.4544580" lon="-6.0046250">
        <ele>847.4</ele>
        <time>2021-10-03T11:56:47Z</time>
      </trkpt>
      <trkpt lat="42.4544350" lon="-6.0048210">
        <ele>845.2</ele>
        <time>2021-10-03T11:56:48Z</time>
      </trkpt>
      <trkpt lat="42.4544130" lon="-6.0050050">
        <ele>844.0</ele>
        <time>2021-10-03T11:56:49Z</time>
      </trkpt>
      <trkpt lat="42.4543740" lon="-6.0053250">
        <ele>842.6</ele>
        <time>2021-10-03T11:56:51Z</time>
      </trkpt>
      <trkpt lat="42.4543270" lon="-6.0057220">
        <ele>841.4</ele>
        <time>2021-10-03T11:56:54Z</time>
      </trkpt>
      <trkpt lat="42.4543220" lon="-6.0058390">
        <ele>841.2</ele>
        <time>2021-10-03T11:56:55Z</time>
      </trkpt>
      <trkpt lat="42.4543290" lon="-6.0060690">
        <ele>840.0</ele>
        <time>2021-10-03T11:56:57Z</time>
      </trkpt>
      <trkpt lat="42.4543560" lon="-6.0067680">
        <ele>839.0</ele>
        <time>2021-10-03T11:57:03Z</time>
      </trkpt>
      <trkpt lat="42.4543660" lon="-6.0073610">
        <ele>838.2</ele>
        <time>2021-10-03T11:57:08Z</time>
      </trkpt>
      <trkpt lat="42.4543440" lon="-6.0078320">
        <ele>837.8</ele>
        <time>2021-10-03T11:57:12Z</time>
      </trkpt>
      <trkpt lat="42.4543440" lon="-6.0081980">
        <ele>837.2</ele>
        <time>2021-10-03T11:57:15Z</time>
      </trkpt>
      <trkpt lat="42.4543440" lon="-6.0085580">
        <ele>836.4</ele>
        <time>2021-10-03T11:57:18Z</time>
      </trkpt>
      <trkpt lat="42.4543420" lon="-6.0087930">
        <ele>834.8</ele>
        <time>2021-10-03T11:57:20Z</time>
      </trkpt>
      <trkpt lat="42.4543380" lon="-6.0091400">
        <ele>833.8</ele>
        <time>2021-10-03T11:57:23Z</time>
      </trkpt>
      <trkpt lat="42.4543330" lon="-6.0094830">
        <ele>833.4</ele>
        <time>2021-10-03T11:57:26Z</time>
      </trkpt>
      <trkpt lat="42.4543190" lon="-6.0102430">
        <ele>833.0</ele>
        <time>2021-10-03T11:57:33Z</time>
      </trkpt>
      <trkpt lat="42.4543110" lon="-6.0105420">
        <ele>832.6</ele>
        <time>2021-10-03T11:57:36Z</time>
      </trkpt>
      <trkpt lat="42.4543050" lon="-6.0109180">
        <ele>832.0</ele>
        <time>2021-10-03T11:57:40Z</time>
      </trkpt>
      <trkpt lat="42.4543070" lon="-6.0111110">
        <ele>831.4</ele>
        <time>2021-10-03T11:57:42Z</time>
      </trkpt>
      <trkpt lat="42.4542930" lon="-6.0119150">
        <ele>831.0</ele>
        <time>2021-10-03T11:57:50Z</time>
      </trkpt>
      <trkpt lat="42.4542870" lon="-6.0122150">
        <ele>830.6</ele>
        <time>2021-10-03T11:57:53Z</time>
      </trkpt>
      <trkpt lat="42.4542780" lon="-6.0125100">
        <ele>830.4</ele>
        <time>2021-10-03T11:57:56Z</time>
      </trkpt>
      <trkpt lat="42.4542530" lon="-6.0130600">
        <ele>829.0</ele>
        <time>2021-10-03T11:58:02Z</time>
      </trkpt>
      <trkpt lat="42.4542350" lon="-6.0136910">
        <ele>828.0</ele>
        <time>2021-10-03T11:58:09Z</time>
      </trkpt>
      <trkpt lat="42.4542270" lon="-6.0141330">
        <ele>827.2</ele>
        <time>2021-10-03T11:58:14Z</time>
      </trkpt>
      <trkpt lat="42.4542230" lon="-6.0143080">
        <ele>826.8</ele>
        <time>2021-10-03T11:58:16Z</time>
      </trkpt>
      <trkpt lat="42.4542420" lon="-6.0150990">
        <ele>825.8</ele>
        <time>2021-10-03T11:58:25Z</time>
      </trkpt>
      <trkpt lat="42.4543260" lon="-6.0158140">
        <ele>824.6</ele>
        <time>2021-10-03T11:58:33Z</time>
      </trkpt>
      <trkpt lat="42.4543650" lon="-6.0165070">
        <ele>823.8</ele>
        <time>2021-10-03T11:58:41Z</time>
      </trkpt>
      <trkpt lat="42.4543690" lon="-6.0170150">
        <ele>823.4</ele>
        <time>2021-10-03T11:58:47Z</time>
      </trkpt>
      <trkpt lat="42.4544020" lon="-6.0177560">
        <ele>823.0</ele>
        <time>2021-10-03T11:58:55Z</time>
      </trkpt>
      <trkpt lat="42.4544190" lon="-6.0180520">
        <ele>821.8</ele>
        <time>2021-10-03T11:58:58Z</time>
      </trkpt>
      <trkpt lat="42.4544240" lon="-6.0181530">
        <ele>820.8</ele>
        <time>2021-10-03T11:58:59Z</time>
      </trkpt>
      <trkpt lat="42.4544380" lon="-6.0183570">
        <ele>819.4</ele>
        <time>2021-10-03T11:59:01Z</time>
      </trkpt>
      <trkpt lat="42.4544570" lon="-6.0186600">
        <ele>818.0</ele>
        <time>2021-10-03T11:59:04Z</time>
      </trkpt>
      <trkpt lat="42.4544740" lon="-6.0190520">
        <ele>816.4</ele>
        <time>2021-10-03T11:59:08Z</time>
      </trkpt>
      <trkpt lat="42.4544900" lon="-6.0192430">
        <ele>814.8</ele>
        <time>2021-10-03T11:59:10Z</time>
      </trkpt>
      <trkpt lat="42.4545090" lon="-6.0195030">
        <ele>813.8</ele>
        <time>2021-10-03T11:59:13Z</time>
      </trkpt>
      <trkpt lat="42.4545200" lon="-6.0196660">
        <ele>813.4</ele>
        <time>2021-10-03T11:59:15Z</time>
      </trkpt>
      <trkpt lat="42.4545320" lon="-6.0199780">
        <ele>813.4</ele>
        <time>2021-10-03T11:59:19Z</time>
      </trkpt>
      <trkpt lat="42.4545460" lon="-6.0202130">
        <ele>813.8</ele>
        <time>2021-10-03T11:59:22Z</time>
      </trkpt>
      <trkpt lat="42.4545580" lon="-6.0204560">
        <ele>814.8</ele>
        <time>2021-10-03T11:59:25Z</time>
      </trkpt>
      <trkpt lat="42.4545630" lon="-6.0205400">
        <ele>815.2</ele>
        <time>2021-10-03T11:59:26Z</time>
      </trkpt>
      <trkpt lat="42.4545750" lon="-6.0207910">
        <ele>815.8</ele>
        <time>2021-10-03T11:59:29Z</time>
      </trkpt>
      <trkpt lat="42.4545930" lon="-6.0211120">
        <ele>816.2</ele>
        <time>2021-10-03T11:59:33Z</time>
      </trkpt>
      <trkpt lat="42.4546280" lon="-6.0216420">
        <ele>816.6</ele>
        <time>2021-10-03T11:59:40Z</time>
      </trkpt>
      <trkpt lat="42.4546440" lon="-6.0219430">
        <ele>816.8</ele>
        <time>2021-10-03T11:59:44Z</time>
      </trkpt>
      <trkpt lat="42.4546490" lon="-6.0221680">
        <ele>817.0</ele>
        <time>2021-10-03T11:59:47Z</time>
      </trkpt>
      <trkpt lat="42.4546410" lon="-6.0224510">
        <ele>817.4</ele>
        <time>2021-10-03T11:59:51Z</time>
      </trkpt>
      <trkpt lat="42.4546060" lon="-6.0226580">
        <ele>818.4</ele>
        <time>2021-10-03T11:59:54Z</time>
      </trkpt>
      <trkpt lat="42.4545830" lon="-6.0227220">
        <ele>818.6</ele>
        <time>2021-10-03T11:59:55Z</time>
      </trkpt>
      <trkpt lat="42.4544760" lon="-6.0228920">
        <ele>819.0</ele>
        <time>2021-10-03T11:59:58Z</time>
      </trkpt>
      <trkpt lat="42.4543910" lon="-6.0229930">
        <ele>819.8</ele>
        <time>2021-10-03T12:00:00Z</time>
      </trkpt>
      <trkpt lat="42.4542570" lon="-6.0231420">
        <ele>820.8</ele>
        <time>2021-10-03T12:00:03Z</time>
      </trkpt>
      <trkpt lat="42.4539800" lon="-6.0234130">
        <ele>821.6</ele>
        <time>2021-10-03T12:00:09Z</time>
      </trkpt>
      <trkpt lat="42.4538740" lon="-6.0235940">
        <ele>821.6</ele>
        <time>2021-10-03T12:00:12Z</time>
      </trkpt>
      <trkpt lat="42.4538340" lon="-6.0237410">
        <ele>821.6</ele>
        <time>2021-10-03T12:00:14Z</time>
      </trkpt>
      <trkpt lat="42.4538260" lon="-6.0239830">
        <ele>821.6</ele>
        <time>2021-10-03T12:00:17Z</time>
      </trkpt>
      <trkpt lat="42.4538300" lon="-6.0240660">
        <ele>821.6</ele>
        <time>2021-10-03T12:00:18Z</time>
      </trkpt>
      <trkpt lat="42.4538430" lon="-6.0244090">
        <ele>820.4</ele>
        <time>2021-10-03T12:00:22Z</time>
      </trkpt>
      <trkpt lat="42.4538730" lon="-6.0249450">
        <ele>819.8</ele>
        <time>2021-10-03T12:00:28Z</time>
      </trkpt>
      <trkpt lat="42.4539020" lon="-6.0255760">
        <ele>818.6</ele>
        <time>2021-10-03T12:00:35Z</time>
      </trkpt>
      <trkpt lat="42.4539360" lon="-6.0263190">
        <ele>818.0</ele>
        <time>2021-10-03T12:00:43Z</time>
      </trkpt>
      <trkpt lat="42.4539590" lon="-6.0269810">
        <ele>817.6</ele>
        <time>2021-10-03T12:00:50Z</time>
      </trkpt>
      <trkpt lat="42.4539680" lon="-6.0271700">
        <ele>817.2</ele>
        <time>2021-10-03T12:00:52Z</time>
      </trkpt>
      <trkpt lat="42.4539890" lon="-6.0276300">
        <ele>816.6</ele>
        <time>2021-10-03T12:00:57Z</time>
      </trkpt>
      <trkpt lat="42.4540250" lon="-6.0284300">
        <ele>816.2</ele>
        <time>2021-10-03T12:01:06Z</time>
      </trkpt>
      <trkpt lat="42.4540460" lon="-6.0288770">
        <ele>816.0</ele>
        <time>2021-10-03T12:01:11Z</time>
      </trkpt>
      <trkpt lat="42.4540740" lon="-6.0295780">
        <ele>815.8</ele>
        <time>2021-10-03T12:01:19Z</time>
      </trkpt>
      <trkpt lat="42.4541060" lon="-6.0303530">
        <ele>815.8</ele>
        <time>2021-10-03T12:01:28Z</time>
      </trkpt>
      <trkpt lat="42.4541100" lon="-6.0304360">
        <ele>815.6</ele>
        <time>2021-10-03T12:01:29Z</time>
      </trkpt>
      <trkpt lat="42.4541410" lon="-6.0311890">
        <ele>816.4</ele>
        <time>2021-10-03T12:01:38Z</time>
      </trkpt>
      <trkpt lat="42.4541700" lon="-6.0319230">
        <ele>816.4</ele>
        <time>2021-10-03T12:01:47Z</time>
      </trkpt>
      <trkpt lat="42.4542020" lon="-6.0326540">
        <ele>816.2</ele>
        <time>2021-10-03T12:01:56Z</time>
      </trkpt>
      <trkpt lat="42.4542290" lon="-6.0332350">
        <ele>816.2</ele>
        <time>2021-10-03T12:02:03Z</time>
      </trkpt>
      <trkpt lat="42.4542500" lon="-6.0337820">
        <ele>815.6</ele>
        <time>2021-10-03T12:02:10Z</time>
      </trkpt>
      <trkpt lat="42.4542930" lon="-6.0342470">
        <ele>815.4</ele>
        <time>2021-10-03T12:02:16Z</time>
      </trkpt>
      <trkpt lat="42.4543000" lon="-6.0343260">
        <ele>815.4</ele>
        <time>2021-10-03T12:02:17Z</time>
      </trkpt>
      <trkpt lat="42.4542990" lon="-6.0348700">
        <ele>815.6</ele>
        <time>2021-10-03T12:02:24Z</time>
      </trkpt>
      <trkpt lat="42.4543260" lon="-6.0354340">
        <ele>816.0</ele>
        <time>2021-10-03T12:02:31Z</time>
      </trkpt>
      <trkpt lat="42.4543340" lon="-6.0356820">
        <ele>816.2</ele>
        <time>2021-10-03T12:02:34Z</time>
      </trkpt>
      <trkpt lat="42.4543640" lon="-6.0364670">
        <ele>816.2</ele>
        <time>2021-10-03T12:02:44Z</time>
      </trkpt>
      <trkpt lat="42.4543770" lon="-6.0368520">
        <ele>816.4</ele>
        <time>2021-10-03T12:02:49Z</time>
      </trkpt>
      <trkpt lat="42.4543790" lon="-6.0370090">
        <ele>816.4</ele>
        <time>2021-10-03T12:02:51Z</time>
      </trkpt>
      <trkpt lat="42.4543980" lon="-6.0373220">
        <ele>817.4</ele>
        <time>2021-10-03T12:02:55Z</time>
      </trkpt>
      <trkpt lat="42.4544050" lon="-6.0375500">
        <ele>817.6</ele>
        <time>2021-10-03T12:02:58Z</time>
      </trkpt>
      <trkpt lat="42.4544220" lon="-6.0379240">
        <ele>817.8</ele>
        <time>2021-10-03T12:03:03Z</time>
      </trkpt>
      <trkpt lat="42.4544600" lon="-6.0386760">
        <ele>817.6</ele>
        <time>2021-10-03T12:03:13Z</time>
      </trkpt>
      <trkpt lat="42.4545840" lon="-6.0393590">
        <ele>817.4</ele>
        <time>2021-10-03T12:03:23Z</time>
      </trkpt>
      <trkpt lat="42.4545970" lon="-6.0394200">
        <ele>817.4</ele>
        <time>2021-10-03T12:03:24Z</time>
      </trkpt>
      <trkpt lat="42.4545740" lon="-6.0397190">
        <ele>817.4</ele>
        <time>2021-10-03T12:03:29Z</time>
      </trkpt>
      <trkpt lat="42.4545270" lon="-6.0399700">
        <ele>817.6</ele>
        <time>2021-10-03T12:03:33Z</time>
      </trkpt>
      <trkpt lat="42.4545240" lon="-6.0407270">
        <ele>817.6</ele>
        <time>2021-10-03T12:03:44Z</time>
      </trkpt>
      <trkpt lat="42.4545540" lon="-6.0414920">
        <ele>817.2</ele>
        <time>2021-10-03T12:03:55Z</time>
      </trkpt>
      <trkpt lat="42.4545570" lon="-6.0417160">
        <ele>817.2</ele>
        <time>2021-10-03T12:03:58Z</time>
      </trkpt>
      <trkpt lat="42.4546010" lon="-6.0424790">
        <ele>818.0</ele>
        <time>2021-10-03T12:04:08Z</time>
      </trkpt>
      <trkpt lat="42.4546170" lon="-6.0429240">
        <ele>818.0</ele>
        <time>2021-10-03T12:04:14Z</time>
      </trkpt>
      <trkpt lat="42.4546410" lon="-6.0434580">
        <ele>818.0</ele>
        <time>2021-10-03T12:04:21Z</time>
      </trkpt>
      <trkpt lat="42.4546810" lon="-6.0441920">
        <ele>818.4</ele>
        <time>2021-10-03T12:04:31Z</time>
      </trkpt>
      <trkpt lat="42.4546910" lon="-6.0443890">
        <ele>818.4</ele>
        <time>2021-10-03T12:04:34Z</time>
      </trkpt>
      <trkpt lat="42.4546930" lon="-6.0445120">
        <ele>818.8</ele>
        <time>2021-10-03T12:04:36Z</time>
      </trkpt>
      <trkpt lat="42.4546970" lon="-6.0446220">
        <ele>819.0</ele>
        <time>2021-10-03T12:04:38Z</time>
      </trkpt>
      <trkpt lat="42.4546770" lon="-6.0447070">
        <ele>819.2</ele>
        <time>2021-10-03T12:04:40Z</time>
      </trkpt>
      <trkpt lat="42.4546320" lon="-6.0447050">
        <ele>819.4</ele>
        <time>2021-10-03T12:04:42Z</time>
      </trkpt>
      <trkpt lat="42.4545870" lon="-6.0446630">
        <ele>819.4</ele>
        <time>2021-10-03T12:04:44Z</time>
      </trkpt>
      <trkpt lat="42.4545080" lon="-6.0445940">
        <ele>819.8</ele>
        <time>2021-10-03T12:04:47Z</time>
      </trkpt>
      <trkpt lat="42.4544660" lon="-6.0445450">
        <ele>820.4</ele>
        <time>2021-10-03T12:04:49Z</time>
      </trkpt>
      <trkpt lat="42.4544600" lon="-6.0445240">
        <ele>820.8</ele>
        <time>2021-10-03T12:04:50Z</time>
      </trkpt>
      <trkpt lat="42.4544740" lon="-6.0445020">
        <ele>821.4</ele>
        <time>2021-10-03T12:04:52Z</time>
      </trkpt>
      <trkpt lat="42.4544960" lon="-6.0445220">
        <ele>822.0</ele>
        <time>2021-10-03T12:04:54Z</time>
      </trkpt>
      <trkpt lat="42.4545260" lon="-6.0445600">
        <ele>822.4</ele>
        <time>2021-10-03T12:04:56Z</time>
      </trkpt>
      <trkpt lat="42.4545740" lon="-6.0446050">
        <ele>822.8</ele>
        <time>2021-10-03T12:04:59Z</time>
      </trkpt>
      <trkpt lat="42.4545350" lon="-6.0445980">
        <ele>823.2</ele>
        <time>2021-10-03T12:05:05Z</time>
      </trkpt>
      <trkpt lat="42.4544780" lon="-6.0445370">
        <ele>823.6</ele>
        <time>2021-10-03T12:05:08Z</time>
      </trkpt>
      <trkpt lat="42.4545280" lon="-6.0445370">
        <ele>824.8</ele>
        <time>2021-10-03T12:05:13Z</time>
      </trkpt>
      <trkpt lat="42.4545490" lon="-6.0445530">
        <ele>825.0</ele>
        <time>2021-10-03T12:05:14Z</time>
      </trkpt>
      <trkpt lat="42.4546250" lon="-6.0446330">
        <ele>825.4</ele>
        <time>2021-10-03T12:05:18Z</time>
      </trkpt>
      <trkpt lat="42.4545320" lon="-6.0445850">
        <ele>826.0</ele>
        <time>2021-10-03T12:05:23Z</time>
      </trkpt>
      <trkpt lat="42.4544700" lon="-6.0446790">
        <ele>827.2</ele>
        <time>2021-10-03T12:05:27Z</time>
      </trkpt>
      <trkpt lat="42.4543960" lon="-6.0446780">
        <ele>828.0</ele>
        <time>2021-10-03T12:05:31Z</time>
      </trkpt>
      <trkpt lat="42.4543760" lon="-6.0446630">
        <ele>828.2</ele>
        <time>2021-10-03T12:05:32Z</time>
      </trkpt>
      <trkpt lat="42.4544000" lon="-6.0447160">
        <ele>828.2</ele>
        <time>2021-10-03T12:05:36Z</time>
      </trkpt>
      <trkpt lat="42.4544320" lon="-6.0447470">
        <ele>828.2</ele>
        <time>2021-10-03T12:05:37Z</time>
      </trkpt>
      <trkpt lat="42.4546050" lon="-6.0449150">
        <ele>826.8</ele>
        <time>2021-10-03T12:05:43Z</time>
      </trkpt>
      <trkpt lat="42.4545970" lon="-6.0448860">
        <ele>825.8</ele>
        <time>2021-10-03T12:05:45Z</time>
      </trkpt>
      <trkpt lat="42.4544300" lon="-6.0447050">
        <ele>824.6</ele>
        <time>2021-10-03T12:05:50Z</time>
      </trkpt>
      <trkpt lat="42.4543730" lon="-6.0446440">
        <ele>824.2</ele>
        <time>2021-10-03T12:05:52Z</time>
      </trkpt>
      <trkpt lat="42.4543480" lon="-6.0446430">
        <ele>824.0</ele>
        <time>2021-10-03T12:05:54Z</time>
      </trkpt>
      <trkpt lat="42.4543610" lon="-6.0446510">
        <ele>823.8</ele>
        <time>2021-10-03T12:05:55Z</time>
      </trkpt>
      <trkpt lat="42.4544280" lon="-6.0446990">
        <ele>823.6</ele>
        <time>2021-10-03T12:05:58Z</time>
      </trkpt>
      <trkpt lat="42.4545130" lon="-6.0447890">
        <ele>823.4</ele>
        <time>2021-10-03T12:06:00Z</time>
      </trkpt>
      <trkpt lat="42.4545600" lon="-6.0448380">
        <ele>823.4</ele>
        <time>2021-10-03T12:06:01Z</time>
      </trkpt>
      <trkpt lat="42.4546270" lon="-6.0449550">
        <ele>822.4</ele>
        <time>2021-10-03T12:06:03Z</time>
      </trkpt>
      <trkpt lat="42.4546470" lon="-6.0450240">
        <ele>820.8</ele>
        <time>2021-10-03T12:06:04Z</time>
      </trkpt>
      <trkpt lat="42.4546700" lon="-6.0451770">
        <ele>819.0</ele>
        <time>2021-10-03T12:06:06Z</time>
      </trkpt>
      <trkpt lat="42.4546840" lon="-6.0453330">
        <ele>817.6</ele>
        <time>2021-10-03T12:06:08Z</time>
      </trkpt>
      <trkpt lat="42.4547090" lon="-6.0457030">
        <ele>816.6</ele>
        <time>2021-10-03T12:06:13Z</time>
      </trkpt>
      <trkpt lat="42.4547280" lon="-6.0460760">
        <ele>816.4</ele>
        <time>2021-10-03T12:06:18Z</time>
      </trkpt>
      <trkpt lat="42.4547320" lon="-6.0465170">
        <ele>817.0</ele>
        <time>2021-10-03T12:06:24Z</time>
      </trkpt>
      <trkpt lat="42.4545050" lon="-6.0466490">
        <ele>818.0</ele>
        <time>2021-10-03T12:06:29Z</time>
      </trkpt>
      <trkpt lat="42.4543920" lon="-6.0465980">
        <ele>818.4</ele>
        <time>2021-10-03T12:06:31Z</time>
      </trkpt>
      <trkpt lat="42.4542210" lon="-6.0464890">
        <ele>819.0</ele>
        <time>2021-10-03T12:06:34Z</time>
      </trkpt>
      <trkpt lat="42.4541000" lon="-6.0464300">
        <ele>819.2</ele>
        <time>2021-10-03T12:06:36Z</time>
      </trkpt>
      <trkpt lat="42.4539760" lon="-6.0464210">
        <ele>819.4</ele>
        <time>2021-10-03T12:06:38Z</time>
      </trkpt>
      <trkpt lat="42.4538770" lon="-6.0464900">
        <ele>819.4</ele>
        <time>2021-10-03T12:06:40Z</time>
      </trkpt>
      <trkpt lat="42.4539180" lon="-6.0468000">
        <ele>819.2</ele>
        <time>2021-10-03T12:06:45Z</time>
      </trkpt>
      <trkpt lat="42.4541380" lon="-6.0471980">
        <ele>818.0</ele>
        <time>2021-10-03T12:06:52Z</time>
      </trkpt>
      <trkpt lat="42.4542940" lon="-6.0474840">
        <ele>817.0</ele>
        <time>2021-10-03T12:06:57Z</time>
      </trkpt>
      <trkpt lat="42.4545010" lon="-6.0478100">
        <ele>817.0</ele>
        <time>2021-10-03T12:07:03Z</time>
      </trkpt>
      <trkpt lat="42.4546240" lon="-6.0479420">
        <ele>817.4</ele>
        <time>2021-10-03T12:07:06Z</time>
      </trkpt>
      <trkpt lat="42.4546570" lon="-6.0479960">
        <ele>817.6</ele>
        <time>2021-10-03T12:07:07Z</time>
      </trkpt>
      <trkpt lat="42.4546850" lon="-6.0482590">
        <ele>818.0</ele>
        <time>2021-10-03T12:07:11Z</time>
      </trkpt>
      <trkpt lat="42.4543490" lon="-6.0484670">
        <ele>818.8</ele>
        <time>2021-10-03T12:07:17Z</time>
      </trkpt>
      <trkpt lat="42.4542900" lon="-6.0485070">
        <ele>819.0</ele>
        <time>2021-10-03T12:07:18Z</time>
      </trkpt>
      <trkpt lat="42.4541360" lon="-6.0486720">
        <ele>819.6</ele>
        <time>2021-10-03T12:07:21Z</time>
      </trkpt>
      <trkpt lat="42.4538200" lon="-6.0492800">
        <ele>819.2</ele>
        <time>2021-10-03T12:07:29Z</time>
      </trkpt>
      <trkpt lat="42.4537450" lon="-6.0495410">
        <ele>818.0</ele>
        <time>2021-10-03T12:07:32Z</time>
      </trkpt>
      <trkpt lat="42.4536450" lon="-6.0499170">
        <ele>817.0</ele>
        <time>2021-10-03T12:07:36Z</time>
      </trkpt>
      <trkpt lat="42.4535970" lon="-6.0500890">
        <ele>817.0</ele>
        <time>2021-10-03T12:07:38Z</time>
      </trkpt>
      <trkpt lat="42.4535530" lon="-6.0502220">
        <ele>817.0</ele>
        <time>2021-10-03T12:07:40Z</time>
      </trkpt>
      <trkpt lat="42.4535060" lon="-6.0503280">
        <ele>817.0</ele>
        <time>2021-10-03T12:07:43Z</time>
      </trkpt>
      <trkpt lat="42.4534710" lon="-6.0503640">
        <ele>817.2</ele>
        <time>2021-10-03T12:07:45Z</time>
      </trkpt>
      <trkpt lat="42.4534090" lon="-6.0503750">
        <ele>820.0</ele>
        <time>2021-10-03T12:07:47Z</time>
      </trkpt>
      <trkpt lat="42.4533730" lon="-6.0503620">
        <ele>821.4</ele>
        <time>2021-10-03T12:07:48Z</time>
      </trkpt>
      <trkpt lat="42.4533370" lon="-6.0503490">
        <ele>823.0</ele>
        <time>2021-10-03T12:07:49Z</time>
      </trkpt>
      <trkpt lat="42.4532980" lon="-6.0503370">
        <ele>824.2</ele>
        <time>2021-10-03T12:07:50Z</time>
      </trkpt>
      <trkpt lat="42.4532140" lon="-6.0503170">
        <ele>825.2</ele>
        <time>2021-10-03T12:07:52Z</time>
      </trkpt>
      <trkpt lat="42.4530800" lon="-6.0502800">
        <ele>825.8</ele>
        <time>2021-10-03T12:07:55Z</time>
      </trkpt>
      <trkpt lat="42.4529270" lon="-6.0502640">
        <ele>826.0</ele>
        <time>2021-10-03T12:07:58Z</time>
      </trkpt>
      <trkpt lat="42.4527980" lon="-6.0503010">
        <ele>826.0</ele>
        <time>2021-10-03T12:08:02Z</time>
      </trkpt>
      <trkpt lat="42.4529580" lon="-6.0504130">
        <ele>826.0</ele>
        <time>2021-10-03T12:08:10Z</time>
      </trkpt>
      <trkpt lat="42.4530270" lon="-6.0504690">
        <ele>826.0</ele>
        <time>2021-10-03T12:08:13Z</time>
      </trkpt>
      <trkpt lat="42.4530880" lon="-6.0505410">
        <ele>826.2</ele>
        <time>2021-10-03T12:08:16Z</time>
      </trkpt>
      <trkpt lat="42.4531080" lon="-6.0505640">
        <ele>826.4</ele>
        <time>2021-10-03T12:08:17Z</time>
      </trkpt>
      <trkpt lat="42.4531540" lon="-6.0506390">
        <ele>827.8</ele>
        <time>2021-10-03T12:08:20Z</time>
      </trkpt>
      <trkpt lat="42.4531670" lon="-6.0506950">
        <ele>829.2</ele>
        <time>2021-10-03T12:08:22Z</time>
      </trkpt>
      <trkpt lat="42.4531760" lon="-6.0507790">
        <ele>830.4</ele>
        <time>2021-10-03T12:08:25Z</time>
      </trkpt>
      <trkpt lat="42.4531800" lon="-6.0508410">
        <ele>831.4</ele>
        <time>2021-10-03T12:08:27Z</time>
      </trkpt>
      <trkpt lat="42.4531790" lon="-6.0509030">
        <ele>832.2</ele>
        <time>2021-10-03T12:08:29Z</time>
      </trkpt>
      <trkpt lat="42.4531660" lon="-6.0509710">
        <ele>834.2</ele>
        <time>2021-10-03T12:08:31Z</time>
      </trkpt>
      <trkpt lat="42.4531390" lon="-6.0510850">
        <ele>835.2</ele>
        <time>2021-10-03T12:08:34Z</time>
      </trkpt>
      <trkpt lat="42.4530880" lon="-6.0512330">
        <ele>836.6</ele>
        <time>2021-10-03T12:08:39Z</time>
      </trkpt>
      <trkpt lat="42.4530760" lon="-6.0513160">
        <ele>837.8</ele>
        <time>2021-10-03T12:08:42Z</time>
      </trkpt>
      <trkpt lat="42.4531490" lon="-6.0514500">
        <ele>839.0</ele>
        <time>2021-10-03T12:08:49Z</time>
      </trkpt>
      <trkpt lat="42.4533380" lon="-6.0515880">
        <ele>840.0</ele>
        <time>2021-10-03T12:08:56Z</time>
      </trkpt>
      <trkpt lat="42.4534910" lon="-6.0516970">
        <ele>840.4</ele>
        <time>2021-10-03T12:09:01Z</time>
      </trkpt>
      <trkpt lat="42.4536310" lon="-6.0518040">
        <ele>841.4</ele>
        <time>2021-10-03T12:09:06Z</time>
      </trkpt>
      <trkpt lat="42.4537320" lon="-6.0519050">
        <ele>842.0</ele>
        <time>2021-10-03T12:09:10Z</time>
      </trkpt>
      <trkpt lat="42.4537770" lon="-6.0519400">
        <ele>842.0</ele>
        <time>2021-10-03T12:09:12Z</time>
      </trkpt>
      <trkpt lat="42.4538420" lon="-6.0519530">
        <ele>842.2</ele>
        <time>2021-10-03T12:09:15Z</time>
      </trkpt>
      <trkpt lat="42.4538600" lon="-6.0519460">
        <ele>842.2</ele>
        <time>2021-10-03T12:09:16Z</time>
      </trkpt>
      <trkpt lat="42.4538750" lon="-6.0519350">
        <ele>842.2</ele>
        <time>2021-10-03T12:09:17Z</time>
      </trkpt>
      <trkpt lat="42.4538810" lon="-6.0519300">
        <ele>842.4</ele>
        <time>2021-10-03T12:09:19Z</time>
      </trkpt>
      <trkpt lat="42.4538690" lon="-6.0520210">
        <ele>842.0</ele>
        <time>2021-10-03T12:16:54Z</time>
      </trkpt>
      <trkpt lat="42.4538630" lon="-6.0520430">
        <ele>842.0</ele>
        <time>2021-10-03T12:16:55Z</time>
      </trkpt>
      <trkpt lat="42.4539360" lon="-6.0521800">
        <ele>841.8</ele>
        <time>2021-10-03T12:17:00Z</time>
      </trkpt>
      <trkpt lat="42.4540540" lon="-6.0522850">
        <ele>841.6</ele>
        <time>2021-10-03T12:17:04Z</time>
      </trkpt>
      <trkpt lat="42.4544450" lon="-6.0528230">
        <ele>841.2</ele>
        <time>2021-10-03T12:17:23Z</time>
      </trkpt>
      <trkpt lat="42.4545040" lon="-6.0529250">
        <ele>840.8</ele>
        <time>2021-10-03T12:17:26Z</time>
      </trkpt>
      <trkpt lat="42.4571320" lon="-6.0594370">
        <ele>883.4</ele>
        <time>2021-10-03T13:23:55Z</time>
      </trkpt>
      <trkpt lat="42.4571480" lon="-6.0594610">
        <ele>883.4</ele>
        <time>2021-10-03T13:23:56Z</time>
      </trkpt>
      <trkpt lat="42.4571780" lon="-6.0595110">
        <ele>883.4</ele>
        <time>2021-10-03T13:23:57Z</time>
      </trkpt>
      <trkpt lat="42.4573340" lon="-6.0597640">
        <ele>883.4</ele>
        <time>2021-10-03T13:24:02Z</time>
      </trkpt>
      <trkpt lat="42.4573630" lon="-6.0598130">
        <ele>883.4</ele>
        <time>2021-10-03T13:24:03Z</time>
      </trkpt>
      <trkpt lat="42.4574490" lon="-6.0599520">
        <ele>884.2</ele>
        <time>2021-10-03T13:24:06Z</time>
      </trkpt>
      <trkpt lat="42.4575720" lon="-6.0601280">
        <ele>884.4</ele>
        <time>2021-10-03T13:24:10Z</time>
      </trkpt>
      <trkpt lat="42.4577380" lon="-6.0603570">
        <ele>884.8</ele>
        <time>2021-10-03T13:24:16Z</time>
      </trkpt>
      <trkpt lat="42.4578690" lon="-6.0605820">
        <ele>885.2</ele>
        <time>2021-10-03T13:24:21Z</time>
      </trkpt>
      <trkpt lat="42.4580110" lon="-6.0607770">
        <ele>885.4</ele>
        <time>2021-10-03T13:24:25Z</time>
      </trkpt>
      <trkpt lat="42.4581960" lon="-6.0610830">
        <ele>886.2</ele>
        <time>2021-10-03T13:24:31Z</time>
      </trkpt>
      <trkpt lat="42.4582570" lon="-6.0611900">
        <ele>886.8</ele>
        <time>2021-10-03T13:24:33Z</time>
      </trkpt>
      <trkpt lat="42.4584430" lon="-6.0615040">
        <ele>887.0</ele>
        <time>2021-10-03T13:24:39Z</time>
      </trkpt>
      <trkpt lat="42.4587590" lon="-6.0621000">
        <ele>886.8</ele>
        <time>2021-10-03T13:24:51Z</time>
      </trkpt>
      <trkpt lat="42.4588610" lon="-6.0623090">
        <ele>886.8</ele>
        <time>2021-10-03T13:24:55Z</time>
      </trkpt>
      <trkpt lat="42.4588970" lon="-6.0624310">
        <ele>887.0</ele>
        <time>2021-10-03T13:24:57Z</time>
      </trkpt>
      <trkpt lat="42.4589220" lon="-6.0628160">
        <ele>888.0</ele>
        <time>2021-10-03T13:25:03Z</time>
      </trkpt>
      <trkpt lat="42.4589330" lon="-6.0629340">
        <ele>888.4</ele>
        <time>2021-10-03T13:25:05Z</time>
      </trkpt>
      <trkpt lat="42.4589360" lon="-6.0630460">
        <ele>888.4</ele>
        <time>2021-10-03T13:25:07Z</time>
      </trkpt>
      <trkpt lat="42.4589360" lon="-6.0630900">
        <ele>888.6</ele>
        <time>2021-10-03T13:25:08Z</time>
      </trkpt>
      <trkpt lat="42.4589360" lon="-6.0631240">
        <ele>888.6</ele>
        <time>2021-10-03T13:25:09Z</time>
      </trkpt>
      <trkpt lat="42.4589400" lon="-6.0631660">
        <ele>888.6</ele>
        <time>2021-10-03T13:25:11Z</time>
      </trkpt>
      <trkpt lat="42.4589460" lon="-6.0631930">
        <ele>888.6</ele>
        <time>2021-10-03T13:25:13Z</time>
      </trkpt>
      <trkpt lat="42.4589200" lon="-6.0633840">
        <ele>888.6</ele>
        <time>2021-10-03T13:25:20Z</time>
      </trkpt>
      <trkpt lat="42.4589070" lon="-6.0635700">
        <ele>888.8</ele>
        <time>2021-10-03T13:25:25Z</time>
      </trkpt>
      <trkpt lat="42.4588670" lon="-6.0637230">
        <ele>888.4</ele>
        <time>2021-10-03T13:25:28Z</time>
      </trkpt>
      <trkpt lat="42.4588540" lon="-6.0637790">
        <ele>888.4</ele>
        <time>2021-10-03T13:25:29Z</time>
      </trkpt>
      <trkpt lat="42.4588150" lon="-6.0639590">
        <ele>888.0</ele>
        <time>2021-10-03T13:25:32Z</time>
      </trkpt>
      <trkpt lat="42.4587560" lon="-6.0642400">
        <ele>887.8</ele>
        <time>2021-10-03T13:25:36Z</time>
      </trkpt>
      <trkpt lat="42.4586770" lon="-6.0646270">
        <ele>887.6</ele>
        <time>2021-10-03T13:25:41Z</time>
      </trkpt>
      <trkpt lat="42.4586620" lon="-6.0647170">
        <ele>887.4</ele>
        <time>2021-10-03T13:25:42Z</time>
      </trkpt>
      <trkpt lat="42.4586330" lon="-6.0650160">
        <ele>887.2</ele>
        <time>2021-10-03T13:25:45Z</time>
      </trkpt>
      <trkpt lat="42.4586380" lon="-6.0653410">
        <ele>886.8</ele>
        <time>2021-10-03T13:25:48Z</time>
      </trkpt>
      <trkpt lat="42.4586450" lon="-6.0655680">
        <ele>886.0</ele>
        <time>2021-10-03T13:25:50Z</time>
      </trkpt>
      <trkpt lat="42.4586480" lon="-6.0656850">
        <ele>884.8</ele>
        <time>2021-10-03T13:25:51Z</time>
      </trkpt>
      <trkpt lat="42.4586490" lon="-6.0658030">
        <ele>883.4</ele>
        <time>2021-10-03T13:25:52Z</time>
      </trkpt>
      <trkpt lat="42.4586510" lon="-6.0659220">
        <ele>882.0</ele>
        <time>2021-10-03T13:25:53Z</time>
      </trkpt>
      <trkpt lat="42.4586520" lon="-6.0661650">
        <ele>880.8</ele>
        <time>2021-10-03T13:25:55Z</time>
      </trkpt>
      <trkpt lat="42.4586550" lon="-6.0665270">
        <ele>879.6</ele>
        <time>2021-10-03T13:25:58Z</time>
      </trkpt>
      <trkpt lat="42.4586560" lon="-6.0667600">
        <ele>878.8</ele>
        <time>2021-10-03T13:26:00Z</time>
      </trkpt>
      <trkpt lat="42.4586570" lon="-6.0668750">
        <ele>878.6</ele>
        <time>2021-10-03T13:26:01Z</time>
      </trkpt>
      <trkpt lat="42.4586590" lon="-6.0669890">
        <ele>878.2</ele>
        <time>2021-10-03T13:26:02Z</time>
      </trkpt>
      <trkpt lat="42.4586610" lon="-6.0671020">
        <ele>877.2</ele>
        <time>2021-10-03T13:26:03Z</time>
      </trkpt>
      <trkpt lat="42.4586650" lon="-6.0673210">
        <ele>876.2</ele>
        <time>2021-10-03T13:26:05Z</time>
      </trkpt>
      <trkpt lat="42.4586660" lon="-6.0675350">
        <ele>875.8</ele>
        <time>2021-10-03T13:26:07Z</time>
      </trkpt>
      <trkpt lat="42.4586700" lon="-6.0677460">
        <ele>875.8</ele>
        <time>2021-10-03T13:26:09Z</time>
      </trkpt>
      <trkpt lat="42.4586980" lon="-6.0682550">
        <ele>875.2</ele>
        <time>2021-10-03T13:26:14Z</time>
      </trkpt>
      <trkpt lat="42.4587210" lon="-6.0685550">
        <ele>874.6</ele>
        <time>2021-10-03T13:26:17Z</time>
      </trkpt>
      <trkpt lat="42.4587450" lon="-6.0687580">
        <ele>874.4</ele>
        <time>2021-10-03T13:26:19Z</time>
      </trkpt>
      <trkpt lat="42.4587590" lon="-6.0688610">
        <ele>874.2</ele>
        <time>2021-10-03T13:26:20Z</time>
      </trkpt>
      <trkpt lat="42.4587720" lon="-6.0689660">
        <ele>873.8</ele>
        <time>2021-10-03T13:26:21Z</time>
      </trkpt>
      <trkpt lat="42.4587860" lon="-6.0690710">
        <ele>873.2</ele>
        <time>2021-10-03T13:26:22Z</time>
      </trkpt>
      <trkpt lat="42.4587990" lon="-6.0691760">
        <ele>873.2</ele>
        <time>2021-10-03T13:26:23Z</time>
      </trkpt>
      <trkpt lat="42.4588130" lon="-6.0692820">
        <ele>872.8</ele>
        <time>2021-10-03T13:26:24Z</time>
      </trkpt>
      <trkpt lat="42.4588370" lon="-6.0694930">
        <ele>871.6</ele>
        <time>2021-10-03T13:26:26Z</time>
      </trkpt>
      <trkpt lat="42.4588500" lon="-6.0695970">
        <ele>871.0</ele>
        <time>2021-10-03T13:26:27Z</time>
      </trkpt>
      <trkpt lat="42.4588730" lon="-6.0698070">
        <ele>870.2</ele>
        <time>2021-10-03T13:26:29Z</time>
      </trkpt>
      <trkpt lat="42.4589060" lon="-6.0701160">
        <ele>869.6</ele>
        <time>2021-10-03T13:26:32Z</time>
      </trkpt>
      <trkpt lat="42.4589330" lon="-6.0703200">
        <ele>869.2</ele>
        <time>2021-10-03T13:26:34Z</time>
      </trkpt>
      <trkpt lat="42.4589970" lon="-6.0708280">
        <ele>868.8</ele>
        <time>2021-10-03T13:26:39Z</time>
      </trkpt>
      <trkpt lat="42.4590510" lon="-6.0712200">
        <ele>868.6</ele>
        <time>2021-10-03T13:26:43Z</time>
      </trkpt>
      <trkpt lat="42.4590650" lon="-6.0713180">
        <ele>868.4</ele>
        <time>2021-10-03T13:26:44Z</time>
      </trkpt>
      <trkpt lat="42.4591260" lon="-6.0717050">
        <ele>868.2</ele>
        <time>2021-10-03T13:26:48Z</time>
      </trkpt>
      <trkpt lat="42.4592050" lon="-6.0721750">
        <ele>868.2</ele>
        <time>2021-10-03T13:26:53Z</time>
      </trkpt>
      <trkpt lat="42.4593000" lon="-6.0727070">
        <ele>868.2</ele>
        <time>2021-10-03T13:26:59Z</time>
      </trkpt>
      <trkpt lat="42.4593700" lon="-6.0731300">
        <ele>868.0</ele>
        <time>2021-10-03T13:27:04Z</time>
      </trkpt>
      <trkpt lat="42.4593950" lon="-6.0734690">
        <ele>868.0</ele>
        <time>2021-10-03T13:27:08Z</time>
      </trkpt>
      <trkpt lat="42.4593750" lon="-6.0739900">
        <ele>868.0</ele>
        <time>2021-10-03T13:27:14Z</time>
      </trkpt>
      <trkpt lat="42.4593180" lon="-6.0746090">
        <ele>868.2</ele>
        <time>2021-10-03T13:27:21Z</time>
      </trkpt>
      <trkpt lat="42.4592620" lon="-6.0751370">
        <ele>868.4</ele>
        <time>2021-10-03T13:27:27Z</time>
      </trkpt>
      <trkpt lat="42.4591910" lon="-6.0759010">
        <ele>868.6</ele>
        <time>2021-10-03T13:27:36Z</time>
      </trkpt>
      <trkpt lat="42.4591660" lon="-6.0766470">
        <ele>869.2</ele>
        <time>2021-10-03T13:27:45Z</time>
      </trkpt>
      <trkpt lat="42.4591820" lon="-6.0774490">
        <ele>868.6</ele>
        <time>2021-10-03T13:27:55Z</time>
      </trkpt>
      <trkpt lat="42.4592030" lon="-6.0782230">
        <ele>869.0</ele>
        <time>2021-10-03T13:28:05Z</time>
      </trkpt>
      <trkpt lat="42.4592170" lon="-6.0788350">
        <ele>869.6</ele>
        <time>2021-10-03T13:28:13Z</time>
      </trkpt>
      <trkpt lat="42.4592310" lon="-6.0793610">
        <ele>870.2</ele>
        <time>2021-10-03T13:28:20Z</time>
      </trkpt>
      <trkpt lat="42.4592430" lon="-6.0797990">
        <ele>870.4</ele>
        <time>2021-10-03T13:28:26Z</time>
      </trkpt>
      <trkpt lat="42.4592610" lon="-6.0803620">
        <ele>870.8</ele>
        <time>2021-10-03T13:28:34Z</time>
      </trkpt>
      <trkpt lat="42.4592820" lon="-6.0808900">
        <ele>871.4</ele>
        <time>2021-10-03T13:28:42Z</time>
      </trkpt>
      <trkpt lat="42.4594130" lon="-6.0816650">
        <ele>871.8</ele>
        <time>2021-10-03T13:28:53Z</time>
      </trkpt>
      <trkpt lat="42.4594780" lon="-6.0819500">
        <ele>872.0</ele>
        <time>2021-10-03T13:28:57Z</time>
      </trkpt>
      <trkpt lat="42.4596390" lon="-6.0826660">
        <ele>872.0</ele>
        <time>2021-10-03T13:29:07Z</time>
      </trkpt>
      <trkpt lat="42.4596990" lon="-6.0829470">
        <ele>872.2</ele>
        <time>2021-10-03T13:29:11Z</time>
      </trkpt>
      <trkpt lat="42.4597270" lon="-6.0830810">
        <ele>873.4</ele>
        <time>2021-10-03T13:29:13Z</time>
      </trkpt>
      <trkpt lat="42.4597530" lon="-6.0832120">
        <ele>874.6</ele>
        <time>2021-10-03T13:29:15Z</time>
      </trkpt>
      <trkpt lat="42.4598020" lon="-6.0834570">
        <ele>876.2</ele>
        <time>2021-10-03T13:29:19Z</time>
      </trkpt>
      <trkpt lat="42.4598370" lon="-6.0836340">
        <ele>877.6</ele>
        <time>2021-10-03T13:29:22Z</time>
      </trkpt>
      <trkpt lat="42.4598710" lon="-6.0838090">
        <ele>878.6</ele>
        <time>2021-10-03T13:29:25Z</time>
      </trkpt>
      <trkpt lat="42.4599070" lon="-6.0839820">
        <ele>879.6</ele>
        <time>2021-10-03T13:29:28Z</time>
      </trkpt>
      <trkpt lat="42.4600400" lon="-6.0846380">
        <ele>880.6</ele>
        <time>2021-10-03T13:29:39Z</time>
      </trkpt>
      <trkpt lat="42.4601690" lon="-6.0852330">
        <ele>880.8</ele>
        <time>2021-10-03T13:29:47Z</time>
      </trkpt>
      <trkpt lat="42.4602240" lon="-6.0854920">
        <ele>880.8</ele>
        <time>2021-10-03T13:29:50Z</time>
      </trkpt>
      <trkpt lat="42.4603230" lon="-6.0859860">
        <ele>880.4</ele>
        <time>2021-10-03T13:29:55Z</time>
      </trkpt>
      <trkpt lat="42.4603670" lon="-6.0861970">
        <ele>879.2</ele>
        <time>2021-10-03T13:29:57Z</time>
      </trkpt>
      <trkpt lat="42.4604090" lon="-6.0864090">
        <ele>878.2</ele>
        <time>2021-10-03T13:29:59Z</time>
      </trkpt>
      <trkpt lat="42.4604310" lon="-6.0865130">
        <ele>877.2</ele>
        <time>2021-10-03T13:30:00Z</time>
      </trkpt>
      <trkpt lat="42.4604520" lon="-6.0866140">
        <ele>876.0</ele>
        <time>2021-10-03T13:30:01Z</time>
      </trkpt>
      <trkpt lat="42.4604730" lon="-6.0867130">
        <ele>874.8</ele>
        <time>2021-10-03T13:30:02Z</time>
      </trkpt>
      <trkpt lat="42.4604960" lon="-6.0868090">
        <ele>874.0</ele>
        <time>2021-10-03T13:30:03Z</time>
      </trkpt>
      <trkpt lat="42.4605270" lon="-6.0868970">
        <ele>873.6</ele>
        <time>2021-10-03T13:30:04Z</time>
      </trkpt>
      <trkpt lat="42.4606670" lon="-6.0872060">
        <ele>873.2</ele>
        <time>2021-10-03T13:30:08Z</time>
      </trkpt>
      <trkpt lat="42.4608250" lon="-6.0879760">
        <ele>873.6</ele>
        <time>2021-10-03T13:30:18Z</time>
      </trkpt>
      <trkpt lat="42.4609800" lon="-6.0886820">
        <ele>874.6</ele>
        <time>2021-10-03T13:30:28Z</time>
      </trkpt>
      <trkpt lat="42.4610420" lon="-6.0889610">
        <ele>875.0</ele>
        <time>2021-10-03T13:30:32Z</time>
      </trkpt>
      <trkpt lat="42.4612050" lon="-6.0897180">
        <ele>876.0</ele>
        <time>2021-10-03T13:30:43Z</time>
      </trkpt>
      <trkpt lat="42.4612330" lon="-6.0898540">
        <ele>876.2</ele>
        <time>2021-10-03T13:30:45Z</time>
      </trkpt>
      <trkpt lat="42.4613850" lon="-6.0905760">
        <ele>876.8</ele>
        <time>2021-10-03T13:30:56Z</time>
      </trkpt>
      <trkpt lat="42.4614290" lon="-6.0908140">
        <ele>876.8</ele>
        <time>2021-10-03T13:31:00Z</time>
      </trkpt>
      <trkpt lat="42.4614480" lon="-6.0909140">
        <ele>876.8</ele>
        <time>2021-10-03T13:31:02Z</time>
      </trkpt>
      <trkpt lat="42.4614630" lon="-6.0909860">
        <ele>877.0</ele>
        <time>2021-10-03T13:31:04Z</time>
      </trkpt>
      <trkpt lat="42.4614700" lon="-6.0910110">
        <ele>877.2</ele>
        <time>2021-10-03T13:31:05Z</time>
      </trkpt>
      <trkpt lat="42.4615020" lon="-6.0911410">
        <ele>878.6</ele>
        <time>2021-10-03T13:31:09Z</time>
      </trkpt>
      <trkpt lat="42.4615300" lon="-6.0912970">
        <ele>878.8</ele>
        <time>2021-10-03T13:31:12Z</time>
      </trkpt>
      <trkpt lat="42.4615570" lon="-6.0914110">
        <ele>878.8</ele>
        <time>2021-10-03T13:31:14Z</time>
      </trkpt>
      <trkpt lat="42.4615900" lon="-6.0915980">
        <ele>878.8</ele>
        <time>2021-10-03T13:31:17Z</time>
      </trkpt>
      <trkpt lat="42.4616020" lon="-6.0918110">
        <ele>878.4</ele>
        <time>2021-10-03T13:31:20Z</time>
      </trkpt>
      <trkpt lat="42.4616170" lon="-6.0921260">
        <ele>878.2</ele>
        <time>2021-10-03T13:31:25Z</time>
      </trkpt>
      <trkpt lat="42.4616560" lon="-6.0927020">
        <ele>878.0</ele>
        <time>2021-10-03T13:31:34Z</time>
      </trkpt>
      <trkpt lat="42.4616710" lon="-6.0930190">
        <ele>878.4</ele>
        <time>2021-10-03T13:31:38Z</time>
      </trkpt>
      <trkpt lat="42.4617010" lon="-6.0937740">
        <ele>878.4</ele>
        <time>2021-10-03T13:31:48Z</time>
      </trkpt>
      <trkpt lat="42.4617240" lon="-6.0945100">
        <ele>878.4</ele>
        <time>2021-10-03T13:31:58Z</time>
      </trkpt>
      <trkpt lat="42.4617400" lon="-6.0949350">
        <ele>878.4</ele>
        <time>2021-10-03T13:32:04Z</time>
      </trkpt>
      <trkpt lat="42.4617530" lon="-6.0953460">
        <ele>878.8</ele>
        <time>2021-10-03T13:32:10Z</time>
      </trkpt>
      <trkpt lat="42.4617660" lon="-6.0960470">
        <ele>879.2</ele>
        <time>2021-10-03T13:32:21Z</time>
      </trkpt>
      <trkpt lat="42.4617490" lon="-6.0962160">
        <ele>879.2</ele>
        <time>2021-10-03T13:32:24Z</time>
      </trkpt>
      <trkpt lat="42.4616300" lon="-6.0964610">
        <ele>880.2</ele>
        <time>2021-10-03T13:32:31Z</time>
      </trkpt>
      <trkpt lat="42.4614950" lon="-6.0965480">
        <ele>881.6</ele>
        <time>2021-10-03T13:32:35Z</time>
      </trkpt>
      <trkpt lat="42.4612800" lon="-6.0969820">
        <ele>883.0</ele>
        <time>2021-10-03T13:32:43Z</time>
      </trkpt>
      <trkpt lat="42.4611700" lon="-6.0972010">
        <ele>883.0</ele>
        <time>2021-10-03T13:32:47Z</time>
      </trkpt>
      <trkpt lat="42.4611320" lon="-6.0972660">
        <ele>883.0</ele>
        <time>2021-10-03T13:32:49Z</time>
      </trkpt>
      <trkpt lat="42.4611230" lon="-6.0972830">
        <ele>883.2</ele>
        <time>2021-10-03T13:32:52Z</time>
      </trkpt>
      <trkpt lat="42.4611090" lon="-6.0973260">
        <ele>883.8</ele>
        <time>2021-10-03T13:35:12Z</time>
      </trkpt>
      <trkpt lat="42.4610960" lon="-6.0973530">
        <ele>883.8</ele>
        <time>2021-10-03T13:35:13Z</time>
      </trkpt>
      <trkpt lat="42.4608970" lon="-6.0977690">
        <ele>883.8</ele>
        <time>2021-10-03T13:35:22Z</time>
      </trkpt>
      <trkpt lat="42.4607860" lon="-6.0979710">
        <ele>883.2</ele>
        <time>2021-10-03T13:35:26Z</time>
      </trkpt>
      <trkpt lat="42.4607510" lon="-6.0980150">
        <ele>883.0</ele>
        <time>2021-10-03T13:35:27Z</time>
      </trkpt>
      <trkpt lat="42.4606830" lon="-6.0981150">
        <ele>883.0</ele>
        <time>2021-10-03T13:35:29Z</time>
      </trkpt>
      <trkpt lat="42.4605370" lon="-6.0984010">
        <ele>882.2</ele>
        <time>2021-10-03T13:35:34Z</time>
      </trkpt>
      <trkpt lat="42.4605120" lon="-6.0984560">
        <ele>882.0</ele>
        <time>2021-10-03T13:35:35Z</time>
      </trkpt>
      <trkpt lat="42.4604100" lon="-6.0987930">
        <ele>881.6</ele>
        <time>2021-10-03T13:35:41Z</time>
      </trkpt>
      <trkpt lat="42.4604270" lon="-6.0991970">
        <ele>882.0</ele>
        <time>2021-10-03T13:35:49Z</time>
      </trkpt>
      <trkpt lat="42.4604070" lon="-6.0996920">
        <ele>882.6</ele>
        <time>2021-10-03T13:35:58Z</time>
      </trkpt>
      <trkpt lat="42.4604070" lon="-6.0999290">
        <ele>883.0</ele>
        <time>2021-10-03T13:36:02Z</time>
      </trkpt>
      <trkpt lat="42.4604000" lon="-6.1001240">
        <ele>883.2</ele>
        <time>2021-10-03T13:36:05Z</time>
      </trkpt>
      <trkpt lat="42.4603990" lon="-6.1001880">
        <ele>883.2</ele>
        <time>2021-10-03T13:36:06Z</time>
      </trkpt>
      <trkpt lat="42.4603900" lon="-6.1003150">
        <ele>883.2</ele>
        <time>2021-10-03T13:36:08Z</time>
      </trkpt>
      <trkpt lat="42.4603740" lon="-6.1004880">
        <ele>883.2</ele>
        <time>2021-10-03T13:36:11Z</time>
      </trkpt>
      <trkpt lat="42.4603620" lon="-6.1006650">
        <ele>882.6</ele>
        <time>2021-10-03T13:36:14Z</time>
      </trkpt>
      <trkpt lat="42.4603540" lon="-6.1007820">
        <ele>882.4</ele>
        <time>2021-10-03T13:36:16Z</time>
      </trkpt>
      <trkpt lat="42.4603560" lon="-6.1009430">
        <ele>882.2</ele>
        <time>2021-10-03T13:36:19Z</time>
      </trkpt>
      <trkpt lat="42.4603560" lon="-6.1011080">
        <ele>882.2</ele>
        <time>2021-10-03T13:36:22Z</time>
      </trkpt>
      <trkpt lat="42.4603490" lon="-6.1012850">
        <ele>882.6</ele>
        <time>2021-10-03T13:36:25Z</time>
      </trkpt>
      <trkpt lat="42.4603430" lon="-6.1013970">
        <ele>883.2</ele>
        <time>2021-10-03T13:36:27Z</time>
      </trkpt>
      <trkpt lat="42.4602940" lon="-6.1017210">
        <ele>884.4</ele>
        <time>2021-10-03T13:36:32Z</time>
      </trkpt>
      <trkpt lat="42.4602860" lon="-6.1019170">
        <ele>884.8</ele>
        <time>2021-10-03T13:36:35Z</time>
      </trkpt>
      <trkpt lat="42.4602850" lon="-6.1021570">
        <ele>885.2</ele>
        <time>2021-10-03T13:36:39Z</time>
      </trkpt>
      <trkpt lat="42.4602170" lon="-6.1026250">
        <ele>885.4</ele>
        <time>2021-10-03T13:36:47Z</time>
      </trkpt>
      <trkpt lat="42.4601720" lon="-6.1029030">
        <ele>886.6</ele>
        <time>2021-10-03T13:36:52Z</time>
      </trkpt>
      <trkpt lat="42.4600970" lon="-6.1032670">
        <ele>887.8</ele>
        <time>2021-10-03T13:36:59Z</time>
      </trkpt>
      <trkpt lat="42.4600060" lon="-6.1036300">
        <ele>889.2</ele>
        <time>2021-10-03T13:37:06Z</time>
      </trkpt>
      <trkpt lat="42.4599610" lon="-6.1037840">
        <ele>890.4</ele>
        <time>2021-10-03T13:37:09Z</time>
      </trkpt>
      <trkpt lat="42.4598960" lon="-6.1040560">
        <ele>891.4</ele>
        <time>2021-10-03T13:37:14Z</time>
      </trkpt>
      <trkpt lat="42.4598570" lon="-6.1042230">
        <ele>892.6</ele>
        <time>2021-10-03T13:37:17Z</time>
      </trkpt>
      <trkpt lat="42.4596770" lon="-6.1049260">
        <ele>893.2</ele>
        <time>2021-10-03T13:37:30Z</time>
      </trkpt>
      <trkpt lat="42.4596500" lon="-6.1050390">
        <ele>893.8</ele>
        <time>2021-10-03T13:37:32Z</time>
      </trkpt>
      <trkpt lat="42.4595470" lon="-6.1055270">
        <ele>895.0</ele>
        <time>2021-10-03T13:37:40Z</time>
      </trkpt>
      <trkpt lat="42.4594630" lon="-6.1059060">
        <ele>895.2</ele>
        <time>2021-10-03T13:37:46Z</time>
      </trkpt>
      <trkpt lat="42.4593170" lon="-6.1066730">
        <ele>895.0</ele>
        <time>2021-10-03T13:37:58Z</time>
      </trkpt>
      <trkpt lat="42.4592830" lon="-6.1069360">
        <ele>895.0</ele>
        <time>2021-10-03T13:38:02Z</time>
      </trkpt>
      <trkpt lat="42.4591990" lon="-6.1075860">
        <ele>896.4</ele>
        <time>2021-10-03T13:38:12Z</time>
      </trkpt>
      <trkpt lat="42.4591280" lon="-6.1079610">
        <ele>897.6</ele>
        <time>2021-10-03T13:38:18Z</time>
      </trkpt>
      <trkpt lat="42.4589860" lon="-6.1087190">
        <ele>898.2</ele>
        <time>2021-10-03T13:38:30Z</time>
      </trkpt>
      <trkpt lat="42.4588640" lon="-6.1094370">
        <ele>898.0</ele>
        <time>2021-10-03T13:38:41Z</time>
      </trkpt>
      <trkpt lat="42.4587880" lon="-6.1098960">
        <ele>898.6</ele>
        <time>2021-10-03T13:38:48Z</time>
      </trkpt>
      <trkpt lat="42.4587340" lon="-6.1102120">
        <ele>898.6</ele>
        <time>2021-10-03T13:38:53Z</time>
      </trkpt>
      <trkpt lat="42.4587140" lon="-6.1103260">
        <ele>898.8</ele>
        <time>2021-10-03T13:38:55Z</time>
      </trkpt>
      <trkpt lat="42.4585920" lon="-6.1110390">
        <ele>899.0</ele>
        <time>2021-10-03T13:39:06Z</time>
      </trkpt>
      <trkpt lat="42.4585050" lon="-6.1115550">
        <ele>899.8</ele>
        <time>2021-10-03T13:39:14Z</time>
      </trkpt>
      <trkpt lat="42.4583990" lon="-6.1121850">
        <ele>901.0</ele>
        <time>2021-10-03T13:39:24Z</time>
      </trkpt>
      <trkpt lat="42.4583480" lon="-6.1124880">
        <ele>901.2</ele>
        <time>2021-10-03T13:39:29Z</time>
      </trkpt>
      <trkpt lat="42.4582850" lon="-6.1128500">
        <ele>901.8</ele>
        <time>2021-10-03T13:39:35Z</time>
      </trkpt>
      <trkpt lat="42.4582660" lon="-6.1129730">
        <ele>902.2</ele>
        <time>2021-10-03T13:39:37Z</time>
      </trkpt>
      <trkpt lat="42.4582250" lon="-6.1132260">
        <ele>902.6</ele>
        <time>2021-10-03T13:39:41Z</time>
      </trkpt>
      <trkpt lat="42.4582040" lon="-6.1133540">
        <ele>903.4</ele>
        <time>2021-10-03T13:39:43Z</time>
      </trkpt>
      <trkpt lat="42.4581150" lon="-6.1138660">
        <ele>904.4</ele>
        <time>2021-10-03T13:39:51Z</time>
      </trkpt>
      <trkpt lat="42.4580230" lon="-6.1144050">
        <ele>905.4</ele>
        <time>2021-10-03T13:40:00Z</time>
      </trkpt>
      <trkpt lat="42.4579470" lon="-6.1148620">
        <ele>906.6</ele>
        <time>2021-10-03T13:40:08Z</time>
      </trkpt>
      <trkpt lat="42.4578990" lon="-6.1151530">
        <ele>907.0</ele>
        <time>2021-10-03T13:40:13Z</time>
      </trkpt>
      <trkpt lat="42.4578390" lon="-6.1155070">
        <ele>908.0</ele>
        <time>2021-10-03T13:40:19Z</time>
      </trkpt>
      <trkpt lat="42.4577790" lon="-6.1158540">
        <ele>909.0</ele>
        <time>2021-10-03T13:40:25Z</time>
      </trkpt>
      <trkpt lat="42.4577620" lon="-6.1159690">
        <ele>909.4</ele>
        <time>2021-10-03T13:40:27Z</time>
      </trkpt>
      <trkpt lat="42.4577520" lon="-6.1160850">
        <ele>909.8</ele>
        <time>2021-10-03T13:40:29Z</time>
      </trkpt>
      <trkpt lat="42.4576810" lon="-6.1165020">
        <ele>910.0</ele>
        <time>2021-10-03T13:40:36Z</time>
      </trkpt>
      <trkpt lat="42.4575480" lon="-6.1172730">
        <ele>910.4</ele>
        <time>2021-10-03T13:40:48Z</time>
      </trkpt>
      <trkpt lat="42.4574680" lon="-6.1177200">
        <ele>911.2</ele>
        <time>2021-10-03T13:40:55Z</time>
      </trkpt>
      <trkpt lat="42.4573480" lon="-6.1184130">
        <ele>912.4</ele>
        <time>2021-10-03T13:41:06Z</time>
      </trkpt>
      <trkpt lat="42.4572550" lon="-6.1189720">
        <ele>913.4</ele>
        <time>2021-10-03T13:41:15Z</time>
      </trkpt>
      <trkpt lat="42.4571960" lon="-6.1192800">
        <ele>914.2</ele>
        <time>2021-10-03T13:41:20Z</time>
      </trkpt>
      <trkpt lat="42.4571840" lon="-6.1193380">
        <ele>914.6</ele>
        <time>2021-10-03T13:41:21Z</time>
      </trkpt>
      <trkpt lat="42.4570690" lon="-6.1198710">
        <ele>915.8</ele>
        <time>2021-10-03T13:41:30Z</time>
      </trkpt>
      <trkpt lat="42.4569520" lon="-6.1203960">
        <ele>917.0</ele>
        <time>2021-10-03T13:41:39Z</time>
      </trkpt>
      <trkpt lat="42.4568470" lon="-6.1208610">
        <ele>918.0</ele>
        <time>2021-10-03T13:41:47Z</time>
      </trkpt>
      <trkpt lat="42.4567270" lon="-6.1213890">
        <ele>919.2</ele>
        <time>2021-10-03T13:41:56Z</time>
      </trkpt>
      <trkpt lat="42.4566230" lon="-6.1218560">
        <ele>920.2</ele>
        <time>2021-10-03T13:42:04Z</time>
      </trkpt>
      <trkpt lat="42.4564840" lon="-6.1224900">
        <ele>921.4</ele>
        <time>2021-10-03T13:42:14Z</time>
      </trkpt>
      <trkpt lat="42.4563540" lon="-6.1230750">
        <ele>921.4</ele>
        <time>2021-10-03T13:42:23Z</time>
      </trkpt>
      <trkpt lat="42.4562410" lon="-6.1235910">
        <ele>920.8</ele>
        <time>2021-10-03T13:42:31Z</time>
      </trkpt>
      <trkpt lat="42.4561840" lon="-6.1238530">
        <ele>920.8</ele>
        <time>2021-10-03T13:42:35Z</time>
      </trkpt>
      <trkpt lat="42.4560280" lon="-6.1245830">
        <ele>921.8</ele>
        <time>2021-10-03T13:42:46Z</time>
      </trkpt>
      <trkpt lat="42.4558560" lon="-6.1252960">
        <ele>922.4</ele>
        <time>2021-10-03T13:42:57Z</time>
      </trkpt>
      <trkpt lat="42.4558130" lon="-6.1254890">
        <ele>922.6</ele>
        <time>2021-10-03T13:43:00Z</time>
      </trkpt>
      <trkpt lat="42.4556560" lon="-6.1262190">
        <ele>923.4</ele>
        <time>2021-10-03T13:43:12Z</time>
      </trkpt>
      <trkpt lat="42.4556440" lon="-6.1262780">
        <ele>923.6</ele>
        <time>2021-10-03T13:43:13Z</time>
      </trkpt>
      <trkpt lat="42.4555070" lon="-6.1269260">
        <ele>924.2</ele>
        <time>2021-10-03T13:43:24Z</time>
      </trkpt>
      <trkpt lat="42.4554110" lon="-6.1276700">
        <ele>924.8</ele>
        <time>2021-10-03T13:43:36Z</time>
      </trkpt>
      <trkpt lat="42.4553430" lon="-6.1282370">
        <ele>925.8</ele>
        <time>2021-10-03T13:43:46Z</time>
      </trkpt>
      <trkpt lat="42.4552560" lon="-6.1290060">
        <ele>926.4</ele>
        <time>2021-10-03T13:44:00Z</time>
      </trkpt>
      <trkpt lat="42.4552310" lon="-6.1292190">
        <ele>926.8</ele>
        <time>2021-10-03T13:44:04Z</time>
      </trkpt>
      <trkpt lat="42.4552190" lon="-6.1293120">
        <ele>927.0</ele>
        <time>2021-10-03T13:44:06Z</time>
      </trkpt>
      <trkpt lat="42.4551940" lon="-6.1294840">
        <ele>928.8</ele>
        <time>2021-10-03T13:44:10Z</time>
      </trkpt>
      <trkpt lat="42.4551520" lon="-6.1298090">
        <ele>929.8</ele>
        <time>2021-10-03T13:44:16Z</time>
      </trkpt>
      <trkpt lat="42.4550870" lon="-6.1303890">
        <ele>930.8</ele>
        <time>2021-10-03T13:44:25Z</time>
      </trkpt>
      <trkpt lat="42.4550800" lon="-6.1304540">
        <ele>930.8</ele>
        <time>2021-10-03T13:44:26Z</time>
      </trkpt>
      <trkpt lat="42.4549910" lon="-6.1312140">
        <ele>932.0</ele>
        <time>2021-10-03T13:44:38Z</time>
      </trkpt>
      <trkpt lat="42.4549280" lon="-6.1317750">
        <ele>933.0</ele>
        <time>2021-10-03T13:44:47Z</time>
      </trkpt>
      <trkpt lat="42.4549040" lon="-6.1319570">
        <ele>934.2</ele>
        <time>2021-10-03T13:44:50Z</time>
      </trkpt>
      <trkpt lat="42.4548930" lon="-6.1321410">
        <ele>935.6</ele>
        <time>2021-10-03T13:44:53Z</time>
      </trkpt>
      <trkpt lat="42.4548930" lon="-6.1327180">
        <ele>936.6</ele>
        <time>2021-10-03T13:45:03Z</time>
      </trkpt>
      <trkpt lat="42.4549040" lon="-6.1334460">
        <ele>938.0</ele>
        <time>2021-10-03T13:45:17Z</time>
      </trkpt>
      <trkpt lat="42.4549090" lon="-6.1336010">
        <ele>939.2</ele>
        <time>2021-10-03T13:45:20Z</time>
      </trkpt>
      <trkpt lat="42.4549110" lon="-6.1337510">
        <ele>940.4</ele>
        <time>2021-10-03T13:45:23Z</time>
      </trkpt>
      <trkpt lat="42.4549140" lon="-6.1340440">
        <ele>941.4</ele>
        <time>2021-10-03T13:45:29Z</time>
      </trkpt>
      <trkpt lat="42.4549170" lon="-6.1342400">
        <ele>942.6</ele>
        <time>2021-10-03T13:45:33Z</time>
      </trkpt>
      <trkpt lat="42.4548960" lon="-6.1349990">
        <ele>943.6</ele>
        <time>2021-10-03T13:45:48Z</time>
      </trkpt>
      <trkpt lat="42.4548650" lon="-6.1353580">
        <ele>944.6</ele>
        <time>2021-10-03T13:45:55Z</time>
      </trkpt>
      <trkpt lat="42.4548690" lon="-6.1354140">
        <ele>944.6</ele>
        <time>2021-10-03T13:45:56Z</time>
      </trkpt>
      <trkpt lat="42.4548890" lon="-6.1360700">
        <ele>945.8</ele>
        <time>2021-10-03T13:46:08Z</time>
      </trkpt>
      <trkpt lat="42.4548900" lon="-6.1362320">
        <ele>946.8</ele>
        <time>2021-10-03T13:46:11Z</time>
      </trkpt>
      <trkpt lat="42.4548950" lon="-6.1364460">
        <ele>948.2</ele>
        <time>2021-10-03T13:46:15Z</time>
      </trkpt>
      <trkpt lat="42.4548980" lon="-6.1366130">
        <ele>949.2</ele>
        <time>2021-10-03T13:46:18Z</time>
      </trkpt>
      <trkpt lat="42.4548960" lon="-6.1368350">
        <ele>950.6</ele>
        <time>2021-10-03T13:46:22Z</time>
      </trkpt>
      <trkpt lat="42.4548970" lon="-6.1372280">
        <ele>951.8</ele>
        <time>2021-10-03T13:46:29Z</time>
      </trkpt>
      <trkpt lat="42.4548960" lon="-6.1372890">
        <ele>951.6</ele>
        <time>2021-10-03T13:46:30Z</time>
      </trkpt>
      <trkpt lat="42.4548970" lon="-6.1375350">
        <ele>952.2</ele>
        <time>2021-10-03T13:46:34Z</time>
      </trkpt>
      <trkpt lat="42.4549040" lon="-6.1377890">
        <ele>952.6</ele>
        <time>2021-10-03T13:46:38Z</time>
      </trkpt>
      <trkpt lat="42.4549060" lon="-6.1385530">
        <ele>953.8</ele>
        <time>2021-10-03T13:46:50Z</time>
      </trkpt>
      <trkpt lat="42.4549130" lon="-6.1390020">
        <ele>954.8</ele>
        <time>2021-10-03T13:46:57Z</time>
      </trkpt>
      <trkpt lat="42.4549130" lon="-6.1393120">
        <ele>955.8</ele>
        <time>2021-10-03T13:47:02Z</time>
      </trkpt>
      <trkpt lat="42.4549120" lon="-6.1395560">
        <ele>957.0</ele>
        <time>2021-10-03T13:47:06Z</time>
      </trkpt>
      <trkpt lat="42.4549250" lon="-6.1403250">
        <ele>957.8</ele>
        <time>2021-10-03T13:47:18Z</time>
      </trkpt>
      <trkpt lat="42.4549240" lon="-6.1404480">
        <ele>958.0</ele>
        <time>2021-10-03T13:47:20Z</time>
      </trkpt>
      <trkpt lat="42.4549260" lon="-6.1409330">
        <ele>959.2</ele>
        <time>2021-10-03T13:47:28Z</time>
      </trkpt>
      <trkpt lat="42.4549320" lon="-6.1411120">
        <ele>960.4</ele>
        <time>2021-10-03T13:47:31Z</time>
      </trkpt>
      <trkpt lat="42.4549350" lon="-6.1414770">
        <ele>961.6</ele>
        <time>2021-10-03T13:47:37Z</time>
      </trkpt>
      <trkpt lat="42.4549350" lon="-6.1415960">
        <ele>961.8</ele>
        <time>2021-10-03T13:47:39Z</time>
      </trkpt>
      <trkpt lat="42.4549460" lon="-6.1417750">
        <ele>962.6</ele>
        <time>2021-10-03T13:47:42Z</time>
      </trkpt>
      <trkpt lat="42.4549450" lon="-6.1418350">
        <ele>962.8</ele>
        <time>2021-10-03T13:47:43Z</time>
      </trkpt>
      <trkpt lat="42.4549370" lon="-6.1424450">
        <ele>963.8</ele>
        <time>2021-10-03T13:47:53Z</time>
      </trkpt>
      <trkpt lat="42.4549090" lon="-6.1428820">
        <ele>964.8</ele>
        <time>2021-10-03T13:48:00Z</time>
      </trkpt>
      <trkpt lat="42.4548570" lon="-6.1435550">
        <ele>966.2</ele>
        <time>2021-10-03T13:48:11Z</time>
      </trkpt>
      <trkpt lat="42.4548090" lon="-6.1442520">
        <ele>967.0</ele>
        <time>2021-10-03T13:48:22Z</time>
      </trkpt>
      <trkpt lat="42.4547750" lon="-6.1450230">
        <ele>968.0</ele>
        <time>2021-10-03T13:48:34Z</time>
      </trkpt>
      <trkpt lat="42.4547760" lon="-6.1450840">
        <ele>968.2</ele>
        <time>2021-10-03T13:48:35Z</time>
      </trkpt>
      <trkpt lat="42.4548100" lon="-6.1455010">
        <ele>969.2</ele>
        <time>2021-10-03T13:48:42Z</time>
      </trkpt>
      <trkpt lat="42.4548570" lon="-6.1457390">
        <ele>970.6</ele>
        <time>2021-10-03T13:48:46Z</time>
      </trkpt>
      <trkpt lat="42.4549780" lon="-6.1463110">
        <ele>971.6</ele>
        <time>2021-10-03T13:48:56Z</time>
      </trkpt>
      <trkpt lat="42.4550430" lon="-6.1466300">
        <ele>972.6</ele>
        <time>2021-10-03T13:49:02Z</time>
      </trkpt>
      <trkpt lat="42.4551230" lon="-6.1470090">
        <ele>973.6</ele>
        <time>2021-10-03T13:49:09Z</time>
      </trkpt>
      <trkpt lat="42.4551910" lon="-6.1470780">
        <ele>973.8</ele>
        <time>2021-10-03T13:49:11Z</time>
      </trkpt>
      <trkpt lat="42.4552680" lon="-6.1472980">
        <ele>975.0</ele>
        <time>2021-10-03T13:49:15Z</time>
      </trkpt>
      <trkpt lat="42.4553600" lon="-6.1478960">
        <ele>976.2</ele>
        <time>2021-10-03T13:49:25Z</time>
      </trkpt>
      <trkpt lat="42.4554130" lon="-6.1485820">
        <ele>977.4</ele>
        <time>2021-10-03T13:49:36Z</time>
      </trkpt>
      <trkpt lat="42.4554320" lon="-6.1493220">
        <ele>978.4</ele>
        <time>2021-10-03T13:49:47Z</time>
      </trkpt>
      <trkpt lat="42.4553850" lon="-6.1500920">
        <ele>977.8</ele>
        <time>2021-10-03T13:49:58Z</time>
      </trkpt>
      <trkpt lat="42.4553430" lon="-6.1507400">
        <ele>977.2</ele>
        <time>2021-10-03T13:50:07Z</time>
      </trkpt>
      <trkpt lat="42.4553230" lon="-6.1515000">
        <ele>977.0</ele>
        <time>2021-10-03T13:50:18Z</time>
      </trkpt>
      <trkpt lat="42.4553190" lon="-6.1519580">
        <ele>977.0</ele>
        <time>2021-10-03T13:50:25Z</time>
      </trkpt>
      <trkpt lat="42.4553030" lon="-6.1526060">
        <ele>978.6</ele>
        <time>2021-10-03T13:50:35Z</time>
      </trkpt>
      <trkpt lat="42.4552980" lon="-6.1529750">
        <ele>979.8</ele>
        <time>2021-10-03T13:50:41Z</time>
      </trkpt>
      <trkpt lat="42.4553060" lon="-6.1532070">
        <ele>980.8</ele>
        <time>2021-10-03T13:50:45Z</time>
      </trkpt>
      <trkpt lat="42.4553010" lon="-6.1533240">
        <ele>981.0</ele>
        <time>2021-10-03T13:50:47Z</time>
      </trkpt>
      <trkpt lat="42.4552910" lon="-6.1536120">
        <ele>981.2</ele>
        <time>2021-10-03T13:50:52Z</time>
      </trkpt>
      <trkpt lat="42.4552840" lon="-6.1539050">
        <ele>982.0</ele>
        <time>2021-10-03T13:50:57Z</time>
      </trkpt>
      <trkpt lat="42.4552670" lon="-6.1543220">
        <ele>983.0</ele>
        <time>2021-10-03T13:51:04Z</time>
      </trkpt>
      <trkpt lat="42.4552480" lon="-6.1547580">
        <ele>984.2</ele>
        <time>2021-10-03T13:51:11Z</time>
      </trkpt>
      <trkpt lat="42.4552240" lon="-6.1551380">
        <ele>985.2</ele>
        <time>2021-10-03T13:51:17Z</time>
      </trkpt>
      <trkpt lat="42.4551790" lon="-6.1557710">
        <ele>986.0</ele>
        <time>2021-10-03T13:51:27Z</time>
      </trkpt>
      <trkpt lat="42.4551660" lon="-6.1558910">
        <ele>986.0</ele>
        <time>2021-10-03T13:51:29Z</time>
      </trkpt>
      <trkpt lat="42.4550700" lon="-6.1561450">
        <ele>986.0</ele>
        <time>2021-10-03T13:51:34Z</time>
      </trkpt>
      <trkpt lat="42.4550620" lon="-6.1565810">
        <ele>986.0</ele>
        <time>2021-10-03T13:51:41Z</time>
      </trkpt>
      <trkpt lat="42.4550830" lon="-6.1572340">
        <ele>986.0</ele>
        <time>2021-10-03T13:51:51Z</time>
      </trkpt>
      <trkpt lat="42.4551110" lon="-6.1576120">
        <ele>986.0</ele>
        <time>2021-10-03T13:51:57Z</time>
      </trkpt>
      <trkpt lat="42.4551100" lon="-6.1576760">
        <ele>986.4</ele>
        <time>2021-10-03T13:51:58Z</time>
      </trkpt>
      <trkpt lat="42.4551130" lon="-6.1577410">
        <ele>986.6</ele>
        <time>2021-10-03T13:51:59Z</time>
      </trkpt>
      <trkpt lat="42.4551550" lon="-6.1580490">
        <ele>987.0</ele>
        <time>2021-10-03T13:52:04Z</time>
      </trkpt>
      <trkpt lat="42.4551860" lon="-6.1583970">
        <ele>987.2</ele>
        <time>2021-10-03T13:52:10Z</time>
      </trkpt>
      <trkpt lat="42.4552510" lon="-6.1587530">
        <ele>987.2</ele>
        <time>2021-10-03T13:52:16Z</time>
      </trkpt>
      <trkpt lat="42.4552700" lon="-6.1588620">
        <ele>987.4</ele>
        <time>2021-10-03T13:52:18Z</time>
      </trkpt>
      <trkpt lat="42.4553520" lon="-6.1593760">
        <ele>988.4</ele>
        <time>2021-10-03T13:52:27Z</time>
      </trkpt>
      <trkpt lat="42.4554090" lon="-6.1597440">
        <ele>989.2</ele>
        <time>2021-10-03T13:52:33Z</time>
      </trkpt>
      <trkpt lat="42.4554920" lon="-6.1605160">
        <ele>989.4</ele>
        <time>2021-10-03T13:52:45Z</time>
      </trkpt>
      <trkpt lat="42.4555570" lon="-6.1611650">
        <ele>989.4</ele>
        <time>2021-10-03T13:52:55Z</time>
      </trkpt>
      <trkpt lat="42.4555930" lon="-6.1616700">
        <ele>989.4</ele>
        <time>2021-10-03T13:53:03Z</time>
      </trkpt>
      <trkpt lat="42.4555880" lon="-6.1621210">
        <ele>989.4</ele>
        <time>2021-10-03T13:53:10Z</time>
      </trkpt>
      <trkpt lat="42.4555720" lon="-6.1623160">
        <ele>989.4</ele>
        <time>2021-10-03T13:53:13Z</time>
      </trkpt>
      <trkpt lat="42.4556770" lon="-6.1629440">
        <ele>988.4</ele>
        <time>2021-10-03T13:53:23Z</time>
      </trkpt>
      <trkpt lat="42.4557300" lon="-6.1632480">
        <ele>987.4</ele>
        <time>2021-10-03T13:53:28Z</time>
      </trkpt>
      <trkpt lat="42.4558160" lon="-6.1636840">
        <ele>987.2</ele>
        <time>2021-10-03T13:53:35Z</time>
      </trkpt>
      <trkpt lat="42.4558790" lon="-6.1639960">
        <ele>987.2</ele>
        <time>2021-10-03T13:53:40Z</time>
      </trkpt>
      <trkpt lat="42.4559430" lon="-6.1643070">
        <ele>987.6</ele>
        <time>2021-10-03T13:53:45Z</time>
      </trkpt>
      <trkpt lat="42.4559900" lon="-6.1645580">
        <ele>988.4</ele>
        <time>2021-10-03T13:53:49Z</time>
      </trkpt>
      <trkpt lat="42.4560630" lon="-6.1649280">
        <ele>989.6</ele>
        <time>2021-10-03T13:53:55Z</time>
      </trkpt>
      <trkpt lat="42.4561560" lon="-6.1654060">
        <ele>990.0</ele>
        <time>2021-10-03T13:54:03Z</time>
      </trkpt>
      <trkpt lat="42.4562080" lon="-6.1656300">
        <ele>990.2</ele>
        <time>2021-10-03T13:54:07Z</time>
      </trkpt>
      <trkpt lat="42.4562940" lon="-6.1657650">
        <ele>990.6</ele>
        <time>2021-10-03T13:54:10Z</time>
      </trkpt>
      <trkpt lat="42.4563440" lon="-6.1659200">
        <ele>991.6</ele>
        <time>2021-10-03T13:54:13Z</time>
      </trkpt>
      <trkpt lat="42.4563910" lon="-6.1661590">
        <ele>992.8</ele>
        <time>2021-10-03T13:54:17Z</time>
      </trkpt>
      <trkpt lat="42.4565380" lon="-6.1668830">
        <ele>993.0</ele>
        <time>2021-10-03T13:54:29Z</time>
      </trkpt>
      <trkpt lat="42.4566710" lon="-6.1675990">
        <ele>993.6</ele>
        <time>2021-10-03T13:54:41Z</time>
      </trkpt>
      <trkpt lat="42.4566830" lon="-6.1676580">
        <ele>993.8</ele>
        <time>2021-10-03T13:54:42Z</time>
      </trkpt>
      <trkpt lat="42.4567740" lon="-6.1681290">
        <ele>994.2</ele>
        <time>2021-10-03T13:54:50Z</time>
      </trkpt>
      <trkpt lat="42.4567880" lon="-6.1682490">
        <ele>994.2</ele>
        <time>2021-10-03T13:54:52Z</time>
      </trkpt>
      <trkpt lat="42.4569330" lon="-6.1690040">
        <ele>993.2</ele>
        <time>2021-10-03T13:55:04Z</time>
      </trkpt>
      <trkpt lat="42.4569960" lon="-6.1693320">
        <ele>993.2</ele>
        <time>2021-10-03T13:55:09Z</time>
      </trkpt>
      <trkpt lat="42.4571420" lon="-6.1700530">
        <ele>993.4</ele>
        <time>2021-10-03T13:55:20Z</time>
      </trkpt>
      <trkpt lat="42.4572770" lon="-6.1707990">
        <ele>993.2</ele>
        <time>2021-10-03T13:55:32Z</time>
      </trkpt>
      <trkpt lat="42.4573600" lon="-6.1712290">
        <ele>994.2</ele>
        <time>2021-10-03T13:55:39Z</time>
      </trkpt>
      <trkpt lat="42.4574230" lon="-6.1715340">
        <ele>994.6</ele>
        <time>2021-10-03T13:55:44Z</time>
      </trkpt>
      <trkpt lat="42.4575350" lon="-6.1721200">
        <ele>994.8</ele>
        <time>2021-10-03T13:55:54Z</time>
      </trkpt>
      <trkpt lat="42.4576710" lon="-6.1728340">
        <ele>995.6</ele>
        <time>2021-10-03T13:56:07Z</time>
      </trkpt>
      <trkpt lat="42.4576920" lon="-6.1729430">
        <ele>995.8</ele>
        <time>2021-10-03T13:56:09Z</time>
      </trkpt>
      <trkpt lat="42.4577780" lon="-6.1733800">
        <ele>997.2</ele>
        <time>2021-10-03T13:56:17Z</time>
      </trkpt>
      <trkpt lat="42.4578310" lon="-6.1736440">
        <ele>998.4</ele>
        <time>2021-10-03T13:56:22Z</time>
      </trkpt>
      <trkpt lat="42.4579730" lon="-6.1743500">
        <ele>999.2</ele>
        <time>2021-10-03T13:56:36Z</time>
      </trkpt>
      <trkpt lat="42.4579830" lon="-6.1743990">
        <ele>999.4</ele>
        <time>2021-10-03T13:56:37Z</time>
      </trkpt>
      <trkpt lat="42.4580560" lon="-6.1747750">
        <ele>1000.4</ele>
        <time>2021-10-03T13:56:45Z</time>
      </trkpt>
      <trkpt lat="42.4580990" lon="-6.1750240">
        <ele>1001.6</ele>
        <time>2021-10-03T13:56:50Z</time>
      </trkpt>
      <trkpt lat="42.4581580" lon="-6.1753270">
        <ele>1002.2</ele>
        <time>2021-10-03T13:56:56Z</time>
      </trkpt>
      <trkpt lat="42.4582060" lon="-6.1755680">
        <ele>1002.6</ele>
        <time>2021-10-03T13:57:01Z</time>
      </trkpt>
      <trkpt lat="42.4583350" lon="-6.1762670">
        <ele>1003.6</ele>
        <time>2021-10-03T13:57:15Z</time>
      </trkpt>
      <trkpt lat="42.4584590" lon="-6.1769820">
        <ele>1004.6</ele>
        <time>2021-10-03T13:57:27Z</time>
      </trkpt>
      <trkpt lat="42.4584690" lon="-6.1770460">
        <ele>1004.6</ele>
        <time>2021-10-03T13:57:28Z</time>
      </trkpt>
      <trkpt lat="42.4585870" lon="-6.1777960">
        <ele>1004.4</ele>
        <time>2021-10-03T13:57:40Z</time>
      </trkpt>
      <trkpt lat="42.4586370" lon="-6.1781020">
        <ele>1004.8</ele>
        <time>2021-10-03T13:57:45Z</time>
      </trkpt>
      <trkpt lat="42.4587280" lon="-6.1786990">
        <ele>1004.6</ele>
        <time>2021-10-03T13:57:55Z</time>
      </trkpt>
      <trkpt lat="42.4588460" lon="-6.1794450">
        <ele>1004.4</ele>
        <time>2021-10-03T13:58:08Z</time>
      </trkpt>
      <trkpt lat="42.4589470" lon="-6.1801430">
        <ele>1005.0</ele>
        <time>2021-10-03T13:58:19Z</time>
      </trkpt>
      <trkpt lat="42.4590580" lon="-6.1808710">
        <ele>1005.4</ele>
        <time>2021-10-03T13:58:30Z</time>
      </trkpt>
      <trkpt lat="42.4590920" lon="-6.1810710">
        <ele>1006.0</ele>
        <time>2021-10-03T13:58:33Z</time>
      </trkpt>
      <trkpt lat="42.4592050" lon="-6.1818230">
        <ele>1006.8</ele>
        <time>2021-10-03T13:58:44Z</time>
      </trkpt>
      <trkpt lat="42.4592990" lon="-6.1824100">
        <ele>1006.0</ele>
        <time>2021-10-03T13:58:52Z</time>
      </trkpt>
      <trkpt lat="42.4593230" lon="-6.1825530">
        <ele>1005.8</ele>
        <time>2021-10-03T13:58:54Z</time>
      </trkpt>
      <trkpt lat="42.4594530" lon="-6.1832910">
        <ele>1005.8</ele>
        <time>2021-10-03T13:59:04Z</time>
      </trkpt>
      <trkpt lat="42.4596570" lon="-6.1839120">
        <ele>1006.6</ele>
        <time>2021-10-03T13:59:13Z</time>
      </trkpt>
      <trkpt lat="42.4597320" lon="-6.1841060">
        <ele>1006.8</ele>
        <time>2021-10-03T13:59:16Z</time>
      </trkpt>
      <trkpt lat="42.4597910" lon="-6.1842280">
        <ele>1006.8</ele>
        <time>2021-10-03T13:59:18Z</time>
      </trkpt>
      <trkpt lat="42.4600140" lon="-6.1849120">
        <ele>1006.4</ele>
        <time>2021-10-03T13:59:28Z</time>
      </trkpt>
      <trkpt lat="42.4600930" lon="-6.1853340">
        <ele>1006.4</ele>
        <time>2021-10-03T13:59:34Z</time>
      </trkpt>
      <trkpt lat="42.4601390" lon="-6.1856940">
        <ele>1006.6</ele>
        <time>2021-10-03T13:59:41Z</time>
      </trkpt>
      <trkpt lat="42.4601550" lon="-6.1858260">
        <ele>1006.8</ele>
        <time>2021-10-03T13:59:43Z</time>
      </trkpt>
      <trkpt lat="42.4601830" lon="-6.1860190">
        <ele>1006.4</ele>
        <time>2021-10-03T13:59:46Z</time>
      </trkpt>
      <trkpt lat="42.4602280" lon="-6.1863320">
        <ele>1006.6</ele>
        <time>2021-10-03T13:59:51Z</time>
      </trkpt>
      <trkpt lat="42.4602860" lon="-6.1867490">
        <ele>1006.2</ele>
        <time>2021-10-03T13:59:58Z</time>
      </trkpt>
      <trkpt lat="42.4603660" lon="-6.1873030">
        <ele>1008.0</ele>
        <time>2021-10-03T14:00:08Z</time>
      </trkpt>
      <trkpt lat="42.4604300" lon="-6.1877390">
        <ele>1009.0</ele>
        <time>2021-10-03T14:00:16Z</time>
      </trkpt>
      <trkpt lat="42.4605190" lon="-6.1883620">
        <ele>1010.0</ele>
        <time>2021-10-03T14:00:28Z</time>
      </trkpt>
      <trkpt lat="42.4606010" lon="-6.1889340">
        <ele>1011.2</ele>
        <time>2021-10-03T14:00:39Z</time>
      </trkpt>
      <trkpt lat="42.4606360" lon="-6.1891940">
        <ele>1012.4</ele>
        <time>2021-10-03T14:00:44Z</time>
      </trkpt>
      <trkpt lat="42.4606870" lon="-6.1894970">
        <ele>1013.4</ele>
        <time>2021-10-03T14:00:50Z</time>
      </trkpt>
      <trkpt lat="42.4607530" lon="-6.1899990">
        <ele>1014.6</ele>
        <time>2021-10-03T14:01:00Z</time>
      </trkpt>
      <trkpt lat="42.4608840" lon="-6.1907540">
        <ele>1015.6</ele>
        <time>2021-10-03T14:01:15Z</time>
      </trkpt>
      <trkpt lat="42.4609980" lon="-6.1914820">
        <ele>1016.0</ele>
        <time>2021-10-03T14:01:28Z</time>
      </trkpt>
      <trkpt lat="42.4610370" lon="-6.1917460">
        <ele>1016.2</ele>
        <time>2021-10-03T14:01:32Z</time>
      </trkpt>
      <trkpt lat="42.4611220" lon="-6.1925100">
        <ele>1016.0</ele>
        <time>2021-10-03T14:01:44Z</time>
      </trkpt>
      <trkpt lat="42.4611340" lon="-6.1928200">
        <ele>1016.0</ele>
        <time>2021-10-03T14:01:49Z</time>
      </trkpt>
      <trkpt lat="42.4611370" lon="-6.1934940">
        <ele>1016.2</ele>
        <time>2021-10-03T14:02:00Z</time>
      </trkpt>
      <trkpt lat="42.4611400" lon="-6.1936770">
        <ele>1016.2</ele>
        <time>2021-10-03T14:02:03Z</time>
      </trkpt>
      <trkpt lat="42.4611290" lon="-6.1944460">
        <ele>1016.2</ele>
        <time>2021-10-03T14:02:16Z</time>
      </trkpt>
      <trkpt lat="42.4611190" lon="-6.1951370">
        <ele>1016.6</ele>
        <time>2021-10-03T14:02:28Z</time>
      </trkpt>
      <trkpt lat="42.4611160" lon="-6.1956640">
        <ele>1017.2</ele>
        <time>2021-10-03T14:02:38Z</time>
      </trkpt>
      <trkpt lat="42.4611030" lon="-6.1958230">
        <ele>1017.6</ele>
        <time>2021-10-03T14:02:43Z</time>
      </trkpt>
      <trkpt lat="42.4610930" lon="-6.1958300">
        <ele>1018.0</ele>
        <time>2021-10-03T14:02:45Z</time>
      </trkpt>
      <trkpt lat="42.4610750" lon="-6.1958340">
        <ele>1018.6</ele>
        <time>2021-10-03T14:02:47Z</time>
      </trkpt>
      <trkpt lat="42.4610740" lon="-6.1958340">
        <ele>1020.6</ele>
        <time>2021-10-03T14:02:49Z</time>
      </trkpt>
      <trkpt lat="42.4611120" lon="-6.1958990">
        <ele>1022.2</ele>
        <time>2021-10-03T14:06:14Z</time>
      </trkpt>
      <trkpt lat="42.4611120" lon="-6.1959300">
        <ele>1021.8</ele>
        <time>2021-10-03T14:06:15Z</time>
      </trkpt>
      <trkpt lat="42.4611130" lon="-6.1960060">
        <ele>1021.0</ele>
        <time>2021-10-03T14:06:17Z</time>
      </trkpt>
      <trkpt lat="42.4611170" lon="-6.1961910">
        <ele>1020.4</ele>
        <time>2021-10-03T14:06:21Z</time>
      </trkpt>
      <trkpt lat="42.4611150" lon="-6.1962890">
        <ele>1019.6</ele>
        <time>2021-10-03T14:06:23Z</time>
      </trkpt>
      <trkpt lat="42.4611120" lon="-6.1964350">
        <ele>1019.2</ele>
        <time>2021-10-03T14:06:26Z</time>
      </trkpt>
      <trkpt lat="42.4611100" lon="-6.1966700">
        <ele>1019.2</ele>
        <time>2021-10-03T14:06:31Z</time>
      </trkpt>
      <trkpt lat="42.4611060" lon="-6.1969520">
        <ele>1019.8</ele>
        <time>2021-10-03T14:06:37Z</time>
      </trkpt>
      <trkpt lat="42.4611030" lon="-6.1972550">
        <ele>1020.2</ele>
        <time>2021-10-03T14:06:43Z</time>
      </trkpt>
      <trkpt lat="42.4611040" lon="-6.1974650">
        <ele>1020.6</ele>
        <time>2021-10-03T14:06:47Z</time>
      </trkpt>
      <trkpt lat="42.4611010" lon="-6.1975180">
        <ele>1020.8</ele>
        <time>2021-10-03T14:06:48Z</time>
      </trkpt>
      <trkpt lat="42.4610940" lon="-6.1977790">
        <ele>1021.2</ele>
        <time>2021-10-03T14:06:53Z</time>
      </trkpt>
      <trkpt lat="42.4610900" lon="-6.1979930">
        <ele>1021.2</ele>
        <time>2021-10-03T14:06:57Z</time>
      </trkpt>
      <trkpt lat="42.4611110" lon="-6.1987040">
        <ele>1021.8</ele>
        <time>2021-10-03T14:07:10Z</time>
      </trkpt>
      <trkpt lat="42.4612560" lon="-6.1994670">
        <ele>1021.6</ele>
        <time>2021-10-03T14:07:23Z</time>
      </trkpt>
      <trkpt lat="42.4614050" lon="-6.2002010">
        <ele>1021.4</ele>
        <time>2021-10-03T14:07:35Z</time>
      </trkpt>
      <trkpt lat="42.4614440" lon="-6.2005070">
        <ele>1020.8</ele>
        <time>2021-10-03T14:07:40Z</time>
      </trkpt>
      <trkpt lat="42.4614720" lon="-6.2012700">
        <ele>1021.0</ele>
        <time>2021-10-03T14:07:52Z</time>
      </trkpt>
      <trkpt lat="42.4615780" lon="-6.2019860">
        <ele>1020.4</ele>
        <time>2021-10-03T14:08:03Z</time>
      </trkpt>
      <trkpt lat="42.4616570" lon="-6.2023650">
        <ele>1019.8</ele>
        <time>2021-10-03T14:08:09Z</time>
      </trkpt>
      <trkpt lat="42.4617140" lon="-6.2026680">
        <ele>1019.4</ele>
        <time>2021-10-03T14:08:14Z</time>
      </trkpt>
      <trkpt lat="42.4617210" lon="-6.2028330">
        <ele>1019.6</ele>
        <time>2021-10-03T14:08:17Z</time>
      </trkpt>
      <trkpt lat="42.4617100" lon="-6.2031360">
        <ele>1019.4</ele>
        <time>2021-10-03T14:08:22Z</time>
      </trkpt>
      <trkpt lat="42.4618770" lon="-6.2038910">
        <ele>1019.4</ele>
        <time>2021-10-03T14:08:33Z</time>
      </trkpt>
      <trkpt lat="42.4619790" lon="-6.2043080">
        <ele>1019.2</ele>
        <time>2021-10-03T14:08:39Z</time>
      </trkpt>
      <trkpt lat="42.4623330" lon="-6.2049210">
        <ele>1019.2</ele>
        <time>2021-10-03T14:08:50Z</time>
      </trkpt>
      <trkpt lat="42.4624820" lon="-6.2051960">
        <ele>1019.4</ele>
        <time>2021-10-03T14:08:55Z</time>
      </trkpt>
      <trkpt lat="42.4627560" lon="-6.2058950">
        <ele>1020.2</ele>
        <time>2021-10-03T14:09:07Z</time>
      </trkpt>
      <trkpt lat="42.4628270" lon="-6.2062110">
        <ele>1020.6</ele>
        <time>2021-10-03T14:09:12Z</time>
      </trkpt>
      <trkpt lat="42.4628190" lon="-6.2063480">
        <ele>1020.8</ele>
        <time>2021-10-03T14:09:14Z</time>
      </trkpt>
      <trkpt lat="42.4627880" lon="-6.2066840">
        <ele>1021.2</ele>
        <time>2021-10-03T14:09:19Z</time>
      </trkpt>
      <trkpt lat="42.4627800" lon="-6.2068840">
        <ele>1021.4</ele>
        <time>2021-10-03T14:09:22Z</time>
      </trkpt>
      <trkpt lat="42.4628860" lon="-6.2071810">
        <ele>1021.4</ele>
        <time>2021-10-03T14:09:27Z</time>
      </trkpt>
      <trkpt lat="42.4629570" lon="-6.2073490">
        <ele>1021.4</ele>
        <time>2021-10-03T14:09:30Z</time>
      </trkpt>
      <trkpt lat="42.4630460" lon="-6.2076240">
        <ele>1021.4</ele>
        <time>2021-10-03T14:09:35Z</time>
      </trkpt>
      <trkpt lat="42.4630570" lon="-6.2076830">
        <ele>1021.4</ele>
        <time>2021-10-03T14:09:36Z</time>
      </trkpt>
      <trkpt lat="42.4630750" lon="-6.2079620">
        <ele>1021.4</ele>
        <time>2021-10-03T14:09:40Z</time>
      </trkpt>
      <trkpt lat="42.4630110" lon="-6.2081550">
        <ele>1021.6</ele>
        <time>2021-10-03T14:09:43Z</time>
      </trkpt>
      <trkpt lat="42.4629750" lon="-6.2082120">
        <ele>1021.6</ele>
        <time>2021-10-03T14:09:44Z</time>
      </trkpt>
      <trkpt lat="42.4629360" lon="-6.2082640">
        <ele>1021.6</ele>
        <time>2021-10-03T14:09:45Z</time>
      </trkpt>
      <trkpt lat="42.4627000" lon="-6.2083940">
        <ele>1021.6</ele>
        <time>2021-10-03T14:09:50Z</time>
      </trkpt>
      <trkpt lat="42.4626400" lon="-6.2084280">
        <ele>1021.2</ele>
        <time>2021-10-03T14:09:52Z</time>
      </trkpt>
      <trkpt lat="42.4626250" lon="-6.2087500">
        <ele>1021.0</ele>
        <time>2021-10-03T14:09:58Z</time>
      </trkpt>
      <trkpt lat="42.4626760" lon="-6.2090830">
        <ele>1019.6</ele>
        <time>2021-10-03T14:10:03Z</time>
      </trkpt>
      <trkpt lat="42.4627140" lon="-6.2093530">
        <ele>1018.6</ele>
        <time>2021-10-03T14:10:07Z</time>
      </trkpt>
      <trkpt lat="42.4627560" lon="-6.2099040">
        <ele>1017.8</ele>
        <time>2021-10-03T14:10:15Z</time>
      </trkpt>
      <trkpt lat="42.4628190" lon="-6.2105410">
        <ele>1017.6</ele>
        <time>2021-10-03T14:10:25Z</time>
      </trkpt>
      <trkpt lat="42.4628510" lon="-6.2107980">
        <ele>1017.2</ele>
        <time>2021-10-03T14:10:30Z</time>
      </trkpt>
      <trkpt lat="42.4628850" lon="-6.2108380">
        <ele>1017.2</ele>
        <time>2021-10-03T14:10:34Z</time>
      </trkpt>
      <trkpt lat="42.4628920" lon="-6.2108390">
        <ele>1017.8</ele>
        <time>2021-10-03T14:10:37Z</time>
      </trkpt>
      <trkpt lat="42.4628370" lon="-6.2108840">
        <ele>1021.2</ele>
        <time>2021-10-03T14:12:42Z</time>
      </trkpt>
      <trkpt lat="42.4628300" lon="-6.2109120">
        <ele>1021.2</ele>
        <time>2021-10-03T14:12:43Z</time>
      </trkpt>
      <trkpt lat="42.4628400" lon="-6.2110250">
        <ele>1021.0</ele>
        <time>2021-10-03T14:12:46Z</time>
      </trkpt>
      <trkpt lat="42.4628470" lon="-6.2111270">
        <ele>1020.8</ele>
        <time>2021-10-03T14:12:48Z</time>
      </trkpt>
      <trkpt lat="42.4628560" lon="-6.2112980">
        <ele>1019.8</ele>
        <time>2021-10-03T14:12:51Z</time>
      </trkpt>
      <trkpt lat="42.4628640" lon="-6.2114060">
        <ele>1018.0</ele>
        <time>2021-10-03T14:12:53Z</time>
      </trkpt>
      <trkpt lat="42.4628800" lon="-6.2117540">
        <ele>1017.2</ele>
        <time>2021-10-03T14:12:59Z</time>
      </trkpt>
      <trkpt lat="42.4628930" lon="-6.2120120">
        <ele>1017.0</ele>
        <time>2021-10-03T14:13:03Z</time>
      </trkpt>
      <trkpt lat="42.4629090" lon="-6.2122780">
        <ele>1016.6</ele>
        <time>2021-10-03T14:13:07Z</time>
      </trkpt>
      <trkpt lat="42.4629250" lon="-6.2125570">
        <ele>1015.6</ele>
        <time>2021-10-03T14:13:11Z</time>
      </trkpt>
      <trkpt lat="42.4629730" lon="-6.2133000">
        <ele>1014.6</ele>
        <time>2021-10-03T14:13:21Z</time>
      </trkpt>
      <trkpt lat="42.4630100" lon="-6.2140130">
        <ele>1013.8</ele>
        <time>2021-10-03T14:13:30Z</time>
      </trkpt>
      <trkpt lat="42.4630320" lon="-6.2144110">
        <ele>1013.6</ele>
        <time>2021-10-03T14:13:35Z</time>
      </trkpt>
      <trkpt lat="42.4630480" lon="-6.2147160">
        <ele>1013.6</ele>
        <time>2021-10-03T14:13:39Z</time>
      </trkpt>
      <trkpt lat="42.4630690" lon="-6.2150120">
        <ele>1013.6</ele>
        <time>2021-10-03T14:13:43Z</time>
      </trkpt>
      <trkpt lat="42.4630880" lon="-6.2152230">
        <ele>1013.6</ele>
        <time>2021-10-03T14:13:46Z</time>
      </trkpt>
      <trkpt lat="42.4631320" lon="-6.2154960">
        <ele>1013.8</ele>
        <time>2021-10-03T14:13:50Z</time>
      </trkpt>
      <trkpt lat="42.4632170" lon="-6.2158830">
        <ele>1014.6</ele>
        <time>2021-10-03T14:13:56Z</time>
      </trkpt>
      <trkpt lat="42.4632800" lon="-6.2161820">
        <ele>1015.6</ele>
        <time>2021-10-03T14:14:01Z</time>
      </trkpt>
      <trkpt lat="42.4634380" lon="-6.2169020">
        <ele>1016.2</ele>
        <time>2021-10-03T14:14:13Z</time>
      </trkpt>
      <trkpt lat="42.4635110" lon="-6.2172090">
        <ele>1016.4</ele>
        <time>2021-10-03T14:14:18Z</time>
      </trkpt>
      <trkpt lat="42.4635670" lon="-6.2173960">
        <ele>1016.4</ele>
        <time>2021-10-03T14:14:21Z</time>
      </trkpt>
      <trkpt lat="42.4637180" lon="-6.2176580">
        <ele>1016.4</ele>
        <time>2021-10-03T14:14:26Z</time>
      </trkpt>
      <trkpt lat="42.4639430" lon="-6.2179160">
        <ele>1016.4</ele>
        <time>2021-10-03T14:14:32Z</time>
      </trkpt>
      <trkpt lat="42.4643690" lon="-6.2184010">
        <ele>1015.8</ele>
        <time>2021-10-03T14:14:43Z</time>
      </trkpt>
      <trkpt lat="42.4644010" lon="-6.2184530">
        <ele>1015.6</ele>
        <time>2021-10-03T14:14:44Z</time>
      </trkpt>
      <trkpt lat="42.4644440" lon="-6.2189120">
        <ele>1015.6</ele>
        <time>2021-10-03T14:14:51Z</time>
      </trkpt>
      <trkpt lat="42.4643820" lon="-6.2192480">
        <ele>1016.2</ele>
        <time>2021-10-03T14:14:56Z</time>
      </trkpt>
      <trkpt lat="42.4643590" lon="-6.2193830">
        <ele>1016.6</ele>
        <time>2021-10-03T14:14:58Z</time>
      </trkpt>
      <trkpt lat="42.4643010" lon="-6.2197190">
        <ele>1017.4</ele>
        <time>2021-10-03T14:15:03Z</time>
      </trkpt>
      <trkpt lat="42.4642880" lon="-6.2197850">
        <ele>1017.8</ele>
        <time>2021-10-03T14:15:04Z</time>
      </trkpt>
      <trkpt lat="42.4642310" lon="-6.2201150">
        <ele>1019.0</ele>
        <time>2021-10-03T14:15:09Z</time>
      </trkpt>
      <trkpt lat="42.4641950" lon="-6.2203100">
        <ele>1020.2</ele>
        <time>2021-10-03T14:15:12Z</time>
      </trkpt>
      <trkpt lat="42.4641590" lon="-6.2205010">
        <ele>1021.4</ele>
        <time>2021-10-03T14:15:15Z</time>
      </trkpt>
      <trkpt lat="42.4641040" lon="-6.2208000">
        <ele>1022.6</ele>
        <time>2021-10-03T14:15:20Z</time>
      </trkpt>
      <trkpt lat="42.4639990" lon="-6.2214900">
        <ele>1023.6</ele>
        <time>2021-10-03T14:15:32Z</time>
      </trkpt>
      <trkpt lat="42.4639770" lon="-6.2218280">
        <ele>1024.8</ele>
        <time>2021-10-03T14:15:38Z</time>
      </trkpt>
      <trkpt lat="42.4639680" lon="-6.2219400">
        <ele>1025.8</ele>
        <time>2021-10-03T14:15:40Z</time>
      </trkpt>
      <trkpt lat="42.4639660" lon="-6.2219940">
        <ele>1026.0</ele>
        <time>2021-10-03T14:15:41Z</time>
      </trkpt>
      <trkpt lat="42.4639730" lon="-6.2223600">
        <ele>1026.8</ele>
        <time>2021-10-03T14:15:48Z</time>
      </trkpt>
      <trkpt lat="42.4639760" lon="-6.2226750">
        <ele>1027.8</ele>
        <time>2021-10-03T14:15:54Z</time>
      </trkpt>
      <trkpt lat="42.4639790" lon="-6.2228870">
        <ele>1029.0</ele>
        <time>2021-10-03T14:15:58Z</time>
      </trkpt>
      <trkpt lat="42.4640120" lon="-6.2234770">
        <ele>1029.6</ele>
        <time>2021-10-03T14:16:08Z</time>
      </trkpt>
      <trkpt lat="42.4640290" lon="-6.2237220">
        <ele>1029.6</ele>
        <time>2021-10-03T14:16:12Z</time>
      </trkpt>
      <trkpt lat="42.4640470" lon="-6.2240380">
        <ele>1029.6</ele>
        <time>2021-10-03T14:16:17Z</time>
      </trkpt>
      <trkpt lat="42.4640760" lon="-6.2243750">
        <ele>1029.6</ele>
        <time>2021-10-03T14:16:22Z</time>
      </trkpt>
      <trkpt lat="42.4642460" lon="-6.2250830">
        <ele>1029.8</ele>
        <time>2021-10-03T14:16:33Z</time>
      </trkpt>
      <trkpt lat="42.4642900" lon="-6.2251950">
        <ele>1030.0</ele>
        <time>2021-10-03T14:16:35Z</time>
      </trkpt>
      <trkpt lat="42.4643790" lon="-6.2253980">
        <ele>1030.0</ele>
        <time>2021-10-03T14:16:39Z</time>
      </trkpt>
      <trkpt lat="42.4644510" lon="-6.2255020">
        <ele>1030.6</ele>
        <time>2021-10-03T14:16:42Z</time>
      </trkpt>
      <trkpt lat="42.4644610" lon="-6.2255370">
        <ele>1031.0</ele>
        <time>2021-10-03T14:16:43Z</time>
      </trkpt>
      <trkpt lat="42.4645680" lon="-6.2258230">
        <ele>1032.2</ele>
        <time>2021-10-03T14:16:50Z</time>
      </trkpt>
      <trkpt lat="42.4646420" lon="-6.2260310">
        <ele>1033.2</ele>
        <time>2021-10-03T14:16:54Z</time>
      </trkpt>
      <trkpt lat="42.4647370" lon="-6.2262970">
        <ele>1033.4</ele>
        <time>2021-10-03T14:16:59Z</time>
      </trkpt>
      <trkpt lat="42.4649830" lon="-6.2269530">
        <ele>1034.2</ele>
        <time>2021-10-03T14:17:12Z</time>
      </trkpt>
      <trkpt lat="42.4650180" lon="-6.2270540">
        <ele>1034.4</ele>
        <time>2021-10-03T14:17:14Z</time>
      </trkpt>
      <trkpt lat="42.4651900" lon="-6.2275280">
        <ele>1035.4</ele>
        <time>2021-10-03T14:17:23Z</time>
      </trkpt>
      <trkpt lat="42.4653050" lon="-6.2278490">
        <ele>1036.4</ele>
        <time>2021-10-03T14:17:29Z</time>
      </trkpt>
      <trkpt lat="42.4654540" lon="-6.2282340">
        <ele>1037.8</ele>
        <time>2021-10-03T14:17:36Z</time>
      </trkpt>
      <trkpt lat="42.4655030" lon="-6.2283410">
        <ele>1038.0</ele>
        <time>2021-10-03T14:17:38Z</time>
      </trkpt>
      <trkpt lat="42.4655530" lon="-6.2285670">
        <ele>1038.2</ele>
        <time>2021-10-03T14:17:42Z</time>
      </trkpt>
      <trkpt lat="42.4655710" lon="-6.2286200">
        <ele>1038.2</ele>
        <time>2021-10-03T14:17:43Z</time>
      </trkpt>
      <trkpt lat="42.4657880" lon="-6.2292210">
        <ele>1038.8</ele>
        <time>2021-10-03T14:17:55Z</time>
      </trkpt>
      <trkpt lat="42.4658780" lon="-6.2294600">
        <ele>1039.8</ele>
        <time>2021-10-03T14:18:00Z</time>
      </trkpt>
      <trkpt lat="42.4659340" lon="-6.2296440">
        <ele>1041.0</ele>
        <time>2021-10-03T14:18:04Z</time>
      </trkpt>
      <trkpt lat="42.4660150" lon="-6.2298820">
        <ele>1042.0</ele>
        <time>2021-10-03T14:18:09Z</time>
      </trkpt>
      <trkpt lat="42.4661670" lon="-6.2303090">
        <ele>1043.2</ele>
        <time>2021-10-03T14:18:18Z</time>
      </trkpt>
      <trkpt lat="42.4663060" lon="-6.2306210">
        <ele>1044.2</ele>
        <time>2021-10-03T14:18:25Z</time>
      </trkpt>
      <trkpt lat="42.4665470" lon="-6.2312670">
        <ele>1045.2</ele>
        <time>2021-10-03T14:18:38Z</time>
      </trkpt>
      <trkpt lat="42.4667850" lon="-6.2319280">
        <ele>1046.2</ele>
        <time>2021-10-03T14:18:51Z</time>
      </trkpt>
      <trkpt lat="42.4669040" lon="-6.2322650">
        <ele>1047.2</ele>
        <time>2021-10-03T14:18:58Z</time>
      </trkpt>
      <trkpt lat="42.4670410" lon="-6.2326560">
        <ele>1048.0</ele>
        <time>2021-10-03T14:19:06Z</time>
      </trkpt>
      <trkpt lat="42.4671270" lon="-6.2328960">
        <ele>1048.6</ele>
        <time>2021-10-03T14:19:11Z</time>
      </trkpt>
      <trkpt lat="42.4671790" lon="-6.2330390">
        <ele>1049.8</ele>
        <time>2021-10-03T14:19:14Z</time>
      </trkpt>
      <trkpt lat="42.4672320" lon="-6.2331880">
        <ele>1050.8</ele>
        <time>2021-10-03T14:19:17Z</time>
      </trkpt>
      <trkpt lat="42.4672980" lon="-6.2333800">
        <ele>1052.0</ele>
        <time>2021-10-03T14:19:21Z</time>
      </trkpt>
      <trkpt lat="42.4674020" lon="-6.2336790">
        <ele>1053.0</ele>
        <time>2021-10-03T14:19:27Z</time>
      </trkpt>
      <trkpt lat="42.4675160" lon="-6.2339970">
        <ele>1053.6</ele>
        <time>2021-10-03T14:19:33Z</time>
      </trkpt>
      <trkpt lat="42.4676820" lon="-6.2344740">
        <ele>1053.4</ele>
        <time>2021-10-03T14:19:42Z</time>
      </trkpt>
      <trkpt lat="42.4677220" lon="-6.2345820">
        <ele>1053.4</ele>
        <time>2021-10-03T14:19:44Z</time>
      </trkpt>
      <trkpt lat="42.4677820" lon="-6.2347470">
        <ele>1053.4</ele>
        <time>2021-10-03T14:19:47Z</time>
      </trkpt>
      <trkpt lat="42.4679560" lon="-6.2352450">
        <ele>1053.8</ele>
        <time>2021-10-03T14:19:57Z</time>
      </trkpt>
      <trkpt lat="42.4680070" lon="-6.2353900">
        <ele>1054.0</ele>
        <time>2021-10-03T14:20:00Z</time>
      </trkpt>
      <trkpt lat="42.4680750" lon="-6.2355810">
        <ele>1055.2</ele>
        <time>2021-10-03T14:20:04Z</time>
      </trkpt>
      <trkpt lat="42.4681410" lon="-6.2357700">
        <ele>1056.4</ele>
        <time>2021-10-03T14:20:08Z</time>
      </trkpt>
      <trkpt lat="42.4682530" lon="-6.2360810">
        <ele>1057.4</ele>
        <time>2021-10-03T14:20:14Z</time>
      </trkpt>
      <trkpt lat="42.4683960" lon="-6.2364760">
        <ele>1058.4</ele>
        <time>2021-10-03T14:20:22Z</time>
      </trkpt>
      <trkpt lat="42.4685270" lon="-6.2368470">
        <ele>1059.4</ele>
        <time>2021-10-03T14:20:30Z</time>
      </trkpt>
      <trkpt lat="42.4686720" lon="-6.2372280">
        <ele>1060.6</ele>
        <time>2021-10-03T14:20:38Z</time>
      </trkpt>
      <trkpt lat="42.4688530" lon="-6.2376520">
        <ele>1061.6</ele>
        <time>2021-10-03T14:20:47Z</time>
      </trkpt>
      <trkpt lat="42.4690290" lon="-6.2379280">
        <ele>1062.6</ele>
        <time>2021-10-03T14:20:54Z</time>
      </trkpt>
      <trkpt lat="42.4691640" lon="-6.2382680">
        <ele>1062.4</ele>
        <time>2021-10-03T14:21:01Z</time>
      </trkpt>
      <trkpt lat="42.4693380" lon="-6.2386330">
        <ele>1062.4</ele>
        <time>2021-10-03T14:21:09Z</time>
      </trkpt>
      <trkpt lat="42.4693770" lon="-6.2387300">
        <ele>1062.4</ele>
        <time>2021-10-03T14:21:11Z</time>
      </trkpt>
      <trkpt lat="42.4696270" lon="-6.2394200">
        <ele>1062.2</ele>
        <time>2021-10-03T14:21:25Z</time>
      </trkpt>
      <trkpt lat="42.4697000" lon="-6.2396230">
        <ele>1062.8</ele>
        <time>2021-10-03T14:21:29Z</time>
      </trkpt>
      <trkpt lat="42.4698220" lon="-6.2399400">
        <ele>1063.2</ele>
        <time>2021-10-03T14:21:35Z</time>
      </trkpt>
      <trkpt lat="42.4699790" lon="-6.2403270">
        <ele>1063.8</ele>
        <time>2021-10-03T14:21:43Z</time>
      </trkpt>
      <trkpt lat="42.4701020" lon="-6.2406290">
        <ele>1064.2</ele>
        <time>2021-10-03T14:21:49Z</time>
      </trkpt>
      <trkpt lat="42.4701450" lon="-6.2407300">
        <ele>1064.8</ele>
        <time>2021-10-03T14:21:51Z</time>
      </trkpt>
      <trkpt lat="42.4701680" lon="-6.2407800">
        <ele>1065.2</ele>
        <time>2021-10-03T14:21:52Z</time>
      </trkpt>
      <trkpt lat="42.4702070" lon="-6.2408850">
        <ele>1065.6</ele>
        <time>2021-10-03T14:21:54Z</time>
      </trkpt>
      <trkpt lat="42.4704630" lon="-6.2415960">
        <ele>1065.2</ele>
        <time>2021-10-03T14:22:07Z</time>
      </trkpt>
      <trkpt lat="42.4706070" lon="-6.2419410">
        <ele>1065.4</ele>
        <time>2021-10-03T14:22:13Z</time>
      </trkpt>
      <trkpt lat="42.4706490" lon="-6.2420610">
        <ele>1066.0</ele>
        <time>2021-10-03T14:22:15Z</time>
      </trkpt>
      <trkpt lat="42.4707160" lon="-6.2422320">
        <ele>1066.8</ele>
        <time>2021-10-03T14:22:18Z</time>
      </trkpt>
      <trkpt lat="42.4709850" lon="-6.2429000">
        <ele>1067.2</ele>
        <time>2021-10-03T14:22:30Z</time>
      </trkpt>
      <trkpt lat="42.4711340" lon="-6.2432920">
        <ele>1067.2</ele>
        <time>2021-10-03T14:22:37Z</time>
      </trkpt>
      <trkpt lat="42.4712770" lon="-6.2436680">
        <ele>1067.8</ele>
        <time>2021-10-03T14:22:44Z</time>
      </trkpt>
      <trkpt lat="42.4713800" lon="-6.2439250">
        <ele>1069.0</ele>
        <time>2021-10-03T14:22:49Z</time>
      </trkpt>
      <trkpt lat="42.4715880" lon="-6.2443200">
        <ele>1070.0</ele>
        <time>2021-10-03T14:22:57Z</time>
      </trkpt>
      <trkpt lat="42.4716130" lon="-6.2443700">
        <ele>1070.0</ele>
        <time>2021-10-03T14:22:58Z</time>
      </trkpt>
      <trkpt lat="42.4717250" lon="-6.2447780">
        <ele>1070.0</ele>
        <time>2021-10-03T14:23:05Z</time>
      </trkpt>
      <trkpt lat="42.4717970" lon="-6.2450070">
        <ele>1069.6</ele>
        <time>2021-10-03T14:23:09Z</time>
      </trkpt>
      <trkpt lat="42.4719110" lon="-6.2453570">
        <ele>1068.8</ele>
        <time>2021-10-03T14:23:15Z</time>
      </trkpt>
      <trkpt lat="42.4720280" lon="-6.2457860">
        <ele>1069.0</ele>
        <time>2021-10-03T14:23:22Z</time>
      </trkpt>
      <trkpt lat="42.4721530" lon="-6.2462920">
        <ele>1068.8</ele>
        <time>2021-10-03T14:23:30Z</time>
      </trkpt>
      <trkpt lat="42.4721990" lon="-6.2464790">
        <ele>1068.6</ele>
        <time>2021-10-03T14:23:33Z</time>
      </trkpt>
      <trkpt lat="42.4722470" lon="-6.2466610">
        <ele>1068.4</ele>
        <time>2021-10-03T14:23:36Z</time>
      </trkpt>
      <trkpt lat="42.4723020" lon="-6.2468820">
        <ele>1068.2</ele>
        <time>2021-10-03T14:23:40Z</time>
      </trkpt>
      <trkpt lat="42.4723480" lon="-6.2470670">
        <ele>1068.2</ele>
        <time>2021-10-03T14:23:44Z</time>
      </trkpt>
      <trkpt lat="42.4723680" lon="-6.2471600">
        <ele>1068.4</ele>
        <time>2021-10-03T14:23:48Z</time>
      </trkpt>
      <trkpt lat="42.4723690" lon="-6.2471630">
        <ele>1068.4</ele>
        <time>2021-10-03T14:23:50Z</time>
      </trkpt>
      <trkpt lat="42.4723780" lon="-6.2472200">
        <ele>1069.0</ele>
        <time>2021-10-03T14:23:54Z</time>
      </trkpt>
      <trkpt lat="42.4723880" lon="-6.2472620">
        <ele>1069.6</ele>
        <time>2021-10-03T14:23:56Z</time>
      </trkpt>
      <trkpt lat="42.4723980" lon="-6.2472900">
        <ele>1070.2</ele>
        <time>2021-10-03T14:23:58Z</time>
      </trkpt>
      <trkpt lat="42.4724080" lon="-6.2473250">
        <ele>1070.4</ele>
        <time>2021-10-03T14:24:02Z</time>
      </trkpt>
      <trkpt lat="42.4725480" lon="-6.2477310">
        <ele>1069.8</ele>
        <time>2021-10-03T14:24:15Z</time>
      </trkpt>
      <trkpt lat="42.4725620" lon="-6.2477940">
        <ele>1069.8</ele>
        <time>2021-10-03T14:24:16Z</time>
      </trkpt>
      <trkpt lat="42.4725820" lon="-6.2479150">
        <ele>1069.6</ele>
        <time>2021-10-03T14:24:18Z</time>
      </trkpt>
      <trkpt lat="42.4725990" lon="-6.2480340">
        <ele>1069.6</ele>
        <time>2021-10-03T14:24:20Z</time>
      </trkpt>
      <trkpt lat="42.4726270" lon="-6.2482240">
        <ele>1069.4</ele>
        <time>2021-10-03T14:24:23Z</time>
      </trkpt>
      <trkpt lat="42.4727280" lon="-6.2486720">
        <ele>1069.2</ele>
        <time>2021-10-03T14:24:30Z</time>
      </trkpt>
      <trkpt lat="42.4729000" lon="-6.2494220">
        <ele>1069.6</ele>
        <time>2021-10-03T14:24:41Z</time>
      </trkpt>
      <trkpt lat="42.4730920" lon="-6.2501740">
        <ele>1069.8</ele>
        <time>2021-10-03T14:24:51Z</time>
      </trkpt>
      <trkpt lat="42.4733240" lon="-6.2508820">
        <ele>1069.6</ele>
        <time>2021-10-03T14:25:01Z</time>
      </trkpt>
      <trkpt lat="42.4736180" lon="-6.2514950">
        <ele>1069.4</ele>
        <time>2021-10-03T14:25:11Z</time>
      </trkpt>
      <trkpt lat="42.4738800" lon="-6.2519890">
        <ele>1069.4</ele>
        <time>2021-10-03T14:25:19Z</time>
      </trkpt>
      <trkpt lat="42.4739780" lon="-6.2521680">
        <ele>1069.6</ele>
        <time>2021-10-03T14:25:22Z</time>
      </trkpt>
      <trkpt lat="42.4740990" lon="-6.2523990">
        <ele>1069.4</ele>
        <time>2021-10-03T14:25:26Z</time>
      </trkpt>
      <trkpt lat="42.4742260" lon="-6.2526580">
        <ele>1069.2</ele>
        <time>2021-10-03T14:25:31Z</time>
      </trkpt>
      <trkpt lat="42.4742440" lon="-6.2527020">
        <ele>1069.2</ele>
        <time>2021-10-03T14:25:32Z</time>
      </trkpt>
      <trkpt lat="42.4742500" lon="-6.2527440">
        <ele>1069.2</ele>
        <time>2021-10-03T14:25:33Z</time>
      </trkpt>
      <trkpt lat="42.4741840" lon="-6.2529190">
        <ele>1069.4</ele>
        <time>2021-10-03T14:25:37Z</time>
      </trkpt>
      <trkpt lat="42.4741670" lon="-6.2529730">
        <ele>1069.2</ele>
        <time>2021-10-03T14:25:38Z</time>
      </trkpt>
      <trkpt lat="42.4741550" lon="-6.2531490">
        <ele>1069.0</ele>
        <time>2021-10-03T14:25:41Z</time>
      </trkpt>
      <trkpt lat="42.4741650" lon="-6.2534150">
        <ele>1068.8</ele>
        <time>2021-10-03T14:25:45Z</time>
      </trkpt>
      <trkpt lat="42.4741650" lon="-6.2539120">
        <ele>1068.6</ele>
        <time>2021-10-03T14:25:52Z</time>
      </trkpt>
      <trkpt lat="42.4741700" lon="-6.2541280">
        <ele>1068.2</ele>
        <time>2021-10-03T14:25:55Z</time>
      </trkpt>
      <trkpt lat="42.4741720" lon="-6.2542600">
        <ele>1068.2</ele>
        <time>2021-10-03T14:25:57Z</time>
      </trkpt>
      <trkpt lat="42.4741650" lon="-6.2543860">
        <ele>1068.2</ele>
        <time>2021-10-03T14:25:59Z</time>
      </trkpt>
      <trkpt lat="42.4741610" lon="-6.2545200">
        <ele>1068.4</ele>
        <time>2021-10-03T14:26:01Z</time>
      </trkpt>
      <trkpt lat="42.4741630" lon="-6.2546490">
        <ele>1068.8</ele>
        <time>2021-10-03T14:26:03Z</time>
      </trkpt>
      <trkpt lat="42.4741620" lon="-6.2547720">
        <ele>1068.8</ele>
        <time>2021-10-03T14:26:05Z</time>
      </trkpt>
      <trkpt lat="42.4741660" lon="-6.2548890">
        <ele>1069.0</ele>
        <time>2021-10-03T14:26:07Z</time>
      </trkpt>
      <trkpt lat="42.4741720" lon="-6.2550010">
        <ele>1069.4</ele>
        <time>2021-10-03T14:26:09Z</time>
      </trkpt>
      <trkpt lat="42.4741750" lon="-6.2550560">
        <ele>1069.8</ele>
        <time>2021-10-03T14:26:10Z</time>
      </trkpt>
      <trkpt lat="42.4741810" lon="-6.2551600">
        <ele>1070.6</ele>
        <time>2021-10-03T14:26:12Z</time>
      </trkpt>
      <trkpt lat="42.4741840" lon="-6.2552130">
        <ele>1071.2</ele>
        <time>2021-10-03T14:26:13Z</time>
      </trkpt>
      <trkpt lat="42.4741930" lon="-6.2553130">
        <ele>1072.4</ele>
        <time>2021-10-03T14:26:15Z</time>
      </trkpt>
      <trkpt lat="42.4742170" lon="-6.2555020">
        <ele>1073.4</ele>
        <time>2021-10-03T14:26:19Z</time>
      </trkpt>
      <trkpt lat="42.4742860" lon="-6.2557020">
        <ele>1074.6</ele>
        <time>2021-10-03T14:26:24Z</time>
      </trkpt>
      <trkpt lat="42.4743180" lon="-6.2557780">
        <ele>1075.6</ele>
        <time>2021-10-03T14:26:26Z</time>
      </trkpt>
      <trkpt lat="42.4744150" lon="-6.2559290">
        <ele>1076.8</ele>
        <time>2021-10-03T14:26:31Z</time>
      </trkpt>
      <trkpt lat="42.4745030" lon="-6.2560960">
        <ele>1077.8</ele>
        <time>2021-10-03T14:26:37Z</time>
      </trkpt>
      <trkpt lat="42.4745540" lon="-6.2561720">
        <ele>1079.4</ele>
        <time>2021-10-03T14:26:40Z</time>
      </trkpt>
      <trkpt lat="42.4746020" lon="-6.2562490">
        <ele>1080.6</ele>
        <time>2021-10-03T14:26:43Z</time>
      </trkpt>
      <trkpt lat="42.4746760" lon="-6.2563750">
        <ele>1081.8</ele>
        <time>2021-10-03T14:26:48Z</time>
      </trkpt>
      <trkpt lat="42.4747010" lon="-6.2564280">
        <ele>1082.6</ele>
        <time>2021-10-03T14:26:50Z</time>
      </trkpt>
      <trkpt lat="42.4747200" lon="-6.2564490">
        <ele>1083.0</ele>
        <time>2021-10-03T14:26:51Z</time>
      </trkpt>
      <trkpt lat="42.4747860" lon="-6.2565450">
        <ele>1084.2</ele>
        <time>2021-10-03T14:26:55Z</time>
      </trkpt>
      <trkpt lat="42.4748720" lon="-6.2567020">
        <ele>1085.4</ele>
        <time>2021-10-03T14:27:01Z</time>
      </trkpt>
      <trkpt lat="42.4749950" lon="-6.2569030">
        <ele>1086.4</ele>
        <time>2021-10-03T14:27:09Z</time>
      </trkpt>
      <trkpt lat="42.4750570" lon="-6.2569990">
        <ele>1087.6</ele>
        <time>2021-10-03T14:27:13Z</time>
      </trkpt>
      <trkpt lat="42.4751620" lon="-6.2571740">
        <ele>1088.8</ele>
        <time>2021-10-03T14:27:20Z</time>
      </trkpt>
      <trkpt lat="42.4752740" lon="-6.2573520">
        <ele>1089.8</ele>
        <time>2021-10-03T14:27:27Z</time>
      </trkpt>
      <trkpt lat="42.4753770" lon="-6.2575390">
        <ele>1091.0</ele>
        <time>2021-10-03T14:27:34Z</time>
      </trkpt>
      <trkpt lat="42.4754260" lon="-6.2576190">
        <ele>1092.6</ele>
        <time>2021-10-03T14:27:37Z</time>
      </trkpt>
      <trkpt lat="42.4754890" lon="-6.2577220">
        <ele>1093.8</ele>
        <time>2021-10-03T14:27:41Z</time>
      </trkpt>
      <trkpt lat="42.4756340" lon="-6.2579750">
        <ele>1094.8</ele>
        <time>2021-10-03T14:27:50Z</time>
      </trkpt>
      <trkpt lat="42.4757550" lon="-6.2581710">
        <ele>1095.8</ele>
        <time>2021-10-03T14:27:56Z</time>
      </trkpt>
      <trkpt lat="42.4758260" lon="-6.2582940">
        <ele>1097.0</ele>
        <time>2021-10-03T14:28:00Z</time>
      </trkpt>
      <trkpt lat="42.4758850" lon="-6.2583670">
        <ele>1097.4</ele>
        <time>2021-10-03T14:28:03Z</time>
      </trkpt>
      <trkpt lat="42.4760130" lon="-6.2584060">
        <ele>1098.0</ele>
        <time>2021-10-03T14:28:08Z</time>
      </trkpt>
      <trkpt lat="42.4761670" lon="-6.2585770">
        <ele>1098.8</ele>
        <time>2021-10-03T14:28:16Z</time>
      </trkpt>
      <trkpt lat="42.4762280" lon="-6.2586550">
        <ele>1099.2</ele>
        <time>2021-10-03T14:28:20Z</time>
      </trkpt>
      <trkpt lat="42.4762420" lon="-6.2586720">
        <ele>1099.4</ele>
        <time>2021-10-03T14:28:21Z</time>
      </trkpt>
      <trkpt lat="42.4762900" lon="-6.2587200">
        <ele>1100.6</ele>
        <time>2021-10-03T14:28:24Z</time>
      </trkpt>
      <trkpt lat="42.4763470" lon="-6.2587890">
        <ele>1101.8</ele>
        <time>2021-10-03T14:28:27Z</time>
      </trkpt>
      <trkpt lat="42.4764360" lon="-6.2589100">
        <ele>1102.8</ele>
        <time>2021-10-03T14:28:32Z</time>
      </trkpt>
      <trkpt lat="42.4765290" lon="-6.2590640">
        <ele>1104.0</ele>
        <time>2021-10-03T14:28:38Z</time>
      </trkpt>
      <trkpt lat="42.4765760" lon="-6.2591690">
        <ele>1104.6</ele>
        <time>2021-10-03T14:28:42Z</time>
      </trkpt>
      <trkpt lat="42.4766450" lon="-6.2592910">
        <ele>1105.0</ele>
        <time>2021-10-03T14:28:47Z</time>
      </trkpt>
      <trkpt lat="42.4768410" lon="-6.2595220">
        <ele>1106.4</ele>
        <time>2021-10-03T14:28:58Z</time>
      </trkpt>
      <trkpt lat="42.4769440" lon="-6.2596810">
        <ele>1107.4</ele>
        <time>2021-10-03T14:29:04Z</time>
      </trkpt>
      <trkpt lat="42.4771630" lon="-6.2600360">
        <ele>1108.4</ele>
        <time>2021-10-03T14:29:15Z</time>
      </trkpt>
      <trkpt lat="42.4772690" lon="-6.2602460">
        <ele>1108.8</ele>
        <time>2021-10-03T14:29:22Z</time>
      </trkpt>
      <trkpt lat="42.4773140" lon="-6.2602840">
        <ele>1109.4</ele>
        <time>2021-10-03T14:29:25Z</time>
      </trkpt>
      <trkpt lat="42.4774220" lon="-6.2604020">
        <ele>1110.2</ele>
        <time>2021-10-03T14:29:32Z</time>
      </trkpt>
      <trkpt lat="42.4774640" lon="-6.2604590">
        <ele>1110.4</ele>
        <time>2021-10-03T14:29:36Z</time>
      </trkpt>
      <trkpt lat="42.4775900" lon="-6.2606090">
        <ele>1110.2</ele>
        <time>2021-10-03T14:29:42Z</time>
      </trkpt>
      <trkpt lat="42.4777220" lon="-6.2607680">
        <ele>1110.6</ele>
        <time>2021-10-03T14:29:47Z</time>
      </trkpt>
      <trkpt lat="42.4778640" lon="-6.2609880">
        <ele>1110.4</ele>
        <time>2021-10-03T14:29:53Z</time>
      </trkpt>
      <trkpt lat="42.4779880" lon="-6.2612970">
        <ele>1110.4</ele>
        <time>2021-10-03T14:30:00Z</time>
      </trkpt>
      <trkpt lat="42.4780750" lon="-6.2618800">
        <ele>1110.0</ele>
        <time>2021-10-03T14:30:10Z</time>
      </trkpt>
      <trkpt lat="42.4780730" lon="-6.2621070">
        <ele>1109.6</ele>
        <time>2021-10-03T14:30:14Z</time>
      </trkpt>
      <trkpt lat="42.4781050" lon="-6.2624120">
        <ele>1109.6</ele>
        <time>2021-10-03T14:30:22Z</time>
      </trkpt>
      <trkpt lat="42.4781450" lon="-6.2627100">
        <ele>1109.6</ele>
        <time>2021-10-03T14:30:29Z</time>
      </trkpt>
      <trkpt lat="42.4782330" lon="-6.2630710">
        <ele>1108.8</ele>
        <time>2021-10-03T14:30:36Z</time>
      </trkpt>
      <trkpt lat="42.4782440" lon="-6.2631280">
        <ele>1108.6</ele>
        <time>2021-10-03T14:30:37Z</time>
      </trkpt>
      <trkpt lat="42.4782850" lon="-6.2633490">
        <ele>1108.2</ele>
        <time>2021-10-03T14:30:41Z</time>
      </trkpt>
      <trkpt lat="42.4783000" lon="-6.2635950">
        <ele>1108.0</ele>
        <time>2021-10-03T14:30:46Z</time>
      </trkpt>
      <trkpt lat="42.4783270" lon="-6.2638230">
        <ele>1107.8</ele>
        <time>2021-10-03T14:30:50Z</time>
      </trkpt>
      <trkpt lat="42.4784130" lon="-6.2642330">
        <ele>1107.6</ele>
        <time>2021-10-03T14:30:58Z</time>
      </trkpt>
      <trkpt lat="42.4784150" lon="-6.2642920">
        <ele>1107.6</ele>
        <time>2021-10-03T14:30:59Z</time>
      </trkpt>
      <trkpt lat="42.4784420" lon="-6.2647080">
        <ele>1106.8</ele>
        <time>2021-10-03T14:31:06Z</time>
      </trkpt>
      <trkpt lat="42.4784580" lon="-6.2648330">
        <ele>1106.4</ele>
        <time>2021-10-03T14:31:08Z</time>
      </trkpt>
      <trkpt lat="42.4784960" lon="-6.2650540">
        <ele>1106.0</ele>
        <time>2021-10-03T14:31:12Z</time>
      </trkpt>
      <trkpt lat="42.4785880" lon="-6.2654930">
        <ele>1105.4</ele>
        <time>2021-10-03T14:31:20Z</time>
      </trkpt>
      <trkpt lat="42.4785960" lon="-6.2655980">
        <ele>1105.2</ele>
        <time>2021-10-03T14:31:22Z</time>
      </trkpt>
      <trkpt lat="42.4785730" lon="-6.2659110">
        <ele>1105.0</ele>
        <time>2021-10-03T14:31:27Z</time>
      </trkpt>
      <trkpt lat="42.4786320" lon="-6.2664100">
        <ele>1104.2</ele>
        <time>2021-10-03T14:31:34Z</time>
      </trkpt>
      <trkpt lat="42.4786610" lon="-6.2666120">
        <ele>1103.2</ele>
        <time>2021-10-03T14:31:37Z</time>
      </trkpt>
      <trkpt lat="42.4787470" lon="-6.2673710">
        <ele>1103.0</ele>
        <time>2021-10-03T14:31:50Z</time>
      </trkpt>
      <trkpt lat="42.4787230" lon="-6.2675160">
        <ele>1103.8</ele>
        <time>2021-10-03T14:31:53Z</time>
      </trkpt>
      <trkpt lat="42.4787440" lon="-6.2676890">
        <ele>1104.0</ele>
        <time>2021-10-03T14:31:56Z</time>
      </trkpt>
      <trkpt lat="42.4787840" lon="-6.2680130">
        <ele>1103.6</ele>
        <time>2021-10-03T14:32:01Z</time>
      </trkpt>
      <trkpt lat="42.4788270" lon="-6.2682710">
        <ele>1102.6</ele>
        <time>2021-10-03T14:32:05Z</time>
      </trkpt>
      <trkpt lat="42.4788570" lon="-6.2684030">
        <ele>1102.2</ele>
        <time>2021-10-03T14:32:07Z</time>
      </trkpt>
      <trkpt lat="42.4788700" lon="-6.2684700">
        <ele>1102.0</ele>
        <time>2021-10-03T14:32:08Z</time>
      </trkpt>
      <trkpt lat="42.4789000" lon="-6.2686770">
        <ele>1101.2</ele>
        <time>2021-10-03T14:32:11Z</time>
      </trkpt>
      <trkpt lat="42.4789090" lon="-6.2687420">
        <ele>1101.0</ele>
        <time>2021-10-03T14:32:12Z</time>
      </trkpt>
      <trkpt lat="42.4789500" lon="-6.2690560">
        <ele>1100.8</ele>
        <time>2021-10-03T14:32:17Z</time>
      </trkpt>
      <trkpt lat="42.4790290" lon="-6.2696590">
        <ele>1102.2</ele>
        <time>2021-10-03T14:32:27Z</time>
      </trkpt>
      <trkpt lat="42.4790440" lon="-6.2697760">
        <ele>1103.8</ele>
        <time>2021-10-03T14:32:29Z</time>
      </trkpt>
      <trkpt lat="42.4790490" lon="-6.2699910">
        <ele>1104.8</ele>
        <time>2021-10-03T14:32:33Z</time>
      </trkpt>
      <trkpt lat="42.4790550" lon="-6.2700480">
        <ele>1104.8</ele>
        <time>2021-10-03T14:32:34Z</time>
      </trkpt>
      <trkpt lat="42.4791120" lon="-6.2704690">
        <ele>1105.2</ele>
        <time>2021-10-03T14:32:41Z</time>
      </trkpt>
      <trkpt lat="42.4791360" lon="-6.2708320">
        <ele>1106.0</ele>
        <time>2021-10-03T14:32:47Z</time>
      </trkpt>
      <trkpt lat="42.4791350" lon="-6.2708920">
        <ele>1106.2</ele>
        <time>2021-10-03T14:32:48Z</time>
      </trkpt>
      <trkpt lat="42.4790960" lon="-6.2713030">
        <ele>1107.2</ele>
        <time>2021-10-03T14:32:55Z</time>
      </trkpt>
      <trkpt lat="42.4790220" lon="-6.2718050">
        <ele>1108.2</ele>
        <time>2021-10-03T14:33:04Z</time>
      </trkpt>
      <trkpt lat="42.4789570" lon="-6.2722890">
        <ele>1109.4</ele>
        <time>2021-10-03T14:33:13Z</time>
      </trkpt>
      <trkpt lat="42.4789380" lon="-6.2724600">
        <ele>1109.6</ele>
        <time>2021-10-03T14:33:16Z</time>
      </trkpt>
      <trkpt lat="42.4789250" lon="-6.2726310">
        <ele>1110.4</ele>
        <time>2021-10-03T14:33:19Z</time>
      </trkpt>
      <trkpt lat="42.4790140" lon="-6.2732010">
        <ele>1111.2</ele>
        <time>2021-10-03T14:33:30Z</time>
      </trkpt>
      <trkpt lat="42.4791480" lon="-6.2736180">
        <ele>1111.4</ele>
        <time>2021-10-03T14:33:40Z</time>
      </trkpt>
      <trkpt lat="42.4792420" lon="-6.2738970">
        <ele>1112.6</ele>
        <time>2021-10-03T14:33:47Z</time>
      </trkpt>
      <trkpt lat="42.4793570" lon="-6.2742620">
        <ele>1113.6</ele>
        <time>2021-10-03T14:33:56Z</time>
      </trkpt>
      <trkpt lat="42.4794020" lon="-6.2744300">
        <ele>1115.0</ele>
        <time>2021-10-03T14:34:00Z</time>
      </trkpt>
      <trkpt lat="42.4794230" lon="-6.2745130">
        <ele>1116.2</ele>
        <time>2021-10-03T14:34:02Z</time>
      </trkpt>
      <trkpt lat="42.4794590" lon="-6.2746380">
        <ele>1117.6</ele>
        <time>2021-10-03T14:34:05Z</time>
      </trkpt>
      <trkpt lat="42.4794980" lon="-6.2748070">
        <ele>1118.8</ele>
        <time>2021-10-03T14:34:09Z</time>
      </trkpt>
      <trkpt lat="42.4795910" lon="-6.2752700">
        <ele>1119.8</ele>
        <time>2021-10-03T14:34:20Z</time>
      </trkpt>
      <trkpt lat="42.4796500" lon="-6.2755620">
        <ele>1121.0</ele>
        <time>2021-10-03T14:34:27Z</time>
      </trkpt>
      <trkpt lat="42.4796850" lon="-6.2757240">
        <ele>1122.4</ele>
        <time>2021-10-03T14:34:31Z</time>
      </trkpt>
      <trkpt lat="42.4797730" lon="-6.2761250">
        <ele>1123.6</ele>
        <time>2021-10-03T14:34:40Z</time>
      </trkpt>
      <trkpt lat="42.4798510" lon="-6.2765140">
        <ele>1123.2</ele>
        <time>2021-10-03T14:34:48Z</time>
      </trkpt>
      <trkpt lat="42.4799790" lon="-6.2771640">
        <ele>1124.2</ele>
        <time>2021-10-03T14:35:02Z</time>
      </trkpt>
      <trkpt lat="42.4800020" lon="-6.2772590">
        <ele>1124.6</ele>
        <time>2021-10-03T14:35:04Z</time>
      </trkpt>
      <trkpt lat="42.4800410" lon="-6.2774550">
        <ele>1125.6</ele>
        <time>2021-10-03T14:35:08Z</time>
      </trkpt>
      <trkpt lat="42.4801860" lon="-6.2781730">
        <ele>1126.4</ele>
        <time>2021-10-03T14:35:23Z</time>
      </trkpt>
      <trkpt lat="42.4802110" lon="-6.2783240">
        <ele>1126.6</ele>
        <time>2021-10-03T14:35:26Z</time>
      </trkpt>
      <trkpt lat="42.4802440" lon="-6.2784810">
        <ele>1126.4</ele>
        <time>2021-10-03T14:35:29Z</time>
      </trkpt>
      <trkpt lat="42.4802900" lon="-6.2786400">
        <ele>1126.4</ele>
        <time>2021-10-03T14:35:32Z</time>
      </trkpt>
      <trkpt lat="42.4804470" lon="-6.2789580">
        <ele>1126.8</ele>
        <time>2021-10-03T14:35:39Z</time>
      </trkpt>
      <trkpt lat="42.4806190" lon="-6.2792460">
        <ele>1127.8</ele>
        <time>2021-10-03T14:35:46Z</time>
      </trkpt>
      <trkpt lat="42.4806880" lon="-6.2793770">
        <ele>1128.8</ele>
        <time>2021-10-03T14:35:49Z</time>
      </trkpt>
      <trkpt lat="42.4807910" lon="-6.2796130">
        <ele>1130.0</ele>
        <time>2021-10-03T14:35:54Z</time>
      </trkpt>
      <trkpt lat="42.4808710" lon="-6.2799210">
        <ele>1130.6</ele>
        <time>2021-10-03T14:36:01Z</time>
      </trkpt>
      <trkpt lat="42.4808840" lon="-6.2799680">
        <ele>1130.8</ele>
        <time>2021-10-03T14:36:03Z</time>
      </trkpt>
      <trkpt lat="42.4808900" lon="-6.2799880">
        <ele>1131.2</ele>
        <time>2021-10-03T14:36:06Z</time>
      </trkpt>
      <trkpt lat="42.4808930" lon="-6.2800010">
        <ele>1132.2</ele>
        <time>2021-10-03T14:36:09Z</time>
      </trkpt>
      <trkpt lat="42.4809270" lon="-6.2800560">
        <ele>1134.0</ele>
        <time>2021-10-03T14:36:41Z</time>
      </trkpt>
      <trkpt lat="42.4809380" lon="-6.2800800">
        <ele>1133.8</ele>
        <time>2021-10-03T14:36:42Z</time>
      </trkpt>
      <trkpt lat="42.4809490" lon="-6.2801050">
        <ele>1133.8</ele>
        <time>2021-10-03T14:36:43Z</time>
      </trkpt>
      <trkpt lat="42.4812280" lon="-6.2805950">
        <ele>1134.0</ele>
        <time>2021-10-03T14:36:58Z</time>
      </trkpt>
      <trkpt lat="42.4813050" lon="-6.2807410">
        <ele>1134.4</ele>
        <time>2021-10-03T14:37:02Z</time>
      </trkpt>
      <trkpt lat="42.4813450" lon="-6.2808060">
        <ele>1135.0</ele>
        <time>2021-10-03T14:37:04Z</time>
      </trkpt>
      <trkpt lat="42.4814420" lon="-6.2809830">
        <ele>1135.4</ele>
        <time>2021-10-03T14:37:09Z</time>
      </trkpt>
      <trkpt lat="42.4815560" lon="-6.2812780">
        <ele>1136.0</ele>
        <time>2021-10-03T14:37:16Z</time>
      </trkpt>
      <trkpt lat="42.4816190" lon="-6.2815750">
        <ele>1137.0</ele>
        <time>2021-10-03T14:37:23Z</time>
      </trkpt>
      <trkpt lat="42.4816600" lon="-6.2817990">
        <ele>1138.0</ele>
        <time>2021-10-03T14:37:29Z</time>
      </trkpt>
      <trkpt lat="42.4817140" lon="-6.2819140">
        <ele>1138.6</ele>
        <time>2021-10-03T14:37:33Z</time>
      </trkpt>
      <trkpt lat="42.4817400" lon="-6.2819690">
        <ele>1139.2</ele>
        <time>2021-10-03T14:37:35Z</time>
      </trkpt>
      <trkpt lat="42.4817840" lon="-6.2820810">
        <ele>1140.4</ele>
        <time>2021-10-03T14:37:39Z</time>
      </trkpt>
      <trkpt lat="42.4818380" lon="-6.2822200">
        <ele>1141.6</ele>
        <time>2021-10-03T14:37:44Z</time>
      </trkpt>
      <trkpt lat="42.4818650" lon="-6.2823060">
        <ele>1142.8</ele>
        <time>2021-10-03T14:37:47Z</time>
      </trkpt>
      <trkpt lat="42.4819180" lon="-6.2825150">
        <ele>1143.8</ele>
        <time>2021-10-03T14:37:54Z</time>
      </trkpt>
      <trkpt lat="42.4820050" lon="-6.2827780">
        <ele>1145.0</ele>
        <time>2021-10-03T14:38:03Z</time>
      </trkpt>
      <trkpt lat="42.4820360" lon="-6.2829020">
        <ele>1146.2</ele>
        <time>2021-10-03T14:38:07Z</time>
      </trkpt>
      <trkpt lat="42.4820500" lon="-6.2829980">
        <ele>1147.4</ele>
        <time>2021-10-03T14:38:10Z</time>
      </trkpt>
      <trkpt lat="42.4820640" lon="-6.2830570">
        <ele>1148.4</ele>
        <time>2021-10-03T14:38:12Z</time>
      </trkpt>
      <trkpt lat="42.4821090" lon="-6.2832330">
        <ele>1149.6</ele>
        <time>2021-10-03T14:38:18Z</time>
      </trkpt>
      <trkpt lat="42.4821510" lon="-6.2834800">
        <ele>1150.6</ele>
        <time>2021-10-03T14:38:28Z</time>
      </trkpt>
      <trkpt lat="42.4821940" lon="-6.2836760">
        <ele>1151.8</ele>
        <time>2021-10-03T14:38:34Z</time>
      </trkpt>
      <trkpt lat="42.4822210" lon="-6.2838540">
        <ele>1153.0</ele>
        <time>2021-10-03T14:38:40Z</time>
      </trkpt>
      <trkpt lat="42.4822640" lon="-6.2839980">
        <ele>1153.4</ele>
        <time>2021-10-03T14:38:45Z</time>
      </trkpt>
      <trkpt lat="42.4822890" lon="-6.2841180">
        <ele>1154.0</ele>
        <time>2021-10-03T14:38:49Z</time>
      </trkpt>
      <trkpt lat="42.4823210" lon="-6.2843360">
        <ele>1155.2</ele>
        <time>2021-10-03T14:38:56Z</time>
      </trkpt>
      <trkpt lat="42.4823470" lon="-6.2846150">
        <ele>1156.2</ele>
        <time>2021-10-03T14:39:05Z</time>
      </trkpt>
      <trkpt lat="42.4823450" lon="-6.2846670">
        <ele>1156.2</ele>
        <time>2021-10-03T14:39:07Z</time>
      </trkpt>
      <trkpt lat="42.4823530" lon="-6.2846930">
        <ele>1156.4</ele>
        <time>2021-10-03T14:39:08Z</time>
      </trkpt>
      <trkpt lat="42.4823770" lon="-6.2847730">
        <ele>1157.4</ele>
        <time>2021-10-03T14:39:11Z</time>
      </trkpt>
      <trkpt lat="42.4824000" lon="-6.2849080">
        <ele>1158.6</ele>
        <time>2021-10-03T14:39:16Z</time>
      </trkpt>
      <trkpt lat="42.4824380" lon="-6.2851610">
        <ele>1159.8</ele>
        <time>2021-10-03T14:39:26Z</time>
      </trkpt>
      <trkpt lat="42.4824400" lon="-6.2854050">
        <ele>1160.8</ele>
        <time>2021-10-03T14:39:34Z</time>
      </trkpt>
      <trkpt lat="42.4824470" lon="-6.2855450">
        <ele>1162.0</ele>
        <time>2021-10-03T14:39:38Z</time>
      </trkpt>
      <trkpt lat="42.4824700" lon="-6.2857770">
        <ele>1163.2</ele>
        <time>2021-10-03T14:39:45Z</time>
      </trkpt>
      <trkpt lat="42.4824790" lon="-6.2858780">
        <ele>1164.4</ele>
        <time>2021-10-03T14:39:48Z</time>
      </trkpt>
      <trkpt lat="42.4825550" lon="-6.2863710">
        <ele>1164.6</ele>
        <time>2021-10-03T14:40:01Z</time>
      </trkpt>
      <trkpt lat="42.4826150" lon="-6.2866350">
        <ele>1164.6</ele>
        <time>2021-10-03T14:40:07Z</time>
      </trkpt>
      <trkpt lat="42.4827640" lon="-6.2872240">
        <ele>1165.6</ele>
        <time>2021-10-03T14:40:21Z</time>
      </trkpt>
      <trkpt lat="42.4828440" lon="-6.2874200">
        <ele>1166.6</ele>
        <time>2021-10-03T14:40:27Z</time>
      </trkpt>
      <trkpt lat="42.4828520" lon="-6.2875280">
        <ele>1166.8</ele>
        <time>2021-10-03T14:40:31Z</time>
      </trkpt>
      <trkpt lat="42.4828830" lon="-6.2876620">
        <ele>1167.2</ele>
        <time>2021-10-03T14:40:35Z</time>
      </trkpt>
      <trkpt lat="42.4829030" lon="-6.2877930">
        <ele>1167.4</ele>
        <time>2021-10-03T14:40:38Z</time>
      </trkpt>
      <trkpt lat="42.4829280" lon="-6.2879970">
        <ele>1167.6</ele>
        <time>2021-10-03T14:40:42Z</time>
      </trkpt>
      <trkpt lat="42.4829700" lon="-6.2882930">
        <ele>1168.6</ele>
        <time>2021-10-03T14:40:48Z</time>
      </trkpt>
      <trkpt lat="42.4829780" lon="-6.2884460">
        <ele>1169.6</ele>
        <time>2021-10-03T14:40:51Z</time>
      </trkpt>
      <trkpt lat="42.4830080" lon="-6.2888690">
        <ele>1170.8</ele>
        <time>2021-10-03T14:40:59Z</time>
      </trkpt>
      <trkpt lat="42.4829970" lon="-6.2892920">
        <ele>1171.8</ele>
        <time>2021-10-03T14:41:07Z</time>
      </trkpt>
      <trkpt lat="42.4828900" lon="-6.2898070">
        <ele>1173.0</ele>
        <time>2021-10-03T14:41:18Z</time>
      </trkpt>
      <trkpt lat="42.4828410" lon="-6.2900250">
        <ele>1173.6</ele>
        <time>2021-10-03T14:41:23Z</time>
      </trkpt>
      <trkpt lat="42.4828130" lon="-6.2901590">
        <ele>1173.8</ele>
        <time>2021-10-03T14:41:26Z</time>
      </trkpt>
      <trkpt lat="42.4827820" lon="-6.2902900">
        <ele>1174.0</ele>
        <time>2021-10-03T14:41:29Z</time>
      </trkpt>
      <trkpt lat="42.4827060" lon="-6.2907420">
        <ele>1175.2</ele>
        <time>2021-10-03T14:41:40Z</time>
      </trkpt>
      <trkpt lat="42.4826740" lon="-6.2910480">
        <ele>1176.4</ele>
        <time>2021-10-03T14:41:47Z</time>
      </trkpt>
      <trkpt lat="42.4826310" lon="-6.2914600">
        <ele>1177.4</ele>
        <time>2021-10-03T14:41:56Z</time>
      </trkpt>
      <trkpt lat="42.4826110" lon="-6.2917390">
        <ele>1178.4</ele>
        <time>2021-10-03T14:42:02Z</time>
      </trkpt>
      <trkpt lat="42.4826130" lon="-6.2920140">
        <ele>1179.2</ele>
        <time>2021-10-03T14:42:08Z</time>
      </trkpt>
      <trkpt lat="42.4826200" lon="-6.2921850">
        <ele>1179.6</ele>
        <time>2021-10-03T14:42:12Z</time>
      </trkpt>
      <trkpt lat="42.4826380" lon="-6.2923930">
        <ele>1180.6</ele>
        <time>2021-10-03T14:42:17Z</time>
      </trkpt>
      <trkpt lat="42.4826770" lon="-6.2926690">
        <ele>1181.8</ele>
        <time>2021-10-03T14:42:24Z</time>
      </trkpt>
      <trkpt lat="42.4826890" lon="-6.2927880">
        <ele>1182.8</ele>
        <time>2021-10-03T14:42:27Z</time>
      </trkpt>
      <trkpt lat="42.4827000" lon="-6.2930670">
        <ele>1184.0</ele>
        <time>2021-10-03T14:42:34Z</time>
      </trkpt>
      <trkpt lat="42.4827110" lon="-6.2932690">
        <ele>1185.2</ele>
        <time>2021-10-03T14:42:39Z</time>
      </trkpt>
      <trkpt lat="42.4827200" lon="-6.2934290">
        <ele>1186.4</ele>
        <time>2021-10-03T14:42:43Z</time>
      </trkpt>
      <trkpt lat="42.4828370" lon="-6.2941650">
        <ele>1187.4</ele>
        <time>2021-10-03T14:43:00Z</time>
      </trkpt>
      <trkpt lat="42.4828700" lon="-6.2943390">
        <ele>1188.6</ele>
        <time>2021-10-03T14:43:04Z</time>
      </trkpt>
      <trkpt lat="42.4829110" lon="-6.2946570">
        <ele>1189.6</ele>
        <time>2021-10-03T14:43:11Z</time>
      </trkpt>
      <trkpt lat="42.4829640" lon="-6.2949230">
        <ele>1191.2</ele>
        <time>2021-10-03T14:43:17Z</time>
      </trkpt>
      <trkpt lat="42.4829950" lon="-6.2950490">
        <ele>1192.2</ele>
        <time>2021-10-03T14:43:20Z</time>
      </trkpt>
      <trkpt lat="42.4830720" lon="-6.2953440">
        <ele>1193.0</ele>
        <time>2021-10-03T14:43:27Z</time>
      </trkpt>
      <trkpt lat="42.4831070" lon="-6.2955120">
        <ele>1193.4</ele>
        <time>2021-10-03T14:43:31Z</time>
      </trkpt>
      <trkpt lat="42.4831490" lon="-6.2957800">
        <ele>1194.6</ele>
        <time>2021-10-03T14:43:37Z</time>
      </trkpt>
      <trkpt lat="42.4831410" lon="-6.2961920">
        <ele>1195.8</ele>
        <time>2021-10-03T14:43:46Z</time>
      </trkpt>
      <trkpt lat="42.4831240" lon="-6.2964780">
        <ele>1196.8</ele>
        <time>2021-10-03T14:43:52Z</time>
      </trkpt>
      <trkpt lat="42.4832030" lon="-6.2972120">
        <ele>1197.4</ele>
        <time>2021-10-03T14:44:09Z</time>
      </trkpt>
      <trkpt lat="42.4832350" lon="-6.2973880">
        <ele>1198.0</ele>
        <time>2021-10-03T14:44:13Z</time>
      </trkpt>
      <trkpt lat="42.4833030" lon="-6.2976670">
        <ele>1199.2</ele>
        <time>2021-10-03T14:44:20Z</time>
      </trkpt>
      <trkpt lat="42.4834260" lon="-6.2981070">
        <ele>1200.2</ele>
        <time>2021-10-03T14:44:32Z</time>
      </trkpt>
      <trkpt lat="42.4834370" lon="-6.2981440">
        <ele>1200.2</ele>
        <time>2021-10-03T14:44:33Z</time>
      </trkpt>
      <trkpt lat="42.4835980" lon="-6.2986590">
        <ele>1200.8</ele>
        <time>2021-10-03T14:44:47Z</time>
      </trkpt>
      <trkpt lat="42.4837170" lon="-6.2993750">
        <ele>1200.6</ele>
        <time>2021-10-03T14:45:03Z</time>
      </trkpt>
      <trkpt lat="42.4838610" lon="-6.2996490">
        <ele>1201.2</ele>
        <time>2021-10-03T14:45:10Z</time>
      </trkpt>
      <trkpt lat="42.4839070" lon="-6.2997150">
        <ele>1201.4</ele>
        <time>2021-10-03T14:45:12Z</time>
      </trkpt>
      <trkpt lat="42.4840210" lon="-6.2998830">
        <ele>1202.6</ele>
        <time>2021-10-03T14:45:17Z</time>
      </trkpt>
      <trkpt lat="42.4842780" lon="-6.3003080">
        <ele>1203.6</ele>
        <time>2021-10-03T14:45:29Z</time>
      </trkpt>
      <trkpt lat="42.4844070" lon="-6.3005550">
        <ele>1205.4</ele>
        <time>2021-10-03T14:45:35Z</time>
      </trkpt>
      <trkpt lat="42.4845560" lon="-6.3008630">
        <ele>1206.6</ele>
        <time>2021-10-03T14:45:42Z</time>
      </trkpt>
      <trkpt lat="42.4846770" lon="-6.3011310">
        <ele>1207.6</ele>
        <time>2021-10-03T14:45:48Z</time>
      </trkpt>
      <trkpt lat="42.4848250" lon="-6.3014630">
        <ele>1208.4</ele>
        <time>2021-10-03T14:45:55Z</time>
      </trkpt>
      <trkpt lat="42.4849650" lon="-6.3017770">
        <ele>1208.6</ele>
        <time>2021-10-03T14:46:03Z</time>
      </trkpt>
      <trkpt lat="42.4849970" lon="-6.3018490">
        <ele>1209.0</ele>
        <time>2021-10-03T14:46:05Z</time>
      </trkpt>
      <trkpt lat="42.4850430" lon="-6.3019490">
        <ele>1210.2</ele>
        <time>2021-10-03T14:46:08Z</time>
      </trkpt>
      <trkpt lat="42.4850570" lon="-6.3019810">
        <ele>1211.6</ele>
        <time>2021-10-03T14:46:09Z</time>
      </trkpt>
      <trkpt lat="42.4850990" lon="-6.3020830">
        <ele>1212.4</ele>
        <time>2021-10-03T14:46:12Z</time>
      </trkpt>
      <trkpt lat="42.4851130" lon="-6.3021160">
        <ele>1212.6</ele>
        <time>2021-10-03T14:46:13Z</time>
      </trkpt>
      <trkpt lat="42.4851810" lon="-6.3022870">
        <ele>1213.2</ele>
        <time>2021-10-03T14:46:18Z</time>
      </trkpt>
      <trkpt lat="42.4852210" lon="-6.3024070">
        <ele>1214.0</ele>
        <time>2021-10-03T14:46:21Z</time>
      </trkpt>
      <trkpt lat="42.4852490" lon="-6.3024880">
        <ele>1215.0</ele>
        <time>2021-10-03T14:46:23Z</time>
      </trkpt>
      <trkpt lat="42.4852850" lon="-6.3026050">
        <ele>1216.2</ele>
        <time>2021-10-03T14:46:26Z</time>
      </trkpt>
      <trkpt lat="42.4853600" lon="-6.3028450">
        <ele>1217.2</ele>
        <time>2021-10-03T14:46:32Z</time>
      </trkpt>
      <trkpt lat="42.4854940" lon="-6.3032780">
        <ele>1218.4</ele>
        <time>2021-10-03T14:46:43Z</time>
      </trkpt>
      <trkpt lat="42.4855690" lon="-6.3035180">
        <ele>1219.4</ele>
        <time>2021-10-03T14:46:49Z</time>
      </trkpt>
      <trkpt lat="42.4856200" lon="-6.3036740">
        <ele>1220.8</ele>
        <time>2021-10-03T14:46:53Z</time>
      </trkpt>
      <trkpt lat="42.4856690" lon="-6.3038280">
        <ele>1221.8</ele>
        <time>2021-10-03T14:46:57Z</time>
      </trkpt>
      <trkpt lat="42.4858000" lon="-6.3042420">
        <ele>1223.0</ele>
        <time>2021-10-03T14:47:08Z</time>
      </trkpt>
      <trkpt lat="42.4859590" lon="-6.3047250">
        <ele>1224.2</ele>
        <time>2021-10-03T14:47:21Z</time>
      </trkpt>
      <trkpt lat="42.4860580" lon="-6.3049840">
        <ele>1225.4</ele>
        <time>2021-10-03T14:47:28Z</time>
      </trkpt>
      <trkpt lat="42.4861200" lon="-6.3051320">
        <ele>1226.4</ele>
        <time>2021-10-03T14:47:32Z</time>
      </trkpt>
      <trkpt lat="42.4862500" lon="-6.3055010">
        <ele>1227.6</ele>
        <time>2021-10-03T14:47:42Z</time>
      </trkpt>
      <trkpt lat="42.4863000" lon="-6.3056340">
        <ele>1227.8</ele>
        <time>2021-10-03T14:47:46Z</time>
      </trkpt>
      <trkpt lat="42.4863340" lon="-6.3057450">
        <ele>1228.8</ele>
        <time>2021-10-03T14:47:50Z</time>
      </trkpt>
      <trkpt lat="42.4863610" lon="-6.3058190">
        <ele>1229.2</ele>
        <time>2021-10-03T14:47:53Z</time>
      </trkpt>
      <trkpt lat="42.4863930" lon="-6.3059270">
        <ele>1229.8</ele>
        <time>2021-10-03T14:47:57Z</time>
      </trkpt>
      <trkpt lat="42.4864420" lon="-6.3061000">
        <ele>1230.4</ele>
        <time>2021-10-03T14:48:02Z</time>
      </trkpt>
      <trkpt lat="42.4864830" lon="-6.3062040">
        <ele>1230.8</ele>
        <time>2021-10-03T14:48:05Z</time>
      </trkpt>
      <trkpt lat="42.4865430" lon="-6.3063010">
        <ele>1231.2</ele>
        <time>2021-10-03T14:48:08Z</time>
      </trkpt>
      <trkpt lat="42.4866120" lon="-6.3064920">
        <ele>1232.0</ele>
        <time>2021-10-03T14:48:13Z</time>
      </trkpt>
      <trkpt lat="42.4866360" lon="-6.3067630">
        <ele>1233.2</ele>
        <time>2021-10-03T14:48:19Z</time>
      </trkpt>
      <trkpt lat="42.4866280" lon="-6.3070120">
        <ele>1234.2</ele>
        <time>2021-10-03T14:48:24Z</time>
      </trkpt>
      <trkpt lat="42.4866220" lon="-6.3072400">
        <ele>1234.6</ele>
        <time>2021-10-03T14:48:28Z</time>
      </trkpt>
      <trkpt lat="42.4866530" lon="-6.3074030">
        <ele>1234.8</ele>
        <time>2021-10-03T14:48:31Z</time>
      </trkpt>
      <trkpt lat="42.4866830" lon="-6.3075930">
        <ele>1235.0</ele>
        <time>2021-10-03T14:48:35Z</time>
      </trkpt>
      <trkpt lat="42.4866940" lon="-6.3077170">
        <ele>1235.2</ele>
        <time>2021-10-03T14:48:38Z</time>
      </trkpt>
      <trkpt lat="42.4866980" lon="-6.3078000">
        <ele>1237.0</ele>
        <time>2021-10-03T14:48:40Z</time>
      </trkpt>
      <trkpt lat="42.4867040" lon="-6.3078800">
        <ele>1238.8</ele>
        <time>2021-10-03T14:48:42Z</time>
      </trkpt>
      <trkpt lat="42.4867060" lon="-6.3079180">
        <ele>1239.8</ele>
        <time>2021-10-03T14:48:43Z</time>
      </trkpt>
      <trkpt lat="42.4867060" lon="-6.3079900">
        <ele>1241.0</ele>
        <time>2021-10-03T14:48:45Z</time>
      </trkpt>
      <trkpt lat="42.4867030" lon="-6.3080880">
        <ele>1242.0</ele>
        <time>2021-10-03T14:48:48Z</time>
      </trkpt>
      <trkpt lat="42.4866740" lon="-6.3082350">
        <ele>1243.2</ele>
        <time>2021-10-03T14:48:53Z</time>
      </trkpt>
      <trkpt lat="42.4866410" lon="-6.3083150">
        <ele>1244.4</ele>
        <time>2021-10-03T14:48:56Z</time>
      </trkpt>
      <trkpt lat="42.4865890" lon="-6.3084040">
        <ele>1246.0</ele>
        <time>2021-10-03T14:49:00Z</time>
      </trkpt>
      <trkpt lat="42.4865760" lon="-6.3084250">
        <ele>1247.2</ele>
        <time>2021-10-03T14:49:01Z</time>
      </trkpt>
      <trkpt lat="42.4865340" lon="-6.3084830">
        <ele>1248.6</ele>
        <time>2021-10-03T14:49:04Z</time>
      </trkpt>
      <trkpt lat="42.4864710" lon="-6.3085540">
        <ele>1249.6</ele>
        <time>2021-10-03T14:49:08Z</time>
      </trkpt>
      <trkpt lat="42.4863680" lon="-6.3086590">
        <ele>1251.0</ele>
        <time>2021-10-03T14:49:15Z</time>
      </trkpt>
      <trkpt lat="42.4862810" lon="-6.3087510">
        <ele>1252.4</ele>
        <time>2021-10-03T14:49:21Z</time>
      </trkpt>
      <trkpt lat="42.4862540" lon="-6.3087860">
        <ele>1253.6</ele>
        <time>2021-10-03T14:49:23Z</time>
      </trkpt>
      <trkpt lat="42.4862060" lon="-6.3088600">
        <ele>1254.8</ele>
        <time>2021-10-03T14:49:27Z</time>
      </trkpt>
      <trkpt lat="42.4861800" lon="-6.3089230">
        <ele>1256.0</ele>
        <time>2021-10-03T14:49:30Z</time>
      </trkpt>
      <trkpt lat="42.4861470" lon="-6.3090320">
        <ele>1257.0</ele>
        <time>2021-10-03T14:49:35Z</time>
      </trkpt>
      <trkpt lat="42.4861420" lon="-6.3091150">
        <ele>1258.2</ele>
        <time>2021-10-03T14:49:40Z</time>
      </trkpt>
      <trkpt lat="42.4861420" lon="-6.3091140">
        <ele>1258.6</ele>
        <time>2021-10-03T14:49:41Z</time>
      </trkpt>
      <trkpt lat="42.4861950" lon="-6.3093230">
        <ele>1264.6</ele>
        <time>2021-10-03T14:50:21Z</time>
      </trkpt>
      <trkpt lat="42.4862120" lon="-6.3093370">
        <ele>1264.6</ele>
        <time>2021-10-03T14:50:22Z</time>
      </trkpt>
      <trkpt lat="42.4862600" lon="-6.3096590">
        <ele>1265.6</ele>
        <time>2021-10-03T14:50:35Z</time>
      </trkpt>
      <trkpt lat="42.4862210" lon="-6.3098110">
        <ele>1266.8</ele>
        <time>2021-10-03T14:50:41Z</time>
      </trkpt>
      <trkpt lat="42.4861920" lon="-6.3099690">
        <ele>1267.8</ele>
        <time>2021-10-03T14:50:47Z</time>
      </trkpt>
      <trkpt lat="42.4861810" lon="-6.3102600">
        <ele>1268.8</ele>
        <time>2021-10-03T14:50:58Z</time>
      </trkpt>
      <trkpt lat="42.4861890" lon="-6.3106460">
        <ele>1269.8</ele>
        <time>2021-10-03T14:51:11Z</time>
      </trkpt>
      <trkpt lat="42.4861990" lon="-6.3108230">
        <ele>1271.0</ele>
        <time>2021-10-03T14:51:17Z</time>
      </trkpt>
      <trkpt lat="42.4862770" lon="-6.3112330">
        <ele>1272.2</ele>
        <time>2021-10-03T14:51:30Z</time>
      </trkpt>
      <trkpt lat="42.4863630" lon="-6.3115540">
        <ele>1273.6</ele>
        <time>2021-10-03T14:51:41Z</time>
      </trkpt>
      <trkpt lat="42.4864080" lon="-6.3116580">
        <ele>1274.6</ele>
        <time>2021-10-03T14:51:45Z</time>
      </trkpt>
      <trkpt lat="42.4864560" lon="-6.3117500">
        <ele>1275.0</ele>
        <time>2021-10-03T14:51:49Z</time>
      </trkpt>
      <trkpt lat="42.4864680" lon="-6.3118030">
        <ele>1275.2</ele>
        <time>2021-10-03T14:51:51Z</time>
      </trkpt>
      <trkpt lat="42.4865100" lon="-6.3118600">
        <ele>1275.6</ele>
        <time>2021-10-03T14:51:54Z</time>
      </trkpt>
      <trkpt lat="42.4865680" lon="-6.3119480">
        <ele>1276.4</ele>
        <time>2021-10-03T14:51:58Z</time>
      </trkpt>
      <trkpt lat="42.4865850" lon="-6.3119700">
        <ele>1276.6</ele>
        <time>2021-10-03T14:51:59Z</time>
      </trkpt>
      <trkpt lat="42.4867700" lon="-6.3122250">
        <ele>1277.6</ele>
        <time>2021-10-03T14:52:10Z</time>
      </trkpt>
      <trkpt lat="42.4868680" lon="-6.3123610">
        <ele>1278.8</ele>
        <time>2021-10-03T14:52:16Z</time>
      </trkpt>
      <trkpt lat="42.4869370" lon="-6.3124480">
        <ele>1280.2</ele>
        <time>2021-10-03T14:52:20Z</time>
      </trkpt>
      <trkpt lat="42.4870020" lon="-6.3125460">
        <ele>1281.2</ele>
        <time>2021-10-03T14:52:24Z</time>
      </trkpt>
      <trkpt lat="42.4871510" lon="-6.3127810">
        <ele>1282.0</ele>
        <time>2021-10-03T14:52:33Z</time>
      </trkpt>
      <trkpt lat="42.4872200" lon="-6.3128390">
        <ele>1282.2</ele>
        <time>2021-10-03T14:52:36Z</time>
      </trkpt>
      <trkpt lat="42.4873070" lon="-6.3129160">
        <ele>1282.6</ele>
        <time>2021-10-03T14:52:40Z</time>
      </trkpt>
      <trkpt lat="42.4873780" lon="-6.3130080">
        <ele>1282.8</ele>
        <time>2021-10-03T14:52:44Z</time>
      </trkpt>
      <trkpt lat="42.4875720" lon="-6.3131820">
        <ele>1283.4</ele>
        <time>2021-10-03T14:52:53Z</time>
      </trkpt>
      <trkpt lat="42.4876380" lon="-6.3132420">
        <ele>1284.6</ele>
        <time>2021-10-03T14:52:56Z</time>
      </trkpt>
      <trkpt lat="42.4877060" lon="-6.3132990">
        <ele>1285.8</ele>
        <time>2021-10-03T14:52:59Z</time>
      </trkpt>
      <trkpt lat="42.4878470" lon="-6.3134210">
        <ele>1286.8</ele>
        <time>2021-10-03T14:53:05Z</time>
      </trkpt>
      <trkpt lat="42.4880600" lon="-6.3136130">
        <ele>1288.0</ele>
        <time>2021-10-03T14:53:15Z</time>
      </trkpt>
      <trkpt lat="42.4881190" lon="-6.3136750">
        <ele>1289.2</ele>
        <time>2021-10-03T14:53:18Z</time>
      </trkpt>
      <trkpt lat="42.4882140" lon="-6.3137640">
        <ele>1289.8</ele>
        <time>2021-10-03T14:53:22Z</time>
      </trkpt>
      <trkpt lat="42.4882950" lon="-6.3139050">
        <ele>1290.2</ele>
        <time>2021-10-03T14:53:27Z</time>
      </trkpt>
      <trkpt lat="42.4883500" lon="-6.3140380">
        <ele>1290.4</ele>
        <time>2021-10-03T14:53:32Z</time>
      </trkpt>
      <trkpt lat="42.4883630" lon="-6.3140560">
        <ele>1290.6</ele>
        <time>2021-10-03T14:53:33Z</time>
      </trkpt>
      <trkpt lat="42.4884100" lon="-6.3140870">
        <ele>1291.0</ele>
        <time>2021-10-03T14:53:36Z</time>
      </trkpt>
      <trkpt lat="42.4884200" lon="-6.3140990">
        <ele>1291.4</ele>
        <time>2021-10-03T14:53:37Z</time>
      </trkpt>
      <trkpt lat="42.4884350" lon="-6.3141330">
        <ele>1292.2</ele>
        <time>2021-10-03T14:53:43Z</time>
      </trkpt>
      <trkpt lat="42.4884100" lon="-6.3141930">
        <ele>1293.2</ele>
        <time>2021-10-03T14:55:05Z</time>
      </trkpt>
      <trkpt lat="42.4883820" lon="-6.3141980">
        <ele>1293.2</ele>
        <time>2021-10-03T14:55:06Z</time>
      </trkpt>
      <trkpt lat="42.4882410" lon="-6.3144640">
        <ele>1292.2</ele>
        <time>2021-10-03T14:55:15Z</time>
      </trkpt>
      <trkpt lat="42.4882190" lon="-6.3145400">
        <ele>1292.0</ele>
        <time>2021-10-03T14:55:17Z</time>
      </trkpt>
      <trkpt lat="42.4881900" lon="-6.3146150">
        <ele>1291.8</ele>
        <time>2021-10-03T14:55:19Z</time>
      </trkpt>
      <trkpt lat="42.4879930" lon="-6.3151960">
        <ele>1292.8</ele>
        <time>2021-10-03T14:55:35Z</time>
      </trkpt>
      <trkpt lat="42.4879730" lon="-6.3153820">
        <ele>1293.2</ele>
        <time>2021-10-03T14:55:39Z</time>
      </trkpt>
      <trkpt lat="42.4879690" lon="-6.3154750">
        <ele>1293.2</ele>
        <time>2021-10-03T14:55:41Z</time>
      </trkpt>
      <trkpt lat="42.4879860" lon="-6.3156070">
        <ele>1293.4</ele>
        <time>2021-10-03T14:55:44Z</time>
      </trkpt>
      <trkpt lat="42.4880290" lon="-6.3158290">
        <ele>1293.6</ele>
        <time>2021-10-03T14:55:49Z</time>
      </trkpt>
      <trkpt lat="42.4880810" lon="-6.3160840">
        <ele>1294.0</ele>
        <time>2021-10-03T14:55:55Z</time>
      </trkpt>
      <trkpt lat="42.4881290" lon="-6.3162810">
        <ele>1294.2</ele>
        <time>2021-10-03T14:56:00Z</time>
      </trkpt>
      <trkpt lat="42.4881810" lon="-6.3165200">
        <ele>1295.0</ele>
        <time>2021-10-03T14:56:06Z</time>
      </trkpt>
      <trkpt lat="42.4881900" lon="-6.3165620">
        <ele>1295.4</ele>
        <time>2021-10-03T14:56:07Z</time>
      </trkpt>
      <trkpt lat="42.4882480" lon="-6.3168240">
        <ele>1296.4</ele>
        <time>2021-10-03T14:56:13Z</time>
      </trkpt>
      <trkpt lat="42.4883110" lon="-6.3170840">
        <ele>1297.6</ele>
        <time>2021-10-03T14:56:19Z</time>
      </trkpt>
      <trkpt lat="42.4883450" lon="-6.3172090">
        <ele>1299.0</ele>
        <time>2021-10-03T14:56:22Z</time>
      </trkpt>
      <trkpt lat="42.4883740" lon="-6.3172860">
        <ele>1300.2</ele>
        <time>2021-10-03T14:56:24Z</time>
      </trkpt>
      <trkpt lat="42.4884210" lon="-6.3173970">
        <ele>1301.8</ele>
        <time>2021-10-03T14:56:27Z</time>
      </trkpt>
      <trkpt lat="42.4885180" lon="-6.3175660">
        <ele>1303.0</ele>
        <time>2021-10-03T14:56:32Z</time>
      </trkpt>
      <trkpt lat="42.4886210" lon="-6.3177100">
        <ele>1304.4</ele>
        <time>2021-10-03T14:56:37Z</time>
      </trkpt>
      <trkpt lat="42.4887090" lon="-6.3178420">
        <ele>1305.4</ele>
        <time>2021-10-03T14:56:41Z</time>
      </trkpt>
      <trkpt lat="42.4888990" lon="-6.3181440">
        <ele>1306.4</ele>
        <time>2021-10-03T14:56:50Z</time>
      </trkpt>
      <trkpt lat="42.4891520" lon="-6.3185040">
        <ele>1308.0</ele>
        <time>2021-10-03T14:57:02Z</time>
      </trkpt>
      <trkpt lat="42.4893110" lon="-6.3186890">
        <ele>1309.2</ele>
        <time>2021-10-03T14:57:09Z</time>
      </trkpt>
      <trkpt lat="42.4894000" lon="-6.3187760">
        <ele>1310.2</ele>
        <time>2021-10-03T14:57:13Z</time>
      </trkpt>
      <trkpt lat="42.4894670" lon="-6.3188330">
        <ele>1311.4</ele>
        <time>2021-10-03T14:57:16Z</time>
      </trkpt>
      <trkpt lat="42.4895820" lon="-6.3189220">
        <ele>1312.4</ele>
        <time>2021-10-03T14:57:21Z</time>
      </trkpt>
      <trkpt lat="42.4897820" lon="-6.3191030">
        <ele>1313.4</ele>
        <time>2021-10-03T14:57:30Z</time>
      </trkpt>
      <trkpt lat="42.4898330" lon="-6.3191870">
        <ele>1314.4</ele>
        <time>2021-10-03T14:57:33Z</time>
      </trkpt>
      <trkpt lat="42.4898560" lon="-6.3192570">
        <ele>1315.8</ele>
        <time>2021-10-03T14:57:35Z</time>
      </trkpt>
      <trkpt lat="42.4898720" lon="-6.3193330">
        <ele>1317.2</ele>
        <time>2021-10-03T14:57:37Z</time>
      </trkpt>
      <trkpt lat="42.4898420" lon="-6.3195980">
        <ele>1318.4</ele>
        <time>2021-10-03T14:57:43Z</time>
      </trkpt>
      <trkpt lat="42.4897520" lon="-6.3198880">
        <ele>1319.4</ele>
        <time>2021-10-03T14:57:50Z</time>
      </trkpt>
      <trkpt lat="42.4896890" lon="-6.3200360">
        <ele>1320.4</ele>
        <time>2021-10-03T14:57:54Z</time>
      </trkpt>
      <trkpt lat="42.4896310" lon="-6.3201940">
        <ele>1321.6</ele>
        <time>2021-10-03T14:57:58Z</time>
      </trkpt>
      <trkpt lat="42.4895130" lon="-6.3208580">
        <ele>1322.8</ele>
        <time>2021-10-03T14:58:14Z</time>
      </trkpt>
      <trkpt lat="42.4895020" lon="-6.3210250">
        <ele>1324.0</ele>
        <time>2021-10-03T14:58:18Z</time>
      </trkpt>
      <trkpt lat="42.4894920" lon="-6.3212400">
        <ele>1325.0</ele>
        <time>2021-10-03T14:58:23Z</time>
      </trkpt>
      <trkpt lat="42.4895620" lon="-6.3218390">
        <ele>1326.2</ele>
        <time>2021-10-03T14:58:38Z</time>
      </trkpt>
      <trkpt lat="42.4896380" lon="-6.3221070">
        <ele>1327.2</ele>
        <time>2021-10-03T14:58:45Z</time>
      </trkpt>
      <trkpt lat="42.4896870" lon="-6.3222560">
        <ele>1328.4</ele>
        <time>2021-10-03T14:58:49Z</time>
      </trkpt>
      <trkpt lat="42.4897850" lon="-6.3224580">
        <ele>1329.6</ele>
        <time>2021-10-03T14:58:55Z</time>
      </trkpt>
      <trkpt lat="42.4898890" lon="-6.3226080">
        <ele>1330.8</ele>
        <time>2021-10-03T14:59:00Z</time>
      </trkpt>
      <trkpt lat="42.4900200" lon="-6.3227930">
        <ele>1331.8</ele>
        <time>2021-10-03T14:59:06Z</time>
      </trkpt>
      <trkpt lat="42.4901100" lon="-6.3229150">
        <ele>1332.8</ele>
        <time>2021-10-03T14:59:10Z</time>
      </trkpt>
      <trkpt lat="42.4901770" lon="-6.3229970">
        <ele>1334.0</ele>
        <time>2021-10-03T14:59:13Z</time>
      </trkpt>
      <trkpt lat="42.4903040" lon="-6.3231820">
        <ele>1335.0</ele>
        <time>2021-10-03T14:59:19Z</time>
      </trkpt>
      <trkpt lat="42.4904430" lon="-6.3233550">
        <ele>1336.0</ele>
        <time>2021-10-03T14:59:25Z</time>
      </trkpt>
      <trkpt lat="42.4906670" lon="-6.3236840">
        <ele>1337.0</ele>
        <time>2021-10-03T14:59:35Z</time>
      </trkpt>
      <trkpt lat="42.4907700" lon="-6.3239360">
        <ele>1338.4</ele>
        <time>2021-10-03T14:59:41Z</time>
      </trkpt>
      <trkpt lat="42.4908110" lon="-6.3240820">
        <ele>1338.8</ele>
        <time>2021-10-03T14:59:44Z</time>
      </trkpt>
      <trkpt lat="42.4908640" lon="-6.3243150">
        <ele>1338.8</ele>
        <time>2021-10-03T14:59:49Z</time>
      </trkpt>
      <trkpt lat="42.4910190" lon="-6.3250210">
        <ele>1339.2</ele>
        <time>2021-10-03T15:00:04Z</time>
      </trkpt>
      <trkpt lat="42.4910650" lon="-6.3252200">
        <ele>1339.6</ele>
        <time>2021-10-03T15:00:08Z</time>
      </trkpt>
      <trkpt lat="42.4911320" lon="-6.3255220">
        <ele>1340.6</ele>
        <time>2021-10-03T15:00:14Z</time>
      </trkpt>
      <trkpt lat="42.4912030" lon="-6.3258250">
        <ele>1341.6</ele>
        <time>2021-10-03T15:00:20Z</time>
      </trkpt>
      <trkpt lat="42.4912490" lon="-6.3260330">
        <ele>1342.8</ele>
        <time>2021-10-03T15:00:24Z</time>
      </trkpt>
      <trkpt lat="42.4912870" lon="-6.3261820">
        <ele>1343.8</ele>
        <time>2021-10-03T15:00:27Z</time>
      </trkpt>
      <trkpt lat="42.4913070" lon="-6.3262790">
        <ele>1345.2</ele>
        <time>2021-10-03T15:00:29Z</time>
      </trkpt>
      <trkpt lat="42.4913220" lon="-6.3265020">
        <ele>1345.8</ele>
        <time>2021-10-03T15:00:33Z</time>
      </trkpt>
      <trkpt lat="42.4913050" lon="-6.3266310">
        <ele>1346.2</ele>
        <time>2021-10-03T15:00:35Z</time>
      </trkpt>
      <trkpt lat="42.4912680" lon="-6.3267690">
        <ele>1346.6</ele>
        <time>2021-10-03T15:00:37Z</time>
      </trkpt>
      <trkpt lat="42.4910950" lon="-6.3270700">
        <ele>1347.0</ele>
        <time>2021-10-03T15:00:42Z</time>
      </trkpt>
      <trkpt lat="42.4910030" lon="-6.3271560">
        <ele>1347.0</ele>
        <time>2021-10-03T15:00:44Z</time>
      </trkpt>
      <trkpt lat="42.4906210" lon="-6.3274380">
        <ele>1347.2</ele>
        <time>2021-10-03T15:00:52Z</time>
      </trkpt>
      <trkpt lat="42.4902540" lon="-6.3276890">
        <ele>1348.4</ele>
        <time>2021-10-03T15:01:01Z</time>
      </trkpt>
      <trkpt lat="42.4902180" lon="-6.3277170">
        <ele>1349.6</ele>
        <time>2021-10-03T15:01:02Z</time>
      </trkpt>
      <trkpt lat="42.4901050" lon="-6.3277880">
        <ele>1350.8</ele>
        <time>2021-10-03T15:01:05Z</time>
      </trkpt>
      <trkpt lat="42.4899690" lon="-6.3278600">
        <ele>1352.2</ele>
        <time>2021-10-03T15:01:09Z</time>
      </trkpt>
      <trkpt lat="42.4899110" lon="-6.3279050">
        <ele>1353.4</ele>
        <time>2021-10-03T15:01:11Z</time>
      </trkpt>
      <trkpt lat="42.4897720" lon="-6.3280200">
        <ele>1354.4</ele>
        <time>2021-10-03T15:01:16Z</time>
      </trkpt>
      <trkpt lat="42.4896990" lon="-6.3281150">
        <ele>1355.4</ele>
        <time>2021-10-03T15:01:19Z</time>
      </trkpt>
      <trkpt lat="42.4895380" lon="-6.3283510">
        <ele>1356.6</ele>
        <time>2021-10-03T15:01:26Z</time>
      </trkpt>
      <trkpt lat="42.4894460" lon="-6.3285040">
        <ele>1357.8</ele>
        <time>2021-10-03T15:01:31Z</time>
      </trkpt>
      <trkpt lat="42.4893530" lon="-6.3286470">
        <ele>1358.8</ele>
        <time>2021-10-03T15:01:36Z</time>
      </trkpt>
      <trkpt lat="42.4892350" lon="-6.3288960">
        <ele>1359.8</ele>
        <time>2021-10-03T15:01:44Z</time>
      </trkpt>
      <trkpt lat="42.4891660" lon="-6.3290930">
        <ele>1360.8</ele>
        <time>2021-10-03T15:01:50Z</time>
      </trkpt>
      <trkpt lat="42.4891240" lon="-6.3293110">
        <ele>1362.2</ele>
        <time>2021-10-03T15:01:56Z</time>
      </trkpt>
      <trkpt lat="42.4891060" lon="-6.3294580">
        <ele>1363.4</ele>
        <time>2021-10-03T15:02:00Z</time>
      </trkpt>
      <trkpt lat="42.4891000" lon="-6.3296040">
        <ele>1364.4</ele>
        <time>2021-10-03T15:02:04Z</time>
      </trkpt>
      <trkpt lat="42.4891030" lon="-6.3297930">
        <ele>1365.4</ele>
        <time>2021-10-03T15:02:09Z</time>
      </trkpt>
      <trkpt lat="42.4890930" lon="-6.3301080">
        <ele>1366.4</ele>
        <time>2021-10-03T15:02:17Z</time>
      </trkpt>
      <trkpt lat="42.4890800" lon="-6.3303710">
        <ele>1367.6</ele>
        <time>2021-10-03T15:02:24Z</time>
      </trkpt>
      <trkpt lat="42.4890760" lon="-6.3307520">
        <ele>1368.8</ele>
        <time>2021-10-03T15:02:34Z</time>
      </trkpt>
      <trkpt lat="42.4891160" lon="-6.3311630">
        <ele>1370.0</ele>
        <time>2021-10-03T15:02:45Z</time>
      </trkpt>
      <trkpt lat="42.4891980" lon="-6.3314750">
        <ele>1371.2</ele>
        <time>2021-10-03T15:02:54Z</time>
      </trkpt>
      <trkpt lat="42.4892520" lon="-6.3316030">
        <ele>1372.4</ele>
        <time>2021-10-03T15:02:58Z</time>
      </trkpt>
      <trkpt lat="42.4893130" lon="-6.3317280">
        <ele>1373.8</ele>
        <time>2021-10-03T15:03:02Z</time>
      </trkpt>
      <trkpt lat="42.4893950" lon="-6.3318790">
        <ele>1374.8</ele>
        <time>2021-10-03T15:03:07Z</time>
      </trkpt>
      <trkpt lat="42.4894870" lon="-6.3320220">
        <ele>1376.0</ele>
        <time>2021-10-03T15:03:12Z</time>
      </trkpt>
      <trkpt lat="42.4896040" lon="-6.3321860">
        <ele>1377.0</ele>
        <time>2021-10-03T15:03:18Z</time>
      </trkpt>
      <trkpt lat="42.4898560" lon="-6.3325800">
        <ele>1378.0</ele>
        <time>2021-10-03T15:03:31Z</time>
      </trkpt>
      <trkpt lat="42.4900040" lon="-6.3327960">
        <ele>1379.2</ele>
        <time>2021-10-03T15:03:38Z</time>
      </trkpt>
      <trkpt lat="42.4902050" lon="-6.3330900">
        <ele>1379.6</ele>
        <time>2021-10-03T15:03:48Z</time>
      </trkpt>
      <trkpt lat="42.4902470" lon="-6.3331470">
        <ele>1380.0</ele>
        <time>2021-10-03T15:03:50Z</time>
      </trkpt>
      <trkpt lat="42.4902700" lon="-6.3331750">
        <ele>1380.0</ele>
        <time>2021-10-03T15:03:51Z</time>
      </trkpt>
      <trkpt lat="42.4904300" lon="-6.3333540">
        <ele>1381.0</ele>
        <time>2021-10-03T15:03:58Z</time>
      </trkpt>
      <trkpt lat="42.4906000" lon="-6.3335000">
        <ele>1382.2</ele>
        <time>2021-10-03T15:04:05Z</time>
      </trkpt>
      <trkpt lat="42.4906480" lon="-6.3335390">
        <ele>1383.2</ele>
        <time>2021-10-03T15:04:07Z</time>
      </trkpt>
      <trkpt lat="42.4907490" lon="-6.3336070">
        <ele>1384.4</ele>
        <time>2021-10-03T15:04:11Z</time>
      </trkpt>
      <trkpt lat="42.4908970" lon="-6.3337180">
        <ele>1385.6</ele>
        <time>2021-10-03T15:04:17Z</time>
      </trkpt>
      <trkpt lat="42.4911580" lon="-6.3339380">
        <ele>1387.2</ele>
        <time>2021-10-03T15:04:28Z</time>
      </trkpt>
      <trkpt lat="42.4912190" lon="-6.3340180">
        <ele>1388.2</ele>
        <time>2021-10-03T15:04:31Z</time>
      </trkpt>
      <trkpt lat="42.4913920" lon="-6.3344210">
        <ele>1389.2</ele>
        <time>2021-10-03T15:04:43Z</time>
      </trkpt>
      <trkpt lat="42.4914770" lon="-6.3345740">
        <ele>1389.6</ele>
        <time>2021-10-03T15:04:48Z</time>
      </trkpt>
      <trkpt lat="42.4915790" lon="-6.3345210">
        <ele>1390.2</ele>
        <time>2021-10-03T15:04:52Z</time>
      </trkpt>
      <trkpt lat="42.4916460" lon="-6.3345360">
        <ele>1391.6</ele>
        <time>2021-10-03T15:04:55Z</time>
      </trkpt>
      <trkpt lat="42.4916530" lon="-6.3346070">
        <ele>1392.6</ele>
        <time>2021-10-03T15:04:57Z</time>
      </trkpt>
      <trkpt lat="42.4916440" lon="-6.3346820">
        <ele>1394.4</ele>
        <time>2021-10-03T15:04:59Z</time>
      </trkpt>
      <trkpt lat="42.4916410" lon="-6.3347640">
        <ele>1395.8</ele>
        <time>2021-10-03T15:05:01Z</time>
      </trkpt>
      <trkpt lat="42.4916290" lon="-6.3350050">
        <ele>1396.8</ele>
        <time>2021-10-03T15:05:07Z</time>
      </trkpt>
      <trkpt lat="42.4916590" lon="-6.3354940">
        <ele>1397.4</ele>
        <time>2021-10-03T15:05:21Z</time>
      </trkpt>
      <trkpt lat="42.4916400" lon="-6.3355890">
        <ele>1398.0</ele>
        <time>2021-10-03T15:05:24Z</time>
      </trkpt>
      <trkpt lat="42.4916210" lon="-6.3357190">
        <ele>1399.4</ele>
        <time>2021-10-03T15:05:28Z</time>
      </trkpt>
      <trkpt lat="42.4916130" lon="-6.3357790">
        <ele>1400.8</ele>
        <time>2021-10-03T15:05:30Z</time>
      </trkpt>
      <trkpt lat="42.4915850" lon="-6.3359600">
        <ele>1401.8</ele>
        <time>2021-10-03T15:05:36Z</time>
      </trkpt>
      <trkpt lat="42.4915410" lon="-6.3361870">
        <ele>1403.0</ele>
        <time>2021-10-03T15:05:44Z</time>
      </trkpt>
      <trkpt lat="42.4915180" lon="-6.3363090">
        <ele>1404.2</ele>
        <time>2021-10-03T15:05:48Z</time>
      </trkpt>
      <trkpt lat="42.4914960" lon="-6.3364340">
        <ele>1405.2</ele>
        <time>2021-10-03T15:05:52Z</time>
      </trkpt>
      <trkpt lat="42.4914810" lon="-6.3364960">
        <ele>1406.2</ele>
        <time>2021-10-03T15:05:54Z</time>
      </trkpt>
      <trkpt lat="42.4914530" lon="-6.3366520">
        <ele>1407.2</ele>
        <time>2021-10-03T15:05:59Z</time>
      </trkpt>
      <trkpt lat="42.4914300" lon="-6.3368040">
        <ele>1408.6</ele>
        <time>2021-10-03T15:06:04Z</time>
      </trkpt>
      <trkpt lat="42.4914130" lon="-6.3369300">
        <ele>1409.6</ele>
        <time>2021-10-03T15:06:08Z</time>
      </trkpt>
      <trkpt lat="42.4913690" lon="-6.3371770">
        <ele>1410.6</ele>
        <time>2021-10-03T15:06:15Z</time>
      </trkpt>
      <trkpt lat="42.4913590" lon="-6.3372120">
        <ele>1410.6</ele>
        <time>2021-10-03T15:06:16Z</time>
      </trkpt>
      <trkpt lat="42.4912690" lon="-6.3374260">
        <ele>1411.6</ele>
        <time>2021-10-03T15:06:22Z</time>
      </trkpt>
      <trkpt lat="42.4911640" lon="-6.3377850">
        <ele>1412.0</ele>
        <time>2021-10-03T15:06:31Z</time>
      </trkpt>
      <trkpt lat="42.4910850" lon="-6.3379730">
        <ele>1412.4</ele>
        <time>2021-10-03T15:06:36Z</time>
      </trkpt>
      <trkpt lat="42.4909620" lon="-6.3384320">
        <ele>1412.8</ele>
        <time>2021-10-03T15:06:46Z</time>
      </trkpt>
      <trkpt lat="42.4908880" lon="-6.3386670">
        <ele>1412.8</ele>
        <time>2021-10-03T15:06:51Z</time>
      </trkpt>
      <trkpt lat="42.4907210" lon="-6.3394060">
        <ele>1411.6</ele>
        <time>2021-10-03T15:07:08Z</time>
      </trkpt>
      <trkpt lat="42.4907130" lon="-6.3401380">
        <ele>1413.2</ele>
        <time>2021-10-03T15:07:25Z</time>
      </trkpt>
      <trkpt lat="42.4907200" lon="-6.3402280">
        <ele>1413.6</ele>
        <time>2021-10-03T15:07:27Z</time>
      </trkpt>
      <trkpt lat="42.4908090" lon="-6.3409160">
        <ele>1414.6</ele>
        <time>2021-10-03T15:07:44Z</time>
      </trkpt>
      <trkpt lat="42.4908380" lon="-6.3410110">
        <ele>1415.4</ele>
        <time>2021-10-03T15:07:49Z</time>
      </trkpt>
      <trkpt lat="42.4908520" lon="-6.3410350">
        <ele>1415.8</ele>
        <time>2021-10-03T15:07:52Z</time>
      </trkpt>
      <trkpt lat="42.4908600" lon="-6.3410480">
        <ele>1417.0</ele>
        <time>2021-10-03T15:07:54Z</time>
      </trkpt>
      <trkpt lat="42.4908650" lon="-6.3410530">
        <ele>1418.2</ele>
        <time>2021-10-03T15:07:55Z</time>
      </trkpt>
      <trkpt lat="42.4908700" lon="-6.3410540">
        <ele>1418.8</ele>
        <time>2021-10-03T15:07:56Z</time>
      </trkpt>
      <trkpt lat="42.4923180" lon="-6.3448350">
        <ele>1439.4</ele>
        <time>2021-10-03T15:10:23Z</time>
      </trkpt>
      <trkpt lat="42.4923320" lon="-6.3448690">
        <ele>1439.2</ele>
        <time>2021-10-03T15:10:24Z</time>
      </trkpt>
      <trkpt lat="42.4924340" lon="-6.3450990">
        <ele>1439.2</ele>
        <time>2021-10-03T15:10:30Z</time>
      </trkpt>
      <trkpt lat="42.4925810" lon="-6.3455250">
        <ele>1438.4</ele>
        <time>2021-10-03T15:10:40Z</time>
      </trkpt>
      <trkpt lat="42.4926180" lon="-6.3457280">
        <ele>1438.4</ele>
        <time>2021-10-03T15:10:44Z</time>
      </trkpt>
      <trkpt lat="42.4926750" lon="-6.3461350">
        <ele>1439.8</ele>
        <time>2021-10-03T15:10:52Z</time>
      </trkpt>
      <trkpt lat="42.4926630" lon="-6.3463970">
        <ele>1440.2</ele>
        <time>2021-10-03T15:10:57Z</time>
      </trkpt>
      <trkpt lat="42.4925620" lon="-6.3470240">
        <ele>1441.2</ele>
        <time>2021-10-03T15:11:10Z</time>
      </trkpt>
      <trkpt lat="42.4925520" lon="-6.3470740">
        <ele>1441.2</ele>
        <time>2021-10-03T15:11:11Z</time>
      </trkpt>
      <trkpt lat="42.4924810" lon="-6.3474340">
        <ele>1442.2</ele>
        <time>2021-10-03T15:11:18Z</time>
      </trkpt>
      <trkpt lat="42.4923140" lon="-6.3481350">
        <ele>1442.2</ele>
        <time>2021-10-03T15:11:32Z</time>
      </trkpt>
      <trkpt lat="42.4922290" lon="-6.3483770">
        <ele>1443.0</ele>
        <time>2021-10-03T15:11:38Z</time>
      </trkpt>
      <trkpt lat="42.4922030" lon="-6.3484550">
        <ele>1443.2</ele>
        <time>2021-10-03T15:11:40Z</time>
      </trkpt>
      <trkpt lat="42.4921570" lon="-6.3485680">
        <ele>1443.4</ele>
        <time>2021-10-03T15:11:43Z</time>
      </trkpt>
      <trkpt lat="42.4921230" lon="-6.3486450">
        <ele>1444.4</ele>
        <time>2021-10-03T15:11:45Z</time>
      </trkpt>
      <trkpt lat="42.4920900" lon="-6.3487690">
        <ele>1445.8</ele>
        <time>2021-10-03T15:11:48Z</time>
      </trkpt>
      <trkpt lat="42.4920700" lon="-6.3489400">
        <ele>1446.4</ele>
        <time>2021-10-03T15:11:52Z</time>
      </trkpt>
      <trkpt lat="42.4920690" lon="-6.3489820">
        <ele>1446.8</ele>
        <time>2021-10-03T15:11:53Z</time>
      </trkpt>
      <trkpt lat="42.4920630" lon="-6.3490950">
        <ele>1448.0</ele>
        <time>2021-10-03T15:11:56Z</time>
      </trkpt>
      <trkpt lat="42.4920490" lon="-6.3492300">
        <ele>1449.0</ele>
        <time>2021-10-03T15:12:00Z</time>
      </trkpt>
      <trkpt lat="42.4920260" lon="-6.3493240">
        <ele>1450.4</ele>
        <time>2021-10-03T15:12:03Z</time>
      </trkpt>
      <trkpt lat="42.4919640" lon="-6.3494980">
        <ele>1451.4</ele>
        <time>2021-10-03T15:12:09Z</time>
      </trkpt>
      <trkpt lat="42.4919420" lon="-6.3495840">
        <ele>1452.8</ele>
        <time>2021-10-03T15:12:12Z</time>
      </trkpt>
      <trkpt lat="42.4919300" lon="-6.3497190">
        <ele>1453.6</ele>
        <time>2021-10-03T15:12:17Z</time>
      </trkpt>
      <trkpt lat="42.4919040" lon="-6.3498870">
        <ele>1454.8</ele>
        <time>2021-10-03T15:12:23Z</time>
      </trkpt>
      <trkpt lat="42.4918940" lon="-6.3499730">
        <ele>1456.0</ele>
        <time>2021-10-03T15:12:26Z</time>
      </trkpt>
      <trkpt lat="42.4918110" lon="-6.3502070">
        <ele>1457.2</ele>
        <time>2021-10-03T15:12:35Z</time>
      </trkpt>
      <trkpt lat="42.4917530" lon="-6.3502600">
        <ele>1458.6</ele>
        <time>2021-10-03T15:12:38Z</time>
      </trkpt>
      <trkpt lat="42.4916560" lon="-6.3503100">
        <ele>1459.6</ele>
        <time>2021-10-03T15:12:42Z</time>
      </trkpt>
      <trkpt lat="42.4915300" lon="-6.3503330">
        <ele>1460.8</ele>
        <time>2021-10-03T15:12:47Z</time>
      </trkpt>
      <trkpt lat="42.4913260" lon="-6.3502540">
        <ele>1461.8</ele>
        <time>2021-10-03T15:12:55Z</time>
      </trkpt>
      <trkpt lat="42.4911930" lon="-6.3502170">
        <ele>1463.0</ele>
        <time>2021-10-03T15:13:00Z</time>
      </trkpt>
      <trkpt lat="42.4910640" lon="-6.3502100">
        <ele>1464.0</ele>
        <time>2021-10-03T15:13:05Z</time>
      </trkpt>
      <trkpt lat="42.4908890" lon="-6.3502250">
        <ele>1465.6</ele>
        <time>2021-10-03T15:13:12Z</time>
      </trkpt>
      <trkpt lat="42.4907370" lon="-6.3502380">
        <ele>1466.6</ele>
        <time>2021-10-03T15:13:18Z</time>
      </trkpt>
      <trkpt lat="42.4905760" lon="-6.3502790">
        <ele>1467.8</ele>
        <time>2021-10-03T15:13:24Z</time>
      </trkpt>
      <trkpt lat="42.4904420" lon="-6.3503440">
        <ele>1469.0</ele>
        <time>2021-10-03T15:13:29Z</time>
      </trkpt>
      <trkpt lat="42.4902880" lon="-6.3504300">
        <ele>1470.2</ele>
        <time>2021-10-03T15:13:35Z</time>
      </trkpt>
      <trkpt lat="42.4901950" lon="-6.3504980">
        <ele>1471.6</ele>
        <time>2021-10-03T15:13:39Z</time>
      </trkpt>
      <trkpt lat="42.4901280" lon="-6.3505540">
        <ele>1472.6</ele>
        <time>2021-10-03T15:13:42Z</time>
      </trkpt>
      <trkpt lat="42.4900820" lon="-6.3505810">
        <ele>1473.6</ele>
        <time>2021-10-03T15:13:44Z</time>
      </trkpt>
      <trkpt lat="42.4899740" lon="-6.3507060">
        <ele>1475.0</ele>
        <time>2021-10-03T15:13:50Z</time>
      </trkpt>
      <trkpt lat="42.4899350" lon="-6.3508250">
        <ele>1476.0</ele>
        <time>2021-10-03T15:13:54Z</time>
      </trkpt>
      <trkpt lat="42.4898540" lon="-6.3510220">
        <ele>1477.2</ele>
        <time>2021-10-03T15:14:01Z</time>
      </trkpt>
      <trkpt lat="42.4898020" lon="-6.3512630">
        <ele>1478.2</ele>
        <time>2021-10-03T15:14:09Z</time>
      </trkpt>
      <trkpt lat="42.4898900" lon="-6.3517330">
        <ele>1479.2</ele>
        <time>2021-10-03T15:14:24Z</time>
      </trkpt>
      <trkpt lat="42.4901050" lon="-6.3521090">
        <ele>1480.4</ele>
        <time>2021-10-03T15:14:38Z</time>
      </trkpt>
      <trkpt lat="42.4902130" lon="-6.3522570">
        <ele>1481.4</ele>
        <time>2021-10-03T15:14:43Z</time>
      </trkpt>
      <trkpt lat="42.4903190" lon="-6.3523920">
        <ele>1483.0</ele>
        <time>2021-10-03T15:14:48Z</time>
      </trkpt>
      <trkpt lat="42.4905040" lon="-6.3525930">
        <ele>1484.2</ele>
        <time>2021-10-03T15:14:56Z</time>
      </trkpt>
      <trkpt lat="42.4905850" lon="-6.3526530">
        <ele>1485.2</ele>
        <time>2021-10-03T15:14:59Z</time>
      </trkpt>
      <trkpt lat="42.4908210" lon="-6.3528200">
        <ele>1486.6</ele>
        <time>2021-10-03T15:15:07Z</time>
      </trkpt>
      <trkpt lat="42.4910460" lon="-6.3530010">
        <ele>1487.0</ele>
        <time>2021-10-03T15:15:14Z</time>
      </trkpt>
      <trkpt lat="42.4911160" lon="-6.3530590">
        <ele>1487.2</ele>
        <time>2021-10-03T15:15:16Z</time>
      </trkpt>
      <trkpt lat="42.4912130" lon="-6.3531750">
        <ele>1487.0</ele>
        <time>2021-10-03T15:15:19Z</time>
      </trkpt>
      <trkpt lat="42.4912970" lon="-6.3533070">
        <ele>1487.0</ele>
        <time>2021-10-03T15:15:22Z</time>
      </trkpt>
      <trkpt lat="42.4913330" lon="-6.3534110">
        <ele>1486.8</ele>
        <time>2021-10-03T15:15:24Z</time>
      </trkpt>
      <trkpt lat="42.4913600" lon="-6.3535240">
        <ele>1486.6</ele>
        <time>2021-10-03T15:15:26Z</time>
      </trkpt>
      <trkpt lat="42.4913920" lon="-6.3536360">
        <ele>1486.4</ele>
        <time>2021-10-03T15:15:28Z</time>
      </trkpt>
      <trkpt lat="42.4914530" lon="-6.3537960">
        <ele>1486.2</ele>
        <time>2021-10-03T15:15:31Z</time>
      </trkpt>
      <trkpt lat="42.4915220" lon="-6.3539490">
        <ele>1485.4</ele>
        <time>2021-10-03T15:15:34Z</time>
      </trkpt>
      <trkpt lat="42.4915660" lon="-6.3540580">
        <ele>1484.6</ele>
        <time>2021-10-03T15:15:36Z</time>
      </trkpt>
      <trkpt lat="42.4915920" lon="-6.3541830">
        <ele>1484.2</ele>
        <time>2021-10-03T15:15:38Z</time>
      </trkpt>
      <trkpt lat="42.4915990" lon="-6.3543180">
        <ele>1483.8</ele>
        <time>2021-10-03T15:15:40Z</time>
      </trkpt>
      <trkpt lat="42.4915970" lon="-6.3543860">
        <ele>1483.8</ele>
        <time>2021-10-03T15:15:41Z</time>
      </trkpt>
      <trkpt lat="42.4915880" lon="-6.3545850">
        <ele>1483.2</ele>
        <time>2021-10-03T15:15:44Z</time>
      </trkpt>
      <trkpt lat="42.4916150" lon="-6.3546970">
        <ele>1483.0</ele>
        <time>2021-10-03T15:15:46Z</time>
      </trkpt>
      <trkpt lat="42.4916420" lon="-6.3549090">
        <ele>1483.6</ele>
        <time>2021-10-03T15:15:51Z</time>
      </trkpt>
      <trkpt lat="42.4916220" lon="-6.3549550">
        <ele>1483.6</ele>
        <time>2021-10-03T15:15:53Z</time>
      </trkpt>
      <trkpt lat="42.4915720" lon="-6.3550080">
        <ele>1484.4</ele>
        <time>2021-10-03T15:15:56Z</time>
      </trkpt>
      <trkpt lat="42.4915050" lon="-6.3550460">
        <ele>1485.0</ele>
        <time>2021-10-03T15:15:59Z</time>
      </trkpt>
      <trkpt lat="42.4914620" lon="-6.3550830">
        <ele>1485.4</ele>
        <time>2021-10-03T15:16:01Z</time>
      </trkpt>
      <trkpt lat="42.4913780" lon="-6.3551630">
        <ele>1486.6</ele>
        <time>2021-10-03T15:16:05Z</time>
      </trkpt>
      <trkpt lat="42.4912900" lon="-6.3552540">
        <ele>1487.6</ele>
        <time>2021-10-03T15:16:09Z</time>
      </trkpt>
      <trkpt lat="42.4912210" lon="-6.3553350">
        <ele>1488.6</ele>
        <time>2021-10-03T15:16:12Z</time>
      </trkpt>
      <trkpt lat="42.4911490" lon="-6.3554160">
        <ele>1489.6</ele>
        <time>2021-10-03T15:16:15Z</time>
      </trkpt>
      <trkpt lat="42.4911280" lon="-6.3554490">
        <ele>1489.8</ele>
        <time>2021-10-03T15:16:16Z</time>
      </trkpt>
      <trkpt lat="42.4909580" lon="-6.3556880">
        <ele>1490.6</ele>
        <time>2021-10-03T15:16:24Z</time>
      </trkpt>
      <trkpt lat="42.4907970" lon="-6.3560830">
        <ele>1491.6</ele>
        <time>2021-10-03T15:16:34Z</time>
      </trkpt>
      <trkpt lat="42.4907700" lon="-6.3568540">
        <ele>1492.6</ele>
        <time>2021-10-03T15:16:50Z</time>
      </trkpt>
      <trkpt lat="42.4907540" lon="-6.3573230">
        <ele>1494.0</ele>
        <time>2021-10-03T15:16:59Z</time>
      </trkpt>
      <trkpt lat="42.4907050" lon="-6.3577410">
        <ele>1494.8</ele>
        <time>2021-10-03T15:17:06Z</time>
      </trkpt>
      <trkpt lat="42.4905970" lon="-6.3581780">
        <ele>1494.8</ele>
        <time>2021-10-03T15:17:13Z</time>
      </trkpt>
      <trkpt lat="42.4904620" lon="-6.3585290">
        <ele>1494.0</ele>
        <time>2021-10-03T15:17:18Z</time>
      </trkpt>
      <trkpt lat="42.4903380" lon="-6.3588000">
        <ele>1493.6</ele>
        <time>2021-10-03T15:17:22Z</time>
      </trkpt>
      <trkpt lat="42.4903000" lon="-6.3588840">
        <ele>1493.2</ele>
        <time>2021-10-03T15:17:24Z</time>
      </trkpt>
      <trkpt lat="42.4902470" lon="-6.3590530">
        <ele>1492.8</ele>
        <time>2021-10-03T15:17:28Z</time>
      </trkpt>
      <trkpt lat="42.4902070" lon="-6.3591550">
        <ele>1492.6</ele>
        <time>2021-10-03T15:17:30Z</time>
      </trkpt>
      <trkpt lat="42.4901300" lon="-6.3593880">
        <ele>1492.4</ele>
        <time>2021-10-03T15:17:34Z</time>
      </trkpt>
      <trkpt lat="42.4900350" lon="-6.3596040">
        <ele>1492.4</ele>
        <time>2021-10-03T15:17:38Z</time>
      </trkpt>
      <trkpt lat="42.4899850" lon="-6.3597060">
        <ele>1492.6</ele>
        <time>2021-10-03T15:17:40Z</time>
      </trkpt>
      <trkpt lat="42.4898250" lon="-6.3599990">
        <ele>1492.6</ele>
        <time>2021-10-03T15:17:46Z</time>
      </trkpt>
      <trkpt lat="42.4897020" lon="-6.3602010">
        <ele>1492.6</ele>
        <time>2021-10-03T15:17:51Z</time>
      </trkpt>
      <trkpt lat="42.4896000" lon="-6.3603340">
        <ele>1493.0</ele>
        <time>2021-10-03T15:17:54Z</time>
      </trkpt>
      <trkpt lat="42.4895100" lon="-6.3604620">
        <ele>1493.2</ele>
        <time>2021-10-03T15:17:57Z</time>
      </trkpt>
      <trkpt lat="42.4894330" lon="-6.3605680">
        <ele>1493.2</ele>
        <time>2021-10-03T15:18:00Z</time>
      </trkpt>
      <trkpt lat="42.4893480" lon="-6.3606630">
        <ele>1493.8</ele>
        <time>2021-10-03T15:18:03Z</time>
      </trkpt>
      <trkpt lat="42.4892310" lon="-6.3608240">
        <ele>1495.0</ele>
        <time>2021-10-03T15:18:08Z</time>
      </trkpt>
      <trkpt lat="42.4890560" lon="-6.3611330">
        <ele>1495.0</ele>
        <time>2021-10-03T15:18:21Z</time>
      </trkpt>
      <trkpt lat="42.4890360" lon="-6.3611660">
        <ele>1495.4</ele>
        <time>2021-10-03T15:18:24Z</time>
      </trkpt>
      <trkpt lat="42.4890170" lon="-6.3611990">
        <ele>1495.8</ele>
        <time>2021-10-03T15:18:28Z</time>
      </trkpt>
      <trkpt lat="42.4890080" lon="-6.3612050">
        <ele>1496.0</ele>
        <time>2021-10-03T15:18:29Z</time>
      </trkpt>
      <trkpt lat="42.4889820" lon="-6.3612570">
        <ele>1496.0</ele>
        <time>2021-10-03T15:18:33Z</time>
      </trkpt>
      <trkpt lat="42.4889620" lon="-6.3612960">
        <ele>1496.0</ele>
        <time>2021-10-03T15:18:38Z</time>
      </trkpt>
      <trkpt lat="42.4889370" lon="-6.3612600">
        <ele>1496.8</ele>
        <time>2021-10-03T15:18:54Z</time>
      </trkpt>
      <trkpt lat="42.4888160" lon="-6.3613290">
        <ele>1496.6</ele>
        <time>2021-10-03T15:19:00Z</time>
      </trkpt>
      <trkpt lat="42.4887010" lon="-6.3616610">
        <ele>1495.4</ele>
        <time>2021-10-03T15:19:07Z</time>
      </trkpt>
      <trkpt lat="42.4887580" lon="-6.3618100">
        <ele>1495.4</ele>
        <time>2021-10-03T15:19:10Z</time>
      </trkpt>
      <trkpt lat="42.4887870" lon="-6.3618480">
        <ele>1495.4</ele>
        <time>2021-10-03T15:19:11Z</time>
      </trkpt>
      <trkpt lat="42.4888850" lon="-6.3619320">
        <ele>1495.6</ele>
        <time>2021-10-03T15:19:14Z</time>
      </trkpt>
      <trkpt lat="42.4890770" lon="-6.3619520">
        <ele>1497.0</ele>
        <time>2021-10-03T15:19:23Z</time>
      </trkpt>
      <trkpt lat="42.4890780" lon="-6.3619530">
        <ele>1497.4</ele>
        <time>2021-10-03T15:19:24Z</time>
      </trkpt>
      <trkpt lat="42.4889140" lon="-6.3616400">
        <ele>1496.2</ele>
        <time>2021-10-03T15:45:36Z</time>
      </trkpt>
      <trkpt lat="42.4889020" lon="-6.3616370">
        <ele>1496.2</ele>
        <time>2021-10-03T15:45:37Z</time>
      </trkpt>
      <trkpt lat="42.4888830" lon="-6.3616330">
        <ele>1496.0</ele>
        <time>2021-10-03T15:45:39Z</time>
      </trkpt>
      <trkpt lat="42.4887760" lon="-6.3617000">
        <ele>1495.0</ele>
        <time>2021-10-03T15:50:57Z</time>
      </trkpt>
      <trkpt lat="42.4887430" lon="-6.3617210">
        <ele>1495.0</ele>
        <time>2021-10-03T15:50:59Z</time>
      </trkpt>
      <trkpt lat="42.4886550" lon="-6.3618710">
        <ele>1494.4</ele>
        <time>2021-10-03T15:51:05Z</time>
      </trkpt>
      <trkpt lat="42.4886610" lon="-6.3619620">
        <ele>1494.0</ele>
        <time>2021-10-03T15:51:08Z</time>
      </trkpt>
      <trkpt lat="42.4886510" lon="-6.3620670">
        <ele>1493.4</ele>
        <time>2021-10-03T15:51:13Z</time>
      </trkpt>
      <trkpt lat="42.4886240" lon="-6.3623800">
        <ele>1492.4</ele>
        <time>2021-10-03T15:51:21Z</time>
      </trkpt>
      <trkpt lat="42.4886190" lon="-6.3624290">
        <ele>1491.8</ele>
        <time>2021-10-03T15:51:22Z</time>
      </trkpt>
      <trkpt lat="42.4885860" lon="-6.3627260">
        <ele>1490.6</ele>
        <time>2021-10-03T15:51:27Z</time>
      </trkpt>
      <trkpt lat="42.4885610" lon="-6.3629190">
        <ele>1490.2</ele>
        <time>2021-10-03T15:51:30Z</time>
      </trkpt>
      <trkpt lat="42.4885690" lon="-6.3631240">
        <ele>1489.4</ele>
        <time>2021-10-03T15:51:33Z</time>
      </trkpt>
      <trkpt lat="42.4885860" lon="-6.3633470">
        <ele>1488.0</ele>
        <time>2021-10-03T15:51:36Z</time>
      </trkpt>
      <trkpt lat="42.4885930" lon="-6.3634210">
        <ele>1487.4</ele>
        <time>2021-10-03T15:51:37Z</time>
      </trkpt>
      <trkpt lat="42.4886040" lon="-6.3634960">
        <ele>1486.8</ele>
        <time>2021-10-03T15:51:38Z</time>
      </trkpt>
      <trkpt lat="42.4886350" lon="-6.3636560">
        <ele>1486.2</ele>
        <time>2021-10-03T15:51:40Z</time>
      </trkpt>
      <trkpt lat="42.4886520" lon="-6.3637380">
        <ele>1485.8</ele>
        <time>2021-10-03T15:51:41Z</time>
      </trkpt>
      <trkpt lat="42.4887060" lon="-6.3639820">
        <ele>1484.6</ele>
        <time>2021-10-03T15:51:44Z</time>
      </trkpt>
      <trkpt lat="42.4887480" lon="-6.3641450">
        <ele>1483.2</ele>
        <time>2021-10-03T15:51:46Z</time>
      </trkpt>
      <trkpt lat="42.4888130" lon="-6.3643710">
        <ele>1482.2</ele>
        <time>2021-10-03T15:51:49Z</time>
      </trkpt>
      <trkpt lat="42.4888580" lon="-6.3645080">
        <ele>1481.2</ele>
        <time>2021-10-03T15:51:51Z</time>
      </trkpt>
      <trkpt lat="42.4888790" lon="-6.3645740">
        <ele>1480.4</ele>
        <time>2021-10-03T15:51:52Z</time>
      </trkpt>
      <trkpt lat="42.4889200" lon="-6.3647060">
        <ele>1478.6</ele>
        <time>2021-10-03T15:51:54Z</time>
      </trkpt>
      <trkpt lat="42.4889540" lon="-6.3648460">
        <ele>1477.4</ele>
        <time>2021-10-03T15:51:56Z</time>
      </trkpt>
      <trkpt lat="42.4889760" lon="-6.3649160">
        <ele>1477.0</ele>
        <time>2021-10-03T15:51:57Z</time>
      </trkpt>
      <trkpt lat="42.4890530" lon="-6.3651380">
        <ele>1476.2</ele>
        <time>2021-10-03T15:52:00Z</time>
      </trkpt>
      <trkpt lat="42.4891010" lon="-6.3652880">
        <ele>1475.6</ele>
        <time>2021-10-03T15:52:02Z</time>
      </trkpt>
      <trkpt lat="42.4891760" lon="-6.3656040">
        <ele>1475.2</ele>
        <time>2021-10-03T15:52:06Z</time>
      </trkpt>
      <trkpt lat="42.4892400" lon="-6.3663030">
        <ele>1474.4</ele>
        <time>2021-10-03T15:52:15Z</time>
      </trkpt>
      <trkpt lat="42.4892490" lon="-6.3664270">
        <ele>1474.2</ele>
        <time>2021-10-03T15:52:17Z</time>
      </trkpt>
      <trkpt lat="42.4892640" lon="-6.3667840">
        <ele>1473.2</ele>
        <time>2021-10-03T15:52:23Z</time>
      </trkpt>
      <trkpt lat="42.4892290" lon="-6.3669700">
        <ele>1472.8</ele>
        <time>2021-10-03T15:52:26Z</time>
      </trkpt>
      <trkpt lat="42.4891760" lon="-6.3671970">
        <ele>1472.4</ele>
        <time>2021-10-03T15:52:29Z</time>
      </trkpt>
      <trkpt lat="42.4891200" lon="-6.3674490">
        <ele>1471.6</ele>
        <time>2021-10-03T15:52:32Z</time>
      </trkpt>
      <trkpt lat="42.4890770" lon="-6.3676930">
        <ele>1470.4</ele>
        <time>2021-10-03T15:52:35Z</time>
      </trkpt>
      <trkpt lat="42.4890540" lon="-6.3678500">
        <ele>1469.2</ele>
        <time>2021-10-03T15:52:37Z</time>
      </trkpt>
      <trkpt lat="42.4890440" lon="-6.3680920">
        <ele>1468.0</ele>
        <time>2021-10-03T15:52:40Z</time>
      </trkpt>
      <trkpt lat="42.4890630" lon="-6.3686200">
        <ele>1467.6</ele>
        <time>2021-10-03T15:52:48Z</time>
      </trkpt>
      <trkpt lat="42.4890560" lon="-6.3689040">
        <ele>1467.8</ele>
        <time>2021-10-03T15:52:54Z</time>
      </trkpt>
      <trkpt lat="42.4890600" lon="-6.3691500">
        <ele>1467.6</ele>
        <time>2021-10-03T15:52:58Z</time>
      </trkpt>
      <trkpt lat="42.4890650" lon="-6.3697150">
        <ele>1467.8</ele>
        <time>2021-10-03T15:53:07Z</time>
      </trkpt>
      <trkpt lat="42.4890920" lon="-6.3699200">
        <ele>1467.8</ele>
        <time>2021-10-03T15:53:11Z</time>
      </trkpt>
      <trkpt lat="42.4891060" lon="-6.3700340">
        <ele>1467.8</ele>
        <time>2021-10-03T15:53:13Z</time>
      </trkpt>
      <trkpt lat="42.4891590" lon="-6.3702610">
        <ele>1468.0</ele>
        <time>2021-10-03T15:53:17Z</time>
      </trkpt>
      <trkpt lat="42.4892200" lon="-6.3704880">
        <ele>1468.4</ele>
        <time>2021-10-03T15:53:21Z</time>
      </trkpt>
      <trkpt lat="42.4892690" lon="-6.3706510">
        <ele>1469.0</ele>
        <time>2021-10-03T15:53:24Z</time>
      </trkpt>
      <trkpt lat="42.4893250" lon="-6.3708500">
        <ele>1470.0</ele>
        <time>2021-10-03T15:53:28Z</time>
      </trkpt>
      <trkpt lat="42.4894580" lon="-6.3712780">
        <ele>1471.0</ele>
        <time>2021-10-03T15:53:37Z</time>
      </trkpt>
      <trkpt lat="42.4896240" lon="-6.3716610">
        <ele>1472.0</ele>
        <time>2021-10-03T15:53:45Z</time>
      </trkpt>
      <trkpt lat="42.4898790" lon="-6.3722340">
        <ele>1472.2</ele>
        <time>2021-10-03T15:53:55Z</time>
      </trkpt>
      <trkpt lat="42.4899690" lon="-6.3724810">
        <ele>1472.2</ele>
        <time>2021-10-03T15:54:00Z</time>
      </trkpt>
      <trkpt lat="42.4900150" lon="-6.3726950">
        <ele>1472.2</ele>
        <time>2021-10-03T15:54:03Z</time>
      </trkpt>
      <trkpt lat="42.4899850" lon="-6.3730390">
        <ele>1472.4</ele>
        <time>2021-10-03T15:54:08Z</time>
      </trkpt>
      <trkpt lat="42.4898980" lon="-6.3733250">
        <ele>1473.0</ele>
        <time>2021-10-03T15:54:13Z</time>
      </trkpt>
      <trkpt lat="42.4898750" lon="-6.3733740">
        <ele>1473.4</ele>
        <time>2021-10-03T15:54:14Z</time>
      </trkpt>
      <trkpt lat="42.4897450" lon="-6.3735280">
        <ele>1474.0</ele>
        <time>2021-10-03T15:54:18Z</time>
      </trkpt>
      <trkpt lat="42.4896710" lon="-6.3735810">
        <ele>1474.2</ele>
        <time>2021-10-03T15:54:20Z</time>
      </trkpt>
      <trkpt lat="42.4895020" lon="-6.3737000">
        <ele>1474.8</ele>
        <time>2021-10-03T15:54:24Z</time>
      </trkpt>
      <trkpt lat="42.4893580" lon="-6.3738000">
        <ele>1474.4</ele>
        <time>2021-10-03T15:54:27Z</time>
      </trkpt>
      <trkpt lat="42.4890750" lon="-6.3741060">
        <ele>1474.2</ele>
        <time>2021-10-03T15:54:33Z</time>
      </trkpt>
      <trkpt lat="42.4889480" lon="-6.3743000">
        <ele>1473.2</ele>
        <time>2021-10-03T15:54:36Z</time>
      </trkpt>
      <trkpt lat="42.4889070" lon="-6.3743640">
        <ele>1472.8</ele>
        <time>2021-10-03T15:54:37Z</time>
      </trkpt>
      <trkpt lat="42.4887910" lon="-6.3745520">
        <ele>1472.2</ele>
        <time>2021-10-03T15:54:40Z</time>
      </trkpt>
      <trkpt lat="42.4887280" lon="-6.3746770">
        <ele>1471.8</ele>
        <time>2021-10-03T15:54:42Z</time>
      </trkpt>
      <trkpt lat="42.4886140" lon="-6.3749420">
        <ele>1471.2</ele>
        <time>2021-10-03T15:54:46Z</time>
      </trkpt>
      <trkpt lat="42.4885350" lon="-6.3751680">
        <ele>1471.0</ele>
        <time>2021-10-03T15:54:49Z</time>
      </trkpt>
      <trkpt lat="42.4884360" lon="-6.3754660">
        <ele>1470.0</ele>
        <time>2021-10-03T15:54:53Z</time>
      </trkpt>
      <trkpt lat="42.4883990" lon="-6.3755790">
        <ele>1468.8</ele>
        <time>2021-10-03T15:54:55Z</time>
      </trkpt>
      <trkpt lat="42.4883410" lon="-6.3759850">
        <ele>1468.0</ele>
        <time>2021-10-03T15:55:04Z</time>
      </trkpt>
      <trkpt lat="42.4883610" lon="-6.3760880">
        <ele>1467.6</ele>
        <time>2021-10-03T15:55:07Z</time>
      </trkpt>
      <trkpt lat="42.4883920" lon="-6.3762800">
        <ele>1466.4</ele>
        <time>2021-10-03T15:55:11Z</time>
      </trkpt>
      <trkpt lat="42.4884150" lon="-6.3764230">
        <ele>1465.4</ele>
        <time>2021-10-03T15:55:15Z</time>
      </trkpt>
      <trkpt lat="42.4884340" lon="-6.3765740">
        <ele>1464.0</ele>
        <time>2021-10-03T15:55:18Z</time>
      </trkpt>
      <trkpt lat="42.4884400" lon="-6.3766300">
        <ele>1463.6</ele>
        <time>2021-10-03T15:55:19Z</time>
      </trkpt>
      <trkpt lat="42.4884520" lon="-6.3768100">
        <ele>1463.0</ele>
        <time>2021-10-03T15:55:22Z</time>
      </trkpt>
      <trkpt lat="42.4884590" lon="-6.3768710">
        <ele>1462.6</ele>
        <time>2021-10-03T15:55:23Z</time>
      </trkpt>
      <trkpt lat="42.4884680" lon="-6.3771360">
        <ele>1461.4</ele>
        <time>2021-10-03T15:55:27Z</time>
      </trkpt>
      <trkpt lat="42.4884700" lon="-6.3772000">
        <ele>1460.4</ele>
        <time>2021-10-03T15:55:28Z</time>
      </trkpt>
      <trkpt lat="42.4884780" lon="-6.3772610">
        <ele>1460.0</ele>
        <time>2021-10-03T15:55:29Z</time>
      </trkpt>
      <trkpt lat="42.4884960" lon="-6.3773900">
        <ele>1459.4</ele>
        <time>2021-10-03T15:55:31Z</time>
      </trkpt>
      <trkpt lat="42.4885000" lon="-6.3774510">
        <ele>1458.8</ele>
        <time>2021-10-03T15:55:32Z</time>
      </trkpt>
      <trkpt lat="42.4885340" lon="-6.3776110">
        <ele>1457.6</ele>
        <time>2021-10-03T15:55:35Z</time>
      </trkpt>
      <trkpt lat="42.4885390" lon="-6.3778220">
        <ele>1456.6</ele>
        <time>2021-10-03T15:55:39Z</time>
      </trkpt>
      <trkpt lat="42.4885300" lon="-6.3778780">
        <ele>1456.2</ele>
        <time>2021-10-03T15:55:40Z</time>
      </trkpt>
      <trkpt lat="42.4885240" lon="-6.3779370">
        <ele>1456.0</ele>
        <time>2021-10-03T15:55:41Z</time>
      </trkpt>
      <trkpt lat="42.4885040" lon="-6.3781190">
        <ele>1455.6</ele>
        <time>2021-10-03T15:55:44Z</time>
      </trkpt>
      <trkpt lat="42.4884650" lon="-6.3783170">
        <ele>1455.4</ele>
        <time>2021-10-03T15:55:47Z</time>
      </trkpt>
      <trkpt lat="42.4884200" lon="-6.3785160">
        <ele>1455.4</ele>
        <time>2021-10-03T15:55:50Z</time>
      </trkpt>
      <trkpt lat="42.4883990" lon="-6.3785700">
        <ele>1455.4</ele>
        <time>2021-10-03T15:55:51Z</time>
      </trkpt>
      <trkpt lat="42.4882810" lon="-6.3788170">
        <ele>1455.4</ele>
        <time>2021-10-03T15:55:56Z</time>
      </trkpt>
      <trkpt lat="42.4880160" lon="-6.3793480">
        <ele>1455.4</ele>
        <time>2021-10-03T15:56:03Z</time>
      </trkpt>
      <trkpt lat="42.4879840" lon="-6.3794340">
        <ele>1455.4</ele>
        <time>2021-10-03T15:56:04Z</time>
      </trkpt>
      <trkpt lat="42.4879220" lon="-6.3795890">
        <ele>1455.0</ele>
        <time>2021-10-03T15:56:06Z</time>
      </trkpt>
      <trkpt lat="42.4878950" lon="-6.3796590">
        <ele>1454.0</ele>
        <time>2021-10-03T15:56:07Z</time>
      </trkpt>
      <trkpt lat="42.4878690" lon="-6.3797260">
        <ele>1452.8</ele>
        <time>2021-10-03T15:56:08Z</time>
      </trkpt>
      <trkpt lat="42.4878430" lon="-6.3797940">
        <ele>1451.8</ele>
        <time>2021-10-03T15:56:09Z</time>
      </trkpt>
      <trkpt lat="42.4877580" lon="-6.3799950">
        <ele>1450.8</ele>
        <time>2021-10-03T15:56:12Z</time>
      </trkpt>
      <trkpt lat="42.4876430" lon="-6.3802930">
        <ele>1450.2</ele>
        <time>2021-10-03T15:56:17Z</time>
      </trkpt>
      <trkpt lat="42.4875740" lon="-6.3807910">
        <ele>1450.0</ele>
        <time>2021-10-03T15:56:26Z</time>
      </trkpt>
      <trkpt lat="42.4875780" lon="-6.3809540">
        <ele>1450.2</ele>
        <time>2021-10-03T15:56:30Z</time>
      </trkpt>
      <trkpt lat="42.4875760" lon="-6.3811140">
        <ele>1451.0</ele>
        <time>2021-10-03T15:56:34Z</time>
      </trkpt>
      <trkpt lat="42.4876030" lon="-6.3812300">
        <ele>1451.8</ele>
        <time>2021-10-03T15:56:37Z</time>
      </trkpt>
      <trkpt lat="42.4877190" lon="-6.3815570">
        <ele>1452.2</ele>
        <time>2021-10-03T15:56:44Z</time>
      </trkpt>
      <trkpt lat="42.4877780" lon="-6.3817310">
        <ele>1452.2</ele>
        <time>2021-10-03T15:56:47Z</time>
      </trkpt>
      <trkpt lat="42.4879890" lon="-6.3823580">
        <ele>1451.4</ele>
        <time>2021-10-03T15:56:58Z</time>
      </trkpt>
      <trkpt lat="42.4880190" lon="-6.3824740">
        <ele>1451.2</ele>
        <time>2021-10-03T15:57:00Z</time>
      </trkpt>
      <trkpt lat="42.4880550" lon="-6.3826470">
        <ele>1451.0</ele>
        <time>2021-10-03T15:57:03Z</time>
      </trkpt>
      <trkpt lat="42.4880950" lon="-6.3829390">
        <ele>1451.0</ele>
        <time>2021-10-03T15:57:08Z</time>
      </trkpt>
      <trkpt lat="42.4881020" lon="-6.3830530">
        <ele>1451.0</ele>
        <time>2021-10-03T15:57:10Z</time>
      </trkpt>
      <trkpt lat="42.4881650" lon="-6.3833590">
        <ele>1450.8</ele>
        <time>2021-10-03T15:57:16Z</time>
      </trkpt>
      <trkpt lat="42.4881880" lon="-6.3836120">
        <ele>1450.8</ele>
        <time>2021-10-03T15:57:21Z</time>
      </trkpt>
      <trkpt lat="42.4882070" lon="-6.3837240">
        <ele>1450.4</ele>
        <time>2021-10-03T15:57:23Z</time>
      </trkpt>
      <trkpt lat="42.4882270" lon="-6.3838430">
        <ele>1450.2</ele>
        <time>2021-10-03T15:57:25Z</time>
      </trkpt>
      <trkpt lat="42.4882800" lon="-6.3841000">
        <ele>1449.6</ele>
        <time>2021-10-03T15:57:29Z</time>
      </trkpt>
      <trkpt lat="42.4882890" lon="-6.3841660">
        <ele>1449.4</ele>
        <time>2021-10-03T15:57:30Z</time>
      </trkpt>
      <trkpt lat="42.4883090" lon="-6.3842820">
        <ele>1448.4</ele>
        <time>2021-10-03T15:57:32Z</time>
      </trkpt>
      <trkpt lat="42.4883240" lon="-6.3843360">
        <ele>1447.8</ele>
        <time>2021-10-03T15:57:33Z</time>
      </trkpt>
      <trkpt lat="42.4883800" lon="-6.3844130">
        <ele>1446.8</ele>
        <time>2021-10-03T15:57:35Z</time>
      </trkpt>
      <trkpt lat="42.4884600" lon="-6.3844160">
        <ele>1446.0</ele>
        <time>2021-10-03T15:57:37Z</time>
      </trkpt>
      <trkpt lat="42.4885010" lon="-6.3844220">
        <ele>1445.6</ele>
        <time>2021-10-03T15:57:38Z</time>
      </trkpt>
      <trkpt lat="42.4886160" lon="-6.3845210">
        <ele>1444.8</ele>
        <time>2021-10-03T15:57:41Z</time>
      </trkpt>
      <trkpt lat="42.4886690" lon="-6.3846110">
        <ele>1444.4</ele>
        <time>2021-10-03T15:57:43Z</time>
      </trkpt>
      <trkpt lat="42.4887530" lon="-6.3846770">
        <ele>1444.0</ele>
        <time>2021-10-03T15:57:45Z</time>
      </trkpt>
      <trkpt lat="42.4888010" lon="-6.3847160">
        <ele>1443.4</ele>
        <time>2021-10-03T15:57:46Z</time>
      </trkpt>
      <trkpt lat="42.4889010" lon="-6.3847980">
        <ele>1441.6</ele>
        <time>2021-10-03T15:57:48Z</time>
      </trkpt>
      <trkpt lat="42.4889970" lon="-6.3848630">
        <ele>1440.6</ele>
        <time>2021-10-03T15:57:50Z</time>
      </trkpt>
      <trkpt lat="42.4890390" lon="-6.3848940">
        <ele>1439.4</ele>
        <time>2021-10-03T15:57:51Z</time>
      </trkpt>
      <trkpt lat="42.4891100" lon="-6.3849480">
        <ele>1437.8</ele>
        <time>2021-10-03T15:57:53Z</time>
      </trkpt>
      <trkpt lat="42.4891720" lon="-6.3850160">
        <ele>1436.4</ele>
        <time>2021-10-03T15:57:55Z</time>
      </trkpt>
      <trkpt lat="42.4892900" lon="-6.3851870">
        <ele>1435.4</ele>
        <time>2021-10-03T15:57:59Z</time>
      </trkpt>
      <trkpt lat="42.4893170" lon="-6.3852310">
        <ele>1435.2</ele>
        <time>2021-10-03T15:58:00Z</time>
      </trkpt>
      <trkpt lat="42.4894040" lon="-6.3854130">
        <ele>1434.2</ele>
        <time>2021-10-03T15:58:04Z</time>
      </trkpt>
      <trkpt lat="42.4894690" lon="-6.3855540">
        <ele>1433.8</ele>
        <time>2021-10-03T15:58:07Z</time>
      </trkpt>
      <trkpt lat="42.4895370" lon="-6.3856910">
        <ele>1433.6</ele>
        <time>2021-10-03T15:58:10Z</time>
      </trkpt>
      <trkpt lat="42.4896450" lon="-6.3859190">
        <ele>1433.6</ele>
        <time>2021-10-03T15:58:15Z</time>
      </trkpt>
      <trkpt lat="42.4898180" lon="-6.3862370">
        <ele>1434.2</ele>
        <time>2021-10-03T15:58:23Z</time>
      </trkpt>
      <trkpt lat="42.4902170" lon="-6.3866470">
        <ele>1433.0</ele>
        <time>2021-10-03T15:58:40Z</time>
      </trkpt>
      <trkpt lat="42.4902370" lon="-6.3866700">
        <ele>1432.4</ele>
        <time>2021-10-03T15:59:26Z</time>
      </trkpt>
      <trkpt lat="42.4903200" lon="-6.3867580">
        <ele>1432.2</ele>
        <time>2021-10-03T15:59:33Z</time>
      </trkpt>
      <trkpt lat="42.4903220" lon="-6.3867850">
        <ele>1432.0</ele>
        <time>2021-10-03T15:59:53Z</time>
      </trkpt>
      <trkpt lat="42.4903420" lon="-6.3869030">
        <ele>1432.0</ele>
        <time>2021-10-03T15:59:56Z</time>
      </trkpt>
      <trkpt lat="42.4903650" lon="-6.3870280">
        <ele>1432.0</ele>
        <time>2021-10-03T15:59:58Z</time>
      </trkpt>
      <trkpt lat="42.4903890" lon="-6.3872520">
        <ele>1430.8</ele>
        <time>2021-10-03T16:00:01Z</time>
      </trkpt>
      <trkpt lat="42.4904330" lon="-6.3873990">
        <ele>1429.8</ele>
        <time>2021-10-03T16:00:03Z</time>
      </trkpt>
      <trkpt lat="42.4905010" lon="-6.3875390">
        <ele>1428.6</ele>
        <time>2021-10-03T16:00:05Z</time>
      </trkpt>
      <trkpt lat="42.4905500" lon="-6.3877060">
        <ele>1427.4</ele>
        <time>2021-10-03T16:00:07Z</time>
      </trkpt>
      <trkpt lat="42.4905520" lon="-6.3878990">
        <ele>1426.0</ele>
        <time>2021-10-03T16:00:09Z</time>
      </trkpt>
      <trkpt lat="42.4905180" lon="-6.3881010">
        <ele>1424.8</ele>
        <time>2021-10-03T16:00:11Z</time>
      </trkpt>
      <trkpt lat="42.4903640" lon="-6.3888350">
        <ele>1423.4</ele>
        <time>2021-10-03T16:00:18Z</time>
      </trkpt>
      <trkpt lat="42.4902590" lon="-6.3890910">
        <ele>1422.2</ele>
        <time>2021-10-03T16:00:21Z</time>
      </trkpt>
      <trkpt lat="42.4901670" lon="-6.3893480">
        <ele>1421.0</ele>
        <time>2021-10-03T16:00:24Z</time>
      </trkpt>
      <trkpt lat="42.4901450" lon="-6.3894330">
        <ele>1420.8</ele>
        <time>2021-10-03T16:00:25Z</time>
      </trkpt>
      <trkpt lat="42.4901160" lon="-6.3895980">
        <ele>1420.8</ele>
        <time>2021-10-03T16:00:27Z</time>
      </trkpt>
      <trkpt lat="42.4900930" lon="-6.3897540">
        <ele>1420.8</ele>
        <time>2021-10-03T16:00:29Z</time>
      </trkpt>
      <trkpt lat="42.4900790" lon="-6.3898290">
        <ele>1420.6</ele>
        <time>2021-10-03T16:00:30Z</time>
      </trkpt>
      <trkpt lat="42.4900730" lon="-6.3899700">
        <ele>1420.6</ele>
        <time>2021-10-03T16:00:32Z</time>
      </trkpt>
      <trkpt lat="42.4900750" lon="-6.3900370">
        <ele>1420.6</ele>
        <time>2021-10-03T16:00:33Z</time>
      </trkpt>
      <trkpt lat="42.4900740" lon="-6.3901030">
        <ele>1420.8</ele>
        <time>2021-10-03T16:00:34Z</time>
      </trkpt>
      <trkpt lat="42.4900700" lon="-6.3902350">
        <ele>1421.8</ele>
        <time>2021-10-03T16:00:36Z</time>
      </trkpt>
      <trkpt lat="42.4900720" lon="-6.3903020">
        <ele>1422.8</ele>
        <time>2021-10-03T16:00:37Z</time>
      </trkpt>
      <trkpt lat="42.4900800" lon="-6.3904310">
        <ele>1423.8</ele>
        <time>2021-10-03T16:00:39Z</time>
      </trkpt>
      <trkpt lat="42.4900950" lon="-6.3906250">
        <ele>1424.6</ele>
        <time>2021-10-03T16:00:42Z</time>
      </trkpt>
      <trkpt lat="42.4900890" lon="-6.3906910">
        <ele>1424.8</ele>
        <time>2021-10-03T16:00:43Z</time>
      </trkpt>
      <trkpt lat="42.4900110" lon="-6.3910080">
        <ele>1426.0</ele>
        <time>2021-10-03T16:00:48Z</time>
      </trkpt>
      <trkpt lat="42.4899820" lon="-6.3911220">
        <ele>1426.8</ele>
        <time>2021-10-03T16:00:50Z</time>
      </trkpt>
      <trkpt lat="42.4899710" lon="-6.3912780">
        <ele>1428.0</ele>
        <time>2021-10-03T16:00:53Z</time>
      </trkpt>
      <trkpt lat="42.4900570" lon="-6.3917040">
        <ele>1428.8</ele>
        <time>2021-10-03T16:01:03Z</time>
      </trkpt>
      <trkpt lat="42.4900920" lon="-6.3917960">
        <ele>1429.2</ele>
        <time>2021-10-03T16:01:05Z</time>
      </trkpt>
      <trkpt lat="42.4901690" lon="-6.3919510">
        <ele>1430.2</ele>
        <time>2021-10-03T16:01:09Z</time>
      </trkpt>
      <trkpt lat="42.4905020" lon="-6.3922490">
        <ele>1431.2</ele>
        <time>2021-10-03T16:01:19Z</time>
      </trkpt>
      <trkpt lat="42.4905650" lon="-6.3923110">
        <ele>1431.2</ele>
        <time>2021-10-03T16:01:21Z</time>
      </trkpt>
      <trkpt lat="42.4909830" lon="-6.3928510">
        <ele>1430.2</ele>
        <time>2021-10-03T16:01:34Z</time>
      </trkpt>
      <trkpt lat="42.4910180" lon="-6.3928840">
        <ele>1429.8</ele>
        <time>2021-10-03T16:01:35Z</time>
      </trkpt>
      <trkpt lat="42.4910510" lon="-6.3929240">
        <ele>1429.6</ele>
        <time>2021-10-03T16:01:36Z</time>
      </trkpt>
      <trkpt lat="42.4912170" lon="-6.3932910">
        <ele>1429.2</ele>
        <time>2021-10-03T16:01:43Z</time>
      </trkpt>
      <trkpt lat="42.4911940" lon="-6.3935800">
        <ele>1428.8</ele>
        <time>2021-10-03T16:01:48Z</time>
      </trkpt>
      <trkpt lat="42.4911340" lon="-6.3936770">
        <ele>1428.8</ele>
        <time>2021-10-03T16:01:50Z</time>
      </trkpt>
      <trkpt lat="42.4911060" lon="-6.3937170">
        <ele>1428.8</ele>
        <time>2021-10-03T16:01:51Z</time>
      </trkpt>
      <trkpt lat="42.4909950" lon="-6.3938850">
        <ele>1428.2</ele>
        <time>2021-10-03T16:01:55Z</time>
      </trkpt>
      <trkpt lat="42.4909120" lon="-6.3940100">
        <ele>1427.8</ele>
        <time>2021-10-03T16:01:58Z</time>
      </trkpt>
      <trkpt lat="42.4908230" lon="-6.3942190">
        <ele>1426.2</ele>
        <time>2021-10-03T16:02:02Z</time>
      </trkpt>
      <trkpt lat="42.4908030" lon="-6.3942780">
        <ele>1425.8</ele>
        <time>2021-10-03T16:02:03Z</time>
      </trkpt>
      <trkpt lat="42.4907700" lon="-6.3944630">
        <ele>1425.2</ele>
        <time>2021-10-03T16:02:06Z</time>
      </trkpt>
      <trkpt lat="42.4907680" lon="-6.3945780">
        <ele>1424.6</ele>
        <time>2021-10-03T16:02:08Z</time>
      </trkpt>
      <trkpt lat="42.4907730" lon="-6.3946770">
        <ele>1424.4</ele>
        <time>2021-10-03T16:02:10Z</time>
      </trkpt>
      <trkpt lat="42.4907810" lon="-6.3947890">
        <ele>1424.4</ele>
        <time>2021-10-03T16:02:13Z</time>
      </trkpt>
      <trkpt lat="42.4908120" lon="-6.3949200">
        <ele>1424.6</ele>
        <time>2021-10-03T16:02:17Z</time>
      </trkpt>
      <trkpt lat="42.4908210" lon="-6.3950070">
        <ele>1426.2</ele>
        <time>2021-10-03T16:02:19Z</time>
      </trkpt>
      <trkpt lat="42.4908700" lon="-6.3953200">
        <ele>1427.0</ele>
        <time>2021-10-03T16:02:25Z</time>
      </trkpt>
      <trkpt lat="42.4908910" lon="-6.3954280">
        <ele>1427.4</ele>
        <time>2021-10-03T16:02:27Z</time>
      </trkpt>
      <trkpt lat="42.4909680" lon="-6.3957830">
        <ele>1428.0</ele>
        <time>2021-10-03T16:02:34Z</time>
      </trkpt>
      <trkpt lat="42.4910580" lon="-6.3962050">
        <ele>1428.4</ele>
        <time>2021-10-03T16:02:42Z</time>
      </trkpt>
      <trkpt lat="42.4912220" lon="-6.3968040">
        <ele>1429.2</ele>
        <time>2021-10-03T16:02:54Z</time>
      </trkpt>
      <trkpt lat="42.4912870" lon="-6.3970900">
        <ele>1430.4</ele>
        <time>2021-10-03T16:03:00Z</time>
      </trkpt>
      <trkpt lat="42.4913160" lon="-6.3971740">
        <ele>1430.8</ele>
        <time>2021-10-03T16:03:02Z</time>
      </trkpt>
      <trkpt lat="42.4913450" lon="-6.3972410">
        <ele>1431.2</ele>
        <time>2021-10-03T16:03:04Z</time>
      </trkpt>
      <trkpt lat="42.4913560" lon="-6.3972660">
        <ele>1431.6</ele>
        <time>2021-10-03T16:03:05Z</time>
      </trkpt>
      <trkpt lat="42.4914240" lon="-6.3973930">
        <ele>1433.0</ele>
        <time>2021-10-03T16:03:10Z</time>
      </trkpt>
      <trkpt lat="42.4915820" lon="-6.3976360">
        <ele>1434.0</ele>
        <time>2021-10-03T16:03:20Z</time>
      </trkpt>
      <trkpt lat="42.4916700" lon="-6.3977450">
        <ele>1435.2</ele>
        <time>2021-10-03T16:03:24Z</time>
      </trkpt>
      <trkpt lat="42.4917590" lon="-6.3978770">
        <ele>1436.2</ele>
        <time>2021-10-03T16:03:28Z</time>
      </trkpt>
      <trkpt lat="42.4919310" lon="-6.3980820">
        <ele>1436.4</ele>
        <time>2021-10-03T16:03:34Z</time>
      </trkpt>
      <trkpt lat="42.4920030" lon="-6.3981410">
        <ele>1436.4</ele>
        <time>2021-10-03T16:03:36Z</time>
      </trkpt>
      <trkpt lat="42.4921040" lon="-6.3983080">
        <ele>1436.2</ele>
        <time>2021-10-03T16:03:41Z</time>
      </trkpt>
      <trkpt lat="42.4920690" lon="-6.3984600">
        <ele>1435.0</ele>
        <time>2021-10-03T16:03:45Z</time>
      </trkpt>
      <trkpt lat="42.4919920" lon="-6.3986910">
        <ele>1434.8</ele>
        <time>2021-10-03T16:03:50Z</time>
      </trkpt>
      <trkpt lat="42.4919280" lon="-6.3988420">
        <ele>1434.8</ele>
        <time>2021-10-03T16:03:53Z</time>
      </trkpt>
      <trkpt lat="42.4919130" lon="-6.3990610">
        <ele>1435.4</ele>
        <time>2021-10-03T16:03:57Z</time>
      </trkpt>
      <trkpt lat="42.4918380" lon="-6.3993240">
        <ele>1436.2</ele>
        <time>2021-10-03T16:04:03Z</time>
      </trkpt>
      <trkpt lat="42.4917320" lon="-6.3998590">
        <ele>1437.2</ele>
        <time>2021-10-03T16:04:15Z</time>
      </trkpt>
      <trkpt lat="42.4917490" lon="-6.3999630">
        <ele>1438.4</ele>
        <time>2021-10-03T16:04:18Z</time>
      </trkpt>
      <trkpt lat="42.4917990" lon="-6.4001700">
        <ele>1439.4</ele>
        <time>2021-10-03T16:04:24Z</time>
      </trkpt>
      <trkpt lat="42.4918080" lon="-6.4002040">
        <ele>1439.8</ele>
        <time>2021-10-03T16:04:25Z</time>
      </trkpt>
      <trkpt lat="42.4918470" lon="-6.4003480">
        <ele>1441.0</ele>
        <time>2021-10-03T16:04:29Z</time>
      </trkpt>
      <trkpt lat="42.4918970" lon="-6.4005400">
        <ele>1442.0</ele>
        <time>2021-10-03T16:04:34Z</time>
      </trkpt>
      <trkpt lat="42.4919530" lon="-6.4007260">
        <ele>1443.0</ele>
        <time>2021-10-03T16:04:39Z</time>
      </trkpt>
      <trkpt lat="42.4919850" lon="-6.4008490">
        <ele>1444.0</ele>
        <time>2021-10-03T16:04:42Z</time>
      </trkpt>
      <trkpt lat="42.4920760" lon="-6.4011470">
        <ele>1445.2</ele>
        <time>2021-10-03T16:04:49Z</time>
      </trkpt>
      <trkpt lat="42.4921030" lon="-6.4012470">
        <ele>1445.6</ele>
        <time>2021-10-03T16:04:51Z</time>
      </trkpt>
      <trkpt lat="42.4921830" lon="-6.4015140">
        <ele>1445.6</ele>
        <time>2021-10-03T16:04:56Z</time>
      </trkpt>
      <trkpt lat="42.4922470" lon="-6.4018550">
        <ele>1445.4</ele>
        <time>2021-10-03T16:05:03Z</time>
      </trkpt>
      <trkpt lat="42.4922700" lon="-6.4019770">
        <ele>1445.2</ele>
        <time>2021-10-03T16:05:07Z</time>
      </trkpt>
      <trkpt lat="42.4923020" lon="-6.4020820">
        <ele>1445.6</ele>
        <time>2021-10-03T16:05:10Z</time>
      </trkpt>
      <trkpt lat="42.4924620" lon="-6.4027770">
        <ele>1445.6</ele>
        <time>2021-10-03T16:05:26Z</time>
      </trkpt>
      <trkpt lat="42.4924740" lon="-6.4029890">
        <ele>1446.4</ele>
        <time>2021-10-03T16:05:31Z</time>
      </trkpt>
      <trkpt lat="42.4924920" lon="-6.4031740">
        <ele>1447.6</ele>
        <time>2021-10-03T16:05:36Z</time>
      </trkpt>
      <trkpt lat="42.4924630" lon="-6.4033320">
        <ele>1448.8</ele>
        <time>2021-10-03T16:05:41Z</time>
      </trkpt>
      <trkpt lat="42.4924540" lon="-6.4035380">
        <ele>1450.2</ele>
        <time>2021-10-03T16:05:47Z</time>
      </trkpt>
      <trkpt lat="42.4924780" lon="-6.4036260">
        <ele>1451.2</ele>
        <time>2021-10-03T16:05:50Z</time>
      </trkpt>
      <trkpt lat="42.4924780" lon="-6.4036630">
        <ele>1451.4</ele>
        <time>2021-10-03T16:05:51Z</time>
      </trkpt>
      <trkpt lat="42.4925010" lon="-6.4038200">
        <ele>1452.2</ele>
        <time>2021-10-03T16:05:55Z</time>
      </trkpt>
      <trkpt lat="42.4925290" lon="-6.4038820">
        <ele>1452.4</ele>
        <time>2021-10-03T16:05:57Z</time>
      </trkpt>
      <trkpt lat="42.4926290" lon="-6.4040200">
        <ele>1453.6</ele>
        <time>2021-10-03T16:06:03Z</time>
      </trkpt>
      <trkpt lat="42.4925660" lon="-6.4044790">
        <ele>1454.6</ele>
        <time>2021-10-03T16:06:14Z</time>
      </trkpt>
      <trkpt lat="42.4924610" lon="-6.4051110">
        <ele>1455.6</ele>
        <time>2021-10-03T16:06:27Z</time>
      </trkpt>
      <trkpt lat="42.4923680" lon="-6.4052780">
        <ele>1456.0</ele>
        <time>2021-10-03T16:06:32Z</time>
      </trkpt>
      <trkpt lat="42.4923260" lon="-6.4053500">
        <ele>1457.0</ele>
        <time>2021-10-03T16:06:34Z</time>
      </trkpt>
      <trkpt lat="42.4922950" lon="-6.4054140">
        <ele>1458.4</ele>
        <time>2021-10-03T16:06:36Z</time>
      </trkpt>
      <trkpt lat="42.4922430" lon="-6.4055040">
        <ele>1459.4</ele>
        <time>2021-10-03T16:06:39Z</time>
      </trkpt>
      <trkpt lat="42.4920940" lon="-6.4056310">
        <ele>1460.6</ele>
        <time>2021-10-03T16:06:44Z</time>
      </trkpt>
      <trkpt lat="42.4919970" lon="-6.4056780">
        <ele>1460.6</ele>
        <time>2021-10-03T16:06:46Z</time>
      </trkpt>
      <trkpt lat="42.4917350" lon="-6.4057960">
        <ele>1460.6</ele>
        <time>2021-10-03T16:06:51Z</time>
      </trkpt>
      <trkpt lat="42.4914980" lon="-6.4058680">
        <ele>1460.8</ele>
        <time>2021-10-03T16:06:58Z</time>
      </trkpt>
      <trkpt lat="42.4913500" lon="-6.4059290">
        <ele>1461.6</ele>
        <time>2021-10-03T16:07:03Z</time>
      </trkpt>
      <trkpt lat="42.4912460" lon="-6.4059630">
        <ele>1462.6</ele>
        <time>2021-10-03T16:07:07Z</time>
      </trkpt>
      <trkpt lat="42.4911330" lon="-6.4059800">
        <ele>1463.8</ele>
        <time>2021-10-03T16:07:12Z</time>
      </trkpt>
      <trkpt lat="42.4910810" lon="-6.4059840">
        <ele>1464.8</ele>
        <time>2021-10-03T16:07:14Z</time>
      </trkpt>
      <trkpt lat="42.4909830" lon="-6.4059540">
        <ele>1465.8</ele>
        <time>2021-10-03T16:07:17Z</time>
      </trkpt>
      <trkpt lat="42.4907840" lon="-6.4060510">
        <ele>1466.8</ele>
        <time>2021-10-03T16:07:24Z</time>
      </trkpt>
      <trkpt lat="42.4907060" lon="-6.4061070">
        <ele>1467.8</ele>
        <time>2021-10-03T16:07:30Z</time>
      </trkpt>
      <trkpt lat="42.4906090" lon="-6.4061860">
        <ele>1468.8</ele>
        <time>2021-10-03T16:07:57Z</time>
      </trkpt>
      <trkpt lat="42.4905950" lon="-6.4061960">
        <ele>1468.8</ele>
        <time>2021-10-03T16:07:58Z</time>
      </trkpt>
      <trkpt lat="42.4904890" lon="-6.4062700">
        <ele>1468.8</ele>
        <time>2021-10-03T16:08:03Z</time>
      </trkpt>
      <trkpt lat="42.4903890" lon="-6.4063080">
        <ele>1469.0</ele>
        <time>2021-10-03T16:08:08Z</time>
      </trkpt>
      <trkpt lat="42.4903000" lon="-6.4063430">
        <ele>1470.2</ele>
        <time>2021-10-03T16:08:13Z</time>
      </trkpt>
      <trkpt lat="42.4902370" lon="-6.4063380">
        <ele>1471.0</ele>
        <time>2021-10-03T16:08:17Z</time>
      </trkpt>
      <trkpt lat="42.4902210" lon="-6.4063450">
        <ele>1471.4</ele>
        <time>2021-10-03T16:08:18Z</time>
      </trkpt>
      <trkpt lat="42.4901620" lon="-6.4063570">
        <ele>1472.4</ele>
        <time>2021-10-03T16:08:22Z</time>
      </trkpt>
      <trkpt lat="42.4900780" lon="-6.4063680">
        <ele>1473.4</ele>
        <time>2021-10-03T16:08:27Z</time>
      </trkpt>
      <trkpt lat="42.4900590" lon="-6.4063720">
        <ele>1473.6</ele>
        <time>2021-10-03T16:08:28Z</time>
      </trkpt>
      <trkpt lat="42.4900400" lon="-6.4063780">
        <ele>1473.8</ele>
        <time>2021-10-03T16:08:29Z</time>
      </trkpt>
      <trkpt lat="42.4900080" lon="-6.4063930">
        <ele>1474.2</ele>
        <time>2021-10-03T16:08:31Z</time>
      </trkpt>
      <trkpt lat="42.4899910" lon="-6.4063960">
        <ele>1474.4</ele>
        <time>2021-10-03T16:08:32Z</time>
      </trkpt>
      <trkpt lat="42.4899030" lon="-6.4064310">
        <ele>1475.6</ele>
        <time>2021-10-03T16:08:37Z</time>
      </trkpt>
      <trkpt lat="42.4898620" lon="-6.4064540">
        <ele>1476.4</ele>
        <time>2021-10-03T16:08:40Z</time>
      </trkpt>
      <trkpt lat="42.4898530" lon="-6.4064690">
        <ele>1476.6</ele>
        <time>2021-10-03T16:08:41Z</time>
      </trkpt>
      <trkpt lat="42.4897980" lon="-6.4065290">
        <ele>1477.6</ele>
        <time>2021-10-03T16:08:49Z</time>
      </trkpt>
      <trkpt lat="42.4896700" lon="-6.4067080">
        <ele>1480.8</ele>
        <time>2021-10-03T16:09:39Z</time>
      </trkpt>
      <trkpt lat="42.4896570" lon="-6.4067260">
        <ele>1480.8</ele>
        <time>2021-10-03T16:09:40Z</time>
      </trkpt>
      <trkpt lat="42.4896210" lon="-6.4067840">
        <ele>1481.0</ele>
        <time>2021-10-03T16:09:44Z</time>
      </trkpt>
      <trkpt lat="42.4896190" lon="-6.4069760">
        <ele>1482.0</ele>
        <time>2021-10-03T16:09:51Z</time>
      </trkpt>
      <trkpt lat="42.4896120" lon="-6.4071380">
        <ele>1483.2</ele>
        <time>2021-10-03T16:09:56Z</time>
      </trkpt>
      <trkpt lat="42.4896990" lon="-6.4076200">
        <ele>1483.6</ele>
        <time>2021-10-03T16:10:10Z</time>
      </trkpt>
      <trkpt lat="42.4897210" lon="-6.4077110">
        <ele>1484.0</ele>
        <time>2021-10-03T16:10:14Z</time>
      </trkpt>
      <trkpt lat="42.4897330" lon="-6.4077280">
        <ele>1484.2</ele>
        <time>2021-10-03T16:10:16Z</time>
      </trkpt>
      <trkpt lat="42.4897320" lon="-6.4077280">
        <ele>1484.2</ele>
        <time>2021-10-03T16:10:17Z</time>
      </trkpt>
      <trkpt lat="42.4897510" lon="-6.4078160">
        <ele>1485.0</ele>
        <time>2021-10-03T16:18:10Z</time>
      </trkpt>
      <trkpt lat="42.4897540" lon="-6.4078340">
        <ele>1485.0</ele>
        <time>2021-10-03T16:18:11Z</time>
      </trkpt>
      <trkpt lat="42.4898500" lon="-6.4079960">
        <ele>1485.0</ele>
        <time>2021-10-03T16:18:19Z</time>
      </trkpt>
      <trkpt lat="42.4898850" lon="-6.4080670">
        <ele>1485.0</ele>
        <time>2021-10-03T16:18:22Z</time>
      </trkpt>
      <trkpt lat="42.4898920" lon="-6.4080890">
        <ele>1485.2</ele>
        <time>2021-10-03T16:18:23Z</time>
      </trkpt>
      <trkpt lat="42.4898960" lon="-6.4081130">
        <ele>1485.4</ele>
        <time>2021-10-03T16:18:24Z</time>
      </trkpt>
      <trkpt lat="42.4898990" lon="-6.4081360">
        <ele>1485.4</ele>
        <time>2021-10-03T16:18:25Z</time>
      </trkpt>
      <trkpt lat="42.4899620" lon="-6.4082700">
        <ele>1486.0</ele>
        <time>2021-10-03T16:18:31Z</time>
      </trkpt>
      <trkpt lat="42.4899730" lon="-6.4082950">
        <ele>1486.2</ele>
        <time>2021-10-03T16:18:32Z</time>
      </trkpt>
      <trkpt lat="42.4900050" lon="-6.4083640">
        <ele>1486.2</ele>
        <time>2021-10-03T16:18:35Z</time>
      </trkpt>
      <trkpt lat="42.4900200" lon="-6.4084090">
        <ele>1486.2</ele>
        <time>2021-10-03T16:18:37Z</time>
      </trkpt>
      <trkpt lat="42.4900650" lon="-6.4084910">
        <ele>1486.4</ele>
        <time>2021-10-03T16:18:41Z</time>
      </trkpt>
      <trkpt lat="42.4900930" lon="-6.4085640">
        <ele>1487.0</ele>
        <time>2021-10-03T16:18:44Z</time>
      </trkpt>
      <trkpt lat="42.4901740" lon="-6.4087560">
        <ele>1488.0</ele>
        <time>2021-10-03T16:18:51Z</time>
      </trkpt>
      <trkpt lat="42.4902570" lon="-6.4089690">
        <ele>1488.0</ele>
        <time>2021-10-03T16:18:56Z</time>
      </trkpt>
      <trkpt lat="42.4903520" lon="-6.4092420">
        <ele>1488.0</ele>
        <time>2021-10-03T16:19:01Z</time>
      </trkpt>
      <trkpt lat="42.4904070" lon="-6.4093990">
        <ele>1488.0</ele>
        <time>2021-10-03T16:19:04Z</time>
      </trkpt>
      <trkpt lat="42.4904180" lon="-6.4094550">
        <ele>1488.0</ele>
        <time>2021-10-03T16:19:05Z</time>
      </trkpt>
      <trkpt lat="42.4904760" lon="-6.4098440">
        <ele>1488.0</ele>
        <time>2021-10-03T16:19:11Z</time>
      </trkpt>
      <trkpt lat="42.4905660" lon="-6.4104990">
        <ele>1488.4</ele>
        <time>2021-10-03T16:19:21Z</time>
      </trkpt>
      <trkpt lat="42.4905830" lon="-6.4106920">
        <ele>1488.4</ele>
        <time>2021-10-03T16:19:24Z</time>
      </trkpt>
      <trkpt lat="42.4906020" lon="-6.4109320">
        <ele>1488.4</ele>
        <time>2021-10-03T16:19:28Z</time>
      </trkpt>
      <trkpt lat="42.4905500" lon="-6.4113990">
        <ele>1487.8</ele>
        <time>2021-10-03T16:19:35Z</time>
      </trkpt>
      <trkpt lat="42.4904620" lon="-6.4117530">
        <ele>1486.8</ele>
        <time>2021-10-03T16:19:40Z</time>
      </trkpt>
      <trkpt lat="42.4904400" lon="-6.4118190">
        <ele>1486.6</ele>
        <time>2021-10-03T16:19:41Z</time>
      </trkpt>
      <trkpt lat="42.4904150" lon="-6.4118810">
        <ele>1486.6</ele>
        <time>2021-10-03T16:19:42Z</time>
      </trkpt>
      <trkpt lat="42.4903630" lon="-6.4119930">
        <ele>1486.4</ele>
        <time>2021-10-03T16:19:44Z</time>
      </trkpt>
      <trkpt lat="42.4903130" lon="-6.4121160">
        <ele>1486.4</ele>
        <time>2021-10-03T16:19:48Z</time>
      </trkpt>
      <trkpt lat="42.4899840" lon="-6.4127020">
        <ele>1487.4</ele>
        <time>2021-10-03T16:20:02Z</time>
      </trkpt>
      <trkpt lat="42.4897760" lon="-6.4129730">
        <ele>1487.4</ele>
        <time>2021-10-03T16:20:08Z</time>
      </trkpt>
      <trkpt lat="42.4897220" lon="-6.4130550">
        <ele>1487.4</ele>
        <time>2021-10-03T16:20:10Z</time>
      </trkpt>
      <trkpt lat="42.4896780" lon="-6.4131510">
        <ele>1487.6</ele>
        <time>2021-10-03T16:20:12Z</time>
      </trkpt>
      <trkpt lat="42.4896290" lon="-6.4133170">
        <ele>1488.4</ele>
        <time>2021-10-03T16:20:15Z</time>
      </trkpt>
      <trkpt lat="42.4896180" lon="-6.4133760">
        <ele>1488.6</ele>
        <time>2021-10-03T16:20:16Z</time>
      </trkpt>
      <trkpt lat="42.4896120" lon="-6.4134360">
        <ele>1488.8</ele>
        <time>2021-10-03T16:20:17Z</time>
      </trkpt>
      <trkpt lat="42.4895920" lon="-6.4139410">
        <ele>1489.0</ele>
        <time>2021-10-03T16:20:25Z</time>
      </trkpt>
      <trkpt lat="42.4896260" lon="-6.4144890">
        <ele>1489.4</ele>
        <time>2021-10-03T16:20:34Z</time>
      </trkpt>
      <trkpt lat="42.4896110" lon="-6.4147830">
        <ele>1489.8</ele>
        <time>2021-10-03T16:20:39Z</time>
      </trkpt>
      <trkpt lat="42.4896150" lon="-6.4148450">
        <ele>1489.8</ele>
        <time>2021-10-03T16:20:40Z</time>
      </trkpt>
      <trkpt lat="42.4896650" lon="-6.4153570">
        <ele>1489.8</ele>
        <time>2021-10-03T16:20:48Z</time>
      </trkpt>
      <trkpt lat="42.4896710" lon="-6.4154080">
        <ele>1489.8</ele>
        <time>2021-10-03T16:20:49Z</time>
      </trkpt>
      <trkpt lat="42.4896690" lon="-6.4154560">
        <ele>1489.8</ele>
        <time>2021-10-03T16:20:50Z</time>
      </trkpt>
      <trkpt lat="42.4896560" lon="-6.4155430">
        <ele>1489.8</ele>
        <time>2021-10-03T16:20:52Z</time>
      </trkpt>
      <trkpt lat="42.4896370" lon="-6.4156850">
        <ele>1489.8</ele>
        <time>2021-10-03T16:20:55Z</time>
      </trkpt>
      <trkpt lat="42.4896230" lon="-6.4158710">
        <ele>1490.0</ele>
        <time>2021-10-03T16:20:58Z</time>
      </trkpt>
      <trkpt lat="42.4895410" lon="-6.4164260">
        <ele>1490.6</ele>
        <time>2021-10-03T16:21:09Z</time>
      </trkpt>
      <trkpt lat="42.4895420" lon="-6.4164660">
        <ele>1490.6</ele>
        <time>2021-10-03T16:21:10Z</time>
      </trkpt>
      <trkpt lat="42.4895500" lon="-6.4165500">
        <ele>1490.4</ele>
        <time>2021-10-03T16:21:12Z</time>
      </trkpt>
      <trkpt lat="42.4895570" lon="-6.4166920">
        <ele>1490.4</ele>
        <time>2021-10-03T16:21:15Z</time>
      </trkpt>
      <trkpt lat="42.4895630" lon="-6.4168520">
        <ele>1490.4</ele>
        <time>2021-10-03T16:21:18Z</time>
      </trkpt>
      <trkpt lat="42.4895420" lon="-6.4175580">
        <ele>1490.2</ele>
        <time>2021-10-03T16:21:30Z</time>
      </trkpt>
      <trkpt lat="42.4895400" lon="-6.4176200">
        <ele>1490.4</ele>
        <time>2021-10-03T16:21:31Z</time>
      </trkpt>
      <trkpt lat="42.4895240" lon="-6.4178680">
        <ele>1490.6</ele>
        <time>2021-10-03T16:21:35Z</time>
      </trkpt>
      <trkpt lat="42.4894900" lon="-6.4181720">
        <ele>1491.8</ele>
        <time>2021-10-03T16:21:44Z</time>
      </trkpt>
      <trkpt lat="42.4894780" lon="-6.4182540">
        <ele>1492.8</ele>
        <time>2021-10-03T16:21:47Z</time>
      </trkpt>
      <trkpt lat="42.4894710" lon="-6.4182840">
        <ele>1492.8</ele>
        <time>2021-10-03T16:21:48Z</time>
      </trkpt>
      <trkpt lat="42.4894210" lon="-6.4184020">
        <ele>1494.0</ele>
        <time>2021-10-03T16:21:52Z</time>
      </trkpt>
      <trkpt lat="42.4893240" lon="-6.4185120">
        <ele>1495.0</ele>
        <time>2021-10-03T16:21:56Z</time>
      </trkpt>
      <trkpt lat="42.4891950" lon="-6.4185850">
        <ele>1496.0</ele>
        <time>2021-10-03T16:22:00Z</time>
      </trkpt>
      <trkpt lat="42.4890010" lon="-6.4187080">
        <ele>1497.0</ele>
        <time>2021-10-03T16:22:07Z</time>
      </trkpt>
      <trkpt lat="42.4888840" lon="-6.4188490">
        <ele>1498.2</ele>
        <time>2021-10-03T16:22:12Z</time>
      </trkpt>
      <trkpt lat="42.4888320" lon="-6.4189070">
        <ele>1498.4</ele>
        <time>2021-10-03T16:22:14Z</time>
      </trkpt>
      <trkpt lat="42.4888060" lon="-6.4189370">
        <ele>1498.6</ele>
        <time>2021-10-03T16:22:15Z</time>
      </trkpt>
      <trkpt lat="42.4884810" lon="-6.4195520">
        <ele>1498.6</ele>
        <time>2021-10-03T16:22:30Z</time>
      </trkpt>
      <trkpt lat="42.4883540" lon="-6.4202780">
        <ele>1498.2</ele>
        <time>2021-10-03T16:22:41Z</time>
      </trkpt>
      <trkpt lat="42.4883190" lon="-6.4205860">
        <ele>1497.8</ele>
        <time>2021-10-03T16:22:45Z</time>
      </trkpt>
      <trkpt lat="42.4883440" lon="-6.4207330">
        <ele>1497.8</ele>
        <time>2021-10-03T16:22:47Z</time>
      </trkpt>
      <trkpt lat="42.4883610" lon="-6.4208040">
        <ele>1497.0</ele>
        <time>2021-10-03T16:22:48Z</time>
      </trkpt>
      <trkpt lat="42.4883960" lon="-6.4209280">
        <ele>1495.4</ele>
        <time>2021-10-03T16:22:50Z</time>
      </trkpt>
      <trkpt lat="42.4884340" lon="-6.4210510">
        <ele>1494.4</ele>
        <time>2021-10-03T16:22:52Z</time>
      </trkpt>
      <trkpt lat="42.4884530" lon="-6.4211180">
        <ele>1494.0</ele>
        <time>2021-10-03T16:22:53Z</time>
      </trkpt>
      <trkpt lat="42.4885570" lon="-6.4215020">
        <ele>1493.2</ele>
        <time>2021-10-03T16:22:58Z</time>
      </trkpt>
      <trkpt lat="42.4885810" lon="-6.4215780">
        <ele>1492.8</ele>
        <time>2021-10-03T16:22:59Z</time>
      </trkpt>
      <trkpt lat="42.4886190" lon="-6.4217350">
        <ele>1491.6</ele>
        <time>2021-10-03T16:23:01Z</time>
      </trkpt>
      <trkpt lat="42.4886310" lon="-6.4218020">
        <ele>1491.0</ele>
        <time>2021-10-03T16:23:02Z</time>
      </trkpt>
      <trkpt lat="42.4886350" lon="-6.4219130">
        <ele>1490.0</ele>
        <time>2021-10-03T16:23:04Z</time>
      </trkpt>
      <trkpt lat="42.4886430" lon="-6.4220320">
        <ele>1488.2</ele>
        <time>2021-10-03T16:23:06Z</time>
      </trkpt>
      <trkpt lat="42.4886520" lon="-6.4220980">
        <ele>1487.8</ele>
        <time>2021-10-03T16:23:07Z</time>
      </trkpt>
      <trkpt lat="42.4886810" lon="-6.4222390">
        <ele>1487.4</ele>
        <time>2021-10-03T16:23:09Z</time>
      </trkpt>
      <trkpt lat="42.4887200" lon="-6.4223830">
        <ele>1487.2</ele>
        <time>2021-10-03T16:23:11Z</time>
      </trkpt>
      <trkpt lat="42.4887700" lon="-6.4225270">
        <ele>1486.0</ele>
        <time>2021-10-03T16:23:13Z</time>
      </trkpt>
      <trkpt lat="42.4888150" lon="-6.4226670">
        <ele>1484.8</ele>
        <time>2021-10-03T16:23:15Z</time>
      </trkpt>
      <trkpt lat="42.4888670" lon="-6.4227980">
        <ele>1483.4</ele>
        <time>2021-10-03T16:23:17Z</time>
      </trkpt>
      <trkpt lat="42.4889140" lon="-6.4230220">
        <ele>1482.2</ele>
        <time>2021-10-03T16:23:20Z</time>
      </trkpt>
      <trkpt lat="42.4889240" lon="-6.4231040">
        <ele>1481.8</ele>
        <time>2021-10-03T16:23:21Z</time>
      </trkpt>
      <trkpt lat="42.4889430" lon="-6.4233500">
        <ele>1481.4</ele>
        <time>2021-10-03T16:23:24Z</time>
      </trkpt>
      <trkpt lat="42.4889220" lon="-6.4234660">
        <ele>1480.8</ele>
        <time>2021-10-03T16:23:26Z</time>
      </trkpt>
      <trkpt lat="42.4889000" lon="-6.4236400">
        <ele>1479.8</ele>
        <time>2021-10-03T16:23:29Z</time>
      </trkpt>
      <trkpt lat="42.4888660" lon="-6.4237840">
        <ele>1479.6</ele>
        <time>2021-10-03T16:23:31Z</time>
      </trkpt>
      <trkpt lat="42.4888280" lon="-6.4239910">
        <ele>1478.8</ele>
        <time>2021-10-03T16:23:34Z</time>
      </trkpt>
      <trkpt lat="42.4888360" lon="-6.4241040">
        <ele>1478.4</ele>
        <time>2021-10-03T16:23:36Z</time>
      </trkpt>
      <trkpt lat="42.4888480" lon="-6.4241510">
        <ele>1477.8</ele>
        <time>2021-10-03T16:23:37Z</time>
      </trkpt>
      <trkpt lat="42.4888550" lon="-6.4241940">
        <ele>1476.6</ele>
        <time>2021-10-03T16:23:38Z</time>
      </trkpt>
      <trkpt lat="42.4888830" lon="-6.4242920">
        <ele>1475.6</ele>
        <time>2021-10-03T16:23:41Z</time>
      </trkpt>
      <trkpt lat="42.4889700" lon="-6.4245430">
        <ele>1474.4</ele>
        <time>2021-10-03T16:23:49Z</time>
      </trkpt>
      <trkpt lat="42.4890140" lon="-6.4246390">
        <ele>1473.4</ele>
        <time>2021-10-03T16:23:52Z</time>
      </trkpt>
      <trkpt lat="42.4890810" lon="-6.4248050">
        <ele>1472.4</ele>
        <time>2021-10-03T16:23:57Z</time>
      </trkpt>
      <trkpt lat="42.4891010" lon="-6.4248620">
        <ele>1472.0</ele>
        <time>2021-10-03T16:23:58Z</time>
      </trkpt>
      <trkpt lat="42.4891540" lon="-6.4251480">
        <ele>1471.4</ele>
        <time>2021-10-03T16:24:02Z</time>
      </trkpt>
      <trkpt lat="42.4892050" lon="-6.4252860">
        <ele>1470.8</ele>
        <time>2021-10-03T16:24:04Z</time>
      </trkpt>
      <trkpt lat="42.4892510" lon="-6.4254140">
        <ele>1469.8</ele>
        <time>2021-10-03T16:24:06Z</time>
      </trkpt>
      <trkpt lat="42.4892670" lon="-6.4254780">
        <ele>1469.4</ele>
        <time>2021-10-03T16:24:07Z</time>
      </trkpt>
      <trkpt lat="42.4893210" lon="-6.4256680">
        <ele>1468.2</ele>
        <time>2021-10-03T16:24:10Z</time>
      </trkpt>
      <trkpt lat="42.4894510" lon="-6.4261010">
        <ele>1467.0</ele>
        <time>2021-10-03T16:24:17Z</time>
      </trkpt>
      <trkpt lat="42.4894720" lon="-6.4261500">
        <ele>1465.8</ele>
        <time>2021-10-03T16:24:19Z</time>
      </trkpt>
      <trkpt lat="42.4894940" lon="-6.4261850">
        <ele>1464.6</ele>
        <time>2021-10-03T16:24:21Z</time>
      </trkpt>
      <trkpt lat="42.4895830" lon="-6.4264210">
        <ele>1463.4</ele>
        <time>2021-10-03T16:24:28Z</time>
      </trkpt>
      <trkpt lat="42.4896110" lon="-6.4265250">
        <ele>1462.2</ele>
        <time>2021-10-03T16:24:31Z</time>
      </trkpt>
      <trkpt lat="42.4896530" lon="-6.4266190">
        <ele>1461.2</ele>
        <time>2021-10-03T16:24:33Z</time>
      </trkpt>
      <trkpt lat="42.4896750" lon="-6.4266650">
        <ele>1460.8</ele>
        <time>2021-10-03T16:24:34Z</time>
      </trkpt>
      <trkpt lat="42.4897260" lon="-6.4267900">
        <ele>1459.4</ele>
        <time>2021-10-03T16:24:37Z</time>
      </trkpt>
      <trkpt lat="42.4897450" lon="-6.4268650">
        <ele>1458.2</ele>
        <time>2021-10-03T16:24:39Z</time>
      </trkpt>
      <trkpt lat="42.4897670" lon="-6.4269250">
        <ele>1456.8</ele>
        <time>2021-10-03T16:24:41Z</time>
      </trkpt>
      <trkpt lat="42.4897860" lon="-6.4269580">
        <ele>1454.6</ele>
        <time>2021-10-03T16:24:43Z</time>
      </trkpt>
      <trkpt lat="42.4898010" lon="-6.4270040">
        <ele>1453.6</ele>
        <time>2021-10-03T16:24:45Z</time>
      </trkpt>
      <trkpt lat="42.4898270" lon="-6.4270610">
        <ele>1452.6</ele>
        <time>2021-10-03T16:24:47Z</time>
      </trkpt>
      <trkpt lat="42.4899220" lon="-6.4271950">
        <ele>1451.0</ele>
        <time>2021-10-03T16:24:52Z</time>
      </trkpt>
      <trkpt lat="42.4899760" lon="-6.4272600">
        <ele>1449.8</ele>
        <time>2021-10-03T16:24:54Z</time>
      </trkpt>
      <trkpt lat="42.4900560" lon="-6.4273740">
        <ele>1448.6</ele>
        <time>2021-10-03T16:24:57Z</time>
      </trkpt>
      <trkpt lat="42.4901450" lon="-6.4274800">
        <ele>1447.2</ele>
        <time>2021-10-03T16:25:00Z</time>
      </trkpt>
      <trkpt lat="42.4902150" lon="-6.4275620">
        <ele>1445.4</ele>
        <time>2021-10-03T16:25:02Z</time>
      </trkpt>
      <trkpt lat="42.4902870" lon="-6.4276510">
        <ele>1443.8</ele>
        <time>2021-10-03T16:25:04Z</time>
      </trkpt>
      <trkpt lat="42.4903610" lon="-6.4277330">
        <ele>1442.8</ele>
        <time>2021-10-03T16:25:06Z</time>
      </trkpt>
      <trkpt lat="42.4904270" lon="-6.4277910">
        <ele>1441.6</ele>
        <time>2021-10-03T16:25:08Z</time>
      </trkpt>
      <trkpt lat="42.4904880" lon="-6.4278500">
        <ele>1439.8</ele>
        <time>2021-10-03T16:25:10Z</time>
      </trkpt>
      <trkpt lat="42.4905500" lon="-6.4279200">
        <ele>1438.4</ele>
        <time>2021-10-03T16:25:12Z</time>
      </trkpt>
      <trkpt lat="42.4906100" lon="-6.4279980">
        <ele>1437.0</ele>
        <time>2021-10-03T16:25:14Z</time>
      </trkpt>
      <trkpt lat="42.4906420" lon="-6.4280330">
        <ele>1436.6</ele>
        <time>2021-10-03T16:25:15Z</time>
      </trkpt>
      <trkpt lat="42.4907120" lon="-6.4281050">
        <ele>1435.2</ele>
        <time>2021-10-03T16:25:17Z</time>
      </trkpt>
      <trkpt lat="42.4907850" lon="-6.4281790">
        <ele>1434.0</ele>
        <time>2021-10-03T16:25:19Z</time>
      </trkpt>
      <trkpt lat="42.4908530" lon="-6.4282510">
        <ele>1432.8</ele>
        <time>2021-10-03T16:25:21Z</time>
      </trkpt>
      <trkpt lat="42.4909180" lon="-6.4283220">
        <ele>1431.4</ele>
        <time>2021-10-03T16:25:24Z</time>
      </trkpt>
      <trkpt lat="42.4909290" lon="-6.4283270">
        <ele>1430.2</ele>
        <time>2021-10-03T16:25:26Z</time>
      </trkpt>
      <trkpt lat="42.4909300" lon="-6.4283270">
        <ele>1429.8</ele>
        <time>2021-10-03T16:25:27Z</time>
      </trkpt>
      <trkpt lat="42.4909510" lon="-6.4283380">
        <ele>1429.0</ele>
        <time>2021-10-03T16:25:32Z</time>
      </trkpt>
      <trkpt lat="42.4911780" lon="-6.4287860">
        <ele>1427.8</ele>
        <time>2021-10-03T16:25:44Z</time>
      </trkpt>
      <trkpt lat="42.4912590" lon="-6.4290560">
        <ele>1426.6</ele>
        <time>2021-10-03T16:25:48Z</time>
      </trkpt>
      <trkpt lat="42.4913210" lon="-6.4292620">
        <ele>1425.4</ele>
        <time>2021-10-03T16:25:51Z</time>
      </trkpt>
      <trkpt lat="42.4913300" lon="-6.4293240">
        <ele>1424.2</ele>
        <time>2021-10-03T16:25:52Z</time>
      </trkpt>
      <trkpt lat="42.4913520" lon="-6.4294540">
        <ele>1422.4</ele>
        <time>2021-10-03T16:25:54Z</time>
      </trkpt>
      <trkpt lat="42.4913950" lon="-6.4295780">
        <ele>1421.0</ele>
        <time>2021-10-03T16:25:56Z</time>
      </trkpt>
      <trkpt lat="42.4914220" lon="-6.4296310">
        <ele>1420.2</ele>
        <time>2021-10-03T16:25:57Z</time>
      </trkpt>
      <trkpt lat="42.4914450" lon="-6.4296890">
        <ele>1419.6</ele>
        <time>2021-10-03T16:25:58Z</time>
      </trkpt>
      <trkpt lat="42.4914900" lon="-6.4298920">
        <ele>1418.6</ele>
        <time>2021-10-03T16:26:01Z</time>
      </trkpt>
      <trkpt lat="42.4915290" lon="-6.4300370">
        <ele>1417.6</ele>
        <time>2021-10-03T16:26:03Z</time>
      </trkpt>
      <trkpt lat="42.4915520" lon="-6.4301100">
        <ele>1417.2</ele>
        <time>2021-10-03T16:26:04Z</time>
      </trkpt>
      <trkpt lat="42.4916040" lon="-6.4302560">
        <ele>1416.0</ele>
        <time>2021-10-03T16:26:06Z</time>
      </trkpt>
      <trkpt lat="42.4916250" lon="-6.4303360">
        <ele>1415.6</ele>
        <time>2021-10-03T16:26:07Z</time>
      </trkpt>
      <trkpt lat="42.4916400" lon="-6.4304190">
        <ele>1415.0</ele>
        <time>2021-10-03T16:26:08Z</time>
      </trkpt>
      <trkpt lat="42.4916840" lon="-6.4306670">
        <ele>1413.8</ele>
        <time>2021-10-03T16:26:11Z</time>
      </trkpt>
      <trkpt lat="42.4917270" lon="-6.4308240">
        <ele>1412.0</ele>
        <time>2021-10-03T16:26:13Z</time>
      </trkpt>
      <trkpt lat="42.4917600" lon="-6.4309660">
        <ele>1410.4</ele>
        <time>2021-10-03T16:26:15Z</time>
      </trkpt>
      <trkpt lat="42.4917810" lon="-6.4311020">
        <ele>1409.2</ele>
        <time>2021-10-03T16:26:17Z</time>
      </trkpt>
      <trkpt lat="42.4917970" lon="-6.4311720">
        <ele>1408.8</ele>
        <time>2021-10-03T16:26:18Z</time>
      </trkpt>
      <trkpt lat="42.4918130" lon="-6.4312360">
        <ele>1408.2</ele>
        <time>2021-10-03T16:26:19Z</time>
      </trkpt>
      <trkpt lat="42.4918320" lon="-6.4313330">
        <ele>1407.0</ele>
        <time>2021-10-03T16:26:21Z</time>
      </trkpt>
      <trkpt lat="42.4918340" lon="-6.4313720">
        <ele>1406.8</ele>
        <time>2021-10-03T16:26:22Z</time>
      </trkpt>
      <trkpt lat="42.4918560" lon="-6.4314970">
        <ele>1405.8</ele>
        <time>2021-10-03T16:26:25Z</time>
      </trkpt>
      <trkpt lat="42.4918670" lon="-6.4315450">
        <ele>1405.4</ele>
        <time>2021-10-03T16:26:26Z</time>
      </trkpt>
      <trkpt lat="42.4918720" lon="-6.4317140">
        <ele>1404.8</ele>
        <time>2021-10-03T16:26:29Z</time>
      </trkpt>
      <trkpt lat="42.4918740" lon="-6.4317700">
        <ele>1404.8</ele>
        <time>2021-10-03T16:26:30Z</time>
      </trkpt>
      <trkpt lat="42.4918760" lon="-6.4318250">
        <ele>1404.4</ele>
        <time>2021-10-03T16:26:31Z</time>
      </trkpt>
      <trkpt lat="42.4918750" lon="-6.4318810">
        <ele>1403.6</ele>
        <time>2021-10-03T16:26:32Z</time>
      </trkpt>
      <trkpt lat="42.4918710" lon="-6.4319380">
        <ele>1402.6</ele>
        <time>2021-10-03T16:26:33Z</time>
      </trkpt>
      <trkpt lat="42.4918570" lon="-6.4320600">
        <ele>1401.2</ele>
        <time>2021-10-03T16:26:35Z</time>
      </trkpt>
      <trkpt lat="42.4918230" lon="-6.4322580">
        <ele>1399.8</ele>
        <time>2021-10-03T16:26:38Z</time>
      </trkpt>
      <trkpt lat="42.4917960" lon="-6.4323990">
        <ele>1398.6</ele>
        <time>2021-10-03T16:26:40Z</time>
      </trkpt>
      <trkpt lat="42.4917630" lon="-6.4326220">
        <ele>1397.2</ele>
        <time>2021-10-03T16:26:43Z</time>
      </trkpt>
      <trkpt lat="42.4917160" lon="-6.4330030">
        <ele>1396.0</ele>
        <time>2021-10-03T16:26:48Z</time>
      </trkpt>
      <trkpt lat="42.4916950" lon="-6.4332260">
        <ele>1394.8</ele>
        <time>2021-10-03T16:26:51Z</time>
      </trkpt>
      <trkpt lat="42.4916000" lon="-6.4339000">
        <ele>1394.8</ele>
        <time>2021-10-03T16:27:04Z</time>
      </trkpt>
      <trkpt lat="42.4915770" lon="-6.4340720">
        <ele>1394.8</ele>
        <time>2021-10-03T16:27:07Z</time>
      </trkpt>
      <trkpt lat="42.4915500" lon="-6.4342640">
        <ele>1395.2</ele>
        <time>2021-10-03T16:27:10Z</time>
      </trkpt>
      <trkpt lat="42.4915180" lon="-6.4345340">
        <ele>1395.4</ele>
        <time>2021-10-03T16:27:14Z</time>
      </trkpt>
      <trkpt lat="42.4914610" lon="-6.4350730">
        <ele>1395.8</ele>
        <time>2021-10-03T16:27:22Z</time>
      </trkpt>
      <trkpt lat="42.4914190" lon="-6.4353990">
        <ele>1395.6</ele>
        <time>2021-10-03T16:27:27Z</time>
      </trkpt>
      <trkpt lat="42.4913490" lon="-6.4357830">
        <ele>1395.2</ele>
        <time>2021-10-03T16:27:32Z</time>
      </trkpt>
      <trkpt lat="42.4912750" lon="-6.4362950">
        <ele>1393.6</ele>
        <time>2021-10-03T16:27:38Z</time>
      </trkpt>
      <trkpt lat="42.4912550" lon="-6.4364740">
        <ele>1392.4</ele>
        <time>2021-10-03T16:27:40Z</time>
      </trkpt>
      <trkpt lat="42.4912320" lon="-6.4366610">
        <ele>1391.4</ele>
        <time>2021-10-03T16:27:42Z</time>
      </trkpt>
      <trkpt lat="42.4912090" lon="-6.4368570">
        <ele>1390.0</ele>
        <time>2021-10-03T16:27:44Z</time>
      </trkpt>
      <trkpt lat="42.4911990" lon="-6.4369570">
        <ele>1389.0</ele>
        <time>2021-10-03T16:27:45Z</time>
      </trkpt>
      <trkpt lat="42.4911750" lon="-6.4372210">
        <ele>1387.8</ele>
        <time>2021-10-03T16:27:48Z</time>
      </trkpt>
      <trkpt lat="42.4911730" lon="-6.4374880">
        <ele>1386.2</ele>
        <time>2021-10-03T16:27:52Z</time>
      </trkpt>
      <trkpt lat="42.4910990" lon="-6.4377370">
        <ele>1385.4</ele>
        <time>2021-10-03T16:27:56Z</time>
      </trkpt>
      <trkpt lat="42.4910560" lon="-6.4378800">
        <ele>1385.2</ele>
        <time>2021-10-03T16:27:58Z</time>
      </trkpt>
      <trkpt lat="42.4910400" lon="-6.4379570">
        <ele>1385.0</ele>
        <time>2021-10-03T16:27:59Z</time>
      </trkpt>
      <trkpt lat="42.4910240" lon="-6.4381160">
        <ele>1384.8</ele>
        <time>2021-10-03T16:28:01Z</time>
      </trkpt>
      <trkpt lat="42.4910250" lon="-6.4382740">
        <ele>1384.6</ele>
        <time>2021-10-03T16:28:03Z</time>
      </trkpt>
      <trkpt lat="42.4910420" lon="-6.4385130">
        <ele>1384.0</ele>
        <time>2021-10-03T16:28:06Z</time>
      </trkpt>
      <trkpt lat="42.4910660" lon="-6.4386720">
        <ele>1383.6</ele>
        <time>2021-10-03T16:28:08Z</time>
      </trkpt>
      <trkpt lat="42.4910850" lon="-6.4388280">
        <ele>1383.4</ele>
        <time>2021-10-03T16:28:10Z</time>
      </trkpt>
      <trkpt lat="42.4911810" lon="-6.4392230">
        <ele>1382.8</ele>
        <time>2021-10-03T16:28:16Z</time>
      </trkpt>
      <trkpt lat="42.4914420" lon="-6.4399220">
        <ele>1382.8</ele>
        <time>2021-10-03T16:28:27Z</time>
      </trkpt>
      <trkpt lat="42.4914770" lon="-6.4399750">
        <ele>1382.8</ele>
        <time>2021-10-03T16:28:28Z</time>
      </trkpt>
      <trkpt lat="42.4916480" lon="-6.4401830">
        <ele>1382.8</ele>
        <time>2021-10-03T16:28:32Z</time>
      </trkpt>
      <trkpt lat="42.4918300" lon="-6.4403940">
        <ele>1381.6</ele>
        <time>2021-10-03T16:28:36Z</time>
      </trkpt>
      <trkpt lat="42.4918720" lon="-6.4404300">
        <ele>1380.8</ele>
        <time>2021-10-03T16:28:37Z</time>
      </trkpt>
      <trkpt lat="42.4919160" lon="-6.4404620">
        <ele>1380.4</ele>
        <time>2021-10-03T16:28:38Z</time>
      </trkpt>
      <trkpt lat="42.4919620" lon="-6.4405030">
        <ele>1380.0</ele>
        <time>2021-10-03T16:28:39Z</time>
      </trkpt>
      <trkpt lat="42.4920090" lon="-6.4405520">
        <ele>1379.4</ele>
        <time>2021-10-03T16:28:40Z</time>
      </trkpt>
      <trkpt lat="42.4920630" lon="-6.4406000">
        <ele>1378.8</ele>
        <time>2021-10-03T16:28:41Z</time>
      </trkpt>
      <trkpt lat="42.4921250" lon="-6.4406410">
        <ele>1377.8</ele>
        <time>2021-10-03T16:28:42Z</time>
      </trkpt>
      <trkpt lat="42.4923060" lon="-6.4407240">
        <ele>1376.2</ele>
        <time>2021-10-03T16:28:45Z</time>
      </trkpt>
      <trkpt lat="42.4924090" lon="-6.4407830">
        <ele>1373.8</ele>
        <time>2021-10-03T16:28:47Z</time>
      </trkpt>
      <trkpt lat="42.4924560" lon="-6.4408170">
        <ele>1372.0</ele>
        <time>2021-10-03T16:28:48Z</time>
      </trkpt>
      <trkpt lat="42.4925020" lon="-6.4408510">
        <ele>1370.4</ele>
        <time>2021-10-03T16:28:49Z</time>
      </trkpt>
      <trkpt lat="42.4925470" lon="-6.4408810">
        <ele>1369.4</ele>
        <time>2021-10-03T16:28:50Z</time>
      </trkpt>
      <trkpt lat="42.4926270" lon="-6.4409420">
        <ele>1367.8</ele>
        <time>2021-10-03T16:28:52Z</time>
      </trkpt>
      <trkpt lat="42.4927060" lon="-6.4410270">
        <ele>1366.6</ele>
        <time>2021-10-03T16:28:54Z</time>
      </trkpt>
      <trkpt lat="42.4927820" lon="-6.4411050">
        <ele>1365.2</ele>
        <time>2021-10-03T16:28:56Z</time>
      </trkpt>
      <trkpt lat="42.4928160" lon="-6.4411360">
        <ele>1364.2</ele>
        <time>2021-10-03T16:28:57Z</time>
      </trkpt>
      <trkpt lat="42.4928490" lon="-6.4411710">
        <ele>1363.4</ele>
        <time>2021-10-03T16:28:58Z</time>
      </trkpt>
      <trkpt lat="42.4928830" lon="-6.4412110">
        <ele>1362.4</ele>
        <time>2021-10-03T16:28:59Z</time>
      </trkpt>
      <trkpt lat="42.4929170" lon="-6.4412560">
        <ele>1361.4</ele>
        <time>2021-10-03T16:29:00Z</time>
      </trkpt>
      <trkpt lat="42.4929520" lon="-6.4413060">
        <ele>1360.2</ele>
        <time>2021-10-03T16:29:01Z</time>
      </trkpt>
      <trkpt lat="42.4929900" lon="-6.4413580">
        <ele>1359.0</ele>
        <time>2021-10-03T16:29:02Z</time>
      </trkpt>
      <trkpt lat="42.4930330" lon="-6.4414060">
        <ele>1357.8</ele>
        <time>2021-10-03T16:29:03Z</time>
      </trkpt>
      <trkpt lat="42.4931100" lon="-6.4414780">
        <ele>1355.8</ele>
        <time>2021-10-03T16:29:05Z</time>
      </trkpt>
      <trkpt lat="42.4931790" lon="-6.4415440">
        <ele>1354.2</ele>
        <time>2021-10-03T16:29:07Z</time>
      </trkpt>
      <trkpt lat="42.4932150" lon="-6.4415790">
        <ele>1353.0</ele>
        <time>2021-10-03T16:29:08Z</time>
      </trkpt>
      <trkpt lat="42.4932550" lon="-6.4416090">
        <ele>1351.6</ele>
        <time>2021-10-03T16:29:09Z</time>
      </trkpt>
      <trkpt lat="42.4932950" lon="-6.4416360">
        <ele>1350.6</ele>
        <time>2021-10-03T16:29:10Z</time>
      </trkpt>
      <trkpt lat="42.4933790" lon="-6.4416870">
        <ele>1349.4</ele>
        <time>2021-10-03T16:29:12Z</time>
      </trkpt>
      <trkpt lat="42.4934530" lon="-6.4417150">
        <ele>1348.4</ele>
        <time>2021-10-03T16:29:14Z</time>
      </trkpt>
      <trkpt lat="42.4935080" lon="-6.4417370">
        <ele>1347.0</ele>
        <time>2021-10-03T16:29:16Z</time>
      </trkpt>
      <trkpt lat="42.4935710" lon="-6.4417560">
        <ele>1346.0</ele>
        <time>2021-10-03T16:29:18Z</time>
      </trkpt>
      <trkpt lat="42.4936050" lon="-6.4417700">
        <ele>1344.6</ele>
        <time>2021-10-03T16:29:19Z</time>
      </trkpt>
      <trkpt lat="42.4936720" lon="-6.4417980">
        <ele>1343.4</ele>
        <time>2021-10-03T16:29:21Z</time>
      </trkpt>
      <trkpt lat="42.4937250" lon="-6.4418270">
        <ele>1342.2</ele>
        <time>2021-10-03T16:29:23Z</time>
      </trkpt>
      <trkpt lat="42.4937690" lon="-6.4418430">
        <ele>1341.0</ele>
        <time>2021-10-03T16:29:25Z</time>
      </trkpt>
      <trkpt lat="42.4938050" lon="-6.4418660">
        <ele>1339.8</ele>
        <time>2021-10-03T16:29:27Z</time>
      </trkpt>
      <trkpt lat="42.4938210" lon="-6.4418770">
        <ele>1339.4</ele>
        <time>2021-10-03T16:29:28Z</time>
      </trkpt>
      <trkpt lat="42.4938380" lon="-6.4418790">
        <ele>1338.8</ele>
        <time>2021-10-03T16:29:29Z</time>
      </trkpt>
      <trkpt lat="42.4938830" lon="-6.4418890">
        <ele>1337.6</ele>
        <time>2021-10-03T16:29:31Z</time>
      </trkpt>
      <trkpt lat="42.4939090" lon="-6.4419000">
        <ele>1337.0</ele>
        <time>2021-10-03T16:29:32Z</time>
      </trkpt>
      <trkpt lat="42.4939320" lon="-6.4419070">
        <ele>1336.4</ele>
        <time>2021-10-03T16:29:33Z</time>
      </trkpt>
      <trkpt lat="42.4940100" lon="-6.4419190">
        <ele>1335.2</ele>
        <time>2021-10-03T16:29:36Z</time>
      </trkpt>
      <trkpt lat="42.4940950" lon="-6.4419470">
        <ele>1333.8</ele>
        <time>2021-10-03T16:29:39Z</time>
      </trkpt>
      <trkpt lat="42.4941510" lon="-6.4419550">
        <ele>1332.4</ele>
        <time>2021-10-03T16:29:41Z</time>
      </trkpt>
      <trkpt lat="42.4942230" lon="-6.4419770">
        <ele>1331.2</ele>
        <time>2021-10-03T16:29:44Z</time>
      </trkpt>
      <trkpt lat="42.4943050" lon="-6.4420060">
        <ele>1329.8</ele>
        <time>2021-10-03T16:29:47Z</time>
      </trkpt>
      <trkpt lat="42.4943870" lon="-6.4420340">
        <ele>1328.6</ele>
        <time>2021-10-03T16:29:50Z</time>
      </trkpt>
      <trkpt lat="42.4944740" lon="-6.4420820">
        <ele>1327.0</ele>
        <time>2021-10-03T16:29:53Z</time>
      </trkpt>
      <trkpt lat="42.4945030" lon="-6.4421000">
        <ele>1325.6</ele>
        <time>2021-10-03T16:29:54Z</time>
      </trkpt>
      <trkpt lat="42.4945730" lon="-6.4421360">
        <ele>1324.6</ele>
        <time>2021-10-03T16:29:56Z</time>
      </trkpt>
      <trkpt lat="42.4946060" lon="-6.4421570">
        <ele>1324.0</ele>
        <time>2021-10-03T16:29:57Z</time>
      </trkpt>
      <trkpt lat="42.4946360" lon="-6.4421780">
        <ele>1323.4</ele>
        <time>2021-10-03T16:29:58Z</time>
      </trkpt>
      <trkpt lat="42.4946660" lon="-6.4421950">
        <ele>1322.8</ele>
        <time>2021-10-03T16:29:59Z</time>
      </trkpt>
      <trkpt lat="42.4946950" lon="-6.4422120">
        <ele>1322.2</ele>
        <time>2021-10-03T16:30:00Z</time>
      </trkpt>
      <trkpt lat="42.4947530" lon="-6.4422590">
        <ele>1321.0</ele>
        <time>2021-10-03T16:30:02Z</time>
      </trkpt>
      <trkpt lat="42.4948180" lon="-6.4423000">
        <ele>1319.4</ele>
        <time>2021-10-03T16:30:04Z</time>
      </trkpt>
      <trkpt lat="42.4949210" lon="-6.4423350">
        <ele>1318.2</ele>
        <time>2021-10-03T16:30:07Z</time>
      </trkpt>
      <trkpt lat="42.4949900" lon="-6.4423820">
        <ele>1316.6</ele>
        <time>2021-10-03T16:30:09Z</time>
      </trkpt>
      <trkpt lat="42.4950590" lon="-6.4424620">
        <ele>1315.4</ele>
        <time>2021-10-03T16:30:11Z</time>
      </trkpt>
      <trkpt lat="42.4951350" lon="-6.4425500">
        <ele>1314.0</ele>
        <time>2021-10-03T16:30:13Z</time>
      </trkpt>
      <trkpt lat="42.4952080" lon="-6.4426260">
        <ele>1312.4</ele>
        <time>2021-10-03T16:30:15Z</time>
      </trkpt>
      <trkpt lat="42.4952850" lon="-6.4426880">
        <ele>1311.2</ele>
        <time>2021-10-03T16:30:17Z</time>
      </trkpt>
      <trkpt lat="42.4953420" lon="-6.4427820">
        <ele>1310.0</ele>
        <time>2021-10-03T16:30:19Z</time>
      </trkpt>
      <trkpt lat="42.4953810" lon="-6.4428990">
        <ele>1308.4</ele>
        <time>2021-10-03T16:30:21Z</time>
      </trkpt>
      <trkpt lat="42.4953980" lon="-6.4429560">
        <ele>1308.0</ele>
        <time>2021-10-03T16:30:22Z</time>
      </trkpt>
      <trkpt lat="42.4954380" lon="-6.4431290">
        <ele>1307.4</ele>
        <time>2021-10-03T16:30:25Z</time>
      </trkpt>
      <trkpt lat="42.4954900" lon="-6.4432410">
        <ele>1307.0</ele>
        <time>2021-10-03T16:30:27Z</time>
      </trkpt>
      <trkpt lat="42.4955400" lon="-6.4433360">
        <ele>1306.2</ele>
        <time>2021-10-03T16:30:29Z</time>
      </trkpt>
      <trkpt lat="42.4955910" lon="-6.4434800">
        <ele>1305.0</ele>
        <time>2021-10-03T16:30:32Z</time>
      </trkpt>
      <trkpt lat="42.4956520" lon="-6.4436210">
        <ele>1303.4</ele>
        <time>2021-10-03T16:30:35Z</time>
      </trkpt>
      <trkpt lat="42.4956700" lon="-6.4436720">
        <ele>1303.2</ele>
        <time>2021-10-03T16:30:36Z</time>
      </trkpt>
      <trkpt lat="42.4956880" lon="-6.4437310">
        <ele>1302.8</ele>
        <time>2021-10-03T16:30:37Z</time>
      </trkpt>
      <trkpt lat="42.4957110" lon="-6.4437890">
        <ele>1302.0</ele>
        <time>2021-10-03T16:30:38Z</time>
      </trkpt>
      <trkpt lat="42.4957370" lon="-6.4438450">
        <ele>1300.6</ele>
        <time>2021-10-03T16:30:39Z</time>
      </trkpt>
      <trkpt lat="42.4957910" lon="-6.4439640">
        <ele>1299.4</ele>
        <time>2021-10-03T16:30:41Z</time>
      </trkpt>
      <trkpt lat="42.4958460" lon="-6.4440620">
        <ele>1298.4</ele>
        <time>2021-10-03T16:30:43Z</time>
      </trkpt>
      <trkpt lat="42.4959030" lon="-6.4441600">
        <ele>1297.0</ele>
        <time>2021-10-03T16:30:45Z</time>
      </trkpt>
      <trkpt lat="42.4959350" lon="-6.4442070">
        <ele>1296.6</ele>
        <time>2021-10-03T16:30:46Z</time>
      </trkpt>
      <trkpt lat="42.4959860" lon="-6.4443090">
        <ele>1295.6</ele>
        <time>2021-10-03T16:30:48Z</time>
      </trkpt>
      <trkpt lat="42.4960020" lon="-6.4443710">
        <ele>1295.2</ele>
        <time>2021-10-03T16:30:49Z</time>
      </trkpt>
      <trkpt lat="42.4960190" lon="-6.4444320">
        <ele>1294.8</ele>
        <time>2021-10-03T16:30:50Z</time>
      </trkpt>
      <trkpt lat="42.4960400" lon="-6.4444900">
        <ele>1294.0</ele>
        <time>2021-10-03T16:30:51Z</time>
      </trkpt>
      <trkpt lat="42.4960630" lon="-6.4445450">
        <ele>1293.0</ele>
        <time>2021-10-03T16:30:52Z</time>
      </trkpt>
      <trkpt lat="42.4960870" lon="-6.4445990">
        <ele>1292.4</ele>
        <time>2021-10-03T16:30:53Z</time>
      </trkpt>
      <trkpt lat="42.4961280" lon="-6.4447070">
        <ele>1291.0</ele>
        <time>2021-10-03T16:30:55Z</time>
      </trkpt>
      <trkpt lat="42.4961500" lon="-6.4447630">
        <ele>1290.0</ele>
        <time>2021-10-03T16:30:56Z</time>
      </trkpt>
      <trkpt lat="42.4961760" lon="-6.4448230">
        <ele>1289.4</ele>
        <time>2021-10-03T16:30:57Z</time>
      </trkpt>
      <trkpt lat="42.4962240" lon="-6.4449320">
        <ele>1288.2</ele>
        <time>2021-10-03T16:30:59Z</time>
      </trkpt>
      <trkpt lat="42.4962470" lon="-6.4449780">
        <ele>1287.2</ele>
        <time>2021-10-03T16:31:00Z</time>
      </trkpt>
      <trkpt lat="42.4962710" lon="-6.4450240">
        <ele>1286.2</ele>
        <time>2021-10-03T16:31:01Z</time>
      </trkpt>
      <trkpt lat="42.4962940" lon="-6.4450700">
        <ele>1285.2</ele>
        <time>2021-10-03T16:31:02Z</time>
      </trkpt>
      <trkpt lat="42.4963160" lon="-6.4451220">
        <ele>1284.2</ele>
        <time>2021-10-03T16:31:03Z</time>
      </trkpt>
      <trkpt lat="42.4963340" lon="-6.4451810">
        <ele>1283.0</ele>
        <time>2021-10-03T16:31:04Z</time>
      </trkpt>
      <trkpt lat="42.4963740" lon="-6.4452940">
        <ele>1282.0</ele>
        <time>2021-10-03T16:31:06Z</time>
      </trkpt>
      <trkpt lat="42.4964090" lon="-6.4453960">
        <ele>1280.6</ele>
        <time>2021-10-03T16:31:08Z</time>
      </trkpt>
      <trkpt lat="42.4964300" lon="-6.4454450">
        <ele>1280.0</ele>
        <time>2021-10-03T16:31:09Z</time>
      </trkpt>
      <trkpt lat="42.4964570" lon="-6.4454960">
        <ele>1279.4</ele>
        <time>2021-10-03T16:31:10Z</time>
      </trkpt>
      <trkpt lat="42.4964790" lon="-6.4455550">
        <ele>1278.4</ele>
        <time>2021-10-03T16:31:11Z</time>
      </trkpt>
      <trkpt lat="42.4964990" lon="-6.4457120">
        <ele>1276.8</ele>
        <time>2021-10-03T16:31:13Z</time>
      </trkpt>
      <trkpt lat="42.4965230" lon="-6.4458820">
        <ele>1275.4</ele>
        <time>2021-10-03T16:31:15Z</time>
      </trkpt>
      <trkpt lat="42.4965450" lon="-6.4460470">
        <ele>1274.2</ele>
        <time>2021-10-03T16:31:17Z</time>
      </trkpt>
      <trkpt lat="42.4965530" lon="-6.4461260">
        <ele>1273.4</ele>
        <time>2021-10-03T16:31:18Z</time>
      </trkpt>
      <trkpt lat="42.4965540" lon="-6.4462090">
        <ele>1272.0</ele>
        <time>2021-10-03T16:31:19Z</time>
      </trkpt>
      <trkpt lat="42.4965530" lon="-6.4462960">
        <ele>1270.6</ele>
        <time>2021-10-03T16:31:20Z</time>
      </trkpt>
      <trkpt lat="42.4965660" lon="-6.4464800">
        <ele>1268.4</ele>
        <time>2021-10-03T16:31:22Z</time>
      </trkpt>
      <trkpt lat="42.4965810" lon="-6.4465800">
        <ele>1267.2</ele>
        <time>2021-10-03T16:31:23Z</time>
      </trkpt>
      <trkpt lat="42.4966000" lon="-6.4466850">
        <ele>1266.0</ele>
        <time>2021-10-03T16:31:24Z</time>
      </trkpt>
      <trkpt lat="42.4966190" lon="-6.4467950">
        <ele>1265.0</ele>
        <time>2021-10-03T16:31:25Z</time>
      </trkpt>
      <trkpt lat="42.4966580" lon="-6.4470240">
        <ele>1263.2</ele>
        <time>2021-10-03T16:31:27Z</time>
      </trkpt>
      <trkpt lat="42.4966790" lon="-6.4471360">
        <ele>1262.0</ele>
        <time>2021-10-03T16:31:28Z</time>
      </trkpt>
      <trkpt lat="42.4967000" lon="-6.4472460">
        <ele>1260.4</ele>
        <time>2021-10-03T16:31:29Z</time>
      </trkpt>
      <trkpt lat="42.4967380" lon="-6.4474690">
        <ele>1258.2</ele>
        <time>2021-10-03T16:31:31Z</time>
      </trkpt>
      <trkpt lat="42.4967450" lon="-6.4475870">
        <ele>1257.0</ele>
        <time>2021-10-03T16:31:32Z</time>
      </trkpt>
      <trkpt lat="42.4967660" lon="-6.4478230">
        <ele>1255.2</ele>
        <time>2021-10-03T16:31:34Z</time>
      </trkpt>
      <trkpt lat="42.4967840" lon="-6.4479380">
        <ele>1254.6</ele>
        <time>2021-10-03T16:31:35Z</time>
      </trkpt>
      <trkpt lat="42.4968030" lon="-6.4480520">
        <ele>1254.0</ele>
        <time>2021-10-03T16:31:36Z</time>
      </trkpt>
      <trkpt lat="42.4968190" lon="-6.4481670">
        <ele>1253.0</ele>
        <time>2021-10-03T16:31:37Z</time>
      </trkpt>
      <trkpt lat="42.4968330" lon="-6.4482820">
        <ele>1251.0</ele>
        <time>2021-10-03T16:31:38Z</time>
      </trkpt>
      <trkpt lat="42.4968480" lon="-6.4483970">
        <ele>1249.4</ele>
        <time>2021-10-03T16:31:39Z</time>
      </trkpt>
      <trkpt lat="42.4968620" lon="-6.4485120">
        <ele>1248.2</ele>
        <time>2021-10-03T16:31:40Z</time>
      </trkpt>
      <trkpt lat="42.4968950" lon="-6.4487400">
        <ele>1247.0</ele>
        <time>2021-10-03T16:31:42Z</time>
      </trkpt>
      <trkpt lat="42.4969310" lon="-6.4489610">
        <ele>1245.4</ele>
        <time>2021-10-03T16:31:44Z</time>
      </trkpt>
      <trkpt lat="42.4969640" lon="-6.4491630">
        <ele>1244.0</ele>
        <time>2021-10-03T16:31:46Z</time>
      </trkpt>
      <trkpt lat="42.4969740" lon="-6.4492450">
        <ele>1243.8</ele>
        <time>2021-10-03T16:31:47Z</time>
      </trkpt>
      <trkpt lat="42.4969540" lon="-6.4493870">
        <ele>1243.0</ele>
        <time>2021-10-03T16:31:49Z</time>
      </trkpt>
      <trkpt lat="42.4969140" lon="-6.4501710">
        <ele>1242.0</ele>
        <time>2021-10-03T16:31:58Z</time>
      </trkpt>
      <trkpt lat="42.4969080" lon="-6.4502660">
        <ele>1241.2</ele>
        <time>2021-10-03T16:31:59Z</time>
      </trkpt>
      <trkpt lat="42.4969060" lon="-6.4505730">
        <ele>1240.2</ele>
        <time>2021-10-03T16:32:02Z</time>
      </trkpt>
      <trkpt lat="42.4969210" lon="-6.4510050">
        <ele>1238.6</ele>
        <time>2021-10-03T16:32:06Z</time>
      </trkpt>
      <trkpt lat="42.4969380" lon="-6.4512210">
        <ele>1237.2</ele>
        <time>2021-10-03T16:32:08Z</time>
      </trkpt>
      <trkpt lat="42.4969440" lon="-6.4513280">
        <ele>1236.2</ele>
        <time>2021-10-03T16:32:09Z</time>
      </trkpt>
      <trkpt lat="42.4969530" lon="-6.4514320">
        <ele>1235.0</ele>
        <time>2021-10-03T16:32:10Z</time>
      </trkpt>
      <trkpt lat="42.4969720" lon="-6.4515330">
        <ele>1234.0</ele>
        <time>2021-10-03T16:32:11Z</time>
      </trkpt>
      <trkpt lat="42.4970020" lon="-6.4516300">
        <ele>1232.2</ele>
        <time>2021-10-03T16:32:12Z</time>
      </trkpt>
      <trkpt lat="42.4970630" lon="-6.4518250">
        <ele>1230.6</ele>
        <time>2021-10-03T16:32:14Z</time>
      </trkpt>
      <trkpt lat="42.4971000" lon="-6.4519950">
        <ele>1229.2</ele>
        <time>2021-10-03T16:32:16Z</time>
      </trkpt>
      <trkpt lat="42.4971140" lon="-6.4521550">
        <ele>1227.8</ele>
        <time>2021-10-03T16:32:18Z</time>
      </trkpt>
      <trkpt lat="42.4971190" lon="-6.4522970">
        <ele>1226.4</ele>
        <time>2021-10-03T16:32:20Z</time>
      </trkpt>
      <trkpt lat="42.4971090" lon="-6.4524090">
        <ele>1225.0</ele>
        <time>2021-10-03T16:32:22Z</time>
      </trkpt>
      <trkpt lat="42.4971000" lon="-6.4525100">
        <ele>1224.4</ele>
        <time>2021-10-03T16:32:24Z</time>
      </trkpt>
      <trkpt lat="42.4971130" lon="-6.4526280">
        <ele>1223.4</ele>
        <time>2021-10-03T16:32:26Z</time>
      </trkpt>
      <trkpt lat="42.4970910" lon="-6.4527630">
        <ele>1222.4</ele>
        <time>2021-10-03T16:32:28Z</time>
      </trkpt>
      <trkpt lat="42.4970790" lon="-6.4528290">
        <ele>1221.6</ele>
        <time>2021-10-03T16:32:29Z</time>
      </trkpt>
      <trkpt lat="42.4970600" lon="-6.4529500">
        <ele>1220.4</ele>
        <time>2021-10-03T16:32:31Z</time>
      </trkpt>
      <trkpt lat="42.4970440" lon="-6.4530530">
        <ele>1219.0</ele>
        <time>2021-10-03T16:32:33Z</time>
      </trkpt>
      <trkpt lat="42.4970160" lon="-6.4531460">
        <ele>1217.2</ele>
        <time>2021-10-03T16:32:35Z</time>
      </trkpt>
      <trkpt lat="42.4970010" lon="-6.4532060">
        <ele>1216.2</ele>
        <time>2021-10-03T16:32:36Z</time>
      </trkpt>
      <trkpt lat="42.4969900" lon="-6.4532790">
        <ele>1215.0</ele>
        <time>2021-10-03T16:32:37Z</time>
      </trkpt>
      <trkpt lat="42.4969740" lon="-6.4534470">
        <ele>1213.2</ele>
        <time>2021-10-03T16:32:39Z</time>
      </trkpt>
      <trkpt lat="42.4969670" lon="-6.4535870">
        <ele>1211.8</ele>
        <time>2021-10-03T16:32:41Z</time>
      </trkpt>
      <trkpt lat="42.4969780" lon="-6.4536820">
        <ele>1210.0</ele>
        <time>2021-10-03T16:32:43Z</time>
      </trkpt>
      <trkpt lat="42.4969850" lon="-6.4537220">
        <ele>1208.6</ele>
        <time>2021-10-03T16:32:44Z</time>
      </trkpt>
      <trkpt lat="42.4969890" lon="-6.4537650">
        <ele>1207.0</ele>
        <time>2021-10-03T16:32:45Z</time>
      </trkpt>
      <trkpt lat="42.4969920" lon="-6.4538090">
        <ele>1205.2</ele>
        <time>2021-10-03T16:32:46Z</time>
      </trkpt>
      <trkpt lat="42.4969940" lon="-6.4538530">
        <ele>1202.4</ele>
        <time>2021-10-03T16:32:47Z</time>
      </trkpt>
      <trkpt lat="42.4969920" lon="-6.4538960">
        <ele>1201.8</ele>
        <time>2021-10-03T16:32:48Z</time>
      </trkpt>
      <trkpt lat="42.4969840" lon="-6.4539340">
        <ele>1201.0</ele>
        <time>2021-10-03T16:32:49Z</time>
      </trkpt>
      <trkpt lat="42.4969760" lon="-6.4540110">
        <ele>1200.2</ele>
        <time>2021-10-03T16:32:51Z</time>
      </trkpt>
      <trkpt lat="42.4969830" lon="-6.4540440">
        <ele>1199.8</ele>
        <time>2021-10-03T16:32:52Z</time>
      </trkpt>
      <trkpt lat="42.4969920" lon="-6.4540750">
        <ele>1198.8</ele>
        <time>2021-10-03T16:32:53Z</time>
      </trkpt>
      <trkpt lat="42.4969990" lon="-6.4541100">
        <ele>1198.0</ele>
        <time>2021-10-03T16:32:54Z</time>
      </trkpt>
      <trkpt lat="42.4970020" lon="-6.4541430">
        <ele>1197.4</ele>
        <time>2021-10-03T16:32:55Z</time>
      </trkpt>
      <trkpt lat="42.4970060" lon="-6.4541760">
        <ele>1196.8</ele>
        <time>2021-10-03T16:32:56Z</time>
      </trkpt>
      <trkpt lat="42.4970210" lon="-6.4542540">
        <ele>1195.4</ele>
        <time>2021-10-03T16:32:58Z</time>
      </trkpt>
      <trkpt lat="42.4970380" lon="-6.4543280">
        <ele>1194.4</ele>
        <time>2021-10-03T16:33:00Z</time>
      </trkpt>
      <trkpt lat="42.4970610" lon="-6.4543940">
        <ele>1193.2</ele>
        <time>2021-10-03T16:33:02Z</time>
      </trkpt>
      <trkpt lat="42.4970920" lon="-6.4544550">
        <ele>1191.8</ele>
        <time>2021-10-03T16:33:04Z</time>
      </trkpt>
      <trkpt lat="42.4971220" lon="-6.4545310">
        <ele>1190.2</ele>
        <time>2021-10-03T16:33:06Z</time>
      </trkpt>
      <trkpt lat="42.4971550" lon="-6.4546120">
        <ele>1189.0</ele>
        <time>2021-10-03T16:33:08Z</time>
      </trkpt>
      <trkpt lat="42.4971860" lon="-6.4546870">
        <ele>1188.0</ele>
        <time>2021-10-03T16:33:10Z</time>
      </trkpt>
      <trkpt lat="42.4972170" lon="-6.4547630">
        <ele>1186.6</ele>
        <time>2021-10-03T16:33:12Z</time>
      </trkpt>
      <trkpt lat="42.4972320" lon="-6.4547990">
        <ele>1185.6</ele>
        <time>2021-10-03T16:33:13Z</time>
      </trkpt>
      <trkpt lat="42.4972620" lon="-6.4548680">
        <ele>1183.8</ele>
        <time>2021-10-03T16:33:15Z</time>
      </trkpt>
      <trkpt lat="42.4972970" lon="-6.4549410">
        <ele>1182.6</ele>
        <time>2021-10-03T16:33:17Z</time>
      </trkpt>
      <trkpt lat="42.4973450" lon="-6.4550160">
        <ele>1181.4</ele>
        <time>2021-10-03T16:33:19Z</time>
      </trkpt>
      <trkpt lat="42.4974100" lon="-6.4550740">
        <ele>1179.2</ele>
        <time>2021-10-03T16:33:21Z</time>
      </trkpt>
      <trkpt lat="42.4974780" lon="-6.4551110">
        <ele>1177.8</ele>
        <time>2021-10-03T16:33:23Z</time>
      </trkpt>
      <trkpt lat="42.4975390" lon="-6.4551450">
        <ele>1176.0</ele>
        <time>2021-10-03T16:33:25Z</time>
      </trkpt>
      <trkpt lat="42.4975560" lon="-6.4551680">
        <ele>1175.4</ele>
        <time>2021-10-03T16:33:26Z</time>
      </trkpt>
      <trkpt lat="42.4975610" lon="-6.4551910">
        <ele>1174.6</ele>
        <time>2021-10-03T16:33:27Z</time>
      </trkpt>
      <trkpt lat="42.4975390" lon="-6.4552230">
        <ele>1173.2</ele>
        <time>2021-10-03T16:33:29Z</time>
      </trkpt>
      <trkpt lat="42.4974750" lon="-6.4552410">
        <ele>1171.6</ele>
        <time>2021-10-03T16:33:31Z</time>
      </trkpt>
      <trkpt lat="42.4974310" lon="-6.4552460">
        <ele>1171.0</ele>
        <time>2021-10-03T16:33:32Z</time>
      </trkpt>
      <trkpt lat="42.4973270" lon="-6.4552450">
        <ele>1170.4</ele>
        <time>2021-10-03T16:33:34Z</time>
      </trkpt>
      <trkpt lat="42.4970490" lon="-6.4552340">
        <ele>1169.0</ele>
        <time>2021-10-03T16:33:39Z</time>
      </trkpt>
      <trkpt lat="42.4969300" lon="-6.4552510">
        <ele>1167.6</ele>
        <time>2021-10-03T16:33:42Z</time>
      </trkpt>
      <trkpt lat="42.4969230" lon="-6.4553070">
        <ele>1166.0</ele>
        <time>2021-10-03T16:33:44Z</time>
      </trkpt>
      <trkpt lat="42.4969820" lon="-6.4553710">
        <ele>1164.4</ele>
        <time>2021-10-03T16:33:46Z</time>
      </trkpt>
      <trkpt lat="42.4970720" lon="-6.4554660">
        <ele>1163.0</ele>
        <time>2021-10-03T16:33:48Z</time>
      </trkpt>
      <trkpt lat="42.4971780" lon="-6.4555920">
        <ele>1162.0</ele>
        <time>2021-10-03T16:33:50Z</time>
      </trkpt>
      <trkpt lat="42.4972410" lon="-6.4556480">
        <ele>1161.6</ele>
        <time>2021-10-03T16:33:51Z</time>
      </trkpt>
      <trkpt lat="42.4973830" lon="-6.4557320">
        <ele>1160.4</ele>
        <time>2021-10-03T16:33:53Z</time>
      </trkpt>
      <trkpt lat="42.4975370" lon="-6.4558270">
        <ele>1158.4</ele>
        <time>2021-10-03T16:33:55Z</time>
      </trkpt>
      <trkpt lat="42.4976160" lon="-6.4558810">
        <ele>1155.8</ele>
        <time>2021-10-03T16:33:56Z</time>
      </trkpt>
      <trkpt lat="42.4976970" lon="-6.4559400">
        <ele>1154.2</ele>
        <time>2021-10-03T16:33:57Z</time>
      </trkpt>
      <trkpt lat="42.4977810" lon="-6.4559940">
        <ele>1152.6</ele>
        <time>2021-10-03T16:33:58Z</time>
      </trkpt>
      <trkpt lat="42.4978670" lon="-6.4560370">
        <ele>1151.8</ele>
        <time>2021-10-03T16:33:59Z</time>
      </trkpt>
      <trkpt lat="42.4979510" lon="-6.4560700">
        <ele>1151.0</ele>
        <time>2021-10-03T16:34:00Z</time>
      </trkpt>
      <trkpt lat="42.4981100" lon="-6.4561270">
        <ele>1148.4</ele>
        <time>2021-10-03T16:34:02Z</time>
      </trkpt>
      <trkpt lat="42.4981890" lon="-6.4561630">
        <ele>1146.8</ele>
        <time>2021-10-03T16:34:03Z</time>
      </trkpt>
      <trkpt lat="42.4982630" lon="-6.4562150">
        <ele>1145.0</ele>
        <time>2021-10-03T16:34:04Z</time>
      </trkpt>
      <trkpt lat="42.4983310" lon="-6.4562820">
        <ele>1143.2</ele>
        <time>2021-10-03T16:34:05Z</time>
      </trkpt>
      <trkpt lat="42.4983990" lon="-6.4563580">
        <ele>1141.6</ele>
        <time>2021-10-03T16:34:06Z</time>
      </trkpt>
      <trkpt lat="42.4984610" lon="-6.4564530">
        <ele>1140.2</ele>
        <time>2021-10-03T16:34:07Z</time>
      </trkpt>
      <trkpt lat="42.4985250" lon="-6.4565410">
        <ele>1139.6</ele>
        <time>2021-10-03T16:34:08Z</time>
      </trkpt>
      <trkpt lat="42.4985860" lon="-6.4566270">
        <ele>1139.0</ele>
        <time>2021-10-03T16:34:09Z</time>
      </trkpt>
      <trkpt lat="42.4987450" lon="-6.4568680">
        <ele>1137.4</ele>
        <time>2021-10-03T16:34:12Z</time>
      </trkpt>
      <trkpt lat="42.4988570" lon="-6.4570060">
        <ele>1135.6</ele>
        <time>2021-10-03T16:34:14Z</time>
      </trkpt>
      <trkpt lat="42.4989110" lon="-6.4570820">
        <ele>1134.6</ele>
        <time>2021-10-03T16:34:15Z</time>
      </trkpt>
      <trkpt lat="42.4990520" lon="-6.4572810">
        <ele>1133.0</ele>
        <time>2021-10-03T16:34:18Z</time>
      </trkpt>
      <trkpt lat="42.4990920" lon="-6.4573510">
        <ele>1133.0</ele>
        <time>2021-10-03T16:34:19Z</time>
      </trkpt>
      <trkpt lat="42.4992200" lon="-6.4577180">
        <ele>1131.8</ele>
        <time>2021-10-03T16:34:23Z</time>
      </trkpt>
      <trkpt lat="42.4993380" lon="-6.4580010">
        <ele>1131.2</ele>
        <time>2021-10-03T16:34:26Z</time>
      </trkpt>
      <trkpt lat="42.4994440" lon="-6.4581610">
        <ele>1130.4</ele>
        <time>2021-10-03T16:34:28Z</time>
      </trkpt>
      <trkpt lat="42.4995640" lon="-6.4582950">
        <ele>1127.8</ele>
        <time>2021-10-03T16:34:30Z</time>
      </trkpt>
      <trkpt lat="42.4997080" lon="-6.4583870">
        <ele>1126.4</ele>
        <time>2021-10-03T16:34:32Z</time>
      </trkpt>
      <trkpt lat="42.4998730" lon="-6.4584360">
        <ele>1125.4</ele>
        <time>2021-10-03T16:34:34Z</time>
      </trkpt>
      <trkpt lat="42.4999580" lon="-6.4584520">
        <ele>1125.0</ele>
        <time>2021-10-03T16:34:35Z</time>
      </trkpt>
      <trkpt lat="42.5001280" lon="-6.4584670">
        <ele>1124.2</ele>
        <time>2021-10-03T16:34:37Z</time>
      </trkpt>
      <trkpt lat="42.5003040" lon="-6.4584990">
        <ele>1122.8</ele>
        <time>2021-10-03T16:34:39Z</time>
      </trkpt>
      <trkpt lat="42.5003920" lon="-6.4585230">
        <ele>1121.8</ele>
        <time>2021-10-03T16:34:40Z</time>
      </trkpt>
      <trkpt lat="42.5004790" lon="-6.4585560">
        <ele>1120.6</ele>
        <time>2021-10-03T16:34:41Z</time>
      </trkpt>
      <trkpt lat="42.5006480" lon="-6.4586740">
        <ele>1119.2</ele>
        <time>2021-10-03T16:34:43Z</time>
      </trkpt>
      <trkpt lat="42.5008090" lon="-6.4588390">
        <ele>1117.4</ele>
        <time>2021-10-03T16:34:45Z</time>
      </trkpt>
      <trkpt lat="42.5009710" lon="-6.4590110">
        <ele>1116.2</ele>
        <time>2021-10-03T16:34:47Z</time>
      </trkpt>
      <trkpt lat="42.5011170" lon="-6.4591710">
        <ele>1114.4</ele>
        <time>2021-10-03T16:34:49Z</time>
      </trkpt>
      <trkpt lat="42.5011940" lon="-6.4592350">
        <ele>1113.0</ele>
        <time>2021-10-03T16:34:50Z</time>
      </trkpt>
      <trkpt lat="42.5012730" lon="-6.4592910">
        <ele>1111.8</ele>
        <time>2021-10-03T16:34:51Z</time>
      </trkpt>
      <trkpt lat="42.5014020" lon="-6.4593750">
        <ele>1110.2</ele>
        <time>2021-10-03T16:34:53Z</time>
      </trkpt>
      <trkpt lat="42.5014670" lon="-6.4594280">
        <ele>1108.8</ele>
        <time>2021-10-03T16:34:56Z</time>
      </trkpt>
      <trkpt lat="42.5014910" lon="-6.4594310">
        <ele>1108.8</ele>
        <time>2021-10-03T16:34:57Z</time>
      </trkpt>
      <trkpt lat="42.5015400" lon="-6.4593980">
        <ele>1108.6</ele>
        <time>2021-10-03T16:34:59Z</time>
      </trkpt>
      <trkpt lat="42.5015690" lon="-6.4593530">
        <ele>1108.6</ele>
        <time>2021-10-03T16:35:01Z</time>
      </trkpt>
      <trkpt lat="42.5016050" lon="-6.4592880">
        <ele>1108.6</ele>
        <time>2021-10-03T16:35:03Z</time>
      </trkpt>
      <trkpt lat="42.5016400" lon="-6.4592100">
        <ele>1108.6</ele>
        <time>2021-10-03T16:35:05Z</time>
      </trkpt>
      <trkpt lat="42.5017540" lon="-6.4590850">
        <ele>1108.8</ele>
        <time>2021-10-03T16:35:09Z</time>
      </trkpt>
      <trkpt lat="42.5019020" lon="-6.4591230">
        <ele>1108.8</ele>
        <time>2021-10-03T16:35:13Z</time>
      </trkpt>
      <trkpt lat="42.5020330" lon="-6.4592100">
        <ele>1108.8</ele>
        <time>2021-10-03T16:35:16Z</time>
      </trkpt>
      <trkpt lat="42.5022120" lon="-6.4593400">
        <ele>1108.4</ele>
        <time>2021-10-03T16:35:20Z</time>
      </trkpt>
      <trkpt lat="42.5024880" lon="-6.4595140">
        <ele>1108.4</ele>
        <time>2021-10-03T16:35:26Z</time>
      </trkpt>
      <trkpt lat="42.5025860" lon="-6.4595680">
        <ele>1108.4</ele>
        <time>2021-10-03T16:35:28Z</time>
      </trkpt>
      <trkpt lat="42.5029720" lon="-6.4596720">
        <ele>1108.2</ele>
        <time>2021-10-03T16:35:35Z</time>
      </trkpt>
      <trkpt lat="42.5033320" lon="-6.4597590">
        <ele>1108.2</ele>
        <time>2021-10-03T16:35:41Z</time>
      </trkpt>
      <trkpt lat="42.5034430" lon="-6.4598040">
        <ele>1108.2</ele>
        <time>2021-10-03T16:35:43Z</time>
      </trkpt>
      <trkpt lat="42.5036460" lon="-6.4599300">
        <ele>1108.2</ele>
        <time>2021-10-03T16:35:47Z</time>
      </trkpt>
      <trkpt lat="42.5037440" lon="-6.4600030">
        <ele>1108.2</ele>
        <time>2021-10-03T16:35:49Z</time>
      </trkpt>
      <trkpt lat="42.5037890" lon="-6.4600410">
        <ele>1108.4</ele>
        <time>2021-10-03T16:35:50Z</time>
      </trkpt>
      <trkpt lat="42.5040090" lon="-6.4604130">
        <ele>1109.0</ele>
        <time>2021-10-03T16:35:56Z</time>
      </trkpt>
      <trkpt lat="42.5044460" lon="-6.4609340">
        <ele>1108.0</ele>
        <time>2021-10-03T16:36:04Z</time>
      </trkpt>
      <trkpt lat="42.5045920" lon="-6.4610550">
        <ele>1107.4</ele>
        <time>2021-10-03T16:36:06Z</time>
      </trkpt>
      <trkpt lat="42.5048250" lon="-6.4612220">
        <ele>1105.4</ele>
        <time>2021-10-03T16:36:09Z</time>
      </trkpt>
      <trkpt lat="42.5049800" lon="-6.4613110">
        <ele>1103.8</ele>
        <time>2021-10-03T16:36:11Z</time>
      </trkpt>
      <trkpt lat="42.5051280" lon="-6.4614030">
        <ele>1101.8</ele>
        <time>2021-10-03T16:36:13Z</time>
      </trkpt>
      <trkpt lat="42.5052700" lon="-6.4615130">
        <ele>1100.6</ele>
        <time>2021-10-03T16:36:15Z</time>
      </trkpt>
      <trkpt lat="42.5057410" lon="-6.4619490">
        <ele>1099.6</ele>
        <time>2021-10-03T16:36:23Z</time>
      </trkpt>
      <trkpt lat="42.5058390" lon="-6.4620340">
        <ele>1099.6</ele>
        <time>2021-10-03T16:36:25Z</time>
      </trkpt>
      <trkpt lat="42.5059560" lon="-6.4621610">
        <ele>1099.6</ele>
        <time>2021-10-03T16:36:28Z</time>
      </trkpt>
      <trkpt lat="42.5060100" lon="-6.4622720">
        <ele>1100.2</ele>
        <time>2021-10-03T16:36:30Z</time>
      </trkpt>
      <trkpt lat="42.5060990" lon="-6.4624400">
        <ele>1102.0</ele>
        <time>2021-10-03T16:36:33Z</time>
      </trkpt>
      <trkpt lat="42.5061630" lon="-6.4625460">
        <ele>1103.4</ele>
        <time>2021-10-03T16:36:35Z</time>
      </trkpt>
      <trkpt lat="42.5062250" lon="-6.4626500">
        <ele>1104.6</ele>
        <time>2021-10-03T16:36:37Z</time>
      </trkpt>
      <trkpt lat="42.5063490" lon="-6.4628510">
        <ele>1105.8</ele>
        <time>2021-10-03T16:36:41Z</time>
      </trkpt>
      <trkpt lat="42.5064780" lon="-6.4630800">
        <ele>1106.8</ele>
        <time>2021-10-03T16:36:45Z</time>
      </trkpt>
      <trkpt lat="42.5067970" lon="-6.4636690">
        <ele>1106.8</ele>
        <time>2021-10-03T16:36:54Z</time>
      </trkpt>
      <trkpt lat="42.5070290" lon="-6.4639350">
        <ele>1106.0</ele>
        <time>2021-10-03T16:36:59Z</time>
      </trkpt>
      <trkpt lat="42.5070750" lon="-6.4639930">
        <ele>1106.0</ele>
        <time>2021-10-03T16:37:00Z</time>
      </trkpt>
      <trkpt lat="42.5071750" lon="-6.4642230">
        <ele>1105.8</ele>
        <time>2021-10-03T16:37:03Z</time>
      </trkpt>
      <trkpt lat="42.5071890" lon="-6.4645390">
        <ele>1105.4</ele>
        <time>2021-10-03T16:37:06Z</time>
      </trkpt>
      <trkpt lat="42.5071820" lon="-6.4646560">
        <ele>1104.8</ele>
        <time>2021-10-03T16:37:07Z</time>
      </trkpt>
      <trkpt lat="42.5071750" lon="-6.4647740">
        <ele>1104.2</ele>
        <time>2021-10-03T16:37:08Z</time>
      </trkpt>
      <trkpt lat="42.5071620" lon="-6.4650170">
        <ele>1102.6</ele>
        <time>2021-10-03T16:37:10Z</time>
      </trkpt>
      <trkpt lat="42.5071600" lon="-6.4651360">
        <ele>1101.0</ele>
        <time>2021-10-03T16:37:11Z</time>
      </trkpt>
      <trkpt lat="42.5071680" lon="-6.4652570">
        <ele>1099.6</ele>
        <time>2021-10-03T16:37:12Z</time>
      </trkpt>
      <trkpt lat="42.5071820" lon="-6.4653820">
        <ele>1098.2</ele>
        <time>2021-10-03T16:37:13Z</time>
      </trkpt>
      <trkpt lat="42.5071950" lon="-6.4655020">
        <ele>1096.2</ele>
        <time>2021-10-03T16:37:14Z</time>
      </trkpt>
      <trkpt lat="42.5072000" lon="-6.4656170">
        <ele>1093.8</ele>
        <time>2021-10-03T16:37:15Z</time>
      </trkpt>
      <trkpt lat="42.5072070" lon="-6.4657150">
        <ele>1092.4</ele>
        <time>2021-10-03T16:37:16Z</time>
      </trkpt>
      <trkpt lat="42.5072210" lon="-6.4658030">
        <ele>1090.6</ele>
        <time>2021-10-03T16:37:17Z</time>
      </trkpt>
      <trkpt lat="42.5072530" lon="-6.4658790">
        <ele>1088.4</ele>
        <time>2021-10-03T16:37:18Z</time>
      </trkpt>
      <trkpt lat="42.5072970" lon="-6.4659550">
        <ele>1086.4</ele>
        <time>2021-10-03T16:37:19Z</time>
      </trkpt>
      <trkpt lat="42.5073460" lon="-6.4660240">
        <ele>1084.4</ele>
        <time>2021-10-03T16:37:20Z</time>
      </trkpt>
      <trkpt lat="42.5073940" lon="-6.4660830">
        <ele>1083.0</ele>
        <time>2021-10-03T16:37:21Z</time>
      </trkpt>
      <trkpt lat="42.5074340" lon="-6.4661370">
        <ele>1081.0</ele>
        <time>2021-10-03T16:37:22Z</time>
      </trkpt>
      <trkpt lat="42.5075050" lon="-6.4662480">
        <ele>1079.4</ele>
        <time>2021-10-03T16:37:24Z</time>
      </trkpt>
      <trkpt lat="42.5075960" lon="-6.4664020">
        <ele>1078.6</ele>
        <time>2021-10-03T16:37:27Z</time>
      </trkpt>
      <trkpt lat="42.5076350" lon="-6.4664430">
        <ele>1078.4</ele>
        <time>2021-10-03T16:37:28Z</time>
      </trkpt>
      <trkpt lat="42.5077490" lon="-6.4665390">
        <ele>1077.0</ele>
        <time>2021-10-03T16:37:31Z</time>
      </trkpt>
      <trkpt lat="42.5078180" lon="-6.4665880">
        <ele>1075.4</ele>
        <time>2021-10-03T16:37:33Z</time>
      </trkpt>
      <trkpt lat="42.5078520" lon="-6.4666110">
        <ele>1074.4</ele>
        <time>2021-10-03T16:37:34Z</time>
      </trkpt>
      <trkpt lat="42.5078840" lon="-6.4666360">
        <ele>1073.0</ele>
        <time>2021-10-03T16:37:35Z</time>
      </trkpt>
      <trkpt lat="42.5079130" lon="-6.4666570">
        <ele>1071.6</ele>
        <time>2021-10-03T16:37:36Z</time>
      </trkpt>
      <trkpt lat="42.5079380" lon="-6.4666740">
        <ele>1070.6</ele>
        <time>2021-10-03T16:37:37Z</time>
      </trkpt>
      <trkpt lat="42.5079920" lon="-6.4667150">
        <ele>1068.6</ele>
        <time>2021-10-03T16:37:39Z</time>
      </trkpt>
      <trkpt lat="42.5080490" lon="-6.4667570">
        <ele>1066.8</ele>
        <time>2021-10-03T16:37:41Z</time>
      </trkpt>
      <trkpt lat="42.5080770" lon="-6.4667720">
        <ele>1065.6</ele>
        <time>2021-10-03T16:37:42Z</time>
      </trkpt>
      <trkpt lat="42.5081030" lon="-6.4667900">
        <ele>1064.4</ele>
        <time>2021-10-03T16:37:43Z</time>
      </trkpt>
      <trkpt lat="42.5081320" lon="-6.4668160">
        <ele>1063.2</ele>
        <time>2021-10-03T16:37:44Z</time>
      </trkpt>
      <trkpt lat="42.5081570" lon="-6.4668500">
        <ele>1062.2</ele>
        <time>2021-10-03T16:37:45Z</time>
      </trkpt>
      <trkpt lat="42.5081850" lon="-6.4668840">
        <ele>1061.0</ele>
        <time>2021-10-03T16:37:46Z</time>
      </trkpt>
      <trkpt lat="42.5082180" lon="-6.4669140">
        <ele>1060.0</ele>
        <time>2021-10-03T16:37:47Z</time>
      </trkpt>
      <trkpt lat="42.5082530" lon="-6.4669380">
        <ele>1058.8</ele>
        <time>2021-10-03T16:37:48Z</time>
      </trkpt>
      <trkpt lat="42.5082930" lon="-6.4669550">
        <ele>1057.8</ele>
        <time>2021-10-03T16:37:49Z</time>
      </trkpt>
      <trkpt lat="42.5083350" lon="-6.4669700">
        <ele>1056.6</ele>
        <time>2021-10-03T16:37:50Z</time>
      </trkpt>
      <trkpt lat="42.5083800" lon="-6.4669880">
        <ele>1055.6</ele>
        <time>2021-10-03T16:37:51Z</time>
      </trkpt>
      <trkpt lat="42.5084250" lon="-6.4670120">
        <ele>1054.4</ele>
        <time>2021-10-03T16:37:52Z</time>
      </trkpt>
      <trkpt lat="42.5084690" lon="-6.4670360">
        <ele>1053.2</ele>
        <time>2021-10-03T16:37:53Z</time>
      </trkpt>
      <trkpt lat="42.5085090" lon="-6.4670610">
        <ele>1052.0</ele>
        <time>2021-10-03T16:37:54Z</time>
      </trkpt>
      <trkpt lat="42.5085440" lon="-6.4670890">
        <ele>1051.0</ele>
        <time>2021-10-03T16:37:55Z</time>
      </trkpt>
      <trkpt lat="42.5086210" lon="-6.4671430">
        <ele>1048.0</ele>
        <time>2021-10-03T16:37:57Z</time>
      </trkpt>
      <trkpt lat="42.5086640" lon="-6.4671670">
        <ele>1046.8</ele>
        <time>2021-10-03T16:37:58Z</time>
      </trkpt>
      <trkpt lat="42.5087180" lon="-6.4671830">
        <ele>1045.4</ele>
        <time>2021-10-03T16:37:59Z</time>
      </trkpt>
      <trkpt lat="42.5087830" lon="-6.4672030">
        <ele>1044.2</ele>
        <time>2021-10-03T16:38:00Z</time>
      </trkpt>
      <trkpt lat="42.5088600" lon="-6.4672270">
        <ele>1043.2</ele>
        <time>2021-10-03T16:38:01Z</time>
      </trkpt>
      <trkpt lat="42.5090140" lon="-6.4672830">
        <ele>1041.4</ele>
        <time>2021-10-03T16:38:03Z</time>
      </trkpt>
      <trkpt lat="42.5090870" lon="-6.4673100">
        <ele>1040.4</ele>
        <time>2021-10-03T16:38:04Z</time>
      </trkpt>
      <trkpt lat="42.5091560" lon="-6.4673370">
        <ele>1039.4</ele>
        <time>2021-10-03T16:38:05Z</time>
      </trkpt>
      <trkpt lat="42.5092240" lon="-6.4673730">
        <ele>1038.0</ele>
        <time>2021-10-03T16:38:06Z</time>
      </trkpt>
      <trkpt lat="42.5092930" lon="-6.4674280">
        <ele>1036.4</ele>
        <time>2021-10-03T16:38:07Z</time>
      </trkpt>
      <trkpt lat="42.5093650" lon="-6.4674890">
        <ele>1034.6</ele>
        <time>2021-10-03T16:38:08Z</time>
      </trkpt>
      <trkpt lat="42.5094410" lon="-6.4675500">
        <ele>1032.8</ele>
        <time>2021-10-03T16:38:09Z</time>
      </trkpt>
      <trkpt lat="42.5095220" lon="-6.4676090">
        <ele>1031.4</ele>
        <time>2021-10-03T16:38:10Z</time>
      </trkpt>
      <trkpt lat="42.5096040" lon="-6.4676660">
        <ele>1029.8</ele>
        <time>2021-10-03T16:38:11Z</time>
      </trkpt>
      <trkpt lat="42.5096790" lon="-6.4677210">
        <ele>1028.4</ele>
        <time>2021-10-03T16:38:12Z</time>
      </trkpt>
      <trkpt lat="42.5097450" lon="-6.4677800">
        <ele>1027.0</ele>
        <time>2021-10-03T16:38:13Z</time>
      </trkpt>
      <trkpt lat="42.5098030" lon="-6.4678490">
        <ele>1026.0</ele>
        <time>2021-10-03T16:38:14Z</time>
      </trkpt>
      <trkpt lat="42.5098550" lon="-6.4679300">
        <ele>1024.8</ele>
        <time>2021-10-03T16:38:15Z</time>
      </trkpt>
      <trkpt lat="42.5099000" lon="-6.4680180">
        <ele>1023.4</ele>
        <time>2021-10-03T16:38:16Z</time>
      </trkpt>
      <trkpt lat="42.5099440" lon="-6.4681030">
        <ele>1022.2</ele>
        <time>2021-10-03T16:38:17Z</time>
      </trkpt>
      <trkpt lat="42.5099910" lon="-6.4681790">
        <ele>1020.8</ele>
        <time>2021-10-03T16:38:18Z</time>
      </trkpt>
      <trkpt lat="42.5101040" lon="-6.4682940">
        <ele>1019.4</ele>
        <time>2021-10-03T16:38:20Z</time>
      </trkpt>
      <trkpt lat="42.5102280" lon="-6.4683450">
        <ele>1018.0</ele>
        <time>2021-10-03T16:38:22Z</time>
      </trkpt>
      <trkpt lat="42.5103210" lon="-6.4684350">
        <ele>1016.8</ele>
        <time>2021-10-03T16:38:24Z</time>
      </trkpt>
      <trkpt lat="42.5104630" lon="-6.4685970">
        <ele>1016.0</ele>
        <time>2021-10-03T16:38:27Z</time>
      </trkpt>
      <trkpt lat="42.5106790" lon="-6.4689020">
        <ele>1015.8</ele>
        <time>2021-10-03T16:38:32Z</time>
      </trkpt>
      <trkpt lat="42.5107260" lon="-6.4689550">
        <ele>1015.6</ele>
        <time>2021-10-03T16:38:33Z</time>
      </trkpt>
      <trkpt lat="42.5108320" lon="-6.4690670">
        <ele>1015.2</ele>
        <time>2021-10-03T16:38:35Z</time>
      </trkpt>
      <trkpt lat="42.5110570" lon="-6.4693430">
        <ele>1014.2</ele>
        <time>2021-10-03T16:38:39Z</time>
      </trkpt>
      <trkpt lat="42.5111700" lon="-6.4694830">
        <ele>1013.0</ele>
        <time>2021-10-03T16:38:41Z</time>
      </trkpt>
      <trkpt lat="42.5112950" lon="-6.4696020">
        <ele>1011.2</ele>
        <time>2021-10-03T16:38:43Z</time>
      </trkpt>
      <trkpt lat="42.5114880" lon="-6.4697550">
        <ele>1010.0</ele>
        <time>2021-10-03T16:38:46Z</time>
      </trkpt>
      <trkpt lat="42.5116380" lon="-6.4698480">
        <ele>1008.6</ele>
        <time>2021-10-03T16:38:49Z</time>
      </trkpt>
      <trkpt lat="42.5116790" lon="-6.4698730">
        <ele>1008.0</ele>
        <time>2021-10-03T16:38:50Z</time>
      </trkpt>
      <trkpt lat="42.5117190" lon="-6.4698910">
        <ele>1007.0</ele>
        <time>2021-10-03T16:38:51Z</time>
      </trkpt>
      <trkpt lat="42.5118020" lon="-6.4699320">
        <ele>1006.0</ele>
        <time>2021-10-03T16:38:53Z</time>
      </trkpt>
      <trkpt lat="42.5119310" lon="-6.4700280">
        <ele>1005.2</ele>
        <time>2021-10-03T16:38:56Z</time>
      </trkpt>
      <trkpt lat="42.5120390" lon="-6.4701350">
        <ele>1004.8</ele>
        <time>2021-10-03T16:38:59Z</time>
      </trkpt>
      <trkpt lat="42.5121190" lon="-6.4702220">
        <ele>1004.4</ele>
        <time>2021-10-03T16:39:01Z</time>
      </trkpt>
      <trkpt lat="42.5122160" lon="-6.4703100">
        <ele>1003.4</ele>
        <time>2021-10-03T16:39:03Z</time>
      </trkpt>
      <trkpt lat="42.5123130" lon="-6.4704030">
        <ele>1002.2</ele>
        <time>2021-10-03T16:39:05Z</time>
      </trkpt>
      <trkpt lat="42.5123600" lon="-6.4704470">
        <ele>1001.2</ele>
        <time>2021-10-03T16:39:06Z</time>
      </trkpt>
      <trkpt lat="42.5124860" lon="-6.4705700">
        <ele>999.6</ele>
        <time>2021-10-03T16:39:09Z</time>
      </trkpt>
      <trkpt lat="42.5125260" lon="-6.4706050">
        <ele>998.4</ele>
        <time>2021-10-03T16:39:10Z</time>
      </trkpt>
      <trkpt lat="42.5125720" lon="-6.4706370">
        <ele>997.4</ele>
        <time>2021-10-03T16:39:11Z</time>
      </trkpt>
      <trkpt lat="42.5126790" lon="-6.4707130">
        <ele>996.0</ele>
        <time>2021-10-03T16:39:13Z</time>
      </trkpt>
      <trkpt lat="42.5127940" lon="-6.4707730">
        <ele>994.6</ele>
        <time>2021-10-03T16:39:15Z</time>
      </trkpt>
      <trkpt lat="42.5129120" lon="-6.4708450">
        <ele>993.8</ele>
        <time>2021-10-03T16:39:17Z</time>
      </trkpt>
      <trkpt lat="42.5129720" lon="-6.4709040">
        <ele>993.0</ele>
        <time>2021-10-03T16:39:18Z</time>
      </trkpt>
      <trkpt lat="42.5130320" lon="-6.4709740">
        <ele>992.0</ele>
        <time>2021-10-03T16:39:19Z</time>
      </trkpt>
      <trkpt lat="42.5130940" lon="-6.4710380">
        <ele>990.8</ele>
        <time>2021-10-03T16:39:20Z</time>
      </trkpt>
      <trkpt lat="42.5131570" lon="-6.4710830">
        <ele>989.8</ele>
        <time>2021-10-03T16:39:21Z</time>
      </trkpt>
      <trkpt lat="42.5132820" lon="-6.4711440">
        <ele>988.2</ele>
        <time>2021-10-03T16:39:23Z</time>
      </trkpt>
      <trkpt lat="42.5133480" lon="-6.4711790">
        <ele>987.0</ele>
        <time>2021-10-03T16:39:24Z</time>
      </trkpt>
      <trkpt lat="42.5134120" lon="-6.4712110">
        <ele>985.0</ele>
        <time>2021-10-03T16:39:25Z</time>
      </trkpt>
      <trkpt lat="42.5134700" lon="-6.4712460">
        <ele>983.4</ele>
        <time>2021-10-03T16:39:26Z</time>
      </trkpt>
      <trkpt lat="42.5135520" lon="-6.4713210">
        <ele>982.0</ele>
        <time>2021-10-03T16:39:28Z</time>
      </trkpt>
      <trkpt lat="42.5135870" lon="-6.4713530">
        <ele>981.8</ele>
        <time>2021-10-03T16:39:29Z</time>
      </trkpt>
      <trkpt lat="42.5136760" lon="-6.4714130">
        <ele>980.4</ele>
        <time>2021-10-03T16:39:31Z</time>
      </trkpt>
      <trkpt lat="42.5137720" lon="-6.4714990">
        <ele>979.4</ele>
        <time>2021-10-03T16:39:33Z</time>
      </trkpt>
      <trkpt lat="42.5138720" lon="-6.4717990">
        <ele>978.2</ele>
        <time>2021-10-03T16:39:38Z</time>
      </trkpt>
      <trkpt lat="42.5139540" lon="-6.4719200">
        <ele>977.2</ele>
        <time>2021-10-03T16:39:41Z</time>
      </trkpt>
      <trkpt lat="42.5140430" lon="-6.4719840">
        <ele>976.6</ele>
        <time>2021-10-03T16:39:43Z</time>
      </trkpt>
      <trkpt lat="42.5140930" lon="-6.4720090">
        <ele>976.4</ele>
        <time>2021-10-03T16:39:44Z</time>
      </trkpt>
      <trkpt lat="42.5141460" lon="-6.4720250">
        <ele>976.0</ele>
        <time>2021-10-03T16:39:45Z</time>
      </trkpt>
      <trkpt lat="42.5143190" lon="-6.4720400">
        <ele>975.2</ele>
        <time>2021-10-03T16:39:48Z</time>
      </trkpt>
      <trkpt lat="42.5143730" lon="-6.4720480">
        <ele>974.8</ele>
        <time>2021-10-03T16:39:49Z</time>
      </trkpt>
      <trkpt lat="42.5144720" lon="-6.4720620">
        <ele>974.2</ele>
        <time>2021-10-03T16:39:51Z</time>
      </trkpt>
      <trkpt lat="42.5145470" lon="-6.4721100">
        <ele>973.8</ele>
        <time>2021-10-03T16:39:53Z</time>
      </trkpt>
      <trkpt lat="42.5146170" lon="-6.4721490">
        <ele>972.0</ele>
        <time>2021-10-03T16:39:55Z</time>
      </trkpt>
      <trkpt lat="42.5146530" lon="-6.4721610">
        <ele>971.4</ele>
        <time>2021-10-03T16:39:56Z</time>
      </trkpt>
      <trkpt lat="42.5147280" lon="-6.4721880">
        <ele>971.0</ele>
        <time>2021-10-03T16:39:58Z</time>
      </trkpt>
      <trkpt lat="42.5147670" lon="-6.4722080">
        <ele>970.6</ele>
        <time>2021-10-03T16:39:59Z</time>
      </trkpt>
      <trkpt lat="42.5149080" lon="-6.4722830">
        <ele>969.8</ele>
        <time>2021-10-03T16:40:02Z</time>
      </trkpt>
      <trkpt lat="42.5149660" lon="-6.4722920">
        <ele>969.4</ele>
        <time>2021-10-03T16:40:03Z</time>
      </trkpt>
      <trkpt lat="42.5150230" lon="-6.4722930">
        <ele>969.2</ele>
        <time>2021-10-03T16:40:04Z</time>
      </trkpt>
      <trkpt lat="42.5151650" lon="-6.4722190">
        <ele>968.2</ele>
        <time>2021-10-03T16:40:07Z</time>
      </trkpt>
      <trkpt lat="42.5152160" lon="-6.4721920">
        <ele>967.2</ele>
        <time>2021-10-03T16:40:08Z</time>
      </trkpt>
      <trkpt lat="42.5152780" lon="-6.4721700">
        <ele>966.8</ele>
        <time>2021-10-03T16:40:09Z</time>
      </trkpt>
      <trkpt lat="42.5153490" lon="-6.4721500">
        <ele>966.4</ele>
        <time>2021-10-03T16:40:10Z</time>
      </trkpt>
      <trkpt lat="42.5155030" lon="-6.4721100">
        <ele>965.2</ele>
        <time>2021-10-03T16:40:12Z</time>
      </trkpt>
      <trkpt lat="42.5157300" lon="-6.4720470">
        <ele>963.6</ele>
        <time>2021-10-03T16:40:15Z</time>
      </trkpt>
      <trkpt lat="42.5158000" lon="-6.4720180">
        <ele>962.2</ele>
        <time>2021-10-03T16:40:16Z</time>
      </trkpt>
      <trkpt lat="42.5158680" lon="-6.4719970">
        <ele>960.4</ele>
        <time>2021-10-03T16:40:17Z</time>
      </trkpt>
      <trkpt lat="42.5159380" lon="-6.4719930">
        <ele>958.8</ele>
        <time>2021-10-03T16:40:18Z</time>
      </trkpt>
      <trkpt lat="42.5160160" lon="-6.4720040">
        <ele>957.0</ele>
        <time>2021-10-03T16:40:19Z</time>
      </trkpt>
      <trkpt lat="42.5161020" lon="-6.4720150">
        <ele>955.6</ele>
        <time>2021-10-03T16:40:20Z</time>
      </trkpt>
      <trkpt lat="42.5161940" lon="-6.4720110">
        <ele>954.0</ele>
        <time>2021-10-03T16:40:21Z</time>
      </trkpt>
      <trkpt lat="42.5162810" lon="-6.4720010">
        <ele>952.6</ele>
        <time>2021-10-03T16:40:22Z</time>
      </trkpt>
      <trkpt lat="42.5163560" lon="-6.4719990">
        <ele>951.4</ele>
        <time>2021-10-03T16:40:23Z</time>
      </trkpt>
      <trkpt lat="42.5164230" lon="-6.4720110">
        <ele>950.2</ele>
        <time>2021-10-03T16:40:24Z</time>
      </trkpt>
      <trkpt lat="42.5164900" lon="-6.4720330">
        <ele>949.2</ele>
        <time>2021-10-03T16:40:25Z</time>
      </trkpt>
      <trkpt lat="42.5165510" lon="-6.4720710">
        <ele>947.6</ele>
        <time>2021-10-03T16:40:26Z</time>
      </trkpt>
      <trkpt lat="42.5166010" lon="-6.4721280">
        <ele>945.8</ele>
        <time>2021-10-03T16:40:27Z</time>
      </trkpt>
      <trkpt lat="42.5166460" lon="-6.4721960">
        <ele>944.0</ele>
        <time>2021-10-03T16:40:28Z</time>
      </trkpt>
      <trkpt lat="42.5166910" lon="-6.4722690">
        <ele>942.8</ele>
        <time>2021-10-03T16:40:29Z</time>
      </trkpt>
      <trkpt lat="42.5167400" lon="-6.4723390">
        <ele>942.2</ele>
        <time>2021-10-03T16:40:30Z</time>
      </trkpt>
      <trkpt lat="42.5168480" lon="-6.4724630">
        <ele>941.0</ele>
        <time>2021-10-03T16:40:32Z</time>
      </trkpt>
      <trkpt lat="42.5168980" lon="-6.4725230">
        <ele>940.6</ele>
        <time>2021-10-03T16:40:33Z</time>
      </trkpt>
      <trkpt lat="42.5170180" lon="-6.4727210">
        <ele>939.6</ele>
        <time>2021-10-03T16:40:36Z</time>
      </trkpt>
      <trkpt lat="42.5171790" lon="-6.4730250">
        <ele>939.0</ele>
        <time>2021-10-03T16:40:40Z</time>
      </trkpt>
      <trkpt lat="42.5173150" lon="-6.4732540">
        <ele>938.6</ele>
        <time>2021-10-03T16:40:43Z</time>
      </trkpt>
      <trkpt lat="42.5175640" lon="-6.4736120">
        <ele>938.2</ele>
        <time>2021-10-03T16:40:48Z</time>
      </trkpt>
      <trkpt lat="42.5176620" lon="-6.4737220">
        <ele>938.2</ele>
        <time>2021-10-03T16:40:50Z</time>
      </trkpt>
      <trkpt lat="42.5178000" lon="-6.4738260">
        <ele>938.2</ele>
        <time>2021-10-03T16:40:53Z</time>
      </trkpt>
      <trkpt lat="42.5180890" lon="-6.4743590">
        <ele>938.0</ele>
        <time>2021-10-03T16:41:01Z</time>
      </trkpt>
      <trkpt lat="42.5183300" lon="-6.4748780">
        <ele>937.2</ele>
        <time>2021-10-03T16:41:07Z</time>
      </trkpt>
      <trkpt lat="42.5184990" lon="-6.4752220">
        <ele>936.0</ele>
        <time>2021-10-03T16:41:11Z</time>
      </trkpt>
      <trkpt lat="42.5186290" lon="-6.4754600">
        <ele>934.8</ele>
        <time>2021-10-03T16:41:14Z</time>
      </trkpt>
      <trkpt lat="42.5187690" lon="-6.4757630">
        <ele>934.4</ele>
        <time>2021-10-03T16:41:18Z</time>
      </trkpt>
      <trkpt lat="42.5188520" lon="-6.4759540">
        <ele>934.2</ele>
        <time>2021-10-03T16:41:21Z</time>
      </trkpt>
      <trkpt lat="42.5189030" lon="-6.4760500">
        <ele>934.0</ele>
        <time>2021-10-03T16:41:23Z</time>
      </trkpt>
      <trkpt lat="42.5189270" lon="-6.4760990">
        <ele>934.0</ele>
        <time>2021-10-03T16:41:24Z</time>
      </trkpt>
      <trkpt lat="42.5189710" lon="-6.4762150">
        <ele>934.0</ele>
        <time>2021-10-03T16:41:26Z</time>
      </trkpt>
      <trkpt lat="42.5190360" lon="-6.4764400">
        <ele>933.8</ele>
        <time>2021-10-03T16:41:29Z</time>
      </trkpt>
      <trkpt lat="42.5191890" lon="-6.4768540">
        <ele>932.8</ele>
        <time>2021-10-03T16:41:34Z</time>
      </trkpt>
      <trkpt lat="42.5192250" lon="-6.4769340">
        <ele>932.0</ele>
        <time>2021-10-03T16:41:35Z</time>
      </trkpt>
      <trkpt lat="42.5192640" lon="-6.4770090">
        <ele>931.6</ele>
        <time>2021-10-03T16:41:36Z</time>
      </trkpt>
      <trkpt lat="42.5194300" lon="-6.4773030">
        <ele>931.2</ele>
        <time>2021-10-03T16:41:40Z</time>
      </trkpt>
      <trkpt lat="42.5197690" lon="-6.4776940">
        <ele>930.6</ele>
        <time>2021-10-03T16:41:46Z</time>
      </trkpt>
      <trkpt lat="42.5199770" lon="-6.4778730">
        <ele>930.0</ele>
        <time>2021-10-03T16:41:49Z</time>
      </trkpt>
      <trkpt lat="42.5200500" lon="-6.4779340">
        <ele>929.2</ele>
        <time>2021-10-03T16:41:50Z</time>
      </trkpt>
      <trkpt lat="42.5201270" lon="-6.4779930">
        <ele>928.2</ele>
        <time>2021-10-03T16:41:51Z</time>
      </trkpt>
      <trkpt lat="42.5202730" lon="-6.4781380">
        <ele>926.6</ele>
        <time>2021-10-03T16:41:53Z</time>
      </trkpt>
      <trkpt lat="42.5203970" lon="-6.4783270">
        <ele>924.8</ele>
        <time>2021-10-03T16:41:55Z</time>
      </trkpt>
      <trkpt lat="42.5205220" lon="-6.4785130">
        <ele>923.0</ele>
        <time>2021-10-03T16:41:57Z</time>
      </trkpt>
      <trkpt lat="42.5205930" lon="-6.4785820">
        <ele>920.8</ele>
        <time>2021-10-03T16:41:58Z</time>
      </trkpt>
      <trkpt lat="42.5207420" lon="-6.4786670">
        <ele>919.2</ele>
        <time>2021-10-03T16:42:00Z</time>
      </trkpt>
      <trkpt lat="42.5208150" lon="-6.4786930">
        <ele>918.4</ele>
        <time>2021-10-03T16:42:01Z</time>
      </trkpt>
      <trkpt lat="42.5208860" lon="-6.4787220">
        <ele>917.8</ele>
        <time>2021-10-03T16:42:02Z</time>
      </trkpt>
      <trkpt lat="42.5209600" lon="-6.4787540">
        <ele>917.4</ele>
        <time>2021-10-03T16:42:03Z</time>
      </trkpt>
      <trkpt lat="42.5211190" lon="-6.4788190">
        <ele>916.6</ele>
        <time>2021-10-03T16:42:05Z</time>
      </trkpt>
      <trkpt lat="42.5212810" lon="-6.4789030">
        <ele>915.6</ele>
        <time>2021-10-03T16:42:07Z</time>
      </trkpt>
      <trkpt lat="42.5214930" lon="-6.4790440">
        <ele>914.4</ele>
        <time>2021-10-03T16:42:10Z</time>
      </trkpt>
      <trkpt lat="42.5216110" lon="-6.4791420">
        <ele>913.6</ele>
        <time>2021-10-03T16:42:12Z</time>
      </trkpt>
      <trkpt lat="42.5216670" lon="-6.4791920">
        <ele>913.2</ele>
        <time>2021-10-03T16:42:13Z</time>
      </trkpt>
      <trkpt lat="42.5217780" lon="-6.4793030">
        <ele>911.2</ele>
        <time>2021-10-03T16:42:15Z</time>
      </trkpt>
      <trkpt lat="42.5218300" lon="-6.4793670">
        <ele>910.6</ele>
        <time>2021-10-03T16:42:16Z</time>
      </trkpt>
      <trkpt lat="42.5218780" lon="-6.4794370">
        <ele>910.2</ele>
        <time>2021-10-03T16:42:17Z</time>
      </trkpt>
      <trkpt lat="42.5221030" lon="-6.4796440">
        <ele>909.2</ele>
        <time>2021-10-03T16:42:21Z</time>
      </trkpt>
      <trkpt lat="42.5221620" lon="-6.4796720">
        <ele>909.0</ele>
        <time>2021-10-03T16:42:22Z</time>
      </trkpt>
      <trkpt lat="42.5223780" lon="-6.4799600">
        <ele>907.8</ele>
        <time>2021-10-03T16:42:27Z</time>
      </trkpt>
      <trkpt lat="42.5224130" lon="-6.4800330">
        <ele>907.6</ele>
        <time>2021-10-03T16:42:28Z</time>
      </trkpt>
      <trkpt lat="42.5226160" lon="-6.4804800">
        <ele>906.6</ele>
        <time>2021-10-03T16:42:34Z</time>
      </trkpt>
      <trkpt lat="42.5227300" lon="-6.4807840">
        <ele>906.0</ele>
        <time>2021-10-03T16:42:38Z</time>
      </trkpt>
      <trkpt lat="42.5228590" lon="-6.4809240">
        <ele>905.6</ele>
        <time>2021-10-03T16:42:41Z</time>
      </trkpt>
      <trkpt lat="42.5229370" lon="-6.4810230">
        <ele>904.4</ele>
        <time>2021-10-03T16:42:43Z</time>
      </trkpt>
      <trkpt lat="42.5229750" lon="-6.4811340">
        <ele>903.8</ele>
        <time>2021-10-03T16:42:45Z</time>
      </trkpt>
      <trkpt lat="42.5230360" lon="-6.4812770">
        <ele>902.8</ele>
        <time>2021-10-03T16:42:48Z</time>
      </trkpt>
      <trkpt lat="42.5230600" lon="-6.4813250">
        <ele>901.8</ele>
        <time>2021-10-03T16:42:49Z</time>
      </trkpt>
      <trkpt lat="42.5231170" lon="-6.4814220">
        <ele>900.6</ele>
        <time>2021-10-03T16:42:51Z</time>
      </trkpt>
      <trkpt lat="42.5231620" lon="-6.4814970">
        <ele>899.6</ele>
        <time>2021-10-03T16:42:54Z</time>
      </trkpt>
      <trkpt lat="42.5231900" lon="-6.4815470">
        <ele>898.4</ele>
        <time>2021-10-03T16:42:56Z</time>
      </trkpt>
      <trkpt lat="42.5232150" lon="-6.4815830">
        <ele>897.0</ele>
        <time>2021-10-03T16:42:58Z</time>
      </trkpt>
      <trkpt lat="42.5232560" lon="-6.4816260">
        <ele>895.8</ele>
        <time>2021-10-03T16:43:00Z</time>
      </trkpt>
      <trkpt lat="42.5232980" lon="-6.4816910">
        <ele>894.8</ele>
        <time>2021-10-03T16:43:03Z</time>
      </trkpt>
      <trkpt lat="42.5233500" lon="-6.4817460">
        <ele>893.6</ele>
        <time>2021-10-03T16:43:06Z</time>
      </trkpt>
      <trkpt lat="42.5234080" lon="-6.4818110">
        <ele>892.2</ele>
        <time>2021-10-03T16:43:09Z</time>
      </trkpt>
      <trkpt lat="42.5234800" lon="-6.4818960">
        <ele>891.0</ele>
        <time>2021-10-03T16:43:12Z</time>
      </trkpt>
      <trkpt lat="42.5235340" lon="-6.4819850">
        <ele>889.8</ele>
        <time>2021-10-03T16:43:15Z</time>
      </trkpt>
      <trkpt lat="42.5235620" lon="-6.4820370">
        <ele>888.8</ele>
        <time>2021-10-03T16:43:17Z</time>
      </trkpt>
      <trkpt lat="42.5235790" lon="-6.4820980">
        <ele>887.2</ele>
        <time>2021-10-03T16:43:19Z</time>
      </trkpt>
      <trkpt lat="42.5236000" lon="-6.4821600">
        <ele>886.0</ele>
        <time>2021-10-03T16:43:21Z</time>
      </trkpt>
      <trkpt lat="42.5236270" lon="-6.4822810">
        <ele>885.0</ele>
        <time>2021-10-03T16:43:24Z</time>
      </trkpt>
      <trkpt lat="42.5236450" lon="-6.4823430">
        <ele>884.0</ele>
        <time>2021-10-03T16:43:26Z</time>
      </trkpt>
      <trkpt lat="42.5236520" lon="-6.4823660">
        <ele>883.6</ele>
        <time>2021-10-03T16:43:27Z</time>
      </trkpt>
      <trkpt lat="42.5236790" lon="-6.4824330">
        <ele>882.6</ele>
        <time>2021-10-03T16:43:30Z</time>
      </trkpt>
      <trkpt lat="42.5237010" lon="-6.4824960">
        <ele>881.4</ele>
        <time>2021-10-03T16:43:33Z</time>
      </trkpt>
      <trkpt lat="42.5237210" lon="-6.4825690">
        <ele>880.0</ele>
        <time>2021-10-03T16:43:36Z</time>
      </trkpt>
      <trkpt lat="42.5237280" lon="-6.4825960">
        <ele>878.6</ele>
        <time>2021-10-03T16:43:39Z</time>
      </trkpt>
      <trkpt lat="42.5237710" lon="-6.4828770">
        <ele>874.0</ele>
        <time>2021-10-03T16:44:40Z</time>
      </trkpt>
      <trkpt lat="42.5237950" lon="-6.4829290">
        <ele>873.6</ele>
        <time>2021-10-03T16:44:43Z</time>
      </trkpt>
      <trkpt lat="42.5238110" lon="-6.4829730">
        <ele>873.4</ele>
        <time>2021-10-03T16:44:45Z</time>
      </trkpt>
      <trkpt lat="42.5238600" lon="-6.4830650">
        <ele>872.8</ele>
        <time>2021-10-03T16:44:49Z</time>
      </trkpt>
      <trkpt lat="42.5239110" lon="-6.4831200">
        <ele>872.6</ele>
        <time>2021-10-03T16:44:52Z</time>
      </trkpt>
      <trkpt lat="42.5239470" lon="-6.4831690">
        <ele>871.8</ele>
        <time>2021-10-03T16:44:55Z</time>
      </trkpt>
      <trkpt lat="42.5239880" lon="-6.4832480">
        <ele>870.6</ele>
        <time>2021-10-03T16:44:59Z</time>
      </trkpt>
      <trkpt lat="42.5240280" lon="-6.4833370">
        <ele>869.6</ele>
        <time>2021-10-03T16:45:03Z</time>
      </trkpt>
      <trkpt lat="42.5240480" lon="-6.4833750">
        <ele>868.2</ele>
        <time>2021-10-03T16:45:06Z</time>
      </trkpt>
      <trkpt lat="42.5240720" lon="-6.4834040">
        <ele>867.0</ele>
        <time>2021-10-03T16:45:10Z</time>
      </trkpt>
      <trkpt lat="42.5240780" lon="-6.4834230">
        <ele>865.8</ele>
        <time>2021-10-03T16:45:14Z</time>
      </trkpt>
      <trkpt lat="42.5241880" lon="-6.4836400">
        <ele>862.0</ele>
        <time>2021-10-03T16:45:44Z</time>
      </trkpt>
      <trkpt lat="42.5242490" lon="-6.4837270">
        <ele>861.8</ele>
        <time>2021-10-03T16:45:48Z</time>
      </trkpt>
      <trkpt lat="42.5242760" lon="-6.4837860">
        <ele>861.2</ele>
        <time>2021-10-03T16:45:50Z</time>
      </trkpt>
      <trkpt lat="42.5242860" lon="-6.4838240">
        <ele>861.0</ele>
        <time>2021-10-03T16:45:51Z</time>
      </trkpt>
      <trkpt lat="42.5243200" lon="-6.4838860">
        <ele>860.6</ele>
        <time>2021-10-03T16:45:53Z</time>
      </trkpt>
      <trkpt lat="42.5243780" lon="-6.4839600">
        <ele>860.2</ele>
        <time>2021-10-03T16:45:56Z</time>
      </trkpt>
      <trkpt lat="42.5244110" lon="-6.4840050">
        <ele>859.8</ele>
        <time>2021-10-03T16:45:58Z</time>
      </trkpt>
      <trkpt lat="42.5244750" lon="-6.4840930">
        <ele>858.8</ele>
        <time>2021-10-03T16:46:01Z</time>
      </trkpt>
      <trkpt lat="42.5245830" lon="-6.4842620">
        <ele>858.2</ele>
        <time>2021-10-03T16:46:05Z</time>
      </trkpt>
      <trkpt lat="42.5246520" lon="-6.4844560">
        <ele>857.6</ele>
        <time>2021-10-03T16:46:08Z</time>
      </trkpt>
      <trkpt lat="42.5246730" lon="-6.4845250">
        <ele>857.2</ele>
        <time>2021-10-03T16:46:09Z</time>
      </trkpt>
      <trkpt lat="42.5247020" lon="-6.4846340">
        <ele>856.4</ele>
        <time>2021-10-03T16:46:11Z</time>
      </trkpt>
      <trkpt lat="42.5247690" lon="-6.4849050">
        <ele>855.4</ele>
        <time>2021-10-03T16:46:15Z</time>
      </trkpt>
      <trkpt lat="42.5247990" lon="-6.4849730">
        <ele>855.2</ele>
        <time>2021-10-03T16:46:16Z</time>
      </trkpt>
      <trkpt lat="42.5249280" lon="-6.4852810">
        <ele>854.0</ele>
        <time>2021-10-03T16:46:20Z</time>
      </trkpt>
      <trkpt lat="42.5249710" lon="-6.4853480">
        <ele>853.8</ele>
        <time>2021-10-03T16:46:21Z</time>
      </trkpt>
      <trkpt lat="42.5251040" lon="-6.4855620">
        <ele>852.2</ele>
        <time>2021-10-03T16:46:24Z</time>
      </trkpt>
      <trkpt lat="42.5252160" lon="-6.4857590">
        <ele>850.8</ele>
        <time>2021-10-03T16:46:27Z</time>
      </trkpt>
      <trkpt lat="42.5252940" lon="-6.4859330">
        <ele>849.8</ele>
        <time>2021-10-03T16:46:30Z</time>
      </trkpt>
      <trkpt lat="42.5253190" lon="-6.4860680">
        <ele>848.6</ele>
        <time>2021-10-03T16:46:32Z</time>
      </trkpt>
      <trkpt lat="42.5253330" lon="-6.4861360">
        <ele>848.0</ele>
        <time>2021-10-03T16:46:33Z</time>
      </trkpt>
      <trkpt lat="42.5253500" lon="-6.4862870">
        <ele>847.6</ele>
        <time>2021-10-03T16:46:35Z</time>
      </trkpt>
      <trkpt lat="42.5253490" lon="-6.4867290">
        <ele>846.6</ele>
        <time>2021-10-03T16:46:43Z</time>
      </trkpt>
      <trkpt lat="42.5253150" lon="-6.4868720">
        <ele>846.0</ele>
        <time>2021-10-03T16:46:46Z</time>
      </trkpt>
      <trkpt lat="42.5253210" lon="-6.4871820">
        <ele>845.6</ele>
        <time>2021-10-03T16:46:50Z</time>
      </trkpt>
      <trkpt lat="42.5253390" lon="-6.4875420">
        <ele>845.2</ele>
        <time>2021-10-03T16:46:54Z</time>
      </trkpt>
      <trkpt lat="42.5253530" lon="-6.4877290">
        <ele>844.4</ele>
        <time>2021-10-03T16:46:56Z</time>
      </trkpt>
      <trkpt lat="42.5253850" lon="-6.4880080">
        <ele>843.0</ele>
        <time>2021-10-03T16:46:59Z</time>
      </trkpt>
      <trkpt lat="42.5254680" lon="-6.4883740">
        <ele>841.8</ele>
        <time>2021-10-03T16:47:03Z</time>
      </trkpt>
      <trkpt lat="42.5256100" lon="-6.4888510">
        <ele>841.0</ele>
        <time>2021-10-03T16:47:09Z</time>
      </trkpt>
      <trkpt lat="42.5257640" lon="-6.4892140">
        <ele>841.0</ele>
        <time>2021-10-03T16:47:14Z</time>
      </trkpt>
      <trkpt lat="42.5258460" lon="-6.4896070">
        <ele>840.8</ele>
        <time>2021-10-03T16:47:19Z</time>
      </trkpt>
      <trkpt lat="42.5258470" lon="-6.4898450">
        <ele>840.8</ele>
        <time>2021-10-03T16:47:22Z</time>
      </trkpt>
      <trkpt lat="42.5258390" lon="-6.4899200">
        <ele>840.6</ele>
        <time>2021-10-03T16:47:23Z</time>
      </trkpt>
      <trkpt lat="42.5258240" lon="-6.4899840">
        <ele>840.6</ele>
        <time>2021-10-03T16:47:24Z</time>
      </trkpt>
      <trkpt lat="42.5257730" lon="-6.4901700">
        <ele>840.4</ele>
        <time>2021-10-03T16:47:27Z</time>
      </trkpt>
      <trkpt lat="42.5257630" lon="-6.4905860">
        <ele>839.6</ele>
        <time>2021-10-03T16:47:32Z</time>
      </trkpt>
      <trkpt lat="42.5258540" lon="-6.4909210">
        <ele>838.0</ele>
        <time>2021-10-03T16:47:36Z</time>
      </trkpt>
      <trkpt lat="42.5259080" lon="-6.4910910">
        <ele>836.8</ele>
        <time>2021-10-03T16:47:38Z</time>
      </trkpt>
      <trkpt lat="42.5259930" lon="-6.4913400">
        <ele>836.2</ele>
        <time>2021-10-03T16:47:41Z</time>
      </trkpt>
      <trkpt lat="42.5260610" lon="-6.4914950">
        <ele>835.6</ele>
        <time>2021-10-03T16:47:43Z</time>
      </trkpt>
      <trkpt lat="42.5261820" lon="-6.4918150">
        <ele>835.4</ele>
        <time>2021-10-03T16:47:47Z</time>
      </trkpt>
      <trkpt lat="42.5262240" lon="-6.4925320">
        <ele>835.6</ele>
        <time>2021-10-03T16:47:56Z</time>
      </trkpt>
      <trkpt lat="42.5263050" lon="-6.4928490">
        <ele>835.8</ele>
        <time>2021-10-03T16:48:00Z</time>
      </trkpt>
      <trkpt lat="42.5264080" lon="-6.4930640">
        <ele>835.8</ele>
        <time>2021-10-03T16:48:03Z</time>
      </trkpt>
      <trkpt lat="42.5266030" lon="-6.4934260">
        <ele>834.6</ele>
        <time>2021-10-03T16:48:08Z</time>
      </trkpt>
      <trkpt lat="42.5266390" lon="-6.4935050">
        <ele>834.2</ele>
        <time>2021-10-03T16:48:09Z</time>
      </trkpt>
      <trkpt lat="42.5266750" lon="-6.4935710">
        <ele>833.6</ele>
        <time>2021-10-03T16:48:10Z</time>
      </trkpt>
      <trkpt lat="42.5267100" lon="-6.4936080">
        <ele>832.6</ele>
        <time>2021-10-03T16:48:11Z</time>
      </trkpt>
      <trkpt lat="42.5267920" lon="-6.4936360">
        <ele>831.4</ele>
        <time>2021-10-03T16:48:14Z</time>
      </trkpt>
      <trkpt lat="42.5271950" lon="-6.4935710">
        <ele>831.6</ele>
        <time>2021-10-03T16:48:25Z</time>
      </trkpt>
      <trkpt lat="42.5274880" lon="-6.4936130">
        <ele>831.6</ele>
        <time>2021-10-03T16:48:30Z</time>
      </trkpt>
      <trkpt lat="42.5276230" lon="-6.4936460">
        <ele>831.6</ele>
        <time>2021-10-03T16:48:32Z</time>
      </trkpt>
      <trkpt lat="42.5278990" lon="-6.4937770">
        <ele>829.8</ele>
        <time>2021-10-03T16:48:36Z</time>
      </trkpt>
      <trkpt lat="42.5280300" lon="-6.4938560">
        <ele>828.6</ele>
        <time>2021-10-03T16:48:38Z</time>
      </trkpt>
      <trkpt lat="42.5281350" lon="-6.4939560">
        <ele>827.6</ele>
        <time>2021-10-03T16:48:40Z</time>
      </trkpt>
      <trkpt lat="42.5282120" lon="-6.4940720">
        <ele>826.4</ele>
        <time>2021-10-03T16:48:42Z</time>
      </trkpt>
      <trkpt lat="42.5282470" lon="-6.4941380">
        <ele>825.8</ele>
        <time>2021-10-03T16:48:43Z</time>
      </trkpt>
      <trkpt lat="42.5282840" lon="-6.4942050">
        <ele>825.2</ele>
        <time>2021-10-03T16:48:44Z</time>
      </trkpt>
      <trkpt lat="42.5283300" lon="-6.4942640">
        <ele>824.8</ele>
        <time>2021-10-03T16:48:45Z</time>
      </trkpt>
      <trkpt lat="42.5284610" lon="-6.4944100">
        <ele>824.6</ele>
        <time>2021-10-03T16:48:48Z</time>
      </trkpt>
      <trkpt lat="42.5285500" lon="-6.4945960">
        <ele>824.4</ele>
        <time>2021-10-03T16:48:51Z</time>
      </trkpt>
      <trkpt lat="42.5285970" lon="-6.4947570">
        <ele>824.2</ele>
        <time>2021-10-03T16:48:53Z</time>
      </trkpt>
      <trkpt lat="42.5287190" lon="-6.4955560">
        <ele>823.2</ele>
        <time>2021-10-03T16:49:02Z</time>
      </trkpt>
      <trkpt lat="42.5287290" lon="-6.4956450">
        <ele>822.6</ele>
        <time>2021-10-03T16:49:03Z</time>
      </trkpt>
      <trkpt lat="42.5287330" lon="-6.4957360">
        <ele>822.4</ele>
        <time>2021-10-03T16:49:04Z</time>
      </trkpt>
      <trkpt lat="42.5287040" lon="-6.4960040">
        <ele>821.8</ele>
        <time>2021-10-03T16:49:07Z</time>
      </trkpt>
      <trkpt lat="42.5287100" lon="-6.4960960">
        <ele>821.6</ele>
        <time>2021-10-03T16:49:08Z</time>
      </trkpt>
      <trkpt lat="42.5288830" lon="-6.4965160">
        <ele>820.6</ele>
        <time>2021-10-03T16:49:13Z</time>
      </trkpt>
      <trkpt lat="42.5289280" lon="-6.4965930">
        <ele>820.4</ele>
        <time>2021-10-03T16:49:14Z</time>
      </trkpt>
      <trkpt lat="42.5291390" lon="-6.4969840">
        <ele>820.0</ele>
        <time>2021-10-03T16:49:19Z</time>
      </trkpt>
      <trkpt lat="42.5292320" lon="-6.4973440">
        <ele>819.8</ele>
        <time>2021-10-03T16:49:23Z</time>
      </trkpt>
      <trkpt lat="42.5292220" lon="-6.4978920">
        <ele>819.6</ele>
        <time>2021-10-03T16:49:30Z</time>
      </trkpt>
      <trkpt lat="42.5292120" lon="-6.4980340">
        <ele>819.4</ele>
        <time>2021-10-03T16:49:33Z</time>
      </trkpt>
      <trkpt lat="42.5293650" lon="-6.4983210">
        <ele>819.2</ele>
        <time>2021-10-03T16:49:38Z</time>
      </trkpt>
      <trkpt lat="42.5294080" lon="-6.4983660">
        <ele>819.2</ele>
        <time>2021-10-03T16:49:39Z</time>
      </trkpt>
      <trkpt lat="42.5294930" lon="-6.4984640">
        <ele>818.8</ele>
        <time>2021-10-03T16:49:41Z</time>
      </trkpt>
      <trkpt lat="42.5295260" lon="-6.4985300">
        <ele>818.0</ele>
        <time>2021-10-03T16:49:42Z</time>
      </trkpt>
      <trkpt lat="42.5295760" lon="-6.4986790">
        <ele>816.2</ele>
        <time>2021-10-03T16:49:44Z</time>
      </trkpt>
      <trkpt lat="42.5296150" lon="-6.4988400">
        <ele>815.0</ele>
        <time>2021-10-03T16:49:46Z</time>
      </trkpt>
      <trkpt lat="42.5296280" lon="-6.4989300">
        <ele>814.2</ele>
        <time>2021-10-03T16:49:47Z</time>
      </trkpt>
      <trkpt lat="42.5296410" lon="-6.4990120">
        <ele>813.2</ele>
        <time>2021-10-03T16:49:48Z</time>
      </trkpt>
      <trkpt lat="42.5296580" lon="-6.4990890">
        <ele>812.2</ele>
        <time>2021-10-03T16:49:49Z</time>
      </trkpt>
      <trkpt lat="42.5296810" lon="-6.4991690">
        <ele>811.4</ele>
        <time>2021-10-03T16:49:50Z</time>
      </trkpt>
      <trkpt lat="42.5297570" lon="-6.4993170">
        <ele>809.6</ele>
        <time>2021-10-03T16:49:52Z</time>
      </trkpt>
      <trkpt lat="42.5298010" lon="-6.4993860">
        <ele>808.6</ele>
        <time>2021-10-03T16:49:53Z</time>
      </trkpt>
      <trkpt lat="42.5298430" lon="-6.4994490">
        <ele>807.6</ele>
        <time>2021-10-03T16:49:54Z</time>
      </trkpt>
      <trkpt lat="42.5299150" lon="-6.4995590">
        <ele>806.0</ele>
        <time>2021-10-03T16:49:56Z</time>
      </trkpt>
      <trkpt lat="42.5299410" lon="-6.4996100">
        <ele>805.4</ele>
        <time>2021-10-03T16:49:57Z</time>
      </trkpt>
      <trkpt lat="42.5299530" lon="-6.4996660">
        <ele>804.2</ele>
        <time>2021-10-03T16:49:58Z</time>
      </trkpt>
      <trkpt lat="42.5299580" lon="-6.4997310">
        <ele>802.6</ele>
        <time>2021-10-03T16:49:59Z</time>
      </trkpt>
      <trkpt lat="42.5299700" lon="-6.4997970">
        <ele>801.4</ele>
        <time>2021-10-03T16:50:00Z</time>
      </trkpt>
      <trkpt lat="42.5300020" lon="-6.4998480">
        <ele>799.2</ele>
        <time>2021-10-03T16:50:01Z</time>
      </trkpt>
      <trkpt lat="42.5301030" lon="-6.4999230">
        <ele>797.4</ele>
        <time>2021-10-03T16:50:03Z</time>
      </trkpt>
      <trkpt lat="42.5301510" lon="-6.4999680">
        <ele>796.6</ele>
        <time>2021-10-03T16:50:04Z</time>
      </trkpt>
      <trkpt lat="42.5301900" lon="-6.5000300">
        <ele>795.6</ele>
        <time>2021-10-03T16:50:05Z</time>
      </trkpt>
      <trkpt lat="42.5302210" lon="-6.5001050">
        <ele>794.4</ele>
        <time>2021-10-03T16:50:06Z</time>
      </trkpt>
      <trkpt lat="42.5302470" lon="-6.5001850">
        <ele>793.2</ele>
        <time>2021-10-03T16:50:07Z</time>
      </trkpt>
      <trkpt lat="42.5302880" lon="-6.5003720">
        <ele>791.8</ele>
        <time>2021-10-03T16:50:09Z</time>
      </trkpt>
      <trkpt lat="42.5303040" lon="-6.5004720">
        <ele>791.0</ele>
        <time>2021-10-03T16:50:10Z</time>
      </trkpt>
      <trkpt lat="42.5303110" lon="-6.5005800">
        <ele>790.4</ele>
        <time>2021-10-03T16:50:11Z</time>
      </trkpt>
      <trkpt lat="42.5303030" lon="-6.5008120">
        <ele>789.2</ele>
        <time>2021-10-03T16:50:13Z</time>
      </trkpt>
      <trkpt lat="42.5302940" lon="-6.5009320">
        <ele>788.4</ele>
        <time>2021-10-03T16:50:14Z</time>
      </trkpt>
      <trkpt lat="42.5302810" lon="-6.5010520">
        <ele>787.8</ele>
        <time>2021-10-03T16:50:15Z</time>
      </trkpt>
      <trkpt lat="42.5302530" lon="-6.5012950">
        <ele>786.8</ele>
        <time>2021-10-03T16:50:17Z</time>
      </trkpt>
      <trkpt lat="42.5302510" lon="-6.5013940">
        <ele>785.6</ele>
        <time>2021-10-03T16:50:18Z</time>
      </trkpt>
      <trkpt lat="42.5302550" lon="-6.5014860">
        <ele>784.4</ele>
        <time>2021-10-03T16:50:19Z</time>
      </trkpt>
      <trkpt lat="42.5302620" lon="-6.5015730">
        <ele>783.2</ele>
        <time>2021-10-03T16:50:20Z</time>
      </trkpt>
      <trkpt lat="42.5302690" lon="-6.5016500">
        <ele>782.2</ele>
        <time>2021-10-03T16:50:21Z</time>
      </trkpt>
      <trkpt lat="42.5302760" lon="-6.5017700">
        <ele>780.2</ele>
        <time>2021-10-03T16:50:23Z</time>
      </trkpt>
      <trkpt lat="42.5302770" lon="-6.5018090">
        <ele>779.0</ele>
        <time>2021-10-03T16:50:24Z</time>
      </trkpt>
      <trkpt lat="42.5302780" lon="-6.5018400">
        <ele>777.8</ele>
        <time>2021-10-03T16:50:26Z</time>
      </trkpt>
      <trkpt lat="42.5302780" lon="-6.5018450">
        <ele>777.4</ele>
        <time>2021-10-03T16:50:27Z</time>
      </trkpt>
      <trkpt lat="42.5303220" lon="-6.5018330">
        <ele>772.6</ele>
        <time>2021-10-03T16:50:50Z</time>
      </trkpt>
      <trkpt lat="42.5303360" lon="-6.5018030">
        <ele>772.2</ele>
        <time>2021-10-03T16:50:51Z</time>
      </trkpt>
      <trkpt lat="42.5304020" lon="-6.5015720">
        <ele>771.4</ele>
        <time>2021-10-03T16:50:57Z</time>
      </trkpt>
      <trkpt lat="42.5304350" lon="-6.5014930">
        <ele>770.2</ele>
        <time>2021-10-03T16:50:59Z</time>
      </trkpt>
      <trkpt lat="42.5304550" lon="-6.5014630">
        <ele>769.6</ele>
        <time>2021-10-03T16:51:00Z</time>
      </trkpt>
      <trkpt lat="42.5304970" lon="-6.5014440">
        <ele>768.6</ele>
        <time>2021-10-03T16:51:02Z</time>
      </trkpt>
      <trkpt lat="42.5305290" lon="-6.5014530">
        <ele>767.4</ele>
        <time>2021-10-03T16:51:04Z</time>
      </trkpt>
      <trkpt lat="42.5305470" lon="-6.5014820">
        <ele>766.8</ele>
        <time>2021-10-03T16:51:06Z</time>
      </trkpt>
      <trkpt lat="42.5305570" lon="-6.5015050">
        <ele>766.4</ele>
        <time>2021-10-03T16:51:07Z</time>
      </trkpt>
      <trkpt lat="42.5305710" lon="-6.5015950">
        <ele>765.6</ele>
        <time>2021-10-03T16:51:10Z</time>
      </trkpt>
      <trkpt lat="42.5305960" lon="-6.5017550">
        <ele>765.4</ele>
        <time>2021-10-03T16:51:14Z</time>
      </trkpt>
      <trkpt lat="42.5306240" lon="-6.5020330">
        <ele>764.2</ele>
        <time>2021-10-03T16:51:20Z</time>
      </trkpt>
      <trkpt lat="42.5306250" lon="-6.5020890">
        <ele>764.2</ele>
        <time>2021-10-03T16:51:21Z</time>
      </trkpt>
      <trkpt lat="42.5305380" lon="-6.5024370">
        <ele>763.8</ele>
        <time>2021-10-03T16:51:30Z</time>
      </trkpt>
      <trkpt lat="42.5304920" lon="-6.5025180">
        <ele>763.6</ele>
        <time>2021-10-03T16:51:33Z</time>
      </trkpt>
      <trkpt lat="42.5304740" lon="-6.5025430">
        <ele>763.6</ele>
        <time>2021-10-03T16:51:34Z</time>
      </trkpt>
      <trkpt lat="42.5304610" lon="-6.5025740">
        <ele>763.4</ele>
        <time>2021-10-03T16:51:35Z</time>
      </trkpt>
      <trkpt lat="42.5304310" lon="-6.5027010">
        <ele>763.2</ele>
        <time>2021-10-03T16:51:38Z</time>
      </trkpt>
      <trkpt lat="42.5304260" lon="-6.5028400">
        <ele>762.2</ele>
        <time>2021-10-03T16:51:41Z</time>
      </trkpt>
      <trkpt lat="42.5304280" lon="-6.5028800">
        <ele>761.8</ele>
        <time>2021-10-03T16:51:42Z</time>
      </trkpt>
      <trkpt lat="42.5304260" lon="-6.5029750">
        <ele>761.0</ele>
        <time>2021-10-03T16:51:44Z</time>
      </trkpt>
      <trkpt lat="42.5304370" lon="-6.5032160">
        <ele>759.8</ele>
        <time>2021-10-03T16:51:49Z</time>
      </trkpt>
      <trkpt lat="42.5304540" lon="-6.5034390">
        <ele>758.6</ele>
        <time>2021-10-03T16:51:53Z</time>
      </trkpt>
      <trkpt lat="42.5304570" lon="-6.5036060">
        <ele>757.4</ele>
        <time>2021-10-03T16:51:56Z</time>
      </trkpt>
      <trkpt lat="42.5304640" lon="-6.5037530">
        <ele>756.6</ele>
        <time>2021-10-03T16:51:59Z</time>
      </trkpt>
      <trkpt lat="42.5304650" lon="-6.5037880">
        <ele>756.0</ele>
        <time>2021-10-03T16:52:00Z</time>
      </trkpt>
      <trkpt lat="42.5304680" lon="-6.5038190">
        <ele>755.4</ele>
        <time>2021-10-03T16:52:01Z</time>
      </trkpt>
      <trkpt lat="42.5304730" lon="-6.5038460">
        <ele>755.0</ele>
        <time>2021-10-03T16:52:02Z</time>
      </trkpt>
      <trkpt lat="42.5304740" lon="-6.5038780">
        <ele>754.6</ele>
        <time>2021-10-03T16:52:03Z</time>
      </trkpt>
      <trkpt lat="42.5304780" lon="-6.5039790">
        <ele>753.8</ele>
        <time>2021-10-03T16:52:06Z</time>
      </trkpt>
      <trkpt lat="42.5304810" lon="-6.5041140">
        <ele>753.0</ele>
        <time>2021-10-03T16:52:12Z</time>
      </trkpt>
      <trkpt lat="42.5304820" lon="-6.5041350">
        <ele>752.8</ele>
        <time>2021-10-03T16:52:13Z</time>
      </trkpt>
      <trkpt lat="42.5304930" lon="-6.5041920">
        <ele>752.4</ele>
        <time>2021-10-03T16:52:15Z</time>
      </trkpt>
      <trkpt lat="42.5305090" lon="-6.5043230">
        <ele>751.8</ele>
        <time>2021-10-03T16:52:18Z</time>
      </trkpt>
      <trkpt lat="42.5305140" lon="-6.5044950">
        <ele>750.6</ele>
        <time>2021-10-03T16:52:22Z</time>
      </trkpt>
      <trkpt lat="42.5305170" lon="-6.5045680">
        <ele>749.4</ele>
        <time>2021-10-03T16:52:24Z</time>
      </trkpt>
      <trkpt lat="42.5305260" lon="-6.5047080">
        <ele>748.4</ele>
        <time>2021-10-03T16:52:28Z</time>
      </trkpt>
      <trkpt lat="42.5305380" lon="-6.5047550">
        <ele>747.8</ele>
        <time>2021-10-03T16:52:31Z</time>
      </trkpt>
      <trkpt lat="42.5305430" lon="-6.5047900">
        <ele>747.4</ele>
        <time>2021-10-03T16:52:33Z</time>
      </trkpt>
      <trkpt lat="42.5305440" lon="-6.5047950">
        <ele>747.2</ele>
        <time>2021-10-03T16:52:34Z</time>
      </trkpt>
      <trkpt lat="42.5305350" lon="-6.5049850">
        <ele>745.0</ele>
        <time>2021-10-03T16:53:01Z</time>
      </trkpt>
      <trkpt lat="42.5305330" lon="-6.5050960">
        <ele>744.0</ele>
        <time>2021-10-03T16:53:05Z</time>
      </trkpt>
      <trkpt lat="42.5305000" lon="-6.5051630">
        <ele>742.8</ele>
        <time>2021-10-03T16:53:08Z</time>
      </trkpt>
      <trkpt lat="42.5305010" lon="-6.5052660">
        <ele>742.0</ele>
        <time>2021-10-03T16:53:11Z</time>
      </trkpt>
      <trkpt lat="42.5305020" lon="-6.5053450">
        <ele>741.8</ele>
        <time>2021-10-03T16:53:13Z</time>
      </trkpt>
      <trkpt lat="42.5304940" lon="-6.5054250">
        <ele>740.8</ele>
        <time>2021-10-03T16:53:15Z</time>
      </trkpt>
      <trkpt lat="42.5304860" lon="-6.5055740">
        <ele>739.4</ele>
        <time>2021-10-03T16:53:18Z</time>
      </trkpt>
      <trkpt lat="42.5304850" lon="-6.5056200">
        <ele>738.6</ele>
        <time>2021-10-03T16:53:19Z</time>
      </trkpt>
      <trkpt lat="42.5304860" lon="-6.5056610">
        <ele>738.0</ele>
        <time>2021-10-03T16:53:20Z</time>
      </trkpt>
      <trkpt lat="42.5304950" lon="-6.5057500">
        <ele>737.0</ele>
        <time>2021-10-03T16:53:22Z</time>
      </trkpt>
      <trkpt lat="42.5304970" lon="-6.5058260">
        <ele>735.8</ele>
        <time>2021-10-03T16:53:24Z</time>
      </trkpt>
      <trkpt lat="42.5304340" lon="-6.5059090">
        <ele>734.6</ele>
        <time>2021-10-03T16:53:27Z</time>
      </trkpt>
      <trkpt lat="42.5303950" lon="-6.5060530">
        <ele>733.6</ele>
        <time>2021-10-03T16:53:30Z</time>
      </trkpt>
      <trkpt lat="42.5303840" lon="-6.5061030">
        <ele>733.4</ele>
        <time>2021-10-03T16:53:31Z</time>
      </trkpt>
      <trkpt lat="42.5303500" lon="-6.5062090">
        <ele>732.8</ele>
        <time>2021-10-03T16:53:33Z</time>
      </trkpt>
      <trkpt lat="42.5303290" lon="-6.5062560">
        <ele>732.0</ele>
        <time>2021-10-03T16:53:34Z</time>
      </trkpt>
      <trkpt lat="42.5303120" lon="-6.5063050">
        <ele>731.6</ele>
        <time>2021-10-03T16:53:35Z</time>
      </trkpt>
      <trkpt lat="42.5302670" lon="-6.5064100">
        <ele>731.0</ele>
        <time>2021-10-03T16:53:37Z</time>
      </trkpt>
      <trkpt lat="42.5302220" lon="-6.5065280">
        <ele>730.2</ele>
        <time>2021-10-03T16:53:39Z</time>
      </trkpt>
      <trkpt lat="42.5301890" lon="-6.5066410">
        <ele>730.0</ele>
        <time>2021-10-03T16:53:41Z</time>
      </trkpt>
      <trkpt lat="42.5301760" lon="-6.5066960">
        <ele>729.6</ele>
        <time>2021-10-03T16:53:42Z</time>
      </trkpt>
      <trkpt lat="42.5301410" lon="-6.5067870">
        <ele>729.0</ele>
        <time>2021-10-03T16:53:44Z</time>
      </trkpt>
      <trkpt lat="42.5301180" lon="-6.5068270">
        <ele>728.4</ele>
        <time>2021-10-03T16:53:45Z</time>
      </trkpt>
      <trkpt lat="42.5300960" lon="-6.5068630">
        <ele>728.0</ele>
        <time>2021-10-03T16:53:46Z</time>
      </trkpt>
      <trkpt lat="42.5300730" lon="-6.5069040">
        <ele>727.6</ele>
        <time>2021-10-03T16:53:47Z</time>
      </trkpt>
      <trkpt lat="42.5300430" lon="-6.5069930">
        <ele>727.2</ele>
        <time>2021-10-03T16:53:49Z</time>
      </trkpt>
      <trkpt lat="42.5300460" lon="-6.5071660">
        <ele>726.6</ele>
        <time>2021-10-03T16:53:53Z</time>
      </trkpt>
      <trkpt lat="42.5300550" lon="-6.5072200">
        <ele>726.4</ele>
        <time>2021-10-03T16:53:54Z</time>
      </trkpt>
      <trkpt lat="42.5300740" lon="-6.5073350">
        <ele>725.6</ele>
        <time>2021-10-03T16:53:56Z</time>
      </trkpt>
      <trkpt lat="42.5300850" lon="-6.5073950">
        <ele>725.4</ele>
        <time>2021-10-03T16:53:57Z</time>
      </trkpt>
      <trkpt lat="42.5300990" lon="-6.5074540">
        <ele>725.2</ele>
        <time>2021-10-03T16:53:58Z</time>
      </trkpt>
      <trkpt lat="42.5301350" lon="-6.5076430">
        <ele>723.8</ele>
        <time>2021-10-03T16:54:01Z</time>
      </trkpt>
      <trkpt lat="42.5301770" lon="-6.5079360">
        <ele>722.6</ele>
        <time>2021-10-03T16:54:05Z</time>
      </trkpt>
      <trkpt lat="42.5301830" lon="-6.5082550">
        <ele>721.6</ele>
        <time>2021-10-03T16:54:09Z</time>
      </trkpt>
      <trkpt lat="42.5301860" lon="-6.5084020">
        <ele>721.0</ele>
        <time>2021-10-03T16:54:11Z</time>
      </trkpt>
      <trkpt lat="42.5301940" lon="-6.5085820">
        <ele>720.6</ele>
        <time>2021-10-03T16:54:14Z</time>
      </trkpt>
      <trkpt lat="42.5302130" lon="-6.5087420">
        <ele>720.6</ele>
        <time>2021-10-03T16:54:17Z</time>
      </trkpt>
      <trkpt lat="42.5302630" lon="-6.5088880">
        <ele>720.6</ele>
        <time>2021-10-03T16:54:20Z</time>
      </trkpt>
      <trkpt lat="42.5303040" lon="-6.5089640">
        <ele>721.0</ele>
        <time>2021-10-03T16:54:22Z</time>
      </trkpt>
      <trkpt lat="42.5303830" lon="-6.5090860">
        <ele>721.6</ele>
        <time>2021-10-03T16:54:25Z</time>
      </trkpt>
      <trkpt lat="42.5304070" lon="-6.5091300">
        <ele>721.8</ele>
        <time>2021-10-03T16:54:26Z</time>
      </trkpt>
      <trkpt lat="42.5304950" lon="-6.5092620">
        <ele>722.0</ele>
        <time>2021-10-03T16:54:29Z</time>
      </trkpt>
      <trkpt lat="42.5305210" lon="-6.5093060">
        <ele>722.2</ele>
        <time>2021-10-03T16:54:30Z</time>
      </trkpt>
      <trkpt lat="42.5305760" lon="-6.5094550">
        <ele>722.4</ele>
        <time>2021-10-03T16:54:34Z</time>
      </trkpt>
      <trkpt lat="42.5305830" lon="-6.5094760">
        <ele>722.6</ele>
        <time>2021-10-03T16:54:35Z</time>
      </trkpt>
      <trkpt lat="42.5305960" lon="-6.5095160">
        <ele>723.0</ele>
        <time>2021-10-03T16:54:37Z</time>
      </trkpt>
      <trkpt lat="42.5306130" lon="-6.5095600">
        <ele>723.2</ele>
        <time>2021-10-03T16:54:40Z</time>
      </trkpt>
      <trkpt lat="42.5306140" lon="-6.5095610">
        <ele>723.4</ele>
        <time>2021-10-03T16:54:41Z</time>
      </trkpt>
      <trkpt lat="42.5306730" lon="-6.5096920">
        <ele>722.4</ele>
        <time>2021-10-03T16:54:54Z</time>
      </trkpt>
      <trkpt lat="42.5307120" lon="-6.5097350">
        <ele>721.8</ele>
        <time>2021-10-03T16:54:57Z</time>
      </trkpt>
      <trkpt lat="42.5307270" lon="-6.5097600">
        <ele>721.4</ele>
        <time>2021-10-03T16:54:58Z</time>
      </trkpt>
      <trkpt lat="42.5307680" lon="-6.5098620">
        <ele>720.0</ele>
        <time>2021-10-03T16:55:01Z</time>
      </trkpt>
      <trkpt lat="42.5307950" lon="-6.5099390">
        <ele>719.6</ele>
        <time>2021-10-03T16:55:03Z</time>
      </trkpt>
      <trkpt lat="42.5308320" lon="-6.5100240">
        <ele>718.8</ele>
        <time>2021-10-03T16:55:05Z</time>
      </trkpt>
      <trkpt lat="42.5308970" lon="-6.5101660">
        <ele>717.4</ele>
        <time>2021-10-03T16:55:08Z</time>
      </trkpt>
      <trkpt lat="42.5309300" lon="-6.5102430">
        <ele>715.6</ele>
        <time>2021-10-03T16:55:10Z</time>
      </trkpt>
      <trkpt lat="42.5309410" lon="-6.5102880">
        <ele>715.0</ele>
        <time>2021-10-03T16:55:11Z</time>
      </trkpt>
      <trkpt lat="42.5309500" lon="-6.5103320">
        <ele>714.6</ele>
        <time>2021-10-03T16:55:12Z</time>
      </trkpt>
      <trkpt lat="42.5309620" lon="-6.5104360">
        <ele>713.4</ele>
        <time>2021-10-03T16:55:14Z</time>
      </trkpt>
      <trkpt lat="42.5309790" lon="-6.5105570">
        <ele>712.0</ele>
        <time>2021-10-03T16:55:16Z</time>
      </trkpt>
      <trkpt lat="42.5310150" lon="-6.5106800">
        <ele>711.0</ele>
        <time>2021-10-03T16:55:18Z</time>
      </trkpt>
      <trkpt lat="42.5310700" lon="-6.5107820">
        <ele>710.0</ele>
        <time>2021-10-03T16:55:20Z</time>
      </trkpt>
      <trkpt lat="42.5311380" lon="-6.5108390">
        <ele>708.4</ele>
        <time>2021-10-03T16:55:22Z</time>
      </trkpt>
      <trkpt lat="42.5311720" lon="-6.5108520">
        <ele>707.6</ele>
        <time>2021-10-03T16:55:23Z</time>
      </trkpt>
      <trkpt lat="42.5312040" lon="-6.5108560">
        <ele>706.4</ele>
        <time>2021-10-03T16:55:24Z</time>
      </trkpt>
      <trkpt lat="42.5312600" lon="-6.5108410">
        <ele>705.0</ele>
        <time>2021-10-03T16:55:26Z</time>
      </trkpt>
      <trkpt lat="42.5312990" lon="-6.5108100">
        <ele>703.6</ele>
        <time>2021-10-03T16:55:28Z</time>
      </trkpt>
      <trkpt lat="42.5315040" lon="-6.5107070">
        <ele>702.4</ele>
        <time>2021-10-03T16:55:35Z</time>
      </trkpt>
      <trkpt lat="42.5315440" lon="-6.5106820">
        <ele>702.2</ele>
        <time>2021-10-03T16:55:36Z</time>
      </trkpt>
      <trkpt lat="42.5316370" lon="-6.5106400">
        <ele>701.0</ele>
        <time>2021-10-03T16:55:38Z</time>
      </trkpt>
      <trkpt lat="42.5317440" lon="-6.5106070">
        <ele>699.8</ele>
        <time>2021-10-03T16:55:40Z</time>
      </trkpt>
      <trkpt lat="42.5318340" lon="-6.5105960">
        <ele>698.6</ele>
        <time>2021-10-03T16:55:42Z</time>
      </trkpt>
      <trkpt lat="42.5318990" lon="-6.5106010">
        <ele>697.6</ele>
        <time>2021-10-03T16:55:44Z</time>
      </trkpt>
      <trkpt lat="42.5319300" lon="-6.5106010">
        <ele>697.2</ele>
        <time>2021-10-03T16:55:45Z</time>
      </trkpt>
      <trkpt lat="42.5319870" lon="-6.5105940">
        <ele>696.2</ele>
        <time>2021-10-03T16:55:47Z</time>
      </trkpt>
      <trkpt lat="42.5320120" lon="-6.5105850">
        <ele>695.8</ele>
        <time>2021-10-03T16:55:48Z</time>
      </trkpt>
      <trkpt lat="42.5320520" lon="-6.5105610">
        <ele>695.0</ele>
        <time>2021-10-03T16:55:50Z</time>
      </trkpt>
      <trkpt lat="42.5320730" lon="-6.5105520">
        <ele>694.8</ele>
        <time>2021-10-03T16:55:51Z</time>
      </trkpt>
      <trkpt lat="42.5321560" lon="-6.5105360">
        <ele>694.0</ele>
        <time>2021-10-03T16:55:54Z</time>
      </trkpt>
      <trkpt lat="42.5322610" lon="-6.5105320">
        <ele>692.8</ele>
        <time>2021-10-03T16:55:58Z</time>
      </trkpt>
      <trkpt lat="42.5323330" lon="-6.5105240">
        <ele>691.4</ele>
        <time>2021-10-03T16:56:01Z</time>
      </trkpt>
      <trkpt lat="42.5323620" lon="-6.5105310">
        <ele>690.8</ele>
        <time>2021-10-03T16:56:02Z</time>
      </trkpt>
      <trkpt lat="42.5324030" lon="-6.5105530">
        <ele>690.0</ele>
        <time>2021-10-03T16:56:04Z</time>
      </trkpt>
      <trkpt lat="42.5324200" lon="-6.5105580">
        <ele>689.6</ele>
        <time>2021-10-03T16:56:05Z</time>
      </trkpt>
      <trkpt lat="42.5324650" lon="-6.5105800">
        <ele>688.6</ele>
        <time>2021-10-03T16:56:07Z</time>
      </trkpt>
      <trkpt lat="42.5325020" lon="-6.5105990">
        <ele>687.6</ele>
        <time>2021-10-03T16:56:09Z</time>
      </trkpt>
      <trkpt lat="42.5325180" lon="-6.5106080">
        <ele>687.2</ele>
        <time>2021-10-03T16:56:10Z</time>
      </trkpt>
      <trkpt lat="42.5325350" lon="-6.5106170">
        <ele>686.8</ele>
        <time>2021-10-03T16:56:11Z</time>
      </trkpt>
      <trkpt lat="42.5325750" lon="-6.5106550">
        <ele>686.4</ele>
        <time>2021-10-03T16:56:13Z</time>
      </trkpt>
      <trkpt lat="42.5326140" lon="-6.5107200">
        <ele>685.8</ele>
        <time>2021-10-03T16:56:15Z</time>
      </trkpt>
      <trkpt lat="42.5326390" lon="-6.5107780">
        <ele>685.4</ele>
        <time>2021-10-03T16:56:17Z</time>
      </trkpt>
      <trkpt lat="42.5326560" lon="-6.5108670">
        <ele>684.0</ele>
        <time>2021-10-03T16:56:20Z</time>
      </trkpt>
      <trkpt lat="42.5326680" lon="-6.5109210">
        <ele>683.0</ele>
        <time>2021-10-03T16:56:22Z</time>
      </trkpt>
      <trkpt lat="42.5326860" lon="-6.5109720">
        <ele>682.2</ele>
        <time>2021-10-03T16:56:24Z</time>
      </trkpt>
      <trkpt lat="42.5326970" lon="-6.5109970">
        <ele>681.8</ele>
        <time>2021-10-03T16:56:25Z</time>
      </trkpt>
      <trkpt lat="42.5327260" lon="-6.5111070">
        <ele>680.8</ele>
        <time>2021-10-03T16:56:28Z</time>
      </trkpt>
      <trkpt lat="42.5327620" lon="-6.5112600">
        <ele>679.4</ele>
        <time>2021-10-03T16:56:32Z</time>
      </trkpt>
      <trkpt lat="42.5327890" lon="-6.5113170">
        <ele>678.2</ele>
        <time>2021-10-03T16:56:34Z</time>
      </trkpt>
      <trkpt lat="42.5328040" lon="-6.5113370">
        <ele>677.4</ele>
        <time>2021-10-03T16:56:35Z</time>
      </trkpt>
      <trkpt lat="42.5328200" lon="-6.5113560">
        <ele>677.0</ele>
        <time>2021-10-03T16:56:36Z</time>
      </trkpt>
      <trkpt lat="42.5329000" lon="-6.5114180">
        <ele>675.6</ele>
        <time>2021-10-03T16:56:40Z</time>
      </trkpt>
      <trkpt lat="42.5329300" lon="-6.5114170">
        <ele>675.2</ele>
        <time>2021-10-03T16:56:42Z</time>
      </trkpt>
      <trkpt lat="42.5329690" lon="-6.5114000">
        <ele>674.2</ele>
        <time>2021-10-03T16:56:45Z</time>
      </trkpt>
      <trkpt lat="42.5329700" lon="-6.5113930">
        <ele>673.2</ele>
        <time>2021-10-03T16:56:47Z</time>
      </trkpt>
      <trkpt lat="42.5330030" lon="-6.5112970">
        <ele>671.4</ele>
        <time>2021-10-03T16:56:54Z</time>
      </trkpt>
      <trkpt lat="42.5330420" lon="-6.5112660">
        <ele>671.2</ele>
        <time>2021-10-03T16:56:57Z</time>
      </trkpt>
      <trkpt lat="42.5330630" lon="-6.5112670">
        <ele>670.2</ele>
        <time>2021-10-03T16:56:59Z</time>
      </trkpt>
      <trkpt lat="42.5330760" lon="-6.5112720">
        <ele>670.0</ele>
        <time>2021-10-03T16:57:00Z</time>
      </trkpt>
      <trkpt lat="42.5331080" lon="-6.5112940">
        <ele>669.0</ele>
        <time>2021-10-03T16:57:02Z</time>
      </trkpt>
      <trkpt lat="42.5331880" lon="-6.5112810">
        <ele>667.4</ele>
        <time>2021-10-03T16:57:05Z</time>
      </trkpt>
      <trkpt lat="42.5333130" lon="-6.5112650">
        <ele>666.4</ele>
        <time>2021-10-03T16:57:09Z</time>
      </trkpt>
      <trkpt lat="42.5333760" lon="-6.5112480">
        <ele>665.0</ele>
        <time>2021-10-03T16:57:12Z</time>
      </trkpt>
      <trkpt lat="42.5333910" lon="-6.5112480">
        <ele>664.2</ele>
        <time>2021-10-03T16:57:13Z</time>
      </trkpt>
      <trkpt lat="42.5334070" lon="-6.5112530">
        <ele>663.8</ele>
        <time>2021-10-03T16:57:14Z</time>
      </trkpt>
      <trkpt lat="42.5334460" lon="-6.5112750">
        <ele>663.0</ele>
        <time>2021-10-03T16:57:16Z</time>
      </trkpt>
      <trkpt lat="42.5334770" lon="-6.5112800">
        <ele>662.8</ele>
        <time>2021-10-03T16:57:17Z</time>
      </trkpt>
      <trkpt lat="42.5336460" lon="-6.5112710">
        <ele>661.6</ele>
        <time>2021-10-03T16:57:22Z</time>
      </trkpt>
      <trkpt lat="42.5337020" lon="-6.5112620">
        <ele>660.6</ele>
        <time>2021-10-03T16:57:24Z</time>
      </trkpt>
      <trkpt lat="42.5337470" lon="-6.5112630">
        <ele>659.0</ele>
        <time>2021-10-03T16:57:26Z</time>
      </trkpt>
      <trkpt lat="42.5337700" lon="-6.5112550">
        <ele>657.4</ele>
        <time>2021-10-03T16:57:27Z</time>
      </trkpt>
      <trkpt lat="42.5338160" lon="-6.5112480">
        <ele>656.4</ele>
        <time>2021-10-03T16:57:29Z</time>
      </trkpt>
      <trkpt lat="42.5338790" lon="-6.5112490">
        <ele>655.0</ele>
        <time>2021-10-03T16:57:32Z</time>
      </trkpt>
      <trkpt lat="42.5339400" lon="-6.5112470">
        <ele>654.0</ele>
        <time>2021-10-03T16:57:34Z</time>
      </trkpt>
      <trkpt lat="42.5340430" lon="-6.5112270">
        <ele>652.6</ele>
        <time>2021-10-03T16:57:37Z</time>
      </trkpt>
      <trkpt lat="42.5341110" lon="-6.5112160">
        <ele>651.4</ele>
        <time>2021-10-03T16:57:39Z</time>
      </trkpt>
      <trkpt lat="42.5341420" lon="-6.5112130">
        <ele>650.8</ele>
        <time>2021-10-03T16:57:40Z</time>
      </trkpt>
      <trkpt lat="42.5341710" lon="-6.5112140">
        <ele>650.2</ele>
        <time>2021-10-03T16:57:41Z</time>
      </trkpt>
      <trkpt lat="42.5342310" lon="-6.5112130">
        <ele>649.2</ele>
        <time>2021-10-03T16:57:43Z</time>
      </trkpt>
      <trkpt lat="42.5343110" lon="-6.5111970">
        <ele>648.0</ele>
        <time>2021-10-03T16:57:45Z</time>
      </trkpt>
      <trkpt lat="42.5343530" lon="-6.5111850">
        <ele>647.4</ele>
        <time>2021-10-03T16:57:46Z</time>
      </trkpt>
      <trkpt lat="42.5343910" lon="-6.5111680">
        <ele>646.8</ele>
        <time>2021-10-03T16:57:47Z</time>
      </trkpt>
      <trkpt lat="42.5344700" lon="-6.5111410">
        <ele>645.6</ele>
        <time>2021-10-03T16:57:49Z</time>
      </trkpt>
      <trkpt lat="42.5345560" lon="-6.5111220">
        <ele>644.6</ele>
        <time>2021-10-03T16:57:51Z</time>
      </trkpt>
      <trkpt lat="42.5346320" lon="-6.5110790">
        <ele>642.6</ele>
        <time>2021-10-03T16:57:53Z</time>
      </trkpt>
      <trkpt lat="42.5346980" lon="-6.5110400">
        <ele>641.4</ele>
        <time>2021-10-03T16:57:55Z</time>
      </trkpt>
      <trkpt lat="42.5347360" lon="-6.5110240">
        <ele>641.0</ele>
        <time>2021-10-03T16:57:56Z</time>
      </trkpt>
      <trkpt lat="42.5347710" lon="-6.5110070">
        <ele>640.4</ele>
        <time>2021-10-03T16:57:57Z</time>
      </trkpt>
      <trkpt lat="42.5348450" lon="-6.5109590">
        <ele>638.8</ele>
        <time>2021-10-03T16:57:59Z</time>
      </trkpt>
      <trkpt lat="42.5349310" lon="-6.5109260">
        <ele>637.2</ele>
        <time>2021-10-03T16:58:01Z</time>
      </trkpt>
      <trkpt lat="42.5349730" lon="-6.5109220">
        <ele>635.8</ele>
        <time>2021-10-03T16:58:02Z</time>
      </trkpt>
      <trkpt lat="42.5350480" lon="-6.5109380">
        <ele>634.6</ele>
        <time>2021-10-03T16:58:04Z</time>
      </trkpt>
      <trkpt lat="42.5350850" lon="-6.5110400">
        <ele>633.2</ele>
        <time>2021-10-03T16:58:07Z</time>
      </trkpt>
      <trkpt lat="42.5350530" lon="-6.5110980">
        <ele>632.4</ele>
        <time>2021-10-03T16:58:09Z</time>
      </trkpt>
      <trkpt lat="42.5349990" lon="-6.5112210">
        <ele>632.2</ele>
        <time>2021-10-03T16:58:12Z</time>
      </trkpt>
      <trkpt lat="42.5349890" lon="-6.5112940">
        <ele>632.0</ele>
        <time>2021-10-03T16:58:14Z</time>
      </trkpt>
      <trkpt lat="42.5349710" lon="-6.5114460">
        <ele>631.0</ele>
        <time>2021-10-03T16:58:19Z</time>
      </trkpt>
      <trkpt lat="42.5349170" lon="-6.5117760">
        <ele>630.8</ele>
        <time>2021-10-03T16:58:27Z</time>
      </trkpt>
      <trkpt lat="42.5348760" lon="-6.5118580">
        <ele>630.8</ele>
        <time>2021-10-03T16:58:29Z</time>
      </trkpt>
      <trkpt lat="42.5347680" lon="-6.5119580">
        <ele>630.6</ele>
        <time>2021-10-03T16:58:32Z</time>
      </trkpt>
      <trkpt lat="42.5347070" lon="-6.5120470">
        <ele>630.6</ele>
        <time>2021-10-03T16:58:34Z</time>
      </trkpt>
      <trkpt lat="42.5346630" lon="-6.5121460">
        <ele>630.6</ele>
        <time>2021-10-03T16:58:36Z</time>
      </trkpt>
      <trkpt lat="42.5346100" lon="-6.5122810">
        <ele>630.8</ele>
        <time>2021-10-03T16:58:39Z</time>
      </trkpt>
      <trkpt lat="42.5345820" lon="-6.5123700">
        <ele>631.0</ele>
        <time>2021-10-03T16:58:41Z</time>
      </trkpt>
      <trkpt lat="42.5345330" lon="-6.5124890">
        <ele>631.2</ele>
        <time>2021-10-03T16:58:44Z</time>
      </trkpt>
      <trkpt lat="42.5344800" lon="-6.5125950">
        <ele>632.4</ele>
        <time>2021-10-03T16:58:47Z</time>
      </trkpt>
      <trkpt lat="42.5344300" lon="-6.5127110">
        <ele>634.0</ele>
        <time>2021-10-03T16:58:50Z</time>
      </trkpt>
      <trkpt lat="42.5343970" lon="-6.5127890">
        <ele>635.0</ele>
        <time>2021-10-03T16:58:52Z</time>
      </trkpt>
      <trkpt lat="42.5343550" lon="-6.5128890">
        <ele>636.0</ele>
        <time>2021-10-03T16:58:55Z</time>
      </trkpt>
      <trkpt lat="42.5343360" lon="-6.5129230">
        <ele>636.2</ele>
        <time>2021-10-03T16:58:56Z</time>
      </trkpt>
      <trkpt lat="42.5341780" lon="-6.5132400">
        <ele>636.8</ele>
        <time>2021-10-03T16:59:04Z</time>
      </trkpt>
      <trkpt lat="42.5341790" lon="-6.5135420">
        <ele>635.6</ele>
        <time>2021-10-03T16:59:09Z</time>
      </trkpt>
      <trkpt lat="42.5341790" lon="-6.5136010">
        <ele>635.2</ele>
        <time>2021-10-03T16:59:10Z</time>
      </trkpt>
      <trkpt lat="42.5341810" lon="-6.5136590">
        <ele>633.8</ele>
        <time>2021-10-03T16:59:11Z</time>
      </trkpt>
      <trkpt lat="42.5341900" lon="-6.5137830">
        <ele>632.4</ele>
        <time>2021-10-03T16:59:13Z</time>
      </trkpt>
      <trkpt lat="42.5342350" lon="-6.5138990">
        <ele>631.4</ele>
        <time>2021-10-03T16:59:15Z</time>
      </trkpt>
      <trkpt lat="42.5343220" lon="-6.5139970">
        <ele>630.4</ele>
        <time>2021-10-03T16:59:17Z</time>
      </trkpt>
      <trkpt lat="42.5344430" lon="-6.5141080">
        <ele>629.0</ele>
        <time>2021-10-03T16:59:20Z</time>
      </trkpt>
      <trkpt lat="42.5345250" lon="-6.5141580">
        <ele>628.0</ele>
        <time>2021-10-03T16:59:22Z</time>
      </trkpt>
      <trkpt lat="42.5346020" lon="-6.5142090">
        <ele>626.8</ele>
        <time>2021-10-03T16:59:24Z</time>
      </trkpt>
      <trkpt lat="42.5346990" lon="-6.5143170">
        <ele>625.6</ele>
        <time>2021-10-03T16:59:27Z</time>
      </trkpt>
      <trkpt lat="42.5347610" lon="-6.5145230">
        <ele>624.4</ele>
        <time>2021-10-03T16:59:32Z</time>
      </trkpt>
      <trkpt lat="42.5347660" lon="-6.5145560">
        <ele>624.2</ele>
        <time>2021-10-03T16:59:33Z</time>
      </trkpt>
      <trkpt lat="42.5347660" lon="-6.5145950">
        <ele>624.0</ele>
        <time>2021-10-03T16:59:34Z</time>
      </trkpt>
      <trkpt lat="42.5347660" lon="-6.5146350">
        <ele>623.6</ele>
        <time>2021-10-03T16:59:35Z</time>
      </trkpt>
      <trkpt lat="42.5347650" lon="-6.5146780">
        <ele>623.4</ele>
        <time>2021-10-03T16:59:36Z</time>
      </trkpt>
      <trkpt lat="42.5347640" lon="-6.5147210">
        <ele>623.0</ele>
        <time>2021-10-03T16:59:37Z</time>
      </trkpt>
      <trkpt lat="42.5347640" lon="-6.5147610">
        <ele>622.8</ele>
        <time>2021-10-03T16:59:38Z</time>
      </trkpt>
      <trkpt lat="42.5347680" lon="-6.5148360">
        <ele>622.4</ele>
        <time>2021-10-03T16:59:40Z</time>
      </trkpt>
      <trkpt lat="42.5347770" lon="-6.5148680">
        <ele>622.0</ele>
        <time>2021-10-03T16:59:41Z</time>
      </trkpt>
      <trkpt lat="42.5347950" lon="-6.5149450">
        <ele>620.4</ele>
        <time>2021-10-03T16:59:43Z</time>
      </trkpt>
      <trkpt lat="42.5348220" lon="-6.5150010">
        <ele>619.0</ele>
        <time>2021-10-03T16:59:45Z</time>
      </trkpt>
      <trkpt lat="42.5348370" lon="-6.5150260">
        <ele>617.8</ele>
        <time>2021-10-03T16:59:46Z</time>
      </trkpt>
      <trkpt lat="42.5348570" lon="-6.5150800">
        <ele>616.6</ele>
        <time>2021-10-03T16:59:48Z</time>
      </trkpt>
      <trkpt lat="42.5348590" lon="-6.5151120">
        <ele>616.0</ele>
        <time>2021-10-03T16:59:49Z</time>
      </trkpt>
      <trkpt lat="42.5348510" lon="-6.5151460">
        <ele>615.4</ele>
        <time>2021-10-03T16:59:50Z</time>
      </trkpt>
      <trkpt lat="42.5348350" lon="-6.5152210">
        <ele>614.0</ele>
        <time>2021-10-03T16:59:52Z</time>
      </trkpt>
      <trkpt lat="42.5348130" lon="-6.5152990">
        <ele>613.2</ele>
        <time>2021-10-03T16:59:54Z</time>
      </trkpt>
      <trkpt lat="42.5348000" lon="-6.5153410">
        <ele>612.8</ele>
        <time>2021-10-03T16:59:55Z</time>
      </trkpt>
      <trkpt lat="42.5347890" lon="-6.5154330">
        <ele>611.8</ele>
        <time>2021-10-03T16:59:57Z</time>
      </trkpt>
      <trkpt lat="42.5347930" lon="-6.5155580">
        <ele>610.6</ele>
        <time>2021-10-03T16:59:59Z</time>
      </trkpt>
      <trkpt lat="42.5347990" lon="-6.5156850">
        <ele>609.0</ele>
        <time>2021-10-03T17:00:01Z</time>
      </trkpt>
      <trkpt lat="42.5348080" lon="-6.5158080">
        <ele>607.6</ele>
        <time>2021-10-03T17:00:03Z</time>
      </trkpt>
      <trkpt lat="42.5348200" lon="-6.5159400">
        <ele>606.2</ele>
        <time>2021-10-03T17:00:05Z</time>
      </trkpt>
      <trkpt lat="42.5348350" lon="-6.5160680">
        <ele>604.4</ele>
        <time>2021-10-03T17:00:07Z</time>
      </trkpt>
      <trkpt lat="42.5348500" lon="-6.5161290">
        <ele>603.6</ele>
        <time>2021-10-03T17:00:08Z</time>
      </trkpt>
      <trkpt lat="42.5348730" lon="-6.5161770">
        <ele>602.8</ele>
        <time>2021-10-03T17:00:09Z</time>
      </trkpt>
      <trkpt lat="42.5349130" lon="-6.5162810">
        <ele>601.4</ele>
        <time>2021-10-03T17:00:11Z</time>
      </trkpt>
      <trkpt lat="42.5349350" lon="-6.5163290">
        <ele>600.6</ele>
        <time>2021-10-03T17:00:12Z</time>
      </trkpt>
      <trkpt lat="42.5349610" lon="-6.5163830">
        <ele>599.8</ele>
        <time>2021-10-03T17:00:13Z</time>
      </trkpt>
      <trkpt lat="42.5350210" lon="-6.5165030">
        <ele>598.0</ele>
        <time>2021-10-03T17:00:15Z</time>
      </trkpt>
      <trkpt lat="42.5350530" lon="-6.5165720">
        <ele>597.2</ele>
        <time>2021-10-03T17:00:16Z</time>
      </trkpt>
      <trkpt lat="42.5350910" lon="-6.5166400">
        <ele>596.2</ele>
        <time>2021-10-03T17:00:17Z</time>
      </trkpt>
      <trkpt lat="42.5352550" lon="-6.5167920">
        <ele>595.0</ele>
        <time>2021-10-03T17:00:20Z</time>
      </trkpt>
      <trkpt lat="42.5353190" lon="-6.5168300">
        <ele>593.0</ele>
        <time>2021-10-03T17:00:21Z</time>
      </trkpt>
      <trkpt lat="42.5354480" lon="-6.5169140">
        <ele>591.2</ele>
        <time>2021-10-03T17:00:23Z</time>
      </trkpt>
      <trkpt lat="42.5355650" lon="-6.5169880">
        <ele>589.4</ele>
        <time>2021-10-03T17:00:25Z</time>
      </trkpt>
      <trkpt lat="42.5357190" lon="-6.5170910">
        <ele>588.0</ele>
        <time>2021-10-03T17:00:28Z</time>
      </trkpt>
      <trkpt lat="42.5361180" lon="-6.5172770">
        <ele>586.8</ele>
        <time>2021-10-03T17:00:34Z</time>
      </trkpt>
      <trkpt lat="42.5364170" lon="-6.5174150">
        <ele>585.2</ele>
        <time>2021-10-03T17:00:38Z</time>
      </trkpt>
      <trkpt lat="42.5364930" lon="-6.5174360">
        <ele>584.6</ele>
        <time>2021-10-03T17:00:39Z</time>
      </trkpt>
      <trkpt lat="42.5365720" lon="-6.5174490">
        <ele>583.6</ele>
        <time>2021-10-03T17:00:40Z</time>
      </trkpt>
      <trkpt lat="42.5367320" lon="-6.5174740">
        <ele>581.6</ele>
        <time>2021-10-03T17:00:42Z</time>
      </trkpt>
      <trkpt lat="42.5368090" lon="-6.5174980">
        <ele>580.2</ele>
        <time>2021-10-03T17:00:43Z</time>
      </trkpt>
      <trkpt lat="42.5369570" lon="-6.5175620">
        <ele>579.0</ele>
        <time>2021-10-03T17:00:45Z</time>
      </trkpt>
      <trkpt lat="42.5371630" lon="-6.5176870">
        <ele>578.0</ele>
        <time>2021-10-03T17:00:48Z</time>
      </trkpt>
      <trkpt lat="42.5372860" lon="-6.5177880">
        <ele>576.4</ele>
        <time>2021-10-03T17:00:50Z</time>
      </trkpt>
      <trkpt lat="42.5374360" lon="-6.5179620">
        <ele>574.8</ele>
        <time>2021-10-03T17:00:53Z</time>
      </trkpt>
      <trkpt lat="42.5374740" lon="-6.5180130">
        <ele>573.8</ele>
        <time>2021-10-03T17:00:54Z</time>
      </trkpt>
      <trkpt lat="42.5375050" lon="-6.5180630">
        <ele>573.2</ele>
        <time>2021-10-03T17:00:55Z</time>
      </trkpt>
      <trkpt lat="42.5375650" lon="-6.5181320">
        <ele>572.2</ele>
        <time>2021-10-03T17:00:57Z</time>
      </trkpt>
      <trkpt lat="42.5375900" lon="-6.5181630">
        <ele>572.0</ele>
        <time>2021-10-03T17:00:58Z</time>
      </trkpt>
      <trkpt lat="42.5376040" lon="-6.5183250">
        <ele>571.8</ele>
        <time>2021-10-03T17:01:02Z</time>
      </trkpt>
      <trkpt lat="42.5375990" lon="-6.5184370">
        <ele>571.8</ele>
        <time>2021-10-03T17:01:05Z</time>
      </trkpt>
      <trkpt lat="42.5376280" lon="-6.5191870">
        <ele>571.8</ele>
        <time>2021-10-03T17:01:22Z</time>
      </trkpt>
      <trkpt lat="42.5376870" lon="-6.5193860">
        <ele>571.2</ele>
        <time>2021-10-03T17:01:26Z</time>
      </trkpt>
      <trkpt lat="42.5377010" lon="-6.5194320">
        <ele>570.6</ele>
        <time>2021-10-03T17:01:27Z</time>
      </trkpt>
      <trkpt lat="42.5377250" lon="-6.5195170">
        <ele>569.6</ele>
        <time>2021-10-03T17:01:29Z</time>
      </trkpt>
      <trkpt lat="42.5377760" lon="-6.5196290">
        <ele>568.6</ele>
        <time>2021-10-03T17:01:32Z</time>
      </trkpt>
      <trkpt lat="42.5378720" lon="-6.5199220">
        <ele>568.2</ele>
        <time>2021-10-03T17:01:40Z</time>
      </trkpt>
      <trkpt lat="42.5379740" lon="-6.5203240">
        <ele>567.8</ele>
        <time>2021-10-03T17:01:49Z</time>
      </trkpt>
      <trkpt lat="42.5380090" lon="-6.5204240">
        <ele>567.4</ele>
        <time>2021-10-03T17:01:51Z</time>
      </trkpt>
      <trkpt lat="42.5380810" lon="-6.5206330">
        <ele>567.0</ele>
        <time>2021-10-03T17:01:55Z</time>
      </trkpt>
      <trkpt lat="42.5381810" lon="-6.5209650">
        <ele>566.4</ele>
        <time>2021-10-03T17:02:01Z</time>
      </trkpt>
      <trkpt lat="42.5381910" lon="-6.5210300">
        <ele>566.2</ele>
        <time>2021-10-03T17:02:02Z</time>
      </trkpt>
      <trkpt lat="42.5382310" lon="-6.5212200">
        <ele>565.6</ele>
        <time>2021-10-03T17:02:05Z</time>
      </trkpt>
      <trkpt lat="42.5382750" lon="-6.5213320">
        <ele>565.2</ele>
        <time>2021-10-03T17:02:07Z</time>
      </trkpt>
      <trkpt lat="42.5383460" lon="-6.5214920">
        <ele>564.4</ele>
        <time>2021-10-03T17:02:10Z</time>
      </trkpt>
      <trkpt lat="42.5383860" lon="-6.5216060">
        <ele>564.0</ele>
        <time>2021-10-03T17:02:12Z</time>
      </trkpt>
      <trkpt lat="42.5385290" lon="-6.5219770">
        <ele>563.8</ele>
        <time>2021-10-03T17:02:19Z</time>
      </trkpt>
      <trkpt lat="42.5385680" lon="-6.5220740">
        <ele>563.8</ele>
        <time>2021-10-03T17:02:21Z</time>
      </trkpt>
      <trkpt lat="42.5386040" lon="-6.5221710">
        <ele>564.0</ele>
        <time>2021-10-03T17:02:23Z</time>
      </trkpt>
      <trkpt lat="42.5388150" lon="-6.5225680">
        <ele>565.2</ele>
        <time>2021-10-03T17:02:34Z</time>
      </trkpt>
      <trkpt lat="42.5388400" lon="-6.5225950">
        <ele>565.4</ele>
        <time>2021-10-03T17:02:35Z</time>
      </trkpt>
      <trkpt lat="42.5389100" lon="-6.5226740">
        <ele>566.0</ele>
        <time>2021-10-03T17:02:38Z</time>
      </trkpt>
      <trkpt lat="42.5390120" lon="-6.5227780">
        <ele>566.6</ele>
        <time>2021-10-03T17:02:43Z</time>
      </trkpt>
      <trkpt lat="42.5392810" lon="-6.5234090">
        <ele>566.4</ele>
        <time>2021-10-03T17:03:00Z</time>
      </trkpt>
      <trkpt lat="42.5393850" lon="-6.5236280">
        <ele>565.8</ele>
        <time>2021-10-03T17:03:04Z</time>
      </trkpt>
      <trkpt lat="42.5394270" lon="-6.5237250">
        <ele>565.6</ele>
        <time>2021-10-03T17:03:06Z</time>
      </trkpt>
      <trkpt lat="42.5396030" lon="-6.5241100">
        <ele>564.4</ele>
        <time>2021-10-03T17:03:14Z</time>
      </trkpt>
      <trkpt lat="42.5396820" lon="-6.5242720">
        <ele>564.0</ele>
        <time>2021-10-03T17:03:17Z</time>
      </trkpt>
      <trkpt lat="42.5397590" lon="-6.5244560">
        <ele>563.6</ele>
        <time>2021-10-03T17:03:20Z</time>
      </trkpt>
      <trkpt lat="42.5398170" lon="-6.5245820">
        <ele>563.2</ele>
        <time>2021-10-03T17:03:22Z</time>
      </trkpt>
      <trkpt lat="42.5400100" lon="-6.5249700">
        <ele>562.2</ele>
        <time>2021-10-03T17:03:28Z</time>
      </trkpt>
      <trkpt lat="42.5401230" lon="-6.5251720">
        <ele>562.0</ele>
        <time>2021-10-03T17:03:31Z</time>
      </trkpt>
      <trkpt lat="42.5404480" lon="-6.5257720">
        <ele>561.4</ele>
        <time>2021-10-03T17:03:40Z</time>
      </trkpt>
      <trkpt lat="42.5408200" lon="-6.5263760">
        <ele>562.0</ele>
        <time>2021-10-03T17:03:49Z</time>
      </trkpt>
      <trkpt lat="42.5412030" lon="-6.5269220">
        <ele>560.4</ele>
        <time>2021-10-03T17:03:56Z</time>
      </trkpt>
      <trkpt lat="42.5413690" lon="-6.5271590">
        <ele>559.0</ele>
        <time>2021-10-03T17:03:59Z</time>
      </trkpt>
      <trkpt lat="42.5414750" lon="-6.5273150">
        <ele>558.0</ele>
        <time>2021-10-03T17:04:01Z</time>
      </trkpt>
      <trkpt lat="42.5418460" lon="-6.5278570">
        <ele>557.0</ele>
        <time>2021-10-03T17:04:08Z</time>
      </trkpt>
      <trkpt lat="42.5421890" lon="-6.5285060">
        <ele>556.6</ele>
        <time>2021-10-03T17:04:16Z</time>
      </trkpt>
      <trkpt lat="42.5423840" lon="-6.5289260">
        <ele>556.0</ele>
        <time>2021-10-03T17:04:21Z</time>
      </trkpt>
      <trkpt lat="42.5426280" lon="-6.5294660">
        <ele>556.0</ele>
        <time>2021-10-03T17:04:28Z</time>
      </trkpt>
      <trkpt lat="42.5426740" lon="-6.5296050">
        <ele>556.0</ele>
        <time>2021-10-03T17:04:31Z</time>
      </trkpt>
      <trkpt lat="42.5426230" lon="-6.5295030">
        <ele>556.4</ele>
        <time>2021-10-03T17:04:35Z</time>
      </trkpt>
      <trkpt lat="42.5425750" lon="-6.5292270">
        <ele>557.8</ele>
        <time>2021-10-03T17:04:41Z</time>
      </trkpt>
      <trkpt lat="42.5425930" lon="-6.5291920">
        <ele>557.8</ele>
        <time>2021-10-03T17:04:42Z</time>
      </trkpt>
      <trkpt lat="42.5426940" lon="-6.5291010">
        <ele>558.0</ele>
        <time>2021-10-03T17:04:45Z</time>
      </trkpt>
      <trkpt lat="42.5427730" lon="-6.5290200">
        <ele>558.0</ele>
        <time>2021-10-03T17:04:47Z</time>
      </trkpt>
      <trkpt lat="42.5430630" lon="-6.5291750">
        <ele>557.6</ele>
        <time>2021-10-03T17:04:53Z</time>
      </trkpt>
      <trkpt lat="42.5431510" lon="-6.5293040">
        <ele>556.8</ele>
        <time>2021-10-03T17:04:55Z</time>
      </trkpt>
      <trkpt lat="42.5432460" lon="-6.5294290">
        <ele>555.8</ele>
        <time>2021-10-03T17:04:57Z</time>
      </trkpt>
      <trkpt lat="42.5432920" lon="-6.5294960">
        <ele>554.8</ele>
        <time>2021-10-03T17:04:58Z</time>
      </trkpt>
      <trkpt lat="42.5433860" lon="-6.5296310">
        <ele>553.8</ele>
        <time>2021-10-03T17:05:00Z</time>
      </trkpt>
      <trkpt lat="42.5435850" lon="-6.5299930">
        <ele>552.6</ele>
        <time>2021-10-03T17:05:05Z</time>
      </trkpt>
      <trkpt lat="42.5436640" lon="-6.5301320">
        <ele>551.0</ele>
        <time>2021-10-03T17:05:07Z</time>
      </trkpt>
      <trkpt lat="42.5437430" lon="-6.5302700">
        <ele>550.0</ele>
        <time>2021-10-03T17:05:09Z</time>
      </trkpt>
      <trkpt lat="42.5437850" lon="-6.5303380">
        <ele>549.8</ele>
        <time>2021-10-03T17:05:10Z</time>
      </trkpt>
      <trkpt lat="42.5440190" lon="-6.5307650">
        <ele>549.4</ele>
        <time>2021-10-03T17:05:16Z</time>
      </trkpt>
      <trkpt lat="42.5441240" lon="-6.5309890">
        <ele>549.2</ele>
        <time>2021-10-03T17:05:19Z</time>
      </trkpt>
      <trkpt lat="42.5442280" lon="-6.5313040">
        <ele>548.8</ele>
        <time>2021-10-03T17:05:23Z</time>
      </trkpt>
      <trkpt lat="42.5443800" lon="-6.5318330">
        <ele>548.8</ele>
        <time>2021-10-03T17:05:31Z</time>
      </trkpt>
      <trkpt lat="42.5443940" lon="-6.5318890">
        <ele>548.8</ele>
        <time>2021-10-03T17:05:32Z</time>
      </trkpt>
      <trkpt lat="42.5445280" lon="-6.5322780">
        <ele>549.4</ele>
        <time>2021-10-03T17:05:39Z</time>
      </trkpt>
      <trkpt lat="42.5447860" lon="-6.5328490">
        <ele>549.4</ele>
        <time>2021-10-03T17:05:49Z</time>
      </trkpt>
      <trkpt lat="42.5451290" lon="-6.5334430">
        <ele>549.4</ele>
        <time>2021-10-03T17:06:00Z</time>
      </trkpt>
      <trkpt lat="42.5453980" lon="-6.5338370">
        <ele>549.4</ele>
        <time>2021-10-03T17:06:08Z</time>
      </trkpt>
      <trkpt lat="42.5455920" lon="-6.5341970">
        <ele>549.8</ele>
        <time>2021-10-03T17:06:15Z</time>
      </trkpt>
      <trkpt lat="42.5456340" lon="-6.5342860">
        <ele>549.8</ele>
        <time>2021-10-03T17:06:17Z</time>
      </trkpt>
      <trkpt lat="42.5456740" lon="-6.5345820">
        <ele>550.0</ele>
        <time>2021-10-03T17:06:23Z</time>
      </trkpt>
      <trkpt lat="42.5457480" lon="-6.5348180">
        <ele>550.2</ele>
        <time>2021-10-03T17:06:28Z</time>
      </trkpt>
      <trkpt lat="42.5457630" lon="-6.5349710">
        <ele>550.4</ele>
        <time>2021-10-03T17:06:31Z</time>
      </trkpt>
      <trkpt lat="42.5457670" lon="-6.5350770">
        <ele>550.6</ele>
        <time>2021-10-03T17:06:33Z</time>
      </trkpt>
      <trkpt lat="42.5457700" lon="-6.5351790">
        <ele>551.0</ele>
        <time>2021-10-03T17:06:35Z</time>
      </trkpt>
      <trkpt lat="42.5457830" lon="-6.5353750">
        <ele>552.0</ele>
        <time>2021-10-03T17:06:39Z</time>
      </trkpt>
      <trkpt lat="42.5458240" lon="-6.5357270">
        <ele>553.0</ele>
        <time>2021-10-03T17:06:47Z</time>
      </trkpt>
      <trkpt lat="42.5458250" lon="-6.5359300">
        <ele>554.0</ele>
        <time>2021-10-03T17:06:52Z</time>
      </trkpt>
      <trkpt lat="42.5457720" lon="-6.5362110">
        <ele>555.2</ele>
        <time>2021-10-03T17:07:00Z</time>
      </trkpt>
      <trkpt lat="42.5457450" lon="-6.5363050">
        <ele>556.2</ele>
        <time>2021-10-03T17:07:03Z</time>
      </trkpt>
      <trkpt lat="42.5457120" lon="-6.5364780">
        <ele>557.4</ele>
        <time>2021-10-03T17:07:09Z</time>
      </trkpt>
      <trkpt lat="42.5457000" lon="-6.5366070">
        <ele>558.6</ele>
        <time>2021-10-03T17:07:13Z</time>
      </trkpt>
      <trkpt lat="42.5456890" lon="-6.5367390">
        <ele>559.6</ele>
        <time>2021-10-03T17:07:17Z</time>
      </trkpt>
      <trkpt lat="42.5456820" lon="-6.5368880">
        <ele>560.6</ele>
        <time>2021-10-03T17:07:22Z</time>
      </trkpt>
      <trkpt lat="42.5456800" lon="-6.5370090">
        <ele>561.2</ele>
        <time>2021-10-03T17:07:26Z</time>
      </trkpt>
      <trkpt lat="42.5456850" lon="-6.5370440">
        <ele>561.6</ele>
        <time>2021-10-03T17:07:27Z</time>
      </trkpt>
      <trkpt lat="42.5457890" lon="-6.5378040">
        <ele>562.2</ele>
        <time>2021-10-03T17:07:43Z</time>
      </trkpt>
      <trkpt lat="42.5458740" lon="-6.5380500">
        <ele>562.6</ele>
        <time>2021-10-03T17:07:48Z</time>
      </trkpt>
      <trkpt lat="42.5458950" lon="-6.5381010">
        <ele>562.6</ele>
        <time>2021-10-03T17:07:49Z</time>
      </trkpt>
      <trkpt lat="42.5460310" lon="-6.5383360">
        <ele>562.8</ele>
        <time>2021-10-03T17:07:54Z</time>
      </trkpt>
      <trkpt lat="42.5460950" lon="-6.5384090">
        <ele>562.8</ele>
        <time>2021-10-03T17:07:56Z</time>
      </trkpt>
      <trkpt lat="42.5463850" lon="-6.5386760">
        <ele>563.6</ele>
        <time>2021-10-03T17:08:04Z</time>
      </trkpt>
      <trkpt lat="42.5464170" lon="-6.5387150">
        <ele>563.6</ele>
        <time>2021-10-03T17:08:05Z</time>
      </trkpt>
      <trkpt lat="42.5465860" lon="-6.5394170">
        <ele>564.0</ele>
        <time>2021-10-03T17:08:18Z</time>
      </trkpt>
      <trkpt lat="42.5465770" lon="-6.5397780">
        <ele>564.8</ele>
        <time>2021-10-03T17:08:25Z</time>
      </trkpt>
      <trkpt lat="42.5465920" lon="-6.5403420">
        <ele>565.8</ele>
        <time>2021-10-03T17:08:36Z</time>
      </trkpt>
      <trkpt lat="42.5465910" lon="-6.5408300">
        <ele>567.0</ele>
        <time>2021-10-03T17:08:46Z</time>
      </trkpt>
      <trkpt lat="42.5465770" lon="-6.5412070">
        <ele>567.8</ele>
        <time>2021-10-03T17:08:54Z</time>
      </trkpt>
      <trkpt lat="42.5465540" lon="-6.5415930">
        <ele>569.0</ele>
        <time>2021-10-03T17:09:02Z</time>
      </trkpt>
      <trkpt lat="42.5465240" lon="-6.5419790">
        <ele>570.0</ele>
        <time>2021-10-03T17:09:10Z</time>
      </trkpt>
      <trkpt lat="42.5465050" lon="-6.5422080">
        <ele>571.0</ele>
        <time>2021-10-03T17:09:15Z</time>
      </trkpt>
      <trkpt lat="42.5464680" lon="-6.5424850">
        <ele>572.2</ele>
        <time>2021-10-03T17:09:21Z</time>
      </trkpt>
      <trkpt lat="42.5464240" lon="-6.5428130">
        <ele>573.4</ele>
        <time>2021-10-03T17:09:28Z</time>
      </trkpt>
      <trkpt lat="42.5464270" lon="-6.5431000">
        <ele>575.0</ele>
        <time>2021-10-03T17:09:35Z</time>
      </trkpt>
      <trkpt lat="42.5464310" lon="-6.5432780">
        <ele>575.8</ele>
        <time>2021-10-03T17:09:41Z</time>
      </trkpt>
      <trkpt lat="42.5464340" lon="-6.5436220">
        <ele>576.2</ele>
        <time>2021-10-03T17:09:50Z</time>
      </trkpt>
      <trkpt lat="42.5464410" lon="-6.5437840">
        <ele>576.6</ele>
        <time>2021-10-03T17:09:54Z</time>
      </trkpt>
      <trkpt lat="42.5464500" lon="-6.5439050">
        <ele>576.8</ele>
        <time>2021-10-03T17:09:57Z</time>
      </trkpt>
      <trkpt lat="42.5464540" lon="-6.5439840">
        <ele>577.0</ele>
        <time>2021-10-03T17:09:59Z</time>
      </trkpt>
      <trkpt lat="42.5464680" lon="-6.5441850">
        <ele>577.2</ele>
        <time>2021-10-03T17:10:04Z</time>
      </trkpt>
      <trkpt lat="42.5464680" lon="-6.5444660">
        <ele>577.8</ele>
        <time>2021-10-03T17:10:11Z</time>
      </trkpt>
      <trkpt lat="42.5464650" lon="-6.5446360">
        <ele>578.4</ele>
        <time>2021-10-03T17:10:15Z</time>
      </trkpt>
      <trkpt lat="42.5464430" lon="-6.5449240">
        <ele>579.4</ele>
        <time>2021-10-03T17:10:22Z</time>
      </trkpt>
      <trkpt lat="42.5464220" lon="-6.5450980">
        <ele>580.2</ele>
        <time>2021-10-03T17:10:27Z</time>
      </trkpt>
      <trkpt lat="42.5464090" lon="-6.5451660">
        <ele>580.6</ele>
        <time>2021-10-03T17:10:29Z</time>
      </trkpt>
      <trkpt lat="42.5463210" lon="-6.5456040">
        <ele>581.6</ele>
        <time>2021-10-03T17:10:42Z</time>
      </trkpt>
      <trkpt lat="42.5462380" lon="-6.5459620">
        <ele>582.6</ele>
        <time>2021-10-03T17:10:52Z</time>
      </trkpt>
      <trkpt lat="42.5461780" lon="-6.5462930">
        <ele>583.8</ele>
        <time>2021-10-03T17:11:01Z</time>
      </trkpt>
      <trkpt lat="42.5461350" lon="-6.5466740">
        <ele>585.0</ele>
        <time>2021-10-03T17:11:12Z</time>
      </trkpt>
      <trkpt lat="42.5460800" lon="-6.5469610">
        <ele>585.8</ele>
        <time>2021-10-03T17:11:21Z</time>
      </trkpt>
      <trkpt lat="42.5460660" lon="-6.5470540">
        <ele>586.0</ele>
        <time>2021-10-03T17:11:24Z</time>
      </trkpt>
      <trkpt lat="42.5460310" lon="-6.5472440">
        <ele>586.8</ele>
        <time>2021-10-03T17:11:30Z</time>
      </trkpt>
      <trkpt lat="42.5460200" lon="-6.5473050">
        <ele>587.2</ele>
        <time>2021-10-03T17:11:32Z</time>
      </trkpt>
      <trkpt lat="42.5460040" lon="-6.5474180">
        <ele>588.4</ele>
        <time>2021-10-03T17:11:36Z</time>
      </trkpt>
      <trkpt lat="42.5459790" lon="-6.5475580">
        <ele>589.6</ele>
        <time>2021-10-03T17:11:41Z</time>
      </trkpt>
      <trkpt lat="42.5459560" lon="-6.5477160">
        <ele>590.8</ele>
        <time>2021-10-03T17:11:46Z</time>
      </trkpt>
      <trkpt lat="42.5459280" lon="-6.5479350">
        <ele>591.8</ele>
        <time>2021-10-03T17:11:52Z</time>
      </trkpt>
      <trkpt lat="42.5458690" lon="-6.5484440">
        <ele>592.8</ele>
        <time>2021-10-03T17:12:03Z</time>
      </trkpt>
      <trkpt lat="42.5457490" lon="-6.5488360">
        <ele>594.2</ele>
        <time>2021-10-03T17:12:11Z</time>
      </trkpt>
      <trkpt lat="42.5457260" lon="-6.5488880">
        <ele>594.4</ele>
        <time>2021-10-03T17:12:12Z</time>
      </trkpt>
      <trkpt lat="42.5456110" lon="-6.5491220">
        <ele>595.2</ele>
        <time>2021-10-03T17:12:17Z</time>
      </trkpt>
      <trkpt lat="42.5454400" lon="-6.5495220">
        <ele>595.4</ele>
        <time>2021-10-03T17:12:25Z</time>
      </trkpt>
      <trkpt lat="42.5454010" lon="-6.5496920">
        <ele>595.4</ele>
        <time>2021-10-03T17:12:28Z</time>
      </trkpt>
      <trkpt lat="42.5453330" lon="-6.5499260">
        <ele>595.0</ele>
        <time>2021-10-03T17:12:32Z</time>
      </trkpt>
      <trkpt lat="42.5453200" lon="-6.5499910">
        <ele>595.0</ele>
        <time>2021-10-03T17:12:33Z</time>
      </trkpt>
      <trkpt lat="42.5452850" lon="-6.5501330">
        <ele>594.4</ele>
        <time>2021-10-03T17:12:35Z</time>
      </trkpt>
      <trkpt lat="42.5452540" lon="-6.5501970">
        <ele>594.2</ele>
        <time>2021-10-03T17:12:36Z</time>
      </trkpt>
      <trkpt lat="42.5451500" lon="-6.5504220">
        <ele>593.6</ele>
        <time>2021-10-03T17:12:39Z</time>
      </trkpt>
      <trkpt lat="42.5450870" lon="-6.5506230">
        <ele>593.2</ele>
        <time>2021-10-03T17:12:41Z</time>
      </trkpt>
      <trkpt lat="42.5450570" lon="-6.5507280">
        <ele>593.2</ele>
        <time>2021-10-03T17:12:42Z</time>
      </trkpt>
      <trkpt lat="42.5449860" lon="-6.5509440">
        <ele>592.4</ele>
        <time>2021-10-03T17:12:44Z</time>
      </trkpt>
      <trkpt lat="42.5449520" lon="-6.5510550">
        <ele>591.2</ele>
        <time>2021-10-03T17:12:45Z</time>
      </trkpt>
      <trkpt lat="42.5449170" lon="-6.5511660">
        <ele>589.6</ele>
        <time>2021-10-03T17:12:46Z</time>
      </trkpt>
      <trkpt lat="42.5448820" lon="-6.5512780">
        <ele>588.0</ele>
        <time>2021-10-03T17:12:47Z</time>
      </trkpt>
      <trkpt lat="42.5448500" lon="-6.5513910">
        <ele>586.6</ele>
        <time>2021-10-03T17:12:48Z</time>
      </trkpt>
      <trkpt lat="42.5447960" lon="-6.5516360">
        <ele>584.6</ele>
        <time>2021-10-03T17:12:50Z</time>
      </trkpt>
      <trkpt lat="42.5447500" lon="-6.5519000">
        <ele>582.8</ele>
        <time>2021-10-03T17:12:52Z</time>
      </trkpt>
      <trkpt lat="42.5446990" lon="-6.5521800">
        <ele>581.2</ele>
        <time>2021-10-03T17:12:54Z</time>
      </trkpt>
      <trkpt lat="42.5446480" lon="-6.5524600">
        <ele>579.8</ele>
        <time>2021-10-03T17:12:56Z</time>
      </trkpt>
      <trkpt lat="42.5446230" lon="-6.5525970">
        <ele>578.0</ele>
        <time>2021-10-03T17:12:57Z</time>
      </trkpt>
      <trkpt lat="42.5446000" lon="-6.5527290">
        <ele>576.0</ele>
        <time>2021-10-03T17:12:58Z</time>
      </trkpt>
      <trkpt lat="42.5445790" lon="-6.5528510">
        <ele>574.4</ele>
        <time>2021-10-03T17:12:59Z</time>
      </trkpt>
      <trkpt lat="42.5445570" lon="-6.5529630">
        <ele>572.8</ele>
        <time>2021-10-03T17:13:00Z</time>
      </trkpt>
      <trkpt lat="42.5445300" lon="-6.5530680">
        <ele>569.8</ele>
        <time>2021-10-03T17:13:01Z</time>
      </trkpt>
      <trkpt lat="42.5444950" lon="-6.5531680">
        <ele>568.4</ele>
        <time>2021-10-03T17:13:02Z</time>
      </trkpt>
      <trkpt lat="42.5444120" lon="-6.5533650">
        <ele>566.8</ele>
        <time>2021-10-03T17:13:04Z</time>
      </trkpt>
      <trkpt lat="42.5442510" lon="-6.5537830">
        <ele>565.6</ele>
        <time>2021-10-03T17:13:08Z</time>
      </trkpt>
      <trkpt lat="42.5441410" lon="-6.5541090">
        <ele>564.4</ele>
        <time>2021-10-03T17:13:11Z</time>
      </trkpt>
      <trkpt lat="42.5441070" lon="-6.5542210">
        <ele>563.0</ele>
        <time>2021-10-03T17:13:12Z</time>
      </trkpt>
      <trkpt lat="42.5440790" lon="-6.5543350">
        <ele>562.2</ele>
        <time>2021-10-03T17:13:13Z</time>
      </trkpt>
      <trkpt lat="42.5440590" lon="-6.5544490">
        <ele>561.4</ele>
        <time>2021-10-03T17:13:14Z</time>
      </trkpt>
      <trkpt lat="42.5440340" lon="-6.5546690">
        <ele>559.4</ele>
        <time>2021-10-03T17:13:16Z</time>
      </trkpt>
      <trkpt lat="42.5440220" lon="-6.5547820">
        <ele>558.2</ele>
        <time>2021-10-03T17:13:17Z</time>
      </trkpt>
      <trkpt lat="42.5440090" lon="-6.5549010">
        <ele>557.0</ele>
        <time>2021-10-03T17:13:18Z</time>
      </trkpt>
      <trkpt lat="42.5439950" lon="-6.5550260">
        <ele>555.8</ele>
        <time>2021-10-03T17:13:19Z</time>
      </trkpt>
      <trkpt lat="42.5439790" lon="-6.5551550">
        <ele>554.4</ele>
        <time>2021-10-03T17:13:20Z</time>
      </trkpt>
      <trkpt lat="42.5439660" lon="-6.5552870">
        <ele>553.0</ele>
        <time>2021-10-03T17:13:21Z</time>
      </trkpt>
      <trkpt lat="42.5439610" lon="-6.5554190">
        <ele>552.2</ele>
        <time>2021-10-03T17:13:22Z</time>
      </trkpt>
      <trkpt lat="42.5439620" lon="-6.5555480">
        <ele>551.2</ele>
        <time>2021-10-03T17:13:23Z</time>
      </trkpt>
      <trkpt lat="42.5439600" lon="-6.5556670">
        <ele>550.2</ele>
        <time>2021-10-03T17:13:24Z</time>
      </trkpt>
      <trkpt lat="42.5439440" lon="-6.5557730">
        <ele>549.0</ele>
        <time>2021-10-03T17:13:25Z</time>
      </trkpt>
      <trkpt lat="42.5439080" lon="-6.5558660">
        <ele>547.2</ele>
        <time>2021-10-03T17:13:26Z</time>
      </trkpt>
      <trkpt lat="42.5438520" lon="-6.5559430">
        <ele>545.6</ele>
        <time>2021-10-03T17:13:27Z</time>
      </trkpt>
      <trkpt lat="42.5437860" lon="-6.5560070">
        <ele>544.2</ele>
        <time>2021-10-03T17:13:28Z</time>
      </trkpt>
      <trkpt lat="42.5437160" lon="-6.5560680">
        <ele>542.8</ele>
        <time>2021-10-03T17:13:29Z</time>
      </trkpt>
      <trkpt lat="42.5435750" lon="-6.5561870">
        <ele>541.2</ele>
        <time>2021-10-03T17:13:31Z</time>
      </trkpt>
      <trkpt lat="42.5434390" lon="-6.5563080">
        <ele>540.6</ele>
        <time>2021-10-03T17:13:33Z</time>
      </trkpt>
      <trkpt lat="42.5433260" lon="-6.5564370">
        <ele>540.2</ele>
        <time>2021-10-03T17:13:35Z</time>
      </trkpt>
      <trkpt lat="42.5430850" lon="-6.5567490">
        <ele>540.4</ele>
        <time>2021-10-03T17:13:41Z</time>
      </trkpt>
      <trkpt lat="42.5430050" lon="-6.5568440">
        <ele>540.4</ele>
        <time>2021-10-03T17:13:43Z</time>
      </trkpt>
      <trkpt lat="42.5429290" lon="-6.5569330">
        <ele>541.2</ele>
        <time>2021-10-03T17:13:45Z</time>
      </trkpt>
      <trkpt lat="42.5428620" lon="-6.5570210">
        <ele>542.4</ele>
        <time>2021-10-03T17:13:47Z</time>
      </trkpt>
      <trkpt lat="42.5427990" lon="-6.5570970">
        <ele>543.0</ele>
        <time>2021-10-03T17:13:49Z</time>
      </trkpt>
      <trkpt lat="42.5427700" lon="-6.5571330">
        <ele>543.4</ele>
        <time>2021-10-03T17:13:50Z</time>
      </trkpt>
      <trkpt lat="42.5426860" lon="-6.5572350">
        <ele>544.4</ele>
        <time>2021-10-03T17:13:53Z</time>
      </trkpt>
      <trkpt lat="42.5426360" lon="-6.5573020">
        <ele>545.6</ele>
        <time>2021-10-03T17:13:55Z</time>
      </trkpt>
      <trkpt lat="42.5425530" lon="-6.5573950">
        <ele>546.8</ele>
        <time>2021-10-03T17:13:58Z</time>
      </trkpt>
      <trkpt lat="42.5424500" lon="-6.5575400">
        <ele>547.6</ele>
        <time>2021-10-03T17:14:02Z</time>
      </trkpt>
      <trkpt lat="42.5424240" lon="-6.5575770">
        <ele>548.0</ele>
        <time>2021-10-03T17:14:03Z</time>
      </trkpt>
      <trkpt lat="42.5423120" lon="-6.5577060">
        <ele>549.0</ele>
        <time>2021-10-03T17:14:07Z</time>
      </trkpt>
      <trkpt lat="42.5421800" lon="-6.5578350">
        <ele>550.2</ele>
        <time>2021-10-03T17:14:12Z</time>
      </trkpt>
      <trkpt lat="42.5421130" lon="-6.5579180">
        <ele>551.2</ele>
        <time>2021-10-03T17:14:15Z</time>
      </trkpt>
      <trkpt lat="42.5420690" lon="-6.5579750">
        <ele>552.4</ele>
        <time>2021-10-03T17:14:17Z</time>
      </trkpt>
      <trkpt lat="42.5420090" lon="-6.5580550">
        <ele>553.6</ele>
        <time>2021-10-03T17:14:20Z</time>
      </trkpt>
      <trkpt lat="42.5419410" lon="-6.5581750">
        <ele>554.8</ele>
        <time>2021-10-03T17:14:24Z</time>
      </trkpt>
      <trkpt lat="42.5418700" lon="-6.5583470">
        <ele>556.0</ele>
        <time>2021-10-03T17:14:29Z</time>
      </trkpt>
      <trkpt lat="42.5417800" lon="-6.5585540">
        <ele>557.0</ele>
        <time>2021-10-03T17:14:35Z</time>
      </trkpt>
      <trkpt lat="42.5417100" lon="-6.5586810">
        <ele>558.4</ele>
        <time>2021-10-03T17:14:39Z</time>
      </trkpt>
      <trkpt lat="42.5416590" lon="-6.5587820">
        <ele>559.4</ele>
        <time>2021-10-03T17:14:42Z</time>
      </trkpt>
      <trkpt lat="42.5415850" lon="-6.5589180">
        <ele>560.4</ele>
        <time>2021-10-03T17:14:46Z</time>
      </trkpt>
      <trkpt lat="42.5415060" lon="-6.5590610">
        <ele>561.4</ele>
        <time>2021-10-03T17:14:50Z</time>
      </trkpt>
      <trkpt lat="42.5413390" lon="-6.5595760">
        <ele>562.4</ele>
        <time>2021-10-03T17:15:01Z</time>
      </trkpt>
      <trkpt lat="42.5413070" lon="-6.5596930">
        <ele>562.6</ele>
        <time>2021-10-03T17:15:03Z</time>
      </trkpt>
      <trkpt lat="42.5411740" lon="-6.5599440">
        <ele>562.6</ele>
        <time>2021-10-03T17:15:07Z</time>
      </trkpt>
      <trkpt lat="42.5411230" lon="-6.5600070">
        <ele>562.6</ele>
        <time>2021-10-03T17:15:08Z</time>
      </trkpt>
      <trkpt lat="42.5408930" lon="-6.5602970">
        <ele>561.8</ele>
        <time>2021-10-03T17:15:12Z</time>
      </trkpt>
      <trkpt lat="42.5408300" lon="-6.5603810">
        <ele>561.2</ele>
        <time>2021-10-03T17:15:13Z</time>
      </trkpt>
      <trkpt lat="42.5407000" lon="-6.5605580">
        <ele>559.4</ele>
        <time>2021-10-03T17:15:15Z</time>
      </trkpt>
      <trkpt lat="42.5405500" lon="-6.5607170">
        <ele>557.4</ele>
        <time>2021-10-03T17:15:17Z</time>
      </trkpt>
      <trkpt lat="42.5404700" lon="-6.5607870">
        <ele>556.4</ele>
        <time>2021-10-03T17:15:18Z</time>
      </trkpt>
      <trkpt lat="42.5403900" lon="-6.5608530">
        <ele>555.4</ele>
        <time>2021-10-03T17:15:19Z</time>
      </trkpt>
      <trkpt lat="42.5403100" lon="-6.5609160">
        <ele>553.2</ele>
        <time>2021-10-03T17:15:20Z</time>
      </trkpt>
      <trkpt lat="42.5402330" lon="-6.5609800">
        <ele>552.2</ele>
        <time>2021-10-03T17:15:21Z</time>
      </trkpt>
      <trkpt lat="42.5401580" lon="-6.5610480">
        <ele>551.0</ele>
        <time>2021-10-03T17:15:22Z</time>
      </trkpt>
      <trkpt lat="42.5400830" lon="-6.5611200">
        <ele>549.8</ele>
        <time>2021-10-03T17:15:23Z</time>
      </trkpt>
      <trkpt lat="42.5399320" lon="-6.5612760">
        <ele>548.6</ele>
        <time>2021-10-03T17:15:25Z</time>
      </trkpt>
      <trkpt lat="42.5397720" lon="-6.5614340">
        <ele>547.2</ele>
        <time>2021-10-03T17:15:27Z</time>
      </trkpt>
      <trkpt lat="42.5395000" lon="-6.5616230">
        <ele>546.4</ele>
        <time>2021-10-03T17:15:30Z</time>
      </trkpt>
      <trkpt lat="42.5394170" lon="-6.5616860">
        <ele>546.2</ele>
        <time>2021-10-03T17:15:31Z</time>
      </trkpt>
      <trkpt lat="42.5392880" lon="-6.5618120">
        <ele>544.6</ele>
        <time>2021-10-03T17:15:33Z</time>
      </trkpt>
      <trkpt lat="42.5392430" lon="-6.5618740">
        <ele>543.2</ele>
        <time>2021-10-03T17:15:34Z</time>
      </trkpt>
      <trkpt lat="42.5392030" lon="-6.5619410">
        <ele>542.0</ele>
        <time>2021-10-03T17:15:35Z</time>
      </trkpt>
      <trkpt lat="42.5391570" lon="-6.5620100">
        <ele>541.0</ele>
        <time>2021-10-03T17:15:36Z</time>
      </trkpt>
      <trkpt lat="42.5391010" lon="-6.5620740">
        <ele>540.2</ele>
        <time>2021-10-03T17:15:37Z</time>
      </trkpt>
      <trkpt lat="42.5389480" lon="-6.5622920">
        <ele>538.8</ele>
        <time>2021-10-03T17:15:40Z</time>
      </trkpt>
      <trkpt lat="42.5388710" lon="-6.5624780">
        <ele>538.2</ele>
        <time>2021-10-03T17:15:42Z</time>
      </trkpt>
      <trkpt lat="42.5388360" lon="-6.5625800">
        <ele>537.6</ele>
        <time>2021-10-03T17:15:43Z</time>
      </trkpt>
      <trkpt lat="42.5387810" lon="-6.5628020">
        <ele>536.0</ele>
        <time>2021-10-03T17:15:45Z</time>
      </trkpt>
      <trkpt lat="42.5387440" lon="-6.5630570">
        <ele>534.6</ele>
        <time>2021-10-03T17:15:47Z</time>
      </trkpt>
      <trkpt lat="42.5387250" lon="-6.5631810">
        <ele>533.4</ele>
        <time>2021-10-03T17:15:48Z</time>
      </trkpt>
      <trkpt lat="42.5387050" lon="-6.5633020">
        <ele>532.0</ele>
        <time>2021-10-03T17:15:49Z</time>
      </trkpt>
      <trkpt lat="42.5386830" lon="-6.5634230">
        <ele>530.6</ele>
        <time>2021-10-03T17:15:50Z</time>
      </trkpt>
      <trkpt lat="42.5386600" lon="-6.5635400">
        <ele>529.2</ele>
        <time>2021-10-03T17:15:51Z</time>
      </trkpt>
      <trkpt lat="42.5386410" lon="-6.5636510">
        <ele>527.6</ele>
        <time>2021-10-03T17:15:52Z</time>
      </trkpt>
      <trkpt lat="42.5386250" lon="-6.5637540">
        <ele>526.0</ele>
        <time>2021-10-03T17:15:53Z</time>
      </trkpt>
      <trkpt lat="42.5386110" lon="-6.5638470">
        <ele>523.4</ele>
        <time>2021-10-03T17:15:54Z</time>
      </trkpt>
      <trkpt lat="42.5385950" lon="-6.5639250">
        <ele>522.2</ele>
        <time>2021-10-03T17:15:55Z</time>
      </trkpt>
      <trkpt lat="42.5385450" lon="-6.5640480">
        <ele>520.6</ele>
        <time>2021-10-03T17:15:57Z</time>
      </trkpt>
      <trkpt lat="42.5385270" lon="-6.5641040">
        <ele>519.8</ele>
        <time>2021-10-03T17:15:58Z</time>
      </trkpt>
      <trkpt lat="42.5385220" lon="-6.5641720">
        <ele>519.4</ele>
        <time>2021-10-03T17:15:59Z</time>
      </trkpt>
      <trkpt lat="42.5385360" lon="-6.5643240">
        <ele>518.8</ele>
        <time>2021-10-03T17:16:01Z</time>
      </trkpt>
      <trkpt lat="42.5385580" lon="-6.5644920">
        <ele>518.2</ele>
        <time>2021-10-03T17:16:03Z</time>
      </trkpt>
      <trkpt lat="42.5385680" lon="-6.5645790">
        <ele>518.2</ele>
        <time>2021-10-03T17:16:04Z</time>
      </trkpt>
      <trkpt lat="42.5385850" lon="-6.5649640">
        <ele>516.6</ele>
        <time>2021-10-03T17:16:08Z</time>
      </trkpt>
      <trkpt lat="42.5386040" lon="-6.5651660">
        <ele>516.0</ele>
        <time>2021-10-03T17:16:10Z</time>
      </trkpt>
      <trkpt lat="42.5386290" lon="-6.5653720">
        <ele>515.6</ele>
        <time>2021-10-03T17:16:12Z</time>
      </trkpt>
      <trkpt lat="42.5386770" lon="-6.5657960">
        <ele>514.4</ele>
        <time>2021-10-03T17:16:16Z</time>
      </trkpt>
      <trkpt lat="42.5387010" lon="-6.5660110">
        <ele>512.8</ele>
        <time>2021-10-03T17:16:18Z</time>
      </trkpt>
      <trkpt lat="42.5387570" lon="-6.5664310">
        <ele>511.2</ele>
        <time>2021-10-03T17:16:22Z</time>
      </trkpt>
      <trkpt lat="42.5388220" lon="-6.5668490">
        <ele>509.8</ele>
        <time>2021-10-03T17:16:26Z</time>
      </trkpt>
      <trkpt lat="42.5388730" lon="-6.5671480">
        <ele>509.0</ele>
        <time>2021-10-03T17:16:29Z</time>
      </trkpt>
      <trkpt lat="42.5389220" lon="-6.5674310">
        <ele>509.0</ele>
        <time>2021-10-03T17:16:32Z</time>
      </trkpt>
      <trkpt lat="42.5389520" lon="-6.5676120">
        <ele>509.0</ele>
        <time>2021-10-03T17:16:34Z</time>
      </trkpt>
      <trkpt lat="42.5389660" lon="-6.5677840">
        <ele>509.2</ele>
        <time>2021-10-03T17:16:36Z</time>
      </trkpt>
      <trkpt lat="42.5389020" lon="-6.5681250">
        <ele>509.0</ele>
        <time>2021-10-03T17:16:40Z</time>
      </trkpt>
      <trkpt lat="42.5388150" lon="-6.5683990">
        <ele>509.0</ele>
        <time>2021-10-03T17:16:43Z</time>
      </trkpt>
      <trkpt lat="42.5386860" lon="-6.5687850">
        <ele>509.0</ele>
        <time>2021-10-03T17:16:47Z</time>
      </trkpt>
      <trkpt lat="42.5386320" lon="-6.5689780">
        <ele>508.0</ele>
        <time>2021-10-03T17:16:49Z</time>
      </trkpt>
      <trkpt lat="42.5385340" lon="-6.5693290">
        <ele>506.6</ele>
        <time>2021-10-03T17:16:53Z</time>
      </trkpt>
      <trkpt lat="42.5384390" lon="-6.5699450">
        <ele>506.2</ele>
        <time>2021-10-03T17:17:00Z</time>
      </trkpt>
      <trkpt lat="42.5384140" lon="-6.5702130">
        <ele>506.8</ele>
        <time>2021-10-03T17:17:03Z</time>
      </trkpt>
      <trkpt lat="42.5383880" lon="-6.5704790">
        <ele>507.4</ele>
        <time>2021-10-03T17:17:06Z</time>
      </trkpt>
      <trkpt lat="42.5383630" lon="-6.5707550">
        <ele>507.4</ele>
        <time>2021-10-03T17:17:09Z</time>
      </trkpt>
      <trkpt lat="42.5383300" lon="-6.5710460">
        <ele>507.4</ele>
        <time>2021-10-03T17:17:12Z</time>
      </trkpt>
      <trkpt lat="42.5382840" lon="-6.5715200">
        <ele>507.2</ele>
        <time>2021-10-03T17:17:17Z</time>
      </trkpt>
      <trkpt lat="42.5382100" lon="-6.5722550">
        <ele>506.8</ele>
        <time>2021-10-03T17:17:25Z</time>
      </trkpt>
      <trkpt lat="42.5381120" lon="-6.5730510">
        <ele>506.6</ele>
        <time>2021-10-03T17:17:34Z</time>
      </trkpt>
      <trkpt lat="42.5380320" lon="-6.5738540">
        <ele>506.4</ele>
        <time>2021-10-03T17:17:43Z</time>
      </trkpt>
      <trkpt lat="42.5379510" lon="-6.5746730">
        <ele>505.6</ele>
        <time>2021-10-03T17:17:52Z</time>
      </trkpt>
      <trkpt lat="42.5378110" lon="-6.5753340">
        <ele>505.4</ele>
        <time>2021-10-03T17:17:59Z</time>
      </trkpt>
      <trkpt lat="42.5374630" lon="-6.5759610">
        <ele>505.0</ele>
        <time>2021-10-03T17:18:07Z</time>
      </trkpt>
      <trkpt lat="42.5370830" lon="-6.5765330">
        <ele>504.6</ele>
        <time>2021-10-03T17:18:15Z</time>
      </trkpt>
      <trkpt lat="42.5367200" lon="-6.5770970">
        <ele>504.8</ele>
        <time>2021-10-03T17:18:23Z</time>
      </trkpt>
      <trkpt lat="42.5364750" lon="-6.5774050">
        <ele>504.8</ele>
        <time>2021-10-03T17:18:28Z</time>
      </trkpt>
      <trkpt lat="42.5362550" lon="-6.5777750">
        <ele>504.8</ele>
        <time>2021-10-03T17:18:33Z</time>
      </trkpt>
      <trkpt lat="42.5360230" lon="-6.5784720">
        <ele>504.6</ele>
        <time>2021-10-03T17:18:41Z</time>
      </trkpt>
      <trkpt lat="42.5359950" lon="-6.5788670">
        <ele>504.0</ele>
        <time>2021-10-03T17:18:45Z</time>
      </trkpt>
      <trkpt lat="42.5359980" lon="-6.5789670">
        <ele>503.6</ele>
        <time>2021-10-03T17:18:46Z</time>
      </trkpt>
      <trkpt lat="42.5360290" lon="-6.5791680">
        <ele>503.0</ele>
        <time>2021-10-03T17:18:48Z</time>
      </trkpt>
      <trkpt lat="42.5362040" lon="-6.5799520">
        <ele>502.6</ele>
        <time>2021-10-03T17:18:56Z</time>
      </trkpt>
      <trkpt lat="42.5362240" lon="-6.5803480">
        <ele>502.6</ele>
        <time>2021-10-03T17:19:00Z</time>
      </trkpt>
      <trkpt lat="42.5361710" lon="-6.5805310">
        <ele>502.6</ele>
        <time>2021-10-03T17:19:02Z</time>
      </trkpt>
      <trkpt lat="42.5361040" lon="-6.5807110">
        <ele>502.6</ele>
        <time>2021-10-03T17:19:04Z</time>
      </trkpt>
      <trkpt lat="42.5359940" lon="-6.5809650">
        <ele>502.6</ele>
        <time>2021-10-03T17:19:07Z</time>
      </trkpt>
      <trkpt lat="42.5359160" lon="-6.5811190">
        <ele>502.6</ele>
        <time>2021-10-03T17:19:09Z</time>
      </trkpt>
      <trkpt lat="42.5358220" lon="-6.5812550">
        <ele>502.4</ele>
        <time>2021-10-03T17:19:11Z</time>
      </trkpt>
      <trkpt lat="42.5356980" lon="-6.5813380">
        <ele>502.2</ele>
        <time>2021-10-03T17:19:13Z</time>
      </trkpt>
      <trkpt lat="42.5355630" lon="-6.5814000">
        <ele>502.0</ele>
        <time>2021-10-03T17:19:15Z</time>
      </trkpt>
      <trkpt lat="42.5354280" lon="-6.5814970">
        <ele>501.6</ele>
        <time>2021-10-03T17:19:17Z</time>
      </trkpt>
      <trkpt lat="42.5352600" lon="-6.5817090">
        <ele>500.8</ele>
        <time>2021-10-03T17:19:20Z</time>
      </trkpt>
      <trkpt lat="42.5350360" lon="-6.5820230">
        <ele>499.4</ele>
        <time>2021-10-03T17:19:24Z</time>
      </trkpt>
      <trkpt lat="42.5348390" lon="-6.5824180">
        <ele>498.4</ele>
        <time>2021-10-03T17:19:28Z</time>
      </trkpt>
      <trkpt lat="42.5347350" lon="-6.5827450">
        <ele>497.0</ele>
        <time>2021-10-03T17:19:31Z</time>
      </trkpt>
      <trkpt lat="42.5346440" lon="-6.5830590">
        <ele>496.0</ele>
        <time>2021-10-03T17:19:34Z</time>
      </trkpt>
      <trkpt lat="42.5346230" lon="-6.5831650">
        <ele>495.8</ele>
        <time>2021-10-03T17:19:35Z</time>
      </trkpt>
      <trkpt lat="42.5346740" lon="-6.5835830">
        <ele>495.6</ele>
        <time>2021-10-03T17:19:39Z</time>
      </trkpt>
      <trkpt lat="42.5347120" lon="-6.5836720">
        <ele>495.4</ele>
        <time>2021-10-03T17:19:40Z</time>
      </trkpt>
      <trkpt lat="42.5347960" lon="-6.5838370">
        <ele>495.4</ele>
        <time>2021-10-03T17:19:42Z</time>
      </trkpt>
      <trkpt lat="42.5349070" lon="-6.5840750">
        <ele>495.6</ele>
        <time>2021-10-03T17:19:45Z</time>
      </trkpt>
      <trkpt lat="42.5349540" lon="-6.5842410">
        <ele>495.8</ele>
        <time>2021-10-03T17:19:47Z</time>
      </trkpt>
      <trkpt lat="42.5349880" lon="-6.5844020">
        <ele>496.0</ele>
        <time>2021-10-03T17:19:49Z</time>
      </trkpt>
      <trkpt lat="42.5350190" lon="-6.5845640">
        <ele>496.8</ele>
        <time>2021-10-03T17:19:51Z</time>
      </trkpt>
      <trkpt lat="42.5350450" lon="-6.5847320">
        <ele>498.0</ele>
        <time>2021-10-03T17:19:53Z</time>
      </trkpt>
      <trkpt lat="42.5350880" lon="-6.5849930">
        <ele>499.4</ele>
        <time>2021-10-03T17:19:56Z</time>
      </trkpt>
      <trkpt lat="42.5352750" lon="-6.5856780">
        <ele>500.0</ele>
        <time>2021-10-03T17:20:04Z</time>
      </trkpt>
      <trkpt lat="42.5356440" lon="-6.5862310">
        <ele>500.4</ele>
        <time>2021-10-03T17:20:12Z</time>
      </trkpt>
      <trkpt lat="42.5356990" lon="-6.5862880">
        <ele>500.4</ele>
        <time>2021-10-03T17:20:13Z</time>
      </trkpt>
      <trkpt lat="42.5360750" lon="-6.5868140">
        <ele>500.6</ele>
        <time>2021-10-03T17:20:21Z</time>
      </trkpt>
      <trkpt lat="42.5362520" lon="-6.5870880">
        <ele>500.2</ele>
        <time>2021-10-03T17:20:25Z</time>
      </trkpt>
      <trkpt lat="42.5364670" lon="-6.5874300">
        <ele>499.8</ele>
        <time>2021-10-03T17:20:30Z</time>
      </trkpt>
      <trkpt lat="42.5365370" lon="-6.5875750">
        <ele>499.6</ele>
        <time>2021-10-03T17:20:32Z</time>
      </trkpt>
      <trkpt lat="42.5366110" lon="-6.5878040">
        <ele>499.4</ele>
        <time>2021-10-03T17:20:35Z</time>
      </trkpt>
      <trkpt lat="42.5370360" lon="-6.5883220">
        <ele>498.4</ele>
        <time>2021-10-03T17:20:44Z</time>
      </trkpt>
      <trkpt lat="42.5372230" lon="-6.5885360">
        <ele>498.4</ele>
        <time>2021-10-03T17:20:48Z</time>
      </trkpt>
      <trkpt lat="42.5374750" lon="-6.5888320">
        <ele>498.2</ele>
        <time>2021-10-03T17:20:53Z</time>
      </trkpt>
      <trkpt lat="42.5376290" lon="-6.5890260">
        <ele>498.2</ele>
        <time>2021-10-03T17:20:56Z</time>
      </trkpt>
      <trkpt lat="42.5377340" lon="-6.5891590">
        <ele>498.2</ele>
        <time>2021-10-03T17:20:58Z</time>
      </trkpt>
      <trkpt lat="42.5378350" lon="-6.5892970">
        <ele>497.0</ele>
        <time>2021-10-03T17:21:00Z</time>
      </trkpt>
      <trkpt lat="42.5378890" lon="-6.5893580">
        <ele>496.6</ele>
        <time>2021-10-03T17:21:01Z</time>
      </trkpt>
      <trkpt lat="42.5381260" lon="-6.5894510">
        <ele>496.0</ele>
        <time>2021-10-03T17:21:05Z</time>
      </trkpt>
      <trkpt lat="42.5381780" lon="-6.5894700">
        <ele>495.8</ele>
        <time>2021-10-03T17:21:06Z</time>
      </trkpt>
      <trkpt lat="42.5384000" lon="-6.5896760">
        <ele>495.2</ele>
        <time>2021-10-03T17:21:12Z</time>
      </trkpt>
      <trkpt lat="42.5385030" lon="-6.5895850">
        <ele>495.0</ele>
        <time>2021-10-03T17:21:15Z</time>
      </trkpt>
      <trkpt lat="42.5386510" lon="-6.5894630">
        <ele>495.2</ele>
        <time>2021-10-03T17:21:19Z</time>
      </trkpt>
      <trkpt lat="42.5388220" lon="-6.5893450">
        <ele>495.2</ele>
        <time>2021-10-03T17:21:23Z</time>
      </trkpt>
      <trkpt lat="42.5390300" lon="-6.5892200">
        <ele>495.2</ele>
        <time>2021-10-03T17:21:27Z</time>
      </trkpt>
      <trkpt lat="42.5392040" lon="-6.5892010">
        <ele>494.8</ele>
        <time>2021-10-03T17:21:30Z</time>
      </trkpt>
      <trkpt lat="42.5392850" lon="-6.5892700">
        <ele>494.2</ele>
        <time>2021-10-03T17:21:32Z</time>
      </trkpt>
      <trkpt lat="42.5393060" lon="-6.5893310">
        <ele>493.8</ele>
        <time>2021-10-03T17:21:33Z</time>
      </trkpt>
      <trkpt lat="42.5393870" lon="-6.5895170">
        <ele>492.4</ele>
        <time>2021-10-03T17:21:36Z</time>
      </trkpt>
      <trkpt lat="42.5394110" lon="-6.5895960">
        <ele>492.0</ele>
        <time>2021-10-03T17:21:37Z</time>
      </trkpt>
      <trkpt lat="42.5394870" lon="-6.5898670">
        <ele>491.4</ele>
        <time>2021-10-03T17:21:40Z</time>
      </trkpt>
      <trkpt lat="42.5395360" lon="-6.5900540">
        <ele>491.2</ele>
        <time>2021-10-03T17:21:42Z</time>
      </trkpt>
      <trkpt lat="42.5395810" lon="-6.5902370">
        <ele>490.0</ele>
        <time>2021-10-03T17:21:44Z</time>
      </trkpt>
      <trkpt lat="42.5396280" lon="-6.5904120">
        <ele>488.8</ele>
        <time>2021-10-03T17:21:46Z</time>
      </trkpt>
      <trkpt lat="42.5396790" lon="-6.5905710">
        <ele>488.0</ele>
        <time>2021-10-03T17:21:48Z</time>
      </trkpt>
      <trkpt lat="42.5397060" lon="-6.5906440">
        <ele>487.8</ele>
        <time>2021-10-03T17:21:49Z</time>
      </trkpt>
      <trkpt lat="42.5398220" lon="-6.5908190">
        <ele>487.8</ele>
        <time>2021-10-03T17:21:52Z</time>
      </trkpt>
      <trkpt lat="42.5399080" lon="-6.5909170">
        <ele>487.8</ele>
        <time>2021-10-03T17:21:54Z</time>
      </trkpt>
      <trkpt lat="42.5400400" lon="-6.5910630">
        <ele>488.0</ele>
        <time>2021-10-03T17:21:57Z</time>
      </trkpt>
      <trkpt lat="42.5401690" lon="-6.5912050">
        <ele>489.8</ele>
        <time>2021-10-03T17:22:00Z</time>
      </trkpt>
      <trkpt lat="42.5402520" lon="-6.5913000">
        <ele>490.8</ele>
        <time>2021-10-03T17:22:02Z</time>
      </trkpt>
      <trkpt lat="42.5404140" lon="-6.5915230">
        <ele>491.8</ele>
        <time>2021-10-03T17:22:06Z</time>
      </trkpt>
      <trkpt lat="42.5404550" lon="-6.5915730">
        <ele>492.0</ele>
        <time>2021-10-03T17:22:07Z</time>
      </trkpt>
      <trkpt lat="42.5405380" lon="-6.5916640">
        <ele>492.4</ele>
        <time>2021-10-03T17:22:09Z</time>
      </trkpt>
      <trkpt lat="42.5406310" lon="-6.5917210">
        <ele>493.0</ele>
        <time>2021-10-03T17:22:11Z</time>
      </trkpt>
      <trkpt lat="42.5407300" lon="-6.5918480">
        <ele>494.2</ele>
        <time>2021-10-03T17:22:14Z</time>
      </trkpt>
      <trkpt lat="42.5407620" lon="-6.5919560">
        <ele>494.6</ele>
        <time>2021-10-03T17:22:16Z</time>
      </trkpt>
      <trkpt lat="42.5407990" lon="-6.5920330">
        <ele>495.0</ele>
        <time>2021-10-03T17:22:18Z</time>
      </trkpt>
      <trkpt lat="42.5408860" lon="-6.5921250">
        <ele>495.8</ele>
        <time>2021-10-03T17:22:22Z</time>
      </trkpt>
      <trkpt lat="42.5409030" lon="-6.5921510">
        <ele>496.4</ele>
        <time>2021-10-03T17:22:23Z</time>
      </trkpt>
      <trkpt lat="42.5409390" lon="-6.5922080">
        <ele>497.6</ele>
        <time>2021-10-03T17:22:25Z</time>
      </trkpt>
      <trkpt lat="42.5409810" lon="-6.5922570">
        <ele>498.8</ele>
        <time>2021-10-03T17:22:27Z</time>
      </trkpt>
      <trkpt lat="42.5410410" lon="-6.5923430">
        <ele>500.2</ele>
        <time>2021-10-03T17:22:30Z</time>
      </trkpt>
      <trkpt lat="42.5411140" lon="-6.5924360">
        <ele>501.4</ele>
        <time>2021-10-03T17:22:34Z</time>
      </trkpt>
      <trkpt lat="42.5411810" lon="-6.5925680">
        <ele>502.8</ele>
        <time>2021-10-03T17:22:39Z</time>
      </trkpt>
      <trkpt lat="42.5412190" lon="-6.5926560">
        <ele>504.2</ele>
        <time>2021-10-03T17:22:42Z</time>
      </trkpt>
      <trkpt lat="42.5412420" lon="-6.5927530">
        <ele>505.6</ele>
        <time>2021-10-03T17:22:45Z</time>
      </trkpt>
      <trkpt lat="42.5412510" lon="-6.5928250">
        <ele>507.0</ele>
        <time>2021-10-03T17:22:47Z</time>
      </trkpt>
      <trkpt lat="42.5412680" lon="-6.5928900">
        <ele>508.0</ele>
        <time>2021-10-03T17:22:49Z</time>
      </trkpt>
      <trkpt lat="42.5412890" lon="-6.5929060">
        <ele>508.2</ele>
        <time>2021-10-03T17:22:50Z</time>
      </trkpt>
      <trkpt lat="42.5413950" lon="-6.5929140">
        <ele>509.6</ele>
        <time>2021-10-03T17:22:54Z</time>
      </trkpt>
      <trkpt lat="42.5415410" lon="-6.5928890">
        <ele>510.6</ele>
        <time>2021-10-03T17:22:59Z</time>
      </trkpt>
      <trkpt lat="42.5417310" lon="-6.5928670">
        <ele>511.0</ele>
        <time>2021-10-03T17:23:05Z</time>
      </trkpt>
      <trkpt lat="42.5420490" lon="-6.5928590">
        <ele>511.0</ele>
        <time>2021-10-03T17:23:13Z</time>
      </trkpt>
      <trkpt lat="42.5422130" lon="-6.5928430">
        <ele>511.0</ele>
        <time>2021-10-03T17:23:17Z</time>
      </trkpt>
      <trkpt lat="42.5423990" lon="-6.5928230">
        <ele>511.0</ele>
        <time>2021-10-03T17:23:22Z</time>
      </trkpt>
      <trkpt lat="42.5425830" lon="-6.5928370">
        <ele>511.2</ele>
        <time>2021-10-03T17:23:27Z</time>
      </trkpt>
      <trkpt lat="42.5426210" lon="-6.5928450">
        <ele>511.4</ele>
        <time>2021-10-03T17:23:28Z</time>
      </trkpt>
      <trkpt lat="42.5428580" lon="-6.5929230">
        <ele>511.8</ele>
        <time>2021-10-03T17:23:35Z</time>
      </trkpt>
      <trkpt lat="42.5429410" lon="-6.5929560">
        <ele>512.4</ele>
        <time>2021-10-03T17:23:39Z</time>
      </trkpt>
      <trkpt lat="42.5429460" lon="-6.5930130">
        <ele>512.6</ele>
        <time>2021-10-03T17:23:42Z</time>
      </trkpt>
      <trkpt lat="42.5429430" lon="-6.5930770">
        <ele>513.2</ele>
        <time>2021-10-03T17:23:45Z</time>
      </trkpt>
      <trkpt lat="42.5429400" lon="-6.5931770">
        <ele>513.6</ele>
        <time>2021-10-03T17:23:49Z</time>
      </trkpt>
      <trkpt lat="42.5429340" lon="-6.5932990">
        <ele>513.8</ele>
        <time>2021-10-03T17:23:55Z</time>
      </trkpt>
      <trkpt lat="42.5429440" lon="-6.5933230">
        <ele>513.8</ele>
        <time>2021-10-03T17:23:57Z</time>
      </trkpt>
      <trkpt lat="42.5429470" lon="-6.5933740">
        <ele>513.8</ele>
        <time>2021-10-03T17:24:00Z</time>
      </trkpt>
      <trkpt lat="42.5429420" lon="-6.5933830">
        <ele>514.0</ele>
        <time>2021-10-03T17:24:02Z</time>
      </trkpt>
      <trkpt lat="42.5429460" lon="-6.5934440">
        <ele>514.2</ele>
        <time>2021-10-03T17:24:09Z</time>
      </trkpt>
      <trkpt lat="42.5429440" lon="-6.5934890">
        <ele>514.2</ele>
        <time>2021-10-03T17:24:11Z</time>
      </trkpt>
      <trkpt lat="42.5429620" lon="-6.5935760">
        <ele>514.0</ele>
        <time>2021-10-03T17:24:18Z</time>
      </trkpt>
      <trkpt lat="42.5429800" lon="-6.5934630">
        <ele>514.6</ele>
        <time>2021-10-03T17:27:30Z</time>
      </trkpt>
      <trkpt lat="42.5429870" lon="-6.5934350">
        <ele>514.6</ele>
        <time>2021-10-03T17:27:31Z</time>
      </trkpt>
      <trkpt lat="42.5429960" lon="-6.5926880">
        <ele>514.0</ele>
        <time>2021-10-03T17:27:48Z</time>
      </trkpt>
      <trkpt lat="42.5428260" lon="-6.5919860">
        <ele>514.2</ele>
        <time>2021-10-03T17:28:06Z</time>
      </trkpt>
      <trkpt lat="42.5427850" lon="-6.5918970">
        <ele>514.0</ele>
        <time>2021-10-03T17:28:09Z</time>
      </trkpt>
      <trkpt lat="42.5427960" lon="-6.5918670">
        <ele>514.2</ele>
        <time>2021-10-03T17:28:12Z</time>
      </trkpt>
      <trkpt lat="42.5427910" lon="-6.5918810">
        <ele>514.8</ele>
        <time>2021-10-03T17:28:37Z</time>
      </trkpt>
      <trkpt lat="42.5428110" lon="-6.5919860">
        <ele>514.8</ele>
        <time>2021-10-03T17:28:40Z</time>
      </trkpt>
      <trkpt lat="42.5428220" lon="-6.5920290">
        <ele>514.6</ele>
        <time>2021-10-03T17:28:41Z</time>
      </trkpt>
      <trkpt lat="42.5430110" lon="-6.5926680">
        <ele>513.8</ele>
        <time>2021-10-03T17:28:54Z</time>
      </trkpt>
      <trkpt lat="42.5430330" lon="-6.5928080">
        <ele>513.6</ele>
        <time>2021-10-03T17:28:57Z</time>
      </trkpt>
      <trkpt lat="42.5430110" lon="-6.5931040">
        <ele>513.4</ele>
        <time>2021-10-03T17:29:02Z</time>
      </trkpt>
      <trkpt lat="42.5430180" lon="-6.5932890">
        <ele>513.2</ele>
        <time>2021-10-03T17:29:05Z</time>
      </trkpt>
      <trkpt lat="42.5430100" lon="-6.5939360">
        <ele>513.2</ele>
        <time>2021-10-03T17:29:15Z</time>
      </trkpt>
      <trkpt lat="42.5430880" lon="-6.5943060">
        <ele>513.2</ele>
        <time>2021-10-03T17:29:20Z</time>
      </trkpt>
      <trkpt lat="42.5431640" lon="-6.5944400">
        <ele>512.8</ele>
        <time>2021-10-03T17:29:22Z</time>
      </trkpt>
      <trkpt lat="42.5432570" lon="-6.5945680">
        <ele>512.0</ele>
        <time>2021-10-03T17:29:24Z</time>
      </trkpt>
      <trkpt lat="42.5433040" lon="-6.5946290">
        <ele>511.6</ele>
        <time>2021-10-03T17:29:25Z</time>
      </trkpt>
      <trkpt lat="42.5434510" lon="-6.5948240">
        <ele>510.0</ele>
        <time>2021-10-03T17:29:28Z</time>
      </trkpt>
      <trkpt lat="42.5435530" lon="-6.5949610">
        <ele>508.8</ele>
        <time>2021-10-03T17:29:30Z</time>
      </trkpt>
      <trkpt lat="42.5436580" lon="-6.5951100">
        <ele>507.4</ele>
        <time>2021-10-03T17:29:32Z</time>
      </trkpt>
      <trkpt lat="42.5437740" lon="-6.5952690">
        <ele>505.8</ele>
        <time>2021-10-03T17:29:34Z</time>
      </trkpt>
      <trkpt lat="42.5438950" lon="-6.5954340">
        <ele>504.2</ele>
        <time>2021-10-03T17:29:36Z</time>
      </trkpt>
      <trkpt lat="42.5440220" lon="-6.5956080">
        <ele>503.2</ele>
        <time>2021-10-03T17:29:38Z</time>
      </trkpt>
      <trkpt lat="42.5440880" lon="-6.5956960">
        <ele>502.2</ele>
        <time>2021-10-03T17:29:39Z</time>
      </trkpt>
      <trkpt lat="42.5441540" lon="-6.5957870">
        <ele>501.4</ele>
        <time>2021-10-03T17:29:40Z</time>
      </trkpt>
      <trkpt lat="42.5442850" lon="-6.5959670">
        <ele>499.4</ele>
        <time>2021-10-03T17:29:42Z</time>
      </trkpt>
      <trkpt lat="42.5444000" lon="-6.5961270">
        <ele>497.2</ele>
        <time>2021-10-03T17:29:44Z</time>
      </trkpt>
      <trkpt lat="42.5445080" lon="-6.5962690">
        <ele>496.2</ele>
        <time>2021-10-03T17:29:46Z</time>
      </trkpt>
      <trkpt lat="42.5445590" lon="-6.5963380">
        <ele>496.0</ele>
        <time>2021-10-03T17:29:47Z</time>
      </trkpt>
      <trkpt lat="42.5446930" lon="-6.5965310">
        <ele>495.8</ele>
        <time>2021-10-03T17:29:52Z</time>
      </trkpt>
      <trkpt lat="42.5447390" lon="-6.5965950">
        <ele>495.8</ele>
        <time>2021-10-03T17:29:54Z</time>
      </trkpt>
      <trkpt lat="42.5447710" lon="-6.5966190">
        <ele>496.0</ele>
        <time>2021-10-03T17:29:55Z</time>
      </trkpt>
      <trkpt lat="42.5448510" lon="-6.5966310">
        <ele>496.6</ele>
        <time>2021-10-03T17:29:57Z</time>
      </trkpt>
      <trkpt lat="42.5448940" lon="-6.5966230">
        <ele>496.6</ele>
        <time>2021-10-03T17:29:58Z</time>
      </trkpt>
      <trkpt lat="42.5450350" lon="-6.5964480">
        <ele>496.8</ele>
        <time>2021-10-03T17:30:03Z</time>
      </trkpt>
      <trkpt lat="42.5450540" lon="-6.5963920">
        <ele>496.8</ele>
        <time>2021-10-03T17:30:04Z</time>
      </trkpt>
      <trkpt lat="42.5452230" lon="-6.5957870">
        <ele>496.6</ele>
        <time>2021-10-03T17:30:15Z</time>
      </trkpt>
      <trkpt lat="42.5453030" lon="-6.5955100">
        <ele>497.0</ele>
        <time>2021-10-03T17:30:20Z</time>
      </trkpt>
      <trkpt lat="42.5454290" lon="-6.5950930">
        <ele>497.8</ele>
        <time>2021-10-03T17:30:27Z</time>
      </trkpt>
      <trkpt lat="42.5454830" lon="-6.5949020">
        <ele>497.8</ele>
        <time>2021-10-03T17:30:30Z</time>
      </trkpt>
      <trkpt lat="42.5455270" lon="-6.5947870">
        <ele>497.8</ele>
        <time>2021-10-03T17:30:32Z</time>
      </trkpt>
      <trkpt lat="42.5457690" lon="-6.5945230">
        <ele>497.6</ele>
        <time>2021-10-03T17:30:38Z</time>
      </trkpt>
      <trkpt lat="42.5459560" lon="-6.5944750">
        <ele>497.6</ele>
        <time>2021-10-03T17:30:42Z</time>
      </trkpt>
      <trkpt lat="42.5460990" lon="-6.5944460">
        <ele>497.8</ele>
        <time>2021-10-03T17:30:45Z</time>
      </trkpt>
      <trkpt lat="42.5462360" lon="-6.5944090">
        <ele>497.8</ele>
        <time>2021-10-03T17:30:48Z</time>
      </trkpt>
      <trkpt lat="42.5463270" lon="-6.5943850">
        <ele>498.0</ele>
        <time>2021-10-03T17:30:50Z</time>
      </trkpt>
      <trkpt lat="42.5463710" lon="-6.5943560">
        <ele>498.2</ele>
        <time>2021-10-03T17:30:51Z</time>
      </trkpt>
      <trkpt lat="42.5465460" lon="-6.5940970">
        <ele>498.0</ele>
        <time>2021-10-03T17:30:56Z</time>
      </trkpt>
      <trkpt lat="42.5466520" lon="-6.5939510">
        <ele>498.0</ele>
        <time>2021-10-03T17:30:59Z</time>
      </trkpt>
      <trkpt lat="42.5467380" lon="-6.5939120">
        <ele>498.0</ele>
        <time>2021-10-03T17:31:01Z</time>
      </trkpt>
      <trkpt lat="42.5468920" lon="-6.5939050">
        <ele>498.0</ele>
        <time>2021-10-03T17:31:05Z</time>
      </trkpt>
      <trkpt lat="42.5470010" lon="-6.5938960">
        <ele>498.0</ele>
        <time>2021-10-03T17:31:08Z</time>
      </trkpt>
      <trkpt lat="42.5470990" lon="-6.5939090">
        <ele>498.0</ele>
        <time>2021-10-03T17:31:12Z</time>
      </trkpt>
      <trkpt lat="42.5471290" lon="-6.5939180">
        <ele>498.0</ele>
        <time>2021-10-03T17:31:16Z</time>
      </trkpt>
      <trkpt lat="42.5471660" lon="-6.5939080">
        <ele>497.6</ele>
        <time>2021-10-03T17:31:21Z</time>
      </trkpt>
      <trkpt lat="42.5473690" lon="-6.5937980">
        <ele>497.4</ele>
        <time>2021-10-03T17:31:27Z</time>
      </trkpt>
      <trkpt lat="42.5474940" lon="-6.5937840">
        <ele>497.4</ele>
        <time>2021-10-03T17:31:29Z</time>
      </trkpt>
      <trkpt lat="42.5476150" lon="-6.5938660">
        <ele>497.2</ele>
        <time>2021-10-03T17:31:31Z</time>
      </trkpt>
      <trkpt lat="42.5476710" lon="-6.5940300">
        <ele>496.4</ele>
        <time>2021-10-03T17:31:33Z</time>
      </trkpt>
      <trkpt lat="42.5476920" lon="-6.5941220">
        <ele>495.8</ele>
        <time>2021-10-03T17:31:34Z</time>
      </trkpt>
      <trkpt lat="42.5477130" lon="-6.5942120">
        <ele>495.0</ele>
        <time>2021-10-03T17:31:35Z</time>
      </trkpt>
      <trkpt lat="42.5477580" lon="-6.5943780">
        <ele>493.2</ele>
        <time>2021-10-03T17:31:37Z</time>
      </trkpt>
      <trkpt lat="42.5477960" lon="-6.5945430">
        <ele>492.4</ele>
        <time>2021-10-03T17:31:39Z</time>
      </trkpt>
      <trkpt lat="42.5478120" lon="-6.5946290">
        <ele>492.0</ele>
        <time>2021-10-03T17:31:40Z</time>
      </trkpt>
      <trkpt lat="42.5478480" lon="-6.5947890">
        <ele>491.6</ele>
        <time>2021-10-03T17:31:42Z</time>
      </trkpt>
      <trkpt lat="42.5479900" lon="-6.5954420">
        <ele>491.6</ele>
        <time>2021-10-03T17:31:52Z</time>
      </trkpt>
      <trkpt lat="42.5481180" lon="-6.5961130">
        <ele>493.2</ele>
        <time>2021-10-03T17:32:04Z</time>
      </trkpt>
      <trkpt lat="42.5481460" lon="-6.5962630">
        <ele>493.8</ele>
        <time>2021-10-03T17:32:07Z</time>
      </trkpt>
      <trkpt lat="42.5591060" lon="-6.5887740">
        <ele>538.4</ele>
        <time>2021-10-04T09:15:42Z</time>
      </trkpt>
      <trkpt lat="42.5591180" lon="-6.5887950">
        <ele>540.8</ele>
        <time>2021-10-04T09:15:43Z</time>
      </trkpt>
      <trkpt lat="42.5591320" lon="-6.5888150">
        <ele>542.0</ele>
        <time>2021-10-04T09:15:44Z</time>
      </trkpt>
      <trkpt lat="42.5592010" lon="-6.5889020">
        <ele>542.4</ele>
        <time>2021-10-04T09:15:48Z</time>
      </trkpt>
      <trkpt lat="42.5596150" lon="-6.5894200">
        <ele>542.2</ele>
        <time>2021-10-04T09:16:04Z</time>
      </trkpt>
      <trkpt lat="42.5600240" lon="-6.5899380">
        <ele>541.6</ele>
        <time>2021-10-04T09:16:17Z</time>
      </trkpt>
      <trkpt lat="42.5603300" lon="-6.5903210">
        <ele>541.6</ele>
        <time>2021-10-04T09:16:26Z</time>
      </trkpt>
      <trkpt lat="42.5606780" lon="-6.5907790">
        <ele>541.8</ele>
        <time>2021-10-04T09:16:36Z</time>
      </trkpt>
      <trkpt lat="42.5608470" lon="-6.5910080">
        <ele>542.0</ele>
        <time>2021-10-04T09:16:41Z</time>
      </trkpt>
      <trkpt lat="42.5612530" lon="-6.5915540">
        <ele>542.8</ele>
        <time>2021-10-04T09:16:54Z</time>
      </trkpt>
      <trkpt lat="42.5613000" lon="-6.5916330">
        <ele>543.4</ele>
        <time>2021-10-04T09:16:56Z</time>
      </trkpt>
      <trkpt lat="42.5614540" lon="-6.5918660">
        <ele>544.4</ele>
        <time>2021-10-04T09:17:03Z</time>
      </trkpt>
      <trkpt lat="42.5618570" lon="-6.5924070">
        <ele>545.4</ele>
        <time>2021-10-04T09:17:22Z</time>
      </trkpt>
      <trkpt lat="42.5619920" lon="-6.5925920">
        <ele>545.4</ele>
        <time>2021-10-04T09:17:28Z</time>
      </trkpt>
      <trkpt lat="42.5621050" lon="-6.5927280">
        <ele>545.4</ele>
        <time>2021-10-04T09:17:33Z</time>
      </trkpt>
      <trkpt lat="42.5621860" lon="-6.5926950">
        <ele>545.4</ele>
        <time>2021-10-04T09:17:38Z</time>
      </trkpt>
      <trkpt lat="42.5622000" lon="-6.5926990">
        <ele>545.4</ele>
        <time>2021-10-04T09:17:39Z</time>
      </trkpt>
      <trkpt lat="42.5622720" lon="-6.5927540">
        <ele>545.6</ele>
        <time>2021-10-04T09:17:44Z</time>
      </trkpt>
      <trkpt lat="42.5626570" lon="-6.5932630">
        <ele>544.8</ele>
        <time>2021-10-04T09:18:13Z</time>
      </trkpt>
      <trkpt lat="42.5627330" lon="-6.5933710">
        <ele>544.4</ele>
        <time>2021-10-04T09:18:16Z</time>
      </trkpt>
      <trkpt lat="42.5628060" lon="-6.5934760">
        <ele>543.6</ele>
        <time>2021-10-04T09:18:19Z</time>
      </trkpt>
      <trkpt lat="42.5628660" lon="-6.5935890">
        <ele>543.4</ele>
        <time>2021-10-04T09:18:22Z</time>
      </trkpt>
      <trkpt lat="42.5628730" lon="-6.5936780">
        <ele>543.4</ele>
        <time>2021-10-04T09:18:24Z</time>
      </trkpt>
      <trkpt lat="42.5628620" lon="-6.5938180">
        <ele>543.4</ele>
        <time>2021-10-04T09:18:27Z</time>
      </trkpt>
      <trkpt lat="42.5629000" lon="-6.5940940">
        <ele>543.4</ele>
        <time>2021-10-04T09:18:33Z</time>
      </trkpt>
      <trkpt lat="42.5633430" lon="-6.5945630">
        <ele>543.2</ele>
        <time>2021-10-04T09:18:52Z</time>
      </trkpt>
      <trkpt lat="42.5634530" lon="-6.5947040">
        <ele>543.0</ele>
        <time>2021-10-04T09:18:56Z</time>
      </trkpt>
      <trkpt lat="42.5635110" lon="-6.5947770">
        <ele>543.0</ele>
        <time>2021-10-04T09:18:58Z</time>
      </trkpt>
      <trkpt lat="42.5635850" lon="-6.5948750">
        <ele>542.8</ele>
        <time>2021-10-04T09:19:01Z</time>
      </trkpt>
      <trkpt lat="42.5636580" lon="-6.5949670">
        <ele>542.2</ele>
        <time>2021-10-04T09:19:04Z</time>
      </trkpt>
      <trkpt lat="42.5636760" lon="-6.5949980">
        <ele>542.2</ele>
        <time>2021-10-04T09:19:05Z</time>
      </trkpt>
      <trkpt lat="42.5636710" lon="-6.5950850">
        <ele>542.0</ele>
        <time>2021-10-04T09:19:07Z</time>
      </trkpt>
      <trkpt lat="42.5635930" lon="-6.5952690">
        <ele>541.6</ele>
        <time>2021-10-04T09:19:11Z</time>
      </trkpt>
      <trkpt lat="42.5636650" lon="-6.5954380">
        <ele>541.4</ele>
        <time>2021-10-04T09:19:15Z</time>
      </trkpt>
      <trkpt lat="42.5636900" lon="-6.5954770">
        <ele>541.2</ele>
        <time>2021-10-04T09:19:16Z</time>
      </trkpt>
      <trkpt lat="42.5638320" lon="-6.5956620">
        <ele>541.0</ele>
        <time>2021-10-04T09:19:21Z</time>
      </trkpt>
      <trkpt lat="42.5640180" lon="-6.5958970">
        <ele>541.0</ele>
        <time>2021-10-04T09:19:27Z</time>
      </trkpt>
      <trkpt lat="42.5643150" lon="-6.5962800">
        <ele>540.6</ele>
        <time>2021-10-04T09:19:37Z</time>
      </trkpt>
      <trkpt lat="42.5644900" lon="-6.5965230">
        <ele>540.2</ele>
        <time>2021-10-04T09:19:44Z</time>
      </trkpt>
      <trkpt lat="42.5645450" lon="-6.5965910">
        <ele>540.2</ele>
        <time>2021-10-04T09:19:46Z</time>
      </trkpt>
      <trkpt lat="42.5647360" lon="-6.5968610">
        <ele>540.0</ele>
        <time>2021-10-04T09:19:53Z</time>
      </trkpt>
      <trkpt lat="42.5648500" lon="-6.5970110">
        <ele>539.8</ele>
        <time>2021-10-04T09:19:57Z</time>
      </trkpt>
      <trkpt lat="42.5648770" lon="-6.5970520">
        <ele>539.6</ele>
        <time>2021-10-04T09:19:58Z</time>
      </trkpt>
      <trkpt lat="42.5651320" lon="-6.5973870">
        <ele>539.6</ele>
        <time>2021-10-04T09:20:07Z</time>
      </trkpt>
      <trkpt lat="42.5654040" lon="-6.5977040">
        <ele>539.6</ele>
        <time>2021-10-04T09:20:17Z</time>
      </trkpt>
      <trkpt lat="42.5655920" lon="-6.5979040">
        <ele>539.8</ele>
        <time>2021-10-04T09:20:24Z</time>
      </trkpt>
      <trkpt lat="42.5660510" lon="-6.5983440">
        <ele>540.2</ele>
        <time>2021-10-04T09:20:40Z</time>
      </trkpt>
      <trkpt lat="42.5664370" lon="-6.5986820">
        <ele>540.4</ele>
        <time>2021-10-04T09:20:52Z</time>
      </trkpt>
      <trkpt lat="42.5668010" lon="-6.5990660">
        <ele>540.8</ele>
        <time>2021-10-04T09:21:06Z</time>
      </trkpt>
      <trkpt lat="42.5669340" lon="-6.5992180">
        <ele>541.2</ele>
        <time>2021-10-04T09:21:12Z</time>
      </trkpt>
      <trkpt lat="42.5673590" lon="-6.5997000">
        <ele>541.8</ele>
        <time>2021-10-04T09:21:31Z</time>
      </trkpt>
      <trkpt lat="42.5673740" lon="-6.5997080">
        <ele>542.2</ele>
        <time>2021-10-04T09:21:34Z</time>
      </trkpt>
      <trkpt lat="42.5673890" lon="-6.5997310">
        <ele>543.2</ele>
        <time>2021-10-04T09:22:21Z</time>
      </trkpt>
      <trkpt lat="42.5673990" lon="-6.5997470">
        <ele>543.2</ele>
        <time>2021-10-04T09:22:22Z</time>
      </trkpt>
      <trkpt lat="42.5674130" lon="-6.5997660">
        <ele>543.2</ele>
        <time>2021-10-04T09:22:23Z</time>
      </trkpt>
      <trkpt lat="42.5674490" lon="-6.5998120">
        <ele>543.2</ele>
        <time>2021-10-04T09:22:25Z</time>
      </trkpt>
      <trkpt lat="42.5675050" lon="-6.5998730">
        <ele>543.2</ele>
        <time>2021-10-04T09:22:27Z</time>
      </trkpt>
      <trkpt lat="42.5675700" lon="-6.5999500">
        <ele>543.2</ele>
        <time>2021-10-04T09:22:29Z</time>
      </trkpt>
      <trkpt lat="42.5676400" lon="-6.6000450">
        <ele>543.2</ele>
        <time>2021-10-04T09:22:31Z</time>
      </trkpt>
      <trkpt lat="42.5677110" lon="-6.6001300">
        <ele>543.0</ele>
        <time>2021-10-04T09:22:33Z</time>
      </trkpt>
      <trkpt lat="42.5678070" lon="-6.6002480">
        <ele>543.0</ele>
        <time>2021-10-04T09:22:36Z</time>
      </trkpt>
      <trkpt lat="42.5680300" lon="-6.6004370">
        <ele>543.0</ele>
        <time>2021-10-04T09:22:42Z</time>
      </trkpt>
      <trkpt lat="42.5682130" lon="-6.6006090">
        <ele>543.4</ele>
        <time>2021-10-04T09:22:46Z</time>
      </trkpt>
      <trkpt lat="42.5683020" lon="-6.6007050">
        <ele>543.4</ele>
        <time>2021-10-04T09:22:48Z</time>
      </trkpt>
      <trkpt lat="42.5683910" lon="-6.6007970">
        <ele>543.8</ele>
        <time>2021-10-04T09:22:50Z</time>
      </trkpt>
      <trkpt lat="42.5684790" lon="-6.6008830">
        <ele>544.2</ele>
        <time>2021-10-04T09:22:52Z</time>
      </trkpt>
      <trkpt lat="42.5685680" lon="-6.6009670">
        <ele>544.6</ele>
        <time>2021-10-04T09:22:54Z</time>
      </trkpt>
      <trkpt lat="42.5688920" lon="-6.6012360">
        <ele>545.4</ele>
        <time>2021-10-04T09:23:02Z</time>
      </trkpt>
      <trkpt lat="42.5690060" lon="-6.6012870">
        <ele>546.2</ele>
        <time>2021-10-04T09:23:06Z</time>
      </trkpt>
      <trkpt lat="42.5690290" lon="-6.6012930">
        <ele>546.6</ele>
        <time>2021-10-04T09:23:07Z</time>
      </trkpt>
      <trkpt lat="42.5690920" lon="-6.6013220">
        <ele>547.8</ele>
        <time>2021-10-04T09:23:10Z</time>
      </trkpt>
      <trkpt lat="42.5691590" lon="-6.6013550">
        <ele>548.8</ele>
        <time>2021-10-04T09:23:13Z</time>
      </trkpt>
      <trkpt lat="42.5692370" lon="-6.6013970">
        <ele>549.8</ele>
        <time>2021-10-04T09:23:16Z</time>
      </trkpt>
      <trkpt lat="42.5692650" lon="-6.6014100">
        <ele>550.0</ele>
        <time>2021-10-04T09:23:17Z</time>
      </trkpt>
      <trkpt lat="42.5693780" lon="-6.6014560">
        <ele>550.2</ele>
        <time>2021-10-04T09:23:21Z</time>
      </trkpt>
      <trkpt lat="42.5694290" lon="-6.6014690">
        <ele>550.4</ele>
        <time>2021-10-04T09:23:23Z</time>
      </trkpt>
      <trkpt lat="42.5694810" lon="-6.6014840">
        <ele>550.4</ele>
        <time>2021-10-04T09:23:25Z</time>
      </trkpt>
      <trkpt lat="42.5696780" lon="-6.6015400">
        <ele>550.4</ele>
        <time>2021-10-04T09:23:31Z</time>
      </trkpt>
      <trkpt lat="42.5697930" lon="-6.6016310">
        <ele>550.2</ele>
        <time>2021-10-04T09:23:34Z</time>
      </trkpt>
      <trkpt lat="42.5699680" lon="-6.6017690">
        <ele>548.8</ele>
        <time>2021-10-04T09:23:38Z</time>
      </trkpt>
      <trkpt lat="42.5701490" lon="-6.6018580">
        <ele>548.6</ele>
        <time>2021-10-04T09:23:41Z</time>
      </trkpt>
      <trkpt lat="42.5703190" lon="-6.6019340">
        <ele>548.2</ele>
        <time>2021-10-04T09:23:44Z</time>
      </trkpt>
      <trkpt lat="42.5703690" lon="-6.6019560">
        <ele>547.6</ele>
        <time>2021-10-04T09:23:45Z</time>
      </trkpt>
      <trkpt lat="42.5705100" lon="-6.6020140">
        <ele>546.8</ele>
        <time>2021-10-04T09:23:48Z</time>
      </trkpt>
      <trkpt lat="42.5705510" lon="-6.6020390">
        <ele>546.4</ele>
        <time>2021-10-04T09:23:49Z</time>
      </trkpt>
      <trkpt lat="42.5707280" lon="-6.6024050">
        <ele>545.8</ele>
        <time>2021-10-04T09:23:56Z</time>
      </trkpt>
      <trkpt lat="42.5708750" lon="-6.6029700">
        <ele>545.6</ele>
        <time>2021-10-04T09:24:05Z</time>
      </trkpt>
      <trkpt lat="42.5709430" lon="-6.6031270">
        <ele>545.6</ele>
        <time>2021-10-04T09:24:08Z</time>
      </trkpt>
      <trkpt lat="42.5710100" lon="-6.6032580">
        <ele>545.6</ele>
        <time>2021-10-04T09:24:11Z</time>
      </trkpt>
      <trkpt lat="42.5710570" lon="-6.6033390">
        <ele>545.8</ele>
        <time>2021-10-04T09:24:13Z</time>
      </trkpt>
      <trkpt lat="42.5711050" lon="-6.6034160">
        <ele>546.0</ele>
        <time>2021-10-04T09:24:15Z</time>
      </trkpt>
      <trkpt lat="42.5711560" lon="-6.6034900">
        <ele>546.6</ele>
        <time>2021-10-04T09:24:17Z</time>
      </trkpt>
      <trkpt lat="42.5712270" lon="-6.6035910">
        <ele>547.6</ele>
        <time>2021-10-04T09:24:20Z</time>
      </trkpt>
      <trkpt lat="42.5713110" lon="-6.6037120">
        <ele>549.0</ele>
        <time>2021-10-04T09:24:24Z</time>
      </trkpt>
      <trkpt lat="42.5713860" lon="-6.6037920">
        <ele>550.4</ele>
        <time>2021-10-04T09:24:27Z</time>
      </trkpt>
      <trkpt lat="42.5714720" lon="-6.6039040">
        <ele>551.4</ele>
        <time>2021-10-04T09:24:31Z</time>
      </trkpt>
      <trkpt lat="42.5715430" lon="-6.6039670">
        <ele>551.8</ele>
        <time>2021-10-04T09:24:34Z</time>
      </trkpt>
      <trkpt lat="42.5717330" lon="-6.6040320">
        <ele>552.2</ele>
        <time>2021-10-04T09:24:40Z</time>
      </trkpt>
      <trkpt lat="42.5719050" lon="-6.6041470">
        <ele>552.2</ele>
        <time>2021-10-04T09:24:45Z</time>
      </trkpt>
      <trkpt lat="42.5719970" lon="-6.6044580">
        <ele>552.2</ele>
        <time>2021-10-04T09:24:51Z</time>
      </trkpt>
      <trkpt lat="42.5720420" lon="-6.6046050">
        <ele>551.8</ele>
        <time>2021-10-04T09:24:54Z</time>
      </trkpt>
      <trkpt lat="42.5720710" lon="-6.6047010">
        <ele>551.6</ele>
        <time>2021-10-04T09:24:56Z</time>
      </trkpt>
      <trkpt lat="42.5721570" lon="-6.6049870">
        <ele>551.2</ele>
        <time>2021-10-04T09:25:02Z</time>
      </trkpt>
      <trkpt lat="42.5721810" lon="-6.6050860">
        <ele>551.2</ele>
        <time>2021-10-04T09:25:04Z</time>
      </trkpt>
      <trkpt lat="42.5722030" lon="-6.6052460">
        <ele>551.2</ele>
        <time>2021-10-04T09:25:07Z</time>
      </trkpt>
      <trkpt lat="42.5722170" lon="-6.6054610">
        <ele>551.0</ele>
        <time>2021-10-04T09:25:11Z</time>
      </trkpt>
      <trkpt lat="42.5722420" lon="-6.6056460">
        <ele>551.0</ele>
        <time>2021-10-04T09:25:14Z</time>
      </trkpt>
      <trkpt lat="42.5722700" lon="-6.6058710">
        <ele>550.8</ele>
        <time>2021-10-04T09:25:17Z</time>
      </trkpt>
      <trkpt lat="42.5723010" lon="-6.6062470">
        <ele>550.0</ele>
        <time>2021-10-04T09:25:21Z</time>
      </trkpt>
      <trkpt lat="42.5723200" lon="-6.6065600">
        <ele>548.6</ele>
        <time>2021-10-04T09:25:24Z</time>
      </trkpt>
      <trkpt lat="42.5723310" lon="-6.6067700">
        <ele>547.0</ele>
        <time>2021-10-04T09:25:26Z</time>
      </trkpt>
      <trkpt lat="42.5723470" lon="-6.6069720">
        <ele>545.4</ele>
        <time>2021-10-04T09:25:28Z</time>
      </trkpt>
      <trkpt lat="42.5723530" lon="-6.6071800">
        <ele>544.2</ele>
        <time>2021-10-04T09:25:30Z</time>
      </trkpt>
      <trkpt lat="42.5723630" lon="-6.6075060">
        <ele>543.0</ele>
        <time>2021-10-04T09:25:33Z</time>
      </trkpt>
      <trkpt lat="42.5723790" lon="-6.6077080">
        <ele>542.2</ele>
        <time>2021-10-04T09:25:35Z</time>
      </trkpt>
      <trkpt lat="42.5723920" lon="-6.6077990">
        <ele>541.8</ele>
        <time>2021-10-04T09:25:36Z</time>
      </trkpt>
      <trkpt lat="42.5724100" lon="-6.6078860">
        <ele>541.6</ele>
        <time>2021-10-04T09:25:37Z</time>
      </trkpt>
      <trkpt lat="42.5724900" lon="-6.6081090">
        <ele>540.4</ele>
        <time>2021-10-04T09:25:40Z</time>
      </trkpt>
      <trkpt lat="42.5725740" lon="-6.6083690">
        <ele>539.6</ele>
        <time>2021-10-04T09:25:45Z</time>
      </trkpt>
      <trkpt lat="42.5725810" lon="-6.6084270">
        <ele>539.4</ele>
        <time>2021-10-04T09:25:47Z</time>
      </trkpt>
      <trkpt lat="42.5725810" lon="-6.6084540">
        <ele>539.0</ele>
        <time>2021-10-04T09:25:49Z</time>
      </trkpt>
      <trkpt lat="42.5725810" lon="-6.6084540">
        <ele>538.6</ele>
        <time>2021-10-04T09:25:50Z</time>
      </trkpt>
      <trkpt lat="42.5725750" lon="-6.6084840">
        <ele>537.6</ele>
        <time>2021-10-04T09:26:25Z</time>
      </trkpt>
      <trkpt lat="42.5725660" lon="-6.6085450">
        <ele>537.6</ele>
        <time>2021-10-04T09:26:27Z</time>
      </trkpt>
      <trkpt lat="42.5725530" lon="-6.6086110">
        <ele>537.6</ele>
        <time>2021-10-04T09:26:29Z</time>
      </trkpt>
      <trkpt lat="42.5725520" lon="-6.6087980">
        <ele>537.4</ele>
        <time>2021-10-04T09:26:34Z</time>
      </trkpt>
      <trkpt lat="42.5725730" lon="-6.6089040">
        <ele>537.2</ele>
        <time>2021-10-04T09:26:36Z</time>
      </trkpt>
      <trkpt lat="42.5727040" lon="-6.6093000">
        <ele>536.6</ele>
        <time>2021-10-04T09:26:43Z</time>
      </trkpt>
      <trkpt lat="42.5727230" lon="-6.6093590">
        <ele>536.0</ele>
        <time>2021-10-04T09:26:44Z</time>
      </trkpt>
      <trkpt lat="42.5727630" lon="-6.6094830">
        <ele>535.4</ele>
        <time>2021-10-04T09:26:46Z</time>
      </trkpt>
      <trkpt lat="42.5728350" lon="-6.6097460">
        <ele>534.8</ele>
        <time>2021-10-04T09:26:50Z</time>
      </trkpt>
      <trkpt lat="42.5729500" lon="-6.6101260">
        <ele>533.6</ele>
        <time>2021-10-04T09:26:56Z</time>
      </trkpt>
      <trkpt lat="42.5729940" lon="-6.6102420">
        <ele>533.2</ele>
        <time>2021-10-04T09:26:58Z</time>
      </trkpt>
      <trkpt lat="42.5731790" lon="-6.6106390">
        <ele>532.6</ele>
        <time>2021-10-04T09:27:05Z</time>
      </trkpt>
      <trkpt lat="42.5732060" lon="-6.6106960">
        <ele>532.6</ele>
        <time>2021-10-04T09:27:06Z</time>
      </trkpt>
      <trkpt lat="42.5733670" lon="-6.6110730">
        <ele>531.6</ele>
        <time>2021-10-04T09:27:14Z</time>
      </trkpt>
      <trkpt lat="42.5737800" lon="-6.6115460">
        <ele>530.8</ele>
        <time>2021-10-04T09:27:29Z</time>
      </trkpt>
      <trkpt lat="42.5738770" lon="-6.6116400">
        <ele>530.4</ele>
        <time>2021-10-04T09:27:32Z</time>
      </trkpt>
      <trkpt lat="42.5741810" lon="-6.6119000">
        <ele>530.0</ele>
        <time>2021-10-04T09:27:41Z</time>
      </trkpt>
      <trkpt lat="42.5742640" lon="-6.6120200">
        <ele>530.0</ele>
        <time>2021-10-04T09:27:44Z</time>
      </trkpt>
      <trkpt lat="42.5742920" lon="-6.6120590">
        <ele>529.8</ele>
        <time>2021-10-04T09:27:45Z</time>
      </trkpt>
      <trkpt lat="42.5744490" lon="-6.6123290">
        <ele>529.6</ele>
        <time>2021-10-04T09:27:52Z</time>
      </trkpt>
      <trkpt lat="42.5745160" lon="-6.6126230">
        <ele>529.4</ele>
        <time>2021-10-04T09:27:58Z</time>
      </trkpt>
      <trkpt lat="42.5745250" lon="-6.6126800">
        <ele>529.4</ele>
        <time>2021-10-04T09:27:59Z</time>
      </trkpt>
      <trkpt lat="42.5745370" lon="-6.6128010">
        <ele>529.4</ele>
        <time>2021-10-04T09:28:01Z</time>
      </trkpt>
      <trkpt lat="42.5745590" lon="-6.6130540">
        <ele>528.8</ele>
        <time>2021-10-04T09:28:05Z</time>
      </trkpt>
      <trkpt lat="42.5745750" lon="-6.6134740">
        <ele>528.2</ele>
        <time>2021-10-04T09:28:12Z</time>
      </trkpt>
      <trkpt lat="42.5746390" lon="-6.6142160">
        <ele>527.8</ele>
        <time>2021-10-04T09:28:24Z</time>
      </trkpt>
      <trkpt lat="42.5746590" lon="-6.6144790">
        <ele>527.8</ele>
        <time>2021-10-04T09:28:28Z</time>
      </trkpt>
      <trkpt lat="42.5747170" lon="-6.6152680">
        <ele>527.4</ele>
        <time>2021-10-04T09:28:40Z</time>
      </trkpt>
      <trkpt lat="42.5747650" lon="-6.6157290">
        <ele>527.2</ele>
        <time>2021-10-04T09:28:47Z</time>
      </trkpt>
      <trkpt lat="42.5747800" lon="-6.6159240">
        <ele>527.2</ele>
        <time>2021-10-04T09:28:50Z</time>
      </trkpt>
      <trkpt lat="42.5748670" lon="-6.6166020">
        <ele>527.2</ele>
        <time>2021-10-04T09:29:01Z</time>
      </trkpt>
      <trkpt lat="42.5749100" lon="-6.6167660">
        <ele>527.0</ele>
        <time>2021-10-04T09:29:04Z</time>
      </trkpt>
      <trkpt lat="42.5749300" lon="-6.6168850">
        <ele>527.0</ele>
        <time>2021-10-04T09:29:06Z</time>
      </trkpt>
      <trkpt lat="42.5750610" lon="-6.6176330">
        <ele>526.6</ele>
        <time>2021-10-04T09:29:20Z</time>
      </trkpt>
      <trkpt lat="42.5750880" lon="-6.6178400">
        <ele>526.6</ele>
        <time>2021-10-04T09:29:24Z</time>
      </trkpt>
      <trkpt lat="42.5751060" lon="-6.6180100">
        <ele>526.6</ele>
        <time>2021-10-04T09:29:27Z</time>
      </trkpt>
      <trkpt lat="42.5751250" lon="-6.6181890">
        <ele>526.4</ele>
        <time>2021-10-04T09:29:30Z</time>
      </trkpt>
      <trkpt lat="42.5751440" lon="-6.6184520">
        <ele>526.2</ele>
        <time>2021-10-04T09:29:34Z</time>
      </trkpt>
      <trkpt lat="42.5751480" lon="-6.6185240">
        <ele>526.2</ele>
        <time>2021-10-04T09:29:35Z</time>
      </trkpt>
      <trkpt lat="42.5751540" lon="-6.6185960">
        <ele>526.0</ele>
        <time>2021-10-04T09:29:36Z</time>
      </trkpt>
      <trkpt lat="42.5752240" lon="-6.6192080">
        <ele>525.2</ele>
        <time>2021-10-04T09:29:45Z</time>
      </trkpt>
      <trkpt lat="42.5753090" lon="-6.6199740">
        <ele>525.0</ele>
        <time>2021-10-04T09:29:56Z</time>
      </trkpt>
      <trkpt lat="42.5753190" lon="-6.6202610">
        <ele>525.2</ele>
        <time>2021-10-04T09:30:00Z</time>
      </trkpt>
      <trkpt lat="42.5753230" lon="-6.6204070">
        <ele>524.8</ele>
        <time>2021-10-04T09:30:02Z</time>
      </trkpt>
      <trkpt lat="42.5753280" lon="-6.6208230">
        <ele>524.8</ele>
        <time>2021-10-04T09:30:08Z</time>
      </trkpt>
      <trkpt lat="42.5753450" lon="-6.6212790">
        <ele>524.6</ele>
        <time>2021-10-04T09:30:15Z</time>
      </trkpt>
      <trkpt lat="42.5753810" lon="-6.6216840">
        <ele>524.6</ele>
        <time>2021-10-04T09:30:21Z</time>
      </trkpt>
      <trkpt lat="42.5754440" lon="-6.6223690">
        <ele>524.0</ele>
        <time>2021-10-04T09:30:31Z</time>
      </trkpt>
      <trkpt lat="42.5754940" lon="-6.6230480">
        <ele>523.4</ele>
        <time>2021-10-04T09:30:41Z</time>
      </trkpt>
      <trkpt lat="42.5755380" lon="-6.6238220">
        <ele>523.0</ele>
        <time>2021-10-04T09:30:52Z</time>
      </trkpt>
      <trkpt lat="42.5755510" lon="-6.6239680">
        <ele>522.8</ele>
        <time>2021-10-04T09:30:54Z</time>
      </trkpt>
      <trkpt lat="42.5756070" lon="-6.6246980">
        <ele>522.4</ele>
        <time>2021-10-04T09:31:04Z</time>
      </trkpt>
      <trkpt lat="42.5757430" lon="-6.6254570">
        <ele>522.0</ele>
        <time>2021-10-04T09:31:15Z</time>
      </trkpt>
      <trkpt lat="42.5757870" lon="-6.6257320">
        <ele>521.8</ele>
        <time>2021-10-04T09:31:19Z</time>
      </trkpt>
      <trkpt lat="42.5758770" lon="-6.6265080">
        <ele>521.2</ele>
        <time>2021-10-04T09:31:30Z</time>
      </trkpt>
      <trkpt lat="42.5759410" lon="-6.6272350">
        <ele>520.8</ele>
        <time>2021-10-04T09:31:40Z</time>
      </trkpt>
      <trkpt lat="42.5759530" lon="-6.6273050">
        <ele>520.8</ele>
        <time>2021-10-04T09:31:41Z</time>
      </trkpt>
      <trkpt lat="42.5761290" lon="-6.6280000">
        <ele>520.4</ele>
        <time>2021-10-04T09:31:51Z</time>
      </trkpt>
      <trkpt lat="42.5763480" lon="-6.6285960">
        <ele>519.8</ele>
        <time>2021-10-04T09:32:00Z</time>
      </trkpt>
      <trkpt lat="42.5763740" lon="-6.6286560">
        <ele>519.6</ele>
        <time>2021-10-04T09:32:01Z</time>
      </trkpt>
      <trkpt lat="42.5766630" lon="-6.6292780">
        <ele>519.6</ele>
        <time>2021-10-04T09:32:12Z</time>
      </trkpt>
      <trkpt lat="42.5767550" lon="-6.6294200">
        <ele>519.6</ele>
        <time>2021-10-04T09:32:15Z</time>
      </trkpt>
      <trkpt lat="42.5769280" lon="-6.6297150">
        <ele>519.6</ele>
        <time>2021-10-04T09:32:21Z</time>
      </trkpt>
      <trkpt lat="42.5771670" lon="-6.6300530">
        <ele>518.8</ele>
        <time>2021-10-04T09:32:28Z</time>
      </trkpt>
      <trkpt lat="42.5772010" lon="-6.6301020">
        <ele>518.6</ele>
        <time>2021-10-04T09:32:29Z</time>
      </trkpt>
      <trkpt lat="42.5774290" lon="-6.6304440">
        <ele>518.0</ele>
        <time>2021-10-04T09:32:36Z</time>
      </trkpt>
      <trkpt lat="42.5775430" lon="-6.6306650">
        <ele>517.8</ele>
        <time>2021-10-04T09:32:40Z</time>
      </trkpt>
      <trkpt lat="42.5776640" lon="-6.6309000">
        <ele>517.6</ele>
        <time>2021-10-04T09:32:44Z</time>
      </trkpt>
      <trkpt lat="42.5776940" lon="-6.6309610">
        <ele>517.6</ele>
        <time>2021-10-04T09:32:45Z</time>
      </trkpt>
      <trkpt lat="42.5779690" lon="-6.6316580">
        <ele>516.8</ele>
        <time>2021-10-04T09:32:56Z</time>
      </trkpt>
      <trkpt lat="42.5781030" lon="-6.6322570">
        <ele>516.8</ele>
        <time>2021-10-04T09:33:05Z</time>
      </trkpt>
      <trkpt lat="42.5780180" lon="-6.6329330">
        <ele>516.4</ele>
        <time>2021-10-04T09:33:14Z</time>
      </trkpt>
      <trkpt lat="42.5778510" lon="-6.6336790">
        <ele>515.2</ele>
        <time>2021-10-04T09:33:24Z</time>
      </trkpt>
      <trkpt lat="42.5778340" lon="-6.6337520">
        <ele>515.2</ele>
        <time>2021-10-04T09:33:25Z</time>
      </trkpt>
      <trkpt lat="42.5776430" lon="-6.6344370">
        <ele>514.6</ele>
        <time>2021-10-04T09:33:35Z</time>
      </trkpt>
      <trkpt lat="42.5775160" lon="-6.6347990">
        <ele>514.8</ele>
        <time>2021-10-04T09:33:41Z</time>
      </trkpt>
      <trkpt lat="42.5772560" lon="-6.6355030">
        <ele>515.0</ele>
        <time>2021-10-04T09:33:53Z</time>
      </trkpt>
      <trkpt lat="42.5771000" lon="-6.6362270">
        <ele>514.2</ele>
        <time>2021-10-04T09:34:04Z</time>
      </trkpt>
      <trkpt lat="42.5770920" lon="-6.6362930">
        <ele>514.2</ele>
        <time>2021-10-04T09:34:05Z</time>
      </trkpt>
      <trkpt lat="42.5770510" lon="-6.6370800">
        <ele>514.2</ele>
        <time>2021-10-04T09:34:17Z</time>
      </trkpt>
      <trkpt lat="42.5769380" lon="-6.6376180">
        <ele>514.2</ele>
        <time>2021-10-04T09:34:26Z</time>
      </trkpt>
      <trkpt lat="42.5768520" lon="-6.6382410">
        <ele>514.2</ele>
        <time>2021-10-04T09:34:36Z</time>
      </trkpt>
      <trkpt lat="42.5768510" lon="-6.6383530">
        <ele>514.0</ele>
        <time>2021-10-04T09:34:38Z</time>
      </trkpt>
      <trkpt lat="42.5768540" lon="-6.6385050">
        <ele>514.0</ele>
        <time>2021-10-04T09:34:41Z</time>
      </trkpt>
      <trkpt lat="42.5767940" lon="-6.6388930">
        <ele>513.6</ele>
        <time>2021-10-04T09:34:49Z</time>
      </trkpt>
      <trkpt lat="42.5767870" lon="-6.6390660">
        <ele>513.4</ele>
        <time>2021-10-04T09:34:52Z</time>
      </trkpt>
      <trkpt lat="42.5767920" lon="-6.6392490">
        <ele>513.4</ele>
        <time>2021-10-04T09:34:55Z</time>
      </trkpt>
      <trkpt lat="42.5768020" lon="-6.6393650">
        <ele>513.0</ele>
        <time>2021-10-04T09:34:57Z</time>
      </trkpt>
      <trkpt lat="42.5768180" lon="-6.6394750">
        <ele>513.0</ele>
        <time>2021-10-04T09:34:59Z</time>
      </trkpt>
      <trkpt lat="42.5770330" lon="-6.6401600">
        <ele>512.4</ele>
        <time>2021-10-04T09:35:12Z</time>
      </trkpt>
      <trkpt lat="42.5771940" lon="-6.6406060">
        <ele>512.4</ele>
        <time>2021-10-04T09:35:20Z</time>
      </trkpt>
      <trkpt lat="42.5772150" lon="-6.6406570">
        <ele>512.4</ele>
        <time>2021-10-04T09:35:21Z</time>
      </trkpt>
      <trkpt lat="42.5773110" lon="-6.6409160">
        <ele>512.2</ele>
        <time>2021-10-04T09:35:26Z</time>
      </trkpt>
      <trkpt lat="42.5773620" lon="-6.6413300">
        <ele>511.8</ele>
        <time>2021-10-04T09:35:33Z</time>
      </trkpt>
      <trkpt lat="42.5773740" lon="-6.6420960">
        <ele>511.6</ele>
        <time>2021-10-04T09:35:45Z</time>
      </trkpt>
      <trkpt lat="42.5773730" lon="-6.6422820">
        <ele>511.6</ele>
        <time>2021-10-04T09:35:48Z</time>
      </trkpt>
      <trkpt lat="42.5773820" lon="-6.6426110">
        <ele>511.2</ele>
        <time>2021-10-04T09:35:54Z</time>
      </trkpt>
      <trkpt lat="42.5773610" lon="-6.6431860">
        <ele>511.4</ele>
        <time>2021-10-04T09:36:06Z</time>
      </trkpt>
      <trkpt lat="42.5773520" lon="-6.6432670">
        <ele>511.6</ele>
        <time>2021-10-04T09:36:11Z</time>
      </trkpt>
      <trkpt lat="42.5773040" lon="-6.6433320">
        <ele>512.2</ele>
        <time>2021-10-04T09:36:59Z</time>
      </trkpt>
      <trkpt lat="42.5773080" lon="-6.6433490">
        <ele>512.2</ele>
        <time>2021-10-04T09:37:00Z</time>
      </trkpt>
      <trkpt lat="42.5773140" lon="-6.6433690">
        <ele>512.2</ele>
        <time>2021-10-04T09:37:03Z</time>
      </trkpt>
      <trkpt lat="42.5773420" lon="-6.6434540">
        <ele>512.4</ele>
        <time>2021-10-04T09:43:16Z</time>
      </trkpt>
      <trkpt lat="42.5773580" lon="-6.6435200">
        <ele>512.2</ele>
        <time>2021-10-04T09:43:19Z</time>
      </trkpt>
      <trkpt lat="42.5773880" lon="-6.6436190">
        <ele>512.0</ele>
        <time>2021-10-04T09:43:22Z</time>
      </trkpt>
      <trkpt lat="42.5774000" lon="-6.6438990">
        <ele>511.6</ele>
        <time>2021-10-04T09:43:28Z</time>
      </trkpt>
      <trkpt lat="42.5774040" lon="-6.6445930">
        <ele>511.2</ele>
        <time>2021-10-04T09:43:40Z</time>
      </trkpt>
      <trkpt lat="42.5774190" lon="-6.6447710">
        <ele>511.0</ele>
        <time>2021-10-04T09:43:43Z</time>
      </trkpt>
      <trkpt lat="42.5774210" lon="-6.6448330">
        <ele>511.0</ele>
        <time>2021-10-04T09:43:44Z</time>
      </trkpt>
      <trkpt lat="42.5774060" lon="-6.6450870">
        <ele>510.8</ele>
        <time>2021-10-04T09:43:48Z</time>
      </trkpt>
      <trkpt lat="42.5773850" lon="-6.6452790">
        <ele>510.4</ele>
        <time>2021-10-04T09:43:51Z</time>
      </trkpt>
      <trkpt lat="42.5773840" lon="-6.6454150">
        <ele>510.2</ele>
        <time>2021-10-04T09:43:53Z</time>
      </trkpt>
      <trkpt lat="42.5773680" lon="-6.6456260">
        <ele>509.8</ele>
        <time>2021-10-04T09:43:56Z</time>
      </trkpt>
      <trkpt lat="42.5773110" lon="-6.6461340">
        <ele>509.6</ele>
        <time>2021-10-04T09:44:03Z</time>
      </trkpt>
      <trkpt lat="42.5772310" lon="-6.6467260">
        <ele>509.6</ele>
        <time>2021-10-04T09:44:11Z</time>
      </trkpt>
      <trkpt lat="42.5772100" lon="-6.6468670">
        <ele>509.6</ele>
        <time>2021-10-04T09:44:13Z</time>
      </trkpt>
      <trkpt lat="42.5772030" lon="-6.6469390">
        <ele>509.6</ele>
        <time>2021-10-04T09:44:14Z</time>
      </trkpt>
      <trkpt lat="42.5771880" lon="-6.6472340">
        <ele>509.6</ele>
        <time>2021-10-04T09:44:18Z</time>
      </trkpt>
      <trkpt lat="42.5771740" lon="-6.6475090">
        <ele>509.4</ele>
        <time>2021-10-04T09:44:22Z</time>
      </trkpt>
      <trkpt lat="42.5771740" lon="-6.6475700">
        <ele>509.2</ele>
        <time>2021-10-04T09:44:23Z</time>
      </trkpt>
      <trkpt lat="42.5771280" lon="-6.6482270">
        <ele>508.6</ele>
        <time>2021-10-04T09:44:33Z</time>
      </trkpt>
      <trkpt lat="42.5770950" lon="-6.6485750">
        <ele>508.2</ele>
        <time>2021-10-04T09:44:38Z</time>
      </trkpt>
      <trkpt lat="42.5770900" lon="-6.6486480">
        <ele>508.2</ele>
        <time>2021-10-04T09:44:39Z</time>
      </trkpt>
      <trkpt lat="42.5770730" lon="-6.6488710">
        <ele>507.8</ele>
        <time>2021-10-04T09:44:42Z</time>
      </trkpt>
      <trkpt lat="42.5770090" lon="-6.6496140">
        <ele>507.4</ele>
        <time>2021-10-04T09:44:52Z</time>
      </trkpt>
      <trkpt lat="42.5769710" lon="-6.6503770">
        <ele>507.6</ele>
        <time>2021-10-04T09:45:02Z</time>
      </trkpt>
      <trkpt lat="42.5769690" lon="-6.6511740">
        <ele>506.8</ele>
        <time>2021-10-04T09:45:12Z</time>
      </trkpt>
      <trkpt lat="42.5770120" lon="-6.6519290">
        <ele>506.2</ele>
        <time>2021-10-04T09:45:21Z</time>
      </trkpt>
      <trkpt lat="42.5770920" lon="-6.6527080">
        <ele>506.0</ele>
        <time>2021-10-04T09:45:30Z</time>
      </trkpt>
      <trkpt lat="42.5771240" lon="-6.6529760">
        <ele>505.8</ele>
        <time>2021-10-04T09:45:33Z</time>
      </trkpt>
      <trkpt lat="42.5771520" lon="-6.6535190">
        <ele>504.8</ele>
        <time>2021-10-04T09:45:39Z</time>
      </trkpt>
      <trkpt lat="42.5770190" lon="-6.6542930">
        <ele>507.2</ele>
        <time>2021-10-04T09:45:48Z</time>
      </trkpt>
      <trkpt lat="42.5769400" lon="-6.6550850">
        <ele>504.4</ele>
        <time>2021-10-04T09:45:57Z</time>
      </trkpt>
      <trkpt lat="42.5769910" lon="-6.6555320">
        <ele>503.6</ele>
        <time>2021-10-04T09:46:02Z</time>
      </trkpt>
      <trkpt lat="42.5770230" lon="-6.6563330">
        <ele>503.2</ele>
        <time>2021-10-04T09:46:11Z</time>
      </trkpt>
      <trkpt lat="42.5769790" lon="-6.6569430">
        <ele>503.2</ele>
        <time>2021-10-04T09:46:18Z</time>
      </trkpt>
      <trkpt lat="42.5768990" lon="-6.6572880">
        <ele>503.0</ele>
        <time>2021-10-04T09:46:22Z</time>
      </trkpt>
      <trkpt lat="42.5765810" lon="-6.6579550">
        <ele>503.0</ele>
        <time>2021-10-04T09:46:31Z</time>
      </trkpt>
      <trkpt lat="42.5764960" lon="-6.6581790">
        <ele>502.6</ele>
        <time>2021-10-04T09:46:34Z</time>
      </trkpt>
      <trkpt lat="42.5763380" lon="-6.6588810">
        <ele>502.2</ele>
        <time>2021-10-04T09:46:43Z</time>
      </trkpt>
      <trkpt lat="42.5762910" lon="-6.6592020">
        <ele>502.2</ele>
        <time>2021-10-04T09:46:47Z</time>
      </trkpt>
      <trkpt lat="42.5762530" lon="-6.6594340">
        <ele>502.2</ele>
        <time>2021-10-04T09:46:50Z</time>
      </trkpt>
      <trkpt lat="42.5761590" lon="-6.6601940">
        <ele>502.0</ele>
        <time>2021-10-04T09:47:00Z</time>
      </trkpt>
      <trkpt lat="42.5761360" lon="-6.6604150">
        <ele>502.0</ele>
        <time>2021-10-04T09:47:03Z</time>
      </trkpt>
      <trkpt lat="42.5761620" lon="-6.6610110">
        <ele>502.0</ele>
        <time>2021-10-04T09:47:17Z</time>
      </trkpt>
      <trkpt lat="42.5762030" lon="-6.6611180">
        <ele>502.0</ele>
        <time>2021-10-04T09:47:19Z</time>
      </trkpt>
      <trkpt lat="42.5765040" lon="-6.6617650">
        <ele>501.4</ele>
        <time>2021-10-04T09:47:30Z</time>
      </trkpt>
      <trkpt lat="42.5767200" lon="-6.6622740">
        <ele>500.4</ele>
        <time>2021-10-04T09:47:38Z</time>
      </trkpt>
      <trkpt lat="42.5767730" lon="-6.6624060">
        <ele>500.2</ele>
        <time>2021-10-04T09:47:40Z</time>
      </trkpt>
      <trkpt lat="42.5768530" lon="-6.6626080">
        <ele>499.8</ele>
        <time>2021-10-04T09:47:43Z</time>
      </trkpt>
      <trkpt lat="42.5769750" lon="-6.6629480">
        <ele>499.2</ele>
        <time>2021-10-04T09:47:48Z</time>
      </trkpt>
      <trkpt lat="42.5770730" lon="-6.6632290">
        <ele>499.0</ele>
        <time>2021-10-04T09:47:52Z</time>
      </trkpt>
      <trkpt lat="42.5771420" lon="-6.6634450">
        <ele>499.0</ele>
        <time>2021-10-04T09:47:55Z</time>
      </trkpt>
      <trkpt lat="42.5773720" lon="-6.6640790">
        <ele>498.8</ele>
        <time>2021-10-04T09:48:04Z</time>
      </trkpt>
      <trkpt lat="42.5775430" lon="-6.6645670">
        <ele>498.6</ele>
        <time>2021-10-04T09:48:11Z</time>
      </trkpt>
      <trkpt lat="42.5775890" lon="-6.6647050">
        <ele>498.6</ele>
        <time>2021-10-04T09:48:13Z</time>
      </trkpt>
      <trkpt lat="42.5777040" lon="-6.6650440">
        <ele>498.4</ele>
        <time>2021-10-04T09:48:18Z</time>
      </trkpt>
      <trkpt lat="42.5779200" lon="-6.6655820">
        <ele>498.2</ele>
        <time>2021-10-04T09:48:26Z</time>
      </trkpt>
      <trkpt lat="42.5780290" lon="-6.6658530">
        <ele>497.8</ele>
        <time>2021-10-04T09:48:30Z</time>
      </trkpt>
      <trkpt lat="42.5782110" lon="-6.6662400">
        <ele>497.2</ele>
        <time>2021-10-04T09:48:36Z</time>
      </trkpt>
      <trkpt lat="42.5785960" lon="-6.6668330">
        <ele>497.2</ele>
        <time>2021-10-04T09:48:47Z</time>
      </trkpt>
      <trkpt lat="42.5786960" lon="-6.6669800">
        <ele>497.2</ele>
        <time>2021-10-04T09:48:50Z</time>
      </trkpt>
      <trkpt lat="42.5787900" lon="-6.6670230">
        <ele>497.2</ele>
        <time>2021-10-04T09:48:52Z</time>
      </trkpt>
      <trkpt lat="42.5789280" lon="-6.6671160">
        <ele>497.2</ele>
        <time>2021-10-04T09:48:55Z</time>
      </trkpt>
      <trkpt lat="42.5789880" lon="-6.6673390">
        <ele>497.2</ele>
        <time>2021-10-04T09:48:58Z</time>
      </trkpt>
      <trkpt lat="42.5790050" lon="-6.6674140">
        <ele>497.2</ele>
        <time>2021-10-04T09:48:59Z</time>
      </trkpt>
      <trkpt lat="42.5793270" lon="-6.6680340">
        <ele>496.4</ele>
        <time>2021-10-04T09:49:08Z</time>
      </trkpt>
      <trkpt lat="42.5794250" lon="-6.6682570">
        <ele>495.8</ele>
        <time>2021-10-04T09:49:11Z</time>
      </trkpt>
      <trkpt lat="42.5797120" lon="-6.6689040">
        <ele>495.8</ele>
        <time>2021-10-04T09:49:20Z</time>
      </trkpt>
      <trkpt lat="42.5800090" lon="-6.6695890">
        <ele>496.0</ele>
        <time>2021-10-04T09:49:30Z</time>
      </trkpt>
      <trkpt lat="42.5803050" lon="-6.6702870">
        <ele>496.0</ele>
        <time>2021-10-04T09:49:40Z</time>
      </trkpt>
      <trkpt lat="42.5806150" lon="-6.6709630">
        <ele>495.6</ele>
        <time>2021-10-04T09:49:50Z</time>
      </trkpt>
      <trkpt lat="42.5807610" lon="-6.6712940">
        <ele>495.6</ele>
        <time>2021-10-04T09:49:55Z</time>
      </trkpt>
      <trkpt lat="42.5810580" lon="-6.6719480">
        <ele>496.0</ele>
        <time>2021-10-04T09:50:05Z</time>
      </trkpt>
      <trkpt lat="42.5813710" lon="-6.6723910">
        <ele>496.2</ele>
        <time>2021-10-04T09:50:13Z</time>
      </trkpt>
      <trkpt lat="42.5814170" lon="-6.6724380">
        <ele>496.2</ele>
        <time>2021-10-04T09:50:14Z</time>
      </trkpt>
      <trkpt lat="42.5818640" lon="-6.6728930">
        <ele>496.8</ele>
        <time>2021-10-04T09:50:24Z</time>
      </trkpt>
      <trkpt lat="42.5821680" lon="-6.6732100">
        <ele>497.2</ele>
        <time>2021-10-04T09:50:31Z</time>
      </trkpt>
      <trkpt lat="42.5823480" lon="-6.6734010">
        <ele>497.2</ele>
        <time>2021-10-04T09:50:35Z</time>
      </trkpt>
      <trkpt lat="42.5826920" lon="-6.6737690">
        <ele>497.8</ele>
        <time>2021-10-04T09:50:43Z</time>
      </trkpt>
      <trkpt lat="42.5831060" lon="-6.6742200">
        <ele>498.6</ele>
        <time>2021-10-04T09:50:53Z</time>
      </trkpt>
      <trkpt lat="42.5832980" lon="-6.6744350">
        <ele>499.0</ele>
        <time>2021-10-04T09:50:58Z</time>
      </trkpt>
      <trkpt lat="42.5833710" lon="-6.6745060">
        <ele>499.2</ele>
        <time>2021-10-04T09:51:00Z</time>
      </trkpt>
      <trkpt lat="42.5835860" lon="-6.6746690">
        <ele>499.2</ele>
        <time>2021-10-04T09:51:05Z</time>
      </trkpt>
      <trkpt lat="42.5837920" lon="-6.6749420">
        <ele>499.6</ele>
        <time>2021-10-04T09:51:11Z</time>
      </trkpt>
      <trkpt lat="42.5839420" lon="-6.6750770">
        <ele>499.8</ele>
        <time>2021-10-04T09:51:15Z</time>
      </trkpt>
      <trkpt lat="42.5840490" lon="-6.6751730">
        <ele>499.8</ele>
        <time>2021-10-04T09:51:18Z</time>
      </trkpt>
      <trkpt lat="42.5841360" lon="-6.6753220">
        <ele>500.0</ele>
        <time>2021-10-04T09:51:21Z</time>
      </trkpt>
      <trkpt lat="42.5842680" lon="-6.6755120">
        <ele>500.6</ele>
        <time>2021-10-04T09:51:25Z</time>
      </trkpt>
      <trkpt lat="42.5843380" lon="-6.6756080">
        <ele>500.8</ele>
        <time>2021-10-04T09:51:27Z</time>
      </trkpt>
      <trkpt lat="42.5844080" lon="-6.6757030">
        <ele>500.8</ele>
        <time>2021-10-04T09:51:29Z</time>
      </trkpt>
      <trkpt lat="42.5845070" lon="-6.6758310">
        <ele>501.2</ele>
        <time>2021-10-04T09:51:32Z</time>
      </trkpt>
      <trkpt lat="42.5845990" lon="-6.6759510">
        <ele>501.8</ele>
        <time>2021-10-04T09:51:35Z</time>
      </trkpt>
      <trkpt lat="42.5846990" lon="-6.6760960">
        <ele>503.0</ele>
        <time>2021-10-04T09:51:39Z</time>
      </trkpt>
      <trkpt lat="42.5847780" lon="-6.6761450">
        <ele>504.0</ele>
        <time>2021-10-04T09:51:42Z</time>
      </trkpt>
      <trkpt lat="42.5848690" lon="-6.6762010">
        <ele>505.2</ele>
        <time>2021-10-04T09:51:46Z</time>
      </trkpt>
      <trkpt lat="42.5849400" lon="-6.6762850">
        <ele>506.4</ele>
        <time>2021-10-04T09:51:50Z</time>
      </trkpt>
      <trkpt lat="42.5850120" lon="-6.6763690">
        <ele>507.4</ele>
        <time>2021-10-04T09:51:53Z</time>
      </trkpt>
      <trkpt lat="42.5851160" lon="-6.6765100">
        <ele>508.6</ele>
        <time>2021-10-04T09:51:58Z</time>
      </trkpt>
      <trkpt lat="42.5852000" lon="-6.6766390">
        <ele>510.0</ele>
        <time>2021-10-04T09:52:02Z</time>
      </trkpt>
      <trkpt lat="42.5852880" lon="-6.6767190">
        <ele>511.0</ele>
        <time>2021-10-04T09:52:05Z</time>
      </trkpt>
      <trkpt lat="42.5854600" lon="-6.6768940">
        <ele>512.0</ele>
        <time>2021-10-04T09:52:11Z</time>
      </trkpt>
      <trkpt lat="42.5856260" lon="-6.6770460">
        <ele>513.0</ele>
        <time>2021-10-04T09:52:17Z</time>
      </trkpt>
      <trkpt lat="42.5858000" lon="-6.6772260">
        <ele>514.6</ele>
        <time>2021-10-04T09:52:24Z</time>
      </trkpt>
      <trkpt lat="42.5859270" lon="-6.6773510">
        <ele>515.8</ele>
        <time>2021-10-04T09:52:29Z</time>
      </trkpt>
      <trkpt lat="42.5860490" lon="-6.6774780">
        <ele>516.8</ele>
        <time>2021-10-04T09:52:34Z</time>
      </trkpt>
      <trkpt lat="42.5861330" lon="-6.6775730">
        <ele>517.8</ele>
        <time>2021-10-04T09:52:39Z</time>
      </trkpt>
      <trkpt lat="42.5861490" lon="-6.6775780">
        <ele>518.2</ele>
        <time>2021-10-04T09:52:40Z</time>
      </trkpt>
      <trkpt lat="42.5862270" lon="-6.6776170">
        <ele>519.4</ele>
        <time>2021-10-04T09:52:44Z</time>
      </trkpt>
      <trkpt lat="42.5863290" lon="-6.6777070">
        <ele>520.0</ele>
        <time>2021-10-04T09:52:48Z</time>
      </trkpt>
      <trkpt lat="42.5866430" lon="-6.6780400">
        <ele>520.6</ele>
        <time>2021-10-04T09:53:00Z</time>
      </trkpt>
      <trkpt lat="42.5867940" lon="-6.6782240">
        <ele>521.8</ele>
        <time>2021-10-04T09:53:06Z</time>
      </trkpt>
      <trkpt lat="42.5870200" lon="-6.6785120">
        <ele>522.8</ele>
        <time>2021-10-04T09:53:15Z</time>
      </trkpt>
      <trkpt lat="42.5870940" lon="-6.6786070">
        <ele>523.4</ele>
        <time>2021-10-04T09:53:18Z</time>
      </trkpt>
      <trkpt lat="42.5871690" lon="-6.6787000">
        <ele>523.6</ele>
        <time>2021-10-04T09:53:21Z</time>
      </trkpt>
      <trkpt lat="42.5872600" lon="-6.6788230">
        <ele>523.8</ele>
        <time>2021-10-04T09:53:25Z</time>
      </trkpt>
      <trkpt lat="42.5873460" lon="-6.6791130">
        <ele>525.0</ele>
        <time>2021-10-04T09:53:32Z</time>
      </trkpt>
      <trkpt lat="42.5873420" lon="-6.6792810">
        <ele>525.2</ele>
        <time>2021-10-04T09:53:36Z</time>
      </trkpt>
      <trkpt lat="42.5873120" lon="-6.6794000">
        <ele>525.4</ele>
        <time>2021-10-04T09:53:39Z</time>
      </trkpt>
      <trkpt lat="42.5872850" lon="-6.6794790">
        <ele>526.0</ele>
        <time>2021-10-04T09:53:41Z</time>
      </trkpt>
      <trkpt lat="42.5872350" lon="-6.6795950">
        <ele>526.8</ele>
        <time>2021-10-04T09:53:44Z</time>
      </trkpt>
      <trkpt lat="42.5872190" lon="-6.6796310">
        <ele>527.2</ele>
        <time>2021-10-04T09:53:45Z</time>
      </trkpt>
      <trkpt lat="42.5871470" lon="-6.6797890">
        <ele>528.2</ele>
        <time>2021-10-04T09:53:49Z</time>
      </trkpt>
      <trkpt lat="42.5870930" lon="-6.6799120">
        <ele>529.4</ele>
        <time>2021-10-04T09:53:52Z</time>
      </trkpt>
      <trkpt lat="42.5870310" lon="-6.6800900">
        <ele>530.2</ele>
        <time>2021-10-04T09:53:56Z</time>
      </trkpt>
      <trkpt lat="42.5870040" lon="-6.6801880">
        <ele>530.4</ele>
        <time>2021-10-04T09:53:58Z</time>
      </trkpt>
      <trkpt lat="42.5869780" lon="-6.6803400">
        <ele>530.8</ele>
        <time>2021-10-04T09:54:01Z</time>
      </trkpt>
      <trkpt lat="42.5869750" lon="-6.6804940">
        <ele>531.0</ele>
        <time>2021-10-04T09:54:04Z</time>
      </trkpt>
      <trkpt lat="42.5869900" lon="-6.6806310">
        <ele>531.0</ele>
        <time>2021-10-04T09:54:07Z</time>
      </trkpt>
      <trkpt lat="42.5870050" lon="-6.6807080">
        <ele>531.0</ele>
        <time>2021-10-04T09:54:09Z</time>
      </trkpt>
      <trkpt lat="42.5870160" lon="-6.6808130">
        <ele>531.2</ele>
        <time>2021-10-04T09:54:12Z</time>
      </trkpt>
      <trkpt lat="42.5870380" lon="-6.6809360">
        <ele>531.6</ele>
        <time>2021-10-04T09:54:15Z</time>
      </trkpt>
      <trkpt lat="42.5872200" lon="-6.6813260">
        <ele>532.0</ele>
        <time>2021-10-04T09:54:24Z</time>
      </trkpt>
      <trkpt lat="42.5872680" lon="-6.6814210">
        <ele>532.0</ele>
        <time>2021-10-04T09:54:26Z</time>
      </trkpt>
      <trkpt lat="42.5874240" lon="-6.6817570">
        <ele>531.2</ele>
        <time>2021-10-04T09:54:32Z</time>
      </trkpt>
      <trkpt lat="42.5876100" lon="-6.6820290">
        <ele>530.4</ele>
        <time>2021-10-04T09:54:37Z</time>
      </trkpt>
      <trkpt lat="42.5877280" lon="-6.6821930">
        <ele>529.0</ele>
        <time>2021-10-04T09:54:40Z</time>
      </trkpt>
      <trkpt lat="42.5878040" lon="-6.6823140">
        <ele>528.0</ele>
        <time>2021-10-04T09:54:42Z</time>
      </trkpt>
      <trkpt lat="42.5879410" lon="-6.6825810">
        <ele>527.0</ele>
        <time>2021-10-04T09:54:46Z</time>
      </trkpt>
      <trkpt lat="42.5880080" lon="-6.6827210">
        <ele>526.6</ele>
        <time>2021-10-04T09:54:48Z</time>
      </trkpt>
      <trkpt lat="42.5881100" lon="-6.6829370">
        <ele>526.2</ele>
        <time>2021-10-04T09:54:51Z</time>
      </trkpt>
      <trkpt lat="42.5881770" lon="-6.6830910">
        <ele>526.0</ele>
        <time>2021-10-04T09:54:53Z</time>
      </trkpt>
      <trkpt lat="42.5882110" lon="-6.6831700">
        <ele>525.6</ele>
        <time>2021-10-04T09:54:54Z</time>
      </trkpt>
      <trkpt lat="42.5882730" lon="-6.6833390">
        <ele>525.0</ele>
        <time>2021-10-04T09:54:56Z</time>
      </trkpt>
      <trkpt lat="42.5882960" lon="-6.6834290">
        <ele>524.8</ele>
        <time>2021-10-04T09:54:57Z</time>
      </trkpt>
      <trkpt lat="42.5883240" lon="-6.6836160">
        <ele>524.4</ele>
        <time>2021-10-04T09:54:59Z</time>
      </trkpt>
      <trkpt lat="42.5883300" lon="-6.6838000">
        <ele>524.0</ele>
        <time>2021-10-04T09:55:01Z</time>
      </trkpt>
      <trkpt lat="42.5883280" lon="-6.6838910">
        <ele>523.4</ele>
        <time>2021-10-04T09:55:02Z</time>
      </trkpt>
      <trkpt lat="42.5883240" lon="-6.6839790">
        <ele>523.0</ele>
        <time>2021-10-04T09:55:03Z</time>
      </trkpt>
      <trkpt lat="42.5883050" lon="-6.6843060">
        <ele>522.4</ele>
        <time>2021-10-04T09:55:07Z</time>
      </trkpt>
      <trkpt lat="42.5883150" lon="-6.6847130">
        <ele>522.4</ele>
        <time>2021-10-04T09:55:13Z</time>
      </trkpt>
      <trkpt lat="42.5883950" lon="-6.6851990">
        <ele>523.0</ele>
        <time>2021-10-04T09:55:21Z</time>
      </trkpt>
      <trkpt lat="42.5884140" lon="-6.6853390">
        <ele>523.0</ele>
        <time>2021-10-04T09:55:23Z</time>
      </trkpt>
      <trkpt lat="42.5885110" lon="-6.6858880">
        <ele>521.8</ele>
        <time>2021-10-04T09:55:31Z</time>
      </trkpt>
      <trkpt lat="42.5885220" lon="-6.6859570">
        <ele>521.8</ele>
        <time>2021-10-04T09:55:32Z</time>
      </trkpt>
      <trkpt lat="42.5885490" lon="-6.6860970">
        <ele>521.2</ele>
        <time>2021-10-04T09:55:34Z</time>
      </trkpt>
      <trkpt lat="42.5886710" lon="-6.6865200">
        <ele>520.4</ele>
        <time>2021-10-04T09:55:40Z</time>
      </trkpt>
      <trkpt lat="42.5887350" lon="-6.6867480">
        <ele>519.4</ele>
        <time>2021-10-04T09:55:43Z</time>
      </trkpt>
      <trkpt lat="42.5888110" lon="-6.6869960">
        <ele>518.2</ele>
        <time>2021-10-04T09:55:46Z</time>
      </trkpt>
      <trkpt lat="42.5888640" lon="-6.6871810">
        <ele>517.2</ele>
        <time>2021-10-04T09:55:48Z</time>
      </trkpt>
      <trkpt lat="42.5888920" lon="-6.6872780">
        <ele>516.6</ele>
        <time>2021-10-04T09:55:49Z</time>
      </trkpt>
      <trkpt lat="42.5889490" lon="-6.6874820">
        <ele>515.4</ele>
        <time>2021-10-04T09:55:51Z</time>
      </trkpt>
      <trkpt lat="42.5890080" lon="-6.6876950">
        <ele>513.2</ele>
        <time>2021-10-04T09:55:53Z</time>
      </trkpt>
      <trkpt lat="42.5890660" lon="-6.6879100">
        <ele>511.8</ele>
        <time>2021-10-04T09:55:55Z</time>
      </trkpt>
      <trkpt lat="42.5891300" lon="-6.6881210">
        <ele>510.2</ele>
        <time>2021-10-04T09:55:57Z</time>
      </trkpt>
      <trkpt lat="42.5892030" lon="-6.6883230">
        <ele>508.6</ele>
        <time>2021-10-04T09:55:59Z</time>
      </trkpt>
      <trkpt lat="42.5892730" lon="-6.6885150">
        <ele>507.4</ele>
        <time>2021-10-04T09:56:01Z</time>
      </trkpt>
      <trkpt lat="42.5893430" lon="-6.6887000">
        <ele>506.4</ele>
        <time>2021-10-04T09:56:03Z</time>
      </trkpt>
      <trkpt lat="42.5894230" lon="-6.6889910">
        <ele>505.6</ele>
        <time>2021-10-04T09:56:06Z</time>
      </trkpt>
      <trkpt lat="42.5894100" lon="-6.6894580">
        <ele>505.2</ele>
        <time>2021-10-04T09:56:10Z</time>
      </trkpt>
      <trkpt lat="42.5893830" lon="-6.6897010">
        <ele>505.0</ele>
        <time>2021-10-04T09:56:12Z</time>
      </trkpt>
      <trkpt lat="42.5893850" lon="-6.6899330">
        <ele>504.2</ele>
        <time>2021-10-04T09:56:14Z</time>
      </trkpt>
      <trkpt lat="42.5894140" lon="-6.6901490">
        <ele>502.6</ele>
        <time>2021-10-04T09:56:16Z</time>
      </trkpt>
      <trkpt lat="42.5894360" lon="-6.6902450">
        <ele>501.6</ele>
        <time>2021-10-04T09:56:17Z</time>
      </trkpt>
      <trkpt lat="42.5894780" lon="-6.6904090">
        <ele>500.2</ele>
        <time>2021-10-04T09:56:19Z</time>
      </trkpt>
      <trkpt lat="42.5895240" lon="-6.6905460">
        <ele>499.8</ele>
        <time>2021-10-04T09:56:21Z</time>
      </trkpt>
      <trkpt lat="42.5895860" lon="-6.6907350">
        <ele>499.8</ele>
        <time>2021-10-04T09:56:24Z</time>
      </trkpt>
      <trkpt lat="42.5896090" lon="-6.6908620">
        <ele>499.8</ele>
        <time>2021-10-04T09:56:26Z</time>
      </trkpt>
      <trkpt lat="42.5896330" lon="-6.6910000">
        <ele>499.8</ele>
        <time>2021-10-04T09:56:28Z</time>
      </trkpt>
      <trkpt lat="42.5896670" lon="-6.6911440">
        <ele>499.8</ele>
        <time>2021-10-04T09:56:30Z</time>
      </trkpt>
      <trkpt lat="42.5897980" lon="-6.6915690">
        <ele>499.8</ele>
        <time>2021-10-04T09:56:36Z</time>
      </trkpt>
      <trkpt lat="42.5899650" lon="-6.6917040">
        <ele>499.6</ele>
        <time>2021-10-04T09:56:40Z</time>
      </trkpt>
      <trkpt lat="42.5900330" lon="-6.6917820">
        <ele>499.4</ele>
        <time>2021-10-04T09:56:42Z</time>
      </trkpt>
      <trkpt lat="42.5900910" lon="-6.6918760">
        <ele>499.4</ele>
        <time>2021-10-04T09:56:44Z</time>
      </trkpt>
      <trkpt lat="42.5901170" lon="-6.6919340">
        <ele>499.4</ele>
        <time>2021-10-04T09:56:45Z</time>
      </trkpt>
      <trkpt lat="42.5901690" lon="-6.6920450">
        <ele>499.4</ele>
        <time>2021-10-04T09:56:47Z</time>
      </trkpt>
      <trkpt lat="42.5901970" lon="-6.6920930">
        <ele>499.4</ele>
        <time>2021-10-04T09:56:48Z</time>
      </trkpt>
      <trkpt lat="42.5902240" lon="-6.6921350">
        <ele>499.4</ele>
        <time>2021-10-04T09:56:49Z</time>
      </trkpt>
      <trkpt lat="42.5902620" lon="-6.6921940">
        <ele>499.4</ele>
        <time>2021-10-04T09:56:51Z</time>
      </trkpt>
      <trkpt lat="42.5903920" lon="-6.6923530">
        <ele>499.6</ele>
        <time>2021-10-04T09:56:57Z</time>
      </trkpt>
      <trkpt lat="42.5904970" lon="-6.6924580">
        <ele>499.6</ele>
        <time>2021-10-04T09:57:00Z</time>
      </trkpt>
      <trkpt lat="42.5905270" lon="-6.6924940">
        <ele>499.8</ele>
        <time>2021-10-04T09:57:01Z</time>
      </trkpt>
      <trkpt lat="42.5905710" lon="-6.6925840">
        <ele>500.0</ele>
        <time>2021-10-04T09:57:03Z</time>
      </trkpt>
      <trkpt lat="42.5905950" lon="-6.6926910">
        <ele>500.0</ele>
        <time>2021-10-04T09:57:05Z</time>
      </trkpt>
      <trkpt lat="42.5906240" lon="-6.6927920">
        <ele>500.2</ele>
        <time>2021-10-04T09:57:07Z</time>
      </trkpt>
      <trkpt lat="42.5907440" lon="-6.6930950">
        <ele>500.8</ele>
        <time>2021-10-04T09:57:14Z</time>
      </trkpt>
      <trkpt lat="42.5907730" lon="-6.6932170">
        <ele>501.2</ele>
        <time>2021-10-04T09:57:16Z</time>
      </trkpt>
      <trkpt lat="42.5907900" lon="-6.6932760">
        <ele>501.4</ele>
        <time>2021-10-04T09:57:17Z</time>
      </trkpt>
      <trkpt lat="42.5910320" lon="-6.6939810">
        <ele>501.4</ele>
        <time>2021-10-04T09:57:28Z</time>
      </trkpt>
      <trkpt lat="42.5912760" lon="-6.6947150">
        <ele>500.6</ele>
        <time>2021-10-04T09:57:39Z</time>
      </trkpt>
      <trkpt lat="42.5914710" lon="-6.6954170">
        <ele>500.4</ele>
        <time>2021-10-04T09:57:49Z</time>
      </trkpt>
      <trkpt lat="42.5915960" lon="-6.6958370">
        <ele>500.6</ele>
        <time>2021-10-04T09:57:55Z</time>
      </trkpt>
      <trkpt lat="42.5917710" lon="-6.6963220">
        <ele>500.6</ele>
        <time>2021-10-04T09:58:02Z</time>
      </trkpt>
      <trkpt lat="42.5918170" lon="-6.6964530">
        <ele>500.6</ele>
        <time>2021-10-04T09:58:04Z</time>
      </trkpt>
      <trkpt lat="42.5918830" lon="-6.6966410">
        <ele>500.6</ele>
        <time>2021-10-04T09:58:07Z</time>
      </trkpt>
      <trkpt lat="42.5921300" lon="-6.6973500">
        <ele>500.6</ele>
        <time>2021-10-04T09:58:18Z</time>
      </trkpt>
      <trkpt lat="42.5923660" lon="-6.6980710">
        <ele>500.4</ele>
        <time>2021-10-04T09:58:29Z</time>
      </trkpt>
      <trkpt lat="42.5924110" lon="-6.6981960">
        <ele>500.2</ele>
        <time>2021-10-04T09:58:31Z</time>
      </trkpt>
      <trkpt lat="42.5924750" lon="-6.6984080">
        <ele>500.2</ele>
        <time>2021-10-04T09:58:34Z</time>
      </trkpt>
      <trkpt lat="42.5925980" lon="-6.6988440">
        <ele>500.0</ele>
        <time>2021-10-04T09:58:40Z</time>
      </trkpt>
      <trkpt lat="42.5926660" lon="-6.6990570">
        <ele>500.0</ele>
        <time>2021-10-04T09:58:43Z</time>
      </trkpt>
      <trkpt lat="42.5928880" lon="-6.6997820">
        <ele>500.0</ele>
        <time>2021-10-04T09:58:54Z</time>
      </trkpt>
      <trkpt lat="42.5929610" lon="-6.7000200">
        <ele>500.2</ele>
        <time>2021-10-04T09:58:58Z</time>
      </trkpt>
      <trkpt lat="42.5929930" lon="-6.7001420">
        <ele>500.6</ele>
        <time>2021-10-04T09:59:00Z</time>
      </trkpt>
      <trkpt lat="42.5930400" lon="-6.7003140">
        <ele>501.0</ele>
        <time>2021-10-04T09:59:03Z</time>
      </trkpt>
      <trkpt lat="42.5930800" lon="-6.7004720">
        <ele>501.2</ele>
        <time>2021-10-04T09:59:06Z</time>
      </trkpt>
      <trkpt lat="42.5931210" lon="-6.7007240">
        <ele>502.4</ele>
        <time>2021-10-04T09:59:11Z</time>
      </trkpt>
      <trkpt lat="42.5931730" lon="-6.7009630">
        <ele>503.4</ele>
        <time>2021-10-04T09:59:16Z</time>
      </trkpt>
      <trkpt lat="42.5932210" lon="-6.7012850">
        <ele>504.6</ele>
        <time>2021-10-04T09:59:24Z</time>
      </trkpt>
      <trkpt lat="42.5932420" lon="-6.7014600">
        <ele>505.6</ele>
        <time>2021-10-04T09:59:28Z</time>
      </trkpt>
      <trkpt lat="42.5932560" lon="-6.7015900">
        <ele>506.0</ele>
        <time>2021-10-04T09:59:31Z</time>
      </trkpt>
      <trkpt lat="42.5932690" lon="-6.7016780">
        <ele>506.4</ele>
        <time>2021-10-04T09:59:33Z</time>
      </trkpt>
      <trkpt lat="42.5932760" lon="-6.7017200">
        <ele>506.6</ele>
        <time>2021-10-04T09:59:34Z</time>
      </trkpt>
      <trkpt lat="42.5932920" lon="-6.7018040">
        <ele>507.4</ele>
        <time>2021-10-04T09:59:36Z</time>
      </trkpt>
      <trkpt lat="42.5933010" lon="-6.7018460">
        <ele>507.8</ele>
        <time>2021-10-04T09:59:37Z</time>
      </trkpt>
      <trkpt lat="42.5933220" lon="-6.7019260">
        <ele>508.4</ele>
        <time>2021-10-04T09:59:39Z</time>
      </trkpt>
      <trkpt lat="42.5933440" lon="-6.7020020">
        <ele>509.0</ele>
        <time>2021-10-04T09:59:41Z</time>
      </trkpt>
      <trkpt lat="42.5933750" lon="-6.7021160">
        <ele>510.2</ele>
        <time>2021-10-04T09:59:44Z</time>
      </trkpt>
      <trkpt lat="42.5934130" lon="-6.7022710">
        <ele>511.2</ele>
        <time>2021-10-04T09:59:48Z</time>
      </trkpt>
      <trkpt lat="42.5934350" lon="-6.7023860">
        <ele>512.2</ele>
        <time>2021-10-04T09:59:51Z</time>
      </trkpt>
      <trkpt lat="42.5934540" lon="-6.7024980">
        <ele>513.4</ele>
        <time>2021-10-04T09:59:54Z</time>
      </trkpt>
      <trkpt lat="42.5934800" lon="-6.7026610">
        <ele>514.6</ele>
        <time>2021-10-04T09:59:58Z</time>
      </trkpt>
      <trkpt lat="42.5935030" lon="-6.7028210">
        <ele>515.8</ele>
        <time>2021-10-04T10:00:02Z</time>
      </trkpt>
      <trkpt lat="42.5935790" lon="-6.7031960">
        <ele>516.6</ele>
        <time>2021-10-04T10:00:11Z</time>
      </trkpt>
      <trkpt lat="42.5935950" lon="-6.7032430">
        <ele>516.8</ele>
        <time>2021-10-04T10:00:12Z</time>
      </trkpt>
      <trkpt lat="42.5936300" lon="-6.7033380">
        <ele>516.8</ele>
        <time>2021-10-04T10:00:14Z</time>
      </trkpt>
      <trkpt lat="42.5936860" lon="-6.7034750">
        <ele>517.0</ele>
        <time>2021-10-04T10:00:17Z</time>
      </trkpt>
      <trkpt lat="42.5937290" lon="-6.7036060">
        <ele>517.0</ele>
        <time>2021-10-04T10:00:20Z</time>
      </trkpt>
      <trkpt lat="42.5937700" lon="-6.7037330">
        <ele>517.2</ele>
        <time>2021-10-04T10:00:23Z</time>
      </trkpt>
      <trkpt lat="42.5937990" lon="-6.7038310">
        <ele>517.2</ele>
        <time>2021-10-04T10:00:25Z</time>
      </trkpt>
      <trkpt lat="42.5938290" lon="-6.7039340">
        <ele>517.2</ele>
        <time>2021-10-04T10:00:27Z</time>
      </trkpt>
      <trkpt lat="42.5939100" lon="-6.7041870">
        <ele>517.4</ele>
        <time>2021-10-04T10:00:32Z</time>
      </trkpt>
      <trkpt lat="42.5939430" lon="-6.7042820">
        <ele>517.4</ele>
        <time>2021-10-04T10:00:34Z</time>
      </trkpt>
      <trkpt lat="42.5939800" lon="-6.7043680">
        <ele>517.4</ele>
        <time>2021-10-04T10:00:36Z</time>
      </trkpt>
      <trkpt lat="42.5940370" lon="-6.7044660">
        <ele>517.6</ele>
        <time>2021-10-04T10:00:42Z</time>
      </trkpt>
      <trkpt lat="42.5940500" lon="-6.7045050">
        <ele>519.0</ele>
        <time>2021-10-04T10:01:01Z</time>
      </trkpt>
      <trkpt lat="42.5940640" lon="-6.7045330">
        <ele>519.0</ele>
        <time>2021-10-04T10:01:02Z</time>
      </trkpt>
      <trkpt lat="42.5940920" lon="-6.7046120">
        <ele>519.0</ele>
        <time>2021-10-04T10:01:04Z</time>
      </trkpt>
      <trkpt lat="42.5941200" lon="-6.7046990">
        <ele>519.0</ele>
        <time>2021-10-04T10:01:06Z</time>
      </trkpt>
      <trkpt lat="42.5942530" lon="-6.7050330">
        <ele>519.0</ele>
        <time>2021-10-04T10:01:13Z</time>
      </trkpt>
      <trkpt lat="42.5943790" lon="-6.7054160">
        <ele>519.4</ele>
        <time>2021-10-04T10:01:21Z</time>
      </trkpt>
      <trkpt lat="42.5944070" lon="-6.7055260">
        <ele>519.8</ele>
        <time>2021-10-04T10:01:24Z</time>
      </trkpt>
      <trkpt lat="42.5944240" lon="-6.7055850">
        <ele>520.0</ele>
        <time>2021-10-04T10:01:26Z</time>
      </trkpt>
      <trkpt lat="42.5944960" lon="-6.7057030">
        <ele>520.6</ele>
        <time>2021-10-04T10:01:30Z</time>
      </trkpt>
      <trkpt lat="42.5945010" lon="-6.7057120">
        <ele>520.8</ele>
        <time>2021-10-04T10:01:32Z</time>
      </trkpt>
      <trkpt lat="42.5944990" lon="-6.7057770">
        <ele>521.8</ele>
        <time>2021-10-04T10:01:38Z</time>
      </trkpt>
      <trkpt lat="42.5945240" lon="-6.7058380">
        <ele>522.0</ele>
        <time>2021-10-04T10:01:41Z</time>
      </trkpt>
      <trkpt lat="42.5945940" lon="-6.7060110">
        <ele>522.0</ele>
        <time>2021-10-04T10:01:46Z</time>
      </trkpt>
      <trkpt lat="42.5948540" lon="-6.7066540">
        <ele>522.4</ele>
        <time>2021-10-04T10:01:59Z</time>
      </trkpt>
      <trkpt lat="42.5950460" lon="-6.7070890">
        <ele>522.4</ele>
        <time>2021-10-04T10:02:07Z</time>
      </trkpt>
      <trkpt lat="42.5951520" lon="-6.7073370">
        <ele>522.2</ele>
        <time>2021-10-04T10:02:11Z</time>
      </trkpt>
      <trkpt lat="42.5952030" lon="-6.7074710">
        <ele>522.2</ele>
        <time>2021-10-04T10:02:13Z</time>
      </trkpt>
      <trkpt lat="42.5952770" lon="-6.7076810">
        <ele>521.6</ele>
        <time>2021-10-04T10:02:16Z</time>
      </trkpt>
      <trkpt lat="42.5953660" lon="-6.7079010">
        <ele>520.8</ele>
        <time>2021-10-04T10:02:19Z</time>
      </trkpt>
      <trkpt lat="42.5953950" lon="-6.7079730">
        <ele>520.8</ele>
        <time>2021-10-04T10:02:20Z</time>
      </trkpt>
      <trkpt lat="42.5954230" lon="-6.7080420">
        <ele>520.6</ele>
        <time>2021-10-04T10:02:21Z</time>
      </trkpt>
      <trkpt lat="42.5954780" lon="-6.7081770">
        <ele>519.8</ele>
        <time>2021-10-04T10:02:23Z</time>
      </trkpt>
      <trkpt lat="42.5955060" lon="-6.7082440">
        <ele>519.6</ele>
        <time>2021-10-04T10:02:24Z</time>
      </trkpt>
      <trkpt lat="42.5955630" lon="-6.7083760">
        <ele>518.8</ele>
        <time>2021-10-04T10:02:26Z</time>
      </trkpt>
      <trkpt lat="42.5956210" lon="-6.7085170">
        <ele>518.4</ele>
        <time>2021-10-04T10:02:28Z</time>
      </trkpt>
      <trkpt lat="42.5957740" lon="-6.7089060">
        <ele>517.0</ele>
        <time>2021-10-04T10:02:33Z</time>
      </trkpt>
      <trkpt lat="42.5958750" lon="-6.7091520">
        <ele>515.8</ele>
        <time>2021-10-04T10:02:36Z</time>
      </trkpt>
      <trkpt lat="42.5959380" lon="-6.7093130">
        <ele>514.8</ele>
        <time>2021-10-04T10:02:38Z</time>
      </trkpt>
      <trkpt lat="42.5960010" lon="-6.7094640">
        <ele>514.0</ele>
        <time>2021-10-04T10:02:40Z</time>
      </trkpt>
      <trkpt lat="42.5960270" lon="-6.7095420">
        <ele>513.8</ele>
        <time>2021-10-04T10:02:41Z</time>
      </trkpt>
      <trkpt lat="42.5961600" lon="-6.7099260">
        <ele>512.8</ele>
        <time>2021-10-04T10:02:46Z</time>
      </trkpt>
      <trkpt lat="42.5963850" lon="-6.7104750">
        <ele>512.2</ele>
        <time>2021-10-04T10:02:54Z</time>
      </trkpt>
      <trkpt lat="42.5965220" lon="-6.7108150">
        <ele>512.2</ele>
        <time>2021-10-04T10:02:59Z</time>
      </trkpt>
      <trkpt lat="42.5966540" lon="-6.7111560">
        <ele>512.2</ele>
        <time>2021-10-04T10:03:04Z</time>
      </trkpt>
      <trkpt lat="42.5968990" lon="-6.7118080">
        <ele>512.4</ele>
        <time>2021-10-04T10:03:14Z</time>
      </trkpt>
      <trkpt lat="42.5971590" lon="-6.7124840">
        <ele>512.4</ele>
        <time>2021-10-04T10:03:26Z</time>
      </trkpt>
      <trkpt lat="42.5973210" lon="-6.7129050">
        <ele>512.4</ele>
        <time>2021-10-04T10:03:34Z</time>
      </trkpt>
      <trkpt lat="42.5973770" lon="-6.7130500">
        <ele>512.4</ele>
        <time>2021-10-04T10:03:37Z</time>
      </trkpt>
      <trkpt lat="42.5977550" lon="-6.7135990">
        <ele>512.8</ele>
        <time>2021-10-04T10:03:52Z</time>
      </trkpt>
      <trkpt lat="42.5978450" lon="-6.7136820">
        <ele>513.0</ele>
        <time>2021-10-04T10:03:55Z</time>
      </trkpt>
      <trkpt lat="42.5979690" lon="-6.7138040">
        <ele>513.2</ele>
        <time>2021-10-04T10:03:59Z</time>
      </trkpt>
      <trkpt lat="42.5980700" lon="-6.7139080">
        <ele>513.2</ele>
        <time>2021-10-04T10:04:02Z</time>
      </trkpt>
      <trkpt lat="42.5982090" lon="-6.7140530">
        <ele>513.4</ele>
        <time>2021-10-04T10:04:06Z</time>
      </trkpt>
      <trkpt lat="42.5984080" lon="-6.7142740">
        <ele>513.2</ele>
        <time>2021-10-04T10:04:11Z</time>
      </trkpt>
      <trkpt lat="42.5986370" lon="-6.7145540">
        <ele>512.2</ele>
        <time>2021-10-04T10:04:16Z</time>
      </trkpt>
      <trkpt lat="42.5987110" lon="-6.7147040">
        <ele>511.4</ele>
        <time>2021-10-04T10:04:18Z</time>
      </trkpt>
      <trkpt lat="42.5988090" lon="-6.7149620">
        <ele>510.2</ele>
        <time>2021-10-04T10:04:21Z</time>
      </trkpt>
      <trkpt lat="42.5988910" lon="-6.7151330">
        <ele>509.2</ele>
        <time>2021-10-04T10:04:23Z</time>
      </trkpt>
      <trkpt lat="42.5989960" lon="-6.7152850">
        <ele>507.8</ele>
        <time>2021-10-04T10:04:25Z</time>
      </trkpt>
      <trkpt lat="42.5990530" lon="-6.7153590">
        <ele>506.8</ele>
        <time>2021-10-04T10:04:26Z</time>
      </trkpt>
      <trkpt lat="42.5991690" lon="-6.7155030">
        <ele>505.8</ele>
        <time>2021-10-04T10:04:28Z</time>
      </trkpt>
      <trkpt lat="42.5992730" lon="-6.7156420">
        <ele>504.0</ele>
        <time>2021-10-04T10:04:30Z</time>
      </trkpt>
      <trkpt lat="42.5993530" lon="-6.7157730">
        <ele>502.2</ele>
        <time>2021-10-04T10:04:32Z</time>
      </trkpt>
      <trkpt lat="42.5994160" lon="-6.7159160">
        <ele>500.2</ele>
        <time>2021-10-04T10:04:34Z</time>
      </trkpt>
      <trkpt lat="42.5994690" lon="-6.7160720">
        <ele>498.4</ele>
        <time>2021-10-04T10:04:36Z</time>
      </trkpt>
      <trkpt lat="42.5995220" lon="-6.7162360">
        <ele>497.0</ele>
        <time>2021-10-04T10:04:38Z</time>
      </trkpt>
      <trkpt lat="42.5995760" lon="-6.7163960">
        <ele>495.8</ele>
        <time>2021-10-04T10:04:40Z</time>
      </trkpt>
      <trkpt lat="42.5996390" lon="-6.7165170">
        <ele>494.2</ele>
        <time>2021-10-04T10:04:42Z</time>
      </trkpt>
      <trkpt lat="42.5996610" lon="-6.7165700">
        <ele>494.0</ele>
        <time>2021-10-04T10:04:43Z</time>
      </trkpt>
      <trkpt lat="42.5996760" lon="-6.7166940">
        <ele>493.6</ele>
        <time>2021-10-04T10:04:45Z</time>
      </trkpt>
      <trkpt lat="42.5996660" lon="-6.7168300">
        <ele>493.2</ele>
        <time>2021-10-04T10:04:47Z</time>
      </trkpt>
      <trkpt lat="42.5996610" lon="-6.7169020">
        <ele>493.2</ele>
        <time>2021-10-04T10:04:48Z</time>
      </trkpt>
      <trkpt lat="42.5996590" lon="-6.7169770">
        <ele>493.0</ele>
        <time>2021-10-04T10:04:49Z</time>
      </trkpt>
      <trkpt lat="42.5996590" lon="-6.7170540">
        <ele>493.0</ele>
        <time>2021-10-04T10:04:50Z</time>
      </trkpt>
      <trkpt lat="42.5996600" lon="-6.7171310">
        <ele>493.0</ele>
        <time>2021-10-04T10:04:51Z</time>
      </trkpt>
      <trkpt lat="42.5996650" lon="-6.7175320">
        <ele>492.2</ele>
        <time>2021-10-04T10:04:56Z</time>
      </trkpt>
      <trkpt lat="42.5996630" lon="-6.7176120">
        <ele>492.0</ele>
        <time>2021-10-04T10:04:57Z</time>
      </trkpt>
      <trkpt lat="42.5996950" lon="-6.7184130">
        <ele>491.6</ele>
        <time>2021-10-04T10:05:07Z</time>
      </trkpt>
      <trkpt lat="42.5997070" lon="-6.7188140">
        <ele>491.6</ele>
        <time>2021-10-04T10:05:12Z</time>
      </trkpt>
      <trkpt lat="42.5997070" lon="-6.7190560">
        <ele>491.6</ele>
        <time>2021-10-04T10:05:15Z</time>
      </trkpt>
      <trkpt lat="42.5997130" lon="-6.7195440">
        <ele>491.2</ele>
        <time>2021-10-04T10:05:21Z</time>
      </trkpt>
      <trkpt lat="42.5997250" lon="-6.7201760">
        <ele>491.0</ele>
        <time>2021-10-04T10:05:29Z</time>
      </trkpt>
      <trkpt lat="42.5997270" lon="-6.7205670">
        <ele>491.0</ele>
        <time>2021-10-04T10:05:34Z</time>
      </trkpt>
      <trkpt lat="42.5997690" lon="-6.7213360">
        <ele>491.0</ele>
        <time>2021-10-04T10:05:44Z</time>
      </trkpt>
      <trkpt lat="42.5997740" lon="-6.7214120">
        <ele>491.0</ele>
        <time>2021-10-04T10:05:45Z</time>
      </trkpt>
      <trkpt lat="42.5997950" lon="-6.7217760">
        <ele>491.0</ele>
        <time>2021-10-04T10:05:50Z</time>
      </trkpt>
      <trkpt lat="42.5997970" lon="-6.7219150">
        <ele>491.0</ele>
        <time>2021-10-04T10:05:52Z</time>
      </trkpt>
      <trkpt lat="42.5997720" lon="-6.7225420">
        <ele>491.4</ele>
        <time>2021-10-04T10:06:04Z</time>
      </trkpt>
      <trkpt lat="42.5997690" lon="-6.7227090">
        <ele>491.6</ele>
        <time>2021-10-04T10:06:07Z</time>
      </trkpt>
      <trkpt lat="42.5997740" lon="-6.7230580">
        <ele>491.4</ele>
        <time>2021-10-04T10:06:14Z</time>
      </trkpt>
      <trkpt lat="42.5998060" lon="-6.7232070">
        <ele>491.2</ele>
        <time>2021-10-04T10:06:17Z</time>
      </trkpt>
      <trkpt lat="42.5999240" lon="-6.7237870">
        <ele>491.0</ele>
        <time>2021-10-04T10:06:27Z</time>
      </trkpt>
      <trkpt lat="42.5999270" lon="-6.7239560">
        <ele>490.4</ele>
        <time>2021-10-04T10:06:30Z</time>
      </trkpt>
      <trkpt lat="42.5999260" lon="-6.7240780">
        <ele>490.0</ele>
        <time>2021-10-04T10:06:32Z</time>
      </trkpt>
      <trkpt lat="42.5999200" lon="-6.7242050">
        <ele>489.8</ele>
        <time>2021-10-04T10:06:34Z</time>
      </trkpt>
      <trkpt lat="42.5999000" lon="-6.7244430">
        <ele>489.6</ele>
        <time>2021-10-04T10:06:39Z</time>
      </trkpt>
      <trkpt lat="42.5998980" lon="-6.7245640">
        <ele>489.4</ele>
        <time>2021-10-04T10:06:41Z</time>
      </trkpt>
      <trkpt lat="42.5998980" lon="-6.7248590">
        <ele>489.0</ele>
        <time>2021-10-04T10:06:45Z</time>
      </trkpt>
      <trkpt lat="42.5998980" lon="-6.7249740">
        <ele>489.0</ele>
        <time>2021-10-04T10:06:47Z</time>
      </trkpt>
      <trkpt lat="42.5998450" lon="-6.7252400">
        <ele>489.2</ele>
        <time>2021-10-04T10:06:53Z</time>
      </trkpt>
      <trkpt lat="42.5998140" lon="-6.7253580">
        <ele>489.0</ele>
        <time>2021-10-04T10:06:55Z</time>
      </trkpt>
      <trkpt lat="42.5997440" lon="-6.7256560">
        <ele>489.0</ele>
        <time>2021-10-04T10:07:01Z</time>
      </trkpt>
      <trkpt lat="42.5997360" lon="-6.7256910">
        <ele>489.0</ele>
        <time>2021-10-04T10:07:02Z</time>
      </trkpt>
      <trkpt lat="42.5996630" lon="-6.7260010">
        <ele>488.6</ele>
        <time>2021-10-04T10:07:11Z</time>
      </trkpt>
      <trkpt lat="42.5997340" lon="-6.7264110">
        <ele>488.0</ele>
        <time>2021-10-04T10:07:19Z</time>
      </trkpt>
      <trkpt lat="42.5997510" lon="-6.7264730">
        <ele>488.0</ele>
        <time>2021-10-04T10:07:20Z</time>
      </trkpt>
      <trkpt lat="42.5998050" lon="-6.7266550">
        <ele>487.2</ele>
        <time>2021-10-04T10:07:23Z</time>
      </trkpt>
      <trkpt lat="42.5998420" lon="-6.7267740">
        <ele>486.8</ele>
        <time>2021-10-04T10:07:25Z</time>
      </trkpt>
      <trkpt lat="42.5998990" lon="-6.7270100">
        <ele>485.6</ele>
        <time>2021-10-04T10:07:29Z</time>
      </trkpt>
      <trkpt lat="42.6000120" lon="-6.7277420">
        <ele>484.8</ele>
        <time>2021-10-04T10:07:44Z</time>
      </trkpt>
      <trkpt lat="42.6000150" lon="-6.7278370">
        <ele>485.0</ele>
        <time>2021-10-04T10:07:46Z</time>
      </trkpt>
      <trkpt lat="42.6000330" lon="-6.7279500">
        <ele>485.2</ele>
        <time>2021-10-04T10:07:48Z</time>
      </trkpt>
      <trkpt lat="42.6000390" lon="-6.7280050">
        <ele>485.2</ele>
        <time>2021-10-04T10:07:49Z</time>
      </trkpt>
      <trkpt lat="42.6000460" lon="-6.7281030">
        <ele>485.4</ele>
        <time>2021-10-04T10:07:51Z</time>
      </trkpt>
      <trkpt lat="42.6000490" lon="-6.7281990">
        <ele>485.6</ele>
        <time>2021-10-04T10:07:53Z</time>
      </trkpt>
      <trkpt lat="42.6000530" lon="-6.7284530">
        <ele>487.0</ele>
        <time>2021-10-04T10:07:59Z</time>
      </trkpt>
      <trkpt lat="42.6000540" lon="-6.7285970">
        <ele>488.0</ele>
        <time>2021-10-04T10:08:02Z</time>
      </trkpt>
      <trkpt lat="42.6000610" lon="-6.7293290">
        <ele>488.6</ele>
        <time>2021-10-04T10:08:12Z</time>
      </trkpt>
      <trkpt lat="42.6000830" lon="-6.7298470">
        <ele>487.2</ele>
        <time>2021-10-04T10:08:17Z</time>
      </trkpt>
      <trkpt lat="42.6000890" lon="-6.7299480">
        <ele>486.6</ele>
        <time>2021-10-04T10:08:18Z</time>
      </trkpt>
      <trkpt lat="42.6000990" lon="-6.7301470">
        <ele>485.2</ele>
        <time>2021-10-04T10:08:20Z</time>
      </trkpt>
      <trkpt lat="42.6001100" lon="-6.7303410">
        <ele>483.6</ele>
        <time>2021-10-04T10:08:22Z</time>
      </trkpt>
      <trkpt lat="42.6001220" lon="-6.7306240">
        <ele>482.8</ele>
        <time>2021-10-04T10:08:25Z</time>
      </trkpt>
      <trkpt lat="42.6001280" lon="-6.7307150">
        <ele>482.4</ele>
        <time>2021-10-04T10:08:26Z</time>
      </trkpt>
      <trkpt lat="42.6001690" lon="-6.7314330">
        <ele>482.0</ele>
        <time>2021-10-04T10:08:34Z</time>
      </trkpt>
      <trkpt lat="42.6002220" lon="-6.7316820">
        <ele>482.0</ele>
        <time>2021-10-04T10:08:37Z</time>
      </trkpt>
      <trkpt lat="42.6002630" lon="-6.7318450">
        <ele>482.0</ele>
        <time>2021-10-04T10:08:39Z</time>
      </trkpt>
      <trkpt lat="42.6003240" lon="-6.7320940">
        <ele>482.0</ele>
        <time>2021-10-04T10:08:42Z</time>
      </trkpt>
      <trkpt lat="42.6005010" lon="-6.7327870">
        <ele>483.2</ele>
        <time>2021-10-04T10:08:50Z</time>
      </trkpt>
      <trkpt lat="42.6006920" lon="-6.7335590">
        <ele>483.4</ele>
        <time>2021-10-04T10:08:59Z</time>
      </trkpt>
      <trkpt lat="42.6007800" lon="-6.7339030">
        <ele>483.6</ele>
        <time>2021-10-04T10:09:03Z</time>
      </trkpt>
      <trkpt lat="42.6009500" lon="-6.7345840">
        <ele>483.6</ele>
        <time>2021-10-04T10:09:11Z</time>
      </trkpt>
      <trkpt lat="42.6011610" lon="-6.7353140">
        <ele>483.6</ele>
        <time>2021-10-04T10:09:20Z</time>
      </trkpt>
      <trkpt lat="42.6012480" lon="-6.7356400">
        <ele>483.6</ele>
        <time>2021-10-04T10:09:24Z</time>
      </trkpt>
      <trkpt lat="42.6012930" lon="-6.7358040">
        <ele>483.6</ele>
        <time>2021-10-04T10:09:26Z</time>
      </trkpt>
      <trkpt lat="42.6013810" lon="-6.7361300">
        <ele>483.8</ele>
        <time>2021-10-04T10:09:30Z</time>
      </trkpt>
      <trkpt lat="42.6014800" lon="-6.7364390">
        <ele>484.6</ele>
        <time>2021-10-04T10:09:34Z</time>
      </trkpt>
      <trkpt lat="42.6016450" lon="-6.7369880">
        <ele>485.6</ele>
        <time>2021-10-04T10:09:41Z</time>
      </trkpt>
      <trkpt lat="42.6017530" lon="-6.7373000">
        <ele>485.6</ele>
        <time>2021-10-04T10:09:45Z</time>
      </trkpt>
      <trkpt lat="42.6020660" lon="-6.7379520">
        <ele>485.6</ele>
        <time>2021-10-04T10:09:54Z</time>
      </trkpt>
      <trkpt lat="42.6022910" lon="-6.7383790">
        <ele>485.8</ele>
        <time>2021-10-04T10:10:00Z</time>
      </trkpt>
      <trkpt lat="42.6025110" lon="-6.7387950">
        <ele>486.4</ele>
        <time>2021-10-04T10:10:06Z</time>
      </trkpt>
      <trkpt lat="42.6027420" lon="-6.7392490">
        <ele>487.4</ele>
        <time>2021-10-04T10:10:13Z</time>
      </trkpt>
      <trkpt lat="42.6027720" lon="-6.7393110">
        <ele>487.6</ele>
        <time>2021-10-04T10:10:14Z</time>
      </trkpt>
      <trkpt lat="42.6028960" lon="-6.7395470">
        <ele>488.6</ele>
        <time>2021-10-04T10:10:18Z</time>
      </trkpt>
      <trkpt lat="42.6029830" lon="-6.7397120">
        <ele>489.8</ele>
        <time>2021-10-04T10:10:21Z</time>
      </trkpt>
      <trkpt lat="42.6030680" lon="-6.7398670">
        <ele>490.8</ele>
        <time>2021-10-04T10:10:24Z</time>
      </trkpt>
      <trkpt lat="42.6030960" lon="-6.7399170">
        <ele>491.0</ele>
        <time>2021-10-04T10:10:25Z</time>
      </trkpt>
      <trkpt lat="42.6031780" lon="-6.7400620">
        <ele>492.0</ele>
        <time>2021-10-04T10:10:28Z</time>
      </trkpt>
      <trkpt lat="42.6032800" lon="-6.7402540">
        <ele>493.2</ele>
        <time>2021-10-04T10:10:32Z</time>
      </trkpt>
      <trkpt lat="42.6033980" lon="-6.7404900">
        <ele>494.4</ele>
        <time>2021-10-04T10:10:37Z</time>
      </trkpt>
      <trkpt lat="42.6035160" lon="-6.7407180">
        <ele>495.6</ele>
        <time>2021-10-04T10:10:42Z</time>
      </trkpt>
      <trkpt lat="42.6036080" lon="-6.7409040">
        <ele>496.6</ele>
        <time>2021-10-04T10:10:46Z</time>
      </trkpt>
      <trkpt lat="42.6037010" lon="-6.7410830">
        <ele>497.8</ele>
        <time>2021-10-04T10:10:50Z</time>
      </trkpt>
      <trkpt lat="42.6038070" lon="-6.7413040">
        <ele>499.2</ele>
        <time>2021-10-04T10:10:55Z</time>
      </trkpt>
      <trkpt lat="42.6038950" lon="-6.7414690">
        <ele>500.2</ele>
        <time>2021-10-04T10:10:59Z</time>
      </trkpt>
      <trkpt lat="42.6039600" lon="-6.7415920">
        <ele>501.4</ele>
        <time>2021-10-04T10:11:02Z</time>
      </trkpt>
      <trkpt lat="42.6040890" lon="-6.7418480">
        <ele>502.6</ele>
        <time>2021-10-04T10:11:08Z</time>
      </trkpt>
      <trkpt lat="42.6041740" lon="-6.7420160">
        <ele>503.6</ele>
        <time>2021-10-04T10:11:12Z</time>
      </trkpt>
      <trkpt lat="42.6042590" lon="-6.7421850">
        <ele>504.8</ele>
        <time>2021-10-04T10:11:16Z</time>
      </trkpt>
      <trkpt lat="42.6043000" lon="-6.7422680">
        <ele>506.0</ele>
        <time>2021-10-04T10:11:18Z</time>
      </trkpt>
      <trkpt lat="42.6043610" lon="-6.7423930">
        <ele>507.2</ele>
        <time>2021-10-04T10:11:21Z</time>
      </trkpt>
      <trkpt lat="42.6044450" lon="-6.7425620">
        <ele>508.2</ele>
        <time>2021-10-04T10:11:25Z</time>
      </trkpt>
      <trkpt lat="42.6045060" lon="-6.7426980">
        <ele>509.4</ele>
        <time>2021-10-04T10:11:28Z</time>
      </trkpt>
      <trkpt lat="42.6045580" lon="-6.7428360">
        <ele>510.6</ele>
        <time>2021-10-04T10:11:31Z</time>
      </trkpt>
      <trkpt lat="42.6046050" lon="-6.7429750">
        <ele>511.8</ele>
        <time>2021-10-04T10:11:34Z</time>
      </trkpt>
      <trkpt lat="42.6046470" lon="-6.7431190">
        <ele>512.8</ele>
        <time>2021-10-04T10:11:37Z</time>
      </trkpt>
      <trkpt lat="42.6046910" lon="-6.7433150">
        <ele>514.0</ele>
        <time>2021-10-04T10:11:41Z</time>
      </trkpt>
      <trkpt lat="42.6047230" lon="-6.7435080">
        <ele>515.2</ele>
        <time>2021-10-04T10:11:45Z</time>
      </trkpt>
      <trkpt lat="42.6047510" lon="-6.7436520">
        <ele>516.4</ele>
        <time>2021-10-04T10:11:48Z</time>
      </trkpt>
      <trkpt lat="42.6047750" lon="-6.7437960">
        <ele>517.6</ele>
        <time>2021-10-04T10:11:51Z</time>
      </trkpt>
      <trkpt lat="42.6048040" lon="-6.7439780">
        <ele>518.8</ele>
        <time>2021-10-04T10:11:55Z</time>
      </trkpt>
      <trkpt lat="42.6048420" lon="-6.7442080">
        <ele>520.0</ele>
        <time>2021-10-04T10:12:00Z</time>
      </trkpt>
      <trkpt lat="42.6048720" lon="-6.7443890">
        <ele>521.2</ele>
        <time>2021-10-04T10:12:04Z</time>
      </trkpt>
      <trkpt lat="42.6049170" lon="-6.7447070">
        <ele>522.2</ele>
        <time>2021-10-04T10:12:11Z</time>
      </trkpt>
      <trkpt lat="42.6049750" lon="-6.7450310">
        <ele>523.4</ele>
        <time>2021-10-04T10:12:18Z</time>
      </trkpt>
      <trkpt lat="42.6050140" lon="-6.7452620">
        <ele>524.6</ele>
        <time>2021-10-04T10:12:23Z</time>
      </trkpt>
      <trkpt lat="42.6050600" lon="-6.7454940">
        <ele>525.8</ele>
        <time>2021-10-04T10:12:28Z</time>
      </trkpt>
      <trkpt lat="42.6050990" lon="-6.7457290">
        <ele>526.8</ele>
        <time>2021-10-04T10:12:33Z</time>
      </trkpt>
      <trkpt lat="42.6051480" lon="-6.7460040">
        <ele>527.8</ele>
        <time>2021-10-04T10:12:39Z</time>
      </trkpt>
      <trkpt lat="42.6051890" lon="-6.7462780">
        <ele>528.8</ele>
        <time>2021-10-04T10:12:45Z</time>
      </trkpt>
      <trkpt lat="42.6052370" lon="-6.7465780">
        <ele>529.8</ele>
        <time>2021-10-04T10:12:52Z</time>
      </trkpt>
      <trkpt lat="42.6052800" lon="-6.7468300">
        <ele>531.0</ele>
        <time>2021-10-04T10:12:58Z</time>
      </trkpt>
      <trkpt lat="42.6052980" lon="-6.7469540">
        <ele>532.0</ele>
        <time>2021-10-04T10:13:01Z</time>
      </trkpt>
      <trkpt lat="42.6053210" lon="-6.7471160">
        <ele>533.0</ele>
        <time>2021-10-04T10:13:05Z</time>
      </trkpt>
      <trkpt lat="42.6053540" lon="-6.7473170">
        <ele>534.0</ele>
        <time>2021-10-04T10:13:10Z</time>
      </trkpt>
      <trkpt lat="42.6053820" lon="-6.7474800">
        <ele>535.2</ele>
        <time>2021-10-04T10:13:14Z</time>
      </trkpt>
      <trkpt lat="42.6054050" lon="-6.7476390">
        <ele>536.2</ele>
        <time>2021-10-04T10:13:18Z</time>
      </trkpt>
      <trkpt lat="42.6054390" lon="-6.7478350">
        <ele>537.2</ele>
        <time>2021-10-04T10:13:23Z</time>
      </trkpt>
      <trkpt lat="42.6054550" lon="-6.7480000">
        <ele>538.4</ele>
        <time>2021-10-04T10:13:27Z</time>
      </trkpt>
      <trkpt lat="42.6054940" lon="-6.7482600">
        <ele>539.6</ele>
        <time>2021-10-04T10:13:33Z</time>
      </trkpt>
      <trkpt lat="42.6055130" lon="-6.7483900">
        <ele>540.6</ele>
        <time>2021-10-04T10:13:36Z</time>
      </trkpt>
      <trkpt lat="42.6055570" lon="-6.7486590">
        <ele>541.8</ele>
        <time>2021-10-04T10:13:42Z</time>
      </trkpt>
      <trkpt lat="42.6056090" lon="-6.7489770">
        <ele>543.0</ele>
        <time>2021-10-04T10:13:49Z</time>
      </trkpt>
      <trkpt lat="42.6056570" lon="-6.7492960">
        <ele>544.0</ele>
        <time>2021-10-04T10:13:56Z</time>
      </trkpt>
      <trkpt lat="42.6057070" lon="-6.7496100">
        <ele>545.0</ele>
        <time>2021-10-04T10:14:03Z</time>
      </trkpt>
      <trkpt lat="42.6057350" lon="-6.7497950">
        <ele>546.2</ele>
        <time>2021-10-04T10:14:07Z</time>
      </trkpt>
      <trkpt lat="42.6057760" lon="-6.7500280">
        <ele>547.4</ele>
        <time>2021-10-04T10:14:12Z</time>
      </trkpt>
      <trkpt lat="42.6058170" lon="-6.7502600">
        <ele>548.4</ele>
        <time>2021-10-04T10:14:17Z</time>
      </trkpt>
      <trkpt lat="42.6058250" lon="-6.7503070">
        <ele>548.6</ele>
        <time>2021-10-04T10:14:18Z</time>
      </trkpt>
      <trkpt lat="42.6058980" lon="-6.7506810">
        <ele>549.6</ele>
        <time>2021-10-04T10:14:26Z</time>
      </trkpt>
      <trkpt lat="42.6059290" lon="-6.7509190">
        <ele>550.6</ele>
        <time>2021-10-04T10:14:31Z</time>
      </trkpt>
      <trkpt lat="42.6059670" lon="-6.7512760">
        <ele>551.6</ele>
        <time>2021-10-04T10:14:38Z</time>
      </trkpt>
      <trkpt lat="42.6059810" lon="-6.7514310">
        <ele>552.4</ele>
        <time>2021-10-04T10:14:41Z</time>
      </trkpt>
      <trkpt lat="42.6059870" lon="-6.7514810">
        <ele>552.6</ele>
        <time>2021-10-04T10:14:42Z</time>
      </trkpt>
      <trkpt lat="42.6060360" lon="-6.7520240">
        <ele>553.4</ele>
        <time>2021-10-04T10:14:53Z</time>
      </trkpt>
      <trkpt lat="42.6060460" lon="-6.7521230">
        <ele>553.8</ele>
        <time>2021-10-04T10:14:55Z</time>
      </trkpt>
      <trkpt lat="42.6060780" lon="-6.7525030">
        <ele>555.0</ele>
        <time>2021-10-04T10:15:03Z</time>
      </trkpt>
      <trkpt lat="42.6060920" lon="-6.7527390">
        <ele>556.0</ele>
        <time>2021-10-04T10:15:08Z</time>
      </trkpt>
      <trkpt lat="42.6061080" lon="-6.7529310">
        <ele>557.4</ele>
        <time>2021-10-04T10:15:12Z</time>
      </trkpt>
      <trkpt lat="42.6061270" lon="-6.7531120">
        <ele>558.4</ele>
        <time>2021-10-04T10:15:16Z</time>
      </trkpt>
      <trkpt lat="42.6061380" lon="-6.7532890">
        <ele>559.6</ele>
        <time>2021-10-04T10:15:20Z</time>
      </trkpt>
      <trkpt lat="42.6061620" lon="-6.7535110">
        <ele>560.8</ele>
        <time>2021-10-04T10:15:25Z</time>
      </trkpt>
      <trkpt lat="42.6061840" lon="-6.7537760">
        <ele>561.8</ele>
        <time>2021-10-04T10:15:31Z</time>
      </trkpt>
      <trkpt lat="42.6061960" lon="-6.7539590">
        <ele>563.0</ele>
        <time>2021-10-04T10:15:35Z</time>
      </trkpt>
      <trkpt lat="42.6062130" lon="-6.7541870">
        <ele>564.2</ele>
        <time>2021-10-04T10:15:40Z</time>
      </trkpt>
      <trkpt lat="42.6062200" lon="-6.7544620">
        <ele>565.6</ele>
        <time>2021-10-04T10:15:46Z</time>
      </trkpt>
      <trkpt lat="42.6062380" lon="-6.7547430">
        <ele>566.8</ele>
        <time>2021-10-04T10:15:52Z</time>
      </trkpt>
      <trkpt lat="42.6062470" lon="-6.7548780">
        <ele>568.0</ele>
        <time>2021-10-04T10:15:55Z</time>
      </trkpt>
      <trkpt lat="42.6062460" lon="-6.7550100">
        <ele>569.0</ele>
        <time>2021-10-04T10:15:58Z</time>
      </trkpt>
      <trkpt lat="42.6062510" lon="-6.7551770">
        <ele>570.0</ele>
        <time>2021-10-04T10:16:02Z</time>
      </trkpt>
      <trkpt lat="42.6063000" lon="-6.7553590">
        <ele>571.2</ele>
        <time>2021-10-04T10:16:07Z</time>
      </trkpt>
      <trkpt lat="42.6063460" lon="-6.7555170">
        <ele>572.4</ele>
        <time>2021-10-04T10:16:12Z</time>
      </trkpt>
      <trkpt lat="42.6064090" lon="-6.7556510">
        <ele>573.6</ele>
        <time>2021-10-04T10:16:17Z</time>
      </trkpt>
      <trkpt lat="42.6064750" lon="-6.7556910">
        <ele>575.0</ele>
        <time>2021-10-04T10:16:21Z</time>
      </trkpt>
      <trkpt lat="42.6064990" lon="-6.7556960">
        <ele>575.6</ele>
        <time>2021-10-04T10:16:23Z</time>
      </trkpt>
      <trkpt lat="42.6065110" lon="-6.7557130">
        <ele>576.2</ele>
        <time>2021-10-04T10:16:25Z</time>
      </trkpt>
      <trkpt lat="42.6065110" lon="-6.7557140">
        <ele>576.4</ele>
        <time>2021-10-04T10:16:26Z</time>
      </trkpt>
      <trkpt lat="42.6065780" lon="-6.7557340">
        <ele>578.4</ele>
        <time>2021-10-04T10:19:55Z</time>
      </trkpt>
      <trkpt lat="42.6065950" lon="-6.7557460">
        <ele>578.4</ele>
        <time>2021-10-04T10:19:56Z</time>
      </trkpt>
      <trkpt lat="42.6067580" lon="-6.7558260">
        <ele>578.6</ele>
        <time>2021-10-04T10:20:03Z</time>
      </trkpt>
      <trkpt lat="42.6069280" lon="-6.7559110">
        <ele>579.0</ele>
        <time>2021-10-04T10:20:10Z</time>
      </trkpt>
      <trkpt lat="42.6070200" lon="-6.7559490">
        <ele>579.4</ele>
        <time>2021-10-04T10:20:14Z</time>
      </trkpt>
      <trkpt lat="42.6072530" lon="-6.7560730">
        <ele>580.6</ele>
        <time>2021-10-04T10:20:24Z</time>
      </trkpt>
      <trkpt lat="42.6074580" lon="-6.7561960">
        <ele>581.6</ele>
        <time>2021-10-04T10:20:32Z</time>
      </trkpt>
      <trkpt lat="42.6079130" lon="-6.7563270">
        <ele>582.6</ele>
        <time>2021-10-04T10:20:48Z</time>
      </trkpt>
      <trkpt lat="42.6081470" lon="-6.7563690">
        <ele>583.6</ele>
        <time>2021-10-04T10:20:57Z</time>
      </trkpt>
      <trkpt lat="42.6081720" lon="-6.7563720">
        <ele>583.6</ele>
        <time>2021-10-04T10:20:58Z</time>
      </trkpt>
      <trkpt lat="42.6083570" lon="-6.7563750">
        <ele>584.8</ele>
        <time>2021-10-04T10:21:08Z</time>
      </trkpt>
      <trkpt lat="42.6084030" lon="-6.7563830">
        <ele>585.8</ele>
        <time>2021-10-04T10:23:29Z</time>
      </trkpt>
      <trkpt lat="42.6084270" lon="-6.7563910">
        <ele>585.8</ele>
        <time>2021-10-04T10:23:30Z</time>
      </trkpt>
      <trkpt lat="42.6084910" lon="-6.7564090">
        <ele>586.0</ele>
        <time>2021-10-04T10:23:32Z</time>
      </trkpt>
      <trkpt lat="42.6085540" lon="-6.7564680">
        <ele>586.0</ele>
        <time>2021-10-04T10:23:34Z</time>
      </trkpt>
      <trkpt lat="42.6086070" lon="-6.7565690">
        <ele>586.0</ele>
        <time>2021-10-04T10:23:36Z</time>
      </trkpt>
      <trkpt lat="42.6086380" lon="-6.7566210">
        <ele>586.0</ele>
        <time>2021-10-04T10:23:37Z</time>
      </trkpt>
      <trkpt lat="42.6086720" lon="-6.7566740">
        <ele>586.0</ele>
        <time>2021-10-04T10:23:38Z</time>
      </trkpt>
      <trkpt lat="42.6087420" lon="-6.7567780">
        <ele>586.0</ele>
        <time>2021-10-04T10:23:40Z</time>
      </trkpt>
      <trkpt lat="42.6088090" lon="-6.7568760">
        <ele>586.0</ele>
        <time>2021-10-04T10:23:42Z</time>
      </trkpt>
      <trkpt lat="42.6088770" lon="-6.7569730">
        <ele>586.0</ele>
        <time>2021-10-04T10:23:44Z</time>
      </trkpt>
      <trkpt lat="42.6089440" lon="-6.7570740">
        <ele>586.2</ele>
        <time>2021-10-04T10:23:46Z</time>
      </trkpt>
      <trkpt lat="42.6090530" lon="-6.7572420">
        <ele>586.4</ele>
        <time>2021-10-04T10:23:49Z</time>
      </trkpt>
      <trkpt lat="42.6091680" lon="-6.7574150">
        <ele>587.2</ele>
        <time>2021-10-04T10:23:52Z</time>
      </trkpt>
      <trkpt lat="42.6092880" lon="-6.7575770">
        <ele>587.8</ele>
        <time>2021-10-04T10:23:55Z</time>
      </trkpt>
      <trkpt lat="42.6093320" lon="-6.7576290">
        <ele>587.8</ele>
        <time>2021-10-04T10:23:56Z</time>
      </trkpt>
      <trkpt lat="42.6097580" lon="-6.7578940">
        <ele>587.8</ele>
        <time>2021-10-04T10:24:02Z</time>
      </trkpt>
      <trkpt lat="42.6099260" lon="-6.7579530">
        <ele>587.6</ele>
        <time>2021-10-04T10:24:04Z</time>
      </trkpt>
      <trkpt lat="42.6100720" lon="-6.7580460">
        <ele>585.8</ele>
        <time>2021-10-04T10:24:06Z</time>
      </trkpt>
      <trkpt lat="42.6101390" lon="-6.7580960">
        <ele>584.4</ele>
        <time>2021-10-04T10:24:07Z</time>
      </trkpt>
      <trkpt lat="42.6102050" lon="-6.7581380">
        <ele>583.4</ele>
        <time>2021-10-04T10:24:08Z</time>
      </trkpt>
      <trkpt lat="42.6104800" lon="-6.7583480">
        <ele>582.2</ele>
        <time>2021-10-04T10:24:13Z</time>
      </trkpt>
      <trkpt lat="42.6105150" lon="-6.7585700">
        <ele>582.2</ele>
        <time>2021-10-04T10:24:17Z</time>
      </trkpt>
      <trkpt lat="42.6105070" lon="-6.7588460">
        <ele>583.4</ele>
        <time>2021-10-04T10:24:22Z</time>
      </trkpt>
      <trkpt lat="42.6105100" lon="-6.7590310">
        <ele>584.8</ele>
        <time>2021-10-04T10:24:25Z</time>
      </trkpt>
      <trkpt lat="42.6105180" lon="-6.7591490">
        <ele>585.8</ele>
        <time>2021-10-04T10:24:27Z</time>
      </trkpt>
      <trkpt lat="42.6105260" lon="-6.7592050">
        <ele>586.0</ele>
        <time>2021-10-04T10:24:28Z</time>
      </trkpt>
      <trkpt lat="42.6105440" lon="-6.7593750">
        <ele>586.6</ele>
        <time>2021-10-04T10:24:31Z</time>
      </trkpt>
      <trkpt lat="42.6105580" lon="-6.7595450">
        <ele>587.2</ele>
        <time>2021-10-04T10:24:34Z</time>
      </trkpt>
      <trkpt lat="42.6105740" lon="-6.7596610">
        <ele>588.0</ele>
        <time>2021-10-04T10:24:36Z</time>
      </trkpt>
      <trkpt lat="42.6105850" lon="-6.7597190">
        <ele>588.4</ele>
        <time>2021-10-04T10:24:37Z</time>
      </trkpt>
      <trkpt lat="42.6106240" lon="-6.7598850">
        <ele>589.6</ele>
        <time>2021-10-04T10:24:40Z</time>
      </trkpt>
      <trkpt lat="42.6106720" lon="-6.7600360">
        <ele>590.4</ele>
        <time>2021-10-04T10:24:43Z</time>
      </trkpt>
      <trkpt lat="42.6106870" lon="-6.7600850">
        <ele>591.0</ele>
        <time>2021-10-04T10:24:44Z</time>
      </trkpt>
      <trkpt lat="42.6107330" lon="-6.7602340">
        <ele>592.0</ele>
        <time>2021-10-04T10:24:47Z</time>
      </trkpt>
      <trkpt lat="42.6108010" lon="-6.7604300">
        <ele>593.2</ele>
        <time>2021-10-04T10:24:51Z</time>
      </trkpt>
      <trkpt lat="42.6109170" lon="-6.7607700">
        <ele>594.2</ele>
        <time>2021-10-04T10:24:58Z</time>
      </trkpt>
      <trkpt lat="42.6110030" lon="-6.7610040">
        <ele>594.8</ele>
        <time>2021-10-04T10:25:03Z</time>
      </trkpt>
      <trkpt lat="42.6110830" lon="-6.7611700">
        <ele>595.2</ele>
        <time>2021-10-04T10:25:07Z</time>
      </trkpt>
      <trkpt lat="42.6111220" lon="-6.7612450">
        <ele>595.2</ele>
        <time>2021-10-04T10:25:09Z</time>
      </trkpt>
      <trkpt lat="42.6111410" lon="-6.7612830">
        <ele>595.2</ele>
        <time>2021-10-04T10:25:10Z</time>
      </trkpt>
      <trkpt lat="42.6111750" lon="-6.7613620">
        <ele>595.4</ele>
        <time>2021-10-04T10:25:12Z</time>
      </trkpt>
      <trkpt lat="42.6112140" lon="-6.7614430">
        <ele>595.4</ele>
        <time>2021-10-04T10:25:14Z</time>
      </trkpt>
      <trkpt lat="42.6112840" lon="-6.7615730">
        <ele>595.4</ele>
        <time>2021-10-04T10:25:17Z</time>
      </trkpt>
      <trkpt lat="42.6113640" lon="-6.7617070">
        <ele>595.4</ele>
        <time>2021-10-04T10:25:20Z</time>
      </trkpt>
      <trkpt lat="42.6114620" lon="-6.7618710">
        <ele>595.0</ele>
        <time>2021-10-04T10:25:23Z</time>
      </trkpt>
      <trkpt lat="42.6115870" lon="-6.7620760">
        <ele>594.2</ele>
        <time>2021-10-04T10:25:26Z</time>
      </trkpt>
      <trkpt lat="42.6116810" lon="-6.7622290">
        <ele>593.6</ele>
        <time>2021-10-04T10:25:28Z</time>
      </trkpt>
      <trkpt lat="42.6117300" lon="-6.7623090">
        <ele>593.0</ele>
        <time>2021-10-04T10:25:29Z</time>
      </trkpt>
      <trkpt lat="42.6118400" lon="-6.7624730">
        <ele>591.6</ele>
        <time>2021-10-04T10:25:31Z</time>
      </trkpt>
      <trkpt lat="42.6119570" lon="-6.7626320">
        <ele>589.6</ele>
        <time>2021-10-04T10:25:33Z</time>
      </trkpt>
      <trkpt lat="42.6120900" lon="-6.7627710">
        <ele>587.2</ele>
        <time>2021-10-04T10:25:35Z</time>
      </trkpt>
      <trkpt lat="42.6122200" lon="-6.7629280">
        <ele>586.0</ele>
        <time>2021-10-04T10:25:37Z</time>
      </trkpt>
      <trkpt lat="42.6123260" lon="-6.7631060">
        <ele>584.4</ele>
        <time>2021-10-04T10:25:39Z</time>
      </trkpt>
      <trkpt lat="42.6124220" lon="-6.7632860">
        <ele>583.2</ele>
        <time>2021-10-04T10:25:41Z</time>
      </trkpt>
      <trkpt lat="42.6125070" lon="-6.7634320">
        <ele>581.4</ele>
        <time>2021-10-04T10:25:43Z</time>
      </trkpt>
      <trkpt lat="42.6125770" lon="-6.7635660">
        <ele>579.6</ele>
        <time>2021-10-04T10:25:45Z</time>
      </trkpt>
      <trkpt lat="42.6126480" lon="-6.7636950">
        <ele>578.6</ele>
        <time>2021-10-04T10:25:47Z</time>
      </trkpt>
      <trkpt lat="42.6128000" lon="-6.7638570">
        <ele>577.4</ele>
        <time>2021-10-04T10:25:50Z</time>
      </trkpt>
      <trkpt lat="42.6130820" lon="-6.7639540">
        <ele>576.6</ele>
        <time>2021-10-04T10:25:54Z</time>
      </trkpt>
      <trkpt lat="42.6131600" lon="-6.7639550">
        <ele>576.0</ele>
        <time>2021-10-04T10:25:55Z</time>
      </trkpt>
      <trkpt lat="42.6132380" lon="-6.7639500">
        <ele>575.2</ele>
        <time>2021-10-04T10:25:56Z</time>
      </trkpt>
      <trkpt lat="42.6133140" lon="-6.7639410">
        <ele>574.4</ele>
        <time>2021-10-04T10:25:57Z</time>
      </trkpt>
      <trkpt lat="42.6133850" lon="-6.7639300">
        <ele>573.4</ele>
        <time>2021-10-04T10:25:58Z</time>
      </trkpt>
      <trkpt lat="42.6134520" lon="-6.7639200">
        <ele>572.2</ele>
        <time>2021-10-04T10:25:59Z</time>
      </trkpt>
      <trkpt lat="42.6135160" lon="-6.7639110">
        <ele>571.2</ele>
        <time>2021-10-04T10:26:00Z</time>
      </trkpt>
      <trkpt lat="42.6135840" lon="-6.7639030">
        <ele>570.6</ele>
        <time>2021-10-04T10:26:01Z</time>
      </trkpt>
      <trkpt lat="42.6137270" lon="-6.7638770">
        <ele>568.8</ele>
        <time>2021-10-04T10:26:03Z</time>
      </trkpt>
      <trkpt lat="42.6138840" lon="-6.7638560">
        <ele>567.6</ele>
        <time>2021-10-04T10:26:05Z</time>
      </trkpt>
      <trkpt lat="42.6139680" lon="-6.7638580">
        <ele>567.2</ele>
        <time>2021-10-04T10:26:06Z</time>
      </trkpt>
      <trkpt lat="42.6141390" lon="-6.7638740">
        <ele>566.8</ele>
        <time>2021-10-04T10:26:08Z</time>
      </trkpt>
      <trkpt lat="42.6142230" lon="-6.7638860">
        <ele>566.4</ele>
        <time>2021-10-04T10:26:09Z</time>
      </trkpt>
      <trkpt lat="42.6143830" lon="-6.7639210">
        <ele>565.0</ele>
        <time>2021-10-04T10:26:11Z</time>
      </trkpt>
      <trkpt lat="42.6145380" lon="-6.7639540">
        <ele>563.8</ele>
        <time>2021-10-04T10:26:13Z</time>
      </trkpt>
      <trkpt lat="42.6147640" lon="-6.7639890">
        <ele>563.2</ele>
        <time>2021-10-04T10:26:16Z</time>
      </trkpt>
      <trkpt lat="42.6152970" lon="-6.7638750">
        <ele>563.2</ele>
        <time>2021-10-04T10:26:24Z</time>
      </trkpt>
      <trkpt lat="42.6154090" lon="-6.7638400">
        <ele>563.8</ele>
        <time>2021-10-04T10:26:26Z</time>
      </trkpt>
      <trkpt lat="42.6155880" lon="-6.7638890">
        <ele>565.0</ele>
        <time>2021-10-04T10:26:30Z</time>
      </trkpt>
      <trkpt lat="42.6156610" lon="-6.7639390">
        <ele>566.0</ele>
        <time>2021-10-04T10:26:32Z</time>
      </trkpt>
      <trkpt lat="42.6156980" lon="-6.7639680">
        <ele>566.2</ele>
        <time>2021-10-04T10:26:33Z</time>
      </trkpt>
      <trkpt lat="42.6157770" lon="-6.7641450">
        <ele>567.2</ele>
        <time>2021-10-04T10:26:37Z</time>
      </trkpt>
      <trkpt lat="42.6157930" lon="-6.7642000">
        <ele>567.2</ele>
        <time>2021-10-04T10:26:38Z</time>
      </trkpt>
      <trkpt lat="42.6158260" lon="-6.7643030">
        <ele>567.2</ele>
        <time>2021-10-04T10:26:40Z</time>
      </trkpt>
      <trkpt lat="42.6158470" lon="-6.7644080">
        <ele>567.2</ele>
        <time>2021-10-04T10:26:42Z</time>
      </trkpt>
      <trkpt lat="42.6158560" lon="-6.7646390">
        <ele>567.2</ele>
        <time>2021-10-04T10:26:46Z</time>
      </trkpt>
      <trkpt lat="42.6158340" lon="-6.7649470">
        <ele>566.8</ele>
        <time>2021-10-04T10:26:51Z</time>
      </trkpt>
      <trkpt lat="42.6158450" lon="-6.7650790">
        <ele>566.6</ele>
        <time>2021-10-04T10:26:53Z</time>
      </trkpt>
      <trkpt lat="42.6159030" lon="-6.7657880">
        <ele>566.0</ele>
        <time>2021-10-04T10:27:04Z</time>
      </trkpt>
      <trkpt lat="42.6158180" lon="-6.7660780">
        <ele>565.4</ele>
        <time>2021-10-04T10:27:10Z</time>
      </trkpt>
      <trkpt lat="42.6157170" lon="-6.7661460">
        <ele>565.2</ele>
        <time>2021-10-04T10:27:13Z</time>
      </trkpt>
      <trkpt lat="42.6156010" lon="-6.7662380">
        <ele>565.0</ele>
        <time>2021-10-04T10:27:16Z</time>
      </trkpt>
      <trkpt lat="42.6154680" lon="-6.7663560">
        <ele>564.2</ele>
        <time>2021-10-04T10:27:19Z</time>
      </trkpt>
      <trkpt lat="42.6153300" lon="-6.7664790">
        <ele>563.8</ele>
        <time>2021-10-04T10:27:22Z</time>
      </trkpt>
      <trkpt lat="42.6152420" lon="-6.7665680">
        <ele>563.6</ele>
        <time>2021-10-04T10:27:24Z</time>
      </trkpt>
      <trkpt lat="42.6151660" lon="-6.7666750">
        <ele>563.2</ele>
        <time>2021-10-04T10:27:26Z</time>
      </trkpt>
      <trkpt lat="42.6150890" lon="-6.7667800">
        <ele>563.0</ele>
        <time>2021-10-04T10:27:28Z</time>
      </trkpt>
      <trkpt lat="42.6150030" lon="-6.7668540">
        <ele>563.0</ele>
        <time>2021-10-04T10:27:30Z</time>
      </trkpt>
      <trkpt lat="42.6148510" lon="-6.7668800">
        <ele>562.6</ele>
        <time>2021-10-04T10:27:33Z</time>
      </trkpt>
      <trkpt lat="42.6147000" lon="-6.7669150">
        <ele>562.6</ele>
        <time>2021-10-04T10:27:36Z</time>
      </trkpt>
      <trkpt lat="42.6146080" lon="-6.7669610">
        <ele>562.4</ele>
        <time>2021-10-04T10:27:38Z</time>
      </trkpt>
      <trkpt lat="42.6145180" lon="-6.7670250">
        <ele>562.2</ele>
        <time>2021-10-04T10:27:40Z</time>
      </trkpt>
      <trkpt lat="42.6144320" lon="-6.7671090">
        <ele>562.0</ele>
        <time>2021-10-04T10:27:42Z</time>
      </trkpt>
      <trkpt lat="42.6143460" lon="-6.7672050">
        <ele>561.8</ele>
        <time>2021-10-04T10:27:44Z</time>
      </trkpt>
      <trkpt lat="42.6142070" lon="-6.7673510">
        <ele>561.4</ele>
        <time>2021-10-04T10:27:47Z</time>
      </trkpt>
      <trkpt lat="42.6140430" lon="-6.7675590">
        <ele>561.0</ele>
        <time>2021-10-04T10:27:51Z</time>
      </trkpt>
      <trkpt lat="42.6139130" lon="-6.7676720">
        <ele>560.6</ele>
        <time>2021-10-04T10:27:54Z</time>
      </trkpt>
      <trkpt lat="42.6138190" lon="-6.7677350">
        <ele>560.6</ele>
        <time>2021-10-04T10:27:56Z</time>
      </trkpt>
      <trkpt lat="42.6136720" lon="-6.7678250">
        <ele>560.6</ele>
        <time>2021-10-04T10:27:59Z</time>
      </trkpt>
      <trkpt lat="42.6135710" lon="-6.7678810">
        <ele>560.6</ele>
        <time>2021-10-04T10:28:01Z</time>
      </trkpt>
      <trkpt lat="42.6134740" lon="-6.7679350">
        <ele>561.2</ele>
        <time>2021-10-04T10:28:03Z</time>
      </trkpt>
      <trkpt lat="42.6134210" lon="-6.7679580">
        <ele>561.4</ele>
        <time>2021-10-04T10:28:04Z</time>
      </trkpt>
      <trkpt lat="42.6132650" lon="-6.7680200">
        <ele>561.6</ele>
        <time>2021-10-04T10:28:07Z</time>
      </trkpt>
      <trkpt lat="42.6130760" lon="-6.7681570">
        <ele>561.8</ele>
        <time>2021-10-04T10:28:10Z</time>
      </trkpt>
      <trkpt lat="42.6127720" lon="-6.7683630">
        <ele>561.8</ele>
        <time>2021-10-04T10:28:14Z</time>
      </trkpt>
      <trkpt lat="42.6124260" lon="-6.7685130">
        <ele>559.2</ele>
        <time>2021-10-04T10:28:18Z</time>
      </trkpt>
      <trkpt lat="42.6122600" lon="-6.7686010">
        <ele>557.2</ele>
        <time>2021-10-04T10:28:20Z</time>
      </trkpt>
      <trkpt lat="42.6121870" lon="-6.7686530">
        <ele>556.0</ele>
        <time>2021-10-04T10:28:21Z</time>
      </trkpt>
      <trkpt lat="42.6120810" lon="-6.7687850">
        <ele>554.4</ele>
        <time>2021-10-04T10:28:23Z</time>
      </trkpt>
      <trkpt lat="42.6120090" lon="-6.7689300">
        <ele>554.0</ele>
        <time>2021-10-04T10:28:25Z</time>
      </trkpt>
      <trkpt lat="42.6118850" lon="-6.7691990">
        <ele>554.0</ele>
        <time>2021-10-04T10:28:29Z</time>
      </trkpt>
      <trkpt lat="42.6118370" lon="-6.7694790">
        <ele>554.2</ele>
        <time>2021-10-04T10:28:33Z</time>
      </trkpt>
      <trkpt lat="42.6118350" lon="-6.7695460">
        <ele>554.4</ele>
        <time>2021-10-04T10:28:34Z</time>
      </trkpt>
      <trkpt lat="42.6118190" lon="-6.7697350">
        <ele>555.0</ele>
        <time>2021-10-04T10:28:37Z</time>
      </trkpt>
      <trkpt lat="42.6117670" lon="-6.7698910">
        <ele>555.6</ele>
        <time>2021-10-04T10:28:40Z</time>
      </trkpt>
      <trkpt lat="42.6117470" lon="-6.7699350">
        <ele>555.6</ele>
        <time>2021-10-04T10:28:41Z</time>
      </trkpt>
      <trkpt lat="42.6116680" lon="-6.7700850">
        <ele>556.6</ele>
        <time>2021-10-04T10:28:45Z</time>
      </trkpt>
      <trkpt lat="42.6116010" lon="-6.7702090">
        <ele>558.0</ele>
        <time>2021-10-04T10:28:49Z</time>
      </trkpt>
      <trkpt lat="42.6115350" lon="-6.7703180">
        <ele>559.2</ele>
        <time>2021-10-04T10:28:53Z</time>
      </trkpt>
      <trkpt lat="42.6114890" lon="-6.7703920">
        <ele>560.2</ele>
        <time>2021-10-04T10:28:56Z</time>
      </trkpt>
      <trkpt lat="42.6114320" lon="-6.7704910">
        <ele>561.8</ele>
        <time>2021-10-04T10:29:00Z</time>
      </trkpt>
      <trkpt lat="42.6113930" lon="-6.7705760">
        <ele>563.0</ele>
        <time>2021-10-04T10:29:03Z</time>
      </trkpt>
      <trkpt lat="42.6113360" lon="-6.7706820">
        <ele>564.0</ele>
        <time>2021-10-04T10:29:07Z</time>
      </trkpt>
      <trkpt lat="42.6112830" lon="-6.7707860">
        <ele>564.8</ele>
        <time>2021-10-04T10:29:11Z</time>
      </trkpt>
      <trkpt lat="42.6112690" lon="-6.7708120">
        <ele>565.2</ele>
        <time>2021-10-04T10:29:12Z</time>
      </trkpt>
      <trkpt lat="42.6112290" lon="-6.7708870">
        <ele>565.8</ele>
        <time>2021-10-04T10:29:15Z</time>
      </trkpt>
      <trkpt lat="42.6112010" lon="-6.7709340">
        <ele>566.4</ele>
        <time>2021-10-04T10:29:17Z</time>
      </trkpt>
      <trkpt lat="42.6111470" lon="-6.7710360">
        <ele>567.6</ele>
        <time>2021-10-04T10:29:21Z</time>
      </trkpt>
      <trkpt lat="42.6110860" lon="-6.7711300">
        <ele>568.8</ele>
        <time>2021-10-04T10:29:25Z</time>
      </trkpt>
      <trkpt lat="42.6110210" lon="-6.7712150">
        <ele>570.0</ele>
        <time>2021-10-04T10:29:29Z</time>
      </trkpt>
      <trkpt lat="42.6109490" lon="-6.7712930">
        <ele>571.4</ele>
        <time>2021-10-04T10:29:33Z</time>
      </trkpt>
      <trkpt lat="42.6109140" lon="-6.7713300">
        <ele>572.4</ele>
        <time>2021-10-04T10:29:35Z</time>
      </trkpt>
      <trkpt lat="42.6108230" lon="-6.7714090">
        <ele>573.4</ele>
        <time>2021-10-04T10:29:40Z</time>
      </trkpt>
      <trkpt lat="42.6107420" lon="-6.7715130">
        <ele>574.4</ele>
        <time>2021-10-04T10:29:45Z</time>
      </trkpt>
      <trkpt lat="42.6106830" lon="-6.7715990">
        <ele>575.6</ele>
        <time>2021-10-04T10:29:49Z</time>
      </trkpt>
      <trkpt lat="42.6106070" lon="-6.7717450">
        <ele>576.8</ele>
        <time>2021-10-04T10:29:55Z</time>
      </trkpt>
      <trkpt lat="42.6105620" lon="-6.7718520">
        <ele>577.8</ele>
        <time>2021-10-04T10:29:59Z</time>
      </trkpt>
      <trkpt lat="42.6105070" lon="-6.7719840">
        <ele>579.0</ele>
        <time>2021-10-04T10:30:04Z</time>
      </trkpt>
      <trkpt lat="42.6104630" lon="-6.7720930">
        <ele>580.2</ele>
        <time>2021-10-04T10:30:08Z</time>
      </trkpt>
      <trkpt lat="42.6104200" lon="-6.7722030">
        <ele>581.4</ele>
        <time>2021-10-04T10:30:12Z</time>
      </trkpt>
      <trkpt lat="42.6103560" lon="-6.7723730">
        <ele>582.4</ele>
        <time>2021-10-04T10:30:18Z</time>
      </trkpt>
      <trkpt lat="42.6102860" lon="-6.7725390">
        <ele>584.0</ele>
        <time>2021-10-04T10:30:24Z</time>
      </trkpt>
      <trkpt lat="42.6102150" lon="-6.7726680">
        <ele>585.0</ele>
        <time>2021-10-04T10:30:30Z</time>
      </trkpt>
      <trkpt lat="42.6101790" lon="-6.7727310">
        <ele>586.2</ele>
        <time>2021-10-04T10:30:34Z</time>
      </trkpt>
      <trkpt lat="42.6101780" lon="-6.7727340">
        <ele>586.4</ele>
        <time>2021-10-04T10:30:35Z</time>
      </trkpt>
      <trkpt lat="42.6101500" lon="-6.7727610">
        <ele>587.0</ele>
        <time>2021-10-04T10:31:44Z</time>
      </trkpt>
      <trkpt lat="42.6101420" lon="-6.7727810">
        <ele>587.0</ele>
        <time>2021-10-04T10:31:45Z</time>
      </trkpt>
      <trkpt lat="42.6101530" lon="-6.7728000">
        <ele>587.0</ele>
        <time>2021-10-04T10:31:48Z</time>
      </trkpt>
      <trkpt lat="42.6101340" lon="-6.7728730">
        <ele>586.2</ele>
        <time>2021-10-04T10:33:24Z</time>
      </trkpt>
      <trkpt lat="42.6101230" lon="-6.7729020">
        <ele>586.2</ele>
        <time>2021-10-04T10:33:25Z</time>
      </trkpt>
      <trkpt lat="42.6101060" lon="-6.7729920">
        <ele>586.2</ele>
        <time>2021-10-04T10:33:27Z</time>
      </trkpt>
      <trkpt lat="42.6100980" lon="-6.7731210">
        <ele>586.0</ele>
        <time>2021-10-04T10:33:29Z</time>
      </trkpt>
      <trkpt lat="42.6101010" lon="-6.7734750">
        <ele>585.4</ele>
        <time>2021-10-04T10:33:33Z</time>
      </trkpt>
      <trkpt lat="42.6101080" lon="-6.7736990">
        <ele>584.4</ele>
        <time>2021-10-04T10:33:35Z</time>
      </trkpt>
      <trkpt lat="42.6101070" lon="-6.7739430">
        <ele>583.0</ele>
        <time>2021-10-04T10:33:37Z</time>
      </trkpt>
      <trkpt lat="42.6101030" lon="-6.7742060">
        <ele>581.4</ele>
        <time>2021-10-04T10:33:39Z</time>
      </trkpt>
      <trkpt lat="42.6101010" lon="-6.7743430">
        <ele>580.4</ele>
        <time>2021-10-04T10:33:40Z</time>
      </trkpt>
      <trkpt lat="42.6100940" lon="-6.7744850">
        <ele>579.2</ele>
        <time>2021-10-04T10:33:41Z</time>
      </trkpt>
      <trkpt lat="42.6100810" lon="-6.7746300">
        <ele>578.0</ele>
        <time>2021-10-04T10:33:42Z</time>
      </trkpt>
      <trkpt lat="42.6100700" lon="-6.7747730">
        <ele>576.6</ele>
        <time>2021-10-04T10:33:43Z</time>
      </trkpt>
      <trkpt lat="42.6100620" lon="-6.7749160">
        <ele>575.0</ele>
        <time>2021-10-04T10:33:44Z</time>
      </trkpt>
      <trkpt lat="42.6100640" lon="-6.7750550">
        <ele>573.8</ele>
        <time>2021-10-04T10:33:45Z</time>
      </trkpt>
      <trkpt lat="42.6100940" lon="-6.7753230">
        <ele>572.0</ele>
        <time>2021-10-04T10:33:47Z</time>
      </trkpt>
      <trkpt lat="42.6101080" lon="-6.7754540">
        <ele>570.6</ele>
        <time>2021-10-04T10:33:48Z</time>
      </trkpt>
      <trkpt lat="42.6101150" lon="-6.7755840">
        <ele>569.4</ele>
        <time>2021-10-04T10:33:49Z</time>
      </trkpt>
      <trkpt lat="42.6100990" lon="-6.7759580">
        <ele>568.2</ele>
        <time>2021-10-04T10:33:52Z</time>
      </trkpt>
      <trkpt lat="42.6100550" lon="-6.7763360">
        <ele>568.0</ele>
        <time>2021-10-04T10:33:56Z</time>
      </trkpt>
      <trkpt lat="42.6100370" lon="-6.7764900">
        <ele>568.0</ele>
        <time>2021-10-04T10:33:58Z</time>
      </trkpt>
      <trkpt lat="42.6100260" lon="-6.7766350">
        <ele>568.0</ele>
        <time>2021-10-04T10:34:00Z</time>
      </trkpt>
      <trkpt lat="42.6099910" lon="-6.7767590">
        <ele>568.2</ele>
        <time>2021-10-04T10:34:02Z</time>
      </trkpt>
      <trkpt lat="42.6099330" lon="-6.7768730">
        <ele>568.8</ele>
        <time>2021-10-04T10:34:04Z</time>
      </trkpt>
      <trkpt lat="42.6098480" lon="-6.7769690">
        <ele>569.2</ele>
        <time>2021-10-04T10:34:06Z</time>
      </trkpt>
      <trkpt lat="42.6098020" lon="-6.7770150">
        <ele>569.6</ele>
        <time>2021-10-04T10:34:07Z</time>
      </trkpt>
      <trkpt lat="42.6097140" lon="-6.7771170">
        <ele>570.6</ele>
        <time>2021-10-04T10:34:09Z</time>
      </trkpt>
      <trkpt lat="42.6096750" lon="-6.7771750">
        <ele>571.4</ele>
        <time>2021-10-04T10:34:10Z</time>
      </trkpt>
      <trkpt lat="42.6096100" lon="-6.7772990">
        <ele>572.0</ele>
        <time>2021-10-04T10:34:12Z</time>
      </trkpt>
      <trkpt lat="42.6095570" lon="-6.7774300">
        <ele>572.6</ele>
        <time>2021-10-04T10:34:14Z</time>
      </trkpt>
      <trkpt lat="42.6095110" lon="-6.7775590">
        <ele>573.2</ele>
        <time>2021-10-04T10:34:16Z</time>
      </trkpt>
      <trkpt lat="42.6094900" lon="-6.7776180">
        <ele>573.4</ele>
        <time>2021-10-04T10:34:17Z</time>
      </trkpt>
      <trkpt lat="42.6094680" lon="-6.7776720">
        <ele>574.0</ele>
        <time>2021-10-04T10:34:18Z</time>
      </trkpt>
      <trkpt lat="42.6094280" lon="-6.7777700">
        <ele>575.0</ele>
        <time>2021-10-04T10:34:20Z</time>
      </trkpt>
      <trkpt lat="42.6093890" lon="-6.7778500">
        <ele>576.2</ele>
        <time>2021-10-04T10:34:22Z</time>
      </trkpt>
      <trkpt lat="42.6093570" lon="-6.7779140">
        <ele>577.6</ele>
        <time>2021-10-04T10:34:24Z</time>
      </trkpt>
      <trkpt lat="42.6093320" lon="-6.7779710">
        <ele>579.4</ele>
        <time>2021-10-04T10:34:26Z</time>
      </trkpt>
      <trkpt lat="42.6092960" lon="-6.7780180">
        <ele>580.8</ele>
        <time>2021-10-04T10:34:28Z</time>
      </trkpt>
      <trkpt lat="42.6092580" lon="-6.7780570">
        <ele>582.4</ele>
        <time>2021-10-04T10:34:30Z</time>
      </trkpt>
      <trkpt lat="42.6092180" lon="-6.7780840">
        <ele>583.6</ele>
        <time>2021-10-04T10:34:32Z</time>
      </trkpt>
      <trkpt lat="42.6091550" lon="-6.7781110">
        <ele>585.0</ele>
        <time>2021-10-04T10:34:35Z</time>
      </trkpt>
      <trkpt lat="42.6091130" lon="-6.7781240">
        <ele>586.0</ele>
        <time>2021-10-04T10:34:37Z</time>
      </trkpt>
      <trkpt lat="42.6090470" lon="-6.7781280">
        <ele>587.4</ele>
        <time>2021-10-04T10:34:40Z</time>
      </trkpt>
      <trkpt lat="42.6089830" lon="-6.7781550">
        <ele>588.6</ele>
        <time>2021-10-04T10:34:43Z</time>
      </trkpt>
      <trkpt lat="42.6089250" lon="-6.7781900">
        <ele>589.6</ele>
        <time>2021-10-04T10:34:46Z</time>
      </trkpt>
      <trkpt lat="42.6088690" lon="-6.7782360">
        <ele>590.8</ele>
        <time>2021-10-04T10:34:49Z</time>
      </trkpt>
      <trkpt lat="42.6088170" lon="-6.7782870">
        <ele>592.0</ele>
        <time>2021-10-04T10:34:52Z</time>
      </trkpt>
      <trkpt lat="42.6087670" lon="-6.7783480">
        <ele>593.2</ele>
        <time>2021-10-04T10:34:55Z</time>
      </trkpt>
      <trkpt lat="42.6087310" lon="-6.7784180">
        <ele>594.2</ele>
        <time>2021-10-04T10:34:58Z</time>
      </trkpt>
      <trkpt lat="42.6086740" lon="-6.7785310">
        <ele>595.4</ele>
        <time>2021-10-04T10:35:03Z</time>
      </trkpt>
      <trkpt lat="42.6086390" lon="-6.7786350">
        <ele>596.2</ele>
        <time>2021-10-04T10:35:07Z</time>
      </trkpt>
      <trkpt lat="42.6086260" lon="-6.7786940">
        <ele>596.4</ele>
        <time>2021-10-04T10:35:09Z</time>
      </trkpt>
      <trkpt lat="42.6086020" lon="-6.7787810">
        <ele>596.6</ele>
        <time>2021-10-04T10:35:12Z</time>
      </trkpt>
      <trkpt lat="42.6085920" lon="-6.7788380">
        <ele>596.6</ele>
        <time>2021-10-04T10:35:16Z</time>
      </trkpt>
      <trkpt lat="42.6085670" lon="-6.7788340">
        <ele>597.4</ele>
        <time>2021-10-04T10:37:57Z</time>
      </trkpt>
      <trkpt lat="42.6085480" lon="-6.7788440">
        <ele>597.4</ele>
        <time>2021-10-04T10:37:58Z</time>
      </trkpt>
      <trkpt lat="42.6081590" lon="-6.7792940">
        <ele>595.8</ele>
        <time>2021-10-04T10:38:14Z</time>
      </trkpt>
      <trkpt lat="42.6079890" lon="-6.7795100">
        <ele>595.2</ele>
        <time>2021-10-04T10:38:21Z</time>
      </trkpt>
      <trkpt lat="42.6078730" lon="-6.7796560">
        <ele>594.6</ele>
        <time>2021-10-04T10:38:25Z</time>
      </trkpt>
      <trkpt lat="42.6077010" lon="-6.7798980">
        <ele>593.6</ele>
        <time>2021-10-04T10:38:31Z</time>
      </trkpt>
      <trkpt lat="42.6076730" lon="-6.7799480">
        <ele>593.6</ele>
        <time>2021-10-04T10:38:32Z</time>
      </trkpt>
      <trkpt lat="42.6075790" lon="-6.7801310">
        <ele>593.4</ele>
        <time>2021-10-04T10:38:35Z</time>
      </trkpt>
      <trkpt lat="42.6075500" lon="-6.7802000">
        <ele>593.2</ele>
        <time>2021-10-04T10:38:36Z</time>
      </trkpt>
      <trkpt lat="42.6075140" lon="-6.7804410">
        <ele>592.4</ele>
        <time>2021-10-04T10:38:39Z</time>
      </trkpt>
      <trkpt lat="42.6075320" lon="-6.7806090">
        <ele>591.0</ele>
        <time>2021-10-04T10:38:41Z</time>
      </trkpt>
      <trkpt lat="42.6075500" lon="-6.7807790">
        <ele>589.2</ele>
        <time>2021-10-04T10:38:43Z</time>
      </trkpt>
      <trkpt lat="42.6075500" lon="-6.7808710">
        <ele>588.6</ele>
        <time>2021-10-04T10:38:44Z</time>
      </trkpt>
      <trkpt lat="42.6075470" lon="-6.7809620">
        <ele>587.8</ele>
        <time>2021-10-04T10:38:45Z</time>
      </trkpt>
      <trkpt lat="42.6075260" lon="-6.7812290">
        <ele>586.6</ele>
        <time>2021-10-04T10:38:48Z</time>
      </trkpt>
      <trkpt lat="42.6075120" lon="-6.7813150">
        <ele>586.2</ele>
        <time>2021-10-04T10:38:49Z</time>
      </trkpt>
      <trkpt lat="42.6074640" lon="-6.7814810">
        <ele>585.4</ele>
        <time>2021-10-04T10:38:51Z</time>
      </trkpt>
      <trkpt lat="42.6073380" lon="-6.7816890">
        <ele>584.6</ele>
        <time>2021-10-04T10:38:54Z</time>
      </trkpt>
      <trkpt lat="42.6072920" lon="-6.7817540">
        <ele>584.4</ele>
        <time>2021-10-04T10:38:55Z</time>
      </trkpt>
      <trkpt lat="42.6072410" lon="-6.7818140">
        <ele>584.4</ele>
        <time>2021-10-04T10:38:56Z</time>
      </trkpt>
      <trkpt lat="42.6068220" lon="-6.7822880">
        <ele>584.2</ele>
        <time>2021-10-04T10:39:05Z</time>
      </trkpt>
      <trkpt lat="42.6067060" lon="-6.7824770">
        <ele>584.2</ele>
        <time>2021-10-04T10:39:08Z</time>
      </trkpt>
      <trkpt lat="42.6066330" lon="-6.7825990">
        <ele>584.6</ele>
        <time>2021-10-04T10:39:10Z</time>
      </trkpt>
      <trkpt lat="42.6063470" lon="-6.7830540">
        <ele>584.6</ele>
        <time>2021-10-04T10:39:17Z</time>
      </trkpt>
      <trkpt lat="42.6061230" lon="-6.7833440">
        <ele>584.6</ele>
        <time>2021-10-04T10:39:22Z</time>
      </trkpt>
      <trkpt lat="42.6059460" lon="-6.7835390">
        <ele>584.6</ele>
        <time>2021-10-04T10:39:26Z</time>
      </trkpt>
      <trkpt lat="42.6057220" lon="-6.7837810">
        <ele>584.6</ele>
        <time>2021-10-04T10:39:31Z</time>
      </trkpt>
      <trkpt lat="42.6052920" lon="-6.7841840">
        <ele>585.0</ele>
        <time>2021-10-04T10:39:40Z</time>
      </trkpt>
      <trkpt lat="42.6051350" lon="-6.7843480">
        <ele>585.6</ele>
        <time>2021-10-04T10:39:44Z</time>
      </trkpt>
      <trkpt lat="42.6050390" lon="-6.7845270">
        <ele>586.8</ele>
        <time>2021-10-04T10:39:49Z</time>
      </trkpt>
      <trkpt lat="42.6050330" lon="-6.7845830">
        <ele>587.4</ele>
        <time>2021-10-04T10:39:50Z</time>
      </trkpt>
      <trkpt lat="42.6050290" lon="-6.7846500">
        <ele>587.8</ele>
        <time>2021-10-04T10:39:51Z</time>
      </trkpt>
      <trkpt lat="42.6050310" lon="-6.7850710">
        <ele>588.4</ele>
        <time>2021-10-04T10:39:56Z</time>
      </trkpt>
      <trkpt lat="42.6049830" lon="-6.7853370">
        <ele>588.4</ele>
        <time>2021-10-04T10:39:59Z</time>
      </trkpt>
      <trkpt lat="42.6048780" lon="-6.7855520">
        <ele>586.8</ele>
        <time>2021-10-04T10:40:02Z</time>
      </trkpt>
      <trkpt lat="42.6047360" lon="-6.7858510">
        <ele>586.4</ele>
        <time>2021-10-04T10:40:07Z</time>
      </trkpt>
      <trkpt lat="42.6046840" lon="-6.7860540">
        <ele>586.6</ele>
        <time>2021-10-04T10:40:11Z</time>
      </trkpt>
      <trkpt lat="42.6046620" lon="-6.7861570">
        <ele>588.0</ele>
        <time>2021-10-04T10:40:13Z</time>
      </trkpt>
      <trkpt lat="42.6046440" lon="-6.7862590">
        <ele>589.4</ele>
        <time>2021-10-04T10:40:15Z</time>
      </trkpt>
      <trkpt lat="42.6046230" lon="-6.7864180">
        <ele>590.6</ele>
        <time>2021-10-04T10:40:18Z</time>
      </trkpt>
      <trkpt lat="42.6045770" lon="-6.7867260">
        <ele>591.8</ele>
        <time>2021-10-04T10:40:24Z</time>
      </trkpt>
      <trkpt lat="42.6045710" lon="-6.7869920">
        <ele>592.2</ele>
        <time>2021-10-04T10:40:29Z</time>
      </trkpt>
      <trkpt lat="42.6046440" lon="-6.7875090">
        <ele>592.8</ele>
        <time>2021-10-04T10:40:40Z</time>
      </trkpt>
      <trkpt lat="42.6047250" lon="-6.7879390">
        <ele>593.6</ele>
        <time>2021-10-04T10:40:48Z</time>
      </trkpt>
      <trkpt lat="42.6047700" lon="-6.7881400">
        <ele>594.0</ele>
        <time>2021-10-04T10:40:52Z</time>
      </trkpt>
      <trkpt lat="42.6048280" lon="-6.7883700">
        <ele>595.0</ele>
        <time>2021-10-04T10:40:57Z</time>
      </trkpt>
      <trkpt lat="42.6048600" lon="-6.7885030">
        <ele>596.2</ele>
        <time>2021-10-04T10:41:00Z</time>
      </trkpt>
      <trkpt lat="42.6048840" lon="-6.7885930">
        <ele>597.2</ele>
        <time>2021-10-04T10:41:02Z</time>
      </trkpt>
      <trkpt lat="42.6049270" lon="-6.7887470">
        <ele>597.6</ele>
        <time>2021-10-04T10:41:05Z</time>
      </trkpt>
      <trkpt lat="42.6049680" lon="-6.7889200">
        <ele>597.8</ele>
        <time>2021-10-04T10:41:08Z</time>
      </trkpt>
      <trkpt lat="42.6050090" lon="-6.7891110">
        <ele>598.0</ele>
        <time>2021-10-04T10:41:11Z</time>
      </trkpt>
      <trkpt lat="42.6050380" lon="-6.7892370">
        <ele>597.8</ele>
        <time>2021-10-04T10:41:13Z</time>
      </trkpt>
      <trkpt lat="42.6050560" lon="-6.7894400">
        <ele>596.6</ele>
        <time>2021-10-04T10:41:16Z</time>
      </trkpt>
      <trkpt lat="42.6050680" lon="-6.7895820">
        <ele>596.4</ele>
        <time>2021-10-04T10:41:18Z</time>
      </trkpt>
      <trkpt lat="42.6051520" lon="-6.7900360">
        <ele>595.6</ele>
        <time>2021-10-04T10:41:24Z</time>
      </trkpt>
      <trkpt lat="42.6051770" lon="-6.7901140">
        <ele>595.4</ele>
        <time>2021-10-04T10:41:25Z</time>
      </trkpt>
      <trkpt lat="42.6052060" lon="-6.7901920">
        <ele>595.0</ele>
        <time>2021-10-04T10:41:26Z</time>
      </trkpt>
      <trkpt lat="42.6052730" lon="-6.7903460">
        <ele>594.2</ele>
        <time>2021-10-04T10:41:28Z</time>
      </trkpt>
      <trkpt lat="42.6053050" lon="-6.7904200">
        <ele>593.8</ele>
        <time>2021-10-04T10:41:29Z</time>
      </trkpt>
      <trkpt lat="42.6053290" lon="-6.7904910">
        <ele>593.4</ele>
        <time>2021-10-04T10:41:30Z</time>
      </trkpt>
      <trkpt lat="42.6053420" lon="-6.7905640">
        <ele>592.8</ele>
        <time>2021-10-04T10:41:31Z</time>
      </trkpt>
      <trkpt lat="42.6053310" lon="-6.7907030">
        <ele>590.8</ele>
        <time>2021-10-04T10:41:33Z</time>
      </trkpt>
      <trkpt lat="42.6052970" lon="-6.7908390">
        <ele>588.8</ele>
        <time>2021-10-04T10:41:35Z</time>
      </trkpt>
      <trkpt lat="42.6052740" lon="-6.7909040">
        <ele>587.4</ele>
        <time>2021-10-04T10:41:36Z</time>
      </trkpt>
      <trkpt lat="42.6052460" lon="-6.7909660">
        <ele>586.6</ele>
        <time>2021-10-04T10:41:37Z</time>
      </trkpt>
      <trkpt lat="42.6052170" lon="-6.7910230">
        <ele>586.4</ele>
        <time>2021-10-04T10:41:38Z</time>
      </trkpt>
      <trkpt lat="42.6050510" lon="-6.7912920">
        <ele>585.8</ele>
        <time>2021-10-04T10:41:43Z</time>
      </trkpt>
      <trkpt lat="42.6048450" lon="-6.7916260">
        <ele>585.8</ele>
        <time>2021-10-04T10:41:50Z</time>
      </trkpt>
      <trkpt lat="42.6047620" lon="-6.7918800">
        <ele>585.6</ele>
        <time>2021-10-04T10:41:54Z</time>
      </trkpt>
      <trkpt lat="42.6047410" lon="-6.7920980">
        <ele>585.4</ele>
        <time>2021-10-04T10:41:57Z</time>
      </trkpt>
      <trkpt lat="42.6047400" lon="-6.7921690">
        <ele>585.0</ele>
        <time>2021-10-04T10:41:58Z</time>
      </trkpt>
      <trkpt lat="42.6047690" lon="-6.7927380">
        <ele>584.2</ele>
        <time>2021-10-04T10:42:07Z</time>
      </trkpt>
      <trkpt lat="42.6048040" lon="-6.7933150">
        <ele>586.0</ele>
        <time>2021-10-04T10:42:17Z</time>
      </trkpt>
      <trkpt lat="42.6047970" lon="-6.7936480">
        <ele>587.2</ele>
        <time>2021-10-04T10:42:23Z</time>
      </trkpt>
      <trkpt lat="42.6047990" lon="-6.7938470">
        <ele>587.6</ele>
        <time>2021-10-04T10:42:27Z</time>
      </trkpt>
      <trkpt lat="42.6048050" lon="-6.7939880">
        <ele>588.4</ele>
        <time>2021-10-04T10:42:30Z</time>
      </trkpt>
      <trkpt lat="42.6048060" lon="-6.7941230">
        <ele>589.2</ele>
        <time>2021-10-04T10:42:33Z</time>
      </trkpt>
      <trkpt lat="42.6048070" lon="-6.7941660">
        <ele>589.8</ele>
        <time>2021-10-04T10:42:34Z</time>
      </trkpt>
      <trkpt lat="42.6048130" lon="-6.7942890">
        <ele>590.8</ele>
        <time>2021-10-04T10:42:37Z</time>
      </trkpt>
      <trkpt lat="42.6048110" lon="-6.7944240">
        <ele>591.8</ele>
        <time>2021-10-04T10:42:40Z</time>
      </trkpt>
      <trkpt lat="42.6048080" lon="-6.7945840">
        <ele>593.0</ele>
        <time>2021-10-04T10:42:43Z</time>
      </trkpt>
      <trkpt lat="42.6048070" lon="-6.7947400">
        <ele>594.2</ele>
        <time>2021-10-04T10:42:46Z</time>
      </trkpt>
      <trkpt lat="42.6048060" lon="-6.7950720">
        <ele>595.2</ele>
        <time>2021-10-04T10:42:53Z</time>
      </trkpt>
      <trkpt lat="42.6047950" lon="-6.7952660">
        <ele>596.0</ele>
        <time>2021-10-04T10:42:58Z</time>
      </trkpt>
      <trkpt lat="42.6047890" lon="-6.7954240">
        <ele>596.2</ele>
        <time>2021-10-04T10:43:01Z</time>
      </trkpt>
      <trkpt lat="42.6047820" lon="-6.7956210">
        <ele>596.2</ele>
        <time>2021-10-04T10:43:04Z</time>
      </trkpt>
      <trkpt lat="42.6047720" lon="-6.7957790">
        <ele>596.2</ele>
        <time>2021-10-04T10:43:06Z</time>
      </trkpt>
      <trkpt lat="42.6047630" lon="-6.7959490">
        <ele>596.2</ele>
        <time>2021-10-04T10:43:08Z</time>
      </trkpt>
      <trkpt lat="42.6047480" lon="-6.7961290">
        <ele>595.8</ele>
        <time>2021-10-04T10:43:10Z</time>
      </trkpt>
      <trkpt lat="42.6047380" lon="-6.7963000">
        <ele>595.2</ele>
        <time>2021-10-04T10:43:12Z</time>
      </trkpt>
      <trkpt lat="42.6047220" lon="-6.7964620">
        <ele>594.0</ele>
        <time>2021-10-04T10:43:14Z</time>
      </trkpt>
      <trkpt lat="42.6046710" lon="-6.7966230">
        <ele>592.6</ele>
        <time>2021-10-04T10:43:16Z</time>
      </trkpt>
      <trkpt lat="42.6045930" lon="-6.7967870">
        <ele>591.2</ele>
        <time>2021-10-04T10:43:18Z</time>
      </trkpt>
      <trkpt lat="42.6044990" lon="-6.7969610">
        <ele>589.8</ele>
        <time>2021-10-04T10:43:20Z</time>
      </trkpt>
      <trkpt lat="42.6044060" lon="-6.7971540">
        <ele>588.8</ele>
        <time>2021-10-04T10:43:22Z</time>
      </trkpt>
      <trkpt lat="42.6043610" lon="-6.7972580">
        <ele>588.4</ele>
        <time>2021-10-04T10:43:23Z</time>
      </trkpt>
      <trkpt lat="42.6042730" lon="-6.7974680">
        <ele>587.2</ele>
        <time>2021-10-04T10:43:25Z</time>
      </trkpt>
      <trkpt lat="42.6041820" lon="-6.7976800">
        <ele>585.6</ele>
        <time>2021-10-04T10:43:27Z</time>
      </trkpt>
      <trkpt lat="42.6040880" lon="-6.7978950">
        <ele>584.2</ele>
        <time>2021-10-04T10:43:29Z</time>
      </trkpt>
      <trkpt lat="42.6040460" lon="-6.7980070">
        <ele>583.4</ele>
        <time>2021-10-04T10:43:30Z</time>
      </trkpt>
      <trkpt lat="42.6040130" lon="-6.7981260">
        <ele>582.4</ele>
        <time>2021-10-04T10:43:31Z</time>
      </trkpt>
      <trkpt lat="42.6039540" lon="-6.7985180">
        <ele>581.0</ele>
        <time>2021-10-04T10:43:34Z</time>
      </trkpt>
      <trkpt lat="42.6039530" lon="-6.7987880">
        <ele>580.0</ele>
        <time>2021-10-04T10:43:36Z</time>
      </trkpt>
      <trkpt lat="42.6039740" lon="-6.7990440">
        <ele>578.8</ele>
        <time>2021-10-04T10:43:38Z</time>
      </trkpt>
      <trkpt lat="42.6040040" lon="-6.7992890">
        <ele>577.4</ele>
        <time>2021-10-04T10:43:40Z</time>
      </trkpt>
      <trkpt lat="42.6040320" lon="-6.7995330">
        <ele>576.2</ele>
        <time>2021-10-04T10:43:42Z</time>
      </trkpt>
      <trkpt lat="42.6040690" lon="-6.7999050">
        <ele>575.2</ele>
        <time>2021-10-04T10:43:45Z</time>
      </trkpt>
      <trkpt lat="42.6041370" lon="-6.8005450">
        <ele>574.6</ele>
        <time>2021-10-04T10:43:50Z</time>
      </trkpt>
      <trkpt lat="42.6041560" lon="-6.8006750">
        <ele>574.4</ele>
        <time>2021-10-04T10:43:51Z</time>
      </trkpt>
      <trkpt lat="42.6041770" lon="-6.8008060">
        <ele>573.8</ele>
        <time>2021-10-04T10:43:52Z</time>
      </trkpt>
      <trkpt lat="42.6042020" lon="-6.8009360">
        <ele>573.4</ele>
        <time>2021-10-04T10:43:53Z</time>
      </trkpt>
      <trkpt lat="42.6042290" lon="-6.8010660">
        <ele>572.6</ele>
        <time>2021-10-04T10:43:54Z</time>
      </trkpt>
      <trkpt lat="42.6042820" lon="-6.8013240">
        <ele>571.2</ele>
        <time>2021-10-04T10:43:56Z</time>
      </trkpt>
      <trkpt lat="42.6043350" lon="-6.8015770">
        <ele>570.0</ele>
        <time>2021-10-04T10:43:58Z</time>
      </trkpt>
      <trkpt lat="42.6043820" lon="-6.8018280">
        <ele>568.6</ele>
        <time>2021-10-04T10:44:00Z</time>
      </trkpt>
      <trkpt lat="42.6044720" lon="-6.8023140">
        <ele>567.6</ele>
        <time>2021-10-04T10:44:04Z</time>
      </trkpt>
      <trkpt lat="42.6044920" lon="-6.8024350">
        <ele>567.4</ele>
        <time>2021-10-04T10:44:05Z</time>
      </trkpt>
      <trkpt lat="42.6045150" lon="-6.8028110">
        <ele>566.6</ele>
        <time>2021-10-04T10:44:08Z</time>
      </trkpt>
      <trkpt lat="42.6045120" lon="-6.8029400">
        <ele>566.6</ele>
        <time>2021-10-04T10:44:09Z</time>
      </trkpt>
      <trkpt lat="42.6045030" lon="-6.8033300">
        <ele>566.0</ele>
        <time>2021-10-04T10:44:12Z</time>
      </trkpt>
      <trkpt lat="42.6045170" lon="-6.8037350">
        <ele>565.2</ele>
        <time>2021-10-04T10:44:15Z</time>
      </trkpt>
      <trkpt lat="42.6045350" lon="-6.8040210">
        <ele>564.2</ele>
        <time>2021-10-04T10:44:17Z</time>
      </trkpt>
      <trkpt lat="42.6045480" lon="-6.8043200">
        <ele>563.0</ele>
        <time>2021-10-04T10:44:19Z</time>
      </trkpt>
      <trkpt lat="42.6045640" lon="-6.8046230">
        <ele>561.6</ele>
        <time>2021-10-04T10:44:21Z</time>
      </trkpt>
      <trkpt lat="42.6045750" lon="-6.8049270">
        <ele>559.8</ele>
        <time>2021-10-04T10:44:23Z</time>
      </trkpt>
      <trkpt lat="42.6045760" lon="-6.8052290">
        <ele>558.0</ele>
        <time>2021-10-04T10:44:25Z</time>
      </trkpt>
      <trkpt lat="42.6045770" lon="-6.8053770">
        <ele>556.8</ele>
        <time>2021-10-04T10:44:26Z</time>
      </trkpt>
      <trkpt lat="42.6045800" lon="-6.8055250">
        <ele>555.8</ele>
        <time>2021-10-04T10:44:27Z</time>
      </trkpt>
      <trkpt lat="42.6045790" lon="-6.8058120">
        <ele>553.4</ele>
        <time>2021-10-04T10:44:29Z</time>
      </trkpt>
      <trkpt lat="42.6045680" lon="-6.8059500">
        <ele>553.2</ele>
        <time>2021-10-04T10:44:30Z</time>
      </trkpt>
      <trkpt lat="42.6045490" lon="-6.8060860">
        <ele>552.4</ele>
        <time>2021-10-04T10:44:31Z</time>
      </trkpt>
      <trkpt lat="42.6044740" lon="-6.8064900">
        <ele>551.0</ele>
        <time>2021-10-04T10:44:34Z</time>
      </trkpt>
      <trkpt lat="42.6044050" lon="-6.8068770">
        <ele>550.4</ele>
        <time>2021-10-04T10:44:37Z</time>
      </trkpt>
      <trkpt lat="42.6043780" lon="-6.8070940">
        <ele>550.0</ele>
        <time>2021-10-04T10:44:39Z</time>
      </trkpt>
      <trkpt lat="42.6043640" lon="-6.8071740">
        <ele>549.8</ele>
        <time>2021-10-04T10:44:40Z</time>
      </trkpt>
      <trkpt lat="42.6043500" lon="-6.8072870">
        <ele>549.8</ele>
        <time>2021-10-04T10:44:42Z</time>
      </trkpt>
      <trkpt lat="42.6043450" lon="-6.8073210">
        <ele>549.8</ele>
        <time>2021-10-04T10:44:44Z</time>
      </trkpt>
      <trkpt lat="42.6043440" lon="-6.8073200">
        <ele>549.8</ele>
        <time>2021-10-04T10:44:45Z</time>
      </trkpt>
      <trkpt lat="42.6043120" lon="-6.8073140">
        <ele>551.2</ele>
        <time>2021-10-04T10:44:57Z</time>
      </trkpt>
      <trkpt lat="42.6042980" lon="-6.8072930">
        <ele>551.2</ele>
        <time>2021-10-04T10:44:58Z</time>
      </trkpt>
      <trkpt lat="42.6042900" lon="-6.8072290">
        <ele>551.2</ele>
        <time>2021-10-04T10:45:00Z</time>
      </trkpt>
      <trkpt lat="42.6042910" lon="-6.8071710">
        <ele>551.2</ele>
        <time>2021-10-04T10:45:02Z</time>
      </trkpt>
      <trkpt lat="42.6043250" lon="-6.8071160">
        <ele>551.2</ele>
        <time>2021-10-04T10:45:05Z</time>
      </trkpt>
      <trkpt lat="42.6042530" lon="-6.8076570">
        <ele>551.2</ele>
        <time>2021-10-04T10:47:53Z</time>
      </trkpt>
      <trkpt lat="42.6042490" lon="-6.8077000">
        <ele>550.6</ele>
        <time>2021-10-04T10:47:54Z</time>
      </trkpt>
      <trkpt lat="42.6042400" lon="-6.8077870">
        <ele>550.0</ele>
        <time>2021-10-04T10:47:56Z</time>
      </trkpt>
      <trkpt lat="42.6042220" lon="-6.8079610">
        <ele>549.0</ele>
        <time>2021-10-04T10:48:00Z</time>
      </trkpt>
      <trkpt lat="42.6042030" lon="-6.8080830">
        <ele>548.4</ele>
        <time>2021-10-04T10:48:03Z</time>
      </trkpt>
      <trkpt lat="42.6041880" lon="-6.8081960">
        <ele>548.0</ele>
        <time>2021-10-04T10:48:06Z</time>
      </trkpt>
      <trkpt lat="42.6041930" lon="-6.8083810">
        <ele>546.8</ele>
        <time>2021-10-04T10:48:11Z</time>
      </trkpt>
      <trkpt lat="42.6042070" lon="-6.8085380">
        <ele>545.8</ele>
        <time>2021-10-04T10:48:15Z</time>
      </trkpt>
      <trkpt lat="42.6042400" lon="-6.8087570">
        <ele>544.6</ele>
        <time>2021-10-04T10:48:20Z</time>
      </trkpt>
      <trkpt lat="42.6042720" lon="-6.8090220">
        <ele>543.2</ele>
        <time>2021-10-04T10:48:26Z</time>
      </trkpt>
      <trkpt lat="42.6042840" lon="-6.8091390">
        <ele>541.8</ele>
        <time>2021-10-04T10:48:29Z</time>
      </trkpt>
      <trkpt lat="42.6042840" lon="-6.8093110">
        <ele>541.0</ele>
        <time>2021-10-04T10:48:34Z</time>
      </trkpt>
      <trkpt lat="42.6042860" lon="-6.8093310">
        <ele>540.8</ele>
        <time>2021-10-04T10:48:36Z</time>
      </trkpt>
      <trkpt lat="42.6042950" lon="-6.8093680">
        <ele>539.2</ele>
        <time>2021-10-04T10:49:49Z</time>
      </trkpt>
      <trkpt lat="42.6043010" lon="-6.8093940">
        <ele>539.2</ele>
        <time>2021-10-04T10:49:50Z</time>
      </trkpt>
      <trkpt lat="42.6043110" lon="-6.8094560">
        <ele>539.2</ele>
        <time>2021-10-04T10:49:53Z</time>
      </trkpt>
      <trkpt lat="42.6043150" lon="-6.8094670">
        <ele>539.2</ele>
        <time>2021-10-04T10:49:55Z</time>
      </trkpt>
      <trkpt lat="42.6043240" lon="-6.8094980">
        <ele>538.6</ele>
        <time>2021-10-04T10:50:26Z</time>
      </trkpt>
      <trkpt lat="42.6043330" lon="-6.8095230">
        <ele>538.6</ele>
        <time>2021-10-04T10:50:27Z</time>
      </trkpt>
      <trkpt lat="42.6043670" lon="-6.8095780">
        <ele>538.4</ele>
        <time>2021-10-04T10:50:29Z</time>
      </trkpt>
      <trkpt lat="42.6044930" lon="-6.8098140">
        <ele>538.2</ele>
        <time>2021-10-04T10:50:35Z</time>
      </trkpt>
      <trkpt lat="42.6044960" lon="-6.8099550">
        <ele>536.8</ele>
        <time>2021-10-04T10:50:39Z</time>
      </trkpt>
      <trkpt lat="42.6044410" lon="-6.8101640">
        <ele>535.8</ele>
        <time>2021-10-04T10:50:45Z</time>
      </trkpt>
      <trkpt lat="42.6043460" lon="-6.8104840">
        <ele>535.2</ele>
        <time>2021-10-04T10:50:52Z</time>
      </trkpt>
      <trkpt lat="42.6043190" lon="-6.8105820">
        <ele>535.0</ele>
        <time>2021-10-04T10:50:54Z</time>
      </trkpt>
      <trkpt lat="42.6042820" lon="-6.8107410">
        <ele>534.2</ele>
        <time>2021-10-04T10:50:57Z</time>
      </trkpt>
      <trkpt lat="42.6042950" lon="-6.8108560">
        <ele>533.8</ele>
        <time>2021-10-04T10:50:59Z</time>
      </trkpt>
      <trkpt lat="42.6044970" lon="-6.8110390">
        <ele>532.6</ele>
        <time>2021-10-04T10:51:04Z</time>
      </trkpt>
      <trkpt lat="42.6045480" lon="-6.8110630">
        <ele>532.4</ele>
        <time>2021-10-04T10:51:05Z</time>
      </trkpt>
      <trkpt lat="42.6047000" lon="-6.8111330">
        <ele>531.2</ele>
        <time>2021-10-04T10:51:08Z</time>
      </trkpt>
      <trkpt lat="42.6047960" lon="-6.8111810">
        <ele>529.6</ele>
        <time>2021-10-04T10:51:10Z</time>
      </trkpt>
      <trkpt lat="42.6048840" lon="-6.8112200">
        <ele>528.2</ele>
        <time>2021-10-04T10:51:12Z</time>
      </trkpt>
      <trkpt lat="42.6049570" lon="-6.8112360">
        <ele>526.8</ele>
        <time>2021-10-04T10:51:14Z</time>
      </trkpt>
      <trkpt lat="42.6050670" lon="-6.8112450">
        <ele>525.4</ele>
        <time>2021-10-04T10:51:17Z</time>
      </trkpt>
      <trkpt lat="42.6052470" lon="-6.8111850">
        <ele>524.2</ele>
        <time>2021-10-04T10:51:22Z</time>
      </trkpt>
      <trkpt lat="42.6053410" lon="-6.8111270">
        <ele>523.2</ele>
        <time>2021-10-04T10:51:26Z</time>
      </trkpt>
      <trkpt lat="42.6054590" lon="-6.8109580">
        <ele>522.4</ele>
        <time>2021-10-04T10:51:33Z</time>
      </trkpt>
      <trkpt lat="42.6054810" lon="-6.8109130">
        <ele>522.4</ele>
        <time>2021-10-04T10:51:34Z</time>
      </trkpt>
      <trkpt lat="42.6055320" lon="-6.8108160">
        <ele>522.4</ele>
        <time>2021-10-04T10:51:36Z</time>
      </trkpt>
      <trkpt lat="42.6056060" lon="-6.8107740">
        <ele>522.0</ele>
        <time>2021-10-04T10:51:38Z</time>
      </trkpt>
      <trkpt lat="42.6056790" lon="-6.8107830">
        <ele>521.2</ele>
        <time>2021-10-04T10:51:40Z</time>
      </trkpt>
      <trkpt lat="42.6057180" lon="-6.8107960">
        <ele>520.6</ele>
        <time>2021-10-04T10:51:41Z</time>
      </trkpt>
      <trkpt lat="42.6057970" lon="-6.8108160">
        <ele>519.2</ele>
        <time>2021-10-04T10:51:43Z</time>
      </trkpt>
      <trkpt lat="42.6058750" lon="-6.8108310">
        <ele>517.4</ele>
        <time>2021-10-04T10:51:45Z</time>
      </trkpt>
      <trkpt lat="42.6059240" lon="-6.8108270">
        <ele>516.8</ele>
        <time>2021-10-04T10:51:46Z</time>
      </trkpt>
      <trkpt lat="42.6059680" lon="-6.8108210">
        <ele>516.2</ele>
        <time>2021-10-04T10:51:47Z</time>
      </trkpt>
      <trkpt lat="42.6060720" lon="-6.8108190">
        <ele>514.6</ele>
        <time>2021-10-04T10:51:49Z</time>
      </trkpt>
      <trkpt lat="42.6061810" lon="-6.8108330">
        <ele>513.4</ele>
        <time>2021-10-04T10:51:51Z</time>
      </trkpt>
      <trkpt lat="42.6063010" lon="-6.8108540">
        <ele>512.0</ele>
        <time>2021-10-04T10:51:53Z</time>
      </trkpt>
      <trkpt lat="42.6064720" lon="-6.8108150">
        <ele>510.6</ele>
        <time>2021-10-04T10:51:56Z</time>
      </trkpt>
      <trkpt lat="42.6066150" lon="-6.8107970">
        <ele>509.8</ele>
        <time>2021-10-04T10:51:58Z</time>
      </trkpt>
      <trkpt lat="42.6068050" lon="-6.8107910">
        <ele>509.0</ele>
        <time>2021-10-04T10:52:01Z</time>
      </trkpt>
      <trkpt lat="42.6068690" lon="-6.8107930">
        <ele>508.6</ele>
        <time>2021-10-04T10:52:02Z</time>
      </trkpt>
      <trkpt lat="42.6070550" lon="-6.8108150">
        <ele>507.4</ele>
        <time>2021-10-04T10:52:05Z</time>
      </trkpt>
      <trkpt lat="42.6076200" lon="-6.8108880">
        <ele>506.8</ele>
        <time>2021-10-04T10:52:15Z</time>
      </trkpt>
      <trkpt lat="42.6077490" lon="-6.8108980">
        <ele>506.8</ele>
        <time>2021-10-04T10:52:18Z</time>
      </trkpt>
      <trkpt lat="42.6079210" lon="-6.8109040">
        <ele>506.8</ele>
        <time>2021-10-04T10:52:21Z</time>
      </trkpt>
      <trkpt lat="42.6080410" lon="-6.8109200">
        <ele>507.0</ele>
        <time>2021-10-04T10:52:23Z</time>
      </trkpt>
      <trkpt lat="42.6084630" lon="-6.8109220">
        <ele>507.2</ele>
        <time>2021-10-04T10:52:30Z</time>
      </trkpt>
      <trkpt lat="42.6086080" lon="-6.8108400">
        <ele>507.6</ele>
        <time>2021-10-04T10:52:33Z</time>
      </trkpt>
      <trkpt lat="42.6087480" lon="-6.8107460">
        <ele>507.6</ele>
        <time>2021-10-04T10:52:38Z</time>
      </trkpt>
      <trkpt lat="42.6088060" lon="-6.8107190">
        <ele>508.2</ele>
        <time>2021-10-04T10:52:42Z</time>
      </trkpt>
      <trkpt lat="42.6088180" lon="-6.8107370">
        <ele>508.6</ele>
        <time>2021-10-04T10:52:44Z</time>
      </trkpt>
      <trkpt lat="42.6087400" lon="-6.8107890">
        <ele>509.0</ele>
        <time>2021-10-04T10:52:49Z</time>
      </trkpt>
      <trkpt lat="42.6088000" lon="-6.8108980">
        <ele>509.4</ele>
        <time>2021-10-04T10:52:55Z</time>
      </trkpt>
      <trkpt lat="42.6088210" lon="-6.8109170">
        <ele>509.4</ele>
        <time>2021-10-04T10:52:57Z</time>
      </trkpt>
      <trkpt lat="42.6088530" lon="-6.8109520">
        <ele>509.4</ele>
        <time>2021-10-04T10:52:59Z</time>
      </trkpt>
      <trkpt lat="42.6088860" lon="-6.8110060">
        <ele>509.6</ele>
        <time>2021-10-04T10:53:01Z</time>
      </trkpt>
      <trkpt lat="42.6089020" lon="-6.8110360">
        <ele>509.8</ele>
        <time>2021-10-04T10:53:02Z</time>
      </trkpt>
      <trkpt lat="42.6089310" lon="-6.8110960">
        <ele>510.0</ele>
        <time>2021-10-04T10:53:04Z</time>
      </trkpt>
      <trkpt lat="42.6089600" lon="-6.8111530">
        <ele>510.2</ele>
        <time>2021-10-04T10:53:06Z</time>
      </trkpt>
      <trkpt lat="42.6089900" lon="-6.8112100">
        <ele>510.8</ele>
        <time>2021-10-04T10:53:08Z</time>
      </trkpt>
      <trkpt lat="42.6090350" lon="-6.8113010">
        <ele>511.6</ele>
        <time>2021-10-04T10:53:11Z</time>
      </trkpt>
      <trkpt lat="42.6090530" lon="-6.8113360">
        <ele>512.0</ele>
        <time>2021-10-04T10:53:12Z</time>
      </trkpt>
      <trkpt lat="42.6091050" lon="-6.8114360">
        <ele>513.2</ele>
        <time>2021-10-04T10:53:15Z</time>
      </trkpt>
      <trkpt lat="42.6091590" lon="-6.8115390">
        <ele>514.4</ele>
        <time>2021-10-04T10:53:19Z</time>
      </trkpt>
      <trkpt lat="42.6092030" lon="-6.8116180">
        <ele>515.0</ele>
        <time>2021-10-04T10:53:23Z</time>
      </trkpt>
      <trkpt lat="42.6092080" lon="-6.8116280">
        <ele>515.4</ele>
        <time>2021-10-04T10:53:25Z</time>
      </trkpt>
      <trkpt lat="42.6092850" lon="-6.8117550">
        <ele>517.2</ele>
        <time>2021-10-04T10:54:19Z</time>
      </trkpt>
      <trkpt lat="42.6092970" lon="-6.8117730">
        <ele>517.0</ele>
        <time>2021-10-04T10:54:20Z</time>
      </trkpt>
      <trkpt lat="42.6093250" lon="-6.8118340">
        <ele>517.0</ele>
        <time>2021-10-04T10:54:22Z</time>
      </trkpt>
      <trkpt lat="42.6093630" lon="-6.8119690">
        <ele>516.8</ele>
        <time>2021-10-04T10:54:25Z</time>
      </trkpt>
      <trkpt lat="42.6094040" lon="-6.8121810">
        <ele>516.6</ele>
        <time>2021-10-04T10:54:29Z</time>
      </trkpt>
      <trkpt lat="42.6094310" lon="-6.8124170">
        <ele>516.2</ele>
        <time>2021-10-04T10:54:33Z</time>
      </trkpt>
      <trkpt lat="42.6094430" lon="-6.8124780">
        <ele>516.0</ele>
        <time>2021-10-04T10:54:34Z</time>
      </trkpt>
      <trkpt lat="42.6094700" lon="-6.8126030">
        <ele>515.8</ele>
        <time>2021-10-04T10:54:36Z</time>
      </trkpt>
      <trkpt lat="42.6095190" lon="-6.8127950">
        <ele>515.6</ele>
        <time>2021-10-04T10:54:39Z</time>
      </trkpt>
      <trkpt lat="42.6096040" lon="-6.8130260">
        <ele>514.8</ele>
        <time>2021-10-04T10:54:43Z</time>
      </trkpt>
      <trkpt lat="42.6096750" lon="-6.8131790">
        <ele>514.2</ele>
        <time>2021-10-04T10:54:46Z</time>
      </trkpt>
      <trkpt lat="42.6097720" lon="-6.8133220">
        <ele>513.6</ele>
        <time>2021-10-04T10:54:49Z</time>
      </trkpt>
      <trkpt lat="42.6098110" lon="-6.8133700">
        <ele>513.6</ele>
        <time>2021-10-04T10:54:50Z</time>
      </trkpt>
      <trkpt lat="42.6099550" lon="-6.8134850">
        <ele>513.0</ele>
        <time>2021-10-04T10:54:53Z</time>
      </trkpt>
      <trkpt lat="42.6100120" lon="-6.8135130">
        <ele>512.6</ele>
        <time>2021-10-04T10:54:54Z</time>
      </trkpt>
      <trkpt lat="42.6100700" lon="-6.8135400">
        <ele>512.4</ele>
        <time>2021-10-04T10:54:55Z</time>
      </trkpt>
      <trkpt lat="42.6103240" lon="-6.8136230">
        <ele>511.2</ele>
        <time>2021-10-04T10:54:59Z</time>
      </trkpt>
      <trkpt lat="42.6105940" lon="-6.8137250">
        <ele>510.0</ele>
        <time>2021-10-04T10:55:03Z</time>
      </trkpt>
      <trkpt lat="42.6106620" lon="-6.8137450">
        <ele>509.6</ele>
        <time>2021-10-04T10:55:04Z</time>
      </trkpt>
      <trkpt lat="42.6107900" lon="-6.8137880">
        <ele>508.8</ele>
        <time>2021-10-04T10:55:06Z</time>
      </trkpt>
      <trkpt lat="42.6108500" lon="-6.8138120">
        <ele>508.6</ele>
        <time>2021-10-04T10:55:07Z</time>
      </trkpt>
      <trkpt lat="42.6109090" lon="-6.8138410">
        <ele>508.6</ele>
        <time>2021-10-04T10:55:08Z</time>
      </trkpt>
      <trkpt lat="42.6112090" lon="-6.8140500">
        <ele>508.4</ele>
        <time>2021-10-04T10:55:14Z</time>
      </trkpt>
      <trkpt lat="42.6113420" lon="-6.8141500">
        <ele>508.6</ele>
        <time>2021-10-04T10:55:17Z</time>
      </trkpt>
      <trkpt lat="42.6114720" lon="-6.8142680">
        <ele>508.8</ele>
        <time>2021-10-04T10:55:20Z</time>
      </trkpt>
      <trkpt lat="42.6116060" lon="-6.8143890">
        <ele>509.2</ele>
        <time>2021-10-04T10:55:23Z</time>
      </trkpt>
      <trkpt lat="42.6116960" lon="-6.8144610">
        <ele>509.4</ele>
        <time>2021-10-04T10:55:25Z</time>
      </trkpt>
      <trkpt lat="42.6118320" lon="-6.8145610">
        <ele>509.4</ele>
        <time>2021-10-04T10:55:28Z</time>
      </trkpt>
      <trkpt lat="42.6119590" lon="-6.8146580">
        <ele>509.8</ele>
        <time>2021-10-04T10:55:31Z</time>
      </trkpt>
      <trkpt lat="42.6122370" lon="-6.8148650">
        <ele>510.8</ele>
        <time>2021-10-04T10:55:38Z</time>
      </trkpt>
      <trkpt lat="42.6123460" lon="-6.8149490">
        <ele>511.4</ele>
        <time>2021-10-04T10:55:41Z</time>
      </trkpt>
      <trkpt lat="42.6124620" lon="-6.8150160">
        <ele>512.0</ele>
        <time>2021-10-04T10:55:44Z</time>
      </trkpt>
      <trkpt lat="42.6126630" lon="-6.8151030">
        <ele>512.6</ele>
        <time>2021-10-04T10:55:49Z</time>
      </trkpt>
      <trkpt lat="42.6127750" lon="-6.8151210">
        <ele>513.2</ele>
        <time>2021-10-04T10:55:52Z</time>
      </trkpt>
      <trkpt lat="42.6129170" lon="-6.8151210">
        <ele>514.2</ele>
        <time>2021-10-04T10:55:56Z</time>
      </trkpt>
      <trkpt lat="42.6130600" lon="-6.8151030">
        <ele>515.2</ele>
        <time>2021-10-04T10:56:00Z</time>
      </trkpt>
      <trkpt lat="42.6132920" lon="-6.8150680">
        <ele>516.4</ele>
        <time>2021-10-04T10:56:06Z</time>
      </trkpt>
      <trkpt lat="42.6134440" lon="-6.8150420">
        <ele>517.2</ele>
        <time>2021-10-04T10:56:10Z</time>
      </trkpt>
      <trkpt lat="42.6134800" lon="-6.8150290">
        <ele>517.4</ele>
        <time>2021-10-04T10:56:11Z</time>
      </trkpt>
      <trkpt lat="42.6136570" lon="-6.8149470">
        <ele>518.0</ele>
        <time>2021-10-04T10:56:16Z</time>
      </trkpt>
      <trkpt lat="42.6137290" lon="-6.8149140">
        <ele>518.6</ele>
        <time>2021-10-04T10:56:18Z</time>
      </trkpt>
      <trkpt lat="42.6138660" lon="-6.8148670">
        <ele>519.6</ele>
        <time>2021-10-04T10:56:22Z</time>
      </trkpt>
      <trkpt lat="42.6140770" lon="-6.8149130">
        <ele>520.8</ele>
        <time>2021-10-04T10:56:28Z</time>
      </trkpt>
      <trkpt lat="42.6143310" lon="-6.8150020">
        <ele>521.8</ele>
        <time>2021-10-04T10:56:35Z</time>
      </trkpt>
      <trkpt lat="42.6145720" lon="-6.8151220">
        <ele>523.0</ele>
        <time>2021-10-04T10:56:42Z</time>
      </trkpt>
      <trkpt lat="42.6148050" lon="-6.8153480">
        <ele>524.0</ele>
        <time>2021-10-04T10:56:50Z</time>
      </trkpt>
      <trkpt lat="42.6150260" lon="-6.8156040">
        <ele>525.0</ele>
        <time>2021-10-04T10:56:58Z</time>
      </trkpt>
      <trkpt lat="42.6151480" lon="-6.8157910">
        <ele>526.0</ele>
        <time>2021-10-04T10:57:03Z</time>
      </trkpt>
      <trkpt lat="42.6152790" lon="-6.8162470">
        <ele>527.0</ele>
        <time>2021-10-04T10:57:13Z</time>
      </trkpt>
      <trkpt lat="42.6153300" lon="-6.8164450">
        <ele>528.0</ele>
        <time>2021-10-04T10:57:18Z</time>
      </trkpt>
      <trkpt lat="42.6153320" lon="-6.8164530">
        <ele>528.2</ele>
        <time>2021-10-04T10:57:19Z</time>
      </trkpt>
      <trkpt lat="42.6153320" lon="-6.8164530">
        <ele>528.4</ele>
        <time>2021-10-04T10:57:20Z</time>
      </trkpt>
      <trkpt lat="42.6153330" lon="-6.8165360">
        <ele>529.8</ele>
        <time>2021-10-04T10:58:02Z</time>
      </trkpt>
      <trkpt lat="42.6153350" lon="-6.8165720">
        <ele>529.8</ele>
        <time>2021-10-04T10:58:03Z</time>
      </trkpt>
      <trkpt lat="42.6153170" lon="-6.8167510">
        <ele>529.8</ele>
        <time>2021-10-04T10:58:07Z</time>
      </trkpt>
      <trkpt lat="42.6152850" lon="-6.8169340">
        <ele>529.8</ele>
        <time>2021-10-04T10:58:10Z</time>
      </trkpt>
      <trkpt lat="42.6151820" lon="-6.8173970">
        <ele>528.8</ele>
        <time>2021-10-04T10:58:16Z</time>
      </trkpt>
      <trkpt lat="42.6151180" lon="-6.8176550">
        <ele>528.0</ele>
        <time>2021-10-04T10:58:19Z</time>
      </trkpt>
      <trkpt lat="42.6150950" lon="-6.8177460">
        <ele>527.6</ele>
        <time>2021-10-04T10:58:20Z</time>
      </trkpt>
      <trkpt lat="42.6149980" lon="-6.8181390">
        <ele>526.6</ele>
        <time>2021-10-04T10:58:24Z</time>
      </trkpt>
      <trkpt lat="42.6149340" lon="-6.8183420">
        <ele>526.0</ele>
        <time>2021-10-04T10:58:26Z</time>
      </trkpt>
      <trkpt lat="42.6148400" lon="-6.8185250">
        <ele>525.0</ele>
        <time>2021-10-04T10:58:28Z</time>
      </trkpt>
      <trkpt lat="42.6146450" lon="-6.8187410">
        <ele>523.8</ele>
        <time>2021-10-04T10:58:31Z</time>
      </trkpt>
      <trkpt lat="42.6144920" lon="-6.8188330">
        <ele>523.4</ele>
        <time>2021-10-04T10:58:33Z</time>
      </trkpt>
      <trkpt lat="42.6144110" lon="-6.8188690">
        <ele>523.2</ele>
        <time>2021-10-04T10:58:34Z</time>
      </trkpt>
      <trkpt lat="42.6142430" lon="-6.8189300">
        <ele>522.4</ele>
        <time>2021-10-04T10:58:36Z</time>
      </trkpt>
      <trkpt lat="42.6140680" lon="-6.8189710">
        <ele>521.4</ele>
        <time>2021-10-04T10:58:38Z</time>
      </trkpt>
      <trkpt lat="42.6138860" lon="-6.8189880">
        <ele>520.2</ele>
        <time>2021-10-04T10:58:40Z</time>
      </trkpt>
      <trkpt lat="42.6136970" lon="-6.8189840">
        <ele>519.4</ele>
        <time>2021-10-04T10:58:42Z</time>
      </trkpt>
      <trkpt lat="42.6136010" lon="-6.8189800">
        <ele>518.8</ele>
        <time>2021-10-04T10:58:43Z</time>
      </trkpt>
      <trkpt lat="42.6134030" lon="-6.8189690">
        <ele>517.2</ele>
        <time>2021-10-04T10:58:45Z</time>
      </trkpt>
      <trkpt lat="42.6132000" lon="-6.8189550">
        <ele>515.8</ele>
        <time>2021-10-04T10:58:47Z</time>
      </trkpt>
      <trkpt lat="42.6130980" lon="-6.8189550">
        <ele>515.6</ele>
        <time>2021-10-04T10:58:48Z</time>
      </trkpt>
      <trkpt lat="42.6128200" lon="-6.8191100">
        <ele>515.0</ele>
        <time>2021-10-04T10:58:51Z</time>
      </trkpt>
      <trkpt lat="42.6127450" lon="-6.8192000">
        <ele>514.8</ele>
        <time>2021-10-04T10:58:52Z</time>
      </trkpt>
      <trkpt lat="42.6126740" lon="-6.8192950">
        <ele>514.6</ele>
        <time>2021-10-04T10:58:53Z</time>
      </trkpt>
      <trkpt lat="42.6125320" lon="-6.8194690">
        <ele>514.6</ele>
        <time>2021-10-04T10:58:55Z</time>
      </trkpt>
      <trkpt lat="42.6123780" lon="-6.8195960">
        <ele>514.6</ele>
        <time>2021-10-04T10:58:57Z</time>
      </trkpt>
      <trkpt lat="42.6122240" lon="-6.8196840">
        <ele>514.6</ele>
        <time>2021-10-04T10:58:59Z</time>
      </trkpt>
      <trkpt lat="42.6120080" lon="-6.8198030">
        <ele>514.6</ele>
        <time>2021-10-04T10:59:02Z</time>
      </trkpt>
      <trkpt lat="42.6119440" lon="-6.8198550">
        <ele>514.6</ele>
        <time>2021-10-04T10:59:03Z</time>
      </trkpt>
      <trkpt lat="42.6117970" lon="-6.8200580">
        <ele>516.0</ele>
        <time>2021-10-04T10:59:06Z</time>
      </trkpt>
      <trkpt lat="42.6117610" lon="-6.8201320">
        <ele>516.4</ele>
        <time>2021-10-04T10:59:07Z</time>
      </trkpt>
      <trkpt lat="42.6117300" lon="-6.8202110">
        <ele>517.0</ele>
        <time>2021-10-04T10:59:08Z</time>
      </trkpt>
      <trkpt lat="42.6117110" lon="-6.8203580">
        <ele>518.0</ele>
        <time>2021-10-04T10:59:10Z</time>
      </trkpt>
      <trkpt lat="42.6117210" lon="-6.8204080">
        <ele>519.0</ele>
        <time>2021-10-04T10:59:12Z</time>
      </trkpt>
      <trkpt lat="42.6117360" lon="-6.8204350">
        <ele>519.4</ele>
        <time>2021-10-04T10:59:14Z</time>
      </trkpt>
      <trkpt lat="42.6117350" lon="-6.8204560">
        <ele>519.6</ele>
        <time>2021-10-04T10:59:15Z</time>
      </trkpt>
      <trkpt lat="42.6117170" lon="-6.8205550">
        <ele>520.2</ele>
        <time>2021-10-04T10:59:18Z</time>
      </trkpt>
      <trkpt lat="42.6117630" lon="-6.8206190">
        <ele>521.6</ele>
        <time>2021-10-04T10:59:20Z</time>
      </trkpt>
      <trkpt lat="42.6118350" lon="-6.8206670">
        <ele>521.8</ele>
        <time>2021-10-04T10:59:22Z</time>
      </trkpt>
      <trkpt lat="42.6121760" lon="-6.8208600">
        <ele>521.8</ele>
        <time>2021-10-04T10:59:30Z</time>
      </trkpt>
      <trkpt lat="42.6122630" lon="-6.8209090">
        <ele>521.8</ele>
        <time>2021-10-04T10:59:32Z</time>
      </trkpt>
      <trkpt lat="42.6124380" lon="-6.8210170">
        <ele>521.6</ele>
        <time>2021-10-04T10:59:36Z</time>
      </trkpt>
      <trkpt lat="42.6126670" lon="-6.8211560">
        <ele>521.4</ele>
        <time>2021-10-04T10:59:41Z</time>
      </trkpt>
      <trkpt lat="42.6130640" lon="-6.8213620">
        <ele>521.0</ele>
        <time>2021-10-04T10:59:49Z</time>
      </trkpt>
      <trkpt lat="42.6131640" lon="-6.8213910">
        <ele>521.0</ele>
        <time>2021-10-04T10:59:51Z</time>
      </trkpt>
      <trkpt lat="42.6133760" lon="-6.8214040">
        <ele>521.0</ele>
        <time>2021-10-04T10:59:55Z</time>
      </trkpt>
      <trkpt lat="42.6134890" lon="-6.8213830">
        <ele>521.0</ele>
        <time>2021-10-04T10:59:57Z</time>
      </trkpt>
      <trkpt lat="42.6136030" lon="-6.8213410">
        <ele>521.0</ele>
        <time>2021-10-04T10:59:59Z</time>
      </trkpt>
      <trkpt lat="42.6137660" lon="-6.8212640">
        <ele>521.0</ele>
        <time>2021-10-04T11:00:02Z</time>
      </trkpt>
      <trkpt lat="42.6139230" lon="-6.8211820">
        <ele>520.6</ele>
        <time>2021-10-04T11:00:05Z</time>
      </trkpt>
      <trkpt lat="42.6141300" lon="-6.8210790">
        <ele>520.4</ele>
        <time>2021-10-04T11:00:09Z</time>
      </trkpt>
      <trkpt lat="42.6143410" lon="-6.8210490">
        <ele>520.2</ele>
        <time>2021-10-04T11:00:13Z</time>
      </trkpt>
      <trkpt lat="42.6145470" lon="-6.8211030">
        <ele>520.4</ele>
        <time>2021-10-04T11:00:17Z</time>
      </trkpt>
      <trkpt lat="42.6146870" lon="-6.8211800">
        <ele>520.6</ele>
        <time>2021-10-04T11:00:20Z</time>
      </trkpt>
      <trkpt lat="42.6148160" lon="-6.8212940">
        <ele>520.8</ele>
        <time>2021-10-04T11:00:23Z</time>
      </trkpt>
      <trkpt lat="42.6149850" lon="-6.8215660">
        <ele>521.2</ele>
        <time>2021-10-04T11:00:28Z</time>
      </trkpt>
      <trkpt lat="42.6150550" lon="-6.8217610">
        <ele>521.2</ele>
        <time>2021-10-04T11:00:31Z</time>
      </trkpt>
      <trkpt lat="42.6150700" lon="-6.8218300">
        <ele>521.4</ele>
        <time>2021-10-04T11:00:32Z</time>
      </trkpt>
      <trkpt lat="42.6150980" lon="-6.8221930">
        <ele>521.8</ele>
        <time>2021-10-04T11:00:37Z</time>
      </trkpt>
      <trkpt lat="42.6149980" lon="-6.8229450">
        <ele>522.4</ele>
        <time>2021-10-04T11:00:48Z</time>
      </trkpt>
      <trkpt lat="42.6149850" lon="-6.8230100">
        <ele>522.6</ele>
        <time>2021-10-04T11:00:49Z</time>
      </trkpt>
      <trkpt lat="42.6149470" lon="-6.8232680">
        <ele>523.0</ele>
        <time>2021-10-04T11:00:53Z</time>
      </trkpt>
      <trkpt lat="42.6149310" lon="-6.8234670">
        <ele>523.8</ele>
        <time>2021-10-04T11:00:56Z</time>
      </trkpt>
      <trkpt lat="42.6149980" lon="-6.8240910">
        <ele>524.8</ele>
        <time>2021-10-04T11:01:06Z</time>
      </trkpt>
      <trkpt lat="42.6151700" lon="-6.8245160">
        <ele>526.0</ele>
        <time>2021-10-04T11:01:14Z</time>
      </trkpt>
      <trkpt lat="42.6153920" lon="-6.8248210">
        <ele>526.8</ele>
        <time>2021-10-04T11:01:21Z</time>
      </trkpt>
      <trkpt lat="42.6154680" lon="-6.8248920">
        <ele>527.0</ele>
        <time>2021-10-04T11:01:23Z</time>
      </trkpt>
      <trkpt lat="42.6157280" lon="-6.8250970">
        <ele>527.4</ele>
        <time>2021-10-04T11:01:29Z</time>
      </trkpt>
      <trkpt lat="42.6159740" lon="-6.8252910">
        <ele>527.8</ele>
        <time>2021-10-04T11:01:34Z</time>
      </trkpt>
      <trkpt lat="42.6161780" lon="-6.8254630">
        <ele>528.0</ele>
        <time>2021-10-04T11:01:38Z</time>
      </trkpt>
      <trkpt lat="42.6164780" lon="-6.8257620">
        <ele>528.6</ele>
        <time>2021-10-04T11:01:44Z</time>
      </trkpt>
      <trkpt lat="42.6166670" lon="-6.8259750">
        <ele>529.0</ele>
        <time>2021-10-04T11:01:48Z</time>
      </trkpt>
      <trkpt lat="42.6169220" lon="-6.8263180">
        <ele>529.6</ele>
        <time>2021-10-04T11:01:54Z</time>
      </trkpt>
      <trkpt lat="42.6170370" lon="-6.8264920">
        <ele>530.2</ele>
        <time>2021-10-04T11:01:57Z</time>
      </trkpt>
      <trkpt lat="42.6172700" lon="-6.8269150">
        <ele>531.6</ele>
        <time>2021-10-04T11:02:04Z</time>
      </trkpt>
      <trkpt lat="42.6174460" lon="-6.8272920">
        <ele>532.6</ele>
        <time>2021-10-04T11:02:10Z</time>
      </trkpt>
      <trkpt lat="42.6175440" lon="-6.8275480">
        <ele>533.8</ele>
        <time>2021-10-04T11:02:14Z</time>
      </trkpt>
      <trkpt lat="42.6176790" lon="-6.8279280">
        <ele>535.0</ele>
        <time>2021-10-04T11:02:20Z</time>
      </trkpt>
      <trkpt lat="42.6177940" lon="-6.8282550">
        <ele>536.2</ele>
        <time>2021-10-04T11:02:25Z</time>
      </trkpt>
      <trkpt lat="42.6180400" lon="-6.8289220">
        <ele>537.0</ele>
        <time>2021-10-04T11:02:35Z</time>
      </trkpt>
      <trkpt lat="42.6181290" lon="-6.8291110">
        <ele>537.4</ele>
        <time>2021-10-04T11:02:38Z</time>
      </trkpt>
      <trkpt lat="42.6185140" lon="-6.8295720">
        <ele>538.4</ele>
        <time>2021-10-04T11:02:47Z</time>
      </trkpt>
      <trkpt lat="42.6189900" lon="-6.8298700">
        <ele>538.6</ele>
        <time>2021-10-04T11:02:55Z</time>
      </trkpt>
      <trkpt lat="42.6194590" lon="-6.8301030">
        <ele>538.0</ele>
        <time>2021-10-04T11:03:02Z</time>
      </trkpt>
      <trkpt lat="42.6196630" lon="-6.8302020">
        <ele>537.4</ele>
        <time>2021-10-04T11:03:05Z</time>
      </trkpt>
      <trkpt lat="42.6197980" lon="-6.8302690">
        <ele>537.0</ele>
        <time>2021-10-04T11:03:07Z</time>
      </trkpt>
      <trkpt lat="42.6199330" lon="-6.8303360">
        <ele>536.6</ele>
        <time>2021-10-04T11:03:09Z</time>
      </trkpt>
      <trkpt lat="42.6200700" lon="-6.8304030">
        <ele>536.4</ele>
        <time>2021-10-04T11:03:11Z</time>
      </trkpt>
      <trkpt lat="42.6201380" lon="-6.8304380">
        <ele>536.2</ele>
        <time>2021-10-04T11:03:12Z</time>
      </trkpt>
      <trkpt lat="42.6203500" lon="-6.8305300">
        <ele>535.4</ele>
        <time>2021-10-04T11:03:15Z</time>
      </trkpt>
      <trkpt lat="42.6204990" lon="-6.8305680">
        <ele>535.2</ele>
        <time>2021-10-04T11:03:17Z</time>
      </trkpt>
      <trkpt lat="42.6205750" lon="-6.8305760">
        <ele>535.0</ele>
        <time>2021-10-04T11:03:18Z</time>
      </trkpt>
      <trkpt lat="42.6208960" lon="-6.8305300">
        <ele>534.0</ele>
        <time>2021-10-04T11:03:22Z</time>
      </trkpt>
      <trkpt lat="42.6212110" lon="-6.8303570">
        <ele>532.6</ele>
        <time>2021-10-04T11:03:26Z</time>
      </trkpt>
      <trkpt lat="42.6215820" lon="-6.8300740">
        <ele>531.4</ele>
        <time>2021-10-04T11:03:31Z</time>
      </trkpt>
      <trkpt lat="42.6218620" lon="-6.8298630">
        <ele>530.2</ele>
        <time>2021-10-04T11:03:35Z</time>
      </trkpt>
      <trkpt lat="42.6220710" lon="-6.8297340">
        <ele>530.2</ele>
        <time>2021-10-04T11:03:38Z</time>
      </trkpt>
      <trkpt lat="42.6222840" lon="-6.8296550">
        <ele>530.0</ele>
        <time>2021-10-04T11:03:41Z</time>
      </trkpt>
      <trkpt lat="42.6223560" lon="-6.8296430">
        <ele>530.0</ele>
        <time>2021-10-04T11:03:42Z</time>
      </trkpt>
      <trkpt lat="42.6225610" lon="-6.8296450">
        <ele>530.2</ele>
        <time>2021-10-04T11:03:45Z</time>
      </trkpt>
      <trkpt lat="42.6226280" lon="-6.8296590">
        <ele>530.2</ele>
        <time>2021-10-04T11:03:46Z</time>
      </trkpt>
      <trkpt lat="42.6228720" lon="-6.8297750">
        <ele>530.6</ele>
        <time>2021-10-04T11:03:50Z</time>
      </trkpt>
      <trkpt lat="42.6229820" lon="-6.8298700">
        <ele>531.0</ele>
        <time>2021-10-04T11:03:52Z</time>
      </trkpt>
      <trkpt lat="42.6231730" lon="-6.8301230">
        <ele>531.2</ele>
        <time>2021-10-04T11:03:56Z</time>
      </trkpt>
      <trkpt lat="42.6233160" lon="-6.8304430">
        <ele>531.2</ele>
        <time>2021-10-04T11:04:00Z</time>
      </trkpt>
      <trkpt lat="42.6233870" lon="-6.8309270">
        <ele>531.2</ele>
        <time>2021-10-04T11:04:05Z</time>
      </trkpt>
      <trkpt lat="42.6233600" lon="-6.8313960">
        <ele>531.0</ele>
        <time>2021-10-04T11:04:10Z</time>
      </trkpt>
      <trkpt lat="42.6233390" lon="-6.8315670">
        <ele>531.0</ele>
        <time>2021-10-04T11:04:12Z</time>
      </trkpt>
      <trkpt lat="42.6233180" lon="-6.8317260">
        <ele>531.2</ele>
        <time>2021-10-04T11:04:14Z</time>
      </trkpt>
      <trkpt lat="42.6232990" lon="-6.8318660">
        <ele>531.4</ele>
        <time>2021-10-04T11:04:16Z</time>
      </trkpt>
      <trkpt lat="42.6231910" lon="-6.8324250">
        <ele>532.0</ele>
        <time>2021-10-04T11:04:23Z</time>
      </trkpt>
      <trkpt lat="42.6230940" lon="-6.8327970">
        <ele>532.2</ele>
        <time>2021-10-04T11:04:27Z</time>
      </trkpt>
      <trkpt lat="42.6230240" lon="-6.8329900">
        <ele>532.2</ele>
        <time>2021-10-04T11:04:29Z</time>
      </trkpt>
      <trkpt lat="42.6229150" lon="-6.8332660">
        <ele>532.0</ele>
        <time>2021-10-04T11:04:32Z</time>
      </trkpt>
      <trkpt lat="42.6227050" lon="-6.8336840">
        <ele>531.8</ele>
        <time>2021-10-04T11:04:37Z</time>
      </trkpt>
      <trkpt lat="42.6223070" lon="-6.8342120">
        <ele>531.4</ele>
        <time>2021-10-04T11:04:45Z</time>
      </trkpt>
      <trkpt lat="42.6218620" lon="-6.8346870">
        <ele>532.0</ele>
        <time>2021-10-04T11:04:54Z</time>
      </trkpt>
      <trkpt lat="42.6217630" lon="-6.8347840">
        <ele>532.4</ele>
        <time>2021-10-04T11:04:56Z</time>
      </trkpt>
      <trkpt lat="42.6214500" lon="-6.8351040">
        <ele>533.4</ele>
        <time>2021-10-04T11:05:03Z</time>
      </trkpt>
      <trkpt lat="42.6211990" lon="-6.8354190">
        <ele>534.6</ele>
        <time>2021-10-04T11:05:09Z</time>
      </trkpt>
      <trkpt lat="42.6211380" lon="-6.8355450">
        <ele>535.2</ele>
        <time>2021-10-04T11:05:11Z</time>
      </trkpt>
      <trkpt lat="42.6210830" lon="-6.8356830">
        <ele>535.6</ele>
        <time>2021-10-04T11:05:13Z</time>
      </trkpt>
      <trkpt lat="42.6209960" lon="-6.8362030">
        <ele>536.8</ele>
        <time>2021-10-04T11:05:20Z</time>
      </trkpt>
      <trkpt lat="42.6210490" lon="-6.8366560">
        <ele>537.0</ele>
        <time>2021-10-04T11:05:26Z</time>
      </trkpt>
      <trkpt lat="42.6211690" lon="-6.8369360">
        <ele>537.2</ele>
        <time>2021-10-04T11:05:30Z</time>
      </trkpt>
      <trkpt lat="42.6213830" lon="-6.8372320">
        <ele>537.6</ele>
        <time>2021-10-04T11:05:35Z</time>
      </trkpt>
      <trkpt lat="42.6214350" lon="-6.8372790">
        <ele>537.8</ele>
        <time>2021-10-04T11:05:36Z</time>
      </trkpt>
      <trkpt lat="42.6217180" lon="-6.8374820">
        <ele>538.2</ele>
        <time>2021-10-04T11:05:41Z</time>
      </trkpt>
      <trkpt lat="42.6222390" lon="-6.8378640">
        <ele>538.4</ele>
        <time>2021-10-04T11:05:50Z</time>
      </trkpt>
      <trkpt lat="42.6224000" lon="-6.8380110">
        <ele>538.4</ele>
        <time>2021-10-04T11:05:53Z</time>
      </trkpt>
      <trkpt lat="42.6225290" lon="-6.8381960">
        <ele>538.4</ele>
        <time>2021-10-04T11:05:56Z</time>
      </trkpt>
      <trkpt lat="42.6226010" lon="-6.8383350">
        <ele>538.8</ele>
        <time>2021-10-04T11:05:58Z</time>
      </trkpt>
      <trkpt lat="42.6227720" lon="-6.8386700">
        <ele>539.4</ele>
        <time>2021-10-04T11:06:03Z</time>
      </trkpt>
      <trkpt lat="42.6228460" lon="-6.8387900">
        <ele>539.6</ele>
        <time>2021-10-04T11:06:05Z</time>
      </trkpt>
      <trkpt lat="42.6229510" lon="-6.8388340">
        <ele>539.8</ele>
        <time>2021-10-04T11:06:07Z</time>
      </trkpt>
      <trkpt lat="42.6230660" lon="-6.8388630">
        <ele>540.0</ele>
        <time>2021-10-04T11:06:09Z</time>
      </trkpt>
      <trkpt lat="42.6232140" lon="-6.8389280">
        <ele>540.2</ele>
        <time>2021-10-04T11:06:12Z</time>
      </trkpt>
      <trkpt lat="42.6233030" lon="-6.8389810">
        <ele>540.8</ele>
        <time>2021-10-04T11:06:14Z</time>
      </trkpt>
      <trkpt lat="42.6234480" lon="-6.8390840">
        <ele>541.2</ele>
        <time>2021-10-04T11:06:17Z</time>
      </trkpt>
      <trkpt lat="42.6236030" lon="-6.8392260">
        <ele>542.2</ele>
        <time>2021-10-04T11:06:20Z</time>
      </trkpt>
      <trkpt lat="42.6240270" lon="-6.8397450">
        <ele>543.4</ele>
        <time>2021-10-04T11:06:30Z</time>
      </trkpt>
      <trkpt lat="42.6240620" lon="-6.8398070">
        <ele>543.6</ele>
        <time>2021-10-04T11:06:31Z</time>
      </trkpt>
      <trkpt lat="42.6243720" lon="-6.8404520">
        <ele>544.4</ele>
        <time>2021-10-04T11:06:41Z</time>
      </trkpt>
      <trkpt lat="42.6244570" lon="-6.8406530">
        <ele>544.8</ele>
        <time>2021-10-04T11:06:44Z</time>
      </trkpt>
      <trkpt lat="42.6246500" lon="-6.8411300">
        <ele>545.8</ele>
        <time>2021-10-04T11:06:51Z</time>
      </trkpt>
      <trkpt lat="42.6247930" lon="-6.8414580">
        <ele>546.2</ele>
        <time>2021-10-04T11:06:56Z</time>
      </trkpt>
      <trkpt lat="42.6249250" lon="-6.8417900">
        <ele>547.0</ele>
        <time>2021-10-04T11:07:01Z</time>
      </trkpt>
      <trkpt lat="42.6252190" lon="-6.8424050">
        <ele>547.8</ele>
        <time>2021-10-04T11:07:11Z</time>
      </trkpt>
      <trkpt lat="42.6253180" lon="-6.8426330">
        <ele>548.0</ele>
        <time>2021-10-04T11:07:15Z</time>
      </trkpt>
      <trkpt lat="42.6253440" lon="-6.8426890">
        <ele>548.2</ele>
        <time>2021-10-04T11:07:16Z</time>
      </trkpt>
      <trkpt lat="42.6254590" lon="-6.8429070">
        <ele>549.4</ele>
        <time>2021-10-04T11:07:20Z</time>
      </trkpt>
      <trkpt lat="42.6254900" lon="-6.8429570">
        <ele>550.4</ele>
        <time>2021-10-04T11:07:21Z</time>
      </trkpt>
      <trkpt lat="42.6256490" lon="-6.8431770">
        <ele>551.6</ele>
        <time>2021-10-04T11:07:26Z</time>
      </trkpt>
      <trkpt lat="42.6257370" lon="-6.8433030">
        <ele>552.0</ele>
        <time>2021-10-04T11:07:29Z</time>
      </trkpt>
      <trkpt lat="42.6257960" lon="-6.8433690">
        <ele>552.8</ele>
        <time>2021-10-04T11:07:31Z</time>
      </trkpt>
      <trkpt lat="42.6258760" lon="-6.8434800">
        <ele>553.6</ele>
        <time>2021-10-04T11:07:34Z</time>
      </trkpt>
      <trkpt lat="42.6259020" lon="-6.8435160">
        <ele>554.0</ele>
        <time>2021-10-04T11:07:35Z</time>
      </trkpt>
      <trkpt lat="42.6259550" lon="-6.8435850">
        <ele>554.4</ele>
        <time>2021-10-04T11:07:37Z</time>
      </trkpt>
      <trkpt lat="42.6260100" lon="-6.8436530">
        <ele>554.4</ele>
        <time>2021-10-04T11:07:39Z</time>
      </trkpt>
      <trkpt lat="42.6260720" lon="-6.8437260">
        <ele>554.4</ele>
        <time>2021-10-04T11:07:41Z</time>
      </trkpt>
      <trkpt lat="42.6261270" lon="-6.8438090">
        <ele>554.6</ele>
        <time>2021-10-04T11:07:43Z</time>
      </trkpt>
      <trkpt lat="42.6261640" lon="-6.8438960">
        <ele>554.6</ele>
        <time>2021-10-04T11:07:45Z</time>
      </trkpt>
      <trkpt lat="42.6262120" lon="-6.8440330">
        <ele>554.6</ele>
        <time>2021-10-04T11:10:37Z</time>
      </trkpt>
      <trkpt lat="42.6262190" lon="-6.8440670">
        <ele>554.4</ele>
        <time>2021-10-04T11:10:38Z</time>
      </trkpt>
      <trkpt lat="42.6262970" lon="-6.8444230">
        <ele>553.2</ele>
        <time>2021-10-04T11:10:43Z</time>
      </trkpt>
      <trkpt lat="42.6263210" lon="-6.8444950">
        <ele>553.0</ele>
        <time>2021-10-04T11:10:44Z</time>
      </trkpt>
      <trkpt lat="42.6263970" lon="-6.8447110">
        <ele>552.6</ele>
        <time>2021-10-04T11:10:47Z</time>
      </trkpt>
      <trkpt lat="42.6264260" lon="-6.8447820">
        <ele>552.2</ele>
        <time>2021-10-04T11:10:48Z</time>
      </trkpt>
      <trkpt lat="42.6264470" lon="-6.8448600">
        <ele>551.8</ele>
        <time>2021-10-04T11:10:49Z</time>
      </trkpt>
      <trkpt lat="42.6264940" lon="-6.8452310">
        <ele>551.0</ele>
        <time>2021-10-04T11:10:53Z</time>
      </trkpt>
      <trkpt lat="42.6265170" lon="-6.8455160">
        <ele>550.0</ele>
        <time>2021-10-04T11:10:56Z</time>
      </trkpt>
      <trkpt lat="42.6265500" lon="-6.8456860">
        <ele>549.0</ele>
        <time>2021-10-04T11:10:58Z</time>
      </trkpt>
      <trkpt lat="42.6265910" lon="-6.8458400">
        <ele>547.8</ele>
        <time>2021-10-04T11:11:00Z</time>
      </trkpt>
      <trkpt lat="42.6266110" lon="-6.8459040">
        <ele>547.2</ele>
        <time>2021-10-04T11:11:01Z</time>
      </trkpt>
      <trkpt lat="42.6266350" lon="-6.8459620">
        <ele>546.8</ele>
        <time>2021-10-04T11:11:02Z</time>
      </trkpt>
      <trkpt lat="42.6267600" lon="-6.8461490">
        <ele>545.6</ele>
        <time>2021-10-04T11:11:06Z</time>
      </trkpt>
      <trkpt lat="42.6267940" lon="-6.8461910">
        <ele>545.4</ele>
        <time>2021-10-04T11:11:07Z</time>
      </trkpt>
      <trkpt lat="42.6268630" lon="-6.8462680">
        <ele>545.2</ele>
        <time>2021-10-04T11:11:09Z</time>
      </trkpt>
      <trkpt lat="42.6271590" lon="-6.8464180">
        <ele>545.2</ele>
        <time>2021-10-04T11:11:17Z</time>
      </trkpt>
      <trkpt lat="42.6273040" lon="-6.8464610">
        <ele>545.2</ele>
        <time>2021-10-04T11:11:20Z</time>
      </trkpt>
      <trkpt lat="42.6277860" lon="-6.8465630">
        <ele>544.8</ele>
        <time>2021-10-04T11:11:29Z</time>
      </trkpt>
      <trkpt lat="42.6280730" lon="-6.8466390">
        <ele>544.2</ele>
        <time>2021-10-04T11:11:34Z</time>
      </trkpt>
      <trkpt lat="42.6283590" lon="-6.8467270">
        <ele>543.8</ele>
        <time>2021-10-04T11:11:39Z</time>
      </trkpt>
      <trkpt lat="42.6289140" lon="-6.8469930">
        <ele>543.6</ele>
        <time>2021-10-04T11:11:49Z</time>
      </trkpt>
      <trkpt lat="42.6292360" lon="-6.8472050">
        <ele>544.0</ele>
        <time>2021-10-04T11:11:55Z</time>
      </trkpt>
      <trkpt lat="42.6294950" lon="-6.8474120">
        <ele>544.2</ele>
        <time>2021-10-04T11:12:00Z</time>
      </trkpt>
      <trkpt lat="42.6297410" lon="-6.8476410">
        <ele>544.2</ele>
        <time>2021-10-04T11:12:05Z</time>
      </trkpt>
      <trkpt lat="42.6301720" lon="-6.8481080">
        <ele>544.8</ele>
        <time>2021-10-04T11:12:15Z</time>
      </trkpt>
      <trkpt lat="42.6302380" lon="-6.8481870">
        <ele>545.4</ele>
        <time>2021-10-04T11:12:17Z</time>
      </trkpt>
      <trkpt lat="42.6303150" lon="-6.8482700">
        <ele>546.0</ele>
        <time>2021-10-04T11:12:20Z</time>
      </trkpt>
      <trkpt lat="42.6304030" lon="-6.8483760">
        <ele>546.6</ele>
        <time>2021-10-04T11:12:23Z</time>
      </trkpt>
      <trkpt lat="42.6305890" lon="-6.8485900">
        <ele>547.0</ele>
        <time>2021-10-04T11:12:28Z</time>
      </trkpt>
      <trkpt lat="42.6306280" lon="-6.8486380">
        <ele>547.0</ele>
        <time>2021-10-04T11:12:29Z</time>
      </trkpt>
      <trkpt lat="42.6308390" lon="-6.8488800">
        <ele>547.0</ele>
        <time>2021-10-04T11:12:34Z</time>
      </trkpt>
      <trkpt lat="42.6310190" lon="-6.8490920">
        <ele>547.0</ele>
        <time>2021-10-04T11:12:38Z</time>
      </trkpt>
      <trkpt lat="42.6312030" lon="-6.8493120">
        <ele>547.2</ele>
        <time>2021-10-04T11:12:42Z</time>
      </trkpt>
      <trkpt lat="42.6315290" lon="-6.8497060">
        <ele>547.2</ele>
        <time>2021-10-04T11:12:49Z</time>
      </trkpt>
      <trkpt lat="42.6319430" lon="-6.8502240">
        <ele>547.4</ele>
        <time>2021-10-04T11:12:59Z</time>
      </trkpt>
      <trkpt lat="42.6319970" lon="-6.8502970">
        <ele>547.4</ele>
        <time>2021-10-04T11:13:01Z</time>
      </trkpt>
      <trkpt lat="42.6321330" lon="-6.8504760">
        <ele>548.0</ele>
        <time>2021-10-04T11:13:05Z</time>
      </trkpt>
      <trkpt lat="42.6321690" lon="-6.8505300">
        <ele>548.2</ele>
        <time>2021-10-04T11:13:06Z</time>
      </trkpt>
      <trkpt lat="42.6323410" lon="-6.8507590">
        <ele>548.4</ele>
        <time>2021-10-04T11:13:10Z</time>
      </trkpt>
      <trkpt lat="42.6324360" lon="-6.8508860">
        <ele>548.4</ele>
        <time>2021-10-04T11:13:12Z</time>
      </trkpt>
      <trkpt lat="42.6325850" lon="-6.8510850">
        <ele>548.2</ele>
        <time>2021-10-04T11:13:15Z</time>
      </trkpt>
      <trkpt lat="42.6327310" lon="-6.8512790">
        <ele>548.2</ele>
        <time>2021-10-04T11:13:18Z</time>
      </trkpt>
      <trkpt lat="42.6331620" lon="-6.8518480">
        <ele>548.2</ele>
        <time>2021-10-04T11:13:27Z</time>
      </trkpt>
      <trkpt lat="42.6332880" lon="-6.8520050">
        <ele>548.4</ele>
        <time>2021-10-04T11:13:30Z</time>
      </trkpt>
      <trkpt lat="42.6334320" lon="-6.8521380">
        <ele>548.6</ele>
        <time>2021-10-04T11:13:33Z</time>
      </trkpt>
      <trkpt lat="42.6335730" lon="-6.8523160">
        <ele>549.2</ele>
        <time>2021-10-04T11:13:36Z</time>
      </trkpt>
      <trkpt lat="42.6336250" lon="-6.8523680">
        <ele>549.2</ele>
        <time>2021-10-04T11:13:37Z</time>
      </trkpt>
      <trkpt lat="42.6338830" lon="-6.8525200">
        <ele>549.4</ele>
        <time>2021-10-04T11:13:41Z</time>
      </trkpt>
      <trkpt lat="42.6341760" lon="-6.8526380">
        <ele>549.4</ele>
        <time>2021-10-04T11:13:45Z</time>
      </trkpt>
      <trkpt lat="42.6344760" lon="-6.8527490">
        <ele>549.0</ele>
        <time>2021-10-04T11:13:49Z</time>
      </trkpt>
      <trkpt lat="42.6350360" lon="-6.8530380">
        <ele>548.6</ele>
        <time>2021-10-04T11:13:57Z</time>
      </trkpt>
      <trkpt lat="42.6355270" lon="-6.8533900">
        <ele>548.8</ele>
        <time>2021-10-04T11:14:05Z</time>
      </trkpt>
      <trkpt lat="42.6356920" lon="-6.8535250">
        <ele>549.4</ele>
        <time>2021-10-04T11:14:08Z</time>
      </trkpt>
      <trkpt lat="42.6359710" lon="-6.8537820">
        <ele>550.2</ele>
        <time>2021-10-04T11:14:13Z</time>
      </trkpt>
      <trkpt lat="42.6362120" lon="-6.8539900">
        <ele>550.8</ele>
        <time>2021-10-04T11:14:17Z</time>
      </trkpt>
      <trkpt lat="42.6366810" lon="-6.8543990">
        <ele>551.0</ele>
        <time>2021-10-04T11:14:25Z</time>
      </trkpt>
      <trkpt lat="42.6370240" lon="-6.8547180">
        <ele>551.4</ele>
        <time>2021-10-04T11:14:31Z</time>
      </trkpt>
      <trkpt lat="42.6374380" lon="-6.8552180">
        <ele>551.8</ele>
        <time>2021-10-04T11:14:39Z</time>
      </trkpt>
      <trkpt lat="42.6378120" lon="-6.8557790">
        <ele>552.2</ele>
        <time>2021-10-04T11:14:47Z</time>
      </trkpt>
      <trkpt lat="42.6379000" lon="-6.8559220">
        <ele>552.4</ele>
        <time>2021-10-04T11:14:49Z</time>
      </trkpt>
      <trkpt lat="42.6381200" lon="-6.8562860">
        <ele>553.0</ele>
        <time>2021-10-04T11:14:54Z</time>
      </trkpt>
      <trkpt lat="42.6384260" lon="-6.8568990">
        <ele>553.2</ele>
        <time>2021-10-04T11:15:02Z</time>
      </trkpt>
      <trkpt lat="42.6385220" lon="-6.8572450">
        <ele>553.4</ele>
        <time>2021-10-04T11:15:06Z</time>
      </trkpt>
      <trkpt lat="42.6386490" lon="-6.8580340">
        <ele>554.2</ele>
        <time>2021-10-04T11:15:15Z</time>
      </trkpt>
      <trkpt lat="42.6386700" lon="-6.8582090">
        <ele>554.4</ele>
        <time>2021-10-04T11:15:17Z</time>
      </trkpt>
      <trkpt lat="42.6387440" lon="-6.8587850">
        <ele>555.2</ele>
        <time>2021-10-04T11:15:24Z</time>
      </trkpt>
      <trkpt lat="42.6387620" lon="-6.8589380">
        <ele>555.6</ele>
        <time>2021-10-04T11:15:26Z</time>
      </trkpt>
      <trkpt lat="42.6388220" lon="-6.8594400">
        <ele>556.6</ele>
        <time>2021-10-04T11:15:33Z</time>
      </trkpt>
      <trkpt lat="42.6388920" lon="-6.8600910">
        <ele>557.6</ele>
        <time>2021-10-04T11:15:42Z</time>
      </trkpt>
      <trkpt lat="42.6388910" lon="-6.8602400">
        <ele>557.6</ele>
        <time>2021-10-04T11:15:44Z</time>
      </trkpt>
      <trkpt lat="42.6387910" lon="-6.8607350">
        <ele>558.2</ele>
        <time>2021-10-04T11:15:51Z</time>
      </trkpt>
      <trkpt lat="42.6385880" lon="-6.8611290">
        <ele>558.8</ele>
        <time>2021-10-04T11:15:58Z</time>
      </trkpt>
      <trkpt lat="42.6383150" lon="-6.8614910">
        <ele>560.0</ele>
        <time>2021-10-04T11:16:06Z</time>
      </trkpt>
      <trkpt lat="42.6380920" lon="-6.8618290">
        <ele>561.0</ele>
        <time>2021-10-04T11:16:13Z</time>
      </trkpt>
      <trkpt lat="42.6380670" lon="-6.8618820">
        <ele>561.2</ele>
        <time>2021-10-04T11:16:14Z</time>
      </trkpt>
      <trkpt lat="42.6379510" lon="-6.8622890">
        <ele>562.2</ele>
        <time>2021-10-04T11:16:21Z</time>
      </trkpt>
      <trkpt lat="42.6379260" lon="-6.8628080">
        <ele>563.0</ele>
        <time>2021-10-04T11:16:29Z</time>
      </trkpt>
      <trkpt lat="42.6379450" lon="-6.8629460">
        <ele>563.4</ele>
        <time>2021-10-04T11:16:31Z</time>
      </trkpt>
      <trkpt lat="42.6381940" lon="-6.8636010">
        <ele>563.8</ele>
        <time>2021-10-04T11:16:41Z</time>
      </trkpt>
      <trkpt lat="42.6384320" lon="-6.8639900">
        <ele>563.6</ele>
        <time>2021-10-04T11:16:47Z</time>
      </trkpt>
      <trkpt lat="42.6385530" lon="-6.8641970">
        <ele>563.2</ele>
        <time>2021-10-04T11:16:50Z</time>
      </trkpt>
      <trkpt lat="42.6386340" lon="-6.8643360">
        <ele>563.2</ele>
        <time>2021-10-04T11:16:52Z</time>
      </trkpt>
      <trkpt lat="42.6387140" lon="-6.8644800">
        <ele>562.8</ele>
        <time>2021-10-04T11:16:54Z</time>
      </trkpt>
      <trkpt lat="42.6387960" lon="-6.8646280">
        <ele>562.6</ele>
        <time>2021-10-04T11:16:56Z</time>
      </trkpt>
      <trkpt lat="42.6388370" lon="-6.8647030">
        <ele>562.4</ele>
        <time>2021-10-04T11:16:57Z</time>
      </trkpt>
      <trkpt lat="42.6389540" lon="-6.8649350">
        <ele>562.0</ele>
        <time>2021-10-04T11:17:00Z</time>
      </trkpt>
      <trkpt lat="42.6390740" lon="-6.8651630">
        <ele>561.2</ele>
        <time>2021-10-04T11:17:03Z</time>
      </trkpt>
      <trkpt lat="42.6391890" lon="-6.8653940">
        <ele>560.0</ele>
        <time>2021-10-04T11:17:06Z</time>
      </trkpt>
      <trkpt lat="42.6393730" lon="-6.8657900">
        <ele>559.4</ele>
        <time>2021-10-04T11:17:11Z</time>
      </trkpt>
      <trkpt lat="42.6395240" lon="-6.8661110">
        <ele>559.4</ele>
        <time>2021-10-04T11:17:15Z</time>
      </trkpt>
      <trkpt lat="42.6397690" lon="-6.8666500">
        <ele>559.2</ele>
        <time>2021-10-04T11:17:22Z</time>
      </trkpt>
      <trkpt lat="42.6399280" lon="-6.8669660">
        <ele>560.0</ele>
        <time>2021-10-04T11:17:27Z</time>
      </trkpt>
      <trkpt lat="42.6401510" lon="-6.8674830">
        <ele>560.6</ele>
        <time>2021-10-04T11:17:35Z</time>
      </trkpt>
      <trkpt lat="42.6402690" lon="-6.8677230">
        <ele>561.4</ele>
        <time>2021-10-04T11:17:39Z</time>
      </trkpt>
      <trkpt lat="42.6402980" lon="-6.8677440">
        <ele>561.4</ele>
        <time>2021-10-04T11:17:40Z</time>
      </trkpt>
      <trkpt lat="42.6403730" lon="-6.8677170">
        <ele>561.8</ele>
        <time>2021-10-04T11:17:42Z</time>
      </trkpt>
      <trkpt lat="42.6405370" lon="-6.8677290">
        <ele>562.4</ele>
        <time>2021-10-04T11:17:47Z</time>
      </trkpt>
      <trkpt lat="42.6405730" lon="-6.8677560">
        <ele>562.4</ele>
        <time>2021-10-04T11:17:48Z</time>
      </trkpt>
      <trkpt lat="42.6406530" lon="-6.8678020">
        <ele>562.4</ele>
        <time>2021-10-04T11:17:50Z</time>
      </trkpt>
      <trkpt lat="42.6407780" lon="-6.8678520">
        <ele>562.6</ele>
        <time>2021-10-04T11:17:53Z</time>
      </trkpt>
      <trkpt lat="42.6408250" lon="-6.8678550">
        <ele>562.6</ele>
        <time>2021-10-04T11:17:54Z</time>
      </trkpt>
      <trkpt lat="42.6412960" lon="-6.8678110">
        <ele>562.8</ele>
        <time>2021-10-04T11:18:03Z</time>
      </trkpt>
      <trkpt lat="42.6418390" lon="-6.8680110">
        <ele>562.0</ele>
        <time>2021-10-04T11:18:13Z</time>
      </trkpt>
      <trkpt lat="42.6418900" lon="-6.8680560">
        <ele>562.0</ele>
        <time>2021-10-04T11:18:14Z</time>
      </trkpt>
      <trkpt lat="42.6422480" lon="-6.8684500">
        <ele>561.8</ele>
        <time>2021-10-04T11:18:22Z</time>
      </trkpt>
      <trkpt lat="42.6424110" lon="-6.8686290">
        <ele>561.8</ele>
        <time>2021-10-04T11:18:26Z</time>
      </trkpt>
      <trkpt lat="42.6425730" lon="-6.8688130">
        <ele>561.8</ele>
        <time>2021-10-04T11:18:30Z</time>
      </trkpt>
      <trkpt lat="42.6427840" lon="-6.8690470">
        <ele>562.4</ele>
        <time>2021-10-04T11:18:35Z</time>
      </trkpt>
      <trkpt lat="42.6430440" lon="-6.8693360">
        <ele>563.0</ele>
        <time>2021-10-04T11:18:41Z</time>
      </trkpt>
      <trkpt lat="42.6431680" lon="-6.8694680">
        <ele>563.8</ele>
        <time>2021-10-04T11:18:44Z</time>
      </trkpt>
      <trkpt lat="42.6433870" lon="-6.8697350">
        <ele>565.0</ele>
        <time>2021-10-04T11:18:50Z</time>
      </trkpt>
      <trkpt lat="42.6436200" lon="-6.8700070">
        <ele>566.2</ele>
        <time>2021-10-04T11:18:56Z</time>
      </trkpt>
      <trkpt lat="42.6437450" lon="-6.8701310">
        <ele>566.4</ele>
        <time>2021-10-04T11:18:59Z</time>
      </trkpt>
      <trkpt lat="42.6440240" lon="-6.8704180">
        <ele>567.0</ele>
        <time>2021-10-04T11:19:06Z</time>
      </trkpt>
      <trkpt lat="42.6441500" lon="-6.8705630">
        <ele>567.2</ele>
        <time>2021-10-04T11:19:09Z</time>
      </trkpt>
      <trkpt lat="42.6443120" lon="-6.8707550">
        <ele>567.4</ele>
        <time>2021-10-04T11:19:13Z</time>
      </trkpt>
      <trkpt lat="42.6444770" lon="-6.8709500">
        <ele>567.6</ele>
        <time>2021-10-04T11:19:17Z</time>
      </trkpt>
      <trkpt lat="42.6448560" lon="-6.8715150">
        <ele>567.8</ele>
        <time>2021-10-04T11:19:27Z</time>
      </trkpt>
      <trkpt lat="42.6450600" lon="-6.8718080">
        <ele>567.8</ele>
        <time>2021-10-04T11:19:32Z</time>
      </trkpt>
      <trkpt lat="42.6451070" lon="-6.8718600">
        <ele>567.8</ele>
        <time>2021-10-04T11:19:33Z</time>
      </trkpt>
      <trkpt lat="42.6452700" lon="-6.8719720">
        <ele>568.0</ele>
        <time>2021-10-04T11:19:36Z</time>
      </trkpt>
      <trkpt lat="42.6457790" lon="-6.8722380">
        <ele>567.8</ele>
        <time>2021-10-04T11:19:45Z</time>
      </trkpt>
      <trkpt lat="42.6462290" lon="-6.8726910">
        <ele>567.6</ele>
        <time>2021-10-04T11:19:54Z</time>
      </trkpt>
      <trkpt lat="42.6465520" lon="-6.8732790">
        <ele>567.4</ele>
        <time>2021-10-04T11:20:03Z</time>
      </trkpt>
      <trkpt lat="42.6467580" lon="-6.8736710">
        <ele>568.0</ele>
        <time>2021-10-04T11:20:09Z</time>
      </trkpt>
      <trkpt lat="42.6469580" lon="-6.8742590">
        <ele>568.4</ele>
        <time>2021-10-04T11:20:17Z</time>
      </trkpt>
      <trkpt lat="42.6471350" lon="-6.8746670">
        <ele>569.0</ele>
        <time>2021-10-04T11:20:23Z</time>
      </trkpt>
      <trkpt lat="42.6475240" lon="-6.8752250">
        <ele>569.4</ele>
        <time>2021-10-04T11:20:33Z</time>
      </trkpt>
      <trkpt lat="42.6477270" lon="-6.8754800">
        <ele>569.8</ele>
        <time>2021-10-04T11:20:39Z</time>
      </trkpt>
      <trkpt lat="42.6477970" lon="-6.8755960">
        <ele>570.4</ele>
        <time>2021-10-04T11:20:42Z</time>
      </trkpt>
      <trkpt lat="42.6478360" lon="-6.8756650">
        <ele>570.6</ele>
        <time>2021-10-04T11:20:44Z</time>
      </trkpt>
      <trkpt lat="42.6478520" lon="-6.8757060">
        <ele>570.8</ele>
        <time>2021-10-04T11:20:46Z</time>
      </trkpt>
      <trkpt lat="42.6478550" lon="-6.8757140">
        <ele>571.0</ele>
        <time>2021-10-04T11:20:47Z</time>
      </trkpt>
      <trkpt lat="42.6478550" lon="-6.8757170">
        <ele>571.2</ele>
        <time>2021-10-04T11:20:48Z</time>
      </trkpt>
      <trkpt lat="42.6479980" lon="-6.8761070">
        <ele>560.2</ele>
        <time>2021-10-04T12:04:38Z</time>
      </trkpt>
      <trkpt lat="42.6480160" lon="-6.8761620">
        <ele>560.2</ele>
        <time>2021-10-04T12:04:40Z</time>
      </trkpt>
      <trkpt lat="42.6480410" lon="-6.8762230">
        <ele>560.2</ele>
        <time>2021-10-04T12:04:42Z</time>
      </trkpt>
      <trkpt lat="42.6480650" lon="-6.8763160">
        <ele>560.2</ele>
        <time>2021-10-04T12:04:45Z</time>
      </trkpt>
      <trkpt lat="42.6480820" lon="-6.8764230">
        <ele>560.2</ele>
        <time>2021-10-04T12:04:48Z</time>
      </trkpt>
      <trkpt lat="42.6480700" lon="-6.8767680">
        <ele>559.8</ele>
        <time>2021-10-04T12:04:56Z</time>
      </trkpt>
      <trkpt lat="42.6480400" lon="-6.8770160">
        <ele>559.6</ele>
        <time>2021-10-04T12:05:01Z</time>
      </trkpt>
      <trkpt lat="42.6480330" lon="-6.8771140">
        <ele>559.4</ele>
        <time>2021-10-04T12:05:03Z</time>
      </trkpt>
      <trkpt lat="42.6480270" lon="-6.8776670">
        <ele>558.6</ele>
        <time>2021-10-04T12:05:13Z</time>
      </trkpt>
      <trkpt lat="42.6480630" lon="-6.8778270">
        <ele>558.2</ele>
        <time>2021-10-04T12:05:16Z</time>
      </trkpt>
      <trkpt lat="42.6480900" lon="-6.8779280">
        <ele>558.0</ele>
        <time>2021-10-04T12:05:18Z</time>
      </trkpt>
      <trkpt lat="42.6481170" lon="-6.8780300">
        <ele>557.8</ele>
        <time>2021-10-04T12:05:20Z</time>
      </trkpt>
      <trkpt lat="42.6481510" lon="-6.8781240">
        <ele>557.8</ele>
        <time>2021-10-04T12:05:22Z</time>
      </trkpt>
      <trkpt lat="42.6481890" lon="-6.8782130">
        <ele>557.8</ele>
        <time>2021-10-04T12:05:24Z</time>
      </trkpt>
      <trkpt lat="42.6482400" lon="-6.8782840">
        <ele>558.0</ele>
        <time>2021-10-04T12:05:26Z</time>
      </trkpt>
      <trkpt lat="42.6483170" lon="-6.8783880">
        <ele>559.2</ele>
        <time>2021-10-04T12:05:29Z</time>
      </trkpt>
      <trkpt lat="42.6484290" lon="-6.8785680">
        <ele>560.2</ele>
        <time>2021-10-04T12:05:34Z</time>
      </trkpt>
      <trkpt lat="42.6484500" lon="-6.8786060">
        <ele>560.4</ele>
        <time>2021-10-04T12:05:35Z</time>
      </trkpt>
      <trkpt lat="42.6485280" lon="-6.8787680">
        <ele>561.4</ele>
        <time>2021-10-04T12:05:39Z</time>
      </trkpt>
      <trkpt lat="42.6486120" lon="-6.8789820">
        <ele>562.4</ele>
        <time>2021-10-04T12:05:44Z</time>
      </trkpt>
      <trkpt lat="42.6486970" lon="-6.8793650">
        <ele>563.6</ele>
        <time>2021-10-04T12:05:53Z</time>
      </trkpt>
      <trkpt lat="42.6488630" lon="-6.8797310">
        <ele>564.2</ele>
        <time>2021-10-04T12:06:03Z</time>
      </trkpt>
      <trkpt lat="42.6489040" lon="-6.8798000">
        <ele>564.6</ele>
        <time>2021-10-04T12:06:05Z</time>
      </trkpt>
      <trkpt lat="42.6489640" lon="-6.8799020">
        <ele>565.6</ele>
        <time>2021-10-04T12:06:08Z</time>
      </trkpt>
      <trkpt lat="42.6490330" lon="-6.8800280">
        <ele>566.8</ele>
        <time>2021-10-04T12:06:12Z</time>
      </trkpt>
      <trkpt lat="42.6491470" lon="-6.8802130">
        <ele>567.8</ele>
        <time>2021-10-04T12:06:18Z</time>
      </trkpt>
      <trkpt lat="42.6492580" lon="-6.8805580">
        <ele>568.8</ele>
        <time>2021-10-04T12:06:27Z</time>
      </trkpt>
      <trkpt lat="42.6492460" lon="-6.8806780">
        <ele>569.0</ele>
        <time>2021-10-04T12:06:30Z</time>
      </trkpt>
      <trkpt lat="42.6492470" lon="-6.8808070">
        <ele>569.0</ele>
        <time>2021-10-04T12:06:33Z</time>
      </trkpt>
      <trkpt lat="42.6492930" lon="-6.8810580">
        <ele>569.0</ele>
        <time>2021-10-04T12:06:38Z</time>
      </trkpt>
      <trkpt lat="42.6493370" lon="-6.8812080">
        <ele>568.6</ele>
        <time>2021-10-04T12:06:41Z</time>
      </trkpt>
      <trkpt lat="42.6493660" lon="-6.8813080">
        <ele>568.6</ele>
        <time>2021-10-04T12:06:43Z</time>
      </trkpt>
      <trkpt lat="42.6493850" lon="-6.8814120">
        <ele>568.4</ele>
        <time>2021-10-04T12:06:45Z</time>
      </trkpt>
      <trkpt lat="42.6493950" lon="-6.8815200">
        <ele>568.4</ele>
        <time>2021-10-04T12:06:47Z</time>
      </trkpt>
      <trkpt lat="42.6493960" lon="-6.8815760">
        <ele>568.4</ele>
        <time>2021-10-04T12:06:48Z</time>
      </trkpt>
      <trkpt lat="42.6493950" lon="-6.8818640">
        <ele>568.4</ele>
        <time>2021-10-04T12:06:54Z</time>
      </trkpt>
      <trkpt lat="42.6493980" lon="-6.8819470">
        <ele>568.4</ele>
        <time>2021-10-04T12:06:56Z</time>
      </trkpt>
      <trkpt lat="42.6494010" lon="-6.8819920">
        <ele>568.4</ele>
        <time>2021-10-04T12:06:57Z</time>
      </trkpt>
      <trkpt lat="42.6494170" lon="-6.8820790">
        <ele>568.4</ele>
        <time>2021-10-04T12:06:59Z</time>
      </trkpt>
      <trkpt lat="42.6494360" lon="-6.8822120">
        <ele>568.8</ele>
        <time>2021-10-04T12:07:02Z</time>
      </trkpt>
      <trkpt lat="42.6494800" lon="-6.8825600">
        <ele>569.8</ele>
        <time>2021-10-04T12:07:10Z</time>
      </trkpt>
      <trkpt lat="42.6494880" lon="-6.8826000">
        <ele>569.8</ele>
        <time>2021-10-04T12:07:11Z</time>
      </trkpt>
      <trkpt lat="42.6495510" lon="-6.8829160">
        <ele>571.0</ele>
        <time>2021-10-04T12:07:19Z</time>
      </trkpt>
      <trkpt lat="42.6495740" lon="-6.8829940">
        <ele>571.2</ele>
        <time>2021-10-04T12:07:21Z</time>
      </trkpt>
      <trkpt lat="42.6496190" lon="-6.8831590">
        <ele>571.8</ele>
        <time>2021-10-04T12:07:25Z</time>
      </trkpt>
      <trkpt lat="42.6496280" lon="-6.8832030">
        <ele>572.0</ele>
        <time>2021-10-04T12:07:26Z</time>
      </trkpt>
      <trkpt lat="42.6496640" lon="-6.8833830">
        <ele>572.6</ele>
        <time>2021-10-04T12:07:30Z</time>
      </trkpt>
      <trkpt lat="42.6496810" lon="-6.8834690">
        <ele>573.2</ele>
        <time>2021-10-04T12:07:32Z</time>
      </trkpt>
      <trkpt lat="42.6497400" lon="-6.8838210">
        <ele>574.6</ele>
        <time>2021-10-04T12:07:40Z</time>
      </trkpt>
      <trkpt lat="42.6497420" lon="-6.8839850">
        <ele>575.6</ele>
        <time>2021-10-04T12:07:44Z</time>
      </trkpt>
      <trkpt lat="42.6497530" lon="-6.8842340">
        <ele>576.8</ele>
        <time>2021-10-04T12:07:50Z</time>
      </trkpt>
      <trkpt lat="42.6497780" lon="-6.8844480">
        <ele>577.8</ele>
        <time>2021-10-04T12:07:55Z</time>
      </trkpt>
      <trkpt lat="42.6498050" lon="-6.8846160">
        <ele>578.4</ele>
        <time>2021-10-04T12:07:59Z</time>
      </trkpt>
      <trkpt lat="42.6498220" lon="-6.8847460">
        <ele>579.0</ele>
        <time>2021-10-04T12:08:02Z</time>
      </trkpt>
      <trkpt lat="42.6498610" lon="-6.8849140">
        <ele>580.0</ele>
        <time>2021-10-04T12:08:06Z</time>
      </trkpt>
      <trkpt lat="42.6500200" lon="-6.8852810">
        <ele>581.2</ele>
        <time>2021-10-04T12:08:16Z</time>
      </trkpt>
      <trkpt lat="42.6501160" lon="-6.8854720">
        <ele>582.2</ele>
        <time>2021-10-04T12:08:21Z</time>
      </trkpt>
      <trkpt lat="42.6502320" lon="-6.8856980">
        <ele>583.4</ele>
        <time>2021-10-04T12:08:27Z</time>
      </trkpt>
      <trkpt lat="42.6503700" lon="-6.8859910">
        <ele>584.4</ele>
        <time>2021-10-04T12:08:35Z</time>
      </trkpt>
      <trkpt lat="42.6504380" lon="-6.8864130">
        <ele>585.6</ele>
        <time>2021-10-04T12:08:45Z</time>
      </trkpt>
      <trkpt lat="42.6504470" lon="-6.8866340">
        <ele>586.6</ele>
        <time>2021-10-04T12:08:50Z</time>
      </trkpt>
      <trkpt lat="42.6504510" lon="-6.8866750">
        <ele>586.8</ele>
        <time>2021-10-04T12:08:51Z</time>
      </trkpt>
      <trkpt lat="42.6504690" lon="-6.8869300">
        <ele>587.8</ele>
        <time>2021-10-04T12:08:57Z</time>
      </trkpt>
      <trkpt lat="42.6508020" lon="-6.8873750">
        <ele>588.4</ele>
        <time>2021-10-04T12:09:11Z</time>
      </trkpt>
      <trkpt lat="42.6508750" lon="-6.8874180">
        <ele>588.4</ele>
        <time>2021-10-04T12:09:13Z</time>
      </trkpt>
      <trkpt lat="42.6509550" lon="-6.8874660">
        <ele>588.4</ele>
        <time>2021-10-04T12:09:15Z</time>
      </trkpt>
      <trkpt lat="42.6510460" lon="-6.8875170">
        <ele>588.4</ele>
        <time>2021-10-04T12:09:17Z</time>
      </trkpt>
      <trkpt lat="42.6511360" lon="-6.8875730">
        <ele>588.4</ele>
        <time>2021-10-04T12:09:19Z</time>
      </trkpt>
      <trkpt lat="42.6513010" lon="-6.8877130">
        <ele>588.4</ele>
        <time>2021-10-04T12:09:23Z</time>
      </trkpt>
      <trkpt lat="42.6513720" lon="-6.8877910">
        <ele>588.0</ele>
        <time>2021-10-04T12:09:25Z</time>
      </trkpt>
      <trkpt lat="42.6515190" lon="-6.8879770">
        <ele>586.2</ele>
        <time>2021-10-04T12:09:29Z</time>
      </trkpt>
      <trkpt lat="42.6516390" lon="-6.8881370">
        <ele>585.4</ele>
        <time>2021-10-04T12:09:32Z</time>
      </trkpt>
      <trkpt lat="42.6516820" lon="-6.8881920">
        <ele>585.2</ele>
        <time>2021-10-04T12:09:33Z</time>
      </trkpt>
      <trkpt lat="42.6518750" lon="-6.8884120">
        <ele>583.8</ele>
        <time>2021-10-04T12:09:37Z</time>
      </trkpt>
      <trkpt lat="42.6519310" lon="-6.8884650">
        <ele>583.4</ele>
        <time>2021-10-04T12:09:38Z</time>
      </trkpt>
      <trkpt lat="42.6521250" lon="-6.8886010">
        <ele>582.6</ele>
        <time>2021-10-04T12:09:41Z</time>
      </trkpt>
      <trkpt lat="42.6521930" lon="-6.8886420">
        <ele>582.4</ele>
        <time>2021-10-04T12:09:42Z</time>
      </trkpt>
      <trkpt lat="42.6523980" lon="-6.8887760">
        <ele>581.4</ele>
        <time>2021-10-04T12:09:45Z</time>
      </trkpt>
      <trkpt lat="42.6525270" lon="-6.8888910">
        <ele>580.4</ele>
        <time>2021-10-04T12:09:47Z</time>
      </trkpt>
      <trkpt lat="42.6527170" lon="-6.8890750">
        <ele>579.2</ele>
        <time>2021-10-04T12:09:50Z</time>
      </trkpt>
      <trkpt lat="42.6529110" lon="-6.8892590">
        <ele>578.2</ele>
        <time>2021-10-04T12:09:53Z</time>
      </trkpt>
      <trkpt lat="42.6531240" lon="-6.8893980">
        <ele>577.4</ele>
        <time>2021-10-04T12:09:56Z</time>
      </trkpt>
      <trkpt lat="42.6532760" lon="-6.8894400">
        <ele>576.8</ele>
        <time>2021-10-04T12:09:58Z</time>
      </trkpt>
      <trkpt lat="42.6534180" lon="-6.8894500">
        <ele>576.4</ele>
        <time>2021-10-04T12:10:00Z</time>
      </trkpt>
      <trkpt lat="42.6534850" lon="-6.8894610">
        <ele>575.8</ele>
        <time>2021-10-04T12:10:01Z</time>
      </trkpt>
      <trkpt lat="42.6535490" lon="-6.8894840">
        <ele>574.4</ele>
        <time>2021-10-04T12:10:02Z</time>
      </trkpt>
      <trkpt lat="42.6537390" lon="-6.8897150">
        <ele>573.6</ele>
        <time>2021-10-04T12:10:06Z</time>
      </trkpt>
      <trkpt lat="42.6537770" lon="-6.8897850">
        <ele>573.4</ele>
        <time>2021-10-04T12:10:07Z</time>
      </trkpt>
      <trkpt lat="42.6538180" lon="-6.8898490">
        <ele>573.4</ele>
        <time>2021-10-04T12:10:08Z</time>
      </trkpt>
      <trkpt lat="42.6539070" lon="-6.8899550">
        <ele>573.4</ele>
        <time>2021-10-04T12:10:10Z</time>
      </trkpt>
      <trkpt lat="42.6539970" lon="-6.8900440">
        <ele>573.4</ele>
        <time>2021-10-04T12:10:12Z</time>
      </trkpt>
      <trkpt lat="42.6540840" lon="-6.8901250">
        <ele>573.6</ele>
        <time>2021-10-04T12:10:14Z</time>
      </trkpt>
      <trkpt lat="42.6541650" lon="-6.8902040">
        <ele>573.6</ele>
        <time>2021-10-04T12:10:16Z</time>
      </trkpt>
      <trkpt lat="42.6542390" lon="-6.8902820">
        <ele>573.8</ele>
        <time>2021-10-04T12:10:18Z</time>
      </trkpt>
      <trkpt lat="42.6543100" lon="-6.8903540">
        <ele>574.0</ele>
        <time>2021-10-04T12:10:20Z</time>
      </trkpt>
      <trkpt lat="42.6543440" lon="-6.8903890">
        <ele>574.2</ele>
        <time>2021-10-04T12:10:21Z</time>
      </trkpt>
      <trkpt lat="42.6544050" lon="-6.8904640">
        <ele>574.2</ele>
        <time>2021-10-04T12:10:23Z</time>
      </trkpt>
      <trkpt lat="42.6545130" lon="-6.8906100">
        <ele>574.4</ele>
        <time>2021-10-04T12:10:27Z</time>
      </trkpt>
      <trkpt lat="42.6546210" lon="-6.8907680">
        <ele>575.6</ele>
        <time>2021-10-04T12:10:32Z</time>
      </trkpt>
      <trkpt lat="42.6547980" lon="-6.8910750">
        <ele>576.8</ele>
        <time>2021-10-04T12:10:40Z</time>
      </trkpt>
      <trkpt lat="42.6549060" lon="-6.8912930">
        <ele>577.6</ele>
        <time>2021-10-04T12:10:45Z</time>
      </trkpt>
      <trkpt lat="42.6549650" lon="-6.8914280">
        <ele>577.8</ele>
        <time>2021-10-04T12:10:48Z</time>
      </trkpt>
      <trkpt lat="42.6550460" lon="-6.8916070">
        <ele>578.6</ele>
        <time>2021-10-04T12:10:52Z</time>
      </trkpt>
      <trkpt lat="42.6550900" lon="-6.8916910">
        <ele>579.0</ele>
        <time>2021-10-04T12:10:54Z</time>
      </trkpt>
      <trkpt lat="42.6553170" lon="-6.8920050">
        <ele>580.0</ele>
        <time>2021-10-04T12:11:03Z</time>
      </trkpt>
      <trkpt lat="42.6554450" lon="-6.8921300">
        <ele>581.0</ele>
        <time>2021-10-04T12:11:07Z</time>
      </trkpt>
      <trkpt lat="42.6554810" lon="-6.8921560">
        <ele>581.0</ele>
        <time>2021-10-04T12:11:08Z</time>
      </trkpt>
      <trkpt lat="42.6557180" lon="-6.8923020">
        <ele>581.8</ele>
        <time>2021-10-04T12:11:14Z</time>
      </trkpt>
      <trkpt lat="42.6560010" lon="-6.8923890">
        <ele>581.8</ele>
        <time>2021-10-04T12:11:20Z</time>
      </trkpt>
      <trkpt lat="42.6561080" lon="-6.8924190">
        <ele>581.6</ele>
        <time>2021-10-04T12:11:22Z</time>
      </trkpt>
      <trkpt lat="42.6561630" lon="-6.8924360">
        <ele>581.4</ele>
        <time>2021-10-04T12:11:23Z</time>
      </trkpt>
      <trkpt lat="42.6562750" lon="-6.8924820">
        <ele>581.0</ele>
        <time>2021-10-04T12:11:25Z</time>
      </trkpt>
      <trkpt lat="42.6564420" lon="-6.8925920">
        <ele>580.4</ele>
        <time>2021-10-04T12:11:28Z</time>
      </trkpt>
      <trkpt lat="42.6564930" lon="-6.8926440">
        <ele>580.2</ele>
        <time>2021-10-04T12:11:29Z</time>
      </trkpt>
      <trkpt lat="42.6565810" lon="-6.8927690">
        <ele>579.8</ele>
        <time>2021-10-04T12:11:31Z</time>
      </trkpt>
      <trkpt lat="42.6566660" lon="-6.8930050">
        <ele>579.2</ele>
        <time>2021-10-04T12:11:34Z</time>
      </trkpt>
      <trkpt lat="42.6567040" lon="-6.8931750">
        <ele>578.2</ele>
        <time>2021-10-04T12:11:36Z</time>
      </trkpt>
      <trkpt lat="42.6567180" lon="-6.8932580">
        <ele>578.0</ele>
        <time>2021-10-04T12:11:37Z</time>
      </trkpt>
      <trkpt lat="42.6567520" lon="-6.8934080">
        <ele>577.6</ele>
        <time>2021-10-04T12:11:39Z</time>
      </trkpt>
      <trkpt lat="42.6568000" lon="-6.8935480">
        <ele>577.4</ele>
        <time>2021-10-04T12:11:41Z</time>
      </trkpt>
      <trkpt lat="42.6569030" lon="-6.8937660">
        <ele>577.0</ele>
        <time>2021-10-04T12:11:44Z</time>
      </trkpt>
      <trkpt lat="42.6570030" lon="-6.8940610">
        <ele>576.6</ele>
        <time>2021-10-04T12:11:48Z</time>
      </trkpt>
      <trkpt lat="42.6570250" lon="-6.8942230">
        <ele>576.6</ele>
        <time>2021-10-04T12:11:50Z</time>
      </trkpt>
      <trkpt lat="42.6569900" lon="-6.8944540">
        <ele>576.6</ele>
        <time>2021-10-04T12:11:53Z</time>
      </trkpt>
      <trkpt lat="42.6569650" lon="-6.8945240">
        <ele>576.6</ele>
        <time>2021-10-04T12:11:54Z</time>
      </trkpt>
      <trkpt lat="42.6568860" lon="-6.8947250">
        <ele>576.8</ele>
        <time>2021-10-04T12:11:57Z</time>
      </trkpt>
      <trkpt lat="42.6568220" lon="-6.8948360">
        <ele>576.8</ele>
        <time>2021-10-04T12:11:59Z</time>
      </trkpt>
      <trkpt lat="42.6566980" lon="-6.8949330">
        <ele>577.2</ele>
        <time>2021-10-04T12:12:02Z</time>
      </trkpt>
      <trkpt lat="42.6566560" lon="-6.8949520">
        <ele>577.2</ele>
        <time>2021-10-04T12:12:03Z</time>
      </trkpt>
      <trkpt lat="42.6565250" lon="-6.8949790">
        <ele>577.6</ele>
        <time>2021-10-04T12:12:06Z</time>
      </trkpt>
      <trkpt lat="42.6564420" lon="-6.8950060">
        <ele>578.0</ele>
        <time>2021-10-04T12:12:08Z</time>
      </trkpt>
      <trkpt lat="42.6563200" lon="-6.8950830">
        <ele>578.4</ele>
        <time>2021-10-04T12:12:11Z</time>
      </trkpt>
      <trkpt lat="42.6562570" lon="-6.8951610">
        <ele>578.8</ele>
        <time>2021-10-04T12:12:13Z</time>
      </trkpt>
      <trkpt lat="42.6562280" lon="-6.8952030">
        <ele>579.0</ele>
        <time>2021-10-04T12:12:14Z</time>
      </trkpt>
      <trkpt lat="42.6561120" lon="-6.8954290">
        <ele>580.2</ele>
        <time>2021-10-04T12:12:19Z</time>
      </trkpt>
      <trkpt lat="42.6559860" lon="-6.8955630">
        <ele>581.4</ele>
        <time>2021-10-04T12:12:24Z</time>
      </trkpt>
      <trkpt lat="42.6559210" lon="-6.8955620">
        <ele>582.2</ele>
        <time>2021-10-04T12:12:27Z</time>
      </trkpt>
      <trkpt lat="42.6559040" lon="-6.8955580">
        <ele>582.4</ele>
        <time>2021-10-04T12:12:28Z</time>
      </trkpt>
      <trkpt lat="42.6558640" lon="-6.8955450">
        <ele>582.6</ele>
        <time>2021-10-04T12:12:30Z</time>
      </trkpt>
      <trkpt lat="42.6557750" lon="-6.8955610">
        <ele>582.6</ele>
        <time>2021-10-04T12:12:34Z</time>
      </trkpt>
      <trkpt lat="42.6555640" lon="-6.8956600">
        <ele>581.2</ele>
        <time>2021-10-04T12:12:40Z</time>
      </trkpt>
      <trkpt lat="42.6554960" lon="-6.8956740">
        <ele>580.0</ele>
        <time>2021-10-04T12:12:42Z</time>
      </trkpt>
      <trkpt lat="42.6553700" lon="-6.8956560">
        <ele>579.4</ele>
        <time>2021-10-04T12:12:47Z</time>
      </trkpt>
      <trkpt lat="42.6553420" lon="-6.8957040">
        <ele>579.2</ele>
        <time>2021-10-04T12:12:49Z</time>
      </trkpt>
      <trkpt lat="42.6553260" lon="-6.8957780">
        <ele>579.2</ele>
        <time>2021-10-04T12:12:52Z</time>
      </trkpt>
      <trkpt lat="42.6553260" lon="-6.8957800">
        <ele>579.4</ele>
        <time>2021-10-04T12:12:54Z</time>
      </trkpt>
      <trkpt lat="42.6553090" lon="-6.8958430">
        <ele>579.6</ele>
        <time>2021-10-04T12:13:03Z</time>
      </trkpt>
      <trkpt lat="42.6552950" lon="-6.8959360">
        <ele>579.6</ele>
        <time>2021-10-04T12:13:06Z</time>
      </trkpt>
      <trkpt lat="42.6552750" lon="-6.8960450">
        <ele>579.6</ele>
        <time>2021-10-04T12:13:09Z</time>
      </trkpt>
      <trkpt lat="42.6552380" lon="-6.8962010">
        <ele>579.6</ele>
        <time>2021-10-04T12:13:13Z</time>
      </trkpt>
      <trkpt lat="42.6550390" lon="-6.8969270">
        <ele>580.8</ele>
        <time>2021-10-04T12:13:29Z</time>
      </trkpt>
      <trkpt lat="42.6550080" lon="-6.8970220">
        <ele>581.0</ele>
        <time>2021-10-04T12:13:31Z</time>
      </trkpt>
      <trkpt lat="42.6549450" lon="-6.8972160">
        <ele>581.2</ele>
        <time>2021-10-04T12:13:35Z</time>
      </trkpt>
      <trkpt lat="42.6547090" lon="-6.8979290">
        <ele>581.6</ele>
        <time>2021-10-04T12:13:49Z</time>
      </trkpt>
      <trkpt lat="42.6546040" lon="-6.8982960">
        <ele>582.2</ele>
        <time>2021-10-04T12:13:56Z</time>
      </trkpt>
      <trkpt lat="42.6544980" lon="-6.8988410">
        <ele>583.2</ele>
        <time>2021-10-04T12:14:06Z</time>
      </trkpt>
      <trkpt lat="42.6544500" lon="-6.8994850">
        <ele>584.2</ele>
        <time>2021-10-04T12:14:17Z</time>
      </trkpt>
      <trkpt lat="42.6544540" lon="-6.8996700">
        <ele>584.2</ele>
        <time>2021-10-04T12:14:20Z</time>
      </trkpt>
      <trkpt lat="42.6544660" lon="-6.8999170">
        <ele>584.4</ele>
        <time>2021-10-04T12:14:24Z</time>
      </trkpt>
      <trkpt lat="42.6544720" lon="-6.8999800">
        <ele>584.4</ele>
        <time>2021-10-04T12:14:25Z</time>
      </trkpt>
      <trkpt lat="42.6545770" lon="-6.9006850">
        <ele>585.0</ele>
        <time>2021-10-04T12:14:36Z</time>
      </trkpt>
      <trkpt lat="42.6546390" lon="-6.9010040">
        <ele>585.0</ele>
        <time>2021-10-04T12:14:41Z</time>
      </trkpt>
      <trkpt lat="42.6547810" lon="-6.9016140">
        <ele>585.6</ele>
        <time>2021-10-04T12:14:51Z</time>
      </trkpt>
      <trkpt lat="42.6549390" lon="-6.9023300">
        <ele>586.0</ele>
        <time>2021-10-04T12:15:02Z</time>
      </trkpt>
      <trkpt lat="42.6551010" lon="-6.9030640">
        <ele>586.2</ele>
        <time>2021-10-04T12:15:13Z</time>
      </trkpt>
      <trkpt lat="42.6552390" lon="-6.9036660">
        <ele>586.6</ele>
        <time>2021-10-04T12:15:22Z</time>
      </trkpt>
      <trkpt lat="42.6554020" lon="-6.9044070">
        <ele>587.6</ele>
        <time>2021-10-04T12:15:33Z</time>
      </trkpt>
      <trkpt lat="42.6556500" lon="-6.9050720">
        <ele>588.4</ele>
        <time>2021-10-04T12:15:44Z</time>
      </trkpt>
      <trkpt lat="42.6558230" lon="-6.9053110">
        <ele>588.6</ele>
        <time>2021-10-04T12:15:49Z</time>
      </trkpt>
      <trkpt lat="42.6560220" lon="-6.9055310">
        <ele>588.6</ele>
        <time>2021-10-04T12:15:54Z</time>
      </trkpt>
      <trkpt lat="42.6564070" lon="-6.9060340">
        <ele>588.8</ele>
        <time>2021-10-04T12:16:04Z</time>
      </trkpt>
      <trkpt lat="42.6565600" lon="-6.9063320">
        <ele>588.8</ele>
        <time>2021-10-04T12:16:09Z</time>
      </trkpt>
      <trkpt lat="42.6567240" lon="-6.9068760">
        <ele>589.2</ele>
        <time>2021-10-04T12:16:18Z</time>
      </trkpt>
      <trkpt lat="42.6567790" lon="-6.9071320">
        <ele>589.6</ele>
        <time>2021-10-04T12:16:22Z</time>
      </trkpt>
      <trkpt lat="42.6569670" lon="-6.9078180">
        <ele>590.0</ele>
        <time>2021-10-04T12:16:33Z</time>
      </trkpt>
      <trkpt lat="42.6571970" lon="-6.9082600">
        <ele>590.4</ele>
        <time>2021-10-04T12:16:41Z</time>
      </trkpt>
      <trkpt lat="42.6575810" lon="-6.9086370">
        <ele>590.8</ele>
        <time>2021-10-04T12:16:50Z</time>
      </trkpt>
      <trkpt lat="42.6580900" lon="-6.9089750">
        <ele>590.8</ele>
        <time>2021-10-04T12:17:00Z</time>
      </trkpt>
      <trkpt lat="42.6581840" lon="-6.9090480">
        <ele>590.8</ele>
        <time>2021-10-04T12:17:02Z</time>
      </trkpt>
      <trkpt lat="42.6582250" lon="-6.9090830">
        <ele>591.0</ele>
        <time>2021-10-04T12:17:03Z</time>
      </trkpt>
      <trkpt lat="42.6584200" lon="-6.9092980">
        <ele>591.0</ele>
        <time>2021-10-04T12:17:09Z</time>
      </trkpt>
      <trkpt lat="42.6585770" lon="-6.9095550">
        <ele>591.0</ele>
        <time>2021-10-04T12:17:15Z</time>
      </trkpt>
      <trkpt lat="42.6586280" lon="-6.9096710">
        <ele>591.0</ele>
        <time>2021-10-04T12:17:17Z</time>
      </trkpt>
      <trkpt lat="42.6586850" lon="-6.9098620">
        <ele>591.0</ele>
        <time>2021-10-04T12:17:20Z</time>
      </trkpt>
      <trkpt lat="42.6587440" lon="-6.9103830">
        <ele>591.0</ele>
        <time>2021-10-04T12:17:29Z</time>
      </trkpt>
      <trkpt lat="42.6587450" lon="-6.9104410">
        <ele>591.2</ele>
        <time>2021-10-04T12:17:31Z</time>
      </trkpt>
      <trkpt lat="42.6587420" lon="-6.9105050">
        <ele>592.0</ele>
        <time>2021-10-04T12:17:34Z</time>
      </trkpt>
      <trkpt lat="42.6587340" lon="-6.9106190">
        <ele>592.6</ele>
        <time>2021-10-04T12:17:37Z</time>
      </trkpt>
      <trkpt lat="42.6587170" lon="-6.9107120">
        <ele>593.0</ele>
        <time>2021-10-04T12:17:39Z</time>
      </trkpt>
      <trkpt lat="42.6586820" lon="-6.9108500">
        <ele>593.4</ele>
        <time>2021-10-04T12:17:42Z</time>
      </trkpt>
      <trkpt lat="42.6586070" lon="-6.9110580">
        <ele>593.6</ele>
        <time>2021-10-04T12:17:47Z</time>
      </trkpt>
      <trkpt lat="42.6584850" lon="-6.9112980">
        <ele>594.2</ele>
        <time>2021-10-04T12:17:53Z</time>
      </trkpt>
      <trkpt lat="42.6583160" lon="-6.9115090">
        <ele>595.4</ele>
        <time>2021-10-04T12:17:59Z</time>
      </trkpt>
      <trkpt lat="42.6580820" lon="-6.9117660">
        <ele>596.6</ele>
        <time>2021-10-04T12:18:08Z</time>
      </trkpt>
      <trkpt lat="42.6579880" lon="-6.9118640">
        <ele>597.0</ele>
        <time>2021-10-04T12:18:11Z</time>
      </trkpt>
      <trkpt lat="42.6579210" lon="-6.9119310">
        <ele>597.2</ele>
        <time>2021-10-04T12:18:13Z</time>
      </trkpt>
      <trkpt lat="42.6578260" lon="-6.9120480">
        <ele>597.4</ele>
        <time>2021-10-04T12:18:16Z</time>
      </trkpt>
      <trkpt lat="42.6577650" lon="-6.9121350">
        <ele>597.6</ele>
        <time>2021-10-04T12:18:18Z</time>
      </trkpt>
      <trkpt lat="42.6576150" lon="-6.9125200">
        <ele>598.6</ele>
        <time>2021-10-04T12:18:25Z</time>
      </trkpt>
      <trkpt lat="42.6575720" lon="-6.9127580">
        <ele>599.0</ele>
        <time>2021-10-04T12:18:29Z</time>
      </trkpt>
      <trkpt lat="42.6575720" lon="-6.9130580">
        <ele>599.4</ele>
        <time>2021-10-04T12:18:34Z</time>
      </trkpt>
      <trkpt lat="42.6575830" lon="-6.9131770">
        <ele>599.6</ele>
        <time>2021-10-04T12:18:36Z</time>
      </trkpt>
      <trkpt lat="42.6575940" lon="-6.9132340">
        <ele>599.8</ele>
        <time>2021-10-04T12:18:37Z</time>
      </trkpt>
      <trkpt lat="42.6576190" lon="-6.9133460">
        <ele>600.0</ele>
        <time>2021-10-04T12:18:39Z</time>
      </trkpt>
      <trkpt lat="42.6576500" lon="-6.9134570">
        <ele>600.2</ele>
        <time>2021-10-04T12:18:41Z</time>
      </trkpt>
      <trkpt lat="42.6576880" lon="-6.9135620">
        <ele>600.4</ele>
        <time>2021-10-04T12:18:43Z</time>
      </trkpt>
      <trkpt lat="42.6578000" lon="-6.9137600">
        <ele>600.4</ele>
        <time>2021-10-04T12:18:47Z</time>
      </trkpt>
      <trkpt lat="42.6579040" lon="-6.9138860">
        <ele>600.4</ele>
        <time>2021-10-04T12:18:50Z</time>
      </trkpt>
      <trkpt lat="42.6580250" lon="-6.9139930">
        <ele>600.4</ele>
        <time>2021-10-04T12:18:53Z</time>
      </trkpt>
      <trkpt lat="42.6584920" lon="-6.9144200">
        <ele>599.8</ele>
        <time>2021-10-04T12:19:04Z</time>
      </trkpt>
      <trkpt lat="42.6587230" lon="-6.9146390">
        <ele>599.6</ele>
        <time>2021-10-04T12:19:09Z</time>
      </trkpt>
      <trkpt lat="42.6588490" lon="-6.9147730">
        <ele>599.4</ele>
        <time>2021-10-04T12:19:12Z</time>
      </trkpt>
      <trkpt lat="42.6589660" lon="-6.9149000">
        <ele>599.4</ele>
        <time>2021-10-04T12:19:15Z</time>
      </trkpt>
      <trkpt lat="42.6592250" lon="-6.9156000">
        <ele>599.2</ele>
        <time>2021-10-04T12:19:27Z</time>
      </trkpt>
      <trkpt lat="42.6595560" lon="-6.9161750">
        <ele>598.8</ele>
        <time>2021-10-04T12:19:38Z</time>
      </trkpt>
      <trkpt lat="42.6597420" lon="-6.9164670">
        <ele>598.4</ele>
        <time>2021-10-04T12:19:44Z</time>
      </trkpt>
      <trkpt lat="42.6598940" lon="-6.9166750">
        <ele>599.2</ele>
        <time>2021-10-04T12:19:54Z</time>
      </trkpt>
      <trkpt lat="42.6599080" lon="-6.9166920">
        <ele>600.6</ele>
        <time>2021-10-04T12:21:15Z</time>
      </trkpt>
      <trkpt lat="42.6599460" lon="-6.9167730">
        <ele>600.6</ele>
        <time>2021-10-04T12:21:18Z</time>
      </trkpt>
      <trkpt lat="42.6599970" lon="-6.9168820">
        <ele>600.6</ele>
        <time>2021-10-04T12:21:21Z</time>
      </trkpt>
      <trkpt lat="42.6600520" lon="-6.9170320">
        <ele>600.4</ele>
        <time>2021-10-04T12:21:24Z</time>
      </trkpt>
      <trkpt lat="42.6601090" lon="-6.9172080">
        <ele>600.0</ele>
        <time>2021-10-04T12:21:27Z</time>
      </trkpt>
      <trkpt lat="42.6601220" lon="-6.9172720">
        <ele>600.0</ele>
        <time>2021-10-04T12:21:28Z</time>
      </trkpt>
      <trkpt lat="42.6601490" lon="-6.9177540">
        <ele>599.6</ele>
        <time>2021-10-04T12:21:34Z</time>
      </trkpt>
      <trkpt lat="42.6601420" lon="-6.9180180">
        <ele>599.4</ele>
        <time>2021-10-04T12:21:37Z</time>
      </trkpt>
      <trkpt lat="42.6601240" lon="-6.9182780">
        <ele>598.4</ele>
        <time>2021-10-04T12:21:40Z</time>
      </trkpt>
      <trkpt lat="42.6600880" lon="-6.9188580">
        <ele>597.4</ele>
        <time>2021-10-04T12:21:47Z</time>
      </trkpt>
      <trkpt lat="42.6600680" lon="-6.9191060">
        <ele>597.4</ele>
        <time>2021-10-04T12:21:50Z</time>
      </trkpt>
      <trkpt lat="42.6600560" lon="-6.9192690">
        <ele>597.8</ele>
        <time>2021-10-04T12:21:52Z</time>
      </trkpt>
      <trkpt lat="42.6600390" lon="-6.9194300">
        <ele>598.2</ele>
        <time>2021-10-04T12:21:54Z</time>
      </trkpt>
      <trkpt lat="42.6600240" lon="-6.9195850">
        <ele>598.8</ele>
        <time>2021-10-04T12:21:56Z</time>
      </trkpt>
      <trkpt lat="42.6600080" lon="-6.9198150">
        <ele>599.4</ele>
        <time>2021-10-04T12:21:59Z</time>
      </trkpt>
      <trkpt lat="42.6599610" lon="-6.9204730">
        <ele>600.6</ele>
        <time>2021-10-04T12:22:08Z</time>
      </trkpt>
      <trkpt lat="42.6599820" lon="-6.9210520">
        <ele>601.6</ele>
        <time>2021-10-04T12:22:16Z</time>
      </trkpt>
      <trkpt lat="42.6599910" lon="-6.9212060">
        <ele>602.0</ele>
        <time>2021-10-04T12:22:18Z</time>
      </trkpt>
      <trkpt lat="42.6600820" lon="-6.9214980">
        <ele>602.4</ele>
        <time>2021-10-04T12:22:22Z</time>
      </trkpt>
      <trkpt lat="42.6601520" lon="-6.9216300">
        <ele>602.4</ele>
        <time>2021-10-04T12:22:24Z</time>
      </trkpt>
      <trkpt lat="42.6604080" lon="-6.9221180">
        <ele>602.6</ele>
        <time>2021-10-04T12:22:32Z</time>
      </trkpt>
      <trkpt lat="42.6604900" lon="-6.9225350">
        <ele>603.0</ele>
        <time>2021-10-04T12:22:38Z</time>
      </trkpt>
      <trkpt lat="42.6606320" lon="-6.9231420">
        <ele>604.0</ele>
        <time>2021-10-04T12:22:47Z</time>
      </trkpt>
      <trkpt lat="42.6606930" lon="-6.9234260">
        <ele>604.4</ele>
        <time>2021-10-04T12:22:51Z</time>
      </trkpt>
      <trkpt lat="42.6607720" lon="-6.9237510">
        <ele>604.8</ele>
        <time>2021-10-04T12:22:56Z</time>
      </trkpt>
      <trkpt lat="42.6607920" lon="-6.9238140">
        <ele>605.2</ele>
        <time>2021-10-04T12:22:57Z</time>
      </trkpt>
      <trkpt lat="42.6609000" lon="-6.9242530">
        <ele>606.4</ele>
        <time>2021-10-04T12:23:04Z</time>
      </trkpt>
      <trkpt lat="42.6610540" lon="-6.9247610">
        <ele>607.0</ele>
        <time>2021-10-04T12:23:12Z</time>
      </trkpt>
      <trkpt lat="42.6611150" lon="-6.9249370">
        <ele>607.4</ele>
        <time>2021-10-04T12:23:15Z</time>
      </trkpt>
      <trkpt lat="42.6612060" lon="-6.9251560">
        <ele>607.6</ele>
        <time>2021-10-04T12:23:19Z</time>
      </trkpt>
      <trkpt lat="42.6613950" lon="-6.9255050">
        <ele>608.2</ele>
        <time>2021-10-04T12:23:26Z</time>
      </trkpt>
      <trkpt lat="42.6614220" lon="-6.9255520">
        <ele>608.4</ele>
        <time>2021-10-04T12:23:27Z</time>
      </trkpt>
      <trkpt lat="42.6615410" lon="-6.9257320">
        <ele>609.6</ele>
        <time>2021-10-04T12:23:31Z</time>
      </trkpt>
      <trkpt lat="42.6616350" lon="-6.9258670">
        <ele>610.2</ele>
        <time>2021-10-04T12:23:34Z</time>
      </trkpt>
      <trkpt lat="42.6616880" lon="-6.9259640">
        <ele>610.6</ele>
        <time>2021-10-04T12:23:36Z</time>
      </trkpt>
      <trkpt lat="42.6619080" lon="-6.9263420">
        <ele>611.8</ele>
        <time>2021-10-04T12:23:44Z</time>
      </trkpt>
      <trkpt lat="42.6619730" lon="-6.9264420">
        <ele>612.0</ele>
        <time>2021-10-04T12:23:46Z</time>
      </trkpt>
      <trkpt lat="42.6621890" lon="-6.9265950">
        <ele>613.0</ele>
        <time>2021-10-04T12:23:51Z</time>
      </trkpt>
      <trkpt lat="42.6622920" lon="-6.9266140">
        <ele>613.2</ele>
        <time>2021-10-04T12:23:53Z</time>
      </trkpt>
      <trkpt lat="42.6625840" lon="-6.9266170">
        <ele>613.4</ele>
        <time>2021-10-04T12:23:58Z</time>
      </trkpt>
      <trkpt lat="42.6629090" lon="-6.9266350">
        <ele>613.4</ele>
        <time>2021-10-04T12:24:03Z</time>
      </trkpt>
      <trkpt lat="42.6633050" lon="-6.9266770">
        <ele>612.0</ele>
        <time>2021-10-04T12:24:09Z</time>
      </trkpt>
      <trkpt lat="42.6637550" lon="-6.9266890">
        <ele>611.2</ele>
        <time>2021-10-04T12:24:16Z</time>
      </trkpt>
      <trkpt lat="42.6643430" lon="-6.9266840">
        <ele>611.8</ele>
        <time>2021-10-04T12:24:25Z</time>
      </trkpt>
      <trkpt lat="42.6648160" lon="-6.9265500">
        <ele>610.6</ele>
        <time>2021-10-04T12:24:32Z</time>
      </trkpt>
      <trkpt lat="42.6649600" lon="-6.9265370">
        <ele>609.6</ele>
        <time>2021-10-04T12:24:34Z</time>
      </trkpt>
      <trkpt lat="42.6652470" lon="-6.9266260">
        <ele>608.8</ele>
        <time>2021-10-04T12:24:38Z</time>
      </trkpt>
      <trkpt lat="42.6653190" lon="-6.9266660">
        <ele>608.6</ele>
        <time>2021-10-04T12:24:39Z</time>
      </trkpt>
      <trkpt lat="42.6655790" lon="-6.9268690">
        <ele>608.4</ele>
        <time>2021-10-04T12:24:43Z</time>
      </trkpt>
      <trkpt lat="42.6657980" lon="-6.9271280">
        <ele>608.2</ele>
        <time>2021-10-04T12:24:47Z</time>
      </trkpt>
      <trkpt lat="42.6658900" lon="-6.9278910">
        <ele>608.2</ele>
        <time>2021-10-04T12:24:55Z</time>
      </trkpt>
      <trkpt lat="42.6658260" lon="-6.9282610">
        <ele>608.0</ele>
        <time>2021-10-04T12:24:59Z</time>
      </trkpt>
      <trkpt lat="42.6658160" lon="-6.9283410">
        <ele>608.0</ele>
        <time>2021-10-04T12:25:00Z</time>
      </trkpt>
      <trkpt lat="42.6658080" lon="-6.9284810">
        <ele>608.0</ele>
        <time>2021-10-04T12:25:02Z</time>
      </trkpt>
      <trkpt lat="42.6658120" lon="-6.9285970">
        <ele>608.4</ele>
        <time>2021-10-04T12:25:08Z</time>
      </trkpt>
      <trkpt lat="42.6657910" lon="-6.9286530">
        <ele>610.0</ele>
        <time>2021-10-04T12:25:12Z</time>
      </trkpt>
      <trkpt lat="42.6657350" lon="-6.9287920">
        <ele>610.4</ele>
        <time>2021-10-04T12:25:16Z</time>
      </trkpt>
      <trkpt lat="42.6656160" lon="-6.9292330">
        <ele>610.8</ele>
        <time>2021-10-04T12:25:25Z</time>
      </trkpt>
      <trkpt lat="42.6655700" lon="-6.9293870">
        <ele>611.0</ele>
        <time>2021-10-04T12:25:28Z</time>
      </trkpt>
      <trkpt lat="42.6655320" lon="-6.9295450">
        <ele>611.0</ele>
        <time>2021-10-04T12:25:31Z</time>
      </trkpt>
      <trkpt lat="42.6653150" lon="-6.9302210">
        <ele>612.2</ele>
        <time>2021-10-04T12:25:43Z</time>
      </trkpt>
      <trkpt lat="42.6652760" lon="-6.9303340">
        <ele>612.4</ele>
        <time>2021-10-04T12:25:45Z</time>
      </trkpt>
      <trkpt lat="42.6653360" lon="-6.9307620">
        <ele>612.6</ele>
        <time>2021-10-04T12:25:52Z</time>
      </trkpt>
      <trkpt lat="42.6656000" lon="-6.9314690">
        <ele>613.4</ele>
        <time>2021-10-04T12:26:04Z</time>
      </trkpt>
      <trkpt lat="42.6656160" lon="-6.9315320">
        <ele>613.6</ele>
        <time>2021-10-04T12:26:05Z</time>
      </trkpt>
      <trkpt lat="42.6656760" lon="-6.9317910">
        <ele>614.4</ele>
        <time>2021-10-04T12:26:09Z</time>
      </trkpt>
      <trkpt lat="42.6657280" lon="-6.9320320">
        <ele>614.8</ele>
        <time>2021-10-04T12:26:13Z</time>
      </trkpt>
      <trkpt lat="42.6657730" lon="-6.9323350">
        <ele>615.8</ele>
        <time>2021-10-04T12:26:18Z</time>
      </trkpt>
      <trkpt lat="42.6658170" lon="-6.9327280">
        <ele>617.0</ele>
        <time>2021-10-04T12:26:24Z</time>
      </trkpt>
      <trkpt lat="42.6658990" lon="-6.9332690">
        <ele>617.6</ele>
        <time>2021-10-04T12:26:32Z</time>
      </trkpt>
      <trkpt lat="42.6659390" lon="-6.9335280">
        <ele>618.0</ele>
        <time>2021-10-04T12:26:36Z</time>
      </trkpt>
      <trkpt lat="42.6660400" lon="-6.9341050">
        <ele>618.6</ele>
        <time>2021-10-04T12:26:45Z</time>
      </trkpt>
      <trkpt lat="42.6661850" lon="-6.9347180">
        <ele>618.8</ele>
        <time>2021-10-04T12:26:55Z</time>
      </trkpt>
      <trkpt lat="42.6662870" lon="-6.9352030">
        <ele>619.4</ele>
        <time>2021-10-04T12:27:03Z</time>
      </trkpt>
      <trkpt lat="42.6663640" lon="-6.9355450">
        <ele>619.8</ele>
        <time>2021-10-04T12:27:08Z</time>
      </trkpt>
      <trkpt lat="42.6664540" lon="-6.9360990">
        <ele>620.0</ele>
        <time>2021-10-04T12:27:16Z</time>
      </trkpt>
      <trkpt lat="42.6664670" lon="-6.9363100">
        <ele>620.4</ele>
        <time>2021-10-04T12:27:19Z</time>
      </trkpt>
      <trkpt lat="42.6664600" lon="-6.9364560">
        <ele>620.6</ele>
        <time>2021-10-04T12:27:21Z</time>
      </trkpt>
      <trkpt lat="42.6664390" lon="-6.9365980">
        <ele>620.6</ele>
        <time>2021-10-04T12:27:23Z</time>
      </trkpt>
      <trkpt lat="42.6664020" lon="-6.9368070">
        <ele>620.6</ele>
        <time>2021-10-04T12:27:26Z</time>
      </trkpt>
      <trkpt lat="42.6663410" lon="-6.9371700">
        <ele>619.4</ele>
        <time>2021-10-04T12:27:31Z</time>
      </trkpt>
      <trkpt lat="42.6663300" lon="-6.9372460">
        <ele>619.2</ele>
        <time>2021-10-04T12:27:32Z</time>
      </trkpt>
      <trkpt lat="42.6663180" lon="-6.9374030">
        <ele>619.0</ele>
        <time>2021-10-04T12:27:34Z</time>
      </trkpt>
      <trkpt lat="42.6663720" lon="-6.9376880">
        <ele>619.0</ele>
        <time>2021-10-04T12:27:38Z</time>
      </trkpt>
      <trkpt lat="42.6664210" lon="-6.9378650">
        <ele>619.0</ele>
        <time>2021-10-04T12:27:41Z</time>
      </trkpt>
      <trkpt lat="42.6664320" lon="-6.9379220">
        <ele>619.0</ele>
        <time>2021-10-04T12:27:42Z</time>
      </trkpt>
      <trkpt lat="42.6664400" lon="-6.9380370">
        <ele>619.4</ele>
        <time>2021-10-04T12:27:44Z</time>
      </trkpt>
      <trkpt lat="42.6664220" lon="-6.9381510">
        <ele>619.6</ele>
        <time>2021-10-04T12:27:46Z</time>
      </trkpt>
      <trkpt lat="42.6664080" lon="-6.9382080">
        <ele>619.8</ele>
        <time>2021-10-04T12:27:47Z</time>
      </trkpt>
      <trkpt lat="42.6663520" lon="-6.9383910">
        <ele>620.6</ele>
        <time>2021-10-04T12:27:50Z</time>
      </trkpt>
      <trkpt lat="42.6662280" lon="-6.9387820">
        <ele>621.4</ele>
        <time>2021-10-04T12:27:56Z</time>
      </trkpt>
      <trkpt lat="42.6661740" lon="-6.9388980">
        <ele>621.6</ele>
        <time>2021-10-04T12:27:58Z</time>
      </trkpt>
      <trkpt lat="42.6661110" lon="-6.9390120">
        <ele>621.6</ele>
        <time>2021-10-04T12:28:00Z</time>
      </trkpt>
      <trkpt lat="42.6659270" lon="-6.9392440">
        <ele>621.6</ele>
        <time>2021-10-04T12:28:05Z</time>
      </trkpt>
      <trkpt lat="42.6656460" lon="-6.9395530">
        <ele>621.8</ele>
        <time>2021-10-04T12:28:12Z</time>
      </trkpt>
      <trkpt lat="42.6655680" lon="-6.9396390">
        <ele>622.2</ele>
        <time>2021-10-04T12:28:14Z</time>
      </trkpt>
      <trkpt lat="42.6654560" lon="-6.9397720">
        <ele>622.8</ele>
        <time>2021-10-04T12:28:17Z</time>
      </trkpt>
      <trkpt lat="42.6650290" lon="-6.9402200">
        <ele>622.6</ele>
        <time>2021-10-04T12:28:27Z</time>
      </trkpt>
      <trkpt lat="42.6648800" lon="-6.9403230">
        <ele>622.6</ele>
        <time>2021-10-04T12:28:30Z</time>
      </trkpt>
      <trkpt lat="42.6643760" lon="-6.9407010">
        <ele>622.2</ele>
        <time>2021-10-04T12:28:40Z</time>
      </trkpt>
      <trkpt lat="42.6642840" lon="-6.9407740">
        <ele>622.2</ele>
        <time>2021-10-04T12:28:42Z</time>
      </trkpt>
      <trkpt lat="42.6641900" lon="-6.9408570">
        <ele>622.2</ele>
        <time>2021-10-04T12:28:44Z</time>
      </trkpt>
      <trkpt lat="42.6640030" lon="-6.9413900">
        <ele>622.0</ele>
        <time>2021-10-04T12:28:52Z</time>
      </trkpt>
      <trkpt lat="42.6640000" lon="-6.9421700">
        <ele>623.4</ele>
        <time>2021-10-04T12:29:03Z</time>
      </trkpt>
      <trkpt lat="42.6641180" lon="-6.9426300">
        <ele>623.8</ele>
        <time>2021-10-04T12:29:10Z</time>
      </trkpt>
      <trkpt lat="42.6643230" lon="-6.9433350">
        <ele>624.2</ele>
        <time>2021-10-04T12:29:20Z</time>
      </trkpt>
      <trkpt lat="42.6644970" lon="-6.9440450">
        <ele>624.0</ele>
        <time>2021-10-04T12:29:30Z</time>
      </trkpt>
      <trkpt lat="42.6646470" lon="-6.9443850">
        <ele>624.4</ele>
        <time>2021-10-04T12:29:36Z</time>
      </trkpt>
      <trkpt lat="42.6647240" lon="-6.9445440">
        <ele>624.8</ele>
        <time>2021-10-04T12:29:39Z</time>
      </trkpt>
      <trkpt lat="42.6647500" lon="-6.9445980">
        <ele>625.0</ele>
        <time>2021-10-04T12:29:40Z</time>
      </trkpt>
      <trkpt lat="42.6648010" lon="-6.9447050">
        <ele>625.8</ele>
        <time>2021-10-04T12:29:42Z</time>
      </trkpt>
      <trkpt lat="42.6648260" lon="-6.9447600">
        <ele>626.0</ele>
        <time>2021-10-04T12:29:43Z</time>
      </trkpt>
      <trkpt lat="42.6648710" lon="-6.9448680">
        <ele>626.6</ele>
        <time>2021-10-04T12:29:45Z</time>
      </trkpt>
      <trkpt lat="42.6649280" lon="-6.9450380">
        <ele>627.2</ele>
        <time>2021-10-04T12:29:48Z</time>
      </trkpt>
      <trkpt lat="42.6649780" lon="-6.9452190">
        <ele>628.4</ele>
        <time>2021-10-04T12:29:51Z</time>
      </trkpt>
      <trkpt lat="42.6650510" lon="-6.9457250">
        <ele>629.4</ele>
        <time>2021-10-04T12:29:59Z</time>
      </trkpt>
      <trkpt lat="42.6651020" lon="-6.9459610">
        <ele>629.8</ele>
        <time>2021-10-04T12:30:03Z</time>
      </trkpt>
      <trkpt lat="42.6652200" lon="-6.9462760">
        <ele>630.4</ele>
        <time>2021-10-04T12:30:09Z</time>
      </trkpt>
      <trkpt lat="42.6652790" lon="-6.9464330">
        <ele>631.6</ele>
        <time>2021-10-04T12:30:12Z</time>
      </trkpt>
      <trkpt lat="42.6653020" lon="-6.9465410">
        <ele>631.8</ele>
        <time>2021-10-04T12:30:14Z</time>
      </trkpt>
      <trkpt lat="42.6653170" lon="-6.9470420">
        <ele>631.8</ele>
        <time>2021-10-04T12:30:22Z</time>
      </trkpt>
      <trkpt lat="42.6653190" lon="-6.9474330">
        <ele>631.8</ele>
        <time>2021-10-04T12:30:28Z</time>
      </trkpt>
      <trkpt lat="42.6653050" lon="-6.9475650">
        <ele>631.8</ele>
        <time>2021-10-04T12:30:30Z</time>
      </trkpt>
      <trkpt lat="42.6652880" lon="-6.9476880">
        <ele>631.8</ele>
        <time>2021-10-04T12:30:32Z</time>
      </trkpt>
      <trkpt lat="42.6651780" lon="-6.9481730">
        <ele>632.6</ele>
        <time>2021-10-04T12:30:40Z</time>
      </trkpt>
      <trkpt lat="42.6651070" lon="-6.9484990">
        <ele>633.4</ele>
        <time>2021-10-04T12:30:45Z</time>
      </trkpt>
      <trkpt lat="42.6650910" lon="-6.9486930">
        <ele>633.6</ele>
        <time>2021-10-04T12:30:48Z</time>
      </trkpt>
      <trkpt lat="42.6650330" lon="-6.9492350">
        <ele>634.8</ele>
        <time>2021-10-04T12:30:57Z</time>
      </trkpt>
      <trkpt lat="42.6649760" lon="-6.9497260">
        <ele>636.0</ele>
        <time>2021-10-04T12:31:05Z</time>
      </trkpt>
      <trkpt lat="42.6648890" lon="-6.9504570">
        <ele>637.2</ele>
        <time>2021-10-04T12:31:17Z</time>
      </trkpt>
      <trkpt lat="42.6648490" lon="-6.9508060">
        <ele>638.4</ele>
        <time>2021-10-04T12:31:23Z</time>
      </trkpt>
      <trkpt lat="42.6648130" lon="-6.9510650">
        <ele>639.0</ele>
        <time>2021-10-04T12:31:28Z</time>
      </trkpt>
      <trkpt lat="42.6647820" lon="-6.9512310">
        <ele>639.6</ele>
        <time>2021-10-04T12:31:32Z</time>
      </trkpt>
      <trkpt lat="42.6647430" lon="-6.9514820">
        <ele>640.8</ele>
        <time>2021-10-04T12:31:37Z</time>
      </trkpt>
      <trkpt lat="42.6646810" lon="-6.9517160">
        <ele>642.0</ele>
        <time>2021-10-04T12:31:42Z</time>
      </trkpt>
      <trkpt lat="42.6645800" lon="-6.9523800">
        <ele>643.0</ele>
        <time>2021-10-04T12:31:54Z</time>
      </trkpt>
      <trkpt lat="42.6645540" lon="-6.9527730">
        <ele>644.0</ele>
        <time>2021-10-04T12:32:02Z</time>
      </trkpt>
      <trkpt lat="42.6645510" lon="-6.9529580">
        <ele>644.6</ele>
        <time>2021-10-04T12:32:05Z</time>
      </trkpt>
      <trkpt lat="42.6645500" lon="-6.9532930">
        <ele>645.2</ele>
        <time>2021-10-04T12:32:10Z</time>
      </trkpt>
      <trkpt lat="42.6645230" lon="-6.9535610">
        <ele>645.2</ele>
        <time>2021-10-04T12:32:14Z</time>
      </trkpt>
      <trkpt lat="42.6644880" lon="-6.9537520">
        <ele>645.4</ele>
        <time>2021-10-04T12:32:17Z</time>
      </trkpt>
      <trkpt lat="42.6644480" lon="-6.9539810">
        <ele>645.2</ele>
        <time>2021-10-04T12:32:21Z</time>
      </trkpt>
      <trkpt lat="42.6644790" lon="-6.9543300">
        <ele>644.4</ele>
        <time>2021-10-04T12:32:26Z</time>
      </trkpt>
      <trkpt lat="42.6645050" lon="-6.9543940">
        <ele>644.0</ele>
        <time>2021-10-04T12:32:27Z</time>
      </trkpt>
      <trkpt lat="42.6646000" lon="-6.9545640">
        <ele>643.4</ele>
        <time>2021-10-04T12:32:30Z</time>
      </trkpt>
      <trkpt lat="42.6646390" lon="-6.9546150">
        <ele>643.4</ele>
        <time>2021-10-04T12:32:31Z</time>
      </trkpt>
      <trkpt lat="42.6648590" lon="-6.9548640">
        <ele>643.2</ele>
        <time>2021-10-04T12:32:36Z</time>
      </trkpt>
      <trkpt lat="42.6650550" lon="-6.9550450">
        <ele>642.8</ele>
        <time>2021-10-04T12:32:40Z</time>
      </trkpt>
      <trkpt lat="42.6655660" lon="-6.9554720">
        <ele>642.4</ele>
        <time>2021-10-04T12:32:50Z</time>
      </trkpt>
      <trkpt lat="42.6657260" lon="-6.9556060">
        <ele>641.6</ele>
        <time>2021-10-04T12:32:53Z</time>
      </trkpt>
      <trkpt lat="42.6662220" lon="-6.9560560">
        <ele>640.8</ele>
        <time>2021-10-04T12:33:02Z</time>
      </trkpt>
      <trkpt lat="42.6662770" lon="-6.9561040">
        <ele>640.6</ele>
        <time>2021-10-04T12:33:03Z</time>
      </trkpt>
      <trkpt lat="42.6664850" lon="-6.9562970">
        <ele>639.4</ele>
        <time>2021-10-04T12:33:07Z</time>
      </trkpt>
      <trkpt lat="42.6669630" lon="-6.9567570">
        <ele>639.0</ele>
        <time>2021-10-04T12:33:17Z</time>
      </trkpt>
      <trkpt lat="42.6671900" lon="-6.9569600">
        <ele>639.4</ele>
        <time>2021-10-04T12:33:22Z</time>
      </trkpt>
      <trkpt lat="42.6673260" lon="-6.9570790">
        <ele>639.6</ele>
        <time>2021-10-04T12:33:25Z</time>
      </trkpt>
      <trkpt lat="42.6675040" lon="-6.9572400">
        <ele>640.0</ele>
        <time>2021-10-04T12:33:29Z</time>
      </trkpt>
      <trkpt lat="42.6675510" lon="-6.9572820">
        <ele>640.4</ele>
        <time>2021-10-04T12:33:30Z</time>
      </trkpt>
      <trkpt lat="42.6677750" lon="-6.9574840">
        <ele>641.2</ele>
        <time>2021-10-04T12:33:35Z</time>
      </trkpt>
      <trkpt lat="42.6678630" lon="-6.9575600">
        <ele>641.6</ele>
        <time>2021-10-04T12:33:37Z</time>
      </trkpt>
      <trkpt lat="42.6681600" lon="-6.9578300">
        <ele>642.6</ele>
        <time>2021-10-04T12:33:44Z</time>
      </trkpt>
      <trkpt lat="42.6682850" lon="-6.9579370">
        <ele>643.6</ele>
        <time>2021-10-04T12:33:47Z</time>
      </trkpt>
      <trkpt lat="42.6684530" lon="-6.9580850">
        <ele>643.8</ele>
        <time>2021-10-04T12:33:51Z</time>
      </trkpt>
      <trkpt lat="42.6685820" lon="-6.9582000">
        <ele>644.2</ele>
        <time>2021-10-04T12:33:54Z</time>
      </trkpt>
      <trkpt lat="42.6686670" lon="-6.9582750">
        <ele>644.6</ele>
        <time>2021-10-04T12:33:56Z</time>
      </trkpt>
      <trkpt lat="42.6688010" lon="-6.9583870">
        <ele>645.0</ele>
        <time>2021-10-04T12:33:59Z</time>
      </trkpt>
      <trkpt lat="42.6691710" lon="-6.9586890">
        <ele>645.4</ele>
        <time>2021-10-04T12:34:07Z</time>
      </trkpt>
      <trkpt lat="42.6694040" lon="-6.9588990">
        <ele>645.6</ele>
        <time>2021-10-04T12:34:12Z</time>
      </trkpt>
      <trkpt lat="42.6696210" lon="-6.9591560">
        <ele>645.6</ele>
        <time>2021-10-04T12:34:17Z</time>
      </trkpt>
      <trkpt lat="42.6699910" lon="-6.9597530">
        <ele>646.2</ele>
        <time>2021-10-04T12:34:27Z</time>
      </trkpt>
      <trkpt lat="42.6703070" lon="-6.9604150">
        <ele>646.2</ele>
        <time>2021-10-04T12:34:37Z</time>
      </trkpt>
      <trkpt lat="42.6705070" lon="-6.9608990">
        <ele>644.0</ele>
        <time>2021-10-04T12:34:44Z</time>
      </trkpt>
      <trkpt lat="42.6707730" lon="-6.9615760">
        <ele>647.6</ele>
        <time>2021-10-04T12:34:55Z</time>
      </trkpt>
      <trkpt lat="42.6709020" lon="-6.9619270">
        <ele>647.8</ele>
        <time>2021-10-04T12:35:01Z</time>
      </trkpt>
      <trkpt lat="42.6709250" lon="-6.9619820">
        <ele>647.8</ele>
        <time>2021-10-04T12:35:02Z</time>
      </trkpt>
      <trkpt lat="42.6711010" lon="-6.9625860">
        <ele>649.0</ele>
        <time>2021-10-04T12:35:12Z</time>
      </trkpt>
      <trkpt lat="42.6712710" lon="-6.9631810">
        <ele>650.2</ele>
        <time>2021-10-04T12:35:22Z</time>
      </trkpt>
      <trkpt lat="42.6714090" lon="-6.9636040">
        <ele>650.4</ele>
        <time>2021-10-04T12:35:29Z</time>
      </trkpt>
      <trkpt lat="42.6714760" lon="-6.9637790">
        <ele>650.6</ele>
        <time>2021-10-04T12:35:32Z</time>
      </trkpt>
      <trkpt lat="42.6715190" lon="-6.9638930">
        <ele>651.0</ele>
        <time>2021-10-04T12:35:34Z</time>
      </trkpt>
      <trkpt lat="42.6715710" lon="-6.9639980">
        <ele>651.2</ele>
        <time>2021-10-04T12:35:36Z</time>
      </trkpt>
      <trkpt lat="42.6716170" lon="-6.9641010">
        <ele>651.4</ele>
        <time>2021-10-04T12:35:38Z</time>
      </trkpt>
      <trkpt lat="42.6716590" lon="-6.9641990">
        <ele>651.4</ele>
        <time>2021-10-04T12:35:40Z</time>
      </trkpt>
      <trkpt lat="42.6716840" lon="-6.9642440">
        <ele>651.4</ele>
        <time>2021-10-04T12:35:41Z</time>
      </trkpt>
      <trkpt lat="42.6719580" lon="-6.9648240">
        <ele>652.2</ele>
        <time>2021-10-04T12:35:52Z</time>
      </trkpt>
      <trkpt lat="42.6720570" lon="-6.9650430">
        <ele>652.0</ele>
        <time>2021-10-04T12:35:56Z</time>
      </trkpt>
      <trkpt lat="42.6721400" lon="-6.9651990">
        <ele>652.0</ele>
        <time>2021-10-04T12:35:59Z</time>
      </trkpt>
      <trkpt lat="42.6724750" lon="-6.9657930">
        <ele>650.6</ele>
        <time>2021-10-04T12:36:09Z</time>
      </trkpt>
      <trkpt lat="42.6727010" lon="-6.9662240">
        <ele>650.6</ele>
        <time>2021-10-04T12:36:16Z</time>
      </trkpt>
      <trkpt lat="42.6727870" lon="-6.9663870">
        <ele>650.6</ele>
        <time>2021-10-04T12:36:19Z</time>
      </trkpt>
      <trkpt lat="42.6728570" lon="-6.9665440">
        <ele>651.4</ele>
        <time>2021-10-04T12:36:22Z</time>
      </trkpt>
      <trkpt lat="42.6728750" lon="-6.9665990">
        <ele>651.8</ele>
        <time>2021-10-04T12:36:23Z</time>
      </trkpt>
      <trkpt lat="42.6728900" lon="-6.9666550">
        <ele>652.4</ele>
        <time>2021-10-04T12:36:24Z</time>
      </trkpt>
      <trkpt lat="42.6729350" lon="-6.9668380">
        <ele>653.0</ele>
        <time>2021-10-04T12:36:27Z</time>
      </trkpt>
      <trkpt lat="42.6729460" lon="-6.9669000">
        <ele>653.4</ele>
        <time>2021-10-04T12:36:28Z</time>
      </trkpt>
      <trkpt lat="42.6729550" lon="-6.9672900">
        <ele>654.6</ele>
        <time>2021-10-04T12:36:35Z</time>
      </trkpt>
      <trkpt lat="42.6728920" lon="-6.9674920">
        <ele>655.4</ele>
        <time>2021-10-04T12:36:39Z</time>
      </trkpt>
      <trkpt lat="42.6728480" lon="-6.9675880">
        <ele>655.8</ele>
        <time>2021-10-04T12:36:41Z</time>
      </trkpt>
      <trkpt lat="42.6727470" lon="-6.9677880">
        <ele>657.0</ele>
        <time>2021-10-04T12:36:45Z</time>
      </trkpt>
      <trkpt lat="42.6723770" lon="-6.9683700">
        <ele>657.6</ele>
        <time>2021-10-04T12:36:58Z</time>
      </trkpt>
      <trkpt lat="42.6722070" lon="-6.9685480">
        <ele>658.2</ele>
        <time>2021-10-04T12:37:03Z</time>
      </trkpt>
      <trkpt lat="42.6717280" lon="-6.9689620">
        <ele>659.0</ele>
        <time>2021-10-04T12:37:17Z</time>
      </trkpt>
      <trkpt lat="42.6717080" lon="-6.9690680">
        <ele>659.4</ele>
        <time>2021-10-04T12:37:19Z</time>
      </trkpt>
      <trkpt lat="42.6717690" lon="-6.9692790">
        <ele>660.4</ele>
        <time>2021-10-04T12:37:23Z</time>
      </trkpt>
      <trkpt lat="42.6718250" lon="-6.9693650">
        <ele>660.8</ele>
        <time>2021-10-04T12:37:25Z</time>
      </trkpt>
      <trkpt lat="42.6719500" lon="-6.9695080">
        <ele>661.6</ele>
        <time>2021-10-04T12:37:29Z</time>
      </trkpt>
      <trkpt lat="42.6723400" lon="-6.9699170">
        <ele>662.8</ele>
        <time>2021-10-04T12:37:41Z</time>
      </trkpt>
      <trkpt lat="42.6726410" lon="-6.9703210">
        <ele>663.8</ele>
        <time>2021-10-04T12:37:51Z</time>
      </trkpt>
      <trkpt lat="42.6726630" lon="-6.9703730">
        <ele>663.8</ele>
        <time>2021-10-04T12:37:52Z</time>
      </trkpt>
      <trkpt lat="42.6726740" lon="-6.9708290">
        <ele>664.4</ele>
        <time>2021-10-04T12:38:00Z</time>
      </trkpt>
      <trkpt lat="42.6725900" lon="-6.9712850">
        <ele>664.8</ele>
        <time>2021-10-04T12:38:10Z</time>
      </trkpt>
      <trkpt lat="42.6725890" lon="-6.9713360">
        <ele>665.0</ele>
        <time>2021-10-04T12:38:11Z</time>
      </trkpt>
      <trkpt lat="42.6725830" lon="-6.9714780">
        <ele>666.0</ele>
        <time>2021-10-04T12:38:14Z</time>
      </trkpt>
      <trkpt lat="42.6725780" lon="-6.9716160">
        <ele>667.0</ele>
        <time>2021-10-04T12:38:17Z</time>
      </trkpt>
      <trkpt lat="42.6725730" lon="-6.9718310">
        <ele>668.0</ele>
        <time>2021-10-04T12:38:21Z</time>
      </trkpt>
      <trkpt lat="42.6725740" lon="-6.9719510">
        <ele>668.2</ele>
        <time>2021-10-04T12:38:23Z</time>
      </trkpt>
      <trkpt lat="42.6725790" lon="-6.9721730">
        <ele>669.2</ele>
        <time>2021-10-04T12:38:27Z</time>
      </trkpt>
      <trkpt lat="42.6725900" lon="-6.9725270">
        <ele>670.6</ele>
        <time>2021-10-04T12:38:34Z</time>
      </trkpt>
      <trkpt lat="42.6725820" lon="-6.9727880">
        <ele>671.8</ele>
        <time>2021-10-04T12:38:39Z</time>
      </trkpt>
      <trkpt lat="42.6724910" lon="-6.9734370">
        <ele>673.0</ele>
        <time>2021-10-04T12:38:51Z</time>
      </trkpt>
      <trkpt lat="42.6724560" lon="-6.9737080">
        <ele>674.0</ele>
        <time>2021-10-04T12:38:56Z</time>
      </trkpt>
      <trkpt lat="42.6724460" lon="-6.9739230">
        <ele>675.2</ele>
        <time>2021-10-04T12:39:00Z</time>
      </trkpt>
      <trkpt lat="42.6724530" lon="-6.9743340">
        <ele>676.2</ele>
        <time>2021-10-04T12:39:08Z</time>
      </trkpt>
      <trkpt lat="42.6724650" lon="-6.9745860">
        <ele>677.4</ele>
        <time>2021-10-04T12:39:13Z</time>
      </trkpt>
      <trkpt lat="42.6724700" lon="-6.9748290">
        <ele>678.4</ele>
        <time>2021-10-04T12:39:18Z</time>
      </trkpt>
      <trkpt lat="42.6725140" lon="-6.9752700">
        <ele>679.8</ele>
        <time>2021-10-04T12:39:27Z</time>
      </trkpt>
      <trkpt lat="42.6725370" lon="-6.9754720">
        <ele>680.8</ele>
        <time>2021-10-04T12:39:31Z</time>
      </trkpt>
      <trkpt lat="42.6725570" lon="-6.9757320">
        <ele>682.0</ele>
        <time>2021-10-04T12:39:36Z</time>
      </trkpt>
      <trkpt lat="42.6725590" lon="-6.9759880">
        <ele>683.2</ele>
        <time>2021-10-04T12:39:41Z</time>
      </trkpt>
      <trkpt lat="42.6725280" lon="-6.9763420">
        <ele>684.6</ele>
        <time>2021-10-04T12:39:48Z</time>
      </trkpt>
      <trkpt lat="42.6724420" lon="-6.9768950">
        <ele>685.8</ele>
        <time>2021-10-04T12:39:59Z</time>
      </trkpt>
      <trkpt lat="42.6724090" lon="-6.9771360">
        <ele>686.8</ele>
        <time>2021-10-04T12:40:04Z</time>
      </trkpt>
      <trkpt lat="42.6723870" lon="-6.9773350">
        <ele>688.0</ele>
        <time>2021-10-04T12:40:09Z</time>
      </trkpt>
      <trkpt lat="42.6723840" lon="-6.9773830">
        <ele>689.0</ele>
        <time>2021-10-04T12:40:12Z</time>
      </trkpt>
      <trkpt lat="42.6723850" lon="-6.9773860">
        <ele>689.4</ele>
        <time>2021-10-04T12:40:13Z</time>
      </trkpt>
      <trkpt lat="42.6723730" lon="-6.9775250">
        <ele>692.0</ele>
        <time>2021-10-04T12:44:35Z</time>
      </trkpt>
      <trkpt lat="42.6723730" lon="-6.9775650">
        <ele>692.0</ele>
        <time>2021-10-04T12:44:36Z</time>
      </trkpt>
      <trkpt lat="42.6723540" lon="-6.9778210">
        <ele>692.0</ele>
        <time>2021-10-04T12:44:40Z</time>
      </trkpt>
      <trkpt lat="42.6723350" lon="-6.9783100">
        <ele>690.6</ele>
        <time>2021-10-04T12:44:45Z</time>
      </trkpt>
      <trkpt lat="42.6723210" lon="-6.9784080">
        <ele>690.0</ele>
        <time>2021-10-04T12:44:46Z</time>
      </trkpt>
      <trkpt lat="42.6722850" lon="-6.9784960">
        <ele>689.4</ele>
        <time>2021-10-04T12:44:47Z</time>
      </trkpt>
      <trkpt lat="42.6721630" lon="-6.9785990">
        <ele>687.8</ele>
        <time>2021-10-04T12:44:49Z</time>
      </trkpt>
      <trkpt lat="42.6720070" lon="-6.9786070">
        <ele>685.8</ele>
        <time>2021-10-04T12:44:51Z</time>
      </trkpt>
      <trkpt lat="42.6719290" lon="-6.9786250">
        <ele>684.6</ele>
        <time>2021-10-04T12:44:52Z</time>
      </trkpt>
      <trkpt lat="42.6718490" lon="-6.9786540">
        <ele>683.8</ele>
        <time>2021-10-04T12:44:53Z</time>
      </trkpt>
      <trkpt lat="42.6717630" lon="-6.9786850">
        <ele>682.8</ele>
        <time>2021-10-04T12:44:54Z</time>
      </trkpt>
      <trkpt lat="42.6714770" lon="-6.9787820">
        <ele>681.2</ele>
        <time>2021-10-04T12:44:57Z</time>
      </trkpt>
      <trkpt lat="42.6712880" lon="-6.9788500">
        <ele>680.2</ele>
        <time>2021-10-04T12:44:59Z</time>
      </trkpt>
      <trkpt lat="42.6712070" lon="-6.9788950">
        <ele>679.6</ele>
        <time>2021-10-04T12:45:00Z</time>
      </trkpt>
      <trkpt lat="42.6711380" lon="-6.9789530">
        <ele>678.4</ele>
        <time>2021-10-04T12:45:01Z</time>
      </trkpt>
      <trkpt lat="42.6710850" lon="-6.9790330">
        <ele>676.8</ele>
        <time>2021-10-04T12:45:02Z</time>
      </trkpt>
      <trkpt lat="42.6710530" lon="-6.9791290">
        <ele>675.4</ele>
        <time>2021-10-04T12:45:03Z</time>
      </trkpt>
      <trkpt lat="42.6710270" lon="-6.9792160">
        <ele>673.6</ele>
        <time>2021-10-04T12:45:04Z</time>
      </trkpt>
      <trkpt lat="42.6710020" lon="-6.9792960">
        <ele>671.8</ele>
        <time>2021-10-04T12:45:05Z</time>
      </trkpt>
      <trkpt lat="42.6709800" lon="-6.9793730">
        <ele>670.2</ele>
        <time>2021-10-04T12:45:06Z</time>
      </trkpt>
      <trkpt lat="42.6709460" lon="-6.9795380">
        <ele>668.8</ele>
        <time>2021-10-04T12:45:08Z</time>
      </trkpt>
      <trkpt lat="42.6709300" lon="-6.9796170">
        <ele>668.6</ele>
        <time>2021-10-04T12:45:09Z</time>
      </trkpt>
      <trkpt lat="42.6709110" lon="-6.9796940">
        <ele>668.4</ele>
        <time>2021-10-04T12:45:10Z</time>
      </trkpt>
      <trkpt lat="42.6708970" lon="-6.9797750">
        <ele>668.4</ele>
        <time>2021-10-04T12:45:11Z</time>
      </trkpt>
      <trkpt lat="42.6708950" lon="-6.9799520">
        <ele>668.4</ele>
        <time>2021-10-04T12:45:13Z</time>
      </trkpt>
      <trkpt lat="42.6709050" lon="-6.9801330">
        <ele>668.4</ele>
        <time>2021-10-04T12:45:15Z</time>
      </trkpt>
      <trkpt lat="42.6709240" lon="-6.9803080">
        <ele>668.6</ele>
        <time>2021-10-04T12:45:17Z</time>
      </trkpt>
      <trkpt lat="42.6709280" lon="-6.9804770">
        <ele>668.8</ele>
        <time>2021-10-04T12:45:19Z</time>
      </trkpt>
      <trkpt lat="42.6709030" lon="-6.9806370">
        <ele>669.0</ele>
        <time>2021-10-04T12:45:21Z</time>
      </trkpt>
      <trkpt lat="42.6708160" lon="-6.9809940">
        <ele>669.6</ele>
        <time>2021-10-04T12:45:26Z</time>
      </trkpt>
      <trkpt lat="42.6707710" lon="-6.9811020">
        <ele>669.8</ele>
        <time>2021-10-04T12:45:28Z</time>
      </trkpt>
      <trkpt lat="42.6706070" lon="-6.9813930">
        <ele>671.0</ele>
        <time>2021-10-04T12:45:34Z</time>
      </trkpt>
      <trkpt lat="42.6705720" lon="-6.9815100">
        <ele>672.2</ele>
        <time>2021-10-04T12:45:36Z</time>
      </trkpt>
      <trkpt lat="42.6705600" lon="-6.9816350">
        <ele>672.8</ele>
        <time>2021-10-04T12:45:38Z</time>
      </trkpt>
      <trkpt lat="42.6705270" lon="-6.9819530">
        <ele>673.2</ele>
        <time>2021-10-04T12:45:43Z</time>
      </trkpt>
      <trkpt lat="42.6705130" lon="-6.9820820">
        <ele>673.2</ele>
        <time>2021-10-04T12:45:45Z</time>
      </trkpt>
      <trkpt lat="42.6705680" lon="-6.9823940">
        <ele>673.4</ele>
        <time>2021-10-04T12:45:50Z</time>
      </trkpt>
      <trkpt lat="42.6706730" lon="-6.9826570">
        <ele>673.6</ele>
        <time>2021-10-04T12:45:55Z</time>
      </trkpt>
      <trkpt lat="42.6708870" lon="-6.9831340">
        <ele>673.8</ele>
        <time>2021-10-04T12:46:04Z</time>
      </trkpt>
      <trkpt lat="42.6709890" lon="-6.9834020">
        <ele>674.4</ele>
        <time>2021-10-04T12:46:09Z</time>
      </trkpt>
      <trkpt lat="42.6711160" lon="-6.9837100">
        <ele>675.4</ele>
        <time>2021-10-04T12:46:15Z</time>
      </trkpt>
      <trkpt lat="42.6711970" lon="-6.9839170">
        <ele>676.0</ele>
        <time>2021-10-04T12:46:19Z</time>
      </trkpt>
      <trkpt lat="42.6712450" lon="-6.9840590">
        <ele>676.2</ele>
        <time>2021-10-04T12:46:22Z</time>
      </trkpt>
      <trkpt lat="42.6712610" lon="-6.9841060">
        <ele>676.4</ele>
        <time>2021-10-04T12:46:23Z</time>
      </trkpt>
      <trkpt lat="42.6713070" lon="-6.9842530">
        <ele>676.8</ele>
        <time>2021-10-04T12:46:26Z</time>
      </trkpt>
      <trkpt lat="42.6714130" lon="-6.9846280">
        <ele>677.0</ele>
        <time>2021-10-04T12:46:33Z</time>
      </trkpt>
      <trkpt lat="42.6714440" lon="-6.9847270">
        <ele>677.0</ele>
        <time>2021-10-04T12:46:35Z</time>
      </trkpt>
      <trkpt lat="42.6714780" lon="-6.9848230">
        <ele>677.2</ele>
        <time>2021-10-04T12:46:37Z</time>
      </trkpt>
      <trkpt lat="42.6715190" lon="-6.9849160">
        <ele>677.6</ele>
        <time>2021-10-04T12:46:39Z</time>
      </trkpt>
      <trkpt lat="42.6715730" lon="-6.9850590">
        <ele>678.8</ele>
        <time>2021-10-04T12:46:42Z</time>
      </trkpt>
      <trkpt lat="42.6716130" lon="-6.9851720">
        <ele>679.0</ele>
        <time>2021-10-04T12:46:44Z</time>
      </trkpt>
      <trkpt lat="42.6716660" lon="-6.9853470">
        <ele>679.6</ele>
        <time>2021-10-04T12:46:47Z</time>
      </trkpt>
      <trkpt lat="42.6716800" lon="-6.9854070">
        <ele>679.8</ele>
        <time>2021-10-04T12:46:48Z</time>
      </trkpt>
      <trkpt lat="42.6717110" lon="-6.9855990">
        <ele>679.8</ele>
        <time>2021-10-04T12:46:51Z</time>
      </trkpt>
      <trkpt lat="42.6717290" lon="-6.9857000">
        <ele>679.8</ele>
        <time>2021-10-04T12:46:53Z</time>
      </trkpt>
      <trkpt lat="42.6717720" lon="-6.9858650">
        <ele>679.6</ele>
        <time>2021-10-04T12:46:56Z</time>
      </trkpt>
      <trkpt lat="42.6719300" lon="-6.9861520">
        <ele>678.6</ele>
        <time>2021-10-04T12:47:01Z</time>
      </trkpt>
      <trkpt lat="42.6719640" lon="-6.9862020">
        <ele>678.4</ele>
        <time>2021-10-04T12:47:02Z</time>
      </trkpt>
      <trkpt lat="42.6721050" lon="-6.9863600">
        <ele>678.2</ele>
        <time>2021-10-04T12:47:06Z</time>
      </trkpt>
      <trkpt lat="42.6721820" lon="-6.9865080">
        <ele>678.2</ele>
        <time>2021-10-04T12:47:09Z</time>
      </trkpt>
      <trkpt lat="42.6722110" lon="-6.9865670">
        <ele>678.2</ele>
        <time>2021-10-04T12:47:10Z</time>
      </trkpt>
      <trkpt lat="42.6722460" lon="-6.9866680">
        <ele>678.4</ele>
        <time>2021-10-04T12:47:12Z</time>
      </trkpt>
      <trkpt lat="42.6723070" lon="-6.9868120">
        <ele>679.0</ele>
        <time>2021-10-04T12:47:15Z</time>
      </trkpt>
      <trkpt lat="42.6723550" lon="-6.9869030">
        <ele>679.4</ele>
        <time>2021-10-04T12:47:17Z</time>
      </trkpt>
      <trkpt lat="42.6724140" lon="-6.9869820">
        <ele>679.8</ele>
        <time>2021-10-04T12:47:19Z</time>
      </trkpt>
      <trkpt lat="42.6725470" lon="-6.9871810">
        <ele>680.8</ele>
        <time>2021-10-04T12:47:24Z</time>
      </trkpt>
      <trkpt lat="42.6727210" lon="-6.9875950">
        <ele>682.0</ele>
        <time>2021-10-04T12:47:32Z</time>
      </trkpt>
      <trkpt lat="42.6729320" lon="-6.9881980">
        <ele>682.6</ele>
        <time>2021-10-04T12:47:42Z</time>
      </trkpt>
      <trkpt lat="42.6729460" lon="-6.9883270">
        <ele>682.6</ele>
        <time>2021-10-04T12:47:44Z</time>
      </trkpt>
      <trkpt lat="42.6729520" lon="-6.9884550">
        <ele>682.6</ele>
        <time>2021-10-04T12:47:46Z</time>
      </trkpt>
      <trkpt lat="42.6729450" lon="-6.9886390">
        <ele>682.8</ele>
        <time>2021-10-04T12:47:49Z</time>
      </trkpt>
      <trkpt lat="42.6729580" lon="-6.9887520">
        <ele>683.0</ele>
        <time>2021-10-04T12:47:51Z</time>
      </trkpt>
      <trkpt lat="42.6729640" lon="-6.9888140">
        <ele>683.2</ele>
        <time>2021-10-04T12:47:52Z</time>
      </trkpt>
      <trkpt lat="42.6728770" lon="-6.9893940">
        <ele>683.8</ele>
        <time>2021-10-04T12:48:01Z</time>
      </trkpt>
      <trkpt lat="42.6728440" lon="-6.9895670">
        <ele>684.2</ele>
        <time>2021-10-04T12:48:04Z</time>
      </trkpt>
      <trkpt lat="42.6728330" lon="-6.9896240">
        <ele>684.2</ele>
        <time>2021-10-04T12:48:05Z</time>
      </trkpt>
      <trkpt lat="42.6727590" lon="-6.9899390">
        <ele>685.4</ele>
        <time>2021-10-04T12:48:11Z</time>
      </trkpt>
      <trkpt lat="42.6727550" lon="-6.9900850">
        <ele>686.4</ele>
        <time>2021-10-04T12:48:14Z</time>
      </trkpt>
      <trkpt lat="42.6727990" lon="-6.9903980">
        <ele>687.6</ele>
        <time>2021-10-04T12:48:20Z</time>
      </trkpt>
      <trkpt lat="42.6728400" lon="-6.9905020">
        <ele>687.6</ele>
        <time>2021-10-04T12:48:22Z</time>
      </trkpt>
      <trkpt lat="42.6731500" lon="-6.9910680">
        <ele>687.8</ele>
        <time>2021-10-04T12:48:34Z</time>
      </trkpt>
      <trkpt lat="42.6732080" lon="-6.9912990">
        <ele>688.4</ele>
        <time>2021-10-04T12:48:39Z</time>
      </trkpt>
      <trkpt lat="42.6732060" lon="-6.9913490">
        <ele>688.8</ele>
        <time>2021-10-04T12:48:40Z</time>
      </trkpt>
      <trkpt lat="42.6731920" lon="-6.9915280">
        <ele>689.2</ele>
        <time>2021-10-04T12:48:44Z</time>
      </trkpt>
      <trkpt lat="42.6731730" lon="-6.9916530">
        <ele>689.8</ele>
        <time>2021-10-04T12:48:47Z</time>
      </trkpt>
      <trkpt lat="42.6731450" lon="-6.9917850">
        <ele>690.8</ele>
        <time>2021-10-04T12:48:50Z</time>
      </trkpt>
      <trkpt lat="42.6731330" lon="-6.9918770">
        <ele>692.0</ele>
        <time>2021-10-04T12:48:52Z</time>
      </trkpt>
      <trkpt lat="42.6731200" lon="-6.9919720">
        <ele>693.2</ele>
        <time>2021-10-04T12:48:54Z</time>
      </trkpt>
      <trkpt lat="42.6730990" lon="-6.9921210">
        <ele>694.2</ele>
        <time>2021-10-04T12:48:57Z</time>
      </trkpt>
      <trkpt lat="42.6731020" lon="-6.9923680">
        <ele>695.2</ele>
        <time>2021-10-04T12:49:02Z</time>
      </trkpt>
      <trkpt lat="42.6731970" lon="-6.9928060">
        <ele>696.4</ele>
        <time>2021-10-04T12:49:12Z</time>
      </trkpt>
      <trkpt lat="42.6733010" lon="-6.9931320">
        <ele>697.6</ele>
        <time>2021-10-04T12:49:19Z</time>
      </trkpt>
      <trkpt lat="42.6733250" lon="-6.9931790">
        <ele>697.8</ele>
        <time>2021-10-04T12:49:20Z</time>
      </trkpt>
      <trkpt lat="42.6735910" lon="-6.9934910">
        <ele>698.0</ele>
        <time>2021-10-04T12:49:27Z</time>
      </trkpt>
      <trkpt lat="42.6736380" lon="-6.9935250">
        <ele>698.0</ele>
        <time>2021-10-04T12:49:28Z</time>
      </trkpt>
      <trkpt lat="42.6738030" lon="-6.9935900">
        <ele>697.6</ele>
        <time>2021-10-04T12:49:31Z</time>
      </trkpt>
      <trkpt lat="42.6739160" lon="-6.9936360">
        <ele>697.2</ele>
        <time>2021-10-04T12:49:33Z</time>
      </trkpt>
      <trkpt lat="42.6740690" lon="-6.9937560">
        <ele>696.4</ele>
        <time>2021-10-04T12:49:36Z</time>
      </trkpt>
      <trkpt lat="42.6741120" lon="-6.9938000">
        <ele>696.4</ele>
        <time>2021-10-04T12:49:37Z</time>
      </trkpt>
      <trkpt lat="42.6741510" lon="-6.9938370">
        <ele>696.4</ele>
        <time>2021-10-04T12:49:38Z</time>
      </trkpt>
      <trkpt lat="42.6742700" lon="-6.9939420">
        <ele>696.4</ele>
        <time>2021-10-04T12:49:42Z</time>
      </trkpt>
      <trkpt lat="42.6743380" lon="-6.9940180">
        <ele>696.4</ele>
        <time>2021-10-04T12:49:45Z</time>
      </trkpt>
      <trkpt lat="42.6743790" lon="-6.9940640">
        <ele>697.6</ele>
        <time>2021-10-04T12:49:47Z</time>
      </trkpt>
      <trkpt lat="42.6744180" lon="-6.9941090">
        <ele>699.0</ele>
        <time>2021-10-04T12:49:49Z</time>
      </trkpt>
      <trkpt lat="42.6744590" lon="-6.9941590">
        <ele>700.4</ele>
        <time>2021-10-04T12:49:51Z</time>
      </trkpt>
      <trkpt lat="42.6745240" lon="-6.9942230">
        <ele>701.6</ele>
        <time>2021-10-04T12:49:54Z</time>
      </trkpt>
      <trkpt lat="42.6745660" lon="-6.9942670">
        <ele>702.6</ele>
        <time>2021-10-04T12:49:56Z</time>
      </trkpt>
      <trkpt lat="42.6746170" lon="-6.9943500">
        <ele>704.0</ele>
        <time>2021-10-04T12:49:59Z</time>
      </trkpt>
      <trkpt lat="42.6746680" lon="-6.9944670">
        <ele>705.6</ele>
        <time>2021-10-04T12:50:03Z</time>
      </trkpt>
      <trkpt lat="42.6747040" lon="-6.9945570">
        <ele>706.8</ele>
        <time>2021-10-04T12:50:06Z</time>
      </trkpt>
      <trkpt lat="42.6747470" lon="-6.9946350">
        <ele>707.8</ele>
        <time>2021-10-04T12:50:09Z</time>
      </trkpt>
      <trkpt lat="42.6747960" lon="-6.9947490">
        <ele>709.0</ele>
        <time>2021-10-04T12:50:13Z</time>
      </trkpt>
      <trkpt lat="42.6748340" lon="-6.9948330">
        <ele>710.2</ele>
        <time>2021-10-04T12:50:16Z</time>
      </trkpt>
      <trkpt lat="42.6748880" lon="-6.9949390">
        <ele>711.4</ele>
        <time>2021-10-04T12:50:20Z</time>
      </trkpt>
      <trkpt lat="42.6749240" lon="-6.9950250">
        <ele>712.4</ele>
        <time>2021-10-04T12:50:23Z</time>
      </trkpt>
      <trkpt lat="42.6749990" lon="-6.9951470">
        <ele>713.6</ele>
        <time>2021-10-04T12:50:28Z</time>
      </trkpt>
      <trkpt lat="42.6750820" lon="-6.9952040">
        <ele>714.6</ele>
        <time>2021-10-04T12:50:32Z</time>
      </trkpt>
      <trkpt lat="42.6751740" lon="-6.9952450">
        <ele>715.6</ele>
        <time>2021-10-04T12:50:36Z</time>
      </trkpt>
      <trkpt lat="42.6752670" lon="-6.9952930">
        <ele>716.6</ele>
        <time>2021-10-04T12:50:40Z</time>
      </trkpt>
      <trkpt lat="42.6754120" lon="-6.9953740">
        <ele>717.6</ele>
        <time>2021-10-04T12:50:46Z</time>
      </trkpt>
      <trkpt lat="42.6755120" lon="-6.9954530">
        <ele>718.8</ele>
        <time>2021-10-04T12:50:50Z</time>
      </trkpt>
      <trkpt lat="42.6756190" lon="-6.9955640">
        <ele>720.0</ele>
        <time>2021-10-04T12:50:55Z</time>
      </trkpt>
      <trkpt lat="42.6757050" lon="-6.9956450">
        <ele>721.2</ele>
        <time>2021-10-04T12:50:59Z</time>
      </trkpt>
      <trkpt lat="42.6758280" lon="-6.9957650">
        <ele>722.4</ele>
        <time>2021-10-04T12:51:05Z</time>
      </trkpt>
      <trkpt lat="42.6759230" lon="-6.9959130">
        <ele>723.4</ele>
        <time>2021-10-04T12:51:11Z</time>
      </trkpt>
      <trkpt lat="42.6759530" lon="-6.9959930">
        <ele>724.6</ele>
        <time>2021-10-04T12:51:14Z</time>
      </trkpt>
      <trkpt lat="42.6759850" lon="-6.9961420">
        <ele>725.6</ele>
        <time>2021-10-04T12:51:19Z</time>
      </trkpt>
      <trkpt lat="42.6760010" lon="-6.9962330">
        <ele>726.6</ele>
        <time>2021-10-04T12:51:22Z</time>
      </trkpt>
      <trkpt lat="42.6760290" lon="-6.9963590">
        <ele>727.8</ele>
        <time>2021-10-04T12:51:26Z</time>
      </trkpt>
      <trkpt lat="42.6760520" lon="-6.9964550">
        <ele>729.0</ele>
        <time>2021-10-04T12:51:29Z</time>
      </trkpt>
      <trkpt lat="42.6760680" lon="-6.9965790">
        <ele>730.2</ele>
        <time>2021-10-04T12:51:33Z</time>
      </trkpt>
      <trkpt lat="42.6760820" lon="-6.9966990">
        <ele>731.2</ele>
        <time>2021-10-04T12:51:37Z</time>
      </trkpt>
      <trkpt lat="42.6760900" lon="-6.9968260">
        <ele>732.4</ele>
        <time>2021-10-04T12:51:41Z</time>
      </trkpt>
      <trkpt lat="42.6760820" lon="-6.9969610">
        <ele>733.6</ele>
        <time>2021-10-04T12:51:45Z</time>
      </trkpt>
      <trkpt lat="42.6760720" lon="-6.9970240">
        <ele>734.6</ele>
        <time>2021-10-04T12:51:47Z</time>
      </trkpt>
      <trkpt lat="42.6760390" lon="-6.9971760">
        <ele>735.8</ele>
        <time>2021-10-04T12:51:52Z</time>
      </trkpt>
      <trkpt lat="42.6760170" lon="-6.9972880">
        <ele>736.8</ele>
        <time>2021-10-04T12:51:56Z</time>
      </trkpt>
      <trkpt lat="42.6759760" lon="-6.9974300">
        <ele>738.0</ele>
        <time>2021-10-04T12:52:01Z</time>
      </trkpt>
      <trkpt lat="42.6759150" lon="-6.9975540">
        <ele>739.0</ele>
        <time>2021-10-04T12:52:06Z</time>
      </trkpt>
      <trkpt lat="42.6758370" lon="-6.9976760">
        <ele>740.2</ele>
        <time>2021-10-04T12:52:11Z</time>
      </trkpt>
      <trkpt lat="42.6757640" lon="-6.9977900">
        <ele>741.4</ele>
        <time>2021-10-04T12:52:16Z</time>
      </trkpt>
      <trkpt lat="42.6756970" lon="-6.9978680">
        <ele>742.4</ele>
        <time>2021-10-04T12:52:20Z</time>
      </trkpt>
      <trkpt lat="42.6756320" lon="-6.9979600">
        <ele>743.6</ele>
        <time>2021-10-04T12:52:24Z</time>
      </trkpt>
      <trkpt lat="42.6756240" lon="-6.9980510">
        <ele>744.8</ele>
        <time>2021-10-04T12:52:27Z</time>
      </trkpt>
      <trkpt lat="42.6756360" lon="-6.9981410">
        <ele>745.8</ele>
        <time>2021-10-04T12:52:30Z</time>
      </trkpt>
      <trkpt lat="42.6756610" lon="-6.9982600">
        <ele>746.8</ele>
        <time>2021-10-04T12:52:34Z</time>
      </trkpt>
      <trkpt lat="42.6756910" lon="-6.9983040">
        <ele>747.4</ele>
        <time>2021-10-04T12:52:36Z</time>
      </trkpt>
      <trkpt lat="42.6757350" lon="-6.9983270">
        <ele>748.2</ele>
        <time>2021-10-04T12:52:38Z</time>
      </trkpt>
      <trkpt lat="42.6758160" lon="-6.9984400">
        <ele>749.4</ele>
        <time>2021-10-04T12:52:43Z</time>
      </trkpt>
      <trkpt lat="42.6758280" lon="-6.9984670">
        <ele>749.6</ele>
        <time>2021-10-04T12:52:44Z</time>
      </trkpt>
      <trkpt lat="42.6759000" lon="-6.9985990">
        <ele>750.4</ele>
        <time>2021-10-04T12:52:49Z</time>
      </trkpt>
      <trkpt lat="42.6759620" lon="-6.9986980">
        <ele>751.4</ele>
        <time>2021-10-04T12:52:53Z</time>
      </trkpt>
      <trkpt lat="42.6760210" lon="-6.9987950">
        <ele>752.4</ele>
        <time>2021-10-04T12:52:57Z</time>
      </trkpt>
      <trkpt lat="42.6760910" lon="-6.9989290">
        <ele>753.6</ele>
        <time>2021-10-04T12:53:02Z</time>
      </trkpt>
      <trkpt lat="42.6761120" lon="-6.9989910">
        <ele>754.8</ele>
        <time>2021-10-04T12:53:04Z</time>
      </trkpt>
      <trkpt lat="42.6761590" lon="-6.9991110">
        <ele>755.8</ele>
        <time>2021-10-04T12:53:08Z</time>
      </trkpt>
      <trkpt lat="42.6761970" lon="-6.9992400">
        <ele>756.8</ele>
        <time>2021-10-04T12:53:12Z</time>
      </trkpt>
      <trkpt lat="42.6762380" lon="-6.9994010">
        <ele>758.0</ele>
        <time>2021-10-04T12:53:17Z</time>
      </trkpt>
      <trkpt lat="42.6762820" lon="-6.9995430">
        <ele>759.0</ele>
        <time>2021-10-04T12:53:21Z</time>
      </trkpt>
      <trkpt lat="42.6763770" lon="-6.9997940">
        <ele>760.0</ele>
        <time>2021-10-04T12:53:28Z</time>
      </trkpt>
      <trkpt lat="42.6764700" lon="-7.0000010">
        <ele>761.2</ele>
        <time>2021-10-04T12:53:34Z</time>
      </trkpt>
      <trkpt lat="42.6765600" lon="-7.0001080">
        <ele>762.2</ele>
        <time>2021-10-04T12:53:38Z</time>
      </trkpt>
      <trkpt lat="42.6767030" lon="-7.0001890">
        <ele>763.2</ele>
        <time>2021-10-04T12:53:43Z</time>
      </trkpt>
      <trkpt lat="42.6770830" lon="-7.0002090">
        <ele>764.2</ele>
        <time>2021-10-04T12:53:54Z</time>
      </trkpt>
      <trkpt lat="42.6771130" lon="-7.0002000">
        <ele>764.4</ele>
        <time>2021-10-04T12:53:55Z</time>
      </trkpt>
      <trkpt lat="42.6772330" lon="-7.0001600">
        <ele>764.6</ele>
        <time>2021-10-04T12:53:59Z</time>
      </trkpt>
      <trkpt lat="42.6773740" lon="-7.0001300">
        <ele>765.2</ele>
        <time>2021-10-04T12:54:04Z</time>
      </trkpt>
      <trkpt lat="42.6774530" lon="-7.0001270">
        <ele>765.4</ele>
        <time>2021-10-04T12:54:07Z</time>
      </trkpt>
      <trkpt lat="42.6776580" lon="-7.0001770">
        <ele>766.6</ele>
        <time>2021-10-04T12:54:14Z</time>
      </trkpt>
      <trkpt lat="42.6779260" lon="-7.0003730">
        <ele>767.6</ele>
        <time>2021-10-04T12:54:24Z</time>
      </trkpt>
      <trkpt lat="42.6780990" lon="-7.0004740">
        <ele>768.8</ele>
        <time>2021-10-04T12:54:30Z</time>
      </trkpt>
      <trkpt lat="42.6782670" lon="-7.0005820">
        <ele>769.8</ele>
        <time>2021-10-04T12:54:36Z</time>
      </trkpt>
      <trkpt lat="42.6784080" lon="-7.0006680">
        <ele>771.2</ele>
        <time>2021-10-04T12:54:41Z</time>
      </trkpt>
      <trkpt lat="42.6785210" lon="-7.0007400">
        <ele>772.4</ele>
        <time>2021-10-04T12:54:45Z</time>
      </trkpt>
      <trkpt lat="42.6786310" lon="-7.0008250">
        <ele>773.4</ele>
        <time>2021-10-04T12:54:49Z</time>
      </trkpt>
      <trkpt lat="42.6786990" lon="-7.0008910">
        <ele>774.4</ele>
        <time>2021-10-04T12:54:52Z</time>
      </trkpt>
      <trkpt lat="42.6787860" lon="-7.0009440">
        <ele>775.4</ele>
        <time>2021-10-04T12:54:56Z</time>
      </trkpt>
      <trkpt lat="42.6788920" lon="-7.0010480">
        <ele>776.4</ele>
        <time>2021-10-04T12:55:01Z</time>
      </trkpt>
      <trkpt lat="42.6790170" lon="-7.0011550">
        <ele>777.6</ele>
        <time>2021-10-04T12:55:06Z</time>
      </trkpt>
      <trkpt lat="42.6791220" lon="-7.0012300">
        <ele>778.8</ele>
        <time>2021-10-04T12:55:10Z</time>
      </trkpt>
      <trkpt lat="42.6791930" lon="-7.0012800">
        <ele>780.2</ele>
        <time>2021-10-04T12:55:13Z</time>
      </trkpt>
      <trkpt lat="42.6793300" lon="-7.0014190">
        <ele>781.4</ele>
        <time>2021-10-04T12:55:19Z</time>
      </trkpt>
      <trkpt lat="42.6793990" lon="-7.0015200">
        <ele>782.8</ele>
        <time>2021-10-04T12:55:23Z</time>
      </trkpt>
      <trkpt lat="42.6794680" lon="-7.0015870">
        <ele>783.8</ele>
        <time>2021-10-04T12:55:26Z</time>
      </trkpt>
      <trkpt lat="42.6795570" lon="-7.0016860">
        <ele>785.2</ele>
        <time>2021-10-04T12:55:30Z</time>
      </trkpt>
      <trkpt lat="42.6796160" lon="-7.0017700">
        <ele>786.2</ele>
        <time>2021-10-04T12:55:33Z</time>
      </trkpt>
      <trkpt lat="42.6797680" lon="-7.0019410">
        <ele>787.4</ele>
        <time>2021-10-04T12:55:40Z</time>
      </trkpt>
      <trkpt lat="42.6798540" lon="-7.0020230">
        <ele>788.4</ele>
        <time>2021-10-04T12:55:44Z</time>
      </trkpt>
      <trkpt lat="42.6799560" lon="-7.0021160">
        <ele>789.8</ele>
        <time>2021-10-04T12:55:49Z</time>
      </trkpt>
      <trkpt lat="42.6800390" lon="-7.0021840">
        <ele>790.8</ele>
        <time>2021-10-04T12:55:53Z</time>
      </trkpt>
      <trkpt lat="42.6801500" lon="-7.0022620">
        <ele>792.0</ele>
        <time>2021-10-04T12:55:58Z</time>
      </trkpt>
      <trkpt lat="42.6802620" lon="-7.0023000">
        <ele>793.2</ele>
        <time>2021-10-04T12:56:02Z</time>
      </trkpt>
      <trkpt lat="42.6803510" lon="-7.0023200">
        <ele>794.4</ele>
        <time>2021-10-04T12:56:06Z</time>
      </trkpt>
      <trkpt lat="42.6804870" lon="-7.0022900">
        <ele>795.6</ele>
        <time>2021-10-04T12:56:11Z</time>
      </trkpt>
      <trkpt lat="42.6806270" lon="-7.0022430">
        <ele>796.8</ele>
        <time>2021-10-04T12:56:16Z</time>
      </trkpt>
      <trkpt lat="42.6807340" lon="-7.0022190">
        <ele>797.8</ele>
        <time>2021-10-04T12:56:19Z</time>
      </trkpt>
      <trkpt lat="42.6808490" lon="-7.0022100">
        <ele>798.8</ele>
        <time>2021-10-04T12:56:22Z</time>
      </trkpt>
      <trkpt lat="42.6809760" lon="-7.0021950">
        <ele>800.0</ele>
        <time>2021-10-04T12:56:26Z</time>
      </trkpt>
      <trkpt lat="42.6812930" lon="-7.0021760">
        <ele>801.2</ele>
        <time>2021-10-04T12:56:35Z</time>
      </trkpt>
      <trkpt lat="42.6814780" lon="-7.0020600">
        <ele>802.4</ele>
        <time>2021-10-04T12:56:41Z</time>
      </trkpt>
      <trkpt lat="42.6816110" lon="-7.0019030">
        <ele>803.6</ele>
        <time>2021-10-04T12:56:46Z</time>
      </trkpt>
      <trkpt lat="42.6817400" lon="-7.0017420">
        <ele>804.6</ele>
        <time>2021-10-04T12:56:51Z</time>
      </trkpt>
      <trkpt lat="42.6818910" lon="-7.0016100">
        <ele>806.0</ele>
        <time>2021-10-04T12:56:56Z</time>
      </trkpt>
      <trkpt lat="42.6821340" lon="-7.0015370">
        <ele>806.6</ele>
        <time>2021-10-04T12:57:03Z</time>
      </trkpt>
      <trkpt lat="42.6822120" lon="-7.0015610">
        <ele>807.0</ele>
        <time>2021-10-04T12:57:05Z</time>
      </trkpt>
      <trkpt lat="42.6823280" lon="-7.0016030">
        <ele>807.4</ele>
        <time>2021-10-04T12:57:08Z</time>
      </trkpt>
      <trkpt lat="42.6825980" lon="-7.0016660">
        <ele>808.0</ele>
        <time>2021-10-04T12:57:14Z</time>
      </trkpt>
      <trkpt lat="42.6826870" lon="-7.0017000">
        <ele>808.2</ele>
        <time>2021-10-04T12:57:16Z</time>
      </trkpt>
      <trkpt lat="42.6830180" lon="-7.0016910">
        <ele>809.2</ele>
        <time>2021-10-04T12:57:25Z</time>
      </trkpt>
      <trkpt lat="42.6831530" lon="-7.0016280">
        <ele>810.2</ele>
        <time>2021-10-04T12:57:30Z</time>
      </trkpt>
      <trkpt lat="42.6832670" lon="-7.0016650">
        <ele>811.4</ele>
        <time>2021-10-04T12:57:34Z</time>
      </trkpt>
      <trkpt lat="42.6833010" lon="-7.0018080">
        <ele>812.6</ele>
        <time>2021-10-04T12:57:38Z</time>
      </trkpt>
      <trkpt lat="42.6833160" lon="-7.0019210">
        <ele>814.0</ele>
        <time>2021-10-04T12:57:41Z</time>
      </trkpt>
      <trkpt lat="42.6833530" lon="-7.0020280">
        <ele>815.2</ele>
        <time>2021-10-04T12:57:44Z</time>
      </trkpt>
      <trkpt lat="42.6834200" lon="-7.0021510">
        <ele>816.6</ele>
        <time>2021-10-04T12:57:48Z</time>
      </trkpt>
      <trkpt lat="42.6834950" lon="-7.0022320">
        <ele>817.6</ele>
        <time>2021-10-04T12:57:51Z</time>
      </trkpt>
      <trkpt lat="42.6835650" lon="-7.0023120">
        <ele>818.6</ele>
        <time>2021-10-04T12:57:54Z</time>
      </trkpt>
      <trkpt lat="42.6836510" lon="-7.0024140">
        <ele>819.8</ele>
        <time>2021-10-04T12:57:58Z</time>
      </trkpt>
      <trkpt lat="42.6837270" lon="-7.0024800">
        <ele>821.0</ele>
        <time>2021-10-04T12:58:01Z</time>
      </trkpt>
      <trkpt lat="42.6838000" lon="-7.0025430">
        <ele>822.2</ele>
        <time>2021-10-04T12:58:04Z</time>
      </trkpt>
      <trkpt lat="42.6839510" lon="-7.0026050">
        <ele>823.4</ele>
        <time>2021-10-04T12:58:09Z</time>
      </trkpt>
      <trkpt lat="42.6840750" lon="-7.0027430">
        <ele>824.4</ele>
        <time>2021-10-04T12:58:14Z</time>
      </trkpt>
      <trkpt lat="42.6841770" lon="-7.0029300">
        <ele>825.4</ele>
        <time>2021-10-04T12:58:20Z</time>
      </trkpt>
      <trkpt lat="42.6842420" lon="-7.0030450">
        <ele>826.6</ele>
        <time>2021-10-04T12:58:24Z</time>
      </trkpt>
      <trkpt lat="42.6843250" lon="-7.0031990">
        <ele>827.6</ele>
        <time>2021-10-04T12:58:29Z</time>
      </trkpt>
      <trkpt lat="42.6844140" lon="-7.0033910">
        <ele>828.8</ele>
        <time>2021-10-04T12:58:35Z</time>
      </trkpt>
      <trkpt lat="42.6844450" lon="-7.0034470">
        <ele>829.4</ele>
        <time>2021-10-04T12:58:37Z</time>
      </trkpt>
      <trkpt lat="42.6844800" lon="-7.0035020">
        <ele>830.2</ele>
        <time>2021-10-04T12:58:39Z</time>
      </trkpt>
      <trkpt lat="42.6845530" lon="-7.0036470">
        <ele>831.4</ele>
        <time>2021-10-04T12:58:44Z</time>
      </trkpt>
      <trkpt lat="42.6846200" lon="-7.0037700">
        <ele>832.6</ele>
        <time>2021-10-04T12:58:48Z</time>
      </trkpt>
      <trkpt lat="42.6846970" lon="-7.0039200">
        <ele>834.0</ele>
        <time>2021-10-04T12:58:53Z</time>
      </trkpt>
      <trkpt lat="42.6847640" lon="-7.0040410">
        <ele>835.0</ele>
        <time>2021-10-04T12:58:57Z</time>
      </trkpt>
      <trkpt lat="42.6848300" lon="-7.0041650">
        <ele>836.2</ele>
        <time>2021-10-04T12:59:01Z</time>
      </trkpt>
      <trkpt lat="42.6848960" lon="-7.0042800">
        <ele>837.4</ele>
        <time>2021-10-04T12:59:05Z</time>
      </trkpt>
      <trkpt lat="42.6849430" lon="-7.0043560">
        <ele>838.6</ele>
        <time>2021-10-04T12:59:08Z</time>
      </trkpt>
      <trkpt lat="42.6849900" lon="-7.0044660">
        <ele>839.8</ele>
        <time>2021-10-04T12:59:12Z</time>
      </trkpt>
      <trkpt lat="42.6850220" lon="-7.0045430">
        <ele>840.8</ele>
        <time>2021-10-04T12:59:15Z</time>
      </trkpt>
      <trkpt lat="42.6850670" lon="-7.0046500">
        <ele>842.0</ele>
        <time>2021-10-04T12:59:19Z</time>
      </trkpt>
      <trkpt lat="42.6851200" lon="-7.0047720">
        <ele>843.0</ele>
        <time>2021-10-04T12:59:23Z</time>
      </trkpt>
      <trkpt lat="42.6851840" lon="-7.0049090">
        <ele>844.2</ele>
        <time>2021-10-04T12:59:28Z</time>
      </trkpt>
      <trkpt lat="42.6852470" lon="-7.0050270">
        <ele>845.4</ele>
        <time>2021-10-04T12:59:32Z</time>
      </trkpt>
      <trkpt lat="42.6853010" lon="-7.0050980">
        <ele>846.6</ele>
        <time>2021-10-04T12:59:35Z</time>
      </trkpt>
      <trkpt lat="42.6853780" lon="-7.0051920">
        <ele>847.8</ele>
        <time>2021-10-04T12:59:39Z</time>
      </trkpt>
      <trkpt lat="42.6854740" lon="-7.0053020">
        <ele>849.0</ele>
        <time>2021-10-04T12:59:44Z</time>
      </trkpt>
      <trkpt lat="42.6855790" lon="-7.0054060">
        <ele>850.2</ele>
        <time>2021-10-04T12:59:49Z</time>
      </trkpt>
      <trkpt lat="42.6856460" lon="-7.0055090">
        <ele>851.2</ele>
        <time>2021-10-04T12:59:53Z</time>
      </trkpt>
      <trkpt lat="42.6856980" lon="-7.0055940">
        <ele>852.4</ele>
        <time>2021-10-04T12:59:56Z</time>
      </trkpt>
      <trkpt lat="42.6857610" lon="-7.0056840">
        <ele>853.6</ele>
        <time>2021-10-04T13:00:00Z</time>
      </trkpt>
      <trkpt lat="42.6858260" lon="-7.0057840">
        <ele>854.6</ele>
        <time>2021-10-04T13:00:04Z</time>
      </trkpt>
      <trkpt lat="42.6859000" lon="-7.0058900">
        <ele>855.6</ele>
        <time>2021-10-04T13:00:08Z</time>
      </trkpt>
      <trkpt lat="42.6859620" lon="-7.0060220">
        <ele>856.8</ele>
        <time>2021-10-04T13:00:12Z</time>
      </trkpt>
      <trkpt lat="42.6860500" lon="-7.0061810">
        <ele>857.8</ele>
        <time>2021-10-04T13:00:17Z</time>
      </trkpt>
      <trkpt lat="42.6861300" lon="-7.0063410">
        <ele>859.2</ele>
        <time>2021-10-04T13:00:22Z</time>
      </trkpt>
      <trkpt lat="42.6862190" lon="-7.0065120">
        <ele>860.2</ele>
        <time>2021-10-04T13:00:27Z</time>
      </trkpt>
      <trkpt lat="42.6863120" lon="-7.0067020">
        <ele>861.4</ele>
        <time>2021-10-04T13:00:32Z</time>
      </trkpt>
      <trkpt lat="42.6864030" lon="-7.0068390">
        <ele>862.4</ele>
        <time>2021-10-04T13:00:36Z</time>
      </trkpt>
      <trkpt lat="42.6865240" lon="-7.0069990">
        <ele>863.4</ele>
        <time>2021-10-04T13:00:41Z</time>
      </trkpt>
      <trkpt lat="42.6868440" lon="-7.0073640">
        <ele>864.6</ele>
        <time>2021-10-04T13:00:53Z</time>
      </trkpt>
      <trkpt lat="42.6869170" lon="-7.0074360">
        <ele>865.4</ele>
        <time>2021-10-04T13:00:55Z</time>
      </trkpt>
      <trkpt lat="42.6869520" lon="-7.0074680">
        <ele>865.8</ele>
        <time>2021-10-04T13:00:56Z</time>
      </trkpt>
      <trkpt lat="42.6870830" lon="-7.0075900">
        <ele>866.8</ele>
        <time>2021-10-04T13:01:00Z</time>
      </trkpt>
      <trkpt lat="42.6873270" lon="-7.0077650">
        <ele>868.2</ele>
        <time>2021-10-04T13:01:07Z</time>
      </trkpt>
      <trkpt lat="42.6874610" lon="-7.0078550">
        <ele>869.2</ele>
        <time>2021-10-04T13:01:11Z</time>
      </trkpt>
      <trkpt lat="42.6876420" lon="-7.0079730">
        <ele>870.4</ele>
        <time>2021-10-04T13:01:16Z</time>
      </trkpt>
      <trkpt lat="42.6878290" lon="-7.0080890">
        <ele>871.4</ele>
        <time>2021-10-04T13:01:21Z</time>
      </trkpt>
      <trkpt lat="42.6882640" lon="-7.0083520">
        <ele>872.8</ele>
        <time>2021-10-04T13:01:32Z</time>
      </trkpt>
      <trkpt lat="42.6883040" lon="-7.0083790">
        <ele>872.8</ele>
        <time>2021-10-04T13:01:33Z</time>
      </trkpt>
      <trkpt lat="42.6884750" lon="-7.0085150">
        <ele>873.0</ele>
        <time>2021-10-04T13:01:37Z</time>
      </trkpt>
      <trkpt lat="42.6887280" lon="-7.0087940">
        <ele>873.0</ele>
        <time>2021-10-04T13:01:42Z</time>
      </trkpt>
      <trkpt lat="42.6890020" lon="-7.0091070">
        <ele>871.6</ele>
        <time>2021-10-04T13:01:47Z</time>
      </trkpt>
      <trkpt lat="42.6891000" lon="-7.0092380">
        <ele>870.0</ele>
        <time>2021-10-04T13:01:49Z</time>
      </trkpt>
      <trkpt lat="42.6891960" lon="-7.0093640">
        <ele>868.4</ele>
        <time>2021-10-04T13:01:51Z</time>
      </trkpt>
      <trkpt lat="42.6896180" lon="-7.0098660">
        <ele>867.6</ele>
        <time>2021-10-04T13:02:00Z</time>
      </trkpt>
      <trkpt lat="42.6898820" lon="-7.0101330">
        <ele>870.0</ele>
        <time>2021-10-04T13:02:06Z</time>
      </trkpt>
      <trkpt lat="42.6899230" lon="-7.0103740">
        <ele>871.2</ele>
        <time>2021-10-04T13:02:10Z</time>
      </trkpt>
      <trkpt lat="42.6897260" lon="-7.0103950">
        <ele>872.2</ele>
        <time>2021-10-04T13:02:15Z</time>
      </trkpt>
      <trkpt lat="42.6896850" lon="-7.0103720">
        <ele>872.4</ele>
        <time>2021-10-04T13:02:16Z</time>
      </trkpt>
      <trkpt lat="42.6895640" lon="-7.0102940">
        <ele>873.6</ele>
        <time>2021-10-04T13:02:19Z</time>
      </trkpt>
      <trkpt lat="42.6894950" lon="-7.0102370">
        <ele>875.0</ele>
        <time>2021-10-04T13:02:21Z</time>
      </trkpt>
      <trkpt lat="42.6893850" lon="-7.0101750">
        <ele>876.2</ele>
        <time>2021-10-04T13:02:24Z</time>
      </trkpt>
      <trkpt lat="42.6892780" lon="-7.0101150">
        <ele>877.4</ele>
        <time>2021-10-04T13:02:27Z</time>
      </trkpt>
      <trkpt lat="42.6891730" lon="-7.0100560">
        <ele>878.6</ele>
        <time>2021-10-04T13:02:30Z</time>
      </trkpt>
      <trkpt lat="42.6890780" lon="-7.0099970">
        <ele>879.6</ele>
        <time>2021-10-04T13:02:33Z</time>
      </trkpt>
      <trkpt lat="42.6889460" lon="-7.0099400">
        <ele>881.0</ele>
        <time>2021-10-04T13:02:37Z</time>
      </trkpt>
      <trkpt lat="42.6888450" lon="-7.0099100">
        <ele>882.2</ele>
        <time>2021-10-04T13:02:40Z</time>
      </trkpt>
      <trkpt lat="42.6887440" lon="-7.0098600">
        <ele>883.4</ele>
        <time>2021-10-04T13:02:43Z</time>
      </trkpt>
      <trkpt lat="42.6886050" lon="-7.0097830">
        <ele>884.4</ele>
        <time>2021-10-04T13:02:47Z</time>
      </trkpt>
      <trkpt lat="42.6884390" lon="-7.0096860">
        <ele>885.4</ele>
        <time>2021-10-04T13:02:52Z</time>
      </trkpt>
      <trkpt lat="42.6882280" lon="-7.0095950">
        <ele>886.4</ele>
        <time>2021-10-04T13:02:59Z</time>
      </trkpt>
      <trkpt lat="42.6880060" lon="-7.0095910">
        <ele>887.6</ele>
        <time>2021-10-04T13:03:06Z</time>
      </trkpt>
      <trkpt lat="42.6877860" lon="-7.0096230">
        <ele>889.0</ele>
        <time>2021-10-04T13:03:13Z</time>
      </trkpt>
      <trkpt lat="42.6876710" lon="-7.0096320">
        <ele>890.0</ele>
        <time>2021-10-04T13:03:17Z</time>
      </trkpt>
      <trkpt lat="42.6875380" lon="-7.0096700">
        <ele>891.2</ele>
        <time>2021-10-04T13:03:22Z</time>
      </trkpt>
      <trkpt lat="42.6874380" lon="-7.0096650">
        <ele>892.4</ele>
        <time>2021-10-04T13:03:26Z</time>
      </trkpt>
      <trkpt lat="42.6873370" lon="-7.0096600">
        <ele>893.4</ele>
        <time>2021-10-04T13:03:30Z</time>
      </trkpt>
      <trkpt lat="42.6872430" lon="-7.0096730">
        <ele>894.8</ele>
        <time>2021-10-04T13:03:34Z</time>
      </trkpt>
      <trkpt lat="42.6871550" lon="-7.0096490">
        <ele>896.0</ele>
        <time>2021-10-04T13:03:38Z</time>
      </trkpt>
      <trkpt lat="42.6870650" lon="-7.0096320">
        <ele>897.2</ele>
        <time>2021-10-04T13:03:42Z</time>
      </trkpt>
      <trkpt lat="42.6869840" lon="-7.0096050">
        <ele>898.4</ele>
        <time>2021-10-04T13:03:46Z</time>
      </trkpt>
      <trkpt lat="42.6869180" lon="-7.0096080">
        <ele>899.4</ele>
        <time>2021-10-04T13:03:49Z</time>
      </trkpt>
      <trkpt lat="42.6868670" lon="-7.0095930">
        <ele>900.2</ele>
        <time>2021-10-04T13:03:51Z</time>
      </trkpt>
      <trkpt lat="42.6868420" lon="-7.0095950">
        <ele>900.6</ele>
        <time>2021-10-04T13:03:52Z</time>
      </trkpt>
      <trkpt lat="42.6867340" lon="-7.0096180">
        <ele>901.8</ele>
        <time>2021-10-04T13:03:57Z</time>
      </trkpt>
      <trkpt lat="42.6866280" lon="-7.0096100">
        <ele>902.8</ele>
        <time>2021-10-04T13:04:01Z</time>
      </trkpt>
      <trkpt lat="42.6865930" lon="-7.0096230">
        <ele>903.6</ele>
        <time>2021-10-04T13:04:03Z</time>
      </trkpt>
      <trkpt lat="42.6865500" lon="-7.0096380">
        <ele>904.0</ele>
        <time>2021-10-04T13:04:05Z</time>
      </trkpt>
      <trkpt lat="42.6864190" lon="-7.0096350">
        <ele>905.2</ele>
        <time>2021-10-04T13:04:10Z</time>
      </trkpt>
      <trkpt lat="42.6863360" lon="-7.0096450">
        <ele>906.4</ele>
        <time>2021-10-04T13:04:13Z</time>
      </trkpt>
      <trkpt lat="42.6863150" lon="-7.0096490">
        <ele>906.8</ele>
        <time>2021-10-04T13:04:14Z</time>
      </trkpt>
      <trkpt lat="42.6862070" lon="-7.0096370">
        <ele>907.8</ele>
        <time>2021-10-04T13:04:18Z</time>
      </trkpt>
      <trkpt lat="42.6860850" lon="-7.0096100">
        <ele>909.2</ele>
        <time>2021-10-04T13:04:23Z</time>
      </trkpt>
      <trkpt lat="42.6859490" lon="-7.0095630">
        <ele>910.4</ele>
        <time>2021-10-04T13:04:29Z</time>
      </trkpt>
      <trkpt lat="42.6858360" lon="-7.0094920">
        <ele>911.6</ele>
        <time>2021-10-04T13:04:34Z</time>
      </trkpt>
      <trkpt lat="42.6857560" lon="-7.0094410">
        <ele>912.8</ele>
        <time>2021-10-04T13:04:38Z</time>
      </trkpt>
      <trkpt lat="42.6856460" lon="-7.0094060">
        <ele>914.0</ele>
        <time>2021-10-04T13:04:43Z</time>
      </trkpt>
      <trkpt lat="42.6855050" lon="-7.0093600">
        <ele>915.2</ele>
        <time>2021-10-04T13:04:48Z</time>
      </trkpt>
      <trkpt lat="42.6854010" lon="-7.0093680">
        <ele>916.2</ele>
        <time>2021-10-04T13:04:52Z</time>
      </trkpt>
      <trkpt lat="42.6852670" lon="-7.0093930">
        <ele>917.8</ele>
        <time>2021-10-04T13:04:57Z</time>
      </trkpt>
      <trkpt lat="42.6851470" lon="-7.0094700">
        <ele>919.2</ele>
        <time>2021-10-04T13:05:02Z</time>
      </trkpt>
      <trkpt lat="42.6850700" lon="-7.0096570">
        <ele>920.2</ele>
        <time>2021-10-04T13:05:07Z</time>
      </trkpt>
      <trkpt lat="42.6852230" lon="-7.0098860">
        <ele>920.2</ele>
        <time>2021-10-04T13:05:13Z</time>
      </trkpt>
      <trkpt lat="42.6856040" lon="-7.0102460">
        <ele>921.2</ele>
        <time>2021-10-04T13:05:26Z</time>
      </trkpt>
      <trkpt lat="42.6857240" lon="-7.0103900">
        <ele>922.2</ele>
        <time>2021-10-04T13:05:31Z</time>
      </trkpt>
      <trkpt lat="42.6859330" lon="-7.0105080">
        <ele>923.4</ele>
        <time>2021-10-04T13:05:38Z</time>
      </trkpt>
      <trkpt lat="42.6860630" lon="-7.0106170">
        <ele>924.2</ele>
        <time>2021-10-04T13:05:43Z</time>
      </trkpt>
      <trkpt lat="42.6861170" lon="-7.0106500">
        <ele>924.6</ele>
        <time>2021-10-04T13:05:45Z</time>
      </trkpt>
      <trkpt lat="42.6862010" lon="-7.0106830">
        <ele>925.8</ele>
        <time>2021-10-04T13:05:48Z</time>
      </trkpt>
      <trkpt lat="42.6862460" lon="-7.0106960">
        <ele>926.8</ele>
        <time>2021-10-04T13:05:50Z</time>
      </trkpt>
      <trkpt lat="42.6863200" lon="-7.0107100">
        <ele>927.8</ele>
        <time>2021-10-04T13:05:53Z</time>
      </trkpt>
      <trkpt lat="42.6864190" lon="-7.0107860">
        <ele>929.0</ele>
        <time>2021-10-04T13:05:58Z</time>
      </trkpt>
      <trkpt lat="42.6864490" lon="-7.0108200">
        <ele>930.2</ele>
        <time>2021-10-04T13:06:00Z</time>
      </trkpt>
      <trkpt lat="42.6865210" lon="-7.0109560">
        <ele>931.4</ele>
        <time>2021-10-04T13:06:06Z</time>
      </trkpt>
      <trkpt lat="42.6865730" lon="-7.0110190">
        <ele>932.6</ele>
        <time>2021-10-04T13:06:11Z</time>
      </trkpt>
      <trkpt lat="42.6866090" lon="-7.0110610">
        <ele>933.8</ele>
        <time>2021-10-04T13:06:14Z</time>
      </trkpt>
      <trkpt lat="42.6866380" lon="-7.0110970">
        <ele>934.8</ele>
        <time>2021-10-04T13:06:17Z</time>
      </trkpt>
      <trkpt lat="42.6866450" lon="-7.0111170">
        <ele>935.2</ele>
        <time>2021-10-04T13:06:18Z</time>
      </trkpt>
      <trkpt lat="42.6866830" lon="-7.0111620">
        <ele>936.2</ele>
        <time>2021-10-04T13:06:22Z</time>
      </trkpt>
      <trkpt lat="42.6867210" lon="-7.0112390">
        <ele>937.4</ele>
        <time>2021-10-04T13:06:27Z</time>
      </trkpt>
      <trkpt lat="42.6867520" lon="-7.0112750">
        <ele>938.4</ele>
        <time>2021-10-04T13:06:30Z</time>
      </trkpt>
      <trkpt lat="42.6867640" lon="-7.0112850">
        <ele>938.6</ele>
        <time>2021-10-04T13:06:31Z</time>
      </trkpt>
      <trkpt lat="42.6867720" lon="-7.0112930">
        <ele>938.8</ele>
        <time>2021-10-04T13:06:32Z</time>
      </trkpt>
      <trkpt lat="42.6867750" lon="-7.0112980">
        <ele>939.4</ele>
        <time>2021-10-04T13:06:34Z</time>
      </trkpt>
      <trkpt lat="42.6868410" lon="-7.0114490">
        <ele>944.8</ele>
        <time>2021-10-04T13:07:23Z</time>
      </trkpt>
      <trkpt lat="42.6868450" lon="-7.0114750">
        <ele>944.8</ele>
        <time>2021-10-04T13:07:24Z</time>
      </trkpt>
      <trkpt lat="42.6868490" lon="-7.0116550">
        <ele>945.6</ele>
        <time>2021-10-04T13:07:30Z</time>
      </trkpt>
      <trkpt lat="42.6868420" lon="-7.0116750">
        <ele>946.0</ele>
        <time>2021-10-04T13:07:31Z</time>
      </trkpt>
      <trkpt lat="42.6868220" lon="-7.0117210">
        <ele>947.0</ele>
        <time>2021-10-04T13:07:33Z</time>
      </trkpt>
      <trkpt lat="42.6868020" lon="-7.0117980">
        <ele>948.2</ele>
        <time>2021-10-04T13:07:36Z</time>
      </trkpt>
      <trkpt lat="42.6867860" lon="-7.0118850">
        <ele>949.4</ele>
        <time>2021-10-04T13:07:39Z</time>
      </trkpt>
      <trkpt lat="42.6867450" lon="-7.0120250">
        <ele>950.6</ele>
        <time>2021-10-04T13:07:43Z</time>
      </trkpt>
      <trkpt lat="42.6866800" lon="-7.0121780">
        <ele>952.4</ele>
        <time>2021-10-04T13:07:48Z</time>
      </trkpt>
      <trkpt lat="42.6866490" lon="-7.0122420">
        <ele>953.4</ele>
        <time>2021-10-04T13:07:51Z</time>
      </trkpt>
      <trkpt lat="42.6866350" lon="-7.0122650">
        <ele>953.8</ele>
        <time>2021-10-04T13:07:52Z</time>
      </trkpt>
      <trkpt lat="42.6866110" lon="-7.0122940">
        <ele>954.4</ele>
        <time>2021-10-04T13:07:54Z</time>
      </trkpt>
      <trkpt lat="42.6865970" lon="-7.0123090">
        <ele>954.6</ele>
        <time>2021-10-04T13:07:55Z</time>
      </trkpt>
      <trkpt lat="42.6865800" lon="-7.0123910">
        <ele>955.8</ele>
        <time>2021-10-04T13:07:59Z</time>
      </trkpt>
      <trkpt lat="42.6866060" lon="-7.0124680">
        <ele>956.8</ele>
        <time>2021-10-04T13:08:03Z</time>
      </trkpt>
      <trkpt lat="42.6866150" lon="-7.0124810">
        <ele>957.2</ele>
        <time>2021-10-04T13:08:04Z</time>
      </trkpt>
      <trkpt lat="42.6866490" lon="-7.0125180">
        <ele>958.0</ele>
        <time>2021-10-04T13:08:07Z</time>
      </trkpt>
      <trkpt lat="42.6866830" lon="-7.0125820">
        <ele>959.2</ele>
        <time>2021-10-04T13:08:11Z</time>
      </trkpt>
      <trkpt lat="42.6867100" lon="-7.0126390">
        <ele>960.4</ele>
        <time>2021-10-04T13:08:14Z</time>
      </trkpt>
      <trkpt lat="42.6867500" lon="-7.0126970">
        <ele>961.6</ele>
        <time>2021-10-04T13:08:18Z</time>
      </trkpt>
      <trkpt lat="42.6868020" lon="-7.0127770">
        <ele>963.2</ele>
        <time>2021-10-04T13:08:23Z</time>
      </trkpt>
      <trkpt lat="42.6868610" lon="-7.0128560">
        <ele>964.4</ele>
        <time>2021-10-04T13:08:28Z</time>
      </trkpt>
      <trkpt lat="42.6869170" lon="-7.0129080">
        <ele>965.6</ele>
        <time>2021-10-04T13:08:32Z</time>
      </trkpt>
      <trkpt lat="42.6870390" lon="-7.0129930">
        <ele>966.8</ele>
        <time>2021-10-04T13:08:40Z</time>
      </trkpt>
      <trkpt lat="42.6871550" lon="-7.0130450">
        <ele>968.0</ele>
        <time>2021-10-04T13:08:47Z</time>
      </trkpt>
      <trkpt lat="42.6872300" lon="-7.0130530">
        <ele>969.2</ele>
        <time>2021-10-04T13:08:51Z</time>
      </trkpt>
      <trkpt lat="42.6873850" lon="-7.0130240">
        <ele>970.4</ele>
        <time>2021-10-04T13:08:59Z</time>
      </trkpt>
      <trkpt lat="42.6874910" lon="-7.0128940">
        <ele>971.4</ele>
        <time>2021-10-04T13:09:06Z</time>
      </trkpt>
      <trkpt lat="42.6875970" lon="-7.0127760">
        <ele>972.4</ele>
        <time>2021-10-04T13:09:12Z</time>
      </trkpt>
      <trkpt lat="42.6877660" lon="-7.0126820">
        <ele>973.4</ele>
        <time>2021-10-04T13:09:18Z</time>
      </trkpt>
      <trkpt lat="42.6880390" lon="-7.0126440">
        <ele>973.8</ele>
        <time>2021-10-04T13:09:27Z</time>
      </trkpt>
      <trkpt lat="42.6882550" lon="-7.0127330">
        <ele>974.4</ele>
        <time>2021-10-04T13:09:35Z</time>
      </trkpt>
      <trkpt lat="42.6883500" lon="-7.0127620">
        <ele>975.6</ele>
        <time>2021-10-04T13:09:39Z</time>
      </trkpt>
      <trkpt lat="42.6884620" lon="-7.0127970">
        <ele>976.8</ele>
        <time>2021-10-04T13:09:44Z</time>
      </trkpt>
      <trkpt lat="42.6885620" lon="-7.0128250">
        <ele>978.0</ele>
        <time>2021-10-04T13:09:48Z</time>
      </trkpt>
      <trkpt lat="42.6886820" lon="-7.0128460">
        <ele>979.0</ele>
        <time>2021-10-04T13:09:53Z</time>
      </trkpt>
      <trkpt lat="42.6888220" lon="-7.0128780">
        <ele>980.4</ele>
        <time>2021-10-04T13:10:00Z</time>
      </trkpt>
      <trkpt lat="42.6889190" lon="-7.0129020">
        <ele>981.8</ele>
        <time>2021-10-04T13:10:05Z</time>
      </trkpt>
      <trkpt lat="42.6889950" lon="-7.0129370">
        <ele>982.8</ele>
        <time>2021-10-04T13:10:09Z</time>
      </trkpt>
      <trkpt lat="42.6890800" lon="-7.0129940">
        <ele>983.8</ele>
        <time>2021-10-04T13:10:14Z</time>
      </trkpt>
      <trkpt lat="42.6891740" lon="-7.0130790">
        <ele>985.0</ele>
        <time>2021-10-04T13:10:20Z</time>
      </trkpt>
      <trkpt lat="42.6892100" lon="-7.0131630">
        <ele>986.0</ele>
        <time>2021-10-04T13:10:24Z</time>
      </trkpt>
      <trkpt lat="42.6892380" lon="-7.0132790">
        <ele>987.0</ele>
        <time>2021-10-04T13:10:29Z</time>
      </trkpt>
      <trkpt lat="42.6892720" lon="-7.0134190">
        <ele>988.2</ele>
        <time>2021-10-04T13:10:35Z</time>
      </trkpt>
      <trkpt lat="42.6892970" lon="-7.0135000">
        <ele>989.4</ele>
        <time>2021-10-04T13:10:39Z</time>
      </trkpt>
      <trkpt lat="42.6893100" lon="-7.0135370">
        <ele>990.6</ele>
        <time>2021-10-04T13:10:41Z</time>
      </trkpt>
      <trkpt lat="42.6893260" lon="-7.0135740">
        <ele>991.6</ele>
        <time>2021-10-04T13:10:43Z</time>
      </trkpt>
      <trkpt lat="42.6893500" lon="-7.0136250">
        <ele>993.0</ele>
        <time>2021-10-04T13:10:46Z</time>
      </trkpt>
      <trkpt lat="42.6893970" lon="-7.0137370">
        <ele>994.0</ele>
        <time>2021-10-04T13:10:52Z</time>
      </trkpt>
      <trkpt lat="42.6895030" lon="-7.0139260">
        <ele>995.2</ele>
        <time>2021-10-04T13:11:02Z</time>
      </trkpt>
      <trkpt lat="42.6895490" lon="-7.0140360">
        <ele>996.2</ele>
        <time>2021-10-04T13:11:08Z</time>
      </trkpt>
      <trkpt lat="42.6895830" lon="-7.0141050">
        <ele>997.4</ele>
        <time>2021-10-04T13:11:12Z</time>
      </trkpt>
      <trkpt lat="42.6896190" lon="-7.0141750">
        <ele>998.6</ele>
        <time>2021-10-04T13:11:16Z</time>
      </trkpt>
      <trkpt lat="42.6896600" lon="-7.0142320">
        <ele>999.8</ele>
        <time>2021-10-04T13:11:20Z</time>
      </trkpt>
      <trkpt lat="42.6896630" lon="-7.0142310">
        <ele>1000.6</ele>
        <time>2021-10-04T13:11:22Z</time>
      </trkpt>
      <trkpt lat="42.6897400" lon="-7.0143900">
        <ele>1004.6</ele>
        <time>2021-10-04T13:11:51Z</time>
      </trkpt>
      <trkpt lat="42.6898080" lon="-7.0145370">
        <ele>1005.6</ele>
        <time>2021-10-04T13:11:59Z</time>
      </trkpt>
      <trkpt lat="42.6898150" lon="-7.0145570">
        <ele>1005.8</ele>
        <time>2021-10-04T13:12:00Z</time>
      </trkpt>
      <trkpt lat="42.6898560" lon="-7.0146390">
        <ele>1006.4</ele>
        <time>2021-10-04T13:12:04Z</time>
      </trkpt>
      <trkpt lat="42.6898800" lon="-7.0146730">
        <ele>1006.8</ele>
        <time>2021-10-04T13:12:06Z</time>
      </trkpt>
      <trkpt lat="42.6899630" lon="-7.0147870">
        <ele>1007.8</ele>
        <time>2021-10-04T13:12:12Z</time>
      </trkpt>
      <trkpt lat="42.6900340" lon="-7.0148680">
        <ele>1009.0</ele>
        <time>2021-10-04T13:12:17Z</time>
      </trkpt>
      <trkpt lat="42.6901010" lon="-7.0149140">
        <ele>1010.0</ele>
        <time>2021-10-04T13:12:21Z</time>
      </trkpt>
      <trkpt lat="42.6901480" lon="-7.0149510">
        <ele>1011.0</ele>
        <time>2021-10-04T13:12:24Z</time>
      </trkpt>
      <trkpt lat="42.6901660" lon="-7.0149540">
        <ele>1011.2</ele>
        <time>2021-10-04T13:12:25Z</time>
      </trkpt>
      <trkpt lat="42.6902320" lon="-7.0149680">
        <ele>1012.2</ele>
        <time>2021-10-04T13:12:29Z</time>
      </trkpt>
      <trkpt lat="42.6902920" lon="-7.0150010">
        <ele>1012.8</ele>
        <time>2021-10-04T13:12:33Z</time>
      </trkpt>
      <trkpt lat="42.6903170" lon="-7.0150270">
        <ele>1013.2</ele>
        <time>2021-10-04T13:12:35Z</time>
      </trkpt>
      <trkpt lat="42.6903990" lon="-7.0150340">
        <ele>1014.4</ele>
        <time>2021-10-04T13:12:40Z</time>
      </trkpt>
      <trkpt lat="42.6904710" lon="-7.0150390">
        <ele>1015.6</ele>
        <time>2021-10-04T13:12:44Z</time>
      </trkpt>
      <trkpt lat="42.6905620" lon="-7.0150540">
        <ele>1016.4</ele>
        <time>2021-10-04T13:12:49Z</time>
      </trkpt>
      <trkpt lat="42.6907310" lon="-7.0150740">
        <ele>1017.6</ele>
        <time>2021-10-04T13:12:58Z</time>
      </trkpt>
      <trkpt lat="42.6908310" lon="-7.0150960">
        <ele>1018.8</ele>
        <time>2021-10-04T13:13:03Z</time>
      </trkpt>
      <trkpt lat="42.6909040" lon="-7.0151030">
        <ele>1019.8</ele>
        <time>2021-10-04T13:13:07Z</time>
      </trkpt>
      <trkpt lat="42.6909570" lon="-7.0150940">
        <ele>1020.8</ele>
        <time>2021-10-04T13:13:10Z</time>
      </trkpt>
      <trkpt lat="42.6910280" lon="-7.0151060">
        <ele>1021.8</ele>
        <time>2021-10-04T13:13:14Z</time>
      </trkpt>
      <trkpt lat="42.6911150" lon="-7.0151280">
        <ele>1023.2</ele>
        <time>2021-10-04T13:13:19Z</time>
      </trkpt>
      <trkpt lat="42.6912150" lon="-7.0151610">
        <ele>1024.4</ele>
        <time>2021-10-04T13:13:25Z</time>
      </trkpt>
      <trkpt lat="42.6912930" lon="-7.0151770">
        <ele>1025.4</ele>
        <time>2021-10-04T13:13:30Z</time>
      </trkpt>
      <trkpt lat="42.6913370" lon="-7.0151940">
        <ele>1026.4</ele>
        <time>2021-10-04T13:13:33Z</time>
      </trkpt>
      <trkpt lat="42.6914170" lon="-7.0152190">
        <ele>1027.6</ele>
        <time>2021-10-04T13:13:38Z</time>
      </trkpt>
      <trkpt lat="42.6914670" lon="-7.0152380">
        <ele>1028.6</ele>
        <time>2021-10-04T13:13:41Z</time>
      </trkpt>
      <trkpt lat="42.6915320" lon="-7.0152550">
        <ele>1029.6</ele>
        <time>2021-10-04T13:13:45Z</time>
      </trkpt>
      <trkpt lat="42.6916180" lon="-7.0152770">
        <ele>1030.8</ele>
        <time>2021-10-04T13:13:50Z</time>
      </trkpt>
      <trkpt lat="42.6916950" lon="-7.0153070">
        <ele>1032.0</ele>
        <time>2021-10-04T13:13:55Z</time>
      </trkpt>
      <trkpt lat="42.6917070" lon="-7.0153170">
        <ele>1032.2</ele>
        <time>2021-10-04T13:13:56Z</time>
      </trkpt>
      <trkpt lat="42.6917930" lon="-7.0153780">
        <ele>1033.0</ele>
        <time>2021-10-04T13:14:03Z</time>
      </trkpt>
      <trkpt lat="42.6918570" lon="-7.0154220">
        <ele>1034.4</ele>
        <time>2021-10-04T13:14:08Z</time>
      </trkpt>
      <trkpt lat="42.6918770" lon="-7.0154300">
        <ele>1034.8</ele>
        <time>2021-10-04T13:14:10Z</time>
      </trkpt>
      <trkpt lat="42.6919260" lon="-7.0154680">
        <ele>1035.4</ele>
        <time>2021-10-04T13:14:14Z</time>
      </trkpt>
      <trkpt lat="42.6920120" lon="-7.0155260">
        <ele>1036.8</ele>
        <time>2021-10-04T13:14:20Z</time>
      </trkpt>
      <trkpt lat="42.6920660" lon="-7.0155560">
        <ele>1037.8</ele>
        <time>2021-10-04T13:14:23Z</time>
      </trkpt>
      <trkpt lat="42.6921280" lon="-7.0156180">
        <ele>1038.8</ele>
        <time>2021-10-04T13:14:28Z</time>
      </trkpt>
      <trkpt lat="42.6921770" lon="-7.0156840">
        <ele>1040.0</ele>
        <time>2021-10-04T13:14:32Z</time>
      </trkpt>
      <trkpt lat="42.6922130" lon="-7.0157580">
        <ele>1041.2</ele>
        <time>2021-10-04T13:14:36Z</time>
      </trkpt>
      <trkpt lat="42.6922630" lon="-7.0158940">
        <ele>1042.6</ele>
        <time>2021-10-04T13:14:42Z</time>
      </trkpt>
      <trkpt lat="42.6923100" lon="-7.0160300">
        <ele>1043.8</ele>
        <time>2021-10-04T13:14:48Z</time>
      </trkpt>
      <trkpt lat="42.6923570" lon="-7.0161650">
        <ele>1044.8</ele>
        <time>2021-10-04T13:14:54Z</time>
      </trkpt>
      <trkpt lat="42.6924060" lon="-7.0162700">
        <ele>1046.0</ele>
        <time>2021-10-04T13:14:59Z</time>
      </trkpt>
      <trkpt lat="42.6924450" lon="-7.0163520">
        <ele>1047.0</ele>
        <time>2021-10-04T13:15:03Z</time>
      </trkpt>
      <trkpt lat="42.6924740" lon="-7.0164110">
        <ele>1048.0</ele>
        <time>2021-10-04T13:15:06Z</time>
      </trkpt>
      <trkpt lat="42.6925030" lon="-7.0164690">
        <ele>1049.2</ele>
        <time>2021-10-04T13:15:09Z</time>
      </trkpt>
      <trkpt lat="42.6925290" lon="-7.0165290">
        <ele>1050.2</ele>
        <time>2021-10-04T13:15:12Z</time>
      </trkpt>
      <trkpt lat="42.6925530" lon="-7.0165910">
        <ele>1051.2</ele>
        <time>2021-10-04T13:15:15Z</time>
      </trkpt>
      <trkpt lat="42.6925670" lon="-7.0166340">
        <ele>1052.2</ele>
        <time>2021-10-04T13:15:17Z</time>
      </trkpt>
      <trkpt lat="42.6925860" lon="-7.0167000">
        <ele>1053.2</ele>
        <time>2021-10-04T13:15:20Z</time>
      </trkpt>
      <trkpt lat="42.6926360" lon="-7.0168550">
        <ele>1054.4</ele>
        <time>2021-10-04T13:15:26Z</time>
      </trkpt>
      <trkpt lat="42.6927480" lon="-7.0170690">
        <ele>1055.6</ele>
        <time>2021-10-04T13:15:34Z</time>
      </trkpt>
      <trkpt lat="42.6928920" lon="-7.0172760">
        <ele>1056.6</ele>
        <time>2021-10-04T13:15:42Z</time>
      </trkpt>
      <trkpt lat="42.6930100" lon="-7.0174530">
        <ele>1057.6</ele>
        <time>2021-10-04T13:15:48Z</time>
      </trkpt>
      <trkpt lat="42.6930920" lon="-7.0175630">
        <ele>1058.4</ele>
        <time>2021-10-04T13:15:52Z</time>
      </trkpt>
      <trkpt lat="42.6933170" lon="-7.0178010">
        <ele>1059.4</ele>
        <time>2021-10-04T13:16:02Z</time>
      </trkpt>
      <trkpt lat="42.6934820" lon="-7.0179470">
        <ele>1060.6</ele>
        <time>2021-10-04T13:16:09Z</time>
      </trkpt>
      <trkpt lat="42.6936500" lon="-7.0180570">
        <ele>1061.6</ele>
        <time>2021-10-04T13:16:16Z</time>
      </trkpt>
      <trkpt lat="42.6937500" lon="-7.0181230">
        <ele>1062.8</ele>
        <time>2021-10-04T13:16:20Z</time>
      </trkpt>
      <trkpt lat="42.6938600" lon="-7.0181530">
        <ele>1063.8</ele>
        <time>2021-10-04T13:16:24Z</time>
      </trkpt>
      <trkpt lat="42.6941100" lon="-7.0182260">
        <ele>1064.8</ele>
        <time>2021-10-04T13:16:32Z</time>
      </trkpt>
      <trkpt lat="42.6944030" lon="-7.0183320">
        <ele>1065.8</ele>
        <time>2021-10-04T13:16:41Z</time>
      </trkpt>
      <trkpt lat="42.6947190" lon="-7.0184660">
        <ele>1066.2</ele>
        <time>2021-10-04T13:16:49Z</time>
      </trkpt>
      <trkpt lat="42.6947670" lon="-7.0184940">
        <ele>1066.2</ele>
        <time>2021-10-04T13:16:50Z</time>
      </trkpt>
      <trkpt lat="42.6948660" lon="-7.0185520">
        <ele>1066.2</ele>
        <time>2021-10-04T13:16:52Z</time>
      </trkpt>
      <trkpt lat="42.6954230" lon="-7.0185640">
        <ele>1066.6</ele>
        <time>2021-10-04T13:17:06Z</time>
      </trkpt>
      <trkpt lat="42.6954540" lon="-7.0185480">
        <ele>1066.8</ele>
        <time>2021-10-04T13:17:07Z</time>
      </trkpt>
      <trkpt lat="42.6955390" lon="-7.0184960">
        <ele>1068.0</ele>
        <time>2021-10-04T13:17:10Z</time>
      </trkpt>
      <trkpt lat="42.6956050" lon="-7.0184870">
        <ele>1069.2</ele>
        <time>2021-10-04T13:17:13Z</time>
      </trkpt>
      <trkpt lat="42.6956620" lon="-7.0184770">
        <ele>1070.4</ele>
        <time>2021-10-04T13:17:16Z</time>
      </trkpt>
      <trkpt lat="42.6957160" lon="-7.0184650">
        <ele>1071.8</ele>
        <time>2021-10-04T13:17:19Z</time>
      </trkpt>
      <trkpt lat="42.6957690" lon="-7.0184590">
        <ele>1073.0</ele>
        <time>2021-10-04T13:17:22Z</time>
      </trkpt>
      <trkpt lat="42.6958410" lon="-7.0184580">
        <ele>1074.2</ele>
        <time>2021-10-04T13:17:26Z</time>
      </trkpt>
      <trkpt lat="42.6959210" lon="-7.0184580">
        <ele>1075.6</ele>
        <time>2021-10-04T13:17:30Z</time>
      </trkpt>
      <trkpt lat="42.6960060" lon="-7.0184560">
        <ele>1076.8</ele>
        <time>2021-10-04T13:17:34Z</time>
      </trkpt>
      <trkpt lat="42.6960810" lon="-7.0184670">
        <ele>1078.0</ele>
        <time>2021-10-04T13:17:38Z</time>
      </trkpt>
      <trkpt lat="42.6961740" lon="-7.0184550">
        <ele>1079.2</ele>
        <time>2021-10-04T13:17:43Z</time>
      </trkpt>
      <trkpt lat="42.6962670" lon="-7.0184380">
        <ele>1080.4</ele>
        <time>2021-10-04T13:17:48Z</time>
      </trkpt>
      <trkpt lat="42.6963360" lon="-7.0184440">
        <ele>1081.4</ele>
        <time>2021-10-04T13:17:52Z</time>
      </trkpt>
      <trkpt lat="42.6964230" lon="-7.0184470">
        <ele>1082.4</ele>
        <time>2021-10-04T13:17:57Z</time>
      </trkpt>
      <trkpt lat="42.6964880" lon="-7.0184760">
        <ele>1083.4</ele>
        <time>2021-10-04T13:18:02Z</time>
      </trkpt>
      <trkpt lat="42.6965480" lon="-7.0185390">
        <ele>1084.8</ele>
        <time>2021-10-04T13:18:07Z</time>
      </trkpt>
      <trkpt lat="42.6966150" lon="-7.0186040">
        <ele>1086.0</ele>
        <time>2021-10-04T13:18:12Z</time>
      </trkpt>
      <trkpt lat="42.6966760" lon="-7.0186710">
        <ele>1087.0</ele>
        <time>2021-10-04T13:18:17Z</time>
      </trkpt>
      <trkpt lat="42.6967150" lon="-7.0187070">
        <ele>1088.2</ele>
        <time>2021-10-04T13:18:20Z</time>
      </trkpt>
      <trkpt lat="42.6967560" lon="-7.0187480">
        <ele>1089.4</ele>
        <time>2021-10-04T13:18:23Z</time>
      </trkpt>
      <trkpt lat="42.6968120" lon="-7.0187930">
        <ele>1090.6</ele>
        <time>2021-10-04T13:18:27Z</time>
      </trkpt>
      <trkpt lat="42.6968670" lon="-7.0188230">
        <ele>1092.0</ele>
        <time>2021-10-04T13:18:31Z</time>
      </trkpt>
      <trkpt lat="42.6969370" lon="-7.0189130">
        <ele>1093.2</ele>
        <time>2021-10-04T13:18:37Z</time>
      </trkpt>
      <trkpt lat="42.6969850" lon="-7.0189790">
        <ele>1094.2</ele>
        <time>2021-10-04T13:18:41Z</time>
      </trkpt>
      <trkpt lat="42.6970510" lon="-7.0191020">
        <ele>1095.4</ele>
        <time>2021-10-04T13:18:48Z</time>
      </trkpt>
      <trkpt lat="42.6971030" lon="-7.0191950">
        <ele>1096.4</ele>
        <time>2021-10-04T13:18:53Z</time>
      </trkpt>
      <trkpt lat="42.6971800" lon="-7.0193270">
        <ele>1097.6</ele>
        <time>2021-10-04T13:19:00Z</time>
      </trkpt>
      <trkpt lat="42.6972450" lon="-7.0194100">
        <ele>1098.6</ele>
        <time>2021-10-04T13:19:05Z</time>
      </trkpt>
      <trkpt lat="42.6973080" lon="-7.0194740">
        <ele>1099.8</ele>
        <time>2021-10-04T13:19:09Z</time>
      </trkpt>
      <trkpt lat="42.6974090" lon="-7.0195570">
        <ele>1101.0</ele>
        <time>2021-10-04T13:19:15Z</time>
      </trkpt>
      <trkpt lat="42.6974900" lon="-7.0196330">
        <ele>1102.2</ele>
        <time>2021-10-04T13:19:20Z</time>
      </trkpt>
      <trkpt lat="42.6975660" lon="-7.0197240">
        <ele>1103.2</ele>
        <time>2021-10-04T13:19:25Z</time>
      </trkpt>
      <trkpt lat="42.6976620" lon="-7.0198390">
        <ele>1104.2</ele>
        <time>2021-10-04T13:19:31Z</time>
      </trkpt>
      <trkpt lat="42.6978050" lon="-7.0199030">
        <ele>1105.4</ele>
        <time>2021-10-04T13:19:38Z</time>
      </trkpt>
      <trkpt lat="42.6978510" lon="-7.0199430">
        <ele>1106.6</ele>
        <time>2021-10-04T13:19:41Z</time>
      </trkpt>
      <trkpt lat="42.6979320" lon="-7.0200190">
        <ele>1107.6</ele>
        <time>2021-10-04T13:19:47Z</time>
      </trkpt>
      <trkpt lat="42.6979820" lon="-7.0200400">
        <ele>1108.8</ele>
        <time>2021-10-04T13:19:50Z</time>
      </trkpt>
      <trkpt lat="42.6980390" lon="-7.0200560">
        <ele>1109.8</ele>
        <time>2021-10-04T13:19:53Z</time>
      </trkpt>
      <trkpt lat="42.6981530" lon="-7.0201070">
        <ele>1110.8</ele>
        <time>2021-10-04T13:20:00Z</time>
      </trkpt>
      <trkpt lat="42.6983220" lon="-7.0201190">
        <ele>1112.2</ele>
        <time>2021-10-04T13:20:09Z</time>
      </trkpt>
      <trkpt lat="42.6984640" lon="-7.0201040">
        <ele>1113.2</ele>
        <time>2021-10-04T13:20:17Z</time>
      </trkpt>
      <trkpt lat="42.6987110" lon="-7.0199970">
        <ele>1113.6</ele>
        <time>2021-10-04T13:20:31Z</time>
      </trkpt>
      <trkpt lat="42.6988620" lon="-7.0198960">
        <ele>1112.2</ele>
        <time>2021-10-04T13:20:41Z</time>
      </trkpt>
      <trkpt lat="42.6989560" lon="-7.0198290">
        <ele>1111.0</ele>
        <time>2021-10-04T13:20:47Z</time>
      </trkpt>
      <trkpt lat="42.6991060" lon="-7.0197870">
        <ele>1110.0</ele>
        <time>2021-10-04T13:20:56Z</time>
      </trkpt>
      <trkpt lat="42.6992250" lon="-7.0197960">
        <ele>1108.8</ele>
        <time>2021-10-04T13:21:04Z</time>
      </trkpt>
      <trkpt lat="42.6992390" lon="-7.0198010">
        <ele>1108.8</ele>
        <time>2021-10-04T13:21:05Z</time>
      </trkpt>
      <trkpt lat="42.6993390" lon="-7.0198500">
        <ele>1108.0</ele>
        <time>2021-10-04T13:21:13Z</time>
      </trkpt>
      <trkpt lat="42.6993520" lon="-7.0198490">
        <ele>1108.0</ele>
        <time>2021-10-04T13:21:16Z</time>
      </trkpt>
      <trkpt lat="42.6999620" lon="-7.0203940">
        <ele>1126.8</ele>
        <time>2021-10-04T13:23:40Z</time>
      </trkpt>
      <trkpt lat="42.6999780" lon="-7.0204010">
        <ele>1126.8</ele>
        <time>2021-10-04T13:23:41Z</time>
      </trkpt>
      <trkpt lat="42.7000910" lon="-7.0204590">
        <ele>1127.0</ele>
        <time>2021-10-04T13:23:47Z</time>
      </trkpt>
      <trkpt lat="42.7001660" lon="-7.0204930">
        <ele>1127.4</ele>
        <time>2021-10-04T13:23:51Z</time>
      </trkpt>
      <trkpt lat="42.7002300" lon="-7.0205450">
        <ele>1127.8</ele>
        <time>2021-10-04T13:23:55Z</time>
      </trkpt>
      <trkpt lat="42.7004520" lon="-7.0207280">
        <ele>1128.8</ele>
        <time>2021-10-04T13:24:08Z</time>
      </trkpt>
      <trkpt lat="42.7005570" lon="-7.0207960">
        <ele>1129.8</ele>
        <time>2021-10-04T13:24:14Z</time>
      </trkpt>
      <trkpt lat="42.7006680" lon="-7.0208720">
        <ele>1130.6</ele>
        <time>2021-10-04T13:24:21Z</time>
      </trkpt>
      <trkpt lat="42.7007950" lon="-7.0210090">
        <ele>1131.8</ele>
        <time>2021-10-04T13:24:31Z</time>
      </trkpt>
      <trkpt lat="42.7009230" lon="-7.0210720">
        <ele>1132.8</ele>
        <time>2021-10-04T13:24:39Z</time>
      </trkpt>
      <trkpt lat="42.7010420" lon="-7.0212060">
        <ele>1133.6</ele>
        <time>2021-10-04T13:24:47Z</time>
      </trkpt>
      <trkpt lat="42.7010630" lon="-7.0212430">
        <ele>1133.6</ele>
        <time>2021-10-04T13:24:49Z</time>
      </trkpt>
      <trkpt lat="42.7011100" lon="-7.0214430">
        <ele>1134.8</ele>
        <time>2021-10-04T13:24:56Z</time>
      </trkpt>
      <trkpt lat="42.7011570" lon="-7.0216190">
        <ele>1135.6</ele>
        <time>2021-10-04T13:25:02Z</time>
      </trkpt>
      <trkpt lat="42.7012390" lon="-7.0218370">
        <ele>1136.8</ele>
        <time>2021-10-04T13:25:10Z</time>
      </trkpt>
      <trkpt lat="42.7012760" lon="-7.0219650">
        <ele>1138.0</ele>
        <time>2021-10-04T13:25:14Z</time>
      </trkpt>
      <trkpt lat="42.7013710" lon="-7.0221210">
        <ele>1138.8</ele>
        <time>2021-10-04T13:25:20Z</time>
      </trkpt>
      <trkpt lat="42.7015230" lon="-7.0222510">
        <ele>1139.4</ele>
        <time>2021-10-04T13:25:27Z</time>
      </trkpt>
      <trkpt lat="42.7015610" lon="-7.0222960">
        <ele>1139.8</ele>
        <time>2021-10-04T13:25:29Z</time>
      </trkpt>
      <trkpt lat="42.7016490" lon="-7.0223820">
        <ele>1140.8</ele>
        <time>2021-10-04T13:25:33Z</time>
      </trkpt>
      <trkpt lat="42.7018180" lon="-7.0225230">
        <ele>1141.8</ele>
        <time>2021-10-04T13:25:40Z</time>
      </trkpt>
      <trkpt lat="42.7022660" lon="-7.0229280">
        <ele>1141.2</ele>
        <time>2021-10-04T13:26:00Z</time>
      </trkpt>
      <trkpt lat="42.7025660" lon="-7.0232540">
        <ele>1140.4</ele>
        <time>2021-10-04T13:26:11Z</time>
      </trkpt>
      <trkpt lat="42.7026250" lon="-7.0232990">
        <ele>1140.4</ele>
        <time>2021-10-04T13:26:13Z</time>
      </trkpt>
      <trkpt lat="42.7030620" lon="-7.0237440">
        <ele>1141.0</ele>
        <time>2021-10-04T13:26:31Z</time>
      </trkpt>
      <trkpt lat="42.7031200" lon="-7.0237920">
        <ele>1141.2</ele>
        <time>2021-10-04T13:26:33Z</time>
      </trkpt>
      <trkpt lat="42.7033140" lon="-7.0239150">
        <ele>1142.2</ele>
        <time>2021-10-04T13:26:40Z</time>
      </trkpt>
      <trkpt lat="42.7034560" lon="-7.0240210">
        <ele>1143.2</ele>
        <time>2021-10-04T13:26:46Z</time>
      </trkpt>
      <trkpt lat="42.7036570" lon="-7.0241110">
        <ele>1144.2</ele>
        <time>2021-10-04T13:26:55Z</time>
      </trkpt>
      <trkpt lat="42.7038450" lon="-7.0242460">
        <ele>1145.0</ele>
        <time>2021-10-04T13:27:03Z</time>
      </trkpt>
      <trkpt lat="42.7040700" lon="-7.0245140">
        <ele>1146.0</ele>
        <time>2021-10-04T13:27:15Z</time>
      </trkpt>
      <trkpt lat="42.7043810" lon="-7.0248430">
        <ele>1149.2</ele>
        <time>2021-10-04T13:27:31Z</time>
      </trkpt>
      <trkpt lat="42.7043980" lon="-7.0248610">
        <ele>1151.6</ele>
        <time>2021-10-04T13:27:32Z</time>
      </trkpt>
      <trkpt lat="42.7044140" lon="-7.0248780">
        <ele>1153.0</ele>
        <time>2021-10-04T13:27:33Z</time>
      </trkpt>
      <trkpt lat="42.7044470" lon="-7.0249150">
        <ele>1154.2</ele>
        <time>2021-10-04T13:27:35Z</time>
      </trkpt>
      <trkpt lat="42.7047970" lon="-7.0253550">
        <ele>1154.6</ele>
        <time>2021-10-04T13:28:01Z</time>
      </trkpt>
      <trkpt lat="42.7049570" lon="-7.0255510">
        <ele>1154.2</ele>
        <time>2021-10-04T13:28:15Z</time>
      </trkpt>
      <trkpt lat="42.7051020" lon="-7.0257040">
        <ele>1157.2</ele>
        <time>2021-10-04T13:28:27Z</time>
      </trkpt>
      <trkpt lat="42.7051160" lon="-7.0257180">
        <ele>1170.2</ele>
        <time>2021-10-04T13:28:28Z</time>
      </trkpt>
      <trkpt lat="42.7051300" lon="-7.0257310">
        <ele>1180.6</ele>
        <time>2021-10-04T13:28:29Z</time>
      </trkpt>
      <trkpt lat="42.7051460" lon="-7.0257430">
        <ele>1187.0</ele>
        <time>2021-10-04T13:28:30Z</time>
      </trkpt>
      <trkpt lat="42.7051620" lon="-7.0257530">
        <ele>1190.4</ele>
        <time>2021-10-04T13:28:31Z</time>
      </trkpt>
      <trkpt lat="42.7051790" lon="-7.0257620">
        <ele>1192.6</ele>
        <time>2021-10-04T13:28:32Z</time>
      </trkpt>
      <trkpt lat="42.7051960" lon="-7.0257730">
        <ele>1193.8</ele>
        <time>2021-10-04T13:28:33Z</time>
      </trkpt>
      <trkpt lat="42.7052240" lon="-7.0258050">
        <ele>1194.8</ele>
        <time>2021-10-04T13:28:35Z</time>
      </trkpt>
      <trkpt lat="42.7052800" lon="-7.0258610">
        <ele>1195.8</ele>
        <time>2021-10-04T13:28:39Z</time>
      </trkpt>
      <trkpt lat="42.7053740" lon="-7.0259470">
        <ele>1197.2</ele>
        <time>2021-10-04T13:28:46Z</time>
      </trkpt>
      <trkpt lat="42.7054780" lon="-7.0260200">
        <ele>1198.2</ele>
        <time>2021-10-04T13:28:54Z</time>
      </trkpt>
      <trkpt lat="42.7055430" lon="-7.0260810">
        <ele>1199.2</ele>
        <time>2021-10-04T13:28:59Z</time>
      </trkpt>
      <trkpt lat="42.7055810" lon="-7.0261210">
        <ele>1200.6</ele>
        <time>2021-10-04T13:29:02Z</time>
      </trkpt>
      <trkpt lat="42.7056570" lon="-7.0262100">
        <ele>1201.6</ele>
        <time>2021-10-04T13:29:08Z</time>
      </trkpt>
      <trkpt lat="42.7057650" lon="-7.0263290">
        <ele>1202.6</ele>
        <time>2021-10-04T13:29:16Z</time>
      </trkpt>
      <trkpt lat="42.7058760" lon="-7.0264410">
        <ele>1203.8</ele>
        <time>2021-10-04T13:29:23Z</time>
      </trkpt>
      <trkpt lat="42.7059090" lon="-7.0265400">
        <ele>1205.2</ele>
        <time>2021-10-04T13:29:27Z</time>
      </trkpt>
      <trkpt lat="42.7058890" lon="-7.0266400">
        <ele>1206.2</ele>
        <time>2021-10-04T13:29:31Z</time>
      </trkpt>
      <trkpt lat="42.7058300" lon="-7.0271390">
        <ele>1207.4</ele>
        <time>2021-10-04T13:29:52Z</time>
      </trkpt>
      <trkpt lat="42.7058970" lon="-7.0276760">
        <ele>1208.2</ele>
        <time>2021-10-04T13:30:09Z</time>
      </trkpt>
      <trkpt lat="42.7059130" lon="-7.0277460">
        <ele>1208.4</ele>
        <time>2021-10-04T13:30:11Z</time>
      </trkpt>
      <trkpt lat="42.7059850" lon="-7.0280160">
        <ele>1209.4</ele>
        <time>2021-10-04T13:30:19Z</time>
      </trkpt>
      <trkpt lat="42.7060960" lon="-7.0283290">
        <ele>1210.4</ele>
        <time>2021-10-04T13:30:29Z</time>
      </trkpt>
      <trkpt lat="42.7062030" lon="-7.0286230">
        <ele>1211.4</ele>
        <time>2021-10-04T13:30:39Z</time>
      </trkpt>
      <trkpt lat="42.7063660" lon="-7.0289700">
        <ele>1212.6</ele>
        <time>2021-10-04T13:30:51Z</time>
      </trkpt>
      <trkpt lat="42.7064810" lon="-7.0292640">
        <ele>1213.2</ele>
        <time>2021-10-04T13:31:00Z</time>
      </trkpt>
      <trkpt lat="42.7065170" lon="-7.0293570">
        <ele>1213.4</ele>
        <time>2021-10-04T13:31:03Z</time>
      </trkpt>
      <trkpt lat="42.7066210" lon="-7.0296950">
        <ele>1214.4</ele>
        <time>2021-10-04T13:31:15Z</time>
      </trkpt>
      <trkpt lat="42.7065250" lon="-7.0298510">
        <ele>1215.4</ele>
        <time>2021-10-04T13:31:23Z</time>
      </trkpt>
      <trkpt lat="42.7064490" lon="-7.0299050">
        <ele>1215.6</ele>
        <time>2021-10-04T13:31:28Z</time>
      </trkpt>
      <trkpt lat="42.7063580" lon="-7.0299830">
        <ele>1216.0</ele>
        <time>2021-10-04T13:31:35Z</time>
      </trkpt>
      <trkpt lat="42.7062850" lon="-7.0300280">
        <ele>1216.4</ele>
        <time>2021-10-04T13:31:40Z</time>
      </trkpt>
      <trkpt lat="42.7059800" lon="-7.0303850">
        <ele>1217.2</ele>
        <time>2021-10-04T13:32:00Z</time>
      </trkpt>
      <trkpt lat="42.7058580" lon="-7.0305720">
        <ele>1217.4</ele>
        <time>2021-10-04T13:32:07Z</time>
      </trkpt>
      <trkpt lat="42.7057910" lon="-7.0307860">
        <ele>1218.2</ele>
        <time>2021-10-04T13:32:15Z</time>
      </trkpt>
      <trkpt lat="42.7058850" lon="-7.0312380">
        <ele>1218.8</ele>
        <time>2021-10-04T13:32:32Z</time>
      </trkpt>
      <trkpt lat="42.7061510" lon="-7.0318970">
        <ele>1219.6</ele>
        <time>2021-10-04T13:32:53Z</time>
      </trkpt>
      <trkpt lat="42.7065180" lon="-7.0323880">
        <ele>1220.6</ele>
        <time>2021-10-04T13:33:05Z</time>
      </trkpt>
      <trkpt lat="42.7066890" lon="-7.0325590">
        <ele>1225.8</ele>
        <time>2021-10-04T13:33:10Z</time>
      </trkpt>
      <trkpt lat="42.7067240" lon="-7.0325910">
        <ele>1232.4</ele>
        <time>2021-10-04T13:33:11Z</time>
      </trkpt>
      <trkpt lat="42.7067570" lon="-7.0326240">
        <ele>1236.4</ele>
        <time>2021-10-04T13:33:12Z</time>
      </trkpt>
      <trkpt lat="42.7067900" lon="-7.0326560">
        <ele>1238.8</ele>
        <time>2021-10-04T13:33:13Z</time>
      </trkpt>
      <trkpt lat="42.7068230" lon="-7.0326880">
        <ele>1243.0</ele>
        <time>2021-10-04T13:33:14Z</time>
      </trkpt>
      <trkpt lat="42.7068570" lon="-7.0327200">
        <ele>1246.2</ele>
        <time>2021-10-04T13:33:15Z</time>
      </trkpt>
      <trkpt lat="42.7068900" lon="-7.0327500">
        <ele>1248.0</ele>
        <time>2021-10-04T13:33:16Z</time>
      </trkpt>
      <trkpt lat="42.7069590" lon="-7.0328050">
        <ele>1249.4</ele>
        <time>2021-10-04T13:33:18Z</time>
      </trkpt>
      <trkpt lat="42.7071300" lon="-7.0329560">
        <ele>1250.6</ele>
        <time>2021-10-04T13:33:23Z</time>
      </trkpt>
      <trkpt lat="42.7073220" lon="-7.0332240">
        <ele>1251.8</ele>
        <time>2021-10-04T13:33:30Z</time>
      </trkpt>
      <trkpt lat="42.7074410" lon="-7.0334930">
        <ele>1252.8</ele>
        <time>2021-10-04T13:33:37Z</time>
      </trkpt>
      <trkpt lat="42.7075290" lon="-7.0336690">
        <ele>1253.8</ele>
        <time>2021-10-04T13:33:42Z</time>
      </trkpt>
      <trkpt lat="42.7076210" lon="-7.0338870">
        <ele>1255.0</ele>
        <time>2021-10-04T13:33:48Z</time>
      </trkpt>
      <trkpt lat="42.7076540" lon="-7.0341000">
        <ele>1256.0</ele>
        <time>2021-10-04T13:33:53Z</time>
      </trkpt>
      <trkpt lat="42.7077190" lon="-7.0343350">
        <ele>1257.2</ele>
        <time>2021-10-04T13:33:59Z</time>
      </trkpt>
      <trkpt lat="42.7077470" lon="-7.0344500">
        <ele>1258.2</ele>
        <time>2021-10-04T13:34:02Z</time>
      </trkpt>
      <trkpt lat="42.7077970" lon="-7.0346220">
        <ele>1259.2</ele>
        <time>2021-10-04T13:34:07Z</time>
      </trkpt>
      <trkpt lat="42.7078370" lon="-7.0347530">
        <ele>1260.6</ele>
        <time>2021-10-04T13:34:11Z</time>
      </trkpt>
      <trkpt lat="42.7078670" lon="-7.0348460">
        <ele>1261.8</ele>
        <time>2021-10-04T13:34:14Z</time>
      </trkpt>
      <trkpt lat="42.7079030" lon="-7.0349760">
        <ele>1263.0</ele>
        <time>2021-10-04T13:34:18Z</time>
      </trkpt>
      <trkpt lat="42.7079350" lon="-7.0351090">
        <ele>1264.2</ele>
        <time>2021-10-04T13:34:22Z</time>
      </trkpt>
      <trkpt lat="42.7079820" lon="-7.0353460">
        <ele>1265.2</ele>
        <time>2021-10-04T13:34:29Z</time>
      </trkpt>
      <trkpt lat="42.7079890" lon="-7.0355480">
        <ele>1266.4</ele>
        <time>2021-10-04T13:34:35Z</time>
      </trkpt>
      <trkpt lat="42.7079710" lon="-7.0357200">
        <ele>1267.8</ele>
        <time>2021-10-04T13:34:40Z</time>
      </trkpt>
      <trkpt lat="42.7079350" lon="-7.0358550">
        <ele>1268.8</ele>
        <time>2021-10-04T13:34:44Z</time>
      </trkpt>
      <trkpt lat="42.7078610" lon="-7.0360350">
        <ele>1269.8</ele>
        <time>2021-10-04T13:34:49Z</time>
      </trkpt>
      <trkpt lat="42.7077540" lon="-7.0362900">
        <ele>1271.0</ele>
        <time>2021-10-04T13:34:56Z</time>
      </trkpt>
      <trkpt lat="42.7076490" lon="-7.0364550">
        <ele>1272.2</ele>
        <time>2021-10-04T13:35:02Z</time>
      </trkpt>
      <trkpt lat="42.7075120" lon="-7.0365270">
        <ele>1273.4</ele>
        <time>2021-10-04T13:35:08Z</time>
      </trkpt>
      <trkpt lat="42.7074230" lon="-7.0365760">
        <ele>1274.4</ele>
        <time>2021-10-04T13:35:12Z</time>
      </trkpt>
      <trkpt lat="42.7073470" lon="-7.0366460">
        <ele>1275.8</ele>
        <time>2021-10-04T13:35:16Z</time>
      </trkpt>
      <trkpt lat="42.7073170" lon="-7.0366890">
        <ele>1277.0</ele>
        <time>2021-10-04T13:35:18Z</time>
      </trkpt>
      <trkpt lat="42.7072860" lon="-7.0367670">
        <ele>1278.0</ele>
        <time>2021-10-04T13:35:21Z</time>
      </trkpt>
      <trkpt lat="42.7072610" lon="-7.0368560">
        <ele>1279.4</ele>
        <time>2021-10-04T13:35:24Z</time>
      </trkpt>
      <trkpt lat="42.7072300" lon="-7.0370570">
        <ele>1280.4</ele>
        <time>2021-10-04T13:35:30Z</time>
      </trkpt>
      <trkpt lat="42.7072090" lon="-7.0374190">
        <ele>1280.4</ele>
        <time>2021-10-04T13:35:38Z</time>
      </trkpt>
      <trkpt lat="42.7072190" lon="-7.0381750">
        <ele>1280.8</ele>
        <time>2021-10-04T13:35:52Z</time>
      </trkpt>
      <trkpt lat="42.7072090" lon="-7.0383770">
        <ele>1281.4</ele>
        <time>2021-10-04T13:35:56Z</time>
      </trkpt>
      <trkpt lat="42.7072220" lon="-7.0386660">
        <ele>1282.6</ele>
        <time>2021-10-04T13:36:02Z</time>
      </trkpt>
      <trkpt lat="42.7072310" lon="-7.0387690">
        <ele>1283.6</ele>
        <time>2021-10-04T13:36:04Z</time>
      </trkpt>
      <trkpt lat="42.7072430" lon="-7.0389360">
        <ele>1284.8</ele>
        <time>2021-10-04T13:36:07Z</time>
      </trkpt>
      <trkpt lat="42.7072570" lon="-7.0390480">
        <ele>1285.4</ele>
        <time>2021-10-04T13:36:09Z</time>
      </trkpt>
      <trkpt lat="42.7073760" lon="-7.0395040">
        <ele>1285.8</ele>
        <time>2021-10-04T13:36:17Z</time>
      </trkpt>
      <trkpt lat="42.7074040" lon="-7.0396210">
        <ele>1286.2</ele>
        <time>2021-10-04T13:36:19Z</time>
      </trkpt>
      <trkpt lat="42.7075230" lon="-7.0399320">
        <ele>1286.8</ele>
        <time>2021-10-04T13:36:25Z</time>
      </trkpt>
      <trkpt lat="42.7075710" lon="-7.0400920">
        <ele>1287.0</ele>
        <time>2021-10-04T13:36:28Z</time>
      </trkpt>
      <trkpt lat="42.7075860" lon="-7.0401400">
        <ele>1287.2</ele>
        <time>2021-10-04T13:36:29Z</time>
      </trkpt>
      <trkpt lat="42.7076250" lon="-7.0403360">
        <ele>1288.0</ele>
        <time>2021-10-04T13:36:33Z</time>
      </trkpt>
      <trkpt lat="42.7076350" lon="-7.0403780">
        <ele>1288.2</ele>
        <time>2021-10-04T13:36:34Z</time>
      </trkpt>
      <trkpt lat="42.7076600" lon="-7.0404950">
        <ele>1289.4</ele>
        <time>2021-10-04T13:36:37Z</time>
      </trkpt>
      <trkpt lat="42.7076910" lon="-7.0406360">
        <ele>1290.4</ele>
        <time>2021-10-04T13:36:40Z</time>
      </trkpt>
      <trkpt lat="42.7077090" lon="-7.0408870">
        <ele>1291.4</ele>
        <time>2021-10-04T13:36:47Z</time>
      </trkpt>
      <trkpt lat="42.7077310" lon="-7.0411810">
        <ele>1292.6</ele>
        <time>2021-10-04T13:36:53Z</time>
      </trkpt>
      <trkpt lat="42.7077510" lon="-7.0415290">
        <ele>1293.6</ele>
        <time>2021-10-04T13:36:59Z</time>
      </trkpt>
      <trkpt lat="42.7077500" lon="-7.0417600">
        <ele>1294.8</ele>
        <time>2021-10-04T13:37:03Z</time>
      </trkpt>
      <trkpt lat="42.7077220" lon="-7.0421470">
        <ele>1296.0</ele>
        <time>2021-10-04T13:37:11Z</time>
      </trkpt>
      <trkpt lat="42.7077220" lon="-7.0423970">
        <ele>1297.0</ele>
        <time>2021-10-04T13:37:18Z</time>
      </trkpt>
      <trkpt lat="42.7076750" lon="-7.0425950">
        <ele>1298.2</ele>
        <time>2021-10-04T13:37:22Z</time>
      </trkpt>
      <trkpt lat="42.7075660" lon="-7.0428370">
        <ele>1298.2</ele>
        <time>2021-10-04T13:37:26Z</time>
      </trkpt>
      <trkpt lat="42.7075040" lon="-7.0429440">
        <ele>1298.2</ele>
        <time>2021-10-04T13:37:28Z</time>
      </trkpt>
      <trkpt lat="42.7074620" lon="-7.0430580">
        <ele>1298.0</ele>
        <time>2021-10-04T13:37:32Z</time>
      </trkpt>
      <trkpt lat="42.7074620" lon="-7.0430600">
        <ele>1297.8</ele>
        <time>2021-10-04T13:37:33Z</time>
      </trkpt>
      <trkpt lat="42.7074620" lon="-7.0431000">
        <ele>1297.0</ele>
        <time>2021-10-04T13:39:14Z</time>
      </trkpt>
      <trkpt lat="42.7074690" lon="-7.0431320">
        <ele>1297.0</ele>
        <time>2021-10-04T13:39:15Z</time>
      </trkpt>
      <trkpt lat="42.7075060" lon="-7.0432030">
        <ele>1297.0</ele>
        <time>2021-10-04T13:39:17Z</time>
      </trkpt>
      <trkpt lat="42.7075500" lon="-7.0432900">
        <ele>1297.0</ele>
        <time>2021-10-04T13:39:19Z</time>
      </trkpt>
      <trkpt lat="42.7075950" lon="-7.0433710">
        <ele>1296.2</ele>
        <time>2021-10-04T13:39:21Z</time>
      </trkpt>
      <trkpt lat="42.7076880" lon="-7.0435230">
        <ele>1295.8</ele>
        <time>2021-10-04T13:39:26Z</time>
      </trkpt>
      <trkpt lat="42.7077490" lon="-7.0440930">
        <ele>1310.6</ele>
        <time>2021-10-04T15:05:11Z</time>
      </trkpt>
      <trkpt lat="42.7077380" lon="-7.0441350">
        <ele>1310.6</ele>
        <time>2021-10-04T15:05:12Z</time>
      </trkpt>
      <trkpt lat="42.7076710" lon="-7.0443260">
        <ele>1309.6</ele>
        <time>2021-10-04T15:05:17Z</time>
      </trkpt>
      <trkpt lat="42.7076170" lon="-7.0443690">
        <ele>1308.6</ele>
        <time>2021-10-04T15:05:20Z</time>
      </trkpt>
      <trkpt lat="42.7076000" lon="-7.0443710">
        <ele>1308.4</ele>
        <time>2021-10-04T15:05:21Z</time>
      </trkpt>
      <trkpt lat="42.7074880" lon="-7.0443910">
        <ele>1308.0</ele>
        <time>2021-10-04T15:05:27Z</time>
      </trkpt>
      <trkpt lat="42.7074550" lon="-7.0444490">
        <ele>1308.0</ele>
        <time>2021-10-04T15:05:29Z</time>
      </trkpt>
      <trkpt lat="42.7074630" lon="-7.0445900">
        <ele>1307.8</ele>
        <time>2021-10-04T15:05:33Z</time>
      </trkpt>
      <trkpt lat="42.7074710" lon="-7.0446520">
        <ele>1307.4</ele>
        <time>2021-10-04T15:05:35Z</time>
      </trkpt>
      <trkpt lat="42.7076070" lon="-7.0447150">
        <ele>1306.4</ele>
        <time>2021-10-04T15:05:42Z</time>
      </trkpt>
      <trkpt lat="42.7076810" lon="-7.0447820">
        <ele>1306.2</ele>
        <time>2021-10-04T15:05:46Z</time>
      </trkpt>
      <trkpt lat="42.7077050" lon="-7.0448280">
        <ele>1306.0</ele>
        <time>2021-10-04T15:05:48Z</time>
      </trkpt>
      <trkpt lat="42.7077330" lon="-7.0449300">
        <ele>1306.0</ele>
        <time>2021-10-04T15:05:55Z</time>
      </trkpt>
      <trkpt lat="42.7077460" lon="-7.0449990">
        <ele>1306.0</ele>
        <time>2021-10-04T15:06:01Z</time>
      </trkpt>
      <trkpt lat="42.7077800" lon="-7.0451420">
        <ele>1306.0</ele>
        <time>2021-10-04T15:06:06Z</time>
      </trkpt>
      <trkpt lat="42.7078980" lon="-7.0455660">
        <ele>1305.6</ele>
        <time>2021-10-04T15:06:16Z</time>
      </trkpt>
      <trkpt lat="42.7079110" lon="-7.0456340">
        <ele>1305.2</ele>
        <time>2021-10-04T15:06:19Z</time>
      </trkpt>
      <trkpt lat="42.7079260" lon="-7.0456560">
        <ele>1304.6</ele>
        <time>2021-10-04T15:06:21Z</time>
      </trkpt>
      <trkpt lat="42.7079320" lon="-7.0456590">
        <ele>1304.2</ele>
        <time>2021-10-04T15:06:22Z</time>
      </trkpt>
      <trkpt lat="42.7079320" lon="-7.0456580">
        <ele>1303.8</ele>
        <time>2021-10-04T15:06:23Z</time>
      </trkpt>
      <trkpt lat="42.7079410" lon="-7.0457140">
        <ele>1302.6</ele>
        <time>2021-10-04T15:07:32Z</time>
      </trkpt>
      <trkpt lat="42.7079390" lon="-7.0457960">
        <ele>1302.2</ele>
        <time>2021-10-04T15:07:34Z</time>
      </trkpt>
      <trkpt lat="42.7079420" lon="-7.0458530">
        <ele>1302.0</ele>
        <time>2021-10-04T15:07:35Z</time>
      </trkpt>
      <trkpt lat="42.7080180" lon="-7.0462020">
        <ele>1301.4</ele>
        <time>2021-10-04T15:07:40Z</time>
      </trkpt>
      <trkpt lat="42.7080260" lon="-7.0462780">
        <ele>1301.2</ele>
        <time>2021-10-04T15:07:41Z</time>
      </trkpt>
      <trkpt lat="42.7080270" lon="-7.0464250">
        <ele>1299.8</ele>
        <time>2021-10-04T15:07:43Z</time>
      </trkpt>
      <trkpt lat="42.7080220" lon="-7.0465670">
        <ele>1298.2</ele>
        <time>2021-10-04T15:07:45Z</time>
      </trkpt>
      <trkpt lat="42.7080150" lon="-7.0467180">
        <ele>1296.8</ele>
        <time>2021-10-04T15:07:47Z</time>
      </trkpt>
      <trkpt lat="42.7080060" lon="-7.0467970">
        <ele>1295.8</ele>
        <time>2021-10-04T15:07:48Z</time>
      </trkpt>
      <trkpt lat="42.7079400" lon="-7.0471360">
        <ele>1295.0</ele>
        <time>2021-10-04T15:07:52Z</time>
      </trkpt>
      <trkpt lat="42.7079170" lon="-7.0472270">
        <ele>1294.6</ele>
        <time>2021-10-04T15:07:53Z</time>
      </trkpt>
      <trkpt lat="42.7078630" lon="-7.0474150">
        <ele>1294.2</ele>
        <time>2021-10-04T15:07:55Z</time>
      </trkpt>
      <trkpt lat="42.7077940" lon="-7.0476060">
        <ele>1293.4</ele>
        <time>2021-10-04T15:07:57Z</time>
      </trkpt>
      <trkpt lat="42.7077190" lon="-7.0478000">
        <ele>1292.0</ele>
        <time>2021-10-04T15:07:59Z</time>
      </trkpt>
      <trkpt lat="42.7075590" lon="-7.0481990">
        <ele>1290.8</ele>
        <time>2021-10-04T15:08:03Z</time>
      </trkpt>
      <trkpt lat="42.7074340" lon="-7.0485060">
        <ele>1289.8</ele>
        <time>2021-10-04T15:08:06Z</time>
      </trkpt>
      <trkpt lat="42.7073130" lon="-7.0488170">
        <ele>1288.0</ele>
        <time>2021-10-04T15:08:09Z</time>
      </trkpt>
      <trkpt lat="42.7072000" lon="-7.0491300">
        <ele>1287.2</ele>
        <time>2021-10-04T15:08:12Z</time>
      </trkpt>
      <trkpt lat="42.7071370" lon="-7.0493410">
        <ele>1287.0</ele>
        <time>2021-10-04T15:08:14Z</time>
      </trkpt>
      <trkpt lat="42.7070600" lon="-7.0496570">
        <ele>1286.4</ele>
        <time>2021-10-04T15:08:17Z</time>
      </trkpt>
      <trkpt lat="42.7070240" lon="-7.0498720">
        <ele>1286.0</ele>
        <time>2021-10-04T15:08:19Z</time>
      </trkpt>
      <trkpt lat="42.7070080" lon="-7.0499800">
        <ele>1285.8</ele>
        <time>2021-10-04T15:08:20Z</time>
      </trkpt>
      <trkpt lat="42.7069710" lon="-7.0501920">
        <ele>1284.4</ele>
        <time>2021-10-04T15:08:22Z</time>
      </trkpt>
      <trkpt lat="42.7069260" lon="-7.0503980">
        <ele>1283.6</ele>
        <time>2021-10-04T15:08:24Z</time>
      </trkpt>
      <trkpt lat="42.7068680" lon="-7.0505940">
        <ele>1283.4</ele>
        <time>2021-10-04T15:08:26Z</time>
      </trkpt>
      <trkpt lat="42.7066540" lon="-7.0510560">
        <ele>1283.2</ele>
        <time>2021-10-04T15:08:31Z</time>
      </trkpt>
      <trkpt lat="42.7063150" lon="-7.0514030">
        <ele>1283.2</ele>
        <time>2021-10-04T15:08:36Z</time>
      </trkpt>
      <trkpt lat="42.7059270" lon="-7.0516660">
        <ele>1282.6</ele>
        <time>2021-10-04T15:08:41Z</time>
      </trkpt>
      <trkpt lat="42.7057310" lon="-7.0519120">
        <ele>1282.2</ele>
        <time>2021-10-04T15:08:44Z</time>
      </trkpt>
      <trkpt lat="42.7056260" lon="-7.0521150">
        <ele>1281.6</ele>
        <time>2021-10-04T15:08:46Z</time>
      </trkpt>
      <trkpt lat="42.7055330" lon="-7.0523380">
        <ele>1280.8</ele>
        <time>2021-10-04T15:08:48Z</time>
      </trkpt>
      <trkpt lat="42.7054550" lon="-7.0525810">
        <ele>1279.6</ele>
        <time>2021-10-04T15:08:50Z</time>
      </trkpt>
      <trkpt lat="42.7053260" lon="-7.0531160">
        <ele>1278.0</ele>
        <time>2021-10-04T15:08:54Z</time>
      </trkpt>
      <trkpt lat="42.7052980" lon="-7.0532560">
        <ele>1276.4</ele>
        <time>2021-10-04T15:08:55Z</time>
      </trkpt>
      <trkpt lat="42.7052670" lon="-7.0533950">
        <ele>1275.6</ele>
        <time>2021-10-04T15:08:56Z</time>
      </trkpt>
      <trkpt lat="42.7052320" lon="-7.0535340">
        <ele>1275.2</ele>
        <time>2021-10-04T15:08:57Z</time>
      </trkpt>
      <trkpt lat="42.7051450" lon="-7.0538050">
        <ele>1274.0</ele>
        <time>2021-10-04T15:08:59Z</time>
      </trkpt>
      <trkpt lat="42.7050920" lon="-7.0539360">
        <ele>1273.2</ele>
        <time>2021-10-04T15:09:00Z</time>
      </trkpt>
      <trkpt lat="42.7050320" lon="-7.0540620">
        <ele>1272.4</ele>
        <time>2021-10-04T15:09:01Z</time>
      </trkpt>
      <trkpt lat="42.7049020" lon="-7.0543080">
        <ele>1270.4</ele>
        <time>2021-10-04T15:09:03Z</time>
      </trkpt>
      <trkpt lat="42.7048340" lon="-7.0544300">
        <ele>1269.4</ele>
        <time>2021-10-04T15:09:04Z</time>
      </trkpt>
      <trkpt lat="42.7046870" lon="-7.0546670">
        <ele>1267.2</ele>
        <time>2021-10-04T15:09:06Z</time>
      </trkpt>
      <trkpt lat="42.7046080" lon="-7.0547830">
        <ele>1266.2</ele>
        <time>2021-10-04T15:09:07Z</time>
      </trkpt>
      <trkpt lat="42.7044400" lon="-7.0550090">
        <ele>1264.6</ele>
        <time>2021-10-04T15:09:09Z</time>
      </trkpt>
      <trkpt lat="42.7042590" lon="-7.0552300">
        <ele>1263.2</ele>
        <time>2021-10-04T15:09:11Z</time>
      </trkpt>
      <trkpt lat="42.7039860" lon="-7.0555730">
        <ele>1262.2</ele>
        <time>2021-10-04T15:09:14Z</time>
      </trkpt>
      <trkpt lat="42.7038140" lon="-7.0558280">
        <ele>1261.8</ele>
        <time>2021-10-04T15:09:16Z</time>
      </trkpt>
      <trkpt lat="42.7036580" lon="-7.0561120">
        <ele>1260.4</ele>
        <time>2021-10-04T15:09:18Z</time>
      </trkpt>
      <trkpt lat="42.7035920" lon="-7.0562660">
        <ele>1259.2</ele>
        <time>2021-10-04T15:09:19Z</time>
      </trkpt>
      <trkpt lat="42.7035390" lon="-7.0564290">
        <ele>1258.0</ele>
        <time>2021-10-04T15:09:20Z</time>
      </trkpt>
      <trkpt lat="42.7034680" lon="-7.0567750">
        <ele>1256.2</ele>
        <time>2021-10-04T15:09:22Z</time>
      </trkpt>
      <trkpt lat="42.7034390" lon="-7.0571320">
        <ele>1254.8</ele>
        <time>2021-10-04T15:09:24Z</time>
      </trkpt>
      <trkpt lat="42.7034390" lon="-7.0573110">
        <ele>1253.8</ele>
        <time>2021-10-04T15:09:25Z</time>
      </trkpt>
      <trkpt lat="42.7034450" lon="-7.0574870">
        <ele>1252.4</ele>
        <time>2021-10-04T15:09:26Z</time>
      </trkpt>
      <trkpt lat="42.7034600" lon="-7.0576580">
        <ele>1251.2</ele>
        <time>2021-10-04T15:09:27Z</time>
      </trkpt>
      <trkpt lat="42.7034860" lon="-7.0578220">
        <ele>1249.6</ele>
        <time>2021-10-04T15:09:28Z</time>
      </trkpt>
      <trkpt lat="42.7035570" lon="-7.0581220">
        <ele>1248.8</ele>
        <time>2021-10-04T15:09:30Z</time>
      </trkpt>
      <trkpt lat="42.7035970" lon="-7.0582610">
        <ele>1248.6</ele>
        <time>2021-10-04T15:09:31Z</time>
      </trkpt>
      <trkpt lat="42.7036750" lon="-7.0585210">
        <ele>1248.6</ele>
        <time>2021-10-04T15:09:33Z</time>
      </trkpt>
      <trkpt lat="42.7037480" lon="-7.0587530">
        <ele>1248.6</ele>
        <time>2021-10-04T15:09:35Z</time>
      </trkpt>
      <trkpt lat="42.7038510" lon="-7.0590610">
        <ele>1248.6</ele>
        <time>2021-10-04T15:09:38Z</time>
      </trkpt>
      <trkpt lat="42.7039080" lon="-7.0592440">
        <ele>1248.8</ele>
        <time>2021-10-04T15:09:40Z</time>
      </trkpt>
      <trkpt lat="42.7039910" lon="-7.0594910">
        <ele>1250.4</ele>
        <time>2021-10-04T15:09:43Z</time>
      </trkpt>
      <trkpt lat="42.7040420" lon="-7.0596450">
        <ele>1252.0</ele>
        <time>2021-10-04T15:09:45Z</time>
      </trkpt>
      <trkpt lat="42.7040910" lon="-7.0597950">
        <ele>1253.8</ele>
        <time>2021-10-04T15:09:47Z</time>
      </trkpt>
      <trkpt lat="42.7041340" lon="-7.0599350">
        <ele>1255.6</ele>
        <time>2021-10-04T15:09:49Z</time>
      </trkpt>
      <trkpt lat="42.7041750" lon="-7.0600680">
        <ele>1256.8</ele>
        <time>2021-10-04T15:09:51Z</time>
      </trkpt>
      <trkpt lat="42.7042500" lon="-7.0603120">
        <ele>1258.0</ele>
        <time>2021-10-04T15:09:55Z</time>
      </trkpt>
      <trkpt lat="42.7042710" lon="-7.0603680">
        <ele>1258.2</ele>
        <time>2021-10-04T15:09:56Z</time>
      </trkpt>
      <trkpt lat="42.7043160" lon="-7.0604720">
        <ele>1259.4</ele>
        <time>2021-10-04T15:09:58Z</time>
      </trkpt>
      <trkpt lat="42.7043770" lon="-7.0606200">
        <ele>1260.6</ele>
        <time>2021-10-04T15:10:01Z</time>
      </trkpt>
      <trkpt lat="42.7044140" lon="-7.0607290">
        <ele>1261.6</ele>
        <time>2021-10-04T15:10:03Z</time>
      </trkpt>
      <trkpt lat="42.7045240" lon="-7.0609590">
        <ele>1262.8</ele>
        <time>2021-10-04T15:10:07Z</time>
      </trkpt>
      <trkpt lat="42.7046300" lon="-7.0611470">
        <ele>1263.2</ele>
        <time>2021-10-04T15:10:10Z</time>
      </trkpt>
      <trkpt lat="42.7047470" lon="-7.0613240">
        <ele>1263.2</ele>
        <time>2021-10-04T15:10:13Z</time>
      </trkpt>
      <trkpt lat="42.7048550" lon="-7.0614970">
        <ele>1263.6</ele>
        <time>2021-10-04T15:10:16Z</time>
      </trkpt>
      <trkpt lat="42.7049760" lon="-7.0617180">
        <ele>1263.8</ele>
        <time>2021-10-04T15:10:20Z</time>
      </trkpt>
      <trkpt lat="42.7049970" lon="-7.0617760">
        <ele>1264.0</ele>
        <time>2021-10-04T15:10:21Z</time>
      </trkpt>
      <trkpt lat="42.7051240" lon="-7.0625460">
        <ele>1264.6</ele>
        <time>2021-10-04T15:10:32Z</time>
      </trkpt>
      <trkpt lat="42.7049880" lon="-7.0632910">
        <ele>1264.4</ele>
        <time>2021-10-04T15:10:41Z</time>
      </trkpt>
      <trkpt lat="42.7048050" lon="-7.0639960">
        <ele>1263.6</ele>
        <time>2021-10-04T15:10:49Z</time>
      </trkpt>
      <trkpt lat="42.7047030" lon="-7.0644000">
        <ele>1263.0</ele>
        <time>2021-10-04T15:10:53Z</time>
      </trkpt>
      <trkpt lat="42.7045660" lon="-7.0649540">
        <ele>1262.2</ele>
        <time>2021-10-04T15:10:58Z</time>
      </trkpt>
      <trkpt lat="42.7045370" lon="-7.0650720">
        <ele>1261.6</ele>
        <time>2021-10-04T15:10:59Z</time>
      </trkpt>
      <trkpt lat="42.7044720" lon="-7.0653150">
        <ele>1260.4</ele>
        <time>2021-10-04T15:11:01Z</time>
      </trkpt>
      <trkpt lat="42.7044050" lon="-7.0655660">
        <ele>1259.0</ele>
        <time>2021-10-04T15:11:03Z</time>
      </trkpt>
      <trkpt lat="42.7043480" lon="-7.0658280">
        <ele>1258.4</ele>
        <time>2021-10-04T15:11:05Z</time>
      </trkpt>
      <trkpt lat="42.7043420" lon="-7.0661050">
        <ele>1257.8</ele>
        <time>2021-10-04T15:11:07Z</time>
      </trkpt>
      <trkpt lat="42.7044010" lon="-7.0663720">
        <ele>1255.8</ele>
        <time>2021-10-04T15:11:09Z</time>
      </trkpt>
      <trkpt lat="42.7044430" lon="-7.0665000">
        <ele>1254.8</ele>
        <time>2021-10-04T15:11:10Z</time>
      </trkpt>
      <trkpt lat="42.7044920" lon="-7.0666240">
        <ele>1253.6</ele>
        <time>2021-10-04T15:11:11Z</time>
      </trkpt>
      <trkpt lat="42.7045440" lon="-7.0667450">
        <ele>1253.4</ele>
        <time>2021-10-04T15:11:12Z</time>
      </trkpt>
      <trkpt lat="42.7046490" lon="-7.0669840">
        <ele>1252.2</ele>
        <time>2021-10-04T15:11:14Z</time>
      </trkpt>
      <trkpt lat="42.7047870" lon="-7.0673530">
        <ele>1251.6</ele>
        <time>2021-10-04T15:11:17Z</time>
      </trkpt>
      <trkpt lat="42.7048170" lon="-7.0674840">
        <ele>1251.2</ele>
        <time>2021-10-04T15:11:18Z</time>
      </trkpt>
      <trkpt lat="42.7048880" lon="-7.0680190">
        <ele>1250.4</ele>
        <time>2021-10-04T15:11:22Z</time>
      </trkpt>
      <trkpt lat="42.7049060" lon="-7.0682810">
        <ele>1250.0</ele>
        <time>2021-10-04T15:11:24Z</time>
      </trkpt>
      <trkpt lat="42.7049050" lon="-7.0685390">
        <ele>1249.8</ele>
        <time>2021-10-04T15:11:26Z</time>
      </trkpt>
      <trkpt lat="42.7047490" lon="-7.0692450">
        <ele>1249.0</ele>
        <time>2021-10-04T15:11:32Z</time>
      </trkpt>
      <trkpt lat="42.7046000" lon="-7.0695450">
        <ele>1247.6</ele>
        <time>2021-10-04T15:11:35Z</time>
      </trkpt>
      <trkpt lat="42.7045430" lon="-7.0696350">
        <ele>1247.2</ele>
        <time>2021-10-04T15:11:36Z</time>
      </trkpt>
      <trkpt lat="42.7040660" lon="-7.0701610">
        <ele>1246.6</ele>
        <time>2021-10-04T15:11:43Z</time>
      </trkpt>
      <trkpt lat="42.7036990" lon="-7.0704450">
        <ele>1245.6</ele>
        <time>2021-10-04T15:11:48Z</time>
      </trkpt>
      <trkpt lat="42.7035440" lon="-7.0705430">
        <ele>1244.2</ele>
        <time>2021-10-04T15:11:50Z</time>
      </trkpt>
      <trkpt lat="42.7032340" lon="-7.0707570">
        <ele>1243.4</ele>
        <time>2021-10-04T15:11:54Z</time>
      </trkpt>
      <trkpt lat="42.7027490" lon="-7.0710850">
        <ele>1243.2</ele>
        <time>2021-10-04T15:12:00Z</time>
      </trkpt>
      <trkpt lat="42.7022730" lon="-7.0714090">
        <ele>1243.2</ele>
        <time>2021-10-04T15:12:06Z</time>
      </trkpt>
      <trkpt lat="42.7021120" lon="-7.0715190">
        <ele>1243.2</ele>
        <time>2021-10-04T15:12:08Z</time>
      </trkpt>
      <trkpt lat="42.7017820" lon="-7.0717350">
        <ele>1242.2</ele>
        <time>2021-10-04T15:12:12Z</time>
      </trkpt>
      <trkpt lat="42.7013620" lon="-7.0720110">
        <ele>1241.2</ele>
        <time>2021-10-04T15:12:17Z</time>
      </trkpt>
      <trkpt lat="42.7008650" lon="-7.0723460">
        <ele>1239.8</ele>
        <time>2021-10-04T15:12:23Z</time>
      </trkpt>
      <trkpt lat="42.7006080" lon="-7.0725030">
        <ele>1238.0</ele>
        <time>2021-10-04T15:12:26Z</time>
      </trkpt>
      <trkpt lat="42.7004360" lon="-7.0726070">
        <ele>1237.0</ele>
        <time>2021-10-04T15:12:28Z</time>
      </trkpt>
      <trkpt lat="42.6999330" lon="-7.0729350">
        <ele>1235.8</ele>
        <time>2021-10-04T15:12:34Z</time>
      </trkpt>
      <trkpt lat="42.6995840" lon="-7.0733020">
        <ele>1234.6</ele>
        <time>2021-10-04T15:12:39Z</time>
      </trkpt>
      <trkpt lat="42.6992850" lon="-7.0737450">
        <ele>1233.6</ele>
        <time>2021-10-04T15:12:45Z</time>
      </trkpt>
      <trkpt lat="42.6990490" lon="-7.0741300">
        <ele>1234.2</ele>
        <time>2021-10-04T15:12:51Z</time>
      </trkpt>
      <trkpt lat="42.6988530" lon="-7.0744530">
        <ele>1234.8</ele>
        <time>2021-10-04T15:12:56Z</time>
      </trkpt>
      <trkpt lat="42.6987720" lon="-7.0745830">
        <ele>1236.4</ele>
        <time>2021-10-04T15:12:58Z</time>
      </trkpt>
      <trkpt lat="42.6986910" lon="-7.0747150">
        <ele>1238.0</ele>
        <time>2021-10-04T15:13:00Z</time>
      </trkpt>
      <trkpt lat="42.6986490" lon="-7.0747800">
        <ele>1238.6</ele>
        <time>2021-10-04T15:13:01Z</time>
      </trkpt>
      <trkpt lat="42.6985600" lon="-7.0749110">
        <ele>1239.0</ele>
        <time>2021-10-04T15:13:03Z</time>
      </trkpt>
      <trkpt lat="42.6983760" lon="-7.0751850">
        <ele>1239.2</ele>
        <time>2021-10-04T15:13:07Z</time>
      </trkpt>
      <trkpt lat="42.6981620" lon="-7.0755700">
        <ele>1238.4</ele>
        <time>2021-10-04T15:13:12Z</time>
      </trkpt>
      <trkpt lat="42.6981290" lon="-7.0756540">
        <ele>1238.0</ele>
        <time>2021-10-04T15:13:13Z</time>
      </trkpt>
      <trkpt lat="42.6980600" lon="-7.0759180">
        <ele>1237.4</ele>
        <time>2021-10-04T15:13:16Z</time>
      </trkpt>
      <trkpt lat="42.6980940" lon="-7.0764010">
        <ele>1237.4</ele>
        <time>2021-10-04T15:13:22Z</time>
      </trkpt>
      <trkpt lat="42.6981830" lon="-7.0767100">
        <ele>1238.8</ele>
        <time>2021-10-04T15:13:28Z</time>
      </trkpt>
      <trkpt lat="42.6981960" lon="-7.0767550">
        <ele>1239.2</ele>
        <time>2021-10-04T15:13:29Z</time>
      </trkpt>
      <trkpt lat="42.6982190" lon="-7.0768380">
        <ele>1240.4</ele>
        <time>2021-10-04T15:13:31Z</time>
      </trkpt>
      <trkpt lat="42.6982360" lon="-7.0769140">
        <ele>1241.4</ele>
        <time>2021-10-04T15:13:33Z</time>
      </trkpt>
      <trkpt lat="42.6982680" lon="-7.0770320">
        <ele>1242.8</ele>
        <time>2021-10-04T15:13:36Z</time>
      </trkpt>
      <trkpt lat="42.6982930" lon="-7.0771440">
        <ele>1244.0</ele>
        <time>2021-10-04T15:13:39Z</time>
      </trkpt>
      <trkpt lat="42.6983190" lon="-7.0772490">
        <ele>1245.0</ele>
        <time>2021-10-04T15:13:42Z</time>
      </trkpt>
      <trkpt lat="42.6983690" lon="-7.0774580">
        <ele>1246.2</ele>
        <time>2021-10-04T15:13:47Z</time>
      </trkpt>
      <trkpt lat="42.6984870" lon="-7.0777310">
        <ele>1247.2</ele>
        <time>2021-10-04T15:13:54Z</time>
      </trkpt>
      <trkpt lat="42.6986000" lon="-7.0779930">
        <ele>1248.6</ele>
        <time>2021-10-04T15:14:01Z</time>
      </trkpt>
      <trkpt lat="42.6986570" lon="-7.0781370">
        <ele>1250.2</ele>
        <time>2021-10-04T15:14:05Z</time>
      </trkpt>
      <trkpt lat="42.6987360" lon="-7.0784270">
        <ele>1251.4</ele>
        <time>2021-10-04T15:14:12Z</time>
      </trkpt>
      <trkpt lat="42.6987600" lon="-7.0786380">
        <ele>1252.8</ele>
        <time>2021-10-04T15:14:17Z</time>
      </trkpt>
      <trkpt lat="42.6987660" lon="-7.0788430">
        <ele>1253.8</ele>
        <time>2021-10-04T15:14:22Z</time>
      </trkpt>
      <trkpt lat="42.6987380" lon="-7.0790420">
        <ele>1255.0</ele>
        <time>2021-10-04T15:14:27Z</time>
      </trkpt>
      <trkpt lat="42.6986790" lon="-7.0792580">
        <ele>1256.4</ele>
        <time>2021-10-04T15:14:33Z</time>
      </trkpt>
      <trkpt lat="42.6986140" lon="-7.0793780">
        <ele>1257.6</ele>
        <time>2021-10-04T15:14:37Z</time>
      </trkpt>
      <trkpt lat="42.6985410" lon="-7.0795360">
        <ele>1258.6</ele>
        <time>2021-10-04T15:14:42Z</time>
      </trkpt>
      <trkpt lat="42.6984670" lon="-7.0796840">
        <ele>1259.8</ele>
        <time>2021-10-04T15:14:47Z</time>
      </trkpt>
      <trkpt lat="42.6984080" lon="-7.0798530">
        <ele>1261.0</ele>
        <time>2021-10-04T15:14:53Z</time>
      </trkpt>
      <trkpt lat="42.6983890" lon="-7.0800050">
        <ele>1262.2</ele>
        <time>2021-10-04T15:14:57Z</time>
      </trkpt>
      <trkpt lat="42.6983830" lon="-7.0801210">
        <ele>1263.2</ele>
        <time>2021-10-04T15:15:00Z</time>
      </trkpt>
      <trkpt lat="42.6984020" lon="-7.0803670">
        <ele>1264.4</ele>
        <time>2021-10-04T15:15:06Z</time>
      </trkpt>
      <trkpt lat="42.6984850" lon="-7.0806560">
        <ele>1265.6</ele>
        <time>2021-10-04T15:15:13Z</time>
      </trkpt>
      <trkpt lat="42.6986110" lon="-7.0809500">
        <ele>1266.6</ele>
        <time>2021-10-04T15:15:20Z</time>
      </trkpt>
      <trkpt lat="42.6987400" lon="-7.0813260">
        <ele>1267.8</ele>
        <time>2021-10-04T15:15:29Z</time>
      </trkpt>
      <trkpt lat="42.6987710" lon="-7.0815080">
        <ele>1268.8</ele>
        <time>2021-10-04T15:15:33Z</time>
      </trkpt>
      <trkpt lat="42.6987740" lon="-7.0817410">
        <ele>1270.0</ele>
        <time>2021-10-04T15:15:38Z</time>
      </trkpt>
      <trkpt lat="42.6987610" lon="-7.0819740">
        <ele>1271.2</ele>
        <time>2021-10-04T15:15:43Z</time>
      </trkpt>
      <trkpt lat="42.6987500" lon="-7.0821080">
        <ele>1272.4</ele>
        <time>2021-10-04T15:15:46Z</time>
      </trkpt>
      <trkpt lat="42.6987420" lon="-7.0822450">
        <ele>1273.4</ele>
        <time>2021-10-04T15:15:49Z</time>
      </trkpt>
      <trkpt lat="42.6987390" lon="-7.0823830">
        <ele>1274.6</ele>
        <time>2021-10-04T15:15:52Z</time>
      </trkpt>
      <trkpt lat="42.6987310" lon="-7.0825680">
        <ele>1275.6</ele>
        <time>2021-10-04T15:15:56Z</time>
      </trkpt>
      <trkpt lat="42.6987270" lon="-7.0828000">
        <ele>1276.6</ele>
        <time>2021-10-04T15:16:01Z</time>
      </trkpt>
      <trkpt lat="42.6987220" lon="-7.0830670">
        <ele>1277.8</ele>
        <time>2021-10-04T15:16:07Z</time>
      </trkpt>
      <trkpt lat="42.6987150" lon="-7.0832940">
        <ele>1279.0</ele>
        <time>2021-10-04T15:16:12Z</time>
      </trkpt>
      <trkpt lat="42.6987040" lon="-7.0835720">
        <ele>1280.2</ele>
        <time>2021-10-04T15:16:18Z</time>
      </trkpt>
      <trkpt lat="42.6986960" lon="-7.0837910">
        <ele>1281.2</ele>
        <time>2021-10-04T15:16:24Z</time>
      </trkpt>
      <trkpt lat="42.6987170" lon="-7.0838110">
        <ele>1281.6</ele>
        <time>2021-10-04T15:16:26Z</time>
      </trkpt>
      <trkpt lat="42.6987500" lon="-7.0838930">
        <ele>1282.8</ele>
        <time>2021-10-04T15:16:31Z</time>
      </trkpt>
      <trkpt lat="42.6987440" lon="-7.0839190">
        <ele>1283.0</ele>
        <time>2021-10-04T15:16:32Z</time>
      </trkpt>
      <trkpt lat="42.6987370" lon="-7.0840030">
        <ele>1283.6</ele>
        <time>2021-10-04T15:16:37Z</time>
      </trkpt>
      <trkpt lat="42.6985180" lon="-7.0843240">
        <ele>1280.8</ele>
        <time>2021-10-04T15:21:35Z</time>
      </trkpt>
      <trkpt lat="42.6985220" lon="-7.0843430">
        <ele>1280.8</ele>
        <time>2021-10-04T15:21:36Z</time>
      </trkpt>
      <trkpt lat="42.6985630" lon="-7.0844240">
        <ele>1280.6</ele>
        <time>2021-10-04T15:21:39Z</time>
      </trkpt>
      <trkpt lat="42.6986020" lon="-7.0844780">
        <ele>1280.6</ele>
        <time>2021-10-04T15:21:41Z</time>
      </trkpt>
      <trkpt lat="42.6986920" lon="-7.0850140">
        <ele>1279.8</ele>
        <time>2021-10-04T15:21:51Z</time>
      </trkpt>
      <trkpt lat="42.6987090" lon="-7.0853070">
        <ele>1278.6</ele>
        <time>2021-10-04T15:21:55Z</time>
      </trkpt>
      <trkpt lat="42.6987300" lon="-7.0856480">
        <ele>1277.4</ele>
        <time>2021-10-04T15:21:59Z</time>
      </trkpt>
      <trkpt lat="42.6987430" lon="-7.0858400">
        <ele>1276.4</ele>
        <time>2021-10-04T15:22:01Z</time>
      </trkpt>
      <trkpt lat="42.6987790" lon="-7.0861590">
        <ele>1274.8</ele>
        <time>2021-10-04T15:22:04Z</time>
      </trkpt>
      <trkpt lat="42.6988500" lon="-7.0864960">
        <ele>1273.6</ele>
        <time>2021-10-04T15:22:07Z</time>
      </trkpt>
      <trkpt lat="42.6989090" lon="-7.0867270">
        <ele>1272.6</ele>
        <time>2021-10-04T15:22:09Z</time>
      </trkpt>
      <trkpt lat="42.6989660" lon="-7.0869670">
        <ele>1271.2</ele>
        <time>2021-10-04T15:22:11Z</time>
      </trkpt>
      <trkpt lat="42.6989920" lon="-7.0870900">
        <ele>1270.8</ele>
        <time>2021-10-04T15:22:12Z</time>
      </trkpt>
      <trkpt lat="42.6990350" lon="-7.0873410">
        <ele>1269.6</ele>
        <time>2021-10-04T15:22:14Z</time>
      </trkpt>
      <trkpt lat="42.6990820" lon="-7.0877190">
        <ele>1268.2</ele>
        <time>2021-10-04T15:22:17Z</time>
      </trkpt>
      <trkpt lat="42.6990840" lon="-7.0878460">
        <ele>1267.6</ele>
        <time>2021-10-04T15:22:18Z</time>
      </trkpt>
      <trkpt lat="42.6990740" lon="-7.0879750">
        <ele>1267.2</ele>
        <time>2021-10-04T15:22:19Z</time>
      </trkpt>
      <trkpt lat="42.6989790" lon="-7.0883510">
        <ele>1265.8</ele>
        <time>2021-10-04T15:22:22Z</time>
      </trkpt>
      <trkpt lat="42.6987700" lon="-7.0886520">
        <ele>1264.6</ele>
        <time>2021-10-04T15:22:25Z</time>
      </trkpt>
      <trkpt lat="42.6985750" lon="-7.0887800">
        <ele>1262.8</ele>
        <time>2021-10-04T15:22:27Z</time>
      </trkpt>
      <trkpt lat="42.6984730" lon="-7.0888370">
        <ele>1262.2</ele>
        <time>2021-10-04T15:22:28Z</time>
      </trkpt>
      <trkpt lat="42.6983710" lon="-7.0888980">
        <ele>1261.8</ele>
        <time>2021-10-04T15:22:29Z</time>
      </trkpt>
      <trkpt lat="42.6981720" lon="-7.0890390">
        <ele>1260.0</ele>
        <time>2021-10-04T15:22:31Z</time>
      </trkpt>
      <trkpt lat="42.6980810" lon="-7.0891230">
        <ele>1259.2</ele>
        <time>2021-10-04T15:22:32Z</time>
      </trkpt>
      <trkpt lat="42.6980030" lon="-7.0892240">
        <ele>1258.4</ele>
        <time>2021-10-04T15:22:33Z</time>
      </trkpt>
      <trkpt lat="42.6979030" lon="-7.0894710">
        <ele>1256.6</ele>
        <time>2021-10-04T15:22:35Z</time>
      </trkpt>
      <trkpt lat="42.6978760" lon="-7.0896100">
        <ele>1255.2</ele>
        <time>2021-10-04T15:22:36Z</time>
      </trkpt>
      <trkpt lat="42.6978650" lon="-7.0899000">
        <ele>1253.4</ele>
        <time>2021-10-04T15:22:38Z</time>
      </trkpt>
      <trkpt lat="42.6979280" lon="-7.0901870">
        <ele>1252.0</ele>
        <time>2021-10-04T15:22:40Z</time>
      </trkpt>
      <trkpt lat="42.6980620" lon="-7.0904350">
        <ele>1250.8</ele>
        <time>2021-10-04T15:22:42Z</time>
      </trkpt>
      <trkpt lat="42.6981460" lon="-7.0905430">
        <ele>1249.6</ele>
        <time>2021-10-04T15:22:43Z</time>
      </trkpt>
      <trkpt lat="42.6982330" lon="-7.0906490">
        <ele>1248.6</ele>
        <time>2021-10-04T15:22:44Z</time>
      </trkpt>
      <trkpt lat="42.6984100" lon="-7.0908640">
        <ele>1246.8</ele>
        <time>2021-10-04T15:22:46Z</time>
      </trkpt>
      <trkpt lat="42.6985970" lon="-7.0910800">
        <ele>1244.8</ele>
        <time>2021-10-04T15:22:48Z</time>
      </trkpt>
      <trkpt lat="42.6986940" lon="-7.0911880">
        <ele>1243.8</ele>
        <time>2021-10-04T15:22:49Z</time>
      </trkpt>
      <trkpt lat="42.6988890" lon="-7.0914090">
        <ele>1242.2</ele>
        <time>2021-10-04T15:22:51Z</time>
      </trkpt>
      <trkpt lat="42.6990850" lon="-7.0916360">
        <ele>1240.6</ele>
        <time>2021-10-04T15:22:53Z</time>
      </trkpt>
      <trkpt lat="42.6991840" lon="-7.0917510">
        <ele>1239.4</ele>
        <time>2021-10-04T15:22:54Z</time>
      </trkpt>
      <trkpt lat="42.6992840" lon="-7.0918650">
        <ele>1238.2</ele>
        <time>2021-10-04T15:22:55Z</time>
      </trkpt>
      <trkpt lat="42.6994870" lon="-7.0920950">
        <ele>1236.6</ele>
        <time>2021-10-04T15:22:57Z</time>
      </trkpt>
      <trkpt lat="42.6996890" lon="-7.0923300">
        <ele>1234.8</ele>
        <time>2021-10-04T15:22:59Z</time>
      </trkpt>
      <trkpt lat="42.6998950" lon="-7.0925650">
        <ele>1233.0</ele>
        <time>2021-10-04T15:23:01Z</time>
      </trkpt>
      <trkpt lat="42.7001020" lon="-7.0928020">
        <ele>1231.2</ele>
        <time>2021-10-04T15:23:03Z</time>
      </trkpt>
      <trkpt lat="42.7003080" lon="-7.0930400">
        <ele>1229.8</ele>
        <time>2021-10-04T15:23:05Z</time>
      </trkpt>
      <trkpt lat="42.7004100" lon="-7.0931590">
        <ele>1228.0</ele>
        <time>2021-10-04T15:23:06Z</time>
      </trkpt>
      <trkpt lat="42.7005120" lon="-7.0932770">
        <ele>1226.6</ele>
        <time>2021-10-04T15:23:07Z</time>
      </trkpt>
      <trkpt lat="42.7006140" lon="-7.0933930">
        <ele>1225.6</ele>
        <time>2021-10-04T15:23:08Z</time>
      </trkpt>
      <trkpt lat="42.7008190" lon="-7.0936290">
        <ele>1224.2</ele>
        <time>2021-10-04T15:23:10Z</time>
      </trkpt>
      <trkpt lat="42.7009210" lon="-7.0937470">
        <ele>1222.0</ele>
        <time>2021-10-04T15:23:11Z</time>
      </trkpt>
      <trkpt lat="42.7011210" lon="-7.0939860">
        <ele>1220.0</ele>
        <time>2021-10-04T15:23:13Z</time>
      </trkpt>
      <trkpt lat="42.7012180" lon="-7.0941080">
        <ele>1219.0</ele>
        <time>2021-10-04T15:23:14Z</time>
      </trkpt>
      <trkpt lat="42.7014110" lon="-7.0943580">
        <ele>1217.8</ele>
        <time>2021-10-04T15:23:16Z</time>
      </trkpt>
      <trkpt lat="42.7015050" lon="-7.0944840">
        <ele>1217.4</ele>
        <time>2021-10-04T15:23:17Z</time>
      </trkpt>
      <trkpt lat="42.7015990" lon="-7.0946120">
        <ele>1217.0</ele>
        <time>2021-10-04T15:23:18Z</time>
      </trkpt>
      <trkpt lat="42.7016920" lon="-7.0947380">
        <ele>1216.2</ele>
        <time>2021-10-04T15:23:19Z</time>
      </trkpt>
      <trkpt lat="42.7017820" lon="-7.0948650">
        <ele>1215.6</ele>
        <time>2021-10-04T15:23:20Z</time>
      </trkpt>
      <trkpt lat="42.7018690" lon="-7.0949920">
        <ele>1215.4</ele>
        <time>2021-10-04T15:23:21Z</time>
      </trkpt>
      <trkpt lat="42.7019520" lon="-7.0951180">
        <ele>1215.2</ele>
        <time>2021-10-04T15:23:22Z</time>
      </trkpt>
      <trkpt lat="42.7020330" lon="-7.0952400">
        <ele>1215.0</ele>
        <time>2021-10-04T15:23:23Z</time>
      </trkpt>
      <trkpt lat="42.7021120" lon="-7.0953580">
        <ele>1215.0</ele>
        <time>2021-10-04T15:23:24Z</time>
      </trkpt>
      <trkpt lat="42.7022580" lon="-7.0955780">
        <ele>1215.0</ele>
        <time>2021-10-04T15:23:26Z</time>
      </trkpt>
      <trkpt lat="42.7023810" lon="-7.0957810">
        <ele>1215.0</ele>
        <time>2021-10-04T15:23:28Z</time>
      </trkpt>
      <trkpt lat="42.7024910" lon="-7.0959530">
        <ele>1215.0</ele>
        <time>2021-10-04T15:23:30Z</time>
      </trkpt>
      <trkpt lat="42.7025950" lon="-7.0960980">
        <ele>1215.6</ele>
        <time>2021-10-04T15:23:32Z</time>
      </trkpt>
      <trkpt lat="42.7026440" lon="-7.0961620">
        <ele>1216.6</ele>
        <time>2021-10-04T15:23:33Z</time>
      </trkpt>
      <trkpt lat="42.7026910" lon="-7.0962230">
        <ele>1217.6</ele>
        <time>2021-10-04T15:23:34Z</time>
      </trkpt>
      <trkpt lat="42.7027370" lon="-7.0962800">
        <ele>1219.0</ele>
        <time>2021-10-04T15:23:35Z</time>
      </trkpt>
      <trkpt lat="42.7027830" lon="-7.0963320">
        <ele>1220.4</ele>
        <time>2021-10-04T15:23:36Z</time>
      </trkpt>
      <trkpt lat="42.7028280" lon="-7.0963860">
        <ele>1221.6</ele>
        <time>2021-10-04T15:23:37Z</time>
      </trkpt>
      <trkpt lat="42.7028720" lon="-7.0964400">
        <ele>1222.6</ele>
        <time>2021-10-04T15:23:38Z</time>
      </trkpt>
      <trkpt lat="42.7029150" lon="-7.0964920">
        <ele>1223.8</ele>
        <time>2021-10-04T15:23:39Z</time>
      </trkpt>
      <trkpt lat="42.7029580" lon="-7.0965430">
        <ele>1224.8</ele>
        <time>2021-10-04T15:23:40Z</time>
      </trkpt>
      <trkpt lat="42.7030000" lon="-7.0965910">
        <ele>1226.2</ele>
        <time>2021-10-04T15:23:41Z</time>
      </trkpt>
      <trkpt lat="42.7030400" lon="-7.0966360">
        <ele>1227.4</ele>
        <time>2021-10-04T15:23:42Z</time>
      </trkpt>
      <trkpt lat="42.7031190" lon="-7.0967210">
        <ele>1228.8</ele>
        <time>2021-10-04T15:23:44Z</time>
      </trkpt>
      <trkpt lat="42.7031570" lon="-7.0967610">
        <ele>1229.8</ele>
        <time>2021-10-04T15:23:45Z</time>
      </trkpt>
      <trkpt lat="42.7032560" lon="-7.0968700">
        <ele>1231.0</ele>
        <time>2021-10-04T15:23:48Z</time>
      </trkpt>
      <trkpt lat="42.7033200" lon="-7.0969380">
        <ele>1232.4</ele>
        <time>2021-10-04T15:23:50Z</time>
      </trkpt>
      <trkpt lat="42.7034170" lon="-7.0970400">
        <ele>1233.6</ele>
        <time>2021-10-04T15:23:53Z</time>
      </trkpt>
      <trkpt lat="42.7034840" lon="-7.0971070">
        <ele>1234.0</ele>
        <time>2021-10-04T15:23:55Z</time>
      </trkpt>
      <trkpt lat="42.7035450" lon="-7.0971790">
        <ele>1235.0</ele>
        <time>2021-10-04T15:23:57Z</time>
      </trkpt>
      <trkpt lat="42.7036700" lon="-7.0973200">
        <ele>1236.0</ele>
        <time>2021-10-04T15:24:01Z</time>
      </trkpt>
      <trkpt lat="42.7039210" lon="-7.0976110">
        <ele>1237.2</ele>
        <time>2021-10-04T15:24:09Z</time>
      </trkpt>
      <trkpt lat="42.7041010" lon="-7.0979050">
        <ele>1238.2</ele>
        <time>2021-10-04T15:24:16Z</time>
      </trkpt>
      <trkpt lat="42.7041210" lon="-7.0979530">
        <ele>1238.2</ele>
        <time>2021-10-04T15:24:17Z</time>
      </trkpt>
      <trkpt lat="42.7041970" lon="-7.0982020">
        <ele>1239.2</ele>
        <time>2021-10-04T15:24:22Z</time>
      </trkpt>
      <trkpt lat="42.7042880" lon="-7.0986350">
        <ele>1240.2</ele>
        <time>2021-10-04T15:24:31Z</time>
      </trkpt>
      <trkpt lat="42.7043400" lon="-7.0991100">
        <ele>1241.6</ele>
        <time>2021-10-04T15:24:41Z</time>
      </trkpt>
      <trkpt lat="42.7043860" lon="-7.0996780">
        <ele>1242.6</ele>
        <time>2021-10-04T15:24:53Z</time>
      </trkpt>
      <trkpt lat="42.7044060" lon="-7.0999220">
        <ele>1243.8</ele>
        <time>2021-10-04T15:24:58Z</time>
      </trkpt>
      <trkpt lat="42.7044190" lon="-7.1001140">
        <ele>1245.0</ele>
        <time>2021-10-04T15:25:02Z</time>
      </trkpt>
      <trkpt lat="42.7044570" lon="-7.1005420">
        <ele>1246.2</ele>
        <time>2021-10-04T15:25:11Z</time>
      </trkpt>
      <trkpt lat="42.7044810" lon="-7.1007670">
        <ele>1247.2</ele>
        <time>2021-10-04T15:25:16Z</time>
      </trkpt>
      <trkpt lat="42.7045050" lon="-7.1009000">
        <ele>1248.4</ele>
        <time>2021-10-04T15:25:19Z</time>
      </trkpt>
      <trkpt lat="42.7045370" lon="-7.1010740">
        <ele>1249.6</ele>
        <time>2021-10-04T15:25:23Z</time>
      </trkpt>
      <trkpt lat="42.7045750" lon="-7.1013320">
        <ele>1251.0</ele>
        <time>2021-10-04T15:25:29Z</time>
      </trkpt>
      <trkpt lat="42.7045970" lon="-7.1014610">
        <ele>1252.0</ele>
        <time>2021-10-04T15:25:32Z</time>
      </trkpt>
      <trkpt lat="42.7046240" lon="-7.1015890">
        <ele>1253.2</ele>
        <time>2021-10-04T15:25:35Z</time>
      </trkpt>
      <trkpt lat="42.7046530" lon="-7.1017610">
        <ele>1254.4</ele>
        <time>2021-10-04T15:25:39Z</time>
      </trkpt>
      <trkpt lat="42.7046860" lon="-7.1019390">
        <ele>1255.6</ele>
        <time>2021-10-04T15:25:43Z</time>
      </trkpt>
      <trkpt lat="42.7047330" lon="-7.1021110">
        <ele>1256.8</ele>
        <time>2021-10-04T15:25:47Z</time>
      </trkpt>
      <trkpt lat="42.7048090" lon="-7.1022910">
        <ele>1257.0</ele>
        <time>2021-10-04T15:25:51Z</time>
      </trkpt>
      <trkpt lat="42.7049360" lon="-7.1025600">
        <ele>1257.0</ele>
        <time>2021-10-04T15:25:56Z</time>
      </trkpt>
      <trkpt lat="42.7050180" lon="-7.1027550">
        <ele>1256.6</ele>
        <time>2021-10-04T15:25:59Z</time>
      </trkpt>
      <trkpt lat="42.7050740" lon="-7.1028960">
        <ele>1256.4</ele>
        <time>2021-10-04T15:26:01Z</time>
      </trkpt>
      <trkpt lat="42.7051020" lon="-7.1029710">
        <ele>1256.4</ele>
        <time>2021-10-04T15:26:02Z</time>
      </trkpt>
      <trkpt lat="42.7051600" lon="-7.1031290">
        <ele>1256.2</ele>
        <time>2021-10-04T15:26:04Z</time>
      </trkpt>
      <trkpt lat="42.7052180" lon="-7.1032970">
        <ele>1255.6</ele>
        <time>2021-10-04T15:26:06Z</time>
      </trkpt>
      <trkpt lat="42.7052790" lon="-7.1034730">
        <ele>1255.4</ele>
        <time>2021-10-04T15:26:08Z</time>
      </trkpt>
      <trkpt lat="42.7053420" lon="-7.1036540">
        <ele>1254.8</ele>
        <time>2021-10-04T15:26:10Z</time>
      </trkpt>
      <trkpt lat="42.7053940" lon="-7.1038420">
        <ele>1254.6</ele>
        <time>2021-10-04T15:26:12Z</time>
      </trkpt>
      <trkpt lat="42.7054120" lon="-7.1039410">
        <ele>1254.4</ele>
        <time>2021-10-04T15:26:13Z</time>
      </trkpt>
      <trkpt lat="42.7054310" lon="-7.1041460">
        <ele>1253.0</ele>
        <time>2021-10-04T15:26:15Z</time>
      </trkpt>
      <trkpt lat="42.7054060" lon="-7.1044520">
        <ele>1251.8</ele>
        <time>2021-10-04T15:26:18Z</time>
      </trkpt>
      <trkpt lat="42.7053290" lon="-7.1047310">
        <ele>1251.2</ele>
        <time>2021-10-04T15:26:21Z</time>
      </trkpt>
      <trkpt lat="42.7051670" lon="-7.1051480">
        <ele>1250.8</ele>
        <time>2021-10-04T15:26:26Z</time>
      </trkpt>
      <trkpt lat="42.7051460" lon="-7.1052330">
        <ele>1250.6</ele>
        <time>2021-10-04T15:26:27Z</time>
      </trkpt>
      <trkpt lat="42.7051170" lon="-7.1054980">
        <ele>1250.4</ele>
        <time>2021-10-04T15:26:30Z</time>
      </trkpt>
      <trkpt lat="42.7051930" lon="-7.1059710">
        <ele>1250.0</ele>
        <time>2021-10-04T15:26:36Z</time>
      </trkpt>
      <trkpt lat="42.7052440" lon="-7.1061060">
        <ele>1250.4</ele>
        <time>2021-10-04T15:26:38Z</time>
      </trkpt>
      <trkpt lat="42.7053410" lon="-7.1062830">
        <ele>1250.4</ele>
        <time>2021-10-04T15:26:41Z</time>
      </trkpt>
      <trkpt lat="42.7055020" lon="-7.1065510">
        <ele>1250.8</ele>
        <time>2021-10-04T15:26:46Z</time>
      </trkpt>
      <trkpt lat="42.7055960" lon="-7.1067850">
        <ele>1252.0</ele>
        <time>2021-10-04T15:26:50Z</time>
      </trkpt>
      <trkpt lat="42.7057200" lon="-7.1074540">
        <ele>1252.6</ele>
        <time>2021-10-04T15:26:59Z</time>
      </trkpt>
      <trkpt lat="42.7058240" lon="-7.1078770">
        <ele>1252.4</ele>
        <time>2021-10-04T15:27:04Z</time>
      </trkpt>
      <trkpt lat="42.7058870" lon="-7.1080390">
        <ele>1252.2</ele>
        <time>2021-10-04T15:27:06Z</time>
      </trkpt>
      <trkpt lat="42.7059250" lon="-7.1081150">
        <ele>1252.0</ele>
        <time>2021-10-04T15:27:07Z</time>
      </trkpt>
      <trkpt lat="42.7061920" lon="-7.1083700">
        <ele>1251.4</ele>
        <time>2021-10-04T15:27:12Z</time>
      </trkpt>
      <trkpt lat="42.7064360" lon="-7.1084300">
        <ele>1251.4</ele>
        <time>2021-10-04T15:27:16Z</time>
      </trkpt>
      <trkpt lat="42.7065570" lon="-7.1084170">
        <ele>1251.4</ele>
        <time>2021-10-04T15:27:18Z</time>
      </trkpt>
      <trkpt lat="42.7068990" lon="-7.1083490">
        <ele>1252.0</ele>
        <time>2021-10-04T15:27:24Z</time>
      </trkpt>
      <trkpt lat="42.7070670" lon="-7.1083350">
        <ele>1252.6</ele>
        <time>2021-10-04T15:27:27Z</time>
      </trkpt>
      <trkpt lat="42.7071230" lon="-7.1083400">
        <ele>1253.0</ele>
        <time>2021-10-04T15:27:28Z</time>
      </trkpt>
      <trkpt lat="42.7072890" lon="-7.1083910">
        <ele>1254.0</ele>
        <time>2021-10-04T15:27:31Z</time>
      </trkpt>
      <trkpt lat="42.7076060" lon="-7.1086240">
        <ele>1254.4</ele>
        <time>2021-10-04T15:27:37Z</time>
      </trkpt>
      <trkpt lat="42.7077840" lon="-7.1091830">
        <ele>1252.8</ele>
        <time>2021-10-04T15:27:44Z</time>
      </trkpt>
      <trkpt lat="42.7077440" lon="-7.1094670">
        <ele>1251.6</ele>
        <time>2021-10-04T15:27:47Z</time>
      </trkpt>
      <trkpt lat="42.7077180" lon="-7.1095590">
        <ele>1251.2</ele>
        <time>2021-10-04T15:27:48Z</time>
      </trkpt>
      <trkpt lat="42.7076900" lon="-7.1096500">
        <ele>1250.6</ele>
        <time>2021-10-04T15:27:49Z</time>
      </trkpt>
      <trkpt lat="42.7075650" lon="-7.1100080">
        <ele>1249.6</ele>
        <time>2021-10-04T15:27:53Z</time>
      </trkpt>
      <trkpt lat="42.7075340" lon="-7.1100970">
        <ele>1249.6</ele>
        <time>2021-10-04T15:27:54Z</time>
      </trkpt>
      <trkpt lat="42.7074780" lon="-7.1102790">
        <ele>1249.2</ele>
        <time>2021-10-04T15:27:56Z</time>
      </trkpt>
      <trkpt lat="42.7074930" lon="-7.1107200">
        <ele>1249.0</ele>
        <time>2021-10-04T15:28:01Z</time>
      </trkpt>
      <trkpt lat="42.7076230" lon="-7.1111460">
        <ele>1249.4</ele>
        <time>2021-10-04T15:28:07Z</time>
      </trkpt>
      <trkpt lat="42.7077870" lon="-7.1114880">
        <ele>1250.6</ele>
        <time>2021-10-04T15:28:13Z</time>
      </trkpt>
      <trkpt lat="42.7078630" lon="-7.1115740">
        <ele>1251.2</ele>
        <time>2021-10-04T15:28:15Z</time>
      </trkpt>
      <trkpt lat="42.7079500" lon="-7.1116390">
        <ele>1251.8</ele>
        <time>2021-10-04T15:28:17Z</time>
      </trkpt>
      <trkpt lat="42.7080940" lon="-7.1116830">
        <ele>1252.4</ele>
        <time>2021-10-04T15:28:20Z</time>
      </trkpt>
      <trkpt lat="42.7082780" lon="-7.1117130">
        <ele>1252.6</ele>
        <time>2021-10-04T15:28:24Z</time>
      </trkpt>
      <trkpt lat="42.7083220" lon="-7.1117220">
        <ele>1252.8</ele>
        <time>2021-10-04T15:28:25Z</time>
      </trkpt>
      <trkpt lat="42.7084860" lon="-7.1117740">
        <ele>1254.0</ele>
        <time>2021-10-04T15:28:29Z</time>
      </trkpt>
      <trkpt lat="42.7085980" lon="-7.1118220">
        <ele>1255.4</ele>
        <time>2021-10-04T15:28:32Z</time>
      </trkpt>
      <trkpt lat="42.7087010" lon="-7.1118710">
        <ele>1256.8</ele>
        <time>2021-10-04T15:28:35Z</time>
      </trkpt>
      <trkpt lat="42.7087980" lon="-7.1119130">
        <ele>1258.0</ele>
        <time>2021-10-04T15:28:38Z</time>
      </trkpt>
      <trkpt lat="42.7088880" lon="-7.1119650">
        <ele>1259.0</ele>
        <time>2021-10-04T15:28:41Z</time>
      </trkpt>
      <trkpt lat="42.7090690" lon="-7.1120500">
        <ele>1260.4</ele>
        <time>2021-10-04T15:28:47Z</time>
      </trkpt>
      <trkpt lat="42.7091850" lon="-7.1120970">
        <ele>1261.4</ele>
        <time>2021-10-04T15:28:51Z</time>
      </trkpt>
      <trkpt lat="42.7092960" lon="-7.1121620">
        <ele>1263.4</ele>
        <time>2021-10-04T15:28:55Z</time>
      </trkpt>
      <trkpt lat="42.7093810" lon="-7.1122020">
        <ele>1264.4</ele>
        <time>2021-10-04T15:28:58Z</time>
      </trkpt>
      <trkpt lat="42.7095160" lon="-7.1123550">
        <ele>1265.8</ele>
        <time>2021-10-04T15:29:04Z</time>
      </trkpt>
      <trkpt lat="42.7095890" lon="-7.1125330">
        <ele>1266.8</ele>
        <time>2021-10-04T15:29:09Z</time>
      </trkpt>
      <trkpt lat="42.7096520" lon="-7.1127920">
        <ele>1268.0</ele>
        <time>2021-10-04T15:29:16Z</time>
      </trkpt>
      <trkpt lat="42.7096790" lon="-7.1130610">
        <ele>1269.4</ele>
        <time>2021-10-04T15:29:23Z</time>
      </trkpt>
      <trkpt lat="42.7096930" lon="-7.1131750">
        <ele>1270.4</ele>
        <time>2021-10-04T15:29:26Z</time>
      </trkpt>
      <trkpt lat="42.7097000" lon="-7.1132890">
        <ele>1271.4</ele>
        <time>2021-10-04T15:29:29Z</time>
      </trkpt>
      <trkpt lat="42.7097090" lon="-7.1134390">
        <ele>1272.8</ele>
        <time>2021-10-04T15:29:33Z</time>
      </trkpt>
      <trkpt lat="42.7097400" lon="-7.1139740">
        <ele>1273.6</ele>
        <time>2021-10-04T15:29:48Z</time>
      </trkpt>
      <trkpt lat="42.7097410" lon="-7.1140100">
        <ele>1273.8</ele>
        <time>2021-10-04T15:29:49Z</time>
      </trkpt>
      <trkpt lat="42.7097330" lon="-7.1144130">
        <ele>1275.0</ele>
        <time>2021-10-04T15:30:00Z</time>
      </trkpt>
      <trkpt lat="42.7097160" lon="-7.1146310">
        <ele>1276.2</ele>
        <time>2021-10-04T15:30:06Z</time>
      </trkpt>
      <trkpt lat="42.7096950" lon="-7.1147740">
        <ele>1277.6</ele>
        <time>2021-10-04T15:30:10Z</time>
      </trkpt>
      <trkpt lat="42.7096660" lon="-7.1149140">
        <ele>1278.6</ele>
        <time>2021-10-04T15:30:14Z</time>
      </trkpt>
      <trkpt lat="42.7096190" lon="-7.1150850">
        <ele>1279.6</ele>
        <time>2021-10-04T15:30:19Z</time>
      </trkpt>
      <trkpt lat="42.7095400" lon="-7.1152800">
        <ele>1280.8</ele>
        <time>2021-10-04T15:30:25Z</time>
      </trkpt>
      <trkpt lat="42.7094470" lon="-7.1154570">
        <ele>1282.0</ele>
        <time>2021-10-04T15:30:31Z</time>
      </trkpt>
      <trkpt lat="42.7092910" lon="-7.1156800">
        <ele>1283.2</ele>
        <time>2021-10-04T15:30:40Z</time>
      </trkpt>
      <trkpt lat="42.7091110" lon="-7.1158820">
        <ele>1284.4</ele>
        <time>2021-10-04T15:30:49Z</time>
      </trkpt>
      <trkpt lat="42.7090080" lon="-7.1159930">
        <ele>1285.6</ele>
        <time>2021-10-04T15:30:54Z</time>
      </trkpt>
      <trkpt lat="42.7089070" lon="-7.1161000">
        <ele>1286.6</ele>
        <time>2021-10-04T15:30:59Z</time>
      </trkpt>
      <trkpt lat="42.7087430" lon="-7.1162760">
        <ele>1287.6</ele>
        <time>2021-10-04T15:31:07Z</time>
      </trkpt>
      <trkpt lat="42.7087240" lon="-7.1162980">
        <ele>1288.2</ele>
        <time>2021-10-04T15:31:08Z</time>
      </trkpt>
      <trkpt lat="42.7086840" lon="-7.1163430">
        <ele>1289.4</ele>
        <time>2021-10-04T15:31:10Z</time>
      </trkpt>
      <trkpt lat="42.7086090" lon="-7.1164320">
        <ele>1290.4</ele>
        <time>2021-10-04T15:31:14Z</time>
      </trkpt>
      <trkpt lat="42.7084970" lon="-7.1165970">
        <ele>1292.2</ele>
        <time>2021-10-04T15:31:21Z</time>
      </trkpt>
      <trkpt lat="42.7084720" lon="-7.1166470">
        <ele>1293.6</ele>
        <time>2021-10-04T15:31:23Z</time>
      </trkpt>
      <trkpt lat="42.7084190" lon="-7.1167830">
        <ele>1294.8</ele>
        <time>2021-10-04T15:31:28Z</time>
      </trkpt>
      <trkpt lat="42.7083940" lon="-7.1169080">
        <ele>1295.8</ele>
        <time>2021-10-04T15:31:32Z</time>
      </trkpt>
      <trkpt lat="42.7083780" lon="-7.1170400">
        <ele>1297.4</ele>
        <time>2021-10-04T15:31:36Z</time>
      </trkpt>
      <trkpt lat="42.7083800" lon="-7.1171740">
        <ele>1298.4</ele>
        <time>2021-10-04T15:31:40Z</time>
      </trkpt>
      <trkpt lat="42.7084030" lon="-7.1173460">
        <ele>1299.6</ele>
        <time>2021-10-04T15:31:45Z</time>
      </trkpt>
      <trkpt lat="42.7084320" lon="-7.1174430">
        <ele>1300.6</ele>
        <time>2021-10-04T15:31:48Z</time>
      </trkpt>
      <trkpt lat="42.7085590" lon="-7.1177800">
        <ele>1301.6</ele>
        <time>2021-10-04T15:31:59Z</time>
      </trkpt>
      <trkpt lat="42.7086340" lon="-7.1180360">
        <ele>1302.8</ele>
        <time>2021-10-04T15:32:07Z</time>
      </trkpt>
      <trkpt lat="42.7086730" lon="-7.1182530">
        <ele>1304.0</ele>
        <time>2021-10-04T15:32:13Z</time>
      </trkpt>
      <trkpt lat="42.7086460" lon="-7.1188090">
        <ele>1305.2</ele>
        <time>2021-10-04T15:32:29Z</time>
      </trkpt>
      <trkpt lat="42.7086040" lon="-7.1190860">
        <ele>1306.4</ele>
        <time>2021-10-04T15:32:37Z</time>
      </trkpt>
      <trkpt lat="42.7085860" lon="-7.1191930">
        <ele>1307.4</ele>
        <time>2021-10-04T15:32:40Z</time>
      </trkpt>
      <trkpt lat="42.7085770" lon="-7.1192650">
        <ele>1308.8</ele>
        <time>2021-10-04T15:32:42Z</time>
      </trkpt>
      <trkpt lat="42.7085680" lon="-7.1193370">
        <ele>1309.8</ele>
        <time>2021-10-04T15:32:44Z</time>
      </trkpt>
      <trkpt lat="42.7085760" lon="-7.1197400">
        <ele>1311.2</ele>
        <time>2021-10-04T15:32:55Z</time>
      </trkpt>
      <trkpt lat="42.7086080" lon="-7.1198460">
        <ele>1312.4</ele>
        <time>2021-10-04T15:32:58Z</time>
      </trkpt>
      <trkpt lat="42.7086880" lon="-7.1200110">
        <ele>1313.8</ele>
        <time>2021-10-04T15:33:03Z</time>
      </trkpt>
      <trkpt lat="42.7088800" lon="-7.1203480">
        <ele>1314.6</ele>
        <time>2021-10-04T15:33:14Z</time>
      </trkpt>
      <trkpt lat="42.7088970" lon="-7.1203780">
        <ele>1314.8</ele>
        <time>2021-10-04T15:33:15Z</time>
      </trkpt>
      <trkpt lat="42.7090340" lon="-7.1206250">
        <ele>1315.8</ele>
        <time>2021-10-04T15:33:23Z</time>
      </trkpt>
      <trkpt lat="42.7090980" lon="-7.1207510">
        <ele>1317.0</ele>
        <time>2021-10-04T15:33:27Z</time>
      </trkpt>
      <trkpt lat="42.7091490" lon="-7.1208440">
        <ele>1318.0</ele>
        <time>2021-10-04T15:33:30Z</time>
      </trkpt>
      <trkpt lat="42.7092540" lon="-7.1210360">
        <ele>1319.0</ele>
        <time>2021-10-04T15:33:36Z</time>
      </trkpt>
      <trkpt lat="42.7093790" lon="-7.1212670">
        <ele>1320.2</ele>
        <time>2021-10-04T15:33:43Z</time>
      </trkpt>
      <trkpt lat="42.7094870" lon="-7.1214680">
        <ele>1321.4</ele>
        <time>2021-10-04T15:33:49Z</time>
      </trkpt>
      <trkpt lat="42.7096720" lon="-7.1218050">
        <ele>1322.6</ele>
        <time>2021-10-04T15:33:59Z</time>
      </trkpt>
      <trkpt lat="42.7097540" lon="-7.1219440">
        <ele>1323.0</ele>
        <time>2021-10-04T15:34:03Z</time>
      </trkpt>
      <trkpt lat="42.7098680" lon="-7.1221030">
        <ele>1323.8</ele>
        <time>2021-10-04T15:34:08Z</time>
      </trkpt>
      <trkpt lat="42.7100830" lon="-7.1223030">
        <ele>1324.8</ele>
        <time>2021-10-04T15:34:16Z</time>
      </trkpt>
      <trkpt lat="42.7102100" lon="-7.1223860">
        <ele>1325.8</ele>
        <time>2021-10-04T15:34:20Z</time>
      </trkpt>
      <trkpt lat="42.7107130" lon="-7.1226410">
        <ele>1327.0</ele>
        <time>2021-10-04T15:34:36Z</time>
      </trkpt>
      <trkpt lat="42.7108300" lon="-7.1227240">
        <ele>1328.2</ele>
        <time>2021-10-04T15:34:40Z</time>
      </trkpt>
      <trkpt lat="42.7109550" lon="-7.1228810">
        <ele>1329.2</ele>
        <time>2021-10-04T15:34:45Z</time>
      </trkpt>
      <trkpt lat="42.7110710" lon="-7.1231130">
        <ele>1330.4</ele>
        <time>2021-10-04T15:34:51Z</time>
      </trkpt>
      <trkpt lat="42.7111990" lon="-7.1234060">
        <ele>1331.4</ele>
        <time>2021-10-04T15:34:58Z</time>
      </trkpt>
      <trkpt lat="42.7112860" lon="-7.1236070">
        <ele>1332.6</ele>
        <time>2021-10-04T15:35:03Z</time>
      </trkpt>
      <trkpt lat="42.7113510" lon="-7.1237600">
        <ele>1333.6</ele>
        <time>2021-10-04T15:35:07Z</time>
      </trkpt>
      <trkpt lat="42.7114130" lon="-7.1239070">
        <ele>1334.6</ele>
        <time>2021-10-04T15:35:11Z</time>
      </trkpt>
      <trkpt lat="42.7114450" lon="-7.1239780">
        <ele>1335.6</ele>
        <time>2021-10-04T15:35:13Z</time>
      </trkpt>
      <trkpt lat="42.7115080" lon="-7.1241240">
        <ele>1336.8</ele>
        <time>2021-10-04T15:35:17Z</time>
      </trkpt>
      <trkpt lat="42.7116180" lon="-7.1243740">
        <ele>1338.0</ele>
        <time>2021-10-04T15:35:24Z</time>
      </trkpt>
      <trkpt lat="42.7116790" lon="-7.1245130">
        <ele>1339.2</ele>
        <time>2021-10-04T15:35:28Z</time>
      </trkpt>
      <trkpt lat="42.7117560" lon="-7.1246870">
        <ele>1340.2</ele>
        <time>2021-10-04T15:35:33Z</time>
      </trkpt>
      <trkpt lat="42.7118310" lon="-7.1248570">
        <ele>1341.4</ele>
        <time>2021-10-04T15:35:38Z</time>
      </trkpt>
      <trkpt lat="42.7119230" lon="-7.1250640">
        <ele>1342.6</ele>
        <time>2021-10-04T15:35:44Z</time>
      </trkpt>
      <trkpt lat="42.7120000" lon="-7.1252350">
        <ele>1344.0</ele>
        <time>2021-10-04T15:35:49Z</time>
      </trkpt>
      <trkpt lat="42.7120460" lon="-7.1253370">
        <ele>1345.0</ele>
        <time>2021-10-04T15:35:52Z</time>
      </trkpt>
      <trkpt lat="42.7121220" lon="-7.1254980">
        <ele>1346.2</ele>
        <time>2021-10-04T15:35:57Z</time>
      </trkpt>
      <trkpt lat="42.7121350" lon="-7.1255270">
        <ele>1346.4</ele>
        <time>2021-10-04T15:35:58Z</time>
      </trkpt>
      <trkpt lat="42.7121730" lon="-7.1256090">
        <ele>1347.0</ele>
        <time>2021-10-04T15:36:01Z</time>
      </trkpt>
      <trkpt lat="42.7121960" lon="-7.1256530">
        <ele>1347.4</ele>
        <time>2021-10-04T15:36:03Z</time>
      </trkpt>
      <trkpt lat="42.7122310" lon="-7.1257390">
        <ele>1347.8</ele>
        <time>2021-10-04T15:36:07Z</time>
      </trkpt>
      <trkpt lat="42.7122670" lon="-7.1258020">
        <ele>1348.2</ele>
        <time>2021-10-04T15:36:10Z</time>
      </trkpt>
      <trkpt lat="42.7123030" lon="-7.1258650">
        <ele>1348.4</ele>
        <time>2021-10-04T15:36:13Z</time>
      </trkpt>
      <trkpt lat="42.7123180" lon="-7.1259080">
        <ele>1348.4</ele>
        <time>2021-10-04T15:36:15Z</time>
      </trkpt>
      <trkpt lat="42.7122210" lon="-7.1257140">
        <ele>1350.4</ele>
        <time>2021-10-04T15:42:11Z</time>
      </trkpt>
      <trkpt lat="42.7122360" lon="-7.1257440">
        <ele>1350.4</ele>
        <time>2021-10-04T15:42:12Z</time>
      </trkpt>
      <trkpt lat="42.7122780" lon="-7.1258100">
        <ele>1350.4</ele>
        <time>2021-10-04T15:42:14Z</time>
      </trkpt>
      <trkpt lat="42.7123540" lon="-7.1259300">
        <ele>1350.4</ele>
        <time>2021-10-04T15:42:17Z</time>
      </trkpt>
      <trkpt lat="42.7124330" lon="-7.1260620">
        <ele>1350.4</ele>
        <time>2021-10-04T15:42:20Z</time>
      </trkpt>
      <trkpt lat="42.7125490" lon="-7.1262470">
        <ele>1349.2</ele>
        <time>2021-10-04T15:42:24Z</time>
      </trkpt>
      <trkpt lat="42.7127810" lon="-7.1266300">
        <ele>1348.2</ele>
        <time>2021-10-04T15:42:32Z</time>
      </trkpt>
      <trkpt lat="42.7129900" lon="-7.1269780">
        <ele>1348.0</ele>
        <time>2021-10-04T15:42:39Z</time>
      </trkpt>
      <trkpt lat="42.7132530" lon="-7.1274250">
        <ele>1347.2</ele>
        <time>2021-10-04T15:42:47Z</time>
      </trkpt>
      <trkpt lat="42.7135330" lon="-7.1278930">
        <ele>1346.2</ele>
        <time>2021-10-04T15:42:55Z</time>
      </trkpt>
      <trkpt lat="42.7137300" lon="-7.1281980">
        <ele>1345.0</ele>
        <time>2021-10-04T15:43:00Z</time>
      </trkpt>
      <trkpt lat="42.7141070" lon="-7.1287740">
        <ele>1344.4</ele>
        <time>2021-10-04T15:43:08Z</time>
      </trkpt>
      <trkpt lat="42.7142260" lon="-7.1289160">
        <ele>1344.2</ele>
        <time>2021-10-04T15:43:10Z</time>
      </trkpt>
      <trkpt lat="42.7144330" lon="-7.1290980">
        <ele>1343.2</ele>
        <time>2021-10-04T15:43:13Z</time>
      </trkpt>
      <trkpt lat="42.7145830" lon="-7.1291960">
        <ele>1341.4</ele>
        <time>2021-10-04T15:43:15Z</time>
      </trkpt>
      <trkpt lat="42.7147340" lon="-7.1292840">
        <ele>1340.0</ele>
        <time>2021-10-04T15:43:17Z</time>
      </trkpt>
      <trkpt lat="42.7149570" lon="-7.1294280">
        <ele>1338.6</ele>
        <time>2021-10-04T15:43:20Z</time>
      </trkpt>
      <trkpt lat="42.7152180" lon="-7.1297000">
        <ele>1337.6</ele>
        <time>2021-10-04T15:43:24Z</time>
      </trkpt>
      <trkpt lat="42.7154880" lon="-7.1301100">
        <ele>1336.6</ele>
        <time>2021-10-04T15:43:29Z</time>
      </trkpt>
      <trkpt lat="42.7157380" lon="-7.1305310">
        <ele>1335.4</ele>
        <time>2021-10-04T15:43:34Z</time>
      </trkpt>
      <trkpt lat="42.7161020" lon="-7.1311940">
        <ele>1334.6</ele>
        <time>2021-10-04T15:43:42Z</time>
      </trkpt>
      <trkpt lat="42.7161400" lon="-7.1312820">
        <ele>1334.4</ele>
        <time>2021-10-04T15:43:43Z</time>
      </trkpt>
      <trkpt lat="42.7163180" lon="-7.1320610">
        <ele>1333.4</ele>
        <time>2021-10-04T15:43:51Z</time>
      </trkpt>
      <trkpt lat="42.7163700" lon="-7.1324620">
        <ele>1332.4</ele>
        <time>2021-10-04T15:43:55Z</time>
      </trkpt>
      <trkpt lat="42.7163820" lon="-7.1325610">
        <ele>1332.2</ele>
        <time>2021-10-04T15:43:56Z</time>
      </trkpt>
      <trkpt lat="42.7164180" lon="-7.1328560">
        <ele>1331.8</ele>
        <time>2021-10-04T15:43:59Z</time>
      </trkpt>
      <trkpt lat="42.7164500" lon="-7.1330510">
        <ele>1330.8</ele>
        <time>2021-10-04T15:44:01Z</time>
      </trkpt>
      <trkpt lat="42.7164670" lon="-7.1331490">
        <ele>1330.4</ele>
        <time>2021-10-04T15:44:02Z</time>
      </trkpt>
      <trkpt lat="42.7165110" lon="-7.1333430">
        <ele>1329.8</ele>
        <time>2021-10-04T15:44:04Z</time>
      </trkpt>
      <trkpt lat="42.7165360" lon="-7.1334380">
        <ele>1329.6</ele>
        <time>2021-10-04T15:44:05Z</time>
      </trkpt>
      <trkpt lat="42.7167070" lon="-7.1338950">
        <ele>1328.2</ele>
        <time>2021-10-04T15:44:10Z</time>
      </trkpt>
      <trkpt lat="42.7168440" lon="-7.1341560">
        <ele>1327.4</ele>
        <time>2021-10-04T15:44:13Z</time>
      </trkpt>
      <trkpt lat="42.7168930" lon="-7.1342420">
        <ele>1327.2</ele>
        <time>2021-10-04T15:44:14Z</time>
      </trkpt>
      <trkpt lat="42.7171740" lon="-7.1346640">
        <ele>1326.0</ele>
        <time>2021-10-04T15:44:19Z</time>
      </trkpt>
      <trkpt lat="42.7175170" lon="-7.1352190">
        <ele>1324.8</ele>
        <time>2021-10-04T15:44:25Z</time>
      </trkpt>
      <trkpt lat="42.7177490" lon="-7.1356040">
        <ele>1323.6</ele>
        <time>2021-10-04T15:44:29Z</time>
      </trkpt>
      <trkpt lat="42.7178620" lon="-7.1358070">
        <ele>1322.2</ele>
        <time>2021-10-04T15:44:31Z</time>
      </trkpt>
      <trkpt lat="42.7179710" lon="-7.1360190">
        <ele>1321.0</ele>
        <time>2021-10-04T15:44:33Z</time>
      </trkpt>
      <trkpt lat="42.7181260" lon="-7.1363370">
        <ele>1319.6</ele>
        <time>2021-10-04T15:44:36Z</time>
      </trkpt>
      <trkpt lat="42.7183020" lon="-7.1367810">
        <ele>1318.2</ele>
        <time>2021-10-04T15:44:40Z</time>
      </trkpt>
      <trkpt lat="42.7183780" lon="-7.1370100">
        <ele>1317.4</ele>
        <time>2021-10-04T15:44:42Z</time>
      </trkpt>
      <trkpt lat="42.7184140" lon="-7.1371260">
        <ele>1316.8</ele>
        <time>2021-10-04T15:44:43Z</time>
      </trkpt>
      <trkpt lat="42.7184830" lon="-7.1373560">
        <ele>1315.4</ele>
        <time>2021-10-04T15:44:45Z</time>
      </trkpt>
      <trkpt lat="42.7185460" lon="-7.1375860">
        <ele>1314.0</ele>
        <time>2021-10-04T15:44:47Z</time>
      </trkpt>
      <trkpt lat="42.7186340" lon="-7.1379310">
        <ele>1312.6</ele>
        <time>2021-10-04T15:44:50Z</time>
      </trkpt>
      <trkpt lat="42.7186930" lon="-7.1381620">
        <ele>1311.4</ele>
        <time>2021-10-04T15:44:52Z</time>
      </trkpt>
      <trkpt lat="42.7187500" lon="-7.1383920">
        <ele>1310.2</ele>
        <time>2021-10-04T15:44:54Z</time>
      </trkpt>
      <trkpt lat="42.7188120" lon="-7.1386200">
        <ele>1309.6</ele>
        <time>2021-10-04T15:44:56Z</time>
      </trkpt>
      <trkpt lat="42.7188430" lon="-7.1387350">
        <ele>1309.4</ele>
        <time>2021-10-04T15:44:57Z</time>
      </trkpt>
      <trkpt lat="42.7188750" lon="-7.1388510">
        <ele>1309.2</ele>
        <time>2021-10-04T15:44:58Z</time>
      </trkpt>
      <trkpt lat="42.7189460" lon="-7.1390780">
        <ele>1308.0</ele>
        <time>2021-10-04T15:45:00Z</time>
      </trkpt>
      <trkpt lat="42.7190350" lon="-7.1393000">
        <ele>1307.2</ele>
        <time>2021-10-04T15:45:02Z</time>
      </trkpt>
      <trkpt lat="42.7190840" lon="-7.1394080">
        <ele>1306.8</ele>
        <time>2021-10-04T15:45:03Z</time>
      </trkpt>
      <trkpt lat="42.7193160" lon="-7.1397960">
        <ele>1305.8</ele>
        <time>2021-10-04T15:45:07Z</time>
      </trkpt>
      <trkpt lat="42.7195790" lon="-7.1401090">
        <ele>1304.6</ele>
        <time>2021-10-04T15:45:11Z</time>
      </trkpt>
      <trkpt lat="42.7198690" lon="-7.1403430">
        <ele>1303.6</ele>
        <time>2021-10-04T15:45:15Z</time>
      </trkpt>
      <trkpt lat="42.7203650" lon="-7.1406970">
        <ele>1303.6</ele>
        <time>2021-10-04T15:45:22Z</time>
      </trkpt>
      <trkpt lat="42.7208090" lon="-7.1411580">
        <ele>1303.6</ele>
        <time>2021-10-04T15:45:29Z</time>
      </trkpt>
      <trkpt lat="42.7209790" lon="-7.1414030">
        <ele>1303.6</ele>
        <time>2021-10-04T15:45:32Z</time>
      </trkpt>
      <trkpt lat="42.7210380" lon="-7.1414890">
        <ele>1303.6</ele>
        <time>2021-10-04T15:45:33Z</time>
      </trkpt>
      <trkpt lat="42.7210970" lon="-7.1415780">
        <ele>1303.6</ele>
        <time>2021-10-04T15:45:34Z</time>
      </trkpt>
      <trkpt lat="42.7212720" lon="-7.1418580">
        <ele>1303.2</ele>
        <time>2021-10-04T15:45:37Z</time>
      </trkpt>
      <trkpt lat="42.7213920" lon="-7.1420450">
        <ele>1302.6</ele>
        <time>2021-10-04T15:45:39Z</time>
      </trkpt>
      <trkpt lat="42.7216240" lon="-7.1424150">
        <ele>1301.0</ele>
        <time>2021-10-04T15:45:43Z</time>
      </trkpt>
      <trkpt lat="42.7217380" lon="-7.1425950">
        <ele>1300.0</ele>
        <time>2021-10-04T15:45:45Z</time>
      </trkpt>
      <trkpt lat="42.7221210" lon="-7.1432650">
        <ele>1299.6</ele>
        <time>2021-10-04T15:45:52Z</time>
      </trkpt>
      <trkpt lat="42.7223800" lon="-7.1439000">
        <ele>1299.2</ele>
        <time>2021-10-04T15:45:58Z</time>
      </trkpt>
      <trkpt lat="42.7224530" lon="-7.1441150">
        <ele>1298.6</ele>
        <time>2021-10-04T15:46:00Z</time>
      </trkpt>
      <trkpt lat="42.7225950" lon="-7.1446610">
        <ele>1298.2</ele>
        <time>2021-10-04T15:46:05Z</time>
      </trkpt>
      <trkpt lat="42.7227310" lon="-7.1451810">
        <ele>1297.6</ele>
        <time>2021-10-04T15:46:10Z</time>
      </trkpt>
      <trkpt lat="42.7228610" lon="-7.1456660">
        <ele>1298.8</ele>
        <time>2021-10-04T15:46:15Z</time>
      </trkpt>
      <trkpt lat="42.7231240" lon="-7.1464000">
        <ele>1299.8</ele>
        <time>2021-10-04T15:46:24Z</time>
      </trkpt>
      <trkpt lat="42.7231610" lon="-7.1464740">
        <ele>1300.0</ele>
        <time>2021-10-04T15:46:25Z</time>
      </trkpt>
      <trkpt lat="42.7232460" lon="-7.1466210">
        <ele>1301.0</ele>
        <time>2021-10-04T15:46:27Z</time>
      </trkpt>
      <trkpt lat="42.7235030" lon="-7.1470940">
        <ele>1302.0</ele>
        <time>2021-10-04T15:46:33Z</time>
      </trkpt>
      <trkpt lat="42.7238820" lon="-7.1476790">
        <ele>1301.0</ele>
        <time>2021-10-04T15:46:41Z</time>
      </trkpt>
      <trkpt lat="42.7239820" lon="-7.1478240">
        <ele>1300.0</ele>
        <time>2021-10-04T15:46:43Z</time>
      </trkpt>
      <trkpt lat="42.7242470" lon="-7.1481980">
        <ele>1298.8</ele>
        <time>2021-10-04T15:46:48Z</time>
      </trkpt>
      <trkpt lat="42.7246330" lon="-7.1487390">
        <ele>1298.2</ele>
        <time>2021-10-04T15:46:55Z</time>
      </trkpt>
      <trkpt lat="42.7247960" lon="-7.1489720">
        <ele>1297.8</ele>
        <time>2021-10-04T15:46:58Z</time>
      </trkpt>
      <trkpt lat="42.7249580" lon="-7.1492030">
        <ele>1296.8</ele>
        <time>2021-10-04T15:47:01Z</time>
      </trkpt>
      <trkpt lat="42.7250120" lon="-7.1492790">
        <ele>1296.2</ele>
        <time>2021-10-04T15:47:02Z</time>
      </trkpt>
      <trkpt lat="42.7253320" lon="-7.1497320">
        <ele>1295.2</ele>
        <time>2021-10-04T15:47:08Z</time>
      </trkpt>
      <trkpt lat="42.7257490" lon="-7.1503280">
        <ele>1294.2</ele>
        <time>2021-10-04T15:47:16Z</time>
      </trkpt>
      <trkpt lat="42.7261430" lon="-7.1508880">
        <ele>1295.2</ele>
        <time>2021-10-04T15:47:24Z</time>
      </trkpt>
      <trkpt lat="42.7262890" lon="-7.1511000">
        <ele>1295.2</ele>
        <time>2021-10-04T15:47:27Z</time>
      </trkpt>
      <trkpt lat="42.7264320" lon="-7.1513150">
        <ele>1295.4</ele>
        <time>2021-10-04T15:47:30Z</time>
      </trkpt>
      <trkpt lat="42.7266300" lon="-7.1516910">
        <ele>1295.6</ele>
        <time>2021-10-04T15:47:35Z</time>
      </trkpt>
      <trkpt lat="42.7268490" lon="-7.1523900">
        <ele>1295.8</ele>
        <time>2021-10-04T15:47:43Z</time>
      </trkpt>
      <trkpt lat="42.7270070" lon="-7.1530960">
        <ele>1295.8</ele>
        <time>2021-10-04T15:47:51Z</time>
      </trkpt>
      <trkpt lat="42.7272670" lon="-7.1537140">
        <ele>1296.2</ele>
        <time>2021-10-04T15:47:59Z</time>
      </trkpt>
      <trkpt lat="42.7275140" lon="-7.1540060">
        <ele>1297.6</ele>
        <time>2021-10-04T15:48:04Z</time>
      </trkpt>
      <trkpt lat="42.7279700" lon="-7.1544120">
        <ele>1298.2</ele>
        <time>2021-10-04T15:48:12Z</time>
      </trkpt>
      <trkpt lat="42.7282930" lon="-7.1546920">
        <ele>1298.2</ele>
        <time>2021-10-04T15:48:17Z</time>
      </trkpt>
      <trkpt lat="42.7287210" lon="-7.1550650">
        <ele>1297.8</ele>
        <time>2021-10-04T15:48:23Z</time>
      </trkpt>
      <trkpt lat="42.7289470" lon="-7.1552760">
        <ele>1296.4</ele>
        <time>2021-10-04T15:48:26Z</time>
      </trkpt>
      <trkpt lat="42.7293290" lon="-7.1556780">
        <ele>1295.4</ele>
        <time>2021-10-04T15:48:31Z</time>
      </trkpt>
      <trkpt lat="42.7296460" lon="-7.1560370">
        <ele>1294.2</ele>
        <time>2021-10-04T15:48:35Z</time>
      </trkpt>
      <trkpt lat="42.7298790" lon="-7.1563110">
        <ele>1293.2</ele>
        <time>2021-10-04T15:48:38Z</time>
      </trkpt>
      <trkpt lat="42.7299550" lon="-7.1564010">
        <ele>1293.0</ele>
        <time>2021-10-04T15:48:39Z</time>
      </trkpt>
      <trkpt lat="42.7301070" lon="-7.1565760">
        <ele>1292.8</ele>
        <time>2021-10-04T15:48:41Z</time>
      </trkpt>
      <trkpt lat="42.7302540" lon="-7.1567480">
        <ele>1292.6</ele>
        <time>2021-10-04T15:48:43Z</time>
      </trkpt>
      <trkpt lat="42.7306620" lon="-7.1572220">
        <ele>1292.6</ele>
        <time>2021-10-04T15:48:49Z</time>
      </trkpt>
      <trkpt lat="42.7310150" lon="-7.1576260">
        <ele>1293.0</ele>
        <time>2021-10-04T15:48:55Z</time>
      </trkpt>
      <trkpt lat="42.7312760" lon="-7.1579280">
        <ele>1294.6</ele>
        <time>2021-10-04T15:49:00Z</time>
      </trkpt>
      <trkpt lat="42.7314240" lon="-7.1580950">
        <ele>1295.8</ele>
        <time>2021-10-04T15:49:03Z</time>
      </trkpt>
      <trkpt lat="42.7316070" lon="-7.1583180">
        <ele>1297.2</ele>
        <time>2021-10-04T15:49:07Z</time>
      </trkpt>
      <trkpt lat="42.7317370" lon="-7.1584960">
        <ele>1298.2</ele>
        <time>2021-10-04T15:49:10Z</time>
      </trkpt>
      <trkpt lat="42.7321280" lon="-7.1590670">
        <ele>1299.0</ele>
        <time>2021-10-04T15:49:19Z</time>
      </trkpt>
      <trkpt lat="42.7323140" lon="-7.1593260">
        <ele>1299.0</ele>
        <time>2021-10-04T15:49:23Z</time>
      </trkpt>
      <trkpt lat="42.7325560" lon="-7.1596590">
        <ele>1298.4</ele>
        <time>2021-10-04T15:49:28Z</time>
      </trkpt>
      <trkpt lat="42.7326960" lon="-7.1598860">
        <ele>1296.8</ele>
        <time>2021-10-04T15:49:31Z</time>
      </trkpt>
      <trkpt lat="42.7327850" lon="-7.1600550">
        <ele>1295.6</ele>
        <time>2021-10-04T15:49:33Z</time>
      </trkpt>
      <trkpt lat="42.7329700" lon="-7.1604150">
        <ele>1295.0</ele>
        <time>2021-10-04T15:49:37Z</time>
      </trkpt>
      <trkpt lat="42.7331720" lon="-7.1609020">
        <ele>1294.4</ele>
        <time>2021-10-04T15:49:42Z</time>
      </trkpt>
      <trkpt lat="42.7333920" lon="-7.1615030">
        <ele>1293.4</ele>
        <time>2021-10-04T15:49:48Z</time>
      </trkpt>
      <trkpt lat="42.7334950" lon="-7.1618030">
        <ele>1292.2</ele>
        <time>2021-10-04T15:49:51Z</time>
      </trkpt>
      <trkpt lat="42.7337380" lon="-7.1624880">
        <ele>1291.0</ele>
        <time>2021-10-04T15:49:58Z</time>
      </trkpt>
      <trkpt lat="42.7338390" lon="-7.1627760">
        <ele>1290.8</ele>
        <time>2021-10-04T15:50:01Z</time>
      </trkpt>
      <trkpt lat="42.7339040" lon="-7.1629580">
        <ele>1290.8</ele>
        <time>2021-10-04T15:50:03Z</time>
      </trkpt>
      <trkpt lat="42.7340100" lon="-7.1633190">
        <ele>1290.4</ele>
        <time>2021-10-04T15:50:07Z</time>
      </trkpt>
      <trkpt lat="42.7341100" lon="-7.1635800">
        <ele>1290.0</ele>
        <time>2021-10-04T15:50:10Z</time>
      </trkpt>
      <trkpt lat="42.7343690" lon="-7.1642450">
        <ele>1289.6</ele>
        <time>2021-10-04T15:50:17Z</time>
      </trkpt>
      <trkpt lat="42.7344050" lon="-7.1643480">
        <ele>1288.8</ele>
        <time>2021-10-04T15:50:18Z</time>
      </trkpt>
      <trkpt lat="42.7344800" lon="-7.1645590">
        <ele>1287.0</ele>
        <time>2021-10-04T15:50:20Z</time>
      </trkpt>
      <trkpt lat="42.7345570" lon="-7.1647730">
        <ele>1285.6</ele>
        <time>2021-10-04T15:50:22Z</time>
      </trkpt>
      <trkpt lat="42.7346690" lon="-7.1650890">
        <ele>1284.6</ele>
        <time>2021-10-04T15:50:25Z</time>
      </trkpt>
      <trkpt lat="42.7347810" lon="-7.1654110">
        <ele>1283.2</ele>
        <time>2021-10-04T15:50:28Z</time>
      </trkpt>
      <trkpt lat="42.7348220" lon="-7.1655200">
        <ele>1281.8</ele>
        <time>2021-10-04T15:50:29Z</time>
      </trkpt>
      <trkpt lat="42.7348630" lon="-7.1656310">
        <ele>1280.4</ele>
        <time>2021-10-04T15:50:30Z</time>
      </trkpt>
      <trkpt lat="42.7349450" lon="-7.1658570">
        <ele>1278.8</ele>
        <time>2021-10-04T15:50:32Z</time>
      </trkpt>
      <trkpt lat="42.7351050" lon="-7.1663120">
        <ele>1277.6</ele>
        <time>2021-10-04T15:50:36Z</time>
      </trkpt>
      <trkpt lat="42.7352640" lon="-7.1667520">
        <ele>1276.4</ele>
        <time>2021-10-04T15:50:40Z</time>
      </trkpt>
      <trkpt lat="42.7353450" lon="-7.1669740">
        <ele>1273.6</ele>
        <time>2021-10-04T15:50:42Z</time>
      </trkpt>
      <trkpt lat="42.7354710" lon="-7.1673140">
        <ele>1272.4</ele>
        <time>2021-10-04T15:50:45Z</time>
      </trkpt>
      <trkpt lat="42.7357470" lon="-7.1680170">
        <ele>1271.4</ele>
        <time>2021-10-04T15:50:51Z</time>
      </trkpt>
      <trkpt lat="42.7357970" lon="-7.1681400">
        <ele>1271.4</ele>
        <time>2021-10-04T15:50:52Z</time>
      </trkpt>
      <trkpt lat="42.7361170" lon="-7.1688960">
        <ele>1270.4</ele>
        <time>2021-10-04T15:50:58Z</time>
      </trkpt>
      <trkpt lat="42.7362260" lon="-7.1691550">
        <ele>1268.8</ele>
        <time>2021-10-04T15:51:00Z</time>
      </trkpt>
      <trkpt lat="42.7362810" lon="-7.1692830">
        <ele>1267.6</ele>
        <time>2021-10-04T15:51:01Z</time>
      </trkpt>
      <trkpt lat="42.7363880" lon="-7.1695370">
        <ele>1266.2</ele>
        <time>2021-10-04T15:51:03Z</time>
      </trkpt>
      <trkpt lat="42.7365390" lon="-7.1699220">
        <ele>1264.2</ele>
        <time>2021-10-04T15:51:06Z</time>
      </trkpt>
      <trkpt lat="42.7365860" lon="-7.1700510">
        <ele>1262.6</ele>
        <time>2021-10-04T15:51:07Z</time>
      </trkpt>
      <trkpt lat="42.7366300" lon="-7.1701820">
        <ele>1261.0</ele>
        <time>2021-10-04T15:51:08Z</time>
      </trkpt>
      <trkpt lat="42.7367090" lon="-7.1704450">
        <ele>1259.6</ele>
        <time>2021-10-04T15:51:10Z</time>
      </trkpt>
      <trkpt lat="42.7367920" lon="-7.1708360">
        <ele>1258.4</ele>
        <time>2021-10-04T15:51:13Z</time>
      </trkpt>
      <trkpt lat="42.7368120" lon="-7.1710920">
        <ele>1258.2</ele>
        <time>2021-10-04T15:51:15Z</time>
      </trkpt>
      <trkpt lat="42.7368340" lon="-7.1714670">
        <ele>1258.0</ele>
        <time>2021-10-04T15:51:18Z</time>
      </trkpt>
      <trkpt lat="42.7368510" lon="-7.1718290">
        <ele>1258.4</ele>
        <time>2021-10-04T15:51:21Z</time>
      </trkpt>
      <trkpt lat="42.7368600" lon="-7.1720580">
        <ele>1259.6</ele>
        <time>2021-10-04T15:51:23Z</time>
      </trkpt>
      <trkpt lat="42.7368680" lon="-7.1722780">
        <ele>1261.0</ele>
        <time>2021-10-04T15:51:25Z</time>
      </trkpt>
      <trkpt lat="42.7368770" lon="-7.1725810">
        <ele>1261.4</ele>
        <time>2021-10-04T15:51:28Z</time>
      </trkpt>
      <trkpt lat="42.7368970" lon="-7.1728900">
        <ele>1261.4</ele>
        <time>2021-10-04T15:51:31Z</time>
      </trkpt>
      <trkpt lat="42.7369380" lon="-7.1732230">
        <ele>1261.4</ele>
        <time>2021-10-04T15:51:34Z</time>
      </trkpt>
      <trkpt lat="42.7370120" lon="-7.1736990">
        <ele>1260.0</ele>
        <time>2021-10-04T15:51:38Z</time>
      </trkpt>
      <trkpt lat="42.7370700" lon="-7.1739300">
        <ele>1259.6</ele>
        <time>2021-10-04T15:51:40Z</time>
      </trkpt>
      <trkpt lat="42.7372550" lon="-7.1742920">
        <ele>1258.8</ele>
        <time>2021-10-04T15:51:44Z</time>
      </trkpt>
      <trkpt lat="42.7375190" lon="-7.1745450">
        <ele>1257.8</ele>
        <time>2021-10-04T15:51:48Z</time>
      </trkpt>
      <trkpt lat="42.7379850" lon="-7.1747120">
        <ele>1256.6</ele>
        <time>2021-10-04T15:51:54Z</time>
      </trkpt>
      <trkpt lat="42.7381400" lon="-7.1747360">
        <ele>1255.4</ele>
        <time>2021-10-04T15:51:56Z</time>
      </trkpt>
      <trkpt lat="42.7385230" lon="-7.1748020">
        <ele>1254.0</ele>
        <time>2021-10-04T15:52:01Z</time>
      </trkpt>
      <trkpt lat="42.7387600" lon="-7.1748780">
        <ele>1253.6</ele>
        <time>2021-10-04T15:52:04Z</time>
      </trkpt>
      <trkpt lat="42.7390680" lon="-7.1750530">
        <ele>1253.0</ele>
        <time>2021-10-04T15:52:08Z</time>
      </trkpt>
      <trkpt lat="42.7395200" lon="-7.1754130">
        <ele>1251.8</ele>
        <time>2021-10-04T15:52:14Z</time>
      </trkpt>
      <trkpt lat="42.7397450" lon="-7.1756180">
        <ele>1250.6</ele>
        <time>2021-10-04T15:52:17Z</time>
      </trkpt>
      <trkpt lat="42.7402090" lon="-7.1760360">
        <ele>1249.6</ele>
        <time>2021-10-04T15:52:23Z</time>
      </trkpt>
      <trkpt lat="42.7403600" lon="-7.1761840">
        <ele>1248.4</ele>
        <time>2021-10-04T15:52:25Z</time>
      </trkpt>
      <trkpt lat="42.7405020" lon="-7.1763480">
        <ele>1247.4</ele>
        <time>2021-10-04T15:52:27Z</time>
      </trkpt>
      <trkpt lat="42.7406430" lon="-7.1765220">
        <ele>1245.6</ele>
        <time>2021-10-04T15:52:29Z</time>
      </trkpt>
      <trkpt lat="42.7407790" lon="-7.1767090">
        <ele>1244.2</ele>
        <time>2021-10-04T15:52:31Z</time>
      </trkpt>
      <trkpt lat="42.7409800" lon="-7.1770080">
        <ele>1243.2</ele>
        <time>2021-10-04T15:52:34Z</time>
      </trkpt>
      <trkpt lat="42.7413680" lon="-7.1776680">
        <ele>1242.2</ele>
        <time>2021-10-04T15:52:40Z</time>
      </trkpt>
      <trkpt lat="42.7416880" lon="-7.1782270">
        <ele>1240.8</ele>
        <time>2021-10-04T15:52:45Z</time>
      </trkpt>
      <trkpt lat="42.7418180" lon="-7.1784420">
        <ele>1239.2</ele>
        <time>2021-10-04T15:52:47Z</time>
      </trkpt>
      <trkpt lat="42.7419610" lon="-7.1786350">
        <ele>1237.8</ele>
        <time>2021-10-04T15:52:49Z</time>
      </trkpt>
      <trkpt lat="42.7421210" lon="-7.1787930">
        <ele>1237.2</ele>
        <time>2021-10-04T15:52:51Z</time>
      </trkpt>
      <trkpt lat="42.7422960" lon="-7.1789170">
        <ele>1236.8</ele>
        <time>2021-10-04T15:52:53Z</time>
      </trkpt>
      <trkpt lat="42.7426450" lon="-7.1791320">
        <ele>1235.6</ele>
        <time>2021-10-04T15:52:57Z</time>
      </trkpt>
      <trkpt lat="42.7428770" lon="-7.1793460">
        <ele>1234.8</ele>
        <time>2021-10-04T15:53:00Z</time>
      </trkpt>
      <trkpt lat="42.7429430" lon="-7.1794340">
        <ele>1234.4</ele>
        <time>2021-10-04T15:53:01Z</time>
      </trkpt>
      <trkpt lat="42.7431080" lon="-7.1797380">
        <ele>1233.2</ele>
        <time>2021-10-04T15:53:04Z</time>
      </trkpt>
      <trkpt lat="42.7432310" lon="-7.1802110">
        <ele>1231.8</ele>
        <time>2021-10-04T15:53:08Z</time>
      </trkpt>
      <trkpt lat="42.7432410" lon="-7.1805950">
        <ele>1230.6</ele>
        <time>2021-10-04T15:53:11Z</time>
      </trkpt>
      <trkpt lat="42.7431370" lon="-7.1810950">
        <ele>1230.2</ele>
        <time>2021-10-04T15:53:15Z</time>
      </trkpt>
      <trkpt lat="42.7430140" lon="-7.1814470">
        <ele>1229.6</ele>
        <time>2021-10-04T15:53:18Z</time>
      </trkpt>
      <trkpt lat="42.7428120" lon="-7.1820300">
        <ele>1228.4</ele>
        <time>2021-10-04T15:53:23Z</time>
      </trkpt>
      <trkpt lat="42.7427150" lon="-7.1823870">
        <ele>1228.0</ele>
        <time>2021-10-04T15:53:26Z</time>
      </trkpt>
      <trkpt lat="42.7426810" lon="-7.1827660">
        <ele>1227.2</ele>
        <time>2021-10-04T15:53:29Z</time>
      </trkpt>
      <trkpt lat="42.7427590" lon="-7.1832820">
        <ele>1226.0</ele>
        <time>2021-10-04T15:53:33Z</time>
      </trkpt>
      <trkpt lat="42.7428380" lon="-7.1835260">
        <ele>1225.0</ele>
        <time>2021-10-04T15:53:35Z</time>
      </trkpt>
      <trkpt lat="42.7428840" lon="-7.1836440">
        <ele>1225.0</ele>
        <time>2021-10-04T15:53:36Z</time>
      </trkpt>
      <trkpt lat="42.7430810" lon="-7.1841030">
        <ele>1223.4</ele>
        <time>2021-10-04T15:53:40Z</time>
      </trkpt>
      <trkpt lat="42.7431270" lon="-7.1842170">
        <ele>1222.2</ele>
        <time>2021-10-04T15:53:41Z</time>
      </trkpt>
      <trkpt lat="42.7432050" lon="-7.1844500">
        <ele>1221.0</ele>
        <time>2021-10-04T15:53:43Z</time>
      </trkpt>
      <trkpt lat="42.7432340" lon="-7.1845720">
        <ele>1220.8</ele>
        <time>2021-10-04T15:53:44Z</time>
      </trkpt>
      <trkpt lat="42.7432680" lon="-7.1849590">
        <ele>1219.6</ele>
        <time>2021-10-04T15:53:47Z</time>
      </trkpt>
      <trkpt lat="42.7432590" lon="-7.1852280">
        <ele>1218.8</ele>
        <time>2021-10-04T15:53:49Z</time>
      </trkpt>
      <trkpt lat="42.7432510" lon="-7.1853640">
        <ele>1218.4</ele>
        <time>2021-10-04T15:53:50Z</time>
      </trkpt>
      <trkpt lat="42.7432250" lon="-7.1859080">
        <ele>1217.0</ele>
        <time>2021-10-04T15:53:54Z</time>
      </trkpt>
      <trkpt lat="42.7432680" lon="-7.1864340">
        <ele>1216.0</ele>
        <time>2021-10-04T15:53:58Z</time>
      </trkpt>
      <trkpt lat="42.7433070" lon="-7.1868130">
        <ele>1215.0</ele>
        <time>2021-10-04T15:54:01Z</time>
      </trkpt>
      <trkpt lat="42.7433180" lon="-7.1871780">
        <ele>1214.6</ele>
        <time>2021-10-04T15:54:04Z</time>
      </trkpt>
      <trkpt lat="42.7432790" lon="-7.1875240">
        <ele>1213.8</ele>
        <time>2021-10-04T15:54:07Z</time>
      </trkpt>
      <trkpt lat="42.7432510" lon="-7.1876320">
        <ele>1213.6</ele>
        <time>2021-10-04T15:54:08Z</time>
      </trkpt>
      <trkpt lat="42.7430540" lon="-7.1879840">
        <ele>1213.2</ele>
        <time>2021-10-04T15:54:12Z</time>
      </trkpt>
      <trkpt lat="42.7428610" lon="-7.1881800">
        <ele>1212.4</ele>
        <time>2021-10-04T15:54:15Z</time>
      </trkpt>
      <trkpt lat="42.7427220" lon="-7.1882970">
        <ele>1211.2</ele>
        <time>2021-10-04T15:54:17Z</time>
      </trkpt>
      <trkpt lat="42.7425810" lon="-7.1884190">
        <ele>1210.2</ele>
        <time>2021-10-04T15:54:19Z</time>
      </trkpt>
      <trkpt lat="42.7423650" lon="-7.1886160">
        <ele>1208.6</ele>
        <time>2021-10-04T15:54:22Z</time>
      </trkpt>
      <trkpt lat="42.7421390" lon="-7.1888120">
        <ele>1207.4</ele>
        <time>2021-10-04T15:54:25Z</time>
      </trkpt>
      <trkpt lat="42.7418260" lon="-7.1890800">
        <ele>1206.0</ele>
        <time>2021-10-04T15:54:29Z</time>
      </trkpt>
      <trkpt lat="42.7416670" lon="-7.1892120">
        <ele>1205.0</ele>
        <time>2021-10-04T15:54:31Z</time>
      </trkpt>
      <trkpt lat="42.7413330" lon="-7.1894390">
        <ele>1203.8</ele>
        <time>2021-10-04T15:54:35Z</time>
      </trkpt>
      <trkpt lat="42.7411560" lon="-7.1895320">
        <ele>1202.6</ele>
        <time>2021-10-04T15:54:37Z</time>
      </trkpt>
      <trkpt lat="42.7409760" lon="-7.1896110">
        <ele>1201.2</ele>
        <time>2021-10-04T15:54:39Z</time>
      </trkpt>
      <trkpt lat="42.7406230" lon="-7.1897510">
        <ele>1200.0</ele>
        <time>2021-10-04T15:54:43Z</time>
      </trkpt>
      <trkpt lat="42.7404490" lon="-7.1898110">
        <ele>1199.0</ele>
        <time>2021-10-04T15:54:45Z</time>
      </trkpt>
      <trkpt lat="42.7402750" lon="-7.1898610">
        <ele>1197.2</ele>
        <time>2021-10-04T15:54:47Z</time>
      </trkpt>
      <trkpt lat="42.7400990" lon="-7.1899030">
        <ele>1196.0</ele>
        <time>2021-10-04T15:54:49Z</time>
      </trkpt>
      <trkpt lat="42.7398290" lon="-7.1899550">
        <ele>1194.8</ele>
        <time>2021-10-04T15:54:52Z</time>
      </trkpt>
      <trkpt lat="42.7394580" lon="-7.1900130">
        <ele>1193.8</ele>
        <time>2021-10-04T15:54:56Z</time>
      </trkpt>
      <trkpt lat="42.7393660" lon="-7.1900230">
        <ele>1193.8</ele>
        <time>2021-10-04T15:54:57Z</time>
      </trkpt>
      <trkpt lat="42.7390830" lon="-7.1900500">
        <ele>1193.2</ele>
        <time>2021-10-04T15:55:00Z</time>
      </trkpt>
      <trkpt lat="42.7389860" lon="-7.1900580">
        <ele>1192.4</ele>
        <time>2021-10-04T15:55:01Z</time>
      </trkpt>
      <trkpt lat="42.7388880" lon="-7.1900630">
        <ele>1191.0</ele>
        <time>2021-10-04T15:55:02Z</time>
      </trkpt>
      <trkpt lat="42.7387900" lon="-7.1900650">
        <ele>1189.6</ele>
        <time>2021-10-04T15:55:03Z</time>
      </trkpt>
      <trkpt lat="42.7386910" lon="-7.1900640">
        <ele>1188.6</ele>
        <time>2021-10-04T15:55:04Z</time>
      </trkpt>
      <trkpt lat="42.7385910" lon="-7.1900590">
        <ele>1187.4</ele>
        <time>2021-10-04T15:55:05Z</time>
      </trkpt>
      <trkpt lat="42.7383870" lon="-7.1900390">
        <ele>1185.8</ele>
        <time>2021-10-04T15:55:07Z</time>
      </trkpt>
      <trkpt lat="42.7382830" lon="-7.1900200">
        <ele>1184.6</ele>
        <time>2021-10-04T15:55:08Z</time>
      </trkpt>
      <trkpt lat="42.7381780" lon="-7.1899930">
        <ele>1183.4</ele>
        <time>2021-10-04T15:55:09Z</time>
      </trkpt>
      <trkpt lat="42.7380730" lon="-7.1899570">
        <ele>1182.2</ele>
        <time>2021-10-04T15:55:10Z</time>
      </trkpt>
      <trkpt lat="42.7378620" lon="-7.1898680">
        <ele>1180.8</ele>
        <time>2021-10-04T15:55:12Z</time>
      </trkpt>
      <trkpt lat="42.7374420" lon="-7.1896430">
        <ele>1179.8</ele>
        <time>2021-10-04T15:55:16Z</time>
      </trkpt>
      <trkpt lat="42.7373430" lon="-7.1895730">
        <ele>1178.2</ele>
        <time>2021-10-04T15:55:17Z</time>
      </trkpt>
      <trkpt lat="42.7372450" lon="-7.1895030">
        <ele>1177.0</ele>
        <time>2021-10-04T15:55:18Z</time>
      </trkpt>
      <trkpt lat="42.7370510" lon="-7.1893550">
        <ele>1175.4</ele>
        <time>2021-10-04T15:55:20Z</time>
      </trkpt>
      <trkpt lat="42.7369540" lon="-7.1892740">
        <ele>1173.0</ele>
        <time>2021-10-04T15:55:21Z</time>
      </trkpt>
      <trkpt lat="42.7368570" lon="-7.1891900">
        <ele>1170.8</ele>
        <time>2021-10-04T15:55:22Z</time>
      </trkpt>
      <trkpt lat="42.7367590" lon="-7.1891040">
        <ele>1168.4</ele>
        <time>2021-10-04T15:55:23Z</time>
      </trkpt>
      <trkpt lat="42.7366580" lon="-7.1890180">
        <ele>1165.4</ele>
        <time>2021-10-04T15:55:24Z</time>
      </trkpt>
      <trkpt lat="42.7365530" lon="-7.1889340">
        <ele>1163.4</ele>
        <time>2021-10-04T15:55:25Z</time>
      </trkpt>
      <trkpt lat="42.7364410" lon="-7.1888600">
        <ele>1162.4</ele>
        <time>2021-10-04T15:55:26Z</time>
      </trkpt>
      <trkpt lat="42.7363220" lon="-7.1888030">
        <ele>1161.8</ele>
        <time>2021-10-04T15:55:27Z</time>
      </trkpt>
      <trkpt lat="42.7360630" lon="-7.1887740">
        <ele>1161.2</ele>
        <time>2021-10-04T15:55:29Z</time>
      </trkpt>
      <trkpt lat="42.7359330" lon="-7.1888190">
        <ele>1160.6</ele>
        <time>2021-10-04T15:55:30Z</time>
      </trkpt>
      <trkpt lat="42.7356150" lon="-7.1891690">
        <ele>1159.4</ele>
        <time>2021-10-04T15:55:33Z</time>
      </trkpt>
      <trkpt lat="42.7355550" lon="-7.1893450">
        <ele>1158.2</ele>
        <time>2021-10-04T15:55:34Z</time>
      </trkpt>
      <trkpt lat="42.7355260" lon="-7.1897380">
        <ele>1155.8</ele>
        <time>2021-10-04T15:55:36Z</time>
      </trkpt>
      <trkpt lat="42.7355620" lon="-7.1899350">
        <ele>1154.8</ele>
        <time>2021-10-04T15:55:37Z</time>
      </trkpt>
      <trkpt lat="42.7356340" lon="-7.1901160">
        <ele>1153.6</ele>
        <time>2021-10-04T15:55:38Z</time>
      </trkpt>
      <trkpt lat="42.7357340" lon="-7.1902710">
        <ele>1152.4</ele>
        <time>2021-10-04T15:55:39Z</time>
      </trkpt>
      <trkpt lat="42.7358550" lon="-7.1903940">
        <ele>1151.4</ele>
        <time>2021-10-04T15:55:40Z</time>
      </trkpt>
      <trkpt lat="42.7359900" lon="-7.1904890">
        <ele>1150.0</ele>
        <time>2021-10-04T15:55:41Z</time>
      </trkpt>
      <trkpt lat="42.7361330" lon="-7.1905640">
        <ele>1148.0</ele>
        <time>2021-10-04T15:55:42Z</time>
      </trkpt>
      <trkpt lat="42.7362760" lon="-7.1906360">
        <ele>1146.6</ele>
        <time>2021-10-04T15:55:43Z</time>
      </trkpt>
      <trkpt lat="42.7365560" lon="-7.1908050">
        <ele>1144.2</ele>
        <time>2021-10-04T15:55:45Z</time>
      </trkpt>
      <trkpt lat="42.7366860" lon="-7.1909140">
        <ele>1141.8</ele>
        <time>2021-10-04T15:55:46Z</time>
      </trkpt>
      <trkpt lat="42.7368100" lon="-7.1910380">
        <ele>1139.6</ele>
        <time>2021-10-04T15:55:47Z</time>
      </trkpt>
      <trkpt lat="42.7369270" lon="-7.1911780">
        <ele>1138.2</ele>
        <time>2021-10-04T15:55:48Z</time>
      </trkpt>
      <trkpt lat="42.7370370" lon="-7.1913290">
        <ele>1136.8</ele>
        <time>2021-10-04T15:55:49Z</time>
      </trkpt>
      <trkpt lat="42.7371430" lon="-7.1914840">
        <ele>1136.4</ele>
        <time>2021-10-04T15:55:50Z</time>
      </trkpt>
      <trkpt lat="42.7374410" lon="-7.1919600">
        <ele>1135.6</ele>
        <time>2021-10-04T15:55:53Z</time>
      </trkpt>
      <trkpt lat="42.7376400" lon="-7.1922720">
        <ele>1134.4</ele>
        <time>2021-10-04T15:55:55Z</time>
      </trkpt>
      <trkpt lat="42.7377390" lon="-7.1924310">
        <ele>1133.2</ele>
        <time>2021-10-04T15:55:56Z</time>
      </trkpt>
      <trkpt lat="42.7378350" lon="-7.1925900">
        <ele>1130.2</ele>
        <time>2021-10-04T15:55:57Z</time>
      </trkpt>
      <trkpt lat="42.7379300" lon="-7.1927550">
        <ele>1127.6</ele>
        <time>2021-10-04T15:55:58Z</time>
      </trkpt>
      <trkpt lat="42.7380220" lon="-7.1929220">
        <ele>1126.0</ele>
        <time>2021-10-04T15:55:59Z</time>
      </trkpt>
      <trkpt lat="42.7381930" lon="-7.1932630">
        <ele>1124.4</ele>
        <time>2021-10-04T15:56:01Z</time>
      </trkpt>
      <trkpt lat="42.7383430" lon="-7.1936220">
        <ele>1123.2</ele>
        <time>2021-10-04T15:56:03Z</time>
      </trkpt>
      <trkpt lat="42.7384140" lon="-7.1938050">
        <ele>1121.6</ele>
        <time>2021-10-04T15:56:04Z</time>
      </trkpt>
      <trkpt lat="42.7384830" lon="-7.1939890">
        <ele>1120.0</ele>
        <time>2021-10-04T15:56:05Z</time>
      </trkpt>
      <trkpt lat="42.7385490" lon="-7.1941750">
        <ele>1117.6</ele>
        <time>2021-10-04T15:56:06Z</time>
      </trkpt>
      <trkpt lat="42.7386130" lon="-7.1943640">
        <ele>1115.2</ele>
        <time>2021-10-04T15:56:07Z</time>
      </trkpt>
      <trkpt lat="42.7386760" lon="-7.1945570">
        <ele>1113.0</ele>
        <time>2021-10-04T15:56:08Z</time>
      </trkpt>
      <trkpt lat="42.7387380" lon="-7.1947520">
        <ele>1111.4</ele>
        <time>2021-10-04T15:56:09Z</time>
      </trkpt>
      <trkpt lat="42.7388000" lon="-7.1949490">
        <ele>1109.8</ele>
        <time>2021-10-04T15:56:10Z</time>
      </trkpt>
      <trkpt lat="42.7388630" lon="-7.1951470">
        <ele>1108.8</ele>
        <time>2021-10-04T15:56:11Z</time>
      </trkpt>
      <trkpt lat="42.7389280" lon="-7.1953450">
        <ele>1107.4</ele>
        <time>2021-10-04T15:56:12Z</time>
      </trkpt>
      <trkpt lat="42.7390580" lon="-7.1957410">
        <ele>1106.0</ele>
        <time>2021-10-04T15:56:14Z</time>
      </trkpt>
      <trkpt lat="42.7391880" lon="-7.1961370">
        <ele>1104.6</ele>
        <time>2021-10-04T15:56:16Z</time>
      </trkpt>
      <trkpt lat="42.7393180" lon="-7.1965370">
        <ele>1103.4</ele>
        <time>2021-10-04T15:56:18Z</time>
      </trkpt>
      <trkpt lat="42.7394700" lon="-7.1969250">
        <ele>1101.4</ele>
        <time>2021-10-04T15:56:20Z</time>
      </trkpt>
      <trkpt lat="42.7395650" lon="-7.1971020">
        <ele>1100.4</ele>
        <time>2021-10-04T15:56:21Z</time>
      </trkpt>
      <trkpt lat="42.7396770" lon="-7.1972580">
        <ele>1098.0</ele>
        <time>2021-10-04T15:56:22Z</time>
      </trkpt>
      <trkpt lat="42.7398010" lon="-7.1973970">
        <ele>1095.8</ele>
        <time>2021-10-04T15:56:23Z</time>
      </trkpt>
      <trkpt lat="42.7399310" lon="-7.1975240">
        <ele>1095.0</ele>
        <time>2021-10-04T15:56:24Z</time>
      </trkpt>
      <trkpt lat="42.7400630" lon="-7.1976450">
        <ele>1094.2</ele>
        <time>2021-10-04T15:56:25Z</time>
      </trkpt>
      <trkpt lat="42.7401960" lon="-7.1977640">
        <ele>1092.2</ele>
        <time>2021-10-04T15:56:26Z</time>
      </trkpt>
      <trkpt lat="42.7403280" lon="-7.1978850">
        <ele>1090.6</ele>
        <time>2021-10-04T15:56:27Z</time>
      </trkpt>
      <trkpt lat="42.7404600" lon="-7.1980040">
        <ele>1089.2</ele>
        <time>2021-10-04T15:56:28Z</time>
      </trkpt>
      <trkpt lat="42.7405940" lon="-7.1981230">
        <ele>1087.8</ele>
        <time>2021-10-04T15:56:29Z</time>
      </trkpt>
      <trkpt lat="42.7407280" lon="-7.1982430">
        <ele>1086.6</ele>
        <time>2021-10-04T15:56:30Z</time>
      </trkpt>
      <trkpt lat="42.7408620" lon="-7.1983640">
        <ele>1085.2</ele>
        <time>2021-10-04T15:56:31Z</time>
      </trkpt>
      <trkpt lat="42.7409960" lon="-7.1984840">
        <ele>1083.2</ele>
        <time>2021-10-04T15:56:32Z</time>
      </trkpt>
      <trkpt lat="42.7411280" lon="-7.1986060">
        <ele>1081.8</ele>
        <time>2021-10-04T15:56:33Z</time>
      </trkpt>
      <trkpt lat="42.7412610" lon="-7.1987270">
        <ele>1080.8</ele>
        <time>2021-10-04T15:56:34Z</time>
      </trkpt>
      <trkpt lat="42.7415270" lon="-7.1989690">
        <ele>1079.6</ele>
        <time>2021-10-04T15:56:36Z</time>
      </trkpt>
      <trkpt lat="42.7416600" lon="-7.1990870">
        <ele>1078.4</ele>
        <time>2021-10-04T15:56:37Z</time>
      </trkpt>
      <trkpt lat="42.7417940" lon="-7.1992050">
        <ele>1077.2</ele>
        <time>2021-10-04T15:56:38Z</time>
      </trkpt>
      <trkpt lat="42.7419270" lon="-7.1993250">
        <ele>1075.4</ele>
        <time>2021-10-04T15:56:39Z</time>
      </trkpt>
      <trkpt lat="42.7420590" lon="-7.1994450">
        <ele>1074.2</ele>
        <time>2021-10-04T15:56:40Z</time>
      </trkpt>
      <trkpt lat="42.7423220" lon="-7.1996960">
        <ele>1073.0</ele>
        <time>2021-10-04T15:56:42Z</time>
      </trkpt>
      <trkpt lat="42.7425640" lon="-7.1999840">
        <ele>1071.0</ele>
        <time>2021-10-04T15:56:44Z</time>
      </trkpt>
      <trkpt lat="42.7426700" lon="-7.2001490">
        <ele>1070.0</ele>
        <time>2021-10-04T15:56:45Z</time>
      </trkpt>
      <trkpt lat="42.7427600" lon="-7.2003270">
        <ele>1069.4</ele>
        <time>2021-10-04T15:56:46Z</time>
      </trkpt>
      <trkpt lat="42.7428310" lon="-7.2005190">
        <ele>1067.8</ele>
        <time>2021-10-04T15:56:47Z</time>
      </trkpt>
      <trkpt lat="42.7429050" lon="-7.2009220">
        <ele>1065.6</ele>
        <time>2021-10-04T15:56:49Z</time>
      </trkpt>
      <trkpt lat="42.7429040" lon="-7.2013140">
        <ele>1064.2</ele>
        <time>2021-10-04T15:56:51Z</time>
      </trkpt>
      <trkpt lat="42.7428820" lon="-7.2015010">
        <ele>1057.6</ele>
        <time>2021-10-04T15:56:52Z</time>
      </trkpt>
      <trkpt lat="42.7427910" lon="-7.2018430">
        <ele>1055.4</ele>
        <time>2021-10-04T15:56:54Z</time>
      </trkpt>
      <trkpt lat="42.7427230" lon="-7.2019970">
        <ele>1052.4</ele>
        <time>2021-10-04T15:56:55Z</time>
      </trkpt>
      <trkpt lat="42.7426450" lon="-7.2021370">
        <ele>1049.6</ele>
        <time>2021-10-04T15:56:56Z</time>
      </trkpt>
      <trkpt lat="42.7425580" lon="-7.2022620">
        <ele>1044.4</ele>
        <time>2021-10-04T15:56:57Z</time>
      </trkpt>
      <trkpt lat="42.7424630" lon="-7.2023740">
        <ele>1043.2</ele>
        <time>2021-10-04T15:56:58Z</time>
      </trkpt>
      <trkpt lat="42.7423620" lon="-7.2024710">
        <ele>1042.2</ele>
        <time>2021-10-04T15:56:59Z</time>
      </trkpt>
      <trkpt lat="42.7421400" lon="-7.2026210">
        <ele>1040.8</ele>
        <time>2021-10-04T15:57:01Z</time>
      </trkpt>
      <trkpt lat="42.7418990" lon="-7.2027090">
        <ele>1039.6</ele>
        <time>2021-10-04T15:57:03Z</time>
      </trkpt>
      <trkpt lat="42.7417740" lon="-7.2027260">
        <ele>1038.6</ele>
        <time>2021-10-04T15:57:04Z</time>
      </trkpt>
      <trkpt lat="42.7415200" lon="-7.2027060">
        <ele>1037.6</ele>
        <time>2021-10-04T15:57:06Z</time>
      </trkpt>
      <trkpt lat="42.7413940" lon="-7.2026730">
        <ele>1036.8</ele>
        <time>2021-10-04T15:57:07Z</time>
      </trkpt>
      <trkpt lat="42.7412680" lon="-7.2026280">
        <ele>1036.0</ele>
        <time>2021-10-04T15:57:08Z</time>
      </trkpt>
      <trkpt lat="42.7411440" lon="-7.2025760">
        <ele>1035.4</ele>
        <time>2021-10-04T15:57:09Z</time>
      </trkpt>
      <trkpt lat="42.7410210" lon="-7.2025170">
        <ele>1035.0</ele>
        <time>2021-10-04T15:57:10Z</time>
      </trkpt>
      <trkpt lat="42.7406550" lon="-7.2023330">
        <ele>1033.4</ele>
        <time>2021-10-04T15:57:13Z</time>
      </trkpt>
      <trkpt lat="42.7405310" lon="-7.2022770">
        <ele>1032.4</ele>
        <time>2021-10-04T15:57:14Z</time>
      </trkpt>
      <trkpt lat="42.7402860" lon="-7.2021590">
        <ele>1031.2</ele>
        <time>2021-10-04T15:57:16Z</time>
      </trkpt>
      <trkpt lat="42.7400410" lon="-7.2020390">
        <ele>1029.4</ele>
        <time>2021-10-04T15:57:18Z</time>
      </trkpt>
      <trkpt lat="42.7399170" lon="-7.2019800">
        <ele>1028.2</ele>
        <time>2021-10-04T15:57:19Z</time>
      </trkpt>
      <trkpt lat="42.7396690" lon="-7.2018530">
        <ele>1026.8</ele>
        <time>2021-10-04T15:57:21Z</time>
      </trkpt>
      <trkpt lat="42.7394170" lon="-7.2017390">
        <ele>1025.4</ele>
        <time>2021-10-04T15:57:23Z</time>
      </trkpt>
      <trkpt lat="42.7391660" lon="-7.2016160">
        <ele>1023.8</ele>
        <time>2021-10-04T15:57:25Z</time>
      </trkpt>
      <trkpt lat="42.7389140" lon="-7.2014840">
        <ele>1022.2</ele>
        <time>2021-10-04T15:57:27Z</time>
      </trkpt>
      <trkpt lat="42.7387930" lon="-7.2014000">
        <ele>1021.6</ele>
        <time>2021-10-04T15:57:28Z</time>
      </trkpt>
      <trkpt lat="42.7386840" lon="-7.2012910">
        <ele>1020.8</ele>
        <time>2021-10-04T15:57:29Z</time>
      </trkpt>
      <trkpt lat="42.7385890" lon="-7.2011570">
        <ele>1019.6</ele>
        <time>2021-10-04T15:57:30Z</time>
      </trkpt>
      <trkpt lat="42.7385090" lon="-7.2010070">
        <ele>1017.0</ele>
        <time>2021-10-04T15:57:31Z</time>
      </trkpt>
      <trkpt lat="42.7383930" lon="-7.2006640">
        <ele>1015.4</ele>
        <time>2021-10-04T15:57:33Z</time>
      </trkpt>
      <trkpt lat="42.7383490" lon="-7.2004820">
        <ele>1014.6</ele>
        <time>2021-10-04T15:57:34Z</time>
      </trkpt>
      <trkpt lat="42.7383010" lon="-7.2003010">
        <ele>1013.8</ele>
        <time>2021-10-04T15:57:35Z</time>
      </trkpt>
      <trkpt lat="42.7382410" lon="-7.2001250">
        <ele>1012.6</ele>
        <time>2021-10-04T15:57:36Z</time>
      </trkpt>
      <trkpt lat="42.7380540" lon="-7.1998350">
        <ele>1011.4</ele>
        <time>2021-10-04T15:57:38Z</time>
      </trkpt>
      <trkpt lat="42.7377910" lon="-7.1996750">
        <ele>1009.6</ele>
        <time>2021-10-04T15:57:40Z</time>
      </trkpt>
      <trkpt lat="42.7376460" lon="-7.1996590">
        <ele>1008.0</ele>
        <time>2021-10-04T15:57:41Z</time>
      </trkpt>
      <trkpt lat="42.7375010" lon="-7.1996890">
        <ele>1006.0</ele>
        <time>2021-10-04T15:57:42Z</time>
      </trkpt>
      <trkpt lat="42.7373650" lon="-7.1997670">
        <ele>1004.4</ele>
        <time>2021-10-04T15:57:43Z</time>
      </trkpt>
      <trkpt lat="42.7372430" lon="-7.1998870">
        <ele>1003.0</ele>
        <time>2021-10-04T15:57:44Z</time>
      </trkpt>
      <trkpt lat="42.7371440" lon="-7.2000410">
        <ele>1001.8</ele>
        <time>2021-10-04T15:57:45Z</time>
      </trkpt>
      <trkpt lat="42.7370470" lon="-7.2004250">
        <ele>999.8</ele>
        <time>2021-10-04T15:57:47Z</time>
      </trkpt>
      <trkpt lat="42.7370460" lon="-7.2006250">
        <ele>998.6</ele>
        <time>2021-10-04T15:57:48Z</time>
      </trkpt>
      <trkpt lat="42.7370760" lon="-7.2008200">
        <ele>997.6</ele>
        <time>2021-10-04T15:57:49Z</time>
      </trkpt>
      <trkpt lat="42.7371370" lon="-7.2010010">
        <ele>996.2</ele>
        <time>2021-10-04T15:57:50Z</time>
      </trkpt>
      <trkpt lat="42.7372240" lon="-7.2011630">
        <ele>995.0</ele>
        <time>2021-10-04T15:57:51Z</time>
      </trkpt>
      <trkpt lat="42.7373240" lon="-7.2013100">
        <ele>994.0</ele>
        <time>2021-10-04T15:57:52Z</time>
      </trkpt>
      <trkpt lat="42.7374260" lon="-7.2014510">
        <ele>991.2</ele>
        <time>2021-10-04T15:57:53Z</time>
      </trkpt>
      <trkpt lat="42.7375260" lon="-7.2015920">
        <ele>989.2</ele>
        <time>2021-10-04T15:57:54Z</time>
      </trkpt>
      <trkpt lat="42.7376230" lon="-7.2017340">
        <ele>987.2</ele>
        <time>2021-10-04T15:57:55Z</time>
      </trkpt>
      <trkpt lat="42.7377140" lon="-7.2018810">
        <ele>985.8</ele>
        <time>2021-10-04T15:57:56Z</time>
      </trkpt>
      <trkpt lat="42.7378690" lon="-7.2021890">
        <ele>984.0</ele>
        <time>2021-10-04T15:57:58Z</time>
      </trkpt>
      <trkpt lat="42.7379970" lon="-7.2025070">
        <ele>982.2</ele>
        <time>2021-10-04T15:58:00Z</time>
      </trkpt>
      <trkpt lat="42.7380540" lon="-7.2026720">
        <ele>980.8</ele>
        <time>2021-10-04T15:58:01Z</time>
      </trkpt>
      <trkpt lat="42.7381080" lon="-7.2028390">
        <ele>979.4</ele>
        <time>2021-10-04T15:58:02Z</time>
      </trkpt>
      <trkpt lat="42.7382170" lon="-7.2031800">
        <ele>978.0</ele>
        <time>2021-10-04T15:58:04Z</time>
      </trkpt>
      <trkpt lat="42.7382710" lon="-7.2033550">
        <ele>974.4</ele>
        <time>2021-10-04T15:58:05Z</time>
      </trkpt>
      <trkpt lat="42.7383260" lon="-7.2035300">
        <ele>973.2</ele>
        <time>2021-10-04T15:58:06Z</time>
      </trkpt>
      <trkpt lat="42.7384350" lon="-7.2038850">
        <ele>971.6</ele>
        <time>2021-10-04T15:58:08Z</time>
      </trkpt>
      <trkpt lat="42.7384900" lon="-7.2040610">
        <ele>970.4</ele>
        <time>2021-10-04T15:58:09Z</time>
      </trkpt>
      <trkpt lat="42.7385450" lon="-7.2042370">
        <ele>969.4</ele>
        <time>2021-10-04T15:58:10Z</time>
      </trkpt>
      <trkpt lat="42.7386010" lon="-7.2044140">
        <ele>968.0</ele>
        <time>2021-10-04T15:58:11Z</time>
      </trkpt>
      <trkpt lat="42.7386580" lon="-7.2045910">
        <ele>966.6</ele>
        <time>2021-10-04T15:58:12Z</time>
      </trkpt>
      <trkpt lat="42.7387140" lon="-7.2047720">
        <ele>964.4</ele>
        <time>2021-10-04T15:58:13Z</time>
      </trkpt>
      <trkpt lat="42.7387700" lon="-7.2049540">
        <ele>962.4</ele>
        <time>2021-10-04T15:58:14Z</time>
      </trkpt>
      <trkpt lat="42.7388280" lon="-7.2051370">
        <ele>961.2</ele>
        <time>2021-10-04T15:58:15Z</time>
      </trkpt>
      <trkpt lat="42.7389500" lon="-7.2055050">
        <ele>960.0</ele>
        <time>2021-10-04T15:58:17Z</time>
      </trkpt>
      <trkpt lat="42.7392530" lon="-7.2062180">
        <ele>958.6</ele>
        <time>2021-10-04T15:58:21Z</time>
      </trkpt>
      <trkpt lat="42.7393450" lon="-7.2063880">
        <ele>957.4</ele>
        <time>2021-10-04T15:58:22Z</time>
      </trkpt>
      <trkpt lat="42.7394430" lon="-7.2065520">
        <ele>956.2</ele>
        <time>2021-10-04T15:58:23Z</time>
      </trkpt>
      <trkpt lat="42.7395470" lon="-7.2067120">
        <ele>955.0</ele>
        <time>2021-10-04T15:58:24Z</time>
      </trkpt>
      <trkpt lat="42.7396560" lon="-7.2068670">
        <ele>953.8</ele>
        <time>2021-10-04T15:58:25Z</time>
      </trkpt>
      <trkpt lat="42.7398900" lon="-7.2071490">
        <ele>952.6</ele>
        <time>2021-10-04T15:58:27Z</time>
      </trkpt>
      <trkpt lat="42.7401460" lon="-7.2073910">
        <ele>951.2</ele>
        <time>2021-10-04T15:58:29Z</time>
      </trkpt>
      <trkpt lat="42.7404140" lon="-7.2076080">
        <ele>949.4</ele>
        <time>2021-10-04T15:58:31Z</time>
      </trkpt>
      <trkpt lat="42.7405480" lon="-7.2077130">
        <ele>947.6</ele>
        <time>2021-10-04T15:58:32Z</time>
      </trkpt>
      <trkpt lat="42.7406840" lon="-7.2078140">
        <ele>945.6</ele>
        <time>2021-10-04T15:58:33Z</time>
      </trkpt>
      <trkpt lat="42.7408200" lon="-7.2079120">
        <ele>943.6</ele>
        <time>2021-10-04T15:58:34Z</time>
      </trkpt>
      <trkpt lat="42.7409580" lon="-7.2080080">
        <ele>942.0</ele>
        <time>2021-10-04T15:58:35Z</time>
      </trkpt>
      <trkpt lat="42.7410980" lon="-7.2081000">
        <ele>941.0</ele>
        <time>2021-10-04T15:58:36Z</time>
      </trkpt>
      <trkpt lat="42.7412440" lon="-7.2081790">
        <ele>940.2</ele>
        <time>2021-10-04T15:58:37Z</time>
      </trkpt>
      <trkpt lat="42.7413950" lon="-7.2082400">
        <ele>939.4</ele>
        <time>2021-10-04T15:58:38Z</time>
      </trkpt>
      <trkpt lat="42.7415500" lon="-7.2082790">
        <ele>938.4</ele>
        <time>2021-10-04T15:58:39Z</time>
      </trkpt>
      <trkpt lat="42.7417060" lon="-7.2082980">
        <ele>935.2</ele>
        <time>2021-10-04T15:58:40Z</time>
      </trkpt>
      <trkpt lat="42.7420190" lon="-7.2082610">
        <ele>933.8</ele>
        <time>2021-10-04T15:58:42Z</time>
      </trkpt>
      <trkpt lat="42.7423200" lon="-7.2081430">
        <ele>932.4</ele>
        <time>2021-10-04T15:58:44Z</time>
      </trkpt>
      <trkpt lat="42.7424660" lon="-7.2080680">
        <ele>930.8</ele>
        <time>2021-10-04T15:58:45Z</time>
      </trkpt>
      <trkpt lat="42.7426090" lon="-7.2079880">
        <ele>928.6</ele>
        <time>2021-10-04T15:58:46Z</time>
      </trkpt>
      <trkpt lat="42.7427520" lon="-7.2079120">
        <ele>926.4</ele>
        <time>2021-10-04T15:58:47Z</time>
      </trkpt>
      <trkpt lat="42.7428990" lon="-7.2078520">
        <ele>924.8</ele>
        <time>2021-10-04T15:58:48Z</time>
      </trkpt>
      <trkpt lat="42.7430490" lon="-7.2078250">
        <ele>923.6</ele>
        <time>2021-10-04T15:58:49Z</time>
      </trkpt>
      <trkpt lat="42.7433440" lon="-7.2079010">
        <ele>921.6</ele>
        <time>2021-10-04T15:58:51Z</time>
      </trkpt>
      <trkpt lat="42.7434780" lon="-7.2079930">
        <ele>920.4</ele>
        <time>2021-10-04T15:58:52Z</time>
      </trkpt>
      <trkpt lat="42.7435970" lon="-7.2081150">
        <ele>919.0</ele>
        <time>2021-10-04T15:58:53Z</time>
      </trkpt>
      <trkpt lat="42.7437040" lon="-7.2082560">
        <ele>917.6</ele>
        <time>2021-10-04T15:58:54Z</time>
      </trkpt>
      <trkpt lat="42.7438050" lon="-7.2084090">
        <ele>916.4</ele>
        <time>2021-10-04T15:58:55Z</time>
      </trkpt>
      <trkpt lat="42.7439030" lon="-7.2085640">
        <ele>915.0</ele>
        <time>2021-10-04T15:58:56Z</time>
      </trkpt>
      <trkpt lat="42.7440010" lon="-7.2087180">
        <ele>914.0</ele>
        <time>2021-10-04T15:58:57Z</time>
      </trkpt>
      <trkpt lat="42.7440980" lon="-7.2088720">
        <ele>912.8</ele>
        <time>2021-10-04T15:58:58Z</time>
      </trkpt>
      <trkpt lat="42.7441970" lon="-7.2090270">
        <ele>911.6</ele>
        <time>2021-10-04T15:58:59Z</time>
      </trkpt>
      <trkpt lat="42.7443970" lon="-7.2093390">
        <ele>910.2</ele>
        <time>2021-10-04T15:59:01Z</time>
      </trkpt>
      <trkpt lat="42.7444910" lon="-7.2094970">
        <ele>909.0</ele>
        <time>2021-10-04T15:59:02Z</time>
      </trkpt>
      <trkpt lat="42.7445760" lon="-7.2096610">
        <ele>907.4</ele>
        <time>2021-10-04T15:59:03Z</time>
      </trkpt>
      <trkpt lat="42.7446480" lon="-7.2098330">
        <ele>905.8</ele>
        <time>2021-10-04T15:59:04Z</time>
      </trkpt>
      <trkpt lat="42.7447060" lon="-7.2100130">
        <ele>904.4</ele>
        <time>2021-10-04T15:59:05Z</time>
      </trkpt>
      <trkpt lat="42.7447540" lon="-7.2101980">
        <ele>903.2</ele>
        <time>2021-10-04T15:59:06Z</time>
      </trkpt>
      <trkpt lat="42.7447980" lon="-7.2103860">
        <ele>902.0</ele>
        <time>2021-10-04T15:59:07Z</time>
      </trkpt>
      <trkpt lat="42.7448390" lon="-7.2105810">
        <ele>900.0</ele>
        <time>2021-10-04T15:59:08Z</time>
      </trkpt>
      <trkpt lat="42.7448800" lon="-7.2107810">
        <ele>898.0</ele>
        <time>2021-10-04T15:59:09Z</time>
      </trkpt>
      <trkpt lat="42.7449190" lon="-7.2109840">
        <ele>896.4</ele>
        <time>2021-10-04T15:59:10Z</time>
      </trkpt>
      <trkpt lat="42.7450080" lon="-7.2113920">
        <ele>894.8</ele>
        <time>2021-10-04T15:59:12Z</time>
      </trkpt>
      <trkpt lat="42.7450620" lon="-7.2115950">
        <ele>893.8</ele>
        <time>2021-10-04T15:59:13Z</time>
      </trkpt>
      <trkpt lat="42.7452760" lon="-7.2121800">
        <ele>892.4</ele>
        <time>2021-10-04T15:59:16Z</time>
      </trkpt>
      <trkpt lat="42.7454780" lon="-7.2125250">
        <ele>891.0</ele>
        <time>2021-10-04T15:59:18Z</time>
      </trkpt>
      <trkpt lat="42.7457210" lon="-7.2128190">
        <ele>888.6</ele>
        <time>2021-10-04T15:59:20Z</time>
      </trkpt>
      <trkpt lat="42.7458490" lon="-7.2129560">
        <ele>887.2</ele>
        <time>2021-10-04T15:59:21Z</time>
      </trkpt>
      <trkpt lat="42.7461060" lon="-7.2132270">
        <ele>884.8</ele>
        <time>2021-10-04T15:59:23Z</time>
      </trkpt>
      <trkpt lat="42.7462320" lon="-7.2133670">
        <ele>883.2</ele>
        <time>2021-10-04T15:59:24Z</time>
      </trkpt>
      <trkpt lat="42.7463540" lon="-7.2135130">
        <ele>882.0</ele>
        <time>2021-10-04T15:59:25Z</time>
      </trkpt>
      <trkpt lat="42.7464680" lon="-7.2136700">
        <ele>879.0</ele>
        <time>2021-10-04T15:59:26Z</time>
      </trkpt>
      <trkpt lat="42.7465710" lon="-7.2138380">
        <ele>876.4</ele>
        <time>2021-10-04T15:59:27Z</time>
      </trkpt>
      <trkpt lat="42.7466660" lon="-7.2140160">
        <ele>874.8</ele>
        <time>2021-10-04T15:59:28Z</time>
      </trkpt>
      <trkpt lat="42.7467550" lon="-7.2141970">
        <ele>873.2</ele>
        <time>2021-10-04T15:59:29Z</time>
      </trkpt>
      <trkpt lat="42.7468390" lon="-7.2143800">
        <ele>871.8</ele>
        <time>2021-10-04T15:59:30Z</time>
      </trkpt>
      <trkpt lat="42.7469190" lon="-7.2145610">
        <ele>870.4</ele>
        <time>2021-10-04T15:59:31Z</time>
      </trkpt>
      <trkpt lat="42.7469950" lon="-7.2147390">
        <ele>869.0</ele>
        <time>2021-10-04T15:59:32Z</time>
      </trkpt>
      <trkpt lat="42.7470700" lon="-7.2149130">
        <ele>867.6</ele>
        <time>2021-10-04T15:59:33Z</time>
      </trkpt>
      <trkpt lat="42.7471430" lon="-7.2150840">
        <ele>865.6</ele>
        <time>2021-10-04T15:59:34Z</time>
      </trkpt>
      <trkpt lat="42.7472130" lon="-7.2152560">
        <ele>864.2</ele>
        <time>2021-10-04T15:59:35Z</time>
      </trkpt>
      <trkpt lat="42.7472780" lon="-7.2154300">
        <ele>862.4</ele>
        <time>2021-10-04T15:59:36Z</time>
      </trkpt>
      <trkpt lat="42.7473340" lon="-7.2156080">
        <ele>860.6</ele>
        <time>2021-10-04T15:59:37Z</time>
      </trkpt>
      <trkpt lat="42.7473830" lon="-7.2157900">
        <ele>858.8</ele>
        <time>2021-10-04T15:59:38Z</time>
      </trkpt>
      <trkpt lat="42.7474260" lon="-7.2159750">
        <ele>857.6</ele>
        <time>2021-10-04T15:59:39Z</time>
      </trkpt>
      <trkpt lat="42.7474580" lon="-7.2161670">
        <ele>857.0</ele>
        <time>2021-10-04T15:59:40Z</time>
      </trkpt>
      <trkpt lat="42.7474950" lon="-7.2165690">
        <ele>856.6</ele>
        <time>2021-10-04T15:59:42Z</time>
      </trkpt>
      <trkpt lat="42.7475330" lon="-7.2169770">
        <ele>856.2</ele>
        <time>2021-10-04T15:59:44Z</time>
      </trkpt>
      <trkpt lat="42.7477580" lon="-7.2174890">
        <ele>855.4</ele>
        <time>2021-10-04T15:59:47Z</time>
      </trkpt>
      <trkpt lat="42.7479960" lon="-7.2177300">
        <ele>853.8</ele>
        <time>2021-10-04T15:59:49Z</time>
      </trkpt>
      <trkpt lat="42.7481220" lon="-7.2178420">
        <ele>852.2</ele>
        <time>2021-10-04T15:59:50Z</time>
      </trkpt>
      <trkpt lat="42.7482510" lon="-7.2179520">
        <ele>850.0</ele>
        <time>2021-10-04T15:59:51Z</time>
      </trkpt>
      <trkpt lat="42.7483810" lon="-7.2180600">
        <ele>848.8</ele>
        <time>2021-10-04T15:59:52Z</time>
      </trkpt>
      <trkpt lat="42.7485100" lon="-7.2181690">
        <ele>847.2</ele>
        <time>2021-10-04T15:59:53Z</time>
      </trkpt>
      <trkpt lat="42.7486380" lon="-7.2182750">
        <ele>846.2</ele>
        <time>2021-10-04T15:59:54Z</time>
      </trkpt>
      <trkpt lat="42.7487650" lon="-7.2183780">
        <ele>845.2</ele>
        <time>2021-10-04T15:59:55Z</time>
      </trkpt>
      <trkpt lat="42.7488900" lon="-7.2184790">
        <ele>844.0</ele>
        <time>2021-10-04T15:59:56Z</time>
      </trkpt>
      <trkpt lat="42.7490120" lon="-7.2185780">
        <ele>843.0</ele>
        <time>2021-10-04T15:59:57Z</time>
      </trkpt>
      <trkpt lat="42.7491340" lon="-7.2186770">
        <ele>839.6</ele>
        <time>2021-10-04T15:59:58Z</time>
      </trkpt>
      <trkpt lat="42.7492540" lon="-7.2187750">
        <ele>836.2</ele>
        <time>2021-10-04T15:59:59Z</time>
      </trkpt>
      <trkpt lat="42.7493730" lon="-7.2188730">
        <ele>833.4</ele>
        <time>2021-10-04T16:00:00Z</time>
      </trkpt>
      <trkpt lat="42.7494920" lon="-7.2189710">
        <ele>830.4</ele>
        <time>2021-10-04T16:00:01Z</time>
      </trkpt>
      <trkpt lat="42.7496120" lon="-7.2190680">
        <ele>828.6</ele>
        <time>2021-10-04T16:00:02Z</time>
      </trkpt>
      <trkpt lat="42.7498530" lon="-7.2192590">
        <ele>827.0</ele>
        <time>2021-10-04T16:00:04Z</time>
      </trkpt>
      <trkpt lat="42.7502050" lon="-7.2195830">
        <ele>825.8</ele>
        <time>2021-10-04T16:00:07Z</time>
      </trkpt>
      <trkpt lat="42.7504220" lon="-7.2198460">
        <ele>825.4</ele>
        <time>2021-10-04T16:00:09Z</time>
      </trkpt>
      <trkpt lat="42.7508360" lon="-7.2204130">
        <ele>825.0</ele>
        <time>2021-10-04T16:00:13Z</time>
      </trkpt>
      <trkpt lat="42.7509400" lon="-7.2205590">
        <ele>825.0</ele>
        <time>2021-10-04T16:00:14Z</time>
      </trkpt>
      <trkpt lat="42.7510440" lon="-7.2207090">
        <ele>824.8</ele>
        <time>2021-10-04T16:00:15Z</time>
      </trkpt>
      <trkpt lat="42.7511450" lon="-7.2208620">
        <ele>824.6</ele>
        <time>2021-10-04T16:00:16Z</time>
      </trkpt>
      <trkpt lat="42.7512400" lon="-7.2210200">
        <ele>822.4</ele>
        <time>2021-10-04T16:00:17Z</time>
      </trkpt>
      <trkpt lat="42.7513250" lon="-7.2211800">
        <ele>819.0</ele>
        <time>2021-10-04T16:00:18Z</time>
      </trkpt>
      <trkpt lat="42.7514030" lon="-7.2213400">
        <ele>816.6</ele>
        <time>2021-10-04T16:00:19Z</time>
      </trkpt>
      <trkpt lat="42.7514740" lon="-7.2215000">
        <ele>815.0</ele>
        <time>2021-10-04T16:00:20Z</time>
      </trkpt>
      <trkpt lat="42.7515390" lon="-7.2216590">
        <ele>814.0</ele>
        <time>2021-10-04T16:00:21Z</time>
      </trkpt>
      <trkpt lat="42.7516010" lon="-7.2218160">
        <ele>811.2</ele>
        <time>2021-10-04T16:00:22Z</time>
      </trkpt>
      <trkpt lat="42.7517160" lon="-7.2221260">
        <ele>810.0</ele>
        <time>2021-10-04T16:00:24Z</time>
      </trkpt>
      <trkpt lat="42.7518260" lon="-7.2224300">
        <ele>809.4</ele>
        <time>2021-10-04T16:00:26Z</time>
      </trkpt>
      <trkpt lat="42.7519430" lon="-7.2227190">
        <ele>809.2</ele>
        <time>2021-10-04T16:00:28Z</time>
      </trkpt>
      <trkpt lat="42.7521050" lon="-7.2231470">
        <ele>809.2</ele>
        <time>2021-10-04T16:00:31Z</time>
      </trkpt>
      <trkpt lat="42.7522780" lon="-7.2235510">
        <ele>809.4</ele>
        <time>2021-10-04T16:00:34Z</time>
      </trkpt>
      <trkpt lat="42.7523470" lon="-7.2236690">
        <ele>809.4</ele>
        <time>2021-10-04T16:00:35Z</time>
      </trkpt>
      <trkpt lat="42.7526890" lon="-7.2240120">
        <ele>810.0</ele>
        <time>2021-10-04T16:00:39Z</time>
      </trkpt>
      <trkpt lat="42.7531050" lon="-7.2241530">
        <ele>810.2</ele>
        <time>2021-10-04T16:00:43Z</time>
      </trkpt>
      <trkpt lat="42.7536580" lon="-7.2242400">
        <ele>809.4</ele>
        <time>2021-10-04T16:00:48Z</time>
      </trkpt>
      <trkpt lat="42.7538820" lon="-7.2243250">
        <ele>808.6</ele>
        <time>2021-10-04T16:00:50Z</time>
      </trkpt>
      <trkpt lat="42.7540990" lon="-7.2244610">
        <ele>807.4</ele>
        <time>2021-10-04T16:00:52Z</time>
      </trkpt>
      <trkpt lat="42.7543130" lon="-7.2246410">
        <ele>806.0</ele>
        <time>2021-10-04T16:00:54Z</time>
      </trkpt>
      <trkpt lat="42.7545240" lon="-7.2248470">
        <ele>803.6</ele>
        <time>2021-10-04T16:00:56Z</time>
      </trkpt>
      <trkpt lat="42.7546290" lon="-7.2249540">
        <ele>802.0</ele>
        <time>2021-10-04T16:00:57Z</time>
      </trkpt>
      <trkpt lat="42.7548380" lon="-7.2251690">
        <ele>800.8</ele>
        <time>2021-10-04T16:00:59Z</time>
      </trkpt>
      <trkpt lat="42.7551720" lon="-7.2254710">
        <ele>799.4</ele>
        <time>2021-10-04T16:01:02Z</time>
      </trkpt>
      <trkpt lat="42.7554050" lon="-7.2256720">
        <ele>797.4</ele>
        <time>2021-10-04T16:01:04Z</time>
      </trkpt>
      <trkpt lat="42.7555270" lon="-7.2257680">
        <ele>796.0</ele>
        <time>2021-10-04T16:01:05Z</time>
      </trkpt>
      <trkpt lat="42.7557830" lon="-7.2259370">
        <ele>794.4</ele>
        <time>2021-10-04T16:01:07Z</time>
      </trkpt>
      <trkpt lat="42.7560580" lon="-7.2260610">
        <ele>793.6</ele>
        <time>2021-10-04T16:01:09Z</time>
      </trkpt>
      <trkpt lat="42.7562030" lon="-7.2260970">
        <ele>793.4</ele>
        <time>2021-10-04T16:01:10Z</time>
      </trkpt>
      <trkpt lat="42.7565040" lon="-7.2261080">
        <ele>791.4</ele>
        <time>2021-10-04T16:01:12Z</time>
      </trkpt>
      <trkpt lat="42.7566570" lon="-7.2260870">
        <ele>789.8</ele>
        <time>2021-10-04T16:01:13Z</time>
      </trkpt>
      <trkpt lat="42.7568090" lon="-7.2260490">
        <ele>788.2</ele>
        <time>2021-10-04T16:01:14Z</time>
      </trkpt>
      <trkpt lat="42.7569620" lon="-7.2259940">
        <ele>786.8</ele>
        <time>2021-10-04T16:01:15Z</time>
      </trkpt>
      <trkpt lat="42.7572600" lon="-7.2258310">
        <ele>785.0</ele>
        <time>2021-10-04T16:01:17Z</time>
      </trkpt>
      <trkpt lat="42.7575410" lon="-7.2255950">
        <ele>783.2</ele>
        <time>2021-10-04T16:01:19Z</time>
      </trkpt>
      <trkpt lat="42.7576770" lon="-7.2254630">
        <ele>782.2</ele>
        <time>2021-10-04T16:01:20Z</time>
      </trkpt>
      <trkpt lat="42.7578170" lon="-7.2253400">
        <ele>781.0</ele>
        <time>2021-10-04T16:01:21Z</time>
      </trkpt>
      <trkpt lat="42.7579680" lon="-7.2252460">
        <ele>779.6</ele>
        <time>2021-10-04T16:01:22Z</time>
      </trkpt>
      <trkpt lat="42.7581240" lon="-7.2251940">
        <ele>778.2</ele>
        <time>2021-10-04T16:01:23Z</time>
      </trkpt>
      <trkpt lat="42.7582720" lon="-7.2251810">
        <ele>776.6</ele>
        <time>2021-10-04T16:01:24Z</time>
      </trkpt>
      <trkpt lat="42.7584130" lon="-7.2252080">
        <ele>775.2</ele>
        <time>2021-10-04T16:01:25Z</time>
      </trkpt>
      <trkpt lat="42.7585460" lon="-7.2252730">
        <ele>774.2</ele>
        <time>2021-10-04T16:01:26Z</time>
      </trkpt>
      <trkpt lat="42.7586680" lon="-7.2253720">
        <ele>772.8</ele>
        <time>2021-10-04T16:01:27Z</time>
      </trkpt>
      <trkpt lat="42.7587710" lon="-7.2255050">
        <ele>771.2</ele>
        <time>2021-10-04T16:01:28Z</time>
      </trkpt>
      <trkpt lat="42.7588500" lon="-7.2256640">
        <ele>770.4</ele>
        <time>2021-10-04T16:01:29Z</time>
      </trkpt>
      <trkpt lat="42.7589020" lon="-7.2258390">
        <ele>767.8</ele>
        <time>2021-10-04T16:01:30Z</time>
      </trkpt>
      <trkpt lat="42.7589240" lon="-7.2260200">
        <ele>766.2</ele>
        <time>2021-10-04T16:01:31Z</time>
      </trkpt>
      <trkpt lat="42.7589230" lon="-7.2261960">
        <ele>765.4</ele>
        <time>2021-10-04T16:01:32Z</time>
      </trkpt>
      <trkpt lat="42.7589080" lon="-7.2263660">
        <ele>763.8</ele>
        <time>2021-10-04T16:01:33Z</time>
      </trkpt>
      <trkpt lat="42.7588850" lon="-7.2265290">
        <ele>762.2</ele>
        <time>2021-10-04T16:01:34Z</time>
      </trkpt>
      <trkpt lat="42.7588580" lon="-7.2266880">
        <ele>758.8</ele>
        <time>2021-10-04T16:01:35Z</time>
      </trkpt>
      <trkpt lat="42.7588320" lon="-7.2268420">
        <ele>756.4</ele>
        <time>2021-10-04T16:01:36Z</time>
      </trkpt>
      <trkpt lat="42.7588080" lon="-7.2269930">
        <ele>755.0</ele>
        <time>2021-10-04T16:01:37Z</time>
      </trkpt>
      <trkpt lat="42.7587760" lon="-7.2272850">
        <ele>753.0</ele>
        <time>2021-10-04T16:01:39Z</time>
      </trkpt>
      <trkpt lat="42.7587440" lon="-7.2275590">
        <ele>751.6</ele>
        <time>2021-10-04T16:01:41Z</time>
      </trkpt>
      <trkpt lat="42.7587220" lon="-7.2276960">
        <ele>751.4</ele>
        <time>2021-10-04T16:01:42Z</time>
      </trkpt>
      <trkpt lat="42.7586960" lon="-7.2278370">
        <ele>750.2</ele>
        <time>2021-10-04T16:01:43Z</time>
      </trkpt>
      <trkpt lat="42.7586410" lon="-7.2281210">
        <ele>748.6</ele>
        <time>2021-10-04T16:01:45Z</time>
      </trkpt>
      <trkpt lat="42.7585890" lon="-7.2284030">
        <ele>747.6</ele>
        <time>2021-10-04T16:01:47Z</time>
      </trkpt>
      <trkpt lat="42.7585650" lon="-7.2285450">
        <ele>747.0</ele>
        <time>2021-10-04T16:01:48Z</time>
      </trkpt>
      <trkpt lat="42.7584700" lon="-7.2289630">
        <ele>745.4</ele>
        <time>2021-10-04T16:01:51Z</time>
      </trkpt>
      <trkpt lat="42.7584260" lon="-7.2290970">
        <ele>744.0</ele>
        <time>2021-10-04T16:01:52Z</time>
      </trkpt>
      <trkpt lat="42.7583370" lon="-7.2293600">
        <ele>742.6</ele>
        <time>2021-10-04T16:01:54Z</time>
      </trkpt>
      <trkpt lat="42.7582370" lon="-7.2296050">
        <ele>741.6</ele>
        <time>2021-10-04T16:01:56Z</time>
      </trkpt>
      <trkpt lat="42.7581810" lon="-7.2297230">
        <ele>740.6</ele>
        <time>2021-10-04T16:01:57Z</time>
      </trkpt>
      <trkpt lat="42.7581220" lon="-7.2298400">
        <ele>738.6</ele>
        <time>2021-10-04T16:01:58Z</time>
      </trkpt>
      <trkpt lat="42.7580590" lon="-7.2299560">
        <ele>737.6</ele>
        <time>2021-10-04T16:01:59Z</time>
      </trkpt>
      <trkpt lat="42.7579920" lon="-7.2300660">
        <ele>736.6</ele>
        <time>2021-10-04T16:02:00Z</time>
      </trkpt>
      <trkpt lat="42.7579230" lon="-7.2301720">
        <ele>734.0</ele>
        <time>2021-10-04T16:02:01Z</time>
      </trkpt>
      <trkpt lat="42.7578520" lon="-7.2302760">
        <ele>732.6</ele>
        <time>2021-10-04T16:02:02Z</time>
      </trkpt>
      <trkpt lat="42.7577770" lon="-7.2303750">
        <ele>731.2</ele>
        <time>2021-10-04T16:02:03Z</time>
      </trkpt>
      <trkpt lat="42.7577020" lon="-7.2304720">
        <ele>729.2</ele>
        <time>2021-10-04T16:02:04Z</time>
      </trkpt>
      <trkpt lat="42.7572400" lon="-7.2310440">
        <ele>728.0</ele>
        <time>2021-10-04T16:02:10Z</time>
      </trkpt>
      <trkpt lat="42.7567830" lon="-7.2315890">
        <ele>727.4</ele>
        <time>2021-10-04T16:02:16Z</time>
      </trkpt>
      <trkpt lat="42.7566400" lon="-7.2317730">
        <ele>727.0</ele>
        <time>2021-10-04T16:02:18Z</time>
      </trkpt>
      <trkpt lat="42.7564600" lon="-7.2320900">
        <ele>726.4</ele>
        <time>2021-10-04T16:02:21Z</time>
      </trkpt>
      <trkpt lat="42.7563200" lon="-7.2327510">
        <ele>725.8</ele>
        <time>2021-10-04T16:02:26Z</time>
      </trkpt>
      <trkpt lat="42.7563200" lon="-7.2330430">
        <ele>724.4</ele>
        <time>2021-10-04T16:02:28Z</time>
      </trkpt>
      <trkpt lat="42.7563300" lon="-7.2333390">
        <ele>723.8</ele>
        <time>2021-10-04T16:02:30Z</time>
      </trkpt>
      <trkpt lat="42.7563370" lon="-7.2334890">
        <ele>723.4</ele>
        <time>2021-10-04T16:02:31Z</time>
      </trkpt>
      <trkpt lat="42.7563550" lon="-7.2337940">
        <ele>721.8</ele>
        <time>2021-10-04T16:02:33Z</time>
      </trkpt>
      <trkpt lat="42.7563720" lon="-7.2341050">
        <ele>720.6</ele>
        <time>2021-10-04T16:02:35Z</time>
      </trkpt>
      <trkpt lat="42.7563860" lon="-7.2344170">
        <ele>718.4</ele>
        <time>2021-10-04T16:02:37Z</time>
      </trkpt>
      <trkpt lat="42.7563930" lon="-7.2345710">
        <ele>717.2</ele>
        <time>2021-10-04T16:02:38Z</time>
      </trkpt>
      <trkpt lat="42.7564010" lon="-7.2347250">
        <ele>716.0</ele>
        <time>2021-10-04T16:02:39Z</time>
      </trkpt>
      <trkpt lat="42.7564070" lon="-7.2348770">
        <ele>714.8</ele>
        <time>2021-10-04T16:02:40Z</time>
      </trkpt>
      <trkpt lat="42.7564140" lon="-7.2350290">
        <ele>713.6</ele>
        <time>2021-10-04T16:02:41Z</time>
      </trkpt>
      <trkpt lat="42.7564220" lon="-7.2351820">
        <ele>712.8</ele>
        <time>2021-10-04T16:02:42Z</time>
      </trkpt>
      <trkpt lat="42.7564300" lon="-7.2353340">
        <ele>711.0</ele>
        <time>2021-10-04T16:02:43Z</time>
      </trkpt>
      <trkpt lat="42.7564370" lon="-7.2354870">
        <ele>709.0</ele>
        <time>2021-10-04T16:02:44Z</time>
      </trkpt>
      <trkpt lat="42.7564440" lon="-7.2356390">
        <ele>707.4</ele>
        <time>2021-10-04T16:02:45Z</time>
      </trkpt>
      <trkpt lat="42.7564500" lon="-7.2357900">
        <ele>706.0</ele>
        <time>2021-10-04T16:02:46Z</time>
      </trkpt>
      <trkpt lat="42.7564630" lon="-7.2360900">
        <ele>704.8</ele>
        <time>2021-10-04T16:02:48Z</time>
      </trkpt>
      <trkpt lat="42.7564890" lon="-7.2365380">
        <ele>703.4</ele>
        <time>2021-10-04T16:02:51Z</time>
      </trkpt>
      <trkpt lat="42.7565040" lon="-7.2368330">
        <ele>701.8</ele>
        <time>2021-10-04T16:02:53Z</time>
      </trkpt>
      <trkpt lat="42.7565180" lon="-7.2371260">
        <ele>700.4</ele>
        <time>2021-10-04T16:02:55Z</time>
      </trkpt>
      <trkpt lat="42.7565310" lon="-7.2374200">
        <ele>699.0</ele>
        <time>2021-10-04T16:02:57Z</time>
      </trkpt>
      <trkpt lat="42.7565470" lon="-7.2377100">
        <ele>697.4</ele>
        <time>2021-10-04T16:02:59Z</time>
      </trkpt>
      <trkpt lat="42.7565550" lon="-7.2378530">
        <ele>696.8</ele>
        <time>2021-10-04T16:03:00Z</time>
      </trkpt>
      <trkpt lat="42.7565630" lon="-7.2379960">
        <ele>696.4</ele>
        <time>2021-10-04T16:03:01Z</time>
      </trkpt>
      <trkpt lat="42.7565740" lon="-7.2382790">
        <ele>695.2</ele>
        <time>2021-10-04T16:03:03Z</time>
      </trkpt>
      <trkpt lat="42.7565830" lon="-7.2385570">
        <ele>694.2</ele>
        <time>2021-10-04T16:03:05Z</time>
      </trkpt>
      <trkpt lat="42.7565890" lon="-7.2386940">
        <ele>693.4</ele>
        <time>2021-10-04T16:03:06Z</time>
      </trkpt>
      <trkpt lat="42.7565960" lon="-7.2388290">
        <ele>692.2</ele>
        <time>2021-10-04T16:03:07Z</time>
      </trkpt>
      <trkpt lat="42.7566110" lon="-7.2390900">
        <ele>690.6</ele>
        <time>2021-10-04T16:03:09Z</time>
      </trkpt>
      <trkpt lat="42.7566420" lon="-7.2395850">
        <ele>689.2</ele>
        <time>2021-10-04T16:03:13Z</time>
      </trkpt>
      <trkpt lat="42.7566700" lon="-7.2401700">
        <ele>688.2</ele>
        <time>2021-10-04T16:03:18Z</time>
      </trkpt>
      <trkpt lat="42.7566450" lon="-7.2405180">
        <ele>686.8</ele>
        <time>2021-10-04T16:03:21Z</time>
      </trkpt>
      <trkpt lat="42.7564920" lon="-7.2411010">
        <ele>686.2</ele>
        <time>2021-10-04T16:03:26Z</time>
      </trkpt>
      <trkpt lat="42.7564240" lon="-7.2413320">
        <ele>685.4</ele>
        <time>2021-10-04T16:03:28Z</time>
      </trkpt>
      <trkpt lat="42.7563480" lon="-7.2416720">
        <ele>684.6</ele>
        <time>2021-10-04T16:03:31Z</time>
      </trkpt>
      <trkpt lat="42.7563300" lon="-7.2417700">
        <ele>684.0</ele>
        <time>2021-10-04T16:03:32Z</time>
      </trkpt>
      <trkpt lat="42.7562980" lon="-7.2420030">
        <ele>683.8</ele>
        <time>2021-10-04T16:03:35Z</time>
      </trkpt>
      <trkpt lat="42.7562810" lon="-7.2422640">
        <ele>683.6</ele>
        <time>2021-10-04T16:03:45Z</time>
      </trkpt>
      <trkpt lat="42.7562720" lon="-7.2423010">
        <ele>683.8</ele>
        <time>2021-10-04T16:04:15Z</time>
      </trkpt>
      <trkpt lat="42.7562650" lon="-7.2423300">
        <ele>683.8</ele>
        <time>2021-10-04T16:04:16Z</time>
      </trkpt>
      <trkpt lat="42.7562480" lon="-7.2424370">
        <ele>683.8</ele>
        <time>2021-10-04T16:04:19Z</time>
      </trkpt>
      <trkpt lat="42.7562220" lon="-7.2426570">
        <ele>683.4</ele>
        <time>2021-10-04T16:04:23Z</time>
      </trkpt>
      <trkpt lat="42.7561630" lon="-7.2429550">
        <ele>682.2</ele>
        <time>2021-10-04T16:04:27Z</time>
      </trkpt>
      <trkpt lat="42.7560560" lon="-7.2433080">
        <ele>680.8</ele>
        <time>2021-10-04T16:04:31Z</time>
      </trkpt>
      <trkpt lat="42.7559560" lon="-7.2435270">
        <ele>680.0</ele>
        <time>2021-10-04T16:04:34Z</time>
      </trkpt>
      <trkpt lat="42.7559260" lon="-7.2435800">
        <ele>679.6</ele>
        <time>2021-10-04T16:04:35Z</time>
      </trkpt>
      <trkpt lat="42.7559040" lon="-7.2436700">
        <ele>678.0</ele>
        <time>2021-10-04T16:04:37Z</time>
      </trkpt>
      <trkpt lat="42.7559250" lon="-7.2437180">
        <ele>677.0</ele>
        <time>2021-10-04T16:04:39Z</time>
      </trkpt>
      <trkpt lat="42.7560060" lon="-7.2437580">
        <ele>676.8</ele>
        <time>2021-10-04T16:04:42Z</time>
      </trkpt>
      <trkpt lat="42.7561240" lon="-7.2437970">
        <ele>676.4</ele>
        <time>2021-10-04T16:04:45Z</time>
      </trkpt>
      <trkpt lat="42.7562090" lon="-7.2438320">
        <ele>676.0</ele>
        <time>2021-10-04T16:04:47Z</time>
      </trkpt>
      <trkpt lat="42.7563930" lon="-7.2438990">
        <ele>675.6</ele>
        <time>2021-10-04T16:04:51Z</time>
      </trkpt>
      <trkpt lat="42.7565300" lon="-7.2439450">
        <ele>675.0</ele>
        <time>2021-10-04T16:04:54Z</time>
      </trkpt>
      <trkpt lat="42.7568200" lon="-7.2440450">
        <ele>674.6</ele>
        <time>2021-10-04T16:05:01Z</time>
      </trkpt>
      <trkpt lat="42.7569430" lon="-7.2440890">
        <ele>674.8</ele>
        <time>2021-10-04T16:05:04Z</time>
      </trkpt>
      <trkpt lat="42.7571130" lon="-7.2441470">
        <ele>675.2</ele>
        <time>2021-10-04T16:05:08Z</time>
      </trkpt>
      <trkpt lat="42.7571980" lon="-7.2441720">
        <ele>675.2</ele>
        <time>2021-10-04T16:05:10Z</time>
      </trkpt>
      <trkpt lat="42.7573180" lon="-7.2442100">
        <ele>675.4</ele>
        <time>2021-10-04T16:05:13Z</time>
      </trkpt>
      <trkpt lat="42.7574210" lon="-7.2442470">
        <ele>676.2</ele>
        <time>2021-10-04T16:05:16Z</time>
      </trkpt>
      <trkpt lat="42.7575850" lon="-7.2443270">
        <ele>677.6</ele>
        <time>2021-10-04T16:05:21Z</time>
      </trkpt>
      <trkpt lat="42.7577880" lon="-7.2444840">
        <ele>678.6</ele>
        <time>2021-10-04T16:05:28Z</time>
      </trkpt>
      <trkpt lat="42.7581100" lon="-7.2447550">
        <ele>679.4</ele>
        <time>2021-10-04T16:05:40Z</time>
      </trkpt>
      <trkpt lat="42.7582210" lon="-7.2448490">
        <ele>679.8</ele>
        <time>2021-10-04T16:05:45Z</time>
      </trkpt>
      <trkpt lat="42.7583270" lon="-7.2449580">
        <ele>681.0</ele>
        <time>2021-10-04T16:05:50Z</time>
      </trkpt>
      <trkpt lat="42.7584230" lon="-7.2450420">
        <ele>682.0</ele>
        <time>2021-10-04T16:05:54Z</time>
      </trkpt>
      <trkpt lat="42.7585750" lon="-7.2451640">
        <ele>683.0</ele>
        <time>2021-10-04T16:06:01Z</time>
      </trkpt>
      <trkpt lat="42.7587260" lon="-7.2453060">
        <ele>684.0</ele>
        <time>2021-10-04T16:06:07Z</time>
      </trkpt>
      <trkpt lat="42.7589030" lon="-7.2454660">
        <ele>685.4</ele>
        <time>2021-10-04T16:06:14Z</time>
      </trkpt>
      <trkpt lat="42.7590390" lon="-7.2456060">
        <ele>686.2</ele>
        <time>2021-10-04T16:06:20Z</time>
      </trkpt>
      <trkpt lat="42.7590610" lon="-7.2456240">
        <ele>686.4</ele>
        <time>2021-10-04T16:06:21Z</time>
      </trkpt>
      <trkpt lat="42.7592460" lon="-7.2457770">
        <ele>687.6</ele>
        <time>2021-10-04T16:06:29Z</time>
      </trkpt>
      <trkpt lat="42.7595260" lon="-7.2459640">
        <ele>688.8</ele>
        <time>2021-10-04T16:06:38Z</time>
      </trkpt>
      <trkpt lat="42.7597590" lon="-7.2460660">
        <ele>690.0</ele>
        <time>2021-10-04T16:06:45Z</time>
      </trkpt>
      <trkpt lat="42.7599540" lon="-7.2461970">
        <ele>690.4</ele>
        <time>2021-10-04T16:06:51Z</time>
      </trkpt>
      <trkpt lat="42.7601190" lon="-7.2463680">
        <ele>691.2</ele>
        <time>2021-10-04T16:06:57Z</time>
      </trkpt>
      <trkpt lat="42.7602490" lon="-7.2465370">
        <ele>692.2</ele>
        <time>2021-10-04T16:07:03Z</time>
      </trkpt>
      <trkpt lat="42.7603570" lon="-7.2466930">
        <ele>693.4</ele>
        <time>2021-10-04T16:07:09Z</time>
      </trkpt>
      <trkpt lat="42.7604130" lon="-7.2467920">
        <ele>694.4</ele>
        <time>2021-10-04T16:07:13Z</time>
      </trkpt>
      <trkpt lat="42.7604630" lon="-7.2469010">
        <ele>695.4</ele>
        <time>2021-10-04T16:07:17Z</time>
      </trkpt>
      <trkpt lat="42.7604720" lon="-7.2469270">
        <ele>695.6</ele>
        <time>2021-10-04T16:07:18Z</time>
      </trkpt>
      <trkpt lat="42.7605290" lon="-7.2470540">
        <ele>696.8</ele>
        <time>2021-10-04T16:07:23Z</time>
      </trkpt>
      <trkpt lat="42.7605550" lon="-7.2471650">
        <ele>697.8</ele>
        <time>2021-10-04T16:07:27Z</time>
      </trkpt>
      <trkpt lat="42.7605610" lon="-7.2471910">
        <ele>698.2</ele>
        <time>2021-10-04T16:07:28Z</time>
      </trkpt>
      <trkpt lat="42.7605990" lon="-7.2472700">
        <ele>699.2</ele>
        <time>2021-10-04T16:07:32Z</time>
      </trkpt>
      <trkpt lat="42.7606030" lon="-7.2472750">
        <ele>699.6</ele>
        <time>2021-10-04T16:07:33Z</time>
      </trkpt>
      <trkpt lat="42.7606090" lon="-7.2473470">
        <ele>702.0</ele>
        <time>2021-10-04T16:12:23Z</time>
      </trkpt>
      <trkpt lat="42.7606110" lon="-7.2473690">
        <ele>702.0</ele>
        <time>2021-10-04T16:12:24Z</time>
      </trkpt>
      <trkpt lat="42.7606240" lon="-7.2474160">
        <ele>702.0</ele>
        <time>2021-10-04T16:12:26Z</time>
      </trkpt>
      <trkpt lat="42.7606340" lon="-7.2474640">
        <ele>702.0</ele>
        <time>2021-10-04T16:12:28Z</time>
      </trkpt>
      <trkpt lat="42.7606360" lon="-7.2475100">
        <ele>702.2</ele>
        <time>2021-10-04T16:12:30Z</time>
      </trkpt>
      <trkpt lat="42.7606530" lon="-7.2475720">
        <ele>702.6</ele>
        <time>2021-10-04T16:12:33Z</time>
      </trkpt>
      <trkpt lat="42.7606640" lon="-7.2476340">
        <ele>703.2</ele>
        <time>2021-10-04T16:12:36Z</time>
      </trkpt>
      <trkpt lat="42.7606820" lon="-7.2476850">
        <ele>704.0</ele>
        <time>2021-10-04T16:12:39Z</time>
      </trkpt>
      <trkpt lat="42.7606830" lon="-7.2476870">
        <ele>704.2</ele>
        <time>2021-10-04T16:12:40Z</time>
      </trkpt>
      <trkpt lat="42.7606890" lon="-7.2476930">
        <ele>704.4</ele>
        <time>2021-10-04T16:12:41Z</time>
      </trkpt>
      <trkpt lat="42.7607580" lon="-7.2478420">
        <ele>706.6</ele>
        <time>2021-10-04T16:13:12Z</time>
      </trkpt>
      <trkpt lat="42.7608740" lon="-7.2479860">
        <ele>707.8</ele>
        <time>2021-10-04T16:13:20Z</time>
      </trkpt>
      <trkpt lat="42.7609910" lon="-7.2480960">
        <ele>708.8</ele>
        <time>2021-10-04T16:13:26Z</time>
      </trkpt>
      <trkpt lat="42.7610250" lon="-7.2481300">
        <ele>709.4</ele>
        <time>2021-10-04T16:13:28Z</time>
      </trkpt>
      <trkpt lat="42.7611710" lon="-7.2483850">
        <ele>710.0</ele>
        <time>2021-10-04T16:13:38Z</time>
      </trkpt>
      <trkpt lat="42.7614040" lon="-7.2486280">
        <ele>710.2</ele>
        <time>2021-10-04T16:13:46Z</time>
      </trkpt>
      <trkpt lat="42.7615410" lon="-7.2486520">
        <ele>710.4</ele>
        <time>2021-10-04T16:13:50Z</time>
      </trkpt>
      <trkpt lat="42.7619040" lon="-7.2487860">
        <ele>711.4</ele>
        <time>2021-10-04T16:14:02Z</time>
      </trkpt>
      <trkpt lat="42.7620290" lon="-7.2488480">
        <ele>711.4</ele>
        <time>2021-10-04T16:14:05Z</time>
      </trkpt>
      <trkpt lat="42.7620800" lon="-7.2488640">
        <ele>711.4</ele>
        <time>2021-10-04T16:14:06Z</time>
      </trkpt>
      <trkpt lat="42.7624260" lon="-7.2488820">
        <ele>710.8</ele>
        <time>2021-10-04T16:14:13Z</time>
      </trkpt>
      <trkpt lat="42.7625400" lon="-7.2488940">
        <ele>710.2</ele>
        <time>2021-10-04T16:14:15Z</time>
      </trkpt>
      <trkpt lat="42.7626010" lon="-7.2489040">
        <ele>710.0</ele>
        <time>2021-10-04T16:14:16Z</time>
      </trkpt>
      <trkpt lat="42.7627050" lon="-7.2489310">
        <ele>709.0</ele>
        <time>2021-10-04T16:14:18Z</time>
      </trkpt>
      <trkpt lat="42.7628050" lon="-7.2489650">
        <ele>707.6</ele>
        <time>2021-10-04T16:14:20Z</time>
      </trkpt>
      <trkpt lat="42.7629050" lon="-7.2490070">
        <ele>707.0</ele>
        <time>2021-10-04T16:14:22Z</time>
      </trkpt>
      <trkpt lat="42.7630110" lon="-7.2490540">
        <ele>706.8</ele>
        <time>2021-10-04T16:14:24Z</time>
      </trkpt>
      <trkpt lat="42.7632820" lon="-7.2491970">
        <ele>707.0</ele>
        <time>2021-10-04T16:14:31Z</time>
      </trkpt>
      <trkpt lat="42.7633760" lon="-7.2492510">
        <ele>708.6</ele>
        <time>2021-10-04T16:14:34Z</time>
      </trkpt>
      <trkpt lat="42.7634410" lon="-7.2492890">
        <ele>709.0</ele>
        <time>2021-10-04T16:14:36Z</time>
      </trkpt>
      <trkpt lat="42.7635340" lon="-7.2493410">
        <ele>709.2</ele>
        <time>2021-10-04T16:14:38Z</time>
      </trkpt>
      <trkpt lat="42.7637200" lon="-7.2494860">
        <ele>709.2</ele>
        <time>2021-10-04T16:14:42Z</time>
      </trkpt>
      <trkpt lat="42.7638010" lon="-7.2495760">
        <ele>709.0</ele>
        <time>2021-10-04T16:14:44Z</time>
      </trkpt>
      <trkpt lat="42.7639070" lon="-7.2496180">
        <ele>707.8</ele>
        <time>2021-10-04T16:14:46Z</time>
      </trkpt>
      <trkpt lat="42.7640080" lon="-7.2496220">
        <ele>706.6</ele>
        <time>2021-10-04T16:14:48Z</time>
      </trkpt>
      <trkpt lat="42.7641160" lon="-7.2496330">
        <ele>706.4</ele>
        <time>2021-10-04T16:14:50Z</time>
      </trkpt>
      <trkpt lat="42.7642010" lon="-7.2496440">
        <ele>706.2</ele>
        <time>2021-10-04T16:14:52Z</time>
      </trkpt>
      <trkpt lat="42.7642300" lon="-7.2496560">
        <ele>706.2</ele>
        <time>2021-10-04T16:14:53Z</time>
      </trkpt>
      <trkpt lat="42.7642950" lon="-7.2496860">
        <ele>706.2</ele>
        <time>2021-10-04T16:14:55Z</time>
      </trkpt>
      <trkpt lat="42.7643490" lon="-7.2497220">
        <ele>706.4</ele>
        <time>2021-10-04T16:14:57Z</time>
      </trkpt>
      <trkpt lat="42.7643990" lon="-7.2497750">
        <ele>707.2</ele>
        <time>2021-10-04T16:14:59Z</time>
      </trkpt>
      <trkpt lat="42.7644250" lon="-7.2498000">
        <ele>708.0</ele>
        <time>2021-10-04T16:15:00Z</time>
      </trkpt>
      <trkpt lat="42.7644720" lon="-7.2498530">
        <ele>709.4</ele>
        <time>2021-10-04T16:15:02Z</time>
      </trkpt>
      <trkpt lat="42.7645180" lon="-7.2498950">
        <ele>710.6</ele>
        <time>2021-10-04T16:15:04Z</time>
      </trkpt>
      <trkpt lat="42.7645570" lon="-7.2499360">
        <ele>711.2</ele>
        <time>2021-10-04T16:15:06Z</time>
      </trkpt>
      <trkpt lat="42.7645730" lon="-7.2499550">
        <ele>711.6</ele>
        <time>2021-10-04T16:15:07Z</time>
      </trkpt>
      <trkpt lat="42.7646180" lon="-7.2500000">
        <ele>712.8</ele>
        <time>2021-10-04T16:15:09Z</time>
      </trkpt>
      <trkpt lat="42.7646790" lon="-7.2500660">
        <ele>714.4</ele>
        <time>2021-10-04T16:15:12Z</time>
      </trkpt>
      <trkpt lat="42.7647370" lon="-7.2501230">
        <ele>715.8</ele>
        <time>2021-10-04T16:15:15Z</time>
      </trkpt>
      <trkpt lat="42.7647900" lon="-7.2501850">
        <ele>716.8</ele>
        <time>2021-10-04T16:15:18Z</time>
      </trkpt>
      <trkpt lat="42.7648530" lon="-7.2503240">
        <ele>717.8</ele>
        <time>2021-10-04T16:15:22Z</time>
      </trkpt>
      <trkpt lat="42.7649180" lon="-7.2504870">
        <ele>719.0</ele>
        <time>2021-10-04T16:15:27Z</time>
      </trkpt>
      <trkpt lat="42.7650130" lon="-7.2507090">
        <ele>719.8</ele>
        <time>2021-10-04T16:15:35Z</time>
      </trkpt>
      <trkpt lat="42.7650660" lon="-7.2508400">
        <ele>719.8</ele>
        <time>2021-10-04T16:15:38Z</time>
      </trkpt>
      <trkpt lat="42.7651480" lon="-7.2509770">
        <ele>719.8</ele>
        <time>2021-10-04T16:15:41Z</time>
      </trkpt>
      <trkpt lat="42.7652470" lon="-7.2511920">
        <ele>719.2</ele>
        <time>2021-10-04T16:15:46Z</time>
      </trkpt>
      <trkpt lat="42.7653150" lon="-7.2512740">
        <ele>719.2</ele>
        <time>2021-10-04T16:15:49Z</time>
      </trkpt>
      <trkpt lat="42.7653300" lon="-7.2513130">
        <ele>719.2</ele>
        <time>2021-10-04T16:15:50Z</time>
      </trkpt>
      <trkpt lat="42.7653440" lon="-7.2513480">
        <ele>719.2</ele>
        <time>2021-10-04T16:15:51Z</time>
      </trkpt>
      <trkpt lat="42.7653730" lon="-7.2514290">
        <ele>719.2</ele>
        <time>2021-10-04T16:15:54Z</time>
      </trkpt>
      <trkpt lat="42.7653950" lon="-7.2515310">
        <ele>719.2</ele>
        <time>2021-10-04T16:15:58Z</time>
      </trkpt>
      <trkpt lat="42.7654840" lon="-7.2517200">
        <ele>719.8</ele>
        <time>2021-10-04T16:16:06Z</time>
      </trkpt>
      <trkpt lat="42.7655650" lon="-7.2518550">
        <ele>720.6</ele>
        <time>2021-10-04T16:16:15Z</time>
      </trkpt>
      <trkpt lat="42.7656850" lon="-7.2520100">
        <ele>721.8</ele>
        <time>2021-10-04T16:16:26Z</time>
      </trkpt>
      <trkpt lat="42.7657520" lon="-7.2521300">
        <ele>723.0</ele>
        <time>2021-10-04T16:16:34Z</time>
      </trkpt>
      <trkpt lat="42.7658680" lon="-7.2527900">
        <ele>724.0</ele>
        <time>2021-10-04T16:16:55Z</time>
      </trkpt>
      <trkpt lat="42.7658990" lon="-7.2528830">
        <ele>724.2</ele>
        <time>2021-10-04T16:16:58Z</time>
      </trkpt>
      <trkpt lat="42.7659070" lon="-7.2530250">
        <ele>725.4</ele>
        <time>2021-10-04T16:17:02Z</time>
      </trkpt>
      <trkpt lat="42.7659280" lon="-7.2532590">
        <ele>726.6</ele>
        <time>2021-10-04T16:17:09Z</time>
      </trkpt>
      <trkpt lat="42.7659520" lon="-7.2534200">
        <ele>727.2</ele>
        <time>2021-10-04T16:17:14Z</time>
      </trkpt>
      <trkpt lat="42.7659730" lon="-7.2536170">
        <ele>727.4</ele>
        <time>2021-10-04T16:17:21Z</time>
      </trkpt>
      <trkpt lat="42.7659660" lon="-7.2536660">
        <ele>727.6</ele>
        <time>2021-10-04T16:17:23Z</time>
      </trkpt>
      <trkpt lat="42.7659810" lon="-7.2536980">
        <ele>728.4</ele>
        <time>2021-10-04T16:17:27Z</time>
      </trkpt>
      <trkpt lat="42.7660190" lon="-7.2537170">
        <ele>730.8</ele>
        <time>2021-10-04T16:19:29Z</time>
      </trkpt>
      <trkpt lat="42.7660310" lon="-7.2537380">
        <ele>731.0</ele>
        <time>2021-10-04T16:19:30Z</time>
      </trkpt>
      <trkpt lat="42.7660460" lon="-7.2537570">
        <ele>731.0</ele>
        <time>2021-10-04T16:19:31Z</time>
      </trkpt>
      <trkpt lat="42.7660760" lon="-7.2537870">
        <ele>731.0</ele>
        <time>2021-10-04T16:19:33Z</time>
      </trkpt>
      <trkpt lat="42.7660920" lon="-7.2537980">
        <ele>731.0</ele>
        <time>2021-10-04T16:19:34Z</time>
      </trkpt>
      <trkpt lat="42.7661320" lon="-7.2538260">
        <ele>731.0</ele>
        <time>2021-10-04T16:19:37Z</time>
      </trkpt>
      <trkpt lat="42.7661950" lon="-7.2538550">
        <ele>732.0</ele>
        <time>2021-10-04T16:19:41Z</time>
      </trkpt>
      <trkpt lat="42.7663100" lon="-7.2538890">
        <ele>732.6</ele>
        <time>2021-10-04T16:19:46Z</time>
      </trkpt>
      <trkpt lat="42.7663760" lon="-7.2539080">
        <ele>732.6</ele>
        <time>2021-10-04T16:19:49Z</time>
      </trkpt>
      <trkpt lat="42.7664440" lon="-7.2539310">
        <ele>732.8</ele>
        <time>2021-10-04T16:19:52Z</time>
      </trkpt>
      <trkpt lat="42.7665160" lon="-7.2539600">
        <ele>733.2</ele>
        <time>2021-10-04T16:19:55Z</time>
      </trkpt>
      <trkpt lat="42.7666530" lon="-7.2540460">
        <ele>734.4</ele>
        <time>2021-10-04T16:20:01Z</time>
      </trkpt>
      <trkpt lat="42.7667770" lon="-7.2542280">
        <ele>735.2</ele>
        <time>2021-10-04T16:20:10Z</time>
      </trkpt>
      <trkpt lat="42.7668090" lon="-7.2542840">
        <ele>735.8</ele>
        <time>2021-10-04T16:20:12Z</time>
      </trkpt>
      <trkpt lat="42.7668630" lon="-7.2543770">
        <ele>736.0</ele>
        <time>2021-10-04T16:20:15Z</time>
      </trkpt>
      <trkpt lat="42.7668960" lon="-7.2544320">
        <ele>736.2</ele>
        <time>2021-10-04T16:20:17Z</time>
      </trkpt>
      <trkpt lat="42.7669620" lon="-7.2545550">
        <ele>736.2</ele>
        <time>2021-10-04T16:20:20Z</time>
      </trkpt>
      <trkpt lat="42.7670250" lon="-7.2546420">
        <ele>736.2</ele>
        <time>2021-10-04T16:20:22Z</time>
      </trkpt>
      <trkpt lat="42.7671870" lon="-7.2547720">
        <ele>735.4</ele>
        <time>2021-10-04T16:20:26Z</time>
      </trkpt>
      <trkpt lat="42.7673290" lon="-7.2548920">
        <ele>734.2</ele>
        <time>2021-10-04T16:20:30Z</time>
      </trkpt>
      <trkpt lat="42.7673610" lon="-7.2549250">
        <ele>734.0</ele>
        <time>2021-10-04T16:20:31Z</time>
      </trkpt>
      <trkpt lat="42.7677260" lon="-7.2552340">
        <ele>733.8</ele>
        <time>2021-10-04T16:20:42Z</time>
      </trkpt>
      <trkpt lat="42.7678450" lon="-7.2553390">
        <ele>734.0</ele>
        <time>2021-10-04T16:20:45Z</time>
      </trkpt>
      <trkpt lat="42.7680120" lon="-7.2555130">
        <ele>734.2</ele>
        <time>2021-10-04T16:20:50Z</time>
      </trkpt>
      <trkpt lat="42.7681990" lon="-7.2556230">
        <ele>735.0</ele>
        <time>2021-10-04T16:20:57Z</time>
      </trkpt>
      <trkpt lat="42.7682230" lon="-7.2556480">
        <ele>735.4</ele>
        <time>2021-10-04T16:20:58Z</time>
      </trkpt>
      <trkpt lat="42.7682960" lon="-7.2557370">
        <ele>737.0</ele>
        <time>2021-10-04T16:21:01Z</time>
      </trkpt>
      <trkpt lat="42.7683940" lon="-7.2559170">
        <ele>737.8</ele>
        <time>2021-10-04T16:21:06Z</time>
      </trkpt>
      <trkpt lat="42.7684040" lon="-7.2559640">
        <ele>738.0</ele>
        <time>2021-10-04T16:21:07Z</time>
      </trkpt>
      <trkpt lat="42.7684900" lon="-7.2563400">
        <ele>738.6</ele>
        <time>2021-10-04T16:21:17Z</time>
      </trkpt>
      <trkpt lat="42.7686270" lon="-7.2564600">
        <ele>738.8</ele>
        <time>2021-10-04T16:21:24Z</time>
      </trkpt>
      <trkpt lat="42.7686890" lon="-7.2565120">
        <ele>738.8</ele>
        <time>2021-10-04T16:21:27Z</time>
      </trkpt>
      <trkpt lat="42.7687340" lon="-7.2565580">
        <ele>739.0</ele>
        <time>2021-10-04T16:21:29Z</time>
      </trkpt>
      <trkpt lat="42.7687840" lon="-7.2566340">
        <ele>739.4</ele>
        <time>2021-10-04T16:21:32Z</time>
      </trkpt>
      <trkpt lat="42.7687990" lon="-7.2567180">
        <ele>740.6</ele>
        <time>2021-10-04T16:21:35Z</time>
      </trkpt>
      <trkpt lat="42.7688080" lon="-7.2568270">
        <ele>741.8</ele>
        <time>2021-10-04T16:21:39Z</time>
      </trkpt>
      <trkpt lat="42.7688000" lon="-7.2569590">
        <ele>743.0</ele>
        <time>2021-10-04T16:21:44Z</time>
      </trkpt>
      <trkpt lat="42.7687820" lon="-7.2570170">
        <ele>744.2</ele>
        <time>2021-10-04T16:21:47Z</time>
      </trkpt>
      <trkpt lat="42.7687860" lon="-7.2570640">
        <ele>745.2</ele>
        <time>2021-10-04T16:21:50Z</time>
      </trkpt>
      <trkpt lat="42.7687990" lon="-7.2571030">
        <ele>746.4</ele>
        <time>2021-10-04T16:21:53Z</time>
      </trkpt>
      <trkpt lat="42.7688060" lon="-7.2571400">
        <ele>747.0</ele>
        <time>2021-10-04T16:21:55Z</time>
      </trkpt>
      <trkpt lat="42.7688190" lon="-7.2571790">
        <ele>747.6</ele>
        <time>2021-10-04T16:21:57Z</time>
      </trkpt>
      <trkpt lat="42.7688740" lon="-7.2572870">
        <ele>748.8</ele>
        <time>2021-10-04T16:22:05Z</time>
      </trkpt>
      <trkpt lat="42.7689060" lon="-7.2573510">
        <ele>750.2</ele>
        <time>2021-10-04T16:22:09Z</time>
      </trkpt>
      <trkpt lat="42.7689400" lon="-7.2574170">
        <ele>751.2</ele>
        <time>2021-10-04T16:22:13Z</time>
      </trkpt>
      <trkpt lat="42.7689420" lon="-7.2574390">
        <ele>751.4</ele>
        <time>2021-10-04T16:22:14Z</time>
      </trkpt>
      <trkpt lat="42.7689460" lon="-7.2574920">
        <ele>752.2</ele>
        <time>2021-10-04T16:22:17Z</time>
      </trkpt>
      <trkpt lat="42.7689480" lon="-7.2575140">
        <ele>752.6</ele>
        <time>2021-10-04T16:22:18Z</time>
      </trkpt>
      <trkpt lat="42.7689510" lon="-7.2575610">
        <ele>753.0</ele>
        <time>2021-10-04T16:22:20Z</time>
      </trkpt>
      <trkpt lat="42.7689650" lon="-7.2576170">
        <ele>753.6</ele>
        <time>2021-10-04T16:22:23Z</time>
      </trkpt>
      <trkpt lat="42.7689870" lon="-7.2576720">
        <ele>755.0</ele>
        <time>2021-10-04T16:22:27Z</time>
      </trkpt>
      <trkpt lat="42.7689910" lon="-7.2576770">
        <ele>755.6</ele>
        <time>2021-10-04T16:22:29Z</time>
      </trkpt>
      <trkpt lat="42.7689280" lon="-7.2575330">
        <ele>758.2</ele>
        <time>2021-10-04T16:25:47Z</time>
      </trkpt>
      <trkpt lat="42.7689220" lon="-7.2575090">
        <ele>757.8</ele>
        <time>2021-10-04T16:25:48Z</time>
      </trkpt>
      <trkpt lat="42.7689150" lon="-7.2574640">
        <ele>757.0</ele>
        <time>2021-10-04T16:25:50Z</time>
      </trkpt>
      <trkpt lat="42.7689070" lon="-7.2574450">
        <ele>757.0</ele>
        <time>2021-10-04T16:25:51Z</time>
      </trkpt>
      <trkpt lat="42.7688880" lon="-7.2573900">
        <ele>755.8</ele>
        <time>2021-10-04T16:25:54Z</time>
      </trkpt>
      <trkpt lat="42.7688840" lon="-7.2573660">
        <ele>755.2</ele>
        <time>2021-10-04T16:25:55Z</time>
      </trkpt>
      <trkpt lat="42.7688730" lon="-7.2573450">
        <ele>754.8</ele>
        <time>2021-10-04T16:25:56Z</time>
      </trkpt>
      <trkpt lat="42.7688400" lon="-7.2572840">
        <ele>753.6</ele>
        <time>2021-10-04T16:25:58Z</time>
      </trkpt>
      <trkpt lat="42.7687820" lon="-7.2571820">
        <ele>752.6</ele>
        <time>2021-10-04T16:26:01Z</time>
      </trkpt>
      <trkpt lat="42.7687830" lon="-7.2570170">
        <ele>751.6</ele>
        <time>2021-10-04T16:26:04Z</time>
      </trkpt>
      <trkpt lat="42.7687900" lon="-7.2568210">
        <ele>750.0</ele>
        <time>2021-10-04T16:26:07Z</time>
      </trkpt>
      <trkpt lat="42.7687860" lon="-7.2567560">
        <ele>748.8</ele>
        <time>2021-10-04T16:26:08Z</time>
      </trkpt>
      <trkpt lat="42.7687800" lon="-7.2566950">
        <ele>748.2</ele>
        <time>2021-10-04T16:26:09Z</time>
      </trkpt>
      <trkpt lat="42.7687700" lon="-7.2566430">
        <ele>747.6</ele>
        <time>2021-10-04T16:26:10Z</time>
      </trkpt>
      <trkpt lat="42.7687220" lon="-7.2565510">
        <ele>746.0</ele>
        <time>2021-10-04T16:26:12Z</time>
      </trkpt>
      <trkpt lat="42.7686860" lon="-7.2565080">
        <ele>745.2</ele>
        <time>2021-10-04T16:26:13Z</time>
      </trkpt>
      <trkpt lat="42.7686500" lon="-7.2564650">
        <ele>744.0</ele>
        <time>2021-10-04T16:26:14Z</time>
      </trkpt>
      <trkpt lat="42.7686110" lon="-7.2564250">
        <ele>743.2</ele>
        <time>2021-10-04T16:26:15Z</time>
      </trkpt>
      <trkpt lat="42.7685690" lon="-7.2563870">
        <ele>742.6</ele>
        <time>2021-10-04T16:26:16Z</time>
      </trkpt>
      <trkpt lat="42.7684810" lon="-7.2563120">
        <ele>742.0</ele>
        <time>2021-10-04T16:26:18Z</time>
      </trkpt>
      <trkpt lat="42.7684510" lon="-7.2562740">
        <ele>741.4</ele>
        <time>2021-10-04T16:26:19Z</time>
      </trkpt>
      <trkpt lat="42.7684190" lon="-7.2562030">
        <ele>740.0</ele>
        <time>2021-10-04T16:26:21Z</time>
      </trkpt>
      <trkpt lat="42.7684270" lon="-7.2561340">
        <ele>739.0</ele>
        <time>2021-10-04T16:26:23Z</time>
      </trkpt>
      <trkpt lat="42.7684310" lon="-7.2560980">
        <ele>738.8</ele>
        <time>2021-10-04T16:26:24Z</time>
      </trkpt>
      <trkpt lat="42.7683030" lon="-7.2557070">
        <ele>738.0</ele>
        <time>2021-10-04T16:26:33Z</time>
      </trkpt>
      <trkpt lat="42.7682240" lon="-7.2556330">
        <ele>738.0</ele>
        <time>2021-10-04T16:26:35Z</time>
      </trkpt>
      <trkpt lat="42.7679440" lon="-7.2555100">
        <ele>737.8</ele>
        <time>2021-10-04T16:26:40Z</time>
      </trkpt>
      <trkpt lat="42.7677700" lon="-7.2553830">
        <ele>737.0</ele>
        <time>2021-10-04T16:26:43Z</time>
      </trkpt>
      <trkpt lat="42.7677220" lon="-7.2553300">
        <ele>736.8</ele>
        <time>2021-10-04T16:26:44Z</time>
      </trkpt>
      <trkpt lat="42.7676320" lon="-7.2552410">
        <ele>735.6</ele>
        <time>2021-10-04T16:26:46Z</time>
      </trkpt>
      <trkpt lat="42.7675860" lon="-7.2552020">
        <ele>734.4</ele>
        <time>2021-10-04T16:26:47Z</time>
      </trkpt>
      <trkpt lat="42.7674820" lon="-7.2551390">
        <ele>733.0</ele>
        <time>2021-10-04T16:26:49Z</time>
      </trkpt>
      <trkpt lat="42.7673700" lon="-7.2550640">
        <ele>732.6</ele>
        <time>2021-10-04T16:26:51Z</time>
      </trkpt>
      <trkpt lat="42.7670820" lon="-7.2548670">
        <ele>732.4</ele>
        <time>2021-10-04T16:26:56Z</time>
      </trkpt>
      <trkpt lat="42.7669220" lon="-7.2546020">
        <ele>732.4</ele>
        <time>2021-10-04T16:27:01Z</time>
      </trkpt>
      <trkpt lat="42.7666790" lon="-7.2542260">
        <ele>734.0</ele>
        <time>2021-10-04T16:27:10Z</time>
      </trkpt>
      <trkpt lat="42.7665670" lon="-7.2541330">
        <ele>734.2</ele>
        <time>2021-10-04T16:27:12Z</time>
      </trkpt>
      <trkpt lat="42.7665080" lon="-7.2540910">
        <ele>734.2</ele>
        <time>2021-10-04T16:27:13Z</time>
      </trkpt>
      <trkpt lat="42.7663950" lon="-7.2540380">
        <ele>734.2</ele>
        <time>2021-10-04T16:27:15Z</time>
      </trkpt>
      <trkpt lat="42.7662310" lon="-7.2539630">
        <ele>734.0</ele>
        <time>2021-10-04T16:27:18Z</time>
      </trkpt>
      <trkpt lat="42.7661430" lon="-7.2539170">
        <ele>733.6</ele>
        <time>2021-10-04T16:27:20Z</time>
      </trkpt>
      <trkpt lat="42.7660640" lon="-7.2538330">
        <ele>733.0</ele>
        <time>2021-10-04T16:27:22Z</time>
      </trkpt>
      <trkpt lat="42.7659830" lon="-7.2536330">
        <ele>732.6</ele>
        <time>2021-10-04T16:27:25Z</time>
      </trkpt>
      <trkpt lat="42.7659210" lon="-7.2533250">
        <ele>731.4</ele>
        <time>2021-10-04T16:27:29Z</time>
      </trkpt>
      <trkpt lat="42.7659050" lon="-7.2532630">
        <ele>730.2</ele>
        <time>2021-10-04T16:27:31Z</time>
      </trkpt>
      <trkpt lat="42.7658870" lon="-7.2532310">
        <ele>728.4</ele>
        <time>2021-10-04T16:27:33Z</time>
      </trkpt>
      <trkpt lat="42.7658780" lon="-7.2532030">
        <ele>727.4</ele>
        <time>2021-10-04T16:27:36Z</time>
      </trkpt>
      <trkpt lat="42.7658770" lon="-7.2532030">
        <ele>727.2</ele>
        <time>2021-10-04T16:27:37Z</time>
      </trkpt>
      <trkpt lat="42.7658680" lon="-7.2531480">
        <ele>727.0</ele>
        <time>2021-10-04T16:27:42Z</time>
      </trkpt>
      <trkpt lat="42.7658560" lon="-7.2529250">
        <ele>727.0</ele>
        <time>2021-10-04T16:27:46Z</time>
      </trkpt>
      <trkpt lat="42.7658370" lon="-7.2525980">
        <ele>726.2</ele>
        <time>2021-10-04T16:27:50Z</time>
      </trkpt>
      <trkpt lat="42.7658160" lon="-7.2525080">
        <ele>726.0</ele>
        <time>2021-10-04T16:27:51Z</time>
      </trkpt>
      <trkpt lat="42.7657360" lon="-7.2523410">
        <ele>725.0</ele>
        <time>2021-10-04T16:27:53Z</time>
      </trkpt>
      <trkpt lat="42.7656480" lon="-7.2521820">
        <ele>723.4</ele>
        <time>2021-10-04T16:27:55Z</time>
      </trkpt>
      <trkpt lat="42.7655340" lon="-7.2520400">
        <ele>722.0</ele>
        <time>2021-10-04T16:27:57Z</time>
      </trkpt>
      <trkpt lat="42.7654240" lon="-7.2518980">
        <ele>721.0</ele>
        <time>2021-10-04T16:27:59Z</time>
      </trkpt>
      <trkpt lat="42.7653840" lon="-7.2518120">
        <ele>720.8</ele>
        <time>2021-10-04T16:28:00Z</time>
      </trkpt>
      <trkpt lat="42.7653270" lon="-7.2516360">
        <ele>720.4</ele>
        <time>2021-10-04T16:28:02Z</time>
      </trkpt>
      <trkpt lat="42.7652930" lon="-7.2515530">
        <ele>719.8</ele>
        <time>2021-10-04T16:28:03Z</time>
      </trkpt>
      <trkpt lat="42.7652370" lon="-7.2513990">
        <ele>718.8</ele>
        <time>2021-10-04T16:28:05Z</time>
      </trkpt>
      <trkpt lat="42.7651740" lon="-7.2512510">
        <ele>717.8</ele>
        <time>2021-10-04T16:28:07Z</time>
      </trkpt>
      <trkpt lat="42.7651110" lon="-7.2511250">
        <ele>716.8</ele>
        <time>2021-10-04T16:28:09Z</time>
      </trkpt>
      <trkpt lat="42.7650750" lon="-7.2510750">
        <ele>716.6</ele>
        <time>2021-10-04T16:28:10Z</time>
      </trkpt>
      <trkpt lat="42.7649710" lon="-7.2508850">
        <ele>716.4</ele>
        <time>2021-10-04T16:28:15Z</time>
      </trkpt>
      <trkpt lat="42.7649400" lon="-7.2507900">
        <ele>717.6</ele>
        <time>2021-10-04T16:28:19Z</time>
      </trkpt>
      <trkpt lat="42.7647640" lon="-7.2504180">
        <ele>718.4</ele>
        <time>2021-10-04T16:28:27Z</time>
      </trkpt>
      <trkpt lat="42.7646970" lon="-7.2502840">
        <ele>718.0</ele>
        <time>2021-10-04T16:28:29Z</time>
      </trkpt>
      <trkpt lat="42.7645370" lon="-7.2500260">
        <ele>716.8</ele>
        <time>2021-10-04T16:28:32Z</time>
      </trkpt>
      <trkpt lat="42.7644270" lon="-7.2498870">
        <ele>715.6</ele>
        <time>2021-10-04T16:28:34Z</time>
      </trkpt>
      <trkpt lat="42.7643130" lon="-7.2498330">
        <ele>714.2</ele>
        <time>2021-10-04T16:28:36Z</time>
      </trkpt>
      <trkpt lat="42.7642500" lon="-7.2498190">
        <ele>713.2</ele>
        <time>2021-10-04T16:28:37Z</time>
      </trkpt>
      <trkpt lat="42.7641840" lon="-7.2498100">
        <ele>712.2</ele>
        <time>2021-10-04T16:28:38Z</time>
      </trkpt>
      <trkpt lat="42.7641170" lon="-7.2498000">
        <ele>711.4</ele>
        <time>2021-10-04T16:28:39Z</time>
      </trkpt>
      <trkpt lat="42.7640440" lon="-7.2497820">
        <ele>710.8</ele>
        <time>2021-10-04T16:28:40Z</time>
      </trkpt>
      <trkpt lat="42.7639800" lon="-7.2497680">
        <ele>710.2</ele>
        <time>2021-10-04T16:28:41Z</time>
      </trkpt>
      <trkpt lat="42.7638680" lon="-7.2496890">
        <ele>709.2</ele>
        <time>2021-10-04T16:28:43Z</time>
      </trkpt>
      <trkpt lat="42.7637890" lon="-7.2495830">
        <ele>707.6</ele>
        <time>2021-10-04T16:28:45Z</time>
      </trkpt>
      <trkpt lat="42.7637540" lon="-7.2495440">
        <ele>707.2</ele>
        <time>2021-10-04T16:28:46Z</time>
      </trkpt>
      <trkpt lat="42.7636780" lon="-7.2494990">
        <ele>707.0</ele>
        <time>2021-10-04T16:28:48Z</time>
      </trkpt>
      <trkpt lat="42.7635970" lon="-7.2494660">
        <ele>706.8</ele>
        <time>2021-10-04T16:28:50Z</time>
      </trkpt>
      <trkpt lat="42.7635230" lon="-7.2494210">
        <ele>706.8</ele>
        <time>2021-10-04T16:28:52Z</time>
      </trkpt>
      <trkpt lat="42.7634120" lon="-7.2493700">
        <ele>707.0</ele>
        <time>2021-10-04T16:28:55Z</time>
      </trkpt>
      <trkpt lat="42.7631970" lon="-7.2492990">
        <ele>708.4</ele>
        <time>2021-10-04T16:29:00Z</time>
      </trkpt>
      <trkpt lat="42.7628440" lon="-7.2492160">
        <ele>708.6</ele>
        <time>2021-10-04T16:29:06Z</time>
      </trkpt>
      <trkpt lat="42.7624200" lon="-7.2491210">
        <ele>707.6</ele>
        <time>2021-10-04T16:29:13Z</time>
      </trkpt>
      <trkpt lat="42.7622560" lon="-7.2491080">
        <ele>707.6</ele>
        <time>2021-10-04T16:29:16Z</time>
      </trkpt>
      <trkpt lat="42.7622020" lon="-7.2490960">
        <ele>707.6</ele>
        <time>2021-10-04T16:29:17Z</time>
      </trkpt>
      <trkpt lat="42.7620940" lon="-7.2490570">
        <ele>707.6</ele>
        <time>2021-10-04T16:29:19Z</time>
      </trkpt>
      <trkpt lat="42.7618600" lon="-7.2489620">
        <ele>708.8</ele>
        <time>2021-10-04T16:29:25Z</time>
      </trkpt>
      <trkpt lat="42.7617220" lon="-7.2489300">
        <ele>709.2</ele>
        <time>2021-10-04T16:29:28Z</time>
      </trkpt>
      <trkpt lat="42.7616130" lon="-7.2489060">
        <ele>709.4</ele>
        <time>2021-10-04T16:29:30Z</time>
      </trkpt>
      <trkpt lat="42.7612780" lon="-7.2486510">
        <ele>709.2</ele>
        <time>2021-10-04T16:29:36Z</time>
      </trkpt>
      <trkpt lat="42.7612340" lon="-7.2485920">
        <ele>709.0</ele>
        <time>2021-10-04T16:29:37Z</time>
      </trkpt>
      <trkpt lat="42.7611060" lon="-7.2484310">
        <ele>708.2</ele>
        <time>2021-10-04T16:29:40Z</time>
      </trkpt>
      <trkpt lat="42.7610620" lon="-7.2483790">
        <ele>707.8</ele>
        <time>2021-10-04T16:29:41Z</time>
      </trkpt>
      <trkpt lat="42.7609320" lon="-7.2482130">
        <ele>707.2</ele>
        <time>2021-10-04T16:29:44Z</time>
      </trkpt>
      <trkpt lat="42.7608420" lon="-7.2480930">
        <ele>707.0</ele>
        <time>2021-10-04T16:29:46Z</time>
      </trkpt>
      <trkpt lat="42.7607540" lon="-7.2479530">
        <ele>707.0</ele>
        <time>2021-10-04T16:29:48Z</time>
      </trkpt>
      <trkpt lat="42.7606450" lon="-7.2475940">
        <ele>706.8</ele>
        <time>2021-10-04T16:29:52Z</time>
      </trkpt>
      <trkpt lat="42.7606200" lon="-7.2474880">
        <ele>706.6</ele>
        <time>2021-10-04T16:29:53Z</time>
      </trkpt>
      <trkpt lat="42.7605490" lon="-7.2472540">
        <ele>705.4</ele>
        <time>2021-10-04T16:29:55Z</time>
      </trkpt>
      <trkpt lat="42.7605060" lon="-7.2471300">
        <ele>704.4</ele>
        <time>2021-10-04T16:29:56Z</time>
      </trkpt>
      <trkpt lat="42.7604000" lon="-7.2468840">
        <ele>703.0</ele>
        <time>2021-10-04T16:29:58Z</time>
      </trkpt>
      <trkpt lat="42.7602630" lon="-7.2466530">
        <ele>701.2</ele>
        <time>2021-10-04T16:30:00Z</time>
      </trkpt>
      <trkpt lat="42.7601880" lon="-7.2465490">
        <ele>700.2</ele>
        <time>2021-10-04T16:30:01Z</time>
      </trkpt>
      <trkpt lat="42.7601060" lon="-7.2464480">
        <ele>699.0</ele>
        <time>2021-10-04T16:30:02Z</time>
      </trkpt>
      <trkpt lat="42.7600220" lon="-7.2463530">
        <ele>698.2</ele>
        <time>2021-10-04T16:30:03Z</time>
      </trkpt>
      <trkpt lat="42.7599350" lon="-7.2462710">
        <ele>696.4</ele>
        <time>2021-10-04T16:30:04Z</time>
      </trkpt>
      <trkpt lat="42.7598450" lon="-7.2462040">
        <ele>694.8</ele>
        <time>2021-10-04T16:30:05Z</time>
      </trkpt>
      <trkpt lat="42.7597530" lon="-7.2461480">
        <ele>693.2</ele>
        <time>2021-10-04T16:30:06Z</time>
      </trkpt>
      <trkpt lat="42.7596650" lon="-7.2461040">
        <ele>689.6</ele>
        <time>2021-10-04T16:30:07Z</time>
      </trkpt>
      <trkpt lat="42.7595780" lon="-7.2460600">
        <ele>688.4</ele>
        <time>2021-10-04T16:30:08Z</time>
      </trkpt>
      <trkpt lat="42.7594090" lon="-7.2459650">
        <ele>687.0</ele>
        <time>2021-10-04T16:30:10Z</time>
      </trkpt>
      <trkpt lat="42.7592520" lon="-7.2458450">
        <ele>685.6</ele>
        <time>2021-10-04T16:30:12Z</time>
      </trkpt>
      <trkpt lat="42.7588590" lon="-7.2454680">
        <ele>684.6</ele>
        <time>2021-10-04T16:30:17Z</time>
      </trkpt>
      <trkpt lat="42.7585290" lon="-7.2451460">
        <ele>683.2</ele>
        <time>2021-10-04T16:30:21Z</time>
      </trkpt>
      <trkpt lat="42.7583660" lon="-7.2449870">
        <ele>682.2</ele>
        <time>2021-10-04T16:30:23Z</time>
      </trkpt>
      <trkpt lat="42.7582020" lon="-7.2448340">
        <ele>680.2</ele>
        <time>2021-10-04T16:30:25Z</time>
      </trkpt>
      <trkpt lat="42.7580350" lon="-7.2446820">
        <ele>677.8</ele>
        <time>2021-10-04T16:30:27Z</time>
      </trkpt>
      <trkpt lat="42.7578640" lon="-7.2445180">
        <ele>676.4</ele>
        <time>2021-10-04T16:30:29Z</time>
      </trkpt>
      <trkpt lat="42.7576120" lon="-7.2443110">
        <ele>675.0</ele>
        <time>2021-10-04T16:30:32Z</time>
      </trkpt>
      <trkpt lat="42.7575290" lon="-7.2442560">
        <ele>673.8</ele>
        <time>2021-10-04T16:30:33Z</time>
      </trkpt>
      <trkpt lat="42.7573620" lon="-7.2441840">
        <ele>672.4</ele>
        <time>2021-10-04T16:30:35Z</time>
      </trkpt>
      <trkpt lat="42.7571860" lon="-7.2441280">
        <ele>671.2</ele>
        <time>2021-10-04T16:30:37Z</time>
      </trkpt>
      <trkpt lat="42.7568420" lon="-7.2440200">
        <ele>670.2</ele>
        <time>2021-10-04T16:30:41Z</time>
      </trkpt>
      <trkpt lat="42.7565280" lon="-7.2439070">
        <ele>669.6</ele>
        <time>2021-10-04T16:30:45Z</time>
      </trkpt>
      <trkpt lat="42.7563140" lon="-7.2438290">
        <ele>669.6</ele>
        <time>2021-10-04T16:30:48Z</time>
      </trkpt>
      <trkpt lat="42.7561240" lon="-7.2437520">
        <ele>669.6</ele>
        <time>2021-10-04T16:30:51Z</time>
      </trkpt>
      <trkpt lat="42.7559660" lon="-7.2436890">
        <ele>669.8</ele>
        <time>2021-10-04T16:30:54Z</time>
      </trkpt>
      <trkpt lat="42.7558160" lon="-7.2437980">
        <ele>671.0</ele>
        <time>2021-10-04T16:31:02Z</time>
      </trkpt>
      <trkpt lat="42.7557970" lon="-7.2438320">
        <ele>672.8</ele>
        <time>2021-10-04T16:31:04Z</time>
      </trkpt>
      <trkpt lat="42.7557970" lon="-7.2438380">
        <ele>673.8</ele>
        <time>2021-10-04T16:31:06Z</time>
      </trkpt>
      <trkpt lat="42.7557720" lon="-7.2438620">
        <ele>674.4</ele>
        <time>2021-10-04T16:32:48Z</time>
      </trkpt>
      <trkpt lat="42.7556860" lon="-7.2439750">
        <ele>674.4</ele>
        <time>2021-10-04T16:32:53Z</time>
      </trkpt>
      <trkpt lat="42.7554830" lon="-7.2441800">
        <ele>674.2</ele>
        <time>2021-10-04T16:33:00Z</time>
      </trkpt>
      <trkpt lat="42.7554230" lon="-7.2442260">
        <ele>674.0</ele>
        <time>2021-10-04T16:33:02Z</time>
      </trkpt>
      <trkpt lat="42.7553620" lon="-7.2442700">
        <ele>674.0</ele>
        <time>2021-10-04T16:33:04Z</time>
      </trkpt>
      <trkpt lat="42.7552950" lon="-7.2443120">
        <ele>673.8</ele>
        <time>2021-10-04T16:33:06Z</time>
      </trkpt>
      <trkpt lat="42.7551240" lon="-7.2444100">
        <ele>673.0</ele>
        <time>2021-10-04T16:33:10Z</time>
      </trkpt>
      <trkpt lat="42.7548330" lon="-7.2445000">
        <ele>672.2</ele>
        <time>2021-10-04T16:33:16Z</time>
      </trkpt>
      <trkpt lat="42.7547360" lon="-7.2445140">
        <ele>672.0</ele>
        <time>2021-10-04T16:33:18Z</time>
      </trkpt>
      <trkpt lat="42.7545860" lon="-7.2445280">
        <ele>671.0</ele>
        <time>2021-10-04T16:33:21Z</time>
      </trkpt>
      <trkpt lat="42.7544770" lon="-7.2445270">
        <ele>670.6</ele>
        <time>2021-10-04T16:33:23Z</time>
      </trkpt>
      <trkpt lat="42.7543660" lon="-7.2445130">
        <ele>670.4</ele>
        <time>2021-10-04T16:33:25Z</time>
      </trkpt>
      <trkpt lat="42.7539710" lon="-7.2444050">
        <ele>670.4</ele>
        <time>2021-10-04T16:33:33Z</time>
      </trkpt>
      <trkpt lat="42.7538410" lon="-7.2443650">
        <ele>670.4</ele>
        <time>2021-10-04T16:33:36Z</time>
      </trkpt>
      <trkpt lat="42.7537240" lon="-7.2443390">
        <ele>670.2</ele>
        <time>2021-10-04T16:33:39Z</time>
      </trkpt>
      <trkpt lat="42.7536070" lon="-7.2443150">
        <ele>670.4</ele>
        <time>2021-10-04T16:33:42Z</time>
      </trkpt>
      <trkpt lat="42.7534910" lon="-7.2442910">
        <ele>670.6</ele>
        <time>2021-10-04T16:33:45Z</time>
      </trkpt>
      <trkpt lat="42.7533720" lon="-7.2442720">
        <ele>670.6</ele>
        <time>2021-10-04T16:33:48Z</time>
      </trkpt>
      <trkpt lat="42.7532160" lon="-7.2442650">
        <ele>671.2</ele>
        <time>2021-10-04T16:33:52Z</time>
      </trkpt>
      <trkpt lat="42.7531070" lon="-7.2442810">
        <ele>672.0</ele>
        <time>2021-10-04T16:33:55Z</time>
      </trkpt>
      <trkpt lat="42.7530040" lon="-7.2443220">
        <ele>673.0</ele>
        <time>2021-10-04T16:33:58Z</time>
      </trkpt>
      <trkpt lat="42.7529700" lon="-7.2443400">
        <ele>673.6</ele>
        <time>2021-10-04T16:33:59Z</time>
      </trkpt>
      <trkpt lat="42.7529070" lon="-7.2443830">
        <ele>674.8</ele>
        <time>2021-10-04T16:34:01Z</time>
      </trkpt>
      <trkpt lat="42.7528480" lon="-7.2444320">
        <ele>676.0</ele>
        <time>2021-10-04T16:34:03Z</time>
      </trkpt>
      <trkpt lat="42.7527470" lon="-7.2445510">
        <ele>677.0</ele>
        <time>2021-10-04T16:34:07Z</time>
      </trkpt>
      <trkpt lat="42.7526600" lon="-7.2447120">
        <ele>678.0</ele>
        <time>2021-10-04T16:34:12Z</time>
      </trkpt>
      <trkpt lat="42.7526480" lon="-7.2447470">
        <ele>678.4</ele>
        <time>2021-10-04T16:34:13Z</time>
      </trkpt>
      <trkpt lat="42.7526050" lon="-7.2448890">
        <ele>679.4</ele>
        <time>2021-10-04T16:34:17Z</time>
      </trkpt>
      <trkpt lat="42.7525670" lon="-7.2450670">
        <ele>680.6</ele>
        <time>2021-10-04T16:34:22Z</time>
      </trkpt>
      <trkpt lat="42.7525580" lon="-7.2451710">
        <ele>682.2</ele>
        <time>2021-10-04T16:34:25Z</time>
      </trkpt>
      <trkpt lat="42.7525500" lon="-7.2453200">
        <ele>683.2</ele>
        <time>2021-10-04T16:34:29Z</time>
      </trkpt>
      <trkpt lat="42.7525340" lon="-7.2454950">
        <ele>684.2</ele>
        <time>2021-10-04T16:34:34Z</time>
      </trkpt>
      <trkpt lat="42.7525250" lon="-7.2456020">
        <ele>685.4</ele>
        <time>2021-10-04T16:34:37Z</time>
      </trkpt>
      <trkpt lat="42.7525150" lon="-7.2457830">
        <ele>686.4</ele>
        <time>2021-10-04T16:34:42Z</time>
      </trkpt>
      <trkpt lat="42.7524890" lon="-7.2463080">
        <ele>687.8</ele>
        <time>2021-10-04T16:34:56Z</time>
      </trkpt>
      <trkpt lat="42.7524960" lon="-7.2464250">
        <ele>688.8</ele>
        <time>2021-10-04T16:34:59Z</time>
      </trkpt>
      <trkpt lat="42.7525240" lon="-7.2466610">
        <ele>689.6</ele>
        <time>2021-10-04T16:35:05Z</time>
      </trkpt>
      <trkpt lat="42.7525580" lon="-7.2468110">
        <ele>689.8</ele>
        <time>2021-10-04T16:35:09Z</time>
      </trkpt>
      <trkpt lat="42.7527050" lon="-7.2471830">
        <ele>691.0</ele>
        <time>2021-10-04T16:35:19Z</time>
      </trkpt>
      <trkpt lat="42.7528410" lon="-7.2474760">
        <ele>692.0</ele>
        <time>2021-10-04T16:35:26Z</time>
      </trkpt>
      <trkpt lat="42.7530920" lon="-7.2479920">
        <ele>691.8</ele>
        <time>2021-10-04T16:35:38Z</time>
      </trkpt>
      <trkpt lat="42.7534010" lon="-7.2486010">
        <ele>691.4</ele>
        <time>2021-10-04T16:35:50Z</time>
      </trkpt>
      <trkpt lat="42.7536280" lon="-7.2493400">
        <ele>691.4</ele>
        <time>2021-10-04T16:36:01Z</time>
      </trkpt>
      <trkpt lat="42.7537010" lon="-7.2498370">
        <ele>691.2</ele>
        <time>2021-10-04T16:36:07Z</time>
      </trkpt>
      <trkpt lat="42.7537200" lon="-7.2500830">
        <ele>691.2</ele>
        <time>2021-10-04T16:36:10Z</time>
      </trkpt>
      <trkpt lat="42.7537350" lon="-7.2502420">
        <ele>691.2</ele>
        <time>2021-10-04T16:36:12Z</time>
      </trkpt>
      <trkpt lat="42.7537510" lon="-7.2504010">
        <ele>691.2</ele>
        <time>2021-10-04T16:36:14Z</time>
      </trkpt>
      <trkpt lat="42.7537630" lon="-7.2505520">
        <ele>691.2</ele>
        <time>2021-10-04T16:36:16Z</time>
      </trkpt>
      <trkpt lat="42.7537670" lon="-7.2506270">
        <ele>691.0</ele>
        <time>2021-10-04T16:36:17Z</time>
      </trkpt>
      <trkpt lat="42.7537850" lon="-7.2508410">
        <ele>690.0</ele>
        <time>2021-10-04T16:36:20Z</time>
      </trkpt>
      <trkpt lat="42.7537960" lon="-7.2509050">
        <ele>689.6</ele>
        <time>2021-10-04T16:36:21Z</time>
      </trkpt>
      <trkpt lat="42.7538150" lon="-7.2510230">
        <ele>688.8</ele>
        <time>2021-10-04T16:36:23Z</time>
      </trkpt>
      <trkpt lat="42.7538260" lon="-7.2511370">
        <ele>688.6</ele>
        <time>2021-10-04T16:36:25Z</time>
      </trkpt>
      <trkpt lat="42.7538330" lon="-7.2513150">
        <ele>688.2</ele>
        <time>2021-10-04T16:36:28Z</time>
      </trkpt>
      <trkpt lat="42.7538250" lon="-7.2514900">
        <ele>688.0</ele>
        <time>2021-10-04T16:36:31Z</time>
      </trkpt>
      <trkpt lat="42.7538320" lon="-7.2515510">
        <ele>687.8</ele>
        <time>2021-10-04T16:36:32Z</time>
      </trkpt>
      <trkpt lat="42.7538410" lon="-7.2518770">
        <ele>687.8</ele>
        <time>2021-10-04T16:36:37Z</time>
      </trkpt>
      <trkpt lat="42.7538270" lon="-7.2520060">
        <ele>687.8</ele>
        <time>2021-10-04T16:36:39Z</time>
      </trkpt>
      <trkpt lat="42.7537990" lon="-7.2521890">
        <ele>687.6</ele>
        <time>2021-10-04T16:36:42Z</time>
      </trkpt>
      <trkpt lat="42.7537740" lon="-7.2523090">
        <ele>687.0</ele>
        <time>2021-10-04T16:36:44Z</time>
      </trkpt>
      <trkpt lat="42.7537130" lon="-7.2525430">
        <ele>686.8</ele>
        <time>2021-10-04T16:36:48Z</time>
      </trkpt>
      <trkpt lat="42.7536730" lon="-7.2527640">
        <ele>686.6</ele>
        <time>2021-10-04T16:36:52Z</time>
      </trkpt>
      <trkpt lat="42.7536520" lon="-7.2528160">
        <ele>686.6</ele>
        <time>2021-10-04T16:36:53Z</time>
      </trkpt>
      <trkpt lat="42.7535860" lon="-7.2529910">
        <ele>686.4</ele>
        <time>2021-10-04T16:36:56Z</time>
      </trkpt>
      <trkpt lat="42.7534350" lon="-7.2533490">
        <ele>686.4</ele>
        <time>2021-10-04T16:37:02Z</time>
      </trkpt>
      <trkpt lat="42.7531970" lon="-7.2536920">
        <ele>685.4</ele>
        <time>2021-10-04T16:37:08Z</time>
      </trkpt>
      <trkpt lat="42.7530080" lon="-7.2539080">
        <ele>684.4</ele>
        <time>2021-10-04T16:37:12Z</time>
      </trkpt>
      <trkpt lat="42.7527710" lon="-7.2541400">
        <ele>683.4</ele>
        <time>2021-10-04T16:37:17Z</time>
      </trkpt>
      <trkpt lat="42.7527210" lon="-7.2541830">
        <ele>683.2</ele>
        <time>2021-10-04T16:37:18Z</time>
      </trkpt>
      <trkpt lat="42.7526350" lon="-7.2542600">
        <ele>683.2</ele>
        <time>2021-10-04T16:37:20Z</time>
      </trkpt>
      <trkpt lat="42.7525050" lon="-7.2543860">
        <ele>683.0</ele>
        <time>2021-10-04T16:37:24Z</time>
      </trkpt>
      <trkpt lat="42.7522610" lon="-7.2546380">
        <ele>682.6</ele>
        <time>2021-10-04T16:37:33Z</time>
      </trkpt>
      <trkpt lat="42.7522340" lon="-7.2546680">
        <ele>682.2</ele>
        <time>2021-10-04T16:37:34Z</time>
      </trkpt>
      <trkpt lat="42.7521070" lon="-7.2548280">
        <ele>682.0</ele>
        <time>2021-10-04T16:37:39Z</time>
      </trkpt>
      <trkpt lat="42.7520020" lon="-7.2549810">
        <ele>681.6</ele>
        <time>2021-10-04T16:37:43Z</time>
      </trkpt>
      <trkpt lat="42.7519010" lon="-7.2551650">
        <ele>681.0</ele>
        <time>2021-10-04T16:37:47Z</time>
      </trkpt>
      <trkpt lat="42.7517720" lon="-7.2554220">
        <ele>680.0</ele>
        <time>2021-10-04T16:37:52Z</time>
      </trkpt>
      <trkpt lat="42.7516550" lon="-7.2556700">
        <ele>677.8</ele>
        <time>2021-10-04T16:37:56Z</time>
      </trkpt>
      <trkpt lat="42.7515870" lon="-7.2558130">
        <ele>676.4</ele>
        <time>2021-10-04T16:37:58Z</time>
      </trkpt>
      <trkpt lat="42.7514840" lon="-7.2560400">
        <ele>675.2</ele>
        <time>2021-10-04T16:38:01Z</time>
      </trkpt>
      <trkpt lat="42.7513880" lon="-7.2562940">
        <ele>674.6</ele>
        <time>2021-10-04T16:38:04Z</time>
      </trkpt>
      <trkpt lat="42.7513630" lon="-7.2563770">
        <ele>674.0</ele>
        <time>2021-10-04T16:38:05Z</time>
      </trkpt>
      <trkpt lat="42.7513240" lon="-7.2565380">
        <ele>673.0</ele>
        <time>2021-10-04T16:38:07Z</time>
      </trkpt>
      <trkpt lat="42.7512850" lon="-7.2567050">
        <ele>670.6</ele>
        <time>2021-10-04T16:38:09Z</time>
      </trkpt>
      <trkpt lat="42.7512600" lon="-7.2568920">
        <ele>669.2</ele>
        <time>2021-10-04T16:38:11Z</time>
      </trkpt>
      <trkpt lat="42.7512680" lon="-7.2572300">
        <ele>668.2</ele>
        <time>2021-10-04T16:38:15Z</time>
      </trkpt>
      <trkpt lat="42.7512790" lon="-7.2572990">
        <ele>667.8</ele>
        <time>2021-10-04T16:38:16Z</time>
      </trkpt>
      <trkpt lat="42.7513030" lon="-7.2574250">
        <ele>666.4</ele>
        <time>2021-10-04T16:38:18Z</time>
      </trkpt>
      <trkpt lat="42.7513180" lon="-7.2574810">
        <ele>665.2</ele>
        <time>2021-10-04T16:38:20Z</time>
      </trkpt>
      <trkpt lat="42.7513200" lon="-7.2574860">
        <ele>665.0</ele>
        <time>2021-10-04T16:38:21Z</time>
      </trkpt>
      <trkpt lat="42.7513320" lon="-7.2575520">
        <ele>665.2</ele>
        <time>2021-10-04T16:39:08Z</time>
      </trkpt>
      <trkpt lat="42.7513610" lon="-7.2576580">
        <ele>665.0</ele>
        <time>2021-10-04T16:39:11Z</time>
      </trkpt>
      <trkpt lat="42.7513980" lon="-7.2577810">
        <ele>664.8</ele>
        <time>2021-10-04T16:39:14Z</time>
      </trkpt>
      <trkpt lat="42.7514350" lon="-7.2579100">
        <ele>663.6</ele>
        <time>2021-10-04T16:39:17Z</time>
      </trkpt>
      <trkpt lat="42.7514810" lon="-7.2580510">
        <ele>662.2</ele>
        <time>2021-10-04T16:39:20Z</time>
      </trkpt>
      <trkpt lat="42.7515100" lon="-7.2581580">
        <ele>661.8</ele>
        <time>2021-10-04T16:39:22Z</time>
      </trkpt>
      <trkpt lat="42.7515460" lon="-7.2582770">
        <ele>661.0</ele>
        <time>2021-10-04T16:39:24Z</time>
      </trkpt>
      <trkpt lat="42.7516070" lon="-7.2584730">
        <ele>659.6</ele>
        <time>2021-10-04T16:39:27Z</time>
      </trkpt>
      <trkpt lat="42.7516990" lon="-7.2588150">
        <ele>658.4</ele>
        <time>2021-10-04T16:39:32Z</time>
      </trkpt>
      <trkpt lat="42.7517290" lon="-7.2590450">
        <ele>657.4</ele>
        <time>2021-10-04T16:39:35Z</time>
      </trkpt>
      <trkpt lat="42.7517460" lon="-7.2593860">
        <ele>656.2</ele>
        <time>2021-10-04T16:39:39Z</time>
      </trkpt>
      <trkpt lat="42.7517330" lon="-7.2595750">
        <ele>655.0</ele>
        <time>2021-10-04T16:39:42Z</time>
      </trkpt>
      <trkpt lat="42.7516980" lon="-7.2597580">
        <ele>654.0</ele>
        <time>2021-10-04T16:39:45Z</time>
      </trkpt>
      <trkpt lat="42.7516910" lon="-7.2598280">
        <ele>653.8</ele>
        <time>2021-10-04T16:39:46Z</time>
      </trkpt>
      <trkpt lat="42.7516820" lon="-7.2599000">
        <ele>653.6</ele>
        <time>2021-10-04T16:39:47Z</time>
      </trkpt>
      <trkpt lat="42.7516100" lon="-7.2602830">
        <ele>652.6</ele>
        <time>2021-10-04T16:39:52Z</time>
      </trkpt>
      <trkpt lat="42.7515310" lon="-7.2605120">
        <ele>651.6</ele>
        <time>2021-10-04T16:39:55Z</time>
      </trkpt>
      <trkpt lat="42.7514950" lon="-7.2605800">
        <ele>651.6</ele>
        <time>2021-10-04T16:39:56Z</time>
      </trkpt>
      <trkpt lat="42.7513700" lon="-7.2607390">
        <ele>650.4</ele>
        <time>2021-10-04T16:39:59Z</time>
      </trkpt>
      <trkpt lat="42.7513290" lon="-7.2607760">
        <ele>650.0</ele>
        <time>2021-10-04T16:40:00Z</time>
      </trkpt>
      <trkpt lat="42.7512560" lon="-7.2608570">
        <ele>648.8</ele>
        <time>2021-10-04T16:40:02Z</time>
      </trkpt>
      <trkpt lat="42.7511220" lon="-7.2610070">
        <ele>647.6</ele>
        <time>2021-10-04T16:40:05Z</time>
      </trkpt>
      <trkpt lat="42.7510090" lon="-7.2611250">
        <ele>647.0</ele>
        <time>2021-10-04T16:40:07Z</time>
      </trkpt>
      <trkpt lat="42.7509530" lon="-7.2611880">
        <ele>646.8</ele>
        <time>2021-10-04T16:40:08Z</time>
      </trkpt>
      <trkpt lat="42.7509020" lon="-7.2612590">
        <ele>646.0</ele>
        <time>2021-10-04T16:40:09Z</time>
      </trkpt>
      <trkpt lat="42.7508150" lon="-7.2613990">
        <ele>643.8</ele>
        <time>2021-10-04T16:40:11Z</time>
      </trkpt>
      <trkpt lat="42.7507770" lon="-7.2614700">
        <ele>642.8</ele>
        <time>2021-10-04T16:40:12Z</time>
      </trkpt>
      <trkpt lat="42.7507030" lon="-7.2616100">
        <ele>641.6</ele>
        <time>2021-10-04T16:40:14Z</time>
      </trkpt>
      <trkpt lat="42.7505830" lon="-7.2618310">
        <ele>640.6</ele>
        <time>2021-10-04T16:40:17Z</time>
      </trkpt>
      <trkpt lat="42.7505120" lon="-7.2619880">
        <ele>640.2</ele>
        <time>2021-10-04T16:40:19Z</time>
      </trkpt>
      <trkpt lat="42.7502250" lon="-7.2626700">
        <ele>639.6</ele>
        <time>2021-10-04T16:40:28Z</time>
      </trkpt>
      <trkpt lat="42.7500520" lon="-7.2631270">
        <ele>639.6</ele>
        <time>2021-10-04T16:40:35Z</time>
      </trkpt>
      <trkpt lat="42.7499830" lon="-7.2634990">
        <ele>640.2</ele>
        <time>2021-10-04T16:40:41Z</time>
      </trkpt>
      <trkpt lat="42.7498690" lon="-7.2638350">
        <ele>640.2</ele>
        <time>2021-10-04T16:40:45Z</time>
      </trkpt>
      <trkpt lat="42.7497500" lon="-7.2640860">
        <ele>639.4</ele>
        <time>2021-10-04T16:40:48Z</time>
      </trkpt>
      <trkpt lat="42.7496130" lon="-7.2643270">
        <ele>638.8</ele>
        <time>2021-10-04T16:40:51Z</time>
      </trkpt>
      <trkpt lat="42.7495160" lon="-7.2644810">
        <ele>637.8</ele>
        <time>2021-10-04T16:40:53Z</time>
      </trkpt>
      <trkpt lat="42.7493620" lon="-7.2646970">
        <ele>637.2</ele>
        <time>2021-10-04T16:40:56Z</time>
      </trkpt>
      <trkpt lat="42.7490650" lon="-7.2649770">
        <ele>636.6</ele>
        <time>2021-10-04T16:41:01Z</time>
      </trkpt>
      <trkpt lat="42.7485620" lon="-7.2653700">
        <ele>636.6</ele>
        <time>2021-10-04T16:41:09Z</time>
      </trkpt>
      <trkpt lat="42.7480390" lon="-7.2657460">
        <ele>635.6</ele>
        <time>2021-10-04T16:41:17Z</time>
      </trkpt>
      <trkpt lat="42.7476560" lon="-7.2660870">
        <ele>635.2</ele>
        <time>2021-10-04T16:41:23Z</time>
      </trkpt>
      <trkpt lat="42.7473010" lon="-7.2664640">
        <ele>634.6</ele>
        <time>2021-10-04T16:41:29Z</time>
      </trkpt>
      <trkpt lat="42.7468470" lon="-7.2670000">
        <ele>633.6</ele>
        <time>2021-10-04T16:41:37Z</time>
      </trkpt>
      <trkpt lat="42.7467890" lon="-7.2670680">
        <ele>633.6</ele>
        <time>2021-10-04T16:41:38Z</time>
      </trkpt>
      <trkpt lat="42.7463300" lon="-7.2675380">
        <ele>633.0</ele>
        <time>2021-10-04T16:41:45Z</time>
      </trkpt>
      <trkpt lat="42.7460530" lon="-7.2678090">
        <ele>632.2</ele>
        <time>2021-10-04T16:41:49Z</time>
      </trkpt>
      <trkpt lat="42.7459240" lon="-7.2679730">
        <ele>629.8</ele>
        <time>2021-10-04T16:41:51Z</time>
      </trkpt>
      <trkpt lat="42.7458200" lon="-7.2681780">
        <ele>628.2</ele>
        <time>2021-10-04T16:41:53Z</time>
      </trkpt>
      <trkpt lat="42.7457440" lon="-7.2685560">
        <ele>627.0</ele>
        <time>2021-10-04T16:41:56Z</time>
      </trkpt>
      <trkpt lat="42.7457500" lon="-7.2688320">
        <ele>625.6</ele>
        <time>2021-10-04T16:41:58Z</time>
      </trkpt>
      <trkpt lat="42.7457890" lon="-7.2692540">
        <ele>624.4</ele>
        <time>2021-10-04T16:42:01Z</time>
      </trkpt>
      <trkpt lat="42.7458110" lon="-7.2696820">
        <ele>623.4</ele>
        <time>2021-10-04T16:42:04Z</time>
      </trkpt>
      <trkpt lat="42.7457960" lon="-7.2699550">
        <ele>622.0</ele>
        <time>2021-10-04T16:42:06Z</time>
      </trkpt>
      <trkpt lat="42.7457500" lon="-7.2702080">
        <ele>620.4</ele>
        <time>2021-10-04T16:42:08Z</time>
      </trkpt>
      <trkpt lat="42.7455840" lon="-7.2706440">
        <ele>619.8</ele>
        <time>2021-10-04T16:42:12Z</time>
      </trkpt>
      <trkpt lat="42.7453360" lon="-7.2709420">
        <ele>619.8</ele>
        <time>2021-10-04T16:42:16Z</time>
      </trkpt>
      <trkpt lat="42.7451370" lon="-7.2710800">
        <ele>621.4</ele>
        <time>2021-10-04T16:42:19Z</time>
      </trkpt>
      <trkpt lat="42.7450710" lon="-7.2711150">
        <ele>621.8</ele>
        <time>2021-10-04T16:42:20Z</time>
      </trkpt>
      <trkpt lat="42.7448780" lon="-7.2712160">
        <ele>623.4</ele>
        <time>2021-10-04T16:42:23Z</time>
      </trkpt>
      <trkpt lat="42.7448130" lon="-7.2712410">
        <ele>623.8</ele>
        <time>2021-10-04T16:42:24Z</time>
      </trkpt>
      <trkpt lat="42.7446170" lon="-7.2712980">
        <ele>624.6</ele>
        <time>2021-10-04T16:42:27Z</time>
      </trkpt>
      <trkpt lat="42.7443650" lon="-7.2713970">
        <ele>625.8</ele>
        <time>2021-10-04T16:42:31Z</time>
      </trkpt>
      <trkpt lat="42.7442070" lon="-7.2715280">
        <ele>627.4</ele>
        <time>2021-10-04T16:42:34Z</time>
      </trkpt>
      <trkpt lat="42.7441600" lon="-7.2715770">
        <ele>627.8</ele>
        <time>2021-10-04T16:42:35Z</time>
      </trkpt>
      <trkpt lat="42.7440300" lon="-7.2717330">
        <ele>628.4</ele>
        <time>2021-10-04T16:42:38Z</time>
      </trkpt>
      <trkpt lat="42.7439900" lon="-7.2717980">
        <ele>628.6</ele>
        <time>2021-10-04T16:42:39Z</time>
      </trkpt>
      <trkpt lat="42.7439050" lon="-7.2720150">
        <ele>629.0</ele>
        <time>2021-10-04T16:42:42Z</time>
      </trkpt>
      <trkpt lat="42.7436670" lon="-7.2726290">
        <ele>629.4</ele>
        <time>2021-10-04T16:42:50Z</time>
      </trkpt>
      <trkpt lat="42.7433500" lon="-7.2729040">
        <ele>629.2</ele>
        <time>2021-10-04T16:42:55Z</time>
      </trkpt>
      <trkpt lat="42.7430800" lon="-7.2729590">
        <ele>628.8</ele>
        <time>2021-10-04T16:42:58Z</time>
      </trkpt>
      <trkpt lat="42.7429830" lon="-7.2729650">
        <ele>628.2</ele>
        <time>2021-10-04T16:42:59Z</time>
      </trkpt>
      <trkpt lat="42.7428830" lon="-7.2729700">
        <ele>627.4</ele>
        <time>2021-10-04T16:43:00Z</time>
      </trkpt>
      <trkpt lat="42.7427820" lon="-7.2729760">
        <ele>626.4</ele>
        <time>2021-10-04T16:43:01Z</time>
      </trkpt>
      <trkpt lat="42.7425700" lon="-7.2730030">
        <ele>624.6</ele>
        <time>2021-10-04T16:43:03Z</time>
      </trkpt>
      <trkpt lat="42.7423550" lon="-7.2730530">
        <ele>623.0</ele>
        <time>2021-10-04T16:43:05Z</time>
      </trkpt>
      <trkpt lat="42.7422470" lon="-7.2730810">
        <ele>621.6</ele>
        <time>2021-10-04T16:43:06Z</time>
      </trkpt>
      <trkpt lat="42.7421410" lon="-7.2731150">
        <ele>619.8</ele>
        <time>2021-10-04T16:43:07Z</time>
      </trkpt>
      <trkpt lat="42.7420380" lon="-7.2731460">
        <ele>618.6</ele>
        <time>2021-10-04T16:43:08Z</time>
      </trkpt>
      <trkpt lat="42.7418290" lon="-7.2732100">
        <ele>617.0</ele>
        <time>2021-10-04T16:43:10Z</time>
      </trkpt>
      <trkpt lat="42.7417230" lon="-7.2732240">
        <ele>616.0</ele>
        <time>2021-10-04T16:43:11Z</time>
      </trkpt>
      <trkpt lat="42.7416160" lon="-7.2732160">
        <ele>614.6</ele>
        <time>2021-10-04T16:43:12Z</time>
      </trkpt>
      <trkpt lat="42.7415140" lon="-7.2731830">
        <ele>613.4</ele>
        <time>2021-10-04T16:43:13Z</time>
      </trkpt>
      <trkpt lat="42.7413340" lon="-7.2730430">
        <ele>611.8</ele>
        <time>2021-10-04T16:43:15Z</time>
      </trkpt>
      <trkpt lat="42.7411490" lon="-7.2727100">
        <ele>610.8</ele>
        <time>2021-10-04T16:43:18Z</time>
      </trkpt>
      <trkpt lat="42.7410660" lon="-7.2724580">
        <ele>610.2</ele>
        <time>2021-10-04T16:43:20Z</time>
      </trkpt>
      <trkpt lat="42.7409390" lon="-7.2721020">
        <ele>610.2</ele>
        <time>2021-10-04T16:43:23Z</time>
      </trkpt>
      <trkpt lat="42.7404990" lon="-7.2718200">
        <ele>610.2</ele>
        <time>2021-10-04T16:43:29Z</time>
      </trkpt>
      <trkpt lat="42.7402890" lon="-7.2718660">
        <ele>610.4</ele>
        <time>2021-10-04T16:43:32Z</time>
      </trkpt>
      <trkpt lat="42.7401090" lon="-7.2719430">
        <ele>611.4</ele>
        <time>2021-10-04T16:43:35Z</time>
      </trkpt>
      <trkpt lat="42.7400540" lon="-7.2719670">
        <ele>612.2</ele>
        <time>2021-10-04T16:43:36Z</time>
      </trkpt>
      <trkpt lat="42.7399560" lon="-7.2720130">
        <ele>613.4</ele>
        <time>2021-10-04T16:43:38Z</time>
      </trkpt>
      <trkpt lat="42.7398660" lon="-7.2720550">
        <ele>614.6</ele>
        <time>2021-10-04T16:43:40Z</time>
      </trkpt>
      <trkpt lat="42.7397810" lon="-7.2720950">
        <ele>615.6</ele>
        <time>2021-10-04T16:43:42Z</time>
      </trkpt>
      <trkpt lat="42.7396580" lon="-7.2721580">
        <ele>616.8</ele>
        <time>2021-10-04T16:43:45Z</time>
      </trkpt>
      <trkpt lat="42.7395750" lon="-7.2721990">
        <ele>618.0</ele>
        <time>2021-10-04T16:43:47Z</time>
      </trkpt>
      <trkpt lat="42.7394110" lon="-7.2722840">
        <ele>619.0</ele>
        <time>2021-10-04T16:43:51Z</time>
      </trkpt>
      <trkpt lat="42.7391740" lon="-7.2724320">
        <ele>620.0</ele>
        <time>2021-10-04T16:43:57Z</time>
      </trkpt>
      <trkpt lat="42.7391010" lon="-7.2725060">
        <ele>620.6</ele>
        <time>2021-10-04T16:43:59Z</time>
      </trkpt>
      <trkpt lat="42.7390400" lon="-7.2725910">
        <ele>621.0</ele>
        <time>2021-10-04T16:44:01Z</time>
      </trkpt>
      <trkpt lat="42.7389830" lon="-7.2726770">
        <ele>621.6</ele>
        <time>2021-10-04T16:44:03Z</time>
      </trkpt>
      <trkpt lat="42.7389340" lon="-7.2727730">
        <ele>622.0</ele>
        <time>2021-10-04T16:44:05Z</time>
      </trkpt>
      <trkpt lat="42.7387870" lon="-7.2730600">
        <ele>623.2</ele>
        <time>2021-10-04T16:44:11Z</time>
      </trkpt>
      <trkpt lat="42.7386550" lon="-7.2733600">
        <ele>624.2</ele>
        <time>2021-10-04T16:44:17Z</time>
      </trkpt>
      <trkpt lat="42.7385640" lon="-7.2736230">
        <ele>625.2</ele>
        <time>2021-10-04T16:44:22Z</time>
      </trkpt>
      <trkpt lat="42.7385400" lon="-7.2738500">
        <ele>625.4</ele>
        <time>2021-10-04T16:44:26Z</time>
      </trkpt>
      <trkpt lat="42.7385560" lon="-7.2739770">
        <ele>625.4</ele>
        <time>2021-10-04T16:44:28Z</time>
      </trkpt>
      <trkpt lat="42.7385700" lon="-7.2740450">
        <ele>625.4</ele>
        <time>2021-10-04T16:44:29Z</time>
      </trkpt>
      <trkpt lat="42.7386740" lon="-7.2743930">
        <ele>625.4</ele>
        <time>2021-10-04T16:44:34Z</time>
      </trkpt>
      <trkpt lat="42.7389030" lon="-7.2749480">
        <ele>624.4</ele>
        <time>2021-10-04T16:44:41Z</time>
      </trkpt>
      <trkpt lat="42.7390040" lon="-7.2752300">
        <ele>623.4</ele>
        <time>2021-10-04T16:44:44Z</time>
      </trkpt>
      <trkpt lat="42.7390350" lon="-7.2753260">
        <ele>623.0</ele>
        <time>2021-10-04T16:44:45Z</time>
      </trkpt>
      <trkpt lat="42.7390650" lon="-7.2754210">
        <ele>622.4</ele>
        <time>2021-10-04T16:44:46Z</time>
      </trkpt>
      <trkpt lat="42.7390930" lon="-7.2755150">
        <ele>621.8</ele>
        <time>2021-10-04T16:44:47Z</time>
      </trkpt>
      <trkpt lat="42.7391450" lon="-7.2757010">
        <ele>620.4</ele>
        <time>2021-10-04T16:44:49Z</time>
      </trkpt>
      <trkpt lat="42.7391700" lon="-7.2757930">
        <ele>620.0</ele>
        <time>2021-10-04T16:44:50Z</time>
      </trkpt>
      <trkpt lat="42.7391940" lon="-7.2758840">
        <ele>619.4</ele>
        <time>2021-10-04T16:44:51Z</time>
      </trkpt>
      <trkpt lat="42.7392590" lon="-7.2761490">
        <ele>618.2</ele>
        <time>2021-10-04T16:44:54Z</time>
      </trkpt>
      <trkpt lat="42.7393010" lon="-7.2763300">
        <ele>618.0</ele>
        <time>2021-10-04T16:44:56Z</time>
      </trkpt>
      <trkpt lat="42.7393650" lon="-7.2765790">
        <ele>618.0</ele>
        <time>2021-10-04T16:44:59Z</time>
      </trkpt>
      <trkpt lat="42.7395440" lon="-7.2773270">
        <ele>618.2</ele>
        <time>2021-10-04T16:45:08Z</time>
      </trkpt>
      <trkpt lat="42.7397490" lon="-7.2780370">
        <ele>618.4</ele>
        <time>2021-10-04T16:45:17Z</time>
      </trkpt>
      <trkpt lat="42.7397730" lon="-7.2782950">
        <ele>618.4</ele>
        <time>2021-10-04T16:45:20Z</time>
      </trkpt>
      <trkpt lat="42.7397940" lon="-7.2787390">
        <ele>618.4</ele>
        <time>2021-10-04T16:45:25Z</time>
      </trkpt>
      <trkpt lat="42.7398930" lon="-7.2791230">
        <ele>617.8</ele>
        <time>2021-10-04T16:45:29Z</time>
      </trkpt>
      <trkpt lat="42.7399630" lon="-7.2793270">
        <ele>617.2</ele>
        <time>2021-10-04T16:45:31Z</time>
      </trkpt>
      <trkpt lat="42.7400430" lon="-7.2796630">
        <ele>615.8</ele>
        <time>2021-10-04T16:45:34Z</time>
      </trkpt>
      <trkpt lat="42.7400750" lon="-7.2799010">
        <ele>614.2</ele>
        <time>2021-10-04T16:45:36Z</time>
      </trkpt>
      <trkpt lat="42.7400970" lon="-7.2802780">
        <ele>613.0</ele>
        <time>2021-10-04T16:45:39Z</time>
      </trkpt>
      <trkpt lat="42.7400940" lon="-7.2804100">
        <ele>612.0</ele>
        <time>2021-10-04T16:45:40Z</time>
      </trkpt>
      <trkpt lat="42.7400940" lon="-7.2805330">
        <ele>610.8</ele>
        <time>2021-10-04T16:45:41Z</time>
      </trkpt>
      <trkpt lat="42.7400840" lon="-7.2808080">
        <ele>609.0</ele>
        <time>2021-10-04T16:45:43Z</time>
      </trkpt>
      <trkpt lat="42.7400860" lon="-7.2810810">
        <ele>607.2</ele>
        <time>2021-10-04T16:45:45Z</time>
      </trkpt>
      <trkpt lat="42.7401110" lon="-7.2813490">
        <ele>605.6</ele>
        <time>2021-10-04T16:45:47Z</time>
      </trkpt>
      <trkpt lat="42.7402610" lon="-7.2820770">
        <ele>604.8</ele>
        <time>2021-10-04T16:45:53Z</time>
      </trkpt>
      <trkpt lat="42.7403130" lon="-7.2822890">
        <ele>604.4</ele>
        <time>2021-10-04T16:45:55Z</time>
      </trkpt>
      <trkpt lat="42.7403910" lon="-7.2825920">
        <ele>604.4</ele>
        <time>2021-10-04T16:45:58Z</time>
      </trkpt>
      <trkpt lat="42.7404630" lon="-7.2828800">
        <ele>604.6</ele>
        <time>2021-10-04T16:46:01Z</time>
      </trkpt>
      <trkpt lat="42.7405510" lon="-7.2832460">
        <ele>605.0</ele>
        <time>2021-10-04T16:46:05Z</time>
      </trkpt>
      <trkpt lat="42.7406090" lon="-7.2835160">
        <ele>605.4</ele>
        <time>2021-10-04T16:46:08Z</time>
      </trkpt>
      <trkpt lat="42.7406280" lon="-7.2836030">
        <ele>605.6</ele>
        <time>2021-10-04T16:46:09Z</time>
      </trkpt>
      <trkpt lat="42.7406820" lon="-7.2838620">
        <ele>606.6</ele>
        <time>2021-10-04T16:46:12Z</time>
      </trkpt>
      <trkpt lat="42.7406970" lon="-7.2839500">
        <ele>606.8</ele>
        <time>2021-10-04T16:46:13Z</time>
      </trkpt>
      <trkpt lat="42.7407180" lon="-7.2841310">
        <ele>607.2</ele>
        <time>2021-10-04T16:46:15Z</time>
      </trkpt>
      <trkpt lat="42.7407380" lon="-7.2843140">
        <ele>607.2</ele>
        <time>2021-10-04T16:46:17Z</time>
      </trkpt>
      <trkpt lat="42.7407480" lon="-7.2846700">
        <ele>607.6</ele>
        <time>2021-10-04T16:46:21Z</time>
      </trkpt>
      <trkpt lat="42.7407280" lon="-7.2849270">
        <ele>607.8</ele>
        <time>2021-10-04T16:46:24Z</time>
      </trkpt>
      <trkpt lat="42.7407070" lon="-7.2850900">
        <ele>608.0</ele>
        <time>2021-10-04T16:46:26Z</time>
      </trkpt>
      <trkpt lat="42.7406650" lon="-7.2853360">
        <ele>608.2</ele>
        <time>2021-10-04T16:46:29Z</time>
      </trkpt>
      <trkpt lat="42.7405540" lon="-7.2858550">
        <ele>609.2</ele>
        <time>2021-10-04T16:46:36Z</time>
      </trkpt>
      <trkpt lat="42.7404980" lon="-7.2861320">
        <ele>610.2</ele>
        <time>2021-10-04T16:46:40Z</time>
      </trkpt>
      <trkpt lat="42.7403780" lon="-7.2866550">
        <ele>611.4</ele>
        <time>2021-10-04T16:46:48Z</time>
      </trkpt>
      <trkpt lat="42.7402550" lon="-7.2870150">
        <ele>612.6</ele>
        <time>2021-10-04T16:46:54Z</time>
      </trkpt>
      <trkpt lat="42.7401130" lon="-7.2873400">
        <ele>613.8</ele>
        <time>2021-10-04T16:47:00Z</time>
      </trkpt>
      <trkpt lat="42.7400060" lon="-7.2876150">
        <ele>614.8</ele>
        <time>2021-10-04T16:47:05Z</time>
      </trkpt>
      <trkpt lat="42.7399720" lon="-7.2877280">
        <ele>615.0</ele>
        <time>2021-10-04T16:47:07Z</time>
      </trkpt>
      <trkpt lat="42.7399480" lon="-7.2880550">
        <ele>616.0</ele>
        <time>2021-10-04T16:47:12Z</time>
      </trkpt>
      <trkpt lat="42.7400130" lon="-7.2885750">
        <ele>617.0</ele>
        <time>2021-10-04T16:47:19Z</time>
      </trkpt>
      <trkpt lat="42.7399790" lon="-7.2893840">
        <ele>616.4</ele>
        <time>2021-10-04T16:47:28Z</time>
      </trkpt>
      <trkpt lat="42.7398980" lon="-7.2897490">
        <ele>616.4</ele>
        <time>2021-10-04T16:47:32Z</time>
      </trkpt>
      <trkpt lat="42.7398070" lon="-7.2900910">
        <ele>616.0</ele>
        <time>2021-10-04T16:47:36Z</time>
      </trkpt>
      <trkpt lat="42.7397430" lon="-7.2903310">
        <ele>615.2</ele>
        <time>2021-10-04T16:47:39Z</time>
      </trkpt>
      <trkpt lat="42.7397150" lon="-7.2904880">
        <ele>614.6</ele>
        <time>2021-10-04T16:47:41Z</time>
      </trkpt>
      <trkpt lat="42.7396860" lon="-7.2908010">
        <ele>614.0</ele>
        <time>2021-10-04T16:47:45Z</time>
      </trkpt>
      <trkpt lat="42.7396770" lon="-7.2909610">
        <ele>614.0</ele>
        <time>2021-10-04T16:47:47Z</time>
      </trkpt>
      <trkpt lat="42.7396650" lon="-7.2911160">
        <ele>613.8</ele>
        <time>2021-10-04T16:47:49Z</time>
      </trkpt>
      <trkpt lat="42.7396520" lon="-7.2912680">
        <ele>613.6</ele>
        <time>2021-10-04T16:47:51Z</time>
      </trkpt>
      <trkpt lat="42.7396310" lon="-7.2914140">
        <ele>613.6</ele>
        <time>2021-10-04T16:47:53Z</time>
      </trkpt>
      <trkpt lat="42.7395970" lon="-7.2915550">
        <ele>613.6</ele>
        <time>2021-10-04T16:47:55Z</time>
      </trkpt>
      <trkpt lat="42.7395780" lon="-7.2916250">
        <ele>613.4</ele>
        <time>2021-10-04T16:47:56Z</time>
      </trkpt>
      <trkpt lat="42.7395190" lon="-7.2917680">
        <ele>613.4</ele>
        <time>2021-10-04T16:47:58Z</time>
      </trkpt>
      <trkpt lat="42.7391870" lon="-7.2924030">
        <ele>612.4</ele>
        <time>2021-10-04T16:48:06Z</time>
      </trkpt>
      <trkpt lat="42.7389610" lon="-7.2928440">
        <ele>611.2</ele>
        <time>2021-10-04T16:48:11Z</time>
      </trkpt>
      <trkpt lat="42.7388290" lon="-7.2931110">
        <ele>610.0</ele>
        <time>2021-10-04T16:48:14Z</time>
      </trkpt>
      <trkpt lat="42.7387000" lon="-7.2933710">
        <ele>609.2</ele>
        <time>2021-10-04T16:48:17Z</time>
      </trkpt>
      <trkpt lat="42.7386390" lon="-7.2935570">
        <ele>609.0</ele>
        <time>2021-10-04T16:48:19Z</time>
      </trkpt>
      <trkpt lat="42.7386120" lon="-7.2938540">
        <ele>608.0</ele>
        <time>2021-10-04T16:48:22Z</time>
      </trkpt>
      <trkpt lat="42.7386840" lon="-7.2942530">
        <ele>607.6</ele>
        <time>2021-10-04T16:48:26Z</time>
      </trkpt>
      <trkpt lat="42.7388030" lon="-7.2946410">
        <ele>607.6</ele>
        <time>2021-10-04T16:48:30Z</time>
      </trkpt>
      <trkpt lat="42.7388580" lon="-7.2949420">
        <ele>607.6</ele>
        <time>2021-10-04T16:48:33Z</time>
      </trkpt>
      <trkpt lat="42.7388160" lon="-7.2955170">
        <ele>607.8</ele>
        <time>2021-10-04T16:48:39Z</time>
      </trkpt>
      <trkpt lat="42.7386500" lon="-7.2959200">
        <ele>608.2</ele>
        <time>2021-10-04T16:48:44Z</time>
      </trkpt>
      <trkpt lat="42.7383810" lon="-7.2964190">
        <ele>608.8</ele>
        <time>2021-10-04T16:48:51Z</time>
      </trkpt>
      <trkpt lat="42.7383450" lon="-7.2964910">
        <ele>609.2</ele>
        <time>2021-10-04T16:48:52Z</time>
      </trkpt>
      <trkpt lat="42.7381960" lon="-7.2967670">
        <ele>610.4</ele>
        <time>2021-10-04T16:48:56Z</time>
      </trkpt>
      <trkpt lat="42.7378650" lon="-7.2974380">
        <ele>611.0</ele>
        <time>2021-10-04T16:49:06Z</time>
      </trkpt>
      <trkpt lat="42.7376750" lon="-7.2979070">
        <ele>611.4</ele>
        <time>2021-10-04T16:49:13Z</time>
      </trkpt>
      <trkpt lat="42.7375290" lon="-7.2986200">
        <ele>612.6</ele>
        <time>2021-10-04T16:49:23Z</time>
      </trkpt>
      <trkpt lat="42.7375190" lon="-7.2988440">
        <ele>613.6</ele>
        <time>2021-10-04T16:49:26Z</time>
      </trkpt>
      <trkpt lat="42.7376090" lon="-7.2996360">
        <ele>614.6</ele>
        <time>2021-10-04T16:49:37Z</time>
      </trkpt>
      <trkpt lat="42.7377470" lon="-7.3000960">
        <ele>615.8</ele>
        <time>2021-10-04T16:49:44Z</time>
      </trkpt>
      <trkpt lat="42.7380040" lon="-7.3008250">
        <ele>616.4</ele>
        <time>2021-10-04T16:49:55Z</time>
      </trkpt>
      <trkpt lat="42.7380580" lon="-7.3009630">
        <ele>616.6</ele>
        <time>2021-10-04T16:49:57Z</time>
      </trkpt>
      <trkpt lat="42.7382650" lon="-7.3015150">
        <ele>617.6</ele>
        <time>2021-10-04T16:50:05Z</time>
      </trkpt>
      <trkpt lat="42.7382890" lon="-7.3015830">
        <ele>617.8</ele>
        <time>2021-10-04T16:50:06Z</time>
      </trkpt>
      <trkpt lat="42.7384310" lon="-7.3019880">
        <ele>619.4</ele>
        <time>2021-10-04T16:50:12Z</time>
      </trkpt>
      <trkpt lat="42.7385490" lon="-7.3023180">
        <ele>620.4</ele>
        <time>2021-10-04T16:50:17Z</time>
      </trkpt>
      <trkpt lat="42.7386840" lon="-7.3027040">
        <ele>621.6</ele>
        <time>2021-10-04T16:50:23Z</time>
      </trkpt>
      <trkpt lat="42.7387950" lon="-7.3030230">
        <ele>622.8</ele>
        <time>2021-10-04T16:50:28Z</time>
      </trkpt>
      <trkpt lat="42.7388790" lon="-7.3032770">
        <ele>624.0</ele>
        <time>2021-10-04T16:50:32Z</time>
      </trkpt>
      <trkpt lat="42.7389380" lon="-7.3034670">
        <ele>625.2</ele>
        <time>2021-10-04T16:50:35Z</time>
      </trkpt>
      <trkpt lat="42.7390330" lon="-7.3040030">
        <ele>626.2</ele>
        <time>2021-10-04T16:50:43Z</time>
      </trkpt>
      <trkpt lat="42.7390160" lon="-7.3047920">
        <ele>626.2</ele>
        <time>2021-10-04T16:50:54Z</time>
      </trkpt>
      <trkpt lat="42.7388730" lon="-7.3053830">
        <ele>626.2</ele>
        <time>2021-10-04T16:51:02Z</time>
      </trkpt>
      <trkpt lat="42.7387560" lon="-7.3056740">
        <ele>626.0</ele>
        <time>2021-10-04T16:51:06Z</time>
      </trkpt>
      <trkpt lat="42.7384470" lon="-7.3063380">
        <ele>625.4</ele>
        <time>2021-10-04T16:51:15Z</time>
      </trkpt>
      <trkpt lat="42.7382600" lon="-7.3068100">
        <ele>625.0</ele>
        <time>2021-10-04T16:51:21Z</time>
      </trkpt>
      <trkpt lat="42.7382350" lon="-7.3068940">
        <ele>624.8</ele>
        <time>2021-10-04T16:51:22Z</time>
      </trkpt>
      <trkpt lat="42.7381490" lon="-7.3073510">
        <ele>624.0</ele>
        <time>2021-10-04T16:51:27Z</time>
      </trkpt>
      <trkpt lat="42.7381380" lon="-7.3074450">
        <ele>623.8</ele>
        <time>2021-10-04T16:51:28Z</time>
      </trkpt>
      <trkpt lat="42.7381250" lon="-7.3077300">
        <ele>623.6</ele>
        <time>2021-10-04T16:51:31Z</time>
      </trkpt>
      <trkpt lat="42.7381240" lon="-7.3080170">
        <ele>623.2</ele>
        <time>2021-10-04T16:51:34Z</time>
      </trkpt>
      <trkpt lat="42.7381280" lon="-7.3082070">
        <ele>623.0</ele>
        <time>2021-10-04T16:51:36Z</time>
      </trkpt>
      <trkpt lat="42.7381340" lon="-7.3083030">
        <ele>622.8</ele>
        <time>2021-10-04T16:51:37Z</time>
      </trkpt>
      <trkpt lat="42.7381430" lon="-7.3084000">
        <ele>622.8</ele>
        <time>2021-10-04T16:51:38Z</time>
      </trkpt>
      <trkpt lat="42.7381500" lon="-7.3085970">
        <ele>621.2</ele>
        <time>2021-10-04T16:51:40Z</time>
      </trkpt>
      <trkpt lat="42.7381470" lon="-7.3086970">
        <ele>620.6</ele>
        <time>2021-10-04T16:51:41Z</time>
      </trkpt>
      <trkpt lat="42.7381280" lon="-7.3089030">
        <ele>620.2</ele>
        <time>2021-10-04T16:51:43Z</time>
      </trkpt>
      <trkpt lat="42.7380290" lon="-7.3095480">
        <ele>618.8</ele>
        <time>2021-10-04T16:51:49Z</time>
      </trkpt>
      <trkpt lat="42.7379660" lon="-7.3097590">
        <ele>618.6</ele>
        <time>2021-10-04T16:51:51Z</time>
      </trkpt>
      <trkpt lat="42.7378440" lon="-7.3100680">
        <ele>617.4</ele>
        <time>2021-10-04T16:51:54Z</time>
      </trkpt>
      <trkpt lat="42.7377960" lon="-7.3101680">
        <ele>615.8</ele>
        <time>2021-10-04T16:51:55Z</time>
      </trkpt>
      <trkpt lat="42.7376370" lon="-7.3104580">
        <ele>614.6</ele>
        <time>2021-10-04T16:51:58Z</time>
      </trkpt>
      <trkpt lat="42.7375220" lon="-7.3106510">
        <ele>613.2</ele>
        <time>2021-10-04T16:52:00Z</time>
      </trkpt>
      <trkpt lat="42.7374000" lon="-7.3108470">
        <ele>611.4</ele>
        <time>2021-10-04T16:52:02Z</time>
      </trkpt>
      <trkpt lat="42.7372730" lon="-7.3110460">
        <ele>610.6</ele>
        <time>2021-10-04T16:52:04Z</time>
      </trkpt>
      <trkpt lat="42.7371450" lon="-7.3112510">
        <ele>610.2</ele>
        <time>2021-10-04T16:52:06Z</time>
      </trkpt>
      <trkpt lat="42.7369520" lon="-7.3115610">
        <ele>608.6</ele>
        <time>2021-10-04T16:52:09Z</time>
      </trkpt>
      <trkpt lat="42.7368280" lon="-7.3117660">
        <ele>606.6</ele>
        <time>2021-10-04T16:52:11Z</time>
      </trkpt>
      <trkpt lat="42.7367100" lon="-7.3119670">
        <ele>605.0</ele>
        <time>2021-10-04T16:52:13Z</time>
      </trkpt>
      <trkpt lat="42.7365980" lon="-7.3121650">
        <ele>603.6</ele>
        <time>2021-10-04T16:52:15Z</time>
      </trkpt>
      <trkpt lat="42.7364940" lon="-7.3123590">
        <ele>602.8</ele>
        <time>2021-10-04T16:52:17Z</time>
      </trkpt>
      <trkpt lat="42.7364480" lon="-7.3124570">
        <ele>602.6</ele>
        <time>2021-10-04T16:52:18Z</time>
      </trkpt>
      <trkpt lat="42.7362040" lon="-7.3131490">
        <ele>602.0</ele>
        <time>2021-10-04T16:52:25Z</time>
      </trkpt>
      <trkpt lat="42.7361560" lon="-7.3133370">
        <ele>602.0</ele>
        <time>2021-10-04T16:52:27Z</time>
      </trkpt>
      <trkpt lat="42.7361170" lon="-7.3135170">
        <ele>602.0</ele>
        <time>2021-10-04T16:52:29Z</time>
      </trkpt>
      <trkpt lat="42.7360630" lon="-7.3138520">
        <ele>602.8</ele>
        <time>2021-10-04T16:52:33Z</time>
      </trkpt>
      <trkpt lat="42.7360260" lon="-7.3140740">
        <ele>603.2</ele>
        <time>2021-10-04T16:52:36Z</time>
      </trkpt>
      <trkpt lat="42.7360140" lon="-7.3141480">
        <ele>603.6</ele>
        <time>2021-10-04T16:52:37Z</time>
      </trkpt>
      <trkpt lat="42.7359820" lon="-7.3143710">
        <ele>604.4</ele>
        <time>2021-10-04T16:52:40Z</time>
      </trkpt>
      <trkpt lat="42.7359680" lon="-7.3144490">
        <ele>604.6</ele>
        <time>2021-10-04T16:52:41Z</time>
      </trkpt>
      <trkpt lat="42.7359290" lon="-7.3146860">
        <ele>605.4</ele>
        <time>2021-10-04T16:52:44Z</time>
      </trkpt>
      <trkpt lat="42.7359120" lon="-7.3147720">
        <ele>605.8</ele>
        <time>2021-10-04T16:52:45Z</time>
      </trkpt>
      <trkpt lat="42.7358570" lon="-7.3150910">
        <ele>606.8</ele>
        <time>2021-10-04T16:52:49Z</time>
      </trkpt>
      <trkpt lat="42.7358350" lon="-7.3152470">
        <ele>607.0</ele>
        <time>2021-10-04T16:52:51Z</time>
      </trkpt>
      <trkpt lat="42.7357820" lon="-7.3157720">
        <ele>607.8</ele>
        <time>2021-10-04T16:52:58Z</time>
      </trkpt>
      <trkpt lat="42.7357400" lon="-7.3162380">
        <ele>608.6</ele>
        <time>2021-10-04T16:53:04Z</time>
      </trkpt>
      <trkpt lat="42.7357320" lon="-7.3164000">
        <ele>609.0</ele>
        <time>2021-10-04T16:53:06Z</time>
      </trkpt>
      <trkpt lat="42.7357160" lon="-7.3166390">
        <ele>609.6</ele>
        <time>2021-10-04T16:53:09Z</time>
      </trkpt>
      <trkpt lat="42.7357090" lon="-7.3168070">
        <ele>610.0</ele>
        <time>2021-10-04T16:53:11Z</time>
      </trkpt>
      <trkpt lat="42.7357030" lon="-7.3170890">
        <ele>611.0</ele>
        <time>2021-10-04T16:53:15Z</time>
      </trkpt>
      <trkpt lat="42.7357030" lon="-7.3171510">
        <ele>611.4</ele>
        <time>2021-10-04T16:53:16Z</time>
      </trkpt>
      <trkpt lat="42.7356980" lon="-7.3174000">
        <ele>612.8</ele>
        <time>2021-10-04T16:53:20Z</time>
      </trkpt>
      <trkpt lat="42.7356950" lon="-7.3175230">
        <ele>614.0</ele>
        <time>2021-10-04T16:53:22Z</time>
      </trkpt>
      <trkpt lat="42.7356950" lon="-7.3176470">
        <ele>615.0</ele>
        <time>2021-10-04T16:53:24Z</time>
      </trkpt>
      <trkpt lat="42.7356940" lon="-7.3178360">
        <ele>616.4</ele>
        <time>2021-10-04T16:53:27Z</time>
      </trkpt>
      <trkpt lat="42.7356890" lon="-7.3180190">
        <ele>617.4</ele>
        <time>2021-10-04T16:53:30Z</time>
      </trkpt>
      <trkpt lat="42.7356860" lon="-7.3181920">
        <ele>618.6</ele>
        <time>2021-10-04T16:53:33Z</time>
      </trkpt>
      <trkpt lat="42.7356750" lon="-7.3184100">
        <ele>619.8</ele>
        <time>2021-10-04T16:53:37Z</time>
      </trkpt>
      <trkpt lat="42.7356630" lon="-7.3185780">
        <ele>621.0</ele>
        <time>2021-10-04T16:53:40Z</time>
      </trkpt>
      <trkpt lat="42.7356240" lon="-7.3189070">
        <ele>622.2</ele>
        <time>2021-10-04T16:53:46Z</time>
      </trkpt>
      <trkpt lat="42.7355770" lon="-7.3193290">
        <ele>623.2</ele>
        <time>2021-10-04T16:53:54Z</time>
      </trkpt>
      <trkpt lat="42.7355460" lon="-7.3197910">
        <ele>623.6</ele>
        <time>2021-10-04T16:54:02Z</time>
      </trkpt>
      <trkpt lat="42.7355540" lon="-7.3200560">
        <ele>623.6</ele>
        <time>2021-10-04T16:54:06Z</time>
      </trkpt>
      <trkpt lat="42.7355690" lon="-7.3202570">
        <ele>623.6</ele>
        <time>2021-10-04T16:54:09Z</time>
      </trkpt>
      <trkpt lat="42.7356000" lon="-7.3204480">
        <ele>623.6</ele>
        <time>2021-10-04T16:54:12Z</time>
      </trkpt>
      <trkpt lat="42.7356310" lon="-7.3205950">
        <ele>623.8</ele>
        <time>2021-10-04T16:54:15Z</time>
      </trkpt>
      <trkpt lat="42.7356440" lon="-7.3206510">
        <ele>623.8</ele>
        <time>2021-10-04T16:54:18Z</time>
      </trkpt>
      <trkpt lat="42.7356500" lon="-7.3206880">
        <ele>624.2</ele>
        <time>2021-10-04T16:55:24Z</time>
      </trkpt>
      <trkpt lat="42.7356540" lon="-7.3207090">
        <ele>624.2</ele>
        <time>2021-10-04T16:55:25Z</time>
      </trkpt>
      <trkpt lat="42.7357000" lon="-7.3208770">
        <ele>624.2</ele>
        <time>2021-10-04T16:55:30Z</time>
      </trkpt>
      <trkpt lat="42.7358750" lon="-7.3213250">
        <ele>623.2</ele>
        <time>2021-10-04T16:55:37Z</time>
      </trkpt>
      <trkpt lat="42.7359800" lon="-7.3215660">
        <ele>622.0</ele>
        <time>2021-10-04T16:55:40Z</time>
      </trkpt>
      <trkpt lat="42.7361040" lon="-7.3218460">
        <ele>621.0</ele>
        <time>2021-10-04T16:55:43Z</time>
      </trkpt>
      <trkpt lat="42.7361940" lon="-7.3220500">
        <ele>619.8</ele>
        <time>2021-10-04T16:55:45Z</time>
      </trkpt>
      <trkpt lat="42.7362880" lon="-7.3222680">
        <ele>619.0</ele>
        <time>2021-10-04T16:55:47Z</time>
      </trkpt>
      <trkpt lat="42.7363370" lon="-7.3223820">
        <ele>618.8</ele>
        <time>2021-10-04T16:55:48Z</time>
      </trkpt>
      <trkpt lat="42.7364920" lon="-7.3227400">
        <ele>617.0</ele>
        <time>2021-10-04T16:55:51Z</time>
      </trkpt>
      <trkpt lat="42.7365990" lon="-7.3229910">
        <ele>614.8</ele>
        <time>2021-10-04T16:55:53Z</time>
      </trkpt>
      <trkpt lat="42.7367100" lon="-7.3232490">
        <ele>612.2</ele>
        <time>2021-10-04T16:55:55Z</time>
      </trkpt>
      <trkpt lat="42.7368200" lon="-7.3235150">
        <ele>610.4</ele>
        <time>2021-10-04T16:55:57Z</time>
      </trkpt>
      <trkpt lat="42.7368790" lon="-7.3236490">
        <ele>609.4</ele>
        <time>2021-10-04T16:55:58Z</time>
      </trkpt>
      <trkpt lat="42.7369390" lon="-7.3237830">
        <ele>608.4</ele>
        <time>2021-10-04T16:55:59Z</time>
      </trkpt>
      <trkpt lat="42.7370000" lon="-7.3239170">
        <ele>607.2</ele>
        <time>2021-10-04T16:56:00Z</time>
      </trkpt>
      <trkpt lat="42.7370610" lon="-7.3240540">
        <ele>606.2</ele>
        <time>2021-10-04T16:56:01Z</time>
      </trkpt>
      <trkpt lat="42.7371640" lon="-7.3243400">
        <ele>604.8</ele>
        <time>2021-10-04T16:56:03Z</time>
      </trkpt>
      <trkpt lat="42.7372320" lon="-7.3246460">
        <ele>603.2</ele>
        <time>2021-10-04T16:56:05Z</time>
      </trkpt>
      <trkpt lat="42.7372490" lon="-7.3248030">
        <ele>602.2</ele>
        <time>2021-10-04T16:56:06Z</time>
      </trkpt>
      <trkpt lat="42.7372390" lon="-7.3251160">
        <ele>600.0</ele>
        <time>2021-10-04T16:56:08Z</time>
      </trkpt>
      <trkpt lat="42.7372150" lon="-7.3252690">
        <ele>599.0</ele>
        <time>2021-10-04T16:56:09Z</time>
      </trkpt>
      <trkpt lat="42.7371820" lon="-7.3254210">
        <ele>598.0</ele>
        <time>2021-10-04T16:56:10Z</time>
      </trkpt>
      <trkpt lat="42.7370870" lon="-7.3257080">
        <ele>596.0</ele>
        <time>2021-10-04T16:56:12Z</time>
      </trkpt>
      <trkpt lat="42.7370240" lon="-7.3258400">
        <ele>594.8</ele>
        <time>2021-10-04T16:56:13Z</time>
      </trkpt>
      <trkpt lat="42.7369490" lon="-7.3259620">
        <ele>593.4</ele>
        <time>2021-10-04T16:56:14Z</time>
      </trkpt>
      <trkpt lat="42.7367760" lon="-7.3261700">
        <ele>591.8</ele>
        <time>2021-10-04T16:56:16Z</time>
      </trkpt>
      <trkpt lat="42.7366780" lon="-7.3262570">
        <ele>591.4</ele>
        <time>2021-10-04T16:56:17Z</time>
      </trkpt>
      <trkpt lat="42.7365760" lon="-7.3263350">
        <ele>590.2</ele>
        <time>2021-10-04T16:56:18Z</time>
      </trkpt>
      <trkpt lat="42.7363560" lon="-7.3264530">
        <ele>588.6</ele>
        <time>2021-10-04T16:56:20Z</time>
      </trkpt>
      <trkpt lat="42.7362400" lon="-7.3264930">
        <ele>587.6</ele>
        <time>2021-10-04T16:56:21Z</time>
      </trkpt>
      <trkpt lat="42.7361220" lon="-7.3265180">
        <ele>586.0</ele>
        <time>2021-10-04T16:56:22Z</time>
      </trkpt>
      <trkpt lat="42.7360010" lon="-7.3265280">
        <ele>584.4</ele>
        <time>2021-10-04T16:56:23Z</time>
      </trkpt>
      <trkpt lat="42.7357580" lon="-7.3264970">
        <ele>582.4</ele>
        <time>2021-10-04T16:56:25Z</time>
      </trkpt>
      <trkpt lat="42.7356360" lon="-7.3264630">
        <ele>580.8</ele>
        <time>2021-10-04T16:56:26Z</time>
      </trkpt>
      <trkpt lat="42.7355150" lon="-7.3264240">
        <ele>579.2</ele>
        <time>2021-10-04T16:56:27Z</time>
      </trkpt>
      <trkpt lat="42.7352680" lon="-7.3263330">
        <ele>577.2</ele>
        <time>2021-10-04T16:56:29Z</time>
      </trkpt>
      <trkpt lat="42.7348890" lon="-7.3261900">
        <ele>575.0</ele>
        <time>2021-10-04T16:56:32Z</time>
      </trkpt>
      <trkpt lat="42.7346400" lon="-7.3260870">
        <ele>573.2</ele>
        <time>2021-10-04T16:56:34Z</time>
      </trkpt>
      <trkpt lat="42.7345190" lon="-7.3260260">
        <ele>571.8</ele>
        <time>2021-10-04T16:56:35Z</time>
      </trkpt>
      <trkpt lat="42.7344030" lon="-7.3259520">
        <ele>570.2</ele>
        <time>2021-10-04T16:56:36Z</time>
      </trkpt>
      <trkpt lat="42.7342040" lon="-7.3257400">
        <ele>568.4</ele>
        <time>2021-10-04T16:56:38Z</time>
      </trkpt>
      <trkpt lat="42.7340760" lon="-7.3254400">
        <ele>566.2</ele>
        <time>2021-10-04T16:56:40Z</time>
      </trkpt>
      <trkpt lat="42.7340050" lon="-7.3250990">
        <ele>564.6</ele>
        <time>2021-10-04T16:56:42Z</time>
      </trkpt>
      <trkpt lat="42.7339790" lon="-7.3249260">
        <ele>563.2</ele>
        <time>2021-10-04T16:56:43Z</time>
      </trkpt>
      <trkpt lat="42.7338990" lon="-7.3245930">
        <ele>561.8</ele>
        <time>2021-10-04T16:56:45Z</time>
      </trkpt>
      <trkpt lat="42.7337480" lon="-7.3243050">
        <ele>560.6</ele>
        <time>2021-10-04T16:56:47Z</time>
      </trkpt>
      <trkpt lat="42.7335560" lon="-7.3240620">
        <ele>559.2</ele>
        <time>2021-10-04T16:56:49Z</time>
      </trkpt>
      <trkpt lat="42.7333410" lon="-7.3238530">
        <ele>557.4</ele>
        <time>2021-10-04T16:56:51Z</time>
      </trkpt>
      <trkpt lat="42.7330990" lon="-7.3237350">
        <ele>555.6</ele>
        <time>2021-10-04T16:56:53Z</time>
      </trkpt>
      <trkpt lat="42.7329660" lon="-7.3237600">
        <ele>554.6</ele>
        <time>2021-10-04T16:56:54Z</time>
      </trkpt>
      <trkpt lat="42.7327630" lon="-7.3239330">
        <ele>552.8</ele>
        <time>2021-10-04T16:56:56Z</time>
      </trkpt>
      <trkpt lat="42.7326750" lon="-7.3240530">
        <ele>552.0</ele>
        <time>2021-10-04T16:56:57Z</time>
      </trkpt>
      <trkpt lat="42.7325860" lon="-7.3241790">
        <ele>551.2</ele>
        <time>2021-10-04T16:56:58Z</time>
      </trkpt>
      <trkpt lat="42.7324160" lon="-7.3244470">
        <ele>549.8</ele>
        <time>2021-10-04T16:57:00Z</time>
      </trkpt>
      <trkpt lat="42.7323440" lon="-7.3245870">
        <ele>549.4</ele>
        <time>2021-10-04T16:57:01Z</time>
      </trkpt>
      <trkpt lat="42.7322940" lon="-7.3249030">
        <ele>547.8</ele>
        <time>2021-10-04T16:57:03Z</time>
      </trkpt>
      <trkpt lat="42.7323130" lon="-7.3250640">
        <ele>546.6</ele>
        <time>2021-10-04T16:57:04Z</time>
      </trkpt>
      <trkpt lat="42.7324160" lon="-7.3253620">
        <ele>544.2</ele>
        <time>2021-10-04T16:57:06Z</time>
      </trkpt>
      <trkpt lat="42.7324930" lon="-7.3254810">
        <ele>542.8</ele>
        <time>2021-10-04T16:57:07Z</time>
      </trkpt>
      <trkpt lat="42.7326630" lon="-7.3256910">
        <ele>541.6</ele>
        <time>2021-10-04T16:57:09Z</time>
      </trkpt>
      <trkpt lat="42.7327400" lon="-7.3257850">
        <ele>541.4</ele>
        <time>2021-10-04T16:57:10Z</time>
      </trkpt>
      <trkpt lat="42.7328010" lon="-7.3262380">
        <ele>541.2</ele>
        <time>2021-10-04T16:57:14Z</time>
      </trkpt>
      <trkpt lat="42.7327100" lon="-7.3264390">
        <ele>541.2</ele>
        <time>2021-10-04T16:57:16Z</time>
      </trkpt>
      <trkpt lat="42.7325250" lon="-7.3266900">
        <ele>541.8</ele>
        <time>2021-10-04T16:57:19Z</time>
      </trkpt>
      <trkpt lat="42.7323980" lon="-7.3268360">
        <ele>542.8</ele>
        <time>2021-10-04T16:57:21Z</time>
      </trkpt>
      <trkpt lat="42.7321100" lon="-7.3270150">
        <ele>543.4</ele>
        <time>2021-10-04T16:57:25Z</time>
      </trkpt>
      <trkpt lat="42.7320380" lon="-7.3270440">
        <ele>543.4</ele>
        <time>2021-10-04T16:57:26Z</time>
      </trkpt>
      <trkpt lat="42.7318240" lon="-7.3270770">
        <ele>543.8</ele>
        <time>2021-10-04T16:57:29Z</time>
      </trkpt>
      <trkpt lat="42.7317530" lon="-7.3270710">
        <ele>544.0</ele>
        <time>2021-10-04T16:57:30Z</time>
      </trkpt>
      <trkpt lat="42.7314000" lon="-7.3270430">
        <ele>544.4</ele>
        <time>2021-10-04T16:57:35Z</time>
      </trkpt>
      <trkpt lat="42.7312580" lon="-7.3270270">
        <ele>545.0</ele>
        <time>2021-10-04T16:57:37Z</time>
      </trkpt>
      <trkpt lat="42.7310500" lon="-7.3269820">
        <ele>545.6</ele>
        <time>2021-10-04T16:57:40Z</time>
      </trkpt>
      <trkpt lat="42.7308580" lon="-7.3268890">
        <ele>545.8</ele>
        <time>2021-10-04T16:57:43Z</time>
      </trkpt>
      <trkpt lat="42.7304380" lon="-7.3267070">
        <ele>545.8</ele>
        <time>2021-10-04T16:57:49Z</time>
      </trkpt>
      <trkpt lat="42.7301300" lon="-7.3267400">
        <ele>545.6</ele>
        <time>2021-10-04T16:57:53Z</time>
      </trkpt>
      <trkpt lat="42.7297820" lon="-7.3269690">
        <ele>544.0</ele>
        <time>2021-10-04T16:57:58Z</time>
      </trkpt>
      <trkpt lat="42.7296580" lon="-7.3270860">
        <ele>543.4</ele>
        <time>2021-10-04T16:58:00Z</time>
      </trkpt>
      <trkpt lat="42.7293730" lon="-7.3275340">
        <ele>543.0</ele>
        <time>2021-10-04T16:58:06Z</time>
      </trkpt>
      <trkpt lat="42.7291380" lon="-7.3282370">
        <ele>543.4</ele>
        <time>2021-10-04T16:58:14Z</time>
      </trkpt>
      <trkpt lat="42.7290200" lon="-7.3289810">
        <ele>543.8</ele>
        <time>2021-10-04T16:58:22Z</time>
      </trkpt>
      <trkpt lat="42.7290140" lon="-7.3291690">
        <ele>543.8</ele>
        <time>2021-10-04T16:58:24Z</time>
      </trkpt>
      <trkpt lat="42.7291850" lon="-7.3297730">
        <ele>544.0</ele>
        <time>2021-10-04T16:58:31Z</time>
      </trkpt>
      <trkpt lat="42.7295320" lon="-7.3303750">
        <ele>544.4</ele>
        <time>2021-10-04T16:58:39Z</time>
      </trkpt>
      <trkpt lat="42.7298550" lon="-7.3309130">
        <ele>544.4</ele>
        <time>2021-10-04T16:58:46Z</time>
      </trkpt>
      <trkpt lat="42.7302290" lon="-7.3315330">
        <ele>544.0</ele>
        <time>2021-10-04T16:58:54Z</time>
      </trkpt>
      <trkpt lat="42.7305270" lon="-7.3322380">
        <ele>544.0</ele>
        <time>2021-10-04T16:59:02Z</time>
      </trkpt>
      <trkpt lat="42.7307080" lon="-7.3329220">
        <ele>544.0</ele>
        <time>2021-10-04T16:59:09Z</time>
      </trkpt>
      <trkpt lat="42.7305550" lon="-7.3336440">
        <ele>543.4</ele>
        <time>2021-10-04T16:59:16Z</time>
      </trkpt>
      <trkpt lat="42.7302780" lon="-7.3339460">
        <ele>542.8</ele>
        <time>2021-10-04T16:59:20Z</time>
      </trkpt>
      <trkpt lat="42.7301210" lon="-7.3340830">
        <ele>542.4</ele>
        <time>2021-10-04T16:59:22Z</time>
      </trkpt>
      <trkpt lat="42.7298820" lon="-7.3342740">
        <ele>541.4</ele>
        <time>2021-10-04T16:59:25Z</time>
      </trkpt>
      <trkpt lat="42.7297230" lon="-7.3344020">
        <ele>540.2</ele>
        <time>2021-10-04T16:59:27Z</time>
      </trkpt>
      <trkpt lat="42.7294730" lon="-7.3345730">
        <ele>538.8</ele>
        <time>2021-10-04T16:59:30Z</time>
      </trkpt>
      <trkpt lat="42.7292110" lon="-7.3347190">
        <ele>537.6</ele>
        <time>2021-10-04T16:59:33Z</time>
      </trkpt>
      <trkpt lat="42.7289470" lon="-7.3348570">
        <ele>537.2</ele>
        <time>2021-10-04T16:59:36Z</time>
      </trkpt>
      <trkpt lat="42.7287760" lon="-7.3349590">
        <ele>536.6</ele>
        <time>2021-10-04T16:59:38Z</time>
      </trkpt>
      <trkpt lat="42.7284510" lon="-7.3351730">
        <ele>535.2</ele>
        <time>2021-10-04T16:59:42Z</time>
      </trkpt>
      <trkpt lat="42.7283700" lon="-7.3352250">
        <ele>534.0</ele>
        <time>2021-10-04T16:59:43Z</time>
      </trkpt>
      <trkpt lat="42.7282110" lon="-7.3353240">
        <ele>532.8</ele>
        <time>2021-10-04T16:59:45Z</time>
      </trkpt>
      <trkpt lat="42.7276610" lon="-7.3356480">
        <ele>532.2</ele>
        <time>2021-10-04T16:59:52Z</time>
      </trkpt>
      <trkpt lat="42.7272770" lon="-7.3358740">
        <ele>532.0</ele>
        <time>2021-10-04T16:59:57Z</time>
      </trkpt>
      <trkpt lat="42.7267680" lon="-7.3361780">
        <ele>531.8</ele>
        <time>2021-10-04T17:00:04Z</time>
      </trkpt>
      <trkpt lat="42.7263080" lon="-7.3365740">
        <ele>532.0</ele>
        <time>2021-10-04T17:00:11Z</time>
      </trkpt>
      <trkpt lat="42.7260090" lon="-7.3371830">
        <ele>532.0</ele>
        <time>2021-10-04T17:00:18Z</time>
      </trkpt>
      <trkpt lat="42.7258730" lon="-7.3379070">
        <ele>532.2</ele>
        <time>2021-10-04T17:00:25Z</time>
      </trkpt>
      <trkpt lat="42.7256890" lon="-7.3386150">
        <ele>531.6</ele>
        <time>2021-10-04T17:00:32Z</time>
      </trkpt>
      <trkpt lat="42.7254050" lon="-7.3391610">
        <ele>531.2</ele>
        <time>2021-10-04T17:00:38Z</time>
      </trkpt>
      <trkpt lat="42.7250380" lon="-7.3398160">
        <ele>530.0</ele>
        <time>2021-10-04T17:00:45Z</time>
      </trkpt>
      <trkpt lat="42.7246720" lon="-7.3404530">
        <ele>529.0</ele>
        <time>2021-10-04T17:00:52Z</time>
      </trkpt>
      <trkpt lat="42.7245570" lon="-7.3406150">
        <ele>529.0</ele>
        <time>2021-10-04T17:00:54Z</time>
      </trkpt>
      <trkpt lat="42.7243460" lon="-7.3409680">
        <ele>528.6</ele>
        <time>2021-10-04T17:00:58Z</time>
      </trkpt>
      <trkpt lat="42.7242720" lon="-7.3411620">
        <ele>527.8</ele>
        <time>2021-10-04T17:01:00Z</time>
      </trkpt>
      <trkpt lat="42.7241780" lon="-7.3415740">
        <ele>527.2</ele>
        <time>2021-10-04T17:01:04Z</time>
      </trkpt>
      <trkpt lat="42.7241990" lon="-7.3420000">
        <ele>526.8</ele>
        <time>2021-10-04T17:01:08Z</time>
      </trkpt>
      <trkpt lat="42.7245840" lon="-7.3426040">
        <ele>526.6</ele>
        <time>2021-10-04T17:01:16Z</time>
      </trkpt>
      <trkpt lat="42.7249410" lon="-7.3427230">
        <ele>526.8</ele>
        <time>2021-10-04T17:01:21Z</time>
      </trkpt>
      <trkpt lat="42.7255230" lon="-7.3428230">
        <ele>527.0</ele>
        <time>2021-10-04T17:01:29Z</time>
      </trkpt>
      <trkpt lat="42.7260070" lon="-7.3429990">
        <ele>527.4</ele>
        <time>2021-10-04T17:01:36Z</time>
      </trkpt>
      <trkpt lat="42.7262240" lon="-7.3432430">
        <ele>527.8</ele>
        <time>2021-10-04T17:01:40Z</time>
      </trkpt>
      <trkpt lat="42.7262690" lon="-7.3433180">
        <ele>527.8</ele>
        <time>2021-10-04T17:01:41Z</time>
      </trkpt>
      <trkpt lat="42.7263060" lon="-7.3434000">
        <ele>528.0</ele>
        <time>2021-10-04T17:01:42Z</time>
      </trkpt>
      <trkpt lat="42.7266180" lon="-7.3440560">
        <ele>528.0</ele>
        <time>2021-10-04T17:01:50Z</time>
      </trkpt>
      <trkpt lat="42.7268520" lon="-7.3447220">
        <ele>528.0</ele>
        <time>2021-10-04T17:01:57Z</time>
      </trkpt>
      <trkpt lat="42.7270830" lon="-7.3453860">
        <ele>528.0</ele>
        <time>2021-10-04T17:02:04Z</time>
      </trkpt>
      <trkpt lat="42.7273650" lon="-7.3460230">
        <ele>528.0</ele>
        <time>2021-10-04T17:02:11Z</time>
      </trkpt>
      <trkpt lat="42.7278250" lon="-7.3465740">
        <ele>528.0</ele>
        <time>2021-10-04T17:02:19Z</time>
      </trkpt>
      <trkpt lat="42.7282540" lon="-7.3470310">
        <ele>528.0</ele>
        <time>2021-10-04T17:02:26Z</time>
      </trkpt>
      <trkpt lat="42.7286510" lon="-7.3475590">
        <ele>528.2</ele>
        <time>2021-10-04T17:02:33Z</time>
      </trkpt>
      <trkpt lat="42.7288620" lon="-7.3480570">
        <ele>528.0</ele>
        <time>2021-10-04T17:02:38Z</time>
      </trkpt>
      <trkpt lat="42.7291020" lon="-7.3488430">
        <ele>526.4</ele>
        <time>2021-10-04T17:02:45Z</time>
      </trkpt>
      <trkpt lat="42.7292000" lon="-7.3491770">
        <ele>525.4</ele>
        <time>2021-10-04T17:02:48Z</time>
      </trkpt>
      <trkpt lat="42.7293430" lon="-7.3495800">
        <ele>525.2</ele>
        <time>2021-10-04T17:02:52Z</time>
      </trkpt>
      <trkpt lat="42.7294820" lon="-7.3498220">
        <ele>525.2</ele>
        <time>2021-10-04T17:02:55Z</time>
      </trkpt>
      <trkpt lat="42.7297570" lon="-7.3500940">
        <ele>526.8</ele>
        <time>2021-10-04T17:03:00Z</time>
      </trkpt>
      <trkpt lat="42.7298690" lon="-7.3501530">
        <ele>527.8</ele>
        <time>2021-10-04T17:03:02Z</time>
      </trkpt>
      <trkpt lat="42.7300250" lon="-7.3502160">
        <ele>529.0</ele>
        <time>2021-10-04T17:03:05Z</time>
      </trkpt>
      <trkpt lat="42.7301200" lon="-7.3502440">
        <ele>530.0</ele>
        <time>2021-10-04T17:03:07Z</time>
      </trkpt>
      <trkpt lat="42.7302070" lon="-7.3502640">
        <ele>531.6</ele>
        <time>2021-10-04T17:03:09Z</time>
      </trkpt>
      <trkpt lat="42.7302860" lon="-7.3502790">
        <ele>532.8</ele>
        <time>2021-10-04T17:03:11Z</time>
      </trkpt>
      <trkpt lat="42.7303570" lon="-7.3502890">
        <ele>534.0</ele>
        <time>2021-10-04T17:03:13Z</time>
      </trkpt>
      <trkpt lat="42.7304230" lon="-7.3503010">
        <ele>535.0</ele>
        <time>2021-10-04T17:03:15Z</time>
      </trkpt>
      <trkpt lat="42.7304890" lon="-7.3503130">
        <ele>536.0</ele>
        <time>2021-10-04T17:03:17Z</time>
      </trkpt>
      <trkpt lat="42.7306160" lon="-7.3503400">
        <ele>537.6</ele>
        <time>2021-10-04T17:03:21Z</time>
      </trkpt>
      <trkpt lat="42.7307780" lon="-7.3503650">
        <ele>538.8</ele>
        <time>2021-10-04T17:03:26Z</time>
      </trkpt>
      <trkpt lat="42.7309740" lon="-7.3504050">
        <ele>540.0</ele>
        <time>2021-10-04T17:03:32Z</time>
      </trkpt>
      <trkpt lat="42.7311030" lon="-7.3504350">
        <ele>541.2</ele>
        <time>2021-10-04T17:03:36Z</time>
      </trkpt>
      <trkpt lat="42.7312600" lon="-7.3504720">
        <ele>542.4</ele>
        <time>2021-10-04T17:03:41Z</time>
      </trkpt>
      <trkpt lat="42.7314170" lon="-7.3505250">
        <ele>543.4</ele>
        <time>2021-10-04T17:03:46Z</time>
      </trkpt>
      <trkpt lat="42.7315670" lon="-7.3505900">
        <ele>544.6</ele>
        <time>2021-10-04T17:03:51Z</time>
      </trkpt>
      <trkpt lat="42.7316920" lon="-7.3506330">
        <ele>545.6</ele>
        <time>2021-10-04T17:03:55Z</time>
      </trkpt>
      <trkpt lat="42.7318120" lon="-7.3506930">
        <ele>546.8</ele>
        <time>2021-10-04T17:03:59Z</time>
      </trkpt>
      <trkpt lat="42.7319880" lon="-7.3508080">
        <ele>548.0</ele>
        <time>2021-10-04T17:04:05Z</time>
      </trkpt>
      <trkpt lat="42.7320740" lon="-7.3508840">
        <ele>549.2</ele>
        <time>2021-10-04T17:04:08Z</time>
      </trkpt>
      <trkpt lat="42.7322170" lon="-7.3510190">
        <ele>550.2</ele>
        <time>2021-10-04T17:04:13Z</time>
      </trkpt>
      <trkpt lat="42.7323430" lon="-7.3511940">
        <ele>551.4</ele>
        <time>2021-10-04T17:04:18Z</time>
      </trkpt>
      <trkpt lat="42.7324570" lon="-7.3513790">
        <ele>552.6</ele>
        <time>2021-10-04T17:04:23Z</time>
      </trkpt>
      <trkpt lat="42.7325750" lon="-7.3516710">
        <ele>553.8</ele>
        <time>2021-10-04T17:04:30Z</time>
      </trkpt>
      <trkpt lat="42.7326390" lon="-7.3518870">
        <ele>555.0</ele>
        <time>2021-10-04T17:04:35Z</time>
      </trkpt>
      <trkpt lat="42.7326800" lon="-7.3521380">
        <ele>556.2</ele>
        <time>2021-10-04T17:04:41Z</time>
      </trkpt>
      <trkpt lat="42.7326840" lon="-7.3523000">
        <ele>557.2</ele>
        <time>2021-10-04T17:04:45Z</time>
      </trkpt>
      <trkpt lat="42.7327000" lon="-7.3524620">
        <ele>558.4</ele>
        <time>2021-10-04T17:04:49Z</time>
      </trkpt>
      <trkpt lat="42.7327020" lon="-7.3526310">
        <ele>559.6</ele>
        <time>2021-10-04T17:04:53Z</time>
      </trkpt>
      <trkpt lat="42.7327220" lon="-7.3527920">
        <ele>560.8</ele>
        <time>2021-10-04T17:04:57Z</time>
      </trkpt>
      <trkpt lat="42.7327270" lon="-7.3529550">
        <ele>562.2</ele>
        <time>2021-10-04T17:05:01Z</time>
      </trkpt>
      <trkpt lat="42.7327290" lon="-7.3530820">
        <ele>563.4</ele>
        <time>2021-10-04T17:05:04Z</time>
      </trkpt>
      <trkpt lat="42.7327460" lon="-7.3532400">
        <ele>564.4</ele>
        <time>2021-10-04T17:05:08Z</time>
      </trkpt>
      <trkpt lat="42.7327730" lon="-7.3533960">
        <ele>565.8</ele>
        <time>2021-10-04T17:05:12Z</time>
      </trkpt>
      <trkpt lat="42.7328010" lon="-7.3535570">
        <ele>567.0</ele>
        <time>2021-10-04T17:05:16Z</time>
      </trkpt>
      <trkpt lat="42.7328370" lon="-7.3537030">
        <ele>568.2</ele>
        <time>2021-10-04T17:05:20Z</time>
      </trkpt>
      <trkpt lat="42.7328730" lon="-7.3538040">
        <ele>569.4</ele>
        <time>2021-10-04T17:05:23Z</time>
      </trkpt>
      <trkpt lat="42.7329170" lon="-7.3539000">
        <ele>570.4</ele>
        <time>2021-10-04T17:05:26Z</time>
      </trkpt>
      <trkpt lat="42.7329740" lon="-7.3540280">
        <ele>571.4</ele>
        <time>2021-10-04T17:05:30Z</time>
      </trkpt>
      <trkpt lat="42.7330870" lon="-7.3541860">
        <ele>572.4</ele>
        <time>2021-10-04T17:05:36Z</time>
      </trkpt>
      <trkpt lat="42.7331680" lon="-7.3542900">
        <ele>573.6</ele>
        <time>2021-10-04T17:05:40Z</time>
      </trkpt>
      <trkpt lat="42.7332760" lon="-7.3544100">
        <ele>574.6</ele>
        <time>2021-10-04T17:05:45Z</time>
      </trkpt>
      <trkpt lat="42.7334320" lon="-7.3545900">
        <ele>575.6</ele>
        <time>2021-10-04T17:05:52Z</time>
      </trkpt>
      <trkpt lat="42.7336040" lon="-7.3547930">
        <ele>576.8</ele>
        <time>2021-10-04T17:06:00Z</time>
      </trkpt>
      <trkpt lat="42.7337520" lon="-7.3549650">
        <ele>577.8</ele>
        <time>2021-10-04T17:06:07Z</time>
      </trkpt>
      <trkpt lat="42.7339220" lon="-7.3551460">
        <ele>579.0</ele>
        <time>2021-10-04T17:06:14Z</time>
      </trkpt>
      <trkpt lat="42.7341120" lon="-7.3553910">
        <ele>580.2</ele>
        <time>2021-10-04T17:06:22Z</time>
      </trkpt>
      <trkpt lat="42.7342500" lon="-7.3555730">
        <ele>581.2</ele>
        <time>2021-10-04T17:06:28Z</time>
      </trkpt>
      <trkpt lat="42.7343920" lon="-7.3557990">
        <ele>582.4</ele>
        <time>2021-10-04T17:06:34Z</time>
      </trkpt>
      <trkpt lat="42.7344950" lon="-7.3560410">
        <ele>583.6</ele>
        <time>2021-10-04T17:06:40Z</time>
      </trkpt>
      <trkpt lat="42.7345710" lon="-7.3562530">
        <ele>584.6</ele>
        <time>2021-10-04T17:06:45Z</time>
      </trkpt>
      <trkpt lat="42.7346330" lon="-7.3565160">
        <ele>585.8</ele>
        <time>2021-10-04T17:06:51Z</time>
      </trkpt>
      <trkpt lat="42.7346850" lon="-7.3567840">
        <ele>587.0</ele>
        <time>2021-10-04T17:06:57Z</time>
      </trkpt>
      <trkpt lat="42.7347180" lon="-7.3570110">
        <ele>588.0</ele>
        <time>2021-10-04T17:07:02Z</time>
      </trkpt>
      <trkpt lat="42.7347460" lon="-7.3571870">
        <ele>589.0</ele>
        <time>2021-10-04T17:07:06Z</time>
      </trkpt>
      <trkpt lat="42.7347780" lon="-7.3573730">
        <ele>590.0</ele>
        <time>2021-10-04T17:07:10Z</time>
      </trkpt>
      <trkpt lat="42.7348130" lon="-7.3576550">
        <ele>591.0</ele>
        <time>2021-10-04T17:07:16Z</time>
      </trkpt>
      <trkpt lat="42.7348230" lon="-7.3578490">
        <ele>592.0</ele>
        <time>2021-10-04T17:07:20Z</time>
      </trkpt>
      <trkpt lat="42.7348250" lon="-7.3581570">
        <ele>593.0</ele>
        <time>2021-10-04T17:07:26Z</time>
      </trkpt>
      <trkpt lat="42.7347880" lon="-7.3584710">
        <ele>593.8</ele>
        <time>2021-10-04T17:07:32Z</time>
      </trkpt>
      <trkpt lat="42.7347400" lon="-7.3586780">
        <ele>593.8</ele>
        <time>2021-10-04T17:07:36Z</time>
      </trkpt>
      <trkpt lat="42.7346900" lon="-7.3588300">
        <ele>594.0</ele>
        <time>2021-10-04T17:07:39Z</time>
      </trkpt>
      <trkpt lat="42.7346530" lon="-7.3589270">
        <ele>594.0</ele>
        <time>2021-10-04T17:07:41Z</time>
      </trkpt>
      <trkpt lat="42.7346150" lon="-7.3590240">
        <ele>593.8</ele>
        <time>2021-10-04T17:07:43Z</time>
      </trkpt>
      <trkpt lat="42.7345430" lon="-7.3592620">
        <ele>594.0</ele>
        <time>2021-10-04T17:08:29Z</time>
      </trkpt>
      <trkpt lat="42.7345430" lon="-7.3592620">
        <ele>594.0</ele>
        <time>2021-10-04T17:08:30Z</time>
      </trkpt>
      <trkpt lat="42.7345330" lon="-7.3592760">
        <ele>594.4</ele>
        <time>2021-10-04T17:10:15Z</time>
      </trkpt>
      <trkpt lat="42.7345220" lon="-7.3592970">
        <ele>594.4</ele>
        <time>2021-10-04T17:10:16Z</time>
      </trkpt>
      <trkpt lat="42.7344920" lon="-7.3593690">
        <ele>594.4</ele>
        <time>2021-10-04T17:10:18Z</time>
      </trkpt>
      <trkpt lat="42.7344070" lon="-7.3595840">
        <ele>594.2</ele>
        <time>2021-10-04T17:10:22Z</time>
      </trkpt>
      <trkpt lat="42.7343210" lon="-7.3598640">
        <ele>593.8</ele>
        <time>2021-10-04T17:10:26Z</time>
      </trkpt>
      <trkpt lat="42.7342680" lon="-7.3601140">
        <ele>593.0</ele>
        <time>2021-10-04T17:10:29Z</time>
      </trkpt>
      <trkpt lat="42.7342120" lon="-7.3605570">
        <ele>592.6</ele>
        <time>2021-10-04T17:10:34Z</time>
      </trkpt>
      <trkpt lat="42.7341880" lon="-7.3613040">
        <ele>592.2</ele>
        <time>2021-10-04T17:10:42Z</time>
      </trkpt>
      <trkpt lat="42.7342130" lon="-7.3615900">
        <ele>592.0</ele>
        <time>2021-10-04T17:10:45Z</time>
      </trkpt>
      <trkpt lat="42.7344150" lon="-7.3623390">
        <ele>591.2</ele>
        <time>2021-10-04T17:10:53Z</time>
      </trkpt>
      <trkpt lat="42.7347580" lon="-7.3629580">
        <ele>591.2</ele>
        <time>2021-10-04T17:11:01Z</time>
      </trkpt>
      <trkpt lat="42.7351110" lon="-7.3635310">
        <ele>592.0</ele>
        <time>2021-10-04T17:11:09Z</time>
      </trkpt>
      <trkpt lat="42.7354690" lon="-7.3640960">
        <ele>592.8</ele>
        <time>2021-10-04T17:11:17Z</time>
      </trkpt>
      <trkpt lat="42.7355170" lon="-7.3641660">
        <ele>592.8</ele>
        <time>2021-10-04T17:11:18Z</time>
      </trkpt>
      <trkpt lat="42.7357150" lon="-7.3644490">
        <ele>593.0</ele>
        <time>2021-10-04T17:11:22Z</time>
      </trkpt>
      <trkpt lat="42.7361390" lon="-7.3649520">
        <ele>593.8</ele>
        <time>2021-10-04T17:11:30Z</time>
      </trkpt>
      <trkpt lat="42.7366050" lon="-7.3654330">
        <ele>594.8</ele>
        <time>2021-10-04T17:11:39Z</time>
      </trkpt>
      <trkpt lat="42.7366490" lon="-7.3654840">
        <ele>595.0</ele>
        <time>2021-10-04T17:11:40Z</time>
      </trkpt>
      <trkpt lat="42.7368550" lon="-7.3656980">
        <ele>596.0</ele>
        <time>2021-10-04T17:11:45Z</time>
      </trkpt>
      <trkpt lat="42.7369670" lon="-7.3658100">
        <ele>597.0</ele>
        <time>2021-10-04T17:11:48Z</time>
      </trkpt>
      <trkpt lat="42.7371320" lon="-7.3659640">
        <ele>598.2</ele>
        <time>2021-10-04T17:11:52Z</time>
      </trkpt>
      <trkpt lat="42.7371790" lon="-7.3660080">
        <ele>598.6</ele>
        <time>2021-10-04T17:11:53Z</time>
      </trkpt>
      <trkpt lat="42.7372720" lon="-7.3661030">
        <ele>599.4</ele>
        <time>2021-10-04T17:11:55Z</time>
      </trkpt>
      <trkpt lat="42.7374030" lon="-7.3662320">
        <ele>600.6</ele>
        <time>2021-10-04T17:11:58Z</time>
      </trkpt>
      <trkpt lat="42.7376500" lon="-7.3664770">
        <ele>601.6</ele>
        <time>2021-10-04T17:12:04Z</time>
      </trkpt>
      <trkpt lat="42.7380270" lon="-7.3668590">
        <ele>602.4</ele>
        <time>2021-10-04T17:12:13Z</time>
      </trkpt>
      <trkpt lat="42.7381100" lon="-7.3669430">
        <ele>602.6</ele>
        <time>2021-10-04T17:12:15Z</time>
      </trkpt>
      <trkpt lat="42.7382770" lon="-7.3671130">
        <ele>602.8</ele>
        <time>2021-10-04T17:12:19Z</time>
      </trkpt>
      <trkpt lat="42.7384460" lon="-7.3672860">
        <ele>603.0</ele>
        <time>2021-10-04T17:12:23Z</time>
      </trkpt>
      <trkpt lat="42.7386660" lon="-7.3675090">
        <ele>603.0</ele>
        <time>2021-10-04T17:12:28Z</time>
      </trkpt>
      <trkpt lat="42.7391090" lon="-7.3679810">
        <ele>603.0</ele>
        <time>2021-10-04T17:12:38Z</time>
      </trkpt>
      <trkpt lat="42.7395050" lon="-7.3685270">
        <ele>603.4</ele>
        <time>2021-10-04T17:12:48Z</time>
      </trkpt>
      <trkpt lat="42.7396390" lon="-7.3687690">
        <ele>603.6</ele>
        <time>2021-10-04T17:12:52Z</time>
      </trkpt>
      <trkpt lat="42.7398180" lon="-7.3691130">
        <ele>604.4</ele>
        <time>2021-10-04T17:12:58Z</time>
      </trkpt>
      <trkpt lat="42.7399070" lon="-7.3692820">
        <ele>605.0</ele>
        <time>2021-10-04T17:13:01Z</time>
      </trkpt>
      <trkpt lat="42.7400210" lon="-7.3695020">
        <ele>606.2</ele>
        <time>2021-10-04T17:13:05Z</time>
      </trkpt>
      <trkpt lat="42.7401590" lon="-7.3697650">
        <ele>607.4</ele>
        <time>2021-10-04T17:13:10Z</time>
      </trkpt>
      <trkpt lat="42.7403280" lon="-7.3700530">
        <ele>608.4</ele>
        <time>2021-10-04T17:13:16Z</time>
      </trkpt>
      <trkpt lat="42.7405220" lon="-7.3703000">
        <ele>609.6</ele>
        <time>2021-10-04T17:13:22Z</time>
      </trkpt>
      <trkpt lat="42.7407020" lon="-7.3704720">
        <ele>610.6</ele>
        <time>2021-10-04T17:13:27Z</time>
      </trkpt>
      <trkpt lat="42.7411550" lon="-7.3707620">
        <ele>611.8</ele>
        <time>2021-10-04T17:13:38Z</time>
      </trkpt>
      <trkpt lat="42.7413410" lon="-7.3708480">
        <ele>612.8</ele>
        <time>2021-10-04T17:13:42Z</time>
      </trkpt>
      <trkpt lat="42.7416210" lon="-7.3709960">
        <ele>613.0</ele>
        <time>2021-10-04T17:13:48Z</time>
      </trkpt>
      <trkpt lat="42.7420110" lon="-7.3711930">
        <ele>613.2</ele>
        <time>2021-10-04T17:13:56Z</time>
      </trkpt>
      <trkpt lat="42.7421640" lon="-7.3712690">
        <ele>613.2</ele>
        <time>2021-10-04T17:13:59Z</time>
      </trkpt>
      <trkpt lat="42.7423260" lon="-7.3713530">
        <ele>613.2</ele>
        <time>2021-10-04T17:14:02Z</time>
      </trkpt>
      <trkpt lat="42.7425540" lon="-7.3714720">
        <ele>613.0</ele>
        <time>2021-10-04T17:14:06Z</time>
      </trkpt>
      <trkpt lat="42.7426130" lon="-7.3715040">
        <ele>613.0</ele>
        <time>2021-10-04T17:14:07Z</time>
      </trkpt>
      <trkpt lat="42.7427950" lon="-7.3715880">
        <ele>612.8</ele>
        <time>2021-10-04T17:14:10Z</time>
      </trkpt>
      <trkpt lat="42.7429770" lon="-7.3716690">
        <ele>612.0</ele>
        <time>2021-10-04T17:14:13Z</time>
      </trkpt>
      <trkpt lat="42.7430370" lon="-7.3716980">
        <ele>611.6</ele>
        <time>2021-10-04T17:14:14Z</time>
      </trkpt>
      <trkpt lat="42.7431540" lon="-7.3717600">
        <ele>611.2</ele>
        <time>2021-10-04T17:14:16Z</time>
      </trkpt>
      <trkpt lat="42.7432730" lon="-7.3718220">
        <ele>610.8</ele>
        <time>2021-10-04T17:14:18Z</time>
      </trkpt>
      <trkpt lat="42.7433970" lon="-7.3718900">
        <ele>610.4</ele>
        <time>2021-10-04T17:14:20Z</time>
      </trkpt>
      <trkpt lat="42.7437340" lon="-7.3720600">
        <ele>609.4</ele>
        <time>2021-10-04T17:14:25Z</time>
      </trkpt>
      <trkpt lat="42.7438800" lon="-7.3721350">
        <ele>608.8</ele>
        <time>2021-10-04T17:14:27Z</time>
      </trkpt>
      <trkpt lat="42.7439550" lon="-7.3721720">
        <ele>608.2</ele>
        <time>2021-10-04T17:14:28Z</time>
      </trkpt>
      <trkpt lat="42.7441900" lon="-7.3722960">
        <ele>607.0</ele>
        <time>2021-10-04T17:14:31Z</time>
      </trkpt>
      <trkpt lat="42.7443540" lon="-7.3723820">
        <ele>606.0</ele>
        <time>2021-10-04T17:14:33Z</time>
      </trkpt>
      <trkpt lat="42.7445230" lon="-7.3724690">
        <ele>604.8</ele>
        <time>2021-10-04T17:14:35Z</time>
      </trkpt>
      <trkpt lat="42.7447750" lon="-7.3725980">
        <ele>603.4</ele>
        <time>2021-10-04T17:14:38Z</time>
      </trkpt>
      <trkpt lat="42.7449450" lon="-7.3726850">
        <ele>601.8</ele>
        <time>2021-10-04T17:14:40Z</time>
      </trkpt>
      <trkpt lat="42.7451210" lon="-7.3727740">
        <ele>600.0</ele>
        <time>2021-10-04T17:14:42Z</time>
      </trkpt>
      <trkpt lat="42.7453030" lon="-7.3728670">
        <ele>599.0</ele>
        <time>2021-10-04T17:14:44Z</time>
      </trkpt>
      <trkpt lat="42.7455760" lon="-7.3730100">
        <ele>597.2</ele>
        <time>2021-10-04T17:14:47Z</time>
      </trkpt>
      <trkpt lat="42.7457580" lon="-7.3731090">
        <ele>595.2</ele>
        <time>2021-10-04T17:14:49Z</time>
      </trkpt>
      <trkpt lat="42.7459480" lon="-7.3732040">
        <ele>594.0</ele>
        <time>2021-10-04T17:14:51Z</time>
      </trkpt>
      <trkpt lat="42.7463370" lon="-7.3733970">
        <ele>592.4</ele>
        <time>2021-10-04T17:14:55Z</time>
      </trkpt>
      <trkpt lat="42.7464350" lon="-7.3734350">
        <ele>590.8</ele>
        <time>2021-10-04T17:14:56Z</time>
      </trkpt>
      <trkpt lat="42.7465370" lon="-7.3734620">
        <ele>589.8</ele>
        <time>2021-10-04T17:14:57Z</time>
      </trkpt>
      <trkpt lat="42.7466410" lon="-7.3734780">
        <ele>588.6</ele>
        <time>2021-10-04T17:14:58Z</time>
      </trkpt>
      <trkpt lat="42.7467470" lon="-7.3734780">
        <ele>587.6</ele>
        <time>2021-10-04T17:14:59Z</time>
      </trkpt>
      <trkpt lat="42.7469560" lon="-7.3734340">
        <ele>586.6</ele>
        <time>2021-10-04T17:15:01Z</time>
      </trkpt>
      <trkpt lat="42.7470590" lon="-7.3734010">
        <ele>586.2</ele>
        <time>2021-10-04T17:15:02Z</time>
      </trkpt>
      <trkpt lat="42.7471610" lon="-7.3733630">
        <ele>585.2</ele>
        <time>2021-10-04T17:15:03Z</time>
      </trkpt>
      <trkpt lat="42.7473630" lon="-7.3732800">
        <ele>583.4</ele>
        <time>2021-10-04T17:15:05Z</time>
      </trkpt>
      <trkpt lat="42.7475660" lon="-7.3732030">
        <ele>581.6</ele>
        <time>2021-10-04T17:15:07Z</time>
      </trkpt>
      <trkpt lat="42.7476700" lon="-7.3731760">
        <ele>580.6</ele>
        <time>2021-10-04T17:15:08Z</time>
      </trkpt>
      <trkpt lat="42.7478820" lon="-7.3731580">
        <ele>579.2</ele>
        <time>2021-10-04T17:15:10Z</time>
      </trkpt>
      <trkpt lat="42.7479880" lon="-7.3731700">
        <ele>578.2</ele>
        <time>2021-10-04T17:15:11Z</time>
      </trkpt>
      <trkpt lat="42.7480930" lon="-7.3732010">
        <ele>578.2</ele>
        <time>2021-10-04T17:15:12Z</time>
      </trkpt>
      <trkpt lat="42.7482880" lon="-7.3733060">
        <ele>577.4</ele>
        <time>2021-10-04T17:15:14Z</time>
      </trkpt>
      <trkpt lat="42.7483790" lon="-7.3733770">
        <ele>576.4</ele>
        <time>2021-10-04T17:15:15Z</time>
      </trkpt>
      <trkpt lat="42.7484670" lon="-7.3734580">
        <ele>575.2</ele>
        <time>2021-10-04T17:15:16Z</time>
      </trkpt>
      <trkpt lat="42.7485520" lon="-7.3735450">
        <ele>574.6</ele>
        <time>2021-10-04T17:15:17Z</time>
      </trkpt>
      <trkpt lat="42.7486310" lon="-7.3736400">
        <ele>574.0</ele>
        <time>2021-10-04T17:15:18Z</time>
      </trkpt>
      <trkpt lat="42.7487040" lon="-7.3737440">
        <ele>573.4</ele>
        <time>2021-10-04T17:15:19Z</time>
      </trkpt>
      <trkpt lat="42.7487710" lon="-7.3738570">
        <ele>573.2</ele>
        <time>2021-10-04T17:15:20Z</time>
      </trkpt>
      <trkpt lat="42.7489010" lon="-7.3740980">
        <ele>572.2</ele>
        <time>2021-10-04T17:15:22Z</time>
      </trkpt>
      <trkpt lat="42.7489660" lon="-7.3742230">
        <ele>569.0</ele>
        <time>2021-10-04T17:15:23Z</time>
      </trkpt>
      <trkpt lat="42.7490330" lon="-7.3743500">
        <ele>567.6</ele>
        <time>2021-10-04T17:15:24Z</time>
      </trkpt>
      <trkpt lat="42.7491670" lon="-7.3746120">
        <ele>566.4</ele>
        <time>2021-10-04T17:15:26Z</time>
      </trkpt>
      <trkpt lat="42.7494430" lon="-7.3751500">
        <ele>564.8</ele>
        <time>2021-10-04T17:15:30Z</time>
      </trkpt>
      <trkpt lat="42.7495870" lon="-7.3754240">
        <ele>563.0</ele>
        <time>2021-10-04T17:15:32Z</time>
      </trkpt>
      <trkpt lat="42.7496580" lon="-7.3755630">
        <ele>561.8</ele>
        <time>2021-10-04T17:15:33Z</time>
      </trkpt>
      <trkpt lat="42.7497290" lon="-7.3757030">
        <ele>560.6</ele>
        <time>2021-10-04T17:15:34Z</time>
      </trkpt>
      <trkpt lat="42.7498020" lon="-7.3758460">
        <ele>559.2</ele>
        <time>2021-10-04T17:15:35Z</time>
      </trkpt>
      <trkpt lat="42.7498750" lon="-7.3759890">
        <ele>557.8</ele>
        <time>2021-10-04T17:15:36Z</time>
      </trkpt>
      <trkpt lat="42.7500200" lon="-7.3762850">
        <ele>556.2</ele>
        <time>2021-10-04T17:15:38Z</time>
      </trkpt>
      <trkpt lat="42.7500810" lon="-7.3764450">
        <ele>555.4</ele>
        <time>2021-10-04T17:15:39Z</time>
      </trkpt>
      <trkpt lat="42.7501290" lon="-7.3766150">
        <ele>554.4</ele>
        <time>2021-10-04T17:15:40Z</time>
      </trkpt>
      <trkpt lat="42.7501630" lon="-7.3767900">
        <ele>553.4</ele>
        <time>2021-10-04T17:15:41Z</time>
      </trkpt>
      <trkpt lat="42.7501880" lon="-7.3771510">
        <ele>552.0</ele>
        <time>2021-10-04T17:15:43Z</time>
      </trkpt>
      <trkpt lat="42.7501240" lon="-7.3776740">
        <ele>550.2</ele>
        <time>2021-10-04T17:15:46Z</time>
      </trkpt>
      <trkpt lat="42.7500890" lon="-7.3778370">
        <ele>548.6</ele>
        <time>2021-10-04T17:15:47Z</time>
      </trkpt>
      <trkpt lat="42.7500490" lon="-7.3779940">
        <ele>547.2</ele>
        <time>2021-10-04T17:15:48Z</time>
      </trkpt>
      <trkpt lat="42.7499710" lon="-7.3782990">
        <ele>545.0</ele>
        <time>2021-10-04T17:15:50Z</time>
      </trkpt>
      <trkpt lat="42.7499360" lon="-7.3784480">
        <ele>543.4</ele>
        <time>2021-10-04T17:15:51Z</time>
      </trkpt>
      <trkpt lat="42.7499010" lon="-7.3785970">
        <ele>542.0</ele>
        <time>2021-10-04T17:15:52Z</time>
      </trkpt>
      <trkpt lat="42.7498330" lon="-7.3788890">
        <ele>540.6</ele>
        <time>2021-10-04T17:15:54Z</time>
      </trkpt>
      <trkpt lat="42.7496590" lon="-7.3796030">
        <ele>540.0</ele>
        <time>2021-10-04T17:15:59Z</time>
      </trkpt>
      <trkpt lat="42.7495500" lon="-7.3800440">
        <ele>539.6</ele>
        <time>2021-10-04T17:16:02Z</time>
      </trkpt>
      <trkpt lat="42.7495150" lon="-7.3801950">
        <ele>539.4</ele>
        <time>2021-10-04T17:16:03Z</time>
      </trkpt>
      <trkpt lat="42.7494210" lon="-7.3806850">
        <ele>539.0</ele>
        <time>2021-10-04T17:16:06Z</time>
      </trkpt>
      <trkpt lat="42.7493830" lon="-7.3810370">
        <ele>537.8</ele>
        <time>2021-10-04T17:16:08Z</time>
      </trkpt>
      <trkpt lat="42.7493790" lon="-7.3812190">
        <ele>536.4</ele>
        <time>2021-10-04T17:16:09Z</time>
      </trkpt>
      <trkpt lat="42.7493820" lon="-7.3814070">
        <ele>534.8</ele>
        <time>2021-10-04T17:16:10Z</time>
      </trkpt>
      <trkpt lat="42.7493950" lon="-7.3815980">
        <ele>532.8</ele>
        <time>2021-10-04T17:16:11Z</time>
      </trkpt>
      <trkpt lat="42.7494180" lon="-7.3817890">
        <ele>531.4</ele>
        <time>2021-10-04T17:16:12Z</time>
      </trkpt>
      <trkpt lat="42.7495100" lon="-7.3821670">
        <ele>529.6</ele>
        <time>2021-10-04T17:16:14Z</time>
      </trkpt>
      <trkpt lat="42.7495820" lon="-7.3823450">
        <ele>528.0</ele>
        <time>2021-10-04T17:16:15Z</time>
      </trkpt>
      <trkpt lat="42.7496730" lon="-7.3825090">
        <ele>526.0</ele>
        <time>2021-10-04T17:16:16Z</time>
      </trkpt>
      <trkpt lat="42.7497830" lon="-7.3826540">
        <ele>524.8</ele>
        <time>2021-10-04T17:16:17Z</time>
      </trkpt>
      <trkpt lat="42.7500390" lon="-7.3828760">
        <ele>523.2</ele>
        <time>2021-10-04T17:16:19Z</time>
      </trkpt>
      <trkpt lat="42.7501800" lon="-7.3829500">
        <ele>522.0</ele>
        <time>2021-10-04T17:16:20Z</time>
      </trkpt>
      <trkpt lat="42.7503250" lon="-7.3830080">
        <ele>520.6</ele>
        <time>2021-10-04T17:16:21Z</time>
      </trkpt>
      <trkpt lat="42.7504710" lon="-7.3830640">
        <ele>519.4</ele>
        <time>2021-10-04T17:16:22Z</time>
      </trkpt>
      <trkpt lat="42.7506170" lon="-7.3831200">
        <ele>517.8</ele>
        <time>2021-10-04T17:16:23Z</time>
      </trkpt>
      <trkpt lat="42.7507630" lon="-7.3831780">
        <ele>516.4</ele>
        <time>2021-10-04T17:16:24Z</time>
      </trkpt>
      <trkpt lat="42.7510570" lon="-7.3833020">
        <ele>514.4</ele>
        <time>2021-10-04T17:16:26Z</time>
      </trkpt>
      <trkpt lat="42.7512010" lon="-7.3833800">
        <ele>513.4</ele>
        <time>2021-10-04T17:16:27Z</time>
      </trkpt>
      <trkpt lat="42.7513380" lon="-7.3834790">
        <ele>511.4</ele>
        <time>2021-10-04T17:16:28Z</time>
      </trkpt>
      <trkpt lat="42.7514670" lon="-7.3835990">
        <ele>510.0</ele>
        <time>2021-10-04T17:16:29Z</time>
      </trkpt>
      <trkpt lat="42.7517040" lon="-7.3838710">
        <ele>507.6</ele>
        <time>2021-10-04T17:16:31Z</time>
      </trkpt>
      <trkpt lat="42.7518250" lon="-7.3839910">
        <ele>507.2</ele>
        <time>2021-10-04T17:16:32Z</time>
      </trkpt>
      <trkpt lat="42.7519530" lon="-7.3840780">
        <ele>506.6</ele>
        <time>2021-10-04T17:16:33Z</time>
      </trkpt>
      <trkpt lat="42.7522280" lon="-7.3841210">
        <ele>505.0</ele>
        <time>2021-10-04T17:16:35Z</time>
      </trkpt>
      <trkpt lat="42.7523630" lon="-7.3840570">
        <ele>503.2</ele>
        <time>2021-10-04T17:16:36Z</time>
      </trkpt>
      <trkpt lat="42.7524860" lon="-7.3839420">
        <ele>501.6</ele>
        <time>2021-10-04T17:16:37Z</time>
      </trkpt>
      <trkpt lat="42.7525900" lon="-7.3837950">
        <ele>500.6</ele>
        <time>2021-10-04T17:16:38Z</time>
      </trkpt>
      <trkpt lat="42.7526880" lon="-7.3836330">
        <ele>499.8</ele>
        <time>2021-10-04T17:16:39Z</time>
      </trkpt>
      <trkpt lat="42.7527940" lon="-7.3834810">
        <ele>499.2</ele>
        <time>2021-10-04T17:16:40Z</time>
      </trkpt>
      <trkpt lat="42.7531760" lon="-7.3831120">
        <ele>497.6</ele>
        <time>2021-10-04T17:16:43Z</time>
      </trkpt>
      <trkpt lat="42.7534700" lon="-7.3829600">
        <ele>496.4</ele>
        <time>2021-10-04T17:16:45Z</time>
      </trkpt>
      <trkpt lat="42.7537780" lon="-7.3829100">
        <ele>494.0</ele>
        <time>2021-10-04T17:16:47Z</time>
      </trkpt>
      <trkpt lat="42.7539350" lon="-7.3829260">
        <ele>492.0</ele>
        <time>2021-10-04T17:16:48Z</time>
      </trkpt>
      <trkpt lat="42.7540910" lon="-7.3829670">
        <ele>489.8</ele>
        <time>2021-10-04T17:16:49Z</time>
      </trkpt>
      <trkpt lat="42.7542420" lon="-7.3830360">
        <ele>488.0</ele>
        <time>2021-10-04T17:16:50Z</time>
      </trkpt>
      <trkpt lat="42.7543840" lon="-7.3831270">
        <ele>486.8</ele>
        <time>2021-10-04T17:16:51Z</time>
      </trkpt>
      <trkpt lat="42.7545160" lon="-7.3832450">
        <ele>485.6</ele>
        <time>2021-10-04T17:16:52Z</time>
      </trkpt>
      <trkpt lat="42.7547460" lon="-7.3835250">
        <ele>483.6</ele>
        <time>2021-10-04T17:16:54Z</time>
      </trkpt>
      <trkpt lat="42.7548390" lon="-7.3836930">
        <ele>481.8</ele>
        <time>2021-10-04T17:16:55Z</time>
      </trkpt>
      <trkpt lat="42.7549170" lon="-7.3838730">
        <ele>479.6</ele>
        <time>2021-10-04T17:16:56Z</time>
      </trkpt>
      <trkpt lat="42.7549820" lon="-7.3840630">
        <ele>477.6</ele>
        <time>2021-10-04T17:16:57Z</time>
      </trkpt>
      <trkpt lat="42.7550350" lon="-7.3842610">
        <ele>474.8</ele>
        <time>2021-10-04T17:16:58Z</time>
      </trkpt>
      <trkpt lat="42.7550800" lon="-7.3844640">
        <ele>471.8</ele>
        <time>2021-10-04T17:16:59Z</time>
      </trkpt>
      <trkpt lat="42.7551200" lon="-7.3846660">
        <ele>469.4</ele>
        <time>2021-10-04T17:17:00Z</time>
      </trkpt>
      <trkpt lat="42.7551610" lon="-7.3848610">
        <ele>468.0</ele>
        <time>2021-10-04T17:17:01Z</time>
      </trkpt>
      <trkpt lat="42.7552010" lon="-7.3850540">
        <ele>466.8</ele>
        <time>2021-10-04T17:17:02Z</time>
      </trkpt>
      <trkpt lat="42.7552370" lon="-7.3852400">
        <ele>466.2</ele>
        <time>2021-10-04T17:17:03Z</time>
      </trkpt>
      <trkpt lat="42.7552690" lon="-7.3854210">
        <ele>465.6</ele>
        <time>2021-10-04T17:17:04Z</time>
      </trkpt>
      <trkpt lat="42.7553290" lon="-7.3857640">
        <ele>465.2</ele>
        <time>2021-10-04T17:17:06Z</time>
      </trkpt>
      <trkpt lat="42.7553920" lon="-7.3860860">
        <ele>465.0</ele>
        <time>2021-10-04T17:17:08Z</time>
      </trkpt>
      <trkpt lat="42.7554330" lon="-7.3862340">
        <ele>465.0</ele>
        <time>2021-10-04T17:17:09Z</time>
      </trkpt>
      <trkpt lat="42.7556160" lon="-7.3866200">
        <ele>465.2</ele>
        <time>2021-10-04T17:17:12Z</time>
      </trkpt>
      <trkpt lat="42.7558600" lon="-7.3869190">
        <ele>465.2</ele>
        <time>2021-10-04T17:17:15Z</time>
      </trkpt>
      <trkpt lat="42.7559510" lon="-7.3870000">
        <ele>465.6</ele>
        <time>2021-10-04T17:17:16Z</time>
      </trkpt>
      <trkpt lat="42.7561370" lon="-7.3871540">
        <ele>466.6</ele>
        <time>2021-10-04T17:17:18Z</time>
      </trkpt>
      <trkpt lat="42.7563250" lon="-7.3872970">
        <ele>468.0</ele>
        <time>2021-10-04T17:17:20Z</time>
      </trkpt>
      <trkpt lat="42.7566820" lon="-7.3875920">
        <ele>469.0</ele>
        <time>2021-10-04T17:17:24Z</time>
      </trkpt>
      <trkpt lat="42.7571920" lon="-7.3879990">
        <ele>469.6</ele>
        <time>2021-10-04T17:17:30Z</time>
      </trkpt>
      <trkpt lat="42.7576310" lon="-7.3884490">
        <ele>470.2</ele>
        <time>2021-10-04T17:17:36Z</time>
      </trkpt>
      <trkpt lat="42.7577880" lon="-7.3887430">
        <ele>470.4</ele>
        <time>2021-10-04T17:17:39Z</time>
      </trkpt>
      <trkpt lat="42.7578580" lon="-7.3889580">
        <ele>471.2</ele>
        <time>2021-10-04T17:17:41Z</time>
      </trkpt>
      <trkpt lat="42.7579940" lon="-7.3897280">
        <ele>472.0</ele>
        <time>2021-10-04T17:17:48Z</time>
      </trkpt>
      <trkpt lat="42.7581520" lon="-7.3903100">
        <ele>472.2</ele>
        <time>2021-10-04T17:17:54Z</time>
      </trkpt>
      <trkpt lat="42.7585530" lon="-7.3908280">
        <ele>473.0</ele>
        <time>2021-10-04T17:18:02Z</time>
      </trkpt>
      <trkpt lat="42.7586100" lon="-7.3908710">
        <ele>473.4</ele>
        <time>2021-10-04T17:18:03Z</time>
      </trkpt>
      <trkpt lat="42.7588900" lon="-7.3910620">
        <ele>474.8</ele>
        <time>2021-10-04T17:18:08Z</time>
      </trkpt>
      <trkpt lat="42.7591080" lon="-7.3912010">
        <ele>476.0</ele>
        <time>2021-10-04T17:18:12Z</time>
      </trkpt>
      <trkpt lat="42.7592750" lon="-7.3913070">
        <ele>477.2</ele>
        <time>2021-10-04T17:18:15Z</time>
      </trkpt>
      <trkpt lat="42.7594510" lon="-7.3914140">
        <ele>478.4</ele>
        <time>2021-10-04T17:18:18Z</time>
      </trkpt>
      <trkpt lat="42.7599890" lon="-7.3917230">
        <ele>479.4</ele>
        <time>2021-10-04T17:18:28Z</time>
      </trkpt>
      <trkpt lat="42.7601510" lon="-7.3917660">
        <ele>480.6</ele>
        <time>2021-10-04T17:18:31Z</time>
      </trkpt>
      <trkpt lat="42.7604170" lon="-7.3917690">
        <ele>481.2</ele>
        <time>2021-10-04T17:18:36Z</time>
      </trkpt>
      <trkpt lat="42.7605680" lon="-7.3917190">
        <ele>481.6</ele>
        <time>2021-10-04T17:18:39Z</time>
      </trkpt>
      <trkpt lat="42.7608390" lon="-7.3915350">
        <ele>482.8</ele>
        <time>2021-10-04T17:18:45Z</time>
      </trkpt>
      <trkpt lat="42.7609180" lon="-7.3914680">
        <ele>483.2</ele>
        <time>2021-10-04T17:18:47Z</time>
      </trkpt>
      <trkpt lat="42.7610740" lon="-7.3913150">
        <ele>484.0</ele>
        <time>2021-10-04T17:18:51Z</time>
      </trkpt>
      <trkpt lat="42.7612270" lon="-7.3911610">
        <ele>485.2</ele>
        <time>2021-10-04T17:18:55Z</time>
      </trkpt>
      <trkpt lat="42.7614020" lon="-7.3909560">
        <ele>486.2</ele>
        <time>2021-10-04T17:19:00Z</time>
      </trkpt>
      <trkpt lat="42.7616500" lon="-7.3906860">
        <ele>487.4</ele>
        <time>2021-10-04T17:19:07Z</time>
      </trkpt>
      <trkpt lat="42.7618600" lon="-7.3904970">
        <ele>488.4</ele>
        <time>2021-10-04T17:19:13Z</time>
      </trkpt>
      <trkpt lat="42.7620290" lon="-7.3903790">
        <ele>489.6</ele>
        <time>2021-10-04T17:19:18Z</time>
      </trkpt>
      <trkpt lat="42.7622010" lon="-7.3903030">
        <ele>491.0</ele>
        <time>2021-10-04T17:19:23Z</time>
      </trkpt>
      <trkpt lat="42.7623420" lon="-7.3902800">
        <ele>492.4</ele>
        <time>2021-10-04T17:19:27Z</time>
      </trkpt>
      <trkpt lat="42.7625930" lon="-7.3903080">
        <ele>493.6</ele>
        <time>2021-10-04T17:19:34Z</time>
      </trkpt>
      <trkpt lat="42.7627340" lon="-7.3903430">
        <ele>494.8</ele>
        <time>2021-10-04T17:19:38Z</time>
      </trkpt>
      <trkpt lat="42.7629070" lon="-7.3904200">
        <ele>495.8</ele>
        <time>2021-10-04T17:19:43Z</time>
      </trkpt>
      <trkpt lat="42.7630700" lon="-7.3905410">
        <ele>496.8</ele>
        <time>2021-10-04T17:19:48Z</time>
      </trkpt>
      <trkpt lat="42.7632450" lon="-7.3907360">
        <ele>497.8</ele>
        <time>2021-10-04T17:19:54Z</time>
      </trkpt>
      <trkpt lat="42.7633430" lon="-7.3909000">
        <ele>499.0</ele>
        <time>2021-10-04T17:19:58Z</time>
      </trkpt>
      <trkpt lat="42.7634740" lon="-7.3911640">
        <ele>500.0</ele>
        <time>2021-10-04T17:20:04Z</time>
      </trkpt>
      <trkpt lat="42.7636000" lon="-7.3914930">
        <ele>501.2</ele>
        <time>2021-10-04T17:20:11Z</time>
      </trkpt>
      <trkpt lat="42.7637630" lon="-7.3919700">
        <ele>502.4</ele>
        <time>2021-10-04T17:20:21Z</time>
      </trkpt>
      <trkpt lat="42.7638140" lon="-7.3921110">
        <ele>503.4</ele>
        <time>2021-10-04T17:20:24Z</time>
      </trkpt>
      <trkpt lat="42.7638740" lon="-7.3923130">
        <ele>504.6</ele>
        <time>2021-10-04T17:20:28Z</time>
      </trkpt>
      <trkpt lat="42.7639390" lon="-7.3925110">
        <ele>505.8</ele>
        <time>2021-10-04T17:20:32Z</time>
      </trkpt>
      <trkpt lat="42.7640200" lon="-7.3927570">
        <ele>507.0</ele>
        <time>2021-10-04T17:20:37Z</time>
      </trkpt>
      <trkpt lat="42.7640700" lon="-7.3929110">
        <ele>508.0</ele>
        <time>2021-10-04T17:20:40Z</time>
      </trkpt>
      <trkpt lat="42.7641590" lon="-7.3931870">
        <ele>509.2</ele>
        <time>2021-10-04T17:20:45Z</time>
      </trkpt>
      <trkpt lat="42.7642810" lon="-7.3935250">
        <ele>510.4</ele>
        <time>2021-10-04T17:20:51Z</time>
      </trkpt>
      <trkpt lat="42.7643060" lon="-7.3935780">
        <ele>510.6</ele>
        <time>2021-10-04T17:20:52Z</time>
      </trkpt>
      <trkpt lat="42.7645000" lon="-7.3939190">
        <ele>511.2</ele>
        <time>2021-10-04T17:20:58Z</time>
      </trkpt>
      <trkpt lat="42.7646290" lon="-7.3940950">
        <ele>511.2</ele>
        <time>2021-10-04T17:21:01Z</time>
      </trkpt>
      <trkpt lat="42.7647860" lon="-7.3942590">
        <ele>511.2</ele>
        <time>2021-10-04T17:21:04Z</time>
      </trkpt>
      <trkpt lat="42.7649800" lon="-7.3943950">
        <ele>510.8</ele>
        <time>2021-10-04T17:21:07Z</time>
      </trkpt>
      <trkpt lat="42.7651230" lon="-7.3944910">
        <ele>510.2</ele>
        <time>2021-10-04T17:21:09Z</time>
      </trkpt>
      <trkpt lat="42.7652740" lon="-7.3945870">
        <ele>509.4</ele>
        <time>2021-10-04T17:21:11Z</time>
      </trkpt>
      <trkpt lat="42.7653510" lon="-7.3946390">
        <ele>509.0</ele>
        <time>2021-10-04T17:21:12Z</time>
      </trkpt>
      <trkpt lat="42.7656580" lon="-7.3948890">
        <ele>507.8</ele>
        <time>2021-10-04T17:21:16Z</time>
      </trkpt>
      <trkpt lat="42.7658040" lon="-7.3950530">
        <ele>506.6</ele>
        <time>2021-10-04T17:21:18Z</time>
      </trkpt>
      <trkpt lat="42.7658720" lon="-7.3951490">
        <ele>506.0</ele>
        <time>2021-10-04T17:21:19Z</time>
      </trkpt>
      <trkpt lat="42.7659320" lon="-7.3952560">
        <ele>505.4</ele>
        <time>2021-10-04T17:21:20Z</time>
      </trkpt>
      <trkpt lat="42.7660260" lon="-7.3955020">
        <ele>504.0</ele>
        <time>2021-10-04T17:21:22Z</time>
      </trkpt>
      <trkpt lat="42.7660640" lon="-7.3956330">
        <ele>502.8</ele>
        <time>2021-10-04T17:21:23Z</time>
      </trkpt>
      <trkpt lat="42.7661240" lon="-7.3959130">
        <ele>501.2</ele>
        <time>2021-10-04T17:21:25Z</time>
      </trkpt>
      <trkpt lat="42.7661730" lon="-7.3962060">
        <ele>499.4</ele>
        <time>2021-10-04T17:21:27Z</time>
      </trkpt>
      <trkpt lat="42.7661970" lon="-7.3963540">
        <ele>498.4</ele>
        <time>2021-10-04T17:21:28Z</time>
      </trkpt>
      <trkpt lat="42.7662520" lon="-7.3966520">
        <ele>497.0</ele>
        <time>2021-10-04T17:21:30Z</time>
      </trkpt>
      <trkpt lat="42.7663160" lon="-7.3969550">
        <ele>495.6</ele>
        <time>2021-10-04T17:21:32Z</time>
      </trkpt>
      <trkpt lat="42.7664040" lon="-7.3972530">
        <ele>493.2</ele>
        <time>2021-10-04T17:21:34Z</time>
      </trkpt>
      <trkpt lat="42.7664670" lon="-7.3973920">
        <ele>491.8</ele>
        <time>2021-10-04T17:21:35Z</time>
      </trkpt>
      <trkpt lat="42.7665400" lon="-7.3975200">
        <ele>490.8</ele>
        <time>2021-10-04T17:21:36Z</time>
      </trkpt>
      <trkpt lat="42.7667140" lon="-7.3977390">
        <ele>489.4</ele>
        <time>2021-10-04T17:21:38Z</time>
      </trkpt>
      <trkpt lat="42.7669160" lon="-7.3979080">
        <ele>487.2</ele>
        <time>2021-10-04T17:21:40Z</time>
      </trkpt>
      <trkpt lat="42.7671350" lon="-7.3980300">
        <ele>485.2</ele>
        <time>2021-10-04T17:21:42Z</time>
      </trkpt>
      <trkpt lat="42.7672510" lon="-7.3980700">
        <ele>483.8</ele>
        <time>2021-10-04T17:21:43Z</time>
      </trkpt>
      <trkpt lat="42.7673690" lon="-7.3980930">
        <ele>482.8</ele>
        <time>2021-10-04T17:21:44Z</time>
      </trkpt>
      <trkpt lat="42.7674880" lon="-7.3981000">
        <ele>482.4</ele>
        <time>2021-10-04T17:21:45Z</time>
      </trkpt>
      <trkpt lat="42.7676060" lon="-7.3980940">
        <ele>481.4</ele>
        <time>2021-10-04T17:21:46Z</time>
      </trkpt>
      <trkpt lat="42.7677220" lon="-7.3980750">
        <ele>480.4</ele>
        <time>2021-10-04T17:21:47Z</time>
      </trkpt>
      <trkpt lat="42.7679490" lon="-7.3980090">
        <ele>479.4</ele>
        <time>2021-10-04T17:21:49Z</time>
      </trkpt>
      <trkpt lat="42.7681700" lon="-7.3979360">
        <ele>478.4</ele>
        <time>2021-10-04T17:21:51Z</time>
      </trkpt>
      <trkpt lat="42.7682790" lon="-7.3978970">
        <ele>477.8</ele>
        <time>2021-10-04T17:21:52Z</time>
      </trkpt>
      <trkpt lat="42.7684950" lon="-7.3978180">
        <ele>476.8</ele>
        <time>2021-10-04T17:21:54Z</time>
      </trkpt>
      <trkpt lat="42.7687090" lon="-7.3977470">
        <ele>476.0</ele>
        <time>2021-10-04T17:21:56Z</time>
      </trkpt>
      <trkpt lat="42.7688140" lon="-7.3977150">
        <ele>475.8</ele>
        <time>2021-10-04T17:21:57Z</time>
      </trkpt>
      <trkpt lat="42.7689200" lon="-7.3976870">
        <ele>475.6</ele>
        <time>2021-10-04T17:21:58Z</time>
      </trkpt>
      <trkpt lat="42.7691280" lon="-7.3976590">
        <ele>474.8</ele>
        <time>2021-10-04T17:22:00Z</time>
      </trkpt>
      <trkpt lat="42.7692320" lon="-7.3976620">
        <ele>474.2</ele>
        <time>2021-10-04T17:22:01Z</time>
      </trkpt>
      <trkpt lat="42.7694380" lon="-7.3976840">
        <ele>473.2</ele>
        <time>2021-10-04T17:22:03Z</time>
      </trkpt>
      <trkpt lat="42.7696410" lon="-7.3977420">
        <ele>472.4</ele>
        <time>2021-10-04T17:22:05Z</time>
      </trkpt>
      <trkpt lat="42.7697420" lon="-7.3977740">
        <ele>472.2</ele>
        <time>2021-10-04T17:22:06Z</time>
      </trkpt>
      <trkpt lat="42.7700550" lon="-7.3978780">
        <ele>471.2</ele>
        <time>2021-10-04T17:22:09Z</time>
      </trkpt>
      <trkpt lat="42.7701620" lon="-7.3979120">
        <ele>470.8</ele>
        <time>2021-10-04T17:22:10Z</time>
      </trkpt>
      <trkpt lat="42.7704880" lon="-7.3980240">
        <ele>469.4</ele>
        <time>2021-10-04T17:22:13Z</time>
      </trkpt>
      <trkpt lat="42.7705970" lon="-7.3980610">
        <ele>468.8</ele>
        <time>2021-10-04T17:22:14Z</time>
      </trkpt>
      <trkpt lat="42.7707070" lon="-7.3980980">
        <ele>468.2</ele>
        <time>2021-10-04T17:22:15Z</time>
      </trkpt>
      <trkpt lat="42.7709280" lon="-7.3981720">
        <ele>467.0</ele>
        <time>2021-10-04T17:22:17Z</time>
      </trkpt>
      <trkpt lat="42.7711510" lon="-7.3982490">
        <ele>465.4</ele>
        <time>2021-10-04T17:22:19Z</time>
      </trkpt>
      <trkpt lat="42.7713740" lon="-7.3983280">
        <ele>464.0</ele>
        <time>2021-10-04T17:22:21Z</time>
      </trkpt>
      <trkpt lat="42.7715960" lon="-7.3984160">
        <ele>462.6</ele>
        <time>2021-10-04T17:22:23Z</time>
      </trkpt>
      <trkpt lat="42.7718100" lon="-7.3985290">
        <ele>461.2</ele>
        <time>2021-10-04T17:22:25Z</time>
      </trkpt>
      <trkpt lat="42.7720010" lon="-7.3986910">
        <ele>459.8</ele>
        <time>2021-10-04T17:22:27Z</time>
      </trkpt>
      <trkpt lat="42.7721720" lon="-7.3988830">
        <ele>458.6</ele>
        <time>2021-10-04T17:22:29Z</time>
      </trkpt>
      <trkpt lat="42.7722500" lon="-7.3989870">
        <ele>458.2</ele>
        <time>2021-10-04T17:22:30Z</time>
      </trkpt>
      <trkpt lat="42.7723990" lon="-7.3991960">
        <ele>457.4</ele>
        <time>2021-10-04T17:22:32Z</time>
      </trkpt>
      <trkpt lat="42.7726090" lon="-7.3995170">
        <ele>456.2</ele>
        <time>2021-10-04T17:22:35Z</time>
      </trkpt>
      <trkpt lat="42.7728860" lon="-7.3999300">
        <ele>455.0</ele>
        <time>2021-10-04T17:22:39Z</time>
      </trkpt>
      <trkpt lat="42.7730840" lon="-7.4002440">
        <ele>454.0</ele>
        <time>2021-10-04T17:22:42Z</time>
      </trkpt>
      <trkpt lat="42.7732850" lon="-7.4005620">
        <ele>453.4</ele>
        <time>2021-10-04T17:22:45Z</time>
      </trkpt>
      <trkpt lat="42.7734190" lon="-7.4007810">
        <ele>452.8</ele>
        <time>2021-10-04T17:22:47Z</time>
      </trkpt>
      <trkpt lat="42.7737120" lon="-7.4013780">
        <ele>451.8</ele>
        <time>2021-10-04T17:22:52Z</time>
      </trkpt>
      <trkpt lat="42.7738270" lon="-7.4017710">
        <ele>450.8</ele>
        <time>2021-10-04T17:22:55Z</time>
      </trkpt>
      <trkpt lat="42.7739100" lon="-7.4021610">
        <ele>449.4</ele>
        <time>2021-10-04T17:22:58Z</time>
      </trkpt>
      <trkpt lat="42.7739640" lon="-7.4024110">
        <ele>447.2</ele>
        <time>2021-10-04T17:23:00Z</time>
      </trkpt>
      <trkpt lat="42.7740210" lon="-7.4026500">
        <ele>445.8</ele>
        <time>2021-10-04T17:23:02Z</time>
      </trkpt>
      <trkpt lat="42.7740730" lon="-7.4028830">
        <ele>444.8</ele>
        <time>2021-10-04T17:23:04Z</time>
      </trkpt>
      <trkpt lat="42.7741480" lon="-7.4032250">
        <ele>443.8</ele>
        <time>2021-10-04T17:23:07Z</time>
      </trkpt>
      <trkpt lat="42.7742890" lon="-7.4037980">
        <ele>443.2</ele>
        <time>2021-10-04T17:23:14Z</time>
      </trkpt>
      <trkpt lat="42.7743910" lon="-7.4041300">
        <ele>444.8</ele>
        <time>2021-10-04T17:23:23Z</time>
      </trkpt>
      <trkpt lat="42.7744330" lon="-7.4042360">
        <ele>444.8</ele>
        <time>2021-10-04T17:23:25Z</time>
      </trkpt>
      <trkpt lat="42.7745670" lon="-7.4045480">
        <ele>444.6</ele>
        <time>2021-10-04T17:23:30Z</time>
      </trkpt>
      <trkpt lat="42.7746300" lon="-7.4046670">
        <ele>443.8</ele>
        <time>2021-10-04T17:23:32Z</time>
      </trkpt>
      <trkpt lat="42.7749010" lon="-7.4051000">
        <ele>443.0</ele>
        <time>2021-10-04T17:23:40Z</time>
      </trkpt>
      <trkpt lat="42.7749660" lon="-7.4051970">
        <ele>443.2</ele>
        <time>2021-10-04T17:23:42Z</time>
      </trkpt>
      <trkpt lat="42.7751580" lon="-7.4054930">
        <ele>443.4</ele>
        <time>2021-10-04T17:23:49Z</time>
      </trkpt>
      <trkpt lat="42.7753420" lon="-7.4056570">
        <ele>443.8</ele>
        <time>2021-10-04T17:25:01Z</time>
      </trkpt>
      <trkpt lat="42.7753420" lon="-7.4056570">
        <ele>443.8</ele>
        <time>2021-10-04T17:25:02Z</time>
      </trkpt>
      <trkpt lat="42.7753500" lon="-7.4056780">
        <ele>443.8</ele>
        <time>2021-10-04T17:25:04Z</time>
      </trkpt>
      <trkpt lat="42.7753590" lon="-7.4056980">
        <ele>443.8</ele>
        <time>2021-10-04T17:25:05Z</time>
      </trkpt>
      <trkpt lat="42.7754320" lon="-7.4058180">
        <ele>443.8</ele>
        <time>2021-10-04T17:25:09Z</time>
      </trkpt>
      <trkpt lat="42.7755280" lon="-7.4059910">
        <ele>443.6</ele>
        <time>2021-10-04T17:25:14Z</time>
      </trkpt>
      <trkpt lat="42.7757470" lon="-7.4063410">
        <ele>443.6</ele>
        <time>2021-10-04T17:25:25Z</time>
      </trkpt>
      <trkpt lat="42.7757910" lon="-7.4064440">
        <ele>443.6</ele>
        <time>2021-10-04T17:25:29Z</time>
      </trkpt>
      <trkpt lat="42.7757530" lon="-7.4065410">
        <ele>443.4</ele>
        <time>2021-10-04T17:25:32Z</time>
      </trkpt>
      <trkpt lat="42.7757260" lon="-7.4066340">
        <ele>443.4</ele>
        <time>2021-10-04T17:25:34Z</time>
      </trkpt>
      <trkpt lat="42.7757160" lon="-7.4066900">
        <ele>443.4</ele>
        <time>2021-10-04T17:25:35Z</time>
      </trkpt>
      <trkpt lat="42.7756920" lon="-7.4069280">
        <ele>443.0</ele>
        <time>2021-10-04T17:25:39Z</time>
      </trkpt>
      <trkpt lat="42.7756860" lon="-7.4069870">
        <ele>442.8</ele>
        <time>2021-10-04T17:25:40Z</time>
      </trkpt>
      <trkpt lat="42.7756730" lon="-7.4070980">
        <ele>442.2</ele>
        <time>2021-10-04T17:25:42Z</time>
      </trkpt>
      <trkpt lat="42.7754160" lon="-7.4074370">
        <ele>442.4</ele>
        <time>2021-10-04T17:25:52Z</time>
      </trkpt>
      <trkpt lat="42.7750870" lon="-7.4078330">
        <ele>442.8</ele>
        <time>2021-10-04T17:26:05Z</time>
      </trkpt>
      <trkpt lat="42.7749800" lon="-7.4080310">
        <ele>442.8</ele>
        <time>2021-10-04T17:26:09Z</time>
      </trkpt>
      <trkpt lat="42.7748890" lon="-7.4085310">
        <ele>443.0</ele>
        <time>2021-10-04T17:26:17Z</time>
      </trkpt>
      <trkpt lat="42.7749610" lon="-7.4088500">
        <ele>443.2</ele>
        <time>2021-10-04T17:26:22Z</time>
      </trkpt>
      <trkpt lat="42.7750370" lon="-7.4090350">
        <ele>443.2</ele>
        <time>2021-10-04T17:26:25Z</time>
      </trkpt>
      <trkpt lat="42.7752060" lon="-7.4091770">
        <ele>443.2</ele>
        <time>2021-10-04T17:26:29Z</time>
      </trkpt>
      <trkpt lat="42.7752520" lon="-7.4092000">
        <ele>443.2</ele>
        <time>2021-10-04T17:26:30Z</time>
      </trkpt>
      <trkpt lat="42.7753840" lon="-7.4092840">
        <ele>443.2</ele>
        <time>2021-10-04T17:26:33Z</time>
      </trkpt>
      <trkpt lat="42.7755650" lon="-7.4096510">
        <ele>443.2</ele>
        <time>2021-10-04T17:26:40Z</time>
      </trkpt>
      <trkpt lat="42.7756630" lon="-7.4104160">
        <ele>442.6</ele>
        <time>2021-10-04T17:26:52Z</time>
      </trkpt>
      <trkpt lat="42.7757150" lon="-7.4108260">
        <ele>442.4</ele>
        <time>2021-10-04T17:26:59Z</time>
      </trkpt>
      <trkpt lat="42.7757790" lon="-7.4111200">
        <ele>443.0</ele>
        <time>2021-10-04T17:27:09Z</time>
      </trkpt>
      <trkpt lat="42.7758170" lon="-7.4112480">
        <ele>443.8</ele>
        <time>2021-10-04T17:27:15Z</time>
      </trkpt>
      <trkpt lat="42.7758220" lon="-7.4112980">
        <ele>444.2</ele>
        <time>2021-10-04T17:27:17Z</time>
      </trkpt>
      <trkpt lat="42.7763450" lon="-7.4112760">
        <ele>444.0</ele>
        <time>2021-10-04T17:27:37Z</time>
      </trkpt>
      <trkpt lat="42.7765450" lon="-7.4111150">
        <ele>444.0</ele>
        <time>2021-10-04T17:27:45Z</time>
      </trkpt>
      <trkpt lat="42.7766430" lon="-7.4110480">
        <ele>444.0</ele>
        <time>2021-10-04T17:27:49Z</time>
      </trkpt>
      <trkpt lat="42.7766990" lon="-7.4111430">
        <ele>444.0</ele>
        <time>2021-10-04T17:27:53Z</time>
      </trkpt>
      <trkpt lat="42.7767950" lon="-7.4114430">
        <ele>444.0</ele>
        <time>2021-10-04T17:28:02Z</time>
      </trkpt>
      <trkpt lat="42.7767640" lon="-7.4115560">
        <ele>444.0</ele>
        <time>2021-10-04T17:28:05Z</time>
      </trkpt>
      <trkpt lat="42.7765410" lon="-7.4117160">
        <ele>443.2</ele>
        <time>2021-10-04T17:28:15Z</time>
      </trkpt>
      <trkpt lat="42.7764460" lon="-7.4117860">
        <ele>443.2</ele>
        <time>2021-10-04T17:28:19Z</time>
      </trkpt>
      <trkpt lat="42.7762760" lon="-7.4119030">
        <ele>443.2</ele>
        <time>2021-10-04T17:28:25Z</time>
      </trkpt>
      <trkpt lat="42.7761670" lon="-7.4119820">
        <ele>443.2</ele>
        <time>2021-10-04T17:28:29Z</time>
      </trkpt>
      <trkpt lat="42.7761280" lon="-7.4119960">
        <ele>443.2</ele>
        <time>2021-10-04T17:28:31Z</time>
      </trkpt>
      <trkpt lat="42.7760760" lon="-7.4119100">
        <ele>443.4</ele>
        <time>2021-10-04T17:28:35Z</time>
      </trkpt>
      <trkpt lat="42.7760740" lon="-7.4119460">
        <ele>444.6</ele>
        <time>2021-10-04T17:28:39Z</time>
      </trkpt>
      <trkpt lat="42.7760890" lon="-7.4119670">
        <ele>444.8</ele>
        <time>2021-10-04T17:28:40Z</time>
      </trkpt>
      <trkpt lat="42.7760830" lon="-7.4120840">
        <ele>445.8</ele>
        <time>2021-10-04T17:28:44Z</time>
      </trkpt>
      <trkpt lat="42.7760820" lon="-7.4121220">
        <ele>445.8</ele>
        <time>2021-10-04T17:28:45Z</time>
      </trkpt>
      <trkpt lat="42.7761420" lon="-7.4122980">
        <ele>446.2</ele>
        <time>2021-10-04T17:28:50Z</time>
      </trkpt>
      <trkpt lat="42.7762300" lon="-7.4124560">
        <ele>446.8</ele>
        <time>2021-10-04T17:28:56Z</time>
      </trkpt>
      <trkpt lat="42.7762530" lon="-7.4124910">
        <ele>446.8</ele>
        <time>2021-10-04T17:28:58Z</time>
      </trkpt>
      <trkpt lat="42.7763540" lon="-7.4126840">
        <ele>448.0</ele>
        <time>2021-10-04T17:29:06Z</time>
      </trkpt>
      <trkpt lat="42.7763640" lon="-7.4127110">
        <ele>448.0</ele>
        <time>2021-10-04T17:29:07Z</time>
      </trkpt>
      <trkpt lat="42.7763780" lon="-7.4128310">
        <ele>448.4</ele>
        <time>2021-10-04T17:29:11Z</time>
      </trkpt>
      <trkpt lat="42.7765240" lon="-7.4128660">
        <ele>448.8</ele>
        <time>2021-10-04T17:29:17Z</time>
      </trkpt>
      <trkpt lat="42.7766390" lon="-7.4128370">
        <ele>449.0</ele>
        <time>2021-10-04T17:29:20Z</time>
      </trkpt>
      <trkpt lat="42.7766790" lon="-7.4128350">
        <ele>449.0</ele>
        <time>2021-10-04T17:29:21Z</time>
      </trkpt>
      <trkpt lat="42.7768470" lon="-7.4128300">
        <ele>450.0</ele>
        <time>2021-10-04T17:29:33Z</time>
      </trkpt>
      <trkpt lat="42.7768630" lon="-7.4128700">
        <ele>450.6</ele>
        <time>2021-10-04T17:29:43Z</time>
      </trkpt>
      <trkpt lat="42.7769210" lon="-7.4129580">
        <ele>451.0</ele>
        <time>2021-10-04T17:29:47Z</time>
      </trkpt>
      <trkpt lat="42.7769850" lon="-7.4129700">
        <ele>451.2</ele>
        <time>2021-10-04T17:29:50Z</time>
      </trkpt>
      <trkpt lat="42.7770310" lon="-7.4129540">
        <ele>451.6</ele>
        <time>2021-10-04T17:29:52Z</time>
      </trkpt>
      <trkpt lat="42.7771120" lon="-7.4128820">
        <ele>452.8</ele>
        <time>2021-10-04T17:29:56Z</time>
      </trkpt>
      <trkpt lat="42.7773980" lon="-7.4128100">
        <ele>453.6</ele>
        <time>2021-10-04T17:30:06Z</time>
      </trkpt>
      <trkpt lat="42.7774890" lon="-7.4128480">
        <ele>454.0</ele>
        <time>2021-10-04T17:30:09Z</time>
      </trkpt>
      <trkpt lat="42.7775670" lon="-7.4129060">
        <ele>455.0</ele>
        <time>2021-10-04T17:30:12Z</time>
      </trkpt>
      <trkpt lat="42.7776440" lon="-7.4130270">
        <ele>456.6</ele>
        <time>2021-10-04T17:30:16Z</time>
      </trkpt>
      <trkpt lat="42.7776860" lon="-7.4131160">
        <ele>457.6</ele>
        <time>2021-10-04T17:30:19Z</time>
      </trkpt>
      <trkpt lat="42.7777410" lon="-7.4132120">
        <ele>458.4</ele>
        <time>2021-10-04T17:30:23Z</time>
      </trkpt>
      <trkpt lat="42.7778300" lon="-7.4133680">
        <ele>459.6</ele>
        <time>2021-10-04T17:30:29Z</time>
      </trkpt>
      <trkpt lat="42.7778740" lon="-7.4134740">
        <ele>460.0</ele>
        <time>2021-10-04T17:30:32Z</time>
      </trkpt>
      <trkpt lat="42.7779160" lon="-7.4135700">
        <ele>460.0</ele>
        <time>2021-10-04T17:30:35Z</time>
      </trkpt>
      <trkpt lat="42.7779400" lon="-7.4137150">
        <ele>460.0</ele>
        <time>2021-10-04T17:30:39Z</time>
      </trkpt>
      <trkpt lat="42.7779280" lon="-7.4139040">
        <ele>460.0</ele>
        <time>2021-10-04T17:30:45Z</time>
      </trkpt>
      <trkpt lat="42.7779330" lon="-7.4139860">
        <ele>460.0</ele>
        <time>2021-10-04T17:30:48Z</time>
      </trkpt>
      <trkpt lat="42.7779370" lon="-7.4140550">
        <ele>460.8</ele>
        <time>2021-10-04T17:30:50Z</time>
      </trkpt>
      <trkpt lat="42.7779420" lon="-7.4141580">
        <ele>462.0</ele>
        <time>2021-10-04T17:30:53Z</time>
      </trkpt>
      <trkpt lat="42.7779430" lon="-7.4142250">
        <ele>462.8</ele>
        <time>2021-10-04T17:30:55Z</time>
      </trkpt>
      <trkpt lat="42.7779410" lon="-7.4142600">
        <ele>463.4</ele>
        <time>2021-10-04T17:30:56Z</time>
      </trkpt>
      <trkpt lat="42.7779370" lon="-7.4143700">
        <ele>464.6</ele>
        <time>2021-10-04T17:30:59Z</time>
      </trkpt>
      <trkpt lat="42.7779400" lon="-7.4144620">
        <ele>465.8</ele>
        <time>2021-10-04T17:31:02Z</time>
      </trkpt>
      <trkpt lat="42.7779570" lon="-7.4145640">
        <ele>466.8</ele>
        <time>2021-10-04T17:31:06Z</time>
      </trkpt>
      <trkpt lat="42.7779760" lon="-7.4146320">
        <ele>467.8</ele>
        <time>2021-10-04T17:31:10Z</time>
      </trkpt>
      <trkpt lat="42.7780310" lon="-7.4147130">
        <ele>468.6</ele>
        <time>2021-10-04T17:31:14Z</time>
      </trkpt>
      <trkpt lat="42.7780900" lon="-7.4148530">
        <ele>468.8</ele>
        <time>2021-10-04T17:31:19Z</time>
      </trkpt>
      <trkpt lat="42.7781700" lon="-7.4150560">
        <ele>469.8</ele>
        <time>2021-10-04T17:31:28Z</time>
      </trkpt>
      <trkpt lat="42.7781940" lon="-7.4151180">
        <ele>470.4</ele>
        <time>2021-10-04T17:31:31Z</time>
      </trkpt>
      <trkpt lat="42.7782140" lon="-7.4151880">
        <ele>470.8</ele>
        <time>2021-10-04T17:31:34Z</time>
      </trkpt>
      <trkpt lat="42.7782240" lon="-7.4152100">
        <ele>470.8</ele>
        <time>2021-10-04T17:31:35Z</time>
      </trkpt>
      <trkpt lat="42.7782370" lon="-7.4152420">
        <ele>470.8</ele>
        <time>2021-10-04T17:31:37Z</time>
      </trkpt>
      <trkpt lat="42.7782480" lon="-7.4152470">
        <ele>470.8</ele>
        <time>2021-10-04T17:31:39Z</time>
      </trkpt>
      <trkpt lat="42.7782710" lon="-7.4153710">
        <ele>470.6</ele>
        <time>2021-10-04T17:33:53Z</time>
      </trkpt>
      <trkpt lat="42.7782810" lon="-7.4154020">
        <ele>470.6</ele>
        <time>2021-10-04T17:33:54Z</time>
      </trkpt>
      <trkpt lat="42.7783720" lon="-7.4155990">
        <ele>470.4</ele>
        <time>2021-10-04T17:33:58Z</time>
      </trkpt>
      <trkpt lat="42.7783990" lon="-7.4156660">
        <ele>470.2</ele>
        <time>2021-10-04T17:33:59Z</time>
      </trkpt>
      <trkpt lat="42.7784860" lon="-7.4159000">
        <ele>469.4</ele>
        <time>2021-10-04T17:34:02Z</time>
      </trkpt>
      <trkpt lat="42.7785690" lon="-7.4160660">
        <ele>468.4</ele>
        <time>2021-10-04T17:34:04Z</time>
      </trkpt>
      <trkpt lat="42.7786530" lon="-7.4162410">
        <ele>466.6</ele>
        <time>2021-10-04T17:34:06Z</time>
      </trkpt>
      <trkpt lat="42.7787340" lon="-7.4164220">
        <ele>465.0</ele>
        <time>2021-10-04T17:34:08Z</time>
      </trkpt>
      <trkpt lat="42.7788170" lon="-7.4166140">
        <ele>463.0</ele>
        <time>2021-10-04T17:34:10Z</time>
      </trkpt>
      <trkpt lat="42.7788580" lon="-7.4167110">
        <ele>462.0</ele>
        <time>2021-10-04T17:34:11Z</time>
      </trkpt>
      <trkpt lat="42.7789000" lon="-7.4168050">
        <ele>460.6</ele>
        <time>2021-10-04T17:34:12Z</time>
      </trkpt>
      <trkpt lat="42.7789380" lon="-7.4168950">
        <ele>459.4</ele>
        <time>2021-10-04T17:34:13Z</time>
      </trkpt>
      <trkpt lat="42.7790040" lon="-7.4170460">
        <ele>457.4</ele>
        <time>2021-10-04T17:34:15Z</time>
      </trkpt>
      <trkpt lat="42.7790240" lon="-7.4171060">
        <ele>457.0</ele>
        <time>2021-10-04T17:34:16Z</time>
      </trkpt>
      <trkpt lat="42.7790510" lon="-7.4171990">
        <ele>456.4</ele>
        <time>2021-10-04T17:34:18Z</time>
      </trkpt>
      <trkpt lat="42.7790940" lon="-7.4172500">
        <ele>456.0</ele>
        <time>2021-10-04T17:34:20Z</time>
      </trkpt>
      <trkpt lat="42.7791960" lon="-7.4172140">
        <ele>455.4</ele>
        <time>2021-10-04T17:34:23Z</time>
      </trkpt>
      <trkpt lat="42.7795700" lon="-7.4169790">
        <ele>454.0</ele>
        <time>2021-10-04T17:34:31Z</time>
      </trkpt>
      <trkpt lat="42.7796350" lon="-7.4169200">
        <ele>452.6</ele>
        <time>2021-10-04T17:34:34Z</time>
      </trkpt>
      <trkpt lat="42.7796610" lon="-7.4169120">
        <ele>451.2</ele>
        <time>2021-10-04T17:34:36Z</time>
      </trkpt>
      <trkpt lat="42.7797620" lon="-7.4169510">
        <ele>449.2</ele>
        <time>2021-10-04T17:34:41Z</time>
      </trkpt>
      <trkpt lat="42.7798040" lon="-7.4170180">
        <ele>449.0</ele>
        <time>2021-10-04T17:34:43Z</time>
      </trkpt>
      <trkpt lat="42.7798620" lon="-7.4171300">
        <ele>448.6</ele>
        <time>2021-10-04T17:34:46Z</time>
      </trkpt>
      <trkpt lat="42.7799560" lon="-7.4173410">
        <ele>448.4</ele>
        <time>2021-10-04T17:34:51Z</time>
      </trkpt>
      <trkpt lat="42.7800270" lon="-7.4175450">
        <ele>448.2</ele>
        <time>2021-10-04T17:34:55Z</time>
      </trkpt>
      <trkpt lat="42.7800880" lon="-7.4177070">
        <ele>448.2</ele>
        <time>2021-10-04T17:34:58Z</time>
      </trkpt>
      <trkpt lat="42.7802280" lon="-7.4180550">
        <ele>448.2</ele>
        <time>2021-10-04T17:35:05Z</time>
      </trkpt>
      <trkpt lat="42.7804870" lon="-7.4187520">
        <ele>448.8</ele>
        <time>2021-10-04T17:35:19Z</time>
      </trkpt>
      <trkpt lat="42.7805310" lon="-7.4188460">
        <ele>448.6</ele>
        <time>2021-10-04T17:35:21Z</time>
      </trkpt>
      <trkpt lat="42.7805890" lon="-7.4189920">
        <ele>448.8</ele>
        <time>2021-10-04T17:35:24Z</time>
      </trkpt>
      <trkpt lat="42.7806790" lon="-7.4191930">
        <ele>449.0</ele>
        <time>2021-10-04T17:35:29Z</time>
      </trkpt>
      <trkpt lat="42.7807140" lon="-7.4192440">
        <ele>449.0</ele>
        <time>2021-10-04T17:35:31Z</time>
      </trkpt>
      <trkpt lat="42.7807500" lon="-7.4192720">
        <ele>449.0</ele>
        <time>2021-10-04T17:35:33Z</time>
      </trkpt>
      <trkpt lat="42.7807680" lon="-7.4192740">
        <ele>449.0</ele>
        <time>2021-10-04T17:35:34Z</time>
      </trkpt>
      <trkpt lat="42.7808050" lon="-7.4192550">
        <ele>449.0</ele>
        <time>2021-10-04T17:35:36Z</time>
      </trkpt>
      <trkpt lat="42.7808690" lon="-7.4192220">
        <ele>449.0</ele>
        <time>2021-10-04T17:35:39Z</time>
      </trkpt>
      <trkpt lat="42.7810510" lon="-7.4191550">
        <ele>448.8</ele>
        <time>2021-10-04T17:35:44Z</time>
      </trkpt>
      <trkpt lat="42.7811920" lon="-7.4190560">
        <ele>448.2</ele>
        <time>2021-10-04T17:35:47Z</time>
      </trkpt>
      <trkpt lat="42.7813530" lon="-7.4189450">
        <ele>447.2</ele>
        <time>2021-10-04T17:35:50Z</time>
      </trkpt>
      <trkpt lat="42.7814580" lon="-7.4188700">
        <ele>446.6</ele>
        <time>2021-10-04T17:35:52Z</time>
      </trkpt>
      <trkpt lat="42.7815130" lon="-7.4188290">
        <ele>446.0</ele>
        <time>2021-10-04T17:35:53Z</time>
      </trkpt>
      <trkpt lat="42.7817280" lon="-7.4186660">
        <ele>445.0</ele>
        <time>2021-10-04T17:35:57Z</time>
      </trkpt>
      <trkpt lat="42.7819370" lon="-7.4185100">
        <ele>444.0</ele>
        <time>2021-10-04T17:36:01Z</time>
      </trkpt>
      <trkpt lat="42.7819870" lon="-7.4184680">
        <ele>443.8</ele>
        <time>2021-10-04T17:36:02Z</time>
      </trkpt>
      <trkpt lat="42.7821310" lon="-7.4183480">
        <ele>443.4</ele>
        <time>2021-10-04T17:36:05Z</time>
      </trkpt>
      <trkpt lat="42.7822880" lon="-7.4182280">
        <ele>443.0</ele>
        <time>2021-10-04T17:36:08Z</time>
      </trkpt>
      <trkpt lat="42.7823470" lon="-7.4181890">
        <ele>442.8</ele>
        <time>2021-10-04T17:36:09Z</time>
      </trkpt>
      <trkpt lat="42.7827160" lon="-7.4179270">
        <ele>442.2</ele>
        <time>2021-10-04T17:36:16Z</time>
      </trkpt>
      <trkpt lat="42.7828190" lon="-7.4178600">
        <ele>442.0</ele>
        <time>2021-10-04T17:36:18Z</time>
      </trkpt>
      <trkpt lat="42.7830980" lon="-7.4176200">
        <ele>442.0</ele>
        <time>2021-10-04T17:36:24Z</time>
      </trkpt>
      <trkpt lat="42.7830430" lon="-7.4173720">
        <ele>442.0</ele>
        <time>2021-10-04T17:36:29Z</time>
      </trkpt>
      <trkpt lat="42.7829880" lon="-7.4172860">
        <ele>442.0</ele>
        <time>2021-10-04T17:36:31Z</time>
      </trkpt>
      <trkpt lat="42.7829120" lon="-7.4171590">
        <ele>442.0</ele>
        <time>2021-10-04T17:36:34Z</time>
      </trkpt>
      <trkpt lat="42.7827480" lon="-7.4168920">
        <ele>441.6</ele>
        <time>2021-10-04T17:36:43Z</time>
      </trkpt>
      <trkpt lat="42.7827210" lon="-7.4168500">
        <ele>441.6</ele>
        <time>2021-10-04T17:36:45Z</time>
      </trkpt>
      <trkpt lat="42.7826880" lon="-7.4167980">
        <ele>441.6</ele>
        <time>2021-10-04T17:36:47Z</time>
      </trkpt>
      <trkpt lat="42.7826110" lon="-7.4166950">
        <ele>441.6</ele>
        <time>2021-10-04T17:36:50Z</time>
      </trkpt>
      <trkpt lat="42.7824990" lon="-7.4165240">
        <ele>441.6</ele>
        <time>2021-10-04T17:36:54Z</time>
      </trkpt>
      <trkpt lat="42.7831480" lon="-7.4176810">
        <ele>423.3</ele>
        <time>2021-10-05T09:04:05Z</time>
      </trkpt>
      <trkpt lat="42.7831200" lon="-7.4176990">
        <ele>423.3</ele>
        <time>2021-10-05T09:04:06Z</time>
      </trkpt>
      <trkpt lat="42.7830930" lon="-7.4177180">
        <ele>423.3</ele>
        <time>2021-10-05T09:04:07Z</time>
      </trkpt>
      <trkpt lat="42.7830650" lon="-7.4177390">
        <ele>423.3</ele>
        <time>2021-10-05T09:04:08Z</time>
      </trkpt>
      <trkpt lat="42.7830070" lon="-7.4177850">
        <ele>423.3</ele>
        <time>2021-10-05T09:04:10Z</time>
      </trkpt>
      <trkpt lat="42.7829460" lon="-7.4178340">
        <ele>423.4</ele>
        <time>2021-10-05T09:04:12Z</time>
      </trkpt>
      <trkpt lat="42.7824630" lon="-7.4181880">
        <ele>424.0</ele>
        <time>2021-10-05T09:04:27Z</time>
      </trkpt>
      <trkpt lat="42.7821390" lon="-7.4184180">
        <ele>424.4</ele>
        <time>2021-10-05T09:04:36Z</time>
      </trkpt>
      <trkpt lat="42.7819940" lon="-7.4185190">
        <ele>424.6</ele>
        <time>2021-10-05T09:04:40Z</time>
      </trkpt>
      <trkpt lat="42.7816210" lon="-7.4187810">
        <ele>425.2</ele>
        <time>2021-10-05T09:04:51Z</time>
      </trkpt>
      <trkpt lat="42.7815540" lon="-7.4188250">
        <ele>425.4</ele>
        <time>2021-10-05T09:04:53Z</time>
      </trkpt>
      <trkpt lat="42.7811220" lon="-7.4191630">
        <ele>427.0</ele>
        <time>2021-10-05T09:05:06Z</time>
      </trkpt>
      <trkpt lat="42.7809760" lon="-7.4192520">
        <ele>427.8</ele>
        <time>2021-10-05T09:05:12Z</time>
      </trkpt>
      <trkpt lat="42.7809600" lon="-7.4192610">
        <ele>427.9</ele>
        <time>2021-10-05T09:05:15Z</time>
      </trkpt>
      <trkpt lat="42.7809140" lon="-7.4192930">
        <ele>428.2</ele>
        <time>2021-10-05T09:05:33Z</time>
      </trkpt>
      <trkpt lat="42.7808990" lon="-7.4193210">
        <ele>428.3</ele>
        <time>2021-10-05T09:05:34Z</time>
      </trkpt>
      <trkpt lat="42.7808720" lon="-7.4194010">
        <ele>428.7</ele>
        <time>2021-10-05T09:05:36Z</time>
      </trkpt>
      <trkpt lat="42.7808710" lon="-7.4194960">
        <ele>429.3</ele>
        <time>2021-10-05T09:05:38Z</time>
      </trkpt>
      <trkpt lat="42.7808820" lon="-7.4195450">
        <ele>429.2</ele>
        <time>2021-10-05T09:05:39Z</time>
      </trkpt>
      <trkpt lat="42.7809210" lon="-7.4197070">
        <ele>429.0</ele>
        <time>2021-10-05T09:05:42Z</time>
      </trkpt>
      <trkpt lat="42.7809310" lon="-7.4197660">
        <ele>428.9</ele>
        <time>2021-10-05T09:05:43Z</time>
      </trkpt>
      <trkpt lat="42.7809800" lon="-7.4200800">
        <ele>428.4</ele>
        <time>2021-10-05T09:05:48Z</time>
      </trkpt>
      <trkpt lat="42.7810200" lon="-7.4202720">
        <ele>428.1</ele>
        <time>2021-10-05T09:05:51Z</time>
      </trkpt>
      <trkpt lat="42.7810440" lon="-7.4203730">
        <ele>428.0</ele>
        <time>2021-10-05T09:05:53Z</time>
      </trkpt>
      <trkpt lat="42.7810530" lon="-7.4204130">
        <ele>428.0</ele>
        <time>2021-10-05T09:05:54Z</time>
      </trkpt>
      <trkpt lat="42.7810660" lon="-7.4204780">
        <ele>428.0</ele>
        <time>2021-10-05T09:05:56Z</time>
      </trkpt>
      <trkpt lat="42.7811130" lon="-7.4207430">
        <ele>428.1</ele>
        <time>2021-10-05T09:06:03Z</time>
      </trkpt>
      <trkpt lat="42.7811830" lon="-7.4209570">
        <ele>428.6</ele>
        <time>2021-10-05T09:06:07Z</time>
      </trkpt>
      <trkpt lat="42.7814250" lon="-7.4216600">
        <ele>429.1</ele>
        <time>2021-10-05T09:06:21Z</time>
      </trkpt>
      <trkpt lat="42.7814180" lon="-7.4218190">
        <ele>429.8</ele>
        <time>2021-10-05T09:06:24Z</time>
      </trkpt>
      <trkpt lat="42.7814060" lon="-7.4219260">
        <ele>430.3</ele>
        <time>2021-10-05T09:06:26Z</time>
      </trkpt>
      <trkpt lat="42.7813940" lon="-7.4220330">
        <ele>430.9</ele>
        <time>2021-10-05T09:06:28Z</time>
      </trkpt>
      <trkpt lat="42.7813850" lon="-7.4221380">
        <ele>431.5</ele>
        <time>2021-10-05T09:06:30Z</time>
      </trkpt>
      <trkpt lat="42.7813760" lon="-7.4222410">
        <ele>432.1</ele>
        <time>2021-10-05T09:06:32Z</time>
      </trkpt>
      <trkpt lat="42.7813630" lon="-7.4223920">
        <ele>433.0</ele>
        <time>2021-10-05T09:06:35Z</time>
      </trkpt>
      <trkpt lat="42.7813530" lon="-7.4224890">
        <ele>433.6</ele>
        <time>2021-10-05T09:06:37Z</time>
      </trkpt>
      <trkpt lat="42.7813450" lon="-7.4225780">
        <ele>434.2</ele>
        <time>2021-10-05T09:06:39Z</time>
      </trkpt>
      <trkpt lat="42.7813250" lon="-7.4227610">
        <ele>435.4</ele>
        <time>2021-10-05T09:06:43Z</time>
      </trkpt>
      <trkpt lat="42.7813010" lon="-7.4229930">
        <ele>436.7</ele>
        <time>2021-10-05T09:06:48Z</time>
      </trkpt>
      <trkpt lat="42.7812870" lon="-7.4231790">
        <ele>437.7</ele>
        <time>2021-10-05T09:06:52Z</time>
      </trkpt>
      <trkpt lat="42.7812710" lon="-7.4233570">
        <ele>438.3</ele>
        <time>2021-10-05T09:06:56Z</time>
      </trkpt>
      <trkpt lat="42.7812640" lon="-7.4234900">
        <ele>438.7</ele>
        <time>2021-10-05T09:06:59Z</time>
      </trkpt>
      <trkpt lat="42.7812520" lon="-7.4237560">
        <ele>439.2</ele>
        <time>2021-10-05T09:07:05Z</time>
      </trkpt>
      <trkpt lat="42.7812920" lon="-7.4239430">
        <ele>440.1</ele>
        <time>2021-10-05T09:07:09Z</time>
      </trkpt>
      <trkpt lat="42.7813390" lon="-7.4241770">
        <ele>440.7</ele>
        <time>2021-10-05T09:07:13Z</time>
      </trkpt>
      <trkpt lat="42.7812270" lon="-7.4244000">
        <ele>441.0</ele>
        <time>2021-10-05T09:07:18Z</time>
      </trkpt>
      <trkpt lat="42.7810410" lon="-7.4243930">
        <ele>440.5</ele>
        <time>2021-10-05T09:07:23Z</time>
      </trkpt>
      <trkpt lat="42.7809750" lon="-7.4242950">
        <ele>440.1</ele>
        <time>2021-10-05T09:07:26Z</time>
      </trkpt>
      <trkpt lat="42.7809500" lon="-7.4242690">
        <ele>440.0</ele>
        <time>2021-10-05T09:07:27Z</time>
      </trkpt>
      <trkpt lat="42.7808900" lon="-7.4242300">
        <ele>439.4</ele>
        <time>2021-10-05T09:07:29Z</time>
      </trkpt>
      <trkpt lat="42.7805940" lon="-7.4242020">
        <ele>438.7</ele>
        <time>2021-10-05T09:07:37Z</time>
      </trkpt>
      <trkpt lat="42.7805550" lon="-7.4242040">
        <ele>438.7</ele>
        <time>2021-10-05T09:07:38Z</time>
      </trkpt>
      <trkpt lat="42.7804330" lon="-7.4242090">
        <ele>438.4</ele>
        <time>2021-10-05T09:07:41Z</time>
      </trkpt>
      <trkpt lat="42.7803560" lon="-7.4242160">
        <ele>438.4</ele>
        <time>2021-10-05T09:07:43Z</time>
      </trkpt>
      <trkpt lat="42.7802780" lon="-7.4242270">
        <ele>438.4</ele>
        <time>2021-10-05T09:07:45Z</time>
      </trkpt>
      <trkpt lat="42.7800440" lon="-7.4242800">
        <ele>438.8</ele>
        <time>2021-10-05T09:07:51Z</time>
      </trkpt>
      <trkpt lat="42.7799730" lon="-7.4243100">
        <ele>439.1</ele>
        <time>2021-10-05T09:07:53Z</time>
      </trkpt>
      <trkpt lat="42.7798730" lon="-7.4243620">
        <ele>439.7</ele>
        <time>2021-10-05T09:07:56Z</time>
      </trkpt>
      <trkpt lat="42.7797800" lon="-7.4244140">
        <ele>440.4</ele>
        <time>2021-10-05T09:07:59Z</time>
      </trkpt>
      <trkpt lat="42.7797050" lon="-7.4244680">
        <ele>441.1</ele>
        <time>2021-10-05T09:08:02Z</time>
      </trkpt>
      <trkpt lat="42.7796590" lon="-7.4245120">
        <ele>441.6</ele>
        <time>2021-10-05T09:08:04Z</time>
      </trkpt>
      <trkpt lat="42.7795660" lon="-7.4246100">
        <ele>442.6</ele>
        <time>2021-10-05T09:08:08Z</time>
      </trkpt>
      <trkpt lat="42.7794550" lon="-7.4246830">
        <ele>443.6</ele>
        <time>2021-10-05T09:08:12Z</time>
      </trkpt>
      <trkpt lat="42.7793090" lon="-7.4247760">
        <ele>444.6</ele>
        <time>2021-10-05T09:08:17Z</time>
      </trkpt>
      <trkpt lat="42.7791100" lon="-7.4249380">
        <ele>446.0</ele>
        <time>2021-10-05T09:08:24Z</time>
      </trkpt>
      <trkpt lat="42.7789340" lon="-7.4250750">
        <ele>447.2</ele>
        <time>2021-10-05T09:08:30Z</time>
      </trkpt>
      <trkpt lat="42.7788020" lon="-7.4252020">
        <ele>448.1</ele>
        <time>2021-10-05T09:08:35Z</time>
      </trkpt>
      <trkpt lat="42.7786160" lon="-7.4253760">
        <ele>449.3</ele>
        <time>2021-10-05T09:08:42Z</time>
      </trkpt>
      <trkpt lat="42.7784660" lon="-7.4255420">
        <ele>450.3</ele>
        <time>2021-10-05T09:08:48Z</time>
      </trkpt>
      <trkpt lat="42.7783250" lon="-7.4257210">
        <ele>451.3</ele>
        <time>2021-10-05T09:08:54Z</time>
      </trkpt>
      <trkpt lat="42.7783010" lon="-7.4257500">
        <ele>451.5</ele>
        <time>2021-10-05T09:08:55Z</time>
      </trkpt>
      <trkpt lat="42.7781660" lon="-7.4259260">
        <ele>452.6</ele>
        <time>2021-10-05T09:09:01Z</time>
      </trkpt>
      <trkpt lat="42.7780100" lon="-7.4261560">
        <ele>453.8</ele>
        <time>2021-10-05T09:09:08Z</time>
      </trkpt>
      <trkpt lat="42.7778730" lon="-7.4263690">
        <ele>454.9</ele>
        <time>2021-10-05T09:09:14Z</time>
      </trkpt>
      <trkpt lat="42.7776850" lon="-7.4266680">
        <ele>456.4</ele>
        <time>2021-10-05T09:09:22Z</time>
      </trkpt>
      <trkpt lat="42.7775560" lon="-7.4268920">
        <ele>457.4</ele>
        <time>2021-10-05T09:09:28Z</time>
      </trkpt>
      <trkpt lat="42.7775200" lon="-7.4269960">
        <ele>459.6</ele>
        <time>2021-10-05T09:09:31Z</time>
      </trkpt>
      <trkpt lat="42.7776030" lon="-7.4270730">
        <ele>460.8</ele>
        <time>2021-10-05T09:09:37Z</time>
      </trkpt>
      <trkpt lat="42.7776560" lon="-7.4270500">
        <ele>461.6</ele>
        <time>2021-10-05T09:09:40Z</time>
      </trkpt>
      <trkpt lat="42.7776720" lon="-7.4270380">
        <ele>461.9</ele>
        <time>2021-10-05T09:09:41Z</time>
      </trkpt>
      <trkpt lat="42.7777270" lon="-7.4269800">
        <ele>462.9</ele>
        <time>2021-10-05T09:09:45Z</time>
      </trkpt>
      <trkpt lat="42.7777680" lon="-7.4269320">
        <ele>463.7</ele>
        <time>2021-10-05T09:09:48Z</time>
      </trkpt>
      <trkpt lat="42.7778290" lon="-7.4268760">
        <ele>464.7</ele>
        <time>2021-10-05T09:09:52Z</time>
      </trkpt>
      <trkpt lat="42.7778780" lon="-7.4268040">
        <ele>465.7</ele>
        <time>2021-10-05T09:09:56Z</time>
      </trkpt>
      <trkpt lat="42.7779540" lon="-7.4267260">
        <ele>467.0</ele>
        <time>2021-10-05T09:10:01Z</time>
      </trkpt>
      <trkpt lat="42.7780250" lon="-7.4266380">
        <ele>468.3</ele>
        <time>2021-10-05T09:10:06Z</time>
      </trkpt>
      <trkpt lat="42.7780860" lon="-7.4265740">
        <ele>469.3</ele>
        <time>2021-10-05T09:10:10Z</time>
      </trkpt>
      <trkpt lat="42.7781700" lon="-7.4265170">
        <ele>470.5</ele>
        <time>2021-10-05T09:10:15Z</time>
      </trkpt>
      <trkpt lat="42.7782330" lon="-7.4264620">
        <ele>471.4</ele>
        <time>2021-10-05T09:10:19Z</time>
      </trkpt>
      <trkpt lat="42.7783250" lon="-7.4264300">
        <ele>472.6</ele>
        <time>2021-10-05T09:10:24Z</time>
      </trkpt>
      <trkpt lat="42.7784190" lon="-7.4264220">
        <ele>473.8</ele>
        <time>2021-10-05T09:10:29Z</time>
      </trkpt>
      <trkpt lat="42.7784930" lon="-7.4264200">
        <ele>474.7</ele>
        <time>2021-10-05T09:10:33Z</time>
      </trkpt>
      <trkpt lat="42.7786030" lon="-7.4264410">
        <ele>476.1</ele>
        <time>2021-10-05T09:10:39Z</time>
      </trkpt>
      <trkpt lat="42.7786930" lon="-7.4264720">
        <ele>477.2</ele>
        <time>2021-10-05T09:10:44Z</time>
      </trkpt>
      <trkpt lat="42.7787620" lon="-7.4265040">
        <ele>478.1</ele>
        <time>2021-10-05T09:10:48Z</time>
      </trkpt>
      <trkpt lat="42.7788240" lon="-7.4265930">
        <ele>479.3</ele>
        <time>2021-10-05T09:10:53Z</time>
      </trkpt>
      <trkpt lat="42.7788250" lon="-7.4266450">
        <ele>479.9</ele>
        <time>2021-10-05T09:10:55Z</time>
      </trkpt>
      <trkpt lat="42.7787970" lon="-7.4267150">
        <ele>480.4</ele>
        <time>2021-10-05T09:10:58Z</time>
      </trkpt>
      <trkpt lat="42.7787330" lon="-7.4268320">
        <ele>481.1</ele>
        <time>2021-10-05T09:11:03Z</time>
      </trkpt>
      <trkpt lat="42.7786610" lon="-7.4269780">
        <ele>481.9</ele>
        <time>2021-10-05T09:11:09Z</time>
      </trkpt>
      <trkpt lat="42.7786150" lon="-7.4270380">
        <ele>482.3</ele>
        <time>2021-10-05T09:11:12Z</time>
      </trkpt>
      <trkpt lat="42.7785040" lon="-7.4271980">
        <ele>483.4</ele>
        <time>2021-10-05T09:11:20Z</time>
      </trkpt>
      <trkpt lat="42.7784050" lon="-7.4272800">
        <ele>484.2</ele>
        <time>2021-10-05T09:11:26Z</time>
      </trkpt>
      <trkpt lat="42.7783050" lon="-7.4273660">
        <ele>485.1</ele>
        <time>2021-10-05T09:11:32Z</time>
      </trkpt>
      <trkpt lat="42.7782550" lon="-7.4274570">
        <ele>485.7</ele>
        <time>2021-10-05T09:11:36Z</time>
      </trkpt>
      <trkpt lat="42.7782370" lon="-7.4274750">
        <ele>485.9</ele>
        <time>2021-10-05T09:11:37Z</time>
      </trkpt>
      <trkpt lat="42.7780970" lon="-7.4276130">
        <ele>487.2</ele>
        <time>2021-10-05T09:11:45Z</time>
      </trkpt>
      <trkpt lat="42.7780290" lon="-7.4277900">
        <ele>488.6</ele>
        <time>2021-10-05T09:11:52Z</time>
      </trkpt>
      <trkpt lat="42.7779970" lon="-7.4279780">
        <ele>489.7</ele>
        <time>2021-10-05T09:11:59Z</time>
      </trkpt>
      <trkpt lat="42.7779980" lon="-7.4280310">
        <ele>490.0</ele>
        <time>2021-10-05T09:12:01Z</time>
      </trkpt>
      <trkpt lat="42.7779920" lon="-7.4281760">
        <ele>490.7</ele>
        <time>2021-10-05T09:12:07Z</time>
      </trkpt>
      <trkpt lat="42.7779870" lon="-7.4282020">
        <ele>490.8</ele>
        <time>2021-10-05T09:12:08Z</time>
      </trkpt>
      <trkpt lat="42.7779600" lon="-7.4284950">
        <ele>492.0</ele>
        <time>2021-10-05T09:12:19Z</time>
      </trkpt>
      <trkpt lat="42.7779360" lon="-7.4286860">
        <ele>492.4</ele>
        <time>2021-10-05T09:12:25Z</time>
      </trkpt>
      <trkpt lat="42.7779030" lon="-7.4288580">
        <ele>493.0</ele>
        <time>2021-10-05T09:12:31Z</time>
      </trkpt>
      <trkpt lat="42.7779110" lon="-7.4288670">
        <ele>493.1</ele>
        <time>2021-10-05T09:12:32Z</time>
      </trkpt>
      <trkpt lat="42.7779400" lon="-7.4288150">
        <ele>493.4</ele>
        <time>2021-10-05T09:14:52Z</time>
      </trkpt>
      <trkpt lat="42.7779340" lon="-7.4288260">
        <ele>493.4</ele>
        <time>2021-10-05T09:14:53Z</time>
      </trkpt>
      <trkpt lat="42.7779260" lon="-7.4288660">
        <ele>493.6</ele>
        <time>2021-10-05T09:14:55Z</time>
      </trkpt>
      <trkpt lat="42.7779110" lon="-7.4289180">
        <ele>493.9</ele>
        <time>2021-10-05T09:14:57Z</time>
      </trkpt>
      <trkpt lat="42.7778920" lon="-7.4289780">
        <ele>494.2</ele>
        <time>2021-10-05T09:14:59Z</time>
      </trkpt>
      <trkpt lat="42.7778750" lon="-7.4290430">
        <ele>494.6</ele>
        <time>2021-10-05T09:15:01Z</time>
      </trkpt>
      <trkpt lat="42.7778540" lon="-7.4291460">
        <ele>495.2</ele>
        <time>2021-10-05T09:15:04Z</time>
      </trkpt>
      <trkpt lat="42.7778440" lon="-7.4292170">
        <ele>495.6</ele>
        <time>2021-10-05T09:15:06Z</time>
      </trkpt>
      <trkpt lat="42.7778390" lon="-7.4293220">
        <ele>496.2</ele>
        <time>2021-10-05T09:15:09Z</time>
      </trkpt>
      <trkpt lat="42.7778520" lon="-7.4294550">
        <ele>497.1</ele>
        <time>2021-10-05T09:15:13Z</time>
      </trkpt>
      <trkpt lat="42.7778570" lon="-7.4294870">
        <ele>497.3</ele>
        <time>2021-10-05T09:15:14Z</time>
      </trkpt>
      <trkpt lat="42.7778660" lon="-7.4295820">
        <ele>498.0</ele>
        <time>2021-10-05T09:15:17Z</time>
      </trkpt>
      <trkpt lat="42.7778720" lon="-7.4296830">
        <ele>498.8</ele>
        <time>2021-10-05T09:15:20Z</time>
      </trkpt>
      <trkpt lat="42.7778920" lon="-7.4298000">
        <ele>499.7</ele>
        <time>2021-10-05T09:15:24Z</time>
      </trkpt>
      <trkpt lat="42.7779080" lon="-7.4299040">
        <ele>500.5</ele>
        <time>2021-10-05T09:15:28Z</time>
      </trkpt>
      <trkpt lat="42.7779290" lon="-7.4300150">
        <ele>501.4</ele>
        <time>2021-10-05T09:15:32Z</time>
      </trkpt>
      <trkpt lat="42.7779430" lon="-7.4301060">
        <ele>502.1</ele>
        <time>2021-10-05T09:15:35Z</time>
      </trkpt>
      <trkpt lat="42.7779760" lon="-7.4302980">
        <ele>503.6</ele>
        <time>2021-10-05T09:15:41Z</time>
      </trkpt>
      <trkpt lat="42.7779960" lon="-7.4304300">
        <ele>504.6</ele>
        <time>2021-10-05T09:15:45Z</time>
      </trkpt>
      <trkpt lat="42.7780180" lon="-7.4305260">
        <ele>505.4</ele>
        <time>2021-10-05T09:15:48Z</time>
      </trkpt>
      <trkpt lat="42.7780500" lon="-7.4307220">
        <ele>506.8</ele>
        <time>2021-10-05T09:15:54Z</time>
      </trkpt>
      <trkpt lat="42.7780720" lon="-7.4308880">
        <ele>508.0</ele>
        <time>2021-10-05T09:15:59Z</time>
      </trkpt>
      <trkpt lat="42.7780960" lon="-7.4310570">
        <ele>509.2</ele>
        <time>2021-10-05T09:16:04Z</time>
      </trkpt>
      <trkpt lat="42.7781240" lon="-7.4312590">
        <ele>510.6</ele>
        <time>2021-10-05T09:16:10Z</time>
      </trkpt>
      <trkpt lat="42.7781450" lon="-7.4314260">
        <ele>511.8</ele>
        <time>2021-10-05T09:16:15Z</time>
      </trkpt>
      <trkpt lat="42.7781590" lon="-7.4315540">
        <ele>512.7</ele>
        <time>2021-10-05T09:16:19Z</time>
      </trkpt>
      <trkpt lat="42.7781610" lon="-7.4316830">
        <ele>513.6</ele>
        <time>2021-10-05T09:16:23Z</time>
      </trkpt>
      <trkpt lat="42.7781360" lon="-7.4318520">
        <ele>514.8</ele>
        <time>2021-10-05T09:16:28Z</time>
      </trkpt>
      <trkpt lat="42.7781040" lon="-7.4320260">
        <ele>516.1</ele>
        <time>2021-10-05T09:16:33Z</time>
      </trkpt>
      <trkpt lat="42.7780950" lon="-7.4322010">
        <ele>517.2</ele>
        <time>2021-10-05T09:16:38Z</time>
      </trkpt>
      <trkpt lat="42.7781050" lon="-7.4323370">
        <ele>517.8</ele>
        <time>2021-10-05T09:16:42Z</time>
      </trkpt>
      <trkpt lat="42.7781320" lon="-7.4324890">
        <ele>517.9</ele>
        <time>2021-10-05T09:16:47Z</time>
      </trkpt>
      <trkpt lat="42.7781530" lon="-7.4326240">
        <ele>517.7</ele>
        <time>2021-10-05T09:16:50Z</time>
      </trkpt>
      <trkpt lat="42.7781930" lon="-7.4327710">
        <ele>517.5</ele>
        <time>2021-10-05T09:16:53Z</time>
      </trkpt>
      <trkpt lat="42.7782600" lon="-7.4330990">
        <ele>517.5</ele>
        <time>2021-10-05T09:17:00Z</time>
      </trkpt>
      <trkpt lat="42.7782780" lon="-7.4331910">
        <ele>517.6</ele>
        <time>2021-10-05T09:17:02Z</time>
      </trkpt>
      <trkpt lat="42.7783280" lon="-7.4334670">
        <ele>518.0</ele>
        <time>2021-10-05T09:17:08Z</time>
      </trkpt>
      <trkpt lat="42.7783800" lon="-7.4337330">
        <ele>518.6</ele>
        <time>2021-10-05T09:17:14Z</time>
      </trkpt>
      <trkpt lat="42.7784470" lon="-7.4341510">
        <ele>519.9</ele>
        <time>2021-10-05T09:17:24Z</time>
      </trkpt>
      <trkpt lat="42.7784610" lon="-7.4343500">
        <ele>520.8</ele>
        <time>2021-10-05T09:17:29Z</time>
      </trkpt>
      <trkpt lat="42.7784700" lon="-7.4345780">
        <ele>522.1</ele>
        <time>2021-10-05T09:17:35Z</time>
      </trkpt>
      <trkpt lat="42.7784710" lon="-7.4347310">
        <ele>523.1</ele>
        <time>2021-10-05T09:17:39Z</time>
      </trkpt>
      <trkpt lat="42.7784730" lon="-7.4348080">
        <ele>523.6</ele>
        <time>2021-10-05T09:17:41Z</time>
      </trkpt>
      <trkpt lat="42.7784810" lon="-7.4349990">
        <ele>524.9</ele>
        <time>2021-10-05T09:17:46Z</time>
      </trkpt>
      <trkpt lat="42.7784840" lon="-7.4350740">
        <ele>525.4</ele>
        <time>2021-10-05T09:17:48Z</time>
      </trkpt>
      <trkpt lat="42.7784900" lon="-7.4353090">
        <ele>526.8</ele>
        <time>2021-10-05T09:17:54Z</time>
      </trkpt>
      <trkpt lat="42.7784970" lon="-7.4355460">
        <ele>528.2</ele>
        <time>2021-10-05T09:18:00Z</time>
      </trkpt>
      <trkpt lat="42.7785030" lon="-7.4357450">
        <ele>529.2</ele>
        <time>2021-10-05T09:18:05Z</time>
      </trkpt>
      <trkpt lat="42.7785130" lon="-7.4359840">
        <ele>530.3</ele>
        <time>2021-10-05T09:18:11Z</time>
      </trkpt>
      <trkpt lat="42.7785210" lon="-7.4361410">
        <ele>530.9</ele>
        <time>2021-10-05T09:18:15Z</time>
      </trkpt>
      <trkpt lat="42.7785290" lon="-7.4363730">
        <ele>531.6</ele>
        <time>2021-10-05T09:18:21Z</time>
      </trkpt>
      <trkpt lat="42.7785500" lon="-7.4367670">
        <ele>532.6</ele>
        <time>2021-10-05T09:18:31Z</time>
      </trkpt>
      <trkpt lat="42.7785530" lon="-7.4369610">
        <ele>533.2</ele>
        <time>2021-10-05T09:18:36Z</time>
      </trkpt>
      <trkpt lat="42.7785550" lon="-7.4370390">
        <ele>533.5</ele>
        <time>2021-10-05T09:18:38Z</time>
      </trkpt>
      <trkpt lat="42.7785530" lon="-7.4372750">
        <ele>534.4</ele>
        <time>2021-10-05T09:18:44Z</time>
      </trkpt>
      <trkpt lat="42.7785700" lon="-7.4376170">
        <ele>535.9</ele>
        <time>2021-10-05T09:18:53Z</time>
      </trkpt>
      <trkpt lat="42.7785740" lon="-7.4378400">
        <ele>536.9</ele>
        <time>2021-10-05T09:18:59Z</time>
      </trkpt>
      <trkpt lat="42.7785800" lon="-7.4380240">
        <ele>537.7</ele>
        <time>2021-10-05T09:19:04Z</time>
      </trkpt>
      <trkpt lat="42.7785900" lon="-7.4382060">
        <ele>538.4</ele>
        <time>2021-10-05T09:19:09Z</time>
      </trkpt>
      <trkpt lat="42.7786000" lon="-7.4383430">
        <ele>538.9</ele>
        <time>2021-10-05T09:19:13Z</time>
      </trkpt>
      <trkpt lat="42.7786050" lon="-7.4384070">
        <ele>539.1</ele>
        <time>2021-10-05T09:19:15Z</time>
      </trkpt>
      <trkpt lat="42.7786400" lon="-7.4386730">
        <ele>539.7</ele>
        <time>2021-10-05T09:19:23Z</time>
      </trkpt>
      <trkpt lat="42.7786760" lon="-7.4387930">
        <ele>539.8</ele>
        <time>2021-10-05T09:19:27Z</time>
      </trkpt>
      <trkpt lat="42.7786870" lon="-7.4388220">
        <ele>539.8</ele>
        <time>2021-10-05T09:19:28Z</time>
      </trkpt>
      <trkpt lat="42.7787130" lon="-7.4388800">
        <ele>539.8</ele>
        <time>2021-10-05T09:19:30Z</time>
      </trkpt>
      <trkpt lat="42.7787400" lon="-7.4389410">
        <ele>539.7</ele>
        <time>2021-10-05T09:19:32Z</time>
      </trkpt>
      <trkpt lat="42.7787540" lon="-7.4389710">
        <ele>539.6</ele>
        <time>2021-10-05T09:19:33Z</time>
      </trkpt>
      <trkpt lat="42.7787850" lon="-7.4390270">
        <ele>539.5</ele>
        <time>2021-10-05T09:19:35Z</time>
      </trkpt>
      <trkpt lat="42.7788810" lon="-7.4392040">
        <ele>538.7</ele>
        <time>2021-10-05T09:19:41Z</time>
      </trkpt>
      <trkpt lat="42.7789530" lon="-7.4393380">
        <ele>537.9</ele>
        <time>2021-10-05T09:19:44Z</time>
      </trkpt>
      <trkpt lat="42.7791320" lon="-7.4396560">
        <ele>535.5</ele>
        <time>2021-10-05T09:19:49Z</time>
      </trkpt>
      <trkpt lat="42.7792180" lon="-7.4398150">
        <ele>534.3</ele>
        <time>2021-10-05T09:19:51Z</time>
      </trkpt>
      <trkpt lat="42.7793120" lon="-7.4399800">
        <ele>533.2</ele>
        <time>2021-10-05T09:19:53Z</time>
      </trkpt>
      <trkpt lat="42.7794050" lon="-7.4401520">
        <ele>532.2</ele>
        <time>2021-10-05T09:19:55Z</time>
      </trkpt>
      <trkpt lat="42.7794990" lon="-7.4403270">
        <ele>531.2</ele>
        <time>2021-10-05T09:19:57Z</time>
      </trkpt>
      <trkpt lat="42.7795880" lon="-7.4405030">
        <ele>530.4</ele>
        <time>2021-10-05T09:19:59Z</time>
      </trkpt>
      <trkpt lat="42.7796800" lon="-7.4406690">
        <ele>529.8</ele>
        <time>2021-10-05T09:20:01Z</time>
      </trkpt>
      <trkpt lat="42.7797740" lon="-7.4408270">
        <ele>529.3</ele>
        <time>2021-10-05T09:20:03Z</time>
      </trkpt>
      <trkpt lat="42.7798960" lon="-7.4410400">
        <ele>528.8</ele>
        <time>2021-10-05T09:20:06Z</time>
      </trkpt>
      <trkpt lat="42.7799960" lon="-7.4412380">
        <ele>528.4</ele>
        <time>2021-10-05T09:20:09Z</time>
      </trkpt>
      <trkpt lat="42.7800200" lon="-7.4412970">
        <ele>528.3</ele>
        <time>2021-10-05T09:20:10Z</time>
      </trkpt>
      <trkpt lat="42.7801210" lon="-7.4415400">
        <ele>528.6</ele>
        <time>2021-10-05T09:20:20Z</time>
      </trkpt>
      <trkpt lat="42.7801590" lon="-7.4415760">
        <ele>528.8</ele>
        <time>2021-10-05T09:21:33Z</time>
      </trkpt>
      <trkpt lat="42.7802000" lon="-7.4415830">
        <ele>529.0</ele>
        <time>2021-10-05T09:21:35Z</time>
      </trkpt>
      <trkpt lat="42.7802390" lon="-7.4416060">
        <ele>529.2</ele>
        <time>2021-10-05T09:21:37Z</time>
      </trkpt>
      <trkpt lat="42.7802720" lon="-7.4416300">
        <ele>529.4</ele>
        <time>2021-10-05T09:21:39Z</time>
      </trkpt>
      <trkpt lat="42.7803220" lon="-7.4416830">
        <ele>529.7</ele>
        <time>2021-10-05T09:21:42Z</time>
      </trkpt>
      <trkpt lat="42.7803600" lon="-7.4417210">
        <ele>530.0</ele>
        <time>2021-10-05T09:21:44Z</time>
      </trkpt>
      <trkpt lat="42.7804010" lon="-7.4417740">
        <ele>530.2</ele>
        <time>2021-10-05T09:21:46Z</time>
      </trkpt>
      <trkpt lat="42.7804630" lon="-7.4418590">
        <ele>530.7</ele>
        <time>2021-10-05T09:21:49Z</time>
      </trkpt>
      <trkpt lat="42.7805060" lon="-7.4419160">
        <ele>531.0</ele>
        <time>2021-10-05T09:21:51Z</time>
      </trkpt>
      <trkpt lat="42.7805960" lon="-7.4420550">
        <ele>531.7</ele>
        <time>2021-10-05T09:21:56Z</time>
      </trkpt>
      <trkpt lat="42.7806700" lon="-7.4421910">
        <ele>532.3</ele>
        <time>2021-10-05T09:22:00Z</time>
      </trkpt>
      <trkpt lat="42.7806870" lon="-7.4422220">
        <ele>532.4</ele>
        <time>2021-10-05T09:22:01Z</time>
      </trkpt>
      <trkpt lat="42.7809030" lon="-7.4428100">
        <ele>534.2</ele>
        <time>2021-10-05T09:22:15Z</time>
      </trkpt>
      <trkpt lat="42.7809690" lon="-7.4430080">
        <ele>534.6</ele>
        <time>2021-10-05T09:22:20Z</time>
      </trkpt>
      <trkpt lat="42.7810560" lon="-7.4432770">
        <ele>534.8</ele>
        <time>2021-10-05T09:22:27Z</time>
      </trkpt>
      <trkpt lat="42.7811110" lon="-7.4434340">
        <ele>534.9</ele>
        <time>2021-10-05T09:22:31Z</time>
      </trkpt>
      <trkpt lat="42.7811780" lon="-7.4436270">
        <ele>535.0</ele>
        <time>2021-10-05T09:22:35Z</time>
      </trkpt>
      <trkpt lat="42.7812460" lon="-7.4438350">
        <ele>535.1</ele>
        <time>2021-10-05T09:22:39Z</time>
      </trkpt>
      <trkpt lat="42.7812760" lon="-7.4439390">
        <ele>535.1</ele>
        <time>2021-10-05T09:22:41Z</time>
      </trkpt>
      <trkpt lat="42.7813090" lon="-7.4440380">
        <ele>535.2</ele>
        <time>2021-10-05T09:22:43Z</time>
      </trkpt>
      <trkpt lat="42.7815010" lon="-7.4444670">
        <ele>535.3</ele>
        <time>2021-10-05T09:22:54Z</time>
      </trkpt>
      <trkpt lat="42.7815360" lon="-7.4445430">
        <ele>535.4</ele>
        <time>2021-10-05T09:22:56Z</time>
      </trkpt>
      <trkpt lat="42.7815730" lon="-7.4446230">
        <ele>535.4</ele>
        <time>2021-10-05T09:22:58Z</time>
      </trkpt>
      <trkpt lat="42.7816550" lon="-7.4447990">
        <ele>535.4</ele>
        <time>2021-10-05T09:23:02Z</time>
      </trkpt>
      <trkpt lat="42.7817090" lon="-7.4449020">
        <ele>535.4</ele>
        <time>2021-10-05T09:23:04Z</time>
      </trkpt>
      <trkpt lat="42.7817630" lon="-7.4450000">
        <ele>535.4</ele>
        <time>2021-10-05T09:23:06Z</time>
      </trkpt>
      <trkpt lat="42.7820150" lon="-7.4454120">
        <ele>535.3</ele>
        <time>2021-10-05T09:23:16Z</time>
      </trkpt>
      <trkpt lat="42.7821250" lon="-7.4456230">
        <ele>535.1</ele>
        <time>2021-10-05T09:23:20Z</time>
      </trkpt>
      <trkpt lat="42.7821760" lon="-7.4457810">
        <ele>535.1</ele>
        <time>2021-10-05T09:23:23Z</time>
      </trkpt>
      <trkpt lat="42.7822140" lon="-7.4459660">
        <ele>535.0</ele>
        <time>2021-10-05T09:23:26Z</time>
      </trkpt>
      <trkpt lat="42.7822240" lon="-7.4460350">
        <ele>534.9</ele>
        <time>2021-10-05T09:23:27Z</time>
      </trkpt>
      <trkpt lat="42.7822430" lon="-7.4462520">
        <ele>534.9</ele>
        <time>2021-10-05T09:23:30Z</time>
      </trkpt>
      <trkpt lat="42.7822220" lon="-7.4468450">
        <ele>535.7</ele>
        <time>2021-10-05T09:23:38Z</time>
      </trkpt>
      <trkpt lat="42.7822550" lon="-7.4471140">
        <ele>536.9</ele>
        <time>2021-10-05T09:23:43Z</time>
      </trkpt>
      <trkpt lat="42.7823090" lon="-7.4473530">
        <ele>538.3</ele>
        <time>2021-10-05T09:23:50Z</time>
      </trkpt>
      <trkpt lat="42.7823210" lon="-7.4474650">
        <ele>539.1</ele>
        <time>2021-10-05T09:23:53Z</time>
      </trkpt>
      <trkpt lat="42.7823210" lon="-7.4475550">
        <ele>539.4</ele>
        <time>2021-10-05T09:23:55Z</time>
      </trkpt>
      <trkpt lat="42.7823320" lon="-7.4476400">
        <ele>539.7</ele>
        <time>2021-10-05T09:23:57Z</time>
      </trkpt>
      <trkpt lat="42.7823450" lon="-7.4477660">
        <ele>540.2</ele>
        <time>2021-10-05T09:24:00Z</time>
      </trkpt>
      <trkpt lat="42.7823510" lon="-7.4478050">
        <ele>540.5</ele>
        <time>2021-10-05T09:24:01Z</time>
      </trkpt>
      <trkpt lat="42.7823770" lon="-7.4479420">
        <ele>541.6</ele>
        <time>2021-10-05T09:24:05Z</time>
      </trkpt>
      <trkpt lat="42.7823900" lon="-7.4480070">
        <ele>542.1</ele>
        <time>2021-10-05T09:24:07Z</time>
      </trkpt>
      <trkpt lat="42.7824010" lon="-7.4481170">
        <ele>543.1</ele>
        <time>2021-10-05T09:24:10Z</time>
      </trkpt>
      <trkpt lat="42.7824090" lon="-7.4482230">
        <ele>544.0</ele>
        <time>2021-10-05T09:24:13Z</time>
      </trkpt>
      <trkpt lat="42.7824120" lon="-7.4482590">
        <ele>544.4</ele>
        <time>2021-10-05T09:24:14Z</time>
      </trkpt>
      <trkpt lat="42.7824320" lon="-7.4483960">
        <ele>545.5</ele>
        <time>2021-10-05T09:24:18Z</time>
      </trkpt>
      <trkpt lat="42.7824500" lon="-7.4485500">
        <ele>546.8</ele>
        <time>2021-10-05T09:24:23Z</time>
      </trkpt>
      <trkpt lat="42.7824710" lon="-7.4487060">
        <ele>548.2</ele>
        <time>2021-10-05T09:24:28Z</time>
      </trkpt>
      <trkpt lat="42.7824800" lon="-7.4488340">
        <ele>549.4</ele>
        <time>2021-10-05T09:24:32Z</time>
      </trkpt>
      <trkpt lat="42.7824880" lon="-7.4489440">
        <ele>550.5</ele>
        <time>2021-10-05T09:24:36Z</time>
      </trkpt>
      <trkpt lat="42.7825010" lon="-7.4490750">
        <ele>551.9</ele>
        <time>2021-10-05T09:24:40Z</time>
      </trkpt>
      <trkpt lat="42.7825230" lon="-7.4492120">
        <ele>553.3</ele>
        <time>2021-10-05T09:24:45Z</time>
      </trkpt>
      <trkpt lat="42.7825330" lon="-7.4492960">
        <ele>554.1</ele>
        <time>2021-10-05T09:24:48Z</time>
      </trkpt>
      <trkpt lat="42.7825590" lon="-7.4494000">
        <ele>555.2</ele>
        <time>2021-10-05T09:24:52Z</time>
      </trkpt>
      <trkpt lat="42.7825720" lon="-7.4494900">
        <ele>555.7</ele>
        <time>2021-10-05T09:24:55Z</time>
      </trkpt>
      <trkpt lat="42.7825670" lon="-7.4495220">
        <ele>555.9</ele>
        <time>2021-10-05T09:24:56Z</time>
      </trkpt>
      <trkpt lat="42.7825400" lon="-7.4496490">
        <ele>556.5</ele>
        <time>2021-10-05T09:25:00Z</time>
      </trkpt>
      <trkpt lat="42.7824670" lon="-7.4498860">
        <ele>557.6</ele>
        <time>2021-10-05T09:25:08Z</time>
      </trkpt>
      <trkpt lat="42.7823770" lon="-7.4501070">
        <ele>559.1</ele>
        <time>2021-10-05T09:25:16Z</time>
      </trkpt>
      <trkpt lat="42.7822780" lon="-7.4502650">
        <ele>560.3</ele>
        <time>2021-10-05T09:25:22Z</time>
      </trkpt>
      <trkpt lat="42.7821620" lon="-7.4503830">
        <ele>561.2</ele>
        <time>2021-10-05T09:25:28Z</time>
      </trkpt>
      <trkpt lat="42.7820900" lon="-7.4505020">
        <ele>561.9</ele>
        <time>2021-10-05T09:25:33Z</time>
      </trkpt>
      <trkpt lat="42.7820640" lon="-7.4505410">
        <ele>562.1</ele>
        <time>2021-10-05T09:25:35Z</time>
      </trkpt>
      <trkpt lat="42.7820400" lon="-7.4505790">
        <ele>562.3</ele>
        <time>2021-10-05T09:25:37Z</time>
      </trkpt>
      <trkpt lat="42.7820240" lon="-7.4506120">
        <ele>562.5</ele>
        <time>2021-10-05T09:25:39Z</time>
      </trkpt>
      <trkpt lat="42.7820230" lon="-7.4506120">
        <ele>562.5</ele>
        <time>2021-10-05T09:25:40Z</time>
      </trkpt>
      <trkpt lat="42.7819640" lon="-7.4506700">
        <ele>562.9</ele>
        <time>2021-10-05T09:25:47Z</time>
      </trkpt>
      <trkpt lat="42.7818510" lon="-7.4510430">
        <ele>564.8</ele>
        <time>2021-10-05T09:26:02Z</time>
      </trkpt>
      <trkpt lat="42.7818400" lon="-7.4511070">
        <ele>565.2</ele>
        <time>2021-10-05T09:26:06Z</time>
      </trkpt>
      <trkpt lat="42.7818390" lon="-7.4511230">
        <ele>565.4</ele>
        <time>2021-10-05T09:26:07Z</time>
      </trkpt>
      <trkpt lat="42.7818370" lon="-7.4511830">
        <ele>565.8</ele>
        <time>2021-10-05T09:26:10Z</time>
      </trkpt>
      <trkpt lat="42.7818050" lon="-7.4513280">
        <ele>567.2</ele>
        <time>2021-10-05T09:26:15Z</time>
      </trkpt>
      <trkpt lat="42.7817830" lon="-7.4514420">
        <ele>568.2</ele>
        <time>2021-10-05T09:26:19Z</time>
      </trkpt>
      <trkpt lat="42.7817620" lon="-7.4516200">
        <ele>569.6</ele>
        <time>2021-10-05T09:26:25Z</time>
      </trkpt>
      <trkpt lat="42.7817590" lon="-7.4518120">
        <ele>570.7</ele>
        <time>2021-10-05T09:26:32Z</time>
      </trkpt>
      <trkpt lat="42.7817400" lon="-7.4519350">
        <ele>571.4</ele>
        <time>2021-10-05T09:26:37Z</time>
      </trkpt>
      <trkpt lat="42.7817270" lon="-7.4520350">
        <ele>571.8</ele>
        <time>2021-10-05T09:26:41Z</time>
      </trkpt>
      <trkpt lat="42.7817230" lon="-7.4520830">
        <ele>572.0</ele>
        <time>2021-10-05T09:26:44Z</time>
      </trkpt>
      <trkpt lat="42.7817150" lon="-7.4521460">
        <ele>572.3</ele>
        <time>2021-10-05T09:26:48Z</time>
      </trkpt>
      <trkpt lat="42.7817130" lon="-7.4522080">
        <ele>572.5</ele>
        <time>2021-10-05T09:26:52Z</time>
      </trkpt>
      <trkpt lat="42.7817150" lon="-7.4522690">
        <ele>572.8</ele>
        <time>2021-10-05T09:26:55Z</time>
      </trkpt>
      <trkpt lat="42.7817060" lon="-7.4523350">
        <ele>573.1</ele>
        <time>2021-10-05T09:26:59Z</time>
      </trkpt>
      <trkpt lat="42.7816810" lon="-7.4524930">
        <ele>573.9</ele>
        <time>2021-10-05T09:27:08Z</time>
      </trkpt>
      <trkpt lat="42.7816620" lon="-7.4526690">
        <ele>574.8</ele>
        <time>2021-10-05T09:27:18Z</time>
      </trkpt>
      <trkpt lat="42.7816700" lon="-7.4527920">
        <ele>575.4</ele>
        <time>2021-10-05T09:27:25Z</time>
      </trkpt>
      <trkpt lat="42.7816780" lon="-7.4528700">
        <ele>575.8</ele>
        <time>2021-10-05T09:27:29Z</time>
      </trkpt>
      <trkpt lat="42.7816830" lon="-7.4530390">
        <ele>576.9</ele>
        <time>2021-10-05T09:27:37Z</time>
      </trkpt>
      <trkpt lat="42.7816870" lon="-7.4530880">
        <ele>577.3</ele>
        <time>2021-10-05T09:27:39Z</time>
      </trkpt>
      <trkpt lat="42.7816890" lon="-7.4532000">
        <ele>578.3</ele>
        <time>2021-10-05T09:27:44Z</time>
      </trkpt>
      <trkpt lat="42.7816880" lon="-7.4532200">
        <ele>578.5</ele>
        <time>2021-10-05T09:27:45Z</time>
      </trkpt>
      <trkpt lat="42.7816920" lon="-7.4533350">
        <ele>579.7</ele>
        <time>2021-10-05T09:27:50Z</time>
      </trkpt>
      <trkpt lat="42.7817170" lon="-7.4534610">
        <ele>581.2</ele>
        <time>2021-10-05T09:27:56Z</time>
      </trkpt>
      <trkpt lat="42.7817370" lon="-7.4535590">
        <ele>582.3</ele>
        <time>2021-10-05T09:28:01Z</time>
      </trkpt>
      <trkpt lat="42.7817440" lon="-7.4536540">
        <ele>583.3</ele>
        <time>2021-10-05T09:28:05Z</time>
      </trkpt>
      <trkpt lat="42.7817410" lon="-7.4536880">
        <ele>583.7</ele>
        <time>2021-10-05T09:28:07Z</time>
      </trkpt>
      <trkpt lat="42.7817340" lon="-7.4537650">
        <ele>584.5</ele>
        <time>2021-10-05T09:28:10Z</time>
      </trkpt>
      <trkpt lat="42.7817250" lon="-7.4538160">
        <ele>585.1</ele>
        <time>2021-10-05T09:28:12Z</time>
      </trkpt>
      <trkpt lat="42.7817060" lon="-7.4538970">
        <ele>585.9</ele>
        <time>2021-10-05T09:28:15Z</time>
      </trkpt>
      <trkpt lat="42.7816980" lon="-7.4540220">
        <ele>586.9</ele>
        <time>2021-10-05T09:28:19Z</time>
      </trkpt>
      <trkpt lat="42.7817040" lon="-7.4541420">
        <ele>587.7</ele>
        <time>2021-10-05T09:28:23Z</time>
      </trkpt>
      <trkpt lat="42.7817130" lon="-7.4543610">
        <ele>588.6</ele>
        <time>2021-10-05T09:28:31Z</time>
      </trkpt>
      <trkpt lat="42.7817090" lon="-7.4543980">
        <ele>588.8</ele>
        <time>2021-10-05T09:28:33Z</time>
      </trkpt>
      <trkpt lat="42.7816950" lon="-7.4544860">
        <ele>589.0</ele>
        <time>2021-10-05T09:28:37Z</time>
      </trkpt>
      <trkpt lat="42.7816950" lon="-7.4545390">
        <ele>589.2</ele>
        <time>2021-10-05T09:28:39Z</time>
      </trkpt>
      <trkpt lat="42.7816970" lon="-7.4546900">
        <ele>589.5</ele>
        <time>2021-10-05T09:28:44Z</time>
      </trkpt>
      <trkpt lat="42.7817110" lon="-7.4548280">
        <ele>589.8</ele>
        <time>2021-10-05T09:28:50Z</time>
      </trkpt>
      <trkpt lat="42.7817180" lon="-7.4549340">
        <ele>589.9</ele>
        <time>2021-10-05T09:28:54Z</time>
      </trkpt>
      <trkpt lat="42.7817190" lon="-7.4550260">
        <ele>590.0</ele>
        <time>2021-10-05T09:28:57Z</time>
      </trkpt>
      <trkpt lat="42.7816980" lon="-7.4551530">
        <ele>590.1</ele>
        <time>2021-10-05T09:29:01Z</time>
      </trkpt>
      <trkpt lat="42.7816950" lon="-7.4552180">
        <ele>590.1</ele>
        <time>2021-10-05T09:29:03Z</time>
      </trkpt>
      <trkpt lat="42.7816940" lon="-7.4552840">
        <ele>590.1</ele>
        <time>2021-10-05T09:29:06Z</time>
      </trkpt>
      <trkpt lat="42.7816900" lon="-7.4552950">
        <ele>590.1</ele>
        <time>2021-10-05T09:29:07Z</time>
      </trkpt>
      <trkpt lat="42.7816900" lon="-7.4553760">
        <ele>590.0</ele>
        <time>2021-10-05T09:29:33Z</time>
      </trkpt>
      <trkpt lat="42.7816960" lon="-7.4554010">
        <ele>589.9</ele>
        <time>2021-10-05T09:29:34Z</time>
      </trkpt>
      <trkpt lat="42.7817430" lon="-7.4557470">
        <ele>589.3</ele>
        <time>2021-10-05T09:29:42Z</time>
      </trkpt>
      <trkpt lat="42.7817630" lon="-7.4558530">
        <ele>589.1</ele>
        <time>2021-10-05T09:29:44Z</time>
      </trkpt>
      <trkpt lat="42.7818270" lon="-7.4561270">
        <ele>588.5</ele>
        <time>2021-10-05T09:29:49Z</time>
      </trkpt>
      <trkpt lat="42.7818590" lon="-7.4562400">
        <ele>588.3</ele>
        <time>2021-10-05T09:29:51Z</time>
      </trkpt>
      <trkpt lat="42.7819150" lon="-7.4564810">
        <ele>587.8</ele>
        <time>2021-10-05T09:29:55Z</time>
      </trkpt>
      <trkpt lat="42.7819440" lon="-7.4566050">
        <ele>587.5</ele>
        <time>2021-10-05T09:29:57Z</time>
      </trkpt>
      <trkpt lat="42.7819860" lon="-7.4567270">
        <ele>587.2</ele>
        <time>2021-10-05T09:29:59Z</time>
      </trkpt>
      <trkpt lat="42.7821090" lon="-7.4569460">
        <ele>586.5</ele>
        <time>2021-10-05T09:30:03Z</time>
      </trkpt>
      <trkpt lat="42.7821750" lon="-7.4570550">
        <ele>586.3</ele>
        <time>2021-10-05T09:30:05Z</time>
      </trkpt>
      <trkpt lat="42.7822570" lon="-7.4571200">
        <ele>586.1</ele>
        <time>2021-10-05T09:30:07Z</time>
      </trkpt>
      <trkpt lat="42.7824200" lon="-7.4573670">
        <ele>585.5</ele>
        <time>2021-10-05T09:30:14Z</time>
      </trkpt>
      <trkpt lat="42.7824150" lon="-7.4574230">
        <ele>585.6</ele>
        <time>2021-10-05T09:30:15Z</time>
      </trkpt>
      <trkpt lat="42.7824070" lon="-7.4575340">
        <ele>585.6</ele>
        <time>2021-10-05T09:30:17Z</time>
      </trkpt>
      <trkpt lat="42.7824060" lon="-7.4575900">
        <ele>585.7</ele>
        <time>2021-10-05T09:30:18Z</time>
      </trkpt>
      <trkpt lat="42.7824120" lon="-7.4577600">
        <ele>585.9</ele>
        <time>2021-10-05T09:30:21Z</time>
      </trkpt>
      <trkpt lat="42.7824230" lon="-7.4578720">
        <ele>586.0</ele>
        <time>2021-10-05T09:30:23Z</time>
      </trkpt>
      <trkpt lat="42.7825600" lon="-7.4583110">
        <ele>586.4</ele>
        <time>2021-10-05T09:30:32Z</time>
      </trkpt>
      <trkpt lat="42.7826320" lon="-7.4584270">
        <ele>586.6</ele>
        <time>2021-10-05T09:30:35Z</time>
      </trkpt>
      <trkpt lat="42.7826830" lon="-7.4585210">
        <ele>586.8</ele>
        <time>2021-10-05T09:30:37Z</time>
      </trkpt>
      <trkpt lat="42.7827690" lon="-7.4586570">
        <ele>587.2</ele>
        <time>2021-10-05T09:30:40Z</time>
      </trkpt>
      <trkpt lat="42.7828910" lon="-7.4588310">
        <ele>587.7</ele>
        <time>2021-10-05T09:30:44Z</time>
      </trkpt>
      <trkpt lat="42.7830430" lon="-7.4590410">
        <ele>588.3</ele>
        <time>2021-10-05T09:30:49Z</time>
      </trkpt>
      <trkpt lat="42.7832870" lon="-7.4593670">
        <ele>589.4</ele>
        <time>2021-10-05T09:30:57Z</time>
      </trkpt>
      <trkpt lat="42.7834940" lon="-7.4596370">
        <ele>590.5</ele>
        <time>2021-10-05T09:31:04Z</time>
      </trkpt>
      <trkpt lat="42.7837760" lon="-7.4601140">
        <ele>591.9</ele>
        <time>2021-10-05T09:31:16Z</time>
      </trkpt>
      <trkpt lat="42.7838150" lon="-7.4602040">
        <ele>592.0</ele>
        <time>2021-10-05T09:31:18Z</time>
      </trkpt>
      <trkpt lat="42.7838550" lon="-7.4602910">
        <ele>592.1</ele>
        <time>2021-10-05T09:31:20Z</time>
      </trkpt>
      <trkpt lat="42.7839360" lon="-7.4606800">
        <ele>593.0</ele>
        <time>2021-10-05T09:31:28Z</time>
      </trkpt>
      <trkpt lat="42.7839500" lon="-7.4608280">
        <ele>593.5</ele>
        <time>2021-10-05T09:31:31Z</time>
      </trkpt>
      <trkpt lat="42.7839250" lon="-7.4614170">
        <ele>595.7</ele>
        <time>2021-10-05T09:31:43Z</time>
      </trkpt>
      <trkpt lat="42.7838940" lon="-7.4617840">
        <ele>597.1</ele>
        <time>2021-10-05T09:31:51Z</time>
      </trkpt>
      <trkpt lat="42.7838590" lon="-7.4621100">
        <ele>598.4</ele>
        <time>2021-10-05T09:31:58Z</time>
      </trkpt>
      <trkpt lat="42.7838470" lon="-7.4622930">
        <ele>599.2</ele>
        <time>2021-10-05T09:32:02Z</time>
      </trkpt>
      <trkpt lat="42.7838250" lon="-7.4625160">
        <ele>600.1</ele>
        <time>2021-10-05T09:32:07Z</time>
      </trkpt>
      <trkpt lat="42.7837870" lon="-7.4627750">
        <ele>601.2</ele>
        <time>2021-10-05T09:32:13Z</time>
      </trkpt>
      <trkpt lat="42.7837520" lon="-7.4629920">
        <ele>602.0</ele>
        <time>2021-10-05T09:32:18Z</time>
      </trkpt>
      <trkpt lat="42.7837050" lon="-7.4632090">
        <ele>602.7</ele>
        <time>2021-10-05T09:32:23Z</time>
      </trkpt>
      <trkpt lat="42.7836430" lon="-7.4635290">
        <ele>603.5</ele>
        <time>2021-10-05T09:32:30Z</time>
      </trkpt>
      <trkpt lat="42.7835980" lon="-7.4637670">
        <ele>604.1</ele>
        <time>2021-10-05T09:32:35Z</time>
      </trkpt>
      <trkpt lat="42.7835500" lon="-7.4640040">
        <ele>604.6</ele>
        <time>2021-10-05T09:32:40Z</time>
      </trkpt>
      <trkpt lat="42.7835180" lon="-7.4641440">
        <ele>604.9</ele>
        <time>2021-10-05T09:32:43Z</time>
      </trkpt>
      <trkpt lat="42.7834150" lon="-7.4646440">
        <ele>605.9</ele>
        <time>2021-10-05T09:32:54Z</time>
      </trkpt>
      <trkpt lat="42.7833160" lon="-7.4650960">
        <ele>607.2</ele>
        <time>2021-10-05T09:33:04Z</time>
      </trkpt>
      <trkpt lat="42.7833070" lon="-7.4651410">
        <ele>607.3</ele>
        <time>2021-10-05T09:33:05Z</time>
      </trkpt>
      <trkpt lat="42.7832310" lon="-7.4654460">
        <ele>608.0</ele>
        <time>2021-10-05T09:33:12Z</time>
      </trkpt>
      <trkpt lat="42.7831550" lon="-7.4661790">
        <ele>609.3</ele>
        <time>2021-10-05T09:33:29Z</time>
      </trkpt>
      <trkpt lat="42.7831320" lon="-7.4663120">
        <ele>609.6</ele>
        <time>2021-10-05T09:33:33Z</time>
      </trkpt>
      <trkpt lat="42.7830960" lon="-7.4664790">
        <ele>610.2</ele>
        <time>2021-10-05T09:33:38Z</time>
      </trkpt>
      <trkpt lat="42.7830780" lon="-7.4665730">
        <ele>610.6</ele>
        <time>2021-10-05T09:33:41Z</time>
      </trkpt>
      <trkpt lat="42.7830690" lon="-7.4666140">
        <ele>610.8</ele>
        <time>2021-10-05T09:33:42Z</time>
      </trkpt>
      <trkpt lat="42.7830420" lon="-7.4667790">
        <ele>611.5</ele>
        <time>2021-10-05T09:33:46Z</time>
      </trkpt>
      <trkpt lat="42.7830180" lon="-7.4669600">
        <ele>612.4</ele>
        <time>2021-10-05T09:33:52Z</time>
      </trkpt>
      <trkpt lat="42.7829970" lon="-7.4670160">
        <ele>612.7</ele>
        <time>2021-10-05T09:33:54Z</time>
      </trkpt>
      <trkpt lat="42.7829200" lon="-7.4672330">
        <ele>614.0</ele>
        <time>2021-10-05T09:34:00Z</time>
      </trkpt>
      <trkpt lat="42.7828390" lon="-7.4674290">
        <ele>615.0</ele>
        <time>2021-10-05T09:34:05Z</time>
      </trkpt>
      <trkpt lat="42.7828240" lon="-7.4674680">
        <ele>615.2</ele>
        <time>2021-10-05T09:34:06Z</time>
      </trkpt>
      <trkpt lat="42.7827500" lon="-7.4677060">
        <ele>615.9</ele>
        <time>2021-10-05T09:34:12Z</time>
      </trkpt>
      <trkpt lat="42.7825690" lon="-7.4680920">
        <ele>617.0</ele>
        <time>2021-10-05T09:34:25Z</time>
      </trkpt>
      <trkpt lat="42.7825190" lon="-7.4682540">
        <ele>619.1</ele>
        <time>2021-10-05T09:34:33Z</time>
      </trkpt>
      <trkpt lat="42.7825260" lon="-7.4682780">
        <ele>619.2</ele>
        <time>2021-10-05T09:34:35Z</time>
      </trkpt>
      <trkpt lat="42.7825330" lon="-7.4683540">
        <ele>619.7</ele>
        <time>2021-10-05T09:34:39Z</time>
      </trkpt>
      <trkpt lat="42.7825470" lon="-7.4684180">
        <ele>620.0</ele>
        <time>2021-10-05T09:34:42Z</time>
      </trkpt>
      <trkpt lat="42.7825630" lon="-7.4685380">
        <ele>620.4</ele>
        <time>2021-10-05T09:34:47Z</time>
      </trkpt>
      <trkpt lat="42.7825210" lon="-7.4686520">
        <ele>620.8</ele>
        <time>2021-10-05T09:34:52Z</time>
      </trkpt>
      <trkpt lat="42.7824630" lon="-7.4687520">
        <ele>620.7</ele>
        <time>2021-10-05T09:34:57Z</time>
      </trkpt>
      <trkpt lat="42.7824150" lon="-7.4688650">
        <ele>620.8</ele>
        <time>2021-10-05T09:35:02Z</time>
      </trkpt>
      <trkpt lat="42.7824080" lon="-7.4688930">
        <ele>620.6</ele>
        <time>2021-10-05T09:35:03Z</time>
      </trkpt>
      <trkpt lat="42.7823620" lon="-7.4690650">
        <ele>620.8</ele>
        <time>2021-10-05T09:35:10Z</time>
      </trkpt>
      <trkpt lat="42.7823440" lon="-7.4691050">
        <ele>620.7</ele>
        <time>2021-10-05T09:35:12Z</time>
      </trkpt>
      <trkpt lat="42.7822900" lon="-7.4692150">
        <ele>620.9</ele>
        <time>2021-10-05T09:35:16Z</time>
      </trkpt>
      <trkpt lat="42.7822220" lon="-7.4693660">
        <ele>621.0</ele>
        <time>2021-10-05T09:35:21Z</time>
      </trkpt>
      <trkpt lat="42.7821930" lon="-7.4694420">
        <ele>621.0</ele>
        <time>2021-10-05T09:35:24Z</time>
      </trkpt>
      <trkpt lat="42.7819580" lon="-7.4699220">
        <ele>621.8</ele>
        <time>2021-10-05T09:35:39Z</time>
      </trkpt>
      <trkpt lat="42.7817460" lon="-7.4704360">
        <ele>621.9</ele>
        <time>2021-10-05T09:35:55Z</time>
      </trkpt>
      <trkpt lat="42.7817300" lon="-7.4705320">
        <ele>621.7</ele>
        <time>2021-10-05T09:36:00Z</time>
      </trkpt>
      <trkpt lat="42.7817080" lon="-7.4705900">
        <ele>621.6</ele>
        <time>2021-10-05T09:38:02Z</time>
      </trkpt>
      <trkpt lat="42.7817050" lon="-7.4706160">
        <ele>621.4</ele>
        <time>2021-10-05T09:38:03Z</time>
      </trkpt>
      <trkpt lat="42.7817300" lon="-7.4710520">
        <ele>621.3</ele>
        <time>2021-10-05T09:38:14Z</time>
      </trkpt>
      <trkpt lat="42.7817590" lon="-7.4711590">
        <ele>621.2</ele>
        <time>2021-10-05T09:38:17Z</time>
      </trkpt>
      <trkpt lat="42.7817990" lon="-7.4714640">
        <ele>621.2</ele>
        <time>2021-10-05T09:38:27Z</time>
      </trkpt>
      <trkpt lat="42.7817960" lon="-7.4715130">
        <ele>621.0</ele>
        <time>2021-10-05T09:38:28Z</time>
      </trkpt>
      <trkpt lat="42.7817900" lon="-7.4715980">
        <ele>620.9</ele>
        <time>2021-10-05T09:38:30Z</time>
      </trkpt>
      <trkpt lat="42.7818200" lon="-7.4718100">
        <ele>620.8</ele>
        <time>2021-10-05T09:38:36Z</time>
      </trkpt>
      <trkpt lat="42.7818540" lon="-7.4720160">
        <ele>620.8</ele>
        <time>2021-10-05T09:38:42Z</time>
      </trkpt>
      <trkpt lat="42.7817430" lon="-7.4727520">
        <ele>620.7</ele>
        <time>2021-10-05T09:38:56Z</time>
      </trkpt>
      <trkpt lat="42.7816970" lon="-7.4729840">
        <ele>620.5</ele>
        <time>2021-10-05T09:39:02Z</time>
      </trkpt>
      <trkpt lat="42.7815780" lon="-7.4734640">
        <ele>620.5</ele>
        <time>2021-10-05T09:39:13Z</time>
      </trkpt>
      <trkpt lat="42.7814980" lon="-7.4740260">
        <ele>620.8</ele>
        <time>2021-10-05T09:39:26Z</time>
      </trkpt>
      <trkpt lat="42.7814430" lon="-7.4743620">
        <ele>619.8</ele>
        <time>2021-10-05T09:39:34Z</time>
      </trkpt>
      <trkpt lat="42.7815490" lon="-7.4750820">
        <ele>620.1</ele>
        <time>2021-10-05T09:39:52Z</time>
      </trkpt>
      <trkpt lat="42.7815540" lon="-7.4755720">
        <ele>619.1</ele>
        <time>2021-10-05T09:40:03Z</time>
      </trkpt>
      <trkpt lat="42.7815550" lon="-7.4757760">
        <ele>618.4</ele>
        <time>2021-10-05T09:40:07Z</time>
      </trkpt>
      <trkpt lat="42.7815090" lon="-7.4759270">
        <ele>617.9</ele>
        <time>2021-10-05T09:40:11Z</time>
      </trkpt>
      <trkpt lat="42.7814890" lon="-7.4761620">
        <ele>616.6</ele>
        <time>2021-10-05T09:40:16Z</time>
      </trkpt>
      <trkpt lat="42.7815110" lon="-7.4763390">
        <ele>615.7</ele>
        <time>2021-10-05T09:40:19Z</time>
      </trkpt>
      <trkpt lat="42.7815160" lon="-7.4764040">
        <ele>615.3</ele>
        <time>2021-10-05T09:40:20Z</time>
      </trkpt>
      <trkpt lat="42.7815480" lon="-7.4767080">
        <ele>613.3</ele>
        <time>2021-10-05T09:40:24Z</time>
      </trkpt>
      <trkpt lat="42.7815560" lon="-7.4767850">
        <ele>612.9</ele>
        <time>2021-10-05T09:40:25Z</time>
      </trkpt>
      <trkpt lat="42.7815550" lon="-7.4769320">
        <ele>612.2</ele>
        <time>2021-10-05T09:40:27Z</time>
      </trkpt>
      <trkpt lat="42.7815190" lon="-7.4770590">
        <ele>611.7</ele>
        <time>2021-10-05T09:40:29Z</time>
      </trkpt>
      <trkpt lat="42.7814590" lon="-7.4771770">
        <ele>611.4</ele>
        <time>2021-10-05T09:40:31Z</time>
      </trkpt>
      <trkpt lat="42.7814270" lon="-7.4772330">
        <ele>611.4</ele>
        <time>2021-10-05T09:40:32Z</time>
      </trkpt>
      <trkpt lat="42.7813970" lon="-7.4772850">
        <ele>611.3</ele>
        <time>2021-10-05T09:40:33Z</time>
      </trkpt>
      <trkpt lat="42.7813240" lon="-7.4774180">
        <ele>611.5</ele>
        <time>2021-10-05T09:40:36Z</time>
      </trkpt>
      <trkpt lat="42.7812810" lon="-7.4774920">
        <ele>611.8</ele>
        <time>2021-10-05T09:40:38Z</time>
      </trkpt>
      <trkpt lat="42.7812250" lon="-7.4775590">
        <ele>612.2</ele>
        <time>2021-10-05T09:40:40Z</time>
      </trkpt>
      <trkpt lat="42.7811420" lon="-7.4776490">
        <ele>612.8</ele>
        <time>2021-10-05T09:40:43Z</time>
      </trkpt>
      <trkpt lat="42.7810560" lon="-7.4777160">
        <ele>613.5</ele>
        <time>2021-10-05T09:40:46Z</time>
      </trkpt>
      <trkpt lat="42.7810290" lon="-7.4777330">
        <ele>613.7</ele>
        <time>2021-10-05T09:40:47Z</time>
      </trkpt>
      <trkpt lat="42.7809480" lon="-7.4777840">
        <ele>614.4</ele>
        <time>2021-10-05T09:40:50Z</time>
      </trkpt>
      <trkpt lat="42.7809200" lon="-7.4777980">
        <ele>614.6</ele>
        <time>2021-10-05T09:40:51Z</time>
      </trkpt>
      <trkpt lat="42.7808300" lon="-7.4778180">
        <ele>615.3</ele>
        <time>2021-10-05T09:40:54Z</time>
      </trkpt>
      <trkpt lat="42.7808000" lon="-7.4778240">
        <ele>615.6</ele>
        <time>2021-10-05T09:40:55Z</time>
      </trkpt>
      <trkpt lat="42.7807140" lon="-7.4778630">
        <ele>616.3</ele>
        <time>2021-10-05T09:40:58Z</time>
      </trkpt>
      <trkpt lat="42.7806730" lon="-7.4779090">
        <ele>616.7</ele>
        <time>2021-10-05T09:41:00Z</time>
      </trkpt>
      <trkpt lat="42.7806220" lon="-7.4780150">
        <ele>617.4</ele>
        <time>2021-10-05T09:41:05Z</time>
      </trkpt>
      <trkpt lat="42.7806190" lon="-7.4780350">
        <ele>618.2</ele>
        <time>2021-10-05T09:41:06Z</time>
      </trkpt>
      <trkpt lat="42.7807300" lon="-7.4781600">
        <ele>619.6</ele>
        <time>2021-10-05T09:41:14Z</time>
      </trkpt>
      <trkpt lat="42.7807780" lon="-7.4782270">
        <ele>620.3</ele>
        <time>2021-10-05T09:41:17Z</time>
      </trkpt>
      <trkpt lat="42.7808320" lon="-7.4783370">
        <ele>621.4</ele>
        <time>2021-10-05T09:41:21Z</time>
      </trkpt>
      <trkpt lat="42.7808830" lon="-7.4784340">
        <ele>622.5</ele>
        <time>2021-10-05T09:41:25Z</time>
      </trkpt>
      <trkpt lat="42.7809270" lon="-7.4785030">
        <ele>623.4</ele>
        <time>2021-10-05T09:41:29Z</time>
      </trkpt>
      <trkpt lat="42.7809370" lon="-7.4785200">
        <ele>623.6</ele>
        <time>2021-10-05T09:41:30Z</time>
      </trkpt>
      <trkpt lat="42.7809820" lon="-7.4786070">
        <ele>624.6</ele>
        <time>2021-10-05T09:41:34Z</time>
      </trkpt>
      <trkpt lat="42.7810040" lon="-7.4786840">
        <ele>625.4</ele>
        <time>2021-10-05T09:41:37Z</time>
      </trkpt>
      <trkpt lat="42.7810380" lon="-7.4787890">
        <ele>626.4</ele>
        <time>2021-10-05T09:41:41Z</time>
      </trkpt>
      <trkpt lat="42.7811020" lon="-7.4789210">
        <ele>627.8</ele>
        <time>2021-10-05T09:41:46Z</time>
      </trkpt>
      <trkpt lat="42.7811550" lon="-7.4790610">
        <ele>629.0</ele>
        <time>2021-10-05T09:41:51Z</time>
      </trkpt>
      <trkpt lat="42.7811620" lon="-7.4791810">
        <ele>629.6</ele>
        <time>2021-10-05T09:41:55Z</time>
      </trkpt>
      <trkpt lat="42.7811380" lon="-7.4794100">
        <ele>629.6</ele>
        <time>2021-10-05T09:42:00Z</time>
      </trkpt>
      <trkpt lat="42.7811360" lon="-7.4796090">
        <ele>629.6</ele>
        <time>2021-10-05T09:42:04Z</time>
      </trkpt>
      <trkpt lat="42.7811300" lon="-7.4798720">
        <ele>629.7</ele>
        <time>2021-10-05T09:42:10Z</time>
      </trkpt>
      <trkpt lat="42.7811250" lon="-7.4799410">
        <ele>629.8</ele>
        <time>2021-10-05T09:42:12Z</time>
      </trkpt>
      <trkpt lat="42.7811210" lon="-7.4800240">
        <ele>629.9</ele>
        <time>2021-10-05T09:42:15Z</time>
      </trkpt>
      <trkpt lat="42.7811230" lon="-7.4800730">
        <ele>629.9</ele>
        <time>2021-10-05T09:42:17Z</time>
      </trkpt>
      <trkpt lat="42.7811230" lon="-7.4800940">
        <ele>629.9</ele>
        <time>2021-10-05T09:42:18Z</time>
      </trkpt>
      <trkpt lat="42.7811250" lon="-7.4801120">
        <ele>629.9</ele>
        <time>2021-10-05T09:42:19Z</time>
      </trkpt>
      <trkpt lat="42.7811180" lon="-7.4802120">
        <ele>630.0</ele>
        <time>2021-10-05T09:42:24Z</time>
      </trkpt>
      <trkpt lat="42.7811140" lon="-7.4802490">
        <ele>630.0</ele>
        <time>2021-10-05T09:42:26Z</time>
      </trkpt>
      <trkpt lat="42.7811270" lon="-7.4802790">
        <ele>629.9</ele>
        <time>2021-10-05T09:42:28Z</time>
      </trkpt>
      <trkpt lat="42.7811380" lon="-7.4803070">
        <ele>629.9</ele>
        <time>2021-10-05T09:42:30Z</time>
      </trkpt>
      <trkpt lat="42.7811460" lon="-7.4803400">
        <ele>629.9</ele>
        <time>2021-10-05T09:42:32Z</time>
      </trkpt>
      <trkpt lat="42.7811480" lon="-7.4803610">
        <ele>629.9</ele>
        <time>2021-10-05T09:42:33Z</time>
      </trkpt>
      <trkpt lat="42.7812080" lon="-7.4806030">
        <ele>629.8</ele>
        <time>2021-10-05T09:42:42Z</time>
      </trkpt>
      <trkpt lat="42.7812320" lon="-7.4806800">
        <ele>629.8</ele>
        <time>2021-10-05T09:42:45Z</time>
      </trkpt>
      <trkpt lat="42.7812810" lon="-7.4808620">
        <ele>629.7</ele>
        <time>2021-10-05T09:42:54Z</time>
      </trkpt>
      <trkpt lat="42.7812850" lon="-7.4808940">
        <ele>629.7</ele>
        <time>2021-10-05T09:42:57Z</time>
      </trkpt>
      <trkpt lat="42.7812840" lon="-7.4808930">
        <ele>629.7</ele>
        <time>2021-10-05T09:42:58Z</time>
      </trkpt>
      <trkpt lat="42.7813030" lon="-7.4809280">
        <ele>629.7</ele>
        <time>2021-10-05T09:43:51Z</time>
      </trkpt>
      <trkpt lat="42.7813210" lon="-7.4809650">
        <ele>629.7</ele>
        <time>2021-10-05T09:43:53Z</time>
      </trkpt>
      <trkpt lat="42.7813490" lon="-7.4811490">
        <ele>629.7</ele>
        <time>2021-10-05T09:43:58Z</time>
      </trkpt>
      <trkpt lat="42.7813420" lon="-7.4811930">
        <ele>629.7</ele>
        <time>2021-10-05T09:43:59Z</time>
      </trkpt>
      <trkpt lat="42.7812580" lon="-7.4814570">
        <ele>629.7</ele>
        <time>2021-10-05T09:44:05Z</time>
      </trkpt>
      <trkpt lat="42.7812250" lon="-7.4815540">
        <ele>629.7</ele>
        <time>2021-10-05T09:44:07Z</time>
      </trkpt>
      <trkpt lat="42.7811900" lon="-7.4816580">
        <ele>629.6</ele>
        <time>2021-10-05T09:44:09Z</time>
      </trkpt>
      <trkpt lat="42.7810520" lon="-7.4820490">
        <ele>629.4</ele>
        <time>2021-10-05T09:44:16Z</time>
      </trkpt>
      <trkpt lat="42.7807980" lon="-7.4827500">
        <ele>628.6</ele>
        <time>2021-10-05T09:44:28Z</time>
      </trkpt>
      <trkpt lat="42.7805540" lon="-7.4831560">
        <ele>628.2</ele>
        <time>2021-10-05T09:44:39Z</time>
      </trkpt>
      <trkpt lat="42.7805720" lon="-7.4832150">
        <ele>628.2</ele>
        <time>2021-10-05T09:44:42Z</time>
      </trkpt>
      <trkpt lat="42.7807300" lon="-7.4833660">
        <ele>628.4</ele>
        <time>2021-10-05T09:44:49Z</time>
      </trkpt>
      <trkpt lat="42.7808680" lon="-7.4835070">
        <ele>628.5</ele>
        <time>2021-10-05T09:44:54Z</time>
      </trkpt>
      <trkpt lat="42.7809950" lon="-7.4836700">
        <ele>628.6</ele>
        <time>2021-10-05T09:44:58Z</time>
      </trkpt>
      <trkpt lat="42.7811020" lon="-7.4838590">
        <ele>628.7</ele>
        <time>2021-10-05T09:45:02Z</time>
      </trkpt>
      <trkpt lat="42.7811890" lon="-7.4840800">
        <ele>628.7</ele>
        <time>2021-10-05T09:45:06Z</time>
      </trkpt>
      <trkpt lat="42.7812080" lon="-7.4843700">
        <ele>628.8</ele>
        <time>2021-10-05T09:45:10Z</time>
      </trkpt>
      <trkpt lat="42.7811290" lon="-7.4851590">
        <ele>629.1</ele>
        <time>2021-10-05T09:45:21Z</time>
      </trkpt>
      <trkpt lat="42.7810270" lon="-7.4859250">
        <ele>629.2</ele>
        <time>2021-10-05T09:45:32Z</time>
      </trkpt>
      <trkpt lat="42.7810260" lon="-7.4866970">
        <ele>629.5</ele>
        <time>2021-10-05T09:45:43Z</time>
      </trkpt>
      <trkpt lat="42.7810440" lon="-7.4874910">
        <ele>629.8</ele>
        <time>2021-10-05T09:45:55Z</time>
      </trkpt>
      <trkpt lat="42.7811460" lon="-7.4880280">
        <ele>629.8</ele>
        <time>2021-10-05T09:46:03Z</time>
      </trkpt>
      <trkpt lat="42.7811600" lon="-7.4887880">
        <ele>630.2</ele>
        <time>2021-10-05T09:46:14Z</time>
      </trkpt>
      <trkpt lat="42.7811310" lon="-7.4893250">
        <ele>630.8</ele>
        <time>2021-10-05T09:46:22Z</time>
      </trkpt>
      <trkpt lat="42.7811110" lon="-7.4896490">
        <ele>631.6</ele>
        <time>2021-10-05T09:46:28Z</time>
      </trkpt>
      <trkpt lat="42.7811050" lon="-7.4897550">
        <ele>631.8</ele>
        <time>2021-10-05T09:46:30Z</time>
      </trkpt>
      <trkpt lat="42.7810890" lon="-7.4901150">
        <ele>632.3</ele>
        <time>2021-10-05T09:46:36Z</time>
      </trkpt>
      <trkpt lat="42.7810930" lon="-7.4903510">
        <ele>632.6</ele>
        <time>2021-10-05T09:46:40Z</time>
      </trkpt>
      <trkpt lat="42.7810890" lon="-7.4907840">
        <ele>633.2</ele>
        <time>2021-10-05T09:46:48Z</time>
      </trkpt>
      <trkpt lat="42.7810710" lon="-7.4909030">
        <ele>633.3</ele>
        <time>2021-10-05T09:46:51Z</time>
      </trkpt>
      <trkpt lat="42.7810660" lon="-7.4909410">
        <ele>633.4</ele>
        <time>2021-10-05T09:46:52Z</time>
      </trkpt>
      <trkpt lat="42.7810620" lon="-7.4910900">
        <ele>633.5</ele>
        <time>2021-10-05T09:46:55Z</time>
      </trkpt>
      <trkpt lat="42.7810270" lon="-7.4913210">
        <ele>633.8</ele>
        <time>2021-10-05T09:46:59Z</time>
      </trkpt>
      <trkpt lat="42.7809600" lon="-7.4916030">
        <ele>634.1</ele>
        <time>2021-10-05T09:47:04Z</time>
      </trkpt>
      <trkpt lat="42.7808290" lon="-7.4920610">
        <ele>634.8</ele>
        <time>2021-10-05T09:47:13Z</time>
      </trkpt>
      <trkpt lat="42.7808170" lon="-7.4921000">
        <ele>634.9</ele>
        <time>2021-10-05T09:47:14Z</time>
      </trkpt>
      <trkpt lat="42.7807900" lon="-7.4922620">
        <ele>635.1</ele>
        <time>2021-10-05T09:47:18Z</time>
      </trkpt>
      <trkpt lat="42.7807510" lon="-7.4923940">
        <ele>635.3</ele>
        <time>2021-10-05T09:47:21Z</time>
      </trkpt>
      <trkpt lat="42.7806810" lon="-7.4926590">
        <ele>635.6</ele>
        <time>2021-10-05T09:47:27Z</time>
      </trkpt>
      <trkpt lat="42.7806490" lon="-7.4927830">
        <ele>635.6</ele>
        <time>2021-10-05T09:47:30Z</time>
      </trkpt>
      <trkpt lat="42.7806310" lon="-7.4929210">
        <ele>635.4</ele>
        <time>2021-10-05T09:47:33Z</time>
      </trkpt>
      <trkpt lat="42.7806080" lon="-7.4931370">
        <ele>635.0</ele>
        <time>2021-10-05T09:47:38Z</time>
      </trkpt>
      <trkpt lat="42.7805880" lon="-7.4932660">
        <ele>634.7</ele>
        <time>2021-10-05T09:47:41Z</time>
      </trkpt>
      <trkpt lat="42.7805800" lon="-7.4933120">
        <ele>634.6</ele>
        <time>2021-10-05T09:47:42Z</time>
      </trkpt>
      <trkpt lat="42.7805720" lon="-7.4933590">
        <ele>634.6</ele>
        <time>2021-10-05T09:47:43Z</time>
      </trkpt>
      <trkpt lat="42.7805070" lon="-7.4935470">
        <ele>634.3</ele>
        <time>2021-10-05T09:47:47Z</time>
      </trkpt>
      <trkpt lat="42.7804480" lon="-7.4936370">
        <ele>634.1</ele>
        <time>2021-10-05T09:47:49Z</time>
      </trkpt>
      <trkpt lat="42.7803960" lon="-7.4937400">
        <ele>633.9</ele>
        <time>2021-10-05T09:47:51Z</time>
      </trkpt>
      <trkpt lat="42.7802770" lon="-7.4940600">
        <ele>633.1</ele>
        <time>2021-10-05T09:47:57Z</time>
      </trkpt>
      <trkpt lat="42.7802640" lon="-7.4943970">
        <ele>632.2</ele>
        <time>2021-10-05T09:48:02Z</time>
      </trkpt>
      <trkpt lat="42.7802840" lon="-7.4944950">
        <ele>632.1</ele>
        <time>2021-10-05T09:48:04Z</time>
      </trkpt>
      <trkpt lat="42.7803010" lon="-7.4945240">
        <ele>632.0</ele>
        <time>2021-10-05T09:48:05Z</time>
      </trkpt>
      <trkpt lat="42.7803550" lon="-7.4945470">
        <ele>631.9</ele>
        <time>2021-10-05T09:48:07Z</time>
      </trkpt>
      <trkpt lat="42.7804220" lon="-7.4945800">
        <ele>631.8</ele>
        <time>2021-10-05T09:48:09Z</time>
      </trkpt>
      <trkpt lat="42.7804560" lon="-7.4946020">
        <ele>631.7</ele>
        <time>2021-10-05T09:48:10Z</time>
      </trkpt>
      <trkpt lat="42.7805240" lon="-7.4946520">
        <ele>631.6</ele>
        <time>2021-10-05T09:48:12Z</time>
      </trkpt>
      <trkpt lat="42.7807320" lon="-7.4949960">
        <ele>631.6</ele>
        <time>2021-10-05T09:48:23Z</time>
      </trkpt>
      <trkpt lat="42.7808430" lon="-7.4952060">
        <ele>631.7</ele>
        <time>2021-10-05T09:48:29Z</time>
      </trkpt>
      <trkpt lat="42.7809480" lon="-7.4954100">
        <ele>632.1</ele>
        <time>2021-10-05T09:48:34Z</time>
      </trkpt>
      <trkpt lat="42.7810090" lon="-7.4956270">
        <ele>632.9</ele>
        <time>2021-10-05T09:48:42Z</time>
      </trkpt>
      <trkpt lat="42.7809550" lon="-7.4957160">
        <ele>633.4</ele>
        <time>2021-10-05T09:48:46Z</time>
      </trkpt>
      <trkpt lat="42.7809150" lon="-7.4957610">
        <ele>633.7</ele>
        <time>2021-10-05T09:48:48Z</time>
      </trkpt>
      <trkpt lat="42.7808220" lon="-7.4958670">
        <ele>634.2</ele>
        <time>2021-10-05T09:48:51Z</time>
      </trkpt>
      <trkpt lat="42.7806880" lon="-7.4959420">
        <ele>634.7</ele>
        <time>2021-10-05T09:48:55Z</time>
      </trkpt>
      <trkpt lat="42.7804160" lon="-7.4959350">
        <ele>635.4</ele>
        <time>2021-10-05T09:49:04Z</time>
      </trkpt>
      <trkpt lat="42.7801060" lon="-7.4958530">
        <ele>636.5</ele>
        <time>2021-10-05T09:49:15Z</time>
      </trkpt>
      <trkpt lat="42.7799280" lon="-7.4958810">
        <ele>637.7</ele>
        <time>2021-10-05T09:49:23Z</time>
      </trkpt>
      <trkpt lat="42.7799000" lon="-7.4959000">
        <ele>638.0</ele>
        <time>2021-10-05T09:49:24Z</time>
      </trkpt>
      <trkpt lat="42.7798270" lon="-7.4959570">
        <ele>638.6</ele>
        <time>2021-10-05T09:49:27Z</time>
      </trkpt>
      <trkpt lat="42.7797160" lon="-7.4960400">
        <ele>639.4</ele>
        <time>2021-10-05T09:49:31Z</time>
      </trkpt>
      <trkpt lat="42.7796140" lon="-7.4962650">
        <ele>640.5</ele>
        <time>2021-10-05T09:49:39Z</time>
      </trkpt>
      <trkpt lat="42.7795960" lon="-7.4964280">
        <ele>641.0</ele>
        <time>2021-10-05T09:49:44Z</time>
      </trkpt>
      <trkpt lat="42.7795830" lon="-7.4967030">
        <ele>641.3</ele>
        <time>2021-10-05T09:49:51Z</time>
      </trkpt>
      <trkpt lat="42.7795490" lon="-7.4968170">
        <ele>641.1</ele>
        <time>2021-10-05T09:49:53Z</time>
      </trkpt>
      <trkpt lat="42.7795070" lon="-7.4969590">
        <ele>640.9</ele>
        <time>2021-10-05T09:49:55Z</time>
      </trkpt>
      <trkpt lat="42.7794810" lon="-7.4971050">
        <ele>640.7</ele>
        <time>2021-10-05T09:49:57Z</time>
      </trkpt>
      <trkpt lat="42.7794420" lon="-7.4973870">
        <ele>640.2</ele>
        <time>2021-10-05T09:50:01Z</time>
      </trkpt>
      <trkpt lat="42.7794160" lon="-7.4975560">
        <ele>639.9</ele>
        <time>2021-10-05T09:50:04Z</time>
      </trkpt>
      <trkpt lat="42.7794040" lon="-7.4976380">
        <ele>639.8</ele>
        <time>2021-10-05T09:50:06Z</time>
      </trkpt>
      <trkpt lat="42.7793840" lon="-7.4977840">
        <ele>639.6</ele>
        <time>2021-10-05T09:50:09Z</time>
      </trkpt>
      <trkpt lat="42.7793480" lon="-7.4980870">
        <ele>639.0</ele>
        <time>2021-10-05T09:50:14Z</time>
      </trkpt>
      <trkpt lat="42.7793370" lon="-7.4981470">
        <ele>638.9</ele>
        <time>2021-10-05T09:50:15Z</time>
      </trkpt>
      <trkpt lat="42.7793120" lon="-7.4982610">
        <ele>638.7</ele>
        <time>2021-10-05T09:50:17Z</time>
      </trkpt>
      <trkpt lat="42.7792890" lon="-7.4983630">
        <ele>638.5</ele>
        <time>2021-10-05T09:50:19Z</time>
      </trkpt>
      <trkpt lat="42.7792390" lon="-7.4985640">
        <ele>638.0</ele>
        <time>2021-10-05T09:50:23Z</time>
      </trkpt>
      <trkpt lat="42.7791140" lon="-7.4990430">
        <ele>636.6</ele>
        <time>2021-10-05T09:50:31Z</time>
      </trkpt>
      <trkpt lat="42.7790800" lon="-7.4991560">
        <ele>636.3</ele>
        <time>2021-10-05T09:50:33Z</time>
      </trkpt>
      <trkpt lat="42.7790230" lon="-7.4992900">
        <ele>636.0</ele>
        <time>2021-10-05T09:50:36Z</time>
      </trkpt>
      <trkpt lat="42.7789220" lon="-7.4993910">
        <ele>635.7</ele>
        <time>2021-10-05T09:50:39Z</time>
      </trkpt>
      <trkpt lat="42.7788930" lon="-7.4994200">
        <ele>635.6</ele>
        <time>2021-10-05T09:50:40Z</time>
      </trkpt>
      <trkpt lat="42.7788400" lon="-7.4994570">
        <ele>635.4</ele>
        <time>2021-10-05T09:50:42Z</time>
      </trkpt>
      <trkpt lat="42.7787310" lon="-7.4995300">
        <ele>635.0</ele>
        <time>2021-10-05T09:50:46Z</time>
      </trkpt>
      <trkpt lat="42.7786250" lon="-7.4996660">
        <ele>634.6</ele>
        <time>2021-10-05T09:50:51Z</time>
      </trkpt>
      <trkpt lat="42.7785660" lon="-7.4997220">
        <ele>634.5</ele>
        <time>2021-10-05T09:50:53Z</time>
      </trkpt>
      <trkpt lat="42.7785330" lon="-7.4997540">
        <ele>634.5</ele>
        <time>2021-10-05T09:50:54Z</time>
      </trkpt>
      <trkpt lat="42.7784980" lon="-7.4997890">
        <ele>634.5</ele>
        <time>2021-10-05T09:50:55Z</time>
      </trkpt>
      <trkpt lat="42.7784620" lon="-7.4998250">
        <ele>634.5</ele>
        <time>2021-10-05T09:50:56Z</time>
      </trkpt>
      <trkpt lat="42.7783940" lon="-7.4999070">
        <ele>634.5</ele>
        <time>2021-10-05T09:50:58Z</time>
      </trkpt>
      <trkpt lat="42.7783270" lon="-7.4999770">
        <ele>634.6</ele>
        <time>2021-10-05T09:51:00Z</time>
      </trkpt>
      <trkpt lat="42.7782630" lon="-7.5000270">
        <ele>634.8</ele>
        <time>2021-10-05T09:51:02Z</time>
      </trkpt>
      <trkpt lat="42.7780110" lon="-7.5003090">
        <ele>635.5</ele>
        <time>2021-10-05T09:51:11Z</time>
      </trkpt>
      <trkpt lat="42.7779690" lon="-7.5003910">
        <ele>635.4</ele>
        <time>2021-10-05T09:51:14Z</time>
      </trkpt>
      <trkpt lat="42.7779200" lon="-7.5005280">
        <ele>635.4</ele>
        <time>2021-10-05T09:51:17Z</time>
      </trkpt>
      <trkpt lat="42.7779100" lon="-7.5005850">
        <ele>635.3</ele>
        <time>2021-10-05T09:51:18Z</time>
      </trkpt>
      <trkpt lat="42.7779080" lon="-7.5007440">
        <ele>635.5</ele>
        <time>2021-10-05T09:51:21Z</time>
      </trkpt>
      <trkpt lat="42.7779030" lon="-7.5008830">
        <ele>635.8</ele>
        <time>2021-10-05T09:51:24Z</time>
      </trkpt>
      <trkpt lat="42.7778130" lon="-7.5012240">
        <ele>637.1</ele>
        <time>2021-10-05T09:51:32Z</time>
      </trkpt>
      <trkpt lat="42.7777490" lon="-7.5014300">
        <ele>637.7</ele>
        <time>2021-10-05T09:51:38Z</time>
      </trkpt>
      <trkpt lat="42.7776680" lon="-7.5016640">
        <ele>638.1</ele>
        <time>2021-10-05T09:51:45Z</time>
      </trkpt>
      <trkpt lat="42.7775010" lon="-7.5022860">
        <ele>639.2</ele>
        <time>2021-10-05T09:52:01Z</time>
      </trkpt>
      <trkpt lat="42.7774770" lon="-7.5024230">
        <ele>639.8</ele>
        <time>2021-10-05T09:52:04Z</time>
      </trkpt>
      <trkpt lat="42.7774590" lon="-7.5024980">
        <ele>640.3</ele>
        <time>2021-10-05T09:52:06Z</time>
      </trkpt>
      <trkpt lat="42.7774390" lon="-7.5025760">
        <ele>640.8</ele>
        <time>2021-10-05T09:52:08Z</time>
      </trkpt>
      <trkpt lat="42.7774260" lon="-7.5026200">
        <ele>641.0</ele>
        <time>2021-10-05T09:52:09Z</time>
      </trkpt>
      <trkpt lat="42.7773800" lon="-7.5028290">
        <ele>641.9</ele>
        <time>2021-10-05T09:52:13Z</time>
      </trkpt>
      <trkpt lat="42.7773790" lon="-7.5028810">
        <ele>642.1</ele>
        <time>2021-10-05T09:52:14Z</time>
      </trkpt>
      <trkpt lat="42.7773890" lon="-7.5031210">
        <ele>643.1</ele>
        <time>2021-10-05T09:52:19Z</time>
      </trkpt>
      <trkpt lat="42.7773920" lon="-7.5033740">
        <ele>644.1</ele>
        <time>2021-10-05T09:52:25Z</time>
      </trkpt>
      <trkpt lat="42.7775540" lon="-7.5038300">
        <ele>644.7</ele>
        <time>2021-10-05T09:52:37Z</time>
      </trkpt>
      <trkpt lat="42.7775530" lon="-7.5040690">
        <ele>643.6</ele>
        <time>2021-10-05T09:52:41Z</time>
      </trkpt>
      <trkpt lat="42.7775540" lon="-7.5042490">
        <ele>642.5</ele>
        <time>2021-10-05T09:52:44Z</time>
      </trkpt>
      <trkpt lat="42.7775530" lon="-7.5043110">
        <ele>642.2</ele>
        <time>2021-10-05T09:52:45Z</time>
      </trkpt>
      <trkpt lat="42.7775540" lon="-7.5043710">
        <ele>641.9</ele>
        <time>2021-10-05T09:52:46Z</time>
      </trkpt>
      <trkpt lat="42.7775550" lon="-7.5044360">
        <ele>641.5</ele>
        <time>2021-10-05T09:52:47Z</time>
      </trkpt>
      <trkpt lat="42.7775510" lon="-7.5045040">
        <ele>641.2</ele>
        <time>2021-10-05T09:52:48Z</time>
      </trkpt>
      <trkpt lat="42.7774970" lon="-7.5047050">
        <ele>640.4</ele>
        <time>2021-10-05T09:52:51Z</time>
      </trkpt>
      <trkpt lat="42.7774020" lon="-7.5048850">
        <ele>639.8</ele>
        <time>2021-10-05T09:52:54Z</time>
      </trkpt>
      <trkpt lat="42.7773520" lon="-7.5049730">
        <ele>639.5</ele>
        <time>2021-10-05T09:52:56Z</time>
      </trkpt>
      <trkpt lat="42.7773350" lon="-7.5050050">
        <ele>639.4</ele>
        <time>2021-10-05T09:52:57Z</time>
      </trkpt>
      <trkpt lat="42.7772810" lon="-7.5051690">
        <ele>638.9</ele>
        <time>2021-10-05T09:53:02Z</time>
      </trkpt>
      <trkpt lat="42.7772500" lon="-7.5053350">
        <ele>638.6</ele>
        <time>2021-10-05T09:53:05Z</time>
      </trkpt>
      <trkpt lat="42.7772190" lon="-7.5055200">
        <ele>638.2</ele>
        <time>2021-10-05T09:53:08Z</time>
      </trkpt>
      <trkpt lat="42.7772080" lon="-7.5055880">
        <ele>638.1</ele>
        <time>2021-10-05T09:53:09Z</time>
      </trkpt>
      <trkpt lat="42.7771990" lon="-7.5056580">
        <ele>637.9</ele>
        <time>2021-10-05T09:53:10Z</time>
      </trkpt>
      <trkpt lat="42.7771920" lon="-7.5057290">
        <ele>637.7</ele>
        <time>2021-10-05T09:53:11Z</time>
      </trkpt>
      <trkpt lat="42.7771860" lon="-7.5057970">
        <ele>637.5</ele>
        <time>2021-10-05T09:53:12Z</time>
      </trkpt>
      <trkpt lat="42.7771840" lon="-7.5058640">
        <ele>637.4</ele>
        <time>2021-10-05T09:53:13Z</time>
      </trkpt>
      <trkpt lat="42.7771990" lon="-7.5060490">
        <ele>637.1</ele>
        <time>2021-10-05T09:53:16Z</time>
      </trkpt>
      <trkpt lat="42.7772160" lon="-7.5060980">
        <ele>636.9</ele>
        <time>2021-10-05T09:53:17Z</time>
      </trkpt>
      <trkpt lat="42.7772670" lon="-7.5061960">
        <ele>636.1</ele>
        <time>2021-10-05T09:53:19Z</time>
      </trkpt>
      <trkpt lat="42.7773300" lon="-7.5063110">
        <ele>635.0</ele>
        <time>2021-10-05T09:53:21Z</time>
      </trkpt>
      <trkpt lat="42.7774040" lon="-7.5064590">
        <ele>633.5</ele>
        <time>2021-10-05T09:53:24Z</time>
      </trkpt>
      <trkpt lat="42.7774470" lon="-7.5065360">
        <ele>632.7</ele>
        <time>2021-10-05T09:53:26Z</time>
      </trkpt>
      <trkpt lat="42.7774690" lon="-7.5065770">
        <ele>632.2</ele>
        <time>2021-10-05T09:53:27Z</time>
      </trkpt>
      <trkpt lat="42.7774930" lon="-7.5066220">
        <ele>631.7</ele>
        <time>2021-10-05T09:53:28Z</time>
      </trkpt>
      <trkpt lat="42.7775210" lon="-7.5066690">
        <ele>631.2</ele>
        <time>2021-10-05T09:53:29Z</time>
      </trkpt>
      <trkpt lat="42.7775540" lon="-7.5067230">
        <ele>630.7</ele>
        <time>2021-10-05T09:53:30Z</time>
      </trkpt>
      <trkpt lat="42.7776700" lon="-7.5068970">
        <ele>629.4</ele>
        <time>2021-10-05T09:53:33Z</time>
      </trkpt>
      <trkpt lat="42.7777490" lon="-7.5070190">
        <ele>628.8</ele>
        <time>2021-10-05T09:53:35Z</time>
      </trkpt>
      <trkpt lat="42.7778270" lon="-7.5071360">
        <ele>628.2</ele>
        <time>2021-10-05T09:53:37Z</time>
      </trkpt>
      <trkpt lat="42.7778990" lon="-7.5072530">
        <ele>627.4</ele>
        <time>2021-10-05T09:53:39Z</time>
      </trkpt>
      <trkpt lat="42.7780100" lon="-7.5074260">
        <ele>625.9</ele>
        <time>2021-10-05T09:53:42Z</time>
      </trkpt>
      <trkpt lat="42.7780830" lon="-7.5075450">
        <ele>625.0</ele>
        <time>2021-10-05T09:53:44Z</time>
      </trkpt>
      <trkpt lat="42.7781530" lon="-7.5076880">
        <ele>624.3</ele>
        <time>2021-10-05T09:53:47Z</time>
      </trkpt>
      <trkpt lat="42.7781880" lon="-7.5077630">
        <ele>624.0</ele>
        <time>2021-10-05T09:53:49Z</time>
      </trkpt>
      <trkpt lat="42.7782370" lon="-7.5078450">
        <ele>623.7</ele>
        <time>2021-10-05T09:53:51Z</time>
      </trkpt>
      <trkpt lat="42.7783200" lon="-7.5079770">
        <ele>622.6</ele>
        <time>2021-10-05T09:53:54Z</time>
      </trkpt>
      <trkpt lat="42.7783470" lon="-7.5080230">
        <ele>622.1</ele>
        <time>2021-10-05T09:53:55Z</time>
      </trkpt>
      <trkpt lat="42.7783810" lon="-7.5080660">
        <ele>621.5</ele>
        <time>2021-10-05T09:53:56Z</time>
      </trkpt>
      <trkpt lat="42.7784230" lon="-7.5081040">
        <ele>620.8</ele>
        <time>2021-10-05T09:53:57Z</time>
      </trkpt>
      <trkpt lat="42.7785780" lon="-7.5081710">
        <ele>618.4</ele>
        <time>2021-10-05T09:54:00Z</time>
      </trkpt>
      <trkpt lat="42.7786340" lon="-7.5081970">
        <ele>617.6</ele>
        <time>2021-10-05T09:54:01Z</time>
      </trkpt>
      <trkpt lat="42.7787300" lon="-7.5082780">
        <ele>616.3</ele>
        <time>2021-10-05T09:54:03Z</time>
      </trkpt>
      <trkpt lat="42.7787680" lon="-7.5083310">
        <ele>615.7</ele>
        <time>2021-10-05T09:54:04Z</time>
      </trkpt>
      <trkpt lat="42.7787960" lon="-7.5083800">
        <ele>615.2</ele>
        <time>2021-10-05T09:54:05Z</time>
      </trkpt>
      <trkpt lat="42.7788170" lon="-7.5084890">
        <ele>614.3</ele>
        <time>2021-10-05T09:54:07Z</time>
      </trkpt>
      <trkpt lat="42.7787820" lon="-7.5086110">
        <ele>613.6</ele>
        <time>2021-10-05T09:54:09Z</time>
      </trkpt>
      <trkpt lat="42.7787460" lon="-7.5087400">
        <ele>613.3</ele>
        <time>2021-10-05T09:54:11Z</time>
      </trkpt>
      <trkpt lat="42.7787350" lon="-7.5087960">
        <ele>613.3</ele>
        <time>2021-10-05T09:54:12Z</time>
      </trkpt>
      <trkpt lat="42.7787200" lon="-7.5088740">
        <ele>613.6</ele>
        <time>2021-10-05T09:54:14Z</time>
      </trkpt>
      <trkpt lat="42.7787080" lon="-7.5089380">
        <ele>613.9</ele>
        <time>2021-10-05T09:54:16Z</time>
      </trkpt>
      <trkpt lat="42.7786990" lon="-7.5089990">
        <ele>614.2</ele>
        <time>2021-10-05T09:54:18Z</time>
      </trkpt>
      <trkpt lat="42.7786540" lon="-7.5091260">
        <ele>615.3</ele>
        <time>2021-10-05T09:54:22Z</time>
      </trkpt>
      <trkpt lat="42.7786260" lon="-7.5091860">
        <ele>615.9</ele>
        <time>2021-10-05T09:54:24Z</time>
      </trkpt>
      <trkpt lat="42.7785970" lon="-7.5092420">
        <ele>616.6</ele>
        <time>2021-10-05T09:54:26Z</time>
      </trkpt>
      <trkpt lat="42.7785510" lon="-7.5093250">
        <ele>617.6</ele>
        <time>2021-10-05T09:54:29Z</time>
      </trkpt>
      <trkpt lat="42.7785200" lon="-7.5093770">
        <ele>618.4</ele>
        <time>2021-10-05T09:54:31Z</time>
      </trkpt>
      <trkpt lat="42.7784950" lon="-7.5094250">
        <ele>619.0</ele>
        <time>2021-10-05T09:54:33Z</time>
      </trkpt>
      <trkpt lat="42.7784750" lon="-7.5094740">
        <ele>619.6</ele>
        <time>2021-10-05T09:54:35Z</time>
      </trkpt>
      <trkpt lat="42.7784500" lon="-7.5095650">
        <ele>620.5</ele>
        <time>2021-10-05T09:54:38Z</time>
      </trkpt>
      <trkpt lat="42.7784330" lon="-7.5096320">
        <ele>621.2</ele>
        <time>2021-10-05T09:54:41Z</time>
      </trkpt>
      <trkpt lat="42.7784320" lon="-7.5097130">
        <ele>621.9</ele>
        <time>2021-10-05T09:54:45Z</time>
      </trkpt>
      <trkpt lat="42.7784380" lon="-7.5097520">
        <ele>622.2</ele>
        <time>2021-10-05T09:54:47Z</time>
      </trkpt>
      <trkpt lat="42.7784490" lon="-7.5098690">
        <ele>623.3</ele>
        <time>2021-10-05T09:54:52Z</time>
      </trkpt>
      <trkpt lat="42.7784660" lon="-7.5099420">
        <ele>624.0</ele>
        <time>2021-10-05T09:54:56Z</time>
      </trkpt>
      <trkpt lat="42.7784690" lon="-7.5099640">
        <ele>624.2</ele>
        <time>2021-10-05T09:54:57Z</time>
      </trkpt>
      <trkpt lat="42.7784900" lon="-7.5100500">
        <ele>625.0</ele>
        <time>2021-10-05T09:55:01Z</time>
      </trkpt>
      <trkpt lat="42.7785160" lon="-7.5101470">
        <ele>626.0</ele>
        <time>2021-10-05T09:55:05Z</time>
      </trkpt>
      <trkpt lat="42.7785390" lon="-7.5102290">
        <ele>626.8</ele>
        <time>2021-10-05T09:55:09Z</time>
      </trkpt>
      <trkpt lat="42.7785640" lon="-7.5103320">
        <ele>627.9</ele>
        <time>2021-10-05T09:55:14Z</time>
      </trkpt>
      <trkpt lat="42.7785960" lon="-7.5104620">
        <ele>629.2</ele>
        <time>2021-10-05T09:55:19Z</time>
      </trkpt>
      <trkpt lat="42.7786180" lon="-7.5105460">
        <ele>630.0</ele>
        <time>2021-10-05T09:55:22Z</time>
      </trkpt>
      <trkpt lat="42.7786520" lon="-7.5106620">
        <ele>631.2</ele>
        <time>2021-10-05T09:55:26Z</time>
      </trkpt>
      <trkpt lat="42.7786860" lon="-7.5108590">
        <ele>632.6</ele>
        <time>2021-10-05T09:55:31Z</time>
      </trkpt>
      <trkpt lat="42.7787220" lon="-7.5110560">
        <ele>633.8</ele>
        <time>2021-10-05T09:55:37Z</time>
      </trkpt>
      <trkpt lat="42.7787810" lon="-7.5112200">
        <ele>634.8</ele>
        <time>2021-10-05T09:55:43Z</time>
      </trkpt>
      <trkpt lat="42.7788030" lon="-7.5115550">
        <ele>636.0</ele>
        <time>2021-10-05T09:55:52Z</time>
      </trkpt>
      <trkpt lat="42.7788110" lon="-7.5118390">
        <ele>637.2</ele>
        <time>2021-10-05T09:56:01Z</time>
      </trkpt>
      <trkpt lat="42.7788080" lon="-7.5120040">
        <ele>638.0</ele>
        <time>2021-10-05T09:56:06Z</time>
      </trkpt>
      <trkpt lat="42.7787820" lon="-7.5122170">
        <ele>639.1</ele>
        <time>2021-10-05T09:56:12Z</time>
      </trkpt>
      <trkpt lat="42.7787750" lon="-7.5122480">
        <ele>639.2</ele>
        <time>2021-10-05T09:56:13Z</time>
      </trkpt>
      <trkpt lat="42.7787530" lon="-7.5124810">
        <ele>640.4</ele>
        <time>2021-10-05T09:56:20Z</time>
      </trkpt>
      <trkpt lat="42.7787670" lon="-7.5125520">
        <ele>640.8</ele>
        <time>2021-10-05T09:56:22Z</time>
      </trkpt>
      <trkpt lat="42.7787840" lon="-7.5126460">
        <ele>641.3</ele>
        <time>2021-10-05T09:56:25Z</time>
      </trkpt>
      <trkpt lat="42.7787940" lon="-7.5127490">
        <ele>641.9</ele>
        <time>2021-10-05T09:56:28Z</time>
      </trkpt>
      <trkpt lat="42.7788210" lon="-7.5129090">
        <ele>642.7</ele>
        <time>2021-10-05T09:56:33Z</time>
      </trkpt>
      <trkpt lat="42.7788820" lon="-7.5131630">
        <ele>644.0</ele>
        <time>2021-10-05T09:56:42Z</time>
      </trkpt>
      <trkpt lat="42.7789240" lon="-7.5132730">
        <ele>644.4</ele>
        <time>2021-10-05T09:56:46Z</time>
      </trkpt>
      <trkpt lat="42.7789580" lon="-7.5133570">
        <ele>644.8</ele>
        <time>2021-10-05T09:56:49Z</time>
      </trkpt>
      <trkpt lat="42.7790740" lon="-7.5137030">
        <ele>646.3</ele>
        <time>2021-10-05T09:57:01Z</time>
      </trkpt>
      <trkpt lat="42.7790340" lon="-7.5140490">
        <ele>647.5</ele>
        <time>2021-10-05T09:57:10Z</time>
      </trkpt>
      <trkpt lat="42.7790320" lon="-7.5144750">
        <ele>649.0</ele>
        <time>2021-10-05T09:57:21Z</time>
      </trkpt>
      <trkpt lat="42.7791010" lon="-7.5145770">
        <ele>650.0</ele>
        <time>2021-10-05T09:57:25Z</time>
      </trkpt>
      <trkpt lat="42.7791590" lon="-7.5146520">
        <ele>650.9</ele>
        <time>2021-10-05T09:57:29Z</time>
      </trkpt>
      <trkpt lat="42.7792130" lon="-7.5147270">
        <ele>652.0</ele>
        <time>2021-10-05T09:57:33Z</time>
      </trkpt>
      <trkpt lat="42.7792230" lon="-7.5147500">
        <ele>652.2</ele>
        <time>2021-10-05T09:57:34Z</time>
      </trkpt>
      <trkpt lat="42.7792310" lon="-7.5147730">
        <ele>652.5</ele>
        <time>2021-10-05T09:57:35Z</time>
      </trkpt>
      <trkpt lat="42.7792600" lon="-7.5148380">
        <ele>653.3</ele>
        <time>2021-10-05T09:57:38Z</time>
      </trkpt>
      <trkpt lat="42.7792740" lon="-7.5149420">
        <ele>654.2</ele>
        <time>2021-10-05T09:57:42Z</time>
      </trkpt>
      <trkpt lat="42.7792680" lon="-7.5150860">
        <ele>655.4</ele>
        <time>2021-10-05T09:57:47Z</time>
      </trkpt>
      <trkpt lat="42.7792840" lon="-7.5152270">
        <ele>657.1</ele>
        <time>2021-10-05T09:57:52Z</time>
      </trkpt>
      <trkpt lat="42.7793970" lon="-7.5153740">
        <ele>658.3</ele>
        <time>2021-10-05T09:57:59Z</time>
      </trkpt>
      <trkpt lat="42.7794830" lon="-7.5154910">
        <ele>659.1</ele>
        <time>2021-10-05T09:58:04Z</time>
      </trkpt>
      <trkpt lat="42.7795980" lon="-7.5156520">
        <ele>659.8</ele>
        <time>2021-10-05T09:58:10Z</time>
      </trkpt>
      <trkpt lat="42.7796640" lon="-7.5158300">
        <ele>659.9</ele>
        <time>2021-10-05T09:58:15Z</time>
      </trkpt>
      <trkpt lat="42.7796870" lon="-7.5159540">
        <ele>659.9</ele>
        <time>2021-10-05T09:58:18Z</time>
      </trkpt>
      <trkpt lat="42.7797010" lon="-7.5161070">
        <ele>659.7</ele>
        <time>2021-10-05T09:58:21Z</time>
      </trkpt>
      <trkpt lat="42.7797170" lon="-7.5162030">
        <ele>659.5</ele>
        <time>2021-10-05T09:58:23Z</time>
      </trkpt>
      <trkpt lat="42.7797290" lon="-7.5163000">
        <ele>659.3</ele>
        <time>2021-10-05T09:58:25Z</time>
      </trkpt>
      <trkpt lat="42.7797290" lon="-7.5165870">
        <ele>658.7</ele>
        <time>2021-10-05T09:58:30Z</time>
      </trkpt>
      <trkpt lat="42.7797510" lon="-7.5167660">
        <ele>658.4</ele>
        <time>2021-10-05T09:58:33Z</time>
      </trkpt>
      <trkpt lat="42.7797640" lon="-7.5168200">
        <ele>658.4</ele>
        <time>2021-10-05T09:58:34Z</time>
      </trkpt>
      <trkpt lat="42.7797930" lon="-7.5169200">
        <ele>658.3</ele>
        <time>2021-10-05T09:58:36Z</time>
      </trkpt>
      <trkpt lat="42.7798970" lon="-7.5171570">
        <ele>658.4</ele>
        <time>2021-10-05T09:58:42Z</time>
      </trkpt>
      <trkpt lat="42.7799670" lon="-7.5173440">
        <ele>658.7</ele>
        <time>2021-10-05T09:58:46Z</time>
      </trkpt>
      <trkpt lat="42.7800900" lon="-7.5176210">
        <ele>659.6</ele>
        <time>2021-10-05T09:58:52Z</time>
      </trkpt>
      <trkpt lat="42.7801360" lon="-7.5177270">
        <ele>660.1</ele>
        <time>2021-10-05T09:58:55Z</time>
      </trkpt>
      <trkpt lat="42.7801800" lon="-7.5178640">
        <ele>660.9</ele>
        <time>2021-10-05T09:58:59Z</time>
      </trkpt>
      <trkpt lat="42.7802020" lon="-7.5179760">
        <ele>661.5</ele>
        <time>2021-10-05T09:59:02Z</time>
      </trkpt>
      <trkpt lat="42.7802400" lon="-7.5181210">
        <ele>662.2</ele>
        <time>2021-10-05T09:59:06Z</time>
      </trkpt>
      <trkpt lat="42.7802720" lon="-7.5182780">
        <ele>663.1</ele>
        <time>2021-10-05T09:59:10Z</time>
      </trkpt>
      <trkpt lat="42.7802940" lon="-7.5184380">
        <ele>663.9</ele>
        <time>2021-10-05T09:59:14Z</time>
      </trkpt>
      <trkpt lat="42.7803720" lon="-7.5187950">
        <ele>665.3</ele>
        <time>2021-10-05T09:59:24Z</time>
      </trkpt>
      <trkpt lat="42.7804150" lon="-7.5189540">
        <ele>665.6</ele>
        <time>2021-10-05T09:59:28Z</time>
      </trkpt>
      <trkpt lat="42.7804340" lon="-7.5190320">
        <ele>665.6</ele>
        <time>2021-10-05T09:59:30Z</time>
      </trkpt>
      <trkpt lat="42.7804510" lon="-7.5191060">
        <ele>665.6</ele>
        <time>2021-10-05T09:59:32Z</time>
      </trkpt>
      <trkpt lat="42.7804900" lon="-7.5192160">
        <ele>665.3</ele>
        <time>2021-10-05T09:59:35Z</time>
      </trkpt>
      <trkpt lat="42.7805630" lon="-7.5193070">
        <ele>664.7</ele>
        <time>2021-10-05T09:59:38Z</time>
      </trkpt>
      <trkpt lat="42.7806320" lon="-7.5193820">
        <ele>663.9</ele>
        <time>2021-10-05T09:59:40Z</time>
      </trkpt>
      <trkpt lat="42.7807150" lon="-7.5194670">
        <ele>662.8</ele>
        <time>2021-10-05T09:59:42Z</time>
      </trkpt>
      <trkpt lat="42.7809320" lon="-7.5196490">
        <ele>661.3</ele>
        <time>2021-10-05T09:59:46Z</time>
      </trkpt>
      <trkpt lat="42.7809860" lon="-7.5197090">
        <ele>660.9</ele>
        <time>2021-10-05T09:59:47Z</time>
      </trkpt>
      <trkpt lat="42.7810870" lon="-7.5198250">
        <ele>660.2</ele>
        <time>2021-10-05T09:59:49Z</time>
      </trkpt>
      <trkpt lat="42.7811780" lon="-7.5199370">
        <ele>659.6</ele>
        <time>2021-10-05T09:59:51Z</time>
      </trkpt>
      <trkpt lat="42.7812160" lon="-7.5199980">
        <ele>659.2</ele>
        <time>2021-10-05T09:59:52Z</time>
      </trkpt>
      <trkpt lat="42.7812480" lon="-7.5200660">
        <ele>658.8</ele>
        <time>2021-10-05T09:59:53Z</time>
      </trkpt>
      <trkpt lat="42.7813010" lon="-7.5202200">
        <ele>657.9</ele>
        <time>2021-10-05T09:59:55Z</time>
      </trkpt>
      <trkpt lat="42.7813930" lon="-7.5204630">
        <ele>656.9</ele>
        <time>2021-10-05T09:59:58Z</time>
      </trkpt>
      <trkpt lat="42.7814610" lon="-7.5206180">
        <ele>656.5</ele>
        <time>2021-10-05T10:00:00Z</time>
      </trkpt>
      <trkpt lat="42.7815070" lon="-7.5206820">
        <ele>656.3</ele>
        <time>2021-10-05T10:00:01Z</time>
      </trkpt>
      <trkpt lat="42.7816870" lon="-7.5207140">
        <ele>655.8</ele>
        <time>2021-10-05T10:00:04Z</time>
      </trkpt>
      <trkpt lat="42.7819100" lon="-7.5207310">
        <ele>655.3</ele>
        <time>2021-10-05T10:00:08Z</time>
      </trkpt>
      <trkpt lat="42.7819940" lon="-7.5208150">
        <ele>655.0</ele>
        <time>2021-10-05T10:00:10Z</time>
      </trkpt>
      <trkpt lat="42.7820550" lon="-7.5209240">
        <ele>654.7</ele>
        <time>2021-10-05T10:00:12Z</time>
      </trkpt>
      <trkpt lat="42.7821130" lon="-7.5210380">
        <ele>654.2</ele>
        <time>2021-10-05T10:00:14Z</time>
      </trkpt>
      <trkpt lat="42.7824620" lon="-7.5211290">
        <ele>652.1</ele>
        <time>2021-10-05T10:00:23Z</time>
      </trkpt>
      <trkpt lat="42.7825820" lon="-7.5210810">
        <ele>651.4</ele>
        <time>2021-10-05T10:00:26Z</time>
      </trkpt>
      <trkpt lat="42.7826150" lon="-7.5210780">
        <ele>651.3</ele>
        <time>2021-10-05T10:00:27Z</time>
      </trkpt>
      <trkpt lat="42.7826460" lon="-7.5210780">
        <ele>651.3</ele>
        <time>2021-10-05T10:00:28Z</time>
      </trkpt>
      <trkpt lat="42.7827300" lon="-7.5210640">
        <ele>651.1</ele>
        <time>2021-10-05T10:00:31Z</time>
      </trkpt>
      <trkpt lat="42.7827570" lon="-7.5210590">
        <ele>651.1</ele>
        <time>2021-10-05T10:00:32Z</time>
      </trkpt>
      <trkpt lat="42.7828070" lon="-7.5210520">
        <ele>651.0</ele>
        <time>2021-10-05T10:00:34Z</time>
      </trkpt>
      <trkpt lat="42.7828330" lon="-7.5210550">
        <ele>651.0</ele>
        <time>2021-10-05T10:00:35Z</time>
      </trkpt>
      <trkpt lat="42.7829450" lon="-7.5211390">
        <ele>650.9</ele>
        <time>2021-10-05T10:00:40Z</time>
      </trkpt>
      <trkpt lat="42.7830340" lon="-7.5211980">
        <ele>650.9</ele>
        <time>2021-10-05T10:00:43Z</time>
      </trkpt>
      <trkpt lat="42.7831910" lon="-7.5211830">
        <ele>650.5</ele>
        <time>2021-10-05T10:00:48Z</time>
      </trkpt>
      <trkpt lat="42.7834340" lon="-7.5212710">
        <ele>648.0</ele>
        <time>2021-10-05T10:00:56Z</time>
      </trkpt>
      <trkpt lat="42.7835080" lon="-7.5213150">
        <ele>647.0</ele>
        <time>2021-10-05T10:00:59Z</time>
      </trkpt>
      <trkpt lat="42.7836370" lon="-7.5212950">
        <ele>645.4</ele>
        <time>2021-10-05T10:01:03Z</time>
      </trkpt>
      <trkpt lat="42.7836740" lon="-7.5212740">
        <ele>645.0</ele>
        <time>2021-10-05T10:01:04Z</time>
      </trkpt>
      <trkpt lat="42.7837480" lon="-7.5212150">
        <ele>644.4</ele>
        <time>2021-10-05T10:01:06Z</time>
      </trkpt>
      <trkpt lat="42.7838410" lon="-7.5211230">
        <ele>643.7</ele>
        <time>2021-10-05T10:01:09Z</time>
      </trkpt>
      <trkpt lat="42.7838870" lon="-7.5210660">
        <ele>643.5</ele>
        <time>2021-10-05T10:01:11Z</time>
      </trkpt>
      <trkpt lat="42.7839220" lon="-7.5210360">
        <ele>643.3</ele>
        <time>2021-10-05T10:01:12Z</time>
      </trkpt>
      <trkpt lat="42.7839570" lon="-7.5210110">
        <ele>643.1</ele>
        <time>2021-10-05T10:01:13Z</time>
      </trkpt>
      <trkpt lat="42.7841140" lon="-7.5210510">
        <ele>642.8</ele>
        <time>2021-10-05T10:01:17Z</time>
      </trkpt>
      <trkpt lat="42.7841860" lon="-7.5210870">
        <ele>642.8</ele>
        <time>2021-10-05T10:01:19Z</time>
      </trkpt>
      <trkpt lat="42.7842150" lon="-7.5211080">
        <ele>642.9</ele>
        <time>2021-10-05T10:01:20Z</time>
      </trkpt>
      <trkpt lat="42.7842700" lon="-7.5211430">
        <ele>643.2</ele>
        <time>2021-10-05T10:01:22Z</time>
      </trkpt>
      <trkpt lat="42.7843230" lon="-7.5211690">
        <ele>643.6</ele>
        <time>2021-10-05T10:01:24Z</time>
      </trkpt>
      <trkpt lat="42.7843660" lon="-7.5211900">
        <ele>644.0</ele>
        <time>2021-10-05T10:01:26Z</time>
      </trkpt>
      <trkpt lat="42.7844480" lon="-7.5212290">
        <ele>645.0</ele>
        <time>2021-10-05T10:01:30Z</time>
      </trkpt>
      <trkpt lat="42.7845100" lon="-7.5212680">
        <ele>645.7</ele>
        <time>2021-10-05T10:01:33Z</time>
      </trkpt>
      <trkpt lat="42.7845530" lon="-7.5212920">
        <ele>646.3</ele>
        <time>2021-10-05T10:01:35Z</time>
      </trkpt>
      <trkpt lat="42.7846380" lon="-7.5213230">
        <ele>647.2</ele>
        <time>2021-10-05T10:01:39Z</time>
      </trkpt>
      <trkpt lat="42.7846820" lon="-7.5213370">
        <ele>647.7</ele>
        <time>2021-10-05T10:01:41Z</time>
      </trkpt>
      <trkpt lat="42.7847350" lon="-7.5213660">
        <ele>648.2</ele>
        <time>2021-10-05T10:01:43Z</time>
      </trkpt>
      <trkpt lat="42.7847590" lon="-7.5213790">
        <ele>648.4</ele>
        <time>2021-10-05T10:01:44Z</time>
      </trkpt>
      <trkpt lat="42.7848500" lon="-7.5214460">
        <ele>649.1</ele>
        <time>2021-10-05T10:01:48Z</time>
      </trkpt>
      <trkpt lat="42.7849110" lon="-7.5214930">
        <ele>649.5</ele>
        <time>2021-10-05T10:01:51Z</time>
      </trkpt>
      <trkpt lat="42.7849420" lon="-7.5215370">
        <ele>649.7</ele>
        <time>2021-10-05T10:01:53Z</time>
      </trkpt>
      <trkpt lat="42.7849800" lon="-7.5215700">
        <ele>649.9</ele>
        <time>2021-10-05T10:01:55Z</time>
      </trkpt>
      <trkpt lat="42.7850750" lon="-7.5216780">
        <ele>650.4</ele>
        <time>2021-10-05T10:02:01Z</time>
      </trkpt>
      <trkpt lat="42.7850990" lon="-7.5217170">
        <ele>650.6</ele>
        <time>2021-10-05T10:02:03Z</time>
      </trkpt>
      <trkpt lat="42.7852290" lon="-7.5219590">
        <ele>651.6</ele>
        <time>2021-10-05T10:02:13Z</time>
      </trkpt>
      <trkpt lat="42.7852920" lon="-7.5222100">
        <ele>653.0</ele>
        <time>2021-10-05T10:02:23Z</time>
      </trkpt>
      <trkpt lat="42.7852960" lon="-7.5223140">
        <ele>653.7</ele>
        <time>2021-10-05T10:02:27Z</time>
      </trkpt>
      <trkpt lat="42.7852980" lon="-7.5223900">
        <ele>654.3</ele>
        <time>2021-10-05T10:02:30Z</time>
      </trkpt>
      <trkpt lat="42.7852450" lon="-7.5225860">
        <ele>655.9</ele>
        <time>2021-10-05T10:02:36Z</time>
      </trkpt>
      <trkpt lat="42.7852120" lon="-7.5227040">
        <ele>656.7</ele>
        <time>2021-10-05T10:02:39Z</time>
      </trkpt>
      <trkpt lat="42.7851740" lon="-7.5228360">
        <ele>657.4</ele>
        <time>2021-10-05T10:02:43Z</time>
      </trkpt>
      <trkpt lat="42.7851230" lon="-7.5229610">
        <ele>658.0</ele>
        <time>2021-10-05T10:02:48Z</time>
      </trkpt>
      <trkpt lat="42.7851010" lon="-7.5230120">
        <ele>658.2</ele>
        <time>2021-10-05T10:02:51Z</time>
      </trkpt>
      <trkpt lat="42.7850760" lon="-7.5230690">
        <ele>658.5</ele>
        <time>2021-10-05T10:02:54Z</time>
      </trkpt>
      <trkpt lat="42.7850530" lon="-7.5231390">
        <ele>658.7</ele>
        <time>2021-10-05T10:02:58Z</time>
      </trkpt>
      <trkpt lat="42.7849320" lon="-7.5234470">
        <ele>659.8</ele>
        <time>2021-10-05T10:03:08Z</time>
      </trkpt>
      <trkpt lat="42.7848520" lon="-7.5236160">
        <ele>660.5</ele>
        <time>2021-10-05T10:03:12Z</time>
      </trkpt>
      <trkpt lat="42.7847260" lon="-7.5238460">
        <ele>661.5</ele>
        <time>2021-10-05T10:03:19Z</time>
      </trkpt>
      <trkpt lat="42.7846530" lon="-7.5240510">
        <ele>662.3</ele>
        <time>2021-10-05T10:03:26Z</time>
      </trkpt>
      <trkpt lat="42.7846350" lon="-7.5241020">
        <ele>662.5</ele>
        <time>2021-10-05T10:03:28Z</time>
      </trkpt>
      <trkpt lat="42.7846060" lon="-7.5241850">
        <ele>662.7</ele>
        <time>2021-10-05T10:03:31Z</time>
      </trkpt>
      <trkpt lat="42.7845710" lon="-7.5242960">
        <ele>662.9</ele>
        <time>2021-10-05T10:03:34Z</time>
      </trkpt>
      <trkpt lat="42.7845350" lon="-7.5243920">
        <ele>663.0</ele>
        <time>2021-10-05T10:03:37Z</time>
      </trkpt>
      <trkpt lat="42.7845060" lon="-7.5244760">
        <ele>663.0</ele>
        <time>2021-10-05T10:03:40Z</time>
      </trkpt>
      <trkpt lat="42.7843300" lon="-7.5250580">
        <ele>662.4</ele>
        <time>2021-10-05T10:03:52Z</time>
      </trkpt>
      <trkpt lat="42.7841950" lon="-7.5253800">
        <ele>661.7</ele>
        <time>2021-10-05T10:03:59Z</time>
      </trkpt>
      <trkpt lat="42.7841750" lon="-7.5254180">
        <ele>661.6</ele>
        <time>2021-10-05T10:04:00Z</time>
      </trkpt>
      <trkpt lat="42.7841370" lon="-7.5254970">
        <ele>661.4</ele>
        <time>2021-10-05T10:04:02Z</time>
      </trkpt>
      <trkpt lat="42.7840800" lon="-7.5256410">
        <ele>660.7</ele>
        <time>2021-10-05T10:04:05Z</time>
      </trkpt>
      <trkpt lat="42.7840670" lon="-7.5257040">
        <ele>660.4</ele>
        <time>2021-10-05T10:04:06Z</time>
      </trkpt>
      <trkpt lat="42.7840960" lon="-7.5260690">
        <ele>659.0</ele>
        <time>2021-10-05T10:04:11Z</time>
      </trkpt>
      <trkpt lat="42.7841030" lon="-7.5262830">
        <ele>658.4</ele>
        <time>2021-10-05T10:04:14Z</time>
      </trkpt>
      <trkpt lat="42.7840820" lon="-7.5264240">
        <ele>658.1</ele>
        <time>2021-10-05T10:04:16Z</time>
      </trkpt>
      <trkpt lat="42.7840630" lon="-7.5264930">
        <ele>657.9</ele>
        <time>2021-10-05T10:04:17Z</time>
      </trkpt>
      <trkpt lat="42.7839890" lon="-7.5266810">
        <ele>657.6</ele>
        <time>2021-10-05T10:04:20Z</time>
      </trkpt>
      <trkpt lat="42.7839110" lon="-7.5268470">
        <ele>657.4</ele>
        <time>2021-10-05T10:04:23Z</time>
      </trkpt>
      <trkpt lat="42.7838850" lon="-7.5269010">
        <ele>657.4</ele>
        <time>2021-10-05T10:04:24Z</time>
      </trkpt>
      <trkpt lat="42.7838340" lon="-7.5270090">
        <ele>657.3</ele>
        <time>2021-10-05T10:04:26Z</time>
      </trkpt>
      <trkpt lat="42.7837700" lon="-7.5271650">
        <ele>657.1</ele>
        <time>2021-10-05T10:04:29Z</time>
      </trkpt>
      <trkpt lat="42.7837340" lon="-7.5272610">
        <ele>657.0</ele>
        <time>2021-10-05T10:04:31Z</time>
      </trkpt>
      <trkpt lat="42.7837180" lon="-7.5273120">
        <ele>657.0</ele>
        <time>2021-10-05T10:04:32Z</time>
      </trkpt>
      <trkpt lat="42.7836750" lon="-7.5275200">
        <ele>656.8</ele>
        <time>2021-10-05T10:04:36Z</time>
      </trkpt>
      <trkpt lat="42.7836670" lon="-7.5277250">
        <ele>656.8</ele>
        <time>2021-10-05T10:04:41Z</time>
      </trkpt>
      <trkpt lat="42.7836830" lon="-7.5279810">
        <ele>656.6</ele>
        <time>2021-10-05T10:04:48Z</time>
      </trkpt>
      <trkpt lat="42.7837490" lon="-7.5282260">
        <ele>656.4</ele>
        <time>2021-10-05T10:04:54Z</time>
      </trkpt>
      <trkpt lat="42.7837700" lon="-7.5283080">
        <ele>656.3</ele>
        <time>2021-10-05T10:04:56Z</time>
      </trkpt>
      <trkpt lat="42.7838100" lon="-7.5284700">
        <ele>656.3</ele>
        <time>2021-10-05T10:05:00Z</time>
      </trkpt>
      <trkpt lat="42.7838890" lon="-7.5291220">
        <ele>655.7</ele>
        <time>2021-10-05T10:05:12Z</time>
      </trkpt>
      <trkpt lat="42.7838940" lon="-7.5294290">
        <ele>655.5</ele>
        <time>2021-10-05T10:05:17Z</time>
      </trkpt>
      <trkpt lat="42.7839430" lon="-7.5295230">
        <ele>655.6</ele>
        <time>2021-10-05T10:05:20Z</time>
      </trkpt>
      <trkpt lat="42.7839590" lon="-7.5295470">
        <ele>655.7</ele>
        <time>2021-10-05T10:05:21Z</time>
      </trkpt>
      <trkpt lat="42.7839780" lon="-7.5296370">
        <ele>656.2</ele>
        <time>2021-10-05T10:05:24Z</time>
      </trkpt>
      <trkpt lat="42.7839810" lon="-7.5297150">
        <ele>656.6</ele>
        <time>2021-10-05T10:05:27Z</time>
      </trkpt>
      <trkpt lat="42.7839800" lon="-7.5298230">
        <ele>657.2</ele>
        <time>2021-10-05T10:05:31Z</time>
      </trkpt>
      <trkpt lat="42.7839740" lon="-7.5299090">
        <ele>657.8</ele>
        <time>2021-10-05T10:05:34Z</time>
      </trkpt>
      <trkpt lat="42.7839740" lon="-7.5300010">
        <ele>658.4</ele>
        <time>2021-10-05T10:05:37Z</time>
      </trkpt>
      <trkpt lat="42.7839970" lon="-7.5301250">
        <ele>659.1</ele>
        <time>2021-10-05T10:05:40Z</time>
      </trkpt>
      <trkpt lat="42.7840090" lon="-7.5302030">
        <ele>659.5</ele>
        <time>2021-10-05T10:05:42Z</time>
      </trkpt>
      <trkpt lat="42.7840190" lon="-7.5303950">
        <ele>660.2</ele>
        <time>2021-10-05T10:05:47Z</time>
      </trkpt>
      <trkpt lat="42.7839850" lon="-7.5306260">
        <ele>660.3</ele>
        <time>2021-10-05T10:05:52Z</time>
      </trkpt>
      <trkpt lat="42.7839020" lon="-7.5308170">
        <ele>659.9</ele>
        <time>2021-10-05T10:05:56Z</time>
      </trkpt>
      <trkpt lat="42.7835550" lon="-7.5314000">
        <ele>658.9</ele>
        <time>2021-10-05T10:06:08Z</time>
      </trkpt>
      <trkpt lat="42.7835360" lon="-7.5315750">
        <ele>659.2</ele>
        <time>2021-10-05T10:06:12Z</time>
      </trkpt>
      <trkpt lat="42.7835710" lon="-7.5323580">
        <ele>661.3</ele>
        <time>2021-10-05T10:06:30Z</time>
      </trkpt>
      <trkpt lat="42.7835830" lon="-7.5325040">
        <ele>661.6</ele>
        <time>2021-10-05T10:06:33Z</time>
      </trkpt>
      <trkpt lat="42.7836230" lon="-7.5329560">
        <ele>662.5</ele>
        <time>2021-10-05T10:06:43Z</time>
      </trkpt>
      <trkpt lat="42.7836550" lon="-7.5331300">
        <ele>662.7</ele>
        <time>2021-10-05T10:06:47Z</time>
      </trkpt>
      <trkpt lat="42.7836670" lon="-7.5332610">
        <ele>662.8</ele>
        <time>2021-10-05T10:06:50Z</time>
      </trkpt>
      <trkpt lat="42.7836560" lon="-7.5333350">
        <ele>662.8</ele>
        <time>2021-10-05T10:06:52Z</time>
      </trkpt>
      <trkpt lat="42.7836370" lon="-7.5333830">
        <ele>662.8</ele>
        <time>2021-10-05T10:06:54Z</time>
      </trkpt>
      <trkpt lat="42.7836290" lon="-7.5333970">
        <ele>662.8</ele>
        <time>2021-10-05T10:06:55Z</time>
      </trkpt>
      <trkpt lat="42.7835290" lon="-7.5334860">
        <ele>662.5</ele>
        <time>2021-10-05T10:17:49Z</time>
      </trkpt>
      <trkpt lat="42.7835310" lon="-7.5334950">
        <ele>662.5</ele>
        <time>2021-10-05T10:17:50Z</time>
      </trkpt>
      <trkpt lat="42.7835330" lon="-7.5335090">
        <ele>662.4</ele>
        <time>2021-10-05T10:17:51Z</time>
      </trkpt>
      <trkpt lat="42.7835160" lon="-7.5336660">
        <ele>661.8</ele>
        <time>2021-10-05T10:17:56Z</time>
      </trkpt>
      <trkpt lat="42.7835250" lon="-7.5339130">
        <ele>660.8</ele>
        <time>2021-10-05T10:18:02Z</time>
      </trkpt>
      <trkpt lat="42.7835340" lon="-7.5340280">
        <ele>660.3</ele>
        <time>2021-10-05T10:18:04Z</time>
      </trkpt>
      <trkpt lat="42.7835600" lon="-7.5342000">
        <ele>659.4</ele>
        <time>2021-10-05T10:18:07Z</time>
      </trkpt>
      <trkpt lat="42.7835660" lon="-7.5342550">
        <ele>659.0</ele>
        <time>2021-10-05T10:18:08Z</time>
      </trkpt>
      <trkpt lat="42.7835690" lon="-7.5344570">
        <ele>657.5</ele>
        <time>2021-10-05T10:18:11Z</time>
      </trkpt>
      <trkpt lat="42.7835770" lon="-7.5347480">
        <ele>655.1</ele>
        <time>2021-10-05T10:18:14Z</time>
      </trkpt>
      <trkpt lat="42.7835980" lon="-7.5349660">
        <ele>653.3</ele>
        <time>2021-10-05T10:18:16Z</time>
      </trkpt>
      <trkpt lat="42.7836410" lon="-7.5352970">
        <ele>649.8</ele>
        <time>2021-10-05T10:18:19Z</time>
      </trkpt>
      <trkpt lat="42.7836580" lon="-7.5354000">
        <ele>648.6</ele>
        <time>2021-10-05T10:18:20Z</time>
      </trkpt>
      <trkpt lat="42.7836750" lon="-7.5354980">
        <ele>647.4</ele>
        <time>2021-10-05T10:18:21Z</time>
      </trkpt>
      <trkpt lat="42.7836930" lon="-7.5355920">
        <ele>646.2</ele>
        <time>2021-10-05T10:18:22Z</time>
      </trkpt>
      <trkpt lat="42.7837090" lon="-7.5356840">
        <ele>645.1</ele>
        <time>2021-10-05T10:18:23Z</time>
      </trkpt>
      <trkpt lat="42.7837220" lon="-7.5357710">
        <ele>644.0</ele>
        <time>2021-10-05T10:18:24Z</time>
      </trkpt>
      <trkpt lat="42.7837330" lon="-7.5358560">
        <ele>642.9</ele>
        <time>2021-10-05T10:18:25Z</time>
      </trkpt>
      <trkpt lat="42.7837450" lon="-7.5359480">
        <ele>641.8</ele>
        <time>2021-10-05T10:18:26Z</time>
      </trkpt>
      <trkpt lat="42.7837600" lon="-7.5360530">
        <ele>640.6</ele>
        <time>2021-10-05T10:18:27Z</time>
      </trkpt>
      <trkpt lat="42.7837790" lon="-7.5361680">
        <ele>639.4</ele>
        <time>2021-10-05T10:18:28Z</time>
      </trkpt>
      <trkpt lat="42.7838200" lon="-7.5364100">
        <ele>637.4</ele>
        <time>2021-10-05T10:18:30Z</time>
      </trkpt>
      <trkpt lat="42.7838630" lon="-7.5366460">
        <ele>636.8</ele>
        <time>2021-10-05T10:18:32Z</time>
      </trkpt>
      <trkpt lat="42.7838930" lon="-7.5368650">
        <ele>636.5</ele>
        <time>2021-10-05T10:18:34Z</time>
      </trkpt>
      <trkpt lat="42.7839030" lon="-7.5369660">
        <ele>636.4</ele>
        <time>2021-10-05T10:18:35Z</time>
      </trkpt>
      <trkpt lat="42.7839120" lon="-7.5370630">
        <ele>636.4</ele>
        <time>2021-10-05T10:18:36Z</time>
      </trkpt>
      <trkpt lat="42.7839270" lon="-7.5372480">
        <ele>636.3</ele>
        <time>2021-10-05T10:18:38Z</time>
      </trkpt>
      <trkpt lat="42.7839330" lon="-7.5373350">
        <ele>636.3</ele>
        <time>2021-10-05T10:18:39Z</time>
      </trkpt>
      <trkpt lat="42.7839440" lon="-7.5375120">
        <ele>636.7</ele>
        <time>2021-10-05T10:18:41Z</time>
      </trkpt>
      <trkpt lat="42.7839580" lon="-7.5376000">
        <ele>637.0</ele>
        <time>2021-10-05T10:18:42Z</time>
      </trkpt>
      <trkpt lat="42.7839770" lon="-7.5376860">
        <ele>637.3</ele>
        <time>2021-10-05T10:18:43Z</time>
      </trkpt>
      <trkpt lat="42.7840000" lon="-7.5377690">
        <ele>637.6</ele>
        <time>2021-10-05T10:18:44Z</time>
      </trkpt>
      <trkpt lat="42.7840450" lon="-7.5379340">
        <ele>638.4</ele>
        <time>2021-10-05T10:18:46Z</time>
      </trkpt>
      <trkpt lat="42.7840910" lon="-7.5380950">
        <ele>639.2</ele>
        <time>2021-10-05T10:18:48Z</time>
      </trkpt>
      <trkpt lat="42.7841320" lon="-7.5382510">
        <ele>640.1</ele>
        <time>2021-10-05T10:18:50Z</time>
      </trkpt>
      <trkpt lat="42.7841680" lon="-7.5383960">
        <ele>640.9</ele>
        <time>2021-10-05T10:18:52Z</time>
      </trkpt>
      <trkpt lat="42.7841990" lon="-7.5385300">
        <ele>641.7</ele>
        <time>2021-10-05T10:18:54Z</time>
      </trkpt>
      <trkpt lat="42.7842190" lon="-7.5386460">
        <ele>642.4</ele>
        <time>2021-10-05T10:18:56Z</time>
      </trkpt>
      <trkpt lat="42.7842420" lon="-7.5387560">
        <ele>643.0</ele>
        <time>2021-10-05T10:18:58Z</time>
      </trkpt>
      <trkpt lat="42.7842680" lon="-7.5388600">
        <ele>643.6</ele>
        <time>2021-10-05T10:19:00Z</time>
      </trkpt>
      <trkpt lat="42.7842770" lon="-7.5389170">
        <ele>643.9</ele>
        <time>2021-10-05T10:19:01Z</time>
      </trkpt>
      <trkpt lat="42.7842820" lon="-7.5389770">
        <ele>644.2</ele>
        <time>2021-10-05T10:19:02Z</time>
      </trkpt>
      <trkpt lat="42.7842910" lon="-7.5391120">
        <ele>644.9</ele>
        <time>2021-10-05T10:19:04Z</time>
      </trkpt>
      <trkpt lat="42.7843050" lon="-7.5391850">
        <ele>645.1</ele>
        <time>2021-10-05T10:19:05Z</time>
      </trkpt>
      <trkpt lat="42.7843780" lon="-7.5393850">
        <ele>646.1</ele>
        <time>2021-10-05T10:19:08Z</time>
      </trkpt>
      <trkpt lat="42.7843980" lon="-7.5394480">
        <ele>646.5</ele>
        <time>2021-10-05T10:19:09Z</time>
      </trkpt>
      <trkpt lat="42.7844550" lon="-7.5396790">
        <ele>647.4</ele>
        <time>2021-10-05T10:19:13Z</time>
      </trkpt>
      <trkpt lat="42.7844700" lon="-7.5397330">
        <ele>647.6</ele>
        <time>2021-10-05T10:19:14Z</time>
      </trkpt>
      <trkpt lat="42.7845040" lon="-7.5398320">
        <ele>647.8</ele>
        <time>2021-10-05T10:19:16Z</time>
      </trkpt>
      <trkpt lat="42.7845580" lon="-7.5399670">
        <ele>647.9</ele>
        <time>2021-10-05T10:19:19Z</time>
      </trkpt>
      <trkpt lat="42.7846520" lon="-7.5401440">
        <ele>647.7</ele>
        <time>2021-10-05T10:19:23Z</time>
      </trkpt>
      <trkpt lat="42.7847600" lon="-7.5403430">
        <ele>647.3</ele>
        <time>2021-10-05T10:19:27Z</time>
      </trkpt>
      <trkpt lat="42.7848650" lon="-7.5405720">
        <ele>646.8</ele>
        <time>2021-10-05T10:19:31Z</time>
      </trkpt>
      <trkpt lat="42.7849590" lon="-7.5407600">
        <ele>646.3</ele>
        <time>2021-10-05T10:19:34Z</time>
      </trkpt>
      <trkpt lat="42.7850350" lon="-7.5408840">
        <ele>646.0</ele>
        <time>2021-10-05T10:19:36Z</time>
      </trkpt>
      <trkpt lat="42.7851310" lon="-7.5410840">
        <ele>645.6</ele>
        <time>2021-10-05T10:19:39Z</time>
      </trkpt>
      <trkpt lat="42.7852350" lon="-7.5412760">
        <ele>645.2</ele>
        <time>2021-10-05T10:19:42Z</time>
      </trkpt>
      <trkpt lat="42.7853180" lon="-7.5414420">
        <ele>645.0</ele>
        <time>2021-10-05T10:19:45Z</time>
      </trkpt>
      <trkpt lat="42.7853300" lon="-7.5414970">
        <ele>645.0</ele>
        <time>2021-10-05T10:19:47Z</time>
      </trkpt>
      <trkpt lat="42.7853300" lon="-7.5415020">
        <ele>645.0</ele>
        <time>2021-10-05T10:19:49Z</time>
      </trkpt>
      <trkpt lat="42.7853020" lon="-7.5413760">
        <ele>644.9</ele>
        <time>2021-10-05T10:22:49Z</time>
      </trkpt>
      <trkpt lat="42.7853070" lon="-7.5413890">
        <ele>644.9</ele>
        <time>2021-10-05T10:22:50Z</time>
      </trkpt>
      <trkpt lat="42.7853210" lon="-7.5414200">
        <ele>644.9</ele>
        <time>2021-10-05T10:22:52Z</time>
      </trkpt>
      <trkpt lat="42.7853860" lon="-7.5416640">
        <ele>644.7</ele>
        <time>2021-10-05T10:23:01Z</time>
      </trkpt>
      <trkpt lat="42.7854260" lon="-7.5418720">
        <ele>644.4</ele>
        <time>2021-10-05T10:23:05Z</time>
      </trkpt>
      <trkpt lat="42.7854330" lon="-7.5419290">
        <ele>644.4</ele>
        <time>2021-10-05T10:23:06Z</time>
      </trkpt>
      <trkpt lat="42.7854550" lon="-7.5421690">
        <ele>644.1</ele>
        <time>2021-10-05T10:23:10Z</time>
      </trkpt>
      <trkpt lat="42.7854770" lon="-7.5425310">
        <ele>643.7</ele>
        <time>2021-10-05T10:23:16Z</time>
      </trkpt>
      <trkpt lat="42.7854990" lon="-7.5427480">
        <ele>643.9</ele>
        <time>2021-10-05T10:23:20Z</time>
      </trkpt>
      <trkpt lat="42.7855440" lon="-7.5429730">
        <ele>644.1</ele>
        <time>2021-10-05T10:23:26Z</time>
      </trkpt>
      <trkpt lat="42.7856010" lon="-7.5431600">
        <ele>643.7</ele>
        <time>2021-10-05T10:23:33Z</time>
      </trkpt>
      <trkpt lat="42.7856480" lon="-7.5432420">
        <ele>643.4</ele>
        <time>2021-10-05T10:23:36Z</time>
      </trkpt>
      <trkpt lat="42.7856990" lon="-7.5433260">
        <ele>643.2</ele>
        <time>2021-10-05T10:23:39Z</time>
      </trkpt>
      <trkpt lat="42.7857470" lon="-7.5433880">
        <ele>643.1</ele>
        <time>2021-10-05T10:23:42Z</time>
      </trkpt>
      <trkpt lat="42.7857890" lon="-7.5434370">
        <ele>643.0</ele>
        <time>2021-10-05T10:23:44Z</time>
      </trkpt>
      <trkpt lat="42.7858380" lon="-7.5435270">
        <ele>642.7</ele>
        <time>2021-10-05T10:23:46Z</time>
      </trkpt>
      <trkpt lat="42.7858670" lon="-7.5435820">
        <ele>642.5</ele>
        <time>2021-10-05T10:23:47Z</time>
      </trkpt>
      <trkpt lat="42.7859650" lon="-7.5438030">
        <ele>641.9</ele>
        <time>2021-10-05T10:23:50Z</time>
      </trkpt>
      <trkpt lat="42.7860950" lon="-7.5440400">
        <ele>641.3</ele>
        <time>2021-10-05T10:23:54Z</time>
      </trkpt>
      <trkpt lat="42.7861430" lon="-7.5441110">
        <ele>641.2</ele>
        <time>2021-10-05T10:23:56Z</time>
      </trkpt>
      <trkpt lat="42.7861640" lon="-7.5441380">
        <ele>641.1</ele>
        <time>2021-10-05T10:23:57Z</time>
      </trkpt>
      <trkpt lat="42.7861850" lon="-7.5441700">
        <ele>641.1</ele>
        <time>2021-10-05T10:23:58Z</time>
      </trkpt>
      <trkpt lat="42.7862560" lon="-7.5443600">
        <ele>640.8</ele>
        <time>2021-10-05T10:24:02Z</time>
      </trkpt>
      <trkpt lat="42.7862770" lon="-7.5445010">
        <ele>640.7</ele>
        <time>2021-10-05T10:24:04Z</time>
      </trkpt>
      <trkpt lat="42.7862770" lon="-7.5446590">
        <ele>640.7</ele>
        <time>2021-10-05T10:24:06Z</time>
      </trkpt>
      <trkpt lat="42.7862740" lon="-7.5447430">
        <ele>640.8</ele>
        <time>2021-10-05T10:24:07Z</time>
      </trkpt>
      <trkpt lat="42.7862540" lon="-7.5449040">
        <ele>640.9</ele>
        <time>2021-10-05T10:24:09Z</time>
      </trkpt>
      <trkpt lat="42.7862090" lon="-7.5450480">
        <ele>641.1</ele>
        <time>2021-10-05T10:24:11Z</time>
      </trkpt>
      <trkpt lat="42.7861490" lon="-7.5451840">
        <ele>641.4</ele>
        <time>2021-10-05T10:24:13Z</time>
      </trkpt>
      <trkpt lat="42.7860420" lon="-7.5453960">
        <ele>641.8</ele>
        <time>2021-10-05T10:24:16Z</time>
      </trkpt>
      <trkpt lat="42.7856370" lon="-7.5459090">
        <ele>642.3</ele>
        <time>2021-10-05T10:24:25Z</time>
      </trkpt>
      <trkpt lat="42.7855060" lon="-7.5460450">
        <ele>642.5</ele>
        <time>2021-10-05T10:24:28Z</time>
      </trkpt>
      <trkpt lat="42.7853970" lon="-7.5461630">
        <ele>642.7</ele>
        <time>2021-10-05T10:24:31Z</time>
      </trkpt>
      <trkpt lat="42.7852410" lon="-7.5463480">
        <ele>642.8</ele>
        <time>2021-10-05T10:24:35Z</time>
      </trkpt>
      <trkpt lat="42.7850940" lon="-7.5466480">
        <ele>643.4</ele>
        <time>2021-10-05T10:24:40Z</time>
      </trkpt>
      <trkpt lat="42.7850090" lon="-7.5468390">
        <ele>643.5</ele>
        <time>2021-10-05T10:24:43Z</time>
      </trkpt>
      <trkpt lat="42.7846340" lon="-7.5472100">
        <ele>643.2</ele>
        <time>2021-10-05T10:24:51Z</time>
      </trkpt>
      <trkpt lat="42.7845640" lon="-7.5474260">
        <ele>643.1</ele>
        <time>2021-10-05T10:24:54Z</time>
      </trkpt>
      <trkpt lat="42.7844740" lon="-7.5477930">
        <ele>642.9</ele>
        <time>2021-10-05T10:24:59Z</time>
      </trkpt>
      <trkpt lat="42.7844180" lon="-7.5479220">
        <ele>642.6</ele>
        <time>2021-10-05T10:25:01Z</time>
      </trkpt>
      <trkpt lat="42.7843450" lon="-7.5480390">
        <ele>642.3</ele>
        <time>2021-10-05T10:25:03Z</time>
      </trkpt>
      <trkpt lat="42.7842770" lon="-7.5481740">
        <ele>641.9</ele>
        <time>2021-10-05T10:25:05Z</time>
      </trkpt>
      <trkpt lat="42.7841820" lon="-7.5483870">
        <ele>641.4</ele>
        <time>2021-10-05T10:25:08Z</time>
      </trkpt>
      <trkpt lat="42.7841450" lon="-7.5485400">
        <ele>641.3</ele>
        <time>2021-10-05T10:25:10Z</time>
      </trkpt>
      <trkpt lat="42.7840870" lon="-7.5488930">
        <ele>641.2</ele>
        <time>2021-10-05T10:25:15Z</time>
      </trkpt>
      <trkpt lat="42.7840080" lon="-7.5495990">
        <ele>640.6</ele>
        <time>2021-10-05T10:25:25Z</time>
      </trkpt>
      <trkpt lat="42.7840020" lon="-7.5500920">
        <ele>638.6</ele>
        <time>2021-10-05T10:25:33Z</time>
      </trkpt>
      <trkpt lat="42.7840110" lon="-7.5501650">
        <ele>638.2</ele>
        <time>2021-10-05T10:25:35Z</time>
      </trkpt>
      <trkpt lat="42.7840320" lon="-7.5502280">
        <ele>637.8</ele>
        <time>2021-10-05T10:25:37Z</time>
      </trkpt>
      <trkpt lat="42.7840760" lon="-7.5503230">
        <ele>637.2</ele>
        <time>2021-10-05T10:25:39Z</time>
      </trkpt>
      <trkpt lat="42.7841000" lon="-7.5503830">
        <ele>636.9</ele>
        <time>2021-10-05T10:25:40Z</time>
      </trkpt>
      <trkpt lat="42.7841250" lon="-7.5504500">
        <ele>636.7</ele>
        <time>2021-10-05T10:25:41Z</time>
      </trkpt>
      <trkpt lat="42.7841490" lon="-7.5505220">
        <ele>636.4</ele>
        <time>2021-10-05T10:25:42Z</time>
      </trkpt>
      <trkpt lat="42.7842270" lon="-7.5507630">
        <ele>635.7</ele>
        <time>2021-10-05T10:25:45Z</time>
      </trkpt>
      <trkpt lat="42.7842550" lon="-7.5508440">
        <ele>635.5</ele>
        <time>2021-10-05T10:25:46Z</time>
      </trkpt>
      <trkpt lat="42.7842790" lon="-7.5509260">
        <ele>635.4</ele>
        <time>2021-10-05T10:25:47Z</time>
      </trkpt>
      <trkpt lat="42.7843070" lon="-7.5510960">
        <ele>635.1</ele>
        <time>2021-10-05T10:25:49Z</time>
      </trkpt>
      <trkpt lat="42.7843180" lon="-7.5512690">
        <ele>634.8</ele>
        <time>2021-10-05T10:25:51Z</time>
      </trkpt>
      <trkpt lat="42.7843140" lon="-7.5513530">
        <ele>634.7</ele>
        <time>2021-10-05T10:25:52Z</time>
      </trkpt>
      <trkpt lat="42.7842210" lon="-7.5517470">
        <ele>634.0</ele>
        <time>2021-10-05T10:25:57Z</time>
      </trkpt>
      <trkpt lat="42.7842410" lon="-7.5519680">
        <ele>634.2</ele>
        <time>2021-10-05T10:26:00Z</time>
      </trkpt>
      <trkpt lat="42.7842520" lon="-7.5520990">
        <ele>634.4</ele>
        <time>2021-10-05T10:26:02Z</time>
      </trkpt>
      <trkpt lat="42.7842550" lon="-7.5521600">
        <ele>634.6</ele>
        <time>2021-10-05T10:26:03Z</time>
      </trkpt>
      <trkpt lat="42.7842510" lon="-7.5522550">
        <ele>634.8</ele>
        <time>2021-10-05T10:26:05Z</time>
      </trkpt>
      <trkpt lat="42.7842360" lon="-7.5523910">
        <ele>635.2</ele>
        <time>2021-10-05T10:26:08Z</time>
      </trkpt>
      <trkpt lat="42.7842340" lon="-7.5524290">
        <ele>635.3</ele>
        <time>2021-10-05T10:26:09Z</time>
      </trkpt>
      <trkpt lat="42.7842200" lon="-7.5525030">
        <ele>635.5</ele>
        <time>2021-10-05T10:26:11Z</time>
      </trkpt>
      <trkpt lat="42.7841970" lon="-7.5526020">
        <ele>635.8</ele>
        <time>2021-10-05T10:26:14Z</time>
      </trkpt>
      <trkpt lat="42.7841780" lon="-7.5527870">
        <ele>636.3</ele>
        <time>2021-10-05T10:26:19Z</time>
      </trkpt>
      <trkpt lat="42.7841430" lon="-7.5530110">
        <ele>636.5</ele>
        <time>2021-10-05T10:26:25Z</time>
      </trkpt>
      <trkpt lat="42.7841030" lon="-7.5534020">
        <ele>637.4</ele>
        <time>2021-10-05T10:26:32Z</time>
      </trkpt>
      <trkpt lat="42.7840810" lon="-7.5535190">
        <ele>637.9</ele>
        <time>2021-10-05T10:26:34Z</time>
      </trkpt>
      <trkpt lat="42.7840340" lon="-7.5536830">
        <ele>638.8</ele>
        <time>2021-10-05T10:26:37Z</time>
      </trkpt>
      <trkpt lat="42.7839890" lon="-7.5538590">
        <ele>639.4</ele>
        <time>2021-10-05T10:26:40Z</time>
      </trkpt>
      <trkpt lat="42.7839700" lon="-7.5539220">
        <ele>639.5</ele>
        <time>2021-10-05T10:26:41Z</time>
      </trkpt>
      <trkpt lat="42.7839060" lon="-7.5541580">
        <ele>639.9</ele>
        <time>2021-10-05T10:26:45Z</time>
      </trkpt>
      <trkpt lat="42.7838850" lon="-7.5542070">
        <ele>640.1</ele>
        <time>2021-10-05T10:26:46Z</time>
      </trkpt>
      <trkpt lat="42.7837410" lon="-7.5544270">
        <ele>640.9</ele>
        <time>2021-10-05T10:26:51Z</time>
      </trkpt>
      <trkpt lat="42.7836320" lon="-7.5545660">
        <ele>641.5</ele>
        <time>2021-10-05T10:26:55Z</time>
      </trkpt>
      <trkpt lat="42.7834170" lon="-7.5548550">
        <ele>642.9</ele>
        <time>2021-10-05T10:27:04Z</time>
      </trkpt>
      <trkpt lat="42.7832810" lon="-7.5549930">
        <ele>643.8</ele>
        <time>2021-10-05T10:27:09Z</time>
      </trkpt>
      <trkpt lat="42.7830700" lon="-7.5552360">
        <ele>644.6</ele>
        <time>2021-10-05T10:27:16Z</time>
      </trkpt>
      <trkpt lat="42.7829410" lon="-7.5553650">
        <ele>644.1</ele>
        <time>2021-10-05T10:27:20Z</time>
      </trkpt>
      <trkpt lat="42.7828680" lon="-7.5555520">
        <ele>643.4</ele>
        <time>2021-10-05T10:27:23Z</time>
      </trkpt>
      <trkpt lat="42.7828770" lon="-7.5556990">
        <ele>643.2</ele>
        <time>2021-10-05T10:27:25Z</time>
      </trkpt>
      <trkpt lat="42.7829190" lon="-7.5558110">
        <ele>643.0</ele>
        <time>2021-10-05T10:27:27Z</time>
      </trkpt>
      <trkpt lat="42.7829500" lon="-7.5559130">
        <ele>642.9</ele>
        <time>2021-10-05T10:27:29Z</time>
      </trkpt>
      <trkpt lat="42.7829920" lon="-7.5561460">
        <ele>642.4</ele>
        <time>2021-10-05T10:27:33Z</time>
      </trkpt>
      <trkpt lat="42.7830100" lon="-7.5562640">
        <ele>642.1</ele>
        <time>2021-10-05T10:27:35Z</time>
      </trkpt>
      <trkpt lat="42.7830530" lon="-7.5563840">
        <ele>641.7</ele>
        <time>2021-10-05T10:27:37Z</time>
      </trkpt>
      <trkpt lat="42.7831590" lon="-7.5565540">
        <ele>641.2</ele>
        <time>2021-10-05T10:27:40Z</time>
      </trkpt>
      <trkpt lat="42.7832780" lon="-7.5566790">
        <ele>641.0</ele>
        <time>2021-10-05T10:27:43Z</time>
      </trkpt>
      <trkpt lat="42.7834600" lon="-7.5568200">
        <ele>640.3</ele>
        <time>2021-10-05T10:27:47Z</time>
      </trkpt>
      <trkpt lat="42.7835080" lon="-7.5568430">
        <ele>640.0</ele>
        <time>2021-10-05T10:27:48Z</time>
      </trkpt>
      <trkpt lat="42.7835980" lon="-7.5568910">
        <ele>639.5</ele>
        <time>2021-10-05T10:27:50Z</time>
      </trkpt>
      <trkpt lat="42.7836400" lon="-7.5569270">
        <ele>639.3</ele>
        <time>2021-10-05T10:27:51Z</time>
      </trkpt>
      <trkpt lat="42.7838020" lon="-7.5570420">
        <ele>638.6</ele>
        <time>2021-10-05T10:27:54Z</time>
      </trkpt>
      <trkpt lat="42.7839510" lon="-7.5571330">
        <ele>638.1</ele>
        <time>2021-10-05T10:27:57Z</time>
      </trkpt>
      <trkpt lat="42.7840470" lon="-7.5571900">
        <ele>637.6</ele>
        <time>2021-10-05T10:27:59Z</time>
      </trkpt>
      <trkpt lat="42.7842370" lon="-7.5573420">
        <ele>636.3</ele>
        <time>2021-10-05T10:28:03Z</time>
      </trkpt>
      <trkpt lat="42.7844140" lon="-7.5576820">
        <ele>634.3</ele>
        <time>2021-10-05T10:28:07Z</time>
      </trkpt>
      <trkpt lat="42.7844790" lon="-7.5578580">
        <ele>633.3</ele>
        <time>2021-10-05T10:28:09Z</time>
      </trkpt>
      <trkpt lat="42.7845130" lon="-7.5579440">
        <ele>632.7</ele>
        <time>2021-10-05T10:28:10Z</time>
      </trkpt>
      <trkpt lat="42.7845470" lon="-7.5580310">
        <ele>632.2</ele>
        <time>2021-10-05T10:28:11Z</time>
      </trkpt>
      <trkpt lat="42.7845770" lon="-7.5581200">
        <ele>631.6</ele>
        <time>2021-10-05T10:28:12Z</time>
      </trkpt>
      <trkpt lat="42.7846240" lon="-7.5582920">
        <ele>630.6</ele>
        <time>2021-10-05T10:28:14Z</time>
      </trkpt>
      <trkpt lat="42.7846070" lon="-7.5585630">
        <ele>629.4</ele>
        <time>2021-10-05T10:28:17Z</time>
      </trkpt>
      <trkpt lat="42.7845630" lon="-7.5587500">
        <ele>628.6</ele>
        <time>2021-10-05T10:28:19Z</time>
      </trkpt>
      <trkpt lat="42.7845430" lon="-7.5588350">
        <ele>628.2</ele>
        <time>2021-10-05T10:28:20Z</time>
      </trkpt>
      <trkpt lat="42.7845320" lon="-7.5589180">
        <ele>627.8</ele>
        <time>2021-10-05T10:28:21Z</time>
      </trkpt>
      <trkpt lat="42.7845670" lon="-7.5590390">
        <ele>627.2</ele>
        <time>2021-10-05T10:28:23Z</time>
      </trkpt>
      <trkpt lat="42.7846490" lon="-7.5591090">
        <ele>626.6</ele>
        <time>2021-10-05T10:28:25Z</time>
      </trkpt>
      <trkpt lat="42.7847740" lon="-7.5591960">
        <ele>625.7</ele>
        <time>2021-10-05T10:28:28Z</time>
      </trkpt>
      <trkpt lat="42.7848100" lon="-7.5592350">
        <ele>625.4</ele>
        <time>2021-10-05T10:28:29Z</time>
      </trkpt>
      <trkpt lat="42.7848870" lon="-7.5593390">
        <ele>624.8</ele>
        <time>2021-10-05T10:28:31Z</time>
      </trkpt>
      <trkpt lat="42.7849530" lon="-7.5594600">
        <ele>624.3</ele>
        <time>2021-10-05T10:28:33Z</time>
      </trkpt>
      <trkpt lat="42.7850110" lon="-7.5595760">
        <ele>623.7</ele>
        <time>2021-10-05T10:28:35Z</time>
      </trkpt>
      <trkpt lat="42.7850430" lon="-7.5596140">
        <ele>623.4</ele>
        <time>2021-10-05T10:28:36Z</time>
      </trkpt>
      <trkpt lat="42.7850710" lon="-7.5596420">
        <ele>623.1</ele>
        <time>2021-10-05T10:28:37Z</time>
      </trkpt>
      <trkpt lat="42.7851210" lon="-7.5597070">
        <ele>622.6</ele>
        <time>2021-10-05T10:28:39Z</time>
      </trkpt>
      <trkpt lat="42.7851860" lon="-7.5597660">
        <ele>621.9</ele>
        <time>2021-10-05T10:28:41Z</time>
      </trkpt>
      <trkpt lat="42.7853340" lon="-7.5598880">
        <ele>619.6</ele>
        <time>2021-10-05T10:28:45Z</time>
      </trkpt>
      <trkpt lat="42.7853680" lon="-7.5599320">
        <ele>618.9</ele>
        <time>2021-10-05T10:28:46Z</time>
      </trkpt>
      <trkpt lat="42.7854110" lon="-7.5599790">
        <ele>618.1</ele>
        <time>2021-10-05T10:28:47Z</time>
      </trkpt>
      <trkpt lat="42.7855290" lon="-7.5601210">
        <ele>616.3</ele>
        <time>2021-10-05T10:28:50Z</time>
      </trkpt>
      <trkpt lat="42.7855770" lon="-7.5601860">
        <ele>615.8</ele>
        <time>2021-10-05T10:28:51Z</time>
      </trkpt>
      <trkpt lat="42.7856220" lon="-7.5602330">
        <ele>615.4</ele>
        <time>2021-10-05T10:28:52Z</time>
      </trkpt>
      <trkpt lat="42.7856650" lon="-7.5602860">
        <ele>615.1</ele>
        <time>2021-10-05T10:28:53Z</time>
      </trkpt>
      <trkpt lat="42.7857080" lon="-7.5603480">
        <ele>614.7</ele>
        <time>2021-10-05T10:28:54Z</time>
      </trkpt>
      <trkpt lat="42.7857600" lon="-7.5604130">
        <ele>614.3</ele>
        <time>2021-10-05T10:28:55Z</time>
      </trkpt>
      <trkpt lat="42.7858500" lon="-7.5605570">
        <ele>613.6</ele>
        <time>2021-10-05T10:28:57Z</time>
      </trkpt>
      <trkpt lat="42.7859290" lon="-7.5607070">
        <ele>612.9</ele>
        <time>2021-10-05T10:28:59Z</time>
      </trkpt>
      <trkpt lat="42.7860030" lon="-7.5610120">
        <ele>611.3</ele>
        <time>2021-10-05T10:29:02Z</time>
      </trkpt>
      <trkpt lat="42.7860130" lon="-7.5611260">
        <ele>610.7</ele>
        <time>2021-10-05T10:29:03Z</time>
      </trkpt>
      <trkpt lat="42.7860980" lon="-7.5615700">
        <ele>608.1</ele>
        <time>2021-10-05T10:29:07Z</time>
      </trkpt>
      <trkpt lat="42.7861260" lon="-7.5616530">
        <ele>607.7</ele>
        <time>2021-10-05T10:29:08Z</time>
      </trkpt>
      <trkpt lat="42.7861630" lon="-7.5617210">
        <ele>607.1</ele>
        <time>2021-10-05T10:29:09Z</time>
      </trkpt>
      <trkpt lat="42.7862270" lon="-7.5618680">
        <ele>605.6</ele>
        <time>2021-10-05T10:29:11Z</time>
      </trkpt>
      <trkpt lat="42.7862780" lon="-7.5620170">
        <ele>604.1</ele>
        <time>2021-10-05T10:29:13Z</time>
      </trkpt>
      <trkpt lat="42.7863440" lon="-7.5621820">
        <ele>601.6</ele>
        <time>2021-10-05T10:29:15Z</time>
      </trkpt>
      <trkpt lat="42.7864490" lon="-7.5623350">
        <ele>598.6</ele>
        <time>2021-10-05T10:29:17Z</time>
      </trkpt>
      <trkpt lat="42.7864980" lon="-7.5624090">
        <ele>597.3</ele>
        <time>2021-10-05T10:29:18Z</time>
      </trkpt>
      <trkpt lat="42.7865540" lon="-7.5624850">
        <ele>596.1</ele>
        <time>2021-10-05T10:29:19Z</time>
      </trkpt>
      <trkpt lat="42.7866540" lon="-7.5626060">
        <ele>594.6</ele>
        <time>2021-10-05T10:29:21Z</time>
      </trkpt>
      <trkpt lat="42.7866940" lon="-7.5626360">
        <ele>594.2</ele>
        <time>2021-10-05T10:29:22Z</time>
      </trkpt>
      <trkpt lat="42.7867250" lon="-7.5626540">
        <ele>593.8</ele>
        <time>2021-10-05T10:29:23Z</time>
      </trkpt>
      <trkpt lat="42.7867620" lon="-7.5626740">
        <ele>593.4</ele>
        <time>2021-10-05T10:29:24Z</time>
      </trkpt>
      <trkpt lat="42.7868020" lon="-7.5627000">
        <ele>592.9</ele>
        <time>2021-10-05T10:29:25Z</time>
      </trkpt>
      <trkpt lat="42.7868720" lon="-7.5628120">
        <ele>591.3</ele>
        <time>2021-10-05T10:29:27Z</time>
      </trkpt>
      <trkpt lat="42.7869250" lon="-7.5629620">
        <ele>589.5</ele>
        <time>2021-10-05T10:29:29Z</time>
      </trkpt>
      <trkpt lat="42.7869320" lon="-7.5632570">
        <ele>585.9</ele>
        <time>2021-10-05T10:29:33Z</time>
      </trkpt>
      <trkpt lat="42.7869380" lon="-7.5633840">
        <ele>584.7</ele>
        <time>2021-10-05T10:29:35Z</time>
      </trkpt>
      <trkpt lat="42.7869580" lon="-7.5634440">
        <ele>584.1</ele>
        <time>2021-10-05T10:29:36Z</time>
      </trkpt>
      <trkpt lat="42.7869880" lon="-7.5635090">
        <ele>583.5</ele>
        <time>2021-10-05T10:29:37Z</time>
      </trkpt>
      <trkpt lat="42.7870200" lon="-7.5635780">
        <ele>582.8</ele>
        <time>2021-10-05T10:29:38Z</time>
      </trkpt>
      <trkpt lat="42.7870610" lon="-7.5636490">
        <ele>582.0</ele>
        <time>2021-10-05T10:29:39Z</time>
      </trkpt>
      <trkpt lat="42.7871300" lon="-7.5637760">
        <ele>580.9</ele>
        <time>2021-10-05T10:29:41Z</time>
      </trkpt>
      <trkpt lat="42.7871680" lon="-7.5638330">
        <ele>580.5</ele>
        <time>2021-10-05T10:29:42Z</time>
      </trkpt>
      <trkpt lat="42.7872430" lon="-7.5639280">
        <ele>580.2</ele>
        <time>2021-10-05T10:29:44Z</time>
      </trkpt>
      <trkpt lat="42.7873100" lon="-7.5640220">
        <ele>579.8</ele>
        <time>2021-10-05T10:29:46Z</time>
      </trkpt>
      <trkpt lat="42.7873710" lon="-7.5641520">
        <ele>578.5</ele>
        <time>2021-10-05T10:29:48Z</time>
      </trkpt>
      <trkpt lat="42.7873990" lon="-7.5642360">
        <ele>577.5</ele>
        <time>2021-10-05T10:29:49Z</time>
      </trkpt>
      <trkpt lat="42.7874260" lon="-7.5643330">
        <ele>576.4</ele>
        <time>2021-10-05T10:29:50Z</time>
      </trkpt>
      <trkpt lat="42.7874550" lon="-7.5644400">
        <ele>575.2</ele>
        <time>2021-10-05T10:29:51Z</time>
      </trkpt>
      <trkpt lat="42.7874870" lon="-7.5645570">
        <ele>573.9</ele>
        <time>2021-10-05T10:29:52Z</time>
      </trkpt>
      <trkpt lat="42.7875940" lon="-7.5649400">
        <ele>570.3</ele>
        <time>2021-10-05T10:29:55Z</time>
      </trkpt>
      <trkpt lat="42.7876360" lon="-7.5650700">
        <ele>569.4</ele>
        <time>2021-10-05T10:29:56Z</time>
      </trkpt>
      <trkpt lat="42.7876820" lon="-7.5651970">
        <ele>568.7</ele>
        <time>2021-10-05T10:29:57Z</time>
      </trkpt>
      <trkpt lat="42.7877300" lon="-7.5653150">
        <ele>568.1</ele>
        <time>2021-10-05T10:29:58Z</time>
      </trkpt>
      <trkpt lat="42.7877780" lon="-7.5654180">
        <ele>567.6</ele>
        <time>2021-10-05T10:29:59Z</time>
      </trkpt>
      <trkpt lat="42.7878260" lon="-7.5655090">
        <ele>567.2</ele>
        <time>2021-10-05T10:30:00Z</time>
      </trkpt>
      <trkpt lat="42.7878710" lon="-7.5655870">
        <ele>566.9</ele>
        <time>2021-10-05T10:30:01Z</time>
      </trkpt>
      <trkpt lat="42.7879090" lon="-7.5656560">
        <ele>566.7</ele>
        <time>2021-10-05T10:30:02Z</time>
      </trkpt>
      <trkpt lat="42.7879400" lon="-7.5657210">
        <ele>566.4</ele>
        <time>2021-10-05T10:30:03Z</time>
      </trkpt>
      <trkpt lat="42.7879620" lon="-7.5657880">
        <ele>566.1</ele>
        <time>2021-10-05T10:30:04Z</time>
      </trkpt>
      <trkpt lat="42.7881050" lon="-7.5663940">
        <ele>563.4</ele>
        <time>2021-10-05T10:30:14Z</time>
      </trkpt>
      <trkpt lat="42.7881350" lon="-7.5665070">
        <ele>563.0</ele>
        <time>2021-10-05T10:30:16Z</time>
      </trkpt>
      <trkpt lat="42.7882090" lon="-7.5666540">
        <ele>562.3</ele>
        <time>2021-10-05T10:30:20Z</time>
      </trkpt>
      <trkpt lat="42.7883220" lon="-7.5667980">
        <ele>561.5</ele>
        <time>2021-10-05T10:30:24Z</time>
      </trkpt>
      <trkpt lat="42.7883610" lon="-7.5668440">
        <ele>561.3</ele>
        <time>2021-10-05T10:30:25Z</time>
      </trkpt>
      <trkpt lat="42.7884040" lon="-7.5668950">
        <ele>561.2</ele>
        <time>2021-10-05T10:30:26Z</time>
      </trkpt>
      <trkpt lat="42.7884890" lon="-7.5670020">
        <ele>560.8</ele>
        <time>2021-10-05T10:30:28Z</time>
      </trkpt>
      <trkpt lat="42.7885200" lon="-7.5670640">
        <ele>560.7</ele>
        <time>2021-10-05T10:30:29Z</time>
      </trkpt>
      <trkpt lat="42.7885480" lon="-7.5672790">
        <ele>560.1</ele>
        <time>2021-10-05T10:30:32Z</time>
      </trkpt>
      <trkpt lat="42.7885440" lon="-7.5673490">
        <ele>559.9</ele>
        <time>2021-10-05T10:30:33Z</time>
      </trkpt>
      <trkpt lat="42.7885400" lon="-7.5674150">
        <ele>559.7</ele>
        <time>2021-10-05T10:30:34Z</time>
      </trkpt>
      <trkpt lat="42.7885390" lon="-7.5675770">
        <ele>559.0</ele>
        <time>2021-10-05T10:30:37Z</time>
      </trkpt>
      <trkpt lat="42.7885770" lon="-7.5676800">
        <ele>557.6</ele>
        <time>2021-10-05T10:30:40Z</time>
      </trkpt>
      <trkpt lat="42.7887320" lon="-7.5679960">
        <ele>553.5</ele>
        <time>2021-10-05T10:30:47Z</time>
      </trkpt>
      <trkpt lat="42.7887440" lon="-7.5680660">
        <ele>552.7</ele>
        <time>2021-10-05T10:30:49Z</time>
      </trkpt>
      <trkpt lat="42.7887490" lon="-7.5681320">
        <ele>552.0</ele>
        <time>2021-10-05T10:30:51Z</time>
      </trkpt>
      <trkpt lat="42.7887490" lon="-7.5681940">
        <ele>551.3</ele>
        <time>2021-10-05T10:30:53Z</time>
      </trkpt>
      <trkpt lat="42.7887450" lon="-7.5682920">
        <ele>550.3</ele>
        <time>2021-10-05T10:30:55Z</time>
      </trkpt>
      <trkpt lat="42.7887360" lon="-7.5684810">
        <ele>548.3</ele>
        <time>2021-10-05T10:30:58Z</time>
      </trkpt>
      <trkpt lat="42.7887400" lon="-7.5685490">
        <ele>547.7</ele>
        <time>2021-10-05T10:30:59Z</time>
      </trkpt>
      <trkpt lat="42.7887890" lon="-7.5686850">
        <ele>546.4</ele>
        <time>2021-10-05T10:31:02Z</time>
      </trkpt>
      <trkpt lat="42.7888210" lon="-7.5687760">
        <ele>545.6</ele>
        <time>2021-10-05T10:31:04Z</time>
      </trkpt>
      <trkpt lat="42.7888410" lon="-7.5689210">
        <ele>544.8</ele>
        <time>2021-10-05T10:31:06Z</time>
      </trkpt>
      <trkpt lat="42.7888800" lon="-7.5690540">
        <ele>543.8</ele>
        <time>2021-10-05T10:31:08Z</time>
      </trkpt>
      <trkpt lat="42.7889070" lon="-7.5691300">
        <ele>543.3</ele>
        <time>2021-10-05T10:31:09Z</time>
      </trkpt>
      <trkpt lat="42.7889340" lon="-7.5692030">
        <ele>542.8</ele>
        <time>2021-10-05T10:31:10Z</time>
      </trkpt>
      <trkpt lat="42.7889990" lon="-7.5693480">
        <ele>542.0</ele>
        <time>2021-10-05T10:31:12Z</time>
      </trkpt>
      <trkpt lat="42.7890390" lon="-7.5694200">
        <ele>541.6</ele>
        <time>2021-10-05T10:31:13Z</time>
      </trkpt>
      <trkpt lat="42.7891110" lon="-7.5695380">
        <ele>541.2</ele>
        <time>2021-10-05T10:31:15Z</time>
      </trkpt>
      <trkpt lat="42.7891400" lon="-7.5695930">
        <ele>541.0</ele>
        <time>2021-10-05T10:31:16Z</time>
      </trkpt>
      <trkpt lat="42.7891990" lon="-7.5697180">
        <ele>540.6</ele>
        <time>2021-10-05T10:31:18Z</time>
      </trkpt>
      <trkpt lat="42.7892770" lon="-7.5701080">
        <ele>539.4</ele>
        <time>2021-10-05T10:31:22Z</time>
      </trkpt>
      <trkpt lat="42.7893200" lon="-7.5702710">
        <ele>538.7</ele>
        <time>2021-10-05T10:31:24Z</time>
      </trkpt>
      <trkpt lat="42.7894350" lon="-7.5704630">
        <ele>537.6</ele>
        <time>2021-10-05T10:31:27Z</time>
      </trkpt>
      <trkpt lat="42.7894720" lon="-7.5705360">
        <ele>537.4</ele>
        <time>2021-10-05T10:31:28Z</time>
      </trkpt>
      <trkpt lat="42.7895060" lon="-7.5706100">
        <ele>537.1</ele>
        <time>2021-10-05T10:31:29Z</time>
      </trkpt>
      <trkpt lat="42.7895430" lon="-7.5706780">
        <ele>536.9</ele>
        <time>2021-10-05T10:31:30Z</time>
      </trkpt>
      <trkpt lat="42.7897180" lon="-7.5708410">
        <ele>535.9</ele>
        <time>2021-10-05T10:31:33Z</time>
      </trkpt>
      <trkpt lat="42.7898390" lon="-7.5709430">
        <ele>535.6</ele>
        <time>2021-10-05T10:31:35Z</time>
      </trkpt>
      <trkpt lat="42.7898940" lon="-7.5710010">
        <ele>535.5</ele>
        <time>2021-10-05T10:31:36Z</time>
      </trkpt>
      <trkpt lat="42.7899960" lon="-7.5711300">
        <ele>535.6</ele>
        <time>2021-10-05T10:31:38Z</time>
      </trkpt>
      <trkpt lat="42.7900490" lon="-7.5711900">
        <ele>535.6</ele>
        <time>2021-10-05T10:31:39Z</time>
      </trkpt>
      <trkpt lat="42.7901020" lon="-7.5712470">
        <ele>535.7</ele>
        <time>2021-10-05T10:31:40Z</time>
      </trkpt>
      <trkpt lat="42.7902020" lon="-7.5713560">
        <ele>535.7</ele>
        <time>2021-10-05T10:31:42Z</time>
      </trkpt>
      <trkpt lat="42.7903450" lon="-7.5715040">
        <ele>535.9</ele>
        <time>2021-10-05T10:31:45Z</time>
      </trkpt>
      <trkpt lat="42.7906930" lon="-7.5719800">
        <ele>536.3</ele>
        <time>2021-10-05T10:31:54Z</time>
      </trkpt>
      <trkpt lat="42.7907670" lon="-7.5720840">
        <ele>536.4</ele>
        <time>2021-10-05T10:31:56Z</time>
      </trkpt>
      <trkpt lat="42.7907980" lon="-7.5721400">
        <ele>536.4</ele>
        <time>2021-10-05T10:31:57Z</time>
      </trkpt>
      <trkpt lat="42.7908300" lon="-7.5721920">
        <ele>536.4</ele>
        <time>2021-10-05T10:31:58Z</time>
      </trkpt>
      <trkpt lat="42.7909240" lon="-7.5724410">
        <ele>536.2</ele>
        <time>2021-10-05T10:32:02Z</time>
      </trkpt>
      <trkpt lat="42.7909610" lon="-7.5725870">
        <ele>536.1</ele>
        <time>2021-10-05T10:32:04Z</time>
      </trkpt>
      <trkpt lat="42.7909840" lon="-7.5728940">
        <ele>536.2</ele>
        <time>2021-10-05T10:32:08Z</time>
      </trkpt>
      <trkpt lat="42.7909880" lon="-7.5730990">
        <ele>536.8</ele>
        <time>2021-10-05T10:32:11Z</time>
      </trkpt>
      <trkpt lat="42.7909960" lon="-7.5732770">
        <ele>537.6</ele>
        <time>2021-10-05T10:32:14Z</time>
      </trkpt>
      <trkpt lat="42.7910050" lon="-7.5733850">
        <ele>538.3</ele>
        <time>2021-10-05T10:32:16Z</time>
      </trkpt>
      <trkpt lat="42.7910180" lon="-7.5734710">
        <ele>538.9</ele>
        <time>2021-10-05T10:32:18Z</time>
      </trkpt>
      <trkpt lat="42.7910260" lon="-7.5735570">
        <ele>539.6</ele>
        <time>2021-10-05T10:32:20Z</time>
      </trkpt>
      <trkpt lat="42.7910310" lon="-7.5736030">
        <ele>540.0</ele>
        <time>2021-10-05T10:32:21Z</time>
      </trkpt>
      <trkpt lat="42.7910440" lon="-7.5737440">
        <ele>541.1</ele>
        <time>2021-10-05T10:32:24Z</time>
      </trkpt>
      <trkpt lat="42.7910340" lon="-7.5738520">
        <ele>541.8</ele>
        <time>2021-10-05T10:32:26Z</time>
      </trkpt>
      <trkpt lat="42.7910010" lon="-7.5740080">
        <ele>542.6</ele>
        <time>2021-10-05T10:32:29Z</time>
      </trkpt>
      <trkpt lat="42.7909830" lon="-7.5741590">
        <ele>543.4</ele>
        <time>2021-10-05T10:32:32Z</time>
      </trkpt>
      <trkpt lat="42.7909600" lon="-7.5743990">
        <ele>544.9</ele>
        <time>2021-10-05T10:32:37Z</time>
      </trkpt>
      <trkpt lat="42.7909620" lon="-7.5745900">
        <ele>546.3</ele>
        <time>2021-10-05T10:32:42Z</time>
      </trkpt>
      <trkpt lat="42.7909840" lon="-7.5747420">
        <ele>547.4</ele>
        <time>2021-10-05T10:32:46Z</time>
      </trkpt>
      <trkpt lat="42.7909820" lon="-7.5749220">
        <ele>548.7</ele>
        <time>2021-10-05T10:32:50Z</time>
      </trkpt>
      <trkpt lat="42.7910010" lon="-7.5751420">
        <ele>550.1</ele>
        <time>2021-10-05T10:32:55Z</time>
      </trkpt>
      <trkpt lat="42.7910180" lon="-7.5752310">
        <ele>550.7</ele>
        <time>2021-10-05T10:32:57Z</time>
      </trkpt>
      <trkpt lat="42.7910560" lon="-7.5754650">
        <ele>552.3</ele>
        <time>2021-10-05T10:33:02Z</time>
      </trkpt>
      <trkpt lat="42.7910820" lon="-7.5755970">
        <ele>553.1</ele>
        <time>2021-10-05T10:33:05Z</time>
      </trkpt>
      <trkpt lat="42.7911030" lon="-7.5757780">
        <ele>554.2</ele>
        <time>2021-10-05T10:33:09Z</time>
      </trkpt>
      <trkpt lat="42.7911060" lon="-7.5760230">
        <ele>555.5</ele>
        <time>2021-10-05T10:33:14Z</time>
      </trkpt>
      <trkpt lat="42.7911110" lon="-7.5762270">
        <ele>556.3</ele>
        <time>2021-10-05T10:33:18Z</time>
      </trkpt>
      <trkpt lat="42.7910780" lon="-7.5767880">
        <ele>557.1</ele>
        <time>2021-10-05T10:33:29Z</time>
      </trkpt>
      <trkpt lat="42.7910690" lon="-7.5768740">
        <ele>557.2</ele>
        <time>2021-10-05T10:33:31Z</time>
      </trkpt>
      <trkpt lat="42.7910500" lon="-7.5769880">
        <ele>557.2</ele>
        <time>2021-10-05T10:33:34Z</time>
      </trkpt>
      <trkpt lat="42.7910220" lon="-7.5771230">
        <ele>557.2</ele>
        <time>2021-10-05T10:33:37Z</time>
      </trkpt>
      <trkpt lat="42.7909700" lon="-7.5774380">
        <ele>557.1</ele>
        <time>2021-10-05T10:33:43Z</time>
      </trkpt>
      <trkpt lat="42.7909510" lon="-7.5775590">
        <ele>557.1</ele>
        <time>2021-10-05T10:33:45Z</time>
      </trkpt>
      <trkpt lat="42.7909290" lon="-7.5776900">
        <ele>557.0</ele>
        <time>2021-10-05T10:33:47Z</time>
      </trkpt>
      <trkpt lat="42.7909140" lon="-7.5778310">
        <ele>557.0</ele>
        <time>2021-10-05T10:33:49Z</time>
      </trkpt>
      <trkpt lat="42.7908870" lon="-7.5780450">
        <ele>556.9</ele>
        <time>2021-10-05T10:33:52Z</time>
      </trkpt>
      <trkpt lat="42.7908620" lon="-7.5782560">
        <ele>556.9</ele>
        <time>2021-10-05T10:33:55Z</time>
      </trkpt>
      <trkpt lat="42.7908330" lon="-7.5790040">
        <ele>557.1</ele>
        <time>2021-10-05T10:34:06Z</time>
      </trkpt>
      <trkpt lat="42.7908500" lon="-7.5793250">
        <ele>557.4</ele>
        <time>2021-10-05T10:34:11Z</time>
      </trkpt>
      <trkpt lat="42.7908690" lon="-7.5795200">
        <ele>557.5</ele>
        <time>2021-10-05T10:34:14Z</time>
      </trkpt>
      <trkpt lat="42.7909110" lon="-7.5799110">
        <ele>557.5</ele>
        <time>2021-10-05T10:34:20Z</time>
      </trkpt>
      <trkpt lat="42.7909360" lon="-7.5801160">
        <ele>557.4</ele>
        <time>2021-10-05T10:34:23Z</time>
      </trkpt>
      <trkpt lat="42.7909520" lon="-7.5802520">
        <ele>557.1</ele>
        <time>2021-10-05T10:34:25Z</time>
      </trkpt>
      <trkpt lat="42.7909800" lon="-7.5804580">
        <ele>556.6</ele>
        <time>2021-10-05T10:34:28Z</time>
      </trkpt>
      <trkpt lat="42.7910100" lon="-7.5806730">
        <ele>556.0</ele>
        <time>2021-10-05T10:34:31Z</time>
      </trkpt>
      <trkpt lat="42.7910180" lon="-7.5807480">
        <ele>555.7</ele>
        <time>2021-10-05T10:34:32Z</time>
      </trkpt>
      <trkpt lat="42.7910290" lon="-7.5808250">
        <ele>555.5</ele>
        <time>2021-10-05T10:34:33Z</time>
      </trkpt>
      <trkpt lat="42.7910380" lon="-7.5809040">
        <ele>555.2</ele>
        <time>2021-10-05T10:34:34Z</time>
      </trkpt>
      <trkpt lat="42.7910910" lon="-7.5812270">
        <ele>553.8</ele>
        <time>2021-10-05T10:34:38Z</time>
      </trkpt>
      <trkpt lat="42.7911300" lon="-7.5814870">
        <ele>552.7</ele>
        <time>2021-10-05T10:34:41Z</time>
      </trkpt>
      <trkpt lat="42.7911430" lon="-7.5815760">
        <ele>552.3</ele>
        <time>2021-10-05T10:34:42Z</time>
      </trkpt>
      <trkpt lat="42.7911650" lon="-7.5817600">
        <ele>551.4</ele>
        <time>2021-10-05T10:34:44Z</time>
      </trkpt>
      <trkpt lat="42.7911750" lon="-7.5818560">
        <ele>550.9</ele>
        <time>2021-10-05T10:34:45Z</time>
      </trkpt>
      <trkpt lat="42.7911970" lon="-7.5820550">
        <ele>549.8</ele>
        <time>2021-10-05T10:34:47Z</time>
      </trkpt>
      <trkpt lat="42.7912200" lon="-7.5822620">
        <ele>548.7</ele>
        <time>2021-10-05T10:34:49Z</time>
      </trkpt>
      <trkpt lat="42.7912490" lon="-7.5824790">
        <ele>547.5</ele>
        <time>2021-10-05T10:34:51Z</time>
      </trkpt>
      <trkpt lat="42.7912700" lon="-7.5825900">
        <ele>546.8</ele>
        <time>2021-10-05T10:34:52Z</time>
      </trkpt>
      <trkpt lat="42.7912990" lon="-7.5826960">
        <ele>546.2</ele>
        <time>2021-10-05T10:34:53Z</time>
      </trkpt>
      <trkpt lat="42.7913390" lon="-7.5827910">
        <ele>545.6</ele>
        <time>2021-10-05T10:34:54Z</time>
      </trkpt>
      <trkpt lat="42.7914360" lon="-7.5829420">
        <ele>544.7</ele>
        <time>2021-10-05T10:34:56Z</time>
      </trkpt>
      <trkpt lat="42.7914850" lon="-7.5829990">
        <ele>544.3</ele>
        <time>2021-10-05T10:34:57Z</time>
      </trkpt>
      <trkpt lat="42.7915240" lon="-7.5830540">
        <ele>544.0</ele>
        <time>2021-10-05T10:34:58Z</time>
      </trkpt>
      <trkpt lat="42.7915420" lon="-7.5831190">
        <ele>543.4</ele>
        <time>2021-10-05T10:34:59Z</time>
      </trkpt>
      <trkpt lat="42.7915210" lon="-7.5832720">
        <ele>542.3</ele>
        <time>2021-10-05T10:35:01Z</time>
      </trkpt>
      <trkpt lat="42.7915130" lon="-7.5834240">
        <ele>540.3</ele>
        <time>2021-10-05T10:35:03Z</time>
      </trkpt>
      <trkpt lat="42.7915720" lon="-7.5835390">
        <ele>539.1</ele>
        <time>2021-10-05T10:35:05Z</time>
      </trkpt>
      <trkpt lat="42.7916720" lon="-7.5836290">
        <ele>537.7</ele>
        <time>2021-10-05T10:35:07Z</time>
      </trkpt>
      <trkpt lat="42.7917830" lon="-7.5837310">
        <ele>536.3</ele>
        <time>2021-10-05T10:35:09Z</time>
      </trkpt>
      <trkpt lat="42.7919000" lon="-7.5838560">
        <ele>534.9</ele>
        <time>2021-10-05T10:35:11Z</time>
      </trkpt>
      <trkpt lat="42.7919620" lon="-7.5839160">
        <ele>534.3</ele>
        <time>2021-10-05T10:35:12Z</time>
      </trkpt>
      <trkpt lat="42.7920290" lon="-7.5839630">
        <ele>533.7</ele>
        <time>2021-10-05T10:35:13Z</time>
      </trkpt>
      <trkpt lat="42.7921000" lon="-7.5839820">
        <ele>533.2</ele>
        <time>2021-10-05T10:35:14Z</time>
      </trkpt>
      <trkpt lat="42.7922460" lon="-7.5839700">
        <ele>532.1</ele>
        <time>2021-10-05T10:35:16Z</time>
      </trkpt>
      <trkpt lat="42.7923880" lon="-7.5840200">
        <ele>530.9</ele>
        <time>2021-10-05T10:35:18Z</time>
      </trkpt>
      <trkpt lat="42.7925230" lon="-7.5841340">
        <ele>529.2</ele>
        <time>2021-10-05T10:35:20Z</time>
      </trkpt>
      <trkpt lat="42.7927500" lon="-7.5843510">
        <ele>526.3</ele>
        <time>2021-10-05T10:35:23Z</time>
      </trkpt>
      <trkpt lat="42.7928430" lon="-7.5844100">
        <ele>525.2</ele>
        <time>2021-10-05T10:35:24Z</time>
      </trkpt>
      <trkpt lat="42.7929390" lon="-7.5844700">
        <ele>524.0</ele>
        <time>2021-10-05T10:35:25Z</time>
      </trkpt>
      <trkpt lat="42.7931120" lon="-7.5846070">
        <ele>521.7</ele>
        <time>2021-10-05T10:35:27Z</time>
      </trkpt>
      <trkpt lat="42.7931850" lon="-7.5846850">
        <ele>520.4</ele>
        <time>2021-10-05T10:35:28Z</time>
      </trkpt>
      <trkpt lat="42.7932450" lon="-7.5847760">
        <ele>519.1</ele>
        <time>2021-10-05T10:35:29Z</time>
      </trkpt>
      <trkpt lat="42.7932950" lon="-7.5848780">
        <ele>517.8</ele>
        <time>2021-10-05T10:35:30Z</time>
      </trkpt>
      <trkpt lat="42.7933360" lon="-7.5849880">
        <ele>516.5</ele>
        <time>2021-10-05T10:35:31Z</time>
      </trkpt>
      <trkpt lat="42.7933750" lon="-7.5850990">
        <ele>515.2</ele>
        <time>2021-10-05T10:35:32Z</time>
      </trkpt>
      <trkpt lat="42.7934150" lon="-7.5852090">
        <ele>513.9</ele>
        <time>2021-10-05T10:35:33Z</time>
      </trkpt>
      <trkpt lat="42.7934550" lon="-7.5853170">
        <ele>512.6</ele>
        <time>2021-10-05T10:35:34Z</time>
      </trkpt>
      <trkpt lat="42.7935310" lon="-7.5855560">
        <ele>510.0</ele>
        <time>2021-10-05T10:35:36Z</time>
      </trkpt>
      <trkpt lat="42.7936110" lon="-7.5858130">
        <ele>507.4</ele>
        <time>2021-10-05T10:35:38Z</time>
      </trkpt>
      <trkpt lat="42.7936530" lon="-7.5859460">
        <ele>506.1</ele>
        <time>2021-10-05T10:35:39Z</time>
      </trkpt>
      <trkpt lat="42.7936970" lon="-7.5860730">
        <ele>504.9</ele>
        <time>2021-10-05T10:35:40Z</time>
      </trkpt>
      <trkpt lat="42.7937440" lon="-7.5861940">
        <ele>503.8</ele>
        <time>2021-10-05T10:35:41Z</time>
      </trkpt>
      <trkpt lat="42.7937950" lon="-7.5862980">
        <ele>502.8</ele>
        <time>2021-10-05T10:35:42Z</time>
      </trkpt>
      <trkpt lat="42.7938490" lon="-7.5863910">
        <ele>502.2</ele>
        <time>2021-10-05T10:35:43Z</time>
      </trkpt>
      <trkpt lat="42.7939060" lon="-7.5864830">
        <ele>501.7</ele>
        <time>2021-10-05T10:35:44Z</time>
      </trkpt>
      <trkpt lat="42.7939600" lon="-7.5865610">
        <ele>500.7</ele>
        <time>2021-10-05T10:35:45Z</time>
      </trkpt>
      <trkpt lat="42.7940040" lon="-7.5866250">
        <ele>499.8</ele>
        <time>2021-10-05T10:35:46Z</time>
      </trkpt>
      <trkpt lat="42.7940360" lon="-7.5866820">
        <ele>499.0</ele>
        <time>2021-10-05T10:35:47Z</time>
      </trkpt>
      <trkpt lat="42.7940530" lon="-7.5867350">
        <ele>498.4</ele>
        <time>2021-10-05T10:35:48Z</time>
      </trkpt>
      <trkpt lat="42.7940680" lon="-7.5869120">
        <ele>497.5</ele>
        <time>2021-10-05T10:35:51Z</time>
      </trkpt>
      <trkpt lat="42.7940860" lon="-7.5869780">
        <ele>497.1</ele>
        <time>2021-10-05T10:35:52Z</time>
      </trkpt>
      <trkpt lat="42.7941010" lon="-7.5870460">
        <ele>496.7</ele>
        <time>2021-10-05T10:35:53Z</time>
      </trkpt>
      <trkpt lat="42.7940780" lon="-7.5872570">
        <ele>495.3</ele>
        <time>2021-10-05T10:35:56Z</time>
      </trkpt>
      <trkpt lat="42.7940550" lon="-7.5873320">
        <ele>494.8</ele>
        <time>2021-10-05T10:35:57Z</time>
      </trkpt>
      <trkpt lat="42.7939990" lon="-7.5874910">
        <ele>493.6</ele>
        <time>2021-10-05T10:35:59Z</time>
      </trkpt>
      <trkpt lat="42.7939770" lon="-7.5875730">
        <ele>493.0</ele>
        <time>2021-10-05T10:36:00Z</time>
      </trkpt>
      <trkpt lat="42.7939650" lon="-7.5876590">
        <ele>492.3</ele>
        <time>2021-10-05T10:36:01Z</time>
      </trkpt>
      <trkpt lat="42.7939760" lon="-7.5878400">
        <ele>490.6</ele>
        <time>2021-10-05T10:36:03Z</time>
      </trkpt>
      <trkpt lat="42.7939990" lon="-7.5880060">
        <ele>489.2</ele>
        <time>2021-10-05T10:36:05Z</time>
      </trkpt>
      <trkpt lat="42.7940180" lon="-7.5880680">
        <ele>488.6</ele>
        <time>2021-10-05T10:36:06Z</time>
      </trkpt>
      <trkpt lat="42.7940900" lon="-7.5881770">
        <ele>487.3</ele>
        <time>2021-10-05T10:36:08Z</time>
      </trkpt>
      <trkpt lat="42.7941490" lon="-7.5883320">
        <ele>486.0</ele>
        <time>2021-10-05T10:36:10Z</time>
      </trkpt>
      <trkpt lat="42.7941690" lon="-7.5884190">
        <ele>485.5</ele>
        <time>2021-10-05T10:36:11Z</time>
      </trkpt>
      <trkpt lat="42.7941910" lon="-7.5885980">
        <ele>484.8</ele>
        <time>2021-10-05T10:36:13Z</time>
      </trkpt>
      <trkpt lat="42.7942140" lon="-7.5887780">
        <ele>484.2</ele>
        <time>2021-10-05T10:36:15Z</time>
      </trkpt>
      <trkpt lat="42.7942270" lon="-7.5888650">
        <ele>484.0</ele>
        <time>2021-10-05T10:36:16Z</time>
      </trkpt>
      <trkpt lat="42.7942410" lon="-7.5889460">
        <ele>483.8</ele>
        <time>2021-10-05T10:36:17Z</time>
      </trkpt>
      <trkpt lat="42.7942620" lon="-7.5890780">
        <ele>483.5</ele>
        <time>2021-10-05T10:36:19Z</time>
      </trkpt>
      <trkpt lat="42.7942750" lon="-7.5892130">
        <ele>483.2</ele>
        <time>2021-10-05T10:36:21Z</time>
      </trkpt>
      <trkpt lat="42.7943180" lon="-7.5895270">
        <ele>482.5</ele>
        <time>2021-10-05T10:36:25Z</time>
      </trkpt>
      <trkpt lat="42.7943740" lon="-7.5899680">
        <ele>481.5</ele>
        <time>2021-10-05T10:36:30Z</time>
      </trkpt>
      <trkpt lat="42.7944090" lon="-7.5903350">
        <ele>480.8</ele>
        <time>2021-10-05T10:36:34Z</time>
      </trkpt>
      <trkpt lat="42.7944180" lon="-7.5905210">
        <ele>480.6</ele>
        <time>2021-10-05T10:36:36Z</time>
      </trkpt>
      <trkpt lat="42.7944160" lon="-7.5906120">
        <ele>480.5</ele>
        <time>2021-10-05T10:36:37Z</time>
      </trkpt>
      <trkpt lat="42.7943410" lon="-7.5911340">
        <ele>479.9</ele>
        <time>2021-10-05T10:36:43Z</time>
      </trkpt>
      <trkpt lat="42.7943360" lon="-7.5912200">
        <ele>479.8</ele>
        <time>2021-10-05T10:36:44Z</time>
      </trkpt>
      <trkpt lat="42.7943960" lon="-7.5915610">
        <ele>478.4</ele>
        <time>2021-10-05T10:36:48Z</time>
      </trkpt>
      <trkpt lat="42.7944700" lon="-7.5918390">
        <ele>477.0</ele>
        <time>2021-10-05T10:36:51Z</time>
      </trkpt>
      <trkpt lat="42.7945080" lon="-7.5920270">
        <ele>476.4</ele>
        <time>2021-10-05T10:36:53Z</time>
      </trkpt>
      <trkpt lat="42.7945730" lon="-7.5923170">
        <ele>475.0</ele>
        <time>2021-10-05T10:36:56Z</time>
      </trkpt>
      <trkpt lat="42.7946050" lon="-7.5924140">
        <ele>474.4</ele>
        <time>2021-10-05T10:36:57Z</time>
      </trkpt>
      <trkpt lat="42.7946410" lon="-7.5925080">
        <ele>473.9</ele>
        <time>2021-10-05T10:36:58Z</time>
      </trkpt>
      <trkpt lat="42.7947000" lon="-7.5926940">
        <ele>473.1</ele>
        <time>2021-10-05T10:37:00Z</time>
      </trkpt>
      <trkpt lat="42.7947240" lon="-7.5927870">
        <ele>472.8</ele>
        <time>2021-10-05T10:37:01Z</time>
      </trkpt>
      <trkpt lat="42.7947750" lon="-7.5929700">
        <ele>472.3</ele>
        <time>2021-10-05T10:37:03Z</time>
      </trkpt>
      <trkpt lat="42.7948000" lon="-7.5930610">
        <ele>472.0</ele>
        <time>2021-10-05T10:37:04Z</time>
      </trkpt>
      <trkpt lat="42.7948430" lon="-7.5932440">
        <ele>471.5</ele>
        <time>2021-10-05T10:37:06Z</time>
      </trkpt>
      <trkpt lat="42.7948850" lon="-7.5934290">
        <ele>471.1</ele>
        <time>2021-10-05T10:37:08Z</time>
      </trkpt>
      <trkpt lat="42.7949020" lon="-7.5935250">
        <ele>470.9</ele>
        <time>2021-10-05T10:37:09Z</time>
      </trkpt>
      <trkpt lat="42.7949160" lon="-7.5936200">
        <ele>470.7</ele>
        <time>2021-10-05T10:37:10Z</time>
      </trkpt>
      <trkpt lat="42.7949340" lon="-7.5938090">
        <ele>470.3</ele>
        <time>2021-10-05T10:37:12Z</time>
      </trkpt>
      <trkpt lat="42.7949560" lon="-7.5942940">
        <ele>468.5</ele>
        <time>2021-10-05T10:37:17Z</time>
      </trkpt>
      <trkpt lat="42.7951430" lon="-7.5950090">
        <ele>462.3</ele>
        <time>2021-10-05T10:37:24Z</time>
      </trkpt>
      <trkpt lat="42.7951670" lon="-7.5951060">
        <ele>461.4</ele>
        <time>2021-10-05T10:37:25Z</time>
      </trkpt>
      <trkpt lat="42.7952100" lon="-7.5953250">
        <ele>459.2</ele>
        <time>2021-10-05T10:37:27Z</time>
      </trkpt>
      <trkpt lat="42.7952270" lon="-7.5954420">
        <ele>457.9</ele>
        <time>2021-10-05T10:37:28Z</time>
      </trkpt>
      <trkpt lat="42.7952440" lon="-7.5955660">
        <ele>456.3</ele>
        <time>2021-10-05T10:37:29Z</time>
      </trkpt>
      <trkpt lat="42.7952600" lon="-7.5956840">
        <ele>455.0</ele>
        <time>2021-10-05T10:37:30Z</time>
      </trkpt>
      <trkpt lat="42.7952690" lon="-7.5958010">
        <ele>453.8</ele>
        <time>2021-10-05T10:37:31Z</time>
      </trkpt>
      <trkpt lat="42.7952850" lon="-7.5959990">
        <ele>452.2</ele>
        <time>2021-10-05T10:37:33Z</time>
      </trkpt>
      <trkpt lat="42.7953050" lon="-7.5961390">
        <ele>451.2</ele>
        <time>2021-10-05T10:37:35Z</time>
      </trkpt>
      <trkpt lat="42.7953150" lon="-7.5962070">
        <ele>450.6</ele>
        <time>2021-10-05T10:37:36Z</time>
      </trkpt>
      <trkpt lat="42.7953210" lon="-7.5962720">
        <ele>450.2</ele>
        <time>2021-10-05T10:37:37Z</time>
      </trkpt>
      <trkpt lat="42.7953230" lon="-7.5963310">
        <ele>449.8</ele>
        <time>2021-10-05T10:37:38Z</time>
      </trkpt>
      <trkpt lat="42.7953220" lon="-7.5964130">
        <ele>449.2</ele>
        <time>2021-10-05T10:37:40Z</time>
      </trkpt>
      <trkpt lat="42.7953100" lon="-7.5965320">
        <ele>448.4</ele>
        <time>2021-10-05T10:37:44Z</time>
      </trkpt>
      <trkpt lat="42.7952880" lon="-7.5967300">
        <ele>447.0</ele>
        <time>2021-10-05T10:37:49Z</time>
      </trkpt>
      <trkpt lat="42.7952610" lon="-7.5968200">
        <ele>446.5</ele>
        <time>2021-10-05T10:37:51Z</time>
      </trkpt>
      <trkpt lat="42.7952470" lon="-7.5968650">
        <ele>446.2</ele>
        <time>2021-10-05T10:37:52Z</time>
      </trkpt>
      <trkpt lat="42.7952450" lon="-7.5969070">
        <ele>446.0</ele>
        <time>2021-10-05T10:37:53Z</time>
      </trkpt>
      <trkpt lat="42.7952500" lon="-7.5969570">
        <ele>445.8</ele>
        <time>2021-10-05T10:37:54Z</time>
      </trkpt>
      <trkpt lat="42.7952850" lon="-7.5970730">
        <ele>445.1</ele>
        <time>2021-10-05T10:37:56Z</time>
      </trkpt>
      <trkpt lat="42.7953060" lon="-7.5971430">
        <ele>444.7</ele>
        <time>2021-10-05T10:37:57Z</time>
      </trkpt>
      <trkpt lat="42.7953730" lon="-7.5974070">
        <ele>442.9</ele>
        <time>2021-10-05T10:38:00Z</time>
      </trkpt>
      <trkpt lat="42.7953930" lon="-7.5974980">
        <ele>442.2</ele>
        <time>2021-10-05T10:38:01Z</time>
      </trkpt>
      <trkpt lat="42.7954130" lon="-7.5975900">
        <ele>441.6</ele>
        <time>2021-10-05T10:38:02Z</time>
      </trkpt>
      <trkpt lat="42.7954830" lon="-7.5979040">
        <ele>439.3</ele>
        <time>2021-10-05T10:38:05Z</time>
      </trkpt>
      <trkpt lat="42.7955280" lon="-7.5981460">
        <ele>437.5</ele>
        <time>2021-10-05T10:38:07Z</time>
      </trkpt>
      <trkpt lat="42.7955530" lon="-7.5982740">
        <ele>436.5</ele>
        <time>2021-10-05T10:38:08Z</time>
      </trkpt>
      <trkpt lat="42.7955750" lon="-7.5984040">
        <ele>435.5</ele>
        <time>2021-10-05T10:38:09Z</time>
      </trkpt>
      <trkpt lat="42.7955890" lon="-7.5985330">
        <ele>434.6</ele>
        <time>2021-10-05T10:38:10Z</time>
      </trkpt>
      <trkpt lat="42.7955900" lon="-7.5986580">
        <ele>433.9</ele>
        <time>2021-10-05T10:38:11Z</time>
      </trkpt>
      <trkpt lat="42.7955820" lon="-7.5987810">
        <ele>433.2</ele>
        <time>2021-10-05T10:38:12Z</time>
      </trkpt>
      <trkpt lat="42.7955700" lon="-7.5989030">
        <ele>432.7</ele>
        <time>2021-10-05T10:38:13Z</time>
      </trkpt>
      <trkpt lat="42.7955550" lon="-7.5990260">
        <ele>432.2</ele>
        <time>2021-10-05T10:38:14Z</time>
      </trkpt>
      <trkpt lat="42.7955430" lon="-7.5991450">
        <ele>431.9</ele>
        <time>2021-10-05T10:38:15Z</time>
      </trkpt>
      <trkpt lat="42.7955370" lon="-7.5992620">
        <ele>431.6</ele>
        <time>2021-10-05T10:38:16Z</time>
      </trkpt>
      <trkpt lat="42.7955340" lon="-7.5993780">
        <ele>431.4</ele>
        <time>2021-10-05T10:38:17Z</time>
      </trkpt>
      <trkpt lat="42.7955440" lon="-7.5995960">
        <ele>431.1</ele>
        <time>2021-10-05T10:38:19Z</time>
      </trkpt>
      <trkpt lat="42.7955730" lon="-7.5999880">
        <ele>430.9</ele>
        <time>2021-10-05T10:38:23Z</time>
      </trkpt>
      <trkpt lat="42.7955840" lon="-7.6000770">
        <ele>430.8</ele>
        <time>2021-10-05T10:38:24Z</time>
      </trkpt>
      <trkpt lat="42.7956130" lon="-7.6003230">
        <ele>431.0</ele>
        <time>2021-10-05T10:38:27Z</time>
      </trkpt>
      <trkpt lat="42.7956470" lon="-7.6006020">
        <ele>431.2</ele>
        <time>2021-10-05T10:38:31Z</time>
      </trkpt>
      <trkpt lat="42.7956530" lon="-7.6007580">
        <ele>431.4</ele>
        <time>2021-10-05T10:38:34Z</time>
      </trkpt>
      <trkpt lat="42.7956320" lon="-7.6008750">
        <ele>431.5</ele>
        <time>2021-10-05T10:38:36Z</time>
      </trkpt>
      <trkpt lat="42.7955980" lon="-7.6009940">
        <ele>431.5</ele>
        <time>2021-10-05T10:38:38Z</time>
      </trkpt>
      <trkpt lat="42.7955690" lon="-7.6011710">
        <ele>431.7</ele>
        <time>2021-10-05T10:38:41Z</time>
      </trkpt>
      <trkpt lat="42.7955620" lon="-7.6012290">
        <ele>431.7</ele>
        <time>2021-10-05T10:38:42Z</time>
      </trkpt>
      <trkpt lat="42.7955390" lon="-7.6014120">
        <ele>431.8</ele>
        <time>2021-10-05T10:38:45Z</time>
      </trkpt>
      <trkpt lat="42.7954880" lon="-7.6018940">
        <ele>431.5</ele>
        <time>2021-10-05T10:38:53Z</time>
      </trkpt>
      <trkpt lat="42.7954990" lon="-7.6020150">
        <ele>431.4</ele>
        <time>2021-10-05T10:38:55Z</time>
      </trkpt>
      <trkpt lat="42.7955090" lon="-7.6020730">
        <ele>431.2</ele>
        <time>2021-10-05T10:38:56Z</time>
      </trkpt>
      <trkpt lat="42.7956280" lon="-7.6022530">
        <ele>430.6</ele>
        <time>2021-10-05T10:39:00Z</time>
      </trkpt>
      <trkpt lat="42.7956620" lon="-7.6022950">
        <ele>430.4</ele>
        <time>2021-10-05T10:39:01Z</time>
      </trkpt>
      <trkpt lat="42.7957080" lon="-7.6024630">
        <ele>429.8</ele>
        <time>2021-10-05T10:39:04Z</time>
      </trkpt>
      <trkpt lat="42.7957070" lon="-7.6025270">
        <ele>429.5</ele>
        <time>2021-10-05T10:39:05Z</time>
      </trkpt>
      <trkpt lat="42.7956930" lon="-7.6026640">
        <ele>429.0</ele>
        <time>2021-10-05T10:39:07Z</time>
      </trkpt>
      <trkpt lat="42.7956970" lon="-7.6027370">
        <ele>428.7</ele>
        <time>2021-10-05T10:39:08Z</time>
      </trkpt>
      <trkpt lat="42.7957030" lon="-7.6028640">
        <ele>428.3</ele>
        <time>2021-10-05T10:39:10Z</time>
      </trkpt>
      <trkpt lat="42.7957030" lon="-7.6029200">
        <ele>428.2</ele>
        <time>2021-10-05T10:39:11Z</time>
      </trkpt>
      <trkpt lat="42.7956790" lon="-7.6031630">
        <ele>427.6</ele>
        <time>2021-10-05T10:39:15Z</time>
      </trkpt>
      <trkpt lat="42.7956620" lon="-7.6032960">
        <ele>427.3</ele>
        <time>2021-10-05T10:39:17Z</time>
      </trkpt>
      <trkpt lat="42.7956210" lon="-7.6034200">
        <ele>427.0</ele>
        <time>2021-10-05T10:39:19Z</time>
      </trkpt>
      <trkpt lat="42.7954670" lon="-7.6035820">
        <ele>426.9</ele>
        <time>2021-10-05T10:39:23Z</time>
      </trkpt>
      <trkpt lat="42.7953970" lon="-7.6036760">
        <ele>427.0</ele>
        <time>2021-10-05T10:39:25Z</time>
      </trkpt>
      <trkpt lat="42.7953440" lon="-7.6037920">
        <ele>427.0</ele>
        <time>2021-10-05T10:39:27Z</time>
      </trkpt>
      <trkpt lat="42.7952810" lon="-7.6039010">
        <ele>427.0</ele>
        <time>2021-10-05T10:39:29Z</time>
      </trkpt>
      <trkpt lat="42.7952060" lon="-7.6040070">
        <ele>426.9</ele>
        <time>2021-10-05T10:39:31Z</time>
      </trkpt>
      <trkpt lat="42.7951710" lon="-7.6040630">
        <ele>426.8</ele>
        <time>2021-10-05T10:39:32Z</time>
      </trkpt>
      <trkpt lat="42.7951250" lon="-7.6042040">
        <ele>426.6</ele>
        <time>2021-10-05T10:39:34Z</time>
      </trkpt>
      <trkpt lat="42.7951150" lon="-7.6043530">
        <ele>426.4</ele>
        <time>2021-10-05T10:39:36Z</time>
      </trkpt>
      <trkpt lat="42.7951130" lon="-7.6044280">
        <ele>426.3</ele>
        <time>2021-10-05T10:39:37Z</time>
      </trkpt>
      <trkpt lat="42.7951320" lon="-7.6046610">
        <ele>426.0</ele>
        <time>2021-10-05T10:39:40Z</time>
      </trkpt>
      <trkpt lat="42.7951430" lon="-7.6047460">
        <ele>425.8</ele>
        <time>2021-10-05T10:39:41Z</time>
      </trkpt>
      <trkpt lat="42.7951570" lon="-7.6048320">
        <ele>425.6</ele>
        <time>2021-10-05T10:39:42Z</time>
      </trkpt>
      <trkpt lat="42.7952050" lon="-7.6050020">
        <ele>425.2</ele>
        <time>2021-10-05T10:39:44Z</time>
      </trkpt>
      <trkpt lat="42.7953260" lon="-7.6054530">
        <ele>424.0</ele>
        <time>2021-10-05T10:39:49Z</time>
      </trkpt>
      <trkpt lat="42.7954620" lon="-7.6058410">
        <ele>423.1</ele>
        <time>2021-10-05T10:39:53Z</time>
      </trkpt>
      <trkpt lat="42.7954900" lon="-7.6059420">
        <ele>423.0</ele>
        <time>2021-10-05T10:39:54Z</time>
      </trkpt>
      <trkpt lat="42.7955320" lon="-7.6061450">
        <ele>422.9</ele>
        <time>2021-10-05T10:39:56Z</time>
      </trkpt>
      <trkpt lat="42.7955830" lon="-7.6064370">
        <ele>423.2</ele>
        <time>2021-10-05T10:39:59Z</time>
      </trkpt>
      <trkpt lat="42.7956330" lon="-7.6067160">
        <ele>423.4</ele>
        <time>2021-10-05T10:40:02Z</time>
      </trkpt>
      <trkpt lat="42.7956550" lon="-7.6069040">
        <ele>423.6</ele>
        <time>2021-10-05T10:40:04Z</time>
      </trkpt>
      <trkpt lat="42.7956800" lon="-7.6070860">
        <ele>423.8</ele>
        <time>2021-10-05T10:40:06Z</time>
      </trkpt>
      <trkpt lat="42.7957050" lon="-7.6072590">
        <ele>423.9</ele>
        <time>2021-10-05T10:40:08Z</time>
      </trkpt>
      <trkpt lat="42.7957360" lon="-7.6075940">
        <ele>424.3</ele>
        <time>2021-10-05T10:40:12Z</time>
      </trkpt>
      <trkpt lat="42.7957480" lon="-7.6077550">
        <ele>424.5</ele>
        <time>2021-10-05T10:40:14Z</time>
      </trkpt>
      <trkpt lat="42.7958220" lon="-7.6081190">
        <ele>425.0</ele>
        <time>2021-10-05T10:40:19Z</time>
      </trkpt>
      <trkpt lat="42.7959370" lon="-7.6084410">
        <ele>425.4</ele>
        <time>2021-10-05T10:40:24Z</time>
      </trkpt>
      <trkpt lat="42.7959550" lon="-7.6085090">
        <ele>425.4</ele>
        <time>2021-10-05T10:40:25Z</time>
      </trkpt>
      <trkpt lat="42.7960000" lon="-7.6087870">
        <ele>425.6</ele>
        <time>2021-10-05T10:40:29Z</time>
      </trkpt>
      <trkpt lat="42.7960360" lon="-7.6089890">
        <ele>425.7</ele>
        <time>2021-10-05T10:40:32Z</time>
      </trkpt>
      <trkpt lat="42.7960720" lon="-7.6091160">
        <ele>425.7</ele>
        <time>2021-10-05T10:40:34Z</time>
      </trkpt>
      <trkpt lat="42.7961400" lon="-7.6092060">
        <ele>425.6</ele>
        <time>2021-10-05T10:40:36Z</time>
      </trkpt>
      <trkpt lat="42.7962770" lon="-7.6092780">
        <ele>425.6</ele>
        <time>2021-10-05T10:40:39Z</time>
      </trkpt>
      <trkpt lat="42.7964530" lon="-7.6092070">
        <ele>425.6</ele>
        <time>2021-10-05T10:40:43Z</time>
      </trkpt>
      <trkpt lat="42.7964880" lon="-7.6091710">
        <ele>425.6</ele>
        <time>2021-10-05T10:40:44Z</time>
      </trkpt>
      <trkpt lat="42.7965190" lon="-7.6091380">
        <ele>425.6</ele>
        <time>2021-10-05T10:40:45Z</time>
      </trkpt>
      <trkpt lat="42.7965720" lon="-7.6090890">
        <ele>425.6</ele>
        <time>2021-10-05T10:40:47Z</time>
      </trkpt>
      <trkpt lat="42.7966140" lon="-7.6090520">
        <ele>425.6</ele>
        <time>2021-10-05T10:40:49Z</time>
      </trkpt>
      <trkpt lat="42.7966350" lon="-7.6090400">
        <ele>425.5</ele>
        <time>2021-10-05T10:40:52Z</time>
      </trkpt>
      <trkpt lat="42.7966330" lon="-7.6091090">
        <ele>425.3</ele>
        <time>2021-10-05T10:41:02Z</time>
      </trkpt>
      <trkpt lat="42.7966250" lon="-7.6091900">
        <ele>425.1</ele>
        <time>2021-10-05T10:41:04Z</time>
      </trkpt>
      <trkpt lat="42.7966170" lon="-7.6093120">
        <ele>424.7</ele>
        <time>2021-10-05T10:41:06Z</time>
      </trkpt>
      <trkpt lat="42.7966120" lon="-7.6094400">
        <ele>424.2</ele>
        <time>2021-10-05T10:41:08Z</time>
      </trkpt>
      <trkpt lat="42.7965800" lon="-7.6097460">
        <ele>422.3</ele>
        <time>2021-10-05T10:41:12Z</time>
      </trkpt>
      <trkpt lat="42.7965430" lon="-7.6099290">
        <ele>420.9</ele>
        <time>2021-10-05T10:41:14Z</time>
      </trkpt>
      <trkpt lat="42.7964970" lon="-7.6101250">
        <ele>419.2</ele>
        <time>2021-10-05T10:41:16Z</time>
      </trkpt>
      <trkpt lat="42.7964580" lon="-7.6103290">
        <ele>417.6</ele>
        <time>2021-10-05T10:41:18Z</time>
      </trkpt>
      <trkpt lat="42.7964500" lon="-7.6104320">
        <ele>416.8</ele>
        <time>2021-10-05T10:41:19Z</time>
      </trkpt>
      <trkpt lat="42.7964790" lon="-7.6106310">
        <ele>415.3</ele>
        <time>2021-10-05T10:41:21Z</time>
      </trkpt>
      <trkpt lat="42.7965150" lon="-7.6107250">
        <ele>414.5</ele>
        <time>2021-10-05T10:41:22Z</time>
      </trkpt>
      <trkpt lat="42.7966240" lon="-7.6108990">
        <ele>412.8</ele>
        <time>2021-10-05T10:41:24Z</time>
      </trkpt>
      <trkpt lat="42.7967630" lon="-7.6110570">
        <ele>411.1</ele>
        <time>2021-10-05T10:41:26Z</time>
      </trkpt>
      <trkpt lat="42.7969160" lon="-7.6112160">
        <ele>409.5</ele>
        <time>2021-10-05T10:41:28Z</time>
      </trkpt>
      <trkpt lat="42.7970740" lon="-7.6113740">
        <ele>408.1</ele>
        <time>2021-10-05T10:41:30Z</time>
      </trkpt>
      <trkpt lat="42.7972340" lon="-7.6115370">
        <ele>406.9</ele>
        <time>2021-10-05T10:41:32Z</time>
      </trkpt>
      <trkpt lat="42.7973930" lon="-7.6117020">
        <ele>405.9</ele>
        <time>2021-10-05T10:41:34Z</time>
      </trkpt>
      <trkpt lat="42.7974730" lon="-7.6117840">
        <ele>405.4</ele>
        <time>2021-10-05T10:41:35Z</time>
      </trkpt>
      <trkpt lat="42.7975520" lon="-7.6118660">
        <ele>405.1</ele>
        <time>2021-10-05T10:41:36Z</time>
      </trkpt>
      <trkpt lat="42.7977070" lon="-7.6120280">
        <ele>404.4</ele>
        <time>2021-10-05T10:41:38Z</time>
      </trkpt>
      <trkpt lat="42.7979130" lon="-7.6122560">
        <ele>404.1</ele>
        <time>2021-10-05T10:41:41Z</time>
      </trkpt>
      <trkpt lat="42.7980070" lon="-7.6123960">
        <ele>404.3</ele>
        <time>2021-10-05T10:41:43Z</time>
      </trkpt>
      <trkpt lat="42.7980830" lon="-7.6127270">
        <ele>404.7</ele>
        <time>2021-10-05T10:41:48Z</time>
      </trkpt>
      <trkpt lat="42.7980700" lon="-7.6128240">
        <ele>404.9</ele>
        <time>2021-10-05T10:41:54Z</time>
      </trkpt>
      <trkpt lat="42.7980680" lon="-7.6127640">
        <ele>404.7</ele>
        <time>2021-10-05T10:41:56Z</time>
      </trkpt>
      <trkpt lat="42.7980490" lon="-7.6125480">
        <ele>404.4</ele>
        <time>2021-10-05T10:42:01Z</time>
      </trkpt>
      <trkpt lat="42.7982180" lon="-7.6125900">
        <ele>403.4</ele>
        <time>2021-10-05T10:42:06Z</time>
      </trkpt>
      <trkpt lat="42.7984580" lon="-7.6127460">
        <ele>402.5</ele>
        <time>2021-10-05T10:42:11Z</time>
      </trkpt>
      <trkpt lat="42.7985980" lon="-7.6128390">
        <ele>402.0</ele>
        <time>2021-10-05T10:42:14Z</time>
      </trkpt>
      <trkpt lat="42.7987350" lon="-7.6129310">
        <ele>401.4</ele>
        <time>2021-10-05T10:42:17Z</time>
      </trkpt>
      <trkpt lat="42.7987810" lon="-7.6129680">
        <ele>401.1</ele>
        <time>2021-10-05T10:42:18Z</time>
      </trkpt>
      <trkpt lat="42.7989990" lon="-7.6132080">
        <ele>399.8</ele>
        <time>2021-10-05T10:42:25Z</time>
      </trkpt>
      <trkpt lat="42.7990510" lon="-7.6132890">
        <ele>399.3</ele>
        <time>2021-10-05T10:42:27Z</time>
      </trkpt>
      <trkpt lat="42.7990750" lon="-7.6133390">
        <ele>399.1</ele>
        <time>2021-10-05T10:42:28Z</time>
      </trkpt>
      <trkpt lat="42.7990980" lon="-7.6133910">
        <ele>398.9</ele>
        <time>2021-10-05T10:42:29Z</time>
      </trkpt>
      <trkpt lat="42.7991220" lon="-7.6134440">
        <ele>398.6</ele>
        <time>2021-10-05T10:42:30Z</time>
      </trkpt>
      <trkpt lat="42.7991970" lon="-7.6136120">
        <ele>397.9</ele>
        <time>2021-10-05T10:42:33Z</time>
      </trkpt>
      <trkpt lat="42.7992390" lon="-7.6137420">
        <ele>397.4</ele>
        <time>2021-10-05T10:42:35Z</time>
      </trkpt>
      <trkpt lat="42.7992810" lon="-7.6139570">
        <ele>396.7</ele>
        <time>2021-10-05T10:42:38Z</time>
      </trkpt>
      <trkpt lat="42.7992940" lon="-7.6140280">
        <ele>396.5</ele>
        <time>2021-10-05T10:42:39Z</time>
      </trkpt>
      <trkpt lat="42.7993540" lon="-7.6141450">
        <ele>396.2</ele>
        <time>2021-10-05T10:42:41Z</time>
      </trkpt>
      <trkpt lat="42.7993980" lon="-7.6141970">
        <ele>395.9</ele>
        <time>2021-10-05T10:42:42Z</time>
      </trkpt>
      <trkpt lat="42.7994480" lon="-7.6142490">
        <ele>395.7</ele>
        <time>2021-10-05T10:42:43Z</time>
      </trkpt>
      <trkpt lat="42.7995570" lon="-7.6143440">
        <ele>395.3</ele>
        <time>2021-10-05T10:42:45Z</time>
      </trkpt>
      <trkpt lat="42.7996690" lon="-7.6144410">
        <ele>395.0</ele>
        <time>2021-10-05T10:42:47Z</time>
      </trkpt>
      <trkpt lat="42.7997800" lon="-7.6145360">
        <ele>394.8</ele>
        <time>2021-10-05T10:42:49Z</time>
      </trkpt>
      <trkpt lat="42.7998350" lon="-7.6145860">
        <ele>394.7</ele>
        <time>2021-10-05T10:42:50Z</time>
      </trkpt>
      <trkpt lat="42.7999390" lon="-7.6147090">
        <ele>394.4</ele>
        <time>2021-10-05T10:42:52Z</time>
      </trkpt>
      <trkpt lat="42.7999880" lon="-7.6147760">
        <ele>394.3</ele>
        <time>2021-10-05T10:42:53Z</time>
      </trkpt>
      <trkpt lat="42.8000740" lon="-7.6149240">
        <ele>394.0</ele>
        <time>2021-10-05T10:42:55Z</time>
      </trkpt>
      <trkpt lat="42.8001110" lon="-7.6150020">
        <ele>393.8</ele>
        <time>2021-10-05T10:42:56Z</time>
      </trkpt>
      <trkpt lat="42.8002150" lon="-7.6152950">
        <ele>392.5</ele>
        <time>2021-10-05T10:43:00Z</time>
      </trkpt>
      <trkpt lat="42.8002490" lon="-7.6154170">
        <ele>391.7</ele>
        <time>2021-10-05T10:43:02Z</time>
      </trkpt>
      <trkpt lat="42.8002750" lon="-7.6155680">
        <ele>390.1</ele>
        <time>2021-10-05T10:43:07Z</time>
      </trkpt>
      <trkpt lat="42.8003790" lon="-7.6157280">
        <ele>387.0</ele>
        <time>2021-10-05T10:43:13Z</time>
      </trkpt>
      <trkpt lat="42.8004850" lon="-7.6158510">
        <ele>383.9</ele>
        <time>2021-10-05T10:43:19Z</time>
      </trkpt>
      <trkpt lat="42.8005170" lon="-7.6158830">
        <ele>383.0</ele>
        <time>2021-10-05T10:43:21Z</time>
      </trkpt>
      <trkpt lat="42.8005420" lon="-7.6159350">
        <ele>381.8</ele>
        <time>2021-10-05T10:43:23Z</time>
      </trkpt>
      <trkpt lat="42.8005590" lon="-7.6159810">
        <ele>380.7</ele>
        <time>2021-10-05T10:43:25Z</time>
      </trkpt>
      <trkpt lat="42.8005600" lon="-7.6159880">
        <ele>380.6</ele>
        <time>2021-10-05T10:43:26Z</time>
      </trkpt>
      <trkpt lat="42.8008300" lon="-7.6171300">
        <ele>358.6</ele>
        <time>2021-10-05T10:49:27Z</time>
      </trkpt>
      <trkpt lat="42.8009600" lon="-7.6169810">
        <ele>357.7</ele>
        <time>2021-10-05T10:49:33Z</time>
      </trkpt>
      <trkpt lat="42.8010350" lon="-7.6168600">
        <ele>357.1</ele>
        <time>2021-10-05T10:49:36Z</time>
      </trkpt>
      <trkpt lat="42.8010830" lon="-7.6167800">
        <ele>356.7</ele>
        <time>2021-10-05T10:49:38Z</time>
      </trkpt>
      <trkpt lat="42.8011050" lon="-7.6167430">
        <ele>356.5</ele>
        <time>2021-10-05T10:49:39Z</time>
      </trkpt>
      <trkpt lat="42.8013200" lon="-7.6165720">
        <ele>355.2</ele>
        <time>2021-10-05T10:49:47Z</time>
      </trkpt>
      <trkpt lat="42.8014080" lon="-7.6164750">
        <ele>354.7</ele>
        <time>2021-10-05T10:49:50Z</time>
      </trkpt>
      <trkpt lat="42.8015050" lon="-7.6163380">
        <ele>354.1</ele>
        <time>2021-10-05T10:49:53Z</time>
      </trkpt>
      <trkpt lat="42.8015700" lon="-7.6162290">
        <ele>353.7</ele>
        <time>2021-10-05T10:49:55Z</time>
      </trkpt>
      <trkpt lat="42.8016410" lon="-7.6161110">
        <ele>353.2</ele>
        <time>2021-10-05T10:49:57Z</time>
      </trkpt>
      <trkpt lat="42.8016830" lon="-7.6160550">
        <ele>353.0</ele>
        <time>2021-10-05T10:49:58Z</time>
      </trkpt>
      <trkpt lat="42.8017720" lon="-7.6159430">
        <ele>352.5</ele>
        <time>2021-10-05T10:50:00Z</time>
      </trkpt>
      <trkpt lat="42.8018140" lon="-7.6158860">
        <ele>352.3</ele>
        <time>2021-10-05T10:50:01Z</time>
      </trkpt>
      <trkpt lat="42.8019300" lon="-7.6157340">
        <ele>351.9</ele>
        <time>2021-10-05T10:50:04Z</time>
      </trkpt>
      <trkpt lat="42.8020130" lon="-7.6155910">
        <ele>351.8</ele>
        <time>2021-10-05T10:50:07Z</time>
      </trkpt>
      <trkpt lat="42.8020810" lon="-7.6153820">
        <ele>351.8</ele>
        <time>2021-10-05T10:50:11Z</time>
      </trkpt>
      <trkpt lat="42.8021450" lon="-7.6151110">
        <ele>351.9</ele>
        <time>2021-10-05T10:50:18Z</time>
      </trkpt>
      <trkpt lat="42.8021640" lon="-7.6150990">
        <ele>352.0</ele>
        <time>2021-10-05T10:50:21Z</time>
      </trkpt>
      <trkpt lat="42.8021640" lon="-7.6150970">
        <ele>352.0</ele>
        <time>2021-10-05T10:50:22Z</time>
      </trkpt>
      <trkpt lat="42.8020740" lon="-7.6150990">
        <ele>352.0</ele>
        <time>2021-10-05T10:54:19Z</time>
      </trkpt>
      <trkpt lat="42.8020950" lon="-7.6150750">
        <ele>352.0</ele>
        <time>2021-10-05T10:54:20Z</time>
      </trkpt>
      <trkpt lat="42.8022680" lon="-7.6150770">
        <ele>352.1</ele>
        <time>2021-10-05T10:54:25Z</time>
      </trkpt>
      <trkpt lat="42.8023060" lon="-7.6150980">
        <ele>352.1</ele>
        <time>2021-10-05T10:54:26Z</time>
      </trkpt>
      <trkpt lat="42.8024230" lon="-7.6151700">
        <ele>352.1</ele>
        <time>2021-10-05T10:54:29Z</time>
      </trkpt>
      <trkpt lat="42.8026090" lon="-7.6152860">
        <ele>352.0</ele>
        <time>2021-10-05T10:54:34Z</time>
      </trkpt>
      <trkpt lat="42.8027020" lon="-7.6153450">
        <ele>352.0</ele>
        <time>2021-10-05T10:54:37Z</time>
      </trkpt>
      <trkpt lat="42.8031880" lon="-7.6156700">
        <ele>352.1</ele>
        <time>2021-10-05T10:54:53Z</time>
      </trkpt>
      <trkpt lat="42.8032180" lon="-7.6156900">
        <ele>352.1</ele>
        <time>2021-10-05T10:54:54Z</time>
      </trkpt>
      <trkpt lat="42.8032990" lon="-7.6157520">
        <ele>352.0</ele>
        <time>2021-10-05T10:54:57Z</time>
      </trkpt>
      <trkpt lat="42.8034420" lon="-7.6158390">
        <ele>351.9</ele>
        <time>2021-10-05T10:55:02Z</time>
      </trkpt>
      <trkpt lat="42.8036540" lon="-7.6159740">
        <ele>351.9</ele>
        <time>2021-10-05T10:55:08Z</time>
      </trkpt>
      <trkpt lat="42.8036930" lon="-7.6159940">
        <ele>351.9</ele>
        <time>2021-10-05T10:55:09Z</time>
      </trkpt>
      <trkpt lat="42.8040530" lon="-7.6162290">
        <ele>351.9</ele>
        <time>2021-10-05T10:55:19Z</time>
      </trkpt>
      <trkpt lat="42.8042260" lon="-7.6163450">
        <ele>351.9</ele>
        <time>2021-10-05T10:55:24Z</time>
      </trkpt>
      <trkpt lat="42.8043280" lon="-7.6164170">
        <ele>351.9</ele>
        <time>2021-10-05T10:55:27Z</time>
      </trkpt>
      <trkpt lat="42.8047870" lon="-7.6167000">
        <ele>352.2</ele>
        <time>2021-10-05T10:55:41Z</time>
      </trkpt>
      <trkpt lat="42.8049250" lon="-7.6167560">
        <ele>352.3</ele>
        <time>2021-10-05T10:55:45Z</time>
      </trkpt>
      <trkpt lat="42.8050380" lon="-7.6167500">
        <ele>352.6</ele>
        <time>2021-10-05T10:55:48Z</time>
      </trkpt>
      <trkpt lat="42.8051070" lon="-7.6167770">
        <ele>352.4</ele>
        <time>2021-10-05T10:55:50Z</time>
      </trkpt>
      <trkpt lat="42.8051550" lon="-7.6168460">
        <ele>352.3</ele>
        <time>2021-10-05T10:55:52Z</time>
      </trkpt>
      <trkpt lat="42.8051700" lon="-7.6169470">
        <ele>352.4</ele>
        <time>2021-10-05T10:55:54Z</time>
      </trkpt>
      <trkpt lat="42.8051370" lon="-7.6171090">
        <ele>352.4</ele>
        <time>2021-10-05T10:55:57Z</time>
      </trkpt>
      <trkpt lat="42.8051100" lon="-7.6172180">
        <ele>352.3</ele>
        <time>2021-10-05T10:55:59Z</time>
      </trkpt>
      <trkpt lat="42.8051140" lon="-7.6175060">
        <ele>352.2</ele>
        <time>2021-10-05T10:56:04Z</time>
      </trkpt>
      <trkpt lat="42.8051430" lon="-7.6176180">
        <ele>352.2</ele>
        <time>2021-10-05T10:56:06Z</time>
      </trkpt>
      <trkpt lat="42.8053590" lon="-7.6183500">
        <ele>352.1</ele>
        <time>2021-10-05T10:56:19Z</time>
      </trkpt>
      <trkpt lat="42.8054600" lon="-7.6185490">
        <ele>352.1</ele>
        <time>2021-10-05T10:56:23Z</time>
      </trkpt>
      <trkpt lat="42.8055510" lon="-7.6186700">
        <ele>352.0</ele>
        <time>2021-10-05T10:56:26Z</time>
      </trkpt>
      <trkpt lat="42.8056690" lon="-7.6187840">
        <ele>352.0</ele>
        <time>2021-10-05T10:56:30Z</time>
      </trkpt>
      <trkpt lat="42.8057310" lon="-7.6189050">
        <ele>352.0</ele>
        <time>2021-10-05T10:56:34Z</time>
      </trkpt>
      <trkpt lat="42.8055520" lon="-7.6193710">
        <ele>351.5</ele>
        <time>2021-10-05T10:56:46Z</time>
      </trkpt>
      <trkpt lat="42.8055330" lon="-7.6194070">
        <ele>351.5</ele>
        <time>2021-10-05T10:56:47Z</time>
      </trkpt>
      <trkpt lat="42.8054970" lon="-7.6194810">
        <ele>351.4</ele>
        <time>2021-10-05T10:56:49Z</time>
      </trkpt>
      <trkpt lat="42.8054530" lon="-7.6195880">
        <ele>351.2</ele>
        <time>2021-10-05T10:56:52Z</time>
      </trkpt>
      <trkpt lat="42.8054180" lon="-7.6196920">
        <ele>351.1</ele>
        <time>2021-10-05T10:56:55Z</time>
      </trkpt>
      <trkpt lat="42.8053560" lon="-7.6198180">
        <ele>350.9</ele>
        <time>2021-10-05T10:56:59Z</time>
      </trkpt>
      <trkpt lat="42.8053270" lon="-7.6199050">
        <ele>350.8</ele>
        <time>2021-10-05T10:57:02Z</time>
      </trkpt>
      <trkpt lat="42.8052940" lon="-7.6199750">
        <ele>350.7</ele>
        <time>2021-10-05T10:57:06Z</time>
      </trkpt>
      <trkpt lat="42.8051990" lon="-7.6199050">
        <ele>350.5</ele>
        <time>2021-10-05T10:57:13Z</time>
      </trkpt>
      <trkpt lat="42.8051490" lon="-7.6198860">
        <ele>350.4</ele>
        <time>2021-10-05T10:57:15Z</time>
      </trkpt>
      <trkpt lat="42.8047420" lon="-7.6197370">
        <ele>349.6</ele>
        <time>2021-10-05T10:57:26Z</time>
      </trkpt>
      <trkpt lat="42.8046160" lon="-7.6196670">
        <ele>349.4</ele>
        <time>2021-10-05T10:57:29Z</time>
      </trkpt>
      <trkpt lat="42.8044980" lon="-7.6195750">
        <ele>349.3</ele>
        <time>2021-10-05T10:57:32Z</time>
      </trkpt>
      <trkpt lat="42.8041960" lon="-7.6192610">
        <ele>349.3</ele>
        <time>2021-10-05T10:57:41Z</time>
      </trkpt>
      <trkpt lat="42.8038320" lon="-7.6193040">
        <ele>349.3</ele>
        <time>2021-10-05T10:57:50Z</time>
      </trkpt>
      <trkpt lat="42.8037980" lon="-7.6193360">
        <ele>349.3</ele>
        <time>2021-10-05T10:57:51Z</time>
      </trkpt>
      <trkpt lat="42.8037330" lon="-7.6194100">
        <ele>349.2</ele>
        <time>2021-10-05T10:57:53Z</time>
      </trkpt>
      <trkpt lat="42.8036420" lon="-7.6195400">
        <ele>349.2</ele>
        <time>2021-10-05T10:57:56Z</time>
      </trkpt>
      <trkpt lat="42.8033830" lon="-7.6199410">
        <ele>349.0</ele>
        <time>2021-10-05T10:58:04Z</time>
      </trkpt>
      <trkpt lat="42.8032170" lon="-7.6201700">
        <ele>349.0</ele>
        <time>2021-10-05T10:58:09Z</time>
      </trkpt>
      <trkpt lat="42.8031550" lon="-7.6202680">
        <ele>349.0</ele>
        <time>2021-10-05T10:58:11Z</time>
      </trkpt>
      <trkpt lat="42.8030300" lon="-7.6204670">
        <ele>349.2</ele>
        <time>2021-10-05T10:58:15Z</time>
      </trkpt>
      <trkpt lat="42.8029960" lon="-7.6205140">
        <ele>349.2</ele>
        <time>2021-10-05T10:58:16Z</time>
      </trkpt>
      <trkpt lat="42.8028330" lon="-7.6206790">
        <ele>349.4</ele>
        <time>2021-10-05T10:58:21Z</time>
      </trkpt>
      <trkpt lat="42.8027770" lon="-7.6206990">
        <ele>349.5</ele>
        <time>2021-10-05T10:58:25Z</time>
      </trkpt>
      <trkpt lat="42.8027670" lon="-7.6207330">
        <ele>349.5</ele>
        <time>2021-10-05T10:59:03Z</time>
      </trkpt>
      <trkpt lat="42.8027570" lon="-7.6207610">
        <ele>349.5</ele>
        <time>2021-10-05T10:59:04Z</time>
      </trkpt>
      <trkpt lat="42.8027280" lon="-7.6208310">
        <ele>349.5</ele>
        <time>2021-10-05T10:59:06Z</time>
      </trkpt>
      <trkpt lat="42.8026960" lon="-7.6209120">
        <ele>349.4</ele>
        <time>2021-10-05T10:59:08Z</time>
      </trkpt>
      <trkpt lat="42.8026460" lon="-7.6210750">
        <ele>349.3</ele>
        <time>2021-10-05T10:59:11Z</time>
      </trkpt>
      <trkpt lat="42.8024560" lon="-7.6213730">
        <ele>348.7</ele>
        <time>2021-10-05T10:59:16Z</time>
      </trkpt>
      <trkpt lat="42.8022490" lon="-7.6215850">
        <ele>348.7</ele>
        <time>2021-10-05T10:59:20Z</time>
      </trkpt>
      <trkpt lat="42.8020950" lon="-7.6217210">
        <ele>349.0</ele>
        <time>2021-10-05T10:59:23Z</time>
      </trkpt>
      <trkpt lat="42.8019100" lon="-7.6218720">
        <ele>349.3</ele>
        <time>2021-10-05T10:59:27Z</time>
      </trkpt>
      <trkpt lat="42.8017300" lon="-7.6220470">
        <ele>349.6</ele>
        <time>2021-10-05T10:59:32Z</time>
      </trkpt>
      <trkpt lat="42.8016740" lon="-7.6221040">
        <ele>349.8</ele>
        <time>2021-10-05T10:59:34Z</time>
      </trkpt>
      <trkpt lat="42.8016000" lon="-7.6221890">
        <ele>350.0</ele>
        <time>2021-10-05T10:59:37Z</time>
      </trkpt>
      <trkpt lat="42.8015170" lon="-7.6222740">
        <ele>350.3</ele>
        <time>2021-10-05T10:59:41Z</time>
      </trkpt>
      <trkpt lat="42.8014720" lon="-7.6223460">
        <ele>350.5</ele>
        <time>2021-10-05T10:59:45Z</time>
      </trkpt>
      <trkpt lat="42.8014320" lon="-7.6224520">
        <ele>351.1</ele>
        <time>2021-10-05T10:59:50Z</time>
      </trkpt>
      <trkpt lat="42.8014200" lon="-7.6224720">
        <ele>351.2</ele>
        <time>2021-10-05T10:59:51Z</time>
      </trkpt>
      <trkpt lat="42.8013180" lon="-7.6226350">
        <ele>352.5</ele>
        <time>2021-10-05T10:59:59Z</time>
      </trkpt>
      <trkpt lat="42.8012920" lon="-7.6226760">
        <ele>352.8</ele>
        <time>2021-10-05T11:00:01Z</time>
      </trkpt>
      <trkpt lat="42.8012500" lon="-7.6227660">
        <ele>353.5</ele>
        <time>2021-10-05T11:00:05Z</time>
      </trkpt>
      <trkpt lat="42.8012310" lon="-7.6228160">
        <ele>353.9</ele>
        <time>2021-10-05T11:00:07Z</time>
      </trkpt>
      <trkpt lat="42.8011780" lon="-7.6229690">
        <ele>355.3</ele>
        <time>2021-10-05T11:00:13Z</time>
      </trkpt>
      <trkpt lat="42.8011770" lon="-7.6230180">
        <ele>355.7</ele>
        <time>2021-10-05T11:00:15Z</time>
      </trkpt>
      <trkpt lat="42.8011530" lon="-7.6231040">
        <ele>356.7</ele>
        <time>2021-10-05T11:00:19Z</time>
      </trkpt>
      <trkpt lat="42.8011500" lon="-7.6231290">
        <ele>357.0</ele>
        <time>2021-10-05T11:00:20Z</time>
      </trkpt>
      <trkpt lat="42.8011290" lon="-7.6231720">
        <ele>357.5</ele>
        <time>2021-10-05T11:00:22Z</time>
      </trkpt>
      <trkpt lat="42.8010900" lon="-7.6232310">
        <ele>358.3</ele>
        <time>2021-10-05T11:00:25Z</time>
      </trkpt>
      <trkpt lat="42.8010500" lon="-7.6232780">
        <ele>359.0</ele>
        <time>2021-10-05T11:00:28Z</time>
      </trkpt>
      <trkpt lat="42.8010370" lon="-7.6232940">
        <ele>359.2</ele>
        <time>2021-10-05T11:00:29Z</time>
      </trkpt>
      <trkpt lat="42.8009870" lon="-7.6233700">
        <ele>360.0</ele>
        <time>2021-10-05T11:00:33Z</time>
      </trkpt>
      <trkpt lat="42.8009340" lon="-7.6235140">
        <ele>361.2</ele>
        <time>2021-10-05T11:00:39Z</time>
      </trkpt>
      <trkpt lat="42.8008830" lon="-7.6236660">
        <ele>362.5</ele>
        <time>2021-10-05T11:00:45Z</time>
      </trkpt>
      <trkpt lat="42.8008510" lon="-7.6237680">
        <ele>363.4</ele>
        <time>2021-10-05T11:00:49Z</time>
      </trkpt>
      <trkpt lat="42.8007840" lon="-7.6239670">
        <ele>365.1</ele>
        <time>2021-10-05T11:00:57Z</time>
      </trkpt>
      <trkpt lat="42.8007520" lon="-7.6240630">
        <ele>366.0</ele>
        <time>2021-10-05T11:01:01Z</time>
      </trkpt>
      <trkpt lat="42.8006990" lon="-7.6241710">
        <ele>367.2</ele>
        <time>2021-10-05T11:01:06Z</time>
      </trkpt>
      <trkpt lat="42.8006420" lon="-7.6242660">
        <ele>368.4</ele>
        <time>2021-10-05T11:01:11Z</time>
      </trkpt>
      <trkpt lat="42.8005920" lon="-7.6243760">
        <ele>369.7</ele>
        <time>2021-10-05T11:01:16Z</time>
      </trkpt>
      <trkpt lat="42.8005440" lon="-7.6244580">
        <ele>370.7</ele>
        <time>2021-10-05T11:01:20Z</time>
      </trkpt>
      <trkpt lat="42.8004700" lon="-7.6245530">
        <ele>372.0</ele>
        <time>2021-10-05T11:01:25Z</time>
      </trkpt>
      <trkpt lat="42.8003950" lon="-7.6246380">
        <ele>373.2</ele>
        <time>2021-10-05T11:01:30Z</time>
      </trkpt>
      <trkpt lat="42.8003350" lon="-7.6247020">
        <ele>374.2</ele>
        <time>2021-10-05T11:01:34Z</time>
      </trkpt>
      <trkpt lat="42.8002680" lon="-7.6247560">
        <ele>375.3</ele>
        <time>2021-10-05T11:01:38Z</time>
      </trkpt>
      <trkpt lat="42.8002000" lon="-7.6248130">
        <ele>376.4</ele>
        <time>2021-10-05T11:01:42Z</time>
      </trkpt>
      <trkpt lat="42.8001110" lon="-7.6248850">
        <ele>377.9</ele>
        <time>2021-10-05T11:01:47Z</time>
      </trkpt>
      <trkpt lat="42.8000130" lon="-7.6249220">
        <ele>379.3</ele>
        <time>2021-10-05T11:01:53Z</time>
      </trkpt>
      <trkpt lat="42.7999930" lon="-7.6249480">
        <ele>379.7</ele>
        <time>2021-10-05T11:01:55Z</time>
      </trkpt>
      <trkpt lat="42.7999650" lon="-7.6249770">
        <ele>380.2</ele>
        <time>2021-10-05T11:01:57Z</time>
      </trkpt>
      <trkpt lat="42.7999280" lon="-7.6250000">
        <ele>380.7</ele>
        <time>2021-10-05T11:01:59Z</time>
      </trkpt>
      <trkpt lat="42.7998940" lon="-7.6250310">
        <ele>381.2</ele>
        <time>2021-10-05T11:02:01Z</time>
      </trkpt>
      <trkpt lat="42.7998380" lon="-7.6252130">
        <ele>382.7</ele>
        <time>2021-10-05T11:02:09Z</time>
      </trkpt>
      <trkpt lat="42.7998540" lon="-7.6252880">
        <ele>383.3</ele>
        <time>2021-10-05T11:02:12Z</time>
      </trkpt>
      <trkpt lat="42.7998660" lon="-7.6253390">
        <ele>383.8</ele>
        <time>2021-10-05T11:02:14Z</time>
      </trkpt>
      <trkpt lat="42.7998770" lon="-7.6254700">
        <ele>385.1</ele>
        <time>2021-10-05T11:02:19Z</time>
      </trkpt>
      <trkpt lat="42.7998660" lon="-7.6255820">
        <ele>386.4</ele>
        <time>2021-10-05T11:02:23Z</time>
      </trkpt>
      <trkpt lat="42.7998570" lon="-7.6256950">
        <ele>387.5</ele>
        <time>2021-10-05T11:02:27Z</time>
      </trkpt>
      <trkpt lat="42.7998460" lon="-7.6257750">
        <ele>388.3</ele>
        <time>2021-10-05T11:02:30Z</time>
      </trkpt>
      <trkpt lat="42.7998410" lon="-7.6258880">
        <ele>389.1</ele>
        <time>2021-10-05T11:02:34Z</time>
      </trkpt>
      <trkpt lat="42.7998400" lon="-7.6259220">
        <ele>389.3</ele>
        <time>2021-10-05T11:02:37Z</time>
      </trkpt>
      <trkpt lat="42.7998280" lon="-7.6259660">
        <ele>389.5</ele>
        <time>2021-10-05T11:02:55Z</time>
      </trkpt>
      <trkpt lat="42.7998230" lon="-7.6259860">
        <ele>389.6</ele>
        <time>2021-10-05T11:02:56Z</time>
      </trkpt>
      <trkpt lat="42.7997970" lon="-7.6261160">
        <ele>390.2</ele>
        <time>2021-10-05T11:03:00Z</time>
      </trkpt>
      <trkpt lat="42.7997730" lon="-7.6262910">
        <ele>390.8</ele>
        <time>2021-10-05T11:03:05Z</time>
      </trkpt>
      <trkpt lat="42.7998630" lon="-7.6266140">
        <ele>392.4</ele>
        <time>2021-10-05T11:03:15Z</time>
      </trkpt>
      <trkpt lat="42.7999690" lon="-7.6267060">
        <ele>393.6</ele>
        <time>2021-10-05T11:03:20Z</time>
      </trkpt>
      <trkpt lat="42.8000250" lon="-7.6267540">
        <ele>394.4</ele>
        <time>2021-10-05T11:03:23Z</time>
      </trkpt>
      <trkpt lat="42.8000940" lon="-7.6267910">
        <ele>395.4</ele>
        <time>2021-10-05T11:03:27Z</time>
      </trkpt>
      <trkpt lat="42.8001270" lon="-7.6268200">
        <ele>396.1</ele>
        <time>2021-10-05T11:03:29Z</time>
      </trkpt>
      <trkpt lat="42.8001460" lon="-7.6268260">
        <ele>396.4</ele>
        <time>2021-10-05T11:03:30Z</time>
      </trkpt>
      <trkpt lat="42.8002210" lon="-7.6268620">
        <ele>397.8</ele>
        <time>2021-10-05T11:03:34Z</time>
      </trkpt>
      <trkpt lat="42.8002930" lon="-7.6269130">
        <ele>399.2</ele>
        <time>2021-10-05T11:03:38Z</time>
      </trkpt>
      <trkpt lat="42.8003480" lon="-7.6269910">
        <ele>400.5</ele>
        <time>2021-10-05T11:03:42Z</time>
      </trkpt>
      <trkpt lat="42.8003900" lon="-7.6270550">
        <ele>401.4</ele>
        <time>2021-10-05T11:03:45Z</time>
      </trkpt>
      <trkpt lat="42.8004330" lon="-7.6271160">
        <ele>402.4</ele>
        <time>2021-10-05T11:03:48Z</time>
      </trkpt>
      <trkpt lat="42.8004850" lon="-7.6272080">
        <ele>403.6</ele>
        <time>2021-10-05T11:03:52Z</time>
      </trkpt>
      <trkpt lat="42.8005380" lon="-7.6273230">
        <ele>405.1</ele>
        <time>2021-10-05T11:03:57Z</time>
      </trkpt>
      <trkpt lat="42.8005780" lon="-7.6274480">
        <ele>406.6</ele>
        <time>2021-10-05T11:04:02Z</time>
      </trkpt>
      <trkpt lat="42.8005880" lon="-7.6275020">
        <ele>407.2</ele>
        <time>2021-10-05T11:04:04Z</time>
      </trkpt>
      <trkpt lat="42.8006330" lon="-7.6276290">
        <ele>408.6</ele>
        <time>2021-10-05T11:04:09Z</time>
      </trkpt>
      <trkpt lat="42.8007200" lon="-7.6277670">
        <ele>409.8</ele>
        <time>2021-10-05T11:04:15Z</time>
      </trkpt>
      <trkpt lat="42.8007610" lon="-7.6278450">
        <ele>410.4</ele>
        <time>2021-10-05T11:04:18Z</time>
      </trkpt>
      <trkpt lat="42.8008040" lon="-7.6279220">
        <ele>410.9</ele>
        <time>2021-10-05T11:04:21Z</time>
      </trkpt>
      <trkpt lat="42.8009080" lon="-7.6280760">
        <ele>412.0</ele>
        <time>2021-10-05T11:04:27Z</time>
      </trkpt>
      <trkpt lat="42.8010420" lon="-7.6283500">
        <ele>414.0</ele>
        <time>2021-10-05T11:04:36Z</time>
      </trkpt>
      <trkpt lat="42.8010790" lon="-7.6284470">
        <ele>414.6</ele>
        <time>2021-10-05T11:04:39Z</time>
      </trkpt>
      <trkpt lat="42.8010970" lon="-7.6285750">
        <ele>415.1</ele>
        <time>2021-10-05T11:04:43Z</time>
      </trkpt>
      <trkpt lat="42.8011060" lon="-7.6286960">
        <ele>415.2</ele>
        <time>2021-10-05T11:04:46Z</time>
      </trkpt>
      <trkpt lat="42.8011080" lon="-7.6287790">
        <ele>415.2</ele>
        <time>2021-10-05T11:04:48Z</time>
      </trkpt>
      <trkpt lat="42.8011190" lon="-7.6288570">
        <ele>415.2</ele>
        <time>2021-10-05T11:04:50Z</time>
      </trkpt>
      <trkpt lat="42.8011550" lon="-7.6290190">
        <ele>415.0</ele>
        <time>2021-10-05T11:04:54Z</time>
      </trkpt>
      <trkpt lat="42.8011820" lon="-7.6291610">
        <ele>415.0</ele>
        <time>2021-10-05T11:04:57Z</time>
      </trkpt>
      <trkpt lat="42.8012080" lon="-7.6292840">
        <ele>415.0</ele>
        <time>2021-10-05T11:05:00Z</time>
      </trkpt>
      <trkpt lat="42.8012410" lon="-7.6293630">
        <ele>415.2</ele>
        <time>2021-10-05T11:05:02Z</time>
      </trkpt>
      <trkpt lat="42.8012870" lon="-7.6294680">
        <ele>415.4</ele>
        <time>2021-10-05T11:05:05Z</time>
      </trkpt>
      <trkpt lat="42.8013750" lon="-7.6296930">
        <ele>416.3</ele>
        <time>2021-10-05T11:05:11Z</time>
      </trkpt>
      <trkpt lat="42.8014060" lon="-7.6298300">
        <ele>417.1</ele>
        <time>2021-10-05T11:05:14Z</time>
      </trkpt>
      <trkpt lat="42.8014150" lon="-7.6298700">
        <ele>417.3</ele>
        <time>2021-10-05T11:05:15Z</time>
      </trkpt>
      <trkpt lat="42.8014400" lon="-7.6299660">
        <ele>418.0</ele>
        <time>2021-10-05T11:05:18Z</time>
      </trkpt>
      <trkpt lat="42.8014550" lon="-7.6299980">
        <ele>418.2</ele>
        <time>2021-10-05T11:05:19Z</time>
      </trkpt>
      <trkpt lat="42.8014870" lon="-7.6301280">
        <ele>419.2</ele>
        <time>2021-10-05T11:05:23Z</time>
      </trkpt>
      <trkpt lat="42.8015450" lon="-7.6302730">
        <ele>420.4</ele>
        <time>2021-10-05T11:05:27Z</time>
      </trkpt>
      <trkpt lat="42.8015870" lon="-7.6304200">
        <ele>421.5</ele>
        <time>2021-10-05T11:05:31Z</time>
      </trkpt>
      <trkpt lat="42.8016280" lon="-7.6305710">
        <ele>422.7</ele>
        <time>2021-10-05T11:05:35Z</time>
      </trkpt>
      <trkpt lat="42.8016930" lon="-7.6307210">
        <ele>424.1</ele>
        <time>2021-10-05T11:05:39Z</time>
      </trkpt>
      <trkpt lat="42.8017640" lon="-7.6308560">
        <ele>425.5</ele>
        <time>2021-10-05T11:05:43Z</time>
      </trkpt>
      <trkpt lat="42.8017690" lon="-7.6309320">
        <ele>426.1</ele>
        <time>2021-10-05T11:05:45Z</time>
      </trkpt>
      <trkpt lat="42.8017720" lon="-7.6309790">
        <ele>426.4</ele>
        <time>2021-10-05T11:05:47Z</time>
      </trkpt>
      <trkpt lat="42.8017880" lon="-7.6310010">
        <ele>426.7</ele>
        <time>2021-10-05T11:05:48Z</time>
      </trkpt>
      <trkpt lat="42.8018240" lon="-7.6310760">
        <ele>427.4</ele>
        <time>2021-10-05T11:05:51Z</time>
      </trkpt>
      <trkpt lat="42.8018380" lon="-7.6311020">
        <ele>427.7</ele>
        <time>2021-10-05T11:05:52Z</time>
      </trkpt>
      <trkpt lat="42.8018790" lon="-7.6311960">
        <ele>428.5</ele>
        <time>2021-10-05T11:05:56Z</time>
      </trkpt>
      <trkpt lat="42.8019620" lon="-7.6313180">
        <ele>429.6</ele>
        <time>2021-10-05T11:06:00Z</time>
      </trkpt>
      <trkpt lat="42.8020580" lon="-7.6315230">
        <ele>430.9</ele>
        <time>2021-10-05T11:06:05Z</time>
      </trkpt>
      <trkpt lat="42.8021060" lon="-7.6317370">
        <ele>432.0</ele>
        <time>2021-10-05T11:06:10Z</time>
      </trkpt>
      <trkpt lat="42.8021840" lon="-7.6320380">
        <ele>433.9</ele>
        <time>2021-10-05T11:06:18Z</time>
      </trkpt>
      <trkpt lat="42.8022150" lon="-7.6321350">
        <ele>434.5</ele>
        <time>2021-10-05T11:06:21Z</time>
      </trkpt>
      <trkpt lat="42.8022350" lon="-7.6322360">
        <ele>435.3</ele>
        <time>2021-10-05T11:06:24Z</time>
      </trkpt>
      <trkpt lat="42.8022440" lon="-7.6323040">
        <ele>435.8</ele>
        <time>2021-10-05T11:06:26Z</time>
      </trkpt>
      <trkpt lat="42.8022790" lon="-7.6324970">
        <ele>437.3</ele>
        <time>2021-10-05T11:06:33Z</time>
      </trkpt>
      <trkpt lat="42.8023180" lon="-7.6326510">
        <ele>438.6</ele>
        <time>2021-10-05T11:06:38Z</time>
      </trkpt>
      <trkpt lat="42.8023410" lon="-7.6327780">
        <ele>439.6</ele>
        <time>2021-10-05T11:06:42Z</time>
      </trkpt>
      <trkpt lat="42.8023610" lon="-7.6329030">
        <ele>440.6</ele>
        <time>2021-10-05T11:06:46Z</time>
      </trkpt>
      <trkpt lat="42.8023930" lon="-7.6330150">
        <ele>441.5</ele>
        <time>2021-10-05T11:06:50Z</time>
      </trkpt>
      <trkpt lat="42.8024000" lon="-7.6330390">
        <ele>441.7</ele>
        <time>2021-10-05T11:06:51Z</time>
      </trkpt>
      <trkpt lat="42.8024270" lon="-7.6331840">
        <ele>443.0</ele>
        <time>2021-10-05T11:06:56Z</time>
      </trkpt>
      <trkpt lat="42.8024380" lon="-7.6333290">
        <ele>444.3</ele>
        <time>2021-10-05T11:07:01Z</time>
      </trkpt>
      <trkpt lat="42.8024620" lon="-7.6334750">
        <ele>445.6</ele>
        <time>2021-10-05T11:07:06Z</time>
      </trkpt>
      <trkpt lat="42.8024780" lon="-7.6335950">
        <ele>446.7</ele>
        <time>2021-10-05T11:07:10Z</time>
      </trkpt>
      <trkpt lat="42.8024960" lon="-7.6337140">
        <ele>447.9</ele>
        <time>2021-10-05T11:07:14Z</time>
      </trkpt>
      <trkpt lat="42.8025220" lon="-7.6338280">
        <ele>449.1</ele>
        <time>2021-10-05T11:07:18Z</time>
      </trkpt>
      <trkpt lat="42.8025440" lon="-7.6339320">
        <ele>450.4</ele>
        <time>2021-10-05T11:07:22Z</time>
      </trkpt>
      <trkpt lat="42.8025650" lon="-7.6340400">
        <ele>451.7</ele>
        <time>2021-10-05T11:07:26Z</time>
      </trkpt>
      <trkpt lat="42.8025860" lon="-7.6341180">
        <ele>452.7</ele>
        <time>2021-10-05T11:07:29Z</time>
      </trkpt>
      <trkpt lat="42.8026040" lon="-7.6342100">
        <ele>453.8</ele>
        <time>2021-10-05T11:07:33Z</time>
      </trkpt>
      <trkpt lat="42.8026240" lon="-7.6342690">
        <ele>454.5</ele>
        <time>2021-10-05T11:07:36Z</time>
      </trkpt>
      <trkpt lat="42.8026530" lon="-7.6343540">
        <ele>455.5</ele>
        <time>2021-10-05T11:07:40Z</time>
      </trkpt>
      <trkpt lat="42.8026800" lon="-7.6344570">
        <ele>456.7</ele>
        <time>2021-10-05T11:07:44Z</time>
      </trkpt>
      <trkpt lat="42.8027080" lon="-7.6345650">
        <ele>457.8</ele>
        <time>2021-10-05T11:07:48Z</time>
      </trkpt>
      <trkpt lat="42.8027500" lon="-7.6347000">
        <ele>459.3</ele>
        <time>2021-10-05T11:07:53Z</time>
      </trkpt>
      <trkpt lat="42.8027860" lon="-7.6348130">
        <ele>460.4</ele>
        <time>2021-10-05T11:07:57Z</time>
      </trkpt>
      <trkpt lat="42.8028180" lon="-7.6348910">
        <ele>461.3</ele>
        <time>2021-10-05T11:08:00Z</time>
      </trkpt>
      <trkpt lat="42.8028450" lon="-7.6350060">
        <ele>462.3</ele>
        <time>2021-10-05T11:08:04Z</time>
      </trkpt>
      <trkpt lat="42.8028710" lon="-7.6351190">
        <ele>463.3</ele>
        <time>2021-10-05T11:08:08Z</time>
      </trkpt>
      <trkpt lat="42.8029410" lon="-7.6353430">
        <ele>465.1</ele>
        <time>2021-10-05T11:08:16Z</time>
      </trkpt>
      <trkpt lat="42.8029780" lon="-7.6354540">
        <ele>466.0</ele>
        <time>2021-10-05T11:08:20Z</time>
      </trkpt>
      <trkpt lat="42.8030210" lon="-7.6355990">
        <ele>466.9</ele>
        <time>2021-10-05T11:08:25Z</time>
      </trkpt>
      <trkpt lat="42.8030670" lon="-7.6357460">
        <ele>467.8</ele>
        <time>2021-10-05T11:08:30Z</time>
      </trkpt>
      <trkpt lat="42.8031230" lon="-7.6359470">
        <ele>468.8</ele>
        <time>2021-10-05T11:08:37Z</time>
      </trkpt>
      <trkpt lat="42.8031410" lon="-7.6360040">
        <ele>469.1</ele>
        <time>2021-10-05T11:08:39Z</time>
      </trkpt>
      <trkpt lat="42.8031990" lon="-7.6362190">
        <ele>470.1</ele>
        <time>2021-10-05T11:08:46Z</time>
      </trkpt>
      <trkpt lat="42.8032360" lon="-7.6363640">
        <ele>470.5</ele>
        <time>2021-10-05T11:08:50Z</time>
      </trkpt>
      <trkpt lat="42.8032580" lon="-7.6364310">
        <ele>470.7</ele>
        <time>2021-10-05T11:08:52Z</time>
      </trkpt>
      <trkpt lat="42.8032660" lon="-7.6364560">
        <ele>470.7</ele>
        <time>2021-10-05T11:08:53Z</time>
      </trkpt>
      <trkpt lat="42.8032720" lon="-7.6364690">
        <ele>470.7</ele>
        <time>2021-10-05T11:08:55Z</time>
      </trkpt>
      <trkpt lat="42.8032760" lon="-7.6365660">
        <ele>470.8</ele>
        <time>2021-10-05T11:14:10Z</time>
      </trkpt>
      <trkpt lat="42.8032900" lon="-7.6365900">
        <ele>470.8</ele>
        <time>2021-10-05T11:14:11Z</time>
      </trkpt>
      <trkpt lat="42.8034450" lon="-7.6370170">
        <ele>470.0</ele>
        <time>2021-10-05T11:14:22Z</time>
      </trkpt>
      <trkpt lat="42.8034730" lon="-7.6371070">
        <ele>469.8</ele>
        <time>2021-10-05T11:14:24Z</time>
      </trkpt>
      <trkpt lat="42.8035790" lon="-7.6373990">
        <ele>469.1</ele>
        <time>2021-10-05T11:14:30Z</time>
      </trkpt>
      <trkpt lat="42.8036890" lon="-7.6376740">
        <ele>468.2</ele>
        <time>2021-10-05T11:14:35Z</time>
      </trkpt>
      <trkpt lat="42.8037460" lon="-7.6377900">
        <ele>467.8</ele>
        <time>2021-10-05T11:14:37Z</time>
      </trkpt>
      <trkpt lat="42.8039320" lon="-7.6380660">
        <ele>466.6</ele>
        <time>2021-10-05T11:14:42Z</time>
      </trkpt>
      <trkpt lat="42.8042160" lon="-7.6383770">
        <ele>464.5</ele>
        <time>2021-10-05T11:14:48Z</time>
      </trkpt>
      <trkpt lat="42.8043750" lon="-7.6385410">
        <ele>463.1</ele>
        <time>2021-10-05T11:14:51Z</time>
      </trkpt>
      <trkpt lat="42.8044880" lon="-7.6386560">
        <ele>462.2</ele>
        <time>2021-10-05T11:14:53Z</time>
      </trkpt>
      <trkpt lat="42.8046020" lon="-7.6387720">
        <ele>461.3</ele>
        <time>2021-10-05T11:14:55Z</time>
      </trkpt>
      <trkpt lat="42.8048380" lon="-7.6390150">
        <ele>459.7</ele>
        <time>2021-10-05T11:14:59Z</time>
      </trkpt>
      <trkpt lat="42.8050920" lon="-7.6392640">
        <ele>457.8</ele>
        <time>2021-10-05T11:15:03Z</time>
      </trkpt>
      <trkpt lat="42.8052260" lon="-7.6393830">
        <ele>457.0</ele>
        <time>2021-10-05T11:15:05Z</time>
      </trkpt>
      <trkpt lat="42.8053690" lon="-7.6394960">
        <ele>456.1</ele>
        <time>2021-10-05T11:15:07Z</time>
      </trkpt>
      <trkpt lat="42.8055140" lon="-7.6396200">
        <ele>455.1</ele>
        <time>2021-10-05T11:15:09Z</time>
      </trkpt>
      <trkpt lat="42.8056460" lon="-7.6397710">
        <ele>454.2</ele>
        <time>2021-10-05T11:15:11Z</time>
      </trkpt>
      <trkpt lat="42.8057630" lon="-7.6399450">
        <ele>453.4</ele>
        <time>2021-10-05T11:15:13Z</time>
      </trkpt>
      <trkpt lat="42.8059280" lon="-7.6402070">
        <ele>452.8</ele>
        <time>2021-10-05T11:15:16Z</time>
      </trkpt>
      <trkpt lat="42.8061020" lon="-7.6404230">
        <ele>452.5</ele>
        <time>2021-10-05T11:15:19Z</time>
      </trkpt>
      <trkpt lat="42.8062730" lon="-7.6406080">
        <ele>452.3</ele>
        <time>2021-10-05T11:15:22Z</time>
      </trkpt>
      <trkpt lat="42.8063800" lon="-7.6407260">
        <ele>452.3</ele>
        <time>2021-10-05T11:15:24Z</time>
      </trkpt>
      <trkpt lat="42.8064330" lon="-7.6407830">
        <ele>452.2</ele>
        <time>2021-10-05T11:15:25Z</time>
      </trkpt>
      <trkpt lat="42.8065390" lon="-7.6408930">
        <ele>452.2</ele>
        <time>2021-10-05T11:15:27Z</time>
      </trkpt>
      <trkpt lat="42.8065910" lon="-7.6409470">
        <ele>452.1</ele>
        <time>2021-10-05T11:15:28Z</time>
      </trkpt>
      <trkpt lat="42.8069970" lon="-7.6414390">
        <ele>451.9</ele>
        <time>2021-10-05T11:15:37Z</time>
      </trkpt>
      <trkpt lat="42.8070800" lon="-7.6415260">
        <ele>451.9</ele>
        <time>2021-10-05T11:15:39Z</time>
      </trkpt>
      <trkpt lat="42.8072660" lon="-7.6415220">
        <ele>452.0</ele>
        <time>2021-10-05T11:15:43Z</time>
      </trkpt>
      <trkpt lat="42.8073450" lon="-7.6414890">
        <ele>452.0</ele>
        <time>2021-10-05T11:15:45Z</time>
      </trkpt>
      <trkpt lat="42.8073760" lon="-7.6416690">
        <ele>451.9</ele>
        <time>2021-10-05T11:15:49Z</time>
      </trkpt>
      <trkpt lat="42.8073650" lon="-7.6417310">
        <ele>451.9</ele>
        <time>2021-10-05T11:15:50Z</time>
      </trkpt>
      <trkpt lat="42.8073570" lon="-7.6417970">
        <ele>451.8</ele>
        <time>2021-10-05T11:15:51Z</time>
      </trkpt>
      <trkpt lat="42.8073530" lon="-7.6418640">
        <ele>451.7</ele>
        <time>2021-10-05T11:15:52Z</time>
      </trkpt>
      <trkpt lat="42.8073240" lon="-7.6422060">
        <ele>451.0</ele>
        <time>2021-10-05T11:15:57Z</time>
      </trkpt>
      <trkpt lat="42.8073120" lon="-7.6423520">
        <ele>450.6</ele>
        <time>2021-10-05T11:15:59Z</time>
      </trkpt>
      <trkpt lat="42.8073060" lon="-7.6424280">
        <ele>450.4</ele>
        <time>2021-10-05T11:16:00Z</time>
      </trkpt>
      <trkpt lat="42.8072930" lon="-7.6426570">
        <ele>449.9</ele>
        <time>2021-10-05T11:16:03Z</time>
      </trkpt>
      <trkpt lat="42.8073280" lon="-7.6427740">
        <ele>449.6</ele>
        <time>2021-10-05T11:16:05Z</time>
      </trkpt>
      <trkpt lat="42.8073680" lon="-7.6428150">
        <ele>449.5</ele>
        <time>2021-10-05T11:16:06Z</time>
      </trkpt>
      <trkpt lat="42.8074530" lon="-7.6428630">
        <ele>449.6</ele>
        <time>2021-10-05T11:16:08Z</time>
      </trkpt>
      <trkpt lat="42.8075420" lon="-7.6429150">
        <ele>449.7</ele>
        <time>2021-10-05T11:16:10Z</time>
      </trkpt>
      <trkpt lat="42.8076390" lon="-7.6429610">
        <ele>449.9</ele>
        <time>2021-10-05T11:16:12Z</time>
      </trkpt>
      <trkpt lat="42.8077410" lon="-7.6430100">
        <ele>450.1</ele>
        <time>2021-10-05T11:16:14Z</time>
      </trkpt>
      <trkpt lat="42.8078330" lon="-7.6430670">
        <ele>450.4</ele>
        <time>2021-10-05T11:16:16Z</time>
      </trkpt>
      <trkpt lat="42.8082240" lon="-7.6432500">
        <ele>451.1</ele>
        <time>2021-10-05T11:16:26Z</time>
      </trkpt>
      <trkpt lat="42.8085000" lon="-7.6434150">
        <ele>451.6</ele>
        <time>2021-10-05T11:16:33Z</time>
      </trkpt>
      <trkpt lat="42.8086170" lon="-7.6434810">
        <ele>451.9</ele>
        <time>2021-10-05T11:16:36Z</time>
      </trkpt>
      <trkpt lat="42.8087340" lon="-7.6435370">
        <ele>452.2</ele>
        <time>2021-10-05T11:16:39Z</time>
      </trkpt>
      <trkpt lat="42.8088460" lon="-7.6435930">
        <ele>452.4</ele>
        <time>2021-10-05T11:16:42Z</time>
      </trkpt>
      <trkpt lat="42.8089520" lon="-7.6436600">
        <ele>452.7</ele>
        <time>2021-10-05T11:16:45Z</time>
      </trkpt>
      <trkpt lat="42.8090240" lon="-7.6437000">
        <ele>452.9</ele>
        <time>2021-10-05T11:16:47Z</time>
      </trkpt>
      <trkpt lat="42.8092420" lon="-7.6438200">
        <ele>453.5</ele>
        <time>2021-10-05T11:16:53Z</time>
      </trkpt>
      <trkpt lat="42.8095240" lon="-7.6439950">
        <ele>453.8</ele>
        <time>2021-10-05T11:17:01Z</time>
      </trkpt>
      <trkpt lat="42.8097130" lon="-7.6440890">
        <ele>453.8</ele>
        <time>2021-10-05T11:17:06Z</time>
      </trkpt>
      <trkpt lat="42.8098660" lon="-7.6441730">
        <ele>453.7</ele>
        <time>2021-10-05T11:17:10Z</time>
      </trkpt>
      <trkpt lat="42.8099490" lon="-7.6442150">
        <ele>453.5</ele>
        <time>2021-10-05T11:17:12Z</time>
      </trkpt>
      <trkpt lat="42.8100740" lon="-7.6442800">
        <ele>453.3</ele>
        <time>2021-10-05T11:17:15Z</time>
      </trkpt>
      <trkpt lat="42.8101560" lon="-7.6443240">
        <ele>453.1</ele>
        <time>2021-10-05T11:17:17Z</time>
      </trkpt>
      <trkpt lat="42.8102370" lon="-7.6443700">
        <ele>452.8</ele>
        <time>2021-10-05T11:17:19Z</time>
      </trkpt>
      <trkpt lat="42.8103570" lon="-7.6444370">
        <ele>452.5</ele>
        <time>2021-10-05T11:17:22Z</time>
      </trkpt>
      <trkpt lat="42.8105170" lon="-7.6445330">
        <ele>452.1</ele>
        <time>2021-10-05T11:17:26Z</time>
      </trkpt>
      <trkpt lat="42.8105560" lon="-7.6445560">
        <ele>452.0</ele>
        <time>2021-10-05T11:17:27Z</time>
      </trkpt>
      <trkpt lat="42.8106680" lon="-7.6446160">
        <ele>451.7</ele>
        <time>2021-10-05T11:17:30Z</time>
      </trkpt>
      <trkpt lat="42.8109740" lon="-7.6447820">
        <ele>450.9</ele>
        <time>2021-10-05T11:17:41Z</time>
      </trkpt>
      <trkpt lat="42.8111180" lon="-7.6450420">
        <ele>450.1</ele>
        <time>2021-10-05T11:17:46Z</time>
      </trkpt>
      <trkpt lat="42.8112850" lon="-7.6453460">
        <ele>449.6</ele>
        <time>2021-10-05T11:17:51Z</time>
      </trkpt>
      <trkpt lat="42.8113800" lon="-7.6455300">
        <ele>449.5</ele>
        <time>2021-10-05T11:17:54Z</time>
      </trkpt>
      <trkpt lat="42.8116270" lon="-7.6462190">
        <ele>450.0</ele>
        <time>2021-10-05T11:18:05Z</time>
      </trkpt>
      <trkpt lat="42.8116670" lon="-7.6464900">
        <ele>450.4</ele>
        <time>2021-10-05T11:18:09Z</time>
      </trkpt>
      <trkpt lat="42.8116800" lon="-7.6466950">
        <ele>450.6</ele>
        <time>2021-10-05T11:18:12Z</time>
      </trkpt>
      <trkpt lat="42.8117080" lon="-7.6474440">
        <ele>451.5</ele>
        <time>2021-10-05T11:18:23Z</time>
      </trkpt>
      <trkpt lat="42.8117190" lon="-7.6478410">
        <ele>452.0</ele>
        <time>2021-10-05T11:18:29Z</time>
      </trkpt>
      <trkpt lat="42.8117250" lon="-7.6480370">
        <ele>452.4</ele>
        <time>2021-10-05T11:18:32Z</time>
      </trkpt>
      <trkpt lat="42.8117420" lon="-7.6486210">
        <ele>453.5</ele>
        <time>2021-10-05T11:18:41Z</time>
      </trkpt>
      <trkpt lat="42.8117430" lon="-7.6486840">
        <ele>453.7</ele>
        <time>2021-10-05T11:18:42Z</time>
      </trkpt>
      <trkpt lat="42.8117520" lon="-7.6489910">
        <ele>454.4</ele>
        <time>2021-10-05T11:18:47Z</time>
      </trkpt>
      <trkpt lat="42.8117580" lon="-7.6491670">
        <ele>455.0</ele>
        <time>2021-10-05T11:18:50Z</time>
      </trkpt>
      <trkpt lat="42.8117620" lon="-7.6492780">
        <ele>455.4</ele>
        <time>2021-10-05T11:18:52Z</time>
      </trkpt>
      <trkpt lat="42.8117690" lon="-7.6495000">
        <ele>456.2</ele>
        <time>2021-10-05T11:18:56Z</time>
      </trkpt>
      <trkpt lat="42.8117710" lon="-7.6495550">
        <ele>456.4</ele>
        <time>2021-10-05T11:18:57Z</time>
      </trkpt>
      <trkpt lat="42.8117750" lon="-7.6497170">
        <ele>457.1</ele>
        <time>2021-10-05T11:19:00Z</time>
      </trkpt>
      <trkpt lat="42.8117760" lon="-7.6497710">
        <ele>457.4</ele>
        <time>2021-10-05T11:19:01Z</time>
      </trkpt>
      <trkpt lat="42.8117850" lon="-7.6499860">
        <ele>458.4</ele>
        <time>2021-10-05T11:19:05Z</time>
      </trkpt>
      <trkpt lat="42.8117890" lon="-7.6501470">
        <ele>459.1</ele>
        <time>2021-10-05T11:19:08Z</time>
      </trkpt>
      <trkpt lat="42.8117970" lon="-7.6503580">
        <ele>460.1</ele>
        <time>2021-10-05T11:19:12Z</time>
      </trkpt>
      <trkpt lat="42.8118040" lon="-7.6506140">
        <ele>461.2</ele>
        <time>2021-10-05T11:19:17Z</time>
      </trkpt>
      <trkpt lat="42.8118130" lon="-7.6508170">
        <ele>462.1</ele>
        <time>2021-10-05T11:19:21Z</time>
      </trkpt>
      <trkpt lat="42.8118170" lon="-7.6509680">
        <ele>462.7</ele>
        <time>2021-10-05T11:19:24Z</time>
      </trkpt>
      <trkpt lat="42.8118250" lon="-7.6512140">
        <ele>463.8</ele>
        <time>2021-10-05T11:19:29Z</time>
      </trkpt>
      <trkpt lat="42.8118340" lon="-7.6514900">
        <ele>464.8</ele>
        <time>2021-10-05T11:19:35Z</time>
      </trkpt>
      <trkpt lat="42.8118580" lon="-7.6516980">
        <ele>465.4</ele>
        <time>2021-10-05T11:19:40Z</time>
      </trkpt>
      <trkpt lat="42.8118830" lon="-7.6519460">
        <ele>465.9</ele>
        <time>2021-10-05T11:19:46Z</time>
      </trkpt>
      <trkpt lat="42.8118850" lon="-7.6519960">
        <ele>466.0</ele>
        <time>2021-10-05T11:19:49Z</time>
      </trkpt>
      <trkpt lat="42.8118860" lon="-7.6520230">
        <ele>466.0</ele>
        <time>2021-10-05T11:20:26Z</time>
      </trkpt>
      <trkpt lat="42.8118860" lon="-7.6520490">
        <ele>466.1</ele>
        <time>2021-10-05T11:20:27Z</time>
      </trkpt>
      <trkpt lat="42.8118930" lon="-7.6522010">
        <ele>466.3</ele>
        <time>2021-10-05T11:20:31Z</time>
      </trkpt>
      <trkpt lat="42.8119050" lon="-7.6525240">
        <ele>466.6</ele>
        <time>2021-10-05T11:20:37Z</time>
      </trkpt>
      <trkpt lat="42.8119320" lon="-7.6532640">
        <ele>467.0</ele>
        <time>2021-10-05T11:20:49Z</time>
      </trkpt>
      <trkpt lat="42.8119520" lon="-7.6538920">
        <ele>467.2</ele>
        <time>2021-10-05T11:20:58Z</time>
      </trkpt>
      <trkpt lat="42.8119640" lon="-7.6544550">
        <ele>467.4</ele>
        <time>2021-10-05T11:21:06Z</time>
      </trkpt>
      <trkpt lat="42.8119630" lon="-7.6546530">
        <ele>467.6</ele>
        <time>2021-10-05T11:21:09Z</time>
      </trkpt>
      <trkpt lat="42.8119760" lon="-7.6547910">
        <ele>467.7</ele>
        <time>2021-10-05T11:21:11Z</time>
      </trkpt>
      <trkpt lat="42.8119730" lon="-7.6549940">
        <ele>468.0</ele>
        <time>2021-10-05T11:21:14Z</time>
      </trkpt>
      <trkpt lat="42.8119820" lon="-7.6551820">
        <ele>468.4</ele>
        <time>2021-10-05T11:21:17Z</time>
      </trkpt>
      <trkpt lat="42.8119870" lon="-7.6554150">
        <ele>469.0</ele>
        <time>2021-10-05T11:21:21Z</time>
      </trkpt>
      <trkpt lat="42.8120000" lon="-7.6557440">
        <ele>470.1</ele>
        <time>2021-10-05T11:21:27Z</time>
      </trkpt>
      <trkpt lat="42.8120130" lon="-7.6560270">
        <ele>471.0</ele>
        <time>2021-10-05T11:21:33Z</time>
      </trkpt>
      <trkpt lat="42.8120210" lon="-7.6561360">
        <ele>471.4</ele>
        <time>2021-10-05T11:21:36Z</time>
      </trkpt>
      <trkpt lat="42.8120310" lon="-7.6563180">
        <ele>472.1</ele>
        <time>2021-10-05T11:21:41Z</time>
      </trkpt>
      <trkpt lat="42.8120330" lon="-7.6565390">
        <ele>473.0</ele>
        <time>2021-10-05T11:21:46Z</time>
      </trkpt>
      <trkpt lat="42.8120340" lon="-7.6565860">
        <ele>473.2</ele>
        <time>2021-10-05T11:21:47Z</time>
      </trkpt>
      <trkpt lat="42.8120310" lon="-7.6567280">
        <ele>473.8</ele>
        <time>2021-10-05T11:21:50Z</time>
      </trkpt>
      <trkpt lat="42.8120260" lon="-7.6569160">
        <ele>474.7</ele>
        <time>2021-10-05T11:21:54Z</time>
      </trkpt>
      <trkpt lat="42.8120340" lon="-7.6570600">
        <ele>475.4</ele>
        <time>2021-10-05T11:21:57Z</time>
      </trkpt>
      <trkpt lat="42.8120360" lon="-7.6571050">
        <ele>475.7</ele>
        <time>2021-10-05T11:21:58Z</time>
      </trkpt>
      <trkpt lat="42.8120440" lon="-7.6573380">
        <ele>476.8</ele>
        <time>2021-10-05T11:22:03Z</time>
      </trkpt>
      <trkpt lat="42.8120510" lon="-7.6575220">
        <ele>477.8</ele>
        <time>2021-10-05T11:22:07Z</time>
      </trkpt>
      <trkpt lat="42.8120770" lon="-7.6577450">
        <ele>478.9</ele>
        <time>2021-10-05T11:22:12Z</time>
      </trkpt>
      <trkpt lat="42.8120810" lon="-7.6579680">
        <ele>480.1</ele>
        <time>2021-10-05T11:22:17Z</time>
      </trkpt>
      <trkpt lat="42.8120890" lon="-7.6580110">
        <ele>480.3</ele>
        <time>2021-10-05T11:22:18Z</time>
      </trkpt>
      <trkpt lat="42.8121170" lon="-7.6582190">
        <ele>481.4</ele>
        <time>2021-10-05T11:22:23Z</time>
      </trkpt>
      <trkpt lat="42.8121370" lon="-7.6583830">
        <ele>482.3</ele>
        <time>2021-10-05T11:22:27Z</time>
      </trkpt>
      <trkpt lat="42.8121640" lon="-7.6587080">
        <ele>484.0</ele>
        <time>2021-10-05T11:22:35Z</time>
      </trkpt>
      <trkpt lat="42.8121840" lon="-7.6588600">
        <ele>484.6</ele>
        <time>2021-10-05T11:22:39Z</time>
      </trkpt>
      <trkpt lat="42.8121830" lon="-7.6589290">
        <ele>484.8</ele>
        <time>2021-10-05T11:22:41Z</time>
      </trkpt>
      <trkpt lat="42.8121160" lon="-7.6589730">
        <ele>485.1</ele>
        <time>2021-10-05T11:22:44Z</time>
      </trkpt>
      <trkpt lat="42.8120810" lon="-7.6590640">
        <ele>485.3</ele>
        <time>2021-10-05T11:22:47Z</time>
      </trkpt>
      <trkpt lat="42.8120970" lon="-7.6591500">
        <ele>485.5</ele>
        <time>2021-10-05T11:22:49Z</time>
      </trkpt>
      <trkpt lat="42.8121040" lon="-7.6591980">
        <ele>485.5</ele>
        <time>2021-10-05T11:22:50Z</time>
      </trkpt>
      <trkpt lat="42.8122460" lon="-7.6599180">
        <ele>486.4</ele>
        <time>2021-10-05T11:23:05Z</time>
      </trkpt>
      <trkpt lat="42.8122700" lon="-7.6601500">
        <ele>486.7</ele>
        <time>2021-10-05T11:23:10Z</time>
      </trkpt>
      <trkpt lat="42.8122890" lon="-7.6604550">
        <ele>486.9</ele>
        <time>2021-10-05T11:23:16Z</time>
      </trkpt>
      <trkpt lat="42.8123160" lon="-7.6606140">
        <ele>487.0</ele>
        <time>2021-10-05T11:23:19Z</time>
      </trkpt>
      <trkpt lat="42.8123630" lon="-7.6608280">
        <ele>487.1</ele>
        <time>2021-10-05T11:23:23Z</time>
      </trkpt>
      <trkpt lat="42.8124050" lon="-7.6610460">
        <ele>487.0</ele>
        <time>2021-10-05T11:23:27Z</time>
      </trkpt>
      <trkpt lat="42.8124570" lon="-7.6613980">
        <ele>487.1</ele>
        <time>2021-10-05T11:23:33Z</time>
      </trkpt>
      <trkpt lat="42.8124770" lon="-7.6615130">
        <ele>487.1</ele>
        <time>2021-10-05T11:23:35Z</time>
      </trkpt>
      <trkpt lat="42.8125040" lon="-7.6616880">
        <ele>486.7</ele>
        <time>2021-10-05T11:23:38Z</time>
      </trkpt>
      <trkpt lat="42.8125230" lon="-7.6618160">
        <ele>486.3</ele>
        <time>2021-10-05T11:23:40Z</time>
      </trkpt>
      <trkpt lat="42.8126150" lon="-7.6625200">
        <ele>486.2</ele>
        <time>2021-10-05T11:23:52Z</time>
      </trkpt>
      <trkpt lat="42.8126390" lon="-7.6627240">
        <ele>486.9</ele>
        <time>2021-10-05T11:23:57Z</time>
      </trkpt>
      <trkpt lat="42.8126630" lon="-7.6628680">
        <ele>487.6</ele>
        <time>2021-10-05T11:24:01Z</time>
      </trkpt>
      <trkpt lat="42.8126820" lon="-7.6629770">
        <ele>488.5</ele>
        <time>2021-10-05T11:24:04Z</time>
      </trkpt>
      <trkpt lat="42.8127050" lon="-7.6630680">
        <ele>489.4</ele>
        <time>2021-10-05T11:24:07Z</time>
      </trkpt>
      <trkpt lat="42.8127150" lon="-7.6630930">
        <ele>489.7</ele>
        <time>2021-10-05T11:24:08Z</time>
      </trkpt>
      <trkpt lat="42.8127520" lon="-7.6631960">
        <ele>490.4</ele>
        <time>2021-10-05T11:24:12Z</time>
      </trkpt>
      <trkpt lat="42.8127580" lon="-7.6632980">
        <ele>490.9</ele>
        <time>2021-10-05T11:24:15Z</time>
      </trkpt>
      <trkpt lat="42.8127190" lon="-7.6637320">
        <ele>493.5</ele>
        <time>2021-10-05T11:24:27Z</time>
      </trkpt>
      <trkpt lat="42.8127480" lon="-7.6638620">
        <ele>494.6</ele>
        <time>2021-10-05T11:24:31Z</time>
      </trkpt>
      <trkpt lat="42.8127840" lon="-7.6639510">
        <ele>495.4</ele>
        <time>2021-10-05T11:24:34Z</time>
      </trkpt>
      <trkpt lat="42.8128600" lon="-7.6640320">
        <ele>496.3</ele>
        <time>2021-10-05T11:24:38Z</time>
      </trkpt>
      <trkpt lat="42.8129170" lon="-7.6640880">
        <ele>496.9</ele>
        <time>2021-10-05T11:24:41Z</time>
      </trkpt>
      <trkpt lat="42.8130380" lon="-7.6641940">
        <ele>498.4</ele>
        <time>2021-10-05T11:24:47Z</time>
      </trkpt>
      <trkpt lat="42.8131100" lon="-7.6642650">
        <ele>499.4</ele>
        <time>2021-10-05T11:24:51Z</time>
      </trkpt>
      <trkpt lat="42.8131550" lon="-7.6643350">
        <ele>500.3</ele>
        <time>2021-10-05T11:24:54Z</time>
      </trkpt>
      <trkpt lat="42.8132000" lon="-7.6643920">
        <ele>501.0</ele>
        <time>2021-10-05T11:24:57Z</time>
      </trkpt>
      <trkpt lat="42.8132400" lon="-7.6644490">
        <ele>501.5</ele>
        <time>2021-10-05T11:25:00Z</time>
      </trkpt>
      <trkpt lat="42.8133270" lon="-7.6645680">
        <ele>502.5</ele>
        <time>2021-10-05T11:25:06Z</time>
      </trkpt>
      <trkpt lat="42.8134350" lon="-7.6647400">
        <ele>503.6</ele>
        <time>2021-10-05T11:25:13Z</time>
      </trkpt>
      <trkpt lat="42.8136250" lon="-7.6650750">
        <ele>506.1</ele>
        <time>2021-10-05T11:25:23Z</time>
      </trkpt>
      <trkpt lat="42.8136840" lon="-7.6652250">
        <ele>507.3</ele>
        <time>2021-10-05T11:25:28Z</time>
      </trkpt>
      <trkpt lat="42.8137610" lon="-7.6654310">
        <ele>508.9</ele>
        <time>2021-10-05T11:25:35Z</time>
      </trkpt>
      <trkpt lat="42.8138180" lon="-7.6655800">
        <ele>510.0</ele>
        <time>2021-10-05T11:25:40Z</time>
      </trkpt>
      <trkpt lat="42.8138480" lon="-7.6656670">
        <ele>510.6</ele>
        <time>2021-10-05T11:25:43Z</time>
      </trkpt>
      <trkpt lat="42.8138890" lon="-7.6657810">
        <ele>511.4</ele>
        <time>2021-10-05T11:25:47Z</time>
      </trkpt>
      <trkpt lat="42.8139220" lon="-7.6658660">
        <ele>512.0</ele>
        <time>2021-10-05T11:25:50Z</time>
      </trkpt>
      <trkpt lat="42.8139970" lon="-7.6660520">
        <ele>513.4</ele>
        <time>2021-10-05T11:25:57Z</time>
      </trkpt>
      <trkpt lat="42.8140350" lon="-7.6661570">
        <ele>514.3</ele>
        <time>2021-10-05T11:26:01Z</time>
      </trkpt>
      <trkpt lat="42.8141350" lon="-7.6663450">
        <ele>516.1</ele>
        <time>2021-10-05T11:26:09Z</time>
      </trkpt>
      <trkpt lat="42.8142160" lon="-7.6665030">
        <ele>517.6</ele>
        <time>2021-10-05T11:26:16Z</time>
      </trkpt>
      <trkpt lat="42.8142510" lon="-7.6665830">
        <ele>518.3</ele>
        <time>2021-10-05T11:26:19Z</time>
      </trkpt>
      <trkpt lat="42.8142970" lon="-7.6666840">
        <ele>519.3</ele>
        <time>2021-10-05T11:26:23Z</time>
      </trkpt>
      <trkpt lat="42.8143850" lon="-7.6668570">
        <ele>520.9</ele>
        <time>2021-10-05T11:26:30Z</time>
      </trkpt>
      <trkpt lat="42.8144340" lon="-7.6669670">
        <ele>521.8</ele>
        <time>2021-10-05T11:26:34Z</time>
      </trkpt>
      <trkpt lat="42.8144830" lon="-7.6670730">
        <ele>522.7</ele>
        <time>2021-10-05T11:26:38Z</time>
      </trkpt>
      <trkpt lat="42.8145370" lon="-7.6672070">
        <ele>523.7</ele>
        <time>2021-10-05T11:26:43Z</time>
      </trkpt>
      <trkpt lat="42.8146030" lon="-7.6673660">
        <ele>524.8</ele>
        <time>2021-10-05T11:26:49Z</time>
      </trkpt>
      <trkpt lat="42.8146710" lon="-7.6675220">
        <ele>525.9</ele>
        <time>2021-10-05T11:26:55Z</time>
      </trkpt>
      <trkpt lat="42.8147360" lon="-7.6676870">
        <ele>527.0</ele>
        <time>2021-10-05T11:27:01Z</time>
      </trkpt>
      <trkpt lat="42.8147760" lon="-7.6678050">
        <ele>527.7</ele>
        <time>2021-10-05T11:27:05Z</time>
      </trkpt>
      <trkpt lat="42.8148600" lon="-7.6680900">
        <ele>529.4</ele>
        <time>2021-10-05T11:27:14Z</time>
      </trkpt>
      <trkpt lat="42.8148960" lon="-7.6682910">
        <ele>530.5</ele>
        <time>2021-10-05T11:27:20Z</time>
      </trkpt>
      <trkpt lat="42.8149350" lon="-7.6684950">
        <ele>531.2</ele>
        <time>2021-10-05T11:27:26Z</time>
      </trkpt>
      <trkpt lat="42.8149810" lon="-7.6685910">
        <ele>531.5</ele>
        <time>2021-10-05T11:27:29Z</time>
      </trkpt>
      <trkpt lat="42.8150290" lon="-7.6686940">
        <ele>531.7</ele>
        <time>2021-10-05T11:27:32Z</time>
      </trkpt>
      <trkpt lat="42.8151000" lon="-7.6688340">
        <ele>531.9</ele>
        <time>2021-10-05T11:27:36Z</time>
      </trkpt>
      <trkpt lat="42.8151720" lon="-7.6690220">
        <ele>532.1</ele>
        <time>2021-10-05T11:27:41Z</time>
      </trkpt>
      <trkpt lat="42.8152010" lon="-7.6692010">
        <ele>532.1</ele>
        <time>2021-10-05T11:27:45Z</time>
      </trkpt>
      <trkpt lat="42.8153190" lon="-7.6695310">
        <ele>531.9</ele>
        <time>2021-10-05T11:27:52Z</time>
      </trkpt>
      <trkpt lat="42.8153530" lon="-7.6696310">
        <ele>531.8</ele>
        <time>2021-10-05T11:27:54Z</time>
      </trkpt>
      <trkpt lat="42.8154900" lon="-7.6699290">
        <ele>531.3</ele>
        <time>2021-10-05T11:28:01Z</time>
      </trkpt>
      <trkpt lat="42.8156130" lon="-7.6702430">
        <ele>530.8</ele>
        <time>2021-10-05T11:28:08Z</time>
      </trkpt>
      <trkpt lat="42.8156410" lon="-7.6703280">
        <ele>530.6</ele>
        <time>2021-10-05T11:28:10Z</time>
      </trkpt>
      <trkpt lat="42.8156680" lon="-7.6703950">
        <ele>530.5</ele>
        <time>2021-10-05T11:28:12Z</time>
      </trkpt>
      <trkpt lat="42.8157750" lon="-7.6707180">
        <ele>530.0</ele>
        <time>2021-10-05T11:28:19Z</time>
      </trkpt>
      <trkpt lat="42.8159800" lon="-7.6712580">
        <ele>529.7</ele>
        <time>2021-10-05T11:28:31Z</time>
      </trkpt>
      <trkpt lat="42.8162090" lon="-7.6719330">
        <ele>529.9</ele>
        <time>2021-10-05T11:28:46Z</time>
      </trkpt>
      <trkpt lat="42.8162370" lon="-7.6722440">
        <ele>530.2</ele>
        <time>2021-10-05T11:28:54Z</time>
      </trkpt>
      <trkpt lat="42.8162340" lon="-7.6723160">
        <ele>530.2</ele>
        <time>2021-10-05T11:28:56Z</time>
      </trkpt>
      <trkpt lat="42.8162250" lon="-7.6724680">
        <ele>530.5</ele>
        <time>2021-10-05T11:28:59Z</time>
      </trkpt>
      <trkpt lat="42.8162370" lon="-7.6726030">
        <ele>530.8</ele>
        <time>2021-10-05T11:29:03Z</time>
      </trkpt>
      <trkpt lat="42.8162540" lon="-7.6728060">
        <ele>531.3</ele>
        <time>2021-10-05T11:29:08Z</time>
      </trkpt>
      <trkpt lat="42.8162500" lon="-7.6729530">
        <ele>531.6</ele>
        <time>2021-10-05T11:29:12Z</time>
      </trkpt>
      <trkpt lat="42.8162470" lon="-7.6731540">
        <ele>532.1</ele>
        <time>2021-10-05T11:30:42Z</time>
      </trkpt>
      <trkpt lat="42.8162480" lon="-7.6731780">
        <ele>532.2</ele>
        <time>2021-10-05T11:30:43Z</time>
      </trkpt>
      <trkpt lat="42.8162510" lon="-7.6732050">
        <ele>532.3</ele>
        <time>2021-10-05T11:30:44Z</time>
      </trkpt>
      <trkpt lat="42.8162700" lon="-7.6733710">
        <ele>532.6</ele>
        <time>2021-10-05T11:30:49Z</time>
      </trkpt>
      <trkpt lat="42.8162950" lon="-7.6736080">
        <ele>533.2</ele>
        <time>2021-10-05T11:30:55Z</time>
      </trkpt>
      <trkpt lat="42.8163360" lon="-7.6737760">
        <ele>533.6</ele>
        <time>2021-10-05T11:33:36Z</time>
      </trkpt>
      <trkpt lat="42.8163360" lon="-7.6737760">
        <ele>533.6</ele>
        <time>2021-10-05T11:33:37Z</time>
      </trkpt>
      <trkpt lat="42.8163480" lon="-7.6738190">
        <ele>533.7</ele>
        <time>2021-10-05T11:34:09Z</time>
      </trkpt>
      <trkpt lat="42.8163620" lon="-7.6738650">
        <ele>533.9</ele>
        <time>2021-10-05T11:34:11Z</time>
      </trkpt>
      <trkpt lat="42.8163910" lon="-7.6739380">
        <ele>534.1</ele>
        <time>2021-10-05T11:34:14Z</time>
      </trkpt>
      <trkpt lat="42.8164290" lon="-7.6740210">
        <ele>534.3</ele>
        <time>2021-10-05T11:34:17Z</time>
      </trkpt>
      <trkpt lat="42.8164800" lon="-7.6741430">
        <ele>534.7</ele>
        <time>2021-10-05T11:34:21Z</time>
      </trkpt>
      <trkpt lat="42.8166480" lon="-7.6743930">
        <ele>535.3</ele>
        <time>2021-10-05T11:34:30Z</time>
      </trkpt>
      <trkpt lat="42.8167100" lon="-7.6744690">
        <ele>535.4</ele>
        <time>2021-10-05T11:34:33Z</time>
      </trkpt>
      <trkpt lat="42.8168800" lon="-7.6746580">
        <ele>535.9</ele>
        <time>2021-10-05T11:34:41Z</time>
      </trkpt>
      <trkpt lat="42.8169000" lon="-7.6746830">
        <ele>535.9</ele>
        <time>2021-10-05T11:34:42Z</time>
      </trkpt>
      <trkpt lat="42.8173380" lon="-7.6751290">
        <ele>536.1</ele>
        <time>2021-10-05T11:34:58Z</time>
      </trkpt>
      <trkpt lat="42.8178290" lon="-7.6754860">
        <ele>536.3</ele>
        <time>2021-10-05T11:35:13Z</time>
      </trkpt>
      <trkpt lat="42.8183520" lon="-7.6757760">
        <ele>536.7</ele>
        <time>2021-10-05T11:35:29Z</time>
      </trkpt>
      <trkpt lat="42.8188270" lon="-7.6761660">
        <ele>537.0</ele>
        <time>2021-10-05T11:35:43Z</time>
      </trkpt>
      <trkpt lat="42.8189290" lon="-7.6762560">
        <ele>537.2</ele>
        <time>2021-10-05T11:35:46Z</time>
      </trkpt>
      <trkpt lat="42.8192530" lon="-7.6766280">
        <ele>538.2</ele>
        <time>2021-10-05T11:35:57Z</time>
      </trkpt>
      <trkpt lat="42.8193180" lon="-7.6766130">
        <ele>538.7</ele>
        <time>2021-10-05T11:35:59Z</time>
      </trkpt>
      <trkpt lat="42.8194020" lon="-7.6765560">
        <ele>539.1</ele>
        <time>2021-10-05T11:36:02Z</time>
      </trkpt>
      <trkpt lat="42.8195200" lon="-7.6764950">
        <ele>539.6</ele>
        <time>2021-10-05T11:36:06Z</time>
      </trkpt>
      <trkpt lat="42.8196330" lon="-7.6766240">
        <ele>540.1</ele>
        <time>2021-10-05T11:36:11Z</time>
      </trkpt>
      <trkpt lat="42.8198800" lon="-7.6770730">
        <ele>540.6</ele>
        <time>2021-10-05T11:36:22Z</time>
      </trkpt>
      <trkpt lat="42.8199740" lon="-7.6772380">
        <ele>540.7</ele>
        <time>2021-10-05T11:36:26Z</time>
      </trkpt>
      <trkpt lat="42.8202210" lon="-7.6779320">
        <ele>541.5</ele>
        <time>2021-10-05T11:36:41Z</time>
      </trkpt>
      <trkpt lat="42.8202700" lon="-7.6780530">
        <ele>541.7</ele>
        <time>2021-10-05T11:36:44Z</time>
      </trkpt>
      <trkpt lat="42.8203250" lon="-7.6781630">
        <ele>541.9</ele>
        <time>2021-10-05T11:36:47Z</time>
      </trkpt>
      <trkpt lat="42.8204020" lon="-7.6782520">
        <ele>542.2</ele>
        <time>2021-10-05T11:36:50Z</time>
      </trkpt>
      <trkpt lat="42.8207000" lon="-7.6786550">
        <ele>543.4</ele>
        <time>2021-10-05T11:37:01Z</time>
      </trkpt>
      <trkpt lat="42.8208190" lon="-7.6788620">
        <ele>544.3</ele>
        <time>2021-10-05T11:37:06Z</time>
      </trkpt>
      <trkpt lat="42.8208840" lon="-7.6789810">
        <ele>545.0</ele>
        <time>2021-10-05T11:37:09Z</time>
      </trkpt>
      <trkpt lat="42.8209560" lon="-7.6791420">
        <ele>545.7</ele>
        <time>2021-10-05T11:37:13Z</time>
      </trkpt>
      <trkpt lat="42.8209720" lon="-7.6791830">
        <ele>545.9</ele>
        <time>2021-10-05T11:37:14Z</time>
      </trkpt>
      <trkpt lat="42.8211140" lon="-7.6797640">
        <ele>545.9</ele>
        <time>2021-10-05T11:37:25Z</time>
      </trkpt>
      <trkpt lat="42.8211480" lon="-7.6799500">
        <ele>545.3</ele>
        <time>2021-10-05T11:37:28Z</time>
      </trkpt>
      <trkpt lat="42.8211730" lon="-7.6800740">
        <ele>544.9</ele>
        <time>2021-10-05T11:37:30Z</time>
      </trkpt>
      <trkpt lat="42.8211990" lon="-7.6802030">
        <ele>544.4</ele>
        <time>2021-10-05T11:37:32Z</time>
      </trkpt>
      <trkpt lat="42.8212360" lon="-7.6804860">
        <ele>543.0</ele>
        <time>2021-10-05T11:37:36Z</time>
      </trkpt>
      <trkpt lat="42.8212450" lon="-7.6805670">
        <ele>542.5</ele>
        <time>2021-10-05T11:37:37Z</time>
      </trkpt>
      <trkpt lat="42.8212880" lon="-7.6808270">
        <ele>540.9</ele>
        <time>2021-10-05T11:37:40Z</time>
      </trkpt>
      <trkpt lat="42.8213980" lon="-7.6813270">
        <ele>537.8</ele>
        <time>2021-10-05T11:37:45Z</time>
      </trkpt>
      <trkpt lat="42.8214340" lon="-7.6815360">
        <ele>536.7</ele>
        <time>2021-10-05T11:37:47Z</time>
      </trkpt>
      <trkpt lat="42.8214560" lon="-7.6816370">
        <ele>536.2</ele>
        <time>2021-10-05T11:37:48Z</time>
      </trkpt>
      <trkpt lat="42.8214900" lon="-7.6818390">
        <ele>535.3</ele>
        <time>2021-10-05T11:37:50Z</time>
      </trkpt>
      <trkpt lat="42.8215190" lon="-7.6820480">
        <ele>534.4</ele>
        <time>2021-10-05T11:37:52Z</time>
      </trkpt>
      <trkpt lat="42.8215490" lon="-7.6822580">
        <ele>533.7</ele>
        <time>2021-10-05T11:37:54Z</time>
      </trkpt>
      <trkpt lat="42.8216010" lon="-7.6826510">
        <ele>533.0</ele>
        <time>2021-10-05T11:37:58Z</time>
      </trkpt>
      <trkpt lat="42.8216820" lon="-7.6831540">
        <ele>532.7</ele>
        <time>2021-10-05T11:38:04Z</time>
      </trkpt>
      <trkpt lat="42.8217380" lon="-7.6834950">
        <ele>533.0</ele>
        <time>2021-10-05T11:38:09Z</time>
      </trkpt>
      <trkpt lat="42.8217780" lon="-7.6837170">
        <ele>533.4</ele>
        <time>2021-10-05T11:38:13Z</time>
      </trkpt>
      <trkpt lat="42.8218020" lon="-7.6838770">
        <ele>533.7</ele>
        <time>2021-10-05T11:38:16Z</time>
      </trkpt>
      <trkpt lat="42.8218260" lon="-7.6840280">
        <ele>534.0</ele>
        <time>2021-10-05T11:38:19Z</time>
      </trkpt>
      <trkpt lat="42.8219030" lon="-7.6845650">
        <ele>535.2</ele>
        <time>2021-10-05T11:38:30Z</time>
      </trkpt>
      <trkpt lat="42.8219080" lon="-7.6846140">
        <ele>535.3</ele>
        <time>2021-10-05T11:38:31Z</time>
      </trkpt>
      <trkpt lat="42.8219290" lon="-7.6848320">
        <ele>535.7</ele>
        <time>2021-10-05T11:38:35Z</time>
      </trkpt>
      <trkpt lat="42.8219900" lon="-7.6852440">
        <ele>536.0</ele>
        <time>2021-10-05T11:38:42Z</time>
      </trkpt>
      <trkpt lat="42.8220600" lon="-7.6856260">
        <ele>536.0</ele>
        <time>2021-10-05T11:38:48Z</time>
      </trkpt>
      <trkpt lat="42.8220820" lon="-7.6858080">
        <ele>535.8</ele>
        <time>2021-10-05T11:38:51Z</time>
      </trkpt>
      <trkpt lat="42.8221570" lon="-7.6860710">
        <ele>535.1</ele>
        <time>2021-10-05T11:38:55Z</time>
      </trkpt>
      <trkpt lat="42.8222610" lon="-7.6863600">
        <ele>533.9</ele>
        <time>2021-10-05T11:38:59Z</time>
      </trkpt>
      <trkpt lat="42.8223270" lon="-7.6865140">
        <ele>533.0</ele>
        <time>2021-10-05T11:39:01Z</time>
      </trkpt>
      <trkpt lat="42.8224090" lon="-7.6866770">
        <ele>532.0</ele>
        <time>2021-10-05T11:39:03Z</time>
      </trkpt>
      <trkpt lat="42.8224970" lon="-7.6868460">
        <ele>531.2</ele>
        <time>2021-10-05T11:39:05Z</time>
      </trkpt>
      <trkpt lat="42.8225870" lon="-7.6870060">
        <ele>530.6</ele>
        <time>2021-10-05T11:39:07Z</time>
      </trkpt>
      <trkpt lat="42.8226790" lon="-7.6871630">
        <ele>529.9</ele>
        <time>2021-10-05T11:39:09Z</time>
      </trkpt>
      <trkpt lat="42.8227730" lon="-7.6873270">
        <ele>529.2</ele>
        <time>2021-10-05T11:39:11Z</time>
      </trkpt>
      <trkpt lat="42.8228620" lon="-7.6874950">
        <ele>528.5</ele>
        <time>2021-10-05T11:39:13Z</time>
      </trkpt>
      <trkpt lat="42.8231170" lon="-7.6879040">
        <ele>527.8</ele>
        <time>2021-10-05T11:39:19Z</time>
      </trkpt>
      <trkpt lat="42.8231870" lon="-7.6880250">
        <ele>527.8</ele>
        <time>2021-10-05T11:39:21Z</time>
      </trkpt>
      <trkpt lat="42.8234790" lon="-7.6886620">
        <ele>526.5</ele>
        <time>2021-10-05T11:39:30Z</time>
      </trkpt>
      <trkpt lat="42.8235520" lon="-7.6888030">
        <ele>526.6</ele>
        <time>2021-10-05T11:39:32Z</time>
      </trkpt>
      <trkpt lat="42.8236170" lon="-7.6889410">
        <ele>526.9</ele>
        <time>2021-10-05T11:39:34Z</time>
      </trkpt>
      <trkpt lat="42.8239680" lon="-7.6895470">
        <ele>528.4</ele>
        <time>2021-10-05T11:39:46Z</time>
      </trkpt>
      <trkpt lat="42.8240170" lon="-7.6896190">
        <ele>528.7</ele>
        <time>2021-10-05T11:39:48Z</time>
      </trkpt>
      <trkpt lat="42.8241220" lon="-7.6897820">
        <ele>529.4</ele>
        <time>2021-10-05T11:39:54Z</time>
      </trkpt>
      <trkpt lat="42.8241900" lon="-7.6898750">
        <ele>529.8</ele>
        <time>2021-10-05T11:39:57Z</time>
      </trkpt>
      <trkpt lat="42.8242690" lon="-7.6899910">
        <ele>530.3</ele>
        <time>2021-10-05T11:40:00Z</time>
      </trkpt>
      <trkpt lat="42.8242910" lon="-7.6900280">
        <ele>530.5</ele>
        <time>2021-10-05T11:40:01Z</time>
      </trkpt>
      <trkpt lat="42.8243520" lon="-7.6901220">
        <ele>531.1</ele>
        <time>2021-10-05T11:40:04Z</time>
      </trkpt>
      <trkpt lat="42.8243920" lon="-7.6901750">
        <ele>531.6</ele>
        <time>2021-10-05T11:40:06Z</time>
      </trkpt>
      <trkpt lat="42.8244800" lon="-7.6902710">
        <ele>532.5</ele>
        <time>2021-10-05T11:40:10Z</time>
      </trkpt>
      <trkpt lat="42.8245210" lon="-7.6903740">
        <ele>533.2</ele>
        <time>2021-10-05T11:40:13Z</time>
      </trkpt>
      <trkpt lat="42.8245790" lon="-7.6905290">
        <ele>534.0</ele>
        <time>2021-10-05T11:40:17Z</time>
      </trkpt>
      <trkpt lat="42.8246800" lon="-7.6908030">
        <ele>535.3</ele>
        <time>2021-10-05T11:40:24Z</time>
      </trkpt>
      <trkpt lat="42.8247200" lon="-7.6909170">
        <ele>535.9</ele>
        <time>2021-10-05T11:40:27Z</time>
      </trkpt>
      <trkpt lat="42.8247670" lon="-7.6910750">
        <ele>536.8</ele>
        <time>2021-10-05T11:40:31Z</time>
      </trkpt>
      <trkpt lat="42.8248160" lon="-7.6912300">
        <ele>537.7</ele>
        <time>2021-10-05T11:40:35Z</time>
      </trkpt>
      <trkpt lat="42.8248670" lon="-7.6913860">
        <ele>538.6</ele>
        <time>2021-10-05T11:40:39Z</time>
      </trkpt>
      <trkpt lat="42.8249160" lon="-7.6915400">
        <ele>539.5</ele>
        <time>2021-10-05T11:40:43Z</time>
      </trkpt>
      <trkpt lat="42.8249770" lon="-7.6917420">
        <ele>540.4</ele>
        <time>2021-10-05T11:40:48Z</time>
      </trkpt>
      <trkpt lat="42.8250540" lon="-7.6919820">
        <ele>541.3</ele>
        <time>2021-10-05T11:40:54Z</time>
      </trkpt>
      <trkpt lat="42.8251700" lon="-7.6923690">
        <ele>542.2</ele>
        <time>2021-10-05T11:41:03Z</time>
      </trkpt>
      <trkpt lat="42.8252100" lon="-7.6924950">
        <ele>542.5</ele>
        <time>2021-10-05T11:41:06Z</time>
      </trkpt>
      <trkpt lat="42.8252480" lon="-7.6926190">
        <ele>542.8</ele>
        <time>2021-10-05T11:41:09Z</time>
      </trkpt>
      <trkpt lat="42.8253640" lon="-7.6929970">
        <ele>543.6</ele>
        <time>2021-10-05T11:41:18Z</time>
      </trkpt>
      <trkpt lat="42.8254740" lon="-7.6933560">
        <ele>544.5</ele>
        <time>2021-10-05T11:41:27Z</time>
      </trkpt>
      <trkpt lat="42.8255100" lon="-7.6934770">
        <ele>544.8</ele>
        <time>2021-10-05T11:41:30Z</time>
      </trkpt>
      <trkpt lat="42.8255600" lon="-7.6936370">
        <ele>545.2</ele>
        <time>2021-10-05T11:41:34Z</time>
      </trkpt>
      <trkpt lat="42.8256390" lon="-7.6938730">
        <ele>545.7</ele>
        <time>2021-10-05T11:41:40Z</time>
      </trkpt>
      <trkpt lat="42.8257330" lon="-7.6942020">
        <ele>546.5</ele>
        <time>2021-10-05T11:41:48Z</time>
      </trkpt>
      <trkpt lat="42.8258200" lon="-7.6944830">
        <ele>547.2</ele>
        <time>2021-10-05T11:41:55Z</time>
      </trkpt>
      <trkpt lat="42.8258560" lon="-7.6946010">
        <ele>547.5</ele>
        <time>2021-10-05T11:41:58Z</time>
      </trkpt>
      <trkpt lat="42.8259440" lon="-7.6948860">
        <ele>548.1</ele>
        <time>2021-10-05T11:42:05Z</time>
      </trkpt>
      <trkpt lat="42.8260830" lon="-7.6953240">
        <ele>549.2</ele>
        <time>2021-10-05T11:42:16Z</time>
      </trkpt>
      <trkpt lat="42.8261550" lon="-7.6955640">
        <ele>550.0</ele>
        <time>2021-10-05T11:42:22Z</time>
      </trkpt>
      <trkpt lat="42.8261810" lon="-7.6956340">
        <ele>550.2</ele>
        <time>2021-10-05T11:42:24Z</time>
      </trkpt>
      <trkpt lat="42.8262950" lon="-7.6959200">
        <ele>551.1</ele>
        <time>2021-10-05T11:42:32Z</time>
      </trkpt>
      <trkpt lat="42.8265350" lon="-7.6963990">
        <ele>552.2</ele>
        <time>2021-10-05T11:42:45Z</time>
      </trkpt>
      <trkpt lat="42.8265560" lon="-7.6964380">
        <ele>552.2</ele>
        <time>2021-10-05T11:42:46Z</time>
      </trkpt>
      <trkpt lat="42.8268940" lon="-7.6970180">
        <ele>553.1</ele>
        <time>2021-10-05T11:43:01Z</time>
      </trkpt>
      <trkpt lat="42.8269650" lon="-7.6971640">
        <ele>553.6</ele>
        <time>2021-10-05T11:43:05Z</time>
      </trkpt>
      <trkpt lat="42.8269040" lon="-7.6977650">
        <ele>553.7</ele>
        <time>2021-10-05T11:43:16Z</time>
      </trkpt>
      <trkpt lat="42.8268580" lon="-7.6978840">
        <ele>554.2</ele>
        <time>2021-10-05T11:43:19Z</time>
      </trkpt>
      <trkpt lat="42.8268230" lon="-7.6980010">
        <ele>554.7</ele>
        <time>2021-10-05T11:43:22Z</time>
      </trkpt>
      <trkpt lat="42.8267820" lon="-7.6981500">
        <ele>555.4</ele>
        <time>2021-10-05T11:43:26Z</time>
      </trkpt>
      <trkpt lat="42.8267780" lon="-7.6982260">
        <ele>556.1</ele>
        <time>2021-10-05T11:43:28Z</time>
      </trkpt>
      <trkpt lat="42.8268130" lon="-7.6983700">
        <ele>557.2</ele>
        <time>2021-10-05T11:43:33Z</time>
      </trkpt>
      <trkpt lat="42.8268210" lon="-7.6983990">
        <ele>557.4</ele>
        <time>2021-10-05T11:43:34Z</time>
      </trkpt>
      <trkpt lat="42.8268610" lon="-7.6984800">
        <ele>558.1</ele>
        <time>2021-10-05T11:43:37Z</time>
      </trkpt>
      <trkpt lat="42.8268840" lon="-7.6985350">
        <ele>558.5</ele>
        <time>2021-10-05T11:43:39Z</time>
      </trkpt>
      <trkpt lat="42.8269170" lon="-7.6986570">
        <ele>559.4</ele>
        <time>2021-10-05T11:43:43Z</time>
      </trkpt>
      <trkpt lat="42.8269780" lon="-7.6987950">
        <ele>560.4</ele>
        <time>2021-10-05T11:43:48Z</time>
      </trkpt>
      <trkpt lat="42.8270500" lon="-7.6989350">
        <ele>561.3</ele>
        <time>2021-10-05T11:43:53Z</time>
      </trkpt>
      <trkpt lat="42.8271540" lon="-7.6990530">
        <ele>562.3</ele>
        <time>2021-10-05T11:43:58Z</time>
      </trkpt>
      <trkpt lat="42.8273120" lon="-7.6992020">
        <ele>563.4</ele>
        <time>2021-10-05T11:44:05Z</time>
      </trkpt>
      <trkpt lat="42.8274400" lon="-7.6993770">
        <ele>564.4</ele>
        <time>2021-10-05T11:44:13Z</time>
      </trkpt>
      <trkpt lat="42.8274540" lon="-7.6993970">
        <ele>564.5</ele>
        <time>2021-10-05T11:44:14Z</time>
      </trkpt>
      <trkpt lat="42.8275550" lon="-7.6995640">
        <ele>565.4</ele>
        <time>2021-10-05T11:44:21Z</time>
      </trkpt>
      <trkpt lat="42.8277210" lon="-7.6997850">
        <ele>566.8</ele>
        <time>2021-10-05T11:44:30Z</time>
      </trkpt>
      <trkpt lat="42.8277900" lon="-7.6998770">
        <ele>567.4</ele>
        <time>2021-10-05T11:44:34Z</time>
      </trkpt>
      <trkpt lat="42.8279230" lon="-7.7000410">
        <ele>568.7</ele>
        <time>2021-10-05T11:44:41Z</time>
      </trkpt>
      <trkpt lat="42.8280900" lon="-7.7002710">
        <ele>570.4</ele>
        <time>2021-10-05T11:44:50Z</time>
      </trkpt>
      <trkpt lat="42.8281780" lon="-7.7003870">
        <ele>571.3</ele>
        <time>2021-10-05T11:44:55Z</time>
      </trkpt>
      <trkpt lat="42.8282770" lon="-7.7005600">
        <ele>572.6</ele>
        <time>2021-10-05T11:45:01Z</time>
      </trkpt>
      <trkpt lat="42.8283910" lon="-7.7007490">
        <ele>573.8</ele>
        <time>2021-10-05T11:45:08Z</time>
      </trkpt>
      <trkpt lat="42.8284820" lon="-7.7009120">
        <ele>574.7</ele>
        <time>2021-10-05T11:45:14Z</time>
      </trkpt>
      <trkpt lat="42.8285860" lon="-7.7010840">
        <ele>575.9</ele>
        <time>2021-10-05T11:45:21Z</time>
      </trkpt>
      <trkpt lat="42.8286470" lon="-7.7011750">
        <ele>576.7</ele>
        <time>2021-10-05T11:45:25Z</time>
      </trkpt>
      <trkpt lat="42.8287400" lon="-7.7013000">
        <ele>577.7</ele>
        <time>2021-10-05T11:45:31Z</time>
      </trkpt>
      <trkpt lat="42.8288130" lon="-7.7013780">
        <ele>578.4</ele>
        <time>2021-10-05T11:45:35Z</time>
      </trkpt>
      <trkpt lat="42.8289060" lon="-7.7014840">
        <ele>579.1</ele>
        <time>2021-10-05T11:45:41Z</time>
      </trkpt>
      <trkpt lat="42.8290040" lon="-7.7015640">
        <ele>579.3</ele>
        <time>2021-10-05T11:45:46Z</time>
      </trkpt>
      <trkpt lat="42.8291410" lon="-7.7016810">
        <ele>579.2</ele>
        <time>2021-10-05T11:45:51Z</time>
      </trkpt>
      <trkpt lat="42.8292370" lon="-7.7017720">
        <ele>579.2</ele>
        <time>2021-10-05T11:45:54Z</time>
      </trkpt>
      <trkpt lat="42.8293550" lon="-7.7018890">
        <ele>579.3</ele>
        <time>2021-10-05T11:45:58Z</time>
      </trkpt>
      <trkpt lat="42.8294930" lon="-7.7020120">
        <ele>579.5</ele>
        <time>2021-10-05T11:46:03Z</time>
      </trkpt>
      <trkpt lat="42.8295670" lon="-7.7020880">
        <ele>579.7</ele>
        <time>2021-10-05T11:46:06Z</time>
      </trkpt>
      <trkpt lat="42.8296300" lon="-7.7023200">
        <ele>580.2</ele>
        <time>2021-10-05T11:46:13Z</time>
      </trkpt>
      <trkpt lat="42.8296410" lon="-7.7024250">
        <ele>580.5</ele>
        <time>2021-10-05T11:46:16Z</time>
      </trkpt>
      <trkpt lat="42.8296790" lon="-7.7026860">
        <ele>581.5</ele>
        <time>2021-10-05T11:46:22Z</time>
      </trkpt>
      <trkpt lat="42.8297030" lon="-7.7028070">
        <ele>582.2</ele>
        <time>2021-10-05T11:46:25Z</time>
      </trkpt>
      <trkpt lat="42.8297400" lon="-7.7029120">
        <ele>582.9</ele>
        <time>2021-10-05T11:46:28Z</time>
      </trkpt>
      <trkpt lat="42.8297680" lon="-7.7029820">
        <ele>583.5</ele>
        <time>2021-10-05T11:46:30Z</time>
      </trkpt>
      <trkpt lat="42.8298100" lon="-7.7030740">
        <ele>584.2</ele>
        <time>2021-10-05T11:46:33Z</time>
      </trkpt>
      <trkpt lat="42.8298390" lon="-7.7031890">
        <ele>584.9</ele>
        <time>2021-10-05T11:46:36Z</time>
      </trkpt>
      <trkpt lat="42.8298530" lon="-7.7033020">
        <ele>585.4</ele>
        <time>2021-10-05T11:46:39Z</time>
      </trkpt>
      <trkpt lat="42.8298980" lon="-7.7035340">
        <ele>586.1</ele>
        <time>2021-10-05T11:46:45Z</time>
      </trkpt>
      <trkpt lat="42.8299070" lon="-7.7035700">
        <ele>586.2</ele>
        <time>2021-10-05T11:46:46Z</time>
      </trkpt>
      <trkpt lat="42.8300130" lon="-7.7039440">
        <ele>587.5</ele>
        <time>2021-10-05T11:46:56Z</time>
      </trkpt>
      <trkpt lat="42.8300920" lon="-7.7041790">
        <ele>588.5</ele>
        <time>2021-10-05T11:47:02Z</time>
      </trkpt>
      <trkpt lat="42.8301070" lon="-7.7042180">
        <ele>588.7</ele>
        <time>2021-10-05T11:47:03Z</time>
      </trkpt>
      <trkpt lat="42.8302340" lon="-7.7045390">
        <ele>589.9</ele>
        <time>2021-10-05T11:47:11Z</time>
      </trkpt>
      <trkpt lat="42.8304020" lon="-7.7048740">
        <ele>591.1</ele>
        <time>2021-10-05T11:47:20Z</time>
      </trkpt>
      <trkpt lat="42.8305380" lon="-7.7051460">
        <ele>591.8</ele>
        <time>2021-10-05T11:47:27Z</time>
      </trkpt>
      <trkpt lat="42.8306210" lon="-7.7052730">
        <ele>591.9</ele>
        <time>2021-10-05T11:47:31Z</time>
      </trkpt>
      <trkpt lat="42.8307020" lon="-7.7054170">
        <ele>592.2</ele>
        <time>2021-10-05T11:47:35Z</time>
      </trkpt>
      <trkpt lat="42.8308570" lon="-7.7056620">
        <ele>593.4</ele>
        <time>2021-10-05T11:47:43Z</time>
      </trkpt>
      <trkpt lat="42.8308690" lon="-7.7057120">
        <ele>593.5</ele>
        <time>2021-10-05T11:47:44Z</time>
      </trkpt>
      <trkpt lat="42.8309400" lon="-7.7060640">
        <ele>593.5</ele>
        <time>2021-10-05T11:47:50Z</time>
      </trkpt>
      <trkpt lat="42.8309820" lon="-7.7062290">
        <ele>593.5</ele>
        <time>2021-10-05T11:47:53Z</time>
      </trkpt>
      <trkpt lat="42.8310260" lon="-7.7063770">
        <ele>593.5</ele>
        <time>2021-10-05T11:47:56Z</time>
      </trkpt>
      <trkpt lat="42.8310460" lon="-7.7064260">
        <ele>593.5</ele>
        <time>2021-10-05T11:47:57Z</time>
      </trkpt>
      <trkpt lat="42.8310990" lon="-7.7065830">
        <ele>593.5</ele>
        <time>2021-10-05T11:48:00Z</time>
      </trkpt>
      <trkpt lat="42.8311760" lon="-7.7068610">
        <ele>593.2</ele>
        <time>2021-10-05T11:48:05Z</time>
      </trkpt>
      <trkpt lat="42.8312540" lon="-7.7070640">
        <ele>592.8</ele>
        <time>2021-10-05T11:48:09Z</time>
      </trkpt>
      <trkpt lat="42.8313270" lon="-7.7073140">
        <ele>592.4</ele>
        <time>2021-10-05T11:48:13Z</time>
      </trkpt>
      <trkpt lat="42.8313840" lon="-7.7074620">
        <ele>592.3</ele>
        <time>2021-10-05T11:48:16Z</time>
      </trkpt>
      <trkpt lat="42.8314410" lon="-7.7076560">
        <ele>592.3</ele>
        <time>2021-10-05T11:48:20Z</time>
      </trkpt>
      <trkpt lat="42.8314590" lon="-7.7077610">
        <ele>592.3</ele>
        <time>2021-10-05T11:48:22Z</time>
      </trkpt>
      <trkpt lat="42.8315030" lon="-7.7080550">
        <ele>592.5</ele>
        <time>2021-10-05T11:48:28Z</time>
      </trkpt>
      <trkpt lat="42.8315200" lon="-7.7082460">
        <ele>592.8</ele>
        <time>2021-10-05T11:48:34Z</time>
      </trkpt>
      <trkpt lat="42.8315250" lon="-7.7083290">
        <ele>593.0</ele>
        <time>2021-10-05T11:48:36Z</time>
      </trkpt>
      <trkpt lat="42.8315370" lon="-7.7083990">
        <ele>593.2</ele>
        <time>2021-10-05T11:48:38Z</time>
      </trkpt>
      <trkpt lat="42.8315710" lon="-7.7084990">
        <ele>593.6</ele>
        <time>2021-10-05T11:48:41Z</time>
      </trkpt>
      <trkpt lat="42.8316230" lon="-7.7085830">
        <ele>594.4</ele>
        <time>2021-10-05T11:48:44Z</time>
      </trkpt>
      <trkpt lat="42.8316440" lon="-7.7086040">
        <ele>594.6</ele>
        <time>2021-10-05T11:48:45Z</time>
      </trkpt>
      <trkpt lat="42.8316990" lon="-7.7086570">
        <ele>595.2</ele>
        <time>2021-10-05T11:48:48Z</time>
      </trkpt>
      <trkpt lat="42.8317260" lon="-7.7087070">
        <ele>595.7</ele>
        <time>2021-10-05T11:48:50Z</time>
      </trkpt>
      <trkpt lat="42.8317390" lon="-7.7087730">
        <ele>596.2</ele>
        <time>2021-10-05T11:48:52Z</time>
      </trkpt>
      <trkpt lat="42.8317400" lon="-7.7088800">
        <ele>596.8</ele>
        <time>2021-10-05T11:48:55Z</time>
      </trkpt>
      <trkpt lat="42.8317280" lon="-7.7089730">
        <ele>597.4</ele>
        <time>2021-10-05T11:48:58Z</time>
      </trkpt>
      <trkpt lat="42.8317580" lon="-7.7091060">
        <ele>598.4</ele>
        <time>2021-10-05T11:49:03Z</time>
      </trkpt>
      <trkpt lat="42.8318010" lon="-7.7092050">
        <ele>599.1</ele>
        <time>2021-10-05T11:49:07Z</time>
      </trkpt>
      <trkpt lat="42.8318500" lon="-7.7093240">
        <ele>599.7</ele>
        <time>2021-10-05T11:49:12Z</time>
      </trkpt>
      <trkpt lat="42.8318850" lon="-7.7094390">
        <ele>600.3</ele>
        <time>2021-10-05T11:49:16Z</time>
      </trkpt>
      <trkpt lat="42.8319280" lon="-7.7095700">
        <ele>601.0</ele>
        <time>2021-10-05T11:49:20Z</time>
      </trkpt>
      <trkpt lat="42.8320480" lon="-7.7097630">
        <ele>602.6</ele>
        <time>2021-10-05T11:49:28Z</time>
      </trkpt>
      <trkpt lat="42.8321130" lon="-7.7099320">
        <ele>604.2</ele>
        <time>2021-10-05T11:49:34Z</time>
      </trkpt>
      <trkpt lat="42.8321360" lon="-7.7100520">
        <ele>605.3</ele>
        <time>2021-10-05T11:49:38Z</time>
      </trkpt>
      <trkpt lat="42.8321560" lon="-7.7101370">
        <ele>606.3</ele>
        <time>2021-10-05T11:49:41Z</time>
      </trkpt>
      <trkpt lat="42.8321650" lon="-7.7101640">
        <ele>606.6</ele>
        <time>2021-10-05T11:49:42Z</time>
      </trkpt>
      <trkpt lat="42.8322100" lon="-7.7102600">
        <ele>607.7</ele>
        <time>2021-10-05T11:49:46Z</time>
      </trkpt>
      <trkpt lat="42.8322190" lon="-7.7102820">
        <ele>608.0</ele>
        <time>2021-10-05T11:49:47Z</time>
      </trkpt>
      <trkpt lat="42.8322480" lon="-7.7103540">
        <ele>608.9</ele>
        <time>2021-10-05T11:49:50Z</time>
      </trkpt>
      <trkpt lat="42.8323010" lon="-7.7104320">
        <ele>610.0</ele>
        <time>2021-10-05T11:49:54Z</time>
      </trkpt>
      <trkpt lat="42.8323480" lon="-7.7105180">
        <ele>611.0</ele>
        <time>2021-10-05T11:49:58Z</time>
      </trkpt>
      <trkpt lat="42.8324000" lon="-7.7105950">
        <ele>612.0</ele>
        <time>2021-10-05T11:50:02Z</time>
      </trkpt>
      <trkpt lat="42.8324580" lon="-7.7107040">
        <ele>613.3</ele>
        <time>2021-10-05T11:50:07Z</time>
      </trkpt>
      <trkpt lat="42.8325180" lon="-7.7108180">
        <ele>614.5</ele>
        <time>2021-10-05T11:50:12Z</time>
      </trkpt>
      <trkpt lat="42.8325770" lon="-7.7108950">
        <ele>615.5</ele>
        <time>2021-10-05T11:50:16Z</time>
      </trkpt>
      <trkpt lat="42.8326600" lon="-7.7110230">
        <ele>616.9</ele>
        <time>2021-10-05T11:50:22Z</time>
      </trkpt>
      <trkpt lat="42.8326910" lon="-7.7110980">
        <ele>617.6</ele>
        <time>2021-10-05T11:50:25Z</time>
      </trkpt>
      <trkpt lat="42.8327850" lon="-7.7112680">
        <ele>619.2</ele>
        <time>2021-10-05T11:50:32Z</time>
      </trkpt>
      <trkpt lat="42.8328640" lon="-7.7113800">
        <ele>620.4</ele>
        <time>2021-10-05T11:50:37Z</time>
      </trkpt>
      <trkpt lat="42.8329230" lon="-7.7115110">
        <ele>621.6</ele>
        <time>2021-10-05T11:50:42Z</time>
      </trkpt>
      <trkpt lat="42.8329660" lon="-7.7115800">
        <ele>622.3</ele>
        <time>2021-10-05T11:50:45Z</time>
      </trkpt>
      <trkpt lat="42.8330400" lon="-7.7116930">
        <ele>623.5</ele>
        <time>2021-10-05T11:50:50Z</time>
      </trkpt>
      <trkpt lat="42.8331110" lon="-7.7118380">
        <ele>624.8</ele>
        <time>2021-10-05T11:50:56Z</time>
      </trkpt>
      <trkpt lat="42.8331400" lon="-7.7119130">
        <ele>625.5</ele>
        <time>2021-10-05T11:50:59Z</time>
      </trkpt>
      <trkpt lat="42.8331730" lon="-7.7120500">
        <ele>626.8</ele>
        <time>2021-10-05T11:51:04Z</time>
      </trkpt>
      <trkpt lat="42.8332130" lon="-7.7121460">
        <ele>627.4</ele>
        <time>2021-10-05T11:51:09Z</time>
      </trkpt>
      <trkpt lat="42.8332240" lon="-7.7121520">
        <ele>627.5</ele>
        <time>2021-10-05T11:51:11Z</time>
      </trkpt>
      <trkpt lat="42.8332000" lon="-7.7121060">
        <ele>627.8</ele>
        <time>2021-10-05T11:56:06Z</time>
      </trkpt>
      <trkpt lat="42.8332040" lon="-7.7121150">
        <ele>627.8</ele>
        <time>2021-10-05T11:56:07Z</time>
      </trkpt>
      <trkpt lat="42.8332220" lon="-7.7121620">
        <ele>628.1</ele>
        <time>2021-10-05T11:56:10Z</time>
      </trkpt>
      <trkpt lat="42.8332330" lon="-7.7122140">
        <ele>628.3</ele>
        <time>2021-10-05T11:56:12Z</time>
      </trkpt>
      <trkpt lat="42.8332610" lon="-7.7123140">
        <ele>628.8</ele>
        <time>2021-10-05T11:56:15Z</time>
      </trkpt>
      <trkpt lat="42.8333630" lon="-7.7125520">
        <ele>630.1</ele>
        <time>2021-10-05T11:56:25Z</time>
      </trkpt>
      <trkpt lat="42.8334360" lon="-7.7127190">
        <ele>631.1</ele>
        <time>2021-10-05T11:56:31Z</time>
      </trkpt>
      <trkpt lat="42.8334530" lon="-7.7127840">
        <ele>631.4</ele>
        <time>2021-10-05T11:56:33Z</time>
      </trkpt>
      <trkpt lat="42.8335180" lon="-7.7129750">
        <ele>632.5</ele>
        <time>2021-10-05T11:56:39Z</time>
      </trkpt>
      <trkpt lat="42.8335280" lon="-7.7130060">
        <ele>632.7</ele>
        <time>2021-10-05T11:56:40Z</time>
      </trkpt>
      <trkpt lat="42.8335740" lon="-7.7131170">
        <ele>633.4</ele>
        <time>2021-10-05T11:56:44Z</time>
      </trkpt>
      <trkpt lat="42.8335840" lon="-7.7131430">
        <ele>633.6</ele>
        <time>2021-10-05T11:56:45Z</time>
      </trkpt>
      <trkpt lat="42.8336150" lon="-7.7132450">
        <ele>634.3</ele>
        <time>2021-10-05T11:56:49Z</time>
      </trkpt>
      <trkpt lat="42.8336240" lon="-7.7133000">
        <ele>634.7</ele>
        <time>2021-10-05T11:56:51Z</time>
      </trkpt>
      <trkpt lat="42.8336460" lon="-7.7134570">
        <ele>635.8</ele>
        <time>2021-10-05T11:56:56Z</time>
      </trkpt>
      <trkpt lat="42.8336800" lon="-7.7136000">
        <ele>636.8</ele>
        <time>2021-10-05T11:57:01Z</time>
      </trkpt>
      <trkpt lat="42.8337280" lon="-7.7136720">
        <ele>637.9</ele>
        <time>2021-10-05T11:57:04Z</time>
      </trkpt>
      <trkpt lat="42.8337590" lon="-7.7137490">
        <ele>638.7</ele>
        <time>2021-10-05T11:57:07Z</time>
      </trkpt>
      <trkpt lat="42.8337760" lon="-7.7138330">
        <ele>639.5</ele>
        <time>2021-10-05T11:57:10Z</time>
      </trkpt>
      <trkpt lat="42.8337850" lon="-7.7138860">
        <ele>640.0</ele>
        <time>2021-10-05T11:57:12Z</time>
      </trkpt>
      <trkpt lat="42.8337860" lon="-7.7139680">
        <ele>640.7</ele>
        <time>2021-10-05T11:57:15Z</time>
      </trkpt>
      <trkpt lat="42.8337790" lon="-7.7141140">
        <ele>642.0</ele>
        <time>2021-10-05T11:57:20Z</time>
      </trkpt>
      <trkpt lat="42.8337490" lon="-7.7142940">
        <ele>643.4</ele>
        <time>2021-10-05T11:57:26Z</time>
      </trkpt>
      <trkpt lat="42.8337240" lon="-7.7144360">
        <ele>644.7</ele>
        <time>2021-10-05T11:57:31Z</time>
      </trkpt>
      <trkpt lat="42.8336820" lon="-7.7146170">
        <ele>646.4</ele>
        <time>2021-10-05T11:57:38Z</time>
      </trkpt>
      <trkpt lat="42.8336560" lon="-7.7147450">
        <ele>647.7</ele>
        <time>2021-10-05T11:57:43Z</time>
      </trkpt>
      <trkpt lat="42.8336220" lon="-7.7148990">
        <ele>649.2</ele>
        <time>2021-10-05T11:57:49Z</time>
      </trkpt>
      <trkpt lat="42.8336060" lon="-7.7149760">
        <ele>650.0</ele>
        <time>2021-10-05T11:57:52Z</time>
      </trkpt>
      <trkpt lat="42.8335800" lon="-7.7151020">
        <ele>651.3</ele>
        <time>2021-10-05T11:57:57Z</time>
      </trkpt>
      <trkpt lat="42.8335740" lon="-7.7151510">
        <ele>651.7</ele>
        <time>2021-10-05T11:57:59Z</time>
      </trkpt>
      <trkpt lat="42.8335450" lon="-7.7152990">
        <ele>653.3</ele>
        <time>2021-10-05T11:58:05Z</time>
      </trkpt>
      <trkpt lat="42.8335340" lon="-7.7153970">
        <ele>654.3</ele>
        <time>2021-10-05T11:58:09Z</time>
      </trkpt>
      <trkpt lat="42.8335220" lon="-7.7154900">
        <ele>655.3</ele>
        <time>2021-10-05T11:58:13Z</time>
      </trkpt>
      <trkpt lat="42.8335170" lon="-7.7155590">
        <ele>656.1</ele>
        <time>2021-10-05T11:58:16Z</time>
      </trkpt>
      <trkpt lat="42.8335020" lon="-7.7156730">
        <ele>657.3</ele>
        <time>2021-10-05T11:58:21Z</time>
      </trkpt>
      <trkpt lat="42.8334990" lon="-7.7157400">
        <ele>658.0</ele>
        <time>2021-10-05T11:58:24Z</time>
      </trkpt>
      <trkpt lat="42.8334990" lon="-7.7158510">
        <ele>659.1</ele>
        <time>2021-10-05T11:58:29Z</time>
      </trkpt>
      <trkpt lat="42.8335060" lon="-7.7159900">
        <ele>660.6</ele>
        <time>2021-10-05T11:58:35Z</time>
      </trkpt>
      <trkpt lat="42.8335050" lon="-7.7160840">
        <ele>661.5</ele>
        <time>2021-10-05T11:58:39Z</time>
      </trkpt>
      <trkpt lat="42.8335060" lon="-7.7162460">
        <ele>663.2</ele>
        <time>2021-10-05T11:58:46Z</time>
      </trkpt>
      <trkpt lat="42.8335040" lon="-7.7163660">
        <ele>664.5</ele>
        <time>2021-10-05T11:58:51Z</time>
      </trkpt>
      <trkpt lat="42.8335050" lon="-7.7164880">
        <ele>665.8</ele>
        <time>2021-10-05T11:58:56Z</time>
      </trkpt>
      <trkpt lat="42.8335060" lon="-7.7165850">
        <ele>666.9</ele>
        <time>2021-10-05T11:59:00Z</time>
      </trkpt>
      <trkpt lat="42.8335060" lon="-7.7167060">
        <ele>668.2</ele>
        <time>2021-10-05T11:59:05Z</time>
      </trkpt>
      <trkpt lat="42.8335050" lon="-7.7168520">
        <ele>669.8</ele>
        <time>2021-10-05T11:59:11Z</time>
      </trkpt>
      <trkpt lat="42.8335050" lon="-7.7169260">
        <ele>670.5</ele>
        <time>2021-10-05T11:59:14Z</time>
      </trkpt>
      <trkpt lat="42.8335080" lon="-7.7170000">
        <ele>671.3</ele>
        <time>2021-10-05T11:59:17Z</time>
      </trkpt>
      <trkpt lat="42.8335170" lon="-7.7170970">
        <ele>672.5</ele>
        <time>2021-10-05T11:59:21Z</time>
      </trkpt>
      <trkpt lat="42.8335370" lon="-7.7172120">
        <ele>673.7</ele>
        <time>2021-10-05T11:59:26Z</time>
      </trkpt>
      <trkpt lat="42.8335710" lon="-7.7172680">
        <ele>674.4</ele>
        <time>2021-10-05T11:59:29Z</time>
      </trkpt>
      <trkpt lat="42.8336380" lon="-7.7173530">
        <ele>675.6</ele>
        <time>2021-10-05T11:59:34Z</time>
      </trkpt>
      <trkpt lat="42.8336860" lon="-7.7173880">
        <ele>676.3</ele>
        <time>2021-10-05T11:59:37Z</time>
      </trkpt>
      <trkpt lat="42.8337430" lon="-7.7174520">
        <ele>677.1</ele>
        <time>2021-10-05T11:59:41Z</time>
      </trkpt>
      <trkpt lat="42.8338110" lon="-7.7175740">
        <ele>678.4</ele>
        <time>2021-10-05T11:59:47Z</time>
      </trkpt>
      <trkpt lat="42.8338820" lon="-7.7177430">
        <ele>679.8</ele>
        <time>2021-10-05T11:59:54Z</time>
      </trkpt>
      <trkpt lat="42.8339130" lon="-7.7178750">
        <ele>680.7</ele>
        <time>2021-10-05T11:59:59Z</time>
      </trkpt>
      <trkpt lat="42.8339580" lon="-7.7180510">
        <ele>681.8</ele>
        <time>2021-10-05T12:00:05Z</time>
      </trkpt>
      <trkpt lat="42.8339680" lon="-7.7180800">
        <ele>682.0</ele>
        <time>2021-10-05T12:00:06Z</time>
      </trkpt>
      <trkpt lat="42.8340460" lon="-7.7182730">
        <ele>682.8</ele>
        <time>2021-10-05T12:00:13Z</time>
      </trkpt>
      <trkpt lat="42.8341060" lon="-7.7184490">
        <ele>683.3</ele>
        <time>2021-10-05T12:00:19Z</time>
      </trkpt>
      <trkpt lat="42.8341460" lon="-7.7186300">
        <ele>683.7</ele>
        <time>2021-10-05T12:00:24Z</time>
      </trkpt>
      <trkpt lat="42.8341610" lon="-7.7188550">
        <ele>684.2</ele>
        <time>2021-10-05T12:00:30Z</time>
      </trkpt>
      <trkpt lat="42.8341790" lon="-7.7190020">
        <ele>684.5</ele>
        <time>2021-10-05T12:00:34Z</time>
      </trkpt>
      <trkpt lat="42.8341970" lon="-7.7191140">
        <ele>684.7</ele>
        <time>2021-10-05T12:00:37Z</time>
      </trkpt>
      <trkpt lat="42.8342280" lon="-7.7192720">
        <ele>684.9</ele>
        <time>2021-10-05T12:00:41Z</time>
      </trkpt>
      <trkpt lat="42.8342360" lon="-7.7194410">
        <ele>685.1</ele>
        <time>2021-10-05T12:00:45Z</time>
      </trkpt>
      <trkpt lat="42.8342410" lon="-7.7201940">
        <ele>686.3</ele>
        <time>2021-10-05T12:01:02Z</time>
      </trkpt>
      <trkpt lat="42.8342350" lon="-7.7202820">
        <ele>686.5</ele>
        <time>2021-10-05T12:01:04Z</time>
      </trkpt>
      <trkpt lat="42.8342280" lon="-7.7203730">
        <ele>686.8</ele>
        <time>2021-10-05T12:01:06Z</time>
      </trkpt>
      <trkpt lat="42.8341830" lon="-7.7208360">
        <ele>688.3</ele>
        <time>2021-10-05T12:01:17Z</time>
      </trkpt>
      <trkpt lat="42.8340990" lon="-7.7210790">
        <ele>689.5</ele>
        <time>2021-10-05T12:01:24Z</time>
      </trkpt>
      <trkpt lat="42.8340420" lon="-7.7212180">
        <ele>690.0</ele>
        <time>2021-10-05T12:01:29Z</time>
      </trkpt>
      <trkpt lat="42.8340300" lon="-7.7212940">
        <ele>690.1</ele>
        <time>2021-10-05T12:01:31Z</time>
      </trkpt>
      <trkpt lat="42.8340300" lon="-7.7214120">
        <ele>690.1</ele>
        <time>2021-10-05T12:01:34Z</time>
      </trkpt>
      <trkpt lat="42.8340720" lon="-7.7214730">
        <ele>690.0</ele>
        <time>2021-10-05T12:01:36Z</time>
      </trkpt>
      <trkpt lat="42.8341610" lon="-7.7215570">
        <ele>689.8</ele>
        <time>2021-10-05T12:01:39Z</time>
      </trkpt>
      <trkpt lat="42.8343030" lon="-7.7216810">
        <ele>689.2</ele>
        <time>2021-10-05T12:01:43Z</time>
      </trkpt>
      <trkpt lat="42.8344210" lon="-7.7217840">
        <ele>688.4</ele>
        <time>2021-10-05T12:01:46Z</time>
      </trkpt>
      <trkpt lat="42.8345550" lon="-7.7219230">
        <ele>687.3</ele>
        <time>2021-10-05T12:01:49Z</time>
      </trkpt>
      <trkpt lat="42.8346740" lon="-7.7221090">
        <ele>686.4</ele>
        <time>2021-10-05T12:01:52Z</time>
      </trkpt>
      <trkpt lat="42.8348190" lon="-7.7222610">
        <ele>685.5</ele>
        <time>2021-10-05T12:01:55Z</time>
      </trkpt>
      <trkpt lat="42.8348710" lon="-7.7223120">
        <ele>685.1</ele>
        <time>2021-10-05T12:01:56Z</time>
      </trkpt>
      <trkpt lat="42.8349220" lon="-7.7223690">
        <ele>684.7</ele>
        <time>2021-10-05T12:01:57Z</time>
      </trkpt>
      <trkpt lat="42.8350160" lon="-7.7225040">
        <ele>683.8</ele>
        <time>2021-10-05T12:01:59Z</time>
      </trkpt>
      <trkpt lat="42.8351550" lon="-7.7227430">
        <ele>682.4</ele>
        <time>2021-10-05T12:02:02Z</time>
      </trkpt>
      <trkpt lat="42.8353510" lon="-7.7230810">
        <ele>681.2</ele>
        <time>2021-10-05T12:02:06Z</time>
      </trkpt>
      <trkpt lat="42.8354560" lon="-7.7232340">
        <ele>680.8</ele>
        <time>2021-10-05T12:02:08Z</time>
      </trkpt>
      <trkpt lat="42.8355120" lon="-7.7233010">
        <ele>680.6</ele>
        <time>2021-10-05T12:02:09Z</time>
      </trkpt>
      <trkpt lat="42.8355730" lon="-7.7233590">
        <ele>680.4</ele>
        <time>2021-10-05T12:02:10Z</time>
      </trkpt>
      <trkpt lat="42.8357500" lon="-7.7235240">
        <ele>680.0</ele>
        <time>2021-10-05T12:02:13Z</time>
      </trkpt>
      <trkpt lat="42.8358930" lon="-7.7236970">
        <ele>679.9</ele>
        <time>2021-10-05T12:02:16Z</time>
      </trkpt>
      <trkpt lat="42.8360500" lon="-7.7240930">
        <ele>680.0</ele>
        <time>2021-10-05T12:02:22Z</time>
      </trkpt>
      <trkpt lat="42.8360860" lon="-7.7242210">
        <ele>680.1</ele>
        <time>2021-10-05T12:02:24Z</time>
      </trkpt>
      <trkpt lat="42.8361300" lon="-7.7243300">
        <ele>680.2</ele>
        <time>2021-10-05T12:02:26Z</time>
      </trkpt>
      <trkpt lat="42.8361600" lon="-7.7243720">
        <ele>680.3</ele>
        <time>2021-10-05T12:02:27Z</time>
      </trkpt>
      <trkpt lat="42.8361950" lon="-7.7244100">
        <ele>680.3</ele>
        <time>2021-10-05T12:02:28Z</time>
      </trkpt>
      <trkpt lat="42.8362290" lon="-7.7244470">
        <ele>680.5</ele>
        <time>2021-10-05T12:02:29Z</time>
      </trkpt>
      <trkpt lat="42.8362650" lon="-7.7244850">
        <ele>680.6</ele>
        <time>2021-10-05T12:02:30Z</time>
      </trkpt>
      <trkpt lat="42.8362960" lon="-7.7245280">
        <ele>680.6</ele>
        <time>2021-10-05T12:02:31Z</time>
      </trkpt>
      <trkpt lat="42.8363540" lon="-7.7246110">
        <ele>680.8</ele>
        <time>2021-10-05T12:02:33Z</time>
      </trkpt>
      <trkpt lat="42.8364430" lon="-7.7247410">
        <ele>680.7</ele>
        <time>2021-10-05T12:02:36Z</time>
      </trkpt>
      <trkpt lat="42.8364780" lon="-7.7248640">
        <ele>680.7</ele>
        <time>2021-10-05T12:02:38Z</time>
      </trkpt>
      <trkpt lat="42.8365170" lon="-7.7249930">
        <ele>680.7</ele>
        <time>2021-10-05T12:02:40Z</time>
      </trkpt>
      <trkpt lat="42.8366280" lon="-7.7253440">
        <ele>680.7</ele>
        <time>2021-10-05T12:02:46Z</time>
      </trkpt>
      <trkpt lat="42.8368090" lon="-7.7259010">
        <ele>680.8</ele>
        <time>2021-10-05T12:02:56Z</time>
      </trkpt>
      <trkpt lat="42.8369420" lon="-7.7263050">
        <ele>681.0</ele>
        <time>2021-10-05T12:03:03Z</time>
      </trkpt>
      <trkpt lat="42.8370140" lon="-7.7265220">
        <ele>681.1</ele>
        <time>2021-10-05T12:03:07Z</time>
      </trkpt>
      <trkpt lat="42.8370680" lon="-7.7266840">
        <ele>681.3</ele>
        <time>2021-10-05T12:03:10Z</time>
      </trkpt>
      <trkpt lat="42.8372930" lon="-7.7273800">
        <ele>682.4</ele>
        <time>2021-10-05T12:03:23Z</time>
      </trkpt>
      <trkpt lat="42.8373620" lon="-7.7275890">
        <ele>682.8</ele>
        <time>2021-10-05T12:03:27Z</time>
      </trkpt>
      <trkpt lat="42.8374740" lon="-7.7279550">
        <ele>683.6</ele>
        <time>2021-10-05T12:03:34Z</time>
      </trkpt>
      <trkpt lat="42.8375400" lon="-7.7281580">
        <ele>684.1</ele>
        <time>2021-10-05T12:03:38Z</time>
      </trkpt>
      <trkpt lat="42.8376020" lon="-7.7283540">
        <ele>684.4</ele>
        <time>2021-10-05T12:03:42Z</time>
      </trkpt>
      <trkpt lat="42.8376830" lon="-7.7285960">
        <ele>684.9</ele>
        <time>2021-10-05T12:03:47Z</time>
      </trkpt>
      <trkpt lat="42.8378660" lon="-7.7291090">
        <ele>685.9</ele>
        <time>2021-10-05T12:03:57Z</time>
      </trkpt>
      <trkpt lat="42.8379030" lon="-7.7292020">
        <ele>686.1</ele>
        <time>2021-10-05T12:03:59Z</time>
      </trkpt>
      <trkpt lat="42.8379890" lon="-7.7294220">
        <ele>686.7</ele>
        <time>2021-10-05T12:04:04Z</time>
      </trkpt>
      <trkpt lat="42.8379930" lon="-7.7296380">
        <ele>687.4</ele>
        <time>2021-10-05T12:04:10Z</time>
      </trkpt>
      <trkpt lat="42.8379720" lon="-7.7297390">
        <ele>687.5</ele>
        <time>2021-10-05T12:04:14Z</time>
      </trkpt>
      <trkpt lat="42.8380050" lon="-7.7298560">
        <ele>687.6</ele>
        <time>2021-10-05T12:04:17Z</time>
      </trkpt>
      <trkpt lat="42.8381140" lon="-7.7301280">
        <ele>687.5</ele>
        <time>2021-10-05T12:04:23Z</time>
      </trkpt>
      <trkpt lat="42.8382600" lon="-7.7304200">
        <ele>687.5</ele>
        <time>2021-10-05T12:04:30Z</time>
      </trkpt>
      <trkpt lat="42.8383020" lon="-7.7304940">
        <ele>687.4</ele>
        <time>2021-10-05T12:04:32Z</time>
      </trkpt>
      <trkpt lat="42.8383400" lon="-7.7305610">
        <ele>687.4</ele>
        <time>2021-10-05T12:04:34Z</time>
      </trkpt>
      <trkpt lat="42.8385010" lon="-7.7308850">
        <ele>687.0</ele>
        <time>2021-10-05T12:04:42Z</time>
      </trkpt>
      <trkpt lat="42.8386430" lon="-7.7310710">
        <ele>686.7</ele>
        <time>2021-10-05T12:04:47Z</time>
      </trkpt>
      <trkpt lat="42.8388240" lon="-7.7312810">
        <ele>686.3</ele>
        <time>2021-10-05T12:04:53Z</time>
      </trkpt>
      <trkpt lat="42.8389680" lon="-7.7314630">
        <ele>686.0</ele>
        <time>2021-10-05T12:04:58Z</time>
      </trkpt>
      <trkpt lat="42.8392610" lon="-7.7317400">
        <ele>685.6</ele>
        <time>2021-10-05T12:05:06Z</time>
      </trkpt>
      <trkpt lat="42.8393010" lon="-7.7317700">
        <ele>685.5</ele>
        <time>2021-10-05T12:05:07Z</time>
      </trkpt>
      <trkpt lat="42.8394500" lon="-7.7319040">
        <ele>685.3</ele>
        <time>2021-10-05T12:05:11Z</time>
      </trkpt>
      <trkpt lat="42.8395360" lon="-7.7320370">
        <ele>685.0</ele>
        <time>2021-10-05T12:05:14Z</time>
      </trkpt>
      <trkpt lat="42.8396150" lon="-7.7321110">
        <ele>684.8</ele>
        <time>2021-10-05T12:05:16Z</time>
      </trkpt>
      <trkpt lat="42.8396950" lon="-7.7321970">
        <ele>684.6</ele>
        <time>2021-10-05T12:05:18Z</time>
      </trkpt>
      <trkpt lat="42.8397690" lon="-7.7322920">
        <ele>684.4</ele>
        <time>2021-10-05T12:05:20Z</time>
      </trkpt>
      <trkpt lat="42.8398950" lon="-7.7325200">
        <ele>683.7</ele>
        <time>2021-10-05T12:05:24Z</time>
      </trkpt>
      <trkpt lat="42.8399590" lon="-7.7326450">
        <ele>683.2</ele>
        <time>2021-10-05T12:05:26Z</time>
      </trkpt>
      <trkpt lat="42.8401200" lon="-7.7330460">
        <ele>680.6</ele>
        <time>2021-10-05T12:05:32Z</time>
      </trkpt>
      <trkpt lat="42.8401670" lon="-7.7331600">
        <ele>679.7</ele>
        <time>2021-10-05T12:05:34Z</time>
      </trkpt>
      <trkpt lat="42.8401950" lon="-7.7332070">
        <ele>679.3</ele>
        <time>2021-10-05T12:05:35Z</time>
      </trkpt>
      <trkpt lat="42.8402610" lon="-7.7332820">
        <ele>678.6</ele>
        <time>2021-10-05T12:05:37Z</time>
      </trkpt>
      <trkpt lat="42.8402940" lon="-7.7333090">
        <ele>678.2</ele>
        <time>2021-10-05T12:05:38Z</time>
      </trkpt>
      <trkpt lat="42.8403250" lon="-7.7333420">
        <ele>677.8</ele>
        <time>2021-10-05T12:05:39Z</time>
      </trkpt>
      <trkpt lat="42.8403500" lon="-7.7333880">
        <ele>677.4</ele>
        <time>2021-10-05T12:05:40Z</time>
      </trkpt>
      <trkpt lat="42.8404040" lon="-7.7334910">
        <ele>676.5</ele>
        <time>2021-10-05T12:05:42Z</time>
      </trkpt>
      <trkpt lat="42.8404360" lon="-7.7335460">
        <ele>676.4</ele>
        <time>2021-10-05T12:05:43Z</time>
      </trkpt>
      <trkpt lat="42.8404720" lon="-7.7335970">
        <ele>676.3</ele>
        <time>2021-10-05T12:05:44Z</time>
      </trkpt>
      <trkpt lat="42.8405800" lon="-7.7337360">
        <ele>676.0</ele>
        <time>2021-10-05T12:05:47Z</time>
      </trkpt>
      <trkpt lat="42.8406380" lon="-7.7338260">
        <ele>676.0</ele>
        <time>2021-10-05T12:05:49Z</time>
      </trkpt>
      <trkpt lat="42.8406960" lon="-7.7339060">
        <ele>676.1</ele>
        <time>2021-10-05T12:05:51Z</time>
      </trkpt>
      <trkpt lat="42.8407910" lon="-7.7340020">
        <ele>676.5</ele>
        <time>2021-10-05T12:05:54Z</time>
      </trkpt>
      <trkpt lat="42.8408820" lon="-7.7340880">
        <ele>677.2</ele>
        <time>2021-10-05T12:05:57Z</time>
      </trkpt>
      <trkpt lat="42.8409410" lon="-7.7341890">
        <ele>677.9</ele>
        <time>2021-10-05T12:06:00Z</time>
      </trkpt>
      <trkpt lat="42.8410130" lon="-7.7342930">
        <ele>678.3</ele>
        <time>2021-10-05T12:06:03Z</time>
      </trkpt>
      <trkpt lat="42.8410890" lon="-7.7343890">
        <ele>678.4</ele>
        <time>2021-10-05T12:06:06Z</time>
      </trkpt>
      <trkpt lat="42.8414530" lon="-7.7346780">
        <ele>680.4</ele>
        <time>2021-10-05T12:06:19Z</time>
      </trkpt>
      <trkpt lat="42.8415100" lon="-7.7346860">
        <ele>681.1</ele>
        <time>2021-10-05T12:06:21Z</time>
      </trkpt>
      <trkpt lat="42.8415820" lon="-7.7346530">
        <ele>682.2</ele>
        <time>2021-10-05T12:06:24Z</time>
      </trkpt>
      <trkpt lat="42.8415970" lon="-7.7346270">
        <ele>682.5</ele>
        <time>2021-10-05T12:06:25Z</time>
      </trkpt>
      <trkpt lat="42.8416210" lon="-7.7345320">
        <ele>683.1</ele>
        <time>2021-10-05T12:06:28Z</time>
      </trkpt>
      <trkpt lat="42.8416390" lon="-7.7344500">
        <ele>683.6</ele>
        <time>2021-10-05T12:06:31Z</time>
      </trkpt>
      <trkpt lat="42.8416420" lon="-7.7343420">
        <ele>684.2</ele>
        <time>2021-10-05T12:06:35Z</time>
      </trkpt>
      <trkpt lat="42.8416640" lon="-7.7341670">
        <ele>685.1</ele>
        <time>2021-10-05T12:06:41Z</time>
      </trkpt>
      <trkpt lat="42.8416730" lon="-7.7340750">
        <ele>685.5</ele>
        <time>2021-10-05T12:06:44Z</time>
      </trkpt>
      <trkpt lat="42.8416830" lon="-7.7340150">
        <ele>685.7</ele>
        <time>2021-10-05T12:06:46Z</time>
      </trkpt>
      <trkpt lat="42.8416770" lon="-7.7339270">
        <ele>685.9</ele>
        <time>2021-10-05T12:57:04Z</time>
      </trkpt>
      <trkpt lat="42.8416930" lon="-7.7339230">
        <ele>685.9</ele>
        <time>2021-10-05T12:57:05Z</time>
      </trkpt>
      <trkpt lat="42.8417390" lon="-7.7338980">
        <ele>686.1</ele>
        <time>2021-10-05T12:57:08Z</time>
      </trkpt>
      <trkpt lat="42.8417570" lon="-7.7338590">
        <ele>686.2</ele>
        <time>2021-10-05T12:57:10Z</time>
      </trkpt>
      <trkpt lat="42.8417750" lon="-7.7338140">
        <ele>686.3</ele>
        <time>2021-10-05T12:57:12Z</time>
      </trkpt>
      <trkpt lat="42.8417970" lon="-7.7337390">
        <ele>687.0</ele>
        <time>2021-10-05T12:57:15Z</time>
      </trkpt>
      <trkpt lat="42.8418030" lon="-7.7336880">
        <ele>687.5</ele>
        <time>2021-10-05T12:57:17Z</time>
      </trkpt>
      <trkpt lat="42.8418110" lon="-7.7336650">
        <ele>687.7</ele>
        <time>2021-10-05T12:57:18Z</time>
      </trkpt>
      <trkpt lat="42.8418830" lon="-7.7336690">
        <ele>689.3</ele>
        <time>2021-10-05T12:57:22Z</time>
      </trkpt>
      <trkpt lat="42.8419240" lon="-7.7336920">
        <ele>689.6</ele>
        <time>2021-10-05T12:57:24Z</time>
      </trkpt>
      <trkpt lat="42.8421010" lon="-7.7338840">
        <ele>689.8</ele>
        <time>2021-10-05T12:57:33Z</time>
      </trkpt>
      <trkpt lat="42.8423260" lon="-7.7342740">
        <ele>689.7</ele>
        <time>2021-10-05T12:57:43Z</time>
      </trkpt>
      <trkpt lat="42.8423630" lon="-7.7343610">
        <ele>689.6</ele>
        <time>2021-10-05T12:57:45Z</time>
      </trkpt>
      <trkpt lat="42.8423670" lon="-7.7344100">
        <ele>689.6</ele>
        <time>2021-10-05T12:57:46Z</time>
      </trkpt>
      <trkpt lat="42.8422000" lon="-7.7347670">
        <ele>687.5</ele>
        <time>2021-10-05T12:57:53Z</time>
      </trkpt>
      <trkpt lat="42.8421320" lon="-7.7348900">
        <ele>686.6</ele>
        <time>2021-10-05T12:57:55Z</time>
      </trkpt>
      <trkpt lat="42.8420620" lon="-7.7350340">
        <ele>685.6</ele>
        <time>2021-10-05T12:57:57Z</time>
      </trkpt>
      <trkpt lat="42.8420280" lon="-7.7351140">
        <ele>685.1</ele>
        <time>2021-10-05T12:57:58Z</time>
      </trkpt>
      <trkpt lat="42.8419680" lon="-7.7352870">
        <ele>683.9</ele>
        <time>2021-10-05T12:58:00Z</time>
      </trkpt>
      <trkpt lat="42.8419770" lon="-7.7355770">
        <ele>682.6</ele>
        <time>2021-10-05T12:58:03Z</time>
      </trkpt>
      <trkpt lat="42.8419950" lon="-7.7356570">
        <ele>682.6</ele>
        <time>2021-10-05T12:58:04Z</time>
      </trkpt>
      <trkpt lat="42.8420080" lon="-7.7357250">
        <ele>682.7</ele>
        <time>2021-10-05T12:58:05Z</time>
      </trkpt>
      <trkpt lat="42.8420420" lon="-7.7358730">
        <ele>683.1</ele>
        <time>2021-10-05T12:58:08Z</time>
      </trkpt>
      <trkpt lat="42.8420550" lon="-7.7359120">
        <ele>683.2</ele>
        <time>2021-10-05T12:58:09Z</time>
      </trkpt>
      <trkpt lat="42.8420830" lon="-7.7359970">
        <ele>683.5</ele>
        <time>2021-10-05T12:58:11Z</time>
      </trkpt>
      <trkpt lat="42.8420970" lon="-7.7360390">
        <ele>683.7</ele>
        <time>2021-10-05T12:58:12Z</time>
      </trkpt>
      <trkpt lat="42.8421290" lon="-7.7361300">
        <ele>684.1</ele>
        <time>2021-10-05T12:58:14Z</time>
      </trkpt>
      <trkpt lat="42.8421440" lon="-7.7361780">
        <ele>684.3</ele>
        <time>2021-10-05T12:58:15Z</time>
      </trkpt>
      <trkpt lat="42.8421730" lon="-7.7362810">
        <ele>684.7</ele>
        <time>2021-10-05T12:58:17Z</time>
      </trkpt>
      <trkpt lat="42.8421960" lon="-7.7363900">
        <ele>685.0</ele>
        <time>2021-10-05T12:58:19Z</time>
      </trkpt>
      <trkpt lat="42.8422110" lon="-7.7364970">
        <ele>685.4</ele>
        <time>2021-10-05T12:58:21Z</time>
      </trkpt>
      <trkpt lat="42.8422270" lon="-7.7365980">
        <ele>685.7</ele>
        <time>2021-10-05T12:58:23Z</time>
      </trkpt>
      <trkpt lat="42.8423430" lon="-7.7369900">
        <ele>687.1</ele>
        <time>2021-10-05T12:58:32Z</time>
      </trkpt>
      <trkpt lat="42.8424470" lon="-7.7371970">
        <ele>688.0</ele>
        <time>2021-10-05T12:58:38Z</time>
      </trkpt>
      <trkpt lat="42.8425290" lon="-7.7374350">
        <ele>688.9</ele>
        <time>2021-10-05T12:58:44Z</time>
      </trkpt>
      <trkpt lat="42.8425400" lon="-7.7374780">
        <ele>689.0</ele>
        <time>2021-10-05T12:58:45Z</time>
      </trkpt>
      <trkpt lat="42.8425910" lon="-7.7378450">
        <ele>690.0</ele>
        <time>2021-10-05T12:58:53Z</time>
      </trkpt>
      <trkpt lat="42.8426260" lon="-7.7381930">
        <ele>690.9</ele>
        <time>2021-10-05T12:59:01Z</time>
      </trkpt>
      <trkpt lat="42.8426440" lon="-7.7384690">
        <ele>691.5</ele>
        <time>2021-10-05T12:59:07Z</time>
      </trkpt>
      <trkpt lat="42.8426720" lon="-7.7387620">
        <ele>692.2</ele>
        <time>2021-10-05T12:59:14Z</time>
      </trkpt>
      <trkpt lat="42.8426920" lon="-7.7390640">
        <ele>693.2</ele>
        <time>2021-10-05T12:59:21Z</time>
      </trkpt>
      <trkpt lat="42.8427020" lon="-7.7392360">
        <ele>693.8</ele>
        <time>2021-10-05T12:59:25Z</time>
      </trkpt>
      <trkpt lat="42.8427240" lon="-7.7395060">
        <ele>694.7</ele>
        <time>2021-10-05T12:59:31Z</time>
      </trkpt>
      <trkpt lat="42.8427350" lon="-7.7397660">
        <ele>695.8</ele>
        <time>2021-10-05T12:59:37Z</time>
      </trkpt>
      <trkpt lat="42.8427490" lon="-7.7401190">
        <ele>697.4</ele>
        <time>2021-10-05T12:59:45Z</time>
      </trkpt>
      <trkpt lat="42.8427560" lon="-7.7403440">
        <ele>698.4</ele>
        <time>2021-10-05T12:59:50Z</time>
      </trkpt>
      <trkpt lat="42.8427750" lon="-7.7406200">
        <ele>699.5</ele>
        <time>2021-10-05T12:59:56Z</time>
      </trkpt>
      <trkpt lat="42.8427910" lon="-7.7407530">
        <ele>700.1</ele>
        <time>2021-10-05T12:59:59Z</time>
      </trkpt>
      <trkpt lat="42.8428570" lon="-7.7410530">
        <ele>701.1</ele>
        <time>2021-10-05T13:00:06Z</time>
      </trkpt>
      <trkpt lat="42.8429320" lon="-7.7412650">
        <ele>701.5</ele>
        <time>2021-10-05T13:00:11Z</time>
      </trkpt>
      <trkpt lat="42.8429940" lon="-7.7414390">
        <ele>701.6</ele>
        <time>2021-10-05T13:00:15Z</time>
      </trkpt>
      <trkpt lat="42.8430540" lon="-7.7415710">
        <ele>701.5</ele>
        <time>2021-10-05T13:00:18Z</time>
      </trkpt>
      <trkpt lat="42.8431100" lon="-7.7417130">
        <ele>701.4</ele>
        <time>2021-10-05T13:00:21Z</time>
      </trkpt>
      <trkpt lat="42.8431780" lon="-7.7419230">
        <ele>701.3</ele>
        <time>2021-10-05T13:00:25Z</time>
      </trkpt>
      <trkpt lat="42.8432140" lon="-7.7420920">
        <ele>701.3</ele>
        <time>2021-10-05T13:00:28Z</time>
      </trkpt>
      <trkpt lat="42.8432220" lon="-7.7421480">
        <ele>701.3</ele>
        <time>2021-10-05T13:00:29Z</time>
      </trkpt>
      <trkpt lat="42.8432400" lon="-7.7423110">
        <ele>701.3</ele>
        <time>2021-10-05T13:00:32Z</time>
      </trkpt>
      <trkpt lat="42.8432580" lon="-7.7426320">
        <ele>701.3</ele>
        <time>2021-10-05T13:00:38Z</time>
      </trkpt>
      <trkpt lat="42.8433220" lon="-7.7433970">
        <ele>701.8</ele>
        <time>2021-10-05T13:00:53Z</time>
      </trkpt>
      <trkpt lat="42.8433720" lon="-7.7441780">
        <ele>702.6</ele>
        <time>2021-10-05T13:01:08Z</time>
      </trkpt>
      <trkpt lat="42.8434190" lon="-7.7449370">
        <ele>703.5</ele>
        <time>2021-10-05T13:01:22Z</time>
      </trkpt>
      <trkpt lat="42.8434240" lon="-7.7450410">
        <ele>703.7</ele>
        <time>2021-10-05T13:01:24Z</time>
      </trkpt>
      <trkpt lat="42.8434710" lon="-7.7455070">
        <ele>704.1</ele>
        <time>2021-10-05T13:01:33Z</time>
      </trkpt>
      <trkpt lat="42.8435000" lon="-7.7456720">
        <ele>704.0</ele>
        <time>2021-10-05T13:01:36Z</time>
      </trkpt>
      <trkpt lat="42.8435920" lon="-7.7460950">
        <ele>703.6</ele>
        <time>2021-10-05T13:01:43Z</time>
      </trkpt>
      <trkpt lat="42.8436290" lon="-7.7461960">
        <ele>703.5</ele>
        <time>2021-10-05T13:01:45Z</time>
      </trkpt>
      <trkpt lat="42.8438670" lon="-7.7468650">
        <ele>702.9</ele>
        <time>2021-10-05T13:01:57Z</time>
      </trkpt>
      <trkpt lat="42.8439400" lon="-7.7470850">
        <ele>702.9</ele>
        <time>2021-10-05T13:02:01Z</time>
      </trkpt>
      <trkpt lat="42.8441610" lon="-7.7476760">
        <ele>702.9</ele>
        <time>2021-10-05T13:02:13Z</time>
      </trkpt>
      <trkpt lat="42.8442430" lon="-7.7478610">
        <ele>702.9</ele>
        <time>2021-10-05T13:02:18Z</time>
      </trkpt>
      <trkpt lat="42.8443340" lon="-7.7481400">
        <ele>702.7</ele>
        <time>2021-10-05T13:02:25Z</time>
      </trkpt>
      <trkpt lat="42.8443290" lon="-7.7481930">
        <ele>702.7</ele>
        <time>2021-10-05T13:02:26Z</time>
      </trkpt>
      <trkpt lat="42.8442450" lon="-7.7485680">
        <ele>702.5</ele>
        <time>2021-10-05T13:02:33Z</time>
      </trkpt>
      <trkpt lat="42.8442400" lon="-7.7486610">
        <ele>702.4</ele>
        <time>2021-10-05T13:02:35Z</time>
      </trkpt>
      <trkpt lat="42.8443260" lon="-7.7489330">
        <ele>702.4</ele>
        <time>2021-10-05T13:02:43Z</time>
      </trkpt>
      <trkpt lat="42.8443260" lon="-7.7489910">
        <ele>702.4</ele>
        <time>2021-10-05T13:02:45Z</time>
      </trkpt>
      <trkpt lat="42.8443270" lon="-7.7490330">
        <ele>702.4</ele>
        <time>2021-10-05T13:02:47Z</time>
      </trkpt>
      <trkpt lat="42.8443230" lon="-7.7490500">
        <ele>702.4</ele>
        <time>2021-10-05T13:02:48Z</time>
      </trkpt>
      <trkpt lat="42.8442840" lon="-7.7490290">
        <ele>702.4</ele>
        <time>2021-10-05T13:02:53Z</time>
      </trkpt>
      <trkpt lat="42.8443010" lon="-7.7490100">
        <ele>702.4</ele>
        <time>2021-10-05T13:02:55Z</time>
      </trkpt>
      <trkpt lat="42.8443320" lon="-7.7490670">
        <ele>702.4</ele>
        <time>2021-10-05T13:02:58Z</time>
      </trkpt>
      <trkpt lat="42.8443340" lon="-7.7491390">
        <ele>702.5</ele>
        <time>2021-10-05T13:03:00Z</time>
      </trkpt>
      <trkpt lat="42.8443200" lon="-7.7491810">
        <ele>702.5</ele>
        <time>2021-10-05T13:03:02Z</time>
      </trkpt>
      <trkpt lat="42.8443160" lon="-7.7491870">
        <ele>702.5</ele>
        <time>2021-10-05T13:03:04Z</time>
      </trkpt>
      <trkpt lat="42.8443270" lon="-7.7492110">
        <ele>702.5</ele>
        <time>2021-10-05T13:03:31Z</time>
      </trkpt>
      <trkpt lat="42.8443710" lon="-7.7492790">
        <ele>702.5</ele>
        <time>2021-10-05T13:03:34Z</time>
      </trkpt>
      <trkpt lat="42.8443870" lon="-7.7493210">
        <ele>702.5</ele>
        <time>2021-10-05T13:03:35Z</time>
      </trkpt>
      <trkpt lat="42.8444230" lon="-7.7494190">
        <ele>702.6</ele>
        <time>2021-10-05T13:03:37Z</time>
      </trkpt>
      <trkpt lat="42.8444430" lon="-7.7494710">
        <ele>702.7</ele>
        <time>2021-10-05T13:03:38Z</time>
      </trkpt>
      <trkpt lat="42.8444920" lon="-7.7495770">
        <ele>702.8</ele>
        <time>2021-10-05T13:03:40Z</time>
      </trkpt>
      <trkpt lat="42.8445600" lon="-7.7497420">
        <ele>703.2</ele>
        <time>2021-10-05T13:03:43Z</time>
      </trkpt>
      <trkpt lat="42.8447090" lon="-7.7501400">
        <ele>704.5</ele>
        <time>2021-10-05T13:03:53Z</time>
      </trkpt>
      <trkpt lat="42.8447620" lon="-7.7503090">
        <ele>705.2</ele>
        <time>2021-10-05T13:03:56Z</time>
      </trkpt>
      <trkpt lat="42.8448260" lon="-7.7505100">
        <ele>706.1</ele>
        <time>2021-10-05T13:03:59Z</time>
      </trkpt>
      <trkpt lat="42.8448650" lon="-7.7506510">
        <ele>706.7</ele>
        <time>2021-10-05T13:04:01Z</time>
      </trkpt>
      <trkpt lat="42.8449040" lon="-7.7507830">
        <ele>707.3</ele>
        <time>2021-10-05T13:04:03Z</time>
      </trkpt>
      <trkpt lat="42.8449400" lon="-7.7509000">
        <ele>707.9</ele>
        <time>2021-10-05T13:04:05Z</time>
      </trkpt>
      <trkpt lat="42.8449840" lon="-7.7510760">
        <ele>708.7</ele>
        <time>2021-10-05T13:04:08Z</time>
      </trkpt>
      <trkpt lat="42.8450270" lon="-7.7512370">
        <ele>709.4</ele>
        <time>2021-10-05T13:04:11Z</time>
      </trkpt>
      <trkpt lat="42.8450470" lon="-7.7513440">
        <ele>710.0</ele>
        <time>2021-10-05T13:04:13Z</time>
      </trkpt>
      <trkpt lat="42.8451150" lon="-7.7515920">
        <ele>711.4</ele>
        <time>2021-10-05T13:04:18Z</time>
      </trkpt>
      <trkpt lat="42.8451830" lon="-7.7518660">
        <ele>713.0</ele>
        <time>2021-10-05T13:04:24Z</time>
      </trkpt>
      <trkpt lat="42.8452150" lon="-7.7519980">
        <ele>713.9</ele>
        <time>2021-10-05T13:04:27Z</time>
      </trkpt>
      <trkpt lat="42.8452560" lon="-7.7521720">
        <ele>715.0</ele>
        <time>2021-10-05T13:04:31Z</time>
      </trkpt>
      <trkpt lat="42.8453170" lon="-7.7523310">
        <ele>716.0</ele>
        <time>2021-10-05T13:04:35Z</time>
      </trkpt>
      <trkpt lat="42.8453630" lon="-7.7524790">
        <ele>716.9</ele>
        <time>2021-10-05T13:04:39Z</time>
      </trkpt>
      <trkpt lat="42.8453970" lon="-7.7526130">
        <ele>717.7</ele>
        <time>2021-10-05T13:04:44Z</time>
      </trkpt>
      <trkpt lat="42.8454100" lon="-7.7527100">
        <ele>718.2</ele>
        <time>2021-10-05T13:04:48Z</time>
      </trkpt>
      <trkpt lat="42.8454310" lon="-7.7528480">
        <ele>718.9</ele>
        <time>2021-10-05T13:04:53Z</time>
      </trkpt>
      <trkpt lat="42.8454490" lon="-7.7531540">
        <ele>720.5</ele>
        <time>2021-10-05T13:05:04Z</time>
      </trkpt>
      <trkpt lat="42.8454530" lon="-7.7533450">
        <ele>721.4</ele>
        <time>2021-10-05T13:05:10Z</time>
      </trkpt>
      <trkpt lat="42.8454530" lon="-7.7537190">
        <ele>722.4</ele>
        <time>2021-10-05T13:05:19Z</time>
      </trkpt>
      <trkpt lat="42.8454700" lon="-7.7539570">
        <ele>722.7</ele>
        <time>2021-10-05T13:05:24Z</time>
      </trkpt>
      <trkpt lat="42.8455050" lon="-7.7542620">
        <ele>722.8</ele>
        <time>2021-10-05T13:05:30Z</time>
      </trkpt>
      <trkpt lat="42.8455360" lon="-7.7544220">
        <ele>722.7</ele>
        <time>2021-10-05T13:05:33Z</time>
      </trkpt>
      <trkpt lat="42.8455760" lon="-7.7545890">
        <ele>722.4</ele>
        <time>2021-10-05T13:05:36Z</time>
      </trkpt>
      <trkpt lat="42.8456010" lon="-7.7547060">
        <ele>722.3</ele>
        <time>2021-10-05T13:05:38Z</time>
      </trkpt>
      <trkpt lat="42.8456270" lon="-7.7548300">
        <ele>722.1</ele>
        <time>2021-10-05T13:05:40Z</time>
      </trkpt>
      <trkpt lat="42.8456550" lon="-7.7549550">
        <ele>722.0</ele>
        <time>2021-10-05T13:05:42Z</time>
      </trkpt>
      <trkpt lat="42.8456850" lon="-7.7550810">
        <ele>721.8</ele>
        <time>2021-10-05T13:05:44Z</time>
      </trkpt>
      <trkpt lat="42.8457110" lon="-7.7552080">
        <ele>721.6</ele>
        <time>2021-10-05T13:05:46Z</time>
      </trkpt>
      <trkpt lat="42.8457260" lon="-7.7552690">
        <ele>721.6</ele>
        <time>2021-10-05T13:05:47Z</time>
      </trkpt>
      <trkpt lat="42.8457570" lon="-7.7553910">
        <ele>721.4</ele>
        <time>2021-10-05T13:05:49Z</time>
      </trkpt>
      <trkpt lat="42.8458020" lon="-7.7555760">
        <ele>721.1</ele>
        <time>2021-10-05T13:05:52Z</time>
      </trkpt>
      <trkpt lat="42.8458220" lon="-7.7556350">
        <ele>720.9</ele>
        <time>2021-10-05T13:05:53Z</time>
      </trkpt>
      <trkpt lat="42.8458670" lon="-7.7557530">
        <ele>720.6</ele>
        <time>2021-10-05T13:05:55Z</time>
      </trkpt>
      <trkpt lat="42.8459540" lon="-7.7559370">
        <ele>719.8</ele>
        <time>2021-10-05T13:05:58Z</time>
      </trkpt>
      <trkpt lat="42.8459900" lon="-7.7559970">
        <ele>719.5</ele>
        <time>2021-10-05T13:05:59Z</time>
      </trkpt>
      <trkpt lat="42.8461490" lon="-7.7562410">
        <ele>718.6</ele>
        <time>2021-10-05T13:06:03Z</time>
      </trkpt>
      <trkpt lat="42.8463710" lon="-7.7565290">
        <ele>717.7</ele>
        <time>2021-10-05T13:06:08Z</time>
      </trkpt>
      <trkpt lat="42.8465060" lon="-7.7566910">
        <ele>717.3</ele>
        <time>2021-10-05T13:06:11Z</time>
      </trkpt>
      <trkpt lat="42.8466880" lon="-7.7569030">
        <ele>717.0</ele>
        <time>2021-10-05T13:06:15Z</time>
      </trkpt>
      <trkpt lat="42.8467890" lon="-7.7570050">
        <ele>716.8</ele>
        <time>2021-10-05T13:06:17Z</time>
      </trkpt>
      <trkpt lat="42.8468960" lon="-7.7571070">
        <ele>716.7</ele>
        <time>2021-10-05T13:06:19Z</time>
      </trkpt>
      <trkpt lat="42.8469520" lon="-7.7571560">
        <ele>716.7</ele>
        <time>2021-10-05T13:06:20Z</time>
      </trkpt>
      <trkpt lat="42.8470090" lon="-7.7572040">
        <ele>716.7</ele>
        <time>2021-10-05T13:06:21Z</time>
      </trkpt>
      <trkpt lat="42.8470670" lon="-7.7572520">
        <ele>716.7</ele>
        <time>2021-10-05T13:06:22Z</time>
      </trkpt>
      <trkpt lat="42.8472450" lon="-7.7573910">
        <ele>716.8</ele>
        <time>2021-10-05T13:06:25Z</time>
      </trkpt>
      <trkpt lat="42.8474250" lon="-7.7575320">
        <ele>717.0</ele>
        <time>2021-10-05T13:06:28Z</time>
      </trkpt>
      <trkpt lat="42.8476660" lon="-7.7577260">
        <ele>717.2</ele>
        <time>2021-10-05T13:06:32Z</time>
      </trkpt>
      <trkpt lat="42.8478450" lon="-7.7579010">
        <ele>717.7</ele>
        <time>2021-10-05T13:06:35Z</time>
      </trkpt>
      <trkpt lat="42.8480130" lon="-7.7580880">
        <ele>718.4</ele>
        <time>2021-10-05T13:06:38Z</time>
      </trkpt>
      <trkpt lat="42.8481600" lon="-7.7582830">
        <ele>719.2</ele>
        <time>2021-10-05T13:06:41Z</time>
      </trkpt>
      <trkpt lat="42.8482510" lon="-7.7584050">
        <ele>719.6</ele>
        <time>2021-10-05T13:06:43Z</time>
      </trkpt>
      <trkpt lat="42.8483850" lon="-7.7585860">
        <ele>720.2</ele>
        <time>2021-10-05T13:06:46Z</time>
      </trkpt>
      <trkpt lat="42.8484710" lon="-7.7587100">
        <ele>720.4</ele>
        <time>2021-10-05T13:06:48Z</time>
      </trkpt>
      <trkpt lat="42.8486910" lon="-7.7590200">
        <ele>720.6</ele>
        <time>2021-10-05T13:06:53Z</time>
      </trkpt>
      <trkpt lat="42.8489520" lon="-7.7593380">
        <ele>719.9</ele>
        <time>2021-10-05T13:06:58Z</time>
      </trkpt>
      <trkpt lat="42.8493360" lon="-7.7598400">
        <ele>718.5</ele>
        <time>2021-10-05T13:07:05Z</time>
      </trkpt>
      <trkpt lat="42.8495980" lon="-7.7602420">
        <ele>717.6</ele>
        <time>2021-10-05T13:07:10Z</time>
      </trkpt>
      <trkpt lat="42.8497650" lon="-7.7606130">
        <ele>716.9</ele>
        <time>2021-10-05T13:07:14Z</time>
      </trkpt>
      <trkpt lat="42.8498500" lon="-7.7609160">
        <ele>716.1</ele>
        <time>2021-10-05T13:07:17Z</time>
      </trkpt>
      <trkpt lat="42.8499210" lon="-7.7612460">
        <ele>714.7</ele>
        <time>2021-10-05T13:07:20Z</time>
      </trkpt>
      <trkpt lat="42.8499800" lon="-7.7614740">
        <ele>713.6</ele>
        <time>2021-10-05T13:07:22Z</time>
      </trkpt>
      <trkpt lat="42.8500520" lon="-7.7617020">
        <ele>712.5</ele>
        <time>2021-10-05T13:07:24Z</time>
      </trkpt>
      <trkpt lat="42.8501340" lon="-7.7619300">
        <ele>711.4</ele>
        <time>2021-10-05T13:07:26Z</time>
      </trkpt>
      <trkpt lat="42.8502180" lon="-7.7621550">
        <ele>710.4</ele>
        <time>2021-10-05T13:07:28Z</time>
      </trkpt>
      <trkpt lat="42.8503050" lon="-7.7623800">
        <ele>709.5</ele>
        <time>2021-10-05T13:07:30Z</time>
      </trkpt>
      <trkpt lat="42.8504380" lon="-7.7627230">
        <ele>707.7</ele>
        <time>2021-10-05T13:07:33Z</time>
      </trkpt>
      <trkpt lat="42.8504830" lon="-7.7628420">
        <ele>707.0</ele>
        <time>2021-10-05T13:07:34Z</time>
      </trkpt>
      <trkpt lat="42.8505770" lon="-7.7630900">
        <ele>705.5</ele>
        <time>2021-10-05T13:07:36Z</time>
      </trkpt>
      <trkpt lat="42.8506760" lon="-7.7633520">
        <ele>703.9</ele>
        <time>2021-10-05T13:07:38Z</time>
      </trkpt>
      <trkpt lat="42.8508220" lon="-7.7637630">
        <ele>701.4</ele>
        <time>2021-10-05T13:07:41Z</time>
      </trkpt>
      <trkpt lat="42.8509460" lon="-7.7642010">
        <ele>698.7</ele>
        <time>2021-10-05T13:07:44Z</time>
      </trkpt>
      <trkpt lat="42.8510140" lon="-7.7645070">
        <ele>696.9</ele>
        <time>2021-10-05T13:07:46Z</time>
      </trkpt>
      <trkpt lat="42.8510460" lon="-7.7646630">
        <ele>695.9</ele>
        <time>2021-10-05T13:07:47Z</time>
      </trkpt>
      <trkpt lat="42.8511130" lon="-7.7649760">
        <ele>694.2</ele>
        <time>2021-10-05T13:07:49Z</time>
      </trkpt>
      <trkpt lat="42.8512190" lon="-7.7654480">
        <ele>691.6</ele>
        <time>2021-10-05T13:07:52Z</time>
      </trkpt>
      <trkpt lat="42.8514360" lon="-7.7662400">
        <ele>686.5</ele>
        <time>2021-10-05T13:07:57Z</time>
      </trkpt>
      <trkpt lat="42.8515260" lon="-7.7665720">
        <ele>684.1</ele>
        <time>2021-10-05T13:07:59Z</time>
      </trkpt>
      <trkpt lat="42.8516710" lon="-7.7672860">
        <ele>679.2</ele>
        <time>2021-10-05T13:08:03Z</time>
      </trkpt>
      <trkpt lat="42.8518630" lon="-7.7680180">
        <ele>674.1</ele>
        <time>2021-10-05T13:08:07Z</time>
      </trkpt>
      <trkpt lat="42.8521060" lon="-7.7687260">
        <ele>669.6</ele>
        <time>2021-10-05T13:08:11Z</time>
      </trkpt>
      <trkpt lat="42.8523430" lon="-7.7694090">
        <ele>666.2</ele>
        <time>2021-10-05T13:08:15Z</time>
      </trkpt>
      <trkpt lat="42.8525500" lon="-7.7700640">
        <ele>663.6</ele>
        <time>2021-10-05T13:08:19Z</time>
      </trkpt>
      <trkpt lat="42.8525990" lon="-7.7707440">
        <ele>660.2</ele>
        <time>2021-10-05T13:08:23Z</time>
      </trkpt>
      <trkpt lat="42.8525640" lon="-7.7716520">
        <ele>654.0</ele>
        <time>2021-10-05T13:08:28Z</time>
      </trkpt>
      <trkpt lat="42.8525520" lon="-7.7720220">
        <ele>652.1</ele>
        <time>2021-10-05T13:08:30Z</time>
      </trkpt>
      <trkpt lat="42.8527360" lon="-7.7727740">
        <ele>649.3</ele>
        <time>2021-10-05T13:08:35Z</time>
      </trkpt>
      <trkpt lat="42.8529800" lon="-7.7730810">
        <ele>648.0</ele>
        <time>2021-10-05T13:08:38Z</time>
      </trkpt>
      <trkpt lat="42.8531480" lon="-7.7732790">
        <ele>647.0</ele>
        <time>2021-10-05T13:08:40Z</time>
      </trkpt>
      <trkpt lat="42.8532310" lon="-7.7733820">
        <ele>646.5</ele>
        <time>2021-10-05T13:08:41Z</time>
      </trkpt>
      <trkpt lat="42.8534070" lon="-7.7735580">
        <ele>645.6</ele>
        <time>2021-10-05T13:08:43Z</time>
      </trkpt>
      <trkpt lat="42.8536660" lon="-7.7738200">
        <ele>644.5</ele>
        <time>2021-10-05T13:08:46Z</time>
      </trkpt>
      <trkpt lat="42.8537410" lon="-7.7739230">
        <ele>644.1</ele>
        <time>2021-10-05T13:08:47Z</time>
      </trkpt>
      <trkpt lat="42.8541220" lon="-7.7745820">
        <ele>642.4</ele>
        <time>2021-10-05T13:08:53Z</time>
      </trkpt>
      <trkpt lat="42.8542880" lon="-7.7748870">
        <ele>642.1</ele>
        <time>2021-10-05T13:08:56Z</time>
      </trkpt>
      <trkpt lat="42.8545090" lon="-7.7752840">
        <ele>641.3</ele>
        <time>2021-10-05T13:09:00Z</time>
      </trkpt>
      <trkpt lat="42.8546680" lon="-7.7755950">
        <ele>640.4</ele>
        <time>2021-10-05T13:09:03Z</time>
      </trkpt>
      <trkpt lat="42.8549370" lon="-7.7761920">
        <ele>639.3</ele>
        <time>2021-10-05T13:09:09Z</time>
      </trkpt>
      <trkpt lat="42.8550020" lon="-7.7764020">
        <ele>639.0</ele>
        <time>2021-10-05T13:09:11Z</time>
      </trkpt>
      <trkpt lat="42.8552570" lon="-7.7771750">
        <ele>636.6</ele>
        <time>2021-10-05T13:09:18Z</time>
      </trkpt>
      <trkpt lat="42.8554420" lon="-7.7774970">
        <ele>634.5</ele>
        <time>2021-10-05T13:09:21Z</time>
      </trkpt>
      <trkpt lat="42.8559110" lon="-7.7777790">
        <ele>630.8</ele>
        <time>2021-10-05T13:09:26Z</time>
      </trkpt>
      <trkpt lat="42.8560100" lon="-7.7778090">
        <ele>630.4</ele>
        <time>2021-10-05T13:09:27Z</time>
      </trkpt>
      <trkpt lat="42.8563070" lon="-7.7779250">
        <ele>629.7</ele>
        <time>2021-10-05T13:09:30Z</time>
      </trkpt>
      <trkpt lat="42.8563960" lon="-7.7779810">
        <ele>629.6</ele>
        <time>2021-10-05T13:09:31Z</time>
      </trkpt>
      <trkpt lat="42.8569270" lon="-7.7783990">
        <ele>629.3</ele>
        <time>2021-10-05T13:09:38Z</time>
      </trkpt>
      <trkpt lat="42.8572570" lon="-7.7786490">
        <ele>628.8</ele>
        <time>2021-10-05T13:09:43Z</time>
      </trkpt>
      <trkpt lat="42.8575480" lon="-7.7789750">
        <ele>627.6</ele>
        <time>2021-10-05T13:09:48Z</time>
      </trkpt>
      <trkpt lat="42.8576080" lon="-7.7790350">
        <ele>627.4</ele>
        <time>2021-10-05T13:09:49Z</time>
      </trkpt>
      <trkpt lat="42.8578050" lon="-7.7791570">
        <ele>626.9</ele>
        <time>2021-10-05T13:09:52Z</time>
      </trkpt>
      <trkpt lat="42.8580060" lon="-7.7792460">
        <ele>626.4</ele>
        <time>2021-10-05T13:09:55Z</time>
      </trkpt>
      <trkpt lat="42.8584020" lon="-7.7794090">
        <ele>625.9</ele>
        <time>2021-10-05T13:10:01Z</time>
      </trkpt>
      <trkpt lat="42.8585780" lon="-7.7795500">
        <ele>625.9</ele>
        <time>2021-10-05T13:10:04Z</time>
      </trkpt>
      <trkpt lat="42.8586290" lon="-7.7796040">
        <ele>625.9</ele>
        <time>2021-10-05T13:10:05Z</time>
      </trkpt>
      <trkpt lat="42.8586820" lon="-7.7796500">
        <ele>625.9</ele>
        <time>2021-10-05T13:10:06Z</time>
      </trkpt>
      <trkpt lat="42.8589100" lon="-7.7798350">
        <ele>625.9</ele>
        <time>2021-10-05T13:10:10Z</time>
      </trkpt>
      <trkpt lat="42.8589650" lon="-7.7798910">
        <ele>625.9</ele>
        <time>2021-10-05T13:10:11Z</time>
      </trkpt>
      <trkpt lat="42.8593420" lon="-7.7804430">
        <ele>625.6</ele>
        <time>2021-10-05T13:10:19Z</time>
      </trkpt>
      <trkpt lat="42.8596140" lon="-7.7808630">
        <ele>625.1</ele>
        <time>2021-10-05T13:10:25Z</time>
      </trkpt>
      <trkpt lat="42.8598880" lon="-7.7812780">
        <ele>624.2</ele>
        <time>2021-10-05T13:10:31Z</time>
      </trkpt>
      <trkpt lat="42.8599330" lon="-7.7813450">
        <ele>624.1</ele>
        <time>2021-10-05T13:10:32Z</time>
      </trkpt>
      <trkpt lat="42.8600740" lon="-7.7814880">
        <ele>623.5</ele>
        <time>2021-10-05T13:10:35Z</time>
      </trkpt>
      <trkpt lat="42.8602230" lon="-7.7815060">
        <ele>622.6</ele>
        <time>2021-10-05T13:10:38Z</time>
      </trkpt>
      <trkpt lat="42.8602810" lon="-7.7815110">
        <ele>622.2</ele>
        <time>2021-10-05T13:10:39Z</time>
      </trkpt>
      <trkpt lat="42.8605540" lon="-7.7817260">
        <ele>620.3</ele>
        <time>2021-10-05T13:10:44Z</time>
      </trkpt>
      <trkpt lat="42.8610420" lon="-7.7822230">
        <ele>616.9</ele>
        <time>2021-10-05T13:10:52Z</time>
      </trkpt>
      <trkpt lat="42.8612950" lon="-7.7824890">
        <ele>615.5</ele>
        <time>2021-10-05T13:10:56Z</time>
      </trkpt>
      <trkpt lat="42.8613980" lon="-7.7826010">
        <ele>615.0</ele>
        <time>2021-10-05T13:10:58Z</time>
      </trkpt>
      <trkpt lat="42.8614610" lon="-7.7826960">
        <ele>614.5</ele>
        <time>2021-10-05T13:11:00Z</time>
      </trkpt>
      <trkpt lat="42.8615990" lon="-7.7827530">
        <ele>613.6</ele>
        <time>2021-10-05T13:11:05Z</time>
      </trkpt>
      <trkpt lat="42.8616430" lon="-7.7827640">
        <ele>613.3</ele>
        <time>2021-10-05T13:11:06Z</time>
      </trkpt>
      <trkpt lat="42.8619250" lon="-7.7827610">
        <ele>611.5</ele>
        <time>2021-10-05T13:11:11Z</time>
      </trkpt>
      <trkpt lat="42.8620480" lon="-7.7827120">
        <ele>610.7</ele>
        <time>2021-10-05T13:11:13Z</time>
      </trkpt>
      <trkpt lat="42.8621430" lon="-7.7826560">
        <ele>610.1</ele>
        <time>2021-10-05T13:11:15Z</time>
      </trkpt>
      <trkpt lat="42.8622770" lon="-7.7825760">
        <ele>609.3</ele>
        <time>2021-10-05T13:11:18Z</time>
      </trkpt>
      <trkpt lat="42.8623200" lon="-7.7825600">
        <ele>608.8</ele>
        <time>2021-10-05T13:11:19Z</time>
      </trkpt>
      <trkpt lat="42.8624120" lon="-7.7826590">
        <ele>607.0</ele>
        <time>2021-10-05T13:11:22Z</time>
      </trkpt>
      <trkpt lat="42.8624060" lon="-7.7827350">
        <ele>606.1</ele>
        <time>2021-10-05T13:11:23Z</time>
      </trkpt>
      <trkpt lat="42.8623350" lon="-7.7830170">
        <ele>602.9</ele>
        <time>2021-10-05T13:11:26Z</time>
      </trkpt>
      <trkpt lat="42.8622570" lon="-7.7833420">
        <ele>600.5</ele>
        <time>2021-10-05T13:11:29Z</time>
      </trkpt>
      <trkpt lat="42.8622680" lon="-7.7835420">
        <ele>599.4</ele>
        <time>2021-10-05T13:11:31Z</time>
      </trkpt>
      <trkpt lat="42.8623190" lon="-7.7837050">
        <ele>598.9</ele>
        <time>2021-10-05T13:11:33Z</time>
      </trkpt>
      <trkpt lat="42.8623700" lon="-7.7838600">
        <ele>598.8</ele>
        <time>2021-10-05T13:11:35Z</time>
      </trkpt>
      <trkpt lat="42.8623940" lon="-7.7839360">
        <ele>598.9</ele>
        <time>2021-10-05T13:11:36Z</time>
      </trkpt>
      <trkpt lat="42.8624160" lon="-7.7840070">
        <ele>599.1</ele>
        <time>2021-10-05T13:11:37Z</time>
      </trkpt>
      <trkpt lat="42.8624390" lon="-7.7840780">
        <ele>599.4</ele>
        <time>2021-10-05T13:11:38Z</time>
      </trkpt>
      <trkpt lat="42.8624620" lon="-7.7841500">
        <ele>599.8</ele>
        <time>2021-10-05T13:11:39Z</time>
      </trkpt>
      <trkpt lat="42.8624810" lon="-7.7842150">
        <ele>600.3</ele>
        <time>2021-10-05T13:11:40Z</time>
      </trkpt>
      <trkpt lat="42.8625020" lon="-7.7842750">
        <ele>600.9</ele>
        <time>2021-10-05T13:11:41Z</time>
      </trkpt>
      <trkpt lat="42.8625360" lon="-7.7843740">
        <ele>602.1</ele>
        <time>2021-10-05T13:11:43Z</time>
      </trkpt>
      <trkpt lat="42.8625630" lon="-7.7844580">
        <ele>603.1</ele>
        <time>2021-10-05T13:11:45Z</time>
      </trkpt>
      <trkpt lat="42.8625900" lon="-7.7845420">
        <ele>604.0</ele>
        <time>2021-10-05T13:11:47Z</time>
      </trkpt>
      <trkpt lat="42.8626230" lon="-7.7846220">
        <ele>604.8</ele>
        <time>2021-10-05T13:11:49Z</time>
      </trkpt>
      <trkpt lat="42.8628980" lon="-7.7850820">
        <ele>608.9</ele>
        <time>2021-10-05T13:12:02Z</time>
      </trkpt>
      <trkpt lat="42.8630230" lon="-7.7851300">
        <ele>610.4</ele>
        <time>2021-10-05T13:12:07Z</time>
      </trkpt>
      <trkpt lat="42.8631290" lon="-7.7851620">
        <ele>611.6</ele>
        <time>2021-10-05T13:12:11Z</time>
      </trkpt>
      <trkpt lat="42.8631560" lon="-7.7851730">
        <ele>611.8</ele>
        <time>2021-10-05T13:12:12Z</time>
      </trkpt>
      <trkpt lat="42.8633230" lon="-7.7852420">
        <ele>613.1</ele>
        <time>2021-10-05T13:12:18Z</time>
      </trkpt>
      <trkpt lat="42.8633530" lon="-7.7852570">
        <ele>613.3</ele>
        <time>2021-10-05T13:12:19Z</time>
      </trkpt>
      <trkpt lat="42.8634160" lon="-7.7852870">
        <ele>613.6</ele>
        <time>2021-10-05T13:12:21Z</time>
      </trkpt>
      <trkpt lat="42.8636160" lon="-7.7854200">
        <ele>614.8</ele>
        <time>2021-10-05T13:12:28Z</time>
      </trkpt>
      <trkpt lat="42.8638400" lon="-7.7856360">
        <ele>616.4</ele>
        <time>2021-10-05T13:12:37Z</time>
      </trkpt>
      <trkpt lat="42.8638620" lon="-7.7856620">
        <ele>616.5</ele>
        <time>2021-10-05T13:12:38Z</time>
      </trkpt>
      <trkpt lat="42.8639060" lon="-7.7857150">
        <ele>616.9</ele>
        <time>2021-10-05T13:12:40Z</time>
      </trkpt>
      <trkpt lat="42.8640250" lon="-7.7858910">
        <ele>618.4</ele>
        <time>2021-10-05T13:12:46Z</time>
      </trkpt>
      <trkpt lat="42.8644120" lon="-7.7864250">
        <ele>622.7</ele>
        <time>2021-10-05T13:13:06Z</time>
      </trkpt>
      <trkpt lat="42.8645660" lon="-7.7865580">
        <ele>625.1</ele>
        <time>2021-10-05T13:13:12Z</time>
      </trkpt>
      <trkpt lat="42.8650380" lon="-7.7869590">
        <ele>628.5</ele>
        <time>2021-10-05T13:13:29Z</time>
      </trkpt>
      <trkpt lat="42.8652730" lon="-7.7871370">
        <ele>629.2</ele>
        <time>2021-10-05T13:13:36Z</time>
      </trkpt>
      <trkpt lat="42.8655270" lon="-7.7876760">
        <ele>630.6</ele>
        <time>2021-10-05T13:13:49Z</time>
      </trkpt>
      <trkpt lat="42.8655870" lon="-7.7879420">
        <ele>630.8</ele>
        <time>2021-10-05T13:13:54Z</time>
      </trkpt>
      <trkpt lat="42.8656330" lon="-7.7881980">
        <ele>630.8</ele>
        <time>2021-10-05T13:13:59Z</time>
      </trkpt>
      <trkpt lat="42.8656560" lon="-7.7883570">
        <ele>630.9</ele>
        <time>2021-10-05T13:14:02Z</time>
      </trkpt>
      <trkpt lat="42.8656760" lon="-7.7884700">
        <ele>630.8</ele>
        <time>2021-10-05T13:14:04Z</time>
      </trkpt>
      <trkpt lat="42.8656900" lon="-7.7886580">
        <ele>630.6</ele>
        <time>2021-10-05T13:14:07Z</time>
      </trkpt>
      <trkpt lat="42.8656940" lon="-7.7888670">
        <ele>630.3</ele>
        <time>2021-10-05T13:14:10Z</time>
      </trkpt>
      <trkpt lat="42.8656910" lon="-7.7889400">
        <ele>630.2</ele>
        <time>2021-10-05T13:14:11Z</time>
      </trkpt>
      <trkpt lat="42.8656800" lon="-7.7890870">
        <ele>629.8</ele>
        <time>2021-10-05T13:14:13Z</time>
      </trkpt>
      <trkpt lat="42.8656070" lon="-7.7898390">
        <ele>627.2</ele>
        <time>2021-10-05T13:14:22Z</time>
      </trkpt>
      <trkpt lat="42.8655930" lon="-7.7901540">
        <ele>625.7</ele>
        <time>2021-10-05T13:14:25Z</time>
      </trkpt>
      <trkpt lat="42.8656200" lon="-7.7903790">
        <ele>624.6</ele>
        <time>2021-10-05T13:14:27Z</time>
      </trkpt>
      <trkpt lat="42.8656750" lon="-7.7905980">
        <ele>623.7</ele>
        <time>2021-10-05T13:14:29Z</time>
      </trkpt>
      <trkpt lat="42.8657100" lon="-7.7907030">
        <ele>623.4</ele>
        <time>2021-10-05T13:14:30Z</time>
      </trkpt>
      <trkpt lat="42.8659550" lon="-7.7913280">
        <ele>623.0</ele>
        <time>2021-10-05T13:14:37Z</time>
      </trkpt>
      <trkpt lat="42.8659870" lon="-7.7913990">
        <ele>623.1</ele>
        <time>2021-10-05T13:14:38Z</time>
      </trkpt>
      <trkpt lat="42.8660380" lon="-7.7915260">
        <ele>623.2</ele>
        <time>2021-10-05T13:14:40Z</time>
      </trkpt>
      <trkpt lat="42.8660700" lon="-7.7916610">
        <ele>623.4</ele>
        <time>2021-10-05T13:14:42Z</time>
      </trkpt>
      <trkpt lat="42.8660790" lon="-7.7918260">
        <ele>623.6</ele>
        <time>2021-10-05T13:14:44Z</time>
      </trkpt>
      <trkpt lat="42.8660870" lon="-7.7919900">
        <ele>624.0</ele>
        <time>2021-10-05T13:14:46Z</time>
      </trkpt>
      <trkpt lat="42.8660900" lon="-7.7923520">
        <ele>624.7</ele>
        <time>2021-10-05T13:14:50Z</time>
      </trkpt>
      <trkpt lat="42.8661090" lon="-7.7927460">
        <ele>626.2</ele>
        <time>2021-10-05T13:14:55Z</time>
      </trkpt>
      <trkpt lat="42.8661290" lon="-7.7929560">
        <ele>627.0</ele>
        <time>2021-10-05T13:14:58Z</time>
      </trkpt>
      <trkpt lat="42.8661380" lon="-7.7930240">
        <ele>627.3</ele>
        <time>2021-10-05T13:14:59Z</time>
      </trkpt>
      <trkpt lat="42.8662990" lon="-7.7936290">
        <ele>628.8</ele>
        <time>2021-10-05T13:15:09Z</time>
      </trkpt>
      <trkpt lat="42.8663220" lon="-7.7936820">
        <ele>628.9</ele>
        <time>2021-10-05T13:15:10Z</time>
      </trkpt>
      <trkpt lat="42.8664840" lon="-7.7940300">
        <ele>629.9</ele>
        <time>2021-10-05T13:15:17Z</time>
      </trkpt>
      <trkpt lat="42.8666130" lon="-7.7942410">
        <ele>630.7</ele>
        <time>2021-10-05T13:15:23Z</time>
      </trkpt>
      <trkpt lat="42.8667650" lon="-7.7944770">
        <ele>631.9</ele>
        <time>2021-10-05T13:15:31Z</time>
      </trkpt>
      <trkpt lat="42.8668960" lon="-7.7948230">
        <ele>633.2</ele>
        <time>2021-10-05T13:15:41Z</time>
      </trkpt>
      <trkpt lat="42.8669470" lon="-7.7949910">
        <ele>633.8</ele>
        <time>2021-10-05T13:15:46Z</time>
      </trkpt>
      <trkpt lat="42.8673150" lon="-7.7955520">
        <ele>636.1</ele>
        <time>2021-10-05T13:16:01Z</time>
      </trkpt>
      <trkpt lat="42.8674170" lon="-7.7957280">
        <ele>637.0</ele>
        <time>2021-10-05T13:16:05Z</time>
      </trkpt>
      <trkpt lat="42.8674980" lon="-7.7959050">
        <ele>637.8</ele>
        <time>2021-10-05T13:16:09Z</time>
      </trkpt>
      <trkpt lat="42.8676040" lon="-7.7960920">
        <ele>638.9</ele>
        <time>2021-10-05T13:16:14Z</time>
      </trkpt>
      <trkpt lat="42.8677220" lon="-7.7963660">
        <ele>640.3</ele>
        <time>2021-10-05T13:16:20Z</time>
      </trkpt>
      <trkpt lat="42.8679990" lon="-7.7969740">
        <ele>643.9</ele>
        <time>2021-10-05T13:16:34Z</time>
      </trkpt>
      <trkpt lat="42.8681320" lon="-7.7972170">
        <ele>645.6</ele>
        <time>2021-10-05T13:16:39Z</time>
      </trkpt>
      <trkpt lat="42.8683790" lon="-7.7977210">
        <ele>647.6</ele>
        <time>2021-10-05T13:16:53Z</time>
      </trkpt>
      <trkpt lat="42.8684260" lon="-7.7978050">
        <ele>647.8</ele>
        <time>2021-10-05T13:16:56Z</time>
      </trkpt>
      <trkpt lat="42.8684430" lon="-7.7978280">
        <ele>647.8</ele>
        <time>2021-10-05T13:16:57Z</time>
      </trkpt>
      <trkpt lat="42.8685600" lon="-7.7979610">
        <ele>647.5</ele>
        <time>2021-10-05T13:18:05Z</time>
      </trkpt>
      <trkpt lat="42.8685670" lon="-7.7979880">
        <ele>647.4</ele>
        <time>2021-10-05T13:18:06Z</time>
      </trkpt>
      <trkpt lat="42.8686560" lon="-7.7981020">
        <ele>647.0</ele>
        <time>2021-10-05T13:18:10Z</time>
      </trkpt>
      <trkpt lat="42.8690990" lon="-7.7986480">
        <ele>644.5</ele>
        <time>2021-10-05T13:18:22Z</time>
      </trkpt>
      <trkpt lat="42.8692330" lon="-7.7988120">
        <ele>643.8</ele>
        <time>2021-10-05T13:18:25Z</time>
      </trkpt>
      <trkpt lat="42.8696050" lon="-7.7992780">
        <ele>641.9</ele>
        <time>2021-10-05T13:18:33Z</time>
      </trkpt>
      <trkpt lat="42.8697040" lon="-7.7994100">
        <ele>641.4</ele>
        <time>2021-10-05T13:18:35Z</time>
      </trkpt>
      <trkpt lat="42.8698190" lon="-7.7995440">
        <ele>640.8</ele>
        <time>2021-10-05T13:18:37Z</time>
      </trkpt>
      <trkpt lat="42.8699390" lon="-7.7996850">
        <ele>640.3</ele>
        <time>2021-10-05T13:18:39Z</time>
      </trkpt>
      <trkpt lat="42.8700580" lon="-7.7998320">
        <ele>639.9</ele>
        <time>2021-10-05T13:18:41Z</time>
      </trkpt>
      <trkpt lat="42.8703020" lon="-7.8001320">
        <ele>638.8</ele>
        <time>2021-10-05T13:18:45Z</time>
      </trkpt>
      <trkpt lat="42.8707310" lon="-7.8006750">
        <ele>636.7</ele>
        <time>2021-10-05T13:18:52Z</time>
      </trkpt>
      <trkpt lat="42.8711570" lon="-7.8012780">
        <ele>633.3</ele>
        <time>2021-10-05T13:18:59Z</time>
      </trkpt>
      <trkpt lat="42.8712590" lon="-7.8014930">
        <ele>631.6</ele>
        <time>2021-10-05T13:19:01Z</time>
      </trkpt>
      <trkpt lat="42.8714050" lon="-7.8018640">
        <ele>628.2</ele>
        <time>2021-10-05T13:19:04Z</time>
      </trkpt>
      <trkpt lat="42.8716770" lon="-7.8025800">
        <ele>620.9</ele>
        <time>2021-10-05T13:19:09Z</time>
      </trkpt>
      <trkpt lat="42.8717920" lon="-7.8028890">
        <ele>617.5</ele>
        <time>2021-10-05T13:19:11Z</time>
      </trkpt>
      <trkpt lat="42.8720520" lon="-7.8035590">
        <ele>610.9</ele>
        <time>2021-10-05T13:19:15Z</time>
      </trkpt>
      <trkpt lat="42.8724210" lon="-7.8041230">
        <ele>604.9</ele>
        <time>2021-10-05T13:19:19Z</time>
      </trkpt>
      <trkpt lat="42.8726350" lon="-7.8043810">
        <ele>601.8</ele>
        <time>2021-10-05T13:19:21Z</time>
      </trkpt>
      <trkpt lat="42.8727440" lon="-7.8045160">
        <ele>600.3</ele>
        <time>2021-10-05T13:19:22Z</time>
      </trkpt>
      <trkpt lat="42.8729670" lon="-7.8047880">
        <ele>597.4</ele>
        <time>2021-10-05T13:19:24Z</time>
      </trkpt>
      <trkpt lat="42.8734210" lon="-7.8053600">
        <ele>591.9</ele>
        <time>2021-10-05T13:19:28Z</time>
      </trkpt>
      <trkpt lat="42.8736450" lon="-7.8056390">
        <ele>588.1</ele>
        <time>2021-10-05T13:19:30Z</time>
      </trkpt>
      <trkpt lat="42.8737300" lon="-7.8057630">
        <ele>586.4</ele>
        <time>2021-10-05T13:19:31Z</time>
      </trkpt>
      <trkpt lat="42.8737900" lon="-7.8058860">
        <ele>585.0</ele>
        <time>2021-10-05T13:19:32Z</time>
      </trkpt>
      <trkpt lat="42.8738100" lon="-7.8061570">
        <ele>582.9</ele>
        <time>2021-10-05T13:19:34Z</time>
      </trkpt>
      <trkpt lat="42.8737840" lon="-7.8064320">
        <ele>581.7</ele>
        <time>2021-10-05T13:19:36Z</time>
      </trkpt>
      <trkpt lat="42.8737700" lon="-7.8065650">
        <ele>581.3</ele>
        <time>2021-10-05T13:19:37Z</time>
      </trkpt>
      <trkpt lat="42.8737290" lon="-7.8068070">
        <ele>581.0</ele>
        <time>2021-10-05T13:19:39Z</time>
      </trkpt>
      <trkpt lat="42.8736050" lon="-7.8070970">
        <ele>581.3</ele>
        <time>2021-10-05T13:19:42Z</time>
      </trkpt>
      <trkpt lat="42.8735660" lon="-7.8071910">
        <ele>581.1</ele>
        <time>2021-10-05T13:19:43Z</time>
      </trkpt>
      <trkpt lat="42.8735250" lon="-7.8076980">
        <ele>580.1</ele>
        <time>2021-10-05T13:19:48Z</time>
      </trkpt>
      <trkpt lat="42.8735630" lon="-7.8078820">
        <ele>579.8</ele>
        <time>2021-10-05T13:19:50Z</time>
      </trkpt>
      <trkpt lat="42.8736220" lon="-7.8080450">
        <ele>579.7</ele>
        <time>2021-10-05T13:19:52Z</time>
      </trkpt>
      <trkpt lat="42.8736780" lon="-7.8081920">
        <ele>579.7</ele>
        <time>2021-10-05T13:19:54Z</time>
      </trkpt>
      <trkpt lat="42.8737080" lon="-7.8082540">
        <ele>579.8</ele>
        <time>2021-10-05T13:19:55Z</time>
      </trkpt>
      <trkpt lat="42.8737340" lon="-7.8083160">
        <ele>579.8</ele>
        <time>2021-10-05T13:19:56Z</time>
      </trkpt>
      <trkpt lat="42.8737550" lon="-7.8084470">
        <ele>580.1</ele>
        <time>2021-10-05T13:19:58Z</time>
      </trkpt>
      <trkpt lat="42.8737580" lon="-7.8085590">
        <ele>580.3</ele>
        <time>2021-10-05T13:20:00Z</time>
      </trkpt>
      <trkpt lat="42.8737610" lon="-7.8086680">
        <ele>580.7</ele>
        <time>2021-10-05T13:20:02Z</time>
      </trkpt>
      <trkpt lat="42.8737600" lon="-7.8087200">
        <ele>580.8</ele>
        <time>2021-10-05T13:20:03Z</time>
      </trkpt>
      <trkpt lat="42.8737480" lon="-7.8088220">
        <ele>581.1</ele>
        <time>2021-10-05T13:20:05Z</time>
      </trkpt>
      <trkpt lat="42.8737000" lon="-7.8090390">
        <ele>581.9</ele>
        <time>2021-10-05T13:20:09Z</time>
      </trkpt>
      <trkpt lat="42.8736870" lon="-7.8090900">
        <ele>582.0</ele>
        <time>2021-10-05T13:20:10Z</time>
      </trkpt>
      <trkpt lat="42.8736430" lon="-7.8092360">
        <ele>582.6</ele>
        <time>2021-10-05T13:20:13Z</time>
      </trkpt>
      <trkpt lat="42.8735970" lon="-7.8093790">
        <ele>583.2</ele>
        <time>2021-10-05T13:20:16Z</time>
      </trkpt>
      <trkpt lat="42.8735400" lon="-7.8095600">
        <ele>584.0</ele>
        <time>2021-10-05T13:20:20Z</time>
      </trkpt>
      <trkpt lat="42.8734880" lon="-7.8097180">
        <ele>584.7</ele>
        <time>2021-10-05T13:20:23Z</time>
      </trkpt>
      <trkpt lat="42.8734290" lon="-7.8098720">
        <ele>585.2</ele>
        <time>2021-10-05T13:20:26Z</time>
      </trkpt>
      <trkpt lat="42.8733780" lon="-7.8100100">
        <ele>585.6</ele>
        <time>2021-10-05T13:20:28Z</time>
      </trkpt>
      <trkpt lat="42.8733130" lon="-7.8101560">
        <ele>585.9</ele>
        <time>2021-10-05T13:20:30Z</time>
      </trkpt>
      <trkpt lat="42.8732830" lon="-7.8102250">
        <ele>586.1</ele>
        <time>2021-10-05T13:20:31Z</time>
      </trkpt>
      <trkpt lat="42.8732220" lon="-7.8103500">
        <ele>586.3</ele>
        <time>2021-10-05T13:20:33Z</time>
      </trkpt>
      <trkpt lat="42.8728590" lon="-7.8109770">
        <ele>587.4</ele>
        <time>2021-10-05T13:20:43Z</time>
      </trkpt>
      <trkpt lat="42.8725350" lon="-7.8115230">
        <ele>588.1</ele>
        <time>2021-10-05T13:20:52Z</time>
      </trkpt>
      <trkpt lat="42.8723490" lon="-7.8122150">
        <ele>589.2</ele>
        <time>2021-10-05T13:21:02Z</time>
      </trkpt>
      <trkpt lat="42.8723410" lon="-7.8122880">
        <ele>589.3</ele>
        <time>2021-10-05T13:21:03Z</time>
      </trkpt>
      <trkpt lat="42.8722820" lon="-7.8130000">
        <ele>590.6</ele>
        <time>2021-10-05T13:21:13Z</time>
      </trkpt>
      <trkpt lat="42.8722240" lon="-7.8136380">
        <ele>592.6</ele>
        <time>2021-10-05T13:21:24Z</time>
      </trkpt>
      <trkpt lat="42.8723430" lon="-7.8143390">
        <ele>595.9</ele>
        <time>2021-10-05T13:21:39Z</time>
      </trkpt>
      <trkpt lat="42.8724390" lon="-7.8144380">
        <ele>596.2</ele>
        <time>2021-10-05T13:21:42Z</time>
      </trkpt>
      <trkpt lat="42.8726310" lon="-7.8146630">
        <ele>598.3</ele>
        <time>2021-10-05T13:21:49Z</time>
      </trkpt>
      <trkpt lat="42.8726330" lon="-7.8148980">
        <ele>600.6</ele>
        <time>2021-10-05T13:21:54Z</time>
      </trkpt>
      <trkpt lat="42.8726500" lon="-7.8150020">
        <ele>601.7</ele>
        <time>2021-10-05T13:21:56Z</time>
      </trkpt>
      <trkpt lat="42.8727150" lon="-7.8151350">
        <ele>603.1</ele>
        <time>2021-10-05T13:21:59Z</time>
      </trkpt>
      <trkpt lat="42.8727470" lon="-7.8151760">
        <ele>603.6</ele>
        <time>2021-10-05T13:22:00Z</time>
      </trkpt>
      <trkpt lat="42.8728740" lon="-7.8153230">
        <ele>605.1</ele>
        <time>2021-10-05T13:22:04Z</time>
      </trkpt>
      <trkpt lat="42.8730170" lon="-7.8155100">
        <ele>606.5</ele>
        <time>2021-10-05T13:22:09Z</time>
      </trkpt>
      <trkpt lat="42.8731250" lon="-7.8156540">
        <ele>607.4</ele>
        <time>2021-10-05T13:22:13Z</time>
      </trkpt>
      <trkpt lat="42.8732610" lon="-7.8160940">
        <ele>609.2</ele>
        <time>2021-10-05T13:22:24Z</time>
      </trkpt>
      <trkpt lat="42.8733510" lon="-7.8166950">
        <ele>611.2</ele>
        <time>2021-10-05T13:22:39Z</time>
      </trkpt>
      <trkpt lat="42.8734030" lon="-7.8171760">
        <ele>612.4</ele>
        <time>2021-10-05T13:22:50Z</time>
      </trkpt>
      <trkpt lat="42.8734180" lon="-7.8172190">
        <ele>612.5</ele>
        <time>2021-10-05T13:22:51Z</time>
      </trkpt>
      <trkpt lat="42.8735030" lon="-7.8173570">
        <ele>612.9</ele>
        <time>2021-10-05T13:22:55Z</time>
      </trkpt>
      <trkpt lat="42.8736260" lon="-7.8174590">
        <ele>613.2</ele>
        <time>2021-10-05T13:22:59Z</time>
      </trkpt>
      <trkpt lat="42.8740810" lon="-7.8178640">
        <ele>616.0</ele>
        <time>2021-10-05T13:23:14Z</time>
      </trkpt>
      <trkpt lat="42.8741500" lon="-7.8179860">
        <ele>617.2</ele>
        <time>2021-10-05T13:23:17Z</time>
      </trkpt>
      <trkpt lat="42.8741750" lon="-7.8181810">
        <ele>618.8</ele>
        <time>2021-10-05T13:23:21Z</time>
      </trkpt>
      <trkpt lat="42.8741290" lon="-7.8183710">
        <ele>620.5</ele>
        <time>2021-10-05T13:23:25Z</time>
      </trkpt>
      <trkpt lat="42.8740400" lon="-7.8186380">
        <ele>622.6</ele>
        <time>2021-10-05T13:23:31Z</time>
      </trkpt>
      <trkpt lat="42.8738960" lon="-7.8193800">
        <ele>624.6</ele>
        <time>2021-10-05T13:23:46Z</time>
      </trkpt>
      <trkpt lat="42.8738810" lon="-7.8194430">
        <ele>624.6</ele>
        <time>2021-10-05T13:23:47Z</time>
      </trkpt>
      <trkpt lat="42.8738210" lon="-7.8196970">
        <ele>624.5</ele>
        <time>2021-10-05T13:23:51Z</time>
      </trkpt>
      <trkpt lat="42.8737540" lon="-7.8199600">
        <ele>624.3</ele>
        <time>2021-10-05T13:23:55Z</time>
      </trkpt>
      <trkpt lat="42.8736880" lon="-7.8202200">
        <ele>624.4</ele>
        <time>2021-10-05T13:23:59Z</time>
      </trkpt>
      <trkpt lat="42.8736340" lon="-7.8204050">
        <ele>624.6</ele>
        <time>2021-10-05T13:24:02Z</time>
      </trkpt>
      <trkpt lat="42.8735780" lon="-7.8205710">
        <ele>625.1</ele>
        <time>2021-10-05T13:24:05Z</time>
      </trkpt>
      <trkpt lat="42.8734210" lon="-7.8209410">
        <ele>626.7</ele>
        <time>2021-10-05T13:24:13Z</time>
      </trkpt>
      <trkpt lat="42.8731880" lon="-7.8215900">
        <ele>628.7</ele>
        <time>2021-10-05T13:24:27Z</time>
      </trkpt>
      <trkpt lat="42.8731350" lon="-7.8222570">
        <ele>630.1</ele>
        <time>2021-10-05T13:24:40Z</time>
      </trkpt>
      <trkpt lat="42.8730760" lon="-7.8224390">
        <ele>631.3</ele>
        <time>2021-10-05T13:24:44Z</time>
      </trkpt>
      <trkpt lat="42.8730030" lon="-7.8227250">
        <ele>632.9</ele>
        <time>2021-10-05T13:24:50Z</time>
      </trkpt>
      <trkpt lat="42.8730140" lon="-7.8232020">
        <ele>634.0</ele>
        <time>2021-10-05T13:24:59Z</time>
      </trkpt>
      <trkpt lat="42.8730370" lon="-7.8233710">
        <ele>634.1</ele>
        <time>2021-10-05T13:25:02Z</time>
      </trkpt>
      <trkpt lat="42.8730560" lon="-7.8235480">
        <ele>634.1</ele>
        <time>2021-10-05T13:25:05Z</time>
      </trkpt>
      <trkpt lat="42.8730560" lon="-7.8236080">
        <ele>634.0</ele>
        <time>2021-10-05T13:25:06Z</time>
      </trkpt>
      <trkpt lat="42.8730560" lon="-7.8237210">
        <ele>634.0</ele>
        <time>2021-10-05T13:25:08Z</time>
      </trkpt>
      <trkpt lat="42.8730510" lon="-7.8238410">
        <ele>633.8</ele>
        <time>2021-10-05T13:25:10Z</time>
      </trkpt>
      <trkpt lat="42.8730370" lon="-7.8239840">
        <ele>633.4</ele>
        <time>2021-10-05T13:25:12Z</time>
      </trkpt>
      <trkpt lat="42.8730150" lon="-7.8241410">
        <ele>632.9</ele>
        <time>2021-10-05T13:25:14Z</time>
      </trkpt>
      <trkpt lat="42.8729850" lon="-7.8244130">
        <ele>632.0</ele>
        <time>2021-10-05T13:25:17Z</time>
      </trkpt>
      <trkpt lat="42.8729820" lon="-7.8245080">
        <ele>631.7</ele>
        <time>2021-10-05T13:25:18Z</time>
      </trkpt>
      <trkpt lat="42.8730160" lon="-7.8249090">
        <ele>630.1</ele>
        <time>2021-10-05T13:25:22Z</time>
      </trkpt>
      <trkpt lat="42.8730820" lon="-7.8253260">
        <ele>628.6</ele>
        <time>2021-10-05T13:25:26Z</time>
      </trkpt>
      <trkpt lat="42.8731320" lon="-7.8255160">
        <ele>628.0</ele>
        <time>2021-10-05T13:25:28Z</time>
      </trkpt>
      <trkpt lat="42.8731880" lon="-7.8256930">
        <ele>627.4</ele>
        <time>2021-10-05T13:25:30Z</time>
      </trkpt>
      <trkpt lat="42.8732830" lon="-7.8259590">
        <ele>626.5</ele>
        <time>2021-10-05T13:25:33Z</time>
      </trkpt>
      <trkpt lat="42.8733860" lon="-7.8262240">
        <ele>625.7</ele>
        <time>2021-10-05T13:25:36Z</time>
      </trkpt>
      <trkpt lat="42.8734660" lon="-7.8264060">
        <ele>625.0</ele>
        <time>2021-10-05T13:25:38Z</time>
      </trkpt>
      <trkpt lat="42.8735090" lon="-7.8264950">
        <ele>624.6</ele>
        <time>2021-10-05T13:25:39Z</time>
      </trkpt>
      <trkpt lat="42.8739120" lon="-7.8270630">
        <ele>621.1</ele>
        <time>2021-10-05T13:25:46Z</time>
      </trkpt>
      <trkpt lat="42.8742020" lon="-7.8275430">
        <ele>618.6</ele>
        <time>2021-10-05T13:25:51Z</time>
      </trkpt>
      <trkpt lat="42.8742530" lon="-7.8276440">
        <ele>618.3</ele>
        <time>2021-10-05T13:25:52Z</time>
      </trkpt>
      <trkpt lat="42.8742970" lon="-7.8277560">
        <ele>617.9</ele>
        <time>2021-10-05T13:25:53Z</time>
      </trkpt>
      <trkpt lat="42.8743890" lon="-7.8279540">
        <ele>617.3</ele>
        <time>2021-10-05T13:25:55Z</time>
      </trkpt>
      <trkpt lat="42.8744670" lon="-7.8281850">
        <ele>616.8</ele>
        <time>2021-10-05T13:25:57Z</time>
      </trkpt>
      <trkpt lat="42.8745460" lon="-7.8284080">
        <ele>616.5</ele>
        <time>2021-10-05T13:25:59Z</time>
      </trkpt>
      <trkpt lat="42.8746250" lon="-7.8286230">
        <ele>616.4</ele>
        <time>2021-10-05T13:26:01Z</time>
      </trkpt>
      <trkpt lat="42.8747910" lon="-7.8290120">
        <ele>616.4</ele>
        <time>2021-10-05T13:26:05Z</time>
      </trkpt>
      <trkpt lat="42.8750410" lon="-7.8292890">
        <ele>615.6</ele>
        <time>2021-10-05T13:26:09Z</time>
      </trkpt>
      <trkpt lat="42.8751080" lon="-7.8293540">
        <ele>615.4</ele>
        <time>2021-10-05T13:26:10Z</time>
      </trkpt>
      <trkpt lat="42.8753150" lon="-7.8298220">
        <ele>614.6</ele>
        <time>2021-10-05T13:26:15Z</time>
      </trkpt>
      <trkpt lat="42.8754290" lon="-7.8302280">
        <ele>614.3</ele>
        <time>2021-10-05T13:26:19Z</time>
      </trkpt>
      <trkpt lat="42.8755060" lon="-7.8305240">
        <ele>614.4</ele>
        <time>2021-10-05T13:26:22Z</time>
      </trkpt>
      <trkpt lat="42.8755870" lon="-7.8308960">
        <ele>614.5</ele>
        <time>2021-10-05T13:26:26Z</time>
      </trkpt>
      <trkpt lat="42.8756010" lon="-7.8309900">
        <ele>614.5</ele>
        <time>2021-10-05T13:26:27Z</time>
      </trkpt>
      <trkpt lat="42.8756150" lon="-7.8310830">
        <ele>614.5</ele>
        <time>2021-10-05T13:26:28Z</time>
      </trkpt>
      <trkpt lat="42.8756930" lon="-7.8315510">
        <ele>614.9</ele>
        <time>2021-10-05T13:26:33Z</time>
      </trkpt>
      <trkpt lat="42.8757470" lon="-7.8319240">
        <ele>615.3</ele>
        <time>2021-10-05T13:26:37Z</time>
      </trkpt>
      <trkpt lat="42.8757920" lon="-7.8321930">
        <ele>615.6</ele>
        <time>2021-10-05T13:26:40Z</time>
      </trkpt>
      <trkpt lat="42.8758300" lon="-7.8323730">
        <ele>615.8</ele>
        <time>2021-10-05T13:26:42Z</time>
      </trkpt>
      <trkpt lat="42.8759520" lon="-7.8331230">
        <ele>617.0</ele>
        <time>2021-10-05T13:26:51Z</time>
      </trkpt>
      <trkpt lat="42.8759770" lon="-7.8335340">
        <ele>617.9</ele>
        <time>2021-10-05T13:26:56Z</time>
      </trkpt>
      <trkpt lat="42.8759970" lon="-7.8339470">
        <ele>618.5</ele>
        <time>2021-10-05T13:27:01Z</time>
      </trkpt>
      <trkpt lat="42.8760380" lon="-7.8346280">
        <ele>618.5</ele>
        <time>2021-10-05T13:27:09Z</time>
      </trkpt>
      <trkpt lat="42.8760300" lon="-7.8349660">
        <ele>618.4</ele>
        <time>2021-10-05T13:27:13Z</time>
      </trkpt>
      <trkpt lat="42.8759580" lon="-7.8357130">
        <ele>618.8</ele>
        <time>2021-10-05T13:27:22Z</time>
      </trkpt>
      <trkpt lat="42.8759370" lon="-7.8358540">
        <ele>619.1</ele>
        <time>2021-10-05T13:27:24Z</time>
      </trkpt>
      <trkpt lat="42.8759200" lon="-7.8359700">
        <ele>619.3</ele>
        <time>2021-10-05T13:27:26Z</time>
      </trkpt>
      <trkpt lat="42.8759070" lon="-7.8360800">
        <ele>619.4</ele>
        <time>2021-10-05T13:27:29Z</time>
      </trkpt>
      <trkpt lat="42.8759190" lon="-7.8361250">
        <ele>619.5</ele>
        <time>2021-10-05T13:29:02Z</time>
      </trkpt>
      <trkpt lat="42.8758980" lon="-7.8361270">
        <ele>619.5</ele>
        <time>2021-10-05T13:29:03Z</time>
      </trkpt>
      <trkpt lat="42.8758430" lon="-7.8361790">
        <ele>619.6</ele>
        <time>2021-10-05T13:29:06Z</time>
      </trkpt>
      <trkpt lat="42.8758370" lon="-7.8363110">
        <ele>619.8</ele>
        <time>2021-10-05T13:29:10Z</time>
      </trkpt>
      <trkpt lat="42.8758480" lon="-7.8365140">
        <ele>620.2</ele>
        <time>2021-10-05T13:29:15Z</time>
      </trkpt>
      <trkpt lat="42.8758390" lon="-7.8366660">
        <ele>620.5</ele>
        <time>2021-10-05T13:29:19Z</time>
      </trkpt>
      <trkpt lat="42.8757860" lon="-7.8369470">
        <ele>621.1</ele>
        <time>2021-10-05T13:29:29Z</time>
      </trkpt>
      <trkpt lat="42.8757480" lon="-7.8371370">
        <ele>621.4</ele>
        <time>2021-10-05T13:29:33Z</time>
      </trkpt>
      <trkpt lat="42.8757080" lon="-7.8372800">
        <ele>621.6</ele>
        <time>2021-10-05T13:29:36Z</time>
      </trkpt>
      <trkpt lat="42.8756380" lon="-7.8374470">
        <ele>622.0</ele>
        <time>2021-10-05T13:29:40Z</time>
      </trkpt>
      <trkpt lat="42.8753990" lon="-7.8379330">
        <ele>623.2</ele>
        <time>2021-10-05T13:29:56Z</time>
      </trkpt>
      <trkpt lat="42.8753170" lon="-7.8380750">
        <ele>623.8</ele>
        <time>2021-10-05T13:30:00Z</time>
      </trkpt>
      <trkpt lat="42.8752570" lon="-7.8381870">
        <ele>624.4</ele>
        <time>2021-10-05T13:30:03Z</time>
      </trkpt>
      <trkpt lat="42.8751800" lon="-7.8383270">
        <ele>625.2</ele>
        <time>2021-10-05T13:30:06Z</time>
      </trkpt>
      <trkpt lat="42.8751180" lon="-7.8384470">
        <ele>625.8</ele>
        <time>2021-10-05T13:30:09Z</time>
      </trkpt>
      <trkpt lat="42.8750580" lon="-7.8385650">
        <ele>626.1</ele>
        <time>2021-10-05T13:30:11Z</time>
      </trkpt>
      <trkpt lat="42.8749960" lon="-7.8386740">
        <ele>626.5</ele>
        <time>2021-10-05T13:30:13Z</time>
      </trkpt>
      <trkpt lat="42.8747420" lon="-7.8391770">
        <ele>627.8</ele>
        <time>2021-10-05T13:30:24Z</time>
      </trkpt>
      <trkpt lat="42.8745500" lon="-7.8395890">
        <ele>628.6</ele>
        <time>2021-10-05T13:30:35Z</time>
      </trkpt>
      <trkpt lat="42.8745260" lon="-7.8397940">
        <ele>628.8</ele>
        <time>2021-10-05T13:30:39Z</time>
      </trkpt>
      <trkpt lat="42.8745260" lon="-7.8399960">
        <ele>628.7</ele>
        <time>2021-10-05T13:30:43Z</time>
      </trkpt>
      <trkpt lat="42.8745190" lon="-7.8401580">
        <ele>628.7</ele>
        <time>2021-10-05T13:30:46Z</time>
      </trkpt>
      <trkpt lat="42.8745160" lon="-7.8403020">
        <ele>628.6</ele>
        <time>2021-10-05T13:30:49Z</time>
      </trkpt>
      <trkpt lat="42.8745070" lon="-7.8403970">
        <ele>628.6</ele>
        <time>2021-10-05T13:30:51Z</time>
      </trkpt>
      <trkpt lat="42.8744800" lon="-7.8408070">
        <ele>628.4</ele>
        <time>2021-10-05T13:31:00Z</time>
      </trkpt>
      <trkpt lat="42.8744690" lon="-7.8408820">
        <ele>628.4</ele>
        <time>2021-10-05T13:31:02Z</time>
      </trkpt>
      <trkpt lat="42.8744630" lon="-7.8409450">
        <ele>628.4</ele>
        <time>2021-10-05T13:31:04Z</time>
      </trkpt>
      <trkpt lat="42.8744620" lon="-7.8409830">
        <ele>628.4</ele>
        <time>2021-10-05T13:31:05Z</time>
      </trkpt>
      <trkpt lat="42.8744530" lon="-7.8411290">
        <ele>628.4</ele>
        <time>2021-10-05T13:31:08Z</time>
      </trkpt>
      <trkpt lat="42.8744480" lon="-7.8412530">
        <ele>628.4</ele>
        <time>2021-10-05T13:31:10Z</time>
      </trkpt>
      <trkpt lat="42.8744410" lon="-7.8413150">
        <ele>628.4</ele>
        <time>2021-10-05T13:31:11Z</time>
      </trkpt>
      <trkpt lat="42.8743610" lon="-7.8419000">
        <ele>628.7</ele>
        <time>2021-10-05T13:31:21Z</time>
      </trkpt>
      <trkpt lat="42.8743540" lon="-7.8419630">
        <ele>628.8</ele>
        <time>2021-10-05T13:31:22Z</time>
      </trkpt>
      <trkpt lat="42.8743390" lon="-7.8420740">
        <ele>628.9</ele>
        <time>2021-10-05T13:31:24Z</time>
      </trkpt>
      <trkpt lat="42.8743320" lon="-7.8421870">
        <ele>629.2</ele>
        <time>2021-10-05T13:31:28Z</time>
      </trkpt>
      <trkpt lat="42.8743840" lon="-7.8427110">
        <ele>630.5</ele>
        <time>2021-10-05T13:31:44Z</time>
      </trkpt>
      <trkpt lat="42.8744620" lon="-7.8434810">
        <ele>632.9</ele>
        <time>2021-10-05T13:32:06Z</time>
      </trkpt>
      <trkpt lat="42.8744710" lon="-7.8435990">
        <ele>633.5</ele>
        <time>2021-10-05T13:32:08Z</time>
      </trkpt>
      <trkpt lat="42.8744820" lon="-7.8437820">
        <ele>634.3</ele>
        <time>2021-10-05T13:32:11Z</time>
      </trkpt>
      <trkpt lat="42.8744850" lon="-7.8438990">
        <ele>634.7</ele>
        <time>2021-10-05T13:32:13Z</time>
      </trkpt>
      <trkpt lat="42.8744800" lon="-7.8442380">
        <ele>635.3</ele>
        <time>2021-10-05T13:32:18Z</time>
      </trkpt>
      <trkpt lat="42.8744560" lon="-7.8444960">
        <ele>635.3</ele>
        <time>2021-10-05T13:32:22Z</time>
      </trkpt>
      <trkpt lat="42.8744400" lon="-7.8448740">
        <ele>635.2</ele>
        <time>2021-10-05T13:32:28Z</time>
      </trkpt>
      <trkpt lat="42.8744420" lon="-7.8452830">
        <ele>635.0</ele>
        <time>2021-10-05T13:32:33Z</time>
      </trkpt>
      <trkpt lat="42.8744350" lon="-7.8456210">
        <ele>634.7</ele>
        <time>2021-10-05T13:32:37Z</time>
      </trkpt>
      <trkpt lat="42.8744000" lon="-7.8461540">
        <ele>634.2</ele>
        <time>2021-10-05T13:32:43Z</time>
      </trkpt>
      <trkpt lat="42.8743950" lon="-7.8462910">
        <ele>634.0</ele>
        <time>2021-10-05T13:32:45Z</time>
      </trkpt>
      <trkpt lat="42.8743670" lon="-7.8465790">
        <ele>633.8</ele>
        <time>2021-10-05T13:32:50Z</time>
      </trkpt>
      <trkpt lat="42.8743560" lon="-7.8472940">
        <ele>634.7</ele>
        <time>2021-10-05T13:33:03Z</time>
      </trkpt>
      <trkpt lat="42.8743370" lon="-7.8475890">
        <ele>634.7</ele>
        <time>2021-10-05T13:33:07Z</time>
      </trkpt>
      <trkpt lat="42.8743120" lon="-7.8478580">
        <ele>634.6</ele>
        <time>2021-10-05T13:33:11Z</time>
      </trkpt>
      <trkpt lat="42.8742880" lon="-7.8482060">
        <ele>634.3</ele>
        <time>2021-10-05T13:33:16Z</time>
      </trkpt>
      <trkpt lat="42.8742920" lon="-7.8485150">
        <ele>633.7</ele>
        <time>2021-10-05T13:33:20Z</time>
      </trkpt>
      <trkpt lat="42.8743120" lon="-7.8487620">
        <ele>633.3</ele>
        <time>2021-10-05T13:33:23Z</time>
      </trkpt>
      <trkpt lat="42.8743540" lon="-7.8490020">
        <ele>632.9</ele>
        <time>2021-10-05T13:33:26Z</time>
      </trkpt>
      <trkpt lat="42.8743790" lon="-7.8491270">
        <ele>632.6</ele>
        <time>2021-10-05T13:33:28Z</time>
      </trkpt>
      <trkpt lat="42.8744060" lon="-7.8493430">
        <ele>632.2</ele>
        <time>2021-10-05T13:33:32Z</time>
      </trkpt>
      <trkpt lat="42.8745360" lon="-7.8498220">
        <ele>631.2</ele>
        <time>2021-10-05T13:33:39Z</time>
      </trkpt>
      <trkpt lat="42.8745640" lon="-7.8499390">
        <ele>630.9</ele>
        <time>2021-10-05T13:33:41Z</time>
      </trkpt>
      <trkpt lat="42.8746570" lon="-7.8502150">
        <ele>630.0</ele>
        <time>2021-10-05T13:33:46Z</time>
      </trkpt>
      <trkpt lat="42.8748040" lon="-7.8506350">
        <ele>628.9</ele>
        <time>2021-10-05T13:33:52Z</time>
      </trkpt>
      <trkpt lat="42.8748780" lon="-7.8508640">
        <ele>628.3</ele>
        <time>2021-10-05T13:33:55Z</time>
      </trkpt>
      <trkpt lat="42.8748950" lon="-7.8509390">
        <ele>628.1</ele>
        <time>2021-10-05T13:33:56Z</time>
      </trkpt>
      <trkpt lat="42.8749010" lon="-7.8512450">
        <ele>627.4</ele>
        <time>2021-10-05T13:34:00Z</time>
      </trkpt>
      <trkpt lat="42.8748690" lon="-7.8514610">
        <ele>627.0</ele>
        <time>2021-10-05T13:34:03Z</time>
      </trkpt>
      <trkpt lat="42.8748530" lon="-7.8515270">
        <ele>626.9</ele>
        <time>2021-10-05T13:34:04Z</time>
      </trkpt>
      <trkpt lat="42.8747820" lon="-7.8517710">
        <ele>626.6</ele>
        <time>2021-10-05T13:34:08Z</time>
      </trkpt>
      <trkpt lat="42.8747560" lon="-7.8518240">
        <ele>626.6</ele>
        <time>2021-10-05T13:34:09Z</time>
      </trkpt>
      <trkpt lat="42.8746580" lon="-7.8519430">
        <ele>626.6</ele>
        <time>2021-10-05T13:34:12Z</time>
      </trkpt>
      <trkpt lat="42.8745730" lon="-7.8520450">
        <ele>626.7</ele>
        <time>2021-10-05T13:34:15Z</time>
      </trkpt>
      <trkpt lat="42.8745270" lon="-7.8522170">
        <ele>627.0</ele>
        <time>2021-10-05T13:34:19Z</time>
      </trkpt>
      <trkpt lat="42.8744900" lon="-7.8523090">
        <ele>627.1</ele>
        <time>2021-10-05T13:34:21Z</time>
      </trkpt>
      <trkpt lat="42.8744200" lon="-7.8525200">
        <ele>627.1</ele>
        <time>2021-10-05T13:34:25Z</time>
      </trkpt>
      <trkpt lat="42.8743510" lon="-7.8528090">
        <ele>626.6</ele>
        <time>2021-10-05T13:34:30Z</time>
      </trkpt>
      <trkpt lat="42.8743380" lon="-7.8528700">
        <ele>626.5</ele>
        <time>2021-10-05T13:34:31Z</time>
      </trkpt>
      <trkpt lat="42.8743100" lon="-7.8530660">
        <ele>626.1</ele>
        <time>2021-10-05T13:34:34Z</time>
      </trkpt>
      <trkpt lat="42.8743030" lon="-7.8533420">
        <ele>625.5</ele>
        <time>2021-10-05T13:34:38Z</time>
      </trkpt>
      <trkpt lat="42.8743100" lon="-7.8534680">
        <ele>625.4</ele>
        <time>2021-10-05T13:34:40Z</time>
      </trkpt>
      <trkpt lat="42.8743110" lon="-7.8535850">
        <ele>625.2</ele>
        <time>2021-10-05T13:34:42Z</time>
      </trkpt>
      <trkpt lat="42.8743340" lon="-7.8537420">
        <ele>625.0</ele>
        <time>2021-10-05T13:34:45Z</time>
      </trkpt>
      <trkpt lat="42.8743480" lon="-7.8539320">
        <ele>624.8</ele>
        <time>2021-10-05T13:34:49Z</time>
      </trkpt>
      <trkpt lat="42.8742020" lon="-7.8547350">
        <ele>623.1</ele>
        <time>2021-10-05T13:34:59Z</time>
      </trkpt>
      <trkpt lat="42.8741580" lon="-7.8549950">
        <ele>621.9</ele>
        <time>2021-10-05T13:35:01Z</time>
      </trkpt>
      <trkpt lat="42.8741450" lon="-7.8554160">
        <ele>619.5</ele>
        <time>2021-10-05T13:35:05Z</time>
      </trkpt>
      <trkpt lat="42.8741160" lon="-7.8557320">
        <ele>617.7</ele>
        <time>2021-10-05T13:35:09Z</time>
      </trkpt>
      <trkpt lat="42.8741120" lon="-7.8558070">
        <ele>617.3</ele>
        <time>2021-10-05T13:35:10Z</time>
      </trkpt>
      <trkpt lat="42.8740770" lon="-7.8560180">
        <ele>616.2</ele>
        <time>2021-10-05T13:35:12Z</time>
      </trkpt>
      <trkpt lat="42.8740700" lon="-7.8561100">
        <ele>615.8</ele>
        <time>2021-10-05T13:35:13Z</time>
      </trkpt>
      <trkpt lat="42.8740570" lon="-7.8562990">
        <ele>615.0</ele>
        <time>2021-10-05T13:35:15Z</time>
      </trkpt>
      <trkpt lat="42.8739730" lon="-7.8568050">
        <ele>613.0</ele>
        <time>2021-10-05T13:35:20Z</time>
      </trkpt>
      <trkpt lat="42.8739570" lon="-7.8570070">
        <ele>612.1</ele>
        <time>2021-10-05T13:35:22Z</time>
      </trkpt>
      <trkpt lat="42.8739550" lon="-7.8576050">
        <ele>608.6</ele>
        <time>2021-10-05T13:35:28Z</time>
      </trkpt>
      <trkpt lat="42.8739320" lon="-7.8578140">
        <ele>607.3</ele>
        <time>2021-10-05T13:35:30Z</time>
      </trkpt>
      <trkpt lat="42.8738560" lon="-7.8581780">
        <ele>605.5</ele>
        <time>2021-10-05T13:35:34Z</time>
      </trkpt>
      <trkpt lat="42.8738170" lon="-7.8585260">
        <ele>604.6</ele>
        <time>2021-10-05T13:35:40Z</time>
      </trkpt>
      <trkpt lat="42.8738070" lon="-7.8588310">
        <ele>603.8</ele>
        <time>2021-10-05T13:35:46Z</time>
      </trkpt>
      <trkpt lat="42.8737870" lon="-7.8589220">
        <ele>603.6</ele>
        <time>2021-10-05T13:35:48Z</time>
      </trkpt>
      <trkpt lat="42.8737620" lon="-7.8590640">
        <ele>603.3</ele>
        <time>2021-10-05T13:35:52Z</time>
      </trkpt>
      <trkpt lat="42.8737560" lon="-7.8591510">
        <ele>603.2</ele>
        <time>2021-10-05T13:35:54Z</time>
      </trkpt>
      <trkpt lat="42.8737300" lon="-7.8594510">
        <ele>603.1</ele>
        <time>2021-10-05T13:36:01Z</time>
      </trkpt>
      <trkpt lat="42.8737280" lon="-7.8596130">
        <ele>602.8</ele>
        <time>2021-10-05T13:36:07Z</time>
      </trkpt>
      <trkpt lat="42.8737070" lon="-7.8598420">
        <ele>602.5</ele>
        <time>2021-10-05T13:36:14Z</time>
      </trkpt>
      <trkpt lat="42.8737010" lon="-7.8598700">
        <ele>602.4</ele>
        <time>2021-10-05T13:36:15Z</time>
      </trkpt>
      <trkpt lat="42.8736810" lon="-7.8600380">
        <ele>602.2</ele>
        <time>2021-10-05T13:36:20Z</time>
      </trkpt>
      <trkpt lat="42.8736740" lon="-7.8601530">
        <ele>602.0</ele>
        <time>2021-10-05T13:36:22Z</time>
      </trkpt>
      <trkpt lat="42.8736360" lon="-7.8606510">
        <ele>601.5</ele>
        <time>2021-10-05T13:36:30Z</time>
      </trkpt>
      <trkpt lat="42.8736330" lon="-7.8607840">
        <ele>601.4</ele>
        <time>2021-10-05T13:36:32Z</time>
      </trkpt>
      <trkpt lat="42.8736120" lon="-7.8612100">
        <ele>601.3</ele>
        <time>2021-10-05T13:36:39Z</time>
      </trkpt>
      <trkpt lat="42.8735990" lon="-7.8613260">
        <ele>601.3</ele>
        <time>2021-10-05T13:36:41Z</time>
      </trkpt>
      <trkpt lat="42.8735390" lon="-7.8616170">
        <ele>601.5</ele>
        <time>2021-10-05T13:36:47Z</time>
      </trkpt>
      <trkpt lat="42.8735260" lon="-7.8616740">
        <ele>601.5</ele>
        <time>2021-10-05T13:36:48Z</time>
      </trkpt>
      <trkpt lat="42.8734890" lon="-7.8618510">
        <ele>601.8</ele>
        <time>2021-10-05T13:36:51Z</time>
      </trkpt>
      <trkpt lat="42.8734560" lon="-7.8620260">
        <ele>602.0</ele>
        <time>2021-10-05T13:36:54Z</time>
      </trkpt>
      <trkpt lat="42.8734420" lon="-7.8621330">
        <ele>602.2</ele>
        <time>2021-10-05T13:36:56Z</time>
      </trkpt>
      <trkpt lat="42.8733990" lon="-7.8624600">
        <ele>602.7</ele>
        <time>2021-10-05T13:37:03Z</time>
      </trkpt>
      <trkpt lat="42.8734000" lon="-7.8626440">
        <ele>602.4</ele>
        <time>2021-10-05T13:37:06Z</time>
      </trkpt>
      <trkpt lat="42.8734330" lon="-7.8627420">
        <ele>602.0</ele>
        <time>2021-10-05T13:37:08Z</time>
      </trkpt>
      <trkpt lat="42.8734550" lon="-7.8627850">
        <ele>601.8</ele>
        <time>2021-10-05T13:37:09Z</time>
      </trkpt>
      <trkpt lat="42.8735080" lon="-7.8628820">
        <ele>601.1</ele>
        <time>2021-10-05T13:37:11Z</time>
      </trkpt>
      <trkpt lat="42.8736170" lon="-7.8630750">
        <ele>599.5</ele>
        <time>2021-10-05T13:37:15Z</time>
      </trkpt>
      <trkpt lat="42.8736780" lon="-7.8632870">
        <ele>597.8</ele>
        <time>2021-10-05T13:37:18Z</time>
      </trkpt>
      <trkpt lat="42.8735420" lon="-7.8639140">
        <ele>592.8</ele>
        <time>2021-10-05T13:37:24Z</time>
      </trkpt>
      <trkpt lat="42.8734380" lon="-7.8641040">
        <ele>591.1</ele>
        <time>2021-10-05T13:37:26Z</time>
      </trkpt>
      <trkpt lat="42.8732050" lon="-7.8645730">
        <ele>587.7</ele>
        <time>2021-10-05T13:37:30Z</time>
      </trkpt>
      <trkpt lat="42.8730550" lon="-7.8651730">
        <ele>583.7</ele>
        <time>2021-10-05T13:37:34Z</time>
      </trkpt>
      <trkpt lat="42.8729530" lon="-7.8659410">
        <ele>577.8</ele>
        <time>2021-10-05T13:37:40Z</time>
      </trkpt>
      <trkpt lat="42.8729340" lon="-7.8661100">
        <ele>576.4</ele>
        <time>2021-10-05T13:37:42Z</time>
      </trkpt>
      <trkpt lat="42.8729840" lon="-7.8665190">
        <ele>573.0</ele>
        <time>2021-10-05T13:37:47Z</time>
      </trkpt>
      <trkpt lat="42.8729890" lon="-7.8666710">
        <ele>572.8</ele>
        <time>2021-10-05T13:37:49Z</time>
      </trkpt>
      <trkpt lat="42.8729700" lon="-7.8668720">
        <ele>572.4</ele>
        <time>2021-10-05T13:37:52Z</time>
      </trkpt>
      <trkpt lat="42.8729490" lon="-7.8669850">
        <ele>572.0</ele>
        <time>2021-10-05T13:37:54Z</time>
      </trkpt>
      <trkpt lat="42.8729020" lon="-7.8671450">
        <ele>571.7</ele>
        <time>2021-10-05T13:37:57Z</time>
      </trkpt>
      <trkpt lat="42.8728830" lon="-7.8673090">
        <ele>571.6</ele>
        <time>2021-10-05T13:38:00Z</time>
      </trkpt>
      <trkpt lat="42.8728940" lon="-7.8673990">
        <ele>571.5</ele>
        <time>2021-10-05T13:38:02Z</time>
      </trkpt>
      <trkpt lat="42.8728930" lon="-7.8674370">
        <ele>571.4</ele>
        <time>2021-10-05T13:38:03Z</time>
      </trkpt>
      <trkpt lat="42.8727890" lon="-7.8675850">
        <ele>571.2</ele>
        <time>2021-10-05T13:38:08Z</time>
      </trkpt>
      <trkpt lat="42.8726990" lon="-7.8677520">
        <ele>570.6</ele>
        <time>2021-10-05T13:38:12Z</time>
      </trkpt>
      <trkpt lat="42.8726750" lon="-7.8678510">
        <ele>570.4</ele>
        <time>2021-10-05T13:38:14Z</time>
      </trkpt>
      <trkpt lat="42.8726210" lon="-7.8679650">
        <ele>570.0</ele>
        <time>2021-10-05T13:38:17Z</time>
      </trkpt>
      <trkpt lat="42.8728150" lon="-7.8675930">
        <ele>571.2</ele>
        <time>2021-10-05T13:38:55Z</time>
      </trkpt>
      <trkpt lat="42.8729860" lon="-7.8678080">
        <ele>569.8</ele>
        <time>2021-10-05T13:39:02Z</time>
      </trkpt>
      <trkpt lat="42.8730190" lon="-7.8678370">
        <ele>569.5</ele>
        <time>2021-10-05T13:39:03Z</time>
      </trkpt>
      <trkpt lat="42.8731480" lon="-7.8679490">
        <ele>568.2</ele>
        <time>2021-10-05T13:39:07Z</time>
      </trkpt>
      <trkpt lat="42.8731810" lon="-7.8679780">
        <ele>567.9</ele>
        <time>2021-10-05T13:39:08Z</time>
      </trkpt>
      <trkpt lat="42.8732590" lon="-7.8680420">
        <ele>567.0</ele>
        <time>2021-10-05T13:39:10Z</time>
      </trkpt>
      <trkpt lat="42.8733760" lon="-7.8681510">
        <ele>565.7</ele>
        <time>2021-10-05T13:39:13Z</time>
      </trkpt>
      <trkpt lat="42.8734400" lon="-7.8682130">
        <ele>564.9</ele>
        <time>2021-10-05T13:39:15Z</time>
      </trkpt>
      <trkpt lat="42.8734860" lon="-7.8682580">
        <ele>564.4</ele>
        <time>2021-10-05T13:39:17Z</time>
      </trkpt>
      <trkpt lat="42.8735120" lon="-7.8683190">
        <ele>563.9</ele>
        <time>2021-10-05T13:39:20Z</time>
      </trkpt>
      <trkpt lat="42.8735100" lon="-7.8683410">
        <ele>563.8</ele>
        <time>2021-10-05T13:39:21Z</time>
      </trkpt>
      <trkpt lat="42.8734110" lon="-7.8683850">
        <ele>562.5</ele>
        <time>2021-10-05T13:39:25Z</time>
      </trkpt>
      <trkpt lat="42.8733270" lon="-7.8683840">
        <ele>562.1</ele>
        <time>2021-10-05T13:39:27Z</time>
      </trkpt>
      <trkpt lat="42.8731800" lon="-7.8683810">
        <ele>561.2</ele>
        <time>2021-10-05T13:39:30Z</time>
      </trkpt>
      <trkpt lat="42.8731100" lon="-7.8683980">
        <ele>560.8</ele>
        <time>2021-10-05T13:39:32Z</time>
      </trkpt>
      <trkpt lat="42.8730780" lon="-7.8684160">
        <ele>560.3</ele>
        <time>2021-10-05T13:39:34Z</time>
      </trkpt>
      <trkpt lat="42.8730650" lon="-7.8684540">
        <ele>560.2</ele>
        <time>2021-10-05T13:39:37Z</time>
      </trkpt>
      <trkpt lat="42.8730800" lon="-7.8685070">
        <ele>560.0</ele>
        <time>2021-10-05T13:39:41Z</time>
      </trkpt>
      <trkpt lat="42.8730840" lon="-7.8685240">
        <ele>559.8</ele>
        <time>2021-10-05T13:39:42Z</time>
      </trkpt>
      <trkpt lat="42.8730950" lon="-7.8685430">
        <ele>559.7</ele>
        <time>2021-10-05T13:39:43Z</time>
      </trkpt>
      <trkpt lat="42.8731970" lon="-7.8686860">
        <ele>558.1</ele>
        <time>2021-10-05T13:39:47Z</time>
      </trkpt>
      <trkpt lat="42.8733240" lon="-7.8688380">
        <ele>556.5</ele>
        <time>2021-10-05T13:39:52Z</time>
      </trkpt>
      <trkpt lat="42.8733380" lon="-7.8688630">
        <ele>556.3</ele>
        <time>2021-10-05T13:39:53Z</time>
      </trkpt>
      <trkpt lat="42.8733060" lon="-7.8690200">
        <ele>555.2</ele>
        <time>2021-10-05T13:39:59Z</time>
      </trkpt>
      <trkpt lat="42.8732960" lon="-7.8690430">
        <ele>555.0</ele>
        <time>2021-10-05T13:40:01Z</time>
      </trkpt>
      <trkpt lat="42.8732910" lon="-7.8690940">
        <ele>554.9</ele>
        <time>2021-10-05T13:40:03Z</time>
      </trkpt>
      <trkpt lat="42.8733100" lon="-7.8691890">
        <ele>554.6</ele>
        <time>2021-10-05T13:40:06Z</time>
      </trkpt>
      <trkpt lat="42.8733150" lon="-7.8692290">
        <ele>554.5</ele>
        <time>2021-10-05T13:40:07Z</time>
      </trkpt>
      <trkpt lat="42.8732980" lon="-7.8694090">
        <ele>553.4</ele>
        <time>2021-10-05T13:40:10Z</time>
      </trkpt>
      <trkpt lat="42.8732930" lon="-7.8694760">
        <ele>553.0</ele>
        <time>2021-10-05T13:40:11Z</time>
      </trkpt>
      <trkpt lat="42.8732820" lon="-7.8696570">
        <ele>551.6</ele>
        <time>2021-10-05T13:40:14Z</time>
      </trkpt>
      <trkpt lat="42.8733010" lon="-7.8697730">
        <ele>550.6</ele>
        <time>2021-10-05T13:40:16Z</time>
      </trkpt>
      <trkpt lat="42.8733730" lon="-7.8700330">
        <ele>548.8</ele>
        <time>2021-10-05T13:40:21Z</time>
      </trkpt>
      <trkpt lat="42.8734180" lon="-7.8702100">
        <ele>547.4</ele>
        <time>2021-10-05T13:40:25Z</time>
      </trkpt>
      <trkpt lat="42.8735000" lon="-7.8703380">
        <ele>545.8</ele>
        <time>2021-10-05T13:40:29Z</time>
      </trkpt>
      <trkpt lat="42.8735040" lon="-7.8704000">
        <ele>545.5</ele>
        <time>2021-10-05T13:40:30Z</time>
      </trkpt>
      <trkpt lat="42.8735080" lon="-7.8704460">
        <ele>545.5</ele>
        <time>2021-10-05T13:40:31Z</time>
      </trkpt>
      <trkpt lat="42.8734860" lon="-7.8706480">
        <ele>544.6</ele>
        <time>2021-10-05T13:40:36Z</time>
      </trkpt>
      <trkpt lat="42.8734720" lon="-7.8707890">
        <ele>543.2</ele>
        <time>2021-10-05T13:40:38Z</time>
      </trkpt>
      <trkpt lat="42.8734170" lon="-7.8710560">
        <ele>540.8</ele>
        <time>2021-10-05T13:40:41Z</time>
      </trkpt>
      <trkpt lat="42.8733820" lon="-7.8713620">
        <ele>538.9</ele>
        <time>2021-10-05T13:40:44Z</time>
      </trkpt>
      <trkpt lat="42.8733410" lon="-7.8717420">
        <ele>537.6</ele>
        <time>2021-10-05T13:40:48Z</time>
      </trkpt>
      <trkpt lat="42.8733290" lon="-7.8721610">
        <ele>536.5</ele>
        <time>2021-10-05T13:40:54Z</time>
      </trkpt>
      <trkpt lat="42.8733570" lon="-7.8723470">
        <ele>535.9</ele>
        <time>2021-10-05T13:40:57Z</time>
      </trkpt>
      <trkpt lat="42.8733670" lon="-7.8724120">
        <ele>535.8</ele>
        <time>2021-10-05T13:40:58Z</time>
      </trkpt>
      <trkpt lat="42.8733990" lon="-7.8725330">
        <ele>535.4</ele>
        <time>2021-10-05T13:41:00Z</time>
      </trkpt>
      <trkpt lat="42.8734790" lon="-7.8726550">
        <ele>535.3</ele>
        <time>2021-10-05T13:41:03Z</time>
      </trkpt>
      <trkpt lat="42.8735510" lon="-7.8726950">
        <ele>535.4</ele>
        <time>2021-10-05T13:41:05Z</time>
      </trkpt>
      <trkpt lat="42.8736180" lon="-7.8727190">
        <ele>535.6</ele>
        <time>2021-10-05T13:41:07Z</time>
      </trkpt>
      <trkpt lat="42.8736770" lon="-7.8727400">
        <ele>535.7</ele>
        <time>2021-10-05T13:41:09Z</time>
      </trkpt>
      <trkpt lat="42.8737310" lon="-7.8727670">
        <ele>535.8</ele>
        <time>2021-10-05T13:41:11Z</time>
      </trkpt>
      <trkpt lat="42.8737830" lon="-7.8727940">
        <ele>535.9</ele>
        <time>2021-10-05T13:41:13Z</time>
      </trkpt>
      <trkpt lat="42.8738880" lon="-7.8728610">
        <ele>535.9</ele>
        <time>2021-10-05T13:41:17Z</time>
      </trkpt>
      <trkpt lat="42.8740030" lon="-7.8729230">
        <ele>535.9</ele>
        <time>2021-10-05T13:41:21Z</time>
      </trkpt>
      <trkpt lat="42.8740980" lon="-7.8729740">
        <ele>535.9</ele>
        <time>2021-10-05T13:41:25Z</time>
      </trkpt>
      <trkpt lat="42.8741170" lon="-7.8729870">
        <ele>535.9</ele>
        <time>2021-10-05T13:41:26Z</time>
      </trkpt>
      <trkpt lat="42.8742060" lon="-7.8731000">
        <ele>536.0</ele>
        <time>2021-10-05T13:41:32Z</time>
      </trkpt>
      <trkpt lat="42.8742170" lon="-7.8731940">
        <ele>535.8</ele>
        <time>2021-10-05T13:41:35Z</time>
      </trkpt>
      <trkpt lat="42.8742120" lon="-7.8732320">
        <ele>535.8</ele>
        <time>2021-10-05T13:41:36Z</time>
      </trkpt>
      <trkpt lat="42.8742050" lon="-7.8732740">
        <ele>535.7</ele>
        <time>2021-10-05T13:41:37Z</time>
      </trkpt>
      <trkpt lat="42.8742010" lon="-7.8734690">
        <ele>535.3</ele>
        <time>2021-10-05T13:41:41Z</time>
      </trkpt>
      <trkpt lat="42.8742080" lon="-7.8736200">
        <ele>535.1</ele>
        <time>2021-10-05T13:41:44Z</time>
      </trkpt>
      <trkpt lat="42.8742210" lon="-7.8737240">
        <ele>534.9</ele>
        <time>2021-10-05T13:41:46Z</time>
      </trkpt>
      <trkpt lat="42.8742470" lon="-7.8739330">
        <ele>534.6</ele>
        <time>2021-10-05T13:41:50Z</time>
      </trkpt>
      <trkpt lat="42.8742660" lon="-7.8741410">
        <ele>534.3</ele>
        <time>2021-10-05T13:41:54Z</time>
      </trkpt>
      <trkpt lat="42.8742760" lon="-7.8741920">
        <ele>534.3</ele>
        <time>2021-10-05T13:41:55Z</time>
      </trkpt>
      <trkpt lat="42.8742990" lon="-7.8743550">
        <ele>534.1</ele>
        <time>2021-10-05T13:41:58Z</time>
      </trkpt>
      <trkpt lat="42.8743070" lon="-7.8745260">
        <ele>533.8</ele>
        <time>2021-10-05T13:42:01Z</time>
      </trkpt>
      <trkpt lat="42.8742980" lon="-7.8745810">
        <ele>533.6</ele>
        <time>2021-10-05T13:42:02Z</time>
      </trkpt>
      <trkpt lat="42.8742810" lon="-7.8746370">
        <ele>533.4</ele>
        <time>2021-10-05T13:42:03Z</time>
      </trkpt>
      <trkpt lat="42.8742400" lon="-7.8747490">
        <ele>532.8</ele>
        <time>2021-10-05T13:42:05Z</time>
      </trkpt>
      <trkpt lat="42.8742150" lon="-7.8748110">
        <ele>532.5</ele>
        <time>2021-10-05T13:42:06Z</time>
      </trkpt>
      <trkpt lat="42.8741160" lon="-7.8749940">
        <ele>531.3</ele>
        <time>2021-10-05T13:42:09Z</time>
      </trkpt>
      <trkpt lat="42.8740750" lon="-7.8750420">
        <ele>530.9</ele>
        <time>2021-10-05T13:42:10Z</time>
      </trkpt>
      <trkpt lat="42.8739890" lon="-7.8751280">
        <ele>530.2</ele>
        <time>2021-10-05T13:42:12Z</time>
      </trkpt>
      <trkpt lat="42.8739490" lon="-7.8751720">
        <ele>529.9</ele>
        <time>2021-10-05T13:42:13Z</time>
      </trkpt>
      <trkpt lat="42.8739110" lon="-7.8752210">
        <ele>529.6</ele>
        <time>2021-10-05T13:42:14Z</time>
      </trkpt>
      <trkpt lat="42.8738740" lon="-7.8752740">
        <ele>529.3</ele>
        <time>2021-10-05T13:42:15Z</time>
      </trkpt>
      <trkpt lat="42.8737640" lon="-7.8755030">
        <ele>528.3</ele>
        <time>2021-10-05T13:42:19Z</time>
      </trkpt>
      <trkpt lat="42.8737130" lon="-7.8756580">
        <ele>527.8</ele>
        <time>2021-10-05T13:42:22Z</time>
      </trkpt>
      <trkpt lat="42.8735700" lon="-7.8757120">
        <ele>527.1</ele>
        <time>2021-10-05T13:42:26Z</time>
      </trkpt>
      <trkpt lat="42.8734470" lon="-7.8757140">
        <ele>526.5</ele>
        <time>2021-10-05T13:42:30Z</time>
      </trkpt>
      <trkpt lat="42.8734020" lon="-7.8757580">
        <ele>526.1</ele>
        <time>2021-10-05T13:42:32Z</time>
      </trkpt>
      <trkpt lat="42.8733650" lon="-7.8758960">
        <ele>525.7</ele>
        <time>2021-10-05T13:42:35Z</time>
      </trkpt>
      <trkpt lat="42.8733540" lon="-7.8759520">
        <ele>525.5</ele>
        <time>2021-10-05T13:42:36Z</time>
      </trkpt>
      <trkpt lat="42.8733190" lon="-7.8761400">
        <ele>525.0</ele>
        <time>2021-10-05T13:42:39Z</time>
      </trkpt>
      <trkpt lat="42.8732640" lon="-7.8764290">
        <ele>524.2</ele>
        <time>2021-10-05T13:42:43Z</time>
      </trkpt>
      <trkpt lat="42.8731690" lon="-7.8769080">
        <ele>523.0</ele>
        <time>2021-10-05T13:42:49Z</time>
      </trkpt>
      <trkpt lat="42.8731380" lon="-7.8770760">
        <ele>522.6</ele>
        <time>2021-10-05T13:42:51Z</time>
      </trkpt>
      <trkpt lat="42.8731100" lon="-7.8772510">
        <ele>522.2</ele>
        <time>2021-10-05T13:42:53Z</time>
      </trkpt>
      <trkpt lat="42.8730780" lon="-7.8774310">
        <ele>521.8</ele>
        <time>2021-10-05T13:42:55Z</time>
      </trkpt>
      <trkpt lat="42.8729890" lon="-7.8778800">
        <ele>520.7</ele>
        <time>2021-10-05T13:43:00Z</time>
      </trkpt>
      <trkpt lat="42.8729360" lon="-7.8781520">
        <ele>520.4</ele>
        <time>2021-10-05T13:43:03Z</time>
      </trkpt>
      <trkpt lat="42.8729010" lon="-7.8783390">
        <ele>519.7</ele>
        <time>2021-10-05T13:43:05Z</time>
      </trkpt>
      <trkpt lat="42.8728660" lon="-7.8785340">
        <ele>518.9</ele>
        <time>2021-10-05T13:43:07Z</time>
      </trkpt>
      <trkpt lat="42.8727260" lon="-7.8792490">
        <ele>515.8</ele>
        <time>2021-10-05T13:43:14Z</time>
      </trkpt>
      <trkpt lat="42.8726510" lon="-7.8800610">
        <ele>512.0</ele>
        <time>2021-10-05T13:43:21Z</time>
      </trkpt>
      <trkpt lat="42.8726060" lon="-7.8808500">
        <ele>508.9</ele>
        <time>2021-10-05T13:43:27Z</time>
      </trkpt>
      <trkpt lat="42.8725840" lon="-7.8811000">
        <ele>508.1</ele>
        <time>2021-10-05T13:43:29Z</time>
      </trkpt>
      <trkpt lat="42.8726510" lon="-7.8815640">
        <ele>506.6</ele>
        <time>2021-10-05T13:43:33Z</time>
      </trkpt>
      <trkpt lat="42.8726960" lon="-7.8817910">
        <ele>506.2</ele>
        <time>2021-10-05T13:43:35Z</time>
      </trkpt>
      <trkpt lat="42.8726610" lon="-7.8821090">
        <ele>505.9</ele>
        <time>2021-10-05T13:43:38Z</time>
      </trkpt>
      <trkpt lat="42.8724480" lon="-7.8823530">
        <ele>505.8</ele>
        <time>2021-10-05T13:43:42Z</time>
      </trkpt>
      <trkpt lat="42.8723270" lon="-7.8824330">
        <ele>505.9</ele>
        <time>2021-10-05T13:43:44Z</time>
      </trkpt>
      <trkpt lat="42.8721630" lon="-7.8825290">
        <ele>506.0</ele>
        <time>2021-10-05T13:43:47Z</time>
      </trkpt>
      <trkpt lat="42.8720170" lon="-7.8826770">
        <ele>506.5</ele>
        <time>2021-10-05T13:43:51Z</time>
      </trkpt>
      <trkpt lat="42.8719500" lon="-7.8827460">
        <ele>506.8</ele>
        <time>2021-10-05T13:43:53Z</time>
      </trkpt>
      <trkpt lat="42.8719190" lon="-7.8827850">
        <ele>506.9</ele>
        <time>2021-10-05T13:43:54Z</time>
      </trkpt>
      <trkpt lat="42.8718650" lon="-7.8828730">
        <ele>507.1</ele>
        <time>2021-10-05T13:43:56Z</time>
      </trkpt>
      <trkpt lat="42.8718080" lon="-7.8829510">
        <ele>507.4</ele>
        <time>2021-10-05T13:43:58Z</time>
      </trkpt>
      <trkpt lat="42.8717200" lon="-7.8831170">
        <ele>508.0</ele>
        <time>2021-10-05T13:44:02Z</time>
      </trkpt>
      <trkpt lat="42.8717030" lon="-7.8832300">
        <ele>508.8</ele>
        <time>2021-10-05T13:44:05Z</time>
      </trkpt>
      <trkpt lat="42.8717010" lon="-7.8832900">
        <ele>509.2</ele>
        <time>2021-10-05T13:44:07Z</time>
      </trkpt>
      <trkpt lat="42.8716950" lon="-7.8833440">
        <ele>509.7</ele>
        <time>2021-10-05T13:44:09Z</time>
      </trkpt>
      <trkpt lat="42.8716930" lon="-7.8834080">
        <ele>510.2</ele>
        <time>2021-10-05T13:44:11Z</time>
      </trkpt>
      <trkpt lat="42.8716890" lon="-7.8834950">
        <ele>511.0</ele>
        <time>2021-10-05T13:44:14Z</time>
      </trkpt>
      <trkpt lat="42.8716760" lon="-7.8835910">
        <ele>511.9</ele>
        <time>2021-10-05T13:44:17Z</time>
      </trkpt>
      <trkpt lat="42.8716630" lon="-7.8836840">
        <ele>512.6</ele>
        <time>2021-10-05T13:44:20Z</time>
      </trkpt>
      <trkpt lat="42.8716440" lon="-7.8838340">
        <ele>513.8</ele>
        <time>2021-10-05T13:44:25Z</time>
      </trkpt>
      <trkpt lat="42.8716250" lon="-7.8840040">
        <ele>515.2</ele>
        <time>2021-10-05T13:44:31Z</time>
      </trkpt>
      <trkpt lat="42.8716140" lon="-7.8841180">
        <ele>516.3</ele>
        <time>2021-10-05T13:44:36Z</time>
      </trkpt>
      <trkpt lat="42.8715810" lon="-7.8843560">
        <ele>518.7</ele>
        <time>2021-10-05T13:44:47Z</time>
      </trkpt>
      <trkpt lat="42.8715060" lon="-7.8845410">
        <ele>520.9</ele>
        <time>2021-10-05T13:44:53Z</time>
      </trkpt>
      <trkpt lat="42.8713490" lon="-7.8849840">
        <ele>525.5</ele>
        <time>2021-10-05T13:45:12Z</time>
      </trkpt>
      <trkpt lat="42.8713590" lon="-7.8850370">
        <ele>526.2</ele>
        <time>2021-10-05T13:45:15Z</time>
      </trkpt>
      <trkpt lat="42.8713770" lon="-7.8851170">
        <ele>527.1</ele>
        <time>2021-10-05T13:45:19Z</time>
      </trkpt>
      <trkpt lat="42.8714030" lon="-7.8858840">
        <ele>532.2</ele>
        <time>2021-10-05T13:45:44Z</time>
      </trkpt>
      <trkpt lat="42.8714020" lon="-7.8859900">
        <ele>532.7</ele>
        <time>2021-10-05T13:45:47Z</time>
      </trkpt>
      <trkpt lat="42.8713940" lon="-7.8861470">
        <ele>533.3</ele>
        <time>2021-10-05T13:45:52Z</time>
      </trkpt>
      <trkpt lat="42.8713800" lon="-7.8863340">
        <ele>533.9</ele>
        <time>2021-10-05T13:45:58Z</time>
      </trkpt>
      <trkpt lat="42.8713800" lon="-7.8863710">
        <ele>533.9</ele>
        <time>2021-10-05T13:46:01Z</time>
      </trkpt>
      <trkpt lat="42.8714070" lon="-7.8864260">
        <ele>533.8</ele>
        <time>2021-10-05T13:51:05Z</time>
      </trkpt>
      <trkpt lat="42.8714140" lon="-7.8864440">
        <ele>533.8</ele>
        <time>2021-10-05T13:51:06Z</time>
      </trkpt>
      <trkpt lat="42.8714210" lon="-7.8864650">
        <ele>533.8</ele>
        <time>2021-10-05T13:51:07Z</time>
      </trkpt>
      <trkpt lat="42.8715590" lon="-7.8869770">
        <ele>532.8</ele>
        <time>2021-10-05T13:51:21Z</time>
      </trkpt>
      <trkpt lat="42.8715690" lon="-7.8870590">
        <ele>532.8</ele>
        <time>2021-10-05T13:51:23Z</time>
      </trkpt>
      <trkpt lat="42.8715740" lon="-7.8871450">
        <ele>532.8</ele>
        <time>2021-10-05T13:51:25Z</time>
      </trkpt>
      <trkpt lat="42.8715780" lon="-7.8872170">
        <ele>532.8</ele>
        <time>2021-10-05T13:51:27Z</time>
      </trkpt>
      <trkpt lat="42.8716380" lon="-7.8874800">
        <ele>533.0</ele>
        <time>2021-10-05T13:51:37Z</time>
      </trkpt>
      <trkpt lat="42.8716750" lon="-7.8876640">
        <ele>533.2</ele>
        <time>2021-10-05T13:51:43Z</time>
      </trkpt>
      <trkpt lat="42.8717090" lon="-7.8878200">
        <ele>533.4</ele>
        <time>2021-10-05T13:51:48Z</time>
      </trkpt>
      <trkpt lat="42.8717230" lon="-7.8879110">
        <ele>533.5</ele>
        <time>2021-10-05T13:51:51Z</time>
      </trkpt>
      <trkpt lat="42.8717380" lon="-7.8879950">
        <ele>533.7</ele>
        <time>2021-10-05T13:51:54Z</time>
      </trkpt>
      <trkpt lat="42.8717470" lon="-7.8880200">
        <ele>533.8</ele>
        <time>2021-10-05T13:51:55Z</time>
      </trkpt>
      <trkpt lat="42.8717530" lon="-7.8882720">
        <ele>534.5</ele>
        <time>2021-10-05T13:52:00Z</time>
      </trkpt>
      <trkpt lat="42.8717180" lon="-7.8885860">
        <ele>535.7</ele>
        <time>2021-10-05T13:52:06Z</time>
      </trkpt>
      <trkpt lat="42.8717200" lon="-7.8887300">
        <ele>536.3</ele>
        <time>2021-10-05T13:52:10Z</time>
      </trkpt>
      <trkpt lat="42.8717410" lon="-7.8888380">
        <ele>536.8</ele>
        <time>2021-10-05T13:52:13Z</time>
      </trkpt>
      <trkpt lat="42.8717500" lon="-7.8888720">
        <ele>537.0</ele>
        <time>2021-10-05T13:52:14Z</time>
      </trkpt>
      <trkpt lat="42.8717430" lon="-7.8889870">
        <ele>537.7</ele>
        <time>2021-10-05T13:52:16Z</time>
      </trkpt>
      <trkpt lat="42.8717550" lon="-7.8891700">
        <ele>538.8</ele>
        <time>2021-10-05T13:52:20Z</time>
      </trkpt>
      <trkpt lat="42.8717490" lon="-7.8892280">
        <ele>539.2</ele>
        <time>2021-10-05T13:52:21Z</time>
      </trkpt>
      <trkpt lat="42.8717430" lon="-7.8893540">
        <ele>540.0</ele>
        <time>2021-10-05T13:52:24Z</time>
      </trkpt>
      <trkpt lat="42.8717550" lon="-7.8894610">
        <ele>540.6</ele>
        <time>2021-10-05T13:52:27Z</time>
      </trkpt>
      <trkpt lat="42.8717760" lon="-7.8895730">
        <ele>541.1</ele>
        <time>2021-10-05T13:52:30Z</time>
      </trkpt>
      <trkpt lat="42.8718280" lon="-7.8897280">
        <ele>541.4</ele>
        <time>2021-10-05T13:52:35Z</time>
      </trkpt>
      <trkpt lat="42.8718550" lon="-7.8897800">
        <ele>541.5</ele>
        <time>2021-10-05T13:52:37Z</time>
      </trkpt>
      <trkpt lat="42.8719020" lon="-7.8899060">
        <ele>541.5</ele>
        <time>2021-10-05T13:52:41Z</time>
      </trkpt>
      <trkpt lat="42.8719160" lon="-7.8900080">
        <ele>541.4</ele>
        <time>2021-10-05T13:52:44Z</time>
      </trkpt>
      <trkpt lat="42.8718840" lon="-7.8900930">
        <ele>541.3</ele>
        <time>2021-10-05T13:52:47Z</time>
      </trkpt>
      <trkpt lat="42.8718130" lon="-7.8901340">
        <ele>540.9</ele>
        <time>2021-10-05T13:52:50Z</time>
      </trkpt>
      <trkpt lat="42.8717360" lon="-7.8901380">
        <ele>540.5</ele>
        <time>2021-10-05T13:52:53Z</time>
      </trkpt>
      <trkpt lat="42.8716930" lon="-7.8901120">
        <ele>540.1</ele>
        <time>2021-10-05T13:52:55Z</time>
      </trkpt>
      <trkpt lat="42.8716460" lon="-7.8900770">
        <ele>539.7</ele>
        <time>2021-10-05T13:52:57Z</time>
      </trkpt>
      <trkpt lat="42.8715880" lon="-7.8900380">
        <ele>539.1</ele>
        <time>2021-10-05T13:52:59Z</time>
      </trkpt>
      <trkpt lat="42.8715080" lon="-7.8899900">
        <ele>538.4</ele>
        <time>2021-10-05T13:53:01Z</time>
      </trkpt>
      <trkpt lat="42.8714750" lon="-7.8899800">
        <ele>538.1</ele>
        <time>2021-10-05T13:53:02Z</time>
      </trkpt>
      <trkpt lat="42.8714090" lon="-7.8899600">
        <ele>537.6</ele>
        <time>2021-10-05T13:53:04Z</time>
      </trkpt>
      <trkpt lat="42.8712460" lon="-7.8898330">
        <ele>536.0</ele>
        <time>2021-10-05T13:53:08Z</time>
      </trkpt>
      <trkpt lat="42.8710910" lon="-7.8897360">
        <ele>534.7</ele>
        <time>2021-10-05T13:53:11Z</time>
      </trkpt>
      <trkpt lat="42.8708130" lon="-7.8896650">
        <ele>532.7</ele>
        <time>2021-10-05T13:53:15Z</time>
      </trkpt>
      <trkpt lat="42.8707390" lon="-7.8896390">
        <ele>532.2</ele>
        <time>2021-10-05T13:53:16Z</time>
      </trkpt>
      <trkpt lat="42.8704690" lon="-7.8895430">
        <ele>531.2</ele>
        <time>2021-10-05T13:53:20Z</time>
      </trkpt>
      <trkpt lat="42.8703860" lon="-7.8895300">
        <ele>531.1</ele>
        <time>2021-10-05T13:53:22Z</time>
      </trkpt>
      <trkpt lat="42.8703210" lon="-7.8895010">
        <ele>531.0</ele>
        <time>2021-10-05T13:53:25Z</time>
      </trkpt>
      <trkpt lat="42.8702560" lon="-7.8894630">
        <ele>531.1</ele>
        <time>2021-10-05T13:53:29Z</time>
      </trkpt>
      <trkpt lat="42.8702390" lon="-7.8894580">
        <ele>531.1</ele>
        <time>2021-10-05T13:53:30Z</time>
      </trkpt>
      <trkpt lat="42.8702200" lon="-7.8895560">
        <ele>531.0</ele>
        <time>2021-10-05T13:53:35Z</time>
      </trkpt>
      <trkpt lat="42.8702220" lon="-7.8896720">
        <ele>530.9</ele>
        <time>2021-10-05T13:53:39Z</time>
      </trkpt>
      <trkpt lat="42.8702250" lon="-7.8900030">
        <ele>530.9</ele>
        <time>2021-10-05T13:53:48Z</time>
      </trkpt>
      <trkpt lat="42.8702220" lon="-7.8900880">
        <ele>531.0</ele>
        <time>2021-10-05T13:53:50Z</time>
      </trkpt>
      <trkpt lat="42.8702050" lon="-7.8903930">
        <ele>531.1</ele>
        <time>2021-10-05T13:53:56Z</time>
      </trkpt>
      <trkpt lat="42.8702230" lon="-7.8906130">
        <ele>531.2</ele>
        <time>2021-10-05T13:54:00Z</time>
      </trkpt>
      <trkpt lat="42.8702500" lon="-7.8909490">
        <ele>531.3</ele>
        <time>2021-10-05T13:54:06Z</time>
      </trkpt>
      <trkpt lat="42.8702580" lon="-7.8910040">
        <ele>531.3</ele>
        <time>2021-10-05T13:54:07Z</time>
      </trkpt>
      <trkpt lat="42.8702820" lon="-7.8911240">
        <ele>531.3</ele>
        <time>2021-10-05T13:54:09Z</time>
      </trkpt>
      <trkpt lat="42.8703650" lon="-7.8914240">
        <ele>531.3</ele>
        <time>2021-10-05T13:54:14Z</time>
      </trkpt>
      <trkpt lat="42.8704060" lon="-7.8915760">
        <ele>531.3</ele>
        <time>2021-10-05T13:54:17Z</time>
      </trkpt>
      <trkpt lat="42.8704120" lon="-7.8916990">
        <ele>530.9</ele>
        <time>2021-10-05T13:54:20Z</time>
      </trkpt>
      <trkpt lat="42.8704130" lon="-7.8917810">
        <ele>530.4</ele>
        <time>2021-10-05T13:54:22Z</time>
      </trkpt>
      <trkpt lat="42.8704210" lon="-7.8918200">
        <ele>530.0</ele>
        <time>2021-10-05T13:54:23Z</time>
      </trkpt>
      <trkpt lat="42.8704460" lon="-7.8919080">
        <ele>528.9</ele>
        <time>2021-10-05T13:54:25Z</time>
      </trkpt>
      <trkpt lat="42.8704580" lon="-7.8919550">
        <ele>528.3</ele>
        <time>2021-10-05T13:54:26Z</time>
      </trkpt>
      <trkpt lat="42.8705070" lon="-7.8921560">
        <ele>525.4</ele>
        <time>2021-10-05T13:54:30Z</time>
      </trkpt>
      <trkpt lat="42.8705260" lon="-7.8924150">
        <ele>521.8</ele>
        <time>2021-10-05T13:54:34Z</time>
      </trkpt>
      <trkpt lat="42.8705580" lon="-7.8926120">
        <ele>519.6</ele>
        <time>2021-10-05T13:54:37Z</time>
      </trkpt>
      <trkpt lat="42.8705710" lon="-7.8926640">
        <ele>519.1</ele>
        <time>2021-10-05T13:54:38Z</time>
      </trkpt>
      <trkpt lat="42.8706020" lon="-7.8928110">
        <ele>518.0</ele>
        <time>2021-10-05T13:54:41Z</time>
      </trkpt>
      <trkpt lat="42.8706620" lon="-7.8929350">
        <ele>517.1</ele>
        <time>2021-10-05T13:54:44Z</time>
      </trkpt>
      <trkpt lat="42.8707690" lon="-7.8930780">
        <ele>515.9</ele>
        <time>2021-10-05T13:54:48Z</time>
      </trkpt>
      <trkpt lat="42.8708860" lon="-7.8933760">
        <ele>513.2</ele>
        <time>2021-10-05T13:54:55Z</time>
      </trkpt>
      <trkpt lat="42.8708960" lon="-7.8935410">
        <ele>512.0</ele>
        <time>2021-10-05T13:54:57Z</time>
      </trkpt>
      <trkpt lat="42.8708850" lon="-7.8938770">
        <ele>510.6</ele>
        <time>2021-10-05T13:55:01Z</time>
      </trkpt>
      <trkpt lat="42.8709190" lon="-7.8941390">
        <ele>509.9</ele>
        <time>2021-10-05T13:55:05Z</time>
      </trkpt>
      <trkpt lat="42.8710040" lon="-7.8946600">
        <ele>508.9</ele>
        <time>2021-10-05T13:55:12Z</time>
      </trkpt>
      <trkpt lat="42.8710040" lon="-7.8947910">
        <ele>508.8</ele>
        <time>2021-10-05T13:55:14Z</time>
      </trkpt>
      <trkpt lat="42.8710670" lon="-7.8951840">
        <ele>508.6</ele>
        <time>2021-10-05T13:55:23Z</time>
      </trkpt>
      <trkpt lat="42.8710830" lon="-7.8952210">
        <ele>508.6</ele>
        <time>2021-10-05T13:55:24Z</time>
      </trkpt>
      <trkpt lat="42.8711400" lon="-7.8953330">
        <ele>508.7</ele>
        <time>2021-10-05T13:55:27Z</time>
      </trkpt>
      <trkpt lat="42.8711620" lon="-7.8954250">
        <ele>508.8</ele>
        <time>2021-10-05T13:55:29Z</time>
      </trkpt>
      <trkpt lat="42.8711790" lon="-7.8955310">
        <ele>508.9</ele>
        <time>2021-10-05T13:55:31Z</time>
      </trkpt>
      <trkpt lat="42.8712310" lon="-7.8956750">
        <ele>509.2</ele>
        <time>2021-10-05T13:55:34Z</time>
      </trkpt>
      <trkpt lat="42.8712570" lon="-7.8957680">
        <ele>509.3</ele>
        <time>2021-10-05T13:55:36Z</time>
      </trkpt>
      <trkpt lat="42.8712710" lon="-7.8958130">
        <ele>509.4</ele>
        <time>2021-10-05T13:55:37Z</time>
      </trkpt>
      <trkpt lat="42.8713350" lon="-7.8961510">
        <ele>510.2</ele>
        <time>2021-10-05T13:55:43Z</time>
      </trkpt>
      <trkpt lat="42.8714010" lon="-7.8963340">
        <ele>511.1</ele>
        <time>2021-10-05T13:55:48Z</time>
      </trkpt>
      <trkpt lat="42.8714020" lon="-7.8963850">
        <ele>511.3</ele>
        <time>2021-10-05T13:55:49Z</time>
      </trkpt>
      <trkpt lat="42.8713980" lon="-7.8965570">
        <ele>511.4</ele>
        <time>2021-10-05T13:55:52Z</time>
      </trkpt>
      <trkpt lat="42.8714530" lon="-7.8968580">
        <ele>510.4</ele>
        <time>2021-10-05T13:55:56Z</time>
      </trkpt>
      <trkpt lat="42.8714690" lon="-7.8969370">
        <ele>510.1</ele>
        <time>2021-10-05T13:55:57Z</time>
      </trkpt>
      <trkpt lat="42.8715130" lon="-7.8970830">
        <ele>509.5</ele>
        <time>2021-10-05T13:55:59Z</time>
      </trkpt>
      <trkpt lat="42.8716800" lon="-7.8976350">
        <ele>507.1</ele>
        <time>2021-10-05T13:56:06Z</time>
      </trkpt>
      <trkpt lat="42.8717910" lon="-7.8978210">
        <ele>506.3</ele>
        <time>2021-10-05T13:56:09Z</time>
      </trkpt>
      <trkpt lat="42.8719170" lon="-7.8980120">
        <ele>505.2</ele>
        <time>2021-10-05T13:56:12Z</time>
      </trkpt>
      <trkpt lat="42.8721320" lon="-7.8982460">
        <ele>504.2</ele>
        <time>2021-10-05T13:56:16Z</time>
      </trkpt>
      <trkpt lat="42.8722430" lon="-7.8983450">
        <ele>503.6</ele>
        <time>2021-10-05T13:56:18Z</time>
      </trkpt>
      <trkpt lat="42.8723980" lon="-7.8985500">
        <ele>502.1</ele>
        <time>2021-10-05T13:56:21Z</time>
      </trkpt>
      <trkpt lat="42.8725480" lon="-7.8987430">
        <ele>500.9</ele>
        <time>2021-10-05T13:56:24Z</time>
      </trkpt>
      <trkpt lat="42.8727370" lon="-7.8988940">
        <ele>498.8</ele>
        <time>2021-10-05T13:56:27Z</time>
      </trkpt>
      <trkpt lat="42.8728860" lon="-7.8990170">
        <ele>497.1</ele>
        <time>2021-10-05T13:56:29Z</time>
      </trkpt>
      <trkpt lat="42.8730400" lon="-7.8991610">
        <ele>495.7</ele>
        <time>2021-10-05T13:56:31Z</time>
      </trkpt>
      <trkpt lat="42.8734930" lon="-7.8997090">
        <ele>493.9</ele>
        <time>2021-10-05T13:56:38Z</time>
      </trkpt>
      <trkpt lat="42.8737590" lon="-7.9001540">
        <ele>493.5</ele>
        <time>2021-10-05T13:56:44Z</time>
      </trkpt>
      <trkpt lat="42.8738780" lon="-7.9005150">
        <ele>491.9</ele>
        <time>2021-10-05T13:56:50Z</time>
      </trkpt>
      <trkpt lat="42.8740170" lon="-7.9008660">
        <ele>489.1</ele>
        <time>2021-10-05T13:56:55Z</time>
      </trkpt>
      <trkpt lat="42.8741710" lon="-7.9011970">
        <ele>487.6</ele>
        <time>2021-10-05T13:57:00Z</time>
      </trkpt>
      <trkpt lat="42.8742510" lon="-7.9013280">
        <ele>486.1</ele>
        <time>2021-10-05T13:57:04Z</time>
      </trkpt>
      <trkpt lat="42.8744490" lon="-7.9015570">
        <ele>482.2</ele>
        <time>2021-10-05T13:57:11Z</time>
      </trkpt>
      <trkpt lat="42.8745840" lon="-7.9016870">
        <ele>480.2</ele>
        <time>2021-10-05T13:57:15Z</time>
      </trkpt>
      <trkpt lat="42.8746010" lon="-7.9017250">
        <ele>479.5</ele>
        <time>2021-10-05T13:57:16Z</time>
      </trkpt>
      <trkpt lat="42.8745860" lon="-7.9018790">
        <ele>478.0</ele>
        <time>2021-10-05T13:57:19Z</time>
      </trkpt>
      <trkpt lat="42.8745660" lon="-7.9019920">
        <ele>476.9</ele>
        <time>2021-10-05T13:57:21Z</time>
      </trkpt>
      <trkpt lat="42.8745790" lon="-7.9022420">
        <ele>475.1</ele>
        <time>2021-10-05T13:57:25Z</time>
      </trkpt>
      <trkpt lat="42.8745950" lon="-7.9022870">
        <ele>474.9</ele>
        <time>2021-10-05T13:57:26Z</time>
      </trkpt>
      <trkpt lat="42.8746100" lon="-7.9024490">
        <ele>474.1</ele>
        <time>2021-10-05T13:57:29Z</time>
      </trkpt>
      <trkpt lat="42.8745910" lon="-7.9026960">
        <ele>473.3</ele>
        <time>2021-10-05T13:57:35Z</time>
      </trkpt>
      <trkpt lat="42.8745730" lon="-7.9027780">
        <ele>473.0</ele>
        <time>2021-10-05T13:57:38Z</time>
      </trkpt>
      <trkpt lat="42.8745590" lon="-7.9028170">
        <ele>472.8</ele>
        <time>2021-10-05T13:57:40Z</time>
      </trkpt>
      <trkpt lat="42.8744870" lon="-7.9029500">
        <ele>472.4</ele>
        <time>2021-10-05T13:57:46Z</time>
      </trkpt>
      <trkpt lat="42.8744670" lon="-7.9029930">
        <ele>472.2</ele>
        <time>2021-10-05T13:57:48Z</time>
      </trkpt>
      <trkpt lat="42.8744570" lon="-7.9030530">
        <ele>472.1</ele>
        <time>2021-10-05T13:57:51Z</time>
      </trkpt>
      <trkpt lat="42.8744590" lon="-7.9030730">
        <ele>472.0</ele>
        <time>2021-10-05T13:57:52Z</time>
      </trkpt>
      <trkpt lat="42.8744660" lon="-7.9032240">
        <ele>471.6</ele>
        <time>2021-10-05T13:57:57Z</time>
      </trkpt>
      <trkpt lat="42.8745460" lon="-7.9034670">
        <ele>470.8</ele>
        <time>2021-10-05T13:58:04Z</time>
      </trkpt>
      <trkpt lat="42.8745690" lon="-7.9035870">
        <ele>470.3</ele>
        <time>2021-10-05T13:58:08Z</time>
      </trkpt>
      <trkpt lat="42.8745770" lon="-7.9036540">
        <ele>470.0</ele>
        <time>2021-10-05T13:58:11Z</time>
      </trkpt>
      <trkpt lat="42.8745760" lon="-7.9036770">
        <ele>469.9</ele>
        <time>2021-10-05T13:58:14Z</time>
      </trkpt>
      <trkpt lat="42.8745580" lon="-7.9037090">
        <ele>469.6</ele>
        <time>2021-10-05T13:59:10Z</time>
      </trkpt>
      <trkpt lat="42.8744700" lon="-7.9038830">
        <ele>467.9</ele>
        <time>2021-10-05T13:59:16Z</time>
      </trkpt>
      <trkpt lat="42.8744570" lon="-7.9039240">
        <ele>467.5</ele>
        <time>2021-10-05T13:59:18Z</time>
      </trkpt>
      <trkpt lat="42.8744510" lon="-7.9039370">
        <ele>467.4</ele>
        <time>2021-10-05T13:59:19Z</time>
      </trkpt>
      <trkpt lat="42.8744430" lon="-7.9039510">
        <ele>467.3</ele>
        <time>2021-10-05T13:59:20Z</time>
      </trkpt>
      <trkpt lat="42.8744350" lon="-7.9040220">
        <ele>466.7</ele>
        <time>2021-10-05T13:59:23Z</time>
      </trkpt>
      <trkpt lat="42.8744400" lon="-7.9041030">
        <ele>466.2</ele>
        <time>2021-10-05T13:59:25Z</time>
      </trkpt>
      <trkpt lat="42.8744580" lon="-7.9041930">
        <ele>465.5</ele>
        <time>2021-10-05T13:59:27Z</time>
      </trkpt>
      <trkpt lat="42.8745540" lon="-7.9043710">
        <ele>463.7</ele>
        <time>2021-10-05T13:59:32Z</time>
      </trkpt>
      <trkpt lat="42.8746150" lon="-7.9044060">
        <ele>462.9</ele>
        <time>2021-10-05T13:59:34Z</time>
      </trkpt>
      <trkpt lat="42.8747840" lon="-7.9044990">
        <ele>460.9</ele>
        <time>2021-10-05T13:59:38Z</time>
      </trkpt>
      <trkpt lat="42.8748690" lon="-7.9045670">
        <ele>460.1</ele>
        <time>2021-10-05T13:59:40Z</time>
      </trkpt>
      <trkpt lat="42.8749830" lon="-7.9047790">
        <ele>459.6</ele>
        <time>2021-10-05T13:59:44Z</time>
      </trkpt>
      <trkpt lat="42.8750360" lon="-7.9049480">
        <ele>459.5</ele>
        <time>2021-10-05T13:59:47Z</time>
      </trkpt>
      <trkpt lat="42.8750500" lon="-7.9050020">
        <ele>459.4</ele>
        <time>2021-10-05T13:59:48Z</time>
      </trkpt>
      <trkpt lat="42.8751010" lon="-7.9052100">
        <ele>459.5</ele>
        <time>2021-10-05T13:59:52Z</time>
      </trkpt>
      <trkpt lat="42.8751140" lon="-7.9052620">
        <ele>459.6</ele>
        <time>2021-10-05T13:59:53Z</time>
      </trkpt>
      <trkpt lat="42.8751920" lon="-7.9055010">
        <ele>460.0</ele>
        <time>2021-10-05T13:59:58Z</time>
      </trkpt>
      <trkpt lat="42.8751980" lon="-7.9055520">
        <ele>460.1</ele>
        <time>2021-10-05T13:59:59Z</time>
      </trkpt>
      <trkpt lat="42.8752200" lon="-7.9057710">
        <ele>460.3</ele>
        <time>2021-10-05T14:00:03Z</time>
      </trkpt>
      <trkpt lat="42.8752340" lon="-7.9059440">
        <ele>460.4</ele>
        <time>2021-10-05T14:00:06Z</time>
      </trkpt>
      <trkpt lat="42.8752600" lon="-7.9062770">
        <ele>460.6</ele>
        <time>2021-10-05T14:00:12Z</time>
      </trkpt>
      <trkpt lat="42.8753510" lon="-7.9067450">
        <ele>460.9</ele>
        <time>2021-10-05T14:00:21Z</time>
      </trkpt>
      <trkpt lat="42.8753980" lon="-7.9069980">
        <ele>460.8</ele>
        <time>2021-10-05T14:00:25Z</time>
      </trkpt>
      <trkpt lat="42.8754580" lon="-7.9075190">
        <ele>460.2</ele>
        <time>2021-10-05T14:00:33Z</time>
      </trkpt>
      <trkpt lat="42.8755100" lon="-7.9077810">
        <ele>460.0</ele>
        <time>2021-10-05T14:00:37Z</time>
      </trkpt>
      <trkpt lat="42.8757130" lon="-7.9084240">
        <ele>459.6</ele>
        <time>2021-10-05T14:00:48Z</time>
      </trkpt>
      <trkpt lat="42.8757430" lon="-7.9085140">
        <ele>459.6</ele>
        <time>2021-10-05T14:00:50Z</time>
      </trkpt>
      <trkpt lat="42.8757710" lon="-7.9085990">
        <ele>459.6</ele>
        <time>2021-10-05T14:00:52Z</time>
      </trkpt>
      <trkpt lat="42.8758100" lon="-7.9086850">
        <ele>459.6</ele>
        <time>2021-10-05T14:00:55Z</time>
      </trkpt>
      <trkpt lat="42.8759350" lon="-7.9089190">
        <ele>459.6</ele>
        <time>2021-10-05T14:01:03Z</time>
      </trkpt>
      <trkpt lat="42.8760680" lon="-7.9090920">
        <ele>458.7</ele>
        <time>2021-10-05T14:01:08Z</time>
      </trkpt>
      <trkpt lat="42.8765280" lon="-7.9095810">
        <ele>454.8</ele>
        <time>2021-10-05T14:01:20Z</time>
      </trkpt>
      <trkpt lat="42.8767320" lon="-7.9098320">
        <ele>452.3</ele>
        <time>2021-10-05T14:01:25Z</time>
      </trkpt>
      <trkpt lat="42.8769520" lon="-7.9102090">
        <ele>449.4</ele>
        <time>2021-10-05T14:01:31Z</time>
      </trkpt>
      <trkpt lat="42.8771070" lon="-7.9105920">
        <ele>447.3</ele>
        <time>2021-10-05T14:01:36Z</time>
      </trkpt>
      <trkpt lat="42.8772750" lon="-7.9111620">
        <ele>443.8</ele>
        <time>2021-10-05T14:01:45Z</time>
      </trkpt>
      <trkpt lat="42.8774320" lon="-7.9116360">
        <ele>437.3</ele>
        <time>2021-10-05T14:01:51Z</time>
      </trkpt>
      <trkpt lat="42.8775240" lon="-7.9118550">
        <ele>434.0</ele>
        <time>2021-10-05T14:01:54Z</time>
      </trkpt>
      <trkpt lat="42.8776900" lon="-7.9121180">
        <ele>429.9</ele>
        <time>2021-10-05T14:02:01Z</time>
      </trkpt>
      <trkpt lat="42.8777110" lon="-7.9121430">
        <ele>429.5</ele>
        <time>2021-10-05T14:02:02Z</time>
      </trkpt>
      <trkpt lat="42.8779010" lon="-7.9125430">
        <ele>426.1</ele>
        <time>2021-10-05T14:02:10Z</time>
      </trkpt>
      <trkpt lat="42.8779530" lon="-7.9127510">
        <ele>424.8</ele>
        <time>2021-10-05T14:02:13Z</time>
      </trkpt>
      <trkpt lat="42.8779750" lon="-7.9128540">
        <ele>424.1</ele>
        <time>2021-10-05T14:02:15Z</time>
      </trkpt>
      <trkpt lat="42.8779780" lon="-7.9130380">
        <ele>422.8</ele>
        <time>2021-10-05T14:02:19Z</time>
      </trkpt>
      <trkpt lat="42.8779370" lon="-7.9132330">
        <ele>421.5</ele>
        <time>2021-10-05T14:02:22Z</time>
      </trkpt>
      <trkpt lat="42.8779340" lon="-7.9133170">
        <ele>420.8</ele>
        <time>2021-10-05T14:02:23Z</time>
      </trkpt>
      <trkpt lat="42.8780370" lon="-7.9136300">
        <ele>419.3</ele>
        <time>2021-10-05T14:02:27Z</time>
      </trkpt>
      <trkpt lat="42.8781140" lon="-7.9138430">
        <ele>419.3</ele>
        <time>2021-10-05T14:02:30Z</time>
      </trkpt>
      <trkpt lat="42.8781230" lon="-7.9139130">
        <ele>419.3</ele>
        <time>2021-10-05T14:02:31Z</time>
      </trkpt>
      <trkpt lat="42.8781430" lon="-7.9140430">
        <ele>419.3</ele>
        <time>2021-10-05T14:02:33Z</time>
      </trkpt>
      <trkpt lat="42.8781880" lon="-7.9141510">
        <ele>419.3</ele>
        <time>2021-10-05T14:02:35Z</time>
      </trkpt>
      <trkpt lat="42.8782570" lon="-7.9142190">
        <ele>419.6</ele>
        <time>2021-10-05T14:02:37Z</time>
      </trkpt>
      <trkpt lat="42.8782930" lon="-7.9142420">
        <ele>419.7</ele>
        <time>2021-10-05T14:02:38Z</time>
      </trkpt>
      <trkpt lat="42.8783270" lon="-7.9142620">
        <ele>419.9</ele>
        <time>2021-10-05T14:02:39Z</time>
      </trkpt>
      <trkpt lat="42.8783920" lon="-7.9143070">
        <ele>420.3</ele>
        <time>2021-10-05T14:02:41Z</time>
      </trkpt>
      <trkpt lat="42.8784200" lon="-7.9143320">
        <ele>420.6</ele>
        <time>2021-10-05T14:02:42Z</time>
      </trkpt>
      <trkpt lat="42.8784710" lon="-7.9143740">
        <ele>421.1</ele>
        <time>2021-10-05T14:02:44Z</time>
      </trkpt>
      <trkpt lat="42.8785180" lon="-7.9144060">
        <ele>421.5</ele>
        <time>2021-10-05T14:02:46Z</time>
      </trkpt>
      <trkpt lat="42.8785640" lon="-7.9144380">
        <ele>421.9</ele>
        <time>2021-10-05T14:02:48Z</time>
      </trkpt>
      <trkpt lat="42.8786070" lon="-7.9144630">
        <ele>422.3</ele>
        <time>2021-10-05T14:02:50Z</time>
      </trkpt>
      <trkpt lat="42.8786760" lon="-7.9145140">
        <ele>422.9</ele>
        <time>2021-10-05T14:02:54Z</time>
      </trkpt>
      <trkpt lat="42.8787140" lon="-7.9145540">
        <ele>423.2</ele>
        <time>2021-10-05T14:02:56Z</time>
      </trkpt>
      <trkpt lat="42.8788050" lon="-7.9146430">
        <ele>424.2</ele>
        <time>2021-10-05T14:03:00Z</time>
      </trkpt>
      <trkpt lat="42.8788820" lon="-7.9147320">
        <ele>425.1</ele>
        <time>2021-10-05T14:03:05Z</time>
      </trkpt>
      <trkpt lat="42.8789150" lon="-7.9147940">
        <ele>425.7</ele>
        <time>2021-10-05T14:03:08Z</time>
      </trkpt>
      <trkpt lat="42.8789530" lon="-7.9148510">
        <ele>426.3</ele>
        <time>2021-10-05T14:03:11Z</time>
      </trkpt>
      <trkpt lat="42.8789870" lon="-7.9149560">
        <ele>427.3</ele>
        <time>2021-10-05T14:03:15Z</time>
      </trkpt>
      <trkpt lat="42.8790320" lon="-7.9150540">
        <ele>428.3</ele>
        <time>2021-10-05T14:03:19Z</time>
      </trkpt>
      <trkpt lat="42.8790830" lon="-7.9151600">
        <ele>429.3</ele>
        <time>2021-10-05T14:03:24Z</time>
      </trkpt>
      <trkpt lat="42.8790960" lon="-7.9152150">
        <ele>429.8</ele>
        <time>2021-10-05T14:03:26Z</time>
      </trkpt>
      <trkpt lat="42.8791180" lon="-7.9153480">
        <ele>430.8</ele>
        <time>2021-10-05T14:03:30Z</time>
      </trkpt>
      <trkpt lat="42.8791160" lon="-7.9158480">
        <ele>433.5</ele>
        <time>2021-10-05T14:03:48Z</time>
      </trkpt>
      <trkpt lat="42.8791520" lon="-7.9161730">
        <ele>434.9</ele>
        <time>2021-10-05T14:03:57Z</time>
      </trkpt>
      <trkpt lat="42.8792130" lon="-7.9165630">
        <ele>436.3</ele>
        <time>2021-10-05T14:04:07Z</time>
      </trkpt>
      <trkpt lat="42.8793380" lon="-7.9169190">
        <ele>437.7</ele>
        <time>2021-10-05T14:04:19Z</time>
      </trkpt>
      <trkpt lat="42.8795710" lon="-7.9175940">
        <ele>439.6</ele>
        <time>2021-10-05T14:04:35Z</time>
      </trkpt>
      <trkpt lat="42.8796150" lon="-7.9176850">
        <ele>439.8</ele>
        <time>2021-10-05T14:04:38Z</time>
      </trkpt>
      <trkpt lat="42.8796690" lon="-7.9177800">
        <ele>440.0</ele>
        <time>2021-10-05T14:04:41Z</time>
      </trkpt>
      <trkpt lat="42.8797070" lon="-7.9178750">
        <ele>440.2</ele>
        <time>2021-10-05T14:04:44Z</time>
      </trkpt>
      <trkpt lat="42.8798150" lon="-7.9181990">
        <ele>440.7</ele>
        <time>2021-10-05T14:04:56Z</time>
      </trkpt>
      <trkpt lat="42.8798200" lon="-7.9182650">
        <ele>440.7</ele>
        <time>2021-10-05T14:04:58Z</time>
      </trkpt>
      <trkpt lat="42.8798320" lon="-7.9183180">
        <ele>440.8</ele>
        <time>2021-10-05T14:05:00Z</time>
      </trkpt>
      <trkpt lat="42.8798890" lon="-7.9186370">
        <ele>441.0</ele>
        <time>2021-10-05T14:05:11Z</time>
      </trkpt>
      <trkpt lat="42.8799080" lon="-7.9186780">
        <ele>441.1</ele>
        <time>2021-10-05T14:05:13Z</time>
      </trkpt>
      <trkpt lat="42.8799310" lon="-7.9188620">
        <ele>441.4</ele>
        <time>2021-10-05T14:05:19Z</time>
      </trkpt>
      <trkpt lat="42.8799450" lon="-7.9191310">
        <ele>441.8</ele>
        <time>2021-10-05T14:05:27Z</time>
      </trkpt>
      <trkpt lat="42.8799580" lon="-7.9194710">
        <ele>442.6</ele>
        <time>2021-10-05T14:05:40Z</time>
      </trkpt>
      <trkpt lat="42.8799850" lon="-7.9196550">
        <ele>443.0</ele>
        <time>2021-10-05T14:05:46Z</time>
      </trkpt>
      <trkpt lat="42.8799930" lon="-7.9198780">
        <ele>443.7</ele>
        <time>2021-10-05T14:05:52Z</time>
      </trkpt>
      <trkpt lat="42.8800020" lon="-7.9200040">
        <ele>444.3</ele>
        <time>2021-10-05T14:05:56Z</time>
      </trkpt>
      <trkpt lat="42.8800310" lon="-7.9201570">
        <ele>445.3</ele>
        <time>2021-10-05T14:06:03Z</time>
      </trkpt>
      <trkpt lat="42.8800250" lon="-7.9201870">
        <ele>445.5</ele>
        <time>2021-10-05T14:06:04Z</time>
      </trkpt>
      <trkpt lat="42.8800200" lon="-7.9202330">
        <ele>445.8</ele>
        <time>2021-10-05T14:06:06Z</time>
      </trkpt>
      <trkpt lat="42.8800220" lon="-7.9203330">
        <ele>446.6</ele>
        <time>2021-10-05T14:06:10Z</time>
      </trkpt>
      <trkpt lat="42.8800450" lon="-7.9205220">
        <ele>447.9</ele>
        <time>2021-10-05T14:06:16Z</time>
      </trkpt>
      <trkpt lat="42.8800820" lon="-7.9209550">
        <ele>450.6</ele>
        <time>2021-10-05T14:06:30Z</time>
      </trkpt>
      <trkpt lat="42.8800860" lon="-7.9210560">
        <ele>451.3</ele>
        <time>2021-10-05T14:06:33Z</time>
      </trkpt>
      <trkpt lat="42.8800490" lon="-7.9212620">
        <ele>453.0</ele>
        <time>2021-10-05T14:06:38Z</time>
      </trkpt>
      <trkpt lat="42.8800620" lon="-7.9214780">
        <ele>454.6</ele>
        <time>2021-10-05T14:06:44Z</time>
      </trkpt>
      <trkpt lat="42.8800750" lon="-7.9216420">
        <ele>455.6</ele>
        <time>2021-10-05T14:06:50Z</time>
      </trkpt>
      <trkpt lat="42.8800130" lon="-7.9219810">
        <ele>457.7</ele>
        <time>2021-10-05T14:07:00Z</time>
      </trkpt>
      <trkpt lat="42.8799480" lon="-7.9221690">
        <ele>458.7</ele>
        <time>2021-10-05T14:07:06Z</time>
      </trkpt>
      <trkpt lat="42.8798990" lon="-7.9223110">
        <ele>459.3</ele>
        <time>2021-10-05T14:07:11Z</time>
      </trkpt>
      <trkpt lat="42.8798520" lon="-7.9223930">
        <ele>459.8</ele>
        <time>2021-10-05T14:07:14Z</time>
      </trkpt>
      <trkpt lat="42.8796270" lon="-7.9230830">
        <ele>463.6</ele>
        <time>2021-10-05T14:07:38Z</time>
      </trkpt>
      <trkpt lat="42.8796020" lon="-7.9232370">
        <ele>464.4</ele>
        <time>2021-10-05T14:07:43Z</time>
      </trkpt>
      <trkpt lat="42.8795410" lon="-7.9235180">
        <ele>465.8</ele>
        <time>2021-10-05T14:07:52Z</time>
      </trkpt>
      <trkpt lat="42.8794520" lon="-7.9238410">
        <ele>467.1</ele>
        <time>2021-10-05T14:07:59Z</time>
      </trkpt>
      <trkpt lat="42.8793880" lon="-7.9243840">
        <ele>468.6</ele>
        <time>2021-10-05T14:08:12Z</time>
      </trkpt>
      <trkpt lat="42.8793550" lon="-7.9247050">
        <ele>469.5</ele>
        <time>2021-10-05T14:08:20Z</time>
      </trkpt>
      <trkpt lat="42.8793490" lon="-7.9248100">
        <ele>469.7</ele>
        <time>2021-10-05T14:08:23Z</time>
      </trkpt>
      <trkpt lat="42.8793440" lon="-7.9248700">
        <ele>469.8</ele>
        <time>2021-10-05T14:08:25Z</time>
      </trkpt>
      <trkpt lat="42.8793360" lon="-7.9249300">
        <ele>469.9</ele>
        <time>2021-10-05T14:08:27Z</time>
      </trkpt>
      <trkpt lat="42.8793260" lon="-7.9250340">
        <ele>470.1</ele>
        <time>2021-10-05T14:08:31Z</time>
      </trkpt>
      <trkpt lat="42.8793200" lon="-7.9251000">
        <ele>470.2</ele>
        <time>2021-10-05T14:08:33Z</time>
      </trkpt>
      <trkpt lat="42.8793140" lon="-7.9252300">
        <ele>470.5</ele>
        <time>2021-10-05T14:08:37Z</time>
      </trkpt>
      <trkpt lat="42.8793100" lon="-7.9254310">
        <ele>470.9</ele>
        <time>2021-10-05T14:08:43Z</time>
      </trkpt>
      <trkpt lat="42.8792930" lon="-7.9257030">
        <ele>471.5</ele>
        <time>2021-10-05T14:08:52Z</time>
      </trkpt>
      <trkpt lat="42.8792930" lon="-7.9258270">
        <ele>471.8</ele>
        <time>2021-10-05T14:08:57Z</time>
      </trkpt>
      <trkpt lat="42.8792600" lon="-7.9259000">
        <ele>471.9</ele>
        <time>2021-10-05T14:10:30Z</time>
      </trkpt>
      <trkpt lat="42.8792510" lon="-7.9259260">
        <ele>472.0</ele>
        <time>2021-10-05T14:10:31Z</time>
      </trkpt>
      <trkpt lat="42.8792120" lon="-7.9260170">
        <ele>472.2</ele>
        <time>2021-10-05T14:10:34Z</time>
      </trkpt>
      <trkpt lat="42.8790370" lon="-7.9263950">
        <ele>472.7</ele>
        <time>2021-10-05T14:10:48Z</time>
      </trkpt>
      <trkpt lat="42.8788290" lon="-7.9270740">
        <ele>474.8</ele>
        <time>2021-10-05T14:11:13Z</time>
      </trkpt>
      <trkpt lat="42.8787880" lon="-7.9272290">
        <ele>475.4</ele>
        <time>2021-10-05T14:11:19Z</time>
      </trkpt>
      <trkpt lat="42.8787530" lon="-7.9276150">
        <ele>477.1</ele>
        <time>2021-10-05T14:11:33Z</time>
      </trkpt>
      <trkpt lat="42.8787570" lon="-7.9277390">
        <ele>477.7</ele>
        <time>2021-10-05T14:11:37Z</time>
      </trkpt>
      <trkpt lat="42.8787690" lon="-7.9278510">
        <ele>478.3</ele>
        <time>2021-10-05T14:11:41Z</time>
      </trkpt>
      <trkpt lat="42.8787900" lon="-7.9281070">
        <ele>479.8</ele>
        <time>2021-10-05T14:11:49Z</time>
      </trkpt>
      <trkpt lat="42.8787740" lon="-7.9284100">
        <ele>481.1</ele>
        <time>2021-10-05T14:11:57Z</time>
      </trkpt>
      <trkpt lat="42.8787900" lon="-7.9287820">
        <ele>482.6</ele>
        <time>2021-10-05T14:12:07Z</time>
      </trkpt>
      <trkpt lat="42.8788930" lon="-7.9291700">
        <ele>485.0</ele>
        <time>2021-10-05T14:12:19Z</time>
      </trkpt>
      <trkpt lat="42.8789710" lon="-7.9293750">
        <ele>486.6</ele>
        <time>2021-10-05T14:12:27Z</time>
      </trkpt>
      <trkpt lat="42.8789940" lon="-7.9294730">
        <ele>487.3</ele>
        <time>2021-10-05T14:12:30Z</time>
      </trkpt>
      <trkpt lat="42.8790990" lon="-7.9299660">
        <ele>491.2</ele>
        <time>2021-10-05T14:12:49Z</time>
      </trkpt>
      <trkpt lat="42.8791140" lon="-7.9300750">
        <ele>492.2</ele>
        <time>2021-10-05T14:12:53Z</time>
      </trkpt>
      <trkpt lat="42.8791550" lon="-7.9301730">
        <ele>493.2</ele>
        <time>2021-10-05T14:12:57Z</time>
      </trkpt>
      <trkpt lat="42.8791680" lon="-7.9301980">
        <ele>493.5</ele>
        <time>2021-10-05T14:12:58Z</time>
      </trkpt>
      <trkpt lat="42.8791800" lon="-7.9304720">
        <ele>496.0</ele>
        <time>2021-10-05T14:13:06Z</time>
      </trkpt>
      <trkpt lat="42.8791830" lon="-7.9304980">
        <ele>496.3</ele>
        <time>2021-10-05T14:13:07Z</time>
      </trkpt>
      <trkpt lat="42.8791900" lon="-7.9307410">
        <ele>498.5</ele>
        <time>2021-10-05T14:13:15Z</time>
      </trkpt>
      <trkpt lat="42.8791870" lon="-7.9308360">
        <ele>499.4</ele>
        <time>2021-10-05T14:13:17Z</time>
      </trkpt>
      <trkpt lat="42.8793430" lon="-7.9311620">
        <ele>502.2</ele>
        <time>2021-10-05T14:13:28Z</time>
      </trkpt>
      <trkpt lat="42.8794570" lon="-7.9312880">
        <ele>502.7</ele>
        <time>2021-10-05T14:13:33Z</time>
      </trkpt>
      <trkpt lat="42.8795620" lon="-7.9313980">
        <ele>503.0</ele>
        <time>2021-10-05T14:13:37Z</time>
      </trkpt>
      <trkpt lat="42.8797430" lon="-7.9315940">
        <ele>503.5</ele>
        <time>2021-10-05T14:13:44Z</time>
      </trkpt>
      <trkpt lat="42.8798680" lon="-7.9317040">
        <ele>503.5</ele>
        <time>2021-10-05T14:13:49Z</time>
      </trkpt>
      <trkpt lat="42.8799160" lon="-7.9317450">
        <ele>503.5</ele>
        <time>2021-10-05T14:13:51Z</time>
      </trkpt>
      <trkpt lat="42.8799380" lon="-7.9317640">
        <ele>503.3</ele>
        <time>2021-10-05T14:13:52Z</time>
      </trkpt>
      <trkpt lat="42.8799740" lon="-7.9318220">
        <ele>503.0</ele>
        <time>2021-10-05T14:13:54Z</time>
      </trkpt>
      <trkpt lat="42.8800260" lon="-7.9319160">
        <ele>502.4</ele>
        <time>2021-10-05T14:13:56Z</time>
      </trkpt>
      <trkpt lat="42.8800520" lon="-7.9319650">
        <ele>502.1</ele>
        <time>2021-10-05T14:13:57Z</time>
      </trkpt>
      <trkpt lat="42.8800870" lon="-7.9320140">
        <ele>501.7</ele>
        <time>2021-10-05T14:13:58Z</time>
      </trkpt>
      <trkpt lat="42.8801680" lon="-7.9321300">
        <ele>500.9</ele>
        <time>2021-10-05T14:14:00Z</time>
      </trkpt>
      <trkpt lat="42.8802310" lon="-7.9322490">
        <ele>500.2</ele>
        <time>2021-10-05T14:14:02Z</time>
      </trkpt>
      <trkpt lat="42.8803270" lon="-7.9325110">
        <ele>499.2</ele>
        <time>2021-10-05T14:14:06Z</time>
      </trkpt>
      <trkpt lat="42.8803440" lon="-7.9325980">
        <ele>498.9</ele>
        <time>2021-10-05T14:14:07Z</time>
      </trkpt>
      <trkpt lat="42.8803950" lon="-7.9328500">
        <ele>498.0</ele>
        <time>2021-10-05T14:14:10Z</time>
      </trkpt>
      <trkpt lat="42.8804840" lon="-7.9332060">
        <ele>496.8</ele>
        <time>2021-10-05T14:14:14Z</time>
      </trkpt>
      <trkpt lat="42.8805200" lon="-7.9334030">
        <ele>496.3</ele>
        <time>2021-10-05T14:14:16Z</time>
      </trkpt>
      <trkpt lat="42.8805650" lon="-7.9335830">
        <ele>495.9</ele>
        <time>2021-10-05T14:14:18Z</time>
      </trkpt>
      <trkpt lat="42.8806060" lon="-7.9337620">
        <ele>495.5</ele>
        <time>2021-10-05T14:14:20Z</time>
      </trkpt>
      <trkpt lat="42.8807030" lon="-7.9340860">
        <ele>494.7</ele>
        <time>2021-10-05T14:14:24Z</time>
      </trkpt>
      <trkpt lat="42.8807850" lon="-7.9342660">
        <ele>494.0</ele>
        <time>2021-10-05T14:14:27Z</time>
      </trkpt>
      <trkpt lat="42.8808460" lon="-7.9346320">
        <ele>491.1</ele>
        <time>2021-10-05T14:14:35Z</time>
      </trkpt>
      <trkpt lat="42.8808420" lon="-7.9346900">
        <ele>490.5</ele>
        <time>2021-10-05T14:14:36Z</time>
      </trkpt>
      <trkpt lat="42.8808350" lon="-7.9347670">
        <ele>489.8</ele>
        <time>2021-10-05T14:14:38Z</time>
      </trkpt>
      <trkpt lat="42.8808340" lon="-7.9347760">
        <ele>489.7</ele>
        <time>2021-10-05T14:14:39Z</time>
      </trkpt>
      <trkpt lat="42.8808260" lon="-7.9348770">
        <ele>488.7</ele>
        <time>2021-10-05T14:15:10Z</time>
      </trkpt>
      <trkpt lat="42.8808470" lon="-7.9349980">
        <ele>487.5</ele>
        <time>2021-10-05T14:15:13Z</time>
      </trkpt>
      <trkpt lat="42.8808790" lon="-7.9352170">
        <ele>485.5</ele>
        <time>2021-10-05T14:15:17Z</time>
      </trkpt>
      <trkpt lat="42.8808280" lon="-7.9359600">
        <ele>479.4</ele>
        <time>2021-10-05T14:15:29Z</time>
      </trkpt>
      <trkpt lat="42.8807030" lon="-7.9367120">
        <ele>474.9</ele>
        <time>2021-10-05T14:15:41Z</time>
      </trkpt>
      <trkpt lat="42.8807920" lon="-7.9369150">
        <ele>473.1</ele>
        <time>2021-10-05T14:15:45Z</time>
      </trkpt>
      <trkpt lat="42.8809960" lon="-7.9376780">
        <ele>467.4</ele>
        <time>2021-10-05T14:15:54Z</time>
      </trkpt>
      <trkpt lat="42.8810340" lon="-7.9378250">
        <ele>467.0</ele>
        <time>2021-10-05T14:15:56Z</time>
      </trkpt>
      <trkpt lat="42.8810800" lon="-7.9379710">
        <ele>466.7</ele>
        <time>2021-10-05T14:15:58Z</time>
      </trkpt>
      <trkpt lat="42.8811540" lon="-7.9381590">
        <ele>466.4</ele>
        <time>2021-10-05T14:16:01Z</time>
      </trkpt>
      <trkpt lat="42.8812530" lon="-7.9384000">
        <ele>466.2</ele>
        <time>2021-10-05T14:16:06Z</time>
      </trkpt>
      <trkpt lat="42.8812780" lon="-7.9384840">
        <ele>466.2</ele>
        <time>2021-10-05T14:16:08Z</time>
      </trkpt>
      <trkpt lat="42.8812810" lon="-7.9385680">
        <ele>466.1</ele>
        <time>2021-10-05T14:16:10Z</time>
      </trkpt>
      <trkpt lat="42.8812340" lon="-7.9392610">
        <ele>463.2</ele>
        <time>2021-10-05T14:16:22Z</time>
      </trkpt>
      <trkpt lat="42.8811910" lon="-7.9397200">
        <ele>459.9</ele>
        <time>2021-10-05T14:16:27Z</time>
      </trkpt>
      <trkpt lat="42.8811610" lon="-7.9400060">
        <ele>458.3</ele>
        <time>2021-10-05T14:16:30Z</time>
      </trkpt>
      <trkpt lat="42.8810230" lon="-7.9405830">
        <ele>455.2</ele>
        <time>2021-10-05T14:16:36Z</time>
      </trkpt>
      <trkpt lat="42.8808880" lon="-7.9409440">
        <ele>453.2</ele>
        <time>2021-10-05T14:16:40Z</time>
      </trkpt>
      <trkpt lat="42.8807660" lon="-7.9414100">
        <ele>450.5</ele>
        <time>2021-10-05T14:16:45Z</time>
      </trkpt>
      <trkpt lat="42.8807220" lon="-7.9416250">
        <ele>449.0</ele>
        <time>2021-10-05T14:16:47Z</time>
      </trkpt>
      <trkpt lat="42.8805950" lon="-7.9420870">
        <ele>444.7</ele>
        <time>2021-10-05T14:16:52Z</time>
      </trkpt>
      <trkpt lat="42.8803520" lon="-7.9425720">
        <ele>438.8</ele>
        <time>2021-10-05T14:16:59Z</time>
      </trkpt>
      <trkpt lat="42.8803020" lon="-7.9427850">
        <ele>436.2</ele>
        <time>2021-10-05T14:17:04Z</time>
      </trkpt>
      <trkpt lat="42.8803220" lon="-7.9428820">
        <ele>434.7</ele>
        <time>2021-10-05T14:17:05Z</time>
      </trkpt>
      <trkpt lat="42.8803450" lon="-7.9429630">
        <ele>434.0</ele>
        <time>2021-10-05T14:17:06Z</time>
      </trkpt>
      <trkpt lat="42.8803680" lon="-7.9430450">
        <ele>433.3</ele>
        <time>2021-10-05T14:20:45Z</time>
      </trkpt>
      <trkpt lat="42.8803910" lon="-7.9431270">
        <ele>432.7</ele>
        <time>2021-10-05T14:20:46Z</time>
      </trkpt>
      <trkpt lat="42.8804350" lon="-7.9432380">
        <ele>431.9</ele>
        <time>2021-10-05T14:20:48Z</time>
      </trkpt>
      <trkpt lat="42.8805100" lon="-7.9434370">
        <ele>430.8</ele>
        <time>2021-10-05T14:20:51Z</time>
      </trkpt>
      <trkpt lat="42.8805500" lon="-7.9435930">
        <ele>430.0</ele>
        <time>2021-10-05T14:20:53Z</time>
      </trkpt>
      <trkpt lat="42.8806040" lon="-7.9438240">
        <ele>429.3</ele>
        <time>2021-10-05T14:20:56Z</time>
      </trkpt>
      <trkpt lat="42.8806660" lon="-7.9440120">
        <ele>429.0</ele>
        <time>2021-10-05T14:20:59Z</time>
      </trkpt>
      <trkpt lat="42.8806920" lon="-7.9442620">
        <ele>428.9</ele>
        <time>2021-10-05T14:21:05Z</time>
      </trkpt>
      <trkpt lat="42.8806800" lon="-7.9443480">
        <ele>428.9</ele>
        <time>2021-10-05T14:21:07Z</time>
      </trkpt>
      <trkpt lat="42.8806680" lon="-7.9444450">
        <ele>429.0</ele>
        <time>2021-10-05T14:21:09Z</time>
      </trkpt>
      <trkpt lat="42.8806500" lon="-7.9445640">
        <ele>429.2</ele>
        <time>2021-10-05T14:21:11Z</time>
      </trkpt>
      <trkpt lat="42.8806580" lon="-7.9447040">
        <ele>429.6</ele>
        <time>2021-10-05T14:21:13Z</time>
      </trkpt>
      <trkpt lat="42.8806900" lon="-7.9448260">
        <ele>429.9</ele>
        <time>2021-10-05T14:21:15Z</time>
      </trkpt>
      <trkpt lat="42.8807300" lon="-7.9449130">
        <ele>430.3</ele>
        <time>2021-10-05T14:21:17Z</time>
      </trkpt>
      <trkpt lat="42.8807770" lon="-7.9449760">
        <ele>430.6</ele>
        <time>2021-10-05T14:21:19Z</time>
      </trkpt>
      <trkpt lat="42.8808270" lon="-7.9450930">
        <ele>431.4</ele>
        <time>2021-10-05T14:21:22Z</time>
      </trkpt>
      <trkpt lat="42.8808990" lon="-7.9452660">
        <ele>432.6</ele>
        <time>2021-10-05T14:21:26Z</time>
      </trkpt>
      <trkpt lat="42.8809600" lon="-7.9454080">
        <ele>433.5</ele>
        <time>2021-10-05T14:21:30Z</time>
      </trkpt>
      <trkpt lat="42.8810600" lon="-7.9455520">
        <ele>434.4</ele>
        <time>2021-10-05T14:21:36Z</time>
      </trkpt>
      <trkpt lat="42.8813090" lon="-7.9458190">
        <ele>436.2</ele>
        <time>2021-10-05T14:21:48Z</time>
      </trkpt>
      <trkpt lat="42.8813580" lon="-7.9459060">
        <ele>436.9</ele>
        <time>2021-10-05T14:21:52Z</time>
      </trkpt>
      <trkpt lat="42.8814180" lon="-7.9459840">
        <ele>437.7</ele>
        <time>2021-10-05T14:21:56Z</time>
      </trkpt>
      <trkpt lat="42.8815140" lon="-7.9461250">
        <ele>439.4</ele>
        <time>2021-10-05T14:22:04Z</time>
      </trkpt>
      <trkpt lat="42.8815260" lon="-7.9461460">
        <ele>439.6</ele>
        <time>2021-10-05T14:22:05Z</time>
      </trkpt>
      <trkpt lat="42.8816400" lon="-7.9463180">
        <ele>441.2</ele>
        <time>2021-10-05T14:22:13Z</time>
      </trkpt>
      <trkpt lat="42.8817350" lon="-7.9466060">
        <ele>442.2</ele>
        <time>2021-10-05T14:22:23Z</time>
      </trkpt>
      <trkpt lat="42.8817690" lon="-7.9468070">
        <ele>442.4</ele>
        <time>2021-10-05T14:22:28Z</time>
      </trkpt>
      <trkpt lat="42.8817850" lon="-7.9468950">
        <ele>442.5</ele>
        <time>2021-10-05T14:22:30Z</time>
      </trkpt>
      <trkpt lat="42.8818180" lon="-7.9470940">
        <ele>442.7</ele>
        <time>2021-10-05T14:22:35Z</time>
      </trkpt>
      <trkpt lat="42.8818320" lon="-7.9472290">
        <ele>442.8</ele>
        <time>2021-10-05T14:22:38Z</time>
      </trkpt>
      <trkpt lat="42.8818350" lon="-7.9476100">
        <ele>443.8</ele>
        <time>2021-10-05T14:22:44Z</time>
      </trkpt>
      <trkpt lat="42.8818390" lon="-7.9476850">
        <ele>444.2</ele>
        <time>2021-10-05T14:22:45Z</time>
      </trkpt>
      <trkpt lat="42.8818670" lon="-7.9478870">
        <ele>445.6</ele>
        <time>2021-10-05T14:22:48Z</time>
      </trkpt>
      <trkpt lat="42.8818890" lon="-7.9480280">
        <ele>446.7</ele>
        <time>2021-10-05T14:22:51Z</time>
      </trkpt>
      <trkpt lat="42.8818980" lon="-7.9480890">
        <ele>447.3</ele>
        <time>2021-10-05T14:22:54Z</time>
      </trkpt>
      <trkpt lat="42.8818840" lon="-7.9483840">
        <ele>449.5</ele>
        <time>2021-10-05T14:23:23Z</time>
      </trkpt>
      <trkpt lat="42.8818980" lon="-7.9484820">
        <ele>449.9</ele>
        <time>2021-10-05T14:23:27Z</time>
      </trkpt>
      <trkpt lat="42.8817730" lon="-7.9490020">
        <ele>451.5</ele>
        <time>2021-10-05T14:23:42Z</time>
      </trkpt>
      <trkpt lat="42.8815890" lon="-7.9497180">
        <ele>454.0</ele>
        <time>2021-10-05T14:24:00Z</time>
      </trkpt>
      <trkpt lat="42.8815510" lon="-7.9498640">
        <ele>454.7</ele>
        <time>2021-10-05T14:24:03Z</time>
      </trkpt>
      <trkpt lat="42.8815240" lon="-7.9500140">
        <ele>455.4</ele>
        <time>2021-10-05T14:24:06Z</time>
      </trkpt>
      <trkpt lat="42.8815400" lon="-7.9502180">
        <ele>456.1</ele>
        <time>2021-10-05T14:24:11Z</time>
      </trkpt>
      <trkpt lat="42.8815520" lon="-7.9508400">
        <ele>458.6</ele>
        <time>2021-10-05T14:24:25Z</time>
      </trkpt>
      <trkpt lat="42.8815830" lon="-7.9510670">
        <ele>459.7</ele>
        <time>2021-10-05T14:24:32Z</time>
      </trkpt>
      <trkpt lat="42.8815920" lon="-7.9515930">
        <ele>462.4</ele>
        <time>2021-10-05T14:24:47Z</time>
      </trkpt>
      <trkpt lat="42.8816360" lon="-7.9519130">
        <ele>464.5</ele>
        <time>2021-10-05T14:24:56Z</time>
      </trkpt>
      <trkpt lat="42.8816610" lon="-7.9521840">
        <ele>466.4</ele>
        <time>2021-10-05T14:25:06Z</time>
      </trkpt>
      <trkpt lat="42.8816600" lon="-7.9523120">
        <ele>467.3</ele>
        <time>2021-10-05T14:25:11Z</time>
      </trkpt>
      <trkpt lat="42.8816390" lon="-7.9525310">
        <ele>468.3</ele>
        <time>2021-10-05T14:25:17Z</time>
      </trkpt>
      <trkpt lat="42.8816380" lon="-7.9527840">
        <ele>469.0</ele>
        <time>2021-10-05T14:25:23Z</time>
      </trkpt>
      <trkpt lat="42.8816520" lon="-7.9528160">
        <ele>469.1</ele>
        <time>2021-10-05T14:25:24Z</time>
      </trkpt>
      <trkpt lat="42.8818380" lon="-7.9531970">
        <ele>470.5</ele>
        <time>2021-10-05T14:25:33Z</time>
      </trkpt>
      <trkpt lat="42.8820210" lon="-7.9534510">
        <ele>471.6</ele>
        <time>2021-10-05T14:25:40Z</time>
      </trkpt>
      <trkpt lat="42.8822440" lon="-7.9537990">
        <ele>472.6</ele>
        <time>2021-10-05T14:25:49Z</time>
      </trkpt>
      <trkpt lat="42.8823650" lon="-7.9539860">
        <ele>472.9</ele>
        <time>2021-10-05T14:25:54Z</time>
      </trkpt>
      <trkpt lat="42.8825550" lon="-7.9544840">
        <ele>473.5</ele>
        <time>2021-10-05T14:26:05Z</time>
      </trkpt>
      <trkpt lat="42.8825760" lon="-7.9545860">
        <ele>473.6</ele>
        <time>2021-10-05T14:26:06Z</time>
      </trkpt>
      <trkpt lat="42.8825980" lon="-7.9546810">
        <ele>473.7</ele>
        <time>2021-10-05T14:27:46Z</time>
      </trkpt>
      <trkpt lat="42.8826210" lon="-7.9547750">
        <ele>473.8</ele>
        <time>2021-10-05T14:27:47Z</time>
      </trkpt>
      <trkpt lat="42.8827420" lon="-7.9550300">
        <ele>474.0</ele>
        <time>2021-10-05T14:27:53Z</time>
      </trkpt>
      <trkpt lat="42.8827630" lon="-7.9550740">
        <ele>474.1</ele>
        <time>2021-10-05T14:27:54Z</time>
      </trkpt>
      <trkpt lat="42.8828490" lon="-7.9552480">
        <ele>474.3</ele>
        <time>2021-10-05T14:27:58Z</time>
      </trkpt>
      <trkpt lat="42.8829540" lon="-7.9554510">
        <ele>474.7</ele>
        <time>2021-10-05T14:28:03Z</time>
      </trkpt>
      <trkpt lat="42.8829940" lon="-7.9555430">
        <ele>474.9</ele>
        <time>2021-10-05T14:28:05Z</time>
      </trkpt>
      <trkpt lat="42.8830800" lon="-7.9556360">
        <ele>475.3</ele>
        <time>2021-10-05T14:28:08Z</time>
      </trkpt>
      <trkpt lat="42.8831480" lon="-7.9557250">
        <ele>475.6</ele>
        <time>2021-10-05T14:28:10Z</time>
      </trkpt>
      <trkpt lat="42.8832500" lon="-7.9559230">
        <ele>476.2</ele>
        <time>2021-10-05T14:28:14Z</time>
      </trkpt>
      <trkpt lat="42.8833370" lon="-7.9560430">
        <ele>476.7</ele>
        <time>2021-10-05T14:28:17Z</time>
      </trkpt>
      <trkpt lat="42.8836810" lon="-7.9564570">
        <ele>478.3</ele>
        <time>2021-10-05T14:28:29Z</time>
      </trkpt>
      <trkpt lat="42.8837090" lon="-7.9564910">
        <ele>478.4</ele>
        <time>2021-10-05T14:28:30Z</time>
      </trkpt>
      <trkpt lat="42.8840700" lon="-7.9569900">
        <ele>477.6</ele>
        <time>2021-10-05T14:28:40Z</time>
      </trkpt>
      <trkpt lat="42.8841420" lon="-7.9571080">
        <ele>477.3</ele>
        <time>2021-10-05T14:28:42Z</time>
      </trkpt>
      <trkpt lat="42.8842710" lon="-7.9573450">
        <ele>476.8</ele>
        <time>2021-10-05T14:28:46Z</time>
      </trkpt>
      <trkpt lat="42.8845430" lon="-7.9580030">
        <ele>476.9</ele>
        <time>2021-10-05T14:28:56Z</time>
      </trkpt>
      <trkpt lat="42.8846840" lon="-7.9582840">
        <ele>477.5</ele>
        <time>2021-10-05T14:29:01Z</time>
      </trkpt>
      <trkpt lat="42.8848010" lon="-7.9585450">
        <ele>477.9</ele>
        <time>2021-10-05T14:29:07Z</time>
      </trkpt>
      <trkpt lat="42.8848360" lon="-7.9587400">
        <ele>478.0</ele>
        <time>2021-10-05T14:29:10Z</time>
      </trkpt>
      <trkpt lat="42.8849330" lon="-7.9591970">
        <ele>478.1</ele>
        <time>2021-10-05T14:29:18Z</time>
      </trkpt>
      <trkpt lat="42.8849950" lon="-7.9593780">
        <ele>478.1</ele>
        <time>2021-10-05T14:29:23Z</time>
      </trkpt>
      <trkpt lat="42.8850130" lon="-7.9594380">
        <ele>478.0</ele>
        <time>2021-10-05T14:29:25Z</time>
      </trkpt>
      <trkpt lat="42.8850300" lon="-7.9594810">
        <ele>478.0</ele>
        <time>2021-10-05T14:29:28Z</time>
      </trkpt>
      <trkpt lat="42.8850350" lon="-7.9595190">
        <ele>477.9</ele>
        <time>2021-10-05T14:30:07Z</time>
      </trkpt>
      <trkpt lat="42.8850400" lon="-7.9595490">
        <ele>477.9</ele>
        <time>2021-10-05T14:30:08Z</time>
      </trkpt>
      <trkpt lat="42.8850570" lon="-7.9596250">
        <ele>477.7</ele>
        <time>2021-10-05T14:30:10Z</time>
      </trkpt>
      <trkpt lat="42.8851320" lon="-7.9598610">
        <ele>476.8</ele>
        <time>2021-10-05T14:30:15Z</time>
      </trkpt>
      <trkpt lat="42.8852090" lon="-7.9600190">
        <ele>476.0</ele>
        <time>2021-10-05T14:30:18Z</time>
      </trkpt>
      <trkpt lat="42.8852650" lon="-7.9601300">
        <ele>475.4</ele>
        <time>2021-10-05T14:30:20Z</time>
      </trkpt>
      <trkpt lat="42.8852880" lon="-7.9601900">
        <ele>475.1</ele>
        <time>2021-10-05T14:30:21Z</time>
      </trkpt>
      <trkpt lat="42.8854040" lon="-7.9605210">
        <ele>474.0</ele>
        <time>2021-10-05T14:30:26Z</time>
      </trkpt>
      <trkpt lat="42.8855280" lon="-7.9607770">
        <ele>473.1</ele>
        <time>2021-10-05T14:30:30Z</time>
      </trkpt>
      <trkpt lat="42.8856610" lon="-7.9610610">
        <ele>472.2</ele>
        <time>2021-10-05T14:30:34Z</time>
      </trkpt>
      <trkpt lat="42.8857580" lon="-7.9612800">
        <ele>471.3</ele>
        <time>2021-10-05T14:30:37Z</time>
      </trkpt>
      <trkpt lat="42.8859750" lon="-7.9619520">
        <ele>468.6</ele>
        <time>2021-10-05T14:30:45Z</time>
      </trkpt>
      <trkpt lat="42.8861910" lon="-7.9626030">
        <ele>464.8</ele>
        <time>2021-10-05T14:30:52Z</time>
      </trkpt>
      <trkpt lat="42.8863280" lon="-7.9629540">
        <ele>462.6</ele>
        <time>2021-10-05T14:30:56Z</time>
      </trkpt>
      <trkpt lat="42.8864040" lon="-7.9631100">
        <ele>461.5</ele>
        <time>2021-10-05T14:30:58Z</time>
      </trkpt>
      <trkpt lat="42.8865740" lon="-7.9633840">
        <ele>459.4</ele>
        <time>2021-10-05T14:31:02Z</time>
      </trkpt>
      <trkpt lat="42.8866050" lon="-7.9634480">
        <ele>458.9</ele>
        <time>2021-10-05T14:31:03Z</time>
      </trkpt>
      <trkpt lat="42.8867040" lon="-7.9640100">
        <ele>454.9</ele>
        <time>2021-10-05T14:31:09Z</time>
      </trkpt>
      <trkpt lat="42.8867560" lon="-7.9641870">
        <ele>453.9</ele>
        <time>2021-10-05T14:31:11Z</time>
      </trkpt>
      <trkpt lat="42.8868720" lon="-7.9644000">
        <ele>452.9</ele>
        <time>2021-10-05T14:31:14Z</time>
      </trkpt>
      <trkpt lat="42.8869170" lon="-7.9644610">
        <ele>452.5</ele>
        <time>2021-10-05T14:31:15Z</time>
      </trkpt>
      <trkpt lat="42.8870050" lon="-7.9645740">
        <ele>451.8</ele>
        <time>2021-10-05T14:31:17Z</time>
      </trkpt>
      <trkpt lat="42.8871710" lon="-7.9648000">
        <ele>450.9</ele>
        <time>2021-10-05T14:31:21Z</time>
      </trkpt>
      <trkpt lat="42.8872120" lon="-7.9648540">
        <ele>450.8</ele>
        <time>2021-10-05T14:31:22Z</time>
      </trkpt>
      <trkpt lat="42.8873440" lon="-7.9650100">
        <ele>450.5</ele>
        <time>2021-10-05T14:31:25Z</time>
      </trkpt>
      <trkpt lat="42.8876780" lon="-7.9654700">
        <ele>449.9</ele>
        <time>2021-10-05T14:31:35Z</time>
      </trkpt>
      <trkpt lat="42.8877280" lon="-7.9655540">
        <ele>449.7</ele>
        <time>2021-10-05T14:31:37Z</time>
      </trkpt>
      <trkpt lat="42.8880310" lon="-7.9659570">
        <ele>448.5</ele>
        <time>2021-10-05T14:31:48Z</time>
      </trkpt>
      <trkpt lat="42.8881090" lon="-7.9660950">
        <ele>447.8</ele>
        <time>2021-10-05T14:31:51Z</time>
      </trkpt>
      <trkpt lat="42.8882870" lon="-7.9663500">
        <ele>446.3</ele>
        <time>2021-10-05T14:31:56Z</time>
      </trkpt>
      <trkpt lat="42.8885920" lon="-7.9665170">
        <ele>444.8</ele>
        <time>2021-10-05T14:32:02Z</time>
      </trkpt>
      <trkpt lat="42.8886410" lon="-7.9665410">
        <ele>444.6</ele>
        <time>2021-10-05T14:32:03Z</time>
      </trkpt>
      <trkpt lat="42.8887430" lon="-7.9665920">
        <ele>444.3</ele>
        <time>2021-10-05T14:32:05Z</time>
      </trkpt>
      <trkpt lat="42.8891360" lon="-7.9667850">
        <ele>443.3</ele>
        <time>2021-10-05T14:32:14Z</time>
      </trkpt>
      <trkpt lat="42.8891750" lon="-7.9668050">
        <ele>443.2</ele>
        <time>2021-10-05T14:32:15Z</time>
      </trkpt>
      <trkpt lat="42.8896630" lon="-7.9671270">
        <ele>439.0</ele>
        <time>2021-10-05T14:32:27Z</time>
      </trkpt>
      <trkpt lat="42.8897280" lon="-7.9672030">
        <ele>439.0</ele>
        <time>2021-10-05T14:32:30Z</time>
      </trkpt>
      <trkpt lat="42.8897480" lon="-7.9672390">
        <ele>439.0</ele>
        <time>2021-10-05T14:32:31Z</time>
      </trkpt>
      <trkpt lat="42.8898200" lon="-7.9673970">
        <ele>438.5</ele>
        <time>2021-10-05T14:32:34Z</time>
      </trkpt>
      <trkpt lat="42.8899390" lon="-7.9677450">
        <ele>438.3</ele>
        <time>2021-10-05T14:32:40Z</time>
      </trkpt>
      <trkpt lat="42.8899570" lon="-7.9678720">
        <ele>438.4</ele>
        <time>2021-10-05T14:32:42Z</time>
      </trkpt>
      <trkpt lat="42.8899790" lon="-7.9681370">
        <ele>438.7</ele>
        <time>2021-10-05T14:32:46Z</time>
      </trkpt>
      <trkpt lat="42.8900170" lon="-7.9686410">
        <ele>439.6</ele>
        <time>2021-10-05T14:32:55Z</time>
      </trkpt>
      <trkpt lat="42.8900220" lon="-7.9686950">
        <ele>439.6</ele>
        <time>2021-10-05T14:32:56Z</time>
      </trkpt>
      <trkpt lat="42.8901590" lon="-7.9689760">
        <ele>440.0</ele>
        <time>2021-10-05T14:33:02Z</time>
      </trkpt>
      <trkpt lat="42.8903760" lon="-7.9692000">
        <ele>440.8</ele>
        <time>2021-10-05T14:33:09Z</time>
      </trkpt>
      <trkpt lat="42.8905230" lon="-7.9693740">
        <ele>442.0</ele>
        <time>2021-10-05T14:33:15Z</time>
      </trkpt>
      <trkpt lat="42.8905840" lon="-7.9694490">
        <ele>442.7</ele>
        <time>2021-10-05T14:33:18Z</time>
      </trkpt>
      <trkpt lat="42.8906510" lon="-7.9695110">
        <ele>443.3</ele>
        <time>2021-10-05T14:33:21Z</time>
      </trkpt>
      <trkpt lat="42.8907260" lon="-7.9695640">
        <ele>444.0</ele>
        <time>2021-10-05T14:33:24Z</time>
      </trkpt>
      <trkpt lat="42.8907720" lon="-7.9695900">
        <ele>444.4</ele>
        <time>2021-10-05T14:33:26Z</time>
      </trkpt>
      <trkpt lat="42.8908620" lon="-7.9696370">
        <ele>445.1</ele>
        <time>2021-10-05T14:33:30Z</time>
      </trkpt>
      <trkpt lat="42.8911430" lon="-7.9699890">
        <ele>447.2</ele>
        <time>2021-10-05T14:33:44Z</time>
      </trkpt>
      <trkpt lat="42.8913950" lon="-7.9703130">
        <ele>448.9</ele>
        <time>2021-10-05T14:33:57Z</time>
      </trkpt>
      <trkpt lat="42.8916300" lon="-7.9706260">
        <ele>450.2</ele>
        <time>2021-10-05T14:34:09Z</time>
      </trkpt>
      <trkpt lat="42.8916940" lon="-7.9707080">
        <ele>450.5</ele>
        <time>2021-10-05T14:34:12Z</time>
      </trkpt>
      <trkpt lat="42.8920850" lon="-7.9712280">
        <ele>452.5</ele>
        <time>2021-10-05T14:34:31Z</time>
      </trkpt>
      <trkpt lat="42.8922420" lon="-7.9714110">
        <ele>453.6</ele>
        <time>2021-10-05T14:34:38Z</time>
      </trkpt>
      <trkpt lat="42.8924270" lon="-7.9715870">
        <ele>454.9</ele>
        <time>2021-10-05T14:34:46Z</time>
      </trkpt>
      <trkpt lat="42.8924920" lon="-7.9716540">
        <ele>455.4</ele>
        <time>2021-10-05T14:34:49Z</time>
      </trkpt>
      <trkpt lat="42.8926660" lon="-7.9718940">
        <ele>456.8</ele>
        <time>2021-10-05T14:34:58Z</time>
      </trkpt>
      <trkpt lat="42.8929520" lon="-7.9722510">
        <ele>459.0</ele>
        <time>2021-10-05T14:35:12Z</time>
      </trkpt>
      <trkpt lat="42.8929730" lon="-7.9722810">
        <ele>459.2</ele>
        <time>2021-10-05T14:35:13Z</time>
      </trkpt>
      <trkpt lat="42.8931420" lon="-7.9725550">
        <ele>460.7</ele>
        <time>2021-10-05T14:35:22Z</time>
      </trkpt>
      <trkpt lat="42.8933060" lon="-7.9728510">
        <ele>461.8</ele>
        <time>2021-10-05T14:35:31Z</time>
      </trkpt>
      <trkpt lat="42.8933910" lon="-7.9729850">
        <ele>462.2</ele>
        <time>2021-10-05T14:35:35Z</time>
      </trkpt>
      <trkpt lat="42.8935030" lon="-7.9731600">
        <ele>462.5</ele>
        <time>2021-10-05T14:35:40Z</time>
      </trkpt>
      <trkpt lat="42.8935740" lon="-7.9732650">
        <ele>462.6</ele>
        <time>2021-10-05T14:35:43Z</time>
      </trkpt>
      <trkpt lat="42.8937020" lon="-7.9733480">
        <ele>462.8</ele>
        <time>2021-10-05T14:35:47Z</time>
      </trkpt>
      <trkpt lat="42.8938030" lon="-7.9733550">
        <ele>462.8</ele>
        <time>2021-10-05T14:35:50Z</time>
      </trkpt>
      <trkpt lat="42.8939520" lon="-7.9735520">
        <ele>462.8</ele>
        <time>2021-10-05T14:35:56Z</time>
      </trkpt>
      <trkpt lat="42.8940340" lon="-7.9737160">
        <ele>462.7</ele>
        <time>2021-10-05T14:36:00Z</time>
      </trkpt>
      <trkpt lat="42.8942280" lon="-7.9741340">
        <ele>462.4</ele>
        <time>2021-10-05T14:36:09Z</time>
      </trkpt>
      <trkpt lat="42.8942770" lon="-7.9743950">
        <ele>462.2</ele>
        <time>2021-10-05T14:36:13Z</time>
      </trkpt>
      <trkpt lat="42.8941770" lon="-7.9746840">
        <ele>462.1</ele>
        <time>2021-10-05T14:36:18Z</time>
      </trkpt>
      <trkpt lat="42.8940160" lon="-7.9749520">
        <ele>461.9</ele>
        <time>2021-10-05T14:36:23Z</time>
      </trkpt>
      <trkpt lat="42.8938640" lon="-7.9752240">
        <ele>461.6</ele>
        <time>2021-10-05T14:36:28Z</time>
      </trkpt>
      <trkpt lat="42.8938390" lon="-7.9752800">
        <ele>461.5</ele>
        <time>2021-10-05T14:36:29Z</time>
      </trkpt>
      <trkpt lat="42.8937720" lon="-7.9754670">
        <ele>461.3</ele>
        <time>2021-10-05T14:36:32Z</time>
      </trkpt>
      <trkpt lat="42.8936860" lon="-7.9757380">
        <ele>461.1</ele>
        <time>2021-10-05T14:36:36Z</time>
      </trkpt>
      <trkpt lat="42.8936120" lon="-7.9759430">
        <ele>460.8</ele>
        <time>2021-10-05T14:36:39Z</time>
      </trkpt>
      <trkpt lat="42.8935980" lon="-7.9760120">
        <ele>460.7</ele>
        <time>2021-10-05T14:36:40Z</time>
      </trkpt>
      <trkpt lat="42.8936070" lon="-7.9761560">
        <ele>460.4</ele>
        <time>2021-10-05T14:36:42Z</time>
      </trkpt>
      <trkpt lat="42.8937580" lon="-7.9763700">
        <ele>459.7</ele>
        <time>2021-10-05T14:36:46Z</time>
      </trkpt>
      <trkpt lat="42.8938470" lon="-7.9764710">
        <ele>459.4</ele>
        <time>2021-10-05T14:36:48Z</time>
      </trkpt>
      <trkpt lat="42.8939340" lon="-7.9765710">
        <ele>459.2</ele>
        <time>2021-10-05T14:36:50Z</time>
      </trkpt>
      <trkpt lat="42.8939770" lon="-7.9766200">
        <ele>459.1</ele>
        <time>2021-10-05T14:36:51Z</time>
      </trkpt>
      <trkpt lat="42.8942010" lon="-7.9768720">
        <ele>458.6</ele>
        <time>2021-10-05T14:36:56Z</time>
      </trkpt>
      <trkpt lat="42.8942460" lon="-7.9769250">
        <ele>458.4</ele>
        <time>2021-10-05T14:36:57Z</time>
      </trkpt>
      <trkpt lat="42.8943320" lon="-7.9770270">
        <ele>458.1</ele>
        <time>2021-10-05T14:36:59Z</time>
      </trkpt>
      <trkpt lat="42.8944590" lon="-7.9771740">
        <ele>457.9</ele>
        <time>2021-10-05T14:37:02Z</time>
      </trkpt>
      <trkpt lat="42.8945460" lon="-7.9772790">
        <ele>457.8</ele>
        <time>2021-10-05T14:37:04Z</time>
      </trkpt>
      <trkpt lat="42.8948480" lon="-7.9776430">
        <ele>457.1</ele>
        <time>2021-10-05T14:37:11Z</time>
      </trkpt>
      <trkpt lat="42.8949390" lon="-7.9777380">
        <ele>456.9</ele>
        <time>2021-10-05T14:37:13Z</time>
      </trkpt>
      <trkpt lat="42.8950670" lon="-7.9778750">
        <ele>456.6</ele>
        <time>2021-10-05T14:37:16Z</time>
      </trkpt>
      <trkpt lat="42.8951120" lon="-7.9779150">
        <ele>456.5</ele>
        <time>2021-10-05T14:37:17Z</time>
      </trkpt>
      <trkpt lat="42.8952000" lon="-7.9780010">
        <ele>456.4</ele>
        <time>2021-10-05T14:37:19Z</time>
      </trkpt>
      <trkpt lat="42.8953370" lon="-7.9781330">
        <ele>456.2</ele>
        <time>2021-10-05T14:37:22Z</time>
      </trkpt>
      <trkpt lat="42.8954760" lon="-7.9782570">
        <ele>456.0</ele>
        <time>2021-10-05T14:37:25Z</time>
      </trkpt>
      <trkpt lat="42.8955210" lon="-7.9783000">
        <ele>455.9</ele>
        <time>2021-10-05T14:37:26Z</time>
      </trkpt>
      <trkpt lat="42.8957480" lon="-7.9785210">
        <ele>455.5</ele>
        <time>2021-10-05T14:37:31Z</time>
      </trkpt>
      <trkpt lat="42.8961960" lon="-7.9790630">
        <ele>454.6</ele>
        <time>2021-10-05T14:37:41Z</time>
      </trkpt>
      <trkpt lat="42.8964010" lon="-7.9793490">
        <ele>454.0</ele>
        <time>2021-10-05T14:37:46Z</time>
      </trkpt>
      <trkpt lat="42.8965170" lon="-7.9795110">
        <ele>453.6</ele>
        <time>2021-10-05T14:37:49Z</time>
      </trkpt>
      <trkpt lat="42.8967520" lon="-7.9798310">
        <ele>452.7</ele>
        <time>2021-10-05T14:37:55Z</time>
      </trkpt>
      <trkpt lat="42.8968850" lon="-7.9799810">
        <ele>452.3</ele>
        <time>2021-10-05T14:37:58Z</time>
      </trkpt>
      <trkpt lat="42.8969780" lon="-7.9800750">
        <ele>451.9</ele>
        <time>2021-10-05T14:38:00Z</time>
      </trkpt>
      <trkpt lat="42.8972980" lon="-7.9803740">
        <ele>451.0</ele>
        <time>2021-10-05T14:38:07Z</time>
      </trkpt>
      <trkpt lat="42.8973440" lon="-7.9804180">
        <ele>450.9</ele>
        <time>2021-10-05T14:38:08Z</time>
      </trkpt>
      <trkpt lat="42.8975210" lon="-7.9805840">
        <ele>450.6</ele>
        <time>2021-10-05T14:38:12Z</time>
      </trkpt>
      <trkpt lat="42.8976480" lon="-7.9807160">
        <ele>450.3</ele>
        <time>2021-10-05T14:38:15Z</time>
      </trkpt>
      <trkpt lat="42.8977520" lon="-7.9808850">
        <ele>450.2</ele>
        <time>2021-10-05T14:38:18Z</time>
      </trkpt>
      <trkpt lat="42.8977830" lon="-7.9809470">
        <ele>450.2</ele>
        <time>2021-10-05T14:38:19Z</time>
      </trkpt>
      <trkpt lat="42.8980920" lon="-7.9815090">
        <ele>450.1</ele>
        <time>2021-10-05T14:38:30Z</time>
      </trkpt>
      <trkpt lat="42.8981980" lon="-7.9816950">
        <ele>450.0</ele>
        <time>2021-10-05T14:38:34Z</time>
      </trkpt>
      <trkpt lat="42.8982230" lon="-7.9817410">
        <ele>450.0</ele>
        <time>2021-10-05T14:38:35Z</time>
      </trkpt>
      <trkpt lat="42.8983710" lon="-7.9820610">
        <ele>449.9</ele>
        <time>2021-10-05T14:38:41Z</time>
      </trkpt>
      <trkpt lat="42.8986130" lon="-7.9827100">
        <ele>450.2</ele>
        <time>2021-10-05T14:38:54Z</time>
      </trkpt>
      <trkpt lat="42.8988770" lon="-7.9832800">
        <ele>450.3</ele>
        <time>2021-10-05T14:39:08Z</time>
      </trkpt>
      <trkpt lat="42.8988470" lon="-7.9831790">
        <ele>450.3</ele>
        <time>2021-10-05T14:42:17Z</time>
      </trkpt>
      <trkpt lat="42.8988550" lon="-7.9831920">
        <ele>450.3</ele>
        <time>2021-10-05T14:42:18Z</time>
      </trkpt>
      <trkpt lat="42.8988620" lon="-7.9832100">
        <ele>450.3</ele>
        <time>2021-10-05T14:42:19Z</time>
      </trkpt>
      <trkpt lat="42.8988830" lon="-7.9832560">
        <ele>450.4</ele>
        <time>2021-10-05T14:42:21Z</time>
      </trkpt>
      <trkpt lat="42.8989140" lon="-7.9833120">
        <ele>450.4</ele>
        <time>2021-10-05T14:42:23Z</time>
      </trkpt>
      <trkpt lat="42.8989970" lon="-7.9834910">
        <ele>450.4</ele>
        <time>2021-10-05T14:42:29Z</time>
      </trkpt>
      <trkpt lat="42.8990550" lon="-7.9836110">
        <ele>450.4</ele>
        <time>2021-10-05T14:42:32Z</time>
      </trkpt>
      <trkpt lat="42.8991380" lon="-7.9837600">
        <ele>450.4</ele>
        <time>2021-10-05T14:42:36Z</time>
      </trkpt>
      <trkpt lat="42.8991920" lon="-7.9838650">
        <ele>450.5</ele>
        <time>2021-10-05T14:42:39Z</time>
      </trkpt>
      <trkpt lat="42.8992500" lon="-7.9839800">
        <ele>450.5</ele>
        <time>2021-10-05T14:42:42Z</time>
      </trkpt>
      <trkpt lat="42.8993150" lon="-7.9840950">
        <ele>450.6</ele>
        <time>2021-10-05T14:42:45Z</time>
      </trkpt>
      <trkpt lat="42.8995110" lon="-7.9844470">
        <ele>450.8</ele>
        <time>2021-10-05T14:42:55Z</time>
      </trkpt>
      <trkpt lat="42.8996270" lon="-7.9846740">
        <ele>451.2</ele>
        <time>2021-10-05T14:43:01Z</time>
      </trkpt>
      <trkpt lat="42.8997000" lon="-7.9848250">
        <ele>451.4</ele>
        <time>2021-10-05T14:43:05Z</time>
      </trkpt>
      <trkpt lat="42.8998910" lon="-7.9852050">
        <ele>452.2</ele>
        <time>2021-10-05T14:43:15Z</time>
      </trkpt>
      <trkpt lat="42.9000520" lon="-7.9855150">
        <ele>453.1</ele>
        <time>2021-10-05T14:43:24Z</time>
      </trkpt>
      <trkpt lat="42.9001080" lon="-7.9856090">
        <ele>453.4</ele>
        <time>2021-10-05T14:43:27Z</time>
      </trkpt>
      <trkpt lat="42.9002010" lon="-7.9857720">
        <ele>453.9</ele>
        <time>2021-10-05T14:43:32Z</time>
      </trkpt>
      <trkpt lat="42.9003020" lon="-7.9859460">
        <ele>454.4</ele>
        <time>2021-10-05T14:43:37Z</time>
      </trkpt>
      <trkpt lat="42.9005690" lon="-7.9862000">
        <ele>455.4</ele>
        <time>2021-10-05T14:43:46Z</time>
      </trkpt>
      <trkpt lat="42.9009250" lon="-7.9868180">
        <ele>456.0</ele>
        <time>2021-10-05T14:44:02Z</time>
      </trkpt>
      <trkpt lat="42.9010910" lon="-7.9871300">
        <ele>455.2</ele>
        <time>2021-10-05T14:44:08Z</time>
      </trkpt>
      <trkpt lat="42.9011790" lon="-7.9873050">
        <ele>454.7</ele>
        <time>2021-10-05T14:44:11Z</time>
      </trkpt>
      <trkpt lat="42.9013430" lon="-7.9876210">
        <ele>453.7</ele>
        <time>2021-10-05T14:44:16Z</time>
      </trkpt>
      <trkpt lat="42.9013760" lon="-7.9876880">
        <ele>453.5</ele>
        <time>2021-10-05T14:44:17Z</time>
      </trkpt>
      <trkpt lat="42.9014470" lon="-7.9878190">
        <ele>453.1</ele>
        <time>2021-10-05T14:44:19Z</time>
      </trkpt>
      <trkpt lat="42.9015150" lon="-7.9879440">
        <ele>452.7</ele>
        <time>2021-10-05T14:44:21Z</time>
      </trkpt>
      <trkpt lat="42.9015500" lon="-7.9880060">
        <ele>452.5</ele>
        <time>2021-10-05T14:44:22Z</time>
      </trkpt>
      <trkpt lat="42.9016160" lon="-7.9881380">
        <ele>452.2</ele>
        <time>2021-10-05T14:44:24Z</time>
      </trkpt>
      <trkpt lat="42.9016830" lon="-7.9882730">
        <ele>451.8</ele>
        <time>2021-10-05T14:44:26Z</time>
      </trkpt>
      <trkpt lat="42.9018920" lon="-7.9886600">
        <ele>450.6</ele>
        <time>2021-10-05T14:44:32Z</time>
      </trkpt>
      <trkpt lat="42.9021720" lon="-7.9892470">
        <ele>448.1</ele>
        <time>2021-10-05T14:44:40Z</time>
      </trkpt>
      <trkpt lat="42.9022570" lon="-7.9894050">
        <ele>447.3</ele>
        <time>2021-10-05T14:44:42Z</time>
      </trkpt>
      <trkpt lat="42.9026110" lon="-7.9900460">
        <ele>444.4</ele>
        <time>2021-10-05T14:44:50Z</time>
      </trkpt>
      <trkpt lat="42.9026930" lon="-7.9902130">
        <ele>443.8</ele>
        <time>2021-10-05T14:44:52Z</time>
      </trkpt>
      <trkpt lat="42.9028120" lon="-7.9908280">
        <ele>443.0</ele>
        <time>2021-10-05T14:44:59Z</time>
      </trkpt>
      <trkpt lat="42.9027710" lon="-7.9910950">
        <ele>442.8</ele>
        <time>2021-10-05T14:45:03Z</time>
      </trkpt>
      <trkpt lat="42.9027770" lon="-7.9912730">
        <ele>442.8</ele>
        <time>2021-10-05T14:45:06Z</time>
      </trkpt>
      <trkpt lat="42.9028110" lon="-7.9913780">
        <ele>442.7</ele>
        <time>2021-10-05T14:45:08Z</time>
      </trkpt>
      <trkpt lat="42.9028320" lon="-7.9914260">
        <ele>442.7</ele>
        <time>2021-10-05T14:45:09Z</time>
      </trkpt>
      <trkpt lat="42.9028770" lon="-7.9915210">
        <ele>442.7</ele>
        <time>2021-10-05T14:45:11Z</time>
      </trkpt>
      <trkpt lat="42.9029160" lon="-7.9916360">
        <ele>442.6</ele>
        <time>2021-10-05T14:45:13Z</time>
      </trkpt>
      <trkpt lat="42.9029530" lon="-7.9917480">
        <ele>442.6</ele>
        <time>2021-10-05T14:45:15Z</time>
      </trkpt>
      <trkpt lat="42.9029920" lon="-7.9918600">
        <ele>442.6</ele>
        <time>2021-10-05T14:45:17Z</time>
      </trkpt>
      <trkpt lat="42.9031070" lon="-7.9920690">
        <ele>442.6</ele>
        <time>2021-10-05T14:45:21Z</time>
      </trkpt>
      <trkpt lat="42.9031620" lon="-7.9921810">
        <ele>442.6</ele>
        <time>2021-10-05T14:45:23Z</time>
      </trkpt>
      <trkpt lat="42.9032270" lon="-7.9922810">
        <ele>442.6</ele>
        <time>2021-10-05T14:45:25Z</time>
      </trkpt>
      <trkpt lat="42.9034690" lon="-7.9926380">
        <ele>442.6</ele>
        <time>2021-10-05T14:45:32Z</time>
      </trkpt>
      <trkpt lat="42.9036760" lon="-7.9929340">
        <ele>442.8</ele>
        <time>2021-10-05T14:45:38Z</time>
      </trkpt>
      <trkpt lat="42.9037000" lon="-7.9929880">
        <ele>442.9</ele>
        <time>2021-10-05T14:45:39Z</time>
      </trkpt>
      <trkpt lat="42.9037770" lon="-7.9932130">
        <ele>443.2</ele>
        <time>2021-10-05T14:45:43Z</time>
      </trkpt>
      <trkpt lat="42.9038810" lon="-7.9934960">
        <ele>444.0</ele>
        <time>2021-10-05T14:45:49Z</time>
      </trkpt>
      <trkpt lat="42.9039710" lon="-7.9937280">
        <ele>444.8</ele>
        <time>2021-10-05T14:45:54Z</time>
      </trkpt>
      <trkpt lat="42.9040360" lon="-7.9939010">
        <ele>445.6</ele>
        <time>2021-10-05T14:45:58Z</time>
      </trkpt>
      <trkpt lat="42.9040490" lon="-7.9939360">
        <ele>445.8</ele>
        <time>2021-10-05T14:45:59Z</time>
      </trkpt>
      <trkpt lat="42.9040890" lon="-7.9940460">
        <ele>446.5</ele>
        <time>2021-10-05T14:46:02Z</time>
      </trkpt>
      <trkpt lat="42.9041230" lon="-7.9941350">
        <ele>447.2</ele>
        <time>2021-10-05T14:46:04Z</time>
      </trkpt>
      <trkpt lat="42.9041590" lon="-7.9942220">
        <ele>447.8</ele>
        <time>2021-10-05T14:46:06Z</time>
      </trkpt>
      <trkpt lat="42.9041820" lon="-7.9943370">
        <ele>448.5</ele>
        <time>2021-10-05T14:46:08Z</time>
      </trkpt>
      <trkpt lat="42.9041960" lon="-7.9944460">
        <ele>448.9</ele>
        <time>2021-10-05T14:46:10Z</time>
      </trkpt>
      <trkpt lat="42.9042420" lon="-7.9946370">
        <ele>449.5</ele>
        <time>2021-10-05T14:46:14Z</time>
      </trkpt>
      <trkpt lat="42.9044030" lon="-7.9948580">
        <ele>450.1</ele>
        <time>2021-10-05T14:46:21Z</time>
      </trkpt>
      <trkpt lat="42.9044430" lon="-7.9949050">
        <ele>450.1</ele>
        <time>2021-10-05T14:46:23Z</time>
      </trkpt>
      <trkpt lat="42.9045110" lon="-7.9949960">
        <ele>450.0</ele>
        <time>2021-10-05T14:46:26Z</time>
      </trkpt>
      <trkpt lat="42.9046000" lon="-7.9950950">
        <ele>449.7</ele>
        <time>2021-10-05T14:46:29Z</time>
      </trkpt>
      <trkpt lat="42.9046980" lon="-7.9951980">
        <ele>449.4</ele>
        <time>2021-10-05T14:46:32Z</time>
      </trkpt>
      <trkpt lat="42.9047980" lon="-7.9953050">
        <ele>449.0</ele>
        <time>2021-10-05T14:46:35Z</time>
      </trkpt>
      <trkpt lat="42.9048590" lon="-7.9953700">
        <ele>448.8</ele>
        <time>2021-10-05T14:46:37Z</time>
      </trkpt>
      <trkpt lat="42.9049530" lon="-7.9954760">
        <ele>448.6</ele>
        <time>2021-10-05T14:46:40Z</time>
      </trkpt>
      <trkpt lat="42.9050240" lon="-7.9955620">
        <ele>448.5</ele>
        <time>2021-10-05T14:46:43Z</time>
      </trkpt>
      <trkpt lat="42.9050720" lon="-7.9956160">
        <ele>448.5</ele>
        <time>2021-10-05T14:46:45Z</time>
      </trkpt>
      <trkpt lat="42.9055410" lon="-7.9960150">
        <ele>448.5</ele>
        <time>2021-10-05T14:47:04Z</time>
      </trkpt>
      <trkpt lat="42.9055820" lon="-7.9960350">
        <ele>448.3</ele>
        <time>2021-10-05T14:47:06Z</time>
      </trkpt>
      <trkpt lat="42.9056100" lon="-7.9960510">
        <ele>448.2</ele>
        <time>2021-10-05T14:47:07Z</time>
      </trkpt>
      <trkpt lat="42.9056750" lon="-7.9960840">
        <ele>447.5</ele>
        <time>2021-10-05T14:47:09Z</time>
      </trkpt>
      <trkpt lat="42.9059100" lon="-7.9962350">
        <ele>444.9</ele>
        <time>2021-10-05T14:47:16Z</time>
      </trkpt>
      <trkpt lat="42.9061330" lon="-7.9964170">
        <ele>441.9</ele>
        <time>2021-10-05T14:47:22Z</time>
      </trkpt>
      <trkpt lat="42.9063800" lon="-7.9965540">
        <ele>439.4</ele>
        <time>2021-10-05T14:47:27Z</time>
      </trkpt>
      <trkpt lat="42.9064860" lon="-7.9965990">
        <ele>438.4</ele>
        <time>2021-10-05T14:47:29Z</time>
      </trkpt>
      <trkpt lat="42.9066580" lon="-7.9966240">
        <ele>436.7</ele>
        <time>2021-10-05T14:47:32Z</time>
      </trkpt>
      <trkpt lat="42.9067770" lon="-7.9966470">
        <ele>435.4</ele>
        <time>2021-10-05T14:47:34Z</time>
      </trkpt>
      <trkpt lat="42.9072520" lon="-7.9968990">
        <ele>431.2</ele>
        <time>2021-10-05T14:47:43Z</time>
      </trkpt>
      <trkpt lat="42.9074930" lon="-7.9970240">
        <ele>428.0</ele>
        <time>2021-10-05T14:47:48Z</time>
      </trkpt>
      <trkpt lat="42.9076450" lon="-7.9971650">
        <ele>425.1</ele>
        <time>2021-10-05T14:47:51Z</time>
      </trkpt>
      <trkpt lat="42.9077840" lon="-7.9972790">
        <ele>422.5</ele>
        <time>2021-10-05T14:47:54Z</time>
      </trkpt>
      <trkpt lat="42.9080290" lon="-7.9976040">
        <ele>417.0</ele>
        <time>2021-10-05T14:48:03Z</time>
      </trkpt>
      <trkpt lat="42.9080850" lon="-7.9976090">
        <ele>416.2</ele>
        <time>2021-10-05T14:48:06Z</time>
      </trkpt>
      <trkpt lat="42.9081010" lon="-7.9976070">
        <ele>415.9</ele>
        <time>2021-10-05T14:48:07Z</time>
      </trkpt>
      <trkpt lat="42.9081570" lon="-7.9975550">
        <ele>412.4</ele>
        <time>2021-10-05T14:48:12Z</time>
      </trkpt>
      <trkpt lat="42.9082150" lon="-7.9974250">
        <ele>410.4</ele>
        <time>2021-10-05T14:48:16Z</time>
      </trkpt>
      <trkpt lat="42.9082600" lon="-7.9973220">
        <ele>409.9</ele>
        <time>2021-10-05T14:48:18Z</time>
      </trkpt>
      <trkpt lat="42.9084090" lon="-7.9970830">
        <ele>409.3</ele>
        <time>2021-10-05T14:48:23Z</time>
      </trkpt>
      <trkpt lat="42.9084720" lon="-7.9970030">
        <ele>409.2</ele>
        <time>2021-10-05T14:48:25Z</time>
      </trkpt>
      <trkpt lat="42.9085240" lon="-7.9969090">
        <ele>409.0</ele>
        <time>2021-10-05T14:48:27Z</time>
      </trkpt>
      <trkpt lat="42.9085550" lon="-7.9967980">
        <ele>409.0</ele>
        <time>2021-10-05T14:48:29Z</time>
      </trkpt>
      <trkpt lat="42.9085670" lon="-7.9967370">
        <ele>408.9</ele>
        <time>2021-10-05T14:48:30Z</time>
      </trkpt>
      <trkpt lat="42.9085990" lon="-7.9965370">
        <ele>408.8</ele>
        <time>2021-10-05T14:48:33Z</time>
      </trkpt>
      <trkpt lat="42.9086200" lon="-7.9964020">
        <ele>408.8</ele>
        <time>2021-10-05T14:48:35Z</time>
      </trkpt>
      <trkpt lat="42.9086350" lon="-7.9963400">
        <ele>408.8</ele>
        <time>2021-10-05T14:48:36Z</time>
      </trkpt>
      <trkpt lat="42.9086640" lon="-7.9962290">
        <ele>408.9</ele>
        <time>2021-10-05T14:48:38Z</time>
      </trkpt>
      <trkpt lat="42.9086780" lon="-7.9961700">
        <ele>408.9</ele>
        <time>2021-10-05T14:48:39Z</time>
      </trkpt>
      <trkpt lat="42.9086950" lon="-7.9961120">
        <ele>408.9</ele>
        <time>2021-10-05T14:48:40Z</time>
      </trkpt>
      <trkpt lat="42.9087140" lon="-7.9960560">
        <ele>409.0</ele>
        <time>2021-10-05T14:48:41Z</time>
      </trkpt>
      <trkpt lat="42.9087800" lon="-7.9959040">
        <ele>409.0</ele>
        <time>2021-10-05T14:48:44Z</time>
      </trkpt>
      <trkpt lat="42.9089210" lon="-7.9956030">
        <ele>409.2</ele>
        <time>2021-10-05T14:48:50Z</time>
      </trkpt>
      <trkpt lat="42.9091270" lon="-7.9952090">
        <ele>409.5</ele>
        <time>2021-10-05T14:48:58Z</time>
      </trkpt>
      <trkpt lat="42.9091900" lon="-7.9947970">
        <ele>410.1</ele>
        <time>2021-10-05T14:49:05Z</time>
      </trkpt>
      <trkpt lat="42.9092390" lon="-7.9945270">
        <ele>410.4</ele>
        <time>2021-10-05T14:49:10Z</time>
      </trkpt>
      <trkpt lat="42.9092970" lon="-7.9943600">
        <ele>410.7</ele>
        <time>2021-10-05T14:49:13Z</time>
      </trkpt>
      <trkpt lat="42.9093700" lon="-7.9941910">
        <ele>411.3</ele>
        <time>2021-10-05T14:49:16Z</time>
      </trkpt>
      <trkpt lat="42.9093980" lon="-7.9941360">
        <ele>411.5</ele>
        <time>2021-10-05T14:49:17Z</time>
      </trkpt>
      <trkpt lat="42.9094830" lon="-7.9939950">
        <ele>412.4</ele>
        <time>2021-10-05T14:49:20Z</time>
      </trkpt>
      <trkpt lat="42.9095540" lon="-7.9938980">
        <ele>413.1</ele>
        <time>2021-10-05T14:49:23Z</time>
      </trkpt>
      <trkpt lat="42.9095780" lon="-7.9938900">
        <ele>413.2</ele>
        <time>2021-10-05T14:49:24Z</time>
      </trkpt>
      <trkpt lat="42.9096790" lon="-7.9939710">
        <ele>413.2</ele>
        <time>2021-10-05T14:49:28Z</time>
      </trkpt>
      <trkpt lat="42.9098110" lon="-7.9940970">
        <ele>413.3</ele>
        <time>2021-10-05T14:49:32Z</time>
      </trkpt>
      <trkpt lat="42.9098500" lon="-7.9941220">
        <ele>413.3</ele>
        <time>2021-10-05T14:49:33Z</time>
      </trkpt>
      <trkpt lat="42.9100260" lon="-7.9941820">
        <ele>413.3</ele>
        <time>2021-10-05T14:49:37Z</time>
      </trkpt>
      <trkpt lat="42.9100740" lon="-7.9941870">
        <ele>413.3</ele>
        <time>2021-10-05T14:49:38Z</time>
      </trkpt>
      <trkpt lat="42.9103710" lon="-7.9941790">
        <ele>413.4</ele>
        <time>2021-10-05T14:49:44Z</time>
      </trkpt>
      <trkpt lat="42.9105160" lon="-7.9941840">
        <ele>413.5</ele>
        <time>2021-10-05T14:49:47Z</time>
      </trkpt>
      <trkpt lat="42.9105610" lon="-7.9941920">
        <ele>413.5</ele>
        <time>2021-10-05T14:49:48Z</time>
      </trkpt>
      <trkpt lat="42.9107060" lon="-7.9942970">
        <ele>413.6</ele>
        <time>2021-10-05T14:49:52Z</time>
      </trkpt>
      <trkpt lat="42.9107380" lon="-7.9943380">
        <ele>413.6</ele>
        <time>2021-10-05T14:49:53Z</time>
      </trkpt>
      <trkpt lat="42.9108140" lon="-7.9945530">
        <ele>413.6</ele>
        <time>2021-10-05T14:49:57Z</time>
      </trkpt>
      <trkpt lat="42.9108310" lon="-7.9946670">
        <ele>413.5</ele>
        <time>2021-10-05T14:49:59Z</time>
      </trkpt>
      <trkpt lat="42.9108660" lon="-7.9949470">
        <ele>413.4</ele>
        <time>2021-10-05T14:50:04Z</time>
      </trkpt>
      <trkpt lat="42.9108700" lon="-7.9951290">
        <ele>413.4</ele>
        <time>2021-10-05T14:50:07Z</time>
      </trkpt>
      <trkpt lat="42.9108710" lon="-7.9951880">
        <ele>413.4</ele>
        <time>2021-10-05T14:50:08Z</time>
      </trkpt>
      <trkpt lat="42.9108830" lon="-7.9959170">
        <ele>413.5</ele>
        <time>2021-10-05T14:50:19Z</time>
      </trkpt>
      <trkpt lat="42.9108810" lon="-7.9962490">
        <ele>413.8</ele>
        <time>2021-10-05T14:50:24Z</time>
      </trkpt>
      <trkpt lat="42.9108890" lon="-7.9963770">
        <ele>413.9</ele>
        <time>2021-10-05T14:50:26Z</time>
      </trkpt>
      <trkpt lat="42.9109320" lon="-7.9970520">
        <ele>414.9</ele>
        <time>2021-10-05T14:50:37Z</time>
      </trkpt>
      <trkpt lat="42.9109370" lon="-7.9972260">
        <ele>415.3</ele>
        <time>2021-10-05T14:50:40Z</time>
      </trkpt>
      <trkpt lat="42.9109640" lon="-7.9974610">
        <ele>415.8</ele>
        <time>2021-10-05T14:50:44Z</time>
      </trkpt>
      <trkpt lat="42.9109870" lon="-7.9977160">
        <ele>416.4</ele>
        <time>2021-10-05T14:50:48Z</time>
      </trkpt>
      <trkpt lat="42.9110040" lon="-7.9979040">
        <ele>416.8</ele>
        <time>2021-10-05T14:50:51Z</time>
      </trkpt>
      <trkpt lat="42.9110110" lon="-7.9979650">
        <ele>416.9</ele>
        <time>2021-10-05T14:50:52Z</time>
      </trkpt>
      <trkpt lat="42.9110460" lon="-7.9982540">
        <ele>417.5</ele>
        <time>2021-10-05T14:50:57Z</time>
      </trkpt>
      <trkpt lat="42.9110730" lon="-7.9984270">
        <ele>417.9</ele>
        <time>2021-10-05T14:51:00Z</time>
      </trkpt>
      <trkpt lat="42.9111160" lon="-7.9986510">
        <ele>418.4</ele>
        <time>2021-10-05T14:51:04Z</time>
      </trkpt>
      <trkpt lat="42.9111130" lon="-7.9987850">
        <ele>418.7</ele>
        <time>2021-10-05T14:51:07Z</time>
      </trkpt>
      <trkpt lat="42.9110320" lon="-7.9987910">
        <ele>418.7</ele>
        <time>2021-10-05T14:51:10Z</time>
      </trkpt>
      <trkpt lat="42.9109580" lon="-7.9987750">
        <ele>418.6</ele>
        <time>2021-10-05T14:51:12Z</time>
      </trkpt>
      <trkpt lat="42.9107880" lon="-7.9988000">
        <ele>418.7</ele>
        <time>2021-10-05T14:51:16Z</time>
      </trkpt>
      <trkpt lat="42.9107060" lon="-7.9988200">
        <ele>418.8</ele>
        <time>2021-10-05T14:51:18Z</time>
      </trkpt>
      <trkpt lat="42.9105540" lon="-7.9988530">
        <ele>418.7</ele>
        <time>2021-10-05T14:51:22Z</time>
      </trkpt>
      <trkpt lat="42.9104360" lon="-7.9988570">
        <ele>418.5</ele>
        <time>2021-10-05T14:51:25Z</time>
      </trkpt>
      <trkpt lat="42.9103490" lon="-7.9988510">
        <ele>418.2</ele>
        <time>2021-10-05T14:51:27Z</time>
      </trkpt>
      <trkpt lat="42.9102470" lon="-7.9988500">
        <ele>417.8</ele>
        <time>2021-10-05T14:51:29Z</time>
      </trkpt>
      <trkpt lat="42.9101370" lon="-7.9988570">
        <ele>417.3</ele>
        <time>2021-10-05T14:51:31Z</time>
      </trkpt>
      <trkpt lat="42.9099090" lon="-7.9989590">
        <ele>416.2</ele>
        <time>2021-10-05T14:51:35Z</time>
      </trkpt>
      <trkpt lat="42.9097900" lon="-7.9990240">
        <ele>415.5</ele>
        <time>2021-10-05T14:51:37Z</time>
      </trkpt>
      <trkpt lat="42.9097240" lon="-7.9990430">
        <ele>415.1</ele>
        <time>2021-10-05T14:51:38Z</time>
      </trkpt>
      <trkpt lat="42.9095110" lon="-7.9990580">
        <ele>413.7</ele>
        <time>2021-10-05T14:51:41Z</time>
      </trkpt>
      <trkpt lat="42.9093620" lon="-7.9990800">
        <ele>412.8</ele>
        <time>2021-10-05T14:51:43Z</time>
      </trkpt>
      <trkpt lat="42.9092270" lon="-7.9991200">
        <ele>411.9</ele>
        <time>2021-10-05T14:51:45Z</time>
      </trkpt>
      <trkpt lat="42.9091240" lon="-7.9991630">
        <ele>411.3</ele>
        <time>2021-10-05T14:51:47Z</time>
      </trkpt>
      <trkpt lat="42.9091030" lon="-7.9993240">
        <ele>411.2</ele>
        <time>2021-10-05T14:51:52Z</time>
      </trkpt>
      <trkpt lat="42.9091340" lon="-7.9994080">
        <ele>411.1</ele>
        <time>2021-10-05T14:51:54Z</time>
      </trkpt>
      <trkpt lat="42.9092290" lon="-7.9996590">
        <ele>410.6</ele>
        <time>2021-10-05T14:51:59Z</time>
      </trkpt>
      <trkpt lat="42.9092690" lon="-7.9998350">
        <ele>410.2</ele>
        <time>2021-10-05T14:52:02Z</time>
      </trkpt>
      <trkpt lat="42.9092760" lon="-7.9998960">
        <ele>410.2</ele>
        <time>2021-10-05T14:52:03Z</time>
      </trkpt>
      <trkpt lat="42.9092820" lon="-8.0000650">
        <ele>410.1</ele>
        <time>2021-10-05T14:52:06Z</time>
      </trkpt>
      <trkpt lat="42.9092670" lon="-8.0002220">
        <ele>410.0</ele>
        <time>2021-10-05T14:52:09Z</time>
      </trkpt>
      <trkpt lat="42.9092460" lon="-8.0004790">
        <ele>410.1</ele>
        <time>2021-10-05T14:52:14Z</time>
      </trkpt>
      <trkpt lat="42.9092440" lon="-8.0006170">
        <ele>410.3</ele>
        <time>2021-10-05T14:52:17Z</time>
      </trkpt>
      <trkpt lat="42.9092480" lon="-8.0010110">
        <ele>411.4</ele>
        <time>2021-10-05T14:52:26Z</time>
      </trkpt>
      <trkpt lat="42.9092660" lon="-8.0011290">
        <ele>411.8</ele>
        <time>2021-10-05T14:52:29Z</time>
      </trkpt>
      <trkpt lat="42.9092660" lon="-8.0012170">
        <ele>412.1</ele>
        <time>2021-10-05T14:52:31Z</time>
      </trkpt>
      <trkpt lat="42.9092660" lon="-8.0013130">
        <ele>412.4</ele>
        <time>2021-10-05T14:52:33Z</time>
      </trkpt>
      <trkpt lat="42.9092540" lon="-8.0014090">
        <ele>412.7</ele>
        <time>2021-10-05T14:52:35Z</time>
      </trkpt>
      <trkpt lat="42.9092110" lon="-8.0015560">
        <ele>412.9</ele>
        <time>2021-10-05T14:52:38Z</time>
      </trkpt>
      <trkpt lat="42.9091000" lon="-8.0018760">
        <ele>412.6</ele>
        <time>2021-10-05T14:52:44Z</time>
      </trkpt>
      <trkpt lat="42.9090780" lon="-8.0020040">
        <ele>412.6</ele>
        <time>2021-10-05T14:52:46Z</time>
      </trkpt>
      <trkpt lat="42.9091090" lon="-8.0022820">
        <ele>412.4</ele>
        <time>2021-10-05T14:52:50Z</time>
      </trkpt>
      <trkpt lat="42.9091740" lon="-8.0024750">
        <ele>412.4</ele>
        <time>2021-10-05T14:52:53Z</time>
      </trkpt>
      <trkpt lat="42.9092290" lon="-8.0025950">
        <ele>412.4</ele>
        <time>2021-10-05T14:52:55Z</time>
      </trkpt>
      <trkpt lat="42.9093060" lon="-8.0026910">
        <ele>412.5</ele>
        <time>2021-10-05T14:52:57Z</time>
      </trkpt>
      <trkpt lat="42.9093930" lon="-8.0027660">
        <ele>412.6</ele>
        <time>2021-10-05T14:52:59Z</time>
      </trkpt>
      <trkpt lat="42.9094350" lon="-8.0028010">
        <ele>412.7</ele>
        <time>2021-10-05T14:53:00Z</time>
      </trkpt>
      <trkpt lat="42.9094750" lon="-8.0028390">
        <ele>412.9</ele>
        <time>2021-10-05T14:53:01Z</time>
      </trkpt>
      <trkpt lat="42.9096200" lon="-8.0029960">
        <ele>413.6</ele>
        <time>2021-10-05T14:53:05Z</time>
      </trkpt>
      <trkpt lat="42.9097140" lon="-8.0031240">
        <ele>414.3</ele>
        <time>2021-10-05T14:53:08Z</time>
      </trkpt>
      <trkpt lat="42.9097420" lon="-8.0031700">
        <ele>414.5</ele>
        <time>2021-10-05T14:53:09Z</time>
      </trkpt>
      <trkpt lat="42.9098640" lon="-8.0033560">
        <ele>415.7</ele>
        <time>2021-10-05T14:53:13Z</time>
      </trkpt>
      <trkpt lat="42.9099570" lon="-8.0034940">
        <ele>416.9</ele>
        <time>2021-10-05T14:53:16Z</time>
      </trkpt>
      <trkpt lat="42.9100320" lon="-8.0036270">
        <ele>418.1</ele>
        <time>2021-10-05T14:53:19Z</time>
      </trkpt>
      <trkpt lat="42.9100840" lon="-8.0037140">
        <ele>418.7</ele>
        <time>2021-10-05T14:53:21Z</time>
      </trkpt>
      <trkpt lat="42.9101620" lon="-8.0038450">
        <ele>419.6</ele>
        <time>2021-10-05T14:53:24Z</time>
      </trkpt>
      <trkpt lat="42.9101850" lon="-8.0038930">
        <ele>419.9</ele>
        <time>2021-10-05T14:53:25Z</time>
      </trkpt>
      <trkpt lat="42.9102490" lon="-8.0040410">
        <ele>420.6</ele>
        <time>2021-10-05T14:53:28Z</time>
      </trkpt>
      <trkpt lat="42.9104380" lon="-8.0044560">
        <ele>422.5</ele>
        <time>2021-10-05T14:53:37Z</time>
      </trkpt>
      <trkpt lat="42.9105100" lon="-8.0046370">
        <ele>423.3</ele>
        <time>2021-10-05T14:53:41Z</time>
      </trkpt>
      <trkpt lat="42.9106010" lon="-8.0048590">
        <ele>424.5</ele>
        <time>2021-10-05T14:53:46Z</time>
      </trkpt>
      <trkpt lat="42.9107040" lon="-8.0051140">
        <ele>425.9</ele>
        <time>2021-10-05T14:53:52Z</time>
      </trkpt>
      <trkpt lat="42.9107690" lon="-8.0052800">
        <ele>426.8</ele>
        <time>2021-10-05T14:53:56Z</time>
      </trkpt>
      <trkpt lat="42.9108460" lon="-8.0054760">
        <ele>427.8</ele>
        <time>2021-10-05T14:54:01Z</time>
      </trkpt>
      <trkpt lat="42.9109080" lon="-8.0056310">
        <ele>428.6</ele>
        <time>2021-10-05T14:54:05Z</time>
      </trkpt>
      <trkpt lat="42.9109690" lon="-8.0057890">
        <ele>429.4</ele>
        <time>2021-10-05T14:54:09Z</time>
      </trkpt>
      <trkpt lat="42.9110600" lon="-8.0060410">
        <ele>430.5</ele>
        <time>2021-10-05T14:54:15Z</time>
      </trkpt>
      <trkpt lat="42.9111640" lon="-8.0062920">
        <ele>431.5</ele>
        <time>2021-10-05T14:54:21Z</time>
      </trkpt>
      <trkpt lat="42.9112660" lon="-8.0065430">
        <ele>432.6</ele>
        <time>2021-10-05T14:54:27Z</time>
      </trkpt>
      <trkpt lat="42.9114030" lon="-8.0068250">
        <ele>434.0</ele>
        <time>2021-10-05T14:54:35Z</time>
      </trkpt>
      <trkpt lat="42.9114200" lon="-8.0068690">
        <ele>434.1</ele>
        <time>2021-10-05T14:54:36Z</time>
      </trkpt>
      <trkpt lat="42.9115160" lon="-8.0071250">
        <ele>434.9</ele>
        <time>2021-10-05T14:54:42Z</time>
      </trkpt>
      <trkpt lat="42.9116140" lon="-8.0073640">
        <ele>435.5</ele>
        <time>2021-10-05T14:54:48Z</time>
      </trkpt>
      <trkpt lat="42.9116530" lon="-8.0074920">
        <ele>435.8</ele>
        <time>2021-10-05T14:54:51Z</time>
      </trkpt>
      <trkpt lat="42.9117200" lon="-8.0077080">
        <ele>436.4</ele>
        <time>2021-10-05T14:54:56Z</time>
      </trkpt>
      <trkpt lat="42.9117580" lon="-8.0078310">
        <ele>436.7</ele>
        <time>2021-10-05T14:54:59Z</time>
      </trkpt>
      <trkpt lat="42.9117810" lon="-8.0079100">
        <ele>436.9</ele>
        <time>2021-10-05T14:55:01Z</time>
      </trkpt>
      <trkpt lat="42.9118240" lon="-8.0080680">
        <ele>437.3</ele>
        <time>2021-10-05T14:55:05Z</time>
      </trkpt>
      <trkpt lat="42.9118850" lon="-8.0082490">
        <ele>437.8</ele>
        <time>2021-10-05T14:55:10Z</time>
      </trkpt>
      <trkpt lat="42.9119320" lon="-8.0083780">
        <ele>438.1</ele>
        <time>2021-10-05T14:55:14Z</time>
      </trkpt>
      <trkpt lat="42.9119510" lon="-8.0084600">
        <ele>438.2</ele>
        <time>2021-10-05T14:55:17Z</time>
      </trkpt>
      <trkpt lat="42.9119550" lon="-8.0084870">
        <ele>438.2</ele>
        <time>2021-10-05T14:55:18Z</time>
      </trkpt>
      <trkpt lat="42.9119790" lon="-8.0086480">
        <ele>438.5</ele>
        <time>2021-10-05T14:55:23Z</time>
      </trkpt>
      <trkpt lat="42.9120540" lon="-8.0093740">
        <ele>441.4</ele>
        <time>2021-10-05T14:55:43Z</time>
      </trkpt>
      <trkpt lat="42.9122390" lon="-8.0099080">
        <ele>442.9</ele>
        <time>2021-10-05T14:55:58Z</time>
      </trkpt>
      <trkpt lat="42.9123180" lon="-8.0101280">
        <ele>443.4</ele>
        <time>2021-10-05T14:56:04Z</time>
      </trkpt>
      <trkpt lat="42.9126050" lon="-8.0107920">
        <ele>445.1</ele>
        <time>2021-10-05T14:56:23Z</time>
      </trkpt>
      <trkpt lat="42.9127750" lon="-8.0111050">
        <ele>445.8</ele>
        <time>2021-10-05T14:56:33Z</time>
      </trkpt>
      <trkpt lat="42.9131280" lon="-8.0113320">
        <ele>447.6</ele>
        <time>2021-10-05T14:56:47Z</time>
      </trkpt>
      <trkpt lat="42.9131530" lon="-8.0113430">
        <ele>447.9</ele>
        <time>2021-10-05T14:56:48Z</time>
      </trkpt>
      <trkpt lat="42.9132370" lon="-8.0114060">
        <ele>448.8</ele>
        <time>2021-10-05T14:56:53Z</time>
      </trkpt>
      <trkpt lat="42.9132700" lon="-8.0114450">
        <ele>449.2</ele>
        <time>2021-10-05T14:56:55Z</time>
      </trkpt>
      <trkpt lat="42.9132970" lon="-8.0114970">
        <ele>449.3</ele>
        <time>2021-10-05T14:56:58Z</time>
      </trkpt>
      <trkpt lat="42.9133190" lon="-8.0115820">
        <ele>449.6</ele>
        <time>2021-10-05T14:57:02Z</time>
      </trkpt>
      <trkpt lat="42.9133280" lon="-8.0116230">
        <ele>449.8</ele>
        <time>2021-10-05T14:57:04Z</time>
      </trkpt>
      <trkpt lat="42.9133500" lon="-8.0116900">
        <ele>450.0</ele>
        <time>2021-10-05T14:57:07Z</time>
      </trkpt>
      <trkpt lat="42.9134040" lon="-8.0117890">
        <ele>450.4</ele>
        <time>2021-10-05T14:57:12Z</time>
      </trkpt>
      <trkpt lat="42.9134060" lon="-8.0117930">
        <ele>450.4</ele>
        <time>2021-10-05T14:57:13Z</time>
      </trkpt>
      <trkpt lat="42.9134570" lon="-8.0119780">
        <ele>451.0</ele>
        <time>2021-10-05T14:59:13Z</time>
      </trkpt>
      <trkpt lat="42.9134660" lon="-8.0120110">
        <ele>451.1</ele>
        <time>2021-10-05T14:59:14Z</time>
      </trkpt>
      <trkpt lat="42.9135790" lon="-8.0123960">
        <ele>452.2</ele>
        <time>2021-10-05T14:59:24Z</time>
      </trkpt>
      <trkpt lat="42.9136300" lon="-8.0127400">
        <ele>452.9</ele>
        <time>2021-10-05T14:59:31Z</time>
      </trkpt>
      <trkpt lat="42.9136700" lon="-8.0130310">
        <ele>453.5</ele>
        <time>2021-10-05T14:59:37Z</time>
      </trkpt>
      <trkpt lat="42.9136770" lon="-8.0130770">
        <ele>453.6</ele>
        <time>2021-10-05T14:59:38Z</time>
      </trkpt>
      <trkpt lat="42.9137580" lon="-8.0134570">
        <ele>454.4</ele>
        <time>2021-10-05T14:59:47Z</time>
      </trkpt>
      <trkpt lat="42.9137630" lon="-8.0135010">
        <ele>454.5</ele>
        <time>2021-10-05T14:59:48Z</time>
      </trkpt>
      <trkpt lat="42.9138100" lon="-8.0137850">
        <ele>454.8</ele>
        <time>2021-10-05T14:59:54Z</time>
      </trkpt>
      <trkpt lat="42.9138800" lon="-8.0142650">
        <ele>455.4</ele>
        <time>2021-10-05T15:00:04Z</time>
      </trkpt>
      <trkpt lat="42.9139110" lon="-8.0144240">
        <ele>455.5</ele>
        <time>2021-10-05T15:00:08Z</time>
      </trkpt>
      <trkpt lat="42.9139350" lon="-8.0145290">
        <ele>455.6</ele>
        <time>2021-10-05T15:00:12Z</time>
      </trkpt>
      <trkpt lat="42.9139440" lon="-8.0145510">
        <ele>455.6</ele>
        <time>2021-10-05T15:00:14Z</time>
      </trkpt>
      <trkpt lat="42.9139530" lon="-8.0145710">
        <ele>455.7</ele>
        <time>2021-10-05T15:00:16Z</time>
      </trkpt>
      <trkpt lat="42.9139600" lon="-8.0146010">
        <ele>455.7</ele>
        <time>2021-10-05T15:00:21Z</time>
      </trkpt>
      <trkpt lat="42.9139700" lon="-8.0146640">
        <ele>455.8</ele>
        <time>2021-10-05T15:00:24Z</time>
      </trkpt>
      <trkpt lat="42.9139740" lon="-8.0147110">
        <ele>455.8</ele>
        <time>2021-10-05T15:00:25Z</time>
      </trkpt>
      <trkpt lat="42.9139730" lon="-8.0148160">
        <ele>455.9</ele>
        <time>2021-10-05T15:00:27Z</time>
      </trkpt>
      <trkpt lat="42.9139610" lon="-8.0149320">
        <ele>456.0</ele>
        <time>2021-10-05T15:00:29Z</time>
      </trkpt>
      <trkpt lat="42.9139370" lon="-8.0150840">
        <ele>456.1</ele>
        <time>2021-10-05T15:00:32Z</time>
      </trkpt>
      <trkpt lat="42.9139130" lon="-8.0151720">
        <ele>456.1</ele>
        <time>2021-10-05T15:00:34Z</time>
      </trkpt>
      <trkpt lat="42.9138360" lon="-8.0154810">
        <ele>456.4</ele>
        <time>2021-10-05T15:00:42Z</time>
      </trkpt>
      <trkpt lat="42.9136950" lon="-8.0159380">
        <ele>456.5</ele>
        <time>2021-10-05T15:00:54Z</time>
      </trkpt>
      <trkpt lat="42.9136880" lon="-8.0159960">
        <ele>456.5</ele>
        <time>2021-10-05T15:00:57Z</time>
      </trkpt>
      <trkpt lat="42.9136870" lon="-8.0159970">
        <ele>456.5</ele>
        <time>2021-10-05T15:00:58Z</time>
      </trkpt>
      <trkpt lat="42.9140600" lon="-8.0150370">
        <ele>456.0</ele>
        <time>2021-10-05T15:01:53Z</time>
      </trkpt>
      <trkpt lat="42.9141200" lon="-8.0150400">
        <ele>456.0</ele>
        <time>2021-10-05T15:01:55Z</time>
      </trkpt>
      <trkpt lat="42.9141930" lon="-8.0150620">
        <ele>455.9</ele>
        <time>2021-10-05T15:01:57Z</time>
      </trkpt>
      <trkpt lat="42.9144050" lon="-8.0151810">
        <ele>455.9</ele>
        <time>2021-10-05T15:02:03Z</time>
      </trkpt>
      <trkpt lat="42.9143920" lon="-8.0154500">
        <ele>456.5</ele>
        <time>2021-10-05T15:02:10Z</time>
      </trkpt>
      <trkpt lat="42.9143800" lon="-8.0155500">
        <ele>456.8</ele>
        <time>2021-10-05T15:02:13Z</time>
      </trkpt>
      <trkpt lat="42.9143910" lon="-8.0156470">
        <ele>457.1</ele>
        <time>2021-10-05T15:02:16Z</time>
      </trkpt>
      <trkpt lat="42.9144370" lon="-8.0159630">
        <ele>457.7</ele>
        <time>2021-10-05T15:02:25Z</time>
      </trkpt>
      <trkpt lat="42.9143950" lon="-8.0161460">
        <ele>457.7</ele>
        <time>2021-10-05T15:02:29Z</time>
      </trkpt>
      <trkpt lat="42.9143270" lon="-8.0163640">
        <ele>457.5</ele>
        <time>2021-10-05T15:02:33Z</time>
      </trkpt>
      <trkpt lat="42.9142780" lon="-8.0167070">
        <ele>456.7</ele>
        <time>2021-10-05T15:02:38Z</time>
      </trkpt>
      <trkpt lat="42.9141930" lon="-8.0171670">
        <ele>455.3</ele>
        <time>2021-10-05T15:02:44Z</time>
      </trkpt>
      <trkpt lat="42.9141060" lon="-8.0174870">
        <ele>455.2</ele>
        <time>2021-10-05T15:02:48Z</time>
      </trkpt>
      <trkpt lat="42.9140870" lon="-8.0175650">
        <ele>455.2</ele>
        <time>2021-10-05T15:02:49Z</time>
      </trkpt>
      <trkpt lat="42.9140490" lon="-8.0177270">
        <ele>455.4</ele>
        <time>2021-10-05T15:02:51Z</time>
      </trkpt>
      <trkpt lat="42.9140210" lon="-8.0179010">
        <ele>455.7</ele>
        <time>2021-10-05T15:02:53Z</time>
      </trkpt>
      <trkpt lat="42.9139740" lon="-8.0180740">
        <ele>456.2</ele>
        <time>2021-10-05T15:02:55Z</time>
      </trkpt>
      <trkpt lat="42.9139580" lon="-8.0181730">
        <ele>456.5</ele>
        <time>2021-10-05T15:02:56Z</time>
      </trkpt>
      <trkpt lat="42.9139280" lon="-8.0183400">
        <ele>457.8</ele>
        <time>2021-10-05T15:02:58Z</time>
      </trkpt>
      <trkpt lat="42.9139110" lon="-8.0184180">
        <ele>458.7</ele>
        <time>2021-10-05T15:02:59Z</time>
      </trkpt>
      <trkpt lat="42.9138950" lon="-8.0184930">
        <ele>459.6</ele>
        <time>2021-10-05T15:03:00Z</time>
      </trkpt>
      <trkpt lat="42.9138800" lon="-8.0185670">
        <ele>460.4</ele>
        <time>2021-10-05T15:03:01Z</time>
      </trkpt>
      <trkpt lat="42.9138560" lon="-8.0187090">
        <ele>462.1</ele>
        <time>2021-10-05T15:03:03Z</time>
      </trkpt>
      <trkpt lat="42.9138460" lon="-8.0187780">
        <ele>462.8</ele>
        <time>2021-10-05T15:03:04Z</time>
      </trkpt>
      <trkpt lat="42.9138230" lon="-8.0189000">
        <ele>463.4</ele>
        <time>2021-10-05T15:03:06Z</time>
      </trkpt>
      <trkpt lat="42.9138050" lon="-8.0189890">
        <ele>464.2</ele>
        <time>2021-10-05T15:03:08Z</time>
      </trkpt>
      <trkpt lat="42.9137820" lon="-8.0190810">
        <ele>465.0</ele>
        <time>2021-10-05T15:03:11Z</time>
      </trkpt>
      <trkpt lat="42.9137780" lon="-8.0191510">
        <ele>465.5</ele>
        <time>2021-10-05T15:03:15Z</time>
      </trkpt>
      <trkpt lat="42.9137850" lon="-8.0191810">
        <ele>465.5</ele>
        <time>2021-10-05T15:03:17Z</time>
      </trkpt>
      <trkpt lat="42.9137820" lon="-8.0192090">
        <ele>465.4</ele>
        <time>2021-10-05T15:03:18Z</time>
      </trkpt>
      <trkpt lat="42.9137280" lon="-8.0193910">
        <ele>465.3</ele>
        <time>2021-10-05T15:03:22Z</time>
      </trkpt>
      <trkpt lat="42.9136650" lon="-8.0195590">
        <ele>464.7</ele>
        <time>2021-10-05T15:03:25Z</time>
      </trkpt>
      <trkpt lat="42.9135780" lon="-8.0197630">
        <ele>463.8</ele>
        <time>2021-10-05T15:03:28Z</time>
      </trkpt>
      <trkpt lat="42.9135350" lon="-8.0198270">
        <ele>463.5</ele>
        <time>2021-10-05T15:03:29Z</time>
      </trkpt>
      <trkpt lat="42.9133860" lon="-8.0200070">
        <ele>463.0</ele>
        <time>2021-10-05T15:03:32Z</time>
      </trkpt>
      <trkpt lat="42.9132810" lon="-8.0202320">
        <ele>461.2</ele>
        <time>2021-10-05T15:03:36Z</time>
      </trkpt>
      <trkpt lat="42.9130950" lon="-8.0206580">
        <ele>455.9</ele>
        <time>2021-10-05T15:03:43Z</time>
      </trkpt>
      <trkpt lat="42.9128880" lon="-8.0212310">
        <ele>445.5</ele>
        <time>2021-10-05T15:03:52Z</time>
      </trkpt>
      <trkpt lat="42.9127600" lon="-8.0215110">
        <ele>440.3</ele>
        <time>2021-10-05T15:03:56Z</time>
      </trkpt>
      <trkpt lat="42.9126960" lon="-8.0217550">
        <ele>437.1</ele>
        <time>2021-10-05T15:03:59Z</time>
      </trkpt>
      <trkpt lat="42.9126140" lon="-8.0219660">
        <ele>435.1</ele>
        <time>2021-10-05T15:04:02Z</time>
      </trkpt>
      <trkpt lat="42.9125950" lon="-8.0220100">
        <ele>434.7</ele>
        <time>2021-10-05T15:04:03Z</time>
      </trkpt>
      <trkpt lat="42.9125780" lon="-8.0220540">
        <ele>434.4</ele>
        <time>2021-10-05T15:04:04Z</time>
      </trkpt>
      <trkpt lat="42.9125520" lon="-8.0221640">
        <ele>433.8</ele>
        <time>2021-10-05T15:04:06Z</time>
      </trkpt>
      <trkpt lat="42.9125370" lon="-8.0222230">
        <ele>433.5</ele>
        <time>2021-10-05T15:04:07Z</time>
      </trkpt>
      <trkpt lat="42.9124790" lon="-8.0224130">
        <ele>433.0</ele>
        <time>2021-10-05T15:04:10Z</time>
      </trkpt>
      <trkpt lat="42.9124520" lon="-8.0224760">
        <ele>432.6</ele>
        <time>2021-10-05T15:04:11Z</time>
      </trkpt>
      <trkpt lat="42.9123160" lon="-8.0227050">
        <ele>431.6</ele>
        <time>2021-10-05T15:04:15Z</time>
      </trkpt>
      <trkpt lat="42.9119830" lon="-8.0232320">
        <ele>430.1</ele>
        <time>2021-10-05T15:04:24Z</time>
      </trkpt>
      <trkpt lat="42.9118110" lon="-8.0234660">
        <ele>429.6</ele>
        <time>2021-10-05T15:04:28Z</time>
      </trkpt>
      <trkpt lat="42.9117320" lon="-8.0235820">
        <ele>429.5</ele>
        <time>2021-10-05T15:04:30Z</time>
      </trkpt>
      <trkpt lat="42.9113640" lon="-8.0241500">
        <ele>428.8</ele>
        <time>2021-10-05T15:04:40Z</time>
      </trkpt>
      <trkpt lat="42.9112930" lon="-8.0242590">
        <ele>428.7</ele>
        <time>2021-10-05T15:04:42Z</time>
      </trkpt>
      <trkpt lat="42.9111880" lon="-8.0244140">
        <ele>428.5</ele>
        <time>2021-10-05T15:04:45Z</time>
      </trkpt>
      <trkpt lat="42.9111930" lon="-8.0246430">
        <ele>427.4</ele>
        <time>2021-10-05T15:04:50Z</time>
      </trkpt>
      <trkpt lat="42.9112530" lon="-8.0248570">
        <ele>426.5</ele>
        <time>2021-10-05T15:04:54Z</time>
      </trkpt>
      <trkpt lat="42.9112980" lon="-8.0249520">
        <ele>426.1</ele>
        <time>2021-10-05T15:04:56Z</time>
      </trkpt>
      <trkpt lat="42.9113730" lon="-8.0251670">
        <ele>425.3</ele>
        <time>2021-10-05T15:05:00Z</time>
      </trkpt>
      <trkpt lat="42.9114600" lon="-8.0254690">
        <ele>423.7</ele>
        <time>2021-10-05T15:05:05Z</time>
      </trkpt>
      <trkpt lat="42.9114770" lon="-8.0255270">
        <ele>423.4</ele>
        <time>2021-10-05T15:05:06Z</time>
      </trkpt>
      <trkpt lat="42.9115390" lon="-8.0256770">
        <ele>422.6</ele>
        <time>2021-10-05T15:05:09Z</time>
      </trkpt>
      <trkpt lat="42.9115700" lon="-8.0257690">
        <ele>422.2</ele>
        <time>2021-10-05T15:05:11Z</time>
      </trkpt>
      <trkpt lat="42.9116900" lon="-8.0263270">
        <ele>419.5</ele>
        <time>2021-10-05T15:05:20Z</time>
      </trkpt>
      <trkpt lat="42.9117580" lon="-8.0265470">
        <ele>418.5</ele>
        <time>2021-10-05T15:05:23Z</time>
      </trkpt>
      <trkpt lat="42.9118870" lon="-8.0268600">
        <ele>417.3</ele>
        <time>2021-10-05T15:05:27Z</time>
      </trkpt>
      <trkpt lat="42.9119690" lon="-8.0270820">
        <ele>416.8</ele>
        <time>2021-10-05T15:05:30Z</time>
      </trkpt>
      <trkpt lat="42.9120110" lon="-8.0272200">
        <ele>416.8</ele>
        <time>2021-10-05T15:05:32Z</time>
      </trkpt>
      <trkpt lat="42.9120350" lon="-8.0273730">
        <ele>416.6</ele>
        <time>2021-10-05T15:05:34Z</time>
      </trkpt>
      <trkpt lat="42.9120680" lon="-8.0279200">
        <ele>417.0</ele>
        <time>2021-10-05T15:05:42Z</time>
      </trkpt>
      <trkpt lat="42.9121090" lon="-8.0282690">
        <ele>417.5</ele>
        <time>2021-10-05T15:05:48Z</time>
      </trkpt>
      <trkpt lat="42.9121160" lon="-8.0283960">
        <ele>417.8</ele>
        <time>2021-10-05T15:05:50Z</time>
      </trkpt>
      <trkpt lat="42.9121390" lon="-8.0286260">
        <ele>418.3</ele>
        <time>2021-10-05T15:05:54Z</time>
      </trkpt>
      <trkpt lat="42.9121750" lon="-8.0288120">
        <ele>418.8</ele>
        <time>2021-10-05T15:05:57Z</time>
      </trkpt>
      <trkpt lat="42.9121960" lon="-8.0289460">
        <ele>419.1</ele>
        <time>2021-10-05T15:05:59Z</time>
      </trkpt>
      <trkpt lat="42.9122150" lon="-8.0291550">
        <ele>419.3</ele>
        <time>2021-10-05T15:06:02Z</time>
      </trkpt>
      <trkpt lat="42.9122180" lon="-8.0293570">
        <ele>419.5</ele>
        <time>2021-10-05T15:06:05Z</time>
      </trkpt>
      <trkpt lat="42.9122310" lon="-8.0299420">
        <ele>419.4</ele>
        <time>2021-10-05T15:06:14Z</time>
      </trkpt>
      <trkpt lat="42.9122310" lon="-8.0301380">
        <ele>419.2</ele>
        <time>2021-10-05T15:06:17Z</time>
      </trkpt>
      <trkpt lat="42.9122310" lon="-8.0302690">
        <ele>419.1</ele>
        <time>2021-10-05T15:06:19Z</time>
      </trkpt>
      <trkpt lat="42.9122350" lon="-8.0303300">
        <ele>419.0</ele>
        <time>2021-10-05T15:06:20Z</time>
      </trkpt>
      <trkpt lat="42.9122290" lon="-8.0306260">
        <ele>418.6</ele>
        <time>2021-10-05T15:06:25Z</time>
      </trkpt>
      <trkpt lat="42.9121300" lon="-8.0314170">
        <ele>417.2</ele>
        <time>2021-10-05T15:06:36Z</time>
      </trkpt>
      <trkpt lat="42.9120640" lon="-8.0318180">
        <ele>417.0</ele>
        <time>2021-10-05T15:06:41Z</time>
      </trkpt>
      <trkpt lat="42.9120820" lon="-8.0321140">
        <ele>417.5</ele>
        <time>2021-10-05T15:06:45Z</time>
      </trkpt>
      <trkpt lat="42.9121130" lon="-8.0323080">
        <ele>418.0</ele>
        <time>2021-10-05T15:06:48Z</time>
      </trkpt>
      <trkpt lat="42.9121180" lon="-8.0323700">
        <ele>418.3</ele>
        <time>2021-10-05T15:06:49Z</time>
      </trkpt>
      <trkpt lat="42.9120900" lon="-8.0325610">
        <ele>419.0</ele>
        <time>2021-10-05T15:06:52Z</time>
      </trkpt>
      <trkpt lat="42.9120650" lon="-8.0326740">
        <ele>419.5</ele>
        <time>2021-10-05T15:06:54Z</time>
      </trkpt>
      <trkpt lat="42.9120580" lon="-8.0327320">
        <ele>419.7</ele>
        <time>2021-10-05T15:06:55Z</time>
      </trkpt>
      <trkpt lat="42.9120570" lon="-8.0328470">
        <ele>420.2</ele>
        <time>2021-10-05T15:06:57Z</time>
      </trkpt>
      <trkpt lat="42.9120550" lon="-8.0330170">
        <ele>420.8</ele>
        <time>2021-10-05T15:07:00Z</time>
      </trkpt>
      <trkpt lat="42.9120740" lon="-8.0333050">
        <ele>422.0</ele>
        <time>2021-10-05T15:07:06Z</time>
      </trkpt>
      <trkpt lat="42.9121160" lon="-8.0335500">
        <ele>423.0</ele>
        <time>2021-10-05T15:07:11Z</time>
      </trkpt>
      <trkpt lat="42.9121570" lon="-8.0337900">
        <ele>423.8</ele>
        <time>2021-10-05T15:07:16Z</time>
      </trkpt>
      <trkpt lat="42.9121780" lon="-8.0341000">
        <ele>424.8</ele>
        <time>2021-10-05T15:07:21Z</time>
      </trkpt>
      <trkpt lat="42.9122680" lon="-8.0345490">
        <ele>426.3</ele>
        <time>2021-10-05T15:07:29Z</time>
      </trkpt>
      <trkpt lat="42.9124020" lon="-8.0351920">
        <ele>427.0</ele>
        <time>2021-10-05T15:07:40Z</time>
      </trkpt>
      <trkpt lat="42.9124420" lon="-8.0353450">
        <ele>427.1</ele>
        <time>2021-10-05T15:07:43Z</time>
      </trkpt>
      <trkpt lat="42.9125490" lon="-8.0357190">
        <ele>427.0</ele>
        <time>2021-10-05T15:07:50Z</time>
      </trkpt>
      <trkpt lat="42.9126000" lon="-8.0360070">
        <ele>426.8</ele>
        <time>2021-10-05T15:07:54Z</time>
      </trkpt>
      <trkpt lat="42.9126030" lon="-8.0360800">
        <ele>426.8</ele>
        <time>2021-10-05T15:07:55Z</time>
      </trkpt>
      <trkpt lat="42.9125910" lon="-8.0363680">
        <ele>426.5</ele>
        <time>2021-10-05T15:07:59Z</time>
      </trkpt>
      <trkpt lat="42.9125950" lon="-8.0365110">
        <ele>426.3</ele>
        <time>2021-10-05T15:08:01Z</time>
      </trkpt>
      <trkpt lat="42.9126140" lon="-8.0367380">
        <ele>426.0</ele>
        <time>2021-10-05T15:08:04Z</time>
      </trkpt>
      <trkpt lat="42.9126870" lon="-8.0371100">
        <ele>425.6</ele>
        <time>2021-10-05T15:08:09Z</time>
      </trkpt>
      <trkpt lat="42.9127260" lon="-8.0372500">
        <ele>425.4</ele>
        <time>2021-10-05T15:08:11Z</time>
      </trkpt>
      <trkpt lat="42.9128140" lon="-8.0375810">
        <ele>425.4</ele>
        <time>2021-10-05T15:08:18Z</time>
      </trkpt>
      <trkpt lat="42.9128180" lon="-8.0376170">
        <ele>425.4</ele>
        <time>2021-10-05T15:08:20Z</time>
      </trkpt>
      <trkpt lat="42.9128390" lon="-8.0376300">
        <ele>425.5</ele>
        <time>2021-10-05T15:08:22Z</time>
      </trkpt>
      <trkpt lat="42.9129350" lon="-8.0377900">
        <ele>425.8</ele>
        <time>2021-10-05T15:08:30Z</time>
      </trkpt>
      <trkpt lat="42.9130180" lon="-8.0379400">
        <ele>426.4</ele>
        <time>2021-10-05T15:08:36Z</time>
      </trkpt>
      <trkpt lat="42.9130280" lon="-8.0379570">
        <ele>426.5</ele>
        <time>2021-10-05T15:08:37Z</time>
      </trkpt>
      <trkpt lat="42.9130520" lon="-8.0380040">
        <ele>426.8</ele>
        <time>2021-10-05T15:08:39Z</time>
      </trkpt>
      <trkpt lat="42.9130710" lon="-8.0380630">
        <ele>427.2</ele>
        <time>2021-10-05T15:08:41Z</time>
      </trkpt>
      <trkpt lat="42.9130760" lon="-8.0380950">
        <ele>427.4</ele>
        <time>2021-10-05T15:08:42Z</time>
      </trkpt>
      <trkpt lat="42.9131040" lon="-8.0381780">
        <ele>428.1</ele>
        <time>2021-10-05T15:08:45Z</time>
      </trkpt>
      <trkpt lat="42.9131310" lon="-8.0382670">
        <ele>428.9</ele>
        <time>2021-10-05T15:08:48Z</time>
      </trkpt>
      <trkpt lat="42.9131510" lon="-8.0383490">
        <ele>429.6</ele>
        <time>2021-10-05T15:08:51Z</time>
      </trkpt>
      <trkpt lat="42.9131810" lon="-8.0384610">
        <ele>430.4</ele>
        <time>2021-10-05T15:08:55Z</time>
      </trkpt>
      <trkpt lat="42.9132270" lon="-8.0385340">
        <ele>430.8</ele>
        <time>2021-10-05T15:08:58Z</time>
      </trkpt>
      <trkpt lat="42.9133170" lon="-8.0386590">
        <ele>431.0</ele>
        <time>2021-10-05T15:09:02Z</time>
      </trkpt>
      <trkpt lat="42.9133310" lon="-8.0386990">
        <ele>431.0</ele>
        <time>2021-10-05T15:09:03Z</time>
      </trkpt>
      <trkpt lat="42.9133610" lon="-8.0387700">
        <ele>430.8</ele>
        <time>2021-10-05T15:09:05Z</time>
      </trkpt>
      <trkpt lat="42.9134230" lon="-8.0389090">
        <ele>430.3</ele>
        <time>2021-10-05T15:09:08Z</time>
      </trkpt>
      <trkpt lat="42.9134800" lon="-8.0390070">
        <ele>429.8</ele>
        <time>2021-10-05T15:09:10Z</time>
      </trkpt>
      <trkpt lat="42.9135800" lon="-8.0391420">
        <ele>429.0</ele>
        <time>2021-10-05T15:09:13Z</time>
      </trkpt>
      <trkpt lat="42.9138020" lon="-8.0393830">
        <ele>427.8</ele>
        <time>2021-10-05T15:09:19Z</time>
      </trkpt>
      <trkpt lat="42.9139400" lon="-8.0395560">
        <ele>427.2</ele>
        <time>2021-10-05T15:09:22Z</time>
      </trkpt>
      <trkpt lat="42.9142520" lon="-8.0399130">
        <ele>425.7</ele>
        <time>2021-10-05T15:09:28Z</time>
      </trkpt>
      <trkpt lat="42.9143590" lon="-8.0400300">
        <ele>425.2</ele>
        <time>2021-10-05T15:09:30Z</time>
      </trkpt>
      <trkpt lat="42.9144850" lon="-8.0401530">
        <ele>424.6</ele>
        <time>2021-10-05T15:09:32Z</time>
      </trkpt>
      <trkpt lat="42.9146570" lon="-8.0403310">
        <ele>423.6</ele>
        <time>2021-10-05T15:09:35Z</time>
      </trkpt>
      <trkpt lat="42.9148680" lon="-8.0405520">
        <ele>421.7</ele>
        <time>2021-10-05T15:09:39Z</time>
      </trkpt>
      <trkpt lat="42.9149400" lon="-8.0406580">
        <ele>420.7</ele>
        <time>2021-10-05T15:09:41Z</time>
      </trkpt>
      <trkpt lat="42.9149700" lon="-8.0407070">
        <ele>420.2</ele>
        <time>2021-10-05T15:09:42Z</time>
      </trkpt>
      <trkpt lat="42.9152770" lon="-8.0412730">
        <ele>415.2</ele>
        <time>2021-10-05T15:09:51Z</time>
      </trkpt>
      <trkpt lat="42.9153050" lon="-8.0414580">
        <ele>414.9</ele>
        <time>2021-10-05T15:09:56Z</time>
      </trkpt>
      <trkpt lat="42.9153250" lon="-8.0415740">
        <ele>414.7</ele>
        <time>2021-10-05T15:10:02Z</time>
      </trkpt>
      <trkpt lat="42.9153630" lon="-8.0416560">
        <ele>414.4</ele>
        <time>2021-10-05T15:12:20Z</time>
      </trkpt>
      <trkpt lat="42.9153940" lon="-8.0417080">
        <ele>414.3</ele>
        <time>2021-10-05T15:12:22Z</time>
      </trkpt>
      <trkpt lat="42.9154270" lon="-8.0417520">
        <ele>414.3</ele>
        <time>2021-10-05T15:12:24Z</time>
      </trkpt>
      <trkpt lat="42.9154530" lon="-8.0417900">
        <ele>414.4</ele>
        <time>2021-10-05T15:12:26Z</time>
      </trkpt>
      <trkpt lat="42.9154840" lon="-8.0418260">
        <ele>414.5</ele>
        <time>2021-10-05T15:12:28Z</time>
      </trkpt>
      <trkpt lat="42.9155100" lon="-8.0418650">
        <ele>414.8</ele>
        <time>2021-10-05T15:12:30Z</time>
      </trkpt>
      <trkpt lat="42.9155350" lon="-8.0418920">
        <ele>415.1</ele>
        <time>2021-10-05T15:12:32Z</time>
      </trkpt>
      <trkpt lat="42.9155740" lon="-8.0419360">
        <ele>415.6</ele>
        <time>2021-10-05T15:12:34Z</time>
      </trkpt>
      <trkpt lat="42.9156140" lon="-8.0419910">
        <ele>416.5</ele>
        <time>2021-10-05T15:12:36Z</time>
      </trkpt>
      <trkpt lat="42.9156340" lon="-8.0420160">
        <ele>416.9</ele>
        <time>2021-10-05T15:12:37Z</time>
      </trkpt>
      <trkpt lat="42.9156590" lon="-8.0420380">
        <ele>417.5</ele>
        <time>2021-10-05T15:12:39Z</time>
      </trkpt>
      <trkpt lat="42.9156930" lon="-8.0420820">
        <ele>418.3</ele>
        <time>2021-10-05T15:12:42Z</time>
      </trkpt>
      <trkpt lat="42.9158230" lon="-8.0421850">
        <ele>420.9</ele>
        <time>2021-10-05T15:14:01Z</time>
      </trkpt>
      <trkpt lat="42.9158320" lon="-8.0421960">
        <ele>421.0</ele>
        <time>2021-10-05T15:14:02Z</time>
      </trkpt>
      <trkpt lat="42.9161400" lon="-8.0424390">
        <ele>423.8</ele>
        <time>2021-10-05T15:14:19Z</time>
      </trkpt>
      <trkpt lat="42.9162010" lon="-8.0425150">
        <ele>424.2</ele>
        <time>2021-10-05T15:14:22Z</time>
      </trkpt>
      <trkpt lat="42.9162480" lon="-8.0426590">
        <ele>424.6</ele>
        <time>2021-10-05T15:14:26Z</time>
      </trkpt>
      <trkpt lat="42.9162980" lon="-8.0429510">
        <ele>425.5</ele>
        <time>2021-10-05T15:14:34Z</time>
      </trkpt>
      <trkpt lat="42.9163330" lon="-8.0430680">
        <ele>425.9</ele>
        <time>2021-10-05T15:14:37Z</time>
      </trkpt>
      <trkpt lat="42.9163490" lon="-8.0431840">
        <ele>426.3</ele>
        <time>2021-10-05T15:14:40Z</time>
      </trkpt>
      <trkpt lat="42.9163580" lon="-8.0432530">
        <ele>426.6</ele>
        <time>2021-10-05T15:14:42Z</time>
      </trkpt>
      <trkpt lat="42.9163570" lon="-8.0433570">
        <ele>427.2</ele>
        <time>2021-10-05T15:14:45Z</time>
      </trkpt>
      <trkpt lat="42.9163470" lon="-8.0434320">
        <ele>427.8</ele>
        <time>2021-10-05T15:14:47Z</time>
      </trkpt>
      <trkpt lat="42.9163390" lon="-8.0435070">
        <ele>428.5</ele>
        <time>2021-10-05T15:14:49Z</time>
      </trkpt>
      <trkpt lat="42.9163440" lon="-8.0436130">
        <ele>429.5</ele>
        <time>2021-10-05T15:14:52Z</time>
      </trkpt>
      <trkpt lat="42.9163620" lon="-8.0437420">
        <ele>430.7</ele>
        <time>2021-10-05T15:14:55Z</time>
      </trkpt>
      <trkpt lat="42.9163860" lon="-8.0438710">
        <ele>432.0</ele>
        <time>2021-10-05T15:14:58Z</time>
      </trkpt>
      <trkpt lat="42.9164010" lon="-8.0439630">
        <ele>432.8</ele>
        <time>2021-10-05T15:15:00Z</time>
      </trkpt>
      <trkpt lat="42.9164150" lon="-8.0441850">
        <ele>434.7</ele>
        <time>2021-10-05T15:15:04Z</time>
      </trkpt>
      <trkpt lat="42.9164080" lon="-8.0444400">
        <ele>437.1</ele>
        <time>2021-10-05T15:15:10Z</time>
      </trkpt>
      <trkpt lat="42.9164030" lon="-8.0444760">
        <ele>437.5</ele>
        <time>2021-10-05T15:15:11Z</time>
      </trkpt>
      <trkpt lat="42.9164010" lon="-8.0445910">
        <ele>438.6</ele>
        <time>2021-10-05T15:15:14Z</time>
      </trkpt>
      <trkpt lat="42.9163960" lon="-8.0448970">
        <ele>441.5</ele>
        <time>2021-10-05T15:15:22Z</time>
      </trkpt>
      <trkpt lat="42.9162900" lon="-8.0455000">
        <ele>445.5</ele>
        <time>2021-10-05T15:15:38Z</time>
      </trkpt>
      <trkpt lat="42.9161780" lon="-8.0458840">
        <ele>447.7</ele>
        <time>2021-10-05T15:15:48Z</time>
      </trkpt>
      <trkpt lat="42.9161380" lon="-8.0460950">
        <ele>448.2</ele>
        <time>2021-10-05T15:15:53Z</time>
      </trkpt>
      <trkpt lat="42.9161680" lon="-8.0463330">
        <ele>448.4</ele>
        <time>2021-10-05T15:15:58Z</time>
      </trkpt>
      <trkpt lat="42.9162290" lon="-8.0465070">
        <ele>448.4</ele>
        <time>2021-10-05T15:16:01Z</time>
      </trkpt>
      <trkpt lat="42.9163370" lon="-8.0466950">
        <ele>448.4</ele>
        <time>2021-10-05T15:16:05Z</time>
      </trkpt>
      <trkpt lat="42.9164020" lon="-8.0467990">
        <ele>448.5</ele>
        <time>2021-10-05T15:16:07Z</time>
      </trkpt>
      <trkpt lat="42.9165660" lon="-8.0471020">
        <ele>449.0</ele>
        <time>2021-10-05T15:16:12Z</time>
      </trkpt>
      <trkpt lat="42.9166770" lon="-8.0473740">
        <ele>449.8</ele>
        <time>2021-10-05T15:16:16Z</time>
      </trkpt>
      <trkpt lat="42.9168190" lon="-8.0480780">
        <ele>452.1</ele>
        <time>2021-10-05T15:16:26Z</time>
      </trkpt>
      <trkpt lat="42.9168250" lon="-8.0481570">
        <ele>452.3</ele>
        <time>2021-10-05T15:16:27Z</time>
      </trkpt>
      <trkpt lat="42.9167500" lon="-8.0484960">
        <ele>453.4</ele>
        <time>2021-10-05T15:16:32Z</time>
      </trkpt>
      <trkpt lat="42.9167240" lon="-8.0486770">
        <ele>453.7</ele>
        <time>2021-10-05T15:16:35Z</time>
      </trkpt>
      <trkpt lat="42.9168080" lon="-8.0488590">
        <ele>453.7</ele>
        <time>2021-10-05T15:16:39Z</time>
      </trkpt>
      <trkpt lat="42.9168390" lon="-8.0488840">
        <ele>453.7</ele>
        <time>2021-10-05T15:16:40Z</time>
      </trkpt>
      <trkpt lat="42.9169590" lon="-8.0490290">
        <ele>454.0</ele>
        <time>2021-10-05T15:16:44Z</time>
      </trkpt>
      <trkpt lat="42.9170590" lon="-8.0491340">
        <ele>454.3</ele>
        <time>2021-10-05T15:16:47Z</time>
      </trkpt>
      <trkpt lat="42.9171520" lon="-8.0492620">
        <ele>454.6</ele>
        <time>2021-10-05T15:16:50Z</time>
      </trkpt>
      <trkpt lat="42.9172870" lon="-8.0495030">
        <ele>455.0</ele>
        <time>2021-10-05T15:16:55Z</time>
      </trkpt>
      <trkpt lat="42.9174040" lon="-8.0496860">
        <ele>455.6</ele>
        <time>2021-10-05T15:16:59Z</time>
      </trkpt>
      <trkpt lat="42.9174510" lon="-8.0497500">
        <ele>455.9</ele>
        <time>2021-10-05T15:17:01Z</time>
      </trkpt>
      <trkpt lat="42.9175210" lon="-8.0500850">
        <ele>456.6</ele>
        <time>2021-10-05T15:17:08Z</time>
      </trkpt>
      <trkpt lat="42.9175740" lon="-8.0505670">
        <ele>457.3</ele>
        <time>2021-10-05T15:17:16Z</time>
      </trkpt>
      <trkpt lat="42.9175760" lon="-8.0506260">
        <ele>457.4</ele>
        <time>2021-10-05T15:17:17Z</time>
      </trkpt>
      <trkpt lat="42.9175790" lon="-8.0506830">
        <ele>457.5</ele>
        <time>2021-10-05T15:17:18Z</time>
      </trkpt>
      <trkpt lat="42.9175910" lon="-8.0508910">
        <ele>457.9</ele>
        <time>2021-10-05T15:17:22Z</time>
      </trkpt>
      <trkpt lat="42.9176170" lon="-8.0510820">
        <ele>458.4</ele>
        <time>2021-10-05T15:17:26Z</time>
      </trkpt>
      <trkpt lat="42.9176650" lon="-8.0516310">
        <ele>460.1</ele>
        <time>2021-10-05T15:17:38Z</time>
      </trkpt>
      <trkpt lat="42.9176650" lon="-8.0516890">
        <ele>460.0</ele>
        <time>2021-10-05T15:17:40Z</time>
      </trkpt>
      <trkpt lat="42.9176420" lon="-8.0517230">
        <ele>459.9</ele>
        <time>2021-10-05T15:17:42Z</time>
      </trkpt>
      <trkpt lat="42.9176200" lon="-8.0517440">
        <ele>459.8</ele>
        <time>2021-10-05T15:17:44Z</time>
      </trkpt>
      <trkpt lat="42.9176160" lon="-8.0517480">
        <ele>459.8</ele>
        <time>2021-10-05T15:17:45Z</time>
      </trkpt>
      <trkpt lat="42.9175530" lon="-8.0517810">
        <ele>459.6</ele>
        <time>2021-10-05T15:19:48Z</time>
      </trkpt>
      <trkpt lat="42.9175320" lon="-8.0517910">
        <ele>459.6</ele>
        <time>2021-10-05T15:19:49Z</time>
      </trkpt>
      <trkpt lat="42.9174060" lon="-8.0518720">
        <ele>459.2</ele>
        <time>2021-10-05T15:19:54Z</time>
      </trkpt>
      <trkpt lat="42.9173570" lon="-8.0518980">
        <ele>459.0</ele>
        <time>2021-10-05T15:19:56Z</time>
      </trkpt>
      <trkpt lat="42.9173080" lon="-8.0519230">
        <ele>458.8</ele>
        <time>2021-10-05T15:19:58Z</time>
      </trkpt>
      <trkpt lat="42.9172500" lon="-8.0519610">
        <ele>458.7</ele>
        <time>2021-10-05T15:20:01Z</time>
      </trkpt>
      <trkpt lat="42.9171740" lon="-8.0520520">
        <ele>458.4</ele>
        <time>2021-10-05T15:20:06Z</time>
      </trkpt>
      <trkpt lat="42.9171570" lon="-8.0520820">
        <ele>458.4</ele>
        <time>2021-10-05T15:20:07Z</time>
      </trkpt>
      <trkpt lat="42.9170720" lon="-8.0521920">
        <ele>458.1</ele>
        <time>2021-10-05T15:20:11Z</time>
      </trkpt>
      <trkpt lat="42.9170350" lon="-8.0522780">
        <ele>458.0</ele>
        <time>2021-10-05T15:20:13Z</time>
      </trkpt>
      <trkpt lat="42.9169730" lon="-8.0525100">
        <ele>457.8</ele>
        <time>2021-10-05T15:20:18Z</time>
      </trkpt>
      <trkpt lat="42.9169300" lon="-8.0526800">
        <ele>457.7</ele>
        <time>2021-10-05T15:20:21Z</time>
      </trkpt>
      <trkpt lat="42.9168830" lon="-8.0528990">
        <ele>457.8</ele>
        <time>2021-10-05T15:20:25Z</time>
      </trkpt>
      <trkpt lat="42.9168200" lon="-8.0530780">
        <ele>458.1</ele>
        <time>2021-10-05T15:20:29Z</time>
      </trkpt>
      <trkpt lat="42.9167170" lon="-8.0532700">
        <ele>458.5</ele>
        <time>2021-10-05T15:20:33Z</time>
      </trkpt>
      <trkpt lat="42.9165180" lon="-8.0537260">
        <ele>459.0</ele>
        <time>2021-10-05T15:20:44Z</time>
      </trkpt>
      <trkpt lat="42.9162500" lon="-8.0543740">
        <ele>459.3</ele>
        <time>2021-10-05T15:20:58Z</time>
      </trkpt>
      <trkpt lat="42.9162260" lon="-8.0544320">
        <ele>459.3</ele>
        <time>2021-10-05T15:20:59Z</time>
      </trkpt>
      <trkpt lat="42.9160870" lon="-8.0547730">
        <ele>459.5</ele>
        <time>2021-10-05T15:21:07Z</time>
      </trkpt>
      <trkpt lat="42.9158400" lon="-8.0554970">
        <ele>459.4</ele>
        <time>2021-10-05T15:21:20Z</time>
      </trkpt>
      <trkpt lat="42.9157940" lon="-8.0556980">
        <ele>459.3</ele>
        <time>2021-10-05T15:21:23Z</time>
      </trkpt>
      <trkpt lat="42.9157470" lon="-8.0558810">
        <ele>459.2</ele>
        <time>2021-10-05T15:21:26Z</time>
      </trkpt>
      <trkpt lat="42.9157330" lon="-8.0559390">
        <ele>459.2</ele>
        <time>2021-10-05T15:21:27Z</time>
      </trkpt>
      <trkpt lat="42.9156930" lon="-8.0564180">
        <ele>459.0</ele>
        <time>2021-10-05T15:21:35Z</time>
      </trkpt>
      <trkpt lat="42.9156170" lon="-8.0567100">
        <ele>458.7</ele>
        <time>2021-10-05T15:21:40Z</time>
      </trkpt>
      <trkpt lat="42.9155910" lon="-8.0568320">
        <ele>458.6</ele>
        <time>2021-10-05T15:21:42Z</time>
      </trkpt>
      <trkpt lat="42.9155810" lon="-8.0568960">
        <ele>458.6</ele>
        <time>2021-10-05T15:21:43Z</time>
      </trkpt>
      <trkpt lat="42.9154720" lon="-8.0573700">
        <ele>458.2</ele>
        <time>2021-10-05T15:21:50Z</time>
      </trkpt>
      <trkpt lat="42.9154600" lon="-8.0575000">
        <ele>458.1</ele>
        <time>2021-10-05T15:21:52Z</time>
      </trkpt>
      <trkpt lat="42.9154600" lon="-8.0575620">
        <ele>458.0</ele>
        <time>2021-10-05T15:21:53Z</time>
      </trkpt>
      <trkpt lat="42.9154660" lon="-8.0577480">
        <ele>457.9</ele>
        <time>2021-10-05T15:21:56Z</time>
      </trkpt>
      <trkpt lat="42.9154730" lon="-8.0584730">
        <ele>457.9</ele>
        <time>2021-10-05T15:22:07Z</time>
      </trkpt>
      <trkpt lat="42.9154890" lon="-8.0586500">
        <ele>458.0</ele>
        <time>2021-10-05T15:22:10Z</time>
      </trkpt>
      <trkpt lat="42.9155160" lon="-8.0593820">
        <ele>458.1</ele>
        <time>2021-10-05T15:22:23Z</time>
      </trkpt>
      <trkpt lat="42.9155240" lon="-8.0596240">
        <ele>458.2</ele>
        <time>2021-10-05T15:22:27Z</time>
      </trkpt>
      <trkpt lat="42.9155540" lon="-8.0598730">
        <ele>458.1</ele>
        <time>2021-10-05T15:22:31Z</time>
      </trkpt>
      <trkpt lat="42.9155710" lon="-8.0599340">
        <ele>458.0</ele>
        <time>2021-10-05T15:22:32Z</time>
      </trkpt>
      <trkpt lat="42.9156090" lon="-8.0601390">
        <ele>457.6</ele>
        <time>2021-10-05T15:22:35Z</time>
      </trkpt>
      <trkpt lat="42.9156770" lon="-8.0604610">
        <ele>456.2</ele>
        <time>2021-10-05T15:22:39Z</time>
      </trkpt>
      <trkpt lat="42.9158010" lon="-8.0608410">
        <ele>454.0</ele>
        <time>2021-10-05T15:22:43Z</time>
      </trkpt>
      <trkpt lat="42.9160070" lon="-8.0614760">
        <ele>449.9</ele>
        <time>2021-10-05T15:22:49Z</time>
      </trkpt>
      <trkpt lat="42.9161860" lon="-8.0619080">
        <ele>447.3</ele>
        <time>2021-10-05T15:22:54Z</time>
      </trkpt>
      <trkpt lat="42.9163230" lon="-8.0624230">
        <ele>443.6</ele>
        <time>2021-10-05T15:22:59Z</time>
      </trkpt>
      <trkpt lat="42.9163940" lon="-8.0627840">
        <ele>441.0</ele>
        <time>2021-10-05T15:23:02Z</time>
      </trkpt>
      <trkpt lat="42.9166060" lon="-8.0635290">
        <ele>434.8</ele>
        <time>2021-10-05T15:23:09Z</time>
      </trkpt>
      <trkpt lat="42.9167540" lon="-8.0638410">
        <ele>430.7</ele>
        <time>2021-10-05T15:23:13Z</time>
      </trkpt>
      <trkpt lat="42.9167920" lon="-8.0638950">
        <ele>429.7</ele>
        <time>2021-10-05T15:23:14Z</time>
      </trkpt>
      <trkpt lat="42.9170280" lon="-8.0643360">
        <ele>421.8</ele>
        <time>2021-10-05T15:23:26Z</time>
      </trkpt>
      <trkpt lat="42.9169890" lon="-8.0644730">
        <ele>420.2</ele>
        <time>2021-10-05T15:23:28Z</time>
      </trkpt>
      <trkpt lat="42.9169510" lon="-8.0646110">
        <ele>418.9</ele>
        <time>2021-10-05T15:23:30Z</time>
      </trkpt>
      <trkpt lat="42.9168630" lon="-8.0649280">
        <ele>416.9</ele>
        <time>2021-10-05T15:23:34Z</time>
      </trkpt>
      <trkpt lat="42.9168410" lon="-8.0651830">
        <ele>416.3</ele>
        <time>2021-10-05T15:23:37Z</time>
      </trkpt>
      <trkpt lat="42.9167240" lon="-8.0655240">
        <ele>416.9</ele>
        <time>2021-10-05T15:23:42Z</time>
      </trkpt>
      <trkpt lat="42.9166930" lon="-8.0657400">
        <ele>417.6</ele>
        <time>2021-10-05T15:23:46Z</time>
      </trkpt>
      <trkpt lat="42.9166780" lon="-8.0658480">
        <ele>418.0</ele>
        <time>2021-10-05T15:23:48Z</time>
      </trkpt>
      <trkpt lat="42.9165740" lon="-8.0661900">
        <ele>418.8</ele>
        <time>2021-10-05T15:23:54Z</time>
      </trkpt>
      <trkpt lat="42.9165390" lon="-8.0663100">
        <ele>419.0</ele>
        <time>2021-10-05T15:23:56Z</time>
      </trkpt>
      <trkpt lat="42.9165020" lon="-8.0665770">
        <ele>419.4</ele>
        <time>2021-10-05T15:24:01Z</time>
      </trkpt>
      <trkpt lat="42.9164480" lon="-8.0669230">
        <ele>419.6</ele>
        <time>2021-10-05T15:24:07Z</time>
      </trkpt>
      <trkpt lat="42.9164280" lon="-8.0669810">
        <ele>419.5</ele>
        <time>2021-10-05T15:24:08Z</time>
      </trkpt>
      <trkpt lat="42.9163160" lon="-8.0672980">
        <ele>419.3</ele>
        <time>2021-10-05T15:24:13Z</time>
      </trkpt>
      <trkpt lat="42.9162780" lon="-8.0675550">
        <ele>419.5</ele>
        <time>2021-10-05T15:24:17Z</time>
      </trkpt>
      <trkpt lat="42.9162260" lon="-8.0680410">
        <ele>420.3</ele>
        <time>2021-10-05T15:24:25Z</time>
      </trkpt>
      <trkpt lat="42.9161780" lon="-8.0684000">
        <ele>421.2</ele>
        <time>2021-10-05T15:24:31Z</time>
      </trkpt>
      <trkpt lat="42.9161510" lon="-8.0685740">
        <ele>421.5</ele>
        <time>2021-10-05T15:24:34Z</time>
      </trkpt>
      <trkpt lat="42.9160960" lon="-8.0688050">
        <ele>421.9</ele>
        <time>2021-10-05T15:24:38Z</time>
      </trkpt>
      <trkpt lat="42.9158840" lon="-8.0694810">
        <ele>423.3</ele>
        <time>2021-10-05T15:24:50Z</time>
      </trkpt>
      <trkpt lat="42.9157990" lon="-8.0698860">
        <ele>424.1</ele>
        <time>2021-10-05T15:24:57Z</time>
      </trkpt>
      <trkpt lat="42.9157680" lon="-8.0701250">
        <ele>424.6</ele>
        <time>2021-10-05T15:25:01Z</time>
      </trkpt>
      <trkpt lat="42.9157800" lon="-8.0703750">
        <ele>425.0</ele>
        <time>2021-10-05T15:25:05Z</time>
      </trkpt>
      <trkpt lat="42.9158380" lon="-8.0710790">
        <ele>425.7</ele>
        <time>2021-10-05T15:25:16Z</time>
      </trkpt>
      <trkpt lat="42.9158330" lon="-8.0711450">
        <ele>425.7</ele>
        <time>2021-10-05T15:25:17Z</time>
      </trkpt>
      <trkpt lat="42.9158170" lon="-8.0717100">
        <ele>424.8</ele>
        <time>2021-10-05T15:25:25Z</time>
      </trkpt>
      <trkpt lat="42.9158570" lon="-8.0718600">
        <ele>424.3</ele>
        <time>2021-10-05T15:25:27Z</time>
      </trkpt>
      <trkpt lat="42.9158850" lon="-8.0719330">
        <ele>424.1</ele>
        <time>2021-10-05T15:25:28Z</time>
      </trkpt>
      <trkpt lat="42.9159450" lon="-8.0720790">
        <ele>423.6</ele>
        <time>2021-10-05T15:25:30Z</time>
      </trkpt>
      <trkpt lat="42.9159670" lon="-8.0721600">
        <ele>423.3</ele>
        <time>2021-10-05T15:25:31Z</time>
      </trkpt>
      <trkpt lat="42.9159500" lon="-8.0724970">
        <ele>422.2</ele>
        <time>2021-10-05T15:25:35Z</time>
      </trkpt>
      <trkpt lat="42.9158640" lon="-8.0727520">
        <ele>421.2</ele>
        <time>2021-10-05T15:25:38Z</time>
      </trkpt>
      <trkpt lat="42.9157460" lon="-8.0729970">
        <ele>420.3</ele>
        <time>2021-10-05T15:25:41Z</time>
      </trkpt>
      <trkpt lat="42.9156720" lon="-8.0731660">
        <ele>419.8</ele>
        <time>2021-10-05T15:25:43Z</time>
      </trkpt>
      <trkpt lat="42.9156040" lon="-8.0733230">
        <ele>419.4</ele>
        <time>2021-10-05T15:25:45Z</time>
      </trkpt>
      <trkpt lat="42.9155540" lon="-8.0734820">
        <ele>418.8</ele>
        <time>2021-10-05T15:25:47Z</time>
      </trkpt>
      <trkpt lat="42.9155790" lon="-8.0737320">
        <ele>417.2</ele>
        <time>2021-10-05T15:25:50Z</time>
      </trkpt>
      <trkpt lat="42.9157240" lon="-8.0739480">
        <ele>415.4</ele>
        <time>2021-10-05T15:25:53Z</time>
      </trkpt>
      <trkpt lat="42.9158330" lon="-8.0740880">
        <ele>414.3</ele>
        <time>2021-10-05T15:25:55Z</time>
      </trkpt>
      <trkpt lat="42.9159280" lon="-8.0742460">
        <ele>413.2</ele>
        <time>2021-10-05T15:25:57Z</time>
      </trkpt>
      <trkpt lat="42.9159600" lon="-8.0743390">
        <ele>412.7</ele>
        <time>2021-10-05T15:25:58Z</time>
      </trkpt>
      <trkpt lat="42.9160080" lon="-8.0747740">
        <ele>410.1</ele>
        <time>2021-10-05T15:26:02Z</time>
      </trkpt>
      <trkpt lat="42.9160280" lon="-8.0756080">
        <ele>406.4</ele>
        <time>2021-10-05T15:26:09Z</time>
      </trkpt>
      <trkpt lat="42.9160800" lon="-8.0762680">
        <ele>403.6</ele>
        <time>2021-10-05T15:26:15Z</time>
      </trkpt>
      <trkpt lat="42.9161140" lon="-8.0765070">
        <ele>402.6</ele>
        <time>2021-10-05T15:26:18Z</time>
      </trkpt>
      <trkpt lat="42.9161800" lon="-8.0767010">
        <ele>401.8</ele>
        <time>2021-10-05T15:26:22Z</time>
      </trkpt>
      <trkpt lat="42.9161930" lon="-8.0767600">
        <ele>401.5</ele>
        <time>2021-10-05T15:26:23Z</time>
      </trkpt>
      <trkpt lat="42.9162090" lon="-8.0769610">
        <ele>400.8</ele>
        <time>2021-10-05T15:26:26Z</time>
      </trkpt>
      <trkpt lat="42.9162090" lon="-8.0770300">
        <ele>400.6</ele>
        <time>2021-10-05T15:26:27Z</time>
      </trkpt>
      <trkpt lat="42.9162100" lon="-8.0771720">
        <ele>400.2</ele>
        <time>2021-10-05T15:26:29Z</time>
      </trkpt>
      <trkpt lat="42.9161910" lon="-8.0775410">
        <ele>399.5</ele>
        <time>2021-10-05T15:26:34Z</time>
      </trkpt>
      <trkpt lat="42.9161640" lon="-8.0779140">
        <ele>398.9</ele>
        <time>2021-10-05T15:26:39Z</time>
      </trkpt>
      <trkpt lat="42.9161660" lon="-8.0779770">
        <ele>398.9</ele>
        <time>2021-10-05T15:26:40Z</time>
      </trkpt>
      <trkpt lat="42.9162770" lon="-8.0780760">
        <ele>398.9</ele>
        <time>2021-10-05T15:26:44Z</time>
      </trkpt>
      <trkpt lat="42.9163450" lon="-8.0780730">
        <ele>398.8</ele>
        <time>2021-10-05T15:26:46Z</time>
      </trkpt>
      <trkpt lat="42.9164320" lon="-8.0781450">
        <ele>398.7</ele>
        <time>2021-10-05T15:26:49Z</time>
      </trkpt>
      <trkpt lat="42.9164590" lon="-8.0781890">
        <ele>398.7</ele>
        <time>2021-10-05T15:26:50Z</time>
      </trkpt>
      <trkpt lat="42.9165080" lon="-8.0782930">
        <ele>398.5</ele>
        <time>2021-10-05T15:26:52Z</time>
      </trkpt>
      <trkpt lat="42.9165330" lon="-8.0783500">
        <ele>398.4</ele>
        <time>2021-10-05T15:26:53Z</time>
      </trkpt>
      <trkpt lat="42.9167350" lon="-8.0788070">
        <ele>396.4</ele>
        <time>2021-10-05T15:27:00Z</time>
      </trkpt>
      <trkpt lat="42.9167800" lon="-8.0788770">
        <ele>396.0</ele>
        <time>2021-10-05T15:27:01Z</time>
      </trkpt>
      <trkpt lat="42.9168290" lon="-8.0789380">
        <ele>395.7</ele>
        <time>2021-10-05T15:27:02Z</time>
      </trkpt>
      <trkpt lat="42.9171520" lon="-8.0790540">
        <ele>393.4</ele>
        <time>2021-10-05T15:27:07Z</time>
      </trkpt>
      <trkpt lat="42.9173770" lon="-8.0790670">
        <ele>391.5</ele>
        <time>2021-10-05T15:27:10Z</time>
      </trkpt>
      <trkpt lat="42.9175230" lon="-8.0790820">
        <ele>389.9</ele>
        <time>2021-10-05T15:27:12Z</time>
      </trkpt>
      <trkpt lat="42.9178250" lon="-8.0792910">
        <ele>385.2</ele>
        <time>2021-10-05T15:27:16Z</time>
      </trkpt>
      <trkpt lat="42.9179420" lon="-8.0794520">
        <ele>383.1</ele>
        <time>2021-10-05T15:27:18Z</time>
      </trkpt>
      <trkpt lat="42.9181510" lon="-8.0801150">
        <ele>377.2</ele>
        <time>2021-10-05T15:27:24Z</time>
      </trkpt>
      <trkpt lat="42.9183570" lon="-8.0808770">
        <ele>372.6</ele>
        <time>2021-10-05T15:27:31Z</time>
      </trkpt>
      <trkpt lat="42.9183840" lon="-8.0810750">
        <ele>371.3</ele>
        <time>2021-10-05T15:27:33Z</time>
      </trkpt>
      <trkpt lat="42.9183920" lon="-8.0813430">
        <ele>369.4</ele>
        <time>2021-10-05T15:27:36Z</time>
      </trkpt>
      <trkpt lat="42.9184690" lon="-8.0817070">
        <ele>366.7</ele>
        <time>2021-10-05T15:27:45Z</time>
      </trkpt>
      <trkpt lat="42.9184030" lon="-8.0821360">
        <ele>362.9</ele>
        <time>2021-10-05T15:27:54Z</time>
      </trkpt>
      <trkpt lat="42.9184220" lon="-8.0823070">
        <ele>361.8</ele>
        <time>2021-10-05T15:27:56Z</time>
      </trkpt>
      <trkpt lat="42.9184560" lon="-8.0824800">
        <ele>360.7</ele>
        <time>2021-10-05T15:27:58Z</time>
      </trkpt>
      <trkpt lat="42.9185060" lon="-8.0827490">
        <ele>359.3</ele>
        <time>2021-10-05T15:28:02Z</time>
      </trkpt>
      <trkpt lat="42.9185010" lon="-8.0829830">
        <ele>357.8</ele>
        <time>2021-10-05T15:28:05Z</time>
      </trkpt>
      <trkpt lat="42.9184440" lon="-8.0832390">
        <ele>355.7</ele>
        <time>2021-10-05T15:28:08Z</time>
      </trkpt>
      <trkpt lat="42.9182550" lon="-8.0836420">
        <ele>353.6</ele>
        <time>2021-10-05T15:28:13Z</time>
      </trkpt>
      <trkpt lat="42.9182280" lon="-8.0836970">
        <ele>353.3</ele>
        <time>2021-10-05T15:28:14Z</time>
      </trkpt>
      <trkpt lat="42.9181950" lon="-8.0837920">
        <ele>352.9</ele>
        <time>2021-10-05T15:28:16Z</time>
      </trkpt>
      <trkpt lat="42.9181510" lon="-8.0843320">
        <ele>349.4</ele>
        <time>2021-10-05T15:28:23Z</time>
      </trkpt>
      <trkpt lat="42.9182170" lon="-8.0848040">
        <ele>345.8</ele>
        <time>2021-10-05T15:28:28Z</time>
      </trkpt>
      <trkpt lat="42.9183420" lon="-8.0853300">
        <ele>343.5</ele>
        <time>2021-10-05T15:28:32Z</time>
      </trkpt>
      <trkpt lat="42.9184120" lon="-8.0855620">
        <ele>340.5</ele>
        <time>2021-10-05T15:28:34Z</time>
      </trkpt>
      <trkpt lat="42.9184390" lon="-8.0856670">
        <ele>339.5</ele>
        <time>2021-10-05T15:28:35Z</time>
      </trkpt>
      <trkpt lat="42.9185630" lon="-8.0859390">
        <ele>338.3</ele>
        <time>2021-10-05T15:28:38Z</time>
      </trkpt>
      <trkpt lat="42.9185980" lon="-8.0861610">
        <ele>337.1</ele>
        <time>2021-10-05T15:28:40Z</time>
      </trkpt>
      <trkpt lat="42.9186290" lon="-8.0863670">
        <ele>336.4</ele>
        <time>2021-10-05T15:28:42Z</time>
      </trkpt>
      <trkpt lat="42.9186600" lon="-8.0865780">
        <ele>336.0</ele>
        <time>2021-10-05T15:28:44Z</time>
      </trkpt>
      <trkpt lat="42.9186840" lon="-8.0867830">
        <ele>335.9</ele>
        <time>2021-10-05T15:28:46Z</time>
      </trkpt>
      <trkpt lat="42.9186930" lon="-8.0868800">
        <ele>335.9</ele>
        <time>2021-10-05T15:28:47Z</time>
      </trkpt>
      <trkpt lat="42.9187060" lon="-8.0869720">
        <ele>336.0</ele>
        <time>2021-10-05T15:28:48Z</time>
      </trkpt>
      <trkpt lat="42.9187370" lon="-8.0871600">
        <ele>336.3</ele>
        <time>2021-10-05T15:28:50Z</time>
      </trkpt>
      <trkpt lat="42.9187960" lon="-8.0874420">
        <ele>337.3</ele>
        <time>2021-10-05T15:28:53Z</time>
      </trkpt>
      <trkpt lat="42.9187720" lon="-8.0877000">
        <ele>338.2</ele>
        <time>2021-10-05T15:28:56Z</time>
      </trkpt>
      <trkpt lat="42.9187550" lon="-8.0877770">
        <ele>338.4</ele>
        <time>2021-10-05T15:28:57Z</time>
      </trkpt>
      <trkpt lat="42.9186960" lon="-8.0879990">
        <ele>339.0</ele>
        <time>2021-10-05T15:29:00Z</time>
      </trkpt>
      <trkpt lat="42.9186640" lon="-8.0881390">
        <ele>339.4</ele>
        <time>2021-10-05T15:29:02Z</time>
      </trkpt>
      <trkpt lat="42.9186540" lon="-8.0884380">
        <ele>340.6</ele>
        <time>2021-10-05T15:29:07Z</time>
      </trkpt>
      <trkpt lat="42.9186510" lon="-8.0884940">
        <ele>340.8</ele>
        <time>2021-10-05T15:29:08Z</time>
      </trkpt>
      <trkpt lat="42.9186310" lon="-8.0887280">
        <ele>342.1</ele>
        <time>2021-10-05T15:29:13Z</time>
      </trkpt>
      <trkpt lat="42.9186480" lon="-8.0889280">
        <ele>343.1</ele>
        <time>2021-10-05T15:29:18Z</time>
      </trkpt>
      <trkpt lat="42.9186370" lon="-8.0889940">
        <ele>343.4</ele>
        <time>2021-10-05T15:29:19Z</time>
      </trkpt>
      <trkpt lat="42.9186340" lon="-8.0890700">
        <ele>345.3</ele>
        <time>2021-10-05T15:29:21Z</time>
      </trkpt>
      <trkpt lat="42.9187800" lon="-8.0890410">
        <ele>347.8</ele>
        <time>2021-10-05T15:29:30Z</time>
      </trkpt>
      <trkpt lat="42.9189020" lon="-8.0889660">
        <ele>350.1</ele>
        <time>2021-10-05T15:29:37Z</time>
      </trkpt>
      <trkpt lat="42.9189530" lon="-8.0888950">
        <ele>351.3</ele>
        <time>2021-10-05T15:29:41Z</time>
      </trkpt>
      <trkpt lat="42.9190080" lon="-8.0888430">
        <ele>352.3</ele>
        <time>2021-10-05T15:29:45Z</time>
      </trkpt>
      <trkpt lat="42.9193040" lon="-8.0894230">
        <ele>357.9</ele>
        <time>2021-10-05T15:30:10Z</time>
      </trkpt>
      <trkpt lat="42.9194010" lon="-8.0898030">
        <ele>362.3</ele>
        <time>2021-10-05T15:30:23Z</time>
      </trkpt>
      <trkpt lat="42.9194090" lon="-8.0898810">
        <ele>363.2</ele>
        <time>2021-10-05T15:30:26Z</time>
      </trkpt>
      <trkpt lat="42.9194860" lon="-8.0904490">
        <ele>369.7</ele>
        <time>2021-10-05T15:30:45Z</time>
      </trkpt>
      <trkpt lat="42.9194870" lon="-8.0905740">
        <ele>371.0</ele>
        <time>2021-10-05T15:30:49Z</time>
      </trkpt>
      <trkpt lat="42.9195710" lon="-8.0910190">
        <ele>375.4</ele>
        <time>2021-10-05T15:31:05Z</time>
      </trkpt>
      <trkpt lat="42.9197740" lon="-8.0913270">
        <ele>378.7</ele>
        <time>2021-10-05T15:31:19Z</time>
      </trkpt>
      <trkpt lat="42.9199130" lon="-8.0915640">
        <ele>382.5</ele>
        <time>2021-10-05T15:31:31Z</time>
      </trkpt>
      <trkpt lat="42.9199400" lon="-8.0916000">
        <ele>383.2</ele>
        <time>2021-10-05T15:31:34Z</time>
      </trkpt>
      <trkpt lat="42.9200650" lon="-8.0917830">
        <ele>386.5</ele>
        <time>2021-10-05T15:31:43Z</time>
      </trkpt>
      <trkpt lat="42.9200840" lon="-8.0918030">
        <ele>386.9</ele>
        <time>2021-10-05T15:31:44Z</time>
      </trkpt>
      <trkpt lat="42.9201740" lon="-8.0919050">
        <ele>388.8</ele>
        <time>2021-10-05T15:31:49Z</time>
      </trkpt>
      <trkpt lat="42.9204080" lon="-8.0921760">
        <ele>394.1</ele>
        <time>2021-10-05T15:32:02Z</time>
      </trkpt>
      <trkpt lat="42.9204920" lon="-8.0923340">
        <ele>396.0</ele>
        <time>2021-10-05T15:32:09Z</time>
      </trkpt>
      <trkpt lat="42.9204970" lon="-8.0924120">
        <ele>396.5</ele>
        <time>2021-10-05T15:32:12Z</time>
      </trkpt>
      <trkpt lat="42.9205400" lon="-8.0924760">
        <ele>397.0</ele>
        <time>2021-10-05T15:32:16Z</time>
      </trkpt>
      <trkpt lat="42.9207080" lon="-8.0925350">
        <ele>398.4</ele>
        <time>2021-10-05T15:32:35Z</time>
      </trkpt>
      <trkpt lat="42.9207330" lon="-8.0925420">
        <ele>398.6</ele>
        <time>2021-10-05T15:32:36Z</time>
      </trkpt>
      <trkpt lat="42.9208390" lon="-8.0925860">
        <ele>399.5</ele>
        <time>2021-10-05T15:32:40Z</time>
      </trkpt>
      <trkpt lat="42.9211240" lon="-8.0927320">
        <ele>401.6</ele>
        <time>2021-10-05T15:32:49Z</time>
      </trkpt>
      <trkpt lat="42.9214430" lon="-8.0928640">
        <ele>403.3</ele>
        <time>2021-10-05T15:32:59Z</time>
      </trkpt>
      <trkpt lat="42.9219480" lon="-8.0930640">
        <ele>405.6</ele>
        <time>2021-10-05T15:33:14Z</time>
      </trkpt>
      <trkpt lat="42.9222020" lon="-8.0932190">
        <ele>406.4</ele>
        <time>2021-10-05T15:33:21Z</time>
      </trkpt>
      <trkpt lat="42.9223070" lon="-8.0932960">
        <ele>406.7</ele>
        <time>2021-10-05T15:33:24Z</time>
      </trkpt>
      <trkpt lat="42.9224490" lon="-8.0933980">
        <ele>406.9</ele>
        <time>2021-10-05T15:33:28Z</time>
      </trkpt>
      <trkpt lat="42.9225550" lon="-8.0934880">
        <ele>407.0</ele>
        <time>2021-10-05T15:33:31Z</time>
      </trkpt>
      <trkpt lat="42.9227440" lon="-8.0936240">
        <ele>407.1</ele>
        <time>2021-10-05T15:33:36Z</time>
      </trkpt>
      <trkpt lat="42.9228920" lon="-8.0937480">
        <ele>407.2</ele>
        <time>2021-10-05T15:33:40Z</time>
      </trkpt>
      <trkpt lat="42.9230090" lon="-8.0938460">
        <ele>407.3</ele>
        <time>2021-10-05T15:33:43Z</time>
      </trkpt>
      <trkpt lat="42.9233190" lon="-8.0941010">
        <ele>407.6</ele>
        <time>2021-10-05T15:33:50Z</time>
      </trkpt>
      <trkpt lat="42.9234380" lon="-8.0942160">
        <ele>407.7</ele>
        <time>2021-10-05T15:33:53Z</time>
      </trkpt>
      <trkpt lat="42.9235790" lon="-8.0943740">
        <ele>407.9</ele>
        <time>2021-10-05T15:33:57Z</time>
      </trkpt>
      <trkpt lat="42.9236480" lon="-8.0944460">
        <ele>408.0</ele>
        <time>2021-10-05T15:33:59Z</time>
      </trkpt>
      <trkpt lat="42.9237460" lon="-8.0945410">
        <ele>408.2</ele>
        <time>2021-10-05T15:34:02Z</time>
      </trkpt>
      <trkpt lat="42.9237990" lon="-8.0946000">
        <ele>408.3</ele>
        <time>2021-10-05T15:34:05Z</time>
      </trkpt>
      <trkpt lat="42.9238030" lon="-8.0946030">
        <ele>408.3</ele>
        <time>2021-10-05T15:34:06Z</time>
      </trkpt>
      <trkpt lat="42.9238020" lon="-8.0946050">
        <ele>408.4</ele>
        <time>2021-10-05T15:34:07Z</time>
      </trkpt>
      <trkpt lat="42.9238430" lon="-8.0946380">
        <ele>408.4</ele>
        <time>2021-10-05T15:38:43Z</time>
      </trkpt>
      <trkpt lat="42.9238540" lon="-8.0946490">
        <ele>408.5</ele>
        <time>2021-10-05T15:38:44Z</time>
      </trkpt>
      <trkpt lat="42.9239050" lon="-8.0947170">
        <ele>408.6</ele>
        <time>2021-10-05T15:38:48Z</time>
      </trkpt>
      <trkpt lat="42.9239880" lon="-8.0947940">
        <ele>408.9</ele>
        <time>2021-10-05T15:38:52Z</time>
      </trkpt>
      <trkpt lat="42.9241520" lon="-8.0950270">
        <ele>409.5</ele>
        <time>2021-10-05T15:39:00Z</time>
      </trkpt>
      <trkpt lat="42.9243100" lon="-8.0953720">
        <ele>410.5</ele>
        <time>2021-10-05T15:39:09Z</time>
      </trkpt>
      <trkpt lat="42.9243250" lon="-8.0954200">
        <ele>410.6</ele>
        <time>2021-10-05T15:39:10Z</time>
      </trkpt>
      <trkpt lat="42.9243710" lon="-8.0955690">
        <ele>411.0</ele>
        <time>2021-10-05T15:39:13Z</time>
      </trkpt>
      <trkpt lat="42.9245620" lon="-8.0962970">
        <ele>412.4</ele>
        <time>2021-10-05T15:39:27Z</time>
      </trkpt>
      <trkpt lat="42.9246010" lon="-8.0964380">
        <ele>412.7</ele>
        <time>2021-10-05T15:39:30Z</time>
      </trkpt>
      <trkpt lat="42.9247590" lon="-8.0971600">
        <ele>414.3</ele>
        <time>2021-10-05T15:39:45Z</time>
      </trkpt>
      <trkpt lat="42.9247610" lon="-8.0973450">
        <ele>414.5</ele>
        <time>2021-10-05T15:39:49Z</time>
      </trkpt>
      <trkpt lat="42.9247310" lon="-8.0974370">
        <ele>414.3</ele>
        <time>2021-10-05T15:39:51Z</time>
      </trkpt>
      <trkpt lat="42.9246700" lon="-8.0976260">
        <ele>413.7</ele>
        <time>2021-10-05T15:39:54Z</time>
      </trkpt>
      <trkpt lat="42.9246020" lon="-8.0979300">
        <ele>413.1</ele>
        <time>2021-10-05T15:39:58Z</time>
      </trkpt>
      <trkpt lat="42.9245780" lon="-8.0981440">
        <ele>412.9</ele>
        <time>2021-10-05T15:40:01Z</time>
      </trkpt>
      <trkpt lat="42.9245730" lon="-8.0983860">
        <ele>412.7</ele>
        <time>2021-10-05T15:40:05Z</time>
      </trkpt>
      <trkpt lat="42.9245810" lon="-8.0985040">
        <ele>412.5</ele>
        <time>2021-10-05T15:40:07Z</time>
      </trkpt>
      <trkpt lat="42.9246180" lon="-8.0986900">
        <ele>412.0</ele>
        <time>2021-10-05T15:40:10Z</time>
      </trkpt>
      <trkpt lat="42.9246860" lon="-8.0988760">
        <ele>411.5</ele>
        <time>2021-10-05T15:40:13Z</time>
      </trkpt>
      <trkpt lat="42.9247250" lon="-8.0989990">
        <ele>411.2</ele>
        <time>2021-10-05T15:40:15Z</time>
      </trkpt>
      <trkpt lat="42.9247350" lon="-8.0992850">
        <ele>410.2</ele>
        <time>2021-10-05T15:40:19Z</time>
      </trkpt>
      <trkpt lat="42.9246840" lon="-8.0999820">
        <ele>407.6</ele>
        <time>2021-10-05T15:40:27Z</time>
      </trkpt>
      <trkpt lat="42.9246790" lon="-8.1007510">
        <ele>406.2</ele>
        <time>2021-10-05T15:40:35Z</time>
      </trkpt>
      <trkpt lat="42.9246760" lon="-8.1009310">
        <ele>405.9</ele>
        <time>2021-10-05T15:40:37Z</time>
      </trkpt>
      <trkpt lat="42.9246900" lon="-8.1016840">
        <ele>404.5</ele>
        <time>2021-10-05T15:40:46Z</time>
      </trkpt>
      <trkpt lat="42.9247300" lon="-8.1018450">
        <ele>404.1</ele>
        <time>2021-10-05T15:40:48Z</time>
      </trkpt>
      <trkpt lat="42.9247540" lon="-8.1019260">
        <ele>403.9</ele>
        <time>2021-10-05T15:40:49Z</time>
      </trkpt>
      <trkpt lat="42.9247800" lon="-8.1020060">
        <ele>403.6</ele>
        <time>2021-10-05T15:40:50Z</time>
      </trkpt>
      <trkpt lat="42.9248310" lon="-8.1021710">
        <ele>403.1</ele>
        <time>2021-10-05T15:40:52Z</time>
      </trkpt>
      <trkpt lat="42.9250570" lon="-8.1029110">
        <ele>400.0</ele>
        <time>2021-10-05T15:41:01Z</time>
      </trkpt>
      <trkpt lat="42.9251220" lon="-8.1031350">
        <ele>398.7</ele>
        <time>2021-10-05T15:41:04Z</time>
      </trkpt>
      <trkpt lat="42.9253310" lon="-8.1036650">
        <ele>394.2</ele>
        <time>2021-10-05T15:41:13Z</time>
      </trkpt>
      <trkpt lat="42.9255180" lon="-8.1038880">
        <ele>391.7</ele>
        <time>2021-10-05T15:41:18Z</time>
      </trkpt>
      <trkpt lat="42.9260020" lon="-8.1041790">
        <ele>385.6</ele>
        <time>2021-10-05T15:41:28Z</time>
      </trkpt>
      <trkpt lat="42.9260590" lon="-8.1041920">
        <ele>384.9</ele>
        <time>2021-10-05T15:41:29Z</time>
      </trkpt>
      <trkpt lat="42.9262880" lon="-8.1042210">
        <ele>382.7</ele>
        <time>2021-10-05T15:41:33Z</time>
      </trkpt>
      <trkpt lat="42.9264440" lon="-8.1042340">
        <ele>381.9</ele>
        <time>2021-10-05T15:41:36Z</time>
      </trkpt>
      <trkpt lat="42.9264870" lon="-8.1042470">
        <ele>381.8</ele>
        <time>2021-10-05T15:41:37Z</time>
      </trkpt>
      <trkpt lat="42.9266630" lon="-8.1044210">
        <ele>381.1</ele>
        <time>2021-10-05T15:41:44Z</time>
      </trkpt>
      <trkpt lat="42.9266910" lon="-8.1045000">
        <ele>381.1</ele>
        <time>2021-10-05T15:41:46Z</time>
      </trkpt>
      <trkpt lat="42.9267020" lon="-8.1045410">
        <ele>381.1</ele>
        <time>2021-10-05T15:41:47Z</time>
      </trkpt>
      <trkpt lat="42.9267380" lon="-8.1046440">
        <ele>381.1</ele>
        <time>2021-10-05T15:41:49Z</time>
      </trkpt>
      <trkpt lat="42.9267870" lon="-8.1047800">
        <ele>381.3</ele>
        <time>2021-10-05T15:41:51Z</time>
      </trkpt>
      <trkpt lat="42.9268330" lon="-8.1049230">
        <ele>381.6</ele>
        <time>2021-10-05T15:41:53Z</time>
      </trkpt>
      <trkpt lat="42.9268610" lon="-8.1050030">
        <ele>381.8</ele>
        <time>2021-10-05T15:41:54Z</time>
      </trkpt>
      <trkpt lat="42.9269100" lon="-8.1051570">
        <ele>382.6</ele>
        <time>2021-10-05T15:41:56Z</time>
      </trkpt>
      <trkpt lat="42.9269550" lon="-8.1052980">
        <ele>383.6</ele>
        <time>2021-10-05T15:41:58Z</time>
      </trkpt>
      <trkpt lat="42.9269760" lon="-8.1053670">
        <ele>384.0</ele>
        <time>2021-10-05T15:41:59Z</time>
      </trkpt>
      <trkpt lat="42.9269960" lon="-8.1054400">
        <ele>384.5</ele>
        <time>2021-10-05T15:42:00Z</time>
      </trkpt>
      <trkpt lat="42.9270330" lon="-8.1055720">
        <ele>385.4</ele>
        <time>2021-10-05T15:42:02Z</time>
      </trkpt>
      <trkpt lat="42.9270620" lon="-8.1056950">
        <ele>386.1</ele>
        <time>2021-10-05T15:42:04Z</time>
      </trkpt>
      <trkpt lat="42.9270940" lon="-8.1058150">
        <ele>386.8</ele>
        <time>2021-10-05T15:42:06Z</time>
      </trkpt>
      <trkpt lat="42.9271400" lon="-8.1059900">
        <ele>387.6</ele>
        <time>2021-10-05T15:42:09Z</time>
      </trkpt>
      <trkpt lat="42.9273420" lon="-8.1067050">
        <ele>389.7</ele>
        <time>2021-10-05T15:42:21Z</time>
      </trkpt>
      <trkpt lat="42.9273580" lon="-8.1067600">
        <ele>389.9</ele>
        <time>2021-10-05T15:42:22Z</time>
      </trkpt>
      <trkpt lat="42.9274920" lon="-8.1071960">
        <ele>391.1</ele>
        <time>2021-10-05T15:42:30Z</time>
      </trkpt>
      <trkpt lat="42.9275600" lon="-8.1072810">
        <ele>391.3</ele>
        <time>2021-10-05T15:42:34Z</time>
      </trkpt>
      <trkpt lat="42.9275650" lon="-8.1073360">
        <ele>391.5</ele>
        <time>2021-10-05T15:42:38Z</time>
      </trkpt>
      <trkpt lat="42.9275660" lon="-8.1073590">
        <ele>391.5</ele>
        <time>2021-10-05T15:42:41Z</time>
      </trkpt>
      <trkpt lat="42.9275690" lon="-8.1073850">
        <ele>391.6</ele>
        <time>2021-10-05T15:42:43Z</time>
      </trkpt>
      <trkpt lat="42.9275800" lon="-8.1075200">
        <ele>391.9</ele>
        <time>2021-10-05T15:42:48Z</time>
      </trkpt>
      <trkpt lat="42.9276000" lon="-8.1076110">
        <ele>392.2</ele>
        <time>2021-10-05T15:42:51Z</time>
      </trkpt>
      <trkpt lat="42.9276970" lon="-8.1079720">
        <ele>393.4</ele>
        <time>2021-10-05T15:43:01Z</time>
      </trkpt>
      <trkpt lat="42.9277870" lon="-8.1083040">
        <ele>394.8</ele>
        <time>2021-10-05T15:43:10Z</time>
      </trkpt>
      <trkpt lat="42.9278400" lon="-8.1084840">
        <ele>395.6</ele>
        <time>2021-10-05T15:43:15Z</time>
      </trkpt>
      <trkpt lat="42.9280360" lon="-8.1091730">
        <ele>398.9</ele>
        <time>2021-10-05T15:43:34Z</time>
      </trkpt>
      <trkpt lat="42.9281200" lon="-8.1094230">
        <ele>400.4</ele>
        <time>2021-10-05T15:43:41Z</time>
      </trkpt>
      <trkpt lat="42.9281500" lon="-8.1095960">
        <ele>401.4</ele>
        <time>2021-10-05T15:43:45Z</time>
      </trkpt>
      <trkpt lat="42.9281570" lon="-8.1097850">
        <ele>402.5</ele>
        <time>2021-10-05T15:43:49Z</time>
      </trkpt>
      <trkpt lat="42.9281190" lon="-8.1105340">
        <ele>406.2</ele>
        <time>2021-10-05T15:44:06Z</time>
      </trkpt>
      <trkpt lat="42.9281190" lon="-8.1107820">
        <ele>407.9</ele>
        <time>2021-10-05T15:44:12Z</time>
      </trkpt>
      <trkpt lat="42.9280840" lon="-8.1109580">
        <ele>409.4</ele>
        <time>2021-10-05T15:44:17Z</time>
      </trkpt>
      <trkpt lat="42.9279370" lon="-8.1112610">
        <ele>412.4</ele>
        <time>2021-10-05T15:44:28Z</time>
      </trkpt>
      <trkpt lat="42.9275880" lon="-8.1118360">
        <ele>417.4</ele>
        <time>2021-10-05T15:44:50Z</time>
      </trkpt>
      <trkpt lat="42.9272820" lon="-8.1123030">
        <ele>422.6</ele>
        <time>2021-10-05T15:45:08Z</time>
      </trkpt>
      <trkpt lat="42.9271300" lon="-8.1125340">
        <ele>425.8</ele>
        <time>2021-10-05T15:45:17Z</time>
      </trkpt>
      <trkpt lat="42.9271850" lon="-8.1126370">
        <ele>427.3</ele>
        <time>2021-10-05T15:45:23Z</time>
      </trkpt>
      <trkpt lat="42.9272330" lon="-8.1126720">
        <ele>428.2</ele>
        <time>2021-10-05T15:45:26Z</time>
      </trkpt>
      <trkpt lat="42.9276410" lon="-8.1130000">
        <ele>433.0</ele>
        <time>2021-10-05T15:45:48Z</time>
      </trkpt>
      <trkpt lat="42.9277610" lon="-8.1129760">
        <ele>433.3</ele>
        <time>2021-10-05T15:45:52Z</time>
      </trkpt>
      <trkpt lat="42.9279280" lon="-8.1130650">
        <ele>433.5</ele>
        <time>2021-10-05T15:45:58Z</time>
      </trkpt>
      <trkpt lat="42.9280100" lon="-8.1131590">
        <ele>433.3</ele>
        <time>2021-10-05T15:46:01Z</time>
      </trkpt>
      <trkpt lat="42.9280760" lon="-8.1132360">
        <ele>432.8</ele>
        <time>2021-10-05T15:46:03Z</time>
      </trkpt>
      <trkpt lat="42.9281580" lon="-8.1133130">
        <ele>432.2</ele>
        <time>2021-10-05T15:46:05Z</time>
      </trkpt>
      <trkpt lat="42.9282540" lon="-8.1133950">
        <ele>431.2</ele>
        <time>2021-10-05T15:46:07Z</time>
      </trkpt>
      <trkpt lat="42.9283030" lon="-8.1134430">
        <ele>430.7</ele>
        <time>2021-10-05T15:46:08Z</time>
      </trkpt>
      <trkpt lat="42.9283970" lon="-8.1135580">
        <ele>429.5</ele>
        <time>2021-10-05T15:46:10Z</time>
      </trkpt>
      <trkpt lat="42.9284790" lon="-8.1136740">
        <ele>428.1</ele>
        <time>2021-10-05T15:46:12Z</time>
      </trkpt>
      <trkpt lat="42.9285440" lon="-8.1137830">
        <ele>426.8</ele>
        <time>2021-10-05T15:46:14Z</time>
      </trkpt>
      <trkpt lat="42.9285960" lon="-8.1139050">
        <ele>425.4</ele>
        <time>2021-10-05T15:46:16Z</time>
      </trkpt>
      <trkpt lat="42.9286540" lon="-8.1140640">
        <ele>423.6</ele>
        <time>2021-10-05T15:46:18Z</time>
      </trkpt>
      <trkpt lat="42.9286810" lon="-8.1141570">
        <ele>422.6</ele>
        <time>2021-10-05T15:46:19Z</time>
      </trkpt>
      <trkpt lat="42.9287790" lon="-8.1146470">
        <ele>417.6</ele>
        <time>2021-10-05T15:46:23Z</time>
      </trkpt>
      <trkpt lat="42.9289290" lon="-8.1153890">
        <ele>411.0</ele>
        <time>2021-10-05T15:46:28Z</time>
      </trkpt>
      <trkpt lat="42.9289940" lon="-8.1157200">
        <ele>408.4</ele>
        <time>2021-10-05T15:46:30Z</time>
      </trkpt>
      <trkpt lat="42.9290270" lon="-8.1158740">
        <ele>407.2</ele>
        <time>2021-10-05T15:46:31Z</time>
      </trkpt>
      <trkpt lat="42.9290840" lon="-8.1161660">
        <ele>404.9</ele>
        <time>2021-10-05T15:46:33Z</time>
      </trkpt>
      <trkpt lat="42.9291430" lon="-8.1165670">
        <ele>402.0</ele>
        <time>2021-10-05T15:46:36Z</time>
      </trkpt>
      <trkpt lat="42.9291850" lon="-8.1168320">
        <ele>400.1</ele>
        <time>2021-10-05T15:46:38Z</time>
      </trkpt>
      <trkpt lat="42.9292270" lon="-8.1170800">
        <ele>398.6</ele>
        <time>2021-10-05T15:46:40Z</time>
      </trkpt>
      <trkpt lat="42.9292720" lon="-8.1173140">
        <ele>397.1</ele>
        <time>2021-10-05T15:46:42Z</time>
      </trkpt>
      <trkpt lat="42.9294230" lon="-8.1180640">
        <ele>392.5</ele>
        <time>2021-10-05T15:46:51Z</time>
      </trkpt>
      <trkpt lat="42.9294460" lon="-8.1182050">
        <ele>391.6</ele>
        <time>2021-10-05T15:46:53Z</time>
      </trkpt>
      <trkpt lat="42.9294700" lon="-8.1183440">
        <ele>390.9</ele>
        <time>2021-10-05T15:46:55Z</time>
      </trkpt>
      <trkpt lat="42.9294900" lon="-8.1184680">
        <ele>390.2</ele>
        <time>2021-10-05T15:46:57Z</time>
      </trkpt>
      <trkpt lat="42.9295290" lon="-8.1186480">
        <ele>389.3</ele>
        <time>2021-10-05T15:47:01Z</time>
      </trkpt>
      <trkpt lat="42.9295640" lon="-8.1189670">
        <ele>387.5</ele>
        <time>2021-10-05T15:47:07Z</time>
      </trkpt>
      <trkpt lat="42.9295450" lon="-8.1193640">
        <ele>385.6</ele>
        <time>2021-10-05T15:47:14Z</time>
      </trkpt>
      <trkpt lat="42.9295360" lon="-8.1194870">
        <ele>385.2</ele>
        <time>2021-10-05T15:47:16Z</time>
      </trkpt>
      <trkpt lat="42.9295450" lon="-8.1195960">
        <ele>384.9</ele>
        <time>2021-10-05T15:47:18Z</time>
      </trkpt>
      <trkpt lat="42.9295510" lon="-8.1196490">
        <ele>384.7</ele>
        <time>2021-10-05T15:47:19Z</time>
      </trkpt>
      <trkpt lat="42.9295590" lon="-8.1197510">
        <ele>384.6</ele>
        <time>2021-10-05T15:47:21Z</time>
      </trkpt>
      <trkpt lat="42.9295620" lon="-8.1199220">
        <ele>384.7</ele>
        <time>2021-10-05T15:47:25Z</time>
      </trkpt>
      <trkpt lat="42.9295420" lon="-8.1200520">
        <ele>384.9</ele>
        <time>2021-10-05T15:47:29Z</time>
      </trkpt>
      <trkpt lat="42.9294750" lon="-8.1201460">
        <ele>385.2</ele>
        <time>2021-10-05T15:47:33Z</time>
      </trkpt>
      <trkpt lat="42.9294330" lon="-8.1202170">
        <ele>385.4</ele>
        <time>2021-10-05T15:47:36Z</time>
      </trkpt>
      <trkpt lat="42.9294540" lon="-8.1203130">
        <ele>385.6</ele>
        <time>2021-10-05T15:47:39Z</time>
      </trkpt>
      <trkpt lat="42.9295220" lon="-8.1203980">
        <ele>385.7</ele>
        <time>2021-10-05T15:47:42Z</time>
      </trkpt>
      <trkpt lat="42.9296440" lon="-8.1205640">
        <ele>386.0</ele>
        <time>2021-10-05T15:47:47Z</time>
      </trkpt>
      <trkpt lat="42.9296680" lon="-8.1206500">
        <ele>386.2</ele>
        <time>2021-10-05T15:47:49Z</time>
      </trkpt>
      <trkpt lat="42.9297120" lon="-8.1208640">
        <ele>386.4</ele>
        <time>2021-10-05T15:47:53Z</time>
      </trkpt>
      <trkpt lat="42.9297550" lon="-8.1210780">
        <ele>385.8</ele>
        <time>2021-10-05T15:47:56Z</time>
      </trkpt>
      <trkpt lat="42.9297960" lon="-8.1212450">
        <ele>384.9</ele>
        <time>2021-10-05T15:47:58Z</time>
      </trkpt>
      <trkpt lat="42.9298900" lon="-8.1217490">
        <ele>381.4</ele>
        <time>2021-10-05T15:48:03Z</time>
      </trkpt>
      <trkpt lat="42.9299480" lon="-8.1222060">
        <ele>377.7</ele>
        <time>2021-10-05T15:48:07Z</time>
      </trkpt>
      <trkpt lat="42.9299990" lon="-8.1224880">
        <ele>375.6</ele>
        <time>2021-10-05T15:48:10Z</time>
      </trkpt>
      <trkpt lat="42.9301040" lon="-8.1227620">
        <ele>374.5</ele>
        <time>2021-10-05T15:48:14Z</time>
      </trkpt>
      <trkpt lat="42.9301210" lon="-8.1231380">
        <ele>371.6</ele>
        <time>2021-10-05T15:48:18Z</time>
      </trkpt>
      <trkpt lat="42.9301060" lon="-8.1232710">
        <ele>370.1</ele>
        <time>2021-10-05T15:48:19Z</time>
      </trkpt>
      <trkpt lat="42.9300880" lon="-8.1235700">
        <ele>367.0</ele>
        <time>2021-10-05T15:48:21Z</time>
      </trkpt>
      <trkpt lat="42.9301070" lon="-8.1240470">
        <ele>363.1</ele>
        <time>2021-10-05T15:48:24Z</time>
      </trkpt>
      <trkpt lat="42.9301240" lon="-8.1241980">
        <ele>362.0</ele>
        <time>2021-10-05T15:48:25Z</time>
      </trkpt>
      <trkpt lat="42.9301660" lon="-8.1244800">
        <ele>359.9</ele>
        <time>2021-10-05T15:48:27Z</time>
      </trkpt>
      <trkpt lat="42.9302050" lon="-8.1247410">
        <ele>357.8</ele>
        <time>2021-10-05T15:48:29Z</time>
      </trkpt>
      <trkpt lat="42.9302390" lon="-8.1249810">
        <ele>355.5</ele>
        <time>2021-10-05T15:48:31Z</time>
      </trkpt>
      <trkpt lat="42.9302650" lon="-8.1251000">
        <ele>354.1</ele>
        <time>2021-10-05T15:48:32Z</time>
      </trkpt>
      <trkpt lat="42.9304170" lon="-8.1254520">
        <ele>349.1</ele>
        <time>2021-10-05T15:48:35Z</time>
      </trkpt>
      <trkpt lat="42.9305460" lon="-8.1257040">
        <ele>346.0</ele>
        <time>2021-10-05T15:48:37Z</time>
      </trkpt>
      <trkpt lat="42.9306870" lon="-8.1259590">
        <ele>343.7</ele>
        <time>2021-10-05T15:48:39Z</time>
      </trkpt>
      <trkpt lat="42.9308620" lon="-8.1263550">
        <ele>341.8</ele>
        <time>2021-10-05T15:48:42Z</time>
      </trkpt>
      <trkpt lat="42.9309030" lon="-8.1264890">
        <ele>341.0</ele>
        <time>2021-10-05T15:48:43Z</time>
      </trkpt>
      <trkpt lat="42.9310540" lon="-8.1273010">
        <ele>334.2</ele>
        <time>2021-10-05T15:48:49Z</time>
      </trkpt>
      <trkpt lat="42.9310330" lon="-8.1280540">
        <ele>325.3</ele>
        <time>2021-10-05T15:48:56Z</time>
      </trkpt>
      <trkpt lat="42.9309610" lon="-8.1287090">
        <ele>316.1</ele>
        <time>2021-10-05T15:49:01Z</time>
      </trkpt>
      <trkpt lat="42.9310370" lon="-8.1293480">
        <ele>310.9</ele>
        <time>2021-10-05T15:49:06Z</time>
      </trkpt>
      <trkpt lat="42.9310200" lon="-8.1296960">
        <ele>309.2</ele>
        <time>2021-10-05T15:49:09Z</time>
      </trkpt>
      <trkpt lat="42.9309680" lon="-8.1298930">
        <ele>308.5</ele>
        <time>2021-10-05T15:49:11Z</time>
      </trkpt>
      <trkpt lat="42.9308360" lon="-8.1302830">
        <ele>308.1</ele>
        <time>2021-10-05T15:49:16Z</time>
      </trkpt>
      <trkpt lat="42.9307930" lon="-8.1303520">
        <ele>307.9</ele>
        <time>2021-10-05T15:49:17Z</time>
      </trkpt>
      <trkpt lat="42.9307550" lon="-8.1304240">
        <ele>307.7</ele>
        <time>2021-10-05T15:49:18Z</time>
      </trkpt>
      <trkpt lat="42.9306910" lon="-8.1305830">
        <ele>307.4</ele>
        <time>2021-10-05T15:49:20Z</time>
      </trkpt>
      <trkpt lat="42.9306110" lon="-8.1308180">
        <ele>307.3</ele>
        <time>2021-10-05T15:49:23Z</time>
      </trkpt>
      <trkpt lat="42.9305890" lon="-8.1308910">
        <ele>307.3</ele>
        <time>2021-10-05T15:49:24Z</time>
      </trkpt>
      <trkpt lat="42.9305240" lon="-8.1310970">
        <ele>307.6</ele>
        <time>2021-10-05T15:49:27Z</time>
      </trkpt>
      <trkpt lat="42.9305060" lon="-8.1311600">
        <ele>307.7</ele>
        <time>2021-10-05T15:49:28Z</time>
      </trkpt>
      <trkpt lat="42.9304850" lon="-8.1312830">
        <ele>308.0</ele>
        <time>2021-10-05T15:49:30Z</time>
      </trkpt>
      <trkpt lat="42.9304780" lon="-8.1313400">
        <ele>308.1</ele>
        <time>2021-10-05T15:49:31Z</time>
      </trkpt>
      <trkpt lat="42.9304750" lon="-8.1315680">
        <ele>308.9</ele>
        <time>2021-10-05T15:49:35Z</time>
      </trkpt>
      <trkpt lat="42.9304760" lon="-8.1317550">
        <ele>309.8</ele>
        <time>2021-10-05T15:49:39Z</time>
      </trkpt>
      <trkpt lat="42.9304810" lon="-8.1317990">
        <ele>310.0</ele>
        <time>2021-10-05T15:49:40Z</time>
      </trkpt>
      <trkpt lat="42.9304940" lon="-8.1319290">
        <ele>310.6</ele>
        <time>2021-10-05T15:49:43Z</time>
      </trkpt>
      <trkpt lat="42.9305170" lon="-8.1321040">
        <ele>311.6</ele>
        <time>2021-10-05T15:49:47Z</time>
      </trkpt>
      <trkpt lat="42.9305240" lon="-8.1321440">
        <ele>311.8</ele>
        <time>2021-10-05T15:49:48Z</time>
      </trkpt>
      <trkpt lat="42.9305350" lon="-8.1322290">
        <ele>312.4</ele>
        <time>2021-10-05T15:49:50Z</time>
      </trkpt>
      <trkpt lat="42.9305610" lon="-8.1323440">
        <ele>313.4</ele>
        <time>2021-10-05T15:49:53Z</time>
      </trkpt>
      <trkpt lat="42.9305780" lon="-8.1324110">
        <ele>314.1</ele>
        <time>2021-10-05T15:49:55Z</time>
      </trkpt>
      <trkpt lat="42.9305980" lon="-8.1325100">
        <ele>315.2</ele>
        <time>2021-10-05T15:49:58Z</time>
      </trkpt>
      <trkpt lat="42.9306190" lon="-8.1326060">
        <ele>316.4</ele>
        <time>2021-10-05T15:50:01Z</time>
      </trkpt>
      <trkpt lat="42.9306300" lon="-8.1327330">
        <ele>317.8</ele>
        <time>2021-10-05T15:50:05Z</time>
      </trkpt>
      <trkpt lat="42.9306430" lon="-8.1328010">
        <ele>318.6</ele>
        <time>2021-10-05T15:50:07Z</time>
      </trkpt>
      <trkpt lat="42.9306690" lon="-8.1329640">
        <ele>320.4</ele>
        <time>2021-10-05T15:50:12Z</time>
      </trkpt>
      <trkpt lat="42.9306820" lon="-8.1330280">
        <ele>321.0</ele>
        <time>2021-10-05T15:50:14Z</time>
      </trkpt>
      <trkpt lat="42.9307270" lon="-8.1332400">
        <ele>322.9</ele>
        <time>2021-10-05T15:50:21Z</time>
      </trkpt>
      <trkpt lat="42.9307300" lon="-8.1332720">
        <ele>323.2</ele>
        <time>2021-10-05T15:50:22Z</time>
      </trkpt>
      <trkpt lat="42.9307690" lon="-8.1334500">
        <ele>324.6</ele>
        <time>2021-10-05T15:50:28Z</time>
      </trkpt>
      <trkpt lat="42.9308520" lon="-8.1338640">
        <ele>327.6</ele>
        <time>2021-10-05T15:50:41Z</time>
      </trkpt>
      <trkpt lat="42.9309650" lon="-8.1344620">
        <ele>331.8</ele>
        <time>2021-10-05T15:50:59Z</time>
      </trkpt>
      <trkpt lat="42.9309750" lon="-8.1345970">
        <ele>332.7</ele>
        <time>2021-10-05T15:51:03Z</time>
      </trkpt>
      <trkpt lat="42.9307310" lon="-8.1349550">
        <ele>336.7</ele>
        <time>2021-10-05T15:51:17Z</time>
      </trkpt>
      <trkpt lat="42.9306830" lon="-8.1350340">
        <ele>337.5</ele>
        <time>2021-10-05T15:51:20Z</time>
      </trkpt>
      <trkpt lat="42.9303860" lon="-8.1352680">
        <ele>340.7</ele>
        <time>2021-10-05T15:51:34Z</time>
      </trkpt>
      <trkpt lat="42.9302820" lon="-8.1352780">
        <ele>340.7</ele>
        <time>2021-10-05T15:51:37Z</time>
      </trkpt>
      <trkpt lat="42.9301640" lon="-8.1352760">
        <ele>340.5</ele>
        <time>2021-10-05T15:51:40Z</time>
      </trkpt>
      <trkpt lat="42.9300450" lon="-8.1352600">
        <ele>340.3</ele>
        <time>2021-10-05T15:51:43Z</time>
      </trkpt>
      <trkpt lat="42.9299640" lon="-8.1352530">
        <ele>340.2</ele>
        <time>2021-10-05T15:51:45Z</time>
      </trkpt>
      <trkpt lat="42.9298790" lon="-8.1352610">
        <ele>340.0</ele>
        <time>2021-10-05T15:51:47Z</time>
      </trkpt>
      <trkpt lat="42.9297510" lon="-8.1353190">
        <ele>339.7</ele>
        <time>2021-10-05T15:51:50Z</time>
      </trkpt>
      <trkpt lat="42.9296590" lon="-8.1353620">
        <ele>339.3</ele>
        <time>2021-10-05T15:51:52Z</time>
      </trkpt>
      <trkpt lat="42.9295570" lon="-8.1354090">
        <ele>338.9</ele>
        <time>2021-10-05T15:51:54Z</time>
      </trkpt>
      <trkpt lat="42.9295030" lon="-8.1354330">
        <ele>338.7</ele>
        <time>2021-10-05T15:51:55Z</time>
      </trkpt>
      <trkpt lat="42.9294010" lon="-8.1354860">
        <ele>338.1</ele>
        <time>2021-10-05T15:51:57Z</time>
      </trkpt>
      <trkpt lat="42.9293170" lon="-8.1355320">
        <ele>337.6</ele>
        <time>2021-10-05T15:51:59Z</time>
      </trkpt>
      <trkpt lat="42.9292450" lon="-8.1355770">
        <ele>337.1</ele>
        <time>2021-10-05T15:52:01Z</time>
      </trkpt>
      <trkpt lat="42.9292200" lon="-8.1356230">
        <ele>336.8</ele>
        <time>2021-10-05T15:52:02Z</time>
      </trkpt>
      <trkpt lat="42.9292210" lon="-8.1357890">
        <ele>336.4</ele>
        <time>2021-10-05T15:52:05Z</time>
      </trkpt>
      <trkpt lat="42.9292350" lon="-8.1358800">
        <ele>336.4</ele>
        <time>2021-10-05T15:52:07Z</time>
      </trkpt>
      <trkpt lat="42.9292240" lon="-8.1359680">
        <ele>336.6</ele>
        <time>2021-10-05T15:52:09Z</time>
      </trkpt>
      <trkpt lat="42.9292060" lon="-8.1360070">
        <ele>336.8</ele>
        <time>2021-10-05T15:52:10Z</time>
      </trkpt>
      <trkpt lat="42.9291490" lon="-8.1360670">
        <ele>337.4</ele>
        <time>2021-10-05T15:52:12Z</time>
      </trkpt>
      <trkpt lat="42.9291180" lon="-8.1360900">
        <ele>337.7</ele>
        <time>2021-10-05T15:52:13Z</time>
      </trkpt>
      <trkpt lat="42.9290630" lon="-8.1361420">
        <ele>338.5</ele>
        <time>2021-10-05T15:52:15Z</time>
      </trkpt>
      <trkpt lat="42.9290160" lon="-8.1361990">
        <ele>339.3</ele>
        <time>2021-10-05T15:52:17Z</time>
      </trkpt>
      <trkpt lat="42.9289430" lon="-8.1362740">
        <ele>340.5</ele>
        <time>2021-10-05T15:52:20Z</time>
      </trkpt>
      <trkpt lat="42.9288780" lon="-8.1363630">
        <ele>341.7</ele>
        <time>2021-10-05T15:52:24Z</time>
      </trkpt>
      <trkpt lat="42.9288830" lon="-8.1363860">
        <ele>342.3</ele>
        <time>2021-10-05T15:52:25Z</time>
      </trkpt>
      <trkpt lat="42.9289710" lon="-8.1363700">
        <ele>342.9</ele>
        <time>2021-10-05T15:52:30Z</time>
      </trkpt>
      <trkpt lat="42.9289860" lon="-8.1363650">
        <ele>343.1</ele>
        <time>2021-10-05T15:52:31Z</time>
      </trkpt>
      <trkpt lat="42.9290980" lon="-8.1363180">
        <ele>344.1</ele>
        <time>2021-10-05T15:52:36Z</time>
      </trkpt>
      <trkpt lat="42.9293110" lon="-8.1362700">
        <ele>345.6</ele>
        <time>2021-10-05T15:52:43Z</time>
      </trkpt>
      <trkpt lat="42.9294110" lon="-8.1362380">
        <ele>346.1</ele>
        <time>2021-10-05T15:52:46Z</time>
      </trkpt>
      <trkpt lat="42.9299570" lon="-8.1361270">
        <ele>349.1</ele>
        <time>2021-10-05T15:53:03Z</time>
      </trkpt>
      <trkpt lat="42.9300560" lon="-8.1361270">
        <ele>349.7</ele>
        <time>2021-10-05T15:53:06Z</time>
      </trkpt>
      <trkpt lat="42.9305900" lon="-8.1363230">
        <ele>352.7</ele>
        <time>2021-10-05T15:53:22Z</time>
      </trkpt>
      <trkpt lat="42.9308240" lon="-8.1369750">
        <ele>355.3</ele>
        <time>2021-10-05T15:53:37Z</time>
      </trkpt>
      <trkpt lat="42.9308560" lon="-8.1371210">
        <ele>355.9</ele>
        <time>2021-10-05T15:53:40Z</time>
      </trkpt>
      <trkpt lat="42.9308990" lon="-8.1373240">
        <ele>356.7</ele>
        <time>2021-10-05T15:53:44Z</time>
      </trkpt>
      <trkpt lat="42.9309530" lon="-8.1380820">
        <ele>360.1</ele>
        <time>2021-10-05T15:53:59Z</time>
      </trkpt>
      <trkpt lat="42.9309000" lon="-8.1388180">
        <ele>362.8</ele>
        <time>2021-10-05T15:54:13Z</time>
      </trkpt>
      <trkpt lat="42.9308870" lon="-8.1389710">
        <ele>363.3</ele>
        <time>2021-10-05T15:54:16Z</time>
      </trkpt>
      <trkpt lat="42.9308430" lon="-8.1393950">
        <ele>365.2</ele>
        <time>2021-10-05T15:54:24Z</time>
      </trkpt>
      <trkpt lat="42.9308140" lon="-8.1397090">
        <ele>366.7</ele>
        <time>2021-10-05T15:54:30Z</time>
      </trkpt>
      <trkpt lat="42.9306200" lon="-8.1404120">
        <ele>370.1</ele>
        <time>2021-10-05T15:54:45Z</time>
      </trkpt>
      <trkpt lat="42.9304300" lon="-8.1407360">
        <ele>371.3</ele>
        <time>2021-10-05T15:54:54Z</time>
      </trkpt>
      <trkpt lat="42.9301190" lon="-8.1413760">
        <ele>374.5</ele>
        <time>2021-10-05T15:55:12Z</time>
      </trkpt>
      <trkpt lat="42.9299460" lon="-8.1421060">
        <ele>377.5</ele>
        <time>2021-10-05T15:55:30Z</time>
      </trkpt>
      <trkpt lat="42.9299420" lon="-8.1428650">
        <ele>379.8</ele>
        <time>2021-10-05T15:55:46Z</time>
      </trkpt>
      <trkpt lat="42.9299470" lon="-8.1430870">
        <ele>380.4</ele>
        <time>2021-10-05T15:55:50Z</time>
      </trkpt>
      <trkpt lat="42.9299480" lon="-8.1434130">
        <ele>381.2</ele>
        <time>2021-10-05T15:55:56Z</time>
      </trkpt>
      <trkpt lat="42.9299870" lon="-8.1435500">
        <ele>381.3</ele>
        <time>2021-10-05T15:55:59Z</time>
      </trkpt>
      <trkpt lat="42.9300220" lon="-8.1437440">
        <ele>381.6</ele>
        <time>2021-10-05T15:56:03Z</time>
      </trkpt>
      <trkpt lat="42.9300530" lon="-8.1442270">
        <ele>382.4</ele>
        <time>2021-10-05T15:56:12Z</time>
      </trkpt>
      <trkpt lat="42.9300570" lon="-8.1443890">
        <ele>382.6</ele>
        <time>2021-10-05T15:56:15Z</time>
      </trkpt>
      <trkpt lat="42.9301980" lon="-8.1444530">
        <ele>382.9</ele>
        <time>2021-10-05T16:12:58Z</time>
      </trkpt>
      <trkpt lat="42.9301790" lon="-8.1444740">
        <ele>382.9</ele>
        <time>2021-10-05T16:12:59Z</time>
      </trkpt>
      <trkpt lat="42.9301370" lon="-8.1445760">
        <ele>383.1</ele>
        <time>2021-10-05T16:13:02Z</time>
      </trkpt>
      <trkpt lat="42.9301200" lon="-8.1447380">
        <ele>383.3</ele>
        <time>2021-10-05T16:13:06Z</time>
      </trkpt>
      <trkpt lat="42.9301100" lon="-8.1451180">
        <ele>383.8</ele>
        <time>2021-10-05T16:13:15Z</time>
      </trkpt>
      <trkpt lat="42.9300910" lon="-8.1453790">
        <ele>384.2</ele>
        <time>2021-10-05T16:13:20Z</time>
      </trkpt>
      <trkpt lat="42.9300810" lon="-8.1454780">
        <ele>384.3</ele>
        <time>2021-10-05T16:13:22Z</time>
      </trkpt>
      <trkpt lat="42.9300740" lon="-8.1456280">
        <ele>384.5</ele>
        <time>2021-10-05T16:13:25Z</time>
      </trkpt>
      <trkpt lat="42.9300750" lon="-8.1457960">
        <ele>384.8</ele>
        <time>2021-10-05T16:13:28Z</time>
      </trkpt>
      <trkpt lat="42.9300730" lon="-8.1459800">
        <ele>385.1</ele>
        <time>2021-10-05T16:13:31Z</time>
      </trkpt>
      <trkpt lat="42.9300740" lon="-8.1460360">
        <ele>385.2</ele>
        <time>2021-10-05T16:13:32Z</time>
      </trkpt>
      <trkpt lat="42.9300800" lon="-8.1463760">
        <ele>385.8</ele>
        <time>2021-10-05T16:13:38Z</time>
      </trkpt>
      <trkpt lat="42.9300810" lon="-8.1466330">
        <ele>386.3</ele>
        <time>2021-10-05T16:13:42Z</time>
      </trkpt>
      <trkpt lat="42.9300860" lon="-8.1470570">
        <ele>387.0</ele>
        <time>2021-10-05T16:13:49Z</time>
      </trkpt>
      <trkpt lat="42.9300890" lon="-8.1473560">
        <ele>387.5</ele>
        <time>2021-10-05T16:13:54Z</time>
      </trkpt>
      <trkpt lat="42.9300890" lon="-8.1476610">
        <ele>388.0</ele>
        <time>2021-10-05T16:13:59Z</time>
      </trkpt>
      <trkpt lat="42.9300850" lon="-8.1480140">
        <ele>388.6</ele>
        <time>2021-10-05T16:14:05Z</time>
      </trkpt>
      <trkpt lat="42.9300860" lon="-8.1482260">
        <ele>388.8</ele>
        <time>2021-10-05T16:14:08Z</time>
      </trkpt>
      <trkpt lat="42.9301170" lon="-8.1489480">
        <ele>388.4</ele>
        <time>2021-10-05T16:14:18Z</time>
      </trkpt>
      <trkpt lat="42.9301260" lon="-8.1493470">
        <ele>387.8</ele>
        <time>2021-10-05T16:14:23Z</time>
      </trkpt>
      <trkpt lat="42.9301290" lon="-8.1495140">
        <ele>387.5</ele>
        <time>2021-10-05T16:14:25Z</time>
      </trkpt>
      <trkpt lat="42.9301300" lon="-8.1498770">
        <ele>386.9</ele>
        <time>2021-10-05T16:14:29Z</time>
      </trkpt>
      <trkpt lat="42.9301330" lon="-8.1506730">
        <ele>385.9</ele>
        <time>2021-10-05T16:14:37Z</time>
      </trkpt>
      <trkpt lat="42.9301300" lon="-8.1511490">
        <ele>386.0</ele>
        <time>2021-10-05T16:14:42Z</time>
      </trkpt>
      <trkpt lat="42.9301310" lon="-8.1513430">
        <ele>386.4</ele>
        <time>2021-10-05T16:14:44Z</time>
      </trkpt>
      <trkpt lat="42.9301300" lon="-8.1514380">
        <ele>386.6</ele>
        <time>2021-10-05T16:14:45Z</time>
      </trkpt>
      <trkpt lat="42.9301250" lon="-8.1516210">
        <ele>387.0</ele>
        <time>2021-10-05T16:14:47Z</time>
      </trkpt>
      <trkpt lat="42.9301150" lon="-8.1518000">
        <ele>387.4</ele>
        <time>2021-10-05T16:14:49Z</time>
      </trkpt>
      <trkpt lat="42.9301030" lon="-8.1519780">
        <ele>387.9</ele>
        <time>2021-10-05T16:14:51Z</time>
      </trkpt>
      <trkpt lat="42.9300690" lon="-8.1523230">
        <ele>388.8</ele>
        <time>2021-10-05T16:14:55Z</time>
      </trkpt>
      <trkpt lat="42.9300180" lon="-8.1526710">
        <ele>389.6</ele>
        <time>2021-10-05T16:14:59Z</time>
      </trkpt>
      <trkpt lat="42.9300050" lon="-8.1527580">
        <ele>389.9</ele>
        <time>2021-10-05T16:15:00Z</time>
      </trkpt>
      <trkpt lat="42.9299560" lon="-8.1530130">
        <ele>390.4</ele>
        <time>2021-10-05T16:15:03Z</time>
      </trkpt>
      <trkpt lat="42.9298890" lon="-8.1533310">
        <ele>391.0</ele>
        <time>2021-10-05T16:15:07Z</time>
      </trkpt>
      <trkpt lat="42.9297810" lon="-8.1537170">
        <ele>391.3</ele>
        <time>2021-10-05T16:15:12Z</time>
      </trkpt>
      <trkpt lat="42.9296870" lon="-8.1540350">
        <ele>391.6</ele>
        <time>2021-10-05T16:15:16Z</time>
      </trkpt>
      <trkpt lat="42.9295200" lon="-8.1544910">
        <ele>392.3</ele>
        <time>2021-10-05T16:15:22Z</time>
      </trkpt>
      <trkpt lat="42.9292500" lon="-8.1551700">
        <ele>393.7</ele>
        <time>2021-10-05T16:15:32Z</time>
      </trkpt>
      <trkpt lat="42.9291750" lon="-8.1553420">
        <ele>394.0</ele>
        <time>2021-10-05T16:15:35Z</time>
      </trkpt>
      <trkpt lat="42.9290890" lon="-8.1555640">
        <ele>394.4</ele>
        <time>2021-10-05T16:15:39Z</time>
      </trkpt>
      <trkpt lat="42.9290240" lon="-8.1557330">
        <ele>394.7</ele>
        <time>2021-10-05T16:15:42Z</time>
      </trkpt>
      <trkpt lat="42.9290070" lon="-8.1557830">
        <ele>394.8</ele>
        <time>2021-10-05T16:15:43Z</time>
      </trkpt>
      <trkpt lat="42.9288900" lon="-8.1560840">
        <ele>395.2</ele>
        <time>2021-10-05T16:15:49Z</time>
      </trkpt>
      <trkpt lat="42.9288320" lon="-8.1562310">
        <ele>395.3</ele>
        <time>2021-10-05T16:15:52Z</time>
      </trkpt>
      <trkpt lat="42.9287900" lon="-8.1563320">
        <ele>395.3</ele>
        <time>2021-10-05T16:15:54Z</time>
      </trkpt>
      <trkpt lat="42.9286750" lon="-8.1566510">
        <ele>395.3</ele>
        <time>2021-10-05T16:15:59Z</time>
      </trkpt>
      <trkpt lat="42.9286060" lon="-8.1568670">
        <ele>395.2</ele>
        <time>2021-10-05T16:16:02Z</time>
      </trkpt>
      <trkpt lat="42.9285510" lon="-8.1570060">
        <ele>395.1</ele>
        <time>2021-10-05T16:16:04Z</time>
      </trkpt>
      <trkpt lat="42.9284970" lon="-8.1571430">
        <ele>394.8</ele>
        <time>2021-10-05T16:16:06Z</time>
      </trkpt>
      <trkpt lat="42.9284420" lon="-8.1572840">
        <ele>394.5</ele>
        <time>2021-10-05T16:16:08Z</time>
      </trkpt>
      <trkpt lat="42.9281840" lon="-8.1579610">
        <ele>393.4</ele>
        <time>2021-10-05T16:16:17Z</time>
      </trkpt>
      <trkpt lat="42.9280970" lon="-8.1581940">
        <ele>393.0</ele>
        <time>2021-10-05T16:16:20Z</time>
      </trkpt>
      <trkpt lat="42.9280400" lon="-8.1583470">
        <ele>392.7</ele>
        <time>2021-10-05T16:16:22Z</time>
      </trkpt>
      <trkpt lat="42.9279840" lon="-8.1584950">
        <ele>392.5</ele>
        <time>2021-10-05T16:16:24Z</time>
      </trkpt>
      <trkpt lat="42.9279040" lon="-8.1587020">
        <ele>392.1</ele>
        <time>2021-10-05T16:16:27Z</time>
      </trkpt>
      <trkpt lat="42.9278490" lon="-8.1588450">
        <ele>391.9</ele>
        <time>2021-10-05T16:16:29Z</time>
      </trkpt>
      <trkpt lat="42.9277230" lon="-8.1592000">
        <ele>391.4</ele>
        <time>2021-10-05T16:16:34Z</time>
      </trkpt>
      <trkpt lat="42.9277150" lon="-8.1593480">
        <ele>391.5</ele>
        <time>2021-10-05T16:16:36Z</time>
      </trkpt>
      <trkpt lat="42.9277150" lon="-8.1595030">
        <ele>391.8</ele>
        <time>2021-10-05T16:16:38Z</time>
      </trkpt>
      <trkpt lat="42.9277240" lon="-8.1596520">
        <ele>392.2</ele>
        <time>2021-10-05T16:16:40Z</time>
      </trkpt>
      <trkpt lat="42.9277290" lon="-8.1597730">
        <ele>392.6</ele>
        <time>2021-10-05T16:16:42Z</time>
      </trkpt>
      <trkpt lat="42.9277390" lon="-8.1598760">
        <ele>393.1</ele>
        <time>2021-10-05T16:16:44Z</time>
      </trkpt>
      <trkpt lat="42.9277460" lon="-8.1599770">
        <ele>393.5</ele>
        <time>2021-10-05T16:16:46Z</time>
      </trkpt>
      <trkpt lat="42.9277770" lon="-8.1601420">
        <ele>394.3</ele>
        <time>2021-10-05T16:16:49Z</time>
      </trkpt>
      <trkpt lat="42.9278000" lon="-8.1603380">
        <ele>394.9</ele>
        <time>2021-10-05T16:16:52Z</time>
      </trkpt>
      <trkpt lat="42.9278110" lon="-8.1605590">
        <ele>394.7</ele>
        <time>2021-10-05T16:16:55Z</time>
      </trkpt>
      <trkpt lat="42.9278180" lon="-8.1606340">
        <ele>394.7</ele>
        <time>2021-10-05T16:16:56Z</time>
      </trkpt>
      <trkpt lat="42.9278250" lon="-8.1607060">
        <ele>394.6</ele>
        <time>2021-10-05T16:16:57Z</time>
      </trkpt>
      <trkpt lat="42.9278380" lon="-8.1607690">
        <ele>394.6</ele>
        <time>2021-10-05T16:16:58Z</time>
      </trkpt>
      <trkpt lat="42.9278490" lon="-8.1608980">
        <ele>394.7</ele>
        <time>2021-10-05T16:17:00Z</time>
      </trkpt>
      <trkpt lat="42.9278540" lon="-8.1610330">
        <ele>394.7</ele>
        <time>2021-10-05T16:17:02Z</time>
      </trkpt>
      <trkpt lat="42.9278340" lon="-8.1617950">
        <ele>394.9</ele>
        <time>2021-10-05T16:17:12Z</time>
      </trkpt>
      <trkpt lat="42.9278150" lon="-8.1626000">
        <ele>394.7</ele>
        <time>2021-10-05T16:17:23Z</time>
      </trkpt>
      <trkpt lat="42.9278150" lon="-8.1628790">
        <ele>394.5</ele>
        <time>2021-10-05T16:17:27Z</time>
      </trkpt>
      <trkpt lat="42.9278070" lon="-8.1629880">
        <ele>394.4</ele>
        <time>2021-10-05T16:17:29Z</time>
      </trkpt>
      <trkpt lat="42.9277990" lon="-8.1630320">
        <ele>394.3</ele>
        <time>2021-10-05T16:17:30Z</time>
      </trkpt>
      <trkpt lat="42.9277990" lon="-8.1631010">
        <ele>393.6</ele>
        <time>2021-10-05T16:17:32Z</time>
      </trkpt>
      <trkpt lat="42.9277920" lon="-8.1631180">
        <ele>393.5</ele>
        <time>2021-10-05T16:17:34Z</time>
      </trkpt>
      <trkpt lat="42.9278570" lon="-8.1637390">
        <ele>390.0</ele>
        <time>2021-10-05T16:17:58Z</time>
      </trkpt>
      <trkpt lat="42.9278470" lon="-8.1637440">
        <ele>389.9</ele>
        <time>2021-10-05T16:17:59Z</time>
      </trkpt>
      <trkpt lat="42.9278310" lon="-8.1637490">
        <ele>389.8</ele>
        <time>2021-10-05T16:18:00Z</time>
      </trkpt>
      <trkpt lat="42.9278000" lon="-8.1637590">
        <ele>389.6</ele>
        <time>2021-10-05T16:18:02Z</time>
      </trkpt>
      <trkpt lat="42.9277550" lon="-8.1637930">
        <ele>389.2</ele>
        <time>2021-10-05T16:18:04Z</time>
      </trkpt>
      <trkpt lat="42.9262640" lon="-8.1639290">
        <ele>401.2</ele>
        <time>2021-10-06T08:00:09Z</time>
      </trkpt>
      <trkpt lat="42.9262490" lon="-8.1639530">
        <ele>401.2</ele>
        <time>2021-10-06T08:00:10Z</time>
      </trkpt>
      <trkpt lat="42.9262370" lon="-8.1639790">
        <ele>400.6</ele>
        <time>2021-10-06T08:00:11Z</time>
      </trkpt>
      <trkpt lat="42.9262230" lon="-8.1640050">
        <ele>400.0</ele>
        <time>2021-10-06T08:00:12Z</time>
      </trkpt>
      <trkpt lat="42.9262210" lon="-8.1640400">
        <ele>399.0</ele>
        <time>2021-10-06T08:00:13Z</time>
      </trkpt>
      <trkpt lat="42.9262290" lon="-8.1641880">
        <ele>398.2</ele>
        <time>2021-10-06T08:00:16Z</time>
      </trkpt>
      <trkpt lat="42.9262450" lon="-8.1643820">
        <ele>397.2</ele>
        <time>2021-10-06T08:00:19Z</time>
      </trkpt>
      <trkpt lat="42.9262550" lon="-8.1644530">
        <ele>397.2</ele>
        <time>2021-10-06T08:00:20Z</time>
      </trkpt>
      <trkpt lat="42.9263070" lon="-8.1646610">
        <ele>396.4</ele>
        <time>2021-10-06T08:00:23Z</time>
      </trkpt>
      <trkpt lat="42.9263340" lon="-8.1647220">
        <ele>395.8</ele>
        <time>2021-10-06T08:00:24Z</time>
      </trkpt>
      <trkpt lat="42.9263700" lon="-8.1654210">
        <ele>395.2</ele>
        <time>2021-10-06T08:00:37Z</time>
      </trkpt>
      <trkpt lat="42.9263820" lon="-8.1654760">
        <ele>395.0</ele>
        <time>2021-10-06T08:00:38Z</time>
      </trkpt>
      <trkpt lat="42.9264310" lon="-8.1656590">
        <ele>394.0</ele>
        <time>2021-10-06T08:00:41Z</time>
      </trkpt>
      <trkpt lat="42.9264640" lon="-8.1657690">
        <ele>393.2</ele>
        <time>2021-10-06T08:00:43Z</time>
      </trkpt>
      <trkpt lat="42.9264810" lon="-8.1658220">
        <ele>392.8</ele>
        <time>2021-10-06T08:00:44Z</time>
      </trkpt>
      <trkpt lat="42.9265210" lon="-8.1659360">
        <ele>392.2</ele>
        <time>2021-10-06T08:00:46Z</time>
      </trkpt>
      <trkpt lat="42.9265450" lon="-8.1659880">
        <ele>391.6</ele>
        <time>2021-10-06T08:00:47Z</time>
      </trkpt>
      <trkpt lat="42.9265720" lon="-8.1660420">
        <ele>390.6</ele>
        <time>2021-10-06T08:00:48Z</time>
      </trkpt>
      <trkpt lat="42.9266430" lon="-8.1662010">
        <ele>389.4</ele>
        <time>2021-10-06T08:00:51Z</time>
      </trkpt>
      <trkpt lat="42.9266970" lon="-8.1663570">
        <ele>387.8</ele>
        <time>2021-10-06T08:00:54Z</time>
      </trkpt>
      <trkpt lat="42.9267450" lon="-8.1665020">
        <ele>386.6</ele>
        <time>2021-10-06T08:00:56Z</time>
      </trkpt>
      <trkpt lat="42.9267870" lon="-8.1666500">
        <ele>385.2</ele>
        <time>2021-10-06T08:00:58Z</time>
      </trkpt>
      <trkpt lat="42.9268170" lon="-8.1668070">
        <ele>383.6</ele>
        <time>2021-10-06T08:01:00Z</time>
      </trkpt>
      <trkpt lat="42.9268280" lon="-8.1668940">
        <ele>383.0</ele>
        <time>2021-10-06T08:01:01Z</time>
      </trkpt>
      <trkpt lat="42.9268380" lon="-8.1669870">
        <ele>382.4</ele>
        <time>2021-10-06T08:01:02Z</time>
      </trkpt>
      <trkpt lat="42.9268460" lon="-8.1672570">
        <ele>381.2</ele>
        <time>2021-10-06T08:01:05Z</time>
      </trkpt>
      <trkpt lat="42.9268400" lon="-8.1676220">
        <ele>380.2</ele>
        <time>2021-10-06T08:01:09Z</time>
      </trkpt>
      <trkpt lat="42.9268430" lon="-8.1677910">
        <ele>379.0</ele>
        <time>2021-10-06T08:01:11Z</time>
      </trkpt>
      <trkpt lat="42.9268550" lon="-8.1679600">
        <ele>377.4</ele>
        <time>2021-10-06T08:01:13Z</time>
      </trkpt>
      <trkpt lat="42.9268810" lon="-8.1681480">
        <ele>376.0</ele>
        <time>2021-10-06T08:01:15Z</time>
      </trkpt>
      <trkpt lat="42.9269080" lon="-8.1683480">
        <ele>374.8</ele>
        <time>2021-10-06T08:01:17Z</time>
      </trkpt>
      <trkpt lat="42.9269420" lon="-8.1685280">
        <ele>373.0</ele>
        <time>2021-10-06T08:01:19Z</time>
      </trkpt>
      <trkpt lat="42.9269740" lon="-8.1687100">
        <ele>371.4</ele>
        <time>2021-10-06T08:01:21Z</time>
      </trkpt>
      <trkpt lat="42.9269920" lon="-8.1688090">
        <ele>369.6</ele>
        <time>2021-10-06T08:01:22Z</time>
      </trkpt>
      <trkpt lat="42.9270160" lon="-8.1689150">
        <ele>368.6</ele>
        <time>2021-10-06T08:01:23Z</time>
      </trkpt>
      <trkpt lat="42.9270410" lon="-8.1690290">
        <ele>367.4</ele>
        <time>2021-10-06T08:01:24Z</time>
      </trkpt>
      <trkpt lat="42.9270910" lon="-8.1692690">
        <ele>365.8</ele>
        <time>2021-10-06T08:01:26Z</time>
      </trkpt>
      <trkpt lat="42.9271430" lon="-8.1695060">
        <ele>364.0</ele>
        <time>2021-10-06T08:01:28Z</time>
      </trkpt>
      <trkpt lat="42.9271920" lon="-8.1697400">
        <ele>361.8</ele>
        <time>2021-10-06T08:01:30Z</time>
      </trkpt>
      <trkpt lat="42.9272050" lon="-8.1698480">
        <ele>360.4</ele>
        <time>2021-10-06T08:01:31Z</time>
      </trkpt>
      <trkpt lat="42.9272130" lon="-8.1699590">
        <ele>358.8</ele>
        <time>2021-10-06T08:01:32Z</time>
      </trkpt>
      <trkpt lat="42.9272140" lon="-8.1700800">
        <ele>357.6</ele>
        <time>2021-10-06T08:01:33Z</time>
      </trkpt>
      <trkpt lat="42.9272060" lon="-8.1701880">
        <ele>356.4</ele>
        <time>2021-10-06T08:01:34Z</time>
      </trkpt>
      <trkpt lat="42.9271880" lon="-8.1702900">
        <ele>355.4</ele>
        <time>2021-10-06T08:01:35Z</time>
      </trkpt>
      <trkpt lat="42.9271500" lon="-8.1704700">
        <ele>354.2</ele>
        <time>2021-10-06T08:01:37Z</time>
      </trkpt>
      <trkpt lat="42.9271220" lon="-8.1705990">
        <ele>352.6</ele>
        <time>2021-10-06T08:01:39Z</time>
      </trkpt>
      <trkpt lat="42.9271050" lon="-8.1707040">
        <ele>352.0</ele>
        <time>2021-10-06T08:01:41Z</time>
      </trkpt>
      <trkpt lat="42.9270890" lon="-8.1709190">
        <ele>352.0</ele>
        <time>2021-10-06T08:01:45Z</time>
      </trkpt>
      <trkpt lat="42.9270850" lon="-8.1710870">
        <ele>351.8</ele>
        <time>2021-10-06T08:01:49Z</time>
      </trkpt>
      <trkpt lat="42.9270900" lon="-8.1711450">
        <ele>352.2</ele>
        <time>2021-10-06T08:01:51Z</time>
      </trkpt>
      <trkpt lat="42.9270880" lon="-8.1711830">
        <ele>352.2</ele>
        <time>2021-10-06T08:01:52Z</time>
      </trkpt>
      <trkpt lat="42.9270790" lon="-8.1713690">
        <ele>353.2</ele>
        <time>2021-10-06T08:01:56Z</time>
      </trkpt>
      <trkpt lat="42.9270810" lon="-8.1714730">
        <ele>354.0</ele>
        <time>2021-10-06T08:01:58Z</time>
      </trkpt>
      <trkpt lat="42.9270840" lon="-8.1715590">
        <ele>354.4</ele>
        <time>2021-10-06T08:02:00Z</time>
      </trkpt>
      <trkpt lat="42.9270960" lon="-8.1716300">
        <ele>355.0</ele>
        <time>2021-10-06T08:02:02Z</time>
      </trkpt>
      <trkpt lat="42.9271030" lon="-8.1716690">
        <ele>355.2</ele>
        <time>2021-10-06T08:02:03Z</time>
      </trkpt>
      <trkpt lat="42.9271130" lon="-8.1717280">
        <ele>355.6</ele>
        <time>2021-10-06T08:02:05Z</time>
      </trkpt>
      <trkpt lat="42.9271240" lon="-8.1717600">
        <ele>355.8</ele>
        <time>2021-10-06T08:02:06Z</time>
      </trkpt>
      <trkpt lat="42.9271370" lon="-8.1718110">
        <ele>356.6</ele>
        <time>2021-10-06T08:02:08Z</time>
      </trkpt>
      <trkpt lat="42.9271580" lon="-8.1718650">
        <ele>357.4</ele>
        <time>2021-10-06T08:02:10Z</time>
      </trkpt>
      <trkpt lat="42.9271640" lon="-8.1719010">
        <ele>357.8</ele>
        <time>2021-10-06T08:02:11Z</time>
      </trkpt>
      <trkpt lat="42.9271810" lon="-8.1719860">
        <ele>358.8</ele>
        <time>2021-10-06T08:02:14Z</time>
      </trkpt>
      <trkpt lat="42.9271820" lon="-8.1720140">
        <ele>359.0</ele>
        <time>2021-10-06T08:02:15Z</time>
      </trkpt>
      <trkpt lat="42.9271970" lon="-8.1721040">
        <ele>360.0</ele>
        <time>2021-10-06T08:02:18Z</time>
      </trkpt>
      <trkpt lat="42.9272030" lon="-8.1721260">
        <ele>360.4</ele>
        <time>2021-10-06T08:02:19Z</time>
      </trkpt>
      <trkpt lat="42.9272250" lon="-8.1722240">
        <ele>361.8</ele>
        <time>2021-10-06T08:02:23Z</time>
      </trkpt>
      <trkpt lat="42.9272590" lon="-8.1722860">
        <ele>362.8</ele>
        <time>2021-10-06T08:02:26Z</time>
      </trkpt>
      <trkpt lat="42.9272740" lon="-8.1723160">
        <ele>363.2</ele>
        <time>2021-10-06T08:02:27Z</time>
      </trkpt>
      <trkpt lat="42.9273230" lon="-8.1724600">
        <ele>364.2</ele>
        <time>2021-10-06T08:02:31Z</time>
      </trkpt>
      <trkpt lat="42.9273840" lon="-8.1726810">
        <ele>365.6</ele>
        <time>2021-10-06T08:02:38Z</time>
      </trkpt>
      <trkpt lat="42.9274210" lon="-8.1728620">
        <ele>366.6</ele>
        <time>2021-10-06T08:02:44Z</time>
      </trkpt>
      <trkpt lat="42.9274680" lon="-8.1730400">
        <ele>367.4</ele>
        <time>2021-10-06T08:02:50Z</time>
      </trkpt>
      <trkpt lat="42.9274990" lon="-8.1731440">
        <ele>367.8</ele>
        <time>2021-10-06T08:02:53Z</time>
      </trkpt>
      <trkpt lat="42.9275640" lon="-8.1733500">
        <ele>368.8</ele>
        <time>2021-10-06T08:02:58Z</time>
      </trkpt>
      <trkpt lat="42.9275630" lon="-8.1733950">
        <ele>369.0</ele>
        <time>2021-10-06T08:02:59Z</time>
      </trkpt>
      <trkpt lat="42.9273160" lon="-8.1739030">
        <ele>369.8</ele>
        <time>2021-10-06T08:03:10Z</time>
      </trkpt>
      <trkpt lat="42.9272780" lon="-8.1739430">
        <ele>369.8</ele>
        <time>2021-10-06T08:03:11Z</time>
      </trkpt>
      <trkpt lat="42.9271880" lon="-8.1740160">
        <ele>369.4</ele>
        <time>2021-10-06T08:03:13Z</time>
      </trkpt>
      <trkpt lat="42.9271050" lon="-8.1740700">
        <ele>368.8</ele>
        <time>2021-10-06T08:03:15Z</time>
      </trkpt>
      <trkpt lat="42.9270450" lon="-8.1741100">
        <ele>368.2</ele>
        <time>2021-10-06T08:03:17Z</time>
      </trkpt>
      <trkpt lat="42.9268710" lon="-8.1741710">
        <ele>368.0</ele>
        <time>2021-10-06T08:03:22Z</time>
      </trkpt>
      <trkpt lat="42.9268310" lon="-8.1741700">
        <ele>367.8</ele>
        <time>2021-10-06T08:03:23Z</time>
      </trkpt>
      <trkpt lat="42.9265640" lon="-8.1743640">
        <ele>367.6</ele>
        <time>2021-10-06T08:03:29Z</time>
      </trkpt>
      <trkpt lat="42.9264660" lon="-8.1745330">
        <ele>367.4</ele>
        <time>2021-10-06T08:03:32Z</time>
      </trkpt>
      <trkpt lat="42.9263490" lon="-8.1747880">
        <ele>367.0</ele>
        <time>2021-10-06T08:03:36Z</time>
      </trkpt>
      <trkpt lat="42.9262630" lon="-8.1750400">
        <ele>366.6</ele>
        <time>2021-10-06T08:03:40Z</time>
      </trkpt>
      <trkpt lat="42.9261610" lon="-8.1753630">
        <ele>366.4</ele>
        <time>2021-10-06T08:03:44Z</time>
      </trkpt>
      <trkpt lat="42.9260190" lon="-8.1756800">
        <ele>365.4</ele>
        <time>2021-10-06T08:03:48Z</time>
      </trkpt>
      <trkpt lat="42.9259120" lon="-8.1759160">
        <ele>364.4</ele>
        <time>2021-10-06T08:03:51Z</time>
      </trkpt>
      <trkpt lat="42.9258030" lon="-8.1761920">
        <ele>363.4</ele>
        <time>2021-10-06T08:03:54Z</time>
      </trkpt>
      <trkpt lat="42.9257620" lon="-8.1762890">
        <ele>363.2</ele>
        <time>2021-10-06T08:03:55Z</time>
      </trkpt>
      <trkpt lat="42.9256880" lon="-8.1764850">
        <ele>363.0</ele>
        <time>2021-10-06T08:03:57Z</time>
      </trkpt>
      <trkpt lat="42.9255810" lon="-8.1767810">
        <ele>361.8</ele>
        <time>2021-10-06T08:04:00Z</time>
      </trkpt>
      <trkpt lat="42.9255130" lon="-8.1770070">
        <ele>360.4</ele>
        <time>2021-10-06T08:04:02Z</time>
      </trkpt>
      <trkpt lat="42.9254840" lon="-8.1771200">
        <ele>360.0</ele>
        <time>2021-10-06T08:04:03Z</time>
      </trkpt>
      <trkpt lat="42.9254480" lon="-8.1772390">
        <ele>359.4</ele>
        <time>2021-10-06T08:04:04Z</time>
      </trkpt>
      <trkpt lat="42.9254200" lon="-8.1773580">
        <ele>358.6</ele>
        <time>2021-10-06T08:04:05Z</time>
      </trkpt>
      <trkpt lat="42.9253990" lon="-8.1774800">
        <ele>358.0</ele>
        <time>2021-10-06T08:04:06Z</time>
      </trkpt>
      <trkpt lat="42.9253750" lon="-8.1777290">
        <ele>356.2</ele>
        <time>2021-10-06T08:04:08Z</time>
      </trkpt>
      <trkpt lat="42.9253660" lon="-8.1779750">
        <ele>354.4</ele>
        <time>2021-10-06T08:04:10Z</time>
      </trkpt>
      <trkpt lat="42.9253570" lon="-8.1781990">
        <ele>353.0</ele>
        <time>2021-10-06T08:04:12Z</time>
      </trkpt>
      <trkpt lat="42.9253490" lon="-8.1783950">
        <ele>350.6</ele>
        <time>2021-10-06T08:04:14Z</time>
      </trkpt>
      <trkpt lat="42.9253450" lon="-8.1785930">
        <ele>349.2</ele>
        <time>2021-10-06T08:04:16Z</time>
      </trkpt>
      <trkpt lat="42.9253550" lon="-8.1788050">
        <ele>347.8</ele>
        <time>2021-10-06T08:04:18Z</time>
      </trkpt>
      <trkpt lat="42.9253700" lon="-8.1790540">
        <ele>346.8</ele>
        <time>2021-10-06T08:04:20Z</time>
      </trkpt>
      <trkpt lat="42.9254370" lon="-8.1794180">
        <ele>345.2</ele>
        <time>2021-10-06T08:04:23Z</time>
      </trkpt>
      <trkpt lat="42.9255000" lon="-8.1796490">
        <ele>342.6</ele>
        <time>2021-10-06T08:04:25Z</time>
      </trkpt>
      <trkpt lat="42.9255390" lon="-8.1797530">
        <ele>340.8</ele>
        <time>2021-10-06T08:04:26Z</time>
      </trkpt>
      <trkpt lat="42.9256030" lon="-8.1799690">
        <ele>338.6</ele>
        <time>2021-10-06T08:04:28Z</time>
      </trkpt>
      <trkpt lat="42.9256340" lon="-8.1800660">
        <ele>337.2</ele>
        <time>2021-10-06T08:04:29Z</time>
      </trkpt>
      <trkpt lat="42.9256630" lon="-8.1802490">
        <ele>335.4</ele>
        <time>2021-10-06T08:04:31Z</time>
      </trkpt>
      <trkpt lat="42.9256330" lon="-8.1803940">
        <ele>334.2</ele>
        <time>2021-10-06T08:04:33Z</time>
      </trkpt>
      <trkpt lat="42.9255630" lon="-8.1805250">
        <ele>332.8</ele>
        <time>2021-10-06T08:04:35Z</time>
      </trkpt>
      <trkpt lat="42.9254750" lon="-8.1806210">
        <ele>331.4</ele>
        <time>2021-10-06T08:04:37Z</time>
      </trkpt>
      <trkpt lat="42.9253540" lon="-8.1806700">
        <ele>330.0</ele>
        <time>2021-10-06T08:04:39Z</time>
      </trkpt>
      <trkpt lat="42.9252070" lon="-8.1806870">
        <ele>329.2</ele>
        <time>2021-10-06T08:04:41Z</time>
      </trkpt>
      <trkpt lat="42.9251370" lon="-8.1806890">
        <ele>329.0</ele>
        <time>2021-10-06T08:04:42Z</time>
      </trkpt>
      <trkpt lat="42.9249660" lon="-8.1807870">
        <ele>327.8</ele>
        <time>2021-10-06T08:04:45Z</time>
      </trkpt>
      <trkpt lat="42.9248970" lon="-8.1809330">
        <ele>326.2</ele>
        <time>2021-10-06T08:04:48Z</time>
      </trkpt>
      <trkpt lat="42.9248770" lon="-8.1809880">
        <ele>326.0</ele>
        <time>2021-10-06T08:04:49Z</time>
      </trkpt>
      <trkpt lat="42.9248190" lon="-8.1812220">
        <ele>325.6</ele>
        <time>2021-10-06T08:04:52Z</time>
      </trkpt>
      <trkpt lat="42.9247520" lon="-8.1815030">
        <ele>325.6</ele>
        <time>2021-10-06T08:04:56Z</time>
      </trkpt>
      <trkpt lat="42.9247130" lon="-8.1817220">
        <ele>325.6</ele>
        <time>2021-10-06T08:04:59Z</time>
      </trkpt>
      <trkpt lat="42.9246540" lon="-8.1821650">
        <ele>325.8</ele>
        <time>2021-10-06T08:05:05Z</time>
      </trkpt>
      <trkpt lat="42.9246340" lon="-8.1822820">
        <ele>326.0</ele>
        <time>2021-10-06T08:05:07Z</time>
      </trkpt>
      <trkpt lat="42.9246260" lon="-8.1824050">
        <ele>326.2</ele>
        <time>2021-10-06T08:05:10Z</time>
      </trkpt>
      <trkpt lat="42.9246180" lon="-8.1825360">
        <ele>326.6</ele>
        <time>2021-10-06T08:05:13Z</time>
      </trkpt>
      <trkpt lat="42.9245940" lon="-8.1826280">
        <ele>327.4</ele>
        <time>2021-10-06T08:05:15Z</time>
      </trkpt>
      <trkpt lat="42.9245710" lon="-8.1827150">
        <ele>328.4</ele>
        <time>2021-10-06T08:05:17Z</time>
      </trkpt>
      <trkpt lat="42.9245540" lon="-8.1827620">
        <ele>329.0</ele>
        <time>2021-10-06T08:05:18Z</time>
      </trkpt>
      <trkpt lat="42.9245180" lon="-8.1828460">
        <ele>330.2</ele>
        <time>2021-10-06T08:05:20Z</time>
      </trkpt>
      <trkpt lat="42.9245060" lon="-8.1828820">
        <ele>331.4</ele>
        <time>2021-10-06T08:05:21Z</time>
      </trkpt>
      <trkpt lat="42.9244690" lon="-8.1829520">
        <ele>332.4</ele>
        <time>2021-10-06T08:05:23Z</time>
      </trkpt>
      <trkpt lat="42.9244560" lon="-8.1829820">
        <ele>333.2</ele>
        <time>2021-10-06T08:05:24Z</time>
      </trkpt>
      <trkpt lat="42.9244230" lon="-8.1830600">
        <ele>334.6</ele>
        <time>2021-10-06T08:05:28Z</time>
      </trkpt>
      <trkpt lat="42.9244100" lon="-8.1831250">
        <ele>335.6</ele>
        <time>2021-10-06T08:05:31Z</time>
      </trkpt>
      <trkpt lat="42.9243670" lon="-8.1832160">
        <ele>337.0</ele>
        <time>2021-10-06T08:05:34Z</time>
      </trkpt>
      <trkpt lat="42.9243210" lon="-8.1833240">
        <ele>338.2</ele>
        <time>2021-10-06T08:05:37Z</time>
      </trkpt>
      <trkpt lat="42.9243050" lon="-8.1834350">
        <ele>339.4</ele>
        <time>2021-10-06T08:05:41Z</time>
      </trkpt>
      <trkpt lat="42.9242810" lon="-8.1835900">
        <ele>340.8</ele>
        <time>2021-10-06T08:05:45Z</time>
      </trkpt>
      <trkpt lat="42.9242710" lon="-8.1837040">
        <ele>341.8</ele>
        <time>2021-10-06T08:05:48Z</time>
      </trkpt>
      <trkpt lat="42.9242740" lon="-8.1838410">
        <ele>343.0</ele>
        <time>2021-10-06T08:05:52Z</time>
      </trkpt>
      <trkpt lat="42.9242640" lon="-8.1839450">
        <ele>344.4</ele>
        <time>2021-10-06T08:05:55Z</time>
      </trkpt>
      <trkpt lat="42.9242450" lon="-8.1840770">
        <ele>345.8</ele>
        <time>2021-10-06T08:05:59Z</time>
      </trkpt>
      <trkpt lat="42.9242160" lon="-8.1842450">
        <ele>347.0</ele>
        <time>2021-10-06T08:06:04Z</time>
      </trkpt>
      <trkpt lat="42.9241790" lon="-8.1843570">
        <ele>348.6</ele>
        <time>2021-10-06T08:06:07Z</time>
      </trkpt>
      <trkpt lat="42.9241240" lon="-8.1844720">
        <ele>349.8</ele>
        <time>2021-10-06T08:06:10Z</time>
      </trkpt>
      <trkpt lat="42.9240050" lon="-8.1845960">
        <ele>351.0</ele>
        <time>2021-10-06T08:06:14Z</time>
      </trkpt>
      <trkpt lat="42.9238620" lon="-8.1847270">
        <ele>351.0</ele>
        <time>2021-10-06T08:06:18Z</time>
      </trkpt>
      <trkpt lat="42.9235690" lon="-8.1848710">
        <ele>351.2</ele>
        <time>2021-10-06T08:06:25Z</time>
      </trkpt>
      <trkpt lat="42.9233840" lon="-8.1849370">
        <ele>351.2</ele>
        <time>2021-10-06T08:06:29Z</time>
      </trkpt>
      <trkpt lat="42.9231900" lon="-8.1850020">
        <ele>351.0</ele>
        <time>2021-10-06T08:06:33Z</time>
      </trkpt>
      <trkpt lat="42.9230370" lon="-8.1850710">
        <ele>351.0</ele>
        <time>2021-10-06T08:06:36Z</time>
      </trkpt>
      <trkpt lat="42.9228850" lon="-8.1851820">
        <ele>351.0</ele>
        <time>2021-10-06T08:06:39Z</time>
      </trkpt>
      <trkpt lat="42.9227100" lon="-8.1854590">
        <ele>351.0</ele>
        <time>2021-10-06T08:06:44Z</time>
      </trkpt>
      <trkpt lat="42.9226680" lon="-8.1855710">
        <ele>351.0</ele>
        <time>2021-10-06T08:06:46Z</time>
      </trkpt>
      <trkpt lat="42.9226660" lon="-8.1857840">
        <ele>351.0</ele>
        <time>2021-10-06T08:06:50Z</time>
      </trkpt>
      <trkpt lat="42.9227150" lon="-8.1862540">
        <ele>352.2</ele>
        <time>2021-10-06T08:07:00Z</time>
      </trkpt>
      <trkpt lat="42.9227110" lon="-8.1863020">
        <ele>352.4</ele>
        <time>2021-10-06T08:07:01Z</time>
      </trkpt>
      <trkpt lat="42.9226920" lon="-8.1864410">
        <ele>353.6</ele>
        <time>2021-10-06T08:07:04Z</time>
      </trkpt>
      <trkpt lat="42.9226570" lon="-8.1866470">
        <ele>354.6</ele>
        <time>2021-10-06T08:07:09Z</time>
      </trkpt>
      <trkpt lat="42.9226500" lon="-8.1866860">
        <ele>354.8</ele>
        <time>2021-10-06T08:07:10Z</time>
      </trkpt>
      <trkpt lat="42.9226260" lon="-8.1868360">
        <ele>355.8</ele>
        <time>2021-10-06T08:07:14Z</time>
      </trkpt>
      <trkpt lat="42.9226380" lon="-8.1869660">
        <ele>357.0</ele>
        <time>2021-10-06T08:07:18Z</time>
      </trkpt>
      <trkpt lat="42.9226870" lon="-8.1870390">
        <ele>358.4</ele>
        <time>2021-10-06T08:07:21Z</time>
      </trkpt>
      <trkpt lat="42.9227260" lon="-8.1871380">
        <ele>359.2</ele>
        <time>2021-10-06T08:07:24Z</time>
      </trkpt>
      <trkpt lat="42.9227910" lon="-8.1873540">
        <ele>360.6</ele>
        <time>2021-10-06T08:07:30Z</time>
      </trkpt>
      <trkpt lat="42.9228070" lon="-8.1876460">
        <ele>361.8</ele>
        <time>2021-10-06T08:07:38Z</time>
      </trkpt>
      <trkpt lat="42.9228350" lon="-8.1878130">
        <ele>362.8</ele>
        <time>2021-10-06T08:07:43Z</time>
      </trkpt>
      <trkpt lat="42.9228920" lon="-8.1878860">
        <ele>363.8</ele>
        <time>2021-10-06T08:07:46Z</time>
      </trkpt>
      <trkpt lat="42.9229820" lon="-8.1879440">
        <ele>365.2</ele>
        <time>2021-10-06T08:07:50Z</time>
      </trkpt>
      <trkpt lat="42.9230470" lon="-8.1879830">
        <ele>366.4</ele>
        <time>2021-10-06T08:07:53Z</time>
      </trkpt>
      <trkpt lat="42.9230890" lon="-8.1880220">
        <ele>367.4</ele>
        <time>2021-10-06T08:07:56Z</time>
      </trkpt>
      <trkpt lat="42.9231480" lon="-8.1881000">
        <ele>368.6</ele>
        <time>2021-10-06T08:08:00Z</time>
      </trkpt>
      <trkpt lat="42.9231720" lon="-8.1881680">
        <ele>369.2</ele>
        <time>2021-10-06T08:08:04Z</time>
      </trkpt>
      <trkpt lat="42.9232020" lon="-8.1882950">
        <ele>369.2</ele>
        <time>2021-10-06T08:08:07Z</time>
      </trkpt>
      <trkpt lat="42.9231150" lon="-8.1884360">
        <ele>369.6</ele>
        <time>2021-10-06T08:08:13Z</time>
      </trkpt>
      <trkpt lat="42.9231040" lon="-8.1884610">
        <ele>369.8</ele>
        <time>2021-10-06T08:08:14Z</time>
      </trkpt>
      <trkpt lat="42.9230700" lon="-8.1885240">
        <ele>370.8</ele>
        <time>2021-10-06T08:08:17Z</time>
      </trkpt>
      <trkpt lat="42.9230650" lon="-8.1885670">
        <ele>371.8</ele>
        <time>2021-10-06T08:08:19Z</time>
      </trkpt>
      <trkpt lat="42.9231330" lon="-8.1886140">
        <ele>373.4</ele>
        <time>2021-10-06T08:08:22Z</time>
      </trkpt>
      <trkpt lat="42.9231850" lon="-8.1886450">
        <ele>374.2</ele>
        <time>2021-10-06T08:08:24Z</time>
      </trkpt>
      <trkpt lat="42.9232070" lon="-8.1886580">
        <ele>374.8</ele>
        <time>2021-10-06T08:08:25Z</time>
      </trkpt>
      <trkpt lat="42.9232610" lon="-8.1886840">
        <ele>376.2</ele>
        <time>2021-10-06T08:08:28Z</time>
      </trkpt>
      <trkpt lat="42.9233350" lon="-8.1887040">
        <ele>377.4</ele>
        <time>2021-10-06T08:08:32Z</time>
      </trkpt>
      <trkpt lat="42.9233930" lon="-8.1887250">
        <ele>378.8</ele>
        <time>2021-10-06T08:08:35Z</time>
      </trkpt>
      <trkpt lat="42.9234710" lon="-8.1887650">
        <ele>379.8</ele>
        <time>2021-10-06T08:08:39Z</time>
      </trkpt>
      <trkpt lat="42.9235930" lon="-8.1888110">
        <ele>380.8</ele>
        <time>2021-10-06T08:08:44Z</time>
      </trkpt>
      <trkpt lat="42.9236150" lon="-8.1888250">
        <ele>380.8</ele>
        <time>2021-10-06T08:08:45Z</time>
      </trkpt>
      <trkpt lat="42.9237830" lon="-8.1888920">
        <ele>381.2</ele>
        <time>2021-10-06T08:08:51Z</time>
      </trkpt>
      <trkpt lat="42.9239420" lon="-8.1889800">
        <ele>381.4</ele>
        <time>2021-10-06T08:08:57Z</time>
      </trkpt>
      <trkpt lat="42.9240560" lon="-8.1890450">
        <ele>381.6</ele>
        <time>2021-10-06T08:09:01Z</time>
      </trkpt>
      <trkpt lat="42.9241470" lon="-8.1890880">
        <ele>381.8</ele>
        <time>2021-10-06T08:09:04Z</time>
      </trkpt>
      <trkpt lat="42.9242720" lon="-8.1891460">
        <ele>381.8</ele>
        <time>2021-10-06T08:09:08Z</time>
      </trkpt>
      <trkpt lat="42.9247970" lon="-8.1893780">
        <ele>383.0</ele>
        <time>2021-10-06T08:09:25Z</time>
      </trkpt>
      <trkpt lat="42.9248950" lon="-8.1894200">
        <ele>383.0</ele>
        <time>2021-10-06T08:09:28Z</time>
      </trkpt>
      <trkpt lat="42.9251640" lon="-8.1895440">
        <ele>383.8</ele>
        <time>2021-10-06T08:09:36Z</time>
      </trkpt>
      <trkpt lat="42.9252710" lon="-8.1895930">
        <ele>384.2</ele>
        <time>2021-10-06T08:09:39Z</time>
      </trkpt>
      <trkpt lat="42.9255930" lon="-8.1897430">
        <ele>385.0</ele>
        <time>2021-10-06T08:09:49Z</time>
      </trkpt>
      <trkpt lat="42.9256610" lon="-8.1897740">
        <ele>385.4</ele>
        <time>2021-10-06T08:09:51Z</time>
      </trkpt>
      <trkpt lat="42.9260530" lon="-8.1899820">
        <ele>386.6</ele>
        <time>2021-10-06T08:10:03Z</time>
      </trkpt>
      <trkpt lat="42.9262040" lon="-8.1903630">
        <ele>387.6</ele>
        <time>2021-10-06T08:10:12Z</time>
      </trkpt>
      <trkpt lat="42.9261920" lon="-8.1906610">
        <ele>388.0</ele>
        <time>2021-10-06T08:10:18Z</time>
      </trkpt>
      <trkpt lat="42.9261890" lon="-8.1908810">
        <ele>388.8</ele>
        <time>2021-10-06T08:10:23Z</time>
      </trkpt>
      <trkpt lat="42.9261900" lon="-8.1910950">
        <ele>389.8</ele>
        <time>2021-10-06T08:10:28Z</time>
      </trkpt>
      <trkpt lat="42.9262030" lon="-8.1912900">
        <ele>391.0</ele>
        <time>2021-10-06T08:10:33Z</time>
      </trkpt>
      <trkpt lat="42.9262010" lon="-8.1917220">
        <ele>392.2</ele>
        <time>2021-10-06T08:10:43Z</time>
      </trkpt>
      <trkpt lat="42.9261880" lon="-8.1920240">
        <ele>393.4</ele>
        <time>2021-10-06T08:10:50Z</time>
      </trkpt>
      <trkpt lat="42.9261910" lon="-8.1923510">
        <ele>394.6</ele>
        <time>2021-10-06T08:10:58Z</time>
      </trkpt>
      <trkpt lat="42.9261930" lon="-8.1926520">
        <ele>395.6</ele>
        <time>2021-10-06T08:11:05Z</time>
      </trkpt>
      <trkpt lat="42.9261950" lon="-8.1929160">
        <ele>396.2</ele>
        <time>2021-10-06T08:11:12Z</time>
      </trkpt>
      <trkpt lat="42.9262320" lon="-8.1930470">
        <ele>396.6</ele>
        <time>2021-10-06T08:11:16Z</time>
      </trkpt>
      <trkpt lat="42.9263320" lon="-8.1933730">
        <ele>397.8</ele>
        <time>2021-10-06T08:11:26Z</time>
      </trkpt>
      <trkpt lat="42.9264250" lon="-8.1937290">
        <ele>399.0</ele>
        <time>2021-10-06T08:11:35Z</time>
      </trkpt>
      <trkpt lat="42.9265170" lon="-8.1941430">
        <ele>399.8</ele>
        <time>2021-10-06T08:11:44Z</time>
      </trkpt>
      <trkpt lat="42.9265250" lon="-8.1941930">
        <ele>400.0</ele>
        <time>2021-10-06T08:11:45Z</time>
      </trkpt>
      <trkpt lat="42.9266160" lon="-8.1947470">
        <ele>401.2</ele>
        <time>2021-10-06T08:11:57Z</time>
      </trkpt>
      <trkpt lat="42.9267030" lon="-8.1950180">
        <ele>401.6</ele>
        <time>2021-10-06T08:12:04Z</time>
      </trkpt>
      <trkpt lat="42.9266820" lon="-8.1953720">
        <ele>402.4</ele>
        <time>2021-10-06T08:12:12Z</time>
      </trkpt>
      <trkpt lat="42.9266360" lon="-8.1958660">
        <ele>403.2</ele>
        <time>2021-10-06T08:12:23Z</time>
      </trkpt>
      <trkpt lat="42.9266380" lon="-8.1959790">
        <ele>403.2</ele>
        <time>2021-10-06T08:12:26Z</time>
      </trkpt>
      <trkpt lat="42.9265070" lon="-8.1962220">
        <ele>402.8</ele>
        <time>2021-10-06T08:12:32Z</time>
      </trkpt>
      <trkpt lat="42.9264740" lon="-8.1962670">
        <ele>402.8</ele>
        <time>2021-10-06T08:12:33Z</time>
      </trkpt>
      <trkpt lat="42.9262420" lon="-8.1967090">
        <ele>401.4</ele>
        <time>2021-10-06T08:12:40Z</time>
      </trkpt>
      <trkpt lat="42.9261050" lon="-8.1970590">
        <ele>400.0</ele>
        <time>2021-10-06T08:12:45Z</time>
      </trkpt>
      <trkpt lat="42.9260900" lon="-8.1971220">
        <ele>399.6</ele>
        <time>2021-10-06T08:12:46Z</time>
      </trkpt>
      <trkpt lat="42.9260770" lon="-8.1971810">
        <ele>398.6</ele>
        <time>2021-10-06T08:12:47Z</time>
      </trkpt>
      <trkpt lat="42.9260580" lon="-8.1972390">
        <ele>398.2</ele>
        <time>2021-10-06T08:12:48Z</time>
      </trkpt>
      <trkpt lat="42.9260110" lon="-8.1973760">
        <ele>397.4</ele>
        <time>2021-10-06T08:12:50Z</time>
      </trkpt>
      <trkpt lat="42.9259610" lon="-8.1976230">
        <ele>396.2</ele>
        <time>2021-10-06T08:12:54Z</time>
      </trkpt>
      <trkpt lat="42.9259490" lon="-8.1977840">
        <ele>394.6</ele>
        <time>2021-10-06T08:12:57Z</time>
      </trkpt>
      <trkpt lat="42.9259820" lon="-8.1978730">
        <ele>393.4</ele>
        <time>2021-10-06T08:12:59Z</time>
      </trkpt>
      <trkpt lat="42.9260820" lon="-8.1979980">
        <ele>392.2</ele>
        <time>2021-10-06T08:13:02Z</time>
      </trkpt>
      <trkpt lat="42.9261540" lon="-8.1980960">
        <ele>391.6</ele>
        <time>2021-10-06T08:13:04Z</time>
      </trkpt>
      <trkpt lat="42.9262170" lon="-8.1981840">
        <ele>390.8</ele>
        <time>2021-10-06T08:13:06Z</time>
      </trkpt>
      <trkpt lat="42.9262760" lon="-8.1982560">
        <ele>389.6</ele>
        <time>2021-10-06T08:13:08Z</time>
      </trkpt>
      <trkpt lat="42.9263300" lon="-8.1983360">
        <ele>388.0</ele>
        <time>2021-10-06T08:13:10Z</time>
      </trkpt>
      <trkpt lat="42.9263780" lon="-8.1984150">
        <ele>387.0</ele>
        <time>2021-10-06T08:13:12Z</time>
      </trkpt>
      <trkpt lat="42.9264230" lon="-8.1984770">
        <ele>385.4</ele>
        <time>2021-10-06T08:13:15Z</time>
      </trkpt>
      <trkpt lat="42.9264510" lon="-8.1985160">
        <ele>384.4</ele>
        <time>2021-10-06T08:13:17Z</time>
      </trkpt>
      <trkpt lat="42.9264750" lon="-8.1985860">
        <ele>383.0</ele>
        <time>2021-10-06T08:13:20Z</time>
      </trkpt>
      <trkpt lat="42.9265270" lon="-8.1986460">
        <ele>382.0</ele>
        <time>2021-10-06T08:13:23Z</time>
      </trkpt>
      <trkpt lat="42.9266340" lon="-8.1987880">
        <ele>380.6</ele>
        <time>2021-10-06T08:13:27Z</time>
      </trkpt>
      <trkpt lat="42.9267100" lon="-8.1988910">
        <ele>379.6</ele>
        <time>2021-10-06T08:13:30Z</time>
      </trkpt>
      <trkpt lat="42.9267650" lon="-8.1989450">
        <ele>378.4</ele>
        <time>2021-10-06T08:13:32Z</time>
      </trkpt>
      <trkpt lat="42.9268190" lon="-8.1990100">
        <ele>377.2</ele>
        <time>2021-10-06T08:13:34Z</time>
      </trkpt>
      <trkpt lat="42.9269290" lon="-8.1991020">
        <ele>375.8</ele>
        <time>2021-10-06T08:13:37Z</time>
      </trkpt>
      <trkpt lat="42.9269620" lon="-8.1991470">
        <ele>375.4</ele>
        <time>2021-10-06T08:13:38Z</time>
      </trkpt>
      <trkpt lat="42.9270340" lon="-8.1992540">
        <ele>374.6</ele>
        <time>2021-10-06T08:13:40Z</time>
      </trkpt>
      <trkpt lat="42.9271270" lon="-8.1994190">
        <ele>373.2</ele>
        <time>2021-10-06T08:13:43Z</time>
      </trkpt>
      <trkpt lat="42.9271990" lon="-8.1995520">
        <ele>372.0</ele>
        <time>2021-10-06T08:13:46Z</time>
      </trkpt>
      <trkpt lat="42.9272420" lon="-8.1996080">
        <ele>371.0</ele>
        <time>2021-10-06T08:13:48Z</time>
      </trkpt>
      <trkpt lat="42.9273010" lon="-8.1997250">
        <ele>369.8</ele>
        <time>2021-10-06T08:13:51Z</time>
      </trkpt>
      <trkpt lat="42.9274500" lon="-8.2001590">
        <ele>368.6</ele>
        <time>2021-10-06T08:13:58Z</time>
      </trkpt>
      <trkpt lat="42.9274720" lon="-8.2002200">
        <ele>368.4</ele>
        <time>2021-10-06T08:13:59Z</time>
      </trkpt>
      <trkpt lat="42.9275250" lon="-8.2003440">
        <ele>367.8</ele>
        <time>2021-10-06T08:14:01Z</time>
      </trkpt>
      <trkpt lat="42.9275480" lon="-8.2004040">
        <ele>367.8</ele>
        <time>2021-10-06T08:14:02Z</time>
      </trkpt>
      <trkpt lat="42.9277020" lon="-8.2009350">
        <ele>366.8</ele>
        <time>2021-10-06T08:14:15Z</time>
      </trkpt>
      <trkpt lat="42.9276920" lon="-8.2010270">
        <ele>366.8</ele>
        <time>2021-10-06T08:14:18Z</time>
      </trkpt>
      <trkpt lat="42.9276860" lon="-8.2011250">
        <ele>367.0</ele>
        <time>2021-10-06T08:14:21Z</time>
      </trkpt>
      <trkpt lat="42.9276810" lon="-8.2011780">
        <ele>367.6</ele>
        <time>2021-10-06T08:14:23Z</time>
      </trkpt>
      <trkpt lat="42.9276960" lon="-8.2012330">
        <ele>368.4</ele>
        <time>2021-10-06T08:14:25Z</time>
      </trkpt>
      <trkpt lat="42.9277260" lon="-8.2013160">
        <ele>368.8</ele>
        <time>2021-10-06T08:14:28Z</time>
      </trkpt>
      <trkpt lat="42.9277530" lon="-8.2013780">
        <ele>369.0</ele>
        <time>2021-10-06T08:14:30Z</time>
      </trkpt>
      <trkpt lat="42.9277820" lon="-8.2014990">
        <ele>370.0</ele>
        <time>2021-10-06T08:14:33Z</time>
      </trkpt>
      <trkpt lat="42.9277920" lon="-8.2015380">
        <ele>370.2</ele>
        <time>2021-10-06T08:14:34Z</time>
      </trkpt>
      <trkpt lat="42.9278010" lon="-8.2015710">
        <ele>370.6</ele>
        <time>2021-10-06T08:14:35Z</time>
      </trkpt>
      <trkpt lat="42.9278200" lon="-8.2016500">
        <ele>371.0</ele>
        <time>2021-10-06T08:14:37Z</time>
      </trkpt>
      <trkpt lat="42.9278390" lon="-8.2017180">
        <ele>371.8</ele>
        <time>2021-10-06T08:14:39Z</time>
      </trkpt>
      <trkpt lat="42.9278570" lon="-8.2018440">
        <ele>372.8</ele>
        <time>2021-10-06T08:14:42Z</time>
      </trkpt>
      <trkpt lat="42.9278690" lon="-8.2018920">
        <ele>373.0</ele>
        <time>2021-10-06T08:14:43Z</time>
      </trkpt>
      <trkpt lat="42.9278690" lon="-8.2020090">
        <ele>374.6</ele>
        <time>2021-10-06T08:14:46Z</time>
      </trkpt>
      <trkpt lat="42.9278610" lon="-8.2021330">
        <ele>375.6</ele>
        <time>2021-10-06T08:14:49Z</time>
      </trkpt>
      <trkpt lat="42.9278390" lon="-8.2022540">
        <ele>377.0</ele>
        <time>2021-10-06T08:14:52Z</time>
      </trkpt>
      <trkpt lat="42.9278190" lon="-8.2023780">
        <ele>378.4</ele>
        <time>2021-10-06T08:14:55Z</time>
      </trkpt>
      <trkpt lat="42.9278020" lon="-8.2024980">
        <ele>379.6</ele>
        <time>2021-10-06T08:14:58Z</time>
      </trkpt>
      <trkpt lat="42.9278010" lon="-8.2026180">
        <ele>381.0</ele>
        <time>2021-10-06T08:15:01Z</time>
      </trkpt>
      <trkpt lat="42.9277860" lon="-8.2027370">
        <ele>382.4</ele>
        <time>2021-10-06T08:15:04Z</time>
      </trkpt>
      <trkpt lat="42.9277620" lon="-8.2028510">
        <ele>383.6</ele>
        <time>2021-10-06T08:15:07Z</time>
      </trkpt>
      <trkpt lat="42.9277480" lon="-8.2029930">
        <ele>384.6</ele>
        <time>2021-10-06T08:15:11Z</time>
      </trkpt>
      <trkpt lat="42.9277210" lon="-8.2031390">
        <ele>385.8</ele>
        <time>2021-10-06T08:15:15Z</time>
      </trkpt>
      <trkpt lat="42.9276940" lon="-8.2032910">
        <ele>386.8</ele>
        <time>2021-10-06T08:15:19Z</time>
      </trkpt>
      <trkpt lat="42.9276540" lon="-8.2034650">
        <ele>388.0</ele>
        <time>2021-10-06T08:15:24Z</time>
      </trkpt>
      <trkpt lat="42.9276000" lon="-8.2037000">
        <ele>389.2</ele>
        <time>2021-10-06T08:15:31Z</time>
      </trkpt>
      <trkpt lat="42.9275570" lon="-8.2039110">
        <ele>390.2</ele>
        <time>2021-10-06T08:15:37Z</time>
      </trkpt>
      <trkpt lat="42.9275330" lon="-8.2041100">
        <ele>391.6</ele>
        <time>2021-10-06T08:15:42Z</time>
      </trkpt>
      <trkpt lat="42.9275310" lon="-8.2042660">
        <ele>392.6</ele>
        <time>2021-10-06T08:15:46Z</time>
      </trkpt>
      <trkpt lat="42.9275100" lon="-8.2044730">
        <ele>393.8</ele>
        <time>2021-10-06T08:15:51Z</time>
      </trkpt>
      <trkpt lat="42.9275020" lon="-8.2047010">
        <ele>395.0</ele>
        <time>2021-10-06T08:15:56Z</time>
      </trkpt>
      <trkpt lat="42.9275040" lon="-8.2048950">
        <ele>396.2</ele>
        <time>2021-10-06T08:16:01Z</time>
      </trkpt>
      <trkpt lat="42.9275040" lon="-8.2050570">
        <ele>397.2</ele>
        <time>2021-10-06T08:16:05Z</time>
      </trkpt>
      <trkpt lat="42.9275100" lon="-8.2052520">
        <ele>398.4</ele>
        <time>2021-10-06T08:16:10Z</time>
      </trkpt>
      <trkpt lat="42.9274950" lon="-8.2054200">
        <ele>399.6</ele>
        <time>2021-10-06T08:16:14Z</time>
      </trkpt>
      <trkpt lat="42.9274960" lon="-8.2057770">
        <ele>400.6</ele>
        <time>2021-10-06T08:16:22Z</time>
      </trkpt>
      <trkpt lat="42.9275150" lon="-8.2059780">
        <ele>401.8</ele>
        <time>2021-10-06T08:16:27Z</time>
      </trkpt>
      <trkpt lat="42.9275470" lon="-8.2061530">
        <ele>402.4</ele>
        <time>2021-10-06T08:16:31Z</time>
      </trkpt>
      <trkpt lat="42.9275470" lon="-8.2062330">
        <ele>402.8</ele>
        <time>2021-10-06T08:16:33Z</time>
      </trkpt>
      <trkpt lat="42.9275870" lon="-8.2065440">
        <ele>404.0</ele>
        <time>2021-10-06T08:16:40Z</time>
      </trkpt>
      <trkpt lat="42.9276090" lon="-8.2067340">
        <ele>405.0</ele>
        <time>2021-10-06T08:16:45Z</time>
      </trkpt>
      <trkpt lat="42.9276290" lon="-8.2068660">
        <ele>406.0</ele>
        <time>2021-10-06T08:16:48Z</time>
      </trkpt>
      <trkpt lat="42.9276380" lon="-8.2072040">
        <ele>406.6</ele>
        <time>2021-10-06T08:16:54Z</time>
      </trkpt>
      <trkpt lat="42.9276480" lon="-8.2073100">
        <ele>406.6</ele>
        <time>2021-10-06T08:16:57Z</time>
      </trkpt>
      <trkpt lat="42.9276490" lon="-8.2073560">
        <ele>406.6</ele>
        <time>2021-10-06T08:16:59Z</time>
      </trkpt>
      <trkpt lat="42.9276650" lon="-8.2075520">
        <ele>407.4</ele>
        <time>2021-10-06T08:17:05Z</time>
      </trkpt>
      <trkpt lat="42.9276650" lon="-8.2076110">
        <ele>407.8</ele>
        <time>2021-10-06T08:17:07Z</time>
      </trkpt>
      <trkpt lat="42.9276260" lon="-8.2077200">
        <ele>408.2</ele>
        <time>2021-10-06T08:17:11Z</time>
      </trkpt>
      <trkpt lat="42.9276170" lon="-8.2077460">
        <ele>408.4</ele>
        <time>2021-10-06T08:17:12Z</time>
      </trkpt>
      <trkpt lat="42.9276210" lon="-8.2077940">
        <ele>408.8</ele>
        <time>2021-10-06T08:17:14Z</time>
      </trkpt>
      <trkpt lat="42.9276630" lon="-8.2079160">
        <ele>409.6</ele>
        <time>2021-10-06T08:17:18Z</time>
      </trkpt>
      <trkpt lat="42.9277170" lon="-8.2080800">
        <ele>409.8</ele>
        <time>2021-10-06T08:17:23Z</time>
      </trkpt>
      <trkpt lat="42.9278820" lon="-8.2084340">
        <ele>410.2</ele>
        <time>2021-10-06T08:17:34Z</time>
      </trkpt>
      <trkpt lat="42.9279300" lon="-8.2085300">
        <ele>410.8</ele>
        <time>2021-10-06T08:17:37Z</time>
      </trkpt>
      <trkpt lat="42.9279840" lon="-8.2086450">
        <ele>411.2</ele>
        <time>2021-10-06T08:17:40Z</time>
      </trkpt>
      <trkpt lat="42.9280890" lon="-8.2088960">
        <ele>412.0</ele>
        <time>2021-10-06T08:17:46Z</time>
      </trkpt>
      <trkpt lat="42.9281770" lon="-8.2091470">
        <ele>413.0</ele>
        <time>2021-10-06T08:17:53Z</time>
      </trkpt>
      <trkpt lat="42.9282140" lon="-8.2093120">
        <ele>414.2</ele>
        <time>2021-10-06T08:17:57Z</time>
      </trkpt>
      <trkpt lat="42.9282850" lon="-8.2094990">
        <ele>415.2</ele>
        <time>2021-10-06T08:18:02Z</time>
      </trkpt>
      <trkpt lat="42.9284670" lon="-8.2099160">
        <ele>416.4</ele>
        <time>2021-10-06T08:18:10Z</time>
      </trkpt>
      <trkpt lat="42.9285760" lon="-8.2101630">
        <ele>416.8</ele>
        <time>2021-10-06T08:18:15Z</time>
      </trkpt>
      <trkpt lat="42.9286300" lon="-8.2103710">
        <ele>417.0</ele>
        <time>2021-10-06T08:18:19Z</time>
      </trkpt>
      <trkpt lat="42.9286670" lon="-8.2105450">
        <ele>417.0</ele>
        <time>2021-10-06T08:18:22Z</time>
      </trkpt>
      <trkpt lat="42.9286990" lon="-8.2107360">
        <ele>417.0</ele>
        <time>2021-10-06T08:18:25Z</time>
      </trkpt>
      <trkpt lat="42.9287240" lon="-8.2109650">
        <ele>416.8</ele>
        <time>2021-10-06T08:18:28Z</time>
      </trkpt>
      <trkpt lat="42.9287340" lon="-8.2111300">
        <ele>416.2</ele>
        <time>2021-10-06T08:18:30Z</time>
      </trkpt>
      <trkpt lat="42.9287400" lon="-8.2111950">
        <ele>415.4</ele>
        <time>2021-10-06T08:18:31Z</time>
      </trkpt>
      <trkpt lat="42.9287460" lon="-8.2113230">
        <ele>414.6</ele>
        <time>2021-10-06T08:18:33Z</time>
      </trkpt>
      <trkpt lat="42.9287720" lon="-8.2115370">
        <ele>413.4</ele>
        <time>2021-10-06T08:18:36Z</time>
      </trkpt>
      <trkpt lat="42.9288160" lon="-8.2120090">
        <ele>412.8</ele>
        <time>2021-10-06T08:18:43Z</time>
      </trkpt>
      <trkpt lat="42.9288340" lon="-8.2121710">
        <ele>412.6</ele>
        <time>2021-10-06T08:18:46Z</time>
      </trkpt>
      <trkpt lat="42.9288440" lon="-8.2122920">
        <ele>412.6</ele>
        <time>2021-10-06T08:18:48Z</time>
      </trkpt>
      <trkpt lat="42.9288430" lon="-8.2124760">
        <ele>412.4</ele>
        <time>2021-10-06T08:18:51Z</time>
      </trkpt>
      <trkpt lat="42.9288270" lon="-8.2129550">
        <ele>412.4</ele>
        <time>2021-10-06T08:18:59Z</time>
      </trkpt>
      <trkpt lat="42.9288490" lon="-8.2132200">
        <ele>412.6</ele>
        <time>2021-10-06T08:19:03Z</time>
      </trkpt>
      <trkpt lat="42.9288510" lon="-8.2138200">
        <ele>413.2</ele>
        <time>2021-10-06T08:19:14Z</time>
      </trkpt>
      <trkpt lat="42.9286940" lon="-8.2142750">
        <ele>413.6</ele>
        <time>2021-10-06T08:19:24Z</time>
      </trkpt>
      <trkpt lat="42.9286220" lon="-8.2144070">
        <ele>413.6</ele>
        <time>2021-10-06T08:19:30Z</time>
      </trkpt>
      <trkpt lat="42.9285680" lon="-8.2145380">
        <ele>414.8</ele>
        <time>2021-10-06T08:26:32Z</time>
      </trkpt>
      <trkpt lat="42.9285510" lon="-8.2145630">
        <ele>414.8</ele>
        <time>2021-10-06T08:26:33Z</time>
      </trkpt>
      <trkpt lat="42.9284950" lon="-8.2146530">
        <ele>414.8</ele>
        <time>2021-10-06T08:26:36Z</time>
      </trkpt>
      <trkpt lat="42.9284550" lon="-8.2147270">
        <ele>414.8</ele>
        <time>2021-10-06T08:26:38Z</time>
      </trkpt>
      <trkpt lat="42.9284230" lon="-8.2148660">
        <ele>414.8</ele>
        <time>2021-10-06T08:26:41Z</time>
      </trkpt>
      <trkpt lat="42.9283880" lon="-8.2149680">
        <ele>414.8</ele>
        <time>2021-10-06T08:26:43Z</time>
      </trkpt>
      <trkpt lat="42.9281240" lon="-8.2155850">
        <ele>415.4</ele>
        <time>2021-10-06T08:26:57Z</time>
      </trkpt>
      <trkpt lat="42.9278770" lon="-8.2162580">
        <ele>414.8</ele>
        <time>2021-10-06T08:27:08Z</time>
      </trkpt>
      <trkpt lat="42.9278250" lon="-8.2164050">
        <ele>414.4</ele>
        <time>2021-10-06T08:27:10Z</time>
      </trkpt>
      <trkpt lat="42.9277680" lon="-8.2165540">
        <ele>414.2</ele>
        <time>2021-10-06T08:27:12Z</time>
      </trkpt>
      <trkpt lat="42.9277080" lon="-8.2167120">
        <ele>413.4</ele>
        <time>2021-10-06T08:27:14Z</time>
      </trkpt>
      <trkpt lat="42.9276100" lon="-8.2169590">
        <ele>412.0</ele>
        <time>2021-10-06T08:27:17Z</time>
      </trkpt>
      <trkpt lat="42.9275110" lon="-8.2172180">
        <ele>411.0</ele>
        <time>2021-10-06T08:27:20Z</time>
      </trkpt>
      <trkpt lat="42.9274080" lon="-8.2174890">
        <ele>409.8</ele>
        <time>2021-10-06T08:27:23Z</time>
      </trkpt>
      <trkpt lat="42.9272960" lon="-8.2177540">
        <ele>408.8</ele>
        <time>2021-10-06T08:27:26Z</time>
      </trkpt>
      <trkpt lat="42.9271830" lon="-8.2179570">
        <ele>407.4</ele>
        <time>2021-10-06T08:27:29Z</time>
      </trkpt>
      <trkpt lat="42.9270770" lon="-8.2180600">
        <ele>405.8</ele>
        <time>2021-10-06T08:27:32Z</time>
      </trkpt>
      <trkpt lat="42.9270040" lon="-8.2182060">
        <ele>404.8</ele>
        <time>2021-10-06T08:27:35Z</time>
      </trkpt>
      <trkpt lat="42.9269850" lon="-8.2182700">
        <ele>404.4</ele>
        <time>2021-10-06T08:27:36Z</time>
      </trkpt>
      <trkpt lat="42.9269680" lon="-8.2183350">
        <ele>404.4</ele>
        <time>2021-10-06T08:27:37Z</time>
      </trkpt>
      <trkpt lat="42.9269050" lon="-8.2185830">
        <ele>403.6</ele>
        <time>2021-10-06T08:27:41Z</time>
      </trkpt>
      <trkpt lat="42.9268750" lon="-8.2187210">
        <ele>402.2</ele>
        <time>2021-10-06T08:27:43Z</time>
      </trkpt>
      <trkpt lat="42.9268480" lon="-8.2188470">
        <ele>400.8</ele>
        <time>2021-10-06T08:27:45Z</time>
      </trkpt>
      <trkpt lat="42.9267820" lon="-8.2191030">
        <ele>399.6</ele>
        <time>2021-10-06T08:27:49Z</time>
      </trkpt>
      <trkpt lat="42.9267470" lon="-8.2192340">
        <ele>398.2</ele>
        <time>2021-10-06T08:27:51Z</time>
      </trkpt>
      <trkpt lat="42.9266950" lon="-8.2194390">
        <ele>397.6</ele>
        <time>2021-10-06T08:27:54Z</time>
      </trkpt>
      <trkpt lat="42.9266350" lon="-8.2196510">
        <ele>397.2</ele>
        <time>2021-10-06T08:27:57Z</time>
      </trkpt>
      <trkpt lat="42.9265570" lon="-8.2198810">
        <ele>396.8</ele>
        <time>2021-10-06T08:28:01Z</time>
      </trkpt>
      <trkpt lat="42.9264810" lon="-8.2202250">
        <ele>396.6</ele>
        <time>2021-10-06T08:28:07Z</time>
      </trkpt>
      <trkpt lat="42.9264340" lon="-8.2204230">
        <ele>396.6</ele>
        <time>2021-10-06T08:28:10Z</time>
      </trkpt>
      <trkpt lat="42.9263800" lon="-8.2206360">
        <ele>396.6</ele>
        <time>2021-10-06T08:28:13Z</time>
      </trkpt>
      <trkpt lat="42.9263300" lon="-8.2208340">
        <ele>396.6</ele>
        <time>2021-10-06T08:28:16Z</time>
      </trkpt>
      <trkpt lat="42.9261270" lon="-8.2215050">
        <ele>398.2</ele>
        <time>2021-10-06T08:28:33Z</time>
      </trkpt>
      <trkpt lat="42.9261190" lon="-8.2215210">
        <ele>398.4</ele>
        <time>2021-10-06T08:28:35Z</time>
      </trkpt>
      <trkpt lat="42.9260390" lon="-8.2218190">
        <ele>400.8</ele>
        <time>2021-10-06T08:29:10Z</time>
      </trkpt>
      <trkpt lat="42.9260070" lon="-8.2219250">
        <ele>400.8</ele>
        <time>2021-10-06T08:29:13Z</time>
      </trkpt>
      <trkpt lat="42.9259740" lon="-8.2220830">
        <ele>400.8</ele>
        <time>2021-10-06T08:29:17Z</time>
      </trkpt>
      <trkpt lat="42.9259470" lon="-8.2224830">
        <ele>401.6</ele>
        <time>2021-10-06T08:29:26Z</time>
      </trkpt>
      <trkpt lat="42.9259460" lon="-8.2225810">
        <ele>402.0</ele>
        <time>2021-10-06T08:29:28Z</time>
      </trkpt>
      <trkpt lat="42.9259170" lon="-8.2230030">
        <ele>403.0</ele>
        <time>2021-10-06T08:29:38Z</time>
      </trkpt>
      <trkpt lat="42.9258790" lon="-8.2231280">
        <ele>403.2</ele>
        <time>2021-10-06T08:29:41Z</time>
      </trkpt>
      <trkpt lat="42.9256620" lon="-8.2237390">
        <ele>403.8</ele>
        <time>2021-10-06T08:29:55Z</time>
      </trkpt>
      <trkpt lat="42.9255910" lon="-8.2239330">
        <ele>404.2</ele>
        <time>2021-10-06T08:30:00Z</time>
      </trkpt>
      <trkpt lat="42.9254970" lon="-8.2241670">
        <ele>405.0</ele>
        <time>2021-10-06T08:30:06Z</time>
      </trkpt>
      <trkpt lat="42.9254510" lon="-8.2242650">
        <ele>405.0</ele>
        <time>2021-10-06T08:30:09Z</time>
      </trkpt>
      <trkpt lat="42.9253430" lon="-8.2244480">
        <ele>405.0</ele>
        <time>2021-10-06T08:30:14Z</time>
      </trkpt>
      <trkpt lat="42.9251900" lon="-8.2247810">
        <ele>404.8</ele>
        <time>2021-10-06T08:30:20Z</time>
      </trkpt>
      <trkpt lat="42.9250260" lon="-8.2252220">
        <ele>403.0</ele>
        <time>2021-10-06T08:30:27Z</time>
      </trkpt>
      <trkpt lat="42.9249580" lon="-8.2254050">
        <ele>402.4</ele>
        <time>2021-10-06T08:30:30Z</time>
      </trkpt>
      <trkpt lat="42.9249160" lon="-8.2255250">
        <ele>402.0</ele>
        <time>2021-10-06T08:30:32Z</time>
      </trkpt>
      <trkpt lat="42.9246780" lon="-8.2260830">
        <ele>401.0</ele>
        <time>2021-10-06T08:30:42Z</time>
      </trkpt>
      <trkpt lat="42.9246520" lon="-8.2261420">
        <ele>400.8</ele>
        <time>2021-10-06T08:30:43Z</time>
      </trkpt>
      <trkpt lat="42.9244800" lon="-8.2264400">
        <ele>400.0</ele>
        <time>2021-10-06T08:30:48Z</time>
      </trkpt>
      <trkpt lat="42.9243930" lon="-8.2265490">
        <ele>400.0</ele>
        <time>2021-10-06T08:30:50Z</time>
      </trkpt>
      <trkpt lat="42.9243430" lon="-8.2265990">
        <ele>399.8</ele>
        <time>2021-10-06T08:30:51Z</time>
      </trkpt>
      <trkpt lat="42.9241410" lon="-8.2268370">
        <ele>398.8</ele>
        <time>2021-10-06T08:30:56Z</time>
      </trkpt>
      <trkpt lat="42.9240270" lon="-8.2270390">
        <ele>397.8</ele>
        <time>2021-10-06T08:31:00Z</time>
      </trkpt>
      <trkpt lat="42.9239960" lon="-8.2270980">
        <ele>397.8</ele>
        <time>2021-10-06T08:31:01Z</time>
      </trkpt>
      <trkpt lat="42.9239650" lon="-8.2271610">
        <ele>397.8</ele>
        <time>2021-10-06T08:31:02Z</time>
      </trkpt>
      <trkpt lat="42.9238440" lon="-8.2274040">
        <ele>397.8</ele>
        <time>2021-10-06T08:31:06Z</time>
      </trkpt>
      <trkpt lat="42.9236710" lon="-8.2277420">
        <ele>397.8</ele>
        <time>2021-10-06T08:31:12Z</time>
      </trkpt>
      <trkpt lat="42.9235880" lon="-8.2279270">
        <ele>398.0</ele>
        <time>2021-10-06T08:31:16Z</time>
      </trkpt>
      <trkpt lat="42.9235280" lon="-8.2280680">
        <ele>398.2</ele>
        <time>2021-10-06T08:31:19Z</time>
      </trkpt>
      <trkpt lat="42.9234890" lon="-8.2281600">
        <ele>398.8</ele>
        <time>2021-10-06T08:31:21Z</time>
      </trkpt>
      <trkpt lat="42.9234710" lon="-8.2281950">
        <ele>399.0</ele>
        <time>2021-10-06T08:31:22Z</time>
      </trkpt>
      <trkpt lat="42.9234280" lon="-8.2282560">
        <ele>399.4</ele>
        <time>2021-10-06T08:31:24Z</time>
      </trkpt>
      <trkpt lat="42.9233800" lon="-8.2283090">
        <ele>400.0</ele>
        <time>2021-10-06T08:31:26Z</time>
      </trkpt>
      <trkpt lat="42.9233390" lon="-8.2283660">
        <ele>400.6</ele>
        <time>2021-10-06T08:31:28Z</time>
      </trkpt>
      <trkpt lat="42.9232920" lon="-8.2284380">
        <ele>401.6</ele>
        <time>2021-10-06T08:31:30Z</time>
      </trkpt>
      <trkpt lat="42.9232430" lon="-8.2285070">
        <ele>402.8</ele>
        <time>2021-10-06T08:31:32Z</time>
      </trkpt>
      <trkpt lat="42.9231980" lon="-8.2285760">
        <ele>403.8</ele>
        <time>2021-10-06T08:31:34Z</time>
      </trkpt>
      <trkpt lat="42.9231530" lon="-8.2286330">
        <ele>405.4</ele>
        <time>2021-10-06T08:31:36Z</time>
      </trkpt>
      <trkpt lat="42.9230430" lon="-8.2288170">
        <ele>406.4</ele>
        <time>2021-10-06T08:31:42Z</time>
      </trkpt>
      <trkpt lat="42.9230290" lon="-8.2288400">
        <ele>406.8</ele>
        <time>2021-10-06T08:31:43Z</time>
      </trkpt>
      <trkpt lat="42.9229850" lon="-8.2289020">
        <ele>407.6</ele>
        <time>2021-10-06T08:31:46Z</time>
      </trkpt>
      <trkpt lat="42.9229270" lon="-8.2290090">
        <ele>408.6</ele>
        <time>2021-10-06T08:31:51Z</time>
      </trkpt>
      <trkpt lat="42.9228610" lon="-8.2291660">
        <ele>409.6</ele>
        <time>2021-10-06T08:31:55Z</time>
      </trkpt>
      <trkpt lat="42.9227440" lon="-8.2294960">
        <ele>410.6</ele>
        <time>2021-10-06T08:32:02Z</time>
      </trkpt>
      <trkpt lat="42.9226160" lon="-8.2298270">
        <ele>412.0</ele>
        <time>2021-10-06T08:32:09Z</time>
      </trkpt>
      <trkpt lat="42.9224930" lon="-8.2301500">
        <ele>412.6</ele>
        <time>2021-10-06T08:32:16Z</time>
      </trkpt>
      <trkpt lat="42.9223830" lon="-8.2304290">
        <ele>413.0</ele>
        <time>2021-10-06T08:32:22Z</time>
      </trkpt>
      <trkpt lat="42.9223460" lon="-8.2305330">
        <ele>413.0</ele>
        <time>2021-10-06T08:32:24Z</time>
      </trkpt>
      <trkpt lat="42.9223060" lon="-8.2306530">
        <ele>413.0</ele>
        <time>2021-10-06T08:32:26Z</time>
      </trkpt>
      <trkpt lat="42.9222630" lon="-8.2307730">
        <ele>413.0</ele>
        <time>2021-10-06T08:32:28Z</time>
      </trkpt>
      <trkpt lat="42.9222070" lon="-8.2309220">
        <ele>413.0</ele>
        <time>2021-10-06T08:32:31Z</time>
      </trkpt>
      <trkpt lat="42.9221800" lon="-8.2310100">
        <ele>412.4</ele>
        <time>2021-10-06T08:32:33Z</time>
      </trkpt>
      <trkpt lat="42.9221590" lon="-8.2311100">
        <ele>411.6</ele>
        <time>2021-10-06T08:32:35Z</time>
      </trkpt>
      <trkpt lat="42.9221490" lon="-8.2311620">
        <ele>411.2</ele>
        <time>2021-10-06T08:32:36Z</time>
      </trkpt>
      <trkpt lat="42.9221030" lon="-8.2313320">
        <ele>410.4</ele>
        <time>2021-10-06T08:32:39Z</time>
      </trkpt>
      <trkpt lat="42.9220830" lon="-8.2313840">
        <ele>410.2</ele>
        <time>2021-10-06T08:32:40Z</time>
      </trkpt>
      <trkpt lat="42.9220360" lon="-8.2314890">
        <ele>410.0</ele>
        <time>2021-10-06T08:32:42Z</time>
      </trkpt>
      <trkpt lat="42.9219670" lon="-8.2316720">
        <ele>408.4</ele>
        <time>2021-10-06T08:32:45Z</time>
      </trkpt>
      <trkpt lat="42.9218670" lon="-8.2319230">
        <ele>407.0</ele>
        <time>2021-10-06T08:32:48Z</time>
      </trkpt>
      <trkpt lat="42.9217990" lon="-8.2320950">
        <ele>406.2</ele>
        <time>2021-10-06T08:32:50Z</time>
      </trkpt>
      <trkpt lat="42.9217660" lon="-8.2321750">
        <ele>405.6</ele>
        <time>2021-10-06T08:32:51Z</time>
      </trkpt>
      <trkpt lat="42.9217040" lon="-8.2323100">
        <ele>404.4</ele>
        <time>2021-10-06T08:32:53Z</time>
      </trkpt>
      <trkpt lat="42.9215570" lon="-8.2326310">
        <ele>403.2</ele>
        <time>2021-10-06T08:32:58Z</time>
      </trkpt>
      <trkpt lat="42.9214090" lon="-8.2329380">
        <ele>402.8</ele>
        <time>2021-10-06T08:33:03Z</time>
      </trkpt>
      <trkpt lat="42.9213600" lon="-8.2330350">
        <ele>402.6</ele>
        <time>2021-10-06T08:33:05Z</time>
      </trkpt>
      <trkpt lat="42.9213290" lon="-8.2330970">
        <ele>402.6</ele>
        <time>2021-10-06T08:33:06Z</time>
      </trkpt>
      <trkpt lat="42.9212480" lon="-8.2332980">
        <ele>402.4</ele>
        <time>2021-10-06T08:33:09Z</time>
      </trkpt>
      <trkpt lat="42.9211830" lon="-8.2334280">
        <ele>402.4</ele>
        <time>2021-10-06T08:33:11Z</time>
      </trkpt>
      <trkpt lat="42.9210660" lon="-8.2336660">
        <ele>402.2</ele>
        <time>2021-10-06T08:33:15Z</time>
      </trkpt>
      <trkpt lat="42.9210440" lon="-8.2337290">
        <ele>402.0</ele>
        <time>2021-10-06T08:33:16Z</time>
      </trkpt>
      <trkpt lat="42.9210210" lon="-8.2338000">
        <ele>402.0</ele>
        <time>2021-10-06T08:33:17Z</time>
      </trkpt>
      <trkpt lat="42.9209730" lon="-8.2340290">
        <ele>401.8</ele>
        <time>2021-10-06T08:33:20Z</time>
      </trkpt>
      <trkpt lat="42.9209460" lon="-8.2342570">
        <ele>401.4</ele>
        <time>2021-10-06T08:33:23Z</time>
      </trkpt>
      <trkpt lat="42.9209400" lon="-8.2343260">
        <ele>401.2</ele>
        <time>2021-10-06T08:33:24Z</time>
      </trkpt>
      <trkpt lat="42.9209290" lon="-8.2343910">
        <ele>401.0</ele>
        <time>2021-10-06T08:33:25Z</time>
      </trkpt>
      <trkpt lat="42.9208930" lon="-8.2346010">
        <ele>400.6</ele>
        <time>2021-10-06T08:33:28Z</time>
      </trkpt>
      <trkpt lat="42.9208770" lon="-8.2346600">
        <ele>400.4</ele>
        <time>2021-10-06T08:33:29Z</time>
      </trkpt>
      <trkpt lat="42.9208290" lon="-8.2347800">
        <ele>400.4</ele>
        <time>2021-10-06T08:33:31Z</time>
      </trkpt>
      <trkpt lat="42.9207030" lon="-8.2350630">
        <ele>400.2</ele>
        <time>2021-10-06T08:33:36Z</time>
      </trkpt>
      <trkpt lat="42.9206140" lon="-8.2353050">
        <ele>400.2</ele>
        <time>2021-10-06T08:33:41Z</time>
      </trkpt>
      <trkpt lat="42.9204990" lon="-8.2356600">
        <ele>402.0</ele>
        <time>2021-10-06T08:33:49Z</time>
      </trkpt>
      <trkpt lat="42.9204500" lon="-8.2358870">
        <ele>402.2</ele>
        <time>2021-10-06T08:33:53Z</time>
      </trkpt>
      <trkpt lat="42.9204400" lon="-8.2359840">
        <ele>402.2</ele>
        <time>2021-10-06T08:33:55Z</time>
      </trkpt>
      <trkpt lat="42.9204400" lon="-8.2361480">
        <ele>402.0</ele>
        <time>2021-10-06T08:33:58Z</time>
      </trkpt>
      <trkpt lat="42.9204170" lon="-8.2363780">
        <ele>401.8</ele>
        <time>2021-10-06T08:34:01Z</time>
      </trkpt>
      <trkpt lat="42.9204030" lon="-8.2366290">
        <ele>400.4</ele>
        <time>2021-10-06T08:34:04Z</time>
      </trkpt>
      <trkpt lat="42.9204050" lon="-8.2367710">
        <ele>399.2</ele>
        <time>2021-10-06T08:34:06Z</time>
      </trkpt>
      <trkpt lat="42.9203960" lon="-8.2369020">
        <ele>397.8</ele>
        <time>2021-10-06T08:34:09Z</time>
      </trkpt>
      <trkpt lat="42.9203800" lon="-8.2369920">
        <ele>396.8</ele>
        <time>2021-10-06T08:34:11Z</time>
      </trkpt>
      <trkpt lat="42.9203630" lon="-8.2370750">
        <ele>395.6</ele>
        <time>2021-10-06T08:34:13Z</time>
      </trkpt>
      <trkpt lat="42.9202870" lon="-8.2372030">
        <ele>395.0</ele>
        <time>2021-10-06T08:34:16Z</time>
      </trkpt>
      <trkpt lat="42.9202280" lon="-8.2372660">
        <ele>394.6</ele>
        <time>2021-10-06T08:34:17Z</time>
      </trkpt>
      <trkpt lat="42.9200440" lon="-8.2374230">
        <ele>393.2</ele>
        <time>2021-10-06T08:34:20Z</time>
      </trkpt>
      <trkpt lat="42.9199930" lon="-8.2374640">
        <ele>392.6</ele>
        <time>2021-10-06T08:34:21Z</time>
      </trkpt>
      <trkpt lat="42.9199520" lon="-8.2375110">
        <ele>392.0</ele>
        <time>2021-10-06T08:34:22Z</time>
      </trkpt>
      <trkpt lat="42.9198900" lon="-8.2376220">
        <ele>390.8</ele>
        <time>2021-10-06T08:34:24Z</time>
      </trkpt>
      <trkpt lat="42.9198670" lon="-8.2376830">
        <ele>390.0</ele>
        <time>2021-10-06T08:34:25Z</time>
      </trkpt>
      <trkpt lat="42.9198450" lon="-8.2377440">
        <ele>389.4</ele>
        <time>2021-10-06T08:34:26Z</time>
      </trkpt>
      <trkpt lat="42.9198190" lon="-8.2378060">
        <ele>389.0</ele>
        <time>2021-10-06T08:34:27Z</time>
      </trkpt>
      <trkpt lat="42.9197610" lon="-8.2379540">
        <ele>388.4</ele>
        <time>2021-10-06T08:34:29Z</time>
      </trkpt>
      <trkpt lat="42.9196120" lon="-8.2382920">
        <ele>387.4</ele>
        <time>2021-10-06T08:34:34Z</time>
      </trkpt>
      <trkpt lat="42.9195470" lon="-8.2384300">
        <ele>386.8</ele>
        <time>2021-10-06T08:34:36Z</time>
      </trkpt>
      <trkpt lat="42.9193320" lon="-8.2389600">
        <ele>386.4</ele>
        <time>2021-10-06T08:34:45Z</time>
      </trkpt>
      <trkpt lat="42.9192820" lon="-8.2390570">
        <ele>386.4</ele>
        <time>2021-10-06T08:34:47Z</time>
      </trkpt>
      <trkpt lat="42.9192320" lon="-8.2391660">
        <ele>386.2</ele>
        <time>2021-10-06T08:34:49Z</time>
      </trkpt>
      <trkpt lat="42.9190830" lon="-8.2394590">
        <ele>386.0</ele>
        <time>2021-10-06T08:34:56Z</time>
      </trkpt>
      <trkpt lat="42.9190400" lon="-8.2395560">
        <ele>385.4</ele>
        <time>2021-10-06T08:34:58Z</time>
      </trkpt>
      <trkpt lat="42.9189670" lon="-8.2396780">
        <ele>384.6</ele>
        <time>2021-10-06T08:35:00Z</time>
      </trkpt>
      <trkpt lat="42.9188490" lon="-8.2398350">
        <ele>383.6</ele>
        <time>2021-10-06T08:35:02Z</time>
      </trkpt>
      <trkpt lat="42.9186930" lon="-8.2400230">
        <ele>382.4</ele>
        <time>2021-10-06T08:35:05Z</time>
      </trkpt>
      <trkpt lat="42.9185940" lon="-8.2401440">
        <ele>381.2</ele>
        <time>2021-10-06T08:35:07Z</time>
      </trkpt>
      <trkpt lat="42.9185550" lon="-8.2401880">
        <ele>380.0</ele>
        <time>2021-10-06T08:35:08Z</time>
      </trkpt>
      <trkpt lat="42.9184740" lon="-8.2402560">
        <ele>378.4</ele>
        <time>2021-10-06T08:35:10Z</time>
      </trkpt>
      <trkpt lat="42.9183800" lon="-8.2403270">
        <ele>376.8</ele>
        <time>2021-10-06T08:35:12Z</time>
      </trkpt>
      <trkpt lat="42.9183400" lon="-8.2403670">
        <ele>376.2</ele>
        <time>2021-10-06T08:35:13Z</time>
      </trkpt>
      <trkpt lat="42.9183020" lon="-8.2404060">
        <ele>375.6</ele>
        <time>2021-10-06T08:35:14Z</time>
      </trkpt>
      <trkpt lat="42.9182690" lon="-8.2404470">
        <ele>375.2</ele>
        <time>2021-10-06T08:35:15Z</time>
      </trkpt>
      <trkpt lat="42.9182050" lon="-8.2405600">
        <ele>374.6</ele>
        <time>2021-10-06T08:35:17Z</time>
      </trkpt>
      <trkpt lat="42.9181240" lon="-8.2407440">
        <ele>373.4</ele>
        <time>2021-10-06T08:35:20Z</time>
      </trkpt>
      <trkpt lat="42.9180140" lon="-8.2410070">
        <ele>372.4</ele>
        <time>2021-10-06T08:35:24Z</time>
      </trkpt>
      <trkpt lat="42.9179130" lon="-8.2412330">
        <ele>371.2</ele>
        <time>2021-10-06T08:35:27Z</time>
      </trkpt>
      <trkpt lat="42.9177830" lon="-8.2414730">
        <ele>369.8</ele>
        <time>2021-10-06T08:35:30Z</time>
      </trkpt>
      <trkpt lat="42.9177030" lon="-8.2416140">
        <ele>368.8</ele>
        <time>2021-10-06T08:35:32Z</time>
      </trkpt>
      <trkpt lat="42.9176800" lon="-8.2417210">
        <ele>367.6</ele>
        <time>2021-10-06T08:35:34Z</time>
      </trkpt>
      <trkpt lat="42.9177260" lon="-8.2417910">
        <ele>366.0</ele>
        <time>2021-10-06T08:35:36Z</time>
      </trkpt>
      <trkpt lat="42.9178670" lon="-8.2420880">
        <ele>364.8</ele>
        <time>2021-10-06T08:35:44Z</time>
      </trkpt>
      <trkpt lat="42.9179050" lon="-8.2423460">
        <ele>363.6</ele>
        <time>2021-10-06T08:35:50Z</time>
      </trkpt>
      <trkpt lat="42.9179420" lon="-8.2424360">
        <ele>363.2</ele>
        <time>2021-10-06T08:35:52Z</time>
      </trkpt>
      <trkpt lat="42.9179960" lon="-8.2425790">
        <ele>362.6</ele>
        <time>2021-10-06T08:35:55Z</time>
      </trkpt>
      <trkpt lat="42.9180460" lon="-8.2427500">
        <ele>361.4</ele>
        <time>2021-10-06T08:35:58Z</time>
      </trkpt>
      <trkpt lat="42.9180910" lon="-8.2428600">
        <ele>361.0</ele>
        <time>2021-10-06T08:36:00Z</time>
      </trkpt>
      <trkpt lat="42.9181840" lon="-8.2430160">
        <ele>360.0</ele>
        <time>2021-10-06T08:36:03Z</time>
      </trkpt>
      <trkpt lat="42.9182150" lon="-8.2430730">
        <ele>359.8</ele>
        <time>2021-10-06T08:36:04Z</time>
      </trkpt>
      <trkpt lat="42.9182500" lon="-8.2431730">
        <ele>359.0</ele>
        <time>2021-10-06T08:36:06Z</time>
      </trkpt>
      <trkpt lat="42.9182560" lon="-8.2432260">
        <ele>358.0</ele>
        <time>2021-10-06T08:36:08Z</time>
      </trkpt>
      <trkpt lat="42.9182550" lon="-8.2432440">
        <ele>357.6</ele>
        <time>2021-10-06T08:36:09Z</time>
      </trkpt>
      <trkpt lat="42.9182550" lon="-8.2432840">
        <ele>356.0</ele>
        <time>2021-10-06T08:36:11Z</time>
      </trkpt>
      <trkpt lat="42.9182580" lon="-8.2433210">
        <ele>355.4</ele>
        <time>2021-10-06T08:36:14Z</time>
      </trkpt>
      <trkpt lat="42.9181830" lon="-8.2433930">
        <ele>354.6</ele>
        <time>2021-10-06T08:37:35Z</time>
      </trkpt>
      <trkpt lat="42.9181170" lon="-8.2434230">
        <ele>354.6</ele>
        <time>2021-10-06T08:37:38Z</time>
      </trkpt>
      <trkpt lat="42.9179920" lon="-8.2434730">
        <ele>354.6</ele>
        <time>2021-10-06T08:37:43Z</time>
      </trkpt>
      <trkpt lat="42.9179750" lon="-8.2436230">
        <ele>354.6</ele>
        <time>2021-10-06T08:37:49Z</time>
      </trkpt>
      <trkpt lat="42.9179980" lon="-8.2439820">
        <ele>353.4</ele>
        <time>2021-10-06T08:37:57Z</time>
      </trkpt>
      <trkpt lat="42.9179940" lon="-8.2440820">
        <ele>352.4</ele>
        <time>2021-10-06T08:37:59Z</time>
      </trkpt>
      <trkpt lat="42.9179920" lon="-8.2441280">
        <ele>352.0</ele>
        <time>2021-10-06T08:38:00Z</time>
      </trkpt>
      <trkpt lat="42.9179790" lon="-8.2443700">
        <ele>351.4</ele>
        <time>2021-10-06T08:38:08Z</time>
      </trkpt>
      <trkpt lat="42.9179370" lon="-8.2444430">
        <ele>351.4</ele>
        <time>2021-10-06T08:38:12Z</time>
      </trkpt>
      <trkpt lat="42.9179280" lon="-8.2444700">
        <ele>351.6</ele>
        <time>2021-10-06T08:38:13Z</time>
      </trkpt>
      <trkpt lat="42.9178690" lon="-8.2446580">
        <ele>351.8</ele>
        <time>2021-10-06T08:38:18Z</time>
      </trkpt>
      <trkpt lat="42.9178390" lon="-8.2448860">
        <ele>352.0</ele>
        <time>2021-10-06T08:38:25Z</time>
      </trkpt>
      <trkpt lat="42.9178460" lon="-8.2449590">
        <ele>352.0</ele>
        <time>2021-10-06T08:38:27Z</time>
      </trkpt>
      <trkpt lat="42.9178430" lon="-8.2451100">
        <ele>352.4</ele>
        <time>2021-10-06T08:38:30Z</time>
      </trkpt>
      <trkpt lat="42.9178210" lon="-8.2452190">
        <ele>352.8</ele>
        <time>2021-10-06T08:38:32Z</time>
      </trkpt>
      <trkpt lat="42.9178060" lon="-8.2453150">
        <ele>352.8</ele>
        <time>2021-10-06T08:38:34Z</time>
      </trkpt>
      <trkpt lat="42.9178010" lon="-8.2453600">
        <ele>353.0</ele>
        <time>2021-10-06T08:38:35Z</time>
      </trkpt>
      <trkpt lat="42.9178000" lon="-8.2454450">
        <ele>353.4</ele>
        <time>2021-10-06T08:38:37Z</time>
      </trkpt>
      <trkpt lat="42.9177930" lon="-8.2455770">
        <ele>353.8</ele>
        <time>2021-10-06T08:38:40Z</time>
      </trkpt>
      <trkpt lat="42.9177890" lon="-8.2456620">
        <ele>354.2</ele>
        <time>2021-10-06T08:38:42Z</time>
      </trkpt>
      <trkpt lat="42.9177940" lon="-8.2457420">
        <ele>354.8</ele>
        <time>2021-10-06T08:38:44Z</time>
      </trkpt>
      <trkpt lat="42.9178500" lon="-8.2458890">
        <ele>355.4</ele>
        <time>2021-10-06T08:38:48Z</time>
      </trkpt>
      <trkpt lat="42.9179600" lon="-8.2462120">
        <ele>356.4</ele>
        <time>2021-10-06T08:38:55Z</time>
      </trkpt>
      <trkpt lat="42.9180130" lon="-8.2465410">
        <ele>357.0</ele>
        <time>2021-10-06T08:39:02Z</time>
      </trkpt>
      <trkpt lat="42.9180330" lon="-8.2466850">
        <ele>357.6</ele>
        <time>2021-10-06T08:39:05Z</time>
      </trkpt>
      <trkpt lat="42.9180820" lon="-8.2470230">
        <ele>358.6</ele>
        <time>2021-10-06T08:39:13Z</time>
      </trkpt>
      <trkpt lat="42.9181790" lon="-8.2476010">
        <ele>359.8</ele>
        <time>2021-10-06T08:39:26Z</time>
      </trkpt>
      <trkpt lat="42.9182110" lon="-8.2478310">
        <ele>361.0</ele>
        <time>2021-10-06T08:39:31Z</time>
      </trkpt>
      <trkpt lat="42.9182380" lon="-8.2479860">
        <ele>362.2</ele>
        <time>2021-10-06T08:39:35Z</time>
      </trkpt>
      <trkpt lat="42.9182620" lon="-8.2481140">
        <ele>363.4</ele>
        <time>2021-10-06T08:39:38Z</time>
      </trkpt>
      <trkpt lat="42.9182970" lon="-8.2482920">
        <ele>364.4</ele>
        <time>2021-10-06T08:39:42Z</time>
      </trkpt>
      <trkpt lat="42.9183230" lon="-8.2484540">
        <ele>364.8</ele>
        <time>2021-10-06T08:39:46Z</time>
      </trkpt>
      <trkpt lat="42.9183930" lon="-8.2487400">
        <ele>365.6</ele>
        <time>2021-10-06T08:39:53Z</time>
      </trkpt>
      <trkpt lat="42.9184350" lon="-8.2489440">
        <ele>366.2</ele>
        <time>2021-10-06T08:39:59Z</time>
      </trkpt>
      <trkpt lat="42.9184490" lon="-8.2490780">
        <ele>366.8</ele>
        <time>2021-10-06T08:40:03Z</time>
      </trkpt>
      <trkpt lat="42.9185070" lon="-8.2493350">
        <ele>367.8</ele>
        <time>2021-10-06T08:40:09Z</time>
      </trkpt>
      <trkpt lat="42.9185370" lon="-8.2495310">
        <ele>368.6</ele>
        <time>2021-10-06T08:40:14Z</time>
      </trkpt>
      <trkpt lat="42.9185490" lon="-8.2496070">
        <ele>368.8</ele>
        <time>2021-10-06T08:40:16Z</time>
      </trkpt>
      <trkpt lat="42.9185920" lon="-8.2498570">
        <ele>369.8</ele>
        <time>2021-10-06T08:40:23Z</time>
      </trkpt>
      <trkpt lat="42.9186440" lon="-8.2500790">
        <ele>370.8</ele>
        <time>2021-10-06T08:40:30Z</time>
      </trkpt>
      <trkpt lat="42.9186510" lon="-8.2501060">
        <ele>371.0</ele>
        <time>2021-10-06T08:40:31Z</time>
      </trkpt>
      <trkpt lat="42.9186650" lon="-8.2501780">
        <ele>371.4</ele>
        <time>2021-10-06T08:40:34Z</time>
      </trkpt>
      <trkpt lat="42.9186770" lon="-8.2502310">
        <ele>371.4</ele>
        <time>2021-10-06T08:40:36Z</time>
      </trkpt>
      <trkpt lat="42.9187150" lon="-8.2503710">
        <ele>372.0</ele>
        <time>2021-10-06T08:40:41Z</time>
      </trkpt>
      <trkpt lat="42.9187220" lon="-8.2504060">
        <ele>372.2</ele>
        <time>2021-10-06T08:40:42Z</time>
      </trkpt>
      <trkpt lat="42.9187330" lon="-8.2504700">
        <ele>372.4</ele>
        <time>2021-10-06T08:40:44Z</time>
      </trkpt>
      <trkpt lat="42.9187390" lon="-8.2505960">
        <ele>373.0</ele>
        <time>2021-10-06T08:40:48Z</time>
      </trkpt>
      <trkpt lat="42.9187420" lon="-8.2506610">
        <ele>373.2</ele>
        <time>2021-10-06T08:40:50Z</time>
      </trkpt>
      <trkpt lat="42.9187660" lon="-8.2508390">
        <ele>374.4</ele>
        <time>2021-10-06T08:40:56Z</time>
      </trkpt>
      <trkpt lat="42.9188210" lon="-8.2510380">
        <ele>375.0</ele>
        <time>2021-10-06T08:41:02Z</time>
      </trkpt>
      <trkpt lat="42.9188650" lon="-8.2511410">
        <ele>375.4</ele>
        <time>2021-10-06T08:41:05Z</time>
      </trkpt>
      <trkpt lat="42.9189030" lon="-8.2512340">
        <ele>375.8</ele>
        <time>2021-10-06T08:41:08Z</time>
      </trkpt>
      <trkpt lat="42.9189140" lon="-8.2512700">
        <ele>376.0</ele>
        <time>2021-10-06T08:41:09Z</time>
      </trkpt>
      <trkpt lat="42.9189410" lon="-8.2513390">
        <ele>376.6</ele>
        <time>2021-10-06T08:41:11Z</time>
      </trkpt>
      <trkpt lat="42.9189950" lon="-8.2515340">
        <ele>377.8</ele>
        <time>2021-10-06T08:41:16Z</time>
      </trkpt>
      <trkpt lat="42.9190810" lon="-8.2517180">
        <ele>379.0</ele>
        <time>2021-10-06T08:41:22Z</time>
      </trkpt>
      <trkpt lat="42.9192120" lon="-8.2518460">
        <ele>380.2</ele>
        <time>2021-10-06T08:41:27Z</time>
      </trkpt>
      <trkpt lat="42.9193560" lon="-8.2521480">
        <ele>381.2</ele>
        <time>2021-10-06T08:41:35Z</time>
      </trkpt>
      <trkpt lat="42.9194620" lon="-8.2523460">
        <ele>382.4</ele>
        <time>2021-10-06T08:41:41Z</time>
      </trkpt>
      <trkpt lat="42.9195630" lon="-8.2525320">
        <ele>383.4</ele>
        <time>2021-10-06T08:41:47Z</time>
      </trkpt>
      <trkpt lat="42.9197260" lon="-8.2527640">
        <ele>384.6</ele>
        <time>2021-10-06T08:41:56Z</time>
      </trkpt>
      <trkpt lat="42.9197470" lon="-8.2527780">
        <ele>384.8</ele>
        <time>2021-10-06T08:41:57Z</time>
      </trkpt>
      <trkpt lat="42.9198700" lon="-8.2528610">
        <ele>386.0</ele>
        <time>2021-10-06T08:42:02Z</time>
      </trkpt>
      <trkpt lat="42.9200030" lon="-8.2529970">
        <ele>387.0</ele>
        <time>2021-10-06T08:42:08Z</time>
      </trkpt>
      <trkpt lat="42.9201400" lon="-8.2530690">
        <ele>388.2</ele>
        <time>2021-10-06T08:42:14Z</time>
      </trkpt>
      <trkpt lat="42.9202170" lon="-8.2530970">
        <ele>388.6</ele>
        <time>2021-10-06T08:42:17Z</time>
      </trkpt>
      <trkpt lat="42.9203970" lon="-8.2532360">
        <ele>389.0</ele>
        <time>2021-10-06T08:42:24Z</time>
      </trkpt>
      <trkpt lat="42.9204740" lon="-8.2533050">
        <ele>389.2</ele>
        <time>2021-10-06T08:42:27Z</time>
      </trkpt>
      <trkpt lat="42.9204960" lon="-8.2533260">
        <ele>389.4</ele>
        <time>2021-10-06T08:42:28Z</time>
      </trkpt>
      <trkpt lat="42.9205190" lon="-8.2533440">
        <ele>389.8</ele>
        <time>2021-10-06T08:42:30Z</time>
      </trkpt>
      <trkpt lat="42.9205470" lon="-8.2533710">
        <ele>390.4</ele>
        <time>2021-10-06T08:43:20Z</time>
      </trkpt>
      <trkpt lat="42.9205660" lon="-8.2533880">
        <ele>390.4</ele>
        <time>2021-10-06T08:43:21Z</time>
      </trkpt>
      <trkpt lat="42.9206400" lon="-8.2534610">
        <ele>390.4</ele>
        <time>2021-10-06T08:43:24Z</time>
      </trkpt>
      <trkpt lat="42.9207320" lon="-8.2535750">
        <ele>390.4</ele>
        <time>2021-10-06T08:43:28Z</time>
      </trkpt>
      <trkpt lat="42.9209700" lon="-8.2538820">
        <ele>390.6</ele>
        <time>2021-10-06T08:43:38Z</time>
      </trkpt>
      <trkpt lat="42.9210350" lon="-8.2539640">
        <ele>390.8</ele>
        <time>2021-10-06T08:43:40Z</time>
      </trkpt>
      <trkpt lat="42.9210920" lon="-8.2540770">
        <ele>391.0</ele>
        <time>2021-10-06T08:43:42Z</time>
      </trkpt>
      <trkpt lat="42.9211360" lon="-8.2542190">
        <ele>391.2</ele>
        <time>2021-10-06T08:43:44Z</time>
      </trkpt>
      <trkpt lat="42.9211860" lon="-8.2543640">
        <ele>391.2</ele>
        <time>2021-10-06T08:43:46Z</time>
      </trkpt>
      <trkpt lat="42.9212130" lon="-8.2544310">
        <ele>391.4</ele>
        <time>2021-10-06T08:43:47Z</time>
      </trkpt>
      <trkpt lat="42.9212670" lon="-8.2545530">
        <ele>391.4</ele>
        <time>2021-10-06T08:43:49Z</time>
      </trkpt>
      <trkpt lat="42.9213520" lon="-8.2547320">
        <ele>391.6</ele>
        <time>2021-10-06T08:43:52Z</time>
      </trkpt>
      <trkpt lat="42.9214080" lon="-8.2548510">
        <ele>392.4</ele>
        <time>2021-10-06T08:43:54Z</time>
      </trkpt>
      <trkpt lat="42.9214520" lon="-8.2549600">
        <ele>392.8</ele>
        <time>2021-10-06T08:43:56Z</time>
      </trkpt>
      <trkpt lat="42.9215070" lon="-8.2551080">
        <ele>394.0</ele>
        <time>2021-10-06T08:43:59Z</time>
      </trkpt>
      <trkpt lat="42.9215540" lon="-8.2552300">
        <ele>395.0</ele>
        <time>2021-10-06T08:44:02Z</time>
      </trkpt>
      <trkpt lat="42.9216250" lon="-8.2553750">
        <ele>396.2</ele>
        <time>2021-10-06T08:44:06Z</time>
      </trkpt>
      <trkpt lat="42.9216430" lon="-8.2554320">
        <ele>396.4</ele>
        <time>2021-10-06T08:44:07Z</time>
      </trkpt>
      <trkpt lat="42.9217610" lon="-8.2557970">
        <ele>397.0</ele>
        <time>2021-10-06T08:44:13Z</time>
      </trkpt>
      <trkpt lat="42.9219730" lon="-8.2562560">
        <ele>396.4</ele>
        <time>2021-10-06T08:44:19Z</time>
      </trkpt>
      <trkpt lat="42.9221060" lon="-8.2564780">
        <ele>395.2</ele>
        <time>2021-10-06T08:44:22Z</time>
      </trkpt>
      <trkpt lat="42.9221790" lon="-8.2566200">
        <ele>393.8</ele>
        <time>2021-10-06T08:44:24Z</time>
      </trkpt>
      <trkpt lat="42.9222380" lon="-8.2567430">
        <ele>392.6</ele>
        <time>2021-10-06T08:44:26Z</time>
      </trkpt>
      <trkpt lat="42.9222850" lon="-8.2568740">
        <ele>391.8</ele>
        <time>2021-10-06T08:44:28Z</time>
      </trkpt>
      <trkpt lat="42.9223040" lon="-8.2569460">
        <ele>391.6</ele>
        <time>2021-10-06T08:44:29Z</time>
      </trkpt>
      <trkpt lat="42.9223720" lon="-8.2572730">
        <ele>391.4</ele>
        <time>2021-10-06T08:44:33Z</time>
      </trkpt>
      <trkpt lat="42.9224580" lon="-8.2579990">
        <ele>391.8</ele>
        <time>2021-10-06T08:44:43Z</time>
      </trkpt>
      <trkpt lat="42.9224580" lon="-8.2580690">
        <ele>391.8</ele>
        <time>2021-10-06T08:44:44Z</time>
      </trkpt>
      <trkpt lat="42.9224560" lon="-8.2585960">
        <ele>392.2</ele>
        <time>2021-10-06T08:44:52Z</time>
      </trkpt>
      <trkpt lat="42.9224580" lon="-8.2587130">
        <ele>392.6</ele>
        <time>2021-10-06T08:44:54Z</time>
      </trkpt>
      <trkpt lat="42.9224430" lon="-8.2587640">
        <ele>393.0</ele>
        <time>2021-10-06T08:44:55Z</time>
      </trkpt>
      <trkpt lat="42.9223350" lon="-8.2591040">
        <ele>393.2</ele>
        <time>2021-10-06T08:45:01Z</time>
      </trkpt>
      <trkpt lat="42.9223360" lon="-8.2592770">
        <ele>393.2</ele>
        <time>2021-10-06T08:45:03Z</time>
      </trkpt>
      <trkpt lat="42.9223100" lon="-8.2597520">
        <ele>392.4</ele>
        <time>2021-10-06T08:45:10Z</time>
      </trkpt>
      <trkpt lat="42.9223010" lon="-8.2598720">
        <ele>392.4</ele>
        <time>2021-10-06T08:45:12Z</time>
      </trkpt>
      <trkpt lat="42.9222950" lon="-8.2599330">
        <ele>392.2</ele>
        <time>2021-10-06T08:45:13Z</time>
      </trkpt>
      <trkpt lat="42.9222900" lon="-8.2599960">
        <ele>392.2</ele>
        <time>2021-10-06T08:45:14Z</time>
      </trkpt>
      <trkpt lat="42.9223000" lon="-8.2600570">
        <ele>392.2</ele>
        <time>2021-10-06T08:45:15Z</time>
      </trkpt>
      <trkpt lat="42.9223400" lon="-8.2602440">
        <ele>391.8</ele>
        <time>2021-10-06T08:45:18Z</time>
      </trkpt>
      <trkpt lat="42.9223500" lon="-8.2603110">
        <ele>391.6</ele>
        <time>2021-10-06T08:45:19Z</time>
      </trkpt>
      <trkpt lat="42.9223750" lon="-8.2604360">
        <ele>391.2</ele>
        <time>2021-10-06T08:45:21Z</time>
      </trkpt>
      <trkpt lat="42.9224140" lon="-8.2606220">
        <ele>390.4</ele>
        <time>2021-10-06T08:45:24Z</time>
      </trkpt>
      <trkpt lat="42.9224850" lon="-8.2610430">
        <ele>389.8</ele>
        <time>2021-10-06T08:45:29Z</time>
      </trkpt>
      <trkpt lat="42.9225030" lon="-8.2611310">
        <ele>389.4</ele>
        <time>2021-10-06T08:45:30Z</time>
      </trkpt>
      <trkpt lat="42.9225140" lon="-8.2612230">
        <ele>389.2</ele>
        <time>2021-10-06T08:45:31Z</time>
      </trkpt>
      <trkpt lat="42.9225590" lon="-8.2615090">
        <ele>388.4</ele>
        <time>2021-10-06T08:45:34Z</time>
      </trkpt>
      <trkpt lat="42.9225850" lon="-8.2615850">
        <ele>387.8</ele>
        <time>2021-10-06T08:45:35Z</time>
      </trkpt>
      <trkpt lat="42.9226800" lon="-8.2617460">
        <ele>386.6</ele>
        <time>2021-10-06T08:45:38Z</time>
      </trkpt>
      <trkpt lat="42.9227000" lon="-8.2617980">
        <ele>386.2</ele>
        <time>2021-10-06T08:45:39Z</time>
      </trkpt>
      <trkpt lat="42.9227230" lon="-8.2618440">
        <ele>385.6</ele>
        <time>2021-10-06T08:45:40Z</time>
      </trkpt>
      <trkpt lat="42.9227600" lon="-8.2619220">
        <ele>385.0</ele>
        <time>2021-10-06T08:45:42Z</time>
      </trkpt>
      <trkpt lat="42.9227900" lon="-8.2619820">
        <ele>384.8</ele>
        <time>2021-10-06T08:45:44Z</time>
      </trkpt>
      <trkpt lat="42.9228140" lon="-8.2620330">
        <ele>384.6</ele>
        <time>2021-10-06T08:45:46Z</time>
      </trkpt>
      <trkpt lat="42.9228850" lon="-8.2622580">
        <ele>383.6</ele>
        <time>2021-10-06T08:45:54Z</time>
      </trkpt>
      <trkpt lat="42.9229020" lon="-8.2623490">
        <ele>383.2</ele>
        <time>2021-10-06T08:45:57Z</time>
      </trkpt>
      <trkpt lat="42.9229250" lon="-8.2624460">
        <ele>382.6</ele>
        <time>2021-10-06T08:45:59Z</time>
      </trkpt>
      <trkpt lat="42.9230450" lon="-8.2628310">
        <ele>381.4</ele>
        <time>2021-10-06T08:46:04Z</time>
      </trkpt>
      <trkpt lat="42.9231110" lon="-8.2630560">
        <ele>380.0</ele>
        <time>2021-10-06T08:46:06Z</time>
      </trkpt>
      <trkpt lat="42.9231620" lon="-8.2632580">
        <ele>379.0</ele>
        <time>2021-10-06T08:46:08Z</time>
      </trkpt>
      <trkpt lat="42.9232230" lon="-8.2635200">
        <ele>377.8</ele>
        <time>2021-10-06T08:46:11Z</time>
      </trkpt>
      <trkpt lat="42.9232810" lon="-8.2637520">
        <ele>377.6</ele>
        <time>2021-10-06T08:46:14Z</time>
      </trkpt>
      <trkpt lat="42.9232940" lon="-8.2638240">
        <ele>377.6</ele>
        <time>2021-10-06T08:46:15Z</time>
      </trkpt>
      <trkpt lat="42.9233830" lon="-8.2642260">
        <ele>377.4</ele>
        <time>2021-10-06T08:46:21Z</time>
      </trkpt>
      <trkpt lat="42.9234110" lon="-8.2643550">
        <ele>377.4</ele>
        <time>2021-10-06T08:46:23Z</time>
      </trkpt>
      <trkpt lat="42.9234460" lon="-8.2644960">
        <ele>377.6</ele>
        <time>2021-10-06T08:46:25Z</time>
      </trkpt>
      <trkpt lat="42.9235080" lon="-8.2647520">
        <ele>378.2</ele>
        <time>2021-10-06T08:46:29Z</time>
      </trkpt>
      <trkpt lat="42.9235350" lon="-8.2648580">
        <ele>378.2</ele>
        <time>2021-10-06T08:46:31Z</time>
      </trkpt>
      <trkpt lat="42.9235850" lon="-8.2649920">
        <ele>378.4</ele>
        <time>2021-10-06T08:46:34Z</time>
      </trkpt>
      <trkpt lat="42.9236250" lon="-8.2651640">
        <ele>379.2</ele>
        <time>2021-10-06T08:46:38Z</time>
      </trkpt>
      <trkpt lat="42.9236230" lon="-8.2652160">
        <ele>379.2</ele>
        <time>2021-10-06T08:46:39Z</time>
      </trkpt>
      <trkpt lat="42.9236030" lon="-8.2657220">
        <ele>379.8</ele>
        <time>2021-10-06T08:46:49Z</time>
      </trkpt>
      <trkpt lat="42.9235830" lon="-8.2658730">
        <ele>380.0</ele>
        <time>2021-10-06T08:46:52Z</time>
      </trkpt>
      <trkpt lat="42.9235440" lon="-8.2660740">
        <ele>380.0</ele>
        <time>2021-10-06T08:46:56Z</time>
      </trkpt>
      <trkpt lat="42.9235430" lon="-8.2661320">
        <ele>380.0</ele>
        <time>2021-10-06T08:46:57Z</time>
      </trkpt>
      <trkpt lat="42.9235400" lon="-8.2662770">
        <ele>380.0</ele>
        <time>2021-10-06T08:46:59Z</time>
      </trkpt>
      <trkpt lat="42.9235280" lon="-8.2664130">
        <ele>380.0</ele>
        <time>2021-10-06T08:47:01Z</time>
      </trkpt>
      <trkpt lat="42.9235230" lon="-8.2665120">
        <ele>380.2</ele>
        <time>2021-10-06T08:47:03Z</time>
      </trkpt>
      <trkpt lat="42.9235240" lon="-8.2666090">
        <ele>380.4</ele>
        <time>2021-10-06T08:47:06Z</time>
      </trkpt>
      <trkpt lat="42.9235420" lon="-8.2667530">
        <ele>381.6</ele>
        <time>2021-10-06T08:47:10Z</time>
      </trkpt>
      <trkpt lat="42.9235700" lon="-8.2669370">
        <ele>382.8</ele>
        <time>2021-10-06T08:47:14Z</time>
      </trkpt>
      <trkpt lat="42.9236270" lon="-8.2671610">
        <ele>383.4</ele>
        <time>2021-10-06T08:47:20Z</time>
      </trkpt>
      <trkpt lat="42.9236610" lon="-8.2672840">
        <ele>384.0</ele>
        <time>2021-10-06T08:47:23Z</time>
      </trkpt>
      <trkpt lat="42.9237330" lon="-8.2674840">
        <ele>384.8</ele>
        <time>2021-10-06T08:47:28Z</time>
      </trkpt>
      <trkpt lat="42.9237500" lon="-8.2675230">
        <ele>385.0</ele>
        <time>2021-10-06T08:47:29Z</time>
      </trkpt>
      <trkpt lat="42.9239020" lon="-8.2677630">
        <ele>386.4</ele>
        <time>2021-10-06T08:47:37Z</time>
      </trkpt>
      <trkpt lat="42.9240480" lon="-8.2679640">
        <ele>387.2</ele>
        <time>2021-10-06T08:47:44Z</time>
      </trkpt>
      <trkpt lat="42.9240650" lon="-8.2679930">
        <ele>387.4</ele>
        <time>2021-10-06T08:47:45Z</time>
      </trkpt>
      <trkpt lat="42.9242280" lon="-8.2681840">
        <ele>388.4</ele>
        <time>2021-10-06T08:47:52Z</time>
      </trkpt>
      <trkpt lat="42.9243290" lon="-8.2682760">
        <ele>388.8</ele>
        <time>2021-10-06T08:47:56Z</time>
      </trkpt>
      <trkpt lat="42.9244230" lon="-8.2683530">
        <ele>389.6</ele>
        <time>2021-10-06T08:48:01Z</time>
      </trkpt>
      <trkpt lat="42.9244970" lon="-8.2684050">
        <ele>390.2</ele>
        <time>2021-10-06T08:48:04Z</time>
      </trkpt>
      <trkpt lat="42.9246200" lon="-8.2685630">
        <ele>390.8</ele>
        <time>2021-10-06T08:48:09Z</time>
      </trkpt>
      <trkpt lat="42.9247490" lon="-8.2688420">
        <ele>391.8</ele>
        <time>2021-10-06T08:48:16Z</time>
      </trkpt>
      <trkpt lat="42.9247650" lon="-8.2688730">
        <ele>392.0</ele>
        <time>2021-10-06T08:48:17Z</time>
      </trkpt>
      <trkpt lat="42.9247930" lon="-8.2689520">
        <ele>392.2</ele>
        <time>2021-10-06T08:48:19Z</time>
      </trkpt>
      <trkpt lat="42.9248250" lon="-8.2690320">
        <ele>392.2</ele>
        <time>2021-10-06T08:48:21Z</time>
      </trkpt>
      <trkpt lat="42.9248550" lon="-8.2691300">
        <ele>392.2</ele>
        <time>2021-10-06T08:48:23Z</time>
      </trkpt>
      <trkpt lat="42.9248970" lon="-8.2693060">
        <ele>392.2</ele>
        <time>2021-10-06T08:48:26Z</time>
      </trkpt>
      <trkpt lat="42.9249570" lon="-8.2696160">
        <ele>391.2</ele>
        <time>2021-10-06T08:48:31Z</time>
      </trkpt>
      <trkpt lat="42.9249730" lon="-8.2697320">
        <ele>390.8</ele>
        <time>2021-10-06T08:48:33Z</time>
      </trkpt>
      <trkpt lat="42.9250000" lon="-8.2698720">
        <ele>390.0</ele>
        <time>2021-10-06T08:48:36Z</time>
      </trkpt>
      <trkpt lat="42.9250090" lon="-8.2699200">
        <ele>389.8</ele>
        <time>2021-10-06T08:48:37Z</time>
      </trkpt>
      <trkpt lat="42.9250430" lon="-8.2700210">
        <ele>389.8</ele>
        <time>2021-10-06T08:48:40Z</time>
      </trkpt>
      <trkpt lat="42.9251950" lon="-8.2704180">
        <ele>389.6</ele>
        <time>2021-10-06T08:48:48Z</time>
      </trkpt>
      <trkpt lat="42.9252300" lon="-8.2706180">
        <ele>389.2</ele>
        <time>2021-10-06T08:48:51Z</time>
      </trkpt>
      <trkpt lat="42.9252490" lon="-8.2707570">
        <ele>389.2</ele>
        <time>2021-10-06T08:48:53Z</time>
      </trkpt>
      <trkpt lat="42.9252700" lon="-8.2708880">
        <ele>389.0</ele>
        <time>2021-10-06T08:48:55Z</time>
      </trkpt>
      <trkpt lat="42.9253390" lon="-8.2712820">
        <ele>388.4</ele>
        <time>2021-10-06T08:49:01Z</time>
      </trkpt>
      <trkpt lat="42.9254330" lon="-8.2717670">
        <ele>388.8</ele>
        <time>2021-10-06T08:49:09Z</time>
      </trkpt>
      <trkpt lat="42.9254420" lon="-8.2718950">
        <ele>388.8</ele>
        <time>2021-10-06T08:49:11Z</time>
      </trkpt>
      <trkpt lat="42.9254460" lon="-8.2719640">
        <ele>388.8</ele>
        <time>2021-10-06T08:49:12Z</time>
      </trkpt>
      <trkpt lat="42.9254590" lon="-8.2722580">
        <ele>389.2</ele>
        <time>2021-10-06T08:49:16Z</time>
      </trkpt>
      <trkpt lat="42.9255110" lon="-8.2725350">
        <ele>389.4</ele>
        <time>2021-10-06T08:49:20Z</time>
      </trkpt>
      <trkpt lat="42.9255550" lon="-8.2727740">
        <ele>389.4</ele>
        <time>2021-10-06T08:49:23Z</time>
      </trkpt>
      <trkpt lat="42.9256330" lon="-8.2731760">
        <ele>388.8</ele>
        <time>2021-10-06T08:49:28Z</time>
      </trkpt>
      <trkpt lat="42.9256870" lon="-8.2734370">
        <ele>388.0</ele>
        <time>2021-10-06T08:49:31Z</time>
      </trkpt>
      <trkpt lat="42.9257090" lon="-8.2735190">
        <ele>387.8</ele>
        <time>2021-10-06T08:49:32Z</time>
      </trkpt>
      <trkpt lat="42.9258130" lon="-8.2737860">
        <ele>387.0</ele>
        <time>2021-10-06T08:49:36Z</time>
      </trkpt>
      <trkpt lat="42.9258500" lon="-8.2738500">
        <ele>386.8</ele>
        <time>2021-10-06T08:49:37Z</time>
      </trkpt>
      <trkpt lat="42.9259230" lon="-8.2739650">
        <ele>386.6</ele>
        <time>2021-10-06T08:49:39Z</time>
      </trkpt>
      <trkpt lat="42.9260240" lon="-8.2740710">
        <ele>386.6</ele>
        <time>2021-10-06T08:49:42Z</time>
      </trkpt>
      <trkpt lat="42.9260600" lon="-8.2741170">
        <ele>386.6</ele>
        <time>2021-10-06T08:49:43Z</time>
      </trkpt>
      <trkpt lat="42.9260940" lon="-8.2741760">
        <ele>386.6</ele>
        <time>2021-10-06T08:49:44Z</time>
      </trkpt>
      <trkpt lat="42.9261220" lon="-8.2742410">
        <ele>386.6</ele>
        <time>2021-10-06T08:49:45Z</time>
      </trkpt>
      <trkpt lat="42.9261610" lon="-8.2743690">
        <ele>386.4</ele>
        <time>2021-10-06T08:49:47Z</time>
      </trkpt>
      <trkpt lat="42.9263420" lon="-8.2749990">
        <ele>386.0</ele>
        <time>2021-10-06T08:49:55Z</time>
      </trkpt>
      <trkpt lat="42.9263870" lon="-8.2751440">
        <ele>385.4</ele>
        <time>2021-10-06T08:49:57Z</time>
      </trkpt>
      <trkpt lat="42.9264560" lon="-8.2754660">
        <ele>385.0</ele>
        <time>2021-10-06T08:50:01Z</time>
      </trkpt>
      <trkpt lat="42.9264610" lon="-8.2755480">
        <ele>385.0</ele>
        <time>2021-10-06T08:50:02Z</time>
      </trkpt>
      <trkpt lat="42.9265150" lon="-8.2763390">
        <ele>384.0</ele>
        <time>2021-10-06T08:50:12Z</time>
      </trkpt>
      <trkpt lat="42.9265190" lon="-8.2765240">
        <ele>384.0</ele>
        <time>2021-10-06T08:50:14Z</time>
      </trkpt>
      <trkpt lat="42.9265160" lon="-8.2767960">
        <ele>383.6</ele>
        <time>2021-10-06T08:50:17Z</time>
      </trkpt>
      <trkpt lat="42.9264730" lon="-8.2770480">
        <ele>383.4</ele>
        <time>2021-10-06T08:50:20Z</time>
      </trkpt>
      <trkpt lat="42.9264310" lon="-8.2772850">
        <ele>382.8</ele>
        <time>2021-10-06T08:50:23Z</time>
      </trkpt>
      <trkpt lat="42.9264060" lon="-8.2774440">
        <ele>381.8</ele>
        <time>2021-10-06T08:50:26Z</time>
      </trkpt>
      <trkpt lat="42.9263220" lon="-8.2775920">
        <ele>381.0</ele>
        <time>2021-10-06T08:50:30Z</time>
      </trkpt>
      <trkpt lat="42.9263250" lon="-8.2777600">
        <ele>380.8</ele>
        <time>2021-10-06T08:50:33Z</time>
      </trkpt>
      <trkpt lat="42.9263440" lon="-8.2779910">
        <ele>380.4</ele>
        <time>2021-10-06T08:50:37Z</time>
      </trkpt>
      <trkpt lat="42.9263640" lon="-8.2782740">
        <ele>380.2</ele>
        <time>2021-10-06T08:50:41Z</time>
      </trkpt>
      <trkpt lat="42.9263650" lon="-8.2783490">
        <ele>380.0</ele>
        <time>2021-10-06T08:50:42Z</time>
      </trkpt>
      <trkpt lat="42.9263570" lon="-8.2785680">
        <ele>379.8</ele>
        <time>2021-10-06T08:50:45Z</time>
      </trkpt>
      <trkpt lat="42.9263670" lon="-8.2787180">
        <ele>379.4</ele>
        <time>2021-10-06T08:50:47Z</time>
      </trkpt>
      <trkpt lat="42.9263960" lon="-8.2789470">
        <ele>378.6</ele>
        <time>2021-10-06T08:50:50Z</time>
      </trkpt>
      <trkpt lat="42.9264150" lon="-8.2791830">
        <ele>378.4</ele>
        <time>2021-10-06T08:50:53Z</time>
      </trkpt>
      <trkpt lat="42.9264520" lon="-8.2799870">
        <ele>378.2</ele>
        <time>2021-10-06T08:51:03Z</time>
      </trkpt>
      <trkpt lat="42.9264410" lon="-8.2802930">
        <ele>378.0</ele>
        <time>2021-10-06T08:51:07Z</time>
      </trkpt>
      <trkpt lat="42.9264210" lon="-8.2804430">
        <ele>378.0</ele>
        <time>2021-10-06T08:51:09Z</time>
      </trkpt>
      <trkpt lat="42.9263540" lon="-8.2808280">
        <ele>378.0</ele>
        <time>2021-10-06T08:51:14Z</time>
      </trkpt>
      <trkpt lat="42.9261500" lon="-8.2815210">
        <ele>379.2</ele>
        <time>2021-10-06T08:51:23Z</time>
      </trkpt>
      <trkpt lat="42.9259810" lon="-8.2819490">
        <ele>379.4</ele>
        <time>2021-10-06T08:51:29Z</time>
      </trkpt>
      <trkpt lat="42.9259230" lon="-8.2820870">
        <ele>379.6</ele>
        <time>2021-10-06T08:51:31Z</time>
      </trkpt>
      <trkpt lat="42.9258350" lon="-8.2822810">
        <ele>379.8</ele>
        <time>2021-10-06T08:51:34Z</time>
      </trkpt>
      <trkpt lat="42.9257180" lon="-8.2825090">
        <ele>380.2</ele>
        <time>2021-10-06T08:51:38Z</time>
      </trkpt>
      <trkpt lat="42.9256780" lon="-8.2826900">
        <ele>381.0</ele>
        <time>2021-10-06T08:51:41Z</time>
      </trkpt>
      <trkpt lat="42.9256570" lon="-8.2828120">
        <ele>381.8</ele>
        <time>2021-10-06T08:51:43Z</time>
      </trkpt>
      <trkpt lat="42.9256330" lon="-8.2829280">
        <ele>382.4</ele>
        <time>2021-10-06T08:51:45Z</time>
      </trkpt>
      <trkpt lat="42.9255960" lon="-8.2830840">
        <ele>383.4</ele>
        <time>2021-10-06T08:51:48Z</time>
      </trkpt>
      <trkpt lat="42.9255400" lon="-8.2833420">
        <ele>384.4</ele>
        <time>2021-10-06T08:51:54Z</time>
      </trkpt>
      <trkpt lat="42.9255000" lon="-8.2835170">
        <ele>385.6</ele>
        <time>2021-10-06T08:51:59Z</time>
      </trkpt>
      <trkpt lat="42.9254690" lon="-8.2836790">
        <ele>386.6</ele>
        <time>2021-10-06T08:52:04Z</time>
      </trkpt>
      <trkpt lat="42.9254390" lon="-8.2838370">
        <ele>387.6</ele>
        <time>2021-10-06T08:52:09Z</time>
      </trkpt>
      <trkpt lat="42.9254460" lon="-8.2839360">
        <ele>388.8</ele>
        <time>2021-10-06T08:52:12Z</time>
      </trkpt>
      <trkpt lat="42.9254570" lon="-8.2840480">
        <ele>389.8</ele>
        <time>2021-10-06T08:52:16Z</time>
      </trkpt>
      <trkpt lat="42.9254940" lon="-8.2842080">
        <ele>391.0</ele>
        <time>2021-10-06T08:52:21Z</time>
      </trkpt>
      <trkpt lat="42.9255240" lon="-8.2844690">
        <ele>392.2</ele>
        <time>2021-10-06T08:52:28Z</time>
      </trkpt>
      <trkpt lat="42.9254890" lon="-8.2847290">
        <ele>393.2</ele>
        <time>2021-10-06T08:52:35Z</time>
      </trkpt>
      <trkpt lat="42.9254390" lon="-8.2849880">
        <ele>394.4</ele>
        <time>2021-10-06T08:52:43Z</time>
      </trkpt>
      <trkpt lat="42.9254160" lon="-8.2850840">
        <ele>395.6</ele>
        <time>2021-10-06T08:52:46Z</time>
      </trkpt>
      <trkpt lat="42.9253990" lon="-8.2852170">
        <ele>396.8</ele>
        <time>2021-10-06T08:52:51Z</time>
      </trkpt>
      <trkpt lat="42.9253710" lon="-8.2853510">
        <ele>397.8</ele>
        <time>2021-10-06T08:52:55Z</time>
      </trkpt>
      <trkpt lat="42.9253330" lon="-8.2856060">
        <ele>399.0</ele>
        <time>2021-10-06T08:53:01Z</time>
      </trkpt>
      <trkpt lat="42.9252530" lon="-8.2858810">
        <ele>400.0</ele>
        <time>2021-10-06T08:53:08Z</time>
      </trkpt>
      <trkpt lat="42.9252160" lon="-8.2862340">
        <ele>401.0</ele>
        <time>2021-10-06T08:53:16Z</time>
      </trkpt>
      <trkpt lat="42.9252100" lon="-8.2862800">
        <ele>401.0</ele>
        <time>2021-10-06T08:53:17Z</time>
      </trkpt>
      <trkpt lat="42.9252160" lon="-8.2865130">
        <ele>401.8</ele>
        <time>2021-10-06T08:53:22Z</time>
      </trkpt>
      <trkpt lat="42.9252300" lon="-8.2867020">
        <ele>402.2</ele>
        <time>2021-10-06T08:53:26Z</time>
      </trkpt>
      <trkpt lat="42.9252340" lon="-8.2868890">
        <ele>402.2</ele>
        <time>2021-10-06T08:53:30Z</time>
      </trkpt>
      <trkpt lat="42.9252300" lon="-8.2869750">
        <ele>402.2</ele>
        <time>2021-10-06T08:53:32Z</time>
      </trkpt>
      <trkpt lat="42.9252200" lon="-8.2870520">
        <ele>402.2</ele>
        <time>2021-10-06T08:53:34Z</time>
      </trkpt>
      <trkpt lat="42.9251670" lon="-8.2873370">
        <ele>402.2</ele>
        <time>2021-10-06T08:53:42Z</time>
      </trkpt>
      <trkpt lat="42.9251270" lon="-8.2874620">
        <ele>402.2</ele>
        <time>2021-10-06T08:53:45Z</time>
      </trkpt>
      <trkpt lat="42.9251010" lon="-8.2875840">
        <ele>402.2</ele>
        <time>2021-10-06T08:53:48Z</time>
      </trkpt>
      <trkpt lat="42.9250930" lon="-8.2876390">
        <ele>402.2</ele>
        <time>2021-10-06T08:53:50Z</time>
      </trkpt>
      <trkpt lat="42.9249400" lon="-8.2882220">
        <ele>402.2</ele>
        <time>2021-10-06T08:54:03Z</time>
      </trkpt>
      <trkpt lat="42.9248580" lon="-8.2885360">
        <ele>402.4</ele>
        <time>2021-10-06T08:54:11Z</time>
      </trkpt>
      <trkpt lat="42.9248260" lon="-8.2886130">
        <ele>402.4</ele>
        <time>2021-10-06T08:54:13Z</time>
      </trkpt>
      <trkpt lat="42.9245060" lon="-8.2892660">
        <ele>402.4</ele>
        <time>2021-10-06T08:54:24Z</time>
      </trkpt>
      <trkpt lat="42.9243850" lon="-8.2896730">
        <ele>402.6</ele>
        <time>2021-10-06T08:54:31Z</time>
      </trkpt>
      <trkpt lat="42.9242910" lon="-8.2899430">
        <ele>403.0</ele>
        <time>2021-10-06T08:54:36Z</time>
      </trkpt>
      <trkpt lat="42.9241620" lon="-8.2901970">
        <ele>403.8</ele>
        <time>2021-10-06T08:54:42Z</time>
      </trkpt>
      <trkpt lat="42.9241180" lon="-8.2902680">
        <ele>404.2</ele>
        <time>2021-10-06T08:54:44Z</time>
      </trkpt>
      <trkpt lat="42.9240640" lon="-8.2903770">
        <ele>404.6</ele>
        <time>2021-10-06T08:54:47Z</time>
      </trkpt>
      <trkpt lat="42.9239760" lon="-8.2904940">
        <ele>405.2</ele>
        <time>2021-10-06T08:54:51Z</time>
      </trkpt>
      <trkpt lat="42.9237560" lon="-8.2908730">
        <ele>405.4</ele>
        <time>2021-10-06T08:55:02Z</time>
      </trkpt>
      <trkpt lat="42.9235660" lon="-8.2911690">
        <ele>405.4</ele>
        <time>2021-10-06T08:55:11Z</time>
      </trkpt>
      <trkpt lat="42.9234430" lon="-8.2913960">
        <ele>406.0</ele>
        <time>2021-10-06T08:55:19Z</time>
      </trkpt>
      <trkpt lat="42.9234120" lon="-8.2914560">
        <ele>406.4</ele>
        <time>2021-10-06T08:55:21Z</time>
      </trkpt>
      <trkpt lat="42.9233680" lon="-8.2915250">
        <ele>406.8</ele>
        <time>2021-10-06T08:55:24Z</time>
      </trkpt>
      <trkpt lat="42.9233270" lon="-8.2916110">
        <ele>407.4</ele>
        <time>2021-10-06T08:55:27Z</time>
      </trkpt>
      <trkpt lat="42.9233120" lon="-8.2916540">
        <ele>407.6</ele>
        <time>2021-10-06T08:55:28Z</time>
      </trkpt>
      <trkpt lat="42.9232840" lon="-8.2917630">
        <ele>408.0</ele>
        <time>2021-10-06T08:55:31Z</time>
      </trkpt>
      <trkpt lat="42.9232570" lon="-8.2918360">
        <ele>408.6</ele>
        <time>2021-10-06T08:55:33Z</time>
      </trkpt>
      <trkpt lat="42.9232290" lon="-8.2919010">
        <ele>409.0</ele>
        <time>2021-10-06T08:55:35Z</time>
      </trkpt>
      <trkpt lat="42.9232080" lon="-8.2919590">
        <ele>409.8</ele>
        <time>2021-10-06T08:55:37Z</time>
      </trkpt>
      <trkpt lat="42.9231790" lon="-8.2920760">
        <ele>410.8</ele>
        <time>2021-10-06T08:55:40Z</time>
      </trkpt>
      <trkpt lat="42.9231460" lon="-8.2922000">
        <ele>411.6</ele>
        <time>2021-10-06T08:55:43Z</time>
      </trkpt>
      <trkpt lat="42.9231090" lon="-8.2922860">
        <ele>412.0</ele>
        <time>2021-10-06T08:55:45Z</time>
      </trkpt>
      <trkpt lat="42.9230230" lon="-8.2925060">
        <ele>413.0</ele>
        <time>2021-10-06T08:55:51Z</time>
      </trkpt>
      <trkpt lat="42.9229210" lon="-8.2926910">
        <ele>414.0</ele>
        <time>2021-10-06T08:55:57Z</time>
      </trkpt>
      <trkpt lat="42.9228950" lon="-8.2927390">
        <ele>414.2</ele>
        <time>2021-10-06T08:55:59Z</time>
      </trkpt>
      <trkpt lat="42.9228570" lon="-8.2928250">
        <ele>414.6</ele>
        <time>2021-10-06T08:56:04Z</time>
      </trkpt>
      <trkpt lat="42.9228240" lon="-8.2928770">
        <ele>415.0</ele>
        <time>2021-10-06T08:56:07Z</time>
      </trkpt>
      <trkpt lat="42.9227990" lon="-8.2929380">
        <ele>415.2</ele>
        <time>2021-10-06T08:56:09Z</time>
      </trkpt>
      <trkpt lat="42.9226690" lon="-8.2933110">
        <ele>416.4</ele>
        <time>2021-10-06T08:56:19Z</time>
      </trkpt>
      <trkpt lat="42.9226270" lon="-8.2934700">
        <ele>417.4</ele>
        <time>2021-10-06T08:56:25Z</time>
      </trkpt>
      <trkpt lat="42.9226210" lon="-8.2934920">
        <ele>417.6</ele>
        <time>2021-10-06T08:56:27Z</time>
      </trkpt>
      <trkpt lat="42.9225890" lon="-8.2935670">
        <ele>418.4</ele>
        <time>2021-10-06T08:56:32Z</time>
      </trkpt>
      <trkpt lat="42.9225760" lon="-8.2936070">
        <ele>418.4</ele>
        <time>2021-10-06T08:56:33Z</time>
      </trkpt>
      <trkpt lat="42.9224250" lon="-8.2939080">
        <ele>418.6</ele>
        <time>2021-10-06T08:56:42Z</time>
      </trkpt>
      <trkpt lat="42.9222500" lon="-8.2942690">
        <ele>419.0</ele>
        <time>2021-10-06T08:56:54Z</time>
      </trkpt>
      <trkpt lat="42.9221300" lon="-8.2945000">
        <ele>419.2</ele>
        <time>2021-10-06T08:57:00Z</time>
      </trkpt>
      <trkpt lat="42.9220860" lon="-8.2945860">
        <ele>419.2</ele>
        <time>2021-10-06T08:57:02Z</time>
      </trkpt>
      <trkpt lat="42.9220640" lon="-8.2946280">
        <ele>419.2</ele>
        <time>2021-10-06T08:57:03Z</time>
      </trkpt>
      <trkpt lat="42.9220170" lon="-8.2947050">
        <ele>419.2</ele>
        <time>2021-10-06T08:57:05Z</time>
      </trkpt>
      <trkpt lat="42.9218010" lon="-8.2950440">
        <ele>418.4</ele>
        <time>2021-10-06T08:57:12Z</time>
      </trkpt>
      <trkpt lat="42.9217320" lon="-8.2951640">
        <ele>418.0</ele>
        <time>2021-10-06T08:57:14Z</time>
      </trkpt>
      <trkpt lat="42.9216650" lon="-8.2953150">
        <ele>417.4</ele>
        <time>2021-10-06T08:57:16Z</time>
      </trkpt>
      <trkpt lat="42.9215800" lon="-8.2955520">
        <ele>416.4</ele>
        <time>2021-10-06T08:57:19Z</time>
      </trkpt>
      <trkpt lat="42.9215530" lon="-8.2956230">
        <ele>416.0</ele>
        <time>2021-10-06T08:57:20Z</time>
      </trkpt>
      <trkpt lat="42.9214610" lon="-8.2958350">
        <ele>414.8</ele>
        <time>2021-10-06T08:57:23Z</time>
      </trkpt>
      <trkpt lat="42.9214290" lon="-8.2959060">
        <ele>414.4</ele>
        <time>2021-10-06T08:57:24Z</time>
      </trkpt>
      <trkpt lat="42.9213540" lon="-8.2960490">
        <ele>413.8</ele>
        <time>2021-10-06T08:57:26Z</time>
      </trkpt>
      <trkpt lat="42.9212780" lon="-8.2961810">
        <ele>413.4</ele>
        <time>2021-10-06T08:57:28Z</time>
      </trkpt>
      <trkpt lat="42.9211410" lon="-8.2963320">
        <ele>412.8</ele>
        <time>2021-10-06T08:57:31Z</time>
      </trkpt>
      <trkpt lat="42.9210940" lon="-8.2963830">
        <ele>412.4</ele>
        <time>2021-10-06T08:57:32Z</time>
      </trkpt>
      <trkpt lat="42.9210040" lon="-8.2964980">
        <ele>411.4</ele>
        <time>2021-10-06T08:57:34Z</time>
      </trkpt>
      <trkpt lat="42.9208790" lon="-8.2966640">
        <ele>410.4</ele>
        <time>2021-10-06T08:57:37Z</time>
      </trkpt>
      <trkpt lat="42.9207410" lon="-8.2968260">
        <ele>409.6</ele>
        <time>2021-10-06T08:57:40Z</time>
      </trkpt>
      <trkpt lat="42.9206990" lon="-8.2968830">
        <ele>409.4</ele>
        <time>2021-10-06T08:57:41Z</time>
      </trkpt>
      <trkpt lat="42.9205450" lon="-8.2971620">
        <ele>408.4</ele>
        <time>2021-10-06T08:57:45Z</time>
      </trkpt>
      <trkpt lat="42.9204550" lon="-8.2974070">
        <ele>407.2</ele>
        <time>2021-10-06T08:57:48Z</time>
      </trkpt>
      <trkpt lat="42.9204270" lon="-8.2974940">
        <ele>406.6</ele>
        <time>2021-10-06T08:57:49Z</time>
      </trkpt>
      <trkpt lat="42.9203950" lon="-8.2976410">
        <ele>406.2</ele>
        <time>2021-10-06T08:57:51Z</time>
      </trkpt>
      <trkpt lat="42.9203900" lon="-8.2977040">
        <ele>405.8</ele>
        <time>2021-10-06T08:57:52Z</time>
      </trkpt>
      <trkpt lat="42.9203870" lon="-8.2977680">
        <ele>404.2</ele>
        <time>2021-10-06T08:57:53Z</time>
      </trkpt>
      <trkpt lat="42.9203780" lon="-8.2978390">
        <ele>403.6</ele>
        <time>2021-10-06T08:57:54Z</time>
      </trkpt>
      <trkpt lat="42.9203630" lon="-8.2979140">
        <ele>402.8</ele>
        <time>2021-10-06T08:57:55Z</time>
      </trkpt>
      <trkpt lat="42.9203370" lon="-8.2980450">
        <ele>401.4</ele>
        <time>2021-10-06T08:57:57Z</time>
      </trkpt>
      <trkpt lat="42.9202780" lon="-8.2982510">
        <ele>400.0</ele>
        <time>2021-10-06T08:58:01Z</time>
      </trkpt>
      <trkpt lat="42.9202780" lon="-8.2983100">
        <ele>398.8</ele>
        <time>2021-10-06T08:58:02Z</time>
      </trkpt>
      <trkpt lat="42.9202840" lon="-8.2984510">
        <ele>397.4</ele>
        <time>2021-10-06T08:58:04Z</time>
      </trkpt>
      <trkpt lat="42.9202890" lon="-8.2985990">
        <ele>396.8</ele>
        <time>2021-10-06T08:58:06Z</time>
      </trkpt>
      <trkpt lat="42.9202790" lon="-8.2986750">
        <ele>396.6</ele>
        <time>2021-10-06T08:58:07Z</time>
      </trkpt>
      <trkpt lat="42.9202620" lon="-8.2987430">
        <ele>396.2</ele>
        <time>2021-10-06T08:58:08Z</time>
      </trkpt>
      <trkpt lat="42.9202270" lon="-8.2988620">
        <ele>395.0</ele>
        <time>2021-10-06T08:58:10Z</time>
      </trkpt>
      <trkpt lat="42.9202010" lon="-8.2989170">
        <ele>393.8</ele>
        <time>2021-10-06T08:58:11Z</time>
      </trkpt>
      <trkpt lat="42.9201480" lon="-8.2990060">
        <ele>392.0</ele>
        <time>2021-10-06T08:58:13Z</time>
      </trkpt>
      <trkpt lat="42.9200930" lon="-8.2990760">
        <ele>390.8</ele>
        <time>2021-10-06T08:58:15Z</time>
      </trkpt>
      <trkpt lat="42.9200360" lon="-8.2991410">
        <ele>390.4</ele>
        <time>2021-10-06T08:58:17Z</time>
      </trkpt>
      <trkpt lat="42.9199650" lon="-8.2992230">
        <ele>390.2</ele>
        <time>2021-10-06T08:58:19Z</time>
      </trkpt>
      <trkpt lat="42.9198870" lon="-8.2993080">
        <ele>390.0</ele>
        <time>2021-10-06T08:58:21Z</time>
      </trkpt>
      <trkpt lat="42.9197690" lon="-8.2994300">
        <ele>390.0</ele>
        <time>2021-10-06T08:58:24Z</time>
      </trkpt>
      <trkpt lat="42.9197300" lon="-8.2994690">
        <ele>389.8</ele>
        <time>2021-10-06T08:58:25Z</time>
      </trkpt>
      <trkpt lat="42.9196530" lon="-8.2995560">
        <ele>389.8</ele>
        <time>2021-10-06T08:58:27Z</time>
      </trkpt>
      <trkpt lat="42.9194420" lon="-8.2998310">
        <ele>389.6</ele>
        <time>2021-10-06T08:58:33Z</time>
      </trkpt>
      <trkpt lat="42.9193600" lon="-8.2999820">
        <ele>389.6</ele>
        <time>2021-10-06T08:58:36Z</time>
      </trkpt>
      <trkpt lat="42.9193190" lon="-8.3000780">
        <ele>389.8</ele>
        <time>2021-10-06T08:58:38Z</time>
      </trkpt>
      <trkpt lat="42.9192860" lon="-8.3001870">
        <ele>390.0</ele>
        <time>2021-10-06T08:58:40Z</time>
      </trkpt>
      <trkpt lat="42.9192010" lon="-8.3005460">
        <ele>391.0</ele>
        <time>2021-10-06T08:58:46Z</time>
      </trkpt>
      <trkpt lat="42.9189700" lon="-8.3009550">
        <ele>392.0</ele>
        <time>2021-10-06T08:58:56Z</time>
      </trkpt>
      <trkpt lat="42.9188820" lon="-8.3010770">
        <ele>392.2</ele>
        <time>2021-10-06T08:58:59Z</time>
      </trkpt>
      <trkpt lat="42.9188760" lon="-8.3011140">
        <ele>392.2</ele>
        <time>2021-10-06T08:59:00Z</time>
      </trkpt>
      <trkpt lat="42.9189680" lon="-8.3014080">
        <ele>391.8</ele>
        <time>2021-10-06T08:59:07Z</time>
      </trkpt>
      <trkpt lat="42.9189710" lon="-8.3014860">
        <ele>391.8</ele>
        <time>2021-10-06T08:59:09Z</time>
      </trkpt>
      <trkpt lat="42.9189990" lon="-8.3015790">
        <ele>391.8</ele>
        <time>2021-10-06T08:59:12Z</time>
      </trkpt>
      <trkpt lat="42.9190430" lon="-8.3016560">
        <ele>391.8</ele>
        <time>2021-10-06T08:59:15Z</time>
      </trkpt>
      <trkpt lat="42.9190650" lon="-8.3017820">
        <ele>393.2</ele>
        <time>2021-10-06T08:59:19Z</time>
      </trkpt>
      <trkpt lat="42.9190940" lon="-8.3018810">
        <ele>394.4</ele>
        <time>2021-10-06T08:59:22Z</time>
      </trkpt>
      <trkpt lat="42.9191050" lon="-8.3019180">
        <ele>394.6</ele>
        <time>2021-10-06T08:59:23Z</time>
      </trkpt>
      <trkpt lat="42.9191610" lon="-8.3026540">
        <ele>395.8</ele>
        <time>2021-10-06T08:59:38Z</time>
      </trkpt>
      <trkpt lat="42.9192330" lon="-8.3030980">
        <ele>396.8</ele>
        <time>2021-10-06T08:59:46Z</time>
      </trkpt>
      <trkpt lat="42.9192840" lon="-8.3036230">
        <ele>398.2</ele>
        <time>2021-10-06T08:59:55Z</time>
      </trkpt>
      <trkpt lat="42.9192500" lon="-8.3038540">
        <ele>398.6</ele>
        <time>2021-10-06T08:59:59Z</time>
      </trkpt>
      <trkpt lat="42.9192300" lon="-8.3041290">
        <ele>398.8</ele>
        <time>2021-10-06T09:00:03Z</time>
      </trkpt>
      <trkpt lat="42.9192190" lon="-8.3042710">
        <ele>398.8</ele>
        <time>2021-10-06T09:00:05Z</time>
      </trkpt>
      <trkpt lat="42.9192020" lon="-8.3044040">
        <ele>398.8</ele>
        <time>2021-10-06T09:00:07Z</time>
      </trkpt>
      <trkpt lat="42.9191910" lon="-8.3045570">
        <ele>398.6</ele>
        <time>2021-10-06T09:00:09Z</time>
      </trkpt>
      <trkpt lat="42.9191730" lon="-8.3047030">
        <ele>397.6</ele>
        <time>2021-10-06T09:00:11Z</time>
      </trkpt>
      <trkpt lat="42.9191650" lon="-8.3047630">
        <ele>397.4</ele>
        <time>2021-10-06T09:00:12Z</time>
      </trkpt>
      <trkpt lat="42.9191410" lon="-8.3049880">
        <ele>396.2</ele>
        <time>2021-10-06T09:00:16Z</time>
      </trkpt>
      <trkpt lat="42.9190930" lon="-8.3050820">
        <ele>395.8</ele>
        <time>2021-10-06T09:00:18Z</time>
      </trkpt>
      <trkpt lat="42.9190570" lon="-8.3051160">
        <ele>395.6</ele>
        <time>2021-10-06T09:00:19Z</time>
      </trkpt>
      <trkpt lat="42.9189750" lon="-8.3051760">
        <ele>395.4</ele>
        <time>2021-10-06T09:00:21Z</time>
      </trkpt>
      <trkpt lat="42.9189330" lon="-8.3052030">
        <ele>395.2</ele>
        <time>2021-10-06T09:00:22Z</time>
      </trkpt>
      <trkpt lat="42.9188750" lon="-8.3052770">
        <ele>395.0</ele>
        <time>2021-10-06T09:00:24Z</time>
      </trkpt>
      <trkpt lat="42.9189690" lon="-8.3056290">
        <ele>394.0</ele>
        <time>2021-10-06T09:00:31Z</time>
      </trkpt>
      <trkpt lat="42.9190460" lon="-8.3058680">
        <ele>393.0</ele>
        <time>2021-10-06T09:00:35Z</time>
      </trkpt>
      <trkpt lat="42.9190430" lon="-8.3059490">
        <ele>392.6</ele>
        <time>2021-10-06T09:00:36Z</time>
      </trkpt>
      <trkpt lat="42.9190480" lon="-8.3062170">
        <ele>391.6</ele>
        <time>2021-10-06T09:00:39Z</time>
      </trkpt>
      <trkpt lat="42.9190630" lon="-8.3064830">
        <ele>390.4</ele>
        <time>2021-10-06T09:00:42Z</time>
      </trkpt>
      <trkpt lat="42.9190600" lon="-8.3066530">
        <ele>388.2</ele>
        <time>2021-10-06T09:00:44Z</time>
      </trkpt>
      <trkpt lat="42.9190510" lon="-8.3067300">
        <ele>387.4</ele>
        <time>2021-10-06T09:00:45Z</time>
      </trkpt>
      <trkpt lat="42.9190370" lon="-8.3068020">
        <ele>386.4</ele>
        <time>2021-10-06T09:00:46Z</time>
      </trkpt>
      <trkpt lat="42.9189880" lon="-8.3069240">
        <ele>385.0</ele>
        <time>2021-10-06T09:00:48Z</time>
      </trkpt>
      <trkpt lat="42.9189260" lon="-8.3071160">
        <ele>384.0</ele>
        <time>2021-10-06T09:00:52Z</time>
      </trkpt>
      <trkpt lat="42.9188750" lon="-8.3072170">
        <ele>383.8</ele>
        <time>2021-10-06T09:00:54Z</time>
      </trkpt>
      <trkpt lat="42.9188540" lon="-8.3072660">
        <ele>383.8</ele>
        <time>2021-10-06T09:00:55Z</time>
      </trkpt>
      <trkpt lat="42.9187990" lon="-8.3073670">
        <ele>383.8</ele>
        <time>2021-10-06T09:00:57Z</time>
      </trkpt>
      <trkpt lat="42.9187390" lon="-8.3074580">
        <ele>383.8</ele>
        <time>2021-10-06T09:00:59Z</time>
      </trkpt>
      <trkpt lat="42.9185320" lon="-8.3080990">
        <ele>384.0</ele>
        <time>2021-10-06T09:01:12Z</time>
      </trkpt>
      <trkpt lat="42.9184970" lon="-8.3084010">
        <ele>384.2</ele>
        <time>2021-10-06T09:01:17Z</time>
      </trkpt>
      <trkpt lat="42.9185230" lon="-8.3086280">
        <ele>384.4</ele>
        <time>2021-10-06T09:01:21Z</time>
      </trkpt>
      <trkpt lat="42.9185000" lon="-8.3088900">
        <ele>384.6</ele>
        <time>2021-10-06T09:01:26Z</time>
      </trkpt>
      <trkpt lat="42.9184130" lon="-8.3091910">
        <ele>385.0</ele>
        <time>2021-10-06T09:01:32Z</time>
      </trkpt>
      <trkpt lat="42.9184120" lon="-8.3092480">
        <ele>385.0</ele>
        <time>2021-10-06T09:01:33Z</time>
      </trkpt>
      <trkpt lat="42.9184120" lon="-8.3094190">
        <ele>385.4</ele>
        <time>2021-10-06T09:01:36Z</time>
      </trkpt>
      <trkpt lat="42.9184100" lon="-8.3097160">
        <ele>385.8</ele>
        <time>2021-10-06T09:01:41Z</time>
      </trkpt>
      <trkpt lat="42.9184090" lon="-8.3097740">
        <ele>386.0</ele>
        <time>2021-10-06T09:01:42Z</time>
      </trkpt>
      <trkpt lat="42.9184120" lon="-8.3098320">
        <ele>386.2</ele>
        <time>2021-10-06T09:01:43Z</time>
      </trkpt>
      <trkpt lat="42.9184190" lon="-8.3102010">
        <ele>387.0</ele>
        <time>2021-10-06T09:01:50Z</time>
      </trkpt>
      <trkpt lat="42.9183930" lon="-8.3104630">
        <ele>388.2</ele>
        <time>2021-10-06T09:01:55Z</time>
      </trkpt>
      <trkpt lat="42.9183340" lon="-8.3106360">
        <ele>388.8</ele>
        <time>2021-10-06T09:01:59Z</time>
      </trkpt>
      <trkpt lat="42.9183100" lon="-8.3106530">
        <ele>388.8</ele>
        <time>2021-10-06T09:02:00Z</time>
      </trkpt>
      <trkpt lat="42.9179700" lon="-8.3105900">
        <ele>389.4</ele>
        <time>2021-10-06T09:02:09Z</time>
      </trkpt>
      <trkpt lat="42.9177770" lon="-8.3105310">
        <ele>389.2</ele>
        <time>2021-10-06T09:02:13Z</time>
      </trkpt>
      <trkpt lat="42.9176840" lon="-8.3105060">
        <ele>388.6</ele>
        <time>2021-10-06T09:02:15Z</time>
      </trkpt>
      <trkpt lat="42.9176400" lon="-8.3104990">
        <ele>388.6</ele>
        <time>2021-10-06T09:02:16Z</time>
      </trkpt>
      <trkpt lat="42.9175610" lon="-8.3104820">
        <ele>388.2</ele>
        <time>2021-10-06T09:02:18Z</time>
      </trkpt>
      <trkpt lat="42.9174610" lon="-8.3104930">
        <ele>388.2</ele>
        <time>2021-10-06T09:02:22Z</time>
      </trkpt>
      <trkpt lat="42.9174400" lon="-8.3106110">
        <ele>388.2</ele>
        <time>2021-10-06T09:02:25Z</time>
      </trkpt>
      <trkpt lat="42.9174270" lon="-8.3108210">
        <ele>388.6</ele>
        <time>2021-10-06T09:02:29Z</time>
      </trkpt>
      <trkpt lat="42.9174060" lon="-8.3109860">
        <ele>389.0</ele>
        <time>2021-10-06T09:02:32Z</time>
      </trkpt>
      <trkpt lat="42.9173950" lon="-8.3110980">
        <ele>389.4</ele>
        <time>2021-10-06T09:02:34Z</time>
      </trkpt>
      <trkpt lat="42.9173780" lon="-8.3113300">
        <ele>389.8</ele>
        <time>2021-10-06T09:02:38Z</time>
      </trkpt>
      <trkpt lat="42.9173420" lon="-8.3116710">
        <ele>390.4</ele>
        <time>2021-10-06T09:02:44Z</time>
      </trkpt>
      <trkpt lat="42.9173160" lon="-8.3119610">
        <ele>391.6</ele>
        <time>2021-10-06T09:02:49Z</time>
      </trkpt>
      <trkpt lat="42.9172730" lon="-8.3124340">
        <ele>392.8</ele>
        <time>2021-10-06T09:02:57Z</time>
      </trkpt>
      <trkpt lat="42.9172450" lon="-8.3127320">
        <ele>394.0</ele>
        <time>2021-10-06T09:03:02Z</time>
      </trkpt>
      <trkpt lat="42.9171940" lon="-8.3132270">
        <ele>395.2</ele>
        <time>2021-10-06T09:03:10Z</time>
      </trkpt>
      <trkpt lat="42.9171160" lon="-8.3140050">
        <ele>396.2</ele>
        <time>2021-10-06T09:03:22Z</time>
      </trkpt>
      <trkpt lat="42.9170490" lon="-8.3146510">
        <ele>397.4</ele>
        <time>2021-10-06T09:03:32Z</time>
      </trkpt>
      <trkpt lat="42.9169940" lon="-8.3149540">
        <ele>398.2</ele>
        <time>2021-10-06T09:03:37Z</time>
      </trkpt>
      <trkpt lat="42.9169590" lon="-8.3150760">
        <ele>398.4</ele>
        <time>2021-10-06T09:03:39Z</time>
      </trkpt>
      <trkpt lat="42.9169300" lon="-8.3151980">
        <ele>398.6</ele>
        <time>2021-10-06T09:03:41Z</time>
      </trkpt>
      <trkpt lat="42.9168840" lon="-8.3154980">
        <ele>399.4</ele>
        <time>2021-10-06T09:03:46Z</time>
      </trkpt>
      <trkpt lat="42.9168680" lon="-8.3155560">
        <ele>399.4</ele>
        <time>2021-10-06T09:03:47Z</time>
      </trkpt>
      <trkpt lat="42.9167910" lon="-8.3157980">
        <ele>399.8</ele>
        <time>2021-10-06T09:03:51Z</time>
      </trkpt>
      <trkpt lat="42.9167320" lon="-8.3161770">
        <ele>400.0</ele>
        <time>2021-10-06T09:03:57Z</time>
      </trkpt>
      <trkpt lat="42.9166700" lon="-8.3165470">
        <ele>400.4</ele>
        <time>2021-10-06T09:04:03Z</time>
      </trkpt>
      <trkpt lat="42.9165770" lon="-8.3171100">
        <ele>401.6</ele>
        <time>2021-10-06T09:04:13Z</time>
      </trkpt>
      <trkpt lat="42.9165660" lon="-8.3172180">
        <ele>402.0</ele>
        <time>2021-10-06T09:04:15Z</time>
      </trkpt>
      <trkpt lat="42.9165360" lon="-8.3173830">
        <ele>402.4</ele>
        <time>2021-10-06T09:04:18Z</time>
      </trkpt>
      <trkpt lat="42.9165180" lon="-8.3174900">
        <ele>402.8</ele>
        <time>2021-10-06T09:04:20Z</time>
      </trkpt>
      <trkpt lat="42.9164820" lon="-8.3176980">
        <ele>403.2</ele>
        <time>2021-10-06T09:04:24Z</time>
      </trkpt>
      <trkpt lat="42.9164520" lon="-8.3178970">
        <ele>404.0</ele>
        <time>2021-10-06T09:04:28Z</time>
      </trkpt>
      <trkpt lat="42.9164390" lon="-8.3179740">
        <ele>404.2</ele>
        <time>2021-10-06T09:04:30Z</time>
      </trkpt>
      <trkpt lat="42.9164250" lon="-8.3180760">
        <ele>404.6</ele>
        <time>2021-10-06T09:04:33Z</time>
      </trkpt>
      <trkpt lat="42.9164180" lon="-8.3181150">
        <ele>405.0</ele>
        <time>2021-10-06T09:04:34Z</time>
      </trkpt>
      <trkpt lat="42.9163920" lon="-8.3182640">
        <ele>405.8</ele>
        <time>2021-10-06T09:04:38Z</time>
      </trkpt>
      <trkpt lat="42.9163890" lon="-8.3183010">
        <ele>406.0</ele>
        <time>2021-10-06T09:04:39Z</time>
      </trkpt>
      <trkpt lat="42.9163430" lon="-8.3185150">
        <ele>407.4</ele>
        <time>2021-10-06T09:04:44Z</time>
      </trkpt>
      <trkpt lat="42.9162050" lon="-8.3188200">
        <ele>408.4</ele>
        <time>2021-10-06T09:04:51Z</time>
      </trkpt>
      <trkpt lat="42.9160950" lon="-8.3190980">
        <ele>409.4</ele>
        <time>2021-10-06T09:04:57Z</time>
      </trkpt>
      <trkpt lat="42.9159910" lon="-8.3193720">
        <ele>410.6</ele>
        <time>2021-10-06T09:05:03Z</time>
      </trkpt>
      <trkpt lat="42.9158560" lon="-8.3197060">
        <ele>411.8</ele>
        <time>2021-10-06T09:05:11Z</time>
      </trkpt>
      <trkpt lat="42.9157590" lon="-8.3199830">
        <ele>412.8</ele>
        <time>2021-10-06T09:05:17Z</time>
      </trkpt>
      <trkpt lat="42.9156560" lon="-8.3203010">
        <ele>414.0</ele>
        <time>2021-10-06T09:05:24Z</time>
      </trkpt>
      <trkpt lat="42.9155870" lon="-8.3205280">
        <ele>415.2</ele>
        <time>2021-10-06T09:05:29Z</time>
      </trkpt>
      <trkpt lat="42.9155270" lon="-8.3207650">
        <ele>416.2</ele>
        <time>2021-10-06T09:05:34Z</time>
      </trkpt>
      <trkpt lat="42.9155140" lon="-8.3208130">
        <ele>416.2</ele>
        <time>2021-10-06T09:05:35Z</time>
      </trkpt>
      <trkpt lat="42.9154510" lon="-8.3211070">
        <ele>417.2</ele>
        <time>2021-10-06T09:05:41Z</time>
      </trkpt>
      <trkpt lat="42.9154420" lon="-8.3211580">
        <ele>417.2</ele>
        <time>2021-10-06T09:05:42Z</time>
      </trkpt>
      <trkpt lat="42.9153840" lon="-8.3215320">
        <ele>418.2</ele>
        <time>2021-10-06T09:05:49Z</time>
      </trkpt>
      <trkpt lat="42.9153410" lon="-8.3218690">
        <ele>419.0</ele>
        <time>2021-10-06T09:05:55Z</time>
      </trkpt>
      <trkpt lat="42.9153310" lon="-8.3219800">
        <ele>419.4</ele>
        <time>2021-10-06T09:05:57Z</time>
      </trkpt>
      <trkpt lat="42.9153260" lon="-8.3222050">
        <ele>419.4</ele>
        <time>2021-10-06T09:06:01Z</time>
      </trkpt>
      <trkpt lat="42.9153150" lon="-8.3226400">
        <ele>420.4</ele>
        <time>2021-10-06T09:06:09Z</time>
      </trkpt>
      <trkpt lat="42.9153120" lon="-8.3228700">
        <ele>421.2</ele>
        <time>2021-10-06T09:06:14Z</time>
      </trkpt>
      <trkpt lat="42.9153220" lon="-8.3229450">
        <ele>421.6</ele>
        <time>2021-10-06T09:06:16Z</time>
      </trkpt>
      <trkpt lat="42.9154150" lon="-8.3231420">
        <ele>422.4</ele>
        <time>2021-10-06T09:06:22Z</time>
      </trkpt>
      <trkpt lat="42.9154630" lon="-8.3235770">
        <ele>424.8</ele>
        <time>2021-10-06T09:30:50Z</time>
      </trkpt>
      <trkpt lat="42.9154700" lon="-8.3236110">
        <ele>425.0</ele>
        <time>2021-10-06T09:30:51Z</time>
      </trkpt>
      <trkpt lat="42.9155190" lon="-8.3236830">
        <ele>425.0</ele>
        <time>2021-10-06T09:30:54Z</time>
      </trkpt>
      <trkpt lat="42.9155650" lon="-8.3237010">
        <ele>425.2</ele>
        <time>2021-10-06T09:30:56Z</time>
      </trkpt>
      <trkpt lat="42.9157130" lon="-8.3236060">
        <ele>425.6</ele>
        <time>2021-10-06T09:31:03Z</time>
      </trkpt>
      <trkpt lat="42.9159170" lon="-8.3234460">
        <ele>425.8</ele>
        <time>2021-10-06T09:31:11Z</time>
      </trkpt>
      <trkpt lat="42.9159440" lon="-8.3234300">
        <ele>426.0</ele>
        <time>2021-10-06T09:31:12Z</time>
      </trkpt>
      <trkpt lat="42.9163040" lon="-8.3234220">
        <ele>427.2</ele>
        <time>2021-10-06T09:31:24Z</time>
      </trkpt>
      <trkpt lat="42.9164060" lon="-8.3234210">
        <ele>427.6</ele>
        <time>2021-10-06T09:31:27Z</time>
      </trkpt>
      <trkpt lat="42.9165370" lon="-8.3234480">
        <ele>428.2</ele>
        <time>2021-10-06T09:31:32Z</time>
      </trkpt>
      <trkpt lat="42.9165320" lon="-8.3236010">
        <ele>428.8</ele>
        <time>2021-10-06T09:31:36Z</time>
      </trkpt>
      <trkpt lat="42.9165100" lon="-8.3237060">
        <ele>428.8</ele>
        <time>2021-10-06T09:31:38Z</time>
      </trkpt>
      <trkpt lat="42.9164750" lon="-8.3239580">
        <ele>428.8</ele>
        <time>2021-10-06T09:31:42Z</time>
      </trkpt>
      <trkpt lat="42.9164480" lon="-8.3241670">
        <ele>428.8</ele>
        <time>2021-10-06T09:31:45Z</time>
      </trkpt>
      <trkpt lat="42.9164280" lon="-8.3243080">
        <ele>428.4</ele>
        <time>2021-10-06T09:31:47Z</time>
      </trkpt>
      <trkpt lat="42.9164030" lon="-8.3245340">
        <ele>427.8</ele>
        <time>2021-10-06T09:31:50Z</time>
      </trkpt>
      <trkpt lat="42.9163860" lon="-8.3246900">
        <ele>427.4</ele>
        <time>2021-10-06T09:31:52Z</time>
      </trkpt>
      <trkpt lat="42.9163850" lon="-8.3247650">
        <ele>427.2</ele>
        <time>2021-10-06T09:31:53Z</time>
      </trkpt>
      <trkpt lat="42.9163830" lon="-8.3249000">
        <ele>426.8</ele>
        <time>2021-10-06T09:31:55Z</time>
      </trkpt>
      <trkpt lat="42.9163950" lon="-8.3250230">
        <ele>426.2</ele>
        <time>2021-10-06T09:31:57Z</time>
      </trkpt>
      <trkpt lat="42.9163990" lon="-8.3252130">
        <ele>425.0</ele>
        <time>2021-10-06T09:32:00Z</time>
      </trkpt>
      <trkpt lat="42.9163980" lon="-8.3254830">
        <ele>424.8</ele>
        <time>2021-10-06T09:32:04Z</time>
      </trkpt>
      <trkpt lat="42.9164080" lon="-8.3255550">
        <ele>424.8</ele>
        <time>2021-10-06T09:32:05Z</time>
      </trkpt>
      <trkpt lat="42.9164940" lon="-8.3258220">
        <ele>424.6</ele>
        <time>2021-10-06T09:32:09Z</time>
      </trkpt>
      <trkpt lat="42.9165170" lon="-8.3259790">
        <ele>424.0</ele>
        <time>2021-10-06T09:32:11Z</time>
      </trkpt>
      <trkpt lat="42.9165320" lon="-8.3261450">
        <ele>423.6</ele>
        <time>2021-10-06T09:32:13Z</time>
      </trkpt>
      <trkpt lat="42.9165490" lon="-8.3263900">
        <ele>422.8</ele>
        <time>2021-10-06T09:32:16Z</time>
      </trkpt>
      <trkpt lat="42.9165860" lon="-8.3266610">
        <ele>421.2</ele>
        <time>2021-10-06T09:32:19Z</time>
      </trkpt>
      <trkpt lat="42.9166290" lon="-8.3269100">
        <ele>420.2</ele>
        <time>2021-10-06T09:32:22Z</time>
      </trkpt>
      <trkpt lat="42.9166400" lon="-8.3269830">
        <ele>420.0</ele>
        <time>2021-10-06T09:32:23Z</time>
      </trkpt>
      <trkpt lat="42.9166550" lon="-8.3270460">
        <ele>419.8</ele>
        <time>2021-10-06T09:32:24Z</time>
      </trkpt>
      <trkpt lat="42.9167000" lon="-8.3271860">
        <ele>418.8</ele>
        <time>2021-10-06T09:32:26Z</time>
      </trkpt>
      <trkpt lat="42.9167510" lon="-8.3273560">
        <ele>417.6</ele>
        <time>2021-10-06T09:32:29Z</time>
      </trkpt>
      <trkpt lat="42.9168430" lon="-8.3276040">
        <ele>416.4</ele>
        <time>2021-10-06T09:32:33Z</time>
      </trkpt>
      <trkpt lat="42.9168970" lon="-8.3278180">
        <ele>415.4</ele>
        <time>2021-10-06T09:32:35Z</time>
      </trkpt>
      <trkpt lat="42.9169200" lon="-8.3279210">
        <ele>415.2</ele>
        <time>2021-10-06T09:32:36Z</time>
      </trkpt>
      <trkpt lat="42.9169380" lon="-8.3280180">
        <ele>414.8</ele>
        <time>2021-10-06T09:32:37Z</time>
      </trkpt>
      <trkpt lat="42.9169700" lon="-8.3282250">
        <ele>413.6</ele>
        <time>2021-10-06T09:32:39Z</time>
      </trkpt>
      <trkpt lat="42.9169990" lon="-8.3284730">
        <ele>412.0</ele>
        <time>2021-10-06T09:32:41Z</time>
      </trkpt>
      <trkpt lat="42.9170490" lon="-8.3287140">
        <ele>410.6</ele>
        <time>2021-10-06T09:32:43Z</time>
      </trkpt>
      <trkpt lat="42.9171070" lon="-8.3289180">
        <ele>409.0</ele>
        <time>2021-10-06T09:32:45Z</time>
      </trkpt>
      <trkpt lat="42.9171550" lon="-8.3290570">
        <ele>407.0</ele>
        <time>2021-10-06T09:32:47Z</time>
      </trkpt>
      <trkpt lat="42.9171770" lon="-8.3291330">
        <ele>405.8</ele>
        <time>2021-10-06T09:32:48Z</time>
      </trkpt>
      <trkpt lat="42.9171990" lon="-8.3292050">
        <ele>404.4</ele>
        <time>2021-10-06T09:32:49Z</time>
      </trkpt>
      <trkpt lat="42.9172180" lon="-8.3292810">
        <ele>403.0</ele>
        <time>2021-10-06T09:32:50Z</time>
      </trkpt>
      <trkpt lat="42.9172510" lon="-8.3294370">
        <ele>401.6</ele>
        <time>2021-10-06T09:32:52Z</time>
      </trkpt>
      <trkpt lat="42.9173080" lon="-8.3296840">
        <ele>400.6</ele>
        <time>2021-10-06T09:32:55Z</time>
      </trkpt>
      <trkpt lat="42.9173340" lon="-8.3298650">
        <ele>399.2</ele>
        <time>2021-10-06T09:32:57Z</time>
      </trkpt>
      <trkpt lat="42.9173630" lon="-8.3300540">
        <ele>398.0</ele>
        <time>2021-10-06T09:32:59Z</time>
      </trkpt>
      <trkpt lat="42.9174210" lon="-8.3303550">
        <ele>396.8</ele>
        <time>2021-10-06T09:33:02Z</time>
      </trkpt>
      <trkpt lat="42.9174710" lon="-8.3306990">
        <ele>395.2</ele>
        <time>2021-10-06T09:33:05Z</time>
      </trkpt>
      <trkpt lat="42.9175010" lon="-8.3309010">
        <ele>393.4</ele>
        <time>2021-10-06T09:33:07Z</time>
      </trkpt>
      <trkpt lat="42.9175300" lon="-8.3310980">
        <ele>392.0</ele>
        <time>2021-10-06T09:33:09Z</time>
      </trkpt>
      <trkpt lat="42.9175530" lon="-8.3313000">
        <ele>389.8</ele>
        <time>2021-10-06T09:33:11Z</time>
      </trkpt>
      <trkpt lat="42.9175650" lon="-8.3313990">
        <ele>388.8</ele>
        <time>2021-10-06T09:33:12Z</time>
      </trkpt>
      <trkpt lat="42.9175860" lon="-8.3315650">
        <ele>387.8</ele>
        <time>2021-10-06T09:33:14Z</time>
      </trkpt>
      <trkpt lat="42.9176380" lon="-8.3320820">
        <ele>387.4</ele>
        <time>2021-10-06T09:33:20Z</time>
      </trkpt>
      <trkpt lat="42.9176480" lon="-8.3322620">
        <ele>387.2</ele>
        <time>2021-10-06T09:33:22Z</time>
      </trkpt>
      <trkpt lat="42.9177120" lon="-8.3327800">
        <ele>386.8</ele>
        <time>2021-10-06T09:33:28Z</time>
      </trkpt>
      <trkpt lat="42.9177280" lon="-8.3328610">
        <ele>386.8</ele>
        <time>2021-10-06T09:33:29Z</time>
      </trkpt>
      <trkpt lat="42.9177670" lon="-8.3330290">
        <ele>386.8</ele>
        <time>2021-10-06T09:33:31Z</time>
      </trkpt>
      <trkpt lat="42.9177900" lon="-8.3331190">
        <ele>386.8</ele>
        <time>2021-10-06T09:33:32Z</time>
      </trkpt>
      <trkpt lat="42.9178600" lon="-8.3334880">
        <ele>386.4</ele>
        <time>2021-10-06T09:33:36Z</time>
      </trkpt>
      <trkpt lat="42.9178760" lon="-8.3335700">
        <ele>386.4</ele>
        <time>2021-10-06T09:33:37Z</time>
      </trkpt>
      <trkpt lat="42.9179250" lon="-8.3337260">
        <ele>386.0</ele>
        <time>2021-10-06T09:33:39Z</time>
      </trkpt>
      <trkpt lat="42.9179560" lon="-8.3338030">
        <ele>385.2</ele>
        <time>2021-10-06T09:33:40Z</time>
      </trkpt>
      <trkpt lat="42.9180170" lon="-8.3339560">
        <ele>383.8</ele>
        <time>2021-10-06T09:33:42Z</time>
      </trkpt>
      <trkpt lat="42.9180700" lon="-8.3340990">
        <ele>383.4</ele>
        <time>2021-10-06T09:33:44Z</time>
      </trkpt>
      <trkpt lat="42.9181060" lon="-8.3342040">
        <ele>382.6</ele>
        <time>2021-10-06T09:33:46Z</time>
      </trkpt>
      <trkpt lat="42.9181240" lon="-8.3342500">
        <ele>382.6</ele>
        <time>2021-10-06T09:33:48Z</time>
      </trkpt>
      <trkpt lat="42.9181220" lon="-8.3342520">
        <ele>382.4</ele>
        <time>2021-10-06T09:33:50Z</time>
      </trkpt>
      <trkpt lat="42.9181320" lon="-8.3343110">
        <ele>382.4</ele>
        <time>2021-10-06T09:34:49Z</time>
      </trkpt>
      <trkpt lat="42.9181720" lon="-8.3344700">
        <ele>382.4</ele>
        <time>2021-10-06T09:34:53Z</time>
      </trkpt>
      <trkpt lat="42.9181880" lon="-8.3347420">
        <ele>382.0</ele>
        <time>2021-10-06T09:35:01Z</time>
      </trkpt>
      <trkpt lat="42.9182290" lon="-8.3351040">
        <ele>381.6</ele>
        <time>2021-10-06T09:35:06Z</time>
      </trkpt>
      <trkpt lat="42.9182730" lon="-8.3354400">
        <ele>380.8</ele>
        <time>2021-10-06T09:35:10Z</time>
      </trkpt>
      <trkpt lat="42.9182840" lon="-8.3355290">
        <ele>380.4</ele>
        <time>2021-10-06T09:35:11Z</time>
      </trkpt>
      <trkpt lat="42.9182910" lon="-8.3356170">
        <ele>380.2</ele>
        <time>2021-10-06T09:35:12Z</time>
      </trkpt>
      <trkpt lat="42.9182880" lon="-8.3357010">
        <ele>379.6</ele>
        <time>2021-10-06T09:35:13Z</time>
      </trkpt>
      <trkpt lat="42.9182840" lon="-8.3357750">
        <ele>379.2</ele>
        <time>2021-10-06T09:35:14Z</time>
      </trkpt>
      <trkpt lat="42.9182800" lon="-8.3359030">
        <ele>378.2</ele>
        <time>2021-10-06T09:35:16Z</time>
      </trkpt>
      <trkpt lat="42.9182870" lon="-8.3359620">
        <ele>377.6</ele>
        <time>2021-10-06T09:35:17Z</time>
      </trkpt>
      <trkpt lat="42.9183160" lon="-8.3360880">
        <ele>376.8</ele>
        <time>2021-10-06T09:35:19Z</time>
      </trkpt>
      <trkpt lat="42.9183330" lon="-8.3361570">
        <ele>376.4</ele>
        <time>2021-10-06T09:35:20Z</time>
      </trkpt>
      <trkpt lat="42.9183860" lon="-8.3366640">
        <ele>375.4</ele>
        <time>2021-10-06T09:35:26Z</time>
      </trkpt>
      <trkpt lat="42.9184040" lon="-8.3368490">
        <ele>374.4</ele>
        <time>2021-10-06T09:35:28Z</time>
      </trkpt>
      <trkpt lat="42.9184150" lon="-8.3369460">
        <ele>374.0</ele>
        <time>2021-10-06T09:35:29Z</time>
      </trkpt>
      <trkpt lat="42.9184330" lon="-8.3371420">
        <ele>373.0</ele>
        <time>2021-10-06T09:35:31Z</time>
      </trkpt>
      <trkpt lat="42.9184390" lon="-8.3372380">
        <ele>372.4</ele>
        <time>2021-10-06T09:35:32Z</time>
      </trkpt>
      <trkpt lat="42.9184540" lon="-8.3374420">
        <ele>371.2</ele>
        <time>2021-10-06T09:35:34Z</time>
      </trkpt>
      <trkpt lat="42.9184800" lon="-8.3377570">
        <ele>369.8</ele>
        <time>2021-10-06T09:35:37Z</time>
      </trkpt>
      <trkpt lat="42.9185010" lon="-8.3381840">
        <ele>368.2</ele>
        <time>2021-10-06T09:35:41Z</time>
      </trkpt>
      <trkpt lat="42.9185030" lon="-8.3383980">
        <ele>366.8</ele>
        <time>2021-10-06T09:35:43Z</time>
      </trkpt>
      <trkpt lat="42.9184880" lon="-8.3386040">
        <ele>365.8</ele>
        <time>2021-10-06T09:35:45Z</time>
      </trkpt>
      <trkpt lat="42.9184730" lon="-8.3386970">
        <ele>365.4</ele>
        <time>2021-10-06T09:35:46Z</time>
      </trkpt>
      <trkpt lat="42.9184360" lon="-8.3389560">
        <ele>364.2</ele>
        <time>2021-10-06T09:35:49Z</time>
      </trkpt>
      <trkpt lat="42.9184170" lon="-8.3390400">
        <ele>363.8</ele>
        <time>2021-10-06T09:35:50Z</time>
      </trkpt>
      <trkpt lat="42.9183120" lon="-8.3393810">
        <ele>363.0</ele>
        <time>2021-10-06T09:35:54Z</time>
      </trkpt>
      <trkpt lat="42.9181920" lon="-8.3398240">
        <ele>362.0</ele>
        <time>2021-10-06T09:35:59Z</time>
      </trkpt>
      <trkpt lat="42.9181170" lon="-8.3400850">
        <ele>361.4</ele>
        <time>2021-10-06T09:36:02Z</time>
      </trkpt>
      <trkpt lat="42.9180720" lon="-8.3402430">
        <ele>361.2</ele>
        <time>2021-10-06T09:36:04Z</time>
      </trkpt>
      <trkpt lat="42.9180400" lon="-8.3403860">
        <ele>361.0</ele>
        <time>2021-10-06T09:36:06Z</time>
      </trkpt>
      <trkpt lat="42.9179930" lon="-8.3405540">
        <ele>360.6</ele>
        <time>2021-10-06T09:36:09Z</time>
      </trkpt>
      <trkpt lat="42.9179370" lon="-8.3407380">
        <ele>360.4</ele>
        <time>2021-10-06T09:36:12Z</time>
      </trkpt>
      <trkpt lat="42.9178990" lon="-8.3408940">
        <ele>360.4</ele>
        <time>2021-10-06T09:36:14Z</time>
      </trkpt>
      <trkpt lat="42.9178440" lon="-8.3410650">
        <ele>360.2</ele>
        <time>2021-10-06T09:36:16Z</time>
      </trkpt>
      <trkpt lat="42.9177510" lon="-8.3413530">
        <ele>359.8</ele>
        <time>2021-10-06T09:36:19Z</time>
      </trkpt>
      <trkpt lat="42.9176850" lon="-8.3415520">
        <ele>358.8</ele>
        <time>2021-10-06T09:36:21Z</time>
      </trkpt>
      <trkpt lat="42.9176110" lon="-8.3417460">
        <ele>357.2</ele>
        <time>2021-10-06T09:36:23Z</time>
      </trkpt>
      <trkpt lat="42.9175430" lon="-8.3419470">
        <ele>355.8</ele>
        <time>2021-10-06T09:36:25Z</time>
      </trkpt>
      <trkpt lat="42.9174820" lon="-8.3421530">
        <ele>354.6</ele>
        <time>2021-10-06T09:36:27Z</time>
      </trkpt>
      <trkpt lat="42.9173860" lon="-8.3424710">
        <ele>353.2</ele>
        <time>2021-10-06T09:36:30Z</time>
      </trkpt>
      <trkpt lat="42.9173030" lon="-8.3426900">
        <ele>352.0</ele>
        <time>2021-10-06T09:36:32Z</time>
      </trkpt>
      <trkpt lat="42.9172220" lon="-8.3429140">
        <ele>350.8</ele>
        <time>2021-10-06T09:36:34Z</time>
      </trkpt>
      <trkpt lat="42.9171400" lon="-8.3431170">
        <ele>350.2</ele>
        <time>2021-10-06T09:36:36Z</time>
      </trkpt>
      <trkpt lat="42.9170960" lon="-8.3431930">
        <ele>349.6</ele>
        <time>2021-10-06T09:36:37Z</time>
      </trkpt>
      <trkpt lat="42.9169900" lon="-8.3432880">
        <ele>348.2</ele>
        <time>2021-10-06T09:36:39Z</time>
      </trkpt>
      <trkpt lat="42.9168740" lon="-8.3433150">
        <ele>346.6</ele>
        <time>2021-10-06T09:36:41Z</time>
      </trkpt>
      <trkpt lat="42.9167720" lon="-8.3433060">
        <ele>345.4</ele>
        <time>2021-10-06T09:36:43Z</time>
      </trkpt>
      <trkpt lat="42.9166860" lon="-8.3432700">
        <ele>345.0</ele>
        <time>2021-10-06T09:36:45Z</time>
      </trkpt>
      <trkpt lat="42.9166420" lon="-8.3432600">
        <ele>344.8</ele>
        <time>2021-10-06T09:36:46Z</time>
      </trkpt>
      <trkpt lat="42.9165380" lon="-8.3433170">
        <ele>344.4</ele>
        <time>2021-10-06T09:36:49Z</time>
      </trkpt>
      <trkpt lat="42.9165260" lon="-8.3433610">
        <ele>344.4</ele>
        <time>2021-10-06T09:36:50Z</time>
      </trkpt>
      <trkpt lat="42.9165230" lon="-8.3434750">
        <ele>344.0</ele>
        <time>2021-10-06T09:36:52Z</time>
      </trkpt>
      <trkpt lat="42.9165290" lon="-8.3436120">
        <ele>343.2</ele>
        <time>2021-10-06T09:36:54Z</time>
      </trkpt>
      <trkpt lat="42.9164860" lon="-8.3440190">
        <ele>341.8</ele>
        <time>2021-10-06T09:37:01Z</time>
      </trkpt>
      <trkpt lat="42.9164620" lon="-8.3440400">
        <ele>340.2</ele>
        <time>2021-10-06T09:37:03Z</time>
      </trkpt>
      <trkpt lat="42.9164360" lon="-8.3440500">
        <ele>339.0</ele>
        <time>2021-10-06T09:37:04Z</time>
      </trkpt>
      <trkpt lat="42.9163840" lon="-8.3441160">
        <ele>337.6</ele>
        <time>2021-10-06T09:37:06Z</time>
      </trkpt>
      <trkpt lat="42.9163680" lon="-8.3441670">
        <ele>336.6</ele>
        <time>2021-10-06T09:37:07Z</time>
      </trkpt>
      <trkpt lat="42.9163590" lon="-8.3442240">
        <ele>336.4</ele>
        <time>2021-10-06T09:37:08Z</time>
      </trkpt>
      <trkpt lat="42.9163570" lon="-8.3443520">
        <ele>336.2</ele>
        <time>2021-10-06T09:37:10Z</time>
      </trkpt>
      <trkpt lat="42.9163500" lon="-8.3444290">
        <ele>336.0</ele>
        <time>2021-10-06T09:37:11Z</time>
      </trkpt>
      <trkpt lat="42.9163050" lon="-8.3446020">
        <ele>336.0</ele>
        <time>2021-10-06T09:37:13Z</time>
      </trkpt>
      <trkpt lat="42.9161200" lon="-8.3451920">
        <ele>335.2</ele>
        <time>2021-10-06T09:37:18Z</time>
      </trkpt>
      <trkpt lat="42.9160340" lon="-8.3454310">
        <ele>334.0</ele>
        <time>2021-10-06T09:37:20Z</time>
      </trkpt>
      <trkpt lat="42.9159820" lon="-8.3455410">
        <ele>333.0</ele>
        <time>2021-10-06T09:37:21Z</time>
      </trkpt>
      <trkpt lat="42.9159230" lon="-8.3456500">
        <ele>331.6</ele>
        <time>2021-10-06T09:37:22Z</time>
      </trkpt>
      <trkpt lat="42.9158630" lon="-8.3457510">
        <ele>330.0</ele>
        <time>2021-10-06T09:37:23Z</time>
      </trkpt>
      <trkpt lat="42.9158030" lon="-8.3458450">
        <ele>328.2</ele>
        <time>2021-10-06T09:37:24Z</time>
      </trkpt>
      <trkpt lat="42.9157450" lon="-8.3459360">
        <ele>327.0</ele>
        <time>2021-10-06T09:37:25Z</time>
      </trkpt>
      <trkpt lat="42.9156990" lon="-8.3460300">
        <ele>325.4</ele>
        <time>2021-10-06T09:37:26Z</time>
      </trkpt>
      <trkpt lat="42.9156660" lon="-8.3461320">
        <ele>324.0</ele>
        <time>2021-10-06T09:37:27Z</time>
      </trkpt>
      <trkpt lat="42.9155920" lon="-8.3463290">
        <ele>323.0</ele>
        <time>2021-10-06T09:37:29Z</time>
      </trkpt>
      <trkpt lat="42.9154900" lon="-8.3465160">
        <ele>322.0</ele>
        <time>2021-10-06T09:37:31Z</time>
      </trkpt>
      <trkpt lat="42.9154350" lon="-8.3466140">
        <ele>321.6</ele>
        <time>2021-10-06T09:37:32Z</time>
      </trkpt>
      <trkpt lat="42.9153130" lon="-8.3468030">
        <ele>321.2</ele>
        <time>2021-10-06T09:37:34Z</time>
      </trkpt>
      <trkpt lat="42.9151910" lon="-8.3469930">
        <ele>320.6</ele>
        <time>2021-10-06T09:37:36Z</time>
      </trkpt>
      <trkpt lat="42.9150020" lon="-8.3472860">
        <ele>319.4</ele>
        <time>2021-10-06T09:37:39Z</time>
      </trkpt>
      <trkpt lat="42.9148620" lon="-8.3474840">
        <ele>318.6</ele>
        <time>2021-10-06T09:37:41Z</time>
      </trkpt>
      <trkpt lat="42.9147960" lon="-8.3475910">
        <ele>317.6</ele>
        <time>2021-10-06T09:37:42Z</time>
      </trkpt>
      <trkpt lat="42.9146840" lon="-8.3478280">
        <ele>316.6</ele>
        <time>2021-10-06T09:37:44Z</time>
      </trkpt>
      <trkpt lat="42.9146160" lon="-8.3480870">
        <ele>315.4</ele>
        <time>2021-10-06T09:37:46Z</time>
      </trkpt>
      <trkpt lat="42.9145820" lon="-8.3482160">
        <ele>314.6</ele>
        <time>2021-10-06T09:37:47Z</time>
      </trkpt>
      <trkpt lat="42.9145410" lon="-8.3483380">
        <ele>313.4</ele>
        <time>2021-10-06T09:37:48Z</time>
      </trkpt>
      <trkpt lat="42.9145010" lon="-8.3484570">
        <ele>312.2</ele>
        <time>2021-10-06T09:37:49Z</time>
      </trkpt>
      <trkpt lat="42.9144290" lon="-8.3486690">
        <ele>310.8</ele>
        <time>2021-10-06T09:37:51Z</time>
      </trkpt>
      <trkpt lat="42.9143520" lon="-8.3489500">
        <ele>310.0</ele>
        <time>2021-10-06T09:37:54Z</time>
      </trkpt>
      <trkpt lat="42.9143460" lon="-8.3490340">
        <ele>309.8</ele>
        <time>2021-10-06T09:37:55Z</time>
      </trkpt>
      <trkpt lat="42.9143960" lon="-8.3491820">
        <ele>309.6</ele>
        <time>2021-10-06T09:37:57Z</time>
      </trkpt>
      <trkpt lat="42.9145420" lon="-8.3493410">
        <ele>308.8</ele>
        <time>2021-10-06T09:38:00Z</time>
      </trkpt>
      <trkpt lat="42.9145900" lon="-8.3493910">
        <ele>308.6</ele>
        <time>2021-10-06T09:38:01Z</time>
      </trkpt>
      <trkpt lat="42.9146320" lon="-8.3494490">
        <ele>308.4</ele>
        <time>2021-10-06T09:38:02Z</time>
      </trkpt>
      <trkpt lat="42.9146880" lon="-8.3495550">
        <ele>308.0</ele>
        <time>2021-10-06T09:38:04Z</time>
      </trkpt>
      <trkpt lat="42.9147060" lon="-8.3496840">
        <ele>307.2</ele>
        <time>2021-10-06T09:38:06Z</time>
      </trkpt>
      <trkpt lat="42.9147100" lon="-8.3498380">
        <ele>306.2</ele>
        <time>2021-10-06T09:38:08Z</time>
      </trkpt>
      <trkpt lat="42.9147060" lon="-8.3499040">
        <ele>305.0</ele>
        <time>2021-10-06T09:38:09Z</time>
      </trkpt>
      <trkpt lat="42.9146970" lon="-8.3499650">
        <ele>303.8</ele>
        <time>2021-10-06T09:38:10Z</time>
      </trkpt>
      <trkpt lat="42.9146600" lon="-8.3500860">
        <ele>302.4</ele>
        <time>2021-10-06T09:38:12Z</time>
      </trkpt>
      <trkpt lat="42.9146120" lon="-8.3502410">
        <ele>300.8</ele>
        <time>2021-10-06T09:38:14Z</time>
      </trkpt>
      <trkpt lat="42.9145560" lon="-8.3504230">
        <ele>299.6</ele>
        <time>2021-10-06T09:38:16Z</time>
      </trkpt>
      <trkpt lat="42.9144790" lon="-8.3506920">
        <ele>298.8</ele>
        <time>2021-10-06T09:38:19Z</time>
      </trkpt>
      <trkpt lat="42.9144540" lon="-8.3507820">
        <ele>298.4</ele>
        <time>2021-10-06T09:38:20Z</time>
      </trkpt>
      <trkpt lat="42.9144030" lon="-8.3509590">
        <ele>297.2</ele>
        <time>2021-10-06T09:38:22Z</time>
      </trkpt>
      <trkpt lat="42.9143120" lon="-8.3512240">
        <ele>296.2</ele>
        <time>2021-10-06T09:38:25Z</time>
      </trkpt>
      <trkpt lat="42.9142510" lon="-8.3514170">
        <ele>295.6</ele>
        <time>2021-10-06T09:38:27Z</time>
      </trkpt>
      <trkpt lat="42.9141810" lon="-8.3516210">
        <ele>295.4</ele>
        <time>2021-10-06T09:38:29Z</time>
      </trkpt>
      <trkpt lat="42.9141430" lon="-8.3517250">
        <ele>295.2</ele>
        <time>2021-10-06T09:38:30Z</time>
      </trkpt>
      <trkpt lat="42.9140640" lon="-8.3519350">
        <ele>294.8</ele>
        <time>2021-10-06T09:38:32Z</time>
      </trkpt>
      <trkpt lat="42.9139820" lon="-8.3521480">
        <ele>294.0</ele>
        <time>2021-10-06T09:38:34Z</time>
      </trkpt>
      <trkpt lat="42.9138670" lon="-8.3524650">
        <ele>292.8</ele>
        <time>2021-10-06T09:38:37Z</time>
      </trkpt>
      <trkpt lat="42.9136480" lon="-8.3529490">
        <ele>291.8</ele>
        <time>2021-10-06T09:38:42Z</time>
      </trkpt>
      <trkpt lat="42.9134410" lon="-8.3532130">
        <ele>291.8</ele>
        <time>2021-10-06T09:38:46Z</time>
      </trkpt>
      <trkpt lat="42.9133510" lon="-8.3533110">
        <ele>291.8</ele>
        <time>2021-10-06T09:38:48Z</time>
      </trkpt>
      <trkpt lat="42.9130510" lon="-8.3536570">
        <ele>292.0</ele>
        <time>2021-10-06T09:38:54Z</time>
      </trkpt>
      <trkpt lat="42.9129280" lon="-8.3539340">
        <ele>292.0</ele>
        <time>2021-10-06T09:38:57Z</time>
      </trkpt>
      <trkpt lat="42.9128150" lon="-8.3542620">
        <ele>291.6</ele>
        <time>2021-10-06T09:39:00Z</time>
      </trkpt>
      <trkpt lat="42.9126870" lon="-8.3547550">
        <ele>290.4</ele>
        <time>2021-10-06T09:39:04Z</time>
      </trkpt>
      <trkpt lat="42.9126310" lon="-8.3549900">
        <ele>289.4</ele>
        <time>2021-10-06T09:39:06Z</time>
      </trkpt>
      <trkpt lat="42.9126020" lon="-8.3550950">
        <ele>288.2</ele>
        <time>2021-10-06T09:39:07Z</time>
      </trkpt>
      <trkpt lat="42.9125670" lon="-8.3552000">
        <ele>287.2</ele>
        <time>2021-10-06T09:39:08Z</time>
      </trkpt>
      <trkpt lat="42.9124990" lon="-8.3554160">
        <ele>285.8</ele>
        <time>2021-10-06T09:39:10Z</time>
      </trkpt>
      <trkpt lat="42.9124810" lon="-8.3556300">
        <ele>284.6</ele>
        <time>2021-10-06T09:39:12Z</time>
      </trkpt>
      <trkpt lat="42.9124890" lon="-8.3558120">
        <ele>283.8</ele>
        <time>2021-10-06T09:39:14Z</time>
      </trkpt>
      <trkpt lat="42.9124910" lon="-8.3558960">
        <ele>283.4</ele>
        <time>2021-10-06T09:39:15Z</time>
      </trkpt>
      <trkpt lat="42.9124960" lon="-8.3560910">
        <ele>282.2</ele>
        <time>2021-10-06T09:39:17Z</time>
      </trkpt>
      <trkpt lat="42.9125000" lon="-8.3563100">
        <ele>281.2</ele>
        <time>2021-10-06T09:39:19Z</time>
      </trkpt>
      <trkpt lat="42.9124960" lon="-8.3564260">
        <ele>280.8</ele>
        <time>2021-10-06T09:39:20Z</time>
      </trkpt>
      <trkpt lat="42.9124900" lon="-8.3565580">
        <ele>280.4</ele>
        <time>2021-10-06T09:39:21Z</time>
      </trkpt>
      <trkpt lat="42.9124790" lon="-8.3566940">
        <ele>279.8</ele>
        <time>2021-10-06T09:39:22Z</time>
      </trkpt>
      <trkpt lat="42.9124620" lon="-8.3568230">
        <ele>279.2</ele>
        <time>2021-10-06T09:39:23Z</time>
      </trkpt>
      <trkpt lat="42.9124360" lon="-8.3569460">
        <ele>278.6</ele>
        <time>2021-10-06T09:39:24Z</time>
      </trkpt>
      <trkpt lat="42.9124120" lon="-8.3570550">
        <ele>277.2</ele>
        <time>2021-10-06T09:39:25Z</time>
      </trkpt>
      <trkpt lat="42.9123960" lon="-8.3571460">
        <ele>276.8</ele>
        <time>2021-10-06T09:39:26Z</time>
      </trkpt>
      <trkpt lat="42.9123740" lon="-8.3572820">
        <ele>276.4</ele>
        <time>2021-10-06T09:39:28Z</time>
      </trkpt>
      <trkpt lat="42.9123290" lon="-8.3574360">
        <ele>276.4</ele>
        <time>2021-10-06T09:39:31Z</time>
      </trkpt>
      <trkpt lat="42.9121670" lon="-8.3575780">
        <ele>277.2</ele>
        <time>2021-10-06T09:39:35Z</time>
      </trkpt>
      <trkpt lat="42.9121250" lon="-8.3576100">
        <ele>278.2</ele>
        <time>2021-10-06T09:39:36Z</time>
      </trkpt>
      <trkpt lat="42.9120520" lon="-8.3577010">
        <ele>279.4</ele>
        <time>2021-10-06T09:39:38Z</time>
      </trkpt>
      <trkpt lat="42.9119380" lon="-8.3578750">
        <ele>280.0</ele>
        <time>2021-10-06T09:39:41Z</time>
      </trkpt>
      <trkpt lat="42.9118680" lon="-8.3579950">
        <ele>280.6</ele>
        <time>2021-10-06T09:39:43Z</time>
      </trkpt>
      <trkpt lat="42.9117910" lon="-8.3581190">
        <ele>281.0</ele>
        <time>2021-10-06T09:39:45Z</time>
      </trkpt>
      <trkpt lat="42.9117150" lon="-8.3582370">
        <ele>281.4</ele>
        <time>2021-10-06T09:39:47Z</time>
      </trkpt>
      <trkpt lat="42.9116440" lon="-8.3583470">
        <ele>281.6</ele>
        <time>2021-10-06T09:39:49Z</time>
      </trkpt>
      <trkpt lat="42.9115700" lon="-8.3584500">
        <ele>282.2</ele>
        <time>2021-10-06T09:39:51Z</time>
      </trkpt>
      <trkpt lat="42.9114680" lon="-8.3586080">
        <ele>283.0</ele>
        <time>2021-10-06T09:39:54Z</time>
      </trkpt>
      <trkpt lat="42.9113470" lon="-8.3588160">
        <ele>284.2</ele>
        <time>2021-10-06T09:39:58Z</time>
      </trkpt>
      <trkpt lat="42.9112620" lon="-8.3589670">
        <ele>285.2</ele>
        <time>2021-10-06T09:40:01Z</time>
      </trkpt>
      <trkpt lat="42.9110440" lon="-8.3593470">
        <ele>286.4</ele>
        <time>2021-10-06T09:40:08Z</time>
      </trkpt>
      <trkpt lat="42.9108210" lon="-8.3596620">
        <ele>287.4</ele>
        <time>2021-10-06T09:40:14Z</time>
      </trkpt>
      <trkpt lat="42.9107910" lon="-8.3597100">
        <ele>287.6</ele>
        <time>2021-10-06T09:40:15Z</time>
      </trkpt>
      <trkpt lat="42.9106880" lon="-8.3598980">
        <ele>288.6</ele>
        <time>2021-10-06T09:40:19Z</time>
      </trkpt>
      <trkpt lat="42.9106660" lon="-8.3599470">
        <ele>288.6</ele>
        <time>2021-10-06T09:40:20Z</time>
      </trkpt>
      <trkpt lat="42.9105580" lon="-8.3602020">
        <ele>289.4</ele>
        <time>2021-10-06T09:40:25Z</time>
      </trkpt>
      <trkpt lat="42.9105180" lon="-8.3603340">
        <ele>289.8</ele>
        <time>2021-10-06T09:40:28Z</time>
      </trkpt>
      <trkpt lat="42.9105060" lon="-8.3603790">
        <ele>290.0</ele>
        <time>2021-10-06T09:40:29Z</time>
      </trkpt>
      <trkpt lat="42.9103860" lon="-8.3606610">
        <ele>291.0</ele>
        <time>2021-10-06T09:40:34Z</time>
      </trkpt>
      <trkpt lat="42.9103610" lon="-8.3607140">
        <ele>291.2</ele>
        <time>2021-10-06T09:40:35Z</time>
      </trkpt>
      <trkpt lat="42.9102600" lon="-8.3609250">
        <ele>292.2</ele>
        <time>2021-10-06T09:40:39Z</time>
      </trkpt>
      <trkpt lat="42.9101950" lon="-8.3610800">
        <ele>293.4</ele>
        <time>2021-10-06T09:40:42Z</time>
      </trkpt>
      <trkpt lat="42.9101210" lon="-8.3614160">
        <ele>294.4</ele>
        <time>2021-10-06T09:40:48Z</time>
      </trkpt>
      <trkpt lat="42.9100360" lon="-8.3617350">
        <ele>295.8</ele>
        <time>2021-10-06T09:40:54Z</time>
      </trkpt>
      <trkpt lat="42.9099950" lon="-8.3618730">
        <ele>297.0</ele>
        <time>2021-10-06T09:40:57Z</time>
      </trkpt>
      <trkpt lat="42.9099530" lon="-8.3620200">
        <ele>298.4</ele>
        <time>2021-10-06T09:41:00Z</time>
      </trkpt>
      <trkpt lat="42.9098820" lon="-8.3622580">
        <ele>299.4</ele>
        <time>2021-10-06T09:41:05Z</time>
      </trkpt>
      <trkpt lat="42.9098070" lon="-8.3624410">
        <ele>300.4</ele>
        <time>2021-10-06T09:41:09Z</time>
      </trkpt>
      <trkpt lat="42.9097590" lon="-8.3625630">
        <ele>301.4</ele>
        <time>2021-10-06T09:41:12Z</time>
      </trkpt>
      <trkpt lat="42.9097040" lon="-8.3626840">
        <ele>302.6</ele>
        <time>2021-10-06T09:41:15Z</time>
      </trkpt>
      <trkpt lat="42.9095970" lon="-8.3628930">
        <ele>304.0</ele>
        <time>2021-10-06T09:41:19Z</time>
      </trkpt>
      <trkpt lat="42.9094120" lon="-8.3632160">
        <ele>305.0</ele>
        <time>2021-10-06T09:41:26Z</time>
      </trkpt>
      <trkpt lat="42.9092940" lon="-8.3633860">
        <ele>305.8</ele>
        <time>2021-10-06T09:41:30Z</time>
      </trkpt>
      <trkpt lat="42.9092420" lon="-8.3634700">
        <ele>306.2</ele>
        <time>2021-10-06T09:41:32Z</time>
      </trkpt>
      <trkpt lat="42.9089980" lon="-8.3635860">
        <ele>307.2</ele>
        <time>2021-10-06T09:41:39Z</time>
      </trkpt>
      <trkpt lat="42.9088910" lon="-8.3635120">
        <ele>307.4</ele>
        <time>2021-10-06T09:41:42Z</time>
      </trkpt>
      <trkpt lat="42.9087930" lon="-8.3633370">
        <ele>308.4</ele>
        <time>2021-10-06T09:41:46Z</time>
      </trkpt>
      <trkpt lat="42.9087590" lon="-8.3632660">
        <ele>308.8</ele>
        <time>2021-10-06T09:41:48Z</time>
      </trkpt>
      <trkpt lat="42.9086330" lon="-8.3632580">
        <ele>309.8</ele>
        <time>2021-10-06T09:41:52Z</time>
      </trkpt>
      <trkpt lat="42.9085910" lon="-8.3632740">
        <ele>310.0</ele>
        <time>2021-10-06T09:41:53Z</time>
      </trkpt>
      <trkpt lat="42.9085050" lon="-8.3633010">
        <ele>310.8</ele>
        <time>2021-10-06T09:41:55Z</time>
      </trkpt>
      <trkpt lat="42.9083890" lon="-8.3633530">
        <ele>311.4</ele>
        <time>2021-10-06T09:41:58Z</time>
      </trkpt>
      <trkpt lat="42.9085850" lon="-8.3632550">
        <ele>311.6</ele>
        <time>2021-10-06T09:45:19Z</time>
      </trkpt>
      <trkpt lat="42.9085650" lon="-8.3632650">
        <ele>311.6</ele>
        <time>2021-10-06T09:45:20Z</time>
      </trkpt>
      <trkpt lat="42.9084290" lon="-8.3633230">
        <ele>311.6</ele>
        <time>2021-10-06T09:45:23Z</time>
      </trkpt>
      <trkpt lat="42.9082800" lon="-8.3633600">
        <ele>311.0</ele>
        <time>2021-10-06T09:45:26Z</time>
      </trkpt>
      <trkpt lat="42.9082280" lon="-8.3633740">
        <ele>310.8</ele>
        <time>2021-10-06T09:45:27Z</time>
      </trkpt>
      <trkpt lat="42.9080190" lon="-8.3634520">
        <ele>310.6</ele>
        <time>2021-10-06T09:45:31Z</time>
      </trkpt>
      <trkpt lat="42.9077980" lon="-8.3635480">
        <ele>310.4</ele>
        <time>2021-10-06T09:45:35Z</time>
      </trkpt>
      <trkpt lat="42.9073720" lon="-8.3638910">
        <ele>310.0</ele>
        <time>2021-10-06T09:45:43Z</time>
      </trkpt>
      <trkpt lat="42.9072970" lon="-8.3639770">
        <ele>309.8</ele>
        <time>2021-10-06T09:45:45Z</time>
      </trkpt>
      <trkpt lat="42.9072600" lon="-8.3640320">
        <ele>309.4</ele>
        <time>2021-10-06T09:45:47Z</time>
      </trkpt>
      <trkpt lat="42.9072850" lon="-8.3641260">
        <ele>309.0</ele>
        <time>2021-10-06T09:45:51Z</time>
      </trkpt>
      <trkpt lat="42.9073120" lon="-8.3641680">
        <ele>309.0</ele>
        <time>2021-10-06T09:45:53Z</time>
      </trkpt>
      <trkpt lat="42.9073440" lon="-8.3642380">
        <ele>309.0</ele>
        <time>2021-10-06T09:45:56Z</time>
      </trkpt>
      <trkpt lat="42.9073980" lon="-8.3643040">
        <ele>309.0</ele>
        <time>2021-10-06T09:45:59Z</time>
      </trkpt>
      <trkpt lat="42.9074910" lon="-8.3643930">
        <ele>309.0</ele>
        <time>2021-10-06T09:46:02Z</time>
      </trkpt>
      <trkpt lat="42.9077010" lon="-8.3646300">
        <ele>308.6</ele>
        <time>2021-10-06T09:46:08Z</time>
      </trkpt>
      <trkpt lat="42.9078780" lon="-8.3648770">
        <ele>307.4</ele>
        <time>2021-10-06T09:46:13Z</time>
      </trkpt>
      <trkpt lat="42.9079790" lon="-8.3650350">
        <ele>307.4</ele>
        <time>2021-10-06T09:46:16Z</time>
      </trkpt>
      <trkpt lat="42.9080430" lon="-8.3651430">
        <ele>307.4</ele>
        <time>2021-10-06T09:46:18Z</time>
      </trkpt>
      <trkpt lat="42.9081420" lon="-8.3652930">
        <ele>307.4</ele>
        <time>2021-10-06T09:46:21Z</time>
      </trkpt>
      <trkpt lat="42.9082620" lon="-8.3654900">
        <ele>307.4</ele>
        <time>2021-10-06T09:46:25Z</time>
      </trkpt>
      <trkpt lat="42.9083080" lon="-8.3655760">
        <ele>307.4</ele>
        <time>2021-10-06T09:46:27Z</time>
      </trkpt>
      <trkpt lat="42.9082660" lon="-8.3658770">
        <ele>308.4</ele>
        <time>2021-10-06T09:46:33Z</time>
      </trkpt>
      <trkpt lat="42.9082210" lon="-8.3659860">
        <ele>308.6</ele>
        <time>2021-10-06T09:46:35Z</time>
      </trkpt>
      <trkpt lat="42.9081550" lon="-8.3661580">
        <ele>308.8</ele>
        <time>2021-10-06T09:46:38Z</time>
      </trkpt>
      <trkpt lat="42.9081130" lon="-8.3664330">
        <ele>308.8</ele>
        <time>2021-10-06T09:46:42Z</time>
      </trkpt>
      <trkpt lat="42.9080200" lon="-8.3667130">
        <ele>308.8</ele>
        <time>2021-10-06T09:46:46Z</time>
      </trkpt>
      <trkpt lat="42.9077620" lon="-8.3673350">
        <ele>308.0</ele>
        <time>2021-10-06T09:46:55Z</time>
      </trkpt>
      <trkpt lat="42.9076480" lon="-8.3676140">
        <ele>307.4</ele>
        <time>2021-10-06T09:46:59Z</time>
      </trkpt>
      <trkpt lat="42.9074590" lon="-8.3680900">
        <ele>307.0</ele>
        <time>2021-10-06T09:47:05Z</time>
      </trkpt>
      <trkpt lat="42.9073920" lon="-8.3682610">
        <ele>306.8</ele>
        <time>2021-10-06T09:47:07Z</time>
      </trkpt>
      <trkpt lat="42.9073300" lon="-8.3684350">
        <ele>306.4</ele>
        <time>2021-10-06T09:47:09Z</time>
      </trkpt>
      <trkpt lat="42.9072780" lon="-8.3686080">
        <ele>306.0</ele>
        <time>2021-10-06T09:47:11Z</time>
      </trkpt>
      <trkpt lat="42.9072570" lon="-8.3687770">
        <ele>305.4</ele>
        <time>2021-10-06T09:47:13Z</time>
      </trkpt>
      <trkpt lat="42.9072250" lon="-8.3690150">
        <ele>304.2</ele>
        <time>2021-10-06T09:47:16Z</time>
      </trkpt>
      <trkpt lat="42.9070830" lon="-8.3692820">
        <ele>303.8</ele>
        <time>2021-10-06T09:47:20Z</time>
      </trkpt>
      <trkpt lat="42.9070020" lon="-8.3694270">
        <ele>303.6</ele>
        <time>2021-10-06T09:47:22Z</time>
      </trkpt>
      <trkpt lat="42.9069060" lon="-8.3697480">
        <ele>303.4</ele>
        <time>2021-10-06T09:47:26Z</time>
      </trkpt>
      <trkpt lat="42.9068720" lon="-8.3698350">
        <ele>303.2</ele>
        <time>2021-10-06T09:47:27Z</time>
      </trkpt>
      <trkpt lat="42.9067540" lon="-8.3700910">
        <ele>303.2</ele>
        <time>2021-10-06T09:47:30Z</time>
      </trkpt>
      <trkpt lat="42.9066830" lon="-8.3702430">
        <ele>302.0</ele>
        <time>2021-10-06T09:47:32Z</time>
      </trkpt>
      <trkpt lat="42.9066500" lon="-8.3702950">
        <ele>301.2</ele>
        <time>2021-10-06T09:47:33Z</time>
      </trkpt>
      <trkpt lat="42.9066150" lon="-8.3703280">
        <ele>300.4</ele>
        <time>2021-10-06T09:47:34Z</time>
      </trkpt>
      <trkpt lat="42.9065140" lon="-8.3703700">
        <ele>299.2</ele>
        <time>2021-10-06T09:47:36Z</time>
      </trkpt>
      <trkpt lat="42.9064540" lon="-8.3704080">
        <ele>299.0</ele>
        <time>2021-10-06T09:47:37Z</time>
      </trkpt>
      <trkpt lat="42.9063980" lon="-8.3707200">
        <ele>298.2</ele>
        <time>2021-10-06T09:47:42Z</time>
      </trkpt>
      <trkpt lat="42.9064330" lon="-8.3707840">
        <ele>298.2</ele>
        <time>2021-10-06T09:47:43Z</time>
      </trkpt>
      <trkpt lat="42.9064930" lon="-8.3709130">
        <ele>297.4</ele>
        <time>2021-10-06T09:47:45Z</time>
      </trkpt>
      <trkpt lat="42.9065000" lon="-8.3709830">
        <ele>296.8</ele>
        <time>2021-10-06T09:47:46Z</time>
      </trkpt>
      <trkpt lat="42.9063420" lon="-8.3712520">
        <ele>295.4</ele>
        <time>2021-10-06T09:47:50Z</time>
      </trkpt>
      <trkpt lat="42.9062390" lon="-8.3713770">
        <ele>294.2</ele>
        <time>2021-10-06T09:47:52Z</time>
      </trkpt>
      <trkpt lat="42.9060920" lon="-8.3715880">
        <ele>293.2</ele>
        <time>2021-10-06T09:47:55Z</time>
      </trkpt>
      <trkpt lat="42.9060410" lon="-8.3716480">
        <ele>292.4</ele>
        <time>2021-10-06T09:47:56Z</time>
      </trkpt>
      <trkpt lat="42.9059890" lon="-8.3717030">
        <ele>291.6</ele>
        <time>2021-10-06T09:47:57Z</time>
      </trkpt>
      <trkpt lat="42.9059350" lon="-8.3717520">
        <ele>290.4</ele>
        <time>2021-10-06T09:47:58Z</time>
      </trkpt>
      <trkpt lat="42.9058890" lon="-8.3718020">
        <ele>289.4</ele>
        <time>2021-10-06T09:47:59Z</time>
      </trkpt>
      <trkpt lat="42.9058530" lon="-8.3718530">
        <ele>288.8</ele>
        <time>2021-10-06T09:48:00Z</time>
      </trkpt>
      <trkpt lat="42.9058380" lon="-8.3719030">
        <ele>287.6</ele>
        <time>2021-10-06T09:48:01Z</time>
      </trkpt>
      <trkpt lat="42.9058540" lon="-8.3720010">
        <ele>286.8</ele>
        <time>2021-10-06T09:48:03Z</time>
      </trkpt>
      <trkpt lat="42.9059020" lon="-8.3720850">
        <ele>286.6</ele>
        <time>2021-10-06T09:48:05Z</time>
      </trkpt>
      <trkpt lat="42.9059360" lon="-8.3721190">
        <ele>286.4</ele>
        <time>2021-10-06T09:48:06Z</time>
      </trkpt>
      <trkpt lat="42.9060130" lon="-8.3721960">
        <ele>286.4</ele>
        <time>2021-10-06T09:48:08Z</time>
      </trkpt>
      <trkpt lat="42.9061050" lon="-8.3723320">
        <ele>286.4</ele>
        <time>2021-10-06T09:48:11Z</time>
      </trkpt>
      <trkpt lat="42.9061220" lon="-8.3725220">
        <ele>286.6</ele>
        <time>2021-10-06T09:48:14Z</time>
      </trkpt>
      <trkpt lat="42.9060810" lon="-8.3727340">
        <ele>286.8</ele>
        <time>2021-10-06T09:48:17Z</time>
      </trkpt>
      <trkpt lat="42.9060710" lon="-8.3730520">
        <ele>287.6</ele>
        <time>2021-10-06T09:48:22Z</time>
      </trkpt>
      <trkpt lat="42.9060060" lon="-8.3733550">
        <ele>288.6</ele>
        <time>2021-10-06T09:48:27Z</time>
      </trkpt>
      <trkpt lat="42.9059720" lon="-8.3734710">
        <ele>289.0</ele>
        <time>2021-10-06T09:48:29Z</time>
      </trkpt>
      <trkpt lat="42.9059300" lon="-8.3735870">
        <ele>289.0</ele>
        <time>2021-10-06T09:48:31Z</time>
      </trkpt>
      <trkpt lat="42.9058750" lon="-8.3737220">
        <ele>289.2</ele>
        <time>2021-10-06T09:48:33Z</time>
      </trkpt>
      <trkpt lat="42.9057870" lon="-8.3739250">
        <ele>289.8</ele>
        <time>2021-10-06T09:48:36Z</time>
      </trkpt>
      <trkpt lat="42.9057580" lon="-8.3739810">
        <ele>289.8</ele>
        <time>2021-10-06T09:48:37Z</time>
      </trkpt>
      <trkpt lat="42.9057330" lon="-8.3740420">
        <ele>290.0</ele>
        <time>2021-10-06T09:48:38Z</time>
      </trkpt>
      <trkpt lat="42.9056090" lon="-8.3744160">
        <ele>290.2</ele>
        <time>2021-10-06T09:48:44Z</time>
      </trkpt>
      <trkpt lat="42.9055800" lon="-8.3744700">
        <ele>290.2</ele>
        <time>2021-10-06T09:48:45Z</time>
      </trkpt>
      <trkpt lat="42.9054200" lon="-8.3747040">
        <ele>291.2</ele>
        <time>2021-10-06T09:48:51Z</time>
      </trkpt>
      <trkpt lat="42.9052800" lon="-8.3748290">
        <ele>292.4</ele>
        <time>2021-10-06T09:48:55Z</time>
      </trkpt>
      <trkpt lat="42.9051890" lon="-8.3749080">
        <ele>293.4</ele>
        <time>2021-10-06T09:48:57Z</time>
      </trkpt>
      <trkpt lat="42.9051430" lon="-8.3749490">
        <ele>293.6</ele>
        <time>2021-10-06T09:48:58Z</time>
      </trkpt>
      <trkpt lat="42.9049970" lon="-8.3750910">
        <ele>293.6</ele>
        <time>2021-10-06T09:49:01Z</time>
      </trkpt>
      <trkpt lat="42.9047500" lon="-8.3754090">
        <ele>293.8</ele>
        <time>2021-10-06T09:49:07Z</time>
      </trkpt>
      <trkpt lat="42.9043610" lon="-8.3759520">
        <ele>294.4</ele>
        <time>2021-10-06T09:49:20Z</time>
      </trkpt>
      <trkpt lat="42.9042670" lon="-8.3760940">
        <ele>295.0</ele>
        <time>2021-10-06T09:49:23Z</time>
      </trkpt>
      <trkpt lat="42.9042370" lon="-8.3761620">
        <ele>295.2</ele>
        <time>2021-10-06T09:49:24Z</time>
      </trkpt>
      <trkpt lat="42.9041840" lon="-8.3763020">
        <ele>295.4</ele>
        <time>2021-10-06T09:49:26Z</time>
      </trkpt>
      <trkpt lat="42.9041090" lon="-8.3765260">
        <ele>296.0</ele>
        <time>2021-10-06T09:49:30Z</time>
      </trkpt>
      <trkpt lat="42.9039370" lon="-8.3771260">
        <ele>297.2</ele>
        <time>2021-10-06T09:49:40Z</time>
      </trkpt>
      <trkpt lat="42.9038630" lon="-8.3775720">
        <ele>298.4</ele>
        <time>2021-10-06T09:49:48Z</time>
      </trkpt>
      <trkpt lat="42.9038260" lon="-8.3779390">
        <ele>299.4</ele>
        <time>2021-10-06T09:49:55Z</time>
      </trkpt>
      <trkpt lat="42.9037880" lon="-8.3781490">
        <ele>300.6</ele>
        <time>2021-10-06T09:49:58Z</time>
      </trkpt>
      <trkpt lat="42.9037560" lon="-8.3786340">
        <ele>301.6</ele>
        <time>2021-10-06T09:50:05Z</time>
      </trkpt>
      <trkpt lat="42.9037130" lon="-8.3790820">
        <ele>302.2</ele>
        <time>2021-10-06T09:50:11Z</time>
      </trkpt>
      <trkpt lat="42.9037020" lon="-8.3793980">
        <ele>302.4</ele>
        <time>2021-10-06T09:50:15Z</time>
      </trkpt>
      <trkpt lat="42.9037070" lon="-8.3798050">
        <ele>302.6</ele>
        <time>2021-10-06T09:50:21Z</time>
      </trkpt>
      <trkpt lat="42.9037210" lon="-8.3801480">
        <ele>303.8</ele>
        <time>2021-10-06T09:50:27Z</time>
      </trkpt>
      <trkpt lat="42.9037410" lon="-8.3802940">
        <ele>304.2</ele>
        <time>2021-10-06T09:50:29Z</time>
      </trkpt>
      <trkpt lat="42.9037860" lon="-8.3810390">
        <ele>304.4</ele>
        <time>2021-10-06T09:50:37Z</time>
      </trkpt>
      <trkpt lat="42.9037780" lon="-8.3812180">
        <ele>304.4</ele>
        <time>2021-10-06T09:50:39Z</time>
      </trkpt>
      <trkpt lat="42.9037680" lon="-8.3812970">
        <ele>304.2</ele>
        <time>2021-10-06T09:50:40Z</time>
      </trkpt>
      <trkpt lat="42.9037220" lon="-8.3814190">
        <ele>303.6</ele>
        <time>2021-10-06T09:50:42Z</time>
      </trkpt>
      <trkpt lat="42.9036500" lon="-8.3815350">
        <ele>303.0</ele>
        <time>2021-10-06T09:50:44Z</time>
      </trkpt>
      <trkpt lat="42.9036470" lon="-8.3816870">
        <ele>302.6</ele>
        <time>2021-10-06T09:50:46Z</time>
      </trkpt>
      <trkpt lat="42.9036810" lon="-8.3818360">
        <ele>302.4</ele>
        <time>2021-10-06T09:50:48Z</time>
      </trkpt>
      <trkpt lat="42.9038500" lon="-8.3825560">
        <ele>302.4</ele>
        <time>2021-10-06T09:50:58Z</time>
      </trkpt>
      <trkpt lat="42.9040500" lon="-8.3832390">
        <ele>302.8</ele>
        <time>2021-10-06T09:51:08Z</time>
      </trkpt>
      <trkpt lat="42.9042750" lon="-8.3838980">
        <ele>303.0</ele>
        <time>2021-10-06T09:51:19Z</time>
      </trkpt>
      <trkpt lat="42.9043700" lon="-8.3841770">
        <ele>303.8</ele>
        <time>2021-10-06T09:51:24Z</time>
      </trkpt>
      <trkpt lat="42.9044580" lon="-8.3844920">
        <ele>304.8</ele>
        <time>2021-10-06T09:51:30Z</time>
      </trkpt>
      <trkpt lat="42.9045630" lon="-8.3847490">
        <ele>306.0</ele>
        <time>2021-10-06T09:51:35Z</time>
      </trkpt>
      <trkpt lat="42.9046350" lon="-8.3849260">
        <ele>307.2</ele>
        <time>2021-10-06T09:51:39Z</time>
      </trkpt>
      <trkpt lat="42.9046970" lon="-8.3851310">
        <ele>308.4</ele>
        <time>2021-10-06T09:51:43Z</time>
      </trkpt>
      <trkpt lat="42.9047930" lon="-8.3854140">
        <ele>309.4</ele>
        <time>2021-10-06T09:51:48Z</time>
      </trkpt>
      <trkpt lat="42.9048540" lon="-8.3856580">
        <ele>309.8</ele>
        <time>2021-10-06T09:51:52Z</time>
      </trkpt>
      <trkpt lat="42.9048620" lon="-8.3857970">
        <ele>309.8</ele>
        <time>2021-10-06T09:51:54Z</time>
      </trkpt>
      <trkpt lat="42.9048140" lon="-8.3859670">
        <ele>309.8</ele>
        <time>2021-10-06T09:51:57Z</time>
      </trkpt>
      <trkpt lat="42.9047250" lon="-8.3860840">
        <ele>309.8</ele>
        <time>2021-10-06T09:51:59Z</time>
      </trkpt>
      <trkpt lat="42.9046490" lon="-8.3861780">
        <ele>309.6</ele>
        <time>2021-10-06T09:52:01Z</time>
      </trkpt>
      <trkpt lat="42.9046180" lon="-8.3862710">
        <ele>308.4</ele>
        <time>2021-10-06T09:52:03Z</time>
      </trkpt>
      <trkpt lat="42.9045590" lon="-8.3863750">
        <ele>307.4</ele>
        <time>2021-10-06T09:52:05Z</time>
      </trkpt>
      <trkpt lat="42.9044890" lon="-8.3864580">
        <ele>306.0</ele>
        <time>2021-10-06T09:52:07Z</time>
      </trkpt>
      <trkpt lat="42.9043870" lon="-8.3865290">
        <ele>304.8</ele>
        <time>2021-10-06T09:52:09Z</time>
      </trkpt>
      <trkpt lat="42.9041220" lon="-8.3866730">
        <ele>304.0</ele>
        <time>2021-10-06T09:52:13Z</time>
      </trkpt>
      <trkpt lat="42.9038720" lon="-8.3867890">
        <ele>302.8</ele>
        <time>2021-10-06T09:52:16Z</time>
      </trkpt>
      <trkpt lat="42.9036900" lon="-8.3868740">
        <ele>301.6</ele>
        <time>2021-10-06T09:52:18Z</time>
      </trkpt>
      <trkpt lat="42.9035200" lon="-8.3869560">
        <ele>300.2</ele>
        <time>2021-10-06T09:52:20Z</time>
      </trkpt>
      <trkpt lat="42.9034440" lon="-8.3869900">
        <ele>299.2</ele>
        <time>2021-10-06T09:52:21Z</time>
      </trkpt>
      <trkpt lat="42.9033840" lon="-8.3870350">
        <ele>298.2</ele>
        <time>2021-10-06T09:52:22Z</time>
      </trkpt>
      <trkpt lat="42.9033410" lon="-8.3871010">
        <ele>297.0</ele>
        <time>2021-10-06T09:52:23Z</time>
      </trkpt>
      <trkpt lat="42.9033180" lon="-8.3871880">
        <ele>296.0</ele>
        <time>2021-10-06T09:52:24Z</time>
      </trkpt>
      <trkpt lat="42.9033350" lon="-8.3873710">
        <ele>294.0</ele>
        <time>2021-10-06T09:52:26Z</time>
      </trkpt>
      <trkpt lat="42.9033590" lon="-8.3874610">
        <ele>293.0</ele>
        <time>2021-10-06T09:52:27Z</time>
      </trkpt>
      <trkpt lat="42.9033850" lon="-8.3875500">
        <ele>292.6</ele>
        <time>2021-10-06T09:52:28Z</time>
      </trkpt>
      <trkpt lat="42.9034960" lon="-8.3878960">
        <ele>291.0</ele>
        <time>2021-10-06T09:52:32Z</time>
      </trkpt>
      <trkpt lat="42.9035450" lon="-8.3880740">
        <ele>290.2</ele>
        <time>2021-10-06T09:52:34Z</time>
      </trkpt>
      <trkpt lat="42.9035700" lon="-8.3881630">
        <ele>289.8</ele>
        <time>2021-10-06T09:52:35Z</time>
      </trkpt>
      <trkpt lat="42.9036190" lon="-8.3883360">
        <ele>288.6</ele>
        <time>2021-10-06T09:52:37Z</time>
      </trkpt>
      <trkpt lat="42.9037170" lon="-8.3886820">
        <ele>287.6</ele>
        <time>2021-10-06T09:52:41Z</time>
      </trkpt>
      <trkpt lat="42.9037700" lon="-8.3888610">
        <ele>286.8</ele>
        <time>2021-10-06T09:52:43Z</time>
      </trkpt>
      <trkpt lat="42.9038410" lon="-8.3890450">
        <ele>286.4</ele>
        <time>2021-10-06T09:52:45Z</time>
      </trkpt>
      <trkpt lat="42.9040580" lon="-8.3893980">
        <ele>285.2</ele>
        <time>2021-10-06T09:52:49Z</time>
      </trkpt>
      <trkpt lat="42.9042560" lon="-8.3896140">
        <ele>283.8</ele>
        <time>2021-10-06T09:52:52Z</time>
      </trkpt>
      <trkpt lat="42.9043620" lon="-8.3897850">
        <ele>282.8</ele>
        <time>2021-10-06T09:52:54Z</time>
      </trkpt>
      <trkpt lat="42.9043970" lon="-8.3898910">
        <ele>282.6</ele>
        <time>2021-10-06T09:52:55Z</time>
      </trkpt>
      <trkpt lat="42.9044320" lon="-8.3901260">
        <ele>281.0</ele>
        <time>2021-10-06T09:52:57Z</time>
      </trkpt>
      <trkpt lat="42.9044370" lon="-8.3902490">
        <ele>279.8</ele>
        <time>2021-10-06T09:52:58Z</time>
      </trkpt>
      <trkpt lat="42.9044330" lon="-8.3904970">
        <ele>278.4</ele>
        <time>2021-10-06T09:53:00Z</time>
      </trkpt>
      <trkpt lat="42.9044430" lon="-8.3907300">
        <ele>277.6</ele>
        <time>2021-10-06T09:53:02Z</time>
      </trkpt>
      <trkpt lat="42.9044640" lon="-8.3908390">
        <ele>276.8</ele>
        <time>2021-10-06T09:53:03Z</time>
      </trkpt>
      <trkpt lat="42.9045340" lon="-8.3910090">
        <ele>275.2</ele>
        <time>2021-10-06T09:53:05Z</time>
      </trkpt>
      <trkpt lat="42.9046240" lon="-8.3911100">
        <ele>274.0</ele>
        <time>2021-10-06T09:53:07Z</time>
      </trkpt>
      <trkpt lat="42.9047710" lon="-8.3911550">
        <ele>272.6</ele>
        <time>2021-10-06T09:53:10Z</time>
      </trkpt>
      <trkpt lat="42.9048830" lon="-8.3912220">
        <ele>271.8</ele>
        <time>2021-10-06T09:53:12Z</time>
      </trkpt>
      <trkpt lat="42.9049430" lon="-8.3912730">
        <ele>271.6</ele>
        <time>2021-10-06T09:53:13Z</time>
      </trkpt>
      <trkpt lat="42.9049940" lon="-8.3913260">
        <ele>271.2</ele>
        <time>2021-10-06T09:53:14Z</time>
      </trkpt>
      <trkpt lat="42.9050510" lon="-8.3913830">
        <ele>270.8</ele>
        <time>2021-10-06T09:53:15Z</time>
      </trkpt>
      <trkpt lat="42.9051090" lon="-8.3914360">
        <ele>270.4</ele>
        <time>2021-10-06T09:53:16Z</time>
      </trkpt>
      <trkpt lat="42.9052790" lon="-8.3916080">
        <ele>269.2</ele>
        <time>2021-10-06T09:53:19Z</time>
      </trkpt>
      <trkpt lat="42.9053700" lon="-8.3917590">
        <ele>268.6</ele>
        <time>2021-10-06T09:53:21Z</time>
      </trkpt>
      <trkpt lat="42.9054430" lon="-8.3919290">
        <ele>268.4</ele>
        <time>2021-10-06T09:53:23Z</time>
      </trkpt>
      <trkpt lat="42.9056330" lon="-8.3924410">
        <ele>268.4</ele>
        <time>2021-10-06T09:53:29Z</time>
      </trkpt>
      <trkpt lat="42.9058810" lon="-8.3931300">
        <ele>267.6</ele>
        <time>2021-10-06T09:53:40Z</time>
      </trkpt>
      <trkpt lat="42.9059010" lon="-8.3935800">
        <ele>270.0</ele>
        <time>2021-10-06T09:56:19Z</time>
      </trkpt>
      <trkpt lat="42.9058830" lon="-8.3937810">
        <ele>270.0</ele>
        <time>2021-10-06T09:56:24Z</time>
      </trkpt>
      <trkpt lat="42.9058840" lon="-8.3939380">
        <ele>269.2</ele>
        <time>2021-10-06T09:56:29Z</time>
      </trkpt>
      <trkpt lat="42.9059020" lon="-8.3940200">
        <ele>268.8</ele>
        <time>2021-10-06T09:56:31Z</time>
      </trkpt>
      <trkpt lat="42.9059330" lon="-8.3940830">
        <ele>268.8</ele>
        <time>2021-10-06T09:56:33Z</time>
      </trkpt>
      <trkpt lat="42.9059400" lon="-8.3941180">
        <ele>268.8</ele>
        <time>2021-10-06T09:56:34Z</time>
      </trkpt>
      <trkpt lat="42.9059620" lon="-8.3941840">
        <ele>268.8</ele>
        <time>2021-10-06T09:56:36Z</time>
      </trkpt>
      <trkpt lat="42.9059680" lon="-8.3942640">
        <ele>269.0</ele>
        <time>2021-10-06T09:56:38Z</time>
      </trkpt>
      <trkpt lat="42.9059700" lon="-8.3943040">
        <ele>269.2</ele>
        <time>2021-10-06T09:56:39Z</time>
      </trkpt>
      <trkpt lat="42.9059710" lon="-8.3943760">
        <ele>270.0</ele>
        <time>2021-10-06T09:56:41Z</time>
      </trkpt>
      <trkpt lat="42.9059700" lon="-8.3944430">
        <ele>271.0</ele>
        <time>2021-10-06T09:56:43Z</time>
      </trkpt>
      <trkpt lat="42.9059690" lon="-8.3944770">
        <ele>271.2</ele>
        <time>2021-10-06T09:56:44Z</time>
      </trkpt>
      <trkpt lat="42.9059530" lon="-8.3946160">
        <ele>272.4</ele>
        <time>2021-10-06T09:56:48Z</time>
      </trkpt>
      <trkpt lat="42.9058990" lon="-8.3948500">
        <ele>273.2</ele>
        <time>2021-10-06T09:56:54Z</time>
      </trkpt>
      <trkpt lat="42.9058900" lon="-8.3950070">
        <ele>273.6</ele>
        <time>2021-10-06T09:56:58Z</time>
      </trkpt>
      <trkpt lat="42.9058730" lon="-8.3951410">
        <ele>274.2</ele>
        <time>2021-10-06T09:57:03Z</time>
      </trkpt>
      <trkpt lat="42.9058620" lon="-8.3952700">
        <ele>274.8</ele>
        <time>2021-10-06T09:57:07Z</time>
      </trkpt>
      <trkpt lat="42.9058150" lon="-8.3954950">
        <ele>275.8</ele>
        <time>2021-10-06T09:57:13Z</time>
      </trkpt>
      <trkpt lat="42.9057870" lon="-8.3956350">
        <ele>276.0</ele>
        <time>2021-10-06T09:57:15Z</time>
      </trkpt>
      <trkpt lat="42.9057210" lon="-8.3959230">
        <ele>277.2</ele>
        <time>2021-10-06T09:57:21Z</time>
      </trkpt>
      <trkpt lat="42.9056870" lon="-8.3960890">
        <ele>278.4</ele>
        <time>2021-10-06T09:57:26Z</time>
      </trkpt>
      <trkpt lat="42.9056650" lon="-8.3962840">
        <ele>279.6</ele>
        <time>2021-10-06T09:57:31Z</time>
      </trkpt>
      <trkpt lat="42.9056180" lon="-8.3966180">
        <ele>280.8</ele>
        <time>2021-10-06T09:57:38Z</time>
      </trkpt>
      <trkpt lat="42.9055980" lon="-8.3968300">
        <ele>282.2</ele>
        <time>2021-10-06T09:57:43Z</time>
      </trkpt>
      <trkpt lat="42.9055610" lon="-8.3970390">
        <ele>283.0</ele>
        <time>2021-10-06T09:57:49Z</time>
      </trkpt>
      <trkpt lat="42.9055560" lon="-8.3970770">
        <ele>283.2</ele>
        <time>2021-10-06T09:57:50Z</time>
      </trkpt>
      <trkpt lat="42.9055280" lon="-8.3972300">
        <ele>284.2</ele>
        <time>2021-10-06T09:57:54Z</time>
      </trkpt>
      <trkpt lat="42.9055210" lon="-8.3973190">
        <ele>284.6</ele>
        <time>2021-10-06T09:57:56Z</time>
      </trkpt>
      <trkpt lat="42.9055340" lon="-8.3974760">
        <ele>285.8</ele>
        <time>2021-10-06T09:58:00Z</time>
      </trkpt>
      <trkpt lat="42.9055220" lon="-8.3975790">
        <ele>287.0</ele>
        <time>2021-10-06T09:58:03Z</time>
      </trkpt>
      <trkpt lat="42.9055100" lon="-8.3976610">
        <ele>288.0</ele>
        <time>2021-10-06T09:58:06Z</time>
      </trkpt>
      <trkpt lat="42.9055090" lon="-8.3977410">
        <ele>289.2</ele>
        <time>2021-10-06T09:58:09Z</time>
      </trkpt>
      <trkpt lat="42.9055360" lon="-8.3978640">
        <ele>290.6</ele>
        <time>2021-10-06T09:58:13Z</time>
      </trkpt>
      <trkpt lat="42.9055710" lon="-8.3979420">
        <ele>292.0</ele>
        <time>2021-10-06T09:58:16Z</time>
      </trkpt>
      <trkpt lat="42.9056180" lon="-8.3979870">
        <ele>293.8</ele>
        <time>2021-10-06T09:58:19Z</time>
      </trkpt>
      <trkpt lat="42.9056660" lon="-8.3980290">
        <ele>295.2</ele>
        <time>2021-10-06T09:58:22Z</time>
      </trkpt>
      <trkpt lat="42.9057480" lon="-8.3980610">
        <ele>296.4</ele>
        <time>2021-10-06T09:58:26Z</time>
      </trkpt>
      <trkpt lat="42.9057620" lon="-8.3980690">
        <ele>296.4</ele>
        <time>2021-10-06T09:58:27Z</time>
      </trkpt>
      <trkpt lat="42.9057870" lon="-8.3980770">
        <ele>296.6</ele>
        <time>2021-10-06T09:58:28Z</time>
      </trkpt>
      <trkpt lat="42.9058680" lon="-8.3981740">
        <ele>297.4</ele>
        <time>2021-10-06T09:58:34Z</time>
      </trkpt>
      <trkpt lat="42.9059110" lon="-8.3982880">
        <ele>298.6</ele>
        <time>2021-10-06T09:58:39Z</time>
      </trkpt>
      <trkpt lat="42.9059700" lon="-8.3984410">
        <ele>299.8</ele>
        <time>2021-10-06T09:58:46Z</time>
      </trkpt>
      <trkpt lat="42.9060100" lon="-8.3985350">
        <ele>300.8</ele>
        <time>2021-10-06T09:58:50Z</time>
      </trkpt>
      <trkpt lat="42.9060660" lon="-8.3986550">
        <ele>302.0</ele>
        <time>2021-10-06T09:58:55Z</time>
      </trkpt>
      <trkpt lat="42.9060920" lon="-8.3987390">
        <ele>303.0</ele>
        <time>2021-10-06T09:58:58Z</time>
      </trkpt>
      <trkpt lat="42.9061390" lon="-8.3988460">
        <ele>304.2</ele>
        <time>2021-10-06T09:59:02Z</time>
      </trkpt>
      <trkpt lat="42.9061990" lon="-8.3989520">
        <ele>305.2</ele>
        <time>2021-10-06T09:59:06Z</time>
      </trkpt>
      <trkpt lat="42.9062360" lon="-8.3991060">
        <ele>306.4</ele>
        <time>2021-10-06T09:59:11Z</time>
      </trkpt>
      <trkpt lat="42.9062760" lon="-8.3992350">
        <ele>306.8</ele>
        <time>2021-10-06T09:59:15Z</time>
      </trkpt>
      <trkpt lat="42.9063690" lon="-8.3995510">
        <ele>307.6</ele>
        <time>2021-10-06T09:59:24Z</time>
      </trkpt>
      <trkpt lat="42.9063820" lon="-8.3997030">
        <ele>308.6</ele>
        <time>2021-10-06T09:59:28Z</time>
      </trkpt>
      <trkpt lat="42.9063320" lon="-8.3999530">
        <ele>309.6</ele>
        <time>2021-10-06T09:59:34Z</time>
      </trkpt>
      <trkpt lat="42.9062750" lon="-8.4004150">
        <ele>310.6</ele>
        <time>2021-10-06T09:59:44Z</time>
      </trkpt>
      <trkpt lat="42.9062420" lon="-8.4006560">
        <ele>311.8</ele>
        <time>2021-10-06T09:59:49Z</time>
      </trkpt>
      <trkpt lat="42.9061970" lon="-8.4007820">
        <ele>312.2</ele>
        <time>2021-10-06T09:59:52Z</time>
      </trkpt>
      <trkpt lat="42.9061530" lon="-8.4009410">
        <ele>312.6</ele>
        <time>2021-10-06T09:59:56Z</time>
      </trkpt>
      <trkpt lat="42.9061260" lon="-8.4010110">
        <ele>313.0</ele>
        <time>2021-10-06T09:59:58Z</time>
      </trkpt>
      <trkpt lat="42.9060970" lon="-8.4011160">
        <ele>313.8</ele>
        <time>2021-10-06T10:00:01Z</time>
      </trkpt>
      <trkpt lat="42.9060850" lon="-8.4011570">
        <ele>314.0</ele>
        <time>2021-10-06T10:00:02Z</time>
      </trkpt>
      <trkpt lat="42.9060750" lon="-8.4013970">
        <ele>314.4</ele>
        <time>2021-10-06T10:00:07Z</time>
      </trkpt>
      <trkpt lat="42.9060890" lon="-8.4015660">
        <ele>314.6</ele>
        <time>2021-10-06T10:00:11Z</time>
      </trkpt>
      <trkpt lat="42.9060990" lon="-8.4016720">
        <ele>314.6</ele>
        <time>2021-10-06T10:00:14Z</time>
      </trkpt>
      <trkpt lat="42.9061800" lon="-8.4019830">
        <ele>315.2</ele>
        <time>2021-10-06T10:00:23Z</time>
      </trkpt>
      <trkpt lat="42.9061820" lon="-8.4021350">
        <ele>315.8</ele>
        <time>2021-10-06T10:00:28Z</time>
      </trkpt>
      <trkpt lat="42.9061740" lon="-8.4022210">
        <ele>316.2</ele>
        <time>2021-10-06T10:00:31Z</time>
      </trkpt>
      <trkpt lat="42.9061670" lon="-8.4023440">
        <ele>317.6</ele>
        <time>2021-10-06T10:00:35Z</time>
      </trkpt>
      <trkpt lat="42.9061630" lon="-8.4023680">
        <ele>318.0</ele>
        <time>2021-10-06T10:00:37Z</time>
      </trkpt>
      <trkpt lat="42.9061280" lon="-8.4024620">
        <ele>318.8</ele>
        <time>2021-10-06T10:00:48Z</time>
      </trkpt>
      <trkpt lat="42.9060570" lon="-8.4025410">
        <ele>318.8</ele>
        <time>2021-10-06T10:00:52Z</time>
      </trkpt>
      <trkpt lat="42.9059580" lon="-8.4026630">
        <ele>318.8</ele>
        <time>2021-10-06T10:00:57Z</time>
      </trkpt>
      <trkpt lat="42.9059200" lon="-8.4027470">
        <ele>318.6</ele>
        <time>2021-10-06T10:00:59Z</time>
      </trkpt>
      <trkpt lat="42.9058780" lon="-8.4028640">
        <ele>319.2</ele>
        <time>2021-10-06T10:01:02Z</time>
      </trkpt>
      <trkpt lat="42.9058720" lon="-8.4029340">
        <ele>319.6</ele>
        <time>2021-10-06T10:01:04Z</time>
      </trkpt>
      <trkpt lat="42.9058730" lon="-8.4029900">
        <ele>320.2</ele>
        <time>2021-10-06T10:01:06Z</time>
      </trkpt>
      <trkpt lat="42.9058650" lon="-8.4030140">
        <ele>320.6</ele>
        <time>2021-10-06T10:01:07Z</time>
      </trkpt>
      <trkpt lat="42.9058590" lon="-8.4030440">
        <ele>320.8</ele>
        <time>2021-10-06T10:01:08Z</time>
      </trkpt>
      <trkpt lat="42.9058450" lon="-8.4031540">
        <ele>322.2</ele>
        <time>2021-10-06T10:01:11Z</time>
      </trkpt>
      <trkpt lat="42.9058390" lon="-8.4032060">
        <ele>322.6</ele>
        <time>2021-10-06T10:01:12Z</time>
      </trkpt>
      <trkpt lat="42.9058170" lon="-8.4033130">
        <ele>323.4</ele>
        <time>2021-10-06T10:01:14Z</time>
      </trkpt>
      <trkpt lat="42.9057930" lon="-8.4034680">
        <ele>324.6</ele>
        <time>2021-10-06T10:01:17Z</time>
      </trkpt>
      <trkpt lat="42.9057940" lon="-8.4036690">
        <ele>325.8</ele>
        <time>2021-10-06T10:01:21Z</time>
      </trkpt>
      <trkpt lat="42.9058010" lon="-8.4038520">
        <ele>326.8</ele>
        <time>2021-10-06T10:01:25Z</time>
      </trkpt>
      <trkpt lat="42.9058450" lon="-8.4040590">
        <ele>327.8</ele>
        <time>2021-10-06T10:01:30Z</time>
      </trkpt>
      <trkpt lat="42.9059060" lon="-8.4042700">
        <ele>329.0</ele>
        <time>2021-10-06T10:01:35Z</time>
      </trkpt>
      <trkpt lat="42.9059430" lon="-8.4044320">
        <ele>330.0</ele>
        <time>2021-10-06T10:01:39Z</time>
      </trkpt>
      <trkpt lat="42.9059460" lon="-8.4045940">
        <ele>331.4</ele>
        <time>2021-10-06T10:01:43Z</time>
      </trkpt>
      <trkpt lat="42.9059440" lon="-8.4047090">
        <ele>332.6</ele>
        <time>2021-10-06T10:01:46Z</time>
      </trkpt>
      <trkpt lat="42.9059520" lon="-8.4048570">
        <ele>334.0</ele>
        <time>2021-10-06T10:01:50Z</time>
      </trkpt>
      <trkpt lat="42.9059500" lon="-8.4050560">
        <ele>335.0</ele>
        <time>2021-10-06T10:01:55Z</time>
      </trkpt>
      <trkpt lat="42.9059420" lon="-8.4054100">
        <ele>336.2</ele>
        <time>2021-10-06T10:02:03Z</time>
      </trkpt>
      <trkpt lat="42.9059260" lon="-8.4057020">
        <ele>337.2</ele>
        <time>2021-10-06T10:02:09Z</time>
      </trkpt>
      <trkpt lat="42.9059030" lon="-8.4059320">
        <ele>338.4</ele>
        <time>2021-10-06T10:02:14Z</time>
      </trkpt>
      <trkpt lat="42.9059070" lon="-8.4061170">
        <ele>339.6</ele>
        <time>2021-10-06T10:02:18Z</time>
      </trkpt>
      <trkpt lat="42.9059170" lon="-8.4062410">
        <ele>340.6</ele>
        <time>2021-10-06T10:02:21Z</time>
      </trkpt>
      <trkpt lat="42.9059070" lon="-8.4064200">
        <ele>341.8</ele>
        <time>2021-10-06T10:02:25Z</time>
      </trkpt>
      <trkpt lat="42.9059070" lon="-8.4066370">
        <ele>343.0</ele>
        <time>2021-10-06T10:02:30Z</time>
      </trkpt>
      <trkpt lat="42.9058770" lon="-8.4067960">
        <ele>344.0</ele>
        <time>2021-10-06T10:02:34Z</time>
      </trkpt>
      <trkpt lat="42.9058720" lon="-8.4068940">
        <ele>345.2</ele>
        <time>2021-10-06T10:02:37Z</time>
      </trkpt>
      <trkpt lat="42.9058890" lon="-8.4070180">
        <ele>346.2</ele>
        <time>2021-10-06T10:02:40Z</time>
      </trkpt>
      <trkpt lat="42.9059130" lon="-8.4071800">
        <ele>347.2</ele>
        <time>2021-10-06T10:02:44Z</time>
      </trkpt>
      <trkpt lat="42.9059330" lon="-8.4073660">
        <ele>348.2</ele>
        <time>2021-10-06T10:02:49Z</time>
      </trkpt>
      <trkpt lat="42.9059400" lon="-8.4075100">
        <ele>349.4</ele>
        <time>2021-10-06T10:02:53Z</time>
      </trkpt>
      <trkpt lat="42.9059360" lon="-8.4076090">
        <ele>350.8</ele>
        <time>2021-10-06T10:02:56Z</time>
      </trkpt>
      <trkpt lat="42.9059340" lon="-8.4077320">
        <ele>352.0</ele>
        <time>2021-10-06T10:03:00Z</time>
      </trkpt>
      <trkpt lat="42.9059240" lon="-8.4077880">
        <ele>353.0</ele>
        <time>2021-10-06T10:03:02Z</time>
      </trkpt>
      <trkpt lat="42.9059070" lon="-8.4078940">
        <ele>354.2</ele>
        <time>2021-10-06T10:03:05Z</time>
      </trkpt>
      <trkpt lat="42.9058900" lon="-8.4080000">
        <ele>355.2</ele>
        <time>2021-10-06T10:03:08Z</time>
      </trkpt>
      <trkpt lat="42.9058610" lon="-8.4081270">
        <ele>356.2</ele>
        <time>2021-10-06T10:03:12Z</time>
      </trkpt>
      <trkpt lat="42.9058380" lon="-8.4082620">
        <ele>356.6</ele>
        <time>2021-10-06T10:03:15Z</time>
      </trkpt>
      <trkpt lat="42.9058640" lon="-8.4086020">
        <ele>357.4</ele>
        <time>2021-10-06T10:03:21Z</time>
      </trkpt>
      <trkpt lat="42.9059280" lon="-8.4087440">
        <ele>357.6</ele>
        <time>2021-10-06T10:03:24Z</time>
      </trkpt>
      <trkpt lat="42.9060220" lon="-8.4092140">
        <ele>358.8</ele>
        <time>2021-10-06T10:03:32Z</time>
      </trkpt>
      <trkpt lat="42.9061180" lon="-8.4095420">
        <ele>359.8</ele>
        <time>2021-10-06T10:03:38Z</time>
      </trkpt>
      <trkpt lat="42.9061950" lon="-8.4097550">
        <ele>361.0</ele>
        <time>2021-10-06T10:03:42Z</time>
      </trkpt>
      <trkpt lat="42.9062420" lon="-8.4099160">
        <ele>362.0</ele>
        <time>2021-10-06T10:03:46Z</time>
      </trkpt>
      <trkpt lat="42.9062770" lon="-8.4100370">
        <ele>363.4</ele>
        <time>2021-10-06T10:03:49Z</time>
      </trkpt>
      <trkpt lat="42.9063340" lon="-8.4101420">
        <ele>364.6</ele>
        <time>2021-10-06T10:03:52Z</time>
      </trkpt>
      <trkpt lat="42.9064130" lon="-8.4102840">
        <ele>366.0</ele>
        <time>2021-10-06T10:03:56Z</time>
      </trkpt>
      <trkpt lat="42.9065090" lon="-8.4104600">
        <ele>367.4</ele>
        <time>2021-10-06T10:04:01Z</time>
      </trkpt>
      <trkpt lat="42.9065600" lon="-8.4105180">
        <ele>368.4</ele>
        <time>2021-10-06T10:04:03Z</time>
      </trkpt>
      <trkpt lat="42.9065860" lon="-8.4105400">
        <ele>368.6</ele>
        <time>2021-10-06T10:04:04Z</time>
      </trkpt>
      <trkpt lat="42.9066830" lon="-8.4105860">
        <ele>369.8</ele>
        <time>2021-10-06T10:04:07Z</time>
      </trkpt>
      <trkpt lat="42.9067530" lon="-8.4106380">
        <ele>370.4</ele>
        <time>2021-10-06T10:04:09Z</time>
      </trkpt>
      <trkpt lat="42.9068200" lon="-8.4106860">
        <ele>371.0</ele>
        <time>2021-10-06T10:04:11Z</time>
      </trkpt>
      <trkpt lat="42.9072330" lon="-8.4109600">
        <ele>371.8</ele>
        <time>2021-10-06T10:04:22Z</time>
      </trkpt>
      <trkpt lat="42.9072620" lon="-8.4109990">
        <ele>372.0</ele>
        <time>2021-10-06T10:04:23Z</time>
      </trkpt>
      <trkpt lat="42.9074700" lon="-8.4113580">
        <ele>373.4</ele>
        <time>2021-10-06T10:04:31Z</time>
      </trkpt>
      <trkpt lat="42.9075380" lon="-8.4116070">
        <ele>374.6</ele>
        <time>2021-10-06T10:04:36Z</time>
      </trkpt>
      <trkpt lat="42.9075690" lon="-8.4117560">
        <ele>375.6</ele>
        <time>2021-10-06T10:04:39Z</time>
      </trkpt>
      <trkpt lat="42.9076670" lon="-8.4120090">
        <ele>376.6</ele>
        <time>2021-10-06T10:04:45Z</time>
      </trkpt>
      <trkpt lat="42.9077620" lon="-8.4122620">
        <ele>377.8</ele>
        <time>2021-10-06T10:04:51Z</time>
      </trkpt>
      <trkpt lat="42.9077770" lon="-8.4124720">
        <ele>379.0</ele>
        <time>2021-10-06T10:04:55Z</time>
      </trkpt>
      <trkpt lat="42.9078430" lon="-8.4127470">
        <ele>380.0</ele>
        <time>2021-10-06T10:05:01Z</time>
      </trkpt>
      <trkpt lat="42.9079020" lon="-8.4129020">
        <ele>381.2</ele>
        <time>2021-10-06T10:05:05Z</time>
      </trkpt>
      <trkpt lat="42.9079470" lon="-8.4130770">
        <ele>382.6</ele>
        <time>2021-10-06T10:05:09Z</time>
      </trkpt>
      <trkpt lat="42.9079900" lon="-8.4132180">
        <ele>383.8</ele>
        <time>2021-10-06T10:05:12Z</time>
      </trkpt>
      <trkpt lat="42.9080770" lon="-8.4135590">
        <ele>385.0</ele>
        <time>2021-10-06T10:05:19Z</time>
      </trkpt>
      <trkpt lat="42.9081670" lon="-8.4139710">
        <ele>385.6</ele>
        <time>2021-10-06T10:05:27Z</time>
      </trkpt>
      <trkpt lat="42.9082300" lon="-8.4142070">
        <ele>385.8</ele>
        <time>2021-10-06T10:05:32Z</time>
      </trkpt>
      <trkpt lat="42.9082350" lon="-8.4142520">
        <ele>385.8</ele>
        <time>2021-10-06T10:05:33Z</time>
      </trkpt>
      <trkpt lat="42.9082760" lon="-8.4144440">
        <ele>385.8</ele>
        <time>2021-10-06T10:05:37Z</time>
      </trkpt>
      <trkpt lat="42.9083160" lon="-8.4145830">
        <ele>386.0</ele>
        <time>2021-10-06T10:05:40Z</time>
      </trkpt>
      <trkpt lat="42.9083790" lon="-8.4146660">
        <ele>386.0</ele>
        <time>2021-10-06T10:05:43Z</time>
      </trkpt>
      <trkpt lat="42.9084700" lon="-8.4147080">
        <ele>386.4</ele>
        <time>2021-10-06T10:05:47Z</time>
      </trkpt>
      <trkpt lat="42.9085000" lon="-8.4147120">
        <ele>386.4</ele>
        <time>2021-10-06T10:05:48Z</time>
      </trkpt>
      <trkpt lat="42.9085690" lon="-8.4147210">
        <ele>386.4</ele>
        <time>2021-10-06T10:05:51Z</time>
      </trkpt>
      <trkpt lat="42.9088700" lon="-8.4146850">
        <ele>385.8</ele>
        <time>2021-10-06T10:05:59Z</time>
      </trkpt>
      <trkpt lat="42.9093540" lon="-8.4146180">
        <ele>385.8</ele>
        <time>2021-10-06T10:06:08Z</time>
      </trkpt>
      <trkpt lat="42.9095790" lon="-8.4145730">
        <ele>385.8</ele>
        <time>2021-10-06T10:06:12Z</time>
      </trkpt>
      <trkpt lat="42.9096930" lon="-8.4145460">
        <ele>385.8</ele>
        <time>2021-10-06T10:06:14Z</time>
      </trkpt>
      <trkpt lat="42.9100190" lon="-8.4145250">
        <ele>386.4</ele>
        <time>2021-10-06T10:06:20Z</time>
      </trkpt>
      <trkpt lat="42.9102120" lon="-8.4145100">
        <ele>386.4</ele>
        <time>2021-10-06T10:06:24Z</time>
      </trkpt>
      <trkpt lat="42.9104440" lon="-8.4144890">
        <ele>386.4</ele>
        <time>2021-10-06T10:06:29Z</time>
      </trkpt>
      <trkpt lat="42.9106730" lon="-8.4144730">
        <ele>386.2</ele>
        <time>2021-10-06T10:06:34Z</time>
      </trkpt>
      <trkpt lat="42.9109070" lon="-8.4144510">
        <ele>385.8</ele>
        <time>2021-10-06T10:06:39Z</time>
      </trkpt>
      <trkpt lat="42.9110470" lon="-8.4144080">
        <ele>385.4</ele>
        <time>2021-10-06T10:06:42Z</time>
      </trkpt>
      <trkpt lat="42.9111380" lon="-8.4143880">
        <ele>385.2</ele>
        <time>2021-10-06T10:06:44Z</time>
      </trkpt>
      <trkpt lat="42.9112700" lon="-8.4143700">
        <ele>385.0</ele>
        <time>2021-10-06T10:06:47Z</time>
      </trkpt>
      <trkpt lat="42.9118180" lon="-8.4141970">
        <ele>385.0</ele>
        <time>2021-10-06T10:07:02Z</time>
      </trkpt>
      <trkpt lat="42.9123630" lon="-8.4141130">
        <ele>384.8</ele>
        <time>2021-10-06T10:07:16Z</time>
      </trkpt>
      <trkpt lat="42.9125670" lon="-8.4141060">
        <ele>384.4</ele>
        <time>2021-10-06T10:07:20Z</time>
      </trkpt>
      <trkpt lat="42.9128860" lon="-8.4140900">
        <ele>384.4</ele>
        <time>2021-10-06T10:07:26Z</time>
      </trkpt>
      <trkpt lat="42.9132160" lon="-8.4140820">
        <ele>384.4</ele>
        <time>2021-10-06T10:07:32Z</time>
      </trkpt>
      <trkpt lat="42.9135660" lon="-8.4140770">
        <ele>384.6</ele>
        <time>2021-10-06T10:07:40Z</time>
      </trkpt>
      <trkpt lat="42.9136300" lon="-8.4144130">
        <ele>384.4</ele>
        <time>2021-10-06T10:07:48Z</time>
      </trkpt>
      <trkpt lat="42.9136290" lon="-8.4144680">
        <ele>384.4</ele>
        <time>2021-10-06T10:07:49Z</time>
      </trkpt>
      <trkpt lat="42.9136400" lon="-8.4148270">
        <ele>383.8</ele>
        <time>2021-10-06T10:07:55Z</time>
      </trkpt>
      <trkpt lat="42.9136410" lon="-8.4149480">
        <ele>383.4</ele>
        <time>2021-10-06T10:07:57Z</time>
      </trkpt>
      <trkpt lat="42.9136360" lon="-8.4150800">
        <ele>383.4</ele>
        <time>2021-10-06T10:07:59Z</time>
      </trkpt>
      <trkpt lat="42.9136570" lon="-8.4153080">
        <ele>383.2</ele>
        <time>2021-10-06T10:08:02Z</time>
      </trkpt>
      <trkpt lat="42.9136600" lon="-8.4156870">
        <ele>382.6</ele>
        <time>2021-10-06T10:08:06Z</time>
      </trkpt>
      <trkpt lat="42.9136650" lon="-8.4160070">
        <ele>381.4</ele>
        <time>2021-10-06T10:08:09Z</time>
      </trkpt>
      <trkpt lat="42.9136710" lon="-8.4162260">
        <ele>379.8</ele>
        <time>2021-10-06T10:08:11Z</time>
      </trkpt>
      <trkpt lat="42.9136730" lon="-8.4164560">
        <ele>378.4</ele>
        <time>2021-10-06T10:08:13Z</time>
      </trkpt>
      <trkpt lat="42.9136740" lon="-8.4166970">
        <ele>377.0</ele>
        <time>2021-10-06T10:08:15Z</time>
      </trkpt>
      <trkpt lat="42.9136750" lon="-8.4169490">
        <ele>376.0</ele>
        <time>2021-10-06T10:08:17Z</time>
      </trkpt>
      <trkpt lat="42.9136760" lon="-8.4172140">
        <ele>375.0</ele>
        <time>2021-10-06T10:08:19Z</time>
      </trkpt>
      <trkpt lat="42.9136760" lon="-8.4173500">
        <ele>374.6</ele>
        <time>2021-10-06T10:08:20Z</time>
      </trkpt>
      <trkpt lat="42.9136790" lon="-8.4176270">
        <ele>373.4</ele>
        <time>2021-10-06T10:08:22Z</time>
      </trkpt>
      <trkpt lat="42.9136760" lon="-8.4179020">
        <ele>372.2</ele>
        <time>2021-10-06T10:08:24Z</time>
      </trkpt>
      <trkpt lat="42.9136530" lon="-8.4181520">
        <ele>370.4</ele>
        <time>2021-10-06T10:08:26Z</time>
      </trkpt>
      <trkpt lat="42.9136200" lon="-8.4183590">
        <ele>368.6</ele>
        <time>2021-10-06T10:08:28Z</time>
      </trkpt>
      <trkpt lat="42.9136120" lon="-8.4184390">
        <ele>368.0</ele>
        <time>2021-10-06T10:08:29Z</time>
      </trkpt>
      <trkpt lat="42.9136150" lon="-8.4185130">
        <ele>367.6</ele>
        <time>2021-10-06T10:08:30Z</time>
      </trkpt>
      <trkpt lat="42.9136630" lon="-8.4187070">
        <ele>366.6</ele>
        <time>2021-10-06T10:08:33Z</time>
      </trkpt>
      <trkpt lat="42.9136720" lon="-8.4187730">
        <ele>366.4</ele>
        <time>2021-10-06T10:08:34Z</time>
      </trkpt>
      <trkpt lat="42.9136770" lon="-8.4189380">
        <ele>366.2</ele>
        <time>2021-10-06T10:08:36Z</time>
      </trkpt>
      <trkpt lat="42.9136860" lon="-8.4190180">
        <ele>366.2</ele>
        <time>2021-10-06T10:08:37Z</time>
      </trkpt>
      <trkpt lat="42.9137090" lon="-8.4192600">
        <ele>365.6</ele>
        <time>2021-10-06T10:08:40Z</time>
      </trkpt>
      <trkpt lat="42.9137090" lon="-8.4195350">
        <ele>365.2</ele>
        <time>2021-10-06T10:08:43Z</time>
      </trkpt>
      <trkpt lat="42.9136920" lon="-8.4197340">
        <ele>364.6</ele>
        <time>2021-10-06T10:08:45Z</time>
      </trkpt>
      <trkpt lat="42.9135780" lon="-8.4200390">
        <ele>364.2</ele>
        <time>2021-10-06T10:08:49Z</time>
      </trkpt>
      <trkpt lat="42.9135250" lon="-8.4201470">
        <ele>364.2</ele>
        <time>2021-10-06T10:08:51Z</time>
      </trkpt>
      <trkpt lat="42.9135020" lon="-8.4204810">
        <ele>363.4</ele>
        <time>2021-10-06T10:08:55Z</time>
      </trkpt>
      <trkpt lat="42.9135100" lon="-8.4207230">
        <ele>363.2</ele>
        <time>2021-10-06T10:08:57Z</time>
      </trkpt>
      <trkpt lat="42.9135040" lon="-8.4208560">
        <ele>362.8</ele>
        <time>2021-10-06T10:08:58Z</time>
      </trkpt>
      <trkpt lat="42.9134570" lon="-8.4215330">
        <ele>361.0</ele>
        <time>2021-10-06T10:09:03Z</time>
      </trkpt>
      <trkpt lat="42.9134640" lon="-8.4216550">
        <ele>359.6</ele>
        <time>2021-10-06T10:09:04Z</time>
      </trkpt>
      <trkpt lat="42.9134770" lon="-8.4217620">
        <ele>358.0</ele>
        <time>2021-10-06T10:09:05Z</time>
      </trkpt>
      <trkpt lat="42.9134910" lon="-8.4218560">
        <ele>356.4</ele>
        <time>2021-10-06T10:09:06Z</time>
      </trkpt>
      <trkpt lat="42.9134960" lon="-8.4219370">
        <ele>355.2</ele>
        <time>2021-10-06T10:09:07Z</time>
      </trkpt>
      <trkpt lat="42.9134910" lon="-8.4220080">
        <ele>354.2</ele>
        <time>2021-10-06T10:09:08Z</time>
      </trkpt>
      <trkpt lat="42.9134650" lon="-8.4221260">
        <ele>352.4</ele>
        <time>2021-10-06T10:09:10Z</time>
      </trkpt>
      <trkpt lat="42.9134270" lon="-8.4223370">
        <ele>351.2</ele>
        <time>2021-10-06T10:09:15Z</time>
      </trkpt>
      <trkpt lat="42.9133540" lon="-8.4225110">
        <ele>350.4</ele>
        <time>2021-10-06T10:09:18Z</time>
      </trkpt>
      <trkpt lat="42.9132860" lon="-8.4226200">
        <ele>350.2</ele>
        <time>2021-10-06T10:09:20Z</time>
      </trkpt>
      <trkpt lat="42.9131400" lon="-8.4228710">
        <ele>350.2</ele>
        <time>2021-10-06T10:09:24Z</time>
      </trkpt>
      <trkpt lat="42.9130660" lon="-8.4229910">
        <ele>349.8</ele>
        <time>2021-10-06T10:09:26Z</time>
      </trkpt>
      <trkpt lat="42.9129870" lon="-8.4231250">
        <ele>349.2</ele>
        <time>2021-10-06T10:09:28Z</time>
      </trkpt>
      <trkpt lat="42.9128920" lon="-8.4232720">
        <ele>348.2</ele>
        <time>2021-10-06T10:09:30Z</time>
      </trkpt>
      <trkpt lat="42.9128350" lon="-8.4233470">
        <ele>348.0</ele>
        <time>2021-10-06T10:09:31Z</time>
      </trkpt>
      <trkpt lat="42.9125800" lon="-8.4236070">
        <ele>347.6</ele>
        <time>2021-10-06T10:09:35Z</time>
      </trkpt>
      <trkpt lat="42.9125120" lon="-8.4236680">
        <ele>347.2</ele>
        <time>2021-10-06T10:09:36Z</time>
      </trkpt>
      <trkpt lat="42.9124450" lon="-8.4237170">
        <ele>346.8</ele>
        <time>2021-10-06T10:09:37Z</time>
      </trkpt>
      <trkpt lat="42.9121330" lon="-8.4239370">
        <ele>345.8</ele>
        <time>2021-10-06T10:09:42Z</time>
      </trkpt>
      <trkpt lat="42.9120870" lon="-8.4239660">
        <ele>345.8</ele>
        <time>2021-10-06T10:09:43Z</time>
      </trkpt>
      <trkpt lat="42.9120510" lon="-8.4240020">
        <ele>345.8</ele>
        <time>2021-10-06T10:09:44Z</time>
      </trkpt>
      <trkpt lat="42.9119990" lon="-8.4240340">
        <ele>345.8</ele>
        <time>2021-10-06T10:09:46Z</time>
      </trkpt>
      <trkpt lat="42.9119650" lon="-8.4240550">
        <ele>345.8</ele>
        <time>2021-10-06T10:09:47Z</time>
      </trkpt>
      <trkpt lat="42.9119450" lon="-8.4240680">
        <ele>347.0</ele>
        <time>2021-10-06T10:09:48Z</time>
      </trkpt>
      <trkpt lat="42.9119180" lon="-8.4240870">
        <ele>348.2</ele>
        <time>2021-10-06T10:09:49Z</time>
      </trkpt>
      <trkpt lat="42.9118930" lon="-8.4240990">
        <ele>349.6</ele>
        <time>2021-10-06T10:09:50Z</time>
      </trkpt>
      <trkpt lat="42.9118610" lon="-8.4241180">
        <ele>350.8</ele>
        <time>2021-10-06T10:09:51Z</time>
      </trkpt>
      <trkpt lat="42.9118300" lon="-8.4241280">
        <ele>352.0</ele>
        <time>2021-10-06T10:09:52Z</time>
      </trkpt>
      <trkpt lat="42.9118090" lon="-8.4241470">
        <ele>352.8</ele>
        <time>2021-10-06T10:09:53Z</time>
      </trkpt>
      <trkpt lat="42.9117860" lon="-8.4241620">
        <ele>353.6</ele>
        <time>2021-10-06T10:09:54Z</time>
      </trkpt>
      <trkpt lat="42.9117360" lon="-8.4241930">
        <ele>354.8</ele>
        <time>2021-10-06T10:09:56Z</time>
      </trkpt>
      <trkpt lat="42.9116550" lon="-8.4242220">
        <ele>356.4</ele>
        <time>2021-10-06T10:09:59Z</time>
      </trkpt>
      <trkpt lat="42.9116240" lon="-8.4242240">
        <ele>357.0</ele>
        <time>2021-10-06T10:10:00Z</time>
      </trkpt>
      <trkpt lat="42.9115910" lon="-8.4242220">
        <ele>357.6</ele>
        <time>2021-10-06T10:10:01Z</time>
      </trkpt>
      <trkpt lat="42.9114800" lon="-8.4242090">
        <ele>359.0</ele>
        <time>2021-10-06T10:10:04Z</time>
      </trkpt>
      <trkpt lat="42.9112980" lon="-8.4241770">
        <ele>360.0</ele>
        <time>2021-10-06T10:10:09Z</time>
      </trkpt>
      <trkpt lat="42.9111680" lon="-8.4241990">
        <ele>360.6</ele>
        <time>2021-10-06T10:10:13Z</time>
      </trkpt>
      <trkpt lat="42.9110870" lon="-8.4243250">
        <ele>361.4</ele>
        <time>2021-10-06T10:10:17Z</time>
      </trkpt>
      <trkpt lat="42.9110170" lon="-8.4244150">
        <ele>361.6</ele>
        <time>2021-10-06T10:10:20Z</time>
      </trkpt>
      <trkpt lat="42.9108590" lon="-8.4244000">
        <ele>361.6</ele>
        <time>2021-10-06T10:10:24Z</time>
      </trkpt>
      <trkpt lat="42.9106890" lon="-8.4243500">
        <ele>361.6</ele>
        <time>2021-10-06T10:10:28Z</time>
      </trkpt>
      <trkpt lat="42.9106430" lon="-8.4243310">
        <ele>361.4</ele>
        <time>2021-10-06T10:10:29Z</time>
      </trkpt>
      <trkpt lat="42.9104140" lon="-8.4242190">
        <ele>361.0</ele>
        <time>2021-10-06T10:10:34Z</time>
      </trkpt>
      <trkpt lat="42.9101530" lon="-8.4241280">
        <ele>360.6</ele>
        <time>2021-10-06T10:10:39Z</time>
      </trkpt>
      <trkpt lat="42.9098860" lon="-8.4240100">
        <ele>360.4</ele>
        <time>2021-10-06T10:10:44Z</time>
      </trkpt>
      <trkpt lat="42.9098330" lon="-8.4239870">
        <ele>360.2</ele>
        <time>2021-10-06T10:10:45Z</time>
      </trkpt>
      <trkpt lat="42.9094350" lon="-8.4238560">
        <ele>359.2</ele>
        <time>2021-10-06T10:10:52Z</time>
      </trkpt>
      <trkpt lat="42.9093780" lon="-8.4238320">
        <ele>359.4</ele>
        <time>2021-10-06T10:10:53Z</time>
      </trkpt>
      <trkpt lat="42.9089920" lon="-8.4236780">
        <ele>359.0</ele>
        <time>2021-10-06T10:11:00Z</time>
      </trkpt>
      <trkpt lat="42.9088550" lon="-8.4236700">
        <ele>359.0</ele>
        <time>2021-10-06T10:11:03Z</time>
      </trkpt>
      <trkpt lat="42.9087620" lon="-8.4237830">
        <ele>359.0</ele>
        <time>2021-10-06T10:11:06Z</time>
      </trkpt>
      <trkpt lat="42.9087640" lon="-8.4239760">
        <ele>359.0</ele>
        <time>2021-10-06T10:11:09Z</time>
      </trkpt>
      <trkpt lat="42.9087740" lon="-8.4240520">
        <ele>359.0</ele>
        <time>2021-10-06T10:11:10Z</time>
      </trkpt>
      <trkpt lat="42.9087950" lon="-8.4242170">
        <ele>359.0</ele>
        <time>2021-10-06T10:11:12Z</time>
      </trkpt>
      <trkpt lat="42.9088170" lon="-8.4244570">
        <ele>359.0</ele>
        <time>2021-10-06T10:11:15Z</time>
      </trkpt>
      <trkpt lat="42.9088330" lon="-8.4245900">
        <ele>358.6</ele>
        <time>2021-10-06T10:11:17Z</time>
      </trkpt>
      <trkpt lat="42.9088420" lon="-8.4246500">
        <ele>358.0</ele>
        <time>2021-10-06T10:11:18Z</time>
      </trkpt>
      <trkpt lat="42.9088670" lon="-8.4247620">
        <ele>357.0</ele>
        <time>2021-10-06T10:11:20Z</time>
      </trkpt>
      <trkpt lat="42.9089170" lon="-8.4250100">
        <ele>355.8</ele>
        <time>2021-10-06T10:11:24Z</time>
      </trkpt>
      <trkpt lat="42.9090200" lon="-8.4253850">
        <ele>355.0</ele>
        <time>2021-10-06T10:11:29Z</time>
      </trkpt>
      <trkpt lat="42.9090350" lon="-8.4254710">
        <ele>354.8</ele>
        <time>2021-10-06T10:11:30Z</time>
      </trkpt>
      <trkpt lat="42.9090410" lon="-8.4255600">
        <ele>354.2</ele>
        <time>2021-10-06T10:11:31Z</time>
      </trkpt>
      <trkpt lat="42.9090260" lon="-8.4258220">
        <ele>353.0</ele>
        <time>2021-10-06T10:11:34Z</time>
      </trkpt>
      <trkpt lat="42.9090100" lon="-8.4258990">
        <ele>352.4</ele>
        <time>2021-10-06T10:11:35Z</time>
      </trkpt>
      <trkpt lat="42.9089730" lon="-8.4260290">
        <ele>351.6</ele>
        <time>2021-10-06T10:11:37Z</time>
      </trkpt>
      <trkpt lat="42.9088490" lon="-8.4261960">
        <ele>351.0</ele>
        <time>2021-10-06T10:11:42Z</time>
      </trkpt>
      <trkpt lat="42.9087890" lon="-8.4262010">
        <ele>351.0</ele>
        <time>2021-10-06T10:11:44Z</time>
      </trkpt>
      <trkpt lat="42.9086910" lon="-8.4262120">
        <ele>351.2</ele>
        <time>2021-10-06T10:11:47Z</time>
      </trkpt>
      <trkpt lat="42.9085460" lon="-8.4262710">
        <ele>351.4</ele>
        <time>2021-10-06T10:11:52Z</time>
      </trkpt>
      <trkpt lat="42.9084590" lon="-8.4265200">
        <ele>351.6</ele>
        <time>2021-10-06T10:11:58Z</time>
      </trkpt>
      <trkpt lat="42.9084280" lon="-8.4266110">
        <ele>351.8</ele>
        <time>2021-10-06T10:12:00Z</time>
      </trkpt>
      <trkpt lat="42.9083940" lon="-8.4266940">
        <ele>352.0</ele>
        <time>2021-10-06T10:12:02Z</time>
      </trkpt>
      <trkpt lat="42.9083590" lon="-8.4267610">
        <ele>352.4</ele>
        <time>2021-10-06T10:12:04Z</time>
      </trkpt>
      <trkpt lat="42.9083240" lon="-8.4268150">
        <ele>352.8</ele>
        <time>2021-10-06T10:12:06Z</time>
      </trkpt>
      <trkpt lat="42.9083040" lon="-8.4268630">
        <ele>353.4</ele>
        <time>2021-10-06T10:12:08Z</time>
      </trkpt>
      <trkpt lat="42.9082820" lon="-8.4269140">
        <ele>353.8</ele>
        <time>2021-10-06T10:12:10Z</time>
      </trkpt>
      <trkpt lat="42.9082550" lon="-8.4269610">
        <ele>354.8</ele>
        <time>2021-10-06T10:12:12Z</time>
      </trkpt>
      <trkpt lat="42.9082380" lon="-8.4269870">
        <ele>355.4</ele>
        <time>2021-10-06T10:12:13Z</time>
      </trkpt>
      <trkpt lat="42.9082090" lon="-8.4270270">
        <ele>356.6</ele>
        <time>2021-10-06T10:12:15Z</time>
      </trkpt>
      <trkpt lat="42.9081810" lon="-8.4270590">
        <ele>357.6</ele>
        <time>2021-10-06T10:12:17Z</time>
      </trkpt>
      <trkpt lat="42.9081380" lon="-8.4270910">
        <ele>358.8</ele>
        <time>2021-10-06T10:12:19Z</time>
      </trkpt>
      <trkpt lat="42.9081010" lon="-8.4271260">
        <ele>360.0</ele>
        <time>2021-10-06T10:12:21Z</time>
      </trkpt>
      <trkpt lat="42.9080710" lon="-8.4271630">
        <ele>361.0</ele>
        <time>2021-10-06T10:12:23Z</time>
      </trkpt>
      <trkpt lat="42.9080400" lon="-8.4271960">
        <ele>362.2</ele>
        <time>2021-10-06T10:12:25Z</time>
      </trkpt>
      <trkpt lat="42.9079860" lon="-8.4272470">
        <ele>363.2</ele>
        <time>2021-10-06T10:12:28Z</time>
      </trkpt>
      <trkpt lat="42.9079240" lon="-8.4272920">
        <ele>364.6</ele>
        <time>2021-10-06T10:12:31Z</time>
      </trkpt>
      <trkpt lat="42.9078730" lon="-8.4273320">
        <ele>365.6</ele>
        <time>2021-10-06T10:12:34Z</time>
      </trkpt>
      <trkpt lat="42.9077990" lon="-8.4273990">
        <ele>366.8</ele>
        <time>2021-10-06T10:12:38Z</time>
      </trkpt>
      <trkpt lat="42.9077810" lon="-8.4274130">
        <ele>367.4</ele>
        <time>2021-10-06T10:12:39Z</time>
      </trkpt>
      <trkpt lat="42.9077380" lon="-8.4274450">
        <ele>368.0</ele>
        <time>2021-10-06T10:12:41Z</time>
      </trkpt>
      <trkpt lat="42.9076390" lon="-8.4275110">
        <ele>369.0</ele>
        <time>2021-10-06T10:12:46Z</time>
      </trkpt>
      <trkpt lat="42.9075280" lon="-8.4276240">
        <ele>370.2</ele>
        <time>2021-10-06T10:12:51Z</time>
      </trkpt>
      <trkpt lat="42.9074080" lon="-8.4277370">
        <ele>371.2</ele>
        <time>2021-10-06T10:12:56Z</time>
      </trkpt>
      <trkpt lat="42.9071750" lon="-8.4279800">
        <ele>372.2</ele>
        <time>2021-10-06T10:13:05Z</time>
      </trkpt>
      <trkpt lat="42.9071000" lon="-8.4281490">
        <ele>372.2</ele>
        <time>2021-10-06T10:13:08Z</time>
      </trkpt>
      <trkpt lat="42.9070460" lon="-8.4282680">
        <ele>372.2</ele>
        <time>2021-10-06T10:13:10Z</time>
      </trkpt>
      <trkpt lat="42.9069440" lon="-8.4284940">
        <ele>372.0</ele>
        <time>2021-10-06T10:13:13Z</time>
      </trkpt>
      <trkpt lat="42.9067850" lon="-8.4288440">
        <ele>370.2</ele>
        <time>2021-10-06T10:13:17Z</time>
      </trkpt>
      <trkpt lat="42.9066990" lon="-8.4290410">
        <ele>369.0</ele>
        <time>2021-10-06T10:13:19Z</time>
      </trkpt>
      <trkpt lat="42.9066150" lon="-8.4292330">
        <ele>367.8</ele>
        <time>2021-10-06T10:13:21Z</time>
      </trkpt>
      <trkpt lat="42.9065290" lon="-8.4294020">
        <ele>366.0</ele>
        <time>2021-10-06T10:13:23Z</time>
      </trkpt>
      <trkpt lat="42.9064780" lon="-8.4294760">
        <ele>365.0</ele>
        <time>2021-10-06T10:13:24Z</time>
      </trkpt>
      <trkpt lat="42.9064220" lon="-8.4295400">
        <ele>364.0</ele>
        <time>2021-10-06T10:13:25Z</time>
      </trkpt>
      <trkpt lat="42.9063630" lon="-8.4296050">
        <ele>363.2</ele>
        <time>2021-10-06T10:13:26Z</time>
      </trkpt>
      <trkpt lat="42.9062460" lon="-8.4297170">
        <ele>361.2</ele>
        <time>2021-10-06T10:13:28Z</time>
      </trkpt>
      <trkpt lat="42.9061360" lon="-8.4298240">
        <ele>360.0</ele>
        <time>2021-10-06T10:13:30Z</time>
      </trkpt>
      <trkpt lat="42.9060080" lon="-8.4300040">
        <ele>358.6</ele>
        <time>2021-10-06T10:13:33Z</time>
      </trkpt>
      <trkpt lat="42.9058450" lon="-8.4301960">
        <ele>357.8</ele>
        <time>2021-10-06T10:13:37Z</time>
      </trkpt>
      <trkpt lat="42.9055780" lon="-8.4306760">
        <ele>358.2</ele>
        <time>2021-10-06T10:13:46Z</time>
      </trkpt>
      <trkpt lat="42.9055550" lon="-8.4307310">
        <ele>358.2</ele>
        <time>2021-10-06T10:13:47Z</time>
      </trkpt>
      <trkpt lat="42.9054730" lon="-8.4309510">
        <ele>359.2</ele>
        <time>2021-10-06T10:13:51Z</time>
      </trkpt>
      <trkpt lat="42.9054580" lon="-8.4310770">
        <ele>359.8</ele>
        <time>2021-10-06T10:13:53Z</time>
      </trkpt>
      <trkpt lat="42.9054560" lon="-8.4311410">
        <ele>359.8</ele>
        <time>2021-10-06T10:13:54Z</time>
      </trkpt>
      <trkpt lat="42.9054230" lon="-8.4315690">
        <ele>360.0</ele>
        <time>2021-10-06T10:14:00Z</time>
      </trkpt>
      <trkpt lat="42.9053570" lon="-8.4318120">
        <ele>360.0</ele>
        <time>2021-10-06T10:14:03Z</time>
      </trkpt>
      <trkpt lat="42.9051680" lon="-8.4322210">
        <ele>359.2</ele>
        <time>2021-10-06T10:14:07Z</time>
      </trkpt>
      <trkpt lat="42.9051080" lon="-8.4323250">
        <ele>358.6</ele>
        <time>2021-10-06T10:14:08Z</time>
      </trkpt>
      <trkpt lat="42.9049880" lon="-8.4325210">
        <ele>356.4</ele>
        <time>2021-10-06T10:14:10Z</time>
      </trkpt>
      <trkpt lat="42.9049270" lon="-8.4326010">
        <ele>355.2</ele>
        <time>2021-10-06T10:14:11Z</time>
      </trkpt>
      <trkpt lat="42.9048710" lon="-8.4326740">
        <ele>353.8</ele>
        <time>2021-10-06T10:14:12Z</time>
      </trkpt>
      <trkpt lat="42.9048210" lon="-8.4327410">
        <ele>352.6</ele>
        <time>2021-10-06T10:14:13Z</time>
      </trkpt>
      <trkpt lat="42.9047330" lon="-8.4328630">
        <ele>350.8</ele>
        <time>2021-10-06T10:14:15Z</time>
      </trkpt>
      <trkpt lat="42.9046600" lon="-8.4329850">
        <ele>349.4</ele>
        <time>2021-10-06T10:14:17Z</time>
      </trkpt>
      <trkpt lat="42.9046240" lon="-8.4330620">
        <ele>349.2</ele>
        <time>2021-10-06T10:14:18Z</time>
      </trkpt>
      <trkpt lat="42.9045320" lon="-8.4332890">
        <ele>349.0</ele>
        <time>2021-10-06T10:14:21Z</time>
      </trkpt>
      <trkpt lat="42.9044520" lon="-8.4335080">
        <ele>348.6</ele>
        <time>2021-10-06T10:14:24Z</time>
      </trkpt>
      <trkpt lat="42.9044230" lon="-8.4336250">
        <ele>348.4</ele>
        <time>2021-10-06T10:14:26Z</time>
      </trkpt>
      <trkpt lat="42.9043980" lon="-8.4337300">
        <ele>348.8</ele>
        <time>2021-10-06T10:14:30Z</time>
      </trkpt>
      <trkpt lat="42.9043680" lon="-8.4338470">
        <ele>350.0</ele>
        <time>2021-10-06T10:14:58Z</time>
      </trkpt>
      <trkpt lat="42.9043140" lon="-8.4342580">
        <ele>349.8</ele>
        <time>2021-10-06T10:15:07Z</time>
      </trkpt>
      <trkpt lat="42.9042730" lon="-8.4343880">
        <ele>349.6</ele>
        <time>2021-10-06T10:15:09Z</time>
      </trkpt>
      <trkpt lat="42.9042560" lon="-8.4348090">
        <ele>349.0</ele>
        <time>2021-10-06T10:15:15Z</time>
      </trkpt>
      <trkpt lat="42.9040580" lon="-8.4353050">
        <ele>348.0</ele>
        <time>2021-10-06T10:15:24Z</time>
      </trkpt>
      <trkpt lat="42.9040230" lon="-8.4353560">
        <ele>348.0</ele>
        <time>2021-10-06T10:15:25Z</time>
      </trkpt>
      <trkpt lat="42.9038870" lon="-8.4355690">
        <ele>347.8</ele>
        <time>2021-10-06T10:15:28Z</time>
      </trkpt>
      <trkpt lat="42.9037150" lon="-8.4357950">
        <ele>346.4</ele>
        <time>2021-10-06T10:15:31Z</time>
      </trkpt>
      <trkpt lat="42.9035600" lon="-8.4360250">
        <ele>345.6</ele>
        <time>2021-10-06T10:15:34Z</time>
      </trkpt>
      <trkpt lat="42.9035090" lon="-8.4361050">
        <ele>345.4</ele>
        <time>2021-10-06T10:15:35Z</time>
      </trkpt>
      <trkpt lat="42.9032170" lon="-8.4365420">
        <ele>344.2</ele>
        <time>2021-10-06T10:15:41Z</time>
      </trkpt>
      <trkpt lat="42.9030180" lon="-8.4368310">
        <ele>343.0</ele>
        <time>2021-10-06T10:15:45Z</time>
      </trkpt>
      <trkpt lat="42.9028980" lon="-8.4370380">
        <ele>341.8</ele>
        <time>2021-10-06T10:15:48Z</time>
      </trkpt>
      <trkpt lat="42.9027930" lon="-8.4372250">
        <ele>341.0</ele>
        <time>2021-10-06T10:15:51Z</time>
      </trkpt>
      <trkpt lat="42.9027610" lon="-8.4372870">
        <ele>340.8</ele>
        <time>2021-10-06T10:15:52Z</time>
      </trkpt>
      <trkpt lat="42.9023780" lon="-8.4378390">
        <ele>339.2</ele>
        <time>2021-10-06T10:15:59Z</time>
      </trkpt>
      <trkpt lat="42.9022260" lon="-8.4380660">
        <ele>338.0</ele>
        <time>2021-10-06T10:16:02Z</time>
      </trkpt>
      <trkpt lat="42.9021110" lon="-8.4382800">
        <ele>336.8</ele>
        <time>2021-10-06T10:16:05Z</time>
      </trkpt>
      <trkpt lat="42.9020510" lon="-8.4384260">
        <ele>336.4</ele>
        <time>2021-10-06T10:16:07Z</time>
      </trkpt>
      <trkpt lat="42.9019890" lon="-8.4392270">
        <ele>335.6</ele>
        <time>2021-10-06T10:16:16Z</time>
      </trkpt>
      <trkpt lat="42.9018930" lon="-8.4399820">
        <ele>334.6</ele>
        <time>2021-10-06T10:16:24Z</time>
      </trkpt>
      <trkpt lat="42.9018600" lon="-8.4401600">
        <ele>334.6</ele>
        <time>2021-10-06T10:16:26Z</time>
      </trkpt>
      <trkpt lat="42.9017670" lon="-8.4408140">
        <ele>334.4</ele>
        <time>2021-10-06T10:16:34Z</time>
      </trkpt>
      <trkpt lat="42.9017600" lon="-8.4408900">
        <ele>334.4</ele>
        <time>2021-10-06T10:16:35Z</time>
      </trkpt>
      <trkpt lat="42.9017440" lon="-8.4410410">
        <ele>334.2</ele>
        <time>2021-10-06T10:16:37Z</time>
      </trkpt>
      <trkpt lat="42.9017010" lon="-8.4413680">
        <ele>333.8</ele>
        <time>2021-10-06T10:16:41Z</time>
      </trkpt>
      <trkpt lat="42.9015970" lon="-8.4421560">
        <ele>332.6</ele>
        <time>2021-10-06T10:16:48Z</time>
      </trkpt>
      <trkpt lat="42.9015540" lon="-8.4424100">
        <ele>330.6</ele>
        <time>2021-10-06T10:16:50Z</time>
      </trkpt>
      <trkpt lat="42.9015260" lon="-8.4425230">
        <ele>329.6</ele>
        <time>2021-10-06T10:16:51Z</time>
      </trkpt>
      <trkpt lat="42.9014960" lon="-8.4426300">
        <ele>328.6</ele>
        <time>2021-10-06T10:16:52Z</time>
      </trkpt>
      <trkpt lat="42.9014600" lon="-8.4427330">
        <ele>327.4</ele>
        <time>2021-10-06T10:16:53Z</time>
      </trkpt>
      <trkpt lat="42.9014190" lon="-8.4428310">
        <ele>326.2</ele>
        <time>2021-10-06T10:16:54Z</time>
      </trkpt>
      <trkpt lat="42.9013740" lon="-8.4429250">
        <ele>325.0</ele>
        <time>2021-10-06T10:16:55Z</time>
      </trkpt>
      <trkpt lat="42.9013260" lon="-8.4430160">
        <ele>323.4</ele>
        <time>2021-10-06T10:16:56Z</time>
      </trkpt>
      <trkpt lat="42.9012770" lon="-8.4431050">
        <ele>322.0</ele>
        <time>2021-10-06T10:16:57Z</time>
      </trkpt>
      <trkpt lat="42.9012310" lon="-8.4431940">
        <ele>321.4</ele>
        <time>2021-10-06T10:16:58Z</time>
      </trkpt>
      <trkpt lat="42.9011460" lon="-8.4433770">
        <ele>321.0</ele>
        <time>2021-10-06T10:17:00Z</time>
      </trkpt>
      <trkpt lat="42.9009390" lon="-8.4440490">
        <ele>320.8</ele>
        <time>2021-10-06T10:17:07Z</time>
      </trkpt>
      <trkpt lat="42.9008340" lon="-8.4444240">
        <ele>320.8</ele>
        <time>2021-10-06T10:17:11Z</time>
      </trkpt>
      <trkpt lat="42.9007390" lon="-8.4448970">
        <ele>320.8</ele>
        <time>2021-10-06T10:17:16Z</time>
      </trkpt>
      <trkpt lat="42.9006760" lon="-8.4453790">
        <ele>320.6</ele>
        <time>2021-10-06T10:17:21Z</time>
      </trkpt>
      <trkpt lat="42.9005520" lon="-8.4460180">
        <ele>320.4</ele>
        <time>2021-10-06T10:17:28Z</time>
      </trkpt>
      <trkpt lat="42.9003920" lon="-8.4466340">
        <ele>320.2</ele>
        <time>2021-10-06T10:17:35Z</time>
      </trkpt>
      <trkpt lat="42.9000780" lon="-8.4468980">
        <ele>320.0</ele>
        <time>2021-10-06T10:17:40Z</time>
      </trkpt>
      <trkpt lat="42.9000000" lon="-8.4468940">
        <ele>319.6</ele>
        <time>2021-10-06T10:17:41Z</time>
      </trkpt>
      <trkpt lat="42.8998740" lon="-8.4468670">
        <ele>318.6</ele>
        <time>2021-10-06T10:17:43Z</time>
      </trkpt>
      <trkpt lat="42.8998350" lon="-8.4468570">
        <ele>318.2</ele>
        <time>2021-10-06T10:17:44Z</time>
      </trkpt>
      <trkpt lat="42.8998120" lon="-8.4468480">
        <ele>317.8</ele>
        <time>2021-10-06T10:17:45Z</time>
      </trkpt>
      <trkpt lat="42.8998120" lon="-8.4467920">
        <ele>317.6</ele>
        <time>2021-10-06T10:17:48Z</time>
      </trkpt>
      <trkpt lat="42.8998340" lon="-8.4467800">
        <ele>317.6</ele>
        <time>2021-10-06T10:17:50Z</time>
      </trkpt>
      <trkpt lat="42.8998340" lon="-8.4466940">
        <ele>317.0</ele>
        <time>2021-10-06T10:21:40Z</time>
      </trkpt>
      <trkpt lat="42.8998260" lon="-8.4466620">
        <ele>317.0</ele>
        <time>2021-10-06T10:21:41Z</time>
      </trkpt>
      <trkpt lat="42.8997940" lon="-8.4466100">
        <ele>317.0</ele>
        <time>2021-10-06T10:21:43Z</time>
      </trkpt>
      <trkpt lat="42.8997410" lon="-8.4465890">
        <ele>317.0</ele>
        <time>2021-10-06T10:21:45Z</time>
      </trkpt>
      <trkpt lat="42.8997150" lon="-8.4465840">
        <ele>317.0</ele>
        <time>2021-10-06T10:21:46Z</time>
      </trkpt>
      <trkpt lat="42.8995130" lon="-8.4462390">
        <ele>318.8</ele>
        <time>2021-10-06T10:21:56Z</time>
      </trkpt>
      <trkpt lat="42.8994650" lon="-8.4460280">
        <ele>319.0</ele>
        <time>2021-10-06T10:22:00Z</time>
      </trkpt>
      <trkpt lat="42.8994380" lon="-8.4458570">
        <ele>319.0</ele>
        <time>2021-10-06T10:22:03Z</time>
      </trkpt>
      <trkpt lat="42.8994200" lon="-8.4456420">
        <ele>319.2</ele>
        <time>2021-10-06T10:22:07Z</time>
      </trkpt>
      <trkpt lat="42.8993860" lon="-8.4453680">
        <ele>319.8</ele>
        <time>2021-10-06T10:22:12Z</time>
      </trkpt>
      <trkpt lat="42.8993320" lon="-8.4451480">
        <ele>320.4</ele>
        <time>2021-10-06T10:22:16Z</time>
      </trkpt>
      <trkpt lat="42.8993080" lon="-8.4450860">
        <ele>320.4</ele>
        <time>2021-10-06T10:22:17Z</time>
      </trkpt>
      <trkpt lat="42.8992000" lon="-8.4448710">
        <ele>320.4</ele>
        <time>2021-10-06T10:22:21Z</time>
      </trkpt>
      <trkpt lat="42.8991410" lon="-8.4447670">
        <ele>320.4</ele>
        <time>2021-10-06T10:22:23Z</time>
      </trkpt>
      <trkpt lat="42.8989150" lon="-8.4446540">
        <ele>320.0</ele>
        <time>2021-10-06T10:22:28Z</time>
      </trkpt>
      <trkpt lat="42.8987180" lon="-8.4445970">
        <ele>320.0</ele>
        <time>2021-10-06T10:22:31Z</time>
      </trkpt>
      <trkpt lat="42.8986540" lon="-8.4445630">
        <ele>320.0</ele>
        <time>2021-10-06T10:22:32Z</time>
      </trkpt>
      <trkpt lat="42.8984590" lon="-8.4443090">
        <ele>318.4</ele>
        <time>2021-10-06T10:22:36Z</time>
      </trkpt>
      <trkpt lat="42.8983750" lon="-8.4442050">
        <ele>316.8</ele>
        <time>2021-10-06T10:22:38Z</time>
      </trkpt>
      <trkpt lat="42.8983300" lon="-8.4441670">
        <ele>315.4</ele>
        <time>2021-10-06T10:22:40Z</time>
      </trkpt>
      <trkpt lat="42.8981600" lon="-8.4441030">
        <ele>314.2</ele>
        <time>2021-10-06T10:22:46Z</time>
      </trkpt>
      <trkpt lat="42.8980560" lon="-8.4441470">
        <ele>314.2</ele>
        <time>2021-10-06T10:22:49Z</time>
      </trkpt>
      <trkpt lat="42.8981160" lon="-8.4444850">
        <ele>314.0</ele>
        <time>2021-10-06T10:22:56Z</time>
      </trkpt>
      <trkpt lat="42.8981650" lon="-8.4445800">
        <ele>314.0</ele>
        <time>2021-10-06T10:22:58Z</time>
      </trkpt>
      <trkpt lat="42.8981820" lon="-8.4448880">
        <ele>314.0</ele>
        <time>2021-10-06T10:23:03Z</time>
      </trkpt>
      <trkpt lat="42.8981370" lon="-8.4450470">
        <ele>313.8</ele>
        <time>2021-10-06T10:23:06Z</time>
      </trkpt>
      <trkpt lat="42.8980890" lon="-8.4451470">
        <ele>313.8</ele>
        <time>2021-10-06T10:23:09Z</time>
      </trkpt>
      <trkpt lat="42.8980290" lon="-8.4452450">
        <ele>313.8</ele>
        <time>2021-10-06T10:23:13Z</time>
      </trkpt>
      <trkpt lat="42.8979650" lon="-8.4453420">
        <ele>314.8</ele>
        <time>2021-10-06T10:23:16Z</time>
      </trkpt>
      <trkpt lat="42.8979220" lon="-8.4454160">
        <ele>315.4</ele>
        <time>2021-10-06T10:23:18Z</time>
      </trkpt>
      <trkpt lat="42.8978730" lon="-8.4454910">
        <ele>315.8</ele>
        <time>2021-10-06T10:23:20Z</time>
      </trkpt>
      <trkpt lat="42.8978270" lon="-8.4455690">
        <ele>316.0</ele>
        <time>2021-10-06T10:23:22Z</time>
      </trkpt>
      <trkpt lat="42.8977880" lon="-8.4456510">
        <ele>316.2</ele>
        <time>2021-10-06T10:23:24Z</time>
      </trkpt>
      <trkpt lat="42.8977500" lon="-8.4457340">
        <ele>316.4</ele>
        <time>2021-10-06T10:23:26Z</time>
      </trkpt>
      <trkpt lat="42.8977300" lon="-8.4457770">
        <ele>316.4</ele>
        <time>2021-10-06T10:23:27Z</time>
      </trkpt>
      <trkpt lat="42.8976940" lon="-8.4458620">
        <ele>317.0</ele>
        <time>2021-10-06T10:23:29Z</time>
      </trkpt>
      <trkpt lat="42.8976610" lon="-8.4459480">
        <ele>318.0</ele>
        <time>2021-10-06T10:23:31Z</time>
      </trkpt>
      <trkpt lat="42.8976280" lon="-8.4460320">
        <ele>318.8</ele>
        <time>2021-10-06T10:23:33Z</time>
      </trkpt>
      <trkpt lat="42.8976120" lon="-8.4460730">
        <ele>319.2</ele>
        <time>2021-10-06T10:23:34Z</time>
      </trkpt>
      <trkpt lat="42.8975620" lon="-8.4461870">
        <ele>320.4</ele>
        <time>2021-10-06T10:23:37Z</time>
      </trkpt>
      <trkpt lat="42.8975250" lon="-8.4463020">
        <ele>321.2</ele>
        <time>2021-10-06T10:23:40Z</time>
      </trkpt>
      <trkpt lat="42.8975140" lon="-8.4463430">
        <ele>321.6</ele>
        <time>2021-10-06T10:23:41Z</time>
      </trkpt>
      <trkpt lat="42.8974750" lon="-8.4464560">
        <ele>323.0</ele>
        <time>2021-10-06T10:23:44Z</time>
      </trkpt>
      <trkpt lat="42.8974320" lon="-8.4465570">
        <ele>324.4</ele>
        <time>2021-10-06T10:23:47Z</time>
      </trkpt>
      <trkpt lat="42.8974090" lon="-8.4466550">
        <ele>325.6</ele>
        <time>2021-10-06T10:23:50Z</time>
      </trkpt>
      <trkpt lat="42.8973770" lon="-8.4468060">
        <ele>326.8</ele>
        <time>2021-10-06T10:23:54Z</time>
      </trkpt>
      <trkpt lat="42.8973410" lon="-8.4469460">
        <ele>327.8</ele>
        <time>2021-10-06T10:23:58Z</time>
      </trkpt>
      <trkpt lat="42.8973220" lon="-8.4470830">
        <ele>329.2</ele>
        <time>2021-10-06T10:24:02Z</time>
      </trkpt>
      <trkpt lat="42.8973030" lon="-8.4471740">
        <ele>330.4</ele>
        <time>2021-10-06T10:24:05Z</time>
      </trkpt>
      <trkpt lat="42.8972770" lon="-8.4472700">
        <ele>331.6</ele>
        <time>2021-10-06T10:24:08Z</time>
      </trkpt>
      <trkpt lat="42.8972450" lon="-8.4473690">
        <ele>333.0</ele>
        <time>2021-10-06T10:24:11Z</time>
      </trkpt>
      <trkpt lat="42.8971940" lon="-8.4474580">
        <ele>334.6</ele>
        <time>2021-10-06T10:24:14Z</time>
      </trkpt>
      <trkpt lat="42.8971510" lon="-8.4475110">
        <ele>335.8</ele>
        <time>2021-10-06T10:24:16Z</time>
      </trkpt>
      <trkpt lat="42.8970740" lon="-8.4475690">
        <ele>337.2</ele>
        <time>2021-10-06T10:24:19Z</time>
      </trkpt>
      <trkpt lat="42.8969890" lon="-8.4475890">
        <ele>338.4</ele>
        <time>2021-10-06T10:24:22Z</time>
      </trkpt>
      <trkpt lat="42.8969010" lon="-8.4475930">
        <ele>339.4</ele>
        <time>2021-10-06T10:24:25Z</time>
      </trkpt>
      <trkpt lat="42.8968120" lon="-8.4476010">
        <ele>340.6</ele>
        <time>2021-10-06T10:24:28Z</time>
      </trkpt>
      <trkpt lat="42.8967230" lon="-8.4476170">
        <ele>341.6</ele>
        <time>2021-10-06T10:24:31Z</time>
      </trkpt>
      <trkpt lat="42.8966020" lon="-8.4476290">
        <ele>342.8</ele>
        <time>2021-10-06T10:24:35Z</time>
      </trkpt>
      <trkpt lat="42.8964790" lon="-8.4476300">
        <ele>344.2</ele>
        <time>2021-10-06T10:24:39Z</time>
      </trkpt>
      <trkpt lat="42.8962480" lon="-8.4475870">
        <ele>345.0</ele>
        <time>2021-10-06T10:24:45Z</time>
      </trkpt>
      <trkpt lat="42.8961120" lon="-8.4475750">
        <ele>345.0</ele>
        <time>2021-10-06T10:24:48Z</time>
      </trkpt>
      <trkpt lat="42.8959850" lon="-8.4476000">
        <ele>345.0</ele>
        <time>2021-10-06T10:24:51Z</time>
      </trkpt>
      <trkpt lat="42.8958340" lon="-8.4477420">
        <ele>344.4</ele>
        <time>2021-10-06T10:24:55Z</time>
      </trkpt>
      <trkpt lat="42.8957920" lon="-8.4477790">
        <ele>344.2</ele>
        <time>2021-10-06T10:24:56Z</time>
      </trkpt>
      <trkpt lat="42.8955990" lon="-8.4478480">
        <ele>343.4</ele>
        <time>2021-10-06T10:25:00Z</time>
      </trkpt>
      <trkpt lat="42.8954620" lon="-8.4478610">
        <ele>343.2</ele>
        <time>2021-10-06T10:25:03Z</time>
      </trkpt>
      <trkpt lat="42.8951360" lon="-8.4477340">
        <ele>343.6</ele>
        <time>2021-10-06T10:25:11Z</time>
      </trkpt>
      <trkpt lat="42.8949490" lon="-8.4474630">
        <ele>345.8</ele>
        <time>2021-10-06T10:25:18Z</time>
      </trkpt>
      <trkpt lat="42.8948810" lon="-8.4473260">
        <ele>347.0</ele>
        <time>2021-10-06T10:25:21Z</time>
      </trkpt>
      <trkpt lat="42.8948090" lon="-8.4472030">
        <ele>348.6</ele>
        <time>2021-10-06T10:25:24Z</time>
      </trkpt>
      <trkpt lat="42.8947510" lon="-8.4471580">
        <ele>349.8</ele>
        <time>2021-10-06T10:25:26Z</time>
      </trkpt>
      <trkpt lat="42.8946480" lon="-8.4471360">
        <ele>351.0</ele>
        <time>2021-10-06T10:25:29Z</time>
      </trkpt>
      <trkpt lat="42.8945510" lon="-8.4471600">
        <ele>352.4</ele>
        <time>2021-10-06T10:25:32Z</time>
      </trkpt>
      <trkpt lat="42.8944700" lon="-8.4471970">
        <ele>353.4</ele>
        <time>2021-10-06T10:25:35Z</time>
      </trkpt>
      <trkpt lat="42.8942850" lon="-8.4473990">
        <ele>354.6</ele>
        <time>2021-10-06T10:25:43Z</time>
      </trkpt>
      <trkpt lat="42.8941990" lon="-8.4475450">
        <ele>356.0</ele>
        <time>2021-10-06T10:25:47Z</time>
      </trkpt>
      <trkpt lat="42.8941370" lon="-8.4476590">
        <ele>357.2</ele>
        <time>2021-10-06T10:25:50Z</time>
      </trkpt>
      <trkpt lat="42.8940650" lon="-8.4477510">
        <ele>358.2</ele>
        <time>2021-10-06T10:25:53Z</time>
      </trkpt>
      <trkpt lat="42.8939820" lon="-8.4478310">
        <ele>359.6</ele>
        <time>2021-10-06T10:25:56Z</time>
      </trkpt>
      <trkpt lat="42.8938810" lon="-8.4478800">
        <ele>360.8</ele>
        <time>2021-10-06T10:25:59Z</time>
      </trkpt>
      <trkpt lat="42.8937770" lon="-8.4479410">
        <ele>362.2</ele>
        <time>2021-10-06T10:26:02Z</time>
      </trkpt>
      <trkpt lat="42.8936750" lon="-8.4480080">
        <ele>363.4</ele>
        <time>2021-10-06T10:26:05Z</time>
      </trkpt>
      <trkpt lat="42.8935660" lon="-8.4480610">
        <ele>364.6</ele>
        <time>2021-10-06T10:26:08Z</time>
      </trkpt>
      <trkpt lat="42.8934710" lon="-8.4481270">
        <ele>366.0</ele>
        <time>2021-10-06T10:26:11Z</time>
      </trkpt>
      <trkpt lat="42.8934180" lon="-8.4481680">
        <ele>367.2</ele>
        <time>2021-10-06T10:26:13Z</time>
      </trkpt>
      <trkpt lat="42.8933370" lon="-8.4482380">
        <ele>368.4</ele>
        <time>2021-10-06T10:26:16Z</time>
      </trkpt>
      <trkpt lat="42.8932090" lon="-8.4483720">
        <ele>369.6</ele>
        <time>2021-10-06T10:26:20Z</time>
      </trkpt>
      <trkpt lat="42.8930710" lon="-8.4485240">
        <ele>370.0</ele>
        <time>2021-10-06T10:26:24Z</time>
      </trkpt>
      <trkpt lat="42.8928870" lon="-8.4487490">
        <ele>370.0</ele>
        <time>2021-10-06T10:26:29Z</time>
      </trkpt>
      <trkpt lat="42.8926880" lon="-8.4489870">
        <ele>370.0</ele>
        <time>2021-10-06T10:26:34Z</time>
      </trkpt>
      <trkpt lat="42.8923530" lon="-8.4495120">
        <ele>369.6</ele>
        <time>2021-10-06T10:26:43Z</time>
      </trkpt>
      <trkpt lat="42.8922060" lon="-8.4497470">
        <ele>369.4</ele>
        <time>2021-10-06T10:26:47Z</time>
      </trkpt>
      <trkpt lat="42.8918850" lon="-8.4498290">
        <ele>369.4</ele>
        <time>2021-10-06T10:26:54Z</time>
      </trkpt>
      <trkpt lat="42.8918440" lon="-8.4498080">
        <ele>369.4</ele>
        <time>2021-10-06T10:26:55Z</time>
      </trkpt>
      <trkpt lat="42.8917680" lon="-8.4497630">
        <ele>369.6</ele>
        <time>2021-10-06T10:26:57Z</time>
      </trkpt>
      <trkpt lat="42.8916170" lon="-8.4497040">
        <ele>371.0</ele>
        <time>2021-10-06T10:27:01Z</time>
      </trkpt>
      <trkpt lat="42.8915640" lon="-8.4497850">
        <ele>372.4</ele>
        <time>2021-10-06T10:27:03Z</time>
      </trkpt>
      <trkpt lat="42.8915500" lon="-8.4499110">
        <ele>373.4</ele>
        <time>2021-10-06T10:27:05Z</time>
      </trkpt>
      <trkpt lat="42.8915410" lon="-8.4499770">
        <ele>373.6</ele>
        <time>2021-10-06T10:27:06Z</time>
      </trkpt>
      <trkpt lat="42.8915220" lon="-8.4501080">
        <ele>373.8</ele>
        <time>2021-10-06T10:27:08Z</time>
      </trkpt>
      <trkpt lat="42.8914550" lon="-8.4504330">
        <ele>374.0</ele>
        <time>2021-10-06T10:27:13Z</time>
      </trkpt>
      <trkpt lat="42.8914270" lon="-8.4507860">
        <ele>374.0</ele>
        <time>2021-10-06T10:27:18Z</time>
      </trkpt>
      <trkpt lat="42.8914430" lon="-8.4509340">
        <ele>374.0</ele>
        <time>2021-10-06T10:27:20Z</time>
      </trkpt>
      <trkpt lat="42.8914250" lon="-8.4514370">
        <ele>373.8</ele>
        <time>2021-10-06T10:27:25Z</time>
      </trkpt>
      <trkpt lat="42.8913820" lon="-8.4519230">
        <ele>372.8</ele>
        <time>2021-10-06T10:27:29Z</time>
      </trkpt>
      <trkpt lat="42.8913820" lon="-8.4520290">
        <ele>371.8</ele>
        <time>2021-10-06T10:27:30Z</time>
      </trkpt>
      <trkpt lat="42.8913850" lon="-8.4523010">
        <ele>371.6</ele>
        <time>2021-10-06T10:27:33Z</time>
      </trkpt>
      <trkpt lat="42.8913750" lon="-8.4524460">
        <ele>371.4</ele>
        <time>2021-10-06T10:27:35Z</time>
      </trkpt>
      <trkpt lat="42.8912970" lon="-8.4526740">
        <ele>371.8</ele>
        <time>2021-10-06T10:27:39Z</time>
      </trkpt>
      <trkpt lat="42.8912300" lon="-8.4527620">
        <ele>373.6</ele>
        <time>2021-10-06T10:27:41Z</time>
      </trkpt>
      <trkpt lat="42.8911590" lon="-8.4528530">
        <ele>375.4</ele>
        <time>2021-10-06T10:27:43Z</time>
      </trkpt>
      <trkpt lat="42.8910930" lon="-8.4529480">
        <ele>377.0</ele>
        <time>2021-10-06T10:27:45Z</time>
      </trkpt>
      <trkpt lat="42.8910640" lon="-8.4529980">
        <ele>377.8</ele>
        <time>2021-10-06T10:27:46Z</time>
      </trkpt>
      <trkpt lat="42.8910390" lon="-8.4530510">
        <ele>378.2</ele>
        <time>2021-10-06T10:27:47Z</time>
      </trkpt>
      <trkpt lat="42.8909860" lon="-8.4532120">
        <ele>379.6</ele>
        <time>2021-10-06T10:27:50Z</time>
      </trkpt>
      <trkpt lat="42.8909760" lon="-8.4532660">
        <ele>379.8</ele>
        <time>2021-10-06T10:27:51Z</time>
      </trkpt>
      <trkpt lat="42.8909600" lon="-8.4533740">
        <ele>380.6</ele>
        <time>2021-10-06T10:27:53Z</time>
      </trkpt>
      <trkpt lat="42.8909490" lon="-8.4535860">
        <ele>381.6</ele>
        <time>2021-10-06T10:27:57Z</time>
      </trkpt>
      <trkpt lat="42.8909340" lon="-8.4538110">
        <ele>382.8</ele>
        <time>2021-10-06T10:28:01Z</time>
      </trkpt>
      <trkpt lat="42.8909140" lon="-8.4540190">
        <ele>384.2</ele>
        <time>2021-10-06T10:28:04Z</time>
      </trkpt>
      <trkpt lat="42.8908740" lon="-8.4546130">
        <ele>385.2</ele>
        <time>2021-10-06T10:28:11Z</time>
      </trkpt>
      <trkpt lat="42.8908590" lon="-8.4546900">
        <ele>385.2</ele>
        <time>2021-10-06T10:28:12Z</time>
      </trkpt>
      <trkpt lat="42.8907140" lon="-8.4550360">
        <ele>385.6</ele>
        <time>2021-10-06T10:28:17Z</time>
      </trkpt>
      <trkpt lat="42.8906390" lon="-8.4551570">
        <ele>386.2</ele>
        <time>2021-10-06T10:28:19Z</time>
      </trkpt>
      <trkpt lat="42.8904690" lon="-8.4554770">
        <ele>387.4</ele>
        <time>2021-10-06T10:28:24Z</time>
      </trkpt>
      <trkpt lat="42.8902670" lon="-8.4560040">
        <ele>388.4</ele>
        <time>2021-10-06T10:28:32Z</time>
      </trkpt>
      <trkpt lat="42.8901880" lon="-8.4562500">
        <ele>388.8</ele>
        <time>2021-10-06T10:28:36Z</time>
      </trkpt>
      <trkpt lat="42.8901540" lon="-8.4563750">
        <ele>389.8</ele>
        <time>2021-10-06T10:28:38Z</time>
      </trkpt>
      <trkpt lat="42.8901360" lon="-8.4564940">
        <ele>390.8</ele>
        <time>2021-10-06T10:28:40Z</time>
      </trkpt>
      <trkpt lat="42.8901310" lon="-8.4565580">
        <ele>391.0</ele>
        <time>2021-10-06T10:28:41Z</time>
      </trkpt>
      <trkpt lat="42.8901220" lon="-8.4566190">
        <ele>391.2</ele>
        <time>2021-10-06T10:28:42Z</time>
      </trkpt>
      <trkpt lat="42.8901090" lon="-8.4567460">
        <ele>391.6</ele>
        <time>2021-10-06T10:28:44Z</time>
      </trkpt>
      <trkpt lat="42.8901100" lon="-8.4568710">
        <ele>392.0</ele>
        <time>2021-10-06T10:28:46Z</time>
      </trkpt>
      <trkpt lat="42.8901210" lon="-8.4571910">
        <ele>393.2</ele>
        <time>2021-10-06T10:28:51Z</time>
      </trkpt>
      <trkpt lat="42.8901590" lon="-8.4574900">
        <ele>393.6</ele>
        <time>2021-10-06T10:28:56Z</time>
      </trkpt>
      <trkpt lat="42.8901840" lon="-8.4576100">
        <ele>393.8</ele>
        <time>2021-10-06T10:28:58Z</time>
      </trkpt>
      <trkpt lat="42.8903020" lon="-8.4580440">
        <ele>394.0</ele>
        <time>2021-10-06T10:29:04Z</time>
      </trkpt>
      <trkpt lat="42.8903300" lon="-8.4581890">
        <ele>394.2</ele>
        <time>2021-10-06T10:29:06Z</time>
      </trkpt>
      <trkpt lat="42.8903470" lon="-8.4582530">
        <ele>394.2</ele>
        <time>2021-10-06T10:29:07Z</time>
      </trkpt>
      <trkpt lat="42.8903890" lon="-8.4584970">
        <ele>395.4</ele>
        <time>2021-10-06T10:29:11Z</time>
      </trkpt>
      <trkpt lat="42.8903890" lon="-8.4585560">
        <ele>396.6</ele>
        <time>2021-10-06T10:29:12Z</time>
      </trkpt>
      <trkpt lat="42.8903920" lon="-8.4586740">
        <ele>397.8</ele>
        <time>2021-10-06T10:29:14Z</time>
      </trkpt>
      <trkpt lat="42.8904270" lon="-8.4590690">
        <ele>398.8</ele>
        <time>2021-10-06T10:29:19Z</time>
      </trkpt>
      <trkpt lat="42.8904410" lon="-8.4592200">
        <ele>399.0</ele>
        <time>2021-10-06T10:29:21Z</time>
      </trkpt>
      <trkpt lat="42.8904770" lon="-8.4595310">
        <ele>399.8</ele>
        <time>2021-10-06T10:29:25Z</time>
      </trkpt>
      <trkpt lat="42.8905010" lon="-8.4597590">
        <ele>401.4</ele>
        <time>2021-10-06T10:29:28Z</time>
      </trkpt>
      <trkpt lat="42.8905050" lon="-8.4598330">
        <ele>401.6</ele>
        <time>2021-10-06T10:29:29Z</time>
      </trkpt>
      <trkpt lat="42.8905280" lon="-8.4599560">
        <ele>401.8</ele>
        <time>2021-10-06T10:29:32Z</time>
      </trkpt>
      <trkpt lat="42.8905490" lon="-8.4597320">
        <ele>403.2</ele>
        <time>2021-10-06T10:29:52Z</time>
      </trkpt>
      <trkpt lat="42.8905530" lon="-8.4597530">
        <ele>403.2</ele>
        <time>2021-10-06T10:29:53Z</time>
      </trkpt>
      <trkpt lat="42.8905730" lon="-8.4602600">
        <ele>403.0</ele>
        <time>2021-10-06T10:30:03Z</time>
      </trkpt>
      <trkpt lat="42.8905290" lon="-8.4606700">
        <ele>402.4</ele>
        <time>2021-10-06T10:30:09Z</time>
      </trkpt>
      <trkpt lat="42.8905050" lon="-8.4608250">
        <ele>402.2</ele>
        <time>2021-10-06T10:30:11Z</time>
      </trkpt>
      <trkpt lat="42.8904990" lon="-8.4609020">
        <ele>402.0</ele>
        <time>2021-10-06T10:30:12Z</time>
      </trkpt>
      <trkpt lat="42.8904760" lon="-8.4610590">
        <ele>401.8</ele>
        <time>2021-10-06T10:30:14Z</time>
      </trkpt>
      <trkpt lat="42.8904610" lon="-8.4612780">
        <ele>401.6</ele>
        <time>2021-10-06T10:30:17Z</time>
      </trkpt>
      <trkpt lat="42.8904270" lon="-8.4618560">
        <ele>401.2</ele>
        <time>2021-10-06T10:30:24Z</time>
      </trkpt>
      <trkpt lat="42.8904110" lon="-8.4623150">
        <ele>401.2</ele>
        <time>2021-10-06T10:30:29Z</time>
      </trkpt>
      <trkpt lat="42.8903700" lon="-8.4631050">
        <ele>401.4</ele>
        <time>2021-10-06T10:30:38Z</time>
      </trkpt>
      <trkpt lat="42.8903730" lon="-8.4631820">
        <ele>401.4</ele>
        <time>2021-10-06T10:30:39Z</time>
      </trkpt>
      <trkpt lat="42.8904250" lon="-8.4635690">
        <ele>401.4</ele>
        <time>2021-10-06T10:30:43Z</time>
      </trkpt>
      <trkpt lat="42.8905000" lon="-8.4641950">
        <ele>401.4</ele>
        <time>2021-10-06T10:30:49Z</time>
      </trkpt>
      <trkpt lat="42.8906340" lon="-8.4649760">
        <ele>402.4</ele>
        <time>2021-10-06T10:30:57Z</time>
      </trkpt>
      <trkpt lat="42.8907460" lon="-8.4657780">
        <ele>402.8</ele>
        <time>2021-10-06T10:31:05Z</time>
      </trkpt>
      <trkpt lat="42.8908480" lon="-8.4665110">
        <ele>402.8</ele>
        <time>2021-10-06T10:31:13Z</time>
      </trkpt>
      <trkpt lat="42.8909630" lon="-8.4672520">
        <ele>403.2</ele>
        <time>2021-10-06T10:31:21Z</time>
      </trkpt>
      <trkpt lat="42.8909770" lon="-8.4673590">
        <ele>403.4</ele>
        <time>2021-10-06T10:31:22Z</time>
      </trkpt>
      <trkpt lat="42.8910060" lon="-8.4676690">
        <ele>403.8</ele>
        <time>2021-10-06T10:31:25Z</time>
      </trkpt>
      <trkpt lat="42.8910480" lon="-8.4680420">
        <ele>404.2</ele>
        <time>2021-10-06T10:31:29Z</time>
      </trkpt>
      <trkpt lat="42.8910750" lon="-8.4683090">
        <ele>404.4</ele>
        <time>2021-10-06T10:31:32Z</time>
      </trkpt>
      <trkpt lat="42.8911480" lon="-8.4687630">
        <ele>405.8</ele>
        <time>2021-10-06T10:31:37Z</time>
      </trkpt>
      <trkpt lat="42.8911990" lon="-8.4690190">
        <ele>407.0</ele>
        <time>2021-10-06T10:31:40Z</time>
      </trkpt>
      <trkpt lat="42.8913130" lon="-8.4697660">
        <ele>407.8</ele>
        <time>2021-10-06T10:31:49Z</time>
      </trkpt>
      <trkpt lat="42.8913380" lon="-8.4699390">
        <ele>408.0</ele>
        <time>2021-10-06T10:31:51Z</time>
      </trkpt>
      <trkpt lat="42.8914160" lon="-8.4704840">
        <ele>408.4</ele>
        <time>2021-10-06T10:31:57Z</time>
      </trkpt>
      <trkpt lat="42.8914890" lon="-8.4709830">
        <ele>408.4</ele>
        <time>2021-10-06T10:32:02Z</time>
      </trkpt>
      <trkpt lat="42.8915330" lon="-8.4712950">
        <ele>407.6</ele>
        <time>2021-10-06T10:32:05Z</time>
      </trkpt>
      <trkpt lat="42.8915610" lon="-8.4715080">
        <ele>406.4</ele>
        <time>2021-10-06T10:32:07Z</time>
      </trkpt>
      <trkpt lat="42.8916190" lon="-8.4719420">
        <ele>405.2</ele>
        <time>2021-10-06T10:32:11Z</time>
      </trkpt>
      <trkpt lat="42.8916610" lon="-8.4722750">
        <ele>404.0</ele>
        <time>2021-10-06T10:32:14Z</time>
      </trkpt>
      <trkpt lat="42.8917020" lon="-8.4726150">
        <ele>402.6</ele>
        <time>2021-10-06T10:32:17Z</time>
      </trkpt>
      <trkpt lat="42.8917420" lon="-8.4729530">
        <ele>401.2</ele>
        <time>2021-10-06T10:32:20Z</time>
      </trkpt>
      <trkpt lat="42.8917960" lon="-8.4733890">
        <ele>400.0</ele>
        <time>2021-10-06T10:32:24Z</time>
      </trkpt>
      <trkpt lat="42.8918720" lon="-8.4739990">
        <ele>399.0</ele>
        <time>2021-10-06T10:32:30Z</time>
      </trkpt>
      <trkpt lat="42.8919570" lon="-8.4747340">
        <ele>399.0</ele>
        <time>2021-10-06T10:32:38Z</time>
      </trkpt>
      <trkpt lat="42.8920500" lon="-8.4755060">
        <ele>399.4</ele>
        <time>2021-10-06T10:32:47Z</time>
      </trkpt>
      <trkpt lat="42.8920710" lon="-8.4756690">
        <ele>399.4</ele>
        <time>2021-10-06T10:32:49Z</time>
      </trkpt>
      <trkpt lat="42.8921720" lon="-8.4762610">
        <ele>399.4</ele>
        <time>2021-10-06T10:32:57Z</time>
      </trkpt>
      <trkpt lat="42.8922220" lon="-8.4763750">
        <ele>399.4</ele>
        <time>2021-10-06T10:32:59Z</time>
      </trkpt>
      <trkpt lat="42.8922240" lon="-8.4765980">
        <ele>401.0</ele>
        <time>2021-10-06T10:37:16Z</time>
      </trkpt>
      <trkpt lat="42.8922110" lon="-8.4766060">
        <ele>401.0</ele>
        <time>2021-10-06T10:37:17Z</time>
      </trkpt>
      <trkpt lat="42.8921620" lon="-8.4766030">
        <ele>401.0</ele>
        <time>2021-10-06T10:37:19Z</time>
      </trkpt>
      <trkpt lat="42.8920950" lon="-8.4765890">
        <ele>401.0</ele>
        <time>2021-10-06T10:37:21Z</time>
      </trkpt>
      <trkpt lat="42.8919730" lon="-8.4765550">
        <ele>401.0</ele>
        <time>2021-10-06T10:37:24Z</time>
      </trkpt>
      <trkpt lat="42.8917330" lon="-8.4764830">
        <ele>401.0</ele>
        <time>2021-10-06T10:37:29Z</time>
      </trkpt>
      <trkpt lat="42.8911850" lon="-8.4763470">
        <ele>400.4</ele>
        <time>2021-10-06T10:37:39Z</time>
      </trkpt>
      <trkpt lat="42.8906100" lon="-8.4762120">
        <ele>401.2</ele>
        <time>2021-10-06T10:37:50Z</time>
      </trkpt>
      <trkpt lat="42.8905030" lon="-8.4764930">
        <ele>401.6</ele>
        <time>2021-10-06T10:37:55Z</time>
      </trkpt>
      <trkpt lat="42.8905080" lon="-8.4767650">
        <ele>401.6</ele>
        <time>2021-10-06T10:37:59Z</time>
      </trkpt>
      <trkpt lat="42.8905140" lon="-8.4768300">
        <ele>401.6</ele>
        <time>2021-10-06T10:38:00Z</time>
      </trkpt>
      <trkpt lat="42.8905400" lon="-8.4771620">
        <ele>400.0</ele>
        <time>2021-10-06T10:38:04Z</time>
      </trkpt>
      <trkpt lat="42.8905440" lon="-8.4776610">
        <ele>399.0</ele>
        <time>2021-10-06T10:38:09Z</time>
      </trkpt>
      <trkpt lat="42.8905530" lon="-8.4780130">
        <ele>397.8</ele>
        <time>2021-10-06T10:38:12Z</time>
      </trkpt>
      <trkpt lat="42.8905610" lon="-8.4782800">
        <ele>397.0</ele>
        <time>2021-10-06T10:38:14Z</time>
      </trkpt>
      <trkpt lat="42.8905640" lon="-8.4784190">
        <ele>396.6</ele>
        <time>2021-10-06T10:38:15Z</time>
      </trkpt>
      <trkpt lat="42.8905710" lon="-8.4787070">
        <ele>395.4</ele>
        <time>2021-10-06T10:38:17Z</time>
      </trkpt>
      <trkpt lat="42.8905750" lon="-8.4790080">
        <ele>394.4</ele>
        <time>2021-10-06T10:38:19Z</time>
      </trkpt>
      <trkpt lat="42.8905800" lon="-8.4791560">
        <ele>392.8</ele>
        <time>2021-10-06T10:38:20Z</time>
      </trkpt>
      <trkpt lat="42.8905890" lon="-8.4794520">
        <ele>391.4</ele>
        <time>2021-10-06T10:38:22Z</time>
      </trkpt>
      <trkpt lat="42.8905940" lon="-8.4797380">
        <ele>390.6</ele>
        <time>2021-10-06T10:38:24Z</time>
      </trkpt>
      <trkpt lat="42.8905990" lon="-8.4800040">
        <ele>390.2</ele>
        <time>2021-10-06T10:38:26Z</time>
      </trkpt>
      <trkpt lat="42.8906080" lon="-8.4802380">
        <ele>390.2</ele>
        <time>2021-10-06T10:38:28Z</time>
      </trkpt>
      <trkpt lat="42.8906250" lon="-8.4805510">
        <ele>390.2</ele>
        <time>2021-10-06T10:38:31Z</time>
      </trkpt>
      <trkpt lat="42.8906350" lon="-8.4809510">
        <ele>391.2</ele>
        <time>2021-10-06T10:38:35Z</time>
      </trkpt>
      <trkpt lat="42.8906460" lon="-8.4811430">
        <ele>393.4</ele>
        <time>2021-10-06T10:38:37Z</time>
      </trkpt>
      <trkpt lat="42.8906500" lon="-8.4812360">
        <ele>394.4</ele>
        <time>2021-10-06T10:38:38Z</time>
      </trkpt>
      <trkpt lat="42.8906520" lon="-8.4813240">
        <ele>395.8</ele>
        <time>2021-10-06T10:38:39Z</time>
      </trkpt>
      <trkpt lat="42.8906520" lon="-8.4814110">
        <ele>397.0</ele>
        <time>2021-10-06T10:38:40Z</time>
      </trkpt>
      <trkpt lat="42.8906500" lon="-8.4815820">
        <ele>398.6</ele>
        <time>2021-10-06T10:38:42Z</time>
      </trkpt>
      <trkpt lat="42.8906550" lon="-8.4818260">
        <ele>399.8</ele>
        <time>2021-10-06T10:38:45Z</time>
      </trkpt>
      <trkpt lat="42.8906610" lon="-8.4819890">
        <ele>401.0</ele>
        <time>2021-10-06T10:38:47Z</time>
      </trkpt>
      <trkpt lat="42.8906720" lon="-8.4822420">
        <ele>402.0</ele>
        <time>2021-10-06T10:38:50Z</time>
      </trkpt>
      <trkpt lat="42.8906880" lon="-8.4826120">
        <ele>403.0</ele>
        <time>2021-10-06T10:38:54Z</time>
      </trkpt>
      <trkpt lat="42.8907190" lon="-8.4833750">
        <ele>403.0</ele>
        <time>2021-10-06T10:39:01Z</time>
      </trkpt>
      <trkpt lat="42.8907250" lon="-8.4836980">
        <ele>401.6</ele>
        <time>2021-10-06T10:39:04Z</time>
      </trkpt>
      <trkpt lat="42.8907370" lon="-8.4840240">
        <ele>400.6</ele>
        <time>2021-10-06T10:39:07Z</time>
      </trkpt>
      <trkpt lat="42.8907580" lon="-8.4846730">
        <ele>400.0</ele>
        <time>2021-10-06T10:39:12Z</time>
      </trkpt>
      <trkpt lat="42.8907680" lon="-8.4850890">
        <ele>399.8</ele>
        <time>2021-10-06T10:39:15Z</time>
      </trkpt>
      <trkpt lat="42.8907710" lon="-8.4852220">
        <ele>399.4</ele>
        <time>2021-10-06T10:39:16Z</time>
      </trkpt>
      <trkpt lat="42.8907760" lon="-8.4854840">
        <ele>397.4</ele>
        <time>2021-10-06T10:39:18Z</time>
      </trkpt>
      <trkpt lat="42.8907800" lon="-8.4856130">
        <ele>395.8</ele>
        <time>2021-10-06T10:39:19Z</time>
      </trkpt>
      <trkpt lat="42.8907850" lon="-8.4857380">
        <ele>394.4</ele>
        <time>2021-10-06T10:39:20Z</time>
      </trkpt>
      <trkpt lat="42.8907790" lon="-8.4858580">
        <ele>393.4</ele>
        <time>2021-10-06T10:39:21Z</time>
      </trkpt>
      <trkpt lat="42.8906900" lon="-8.4860590">
        <ele>392.2</ele>
        <time>2021-10-06T10:39:23Z</time>
      </trkpt>
      <trkpt lat="42.8906640" lon="-8.4866050">
        <ele>391.0</ele>
        <time>2021-10-06T10:39:28Z</time>
      </trkpt>
      <trkpt lat="42.8907140" lon="-8.4868530">
        <ele>390.0</ele>
        <time>2021-10-06T10:39:30Z</time>
      </trkpt>
      <trkpt lat="42.8907360" lon="-8.4869770">
        <ele>389.8</ele>
        <time>2021-10-06T10:39:31Z</time>
      </trkpt>
      <trkpt lat="42.8907950" lon="-8.4872710">
        <ele>388.0</ele>
        <time>2021-10-06T10:39:34Z</time>
      </trkpt>
      <trkpt lat="42.8908220" lon="-8.4873370">
        <ele>386.8</ele>
        <time>2021-10-06T10:39:35Z</time>
      </trkpt>
      <trkpt lat="42.8908640" lon="-8.4873820">
        <ele>385.6</ele>
        <time>2021-10-06T10:39:36Z</time>
      </trkpt>
      <trkpt lat="42.8909160" lon="-8.4874080">
        <ele>384.2</ele>
        <time>2021-10-06T10:39:37Z</time>
      </trkpt>
      <trkpt lat="42.8910330" lon="-8.4874190">
        <ele>382.8</ele>
        <time>2021-10-06T10:39:39Z</time>
      </trkpt>
      <trkpt lat="42.8913420" lon="-8.4875540">
        <ele>382.0</ele>
        <time>2021-10-06T10:39:44Z</time>
      </trkpt>
      <trkpt lat="42.8914530" lon="-8.4876590">
        <ele>381.8</ele>
        <time>2021-10-06T10:39:46Z</time>
      </trkpt>
      <trkpt lat="42.8914980" lon="-8.4881930">
        <ele>380.6</ele>
        <time>2021-10-06T10:39:52Z</time>
      </trkpt>
      <trkpt lat="42.8914900" lon="-8.4882830">
        <ele>380.4</ele>
        <time>2021-10-06T10:39:53Z</time>
      </trkpt>
      <trkpt lat="42.8913600" lon="-8.4890290">
        <ele>379.8</ele>
        <time>2021-10-06T10:40:01Z</time>
      </trkpt>
      <trkpt lat="42.8913340" lon="-8.4891240">
        <ele>379.8</ele>
        <time>2021-10-06T10:40:02Z</time>
      </trkpt>
      <trkpt lat="42.8912320" lon="-8.4894170">
        <ele>379.4</ele>
        <time>2021-10-06T10:40:05Z</time>
      </trkpt>
      <trkpt lat="42.8911660" lon="-8.4896130">
        <ele>379.4</ele>
        <time>2021-10-06T10:40:07Z</time>
      </trkpt>
      <trkpt lat="42.8910850" lon="-8.4899090">
        <ele>379.4</ele>
        <time>2021-10-06T10:40:10Z</time>
      </trkpt>
      <trkpt lat="42.8909850" lon="-8.4903790">
        <ele>379.4</ele>
        <time>2021-10-06T10:40:15Z</time>
      </trkpt>
      <trkpt lat="42.8908850" lon="-8.4908620">
        <ele>380.4</ele>
        <time>2021-10-06T10:40:20Z</time>
      </trkpt>
      <trkpt lat="42.8908300" lon="-8.4911510">
        <ele>381.8</ele>
        <time>2021-10-06T10:40:23Z</time>
      </trkpt>
      <trkpt lat="42.8907370" lon="-8.4914550">
        <ele>382.8</ele>
        <time>2021-10-06T10:40:26Z</time>
      </trkpt>
      <trkpt lat="42.8907000" lon="-8.4915520">
        <ele>383.0</ele>
        <time>2021-10-06T10:40:27Z</time>
      </trkpt>
      <trkpt lat="42.8906260" lon="-8.4917400">
        <ele>384.0</ele>
        <time>2021-10-06T10:40:29Z</time>
      </trkpt>
      <trkpt lat="42.8904680" lon="-8.4921620">
        <ele>385.0</ele>
        <time>2021-10-06T10:40:34Z</time>
      </trkpt>
      <trkpt lat="42.8903730" lon="-8.4923740">
        <ele>385.6</ele>
        <time>2021-10-06T10:40:37Z</time>
      </trkpt>
      <trkpt lat="42.8902500" lon="-8.4926250">
        <ele>386.0</ele>
        <time>2021-10-06T10:40:41Z</time>
      </trkpt>
      <trkpt lat="42.8902200" lon="-8.4926850">
        <ele>386.2</ele>
        <time>2021-10-06T10:40:42Z</time>
      </trkpt>
      <trkpt lat="42.8901100" lon="-8.4929310">
        <ele>387.0</ele>
        <time>2021-10-06T10:40:46Z</time>
      </trkpt>
      <trkpt lat="42.8900870" lon="-8.4929940">
        <ele>387.2</ele>
        <time>2021-10-06T10:40:47Z</time>
      </trkpt>
      <trkpt lat="42.8899940" lon="-8.4933160">
        <ele>388.4</ele>
        <time>2021-10-06T10:40:52Z</time>
      </trkpt>
      <trkpt lat="42.8898790" lon="-8.4936990">
        <ele>389.4</ele>
        <time>2021-10-06T10:40:58Z</time>
      </trkpt>
      <trkpt lat="42.8897880" lon="-8.4939260">
        <ele>390.6</ele>
        <time>2021-10-06T10:41:02Z</time>
      </trkpt>
      <trkpt lat="42.8897370" lon="-8.4940300">
        <ele>391.0</ele>
        <time>2021-10-06T10:41:04Z</time>
      </trkpt>
      <trkpt lat="42.8896320" lon="-8.4941780">
        <ele>391.6</ele>
        <time>2021-10-06T10:41:08Z</time>
      </trkpt>
      <trkpt lat="42.8895870" lon="-8.4942340">
        <ele>392.2</ele>
        <time>2021-10-06T10:41:12Z</time>
      </trkpt>
      <trkpt lat="42.8895860" lon="-8.4942350">
        <ele>392.4</ele>
        <time>2021-10-06T10:41:13Z</time>
      </trkpt>
      <trkpt lat="42.8889840" lon="-8.4939440">
        <ele>397.6</ele>
        <time>2021-10-06T10:54:36Z</time>
      </trkpt>
      <trkpt lat="42.8889680" lon="-8.4939370">
        <ele>397.6</ele>
        <time>2021-10-06T10:54:37Z</time>
      </trkpt>
      <trkpt lat="42.8889300" lon="-8.4938970">
        <ele>397.6</ele>
        <time>2021-10-06T10:54:39Z</time>
      </trkpt>
      <trkpt lat="42.8887710" lon="-8.4937870">
        <ele>397.2</ele>
        <time>2021-10-06T10:54:44Z</time>
      </trkpt>
      <trkpt lat="42.8886350" lon="-8.4937970">
        <ele>396.6</ele>
        <time>2021-10-06T10:54:47Z</time>
      </trkpt>
      <trkpt lat="42.8884620" lon="-8.4939910">
        <ele>395.4</ele>
        <time>2021-10-06T10:54:51Z</time>
      </trkpt>
      <trkpt lat="42.8883590" lon="-8.4943010">
        <ele>394.4</ele>
        <time>2021-10-06T10:54:55Z</time>
      </trkpt>
      <trkpt lat="42.8883230" lon="-8.4945070">
        <ele>392.6</ele>
        <time>2021-10-06T10:54:58Z</time>
      </trkpt>
      <trkpt lat="42.8883150" lon="-8.4945700">
        <ele>391.8</ele>
        <time>2021-10-06T10:54:59Z</time>
      </trkpt>
      <trkpt lat="42.8883100" lon="-8.4946350">
        <ele>391.2</ele>
        <time>2021-10-06T10:55:00Z</time>
      </trkpt>
      <trkpt lat="42.8882980" lon="-8.4947700">
        <ele>390.0</ele>
        <time>2021-10-06T10:55:02Z</time>
      </trkpt>
      <trkpt lat="42.8882850" lon="-8.4948360">
        <ele>389.8</ele>
        <time>2021-10-06T10:55:03Z</time>
      </trkpt>
      <trkpt lat="42.8882070" lon="-8.4950320">
        <ele>388.8</ele>
        <time>2021-10-06T10:55:07Z</time>
      </trkpt>
      <trkpt lat="42.8881050" lon="-8.4951980">
        <ele>387.8</ele>
        <time>2021-10-06T10:55:10Z</time>
      </trkpt>
      <trkpt lat="42.8879210" lon="-8.4953050">
        <ele>386.6</ele>
        <time>2021-10-06T10:55:13Z</time>
      </trkpt>
      <trkpt lat="42.8878460" lon="-8.4953150">
        <ele>386.4</ele>
        <time>2021-10-06T10:55:14Z</time>
      </trkpt>
      <trkpt lat="42.8876820" lon="-8.4953210">
        <ele>385.4</ele>
        <time>2021-10-06T10:55:16Z</time>
      </trkpt>
      <trkpt lat="42.8875020" lon="-8.4953030">
        <ele>384.2</ele>
        <time>2021-10-06T10:55:18Z</time>
      </trkpt>
      <trkpt lat="42.8874110" lon="-8.4952760">
        <ele>383.2</ele>
        <time>2021-10-06T10:55:19Z</time>
      </trkpt>
      <trkpt lat="42.8872350" lon="-8.4951950">
        <ele>381.4</ele>
        <time>2021-10-06T10:55:21Z</time>
      </trkpt>
      <trkpt lat="42.8870730" lon="-8.4951090">
        <ele>379.6</ele>
        <time>2021-10-06T10:55:23Z</time>
      </trkpt>
      <trkpt lat="42.8869970" lon="-8.4950680">
        <ele>378.6</ele>
        <time>2021-10-06T10:55:24Z</time>
      </trkpt>
      <trkpt lat="42.8869250" lon="-8.4950270">
        <ele>377.2</ele>
        <time>2021-10-06T10:55:25Z</time>
      </trkpt>
      <trkpt lat="42.8868550" lon="-8.4949880">
        <ele>374.2</ele>
        <time>2021-10-06T10:55:26Z</time>
      </trkpt>
      <trkpt lat="42.8866520" lon="-8.4948790">
        <ele>373.2</ele>
        <time>2021-10-06T10:55:29Z</time>
      </trkpt>
      <trkpt lat="42.8865910" lon="-8.4948430">
        <ele>373.2</ele>
        <time>2021-10-06T10:55:30Z</time>
      </trkpt>
      <trkpt lat="42.8865320" lon="-8.4948070">
        <ele>373.2</ele>
        <time>2021-10-06T10:55:31Z</time>
      </trkpt>
      <trkpt lat="42.8863720" lon="-8.4947320">
        <ele>373.2</ele>
        <time>2021-10-06T10:55:34Z</time>
      </trkpt>
      <trkpt lat="42.8862270" lon="-8.4948190">
        <ele>373.2</ele>
        <time>2021-10-06T10:55:37Z</time>
      </trkpt>
      <trkpt lat="42.8861860" lon="-8.4948700">
        <ele>373.2</ele>
        <time>2021-10-06T10:55:38Z</time>
      </trkpt>
      <trkpt lat="42.8860220" lon="-8.4950920">
        <ele>373.2</ele>
        <time>2021-10-06T10:55:42Z</time>
      </trkpt>
      <trkpt lat="42.8859780" lon="-8.4951460">
        <ele>373.2</ele>
        <time>2021-10-06T10:55:43Z</time>
      </trkpt>
      <trkpt lat="42.8859330" lon="-8.4952010">
        <ele>373.2</ele>
        <time>2021-10-06T10:55:44Z</time>
      </trkpt>
      <trkpt lat="42.8855600" lon="-8.4956590">
        <ele>372.2</ele>
        <time>2021-10-06T10:55:52Z</time>
      </trkpt>
      <trkpt lat="42.8854630" lon="-8.4957810">
        <ele>371.8</ele>
        <time>2021-10-06T10:55:54Z</time>
      </trkpt>
      <trkpt lat="42.8853620" lon="-8.4959130">
        <ele>370.8</ele>
        <time>2021-10-06T10:55:56Z</time>
      </trkpt>
      <trkpt lat="42.8851270" lon="-8.4961850">
        <ele>369.8</ele>
        <time>2021-10-06T10:56:00Z</time>
      </trkpt>
      <trkpt lat="42.8850620" lon="-8.4962480">
        <ele>369.8</ele>
        <time>2021-10-06T10:56:01Z</time>
      </trkpt>
      <trkpt lat="42.8848810" lon="-8.4964490">
        <ele>369.2</ele>
        <time>2021-10-06T10:56:04Z</time>
      </trkpt>
      <trkpt lat="42.8848260" lon="-8.4965180">
        <ele>368.4</ele>
        <time>2021-10-06T10:56:05Z</time>
      </trkpt>
      <trkpt lat="42.8847190" lon="-8.4966540">
        <ele>366.8</ele>
        <time>2021-10-06T10:56:07Z</time>
      </trkpt>
      <trkpt lat="42.8846090" lon="-8.4967900">
        <ele>365.2</ele>
        <time>2021-10-06T10:56:09Z</time>
      </trkpt>
      <trkpt lat="42.8844430" lon="-8.4970100">
        <ele>364.0</ele>
        <time>2021-10-06T10:56:12Z</time>
      </trkpt>
      <trkpt lat="42.8843290" lon="-8.4971780">
        <ele>362.8</ele>
        <time>2021-10-06T10:56:14Z</time>
      </trkpt>
      <trkpt lat="42.8841910" lon="-8.4973470">
        <ele>362.0</ele>
        <time>2021-10-06T10:56:16Z</time>
      </trkpt>
      <trkpt lat="42.8841130" lon="-8.4974330">
        <ele>361.6</ele>
        <time>2021-10-06T10:56:17Z</time>
      </trkpt>
      <trkpt lat="42.8840310" lon="-8.4975260">
        <ele>361.2</ele>
        <time>2021-10-06T10:56:18Z</time>
      </trkpt>
      <trkpt lat="42.8838490" lon="-8.4977300">
        <ele>360.6</ele>
        <time>2021-10-06T10:56:20Z</time>
      </trkpt>
      <trkpt lat="42.8837470" lon="-8.4978360">
        <ele>360.2</ele>
        <time>2021-10-06T10:56:21Z</time>
      </trkpt>
      <trkpt lat="42.8836410" lon="-8.4979490">
        <ele>359.8</ele>
        <time>2021-10-06T10:56:22Z</time>
      </trkpt>
      <trkpt lat="42.8835340" lon="-8.4980700">
        <ele>359.0</ele>
        <time>2021-10-06T10:56:23Z</time>
      </trkpt>
      <trkpt lat="42.8833210" lon="-8.4983260">
        <ele>357.8</ele>
        <time>2021-10-06T10:56:25Z</time>
      </trkpt>
      <trkpt lat="42.8832130" lon="-8.4984550">
        <ele>356.4</ele>
        <time>2021-10-06T10:56:26Z</time>
      </trkpt>
      <trkpt lat="42.8831050" lon="-8.4985850">
        <ele>354.6</ele>
        <time>2021-10-06T10:56:27Z</time>
      </trkpt>
      <trkpt lat="42.8829980" lon="-8.4987170">
        <ele>353.0</ele>
        <time>2021-10-06T10:56:28Z</time>
      </trkpt>
      <trkpt lat="42.8828930" lon="-8.4988520">
        <ele>350.6</ele>
        <time>2021-10-06T10:56:29Z</time>
      </trkpt>
      <trkpt lat="42.8827890" lon="-8.4989880">
        <ele>347.0</ele>
        <time>2021-10-06T10:56:30Z</time>
      </trkpt>
      <trkpt lat="42.8826820" lon="-8.4991220">
        <ele>343.6</ele>
        <time>2021-10-06T10:56:31Z</time>
      </trkpt>
      <trkpt lat="42.8825740" lon="-8.4992580">
        <ele>341.0</ele>
        <time>2021-10-06T10:56:32Z</time>
      </trkpt>
      <trkpt lat="42.8824660" lon="-8.4993960">
        <ele>338.8</ele>
        <time>2021-10-06T10:56:33Z</time>
      </trkpt>
      <trkpt lat="42.8823550" lon="-8.4995340">
        <ele>334.4</ele>
        <time>2021-10-06T10:56:34Z</time>
      </trkpt>
      <trkpt lat="42.8822410" lon="-8.4996710">
        <ele>332.6</ele>
        <time>2021-10-06T10:56:35Z</time>
      </trkpt>
      <trkpt lat="42.8821260" lon="-8.4998100">
        <ele>331.4</ele>
        <time>2021-10-06T10:56:36Z</time>
      </trkpt>
      <trkpt lat="42.8820120" lon="-8.4999510">
        <ele>330.4</ele>
        <time>2021-10-06T10:56:37Z</time>
      </trkpt>
      <trkpt lat="42.8817830" lon="-8.5002320">
        <ele>328.4</ele>
        <time>2021-10-06T10:56:39Z</time>
      </trkpt>
      <trkpt lat="42.8816720" lon="-8.5003700">
        <ele>327.2</ele>
        <time>2021-10-06T10:56:40Z</time>
      </trkpt>
      <trkpt lat="42.8815640" lon="-8.5005080">
        <ele>325.8</ele>
        <time>2021-10-06T10:56:41Z</time>
      </trkpt>
      <trkpt lat="42.8814600" lon="-8.5006450">
        <ele>324.6</ele>
        <time>2021-10-06T10:56:42Z</time>
      </trkpt>
      <trkpt lat="42.8813600" lon="-8.5007820">
        <ele>323.0</ele>
        <time>2021-10-06T10:56:43Z</time>
      </trkpt>
      <trkpt lat="42.8812600" lon="-8.5009160">
        <ele>320.4</ele>
        <time>2021-10-06T10:56:44Z</time>
      </trkpt>
      <trkpt lat="42.8811580" lon="-8.5010440">
        <ele>317.8</ele>
        <time>2021-10-06T10:56:45Z</time>
      </trkpt>
      <trkpt lat="42.8810560" lon="-8.5011670">
        <ele>315.6</ele>
        <time>2021-10-06T10:56:46Z</time>
      </trkpt>
      <trkpt lat="42.8809560" lon="-8.5012880">
        <ele>313.4</ele>
        <time>2021-10-06T10:56:47Z</time>
      </trkpt>
      <trkpt lat="42.8808600" lon="-8.5014050">
        <ele>312.2</ele>
        <time>2021-10-06T10:56:48Z</time>
      </trkpt>
      <trkpt lat="42.8806900" lon="-8.5016060">
        <ele>311.0</ele>
        <time>2021-10-06T10:56:50Z</time>
      </trkpt>
      <trkpt lat="42.8805030" lon="-8.5018590">
        <ele>310.8</ele>
        <time>2021-10-06T10:56:53Z</time>
      </trkpt>
      <trkpt lat="42.8804110" lon="-8.5021220">
        <ele>310.6</ele>
        <time>2021-10-06T10:56:57Z</time>
      </trkpt>
      <trkpt lat="42.8802800" lon="-8.5022680">
        <ele>312.6</ele>
        <time>2021-10-06T10:57:02Z</time>
      </trkpt>
      <trkpt lat="42.8802420" lon="-8.5023120">
        <ele>313.8</ele>
        <time>2021-10-06T10:57:04Z</time>
      </trkpt>
      <trkpt lat="42.8802040" lon="-8.5023510">
        <ele>314.8</ele>
        <time>2021-10-06T10:57:06Z</time>
      </trkpt>
      <trkpt lat="42.8801880" lon="-8.5023690">
        <ele>315.0</ele>
        <time>2021-10-06T10:57:07Z</time>
      </trkpt>
      <trkpt lat="42.8801610" lon="-8.5024060">
        <ele>315.6</ele>
        <time>2021-10-06T10:57:09Z</time>
      </trkpt>
      <trkpt lat="42.8801490" lon="-8.5024240">
        <ele>315.6</ele>
        <time>2021-10-06T10:57:10Z</time>
      </trkpt>
      <trkpt lat="42.8810860" lon="-8.5028230">
        <ele>315.6</ele>
        <time>2021-10-06T10:57:48Z</time>
      </trkpt>
      <trkpt lat="42.8811090" lon="-8.5028470">
        <ele>315.4</ele>
        <time>2021-10-06T10:57:49Z</time>
      </trkpt>
      <trkpt lat="42.8812980" lon="-8.5030390">
        <ele>314.8</ele>
        <time>2021-10-06T10:57:53Z</time>
      </trkpt>
      <trkpt lat="42.8815070" lon="-8.5032580">
        <ele>314.0</ele>
        <time>2021-10-06T10:57:57Z</time>
      </trkpt>
      <trkpt lat="42.8817760" lon="-8.5035150">
        <ele>313.4</ele>
        <time>2021-10-06T10:58:01Z</time>
      </trkpt>
      <trkpt lat="42.8818510" lon="-8.5035840">
        <ele>313.0</ele>
        <time>2021-10-06T10:58:02Z</time>
      </trkpt>
      <trkpt lat="42.8820570" lon="-8.5037900">
        <ele>311.4</ele>
        <time>2021-10-06T10:58:05Z</time>
      </trkpt>
      <trkpt lat="42.8821780" lon="-8.5039130">
        <ele>309.6</ele>
        <time>2021-10-06T10:58:07Z</time>
      </trkpt>
      <trkpt lat="42.8823910" lon="-8.5041070">
        <ele>308.6</ele>
        <time>2021-10-06T10:58:11Z</time>
      </trkpt>
      <trkpt lat="42.8826200" lon="-8.5043200">
        <ele>308.6</ele>
        <time>2021-10-06T10:58:16Z</time>
      </trkpt>
      <trkpt lat="42.8827440" lon="-8.5044510">
        <ele>309.4</ele>
        <time>2021-10-06T10:58:19Z</time>
      </trkpt>
      <trkpt lat="42.8827850" lon="-8.5044970">
        <ele>309.8</ele>
        <time>2021-10-06T10:58:20Z</time>
      </trkpt>
      <trkpt lat="42.8829100" lon="-8.5046430">
        <ele>310.4</ele>
        <time>2021-10-06T10:58:23Z</time>
      </trkpt>
      <trkpt lat="42.8829950" lon="-8.5047420">
        <ele>310.8</ele>
        <time>2021-10-06T10:58:25Z</time>
      </trkpt>
      <trkpt lat="42.8830820" lon="-8.5048410">
        <ele>311.0</ele>
        <time>2021-10-06T10:58:27Z</time>
      </trkpt>
      <trkpt lat="42.8831720" lon="-8.5049450">
        <ele>311.8</ele>
        <time>2021-10-06T10:58:29Z</time>
      </trkpt>
      <trkpt lat="42.8832190" lon="-8.5049970">
        <ele>312.0</ele>
        <time>2021-10-06T10:58:30Z</time>
      </trkpt>
      <trkpt lat="42.8832660" lon="-8.5050460">
        <ele>312.0</ele>
        <time>2021-10-06T10:58:31Z</time>
      </trkpt>
      <trkpt lat="42.8833490" lon="-8.5051420">
        <ele>312.6</ele>
        <time>2021-10-06T10:58:33Z</time>
      </trkpt>
      <trkpt lat="42.8833850" lon="-8.5051860">
        <ele>313.2</ele>
        <time>2021-10-06T10:58:34Z</time>
      </trkpt>
      <trkpt lat="42.8834200" lon="-8.5052260">
        <ele>313.8</ele>
        <time>2021-10-06T10:58:35Z</time>
      </trkpt>
      <trkpt lat="42.8834540" lon="-8.5052620">
        <ele>314.4</ele>
        <time>2021-10-06T10:58:36Z</time>
      </trkpt>
      <trkpt lat="42.8836550" lon="-8.5055030">
        <ele>315.4</ele>
        <time>2021-10-06T10:58:42Z</time>
      </trkpt>
      <trkpt lat="42.8837200" lon="-8.5055870">
        <ele>316.4</ele>
        <time>2021-10-06T10:58:44Z</time>
      </trkpt>
      <trkpt lat="42.8838780" lon="-8.5058060">
        <ele>317.4</ele>
        <time>2021-10-06T10:58:49Z</time>
      </trkpt>
      <trkpt lat="42.8839440" lon="-8.5058910">
        <ele>317.6</ele>
        <time>2021-10-06T10:58:51Z</time>
      </trkpt>
      <trkpt lat="42.8840780" lon="-8.5060500">
        <ele>317.6</ele>
        <time>2021-10-06T10:58:55Z</time>
      </trkpt>
      <trkpt lat="42.8841530" lon="-8.5061390">
        <ele>317.6</ele>
        <time>2021-10-06T10:58:57Z</time>
      </trkpt>
      <trkpt lat="42.8842400" lon="-8.5062360">
        <ele>317.6</ele>
        <time>2021-10-06T10:58:59Z</time>
      </trkpt>
      <trkpt lat="42.8843290" lon="-8.5063300">
        <ele>317.6</ele>
        <time>2021-10-06T10:59:01Z</time>
      </trkpt>
      <trkpt lat="42.8844160" lon="-8.5063960">
        <ele>317.6</ele>
        <time>2021-10-06T10:59:03Z</time>
      </trkpt>
      <trkpt lat="42.8844620" lon="-8.5064150">
        <ele>317.2</ele>
        <time>2021-10-06T10:59:04Z</time>
      </trkpt>
      <trkpt lat="42.8845570" lon="-8.5064130">
        <ele>316.4</ele>
        <time>2021-10-06T10:59:06Z</time>
      </trkpt>
      <trkpt lat="42.8846480" lon="-8.5063840">
        <ele>315.6</ele>
        <time>2021-10-06T10:59:08Z</time>
      </trkpt>
      <trkpt lat="42.8848710" lon="-8.5062750">
        <ele>315.4</ele>
        <time>2021-10-06T10:59:13Z</time>
      </trkpt>
      <trkpt lat="42.8850530" lon="-8.5061650">
        <ele>315.6</ele>
        <time>2021-10-06T10:59:17Z</time>
      </trkpt>
      <trkpt lat="42.8851440" lon="-8.5061150">
        <ele>315.6</ele>
        <time>2021-10-06T10:59:19Z</time>
      </trkpt>
      <trkpt lat="42.8856600" lon="-8.5059240">
        <ele>316.0</ele>
        <time>2021-10-06T10:59:28Z</time>
      </trkpt>
      <trkpt lat="42.8858120" lon="-8.5058670">
        <ele>315.8</ele>
        <time>2021-10-06T10:59:30Z</time>
      </trkpt>
      <trkpt lat="42.8859770" lon="-8.5057960">
        <ele>315.2</ele>
        <time>2021-10-06T10:59:32Z</time>
      </trkpt>
      <trkpt lat="42.8860580" lon="-8.5057480">
        <ele>314.6</ele>
        <time>2021-10-06T10:59:33Z</time>
      </trkpt>
      <trkpt lat="42.8861320" lon="-8.5056920">
        <ele>314.2</ele>
        <time>2021-10-06T10:59:34Z</time>
      </trkpt>
      <trkpt lat="42.8862520" lon="-8.5055560">
        <ele>312.8</ele>
        <time>2021-10-06T10:59:36Z</time>
      </trkpt>
      <trkpt lat="42.8863010" lon="-8.5054820">
        <ele>312.2</ele>
        <time>2021-10-06T10:59:37Z</time>
      </trkpt>
      <trkpt lat="42.8863890" lon="-8.5053440">
        <ele>312.0</ele>
        <time>2021-10-06T10:59:39Z</time>
      </trkpt>
      <trkpt lat="42.8864710" lon="-8.5052190">
        <ele>311.8</ele>
        <time>2021-10-06T10:59:41Z</time>
      </trkpt>
      <trkpt lat="42.8865970" lon="-8.5050340">
        <ele>311.8</ele>
        <time>2021-10-06T10:59:44Z</time>
      </trkpt>
      <trkpt lat="42.8866410" lon="-8.5049800">
        <ele>311.6</ele>
        <time>2021-10-06T10:59:45Z</time>
      </trkpt>
      <trkpt lat="42.8867380" lon="-8.5049160">
        <ele>311.6</ele>
        <time>2021-10-06T10:59:47Z</time>
      </trkpt>
      <trkpt lat="42.8868590" lon="-8.5049620">
        <ele>311.6</ele>
        <time>2021-10-06T10:59:50Z</time>
      </trkpt>
      <trkpt lat="42.8868460" lon="-8.5051180">
        <ele>312.0</ele>
        <time>2021-10-06T10:59:53Z</time>
      </trkpt>
      <trkpt lat="42.8867220" lon="-8.5056690">
        <ele>311.6</ele>
        <time>2021-10-06T11:00:00Z</time>
      </trkpt>
      <trkpt lat="42.8867020" lon="-8.5058150">
        <ele>311.4</ele>
        <time>2021-10-06T11:00:02Z</time>
      </trkpt>
      <trkpt lat="42.8866920" lon="-8.5058860">
        <ele>311.0</ele>
        <time>2021-10-06T11:00:03Z</time>
      </trkpt>
      <trkpt lat="42.8866820" lon="-8.5059580">
        <ele>310.6</ele>
        <time>2021-10-06T11:00:04Z</time>
      </trkpt>
      <trkpt lat="42.8866540" lon="-8.5061800">
        <ele>309.6</ele>
        <time>2021-10-06T11:00:07Z</time>
      </trkpt>
      <trkpt lat="42.8866360" lon="-8.5063280">
        <ele>309.2</ele>
        <time>2021-10-06T11:00:09Z</time>
      </trkpt>
      <trkpt lat="42.8866120" lon="-8.5065720">
        <ele>308.2</ele>
        <time>2021-10-06T11:00:12Z</time>
      </trkpt>
      <trkpt lat="42.8865900" lon="-8.5068300">
        <ele>306.8</ele>
        <time>2021-10-06T11:00:15Z</time>
      </trkpt>
      <trkpt lat="42.8865600" lon="-8.5072240">
        <ele>305.4</ele>
        <time>2021-10-06T11:00:19Z</time>
      </trkpt>
      <trkpt lat="42.8865440" lon="-8.5074410">
        <ele>304.2</ele>
        <time>2021-10-06T11:00:21Z</time>
      </trkpt>
      <trkpt lat="42.8865410" lon="-8.5076710">
        <ele>302.8</ele>
        <time>2021-10-06T11:00:23Z</time>
      </trkpt>
      <trkpt lat="42.8865440" lon="-8.5079030">
        <ele>301.0</ele>
        <time>2021-10-06T11:00:25Z</time>
      </trkpt>
      <trkpt lat="42.8865430" lon="-8.5081160">
        <ele>299.6</ele>
        <time>2021-10-06T11:00:27Z</time>
      </trkpt>
      <trkpt lat="42.8865420" lon="-8.5083090">
        <ele>298.2</ele>
        <time>2021-10-06T11:00:29Z</time>
      </trkpt>
      <trkpt lat="42.8865400" lon="-8.5084870">
        <ele>296.8</ele>
        <time>2021-10-06T11:00:31Z</time>
      </trkpt>
      <trkpt lat="42.8865330" lon="-8.5086550">
        <ele>296.0</ele>
        <time>2021-10-06T11:00:33Z</time>
      </trkpt>
      <trkpt lat="42.8865270" lon="-8.5087380">
        <ele>295.6</ele>
        <time>2021-10-06T11:00:34Z</time>
      </trkpt>
      <trkpt lat="42.8865220" lon="-8.5088190">
        <ele>295.6</ele>
        <time>2021-10-06T11:00:35Z</time>
      </trkpt>
      <trkpt lat="42.8865120" lon="-8.5089760">
        <ele>295.6</ele>
        <time>2021-10-06T11:00:37Z</time>
      </trkpt>
      <trkpt lat="42.8864910" lon="-8.5091980">
        <ele>295.6</ele>
        <time>2021-10-06T11:00:40Z</time>
      </trkpt>
      <trkpt lat="42.8864880" lon="-8.5095450">
        <ele>295.6</ele>
        <time>2021-10-06T11:00:45Z</time>
      </trkpt>
      <trkpt lat="42.8864790" lon="-8.5097890">
        <ele>296.2</ele>
        <time>2021-10-06T11:00:49Z</time>
      </trkpt>
      <trkpt lat="42.8864730" lon="-8.5099760">
        <ele>296.4</ele>
        <time>2021-10-06T11:00:53Z</time>
      </trkpt>
      <trkpt lat="42.8864520" lon="-8.5100700">
        <ele>296.8</ele>
        <time>2021-10-06T11:00:55Z</time>
      </trkpt>
      <trkpt lat="42.8863870" lon="-8.5101990">
        <ele>297.4</ele>
        <time>2021-10-06T11:00:58Z</time>
      </trkpt>
      <trkpt lat="42.8863390" lon="-8.5102900">
        <ele>297.8</ele>
        <time>2021-10-06T11:01:00Z</time>
      </trkpt>
      <trkpt lat="42.8863120" lon="-8.5103320">
        <ele>298.0</ele>
        <time>2021-10-06T11:01:01Z</time>
      </trkpt>
      <trkpt lat="42.8862450" lon="-8.5104110">
        <ele>298.6</ele>
        <time>2021-10-06T11:01:05Z</time>
      </trkpt>
      <trkpt lat="42.8862100" lon="-8.5104500">
        <ele>299.0</ele>
        <time>2021-10-06T11:01:07Z</time>
      </trkpt>
      <trkpt lat="42.8862060" lon="-8.5104840">
        <ele>299.2</ele>
        <time>2021-10-06T11:01:08Z</time>
      </trkpt>
      <trkpt lat="42.8861980" lon="-8.5108250">
        <ele>299.2</ele>
        <time>2021-10-06T11:01:15Z</time>
      </trkpt>
      <trkpt lat="42.8862060" lon="-8.5109330">
        <ele>299.4</ele>
        <time>2021-10-06T11:01:17Z</time>
      </trkpt>
      <trkpt lat="42.8862780" lon="-8.5110480">
        <ele>299.4</ele>
        <time>2021-10-06T11:01:20Z</time>
      </trkpt>
      <trkpt lat="42.8863110" lon="-8.5111180">
        <ele>299.2</ele>
        <time>2021-10-06T11:01:22Z</time>
      </trkpt>
      <trkpt lat="42.8863230" lon="-8.5111560">
        <ele>299.2</ele>
        <time>2021-10-06T11:01:23Z</time>
      </trkpt>
      <trkpt lat="42.8863340" lon="-8.5113300">
        <ele>299.2</ele>
        <time>2021-10-06T11:01:27Z</time>
      </trkpt>
      <trkpt lat="42.8863500" lon="-8.5114660">
        <ele>299.2</ele>
        <time>2021-10-06T11:01:30Z</time>
      </trkpt>
      <trkpt lat="42.8863510" lon="-8.5116960">
        <ele>299.4</ele>
        <time>2021-10-06T11:01:35Z</time>
      </trkpt>
      <trkpt lat="42.8863610" lon="-8.5119910">
        <ele>299.6</ele>
        <time>2021-10-06T11:01:41Z</time>
      </trkpt>
      <trkpt lat="42.8863630" lon="-8.5120280">
        <ele>299.8</ele>
        <time>2021-10-06T11:01:42Z</time>
      </trkpt>
      <trkpt lat="42.8864050" lon="-8.5120430">
        <ele>300.0</ele>
        <time>2021-10-06T11:01:46Z</time>
      </trkpt>
      <trkpt lat="42.8864180" lon="-8.5120400">
        <ele>300.0</ele>
        <time>2021-10-06T11:01:47Z</time>
      </trkpt>
      <trkpt lat="42.8865360" lon="-8.5120440">
        <ele>300.6</ele>
        <time>2021-10-06T11:01:52Z</time>
      </trkpt>
      <trkpt lat="42.8865820" lon="-8.5120610">
        <ele>300.8</ele>
        <time>2021-10-06T11:01:55Z</time>
      </trkpt>
      <trkpt lat="42.8865840" lon="-8.5120640">
        <ele>300.8</ele>
        <time>2021-10-06T11:01:56Z</time>
      </trkpt>
      <trkpt lat="42.8865420" lon="-8.5121640">
        <ele>301.0</ele>
        <time>2021-10-06T11:06:11Z</time>
      </trkpt>
      <trkpt lat="42.8865400" lon="-8.5121890">
        <ele>301.0</ele>
        <time>2021-10-06T11:06:12Z</time>
      </trkpt>
      <trkpt lat="42.8865390" lon="-8.5123710">
        <ele>301.0</ele>
        <time>2021-10-06T11:06:17Z</time>
      </trkpt>
      <trkpt lat="42.8865360" lon="-8.5125060">
        <ele>301.2</ele>
        <time>2021-10-06T11:06:20Z</time>
      </trkpt>
      <trkpt lat="42.8867020" lon="-8.5129880">
        <ele>301.8</ele>
        <time>2021-10-06T11:06:33Z</time>
      </trkpt>
      <trkpt lat="42.8866410" lon="-8.5131740">
        <ele>302.2</ele>
        <time>2021-10-06T11:06:38Z</time>
      </trkpt>
      <trkpt lat="42.8865880" lon="-8.5132780">
        <ele>302.4</ele>
        <time>2021-10-06T11:06:41Z</time>
      </trkpt>
      <trkpt lat="42.8865670" lon="-8.5133740">
        <ele>302.6</ele>
        <time>2021-10-06T11:06:43Z</time>
      </trkpt>
      <trkpt lat="42.8865580" lon="-8.5136370">
        <ele>303.0</ele>
        <time>2021-10-06T11:06:48Z</time>
      </trkpt>
      <trkpt lat="42.8865530" lon="-8.5138420">
        <ele>303.2</ele>
        <time>2021-10-06T11:06:52Z</time>
      </trkpt>
      <trkpt lat="42.8865500" lon="-8.5139440">
        <ele>303.2</ele>
        <time>2021-10-06T11:06:54Z</time>
      </trkpt>
      <trkpt lat="42.8865450" lon="-8.5140900">
        <ele>303.4</ele>
        <time>2021-10-06T11:06:57Z</time>
      </trkpt>
      <trkpt lat="42.8865070" lon="-8.5143020">
        <ele>303.8</ele>
        <time>2021-10-06T11:07:02Z</time>
      </trkpt>
      <trkpt lat="42.8864930" lon="-8.5145820">
        <ele>304.8</ele>
        <time>2021-10-06T11:07:08Z</time>
      </trkpt>
      <trkpt lat="42.8864910" lon="-8.5148900">
        <ele>305.2</ele>
        <time>2021-10-06T11:07:14Z</time>
      </trkpt>
      <trkpt lat="42.8865390" lon="-8.5152000">
        <ele>306.0</ele>
        <time>2021-10-06T11:07:21Z</time>
      </trkpt>
      <trkpt lat="42.8865800" lon="-8.5153140">
        <ele>306.8</ele>
        <time>2021-10-06T11:07:24Z</time>
      </trkpt>
      <trkpt lat="42.8865550" lon="-8.5155630">
        <ele>307.2</ele>
        <time>2021-10-06T11:07:29Z</time>
      </trkpt>
      <trkpt lat="42.8865530" lon="-8.5157350">
        <ele>307.4</ele>
        <time>2021-10-06T11:07:32Z</time>
      </trkpt>
      <trkpt lat="42.8865520" lon="-8.5163770">
        <ele>308.2</ele>
        <time>2021-10-06T11:07:45Z</time>
      </trkpt>
      <trkpt lat="42.8865750" lon="-8.5167520">
        <ele>309.4</ele>
        <time>2021-10-06T11:07:54Z</time>
      </trkpt>
      <trkpt lat="42.8866300" lon="-8.5169890">
        <ele>310.2</ele>
        <time>2021-10-06T11:08:00Z</time>
      </trkpt>
      <trkpt lat="42.8865940" lon="-8.5171620">
        <ele>310.4</ele>
        <time>2021-10-06T11:08:03Z</time>
      </trkpt>
      <trkpt lat="42.8865820" lon="-8.5172250">
        <ele>310.4</ele>
        <time>2021-10-06T11:08:04Z</time>
      </trkpt>
      <trkpt lat="42.8865680" lon="-8.5174230">
        <ele>310.4</ele>
        <time>2021-10-06T11:08:07Z</time>
      </trkpt>
      <trkpt lat="42.8865690" lon="-8.5174900">
        <ele>310.6</ele>
        <time>2021-10-06T11:08:08Z</time>
      </trkpt>
      <trkpt lat="42.8865810" lon="-8.5177510">
        <ele>310.8</ele>
        <time>2021-10-06T11:08:12Z</time>
      </trkpt>
      <trkpt lat="42.8866060" lon="-8.5182780">
        <ele>311.4</ele>
        <time>2021-10-06T11:08:20Z</time>
      </trkpt>
      <trkpt lat="42.8866430" lon="-8.5187350">
        <ele>312.6</ele>
        <time>2021-10-06T11:08:27Z</time>
      </trkpt>
      <trkpt lat="42.8866830" lon="-8.5191460">
        <ele>313.4</ele>
        <time>2021-10-06T11:08:34Z</time>
      </trkpt>
      <trkpt lat="42.8866940" lon="-8.5192660">
        <ele>313.6</ele>
        <time>2021-10-06T11:08:37Z</time>
      </trkpt>
      <trkpt lat="42.8866960" lon="-8.5193160">
        <ele>313.8</ele>
        <time>2021-10-06T11:08:39Z</time>
      </trkpt>
      <trkpt lat="42.8866970" lon="-8.5193540">
        <ele>314.4</ele>
        <time>2021-10-06T11:08:41Z</time>
      </trkpt>
      <trkpt lat="42.8867000" lon="-8.5194140">
        <ele>314.6</ele>
        <time>2021-10-06T11:08:43Z</time>
      </trkpt>
      <trkpt lat="42.8867830" lon="-8.5201500">
        <ele>314.8</ele>
        <time>2021-10-06T11:08:56Z</time>
      </trkpt>
      <trkpt lat="42.8868120" lon="-8.5203770">
        <ele>314.6</ele>
        <time>2021-10-06T11:08:59Z</time>
      </trkpt>
      <trkpt lat="42.8868250" lon="-8.5204530">
        <ele>314.6</ele>
        <time>2021-10-06T11:09:00Z</time>
      </trkpt>
      <trkpt lat="42.8868540" lon="-8.5205980">
        <ele>314.0</ele>
        <time>2021-10-06T11:09:02Z</time>
      </trkpt>
      <trkpt lat="42.8868870" lon="-8.5207710">
        <ele>313.6</ele>
        <time>2021-10-06T11:09:05Z</time>
      </trkpt>
      <trkpt lat="42.8869050" lon="-8.5208470">
        <ele>313.2</ele>
        <time>2021-10-06T11:09:07Z</time>
      </trkpt>
      <trkpt lat="42.8869840" lon="-8.5210260">
        <ele>312.4</ele>
        <time>2021-10-06T11:09:13Z</time>
      </trkpt>
      <trkpt lat="42.8870320" lon="-8.5211400">
        <ele>312.4</ele>
        <time>2021-10-06T11:09:17Z</time>
      </trkpt>
      <trkpt lat="42.8870580" lon="-8.5211950">
        <ele>312.4</ele>
        <time>2021-10-06T11:09:19Z</time>
      </trkpt>
      <trkpt lat="42.8870870" lon="-8.5213290">
        <ele>312.4</ele>
        <time>2021-10-06T11:09:22Z</time>
      </trkpt>
      <trkpt lat="42.8871580" lon="-8.5217750">
        <ele>311.6</ele>
        <time>2021-10-06T11:09:31Z</time>
      </trkpt>
      <trkpt lat="42.8871810" lon="-8.5218620">
        <ele>311.4</ele>
        <time>2021-10-06T11:09:33Z</time>
      </trkpt>
      <trkpt lat="42.8872140" lon="-8.5219170">
        <ele>311.2</ele>
        <time>2021-10-06T11:09:35Z</time>
      </trkpt>
      <trkpt lat="42.8872980" lon="-8.5219710">
        <ele>311.2</ele>
        <time>2021-10-06T11:09:41Z</time>
      </trkpt>
      <trkpt lat="42.8872470" lon="-8.5220170">
        <ele>311.2</ele>
        <time>2021-10-06T11:09:45Z</time>
      </trkpt>
      <trkpt lat="42.8872330" lon="-8.5220310">
        <ele>311.4</ele>
        <time>2021-10-06T11:09:46Z</time>
      </trkpt>
      <trkpt lat="42.8872100" lon="-8.5220810">
        <ele>311.4</ele>
        <time>2021-10-06T11:09:48Z</time>
      </trkpt>
      <trkpt lat="42.8872190" lon="-8.5221940">
        <ele>311.4</ele>
        <time>2021-10-06T11:09:51Z</time>
      </trkpt>
      <trkpt lat="42.8872260" lon="-8.5222420">
        <ele>311.4</ele>
        <time>2021-10-06T11:09:52Z</time>
      </trkpt>
      <trkpt lat="42.8872510" lon="-8.5224010">
        <ele>311.0</ele>
        <time>2021-10-06T11:09:55Z</time>
      </trkpt>
      <trkpt lat="42.8872740" lon="-8.5225130">
        <ele>310.8</ele>
        <time>2021-10-06T11:09:57Z</time>
      </trkpt>
      <trkpt lat="42.8872740" lon="-8.5227120">
        <ele>310.4</ele>
        <time>2021-10-06T11:10:00Z</time>
      </trkpt>
      <trkpt lat="42.8872610" lon="-8.5228620">
        <ele>310.0</ele>
        <time>2021-10-06T11:10:02Z</time>
      </trkpt>
      <trkpt lat="42.8872580" lon="-8.5229400">
        <ele>309.8</ele>
        <time>2021-10-06T11:10:03Z</time>
      </trkpt>
      <trkpt lat="42.8872830" lon="-8.5232260">
        <ele>309.2</ele>
        <time>2021-10-06T11:10:07Z</time>
      </trkpt>
      <trkpt lat="42.8872860" lon="-8.5232880">
        <ele>309.0</ele>
        <time>2021-10-06T11:10:08Z</time>
      </trkpt>
      <trkpt lat="42.8872810" lon="-8.5235080">
        <ele>308.4</ele>
        <time>2021-10-06T11:10:12Z</time>
      </trkpt>
      <trkpt lat="42.8871920" lon="-8.5236600">
        <ele>308.2</ele>
        <time>2021-10-06T11:10:15Z</time>
      </trkpt>
      <trkpt lat="42.8871700" lon="-8.5237030">
        <ele>308.2</ele>
        <time>2021-10-06T11:10:16Z</time>
      </trkpt>
      <trkpt lat="42.8871780" lon="-8.5237650">
        <ele>307.8</ele>
        <time>2021-10-06T11:10:19Z</time>
      </trkpt>
      <trkpt lat="42.8872120" lon="-8.5237680">
        <ele>307.6</ele>
        <time>2021-10-06T11:10:21Z</time>
      </trkpt>
      <trkpt lat="42.8872310" lon="-8.5238190">
        <ele>307.6</ele>
        <time>2021-10-06T11:10:23Z</time>
      </trkpt>
      <trkpt lat="42.8872430" lon="-8.5238800">
        <ele>307.6</ele>
        <time>2021-10-06T11:10:25Z</time>
      </trkpt>
      <trkpt lat="42.8872490" lon="-8.5239490">
        <ele>307.6</ele>
        <time>2021-10-06T11:10:27Z</time>
      </trkpt>
      <trkpt lat="42.8872690" lon="-8.5240530">
        <ele>307.4</ele>
        <time>2021-10-06T11:10:29Z</time>
      </trkpt>
      <trkpt lat="42.8872740" lon="-8.5241210">
        <ele>307.4</ele>
        <time>2021-10-06T11:10:30Z</time>
      </trkpt>
      <trkpt lat="42.8872630" lon="-8.5245950">
        <ele>307.2</ele>
        <time>2021-10-06T11:10:36Z</time>
      </trkpt>
      <trkpt lat="42.8872610" lon="-8.5246820">
        <ele>307.2</ele>
        <time>2021-10-06T11:10:37Z</time>
      </trkpt>
      <trkpt lat="42.8872520" lon="-8.5250570">
        <ele>306.4</ele>
        <time>2021-10-06T11:10:41Z</time>
      </trkpt>
      <trkpt lat="42.8872080" lon="-8.5254490">
        <ele>305.4</ele>
        <time>2021-10-06T11:10:45Z</time>
      </trkpt>
      <trkpt lat="42.8871810" lon="-8.5255370">
        <ele>305.2</ele>
        <time>2021-10-06T11:10:46Z</time>
      </trkpt>
      <trkpt lat="42.8869510" lon="-8.5262710">
        <ele>304.6</ele>
        <time>2021-10-06T11:10:55Z</time>
      </trkpt>
      <trkpt lat="42.8867730" lon="-8.5267070">
        <ele>305.2</ele>
        <time>2021-10-06T11:11:01Z</time>
      </trkpt>
      <trkpt lat="42.8865950" lon="-8.5271120">
        <ele>305.4</ele>
        <time>2021-10-06T11:11:07Z</time>
      </trkpt>
      <trkpt lat="42.8865150" lon="-8.5273060">
        <ele>305.4</ele>
        <time>2021-10-06T11:11:10Z</time>
      </trkpt>
      <trkpt lat="42.8864860" lon="-8.5273670">
        <ele>305.4</ele>
        <time>2021-10-06T11:11:11Z</time>
      </trkpt>
      <trkpt lat="42.8864280" lon="-8.5274850">
        <ele>305.4</ele>
        <time>2021-10-06T11:11:13Z</time>
      </trkpt>
      <trkpt lat="42.8863440" lon="-8.5276450">
        <ele>305.4</ele>
        <time>2021-10-06T11:11:16Z</time>
      </trkpt>
      <trkpt lat="42.8862970" lon="-8.5277430">
        <ele>305.4</ele>
        <time>2021-10-06T11:11:18Z</time>
      </trkpt>
      <trkpt lat="42.8862490" lon="-8.5278230">
        <ele>305.4</ele>
        <time>2021-10-06T11:11:20Z</time>
      </trkpt>
      <trkpt lat="42.8861660" lon="-8.5279710">
        <ele>305.4</ele>
        <time>2021-10-06T11:11:24Z</time>
      </trkpt>
      <trkpt lat="42.8861300" lon="-8.5282830">
        <ele>305.4</ele>
        <time>2021-10-06T11:11:30Z</time>
      </trkpt>
      <trkpt lat="42.8861130" lon="-8.5283880">
        <ele>305.4</ele>
        <time>2021-10-06T11:11:32Z</time>
      </trkpt>
      <trkpt lat="42.8861070" lon="-8.5284460">
        <ele>305.4</ele>
        <time>2021-10-06T11:11:33Z</time>
      </trkpt>
      <trkpt lat="42.8860730" lon="-8.5288730">
        <ele>304.2</ele>
        <time>2021-10-06T11:11:40Z</time>
      </trkpt>
      <trkpt lat="42.8860900" lon="-8.5290190">
        <ele>303.6</ele>
        <time>2021-10-06T11:11:43Z</time>
      </trkpt>
      <trkpt lat="42.8861250" lon="-8.5291180">
        <ele>303.0</ele>
        <time>2021-10-06T11:11:45Z</time>
      </trkpt>
      <trkpt lat="42.8861290" lon="-8.5291800">
        <ele>302.8</ele>
        <time>2021-10-06T11:11:46Z</time>
      </trkpt>
      <trkpt lat="42.8861290" lon="-8.5292480">
        <ele>302.4</ele>
        <time>2021-10-06T11:11:47Z</time>
      </trkpt>
      <trkpt lat="42.8861090" lon="-8.5294590">
        <ele>301.8</ele>
        <time>2021-10-06T11:11:50Z</time>
      </trkpt>
      <trkpt lat="42.8860540" lon="-8.5297500">
        <ele>300.6</ele>
        <time>2021-10-06T11:11:54Z</time>
      </trkpt>
      <trkpt lat="42.8860030" lon="-8.5299820">
        <ele>299.8</ele>
        <time>2021-10-06T11:11:57Z</time>
      </trkpt>
      <trkpt lat="42.8859620" lon="-8.5301390">
        <ele>299.6</ele>
        <time>2021-10-06T11:11:59Z</time>
      </trkpt>
      <trkpt lat="42.8858260" lon="-8.5304980">
        <ele>298.8</ele>
        <time>2021-10-06T11:12:04Z</time>
      </trkpt>
      <trkpt lat="42.8857500" lon="-8.5306220">
        <ele>298.6</ele>
        <time>2021-10-06T11:12:06Z</time>
      </trkpt>
      <trkpt lat="42.8857110" lon="-8.5306850">
        <ele>298.6</ele>
        <time>2021-10-06T11:12:07Z</time>
      </trkpt>
      <trkpt lat="42.8856680" lon="-8.5307460">
        <ele>298.6</ele>
        <time>2021-10-06T11:12:08Z</time>
      </trkpt>
      <trkpt lat="42.8855800" lon="-8.5308680">
        <ele>298.6</ele>
        <time>2021-10-06T11:12:10Z</time>
      </trkpt>
      <trkpt lat="42.8854470" lon="-8.5310450">
        <ele>298.6</ele>
        <time>2021-10-06T11:12:13Z</time>
      </trkpt>
      <trkpt lat="42.8854050" lon="-8.5311050">
        <ele>298.6</ele>
        <time>2021-10-06T11:12:14Z</time>
      </trkpt>
      <trkpt lat="42.8853330" lon="-8.5312320">
        <ele>298.4</ele>
        <time>2021-10-06T11:12:16Z</time>
      </trkpt>
      <trkpt lat="42.8852700" lon="-8.5313650">
        <ele>298.6</ele>
        <time>2021-10-06T11:12:18Z</time>
      </trkpt>
      <trkpt lat="42.8852390" lon="-8.5314310">
        <ele>298.6</ele>
        <time>2021-10-06T11:12:19Z</time>
      </trkpt>
      <trkpt lat="42.8852090" lon="-8.5314980">
        <ele>298.6</ele>
        <time>2021-10-06T11:12:20Z</time>
      </trkpt>
      <trkpt lat="42.8850940" lon="-8.5317350">
        <ele>298.4</ele>
        <time>2021-10-06T11:12:24Z</time>
      </trkpt>
      <trkpt lat="42.8850210" lon="-8.5319210">
        <ele>298.4</ele>
        <time>2021-10-06T11:12:28Z</time>
      </trkpt>
      <trkpt lat="42.8851200" lon="-8.5321040">
        <ele>298.2</ele>
        <time>2021-10-06T11:12:32Z</time>
      </trkpt>
      <trkpt lat="42.8852410" lon="-8.5323660">
        <ele>297.8</ele>
        <time>2021-10-06T11:12:36Z</time>
      </trkpt>
      <trkpt lat="42.8853260" lon="-8.5326060">
        <ele>297.4</ele>
        <time>2021-10-06T11:12:39Z</time>
      </trkpt>
      <trkpt lat="42.8853420" lon="-8.5327740">
        <ele>296.8</ele>
        <time>2021-10-06T11:12:41Z</time>
      </trkpt>
      <trkpt lat="42.8853310" lon="-8.5328500">
        <ele>296.0</ele>
        <time>2021-10-06T11:12:42Z</time>
      </trkpt>
      <trkpt lat="42.8852900" lon="-8.5329460">
        <ele>294.8</ele>
        <time>2021-10-06T11:12:44Z</time>
      </trkpt>
      <trkpt lat="42.8852300" lon="-8.5330040">
        <ele>293.6</ele>
        <time>2021-10-06T11:12:46Z</time>
      </trkpt>
      <trkpt lat="42.8851630" lon="-8.5330680">
        <ele>293.2</ele>
        <time>2021-10-06T11:12:48Z</time>
      </trkpt>
      <trkpt lat="42.8850930" lon="-8.5331410">
        <ele>293.0</ele>
        <time>2021-10-06T11:12:50Z</time>
      </trkpt>
      <trkpt lat="42.8849760" lon="-8.5332100">
        <ele>292.8</ele>
        <time>2021-10-06T11:12:53Z</time>
      </trkpt>
      <trkpt lat="42.8849370" lon="-8.5332220">
        <ele>292.8</ele>
        <time>2021-10-06T11:12:54Z</time>
      </trkpt>
      <trkpt lat="42.8848760" lon="-8.5332560">
        <ele>292.8</ele>
        <time>2021-10-06T11:12:56Z</time>
      </trkpt>
      <trkpt lat="42.8848460" lon="-8.5333780">
        <ele>293.0</ele>
        <time>2021-10-06T11:13:00Z</time>
      </trkpt>
      <trkpt lat="42.8848490" lon="-8.5333990">
        <ele>293.0</ele>
        <time>2021-10-06T11:13:02Z</time>
      </trkpt>
      <trkpt lat="42.8848530" lon="-8.5334660">
        <ele>294.2</ele>
        <time>2021-10-06T11:14:28Z</time>
      </trkpt>
      <trkpt lat="42.8848560" lon="-8.5334920">
        <ele>294.2</ele>
        <time>2021-10-06T11:14:29Z</time>
      </trkpt>
      <trkpt lat="42.8848550" lon="-8.5335310">
        <ele>294.2</ele>
        <time>2021-10-06T11:14:31Z</time>
      </trkpt>
      <trkpt lat="42.8848370" lon="-8.5335780">
        <ele>294.2</ele>
        <time>2021-10-06T11:14:36Z</time>
      </trkpt>
      <trkpt lat="42.8848220" lon="-8.5335930">
        <ele>294.4</ele>
        <time>2021-10-06T11:14:38Z</time>
      </trkpt>
      <trkpt lat="42.8847540" lon="-8.5337260">
        <ele>294.4</ele>
        <time>2021-10-06T11:14:44Z</time>
      </trkpt>
      <trkpt lat="42.8847420" lon="-8.5338040">
        <ele>294.4</ele>
        <time>2021-10-06T11:14:46Z</time>
      </trkpt>
      <trkpt lat="42.8847470" lon="-8.5338430">
        <ele>294.4</ele>
        <time>2021-10-06T11:14:47Z</time>
      </trkpt>
      <trkpt lat="42.8847640" lon="-8.5339160">
        <ele>294.4</ele>
        <time>2021-10-06T11:14:49Z</time>
      </trkpt>
      <trkpt lat="42.8847580" lon="-8.5339850">
        <ele>294.6</ele>
        <time>2021-10-06T11:14:51Z</time>
      </trkpt>
      <trkpt lat="42.8847280" lon="-8.5340480">
        <ele>294.6</ele>
        <time>2021-10-06T11:14:53Z</time>
      </trkpt>
      <trkpt lat="42.8847030" lon="-8.5340750">
        <ele>294.8</ele>
        <time>2021-10-06T11:14:54Z</time>
      </trkpt>
      <trkpt lat="42.8846710" lon="-8.5341030">
        <ele>295.2</ele>
        <time>2021-10-06T11:14:55Z</time>
      </trkpt>
      <trkpt lat="42.8846410" lon="-8.5341340">
        <ele>295.4</ele>
        <time>2021-10-06T11:14:56Z</time>
      </trkpt>
      <trkpt lat="42.8845650" lon="-8.5341820">
        <ele>296.2</ele>
        <time>2021-10-06T11:14:58Z</time>
      </trkpt>
      <trkpt lat="42.8844930" lon="-8.5342420">
        <ele>297.2</ele>
        <time>2021-10-06T11:15:00Z</time>
      </trkpt>
      <trkpt lat="42.8844600" lon="-8.5342630">
        <ele>297.6</ele>
        <time>2021-10-06T11:15:01Z</time>
      </trkpt>
      <trkpt lat="42.8843870" lon="-8.5342860">
        <ele>298.6</ele>
        <time>2021-10-06T11:15:03Z</time>
      </trkpt>
      <trkpt lat="42.8843550" lon="-8.5343000">
        <ele>299.0</ele>
        <time>2021-10-06T11:15:04Z</time>
      </trkpt>
      <trkpt lat="42.8842590" lon="-8.5343590">
        <ele>300.6</ele>
        <time>2021-10-06T11:15:07Z</time>
      </trkpt>
      <trkpt lat="42.8841460" lon="-8.5344410">
        <ele>301.6</ele>
        <time>2021-10-06T11:15:10Z</time>
      </trkpt>
      <trkpt lat="42.8840370" lon="-8.5345200">
        <ele>302.6</ele>
        <time>2021-10-06T11:15:14Z</time>
      </trkpt>
      <trkpt lat="42.8839420" lon="-8.5345670">
        <ele>303.8</ele>
        <time>2021-10-06T11:15:18Z</time>
      </trkpt>
      <trkpt lat="42.8838590" lon="-8.5345840">
        <ele>305.0</ele>
        <time>2021-10-06T11:15:21Z</time>
      </trkpt>
      <trkpt lat="42.8835580" lon="-8.5346250">
        <ele>306.0</ele>
        <time>2021-10-06T11:15:30Z</time>
      </trkpt>
      <trkpt lat="42.8831090" lon="-8.5348440">
        <ele>306.4</ele>
        <time>2021-10-06T11:15:42Z</time>
      </trkpt>
      <trkpt lat="42.8827490" lon="-8.5351080">
        <ele>307.8</ele>
        <time>2021-10-06T11:15:54Z</time>
      </trkpt>
      <trkpt lat="42.8826150" lon="-8.5352280">
        <ele>309.0</ele>
        <time>2021-10-06T11:15:59Z</time>
      </trkpt>
      <trkpt lat="42.8825420" lon="-8.5353920">
        <ele>309.4</ele>
        <time>2021-10-06T11:16:03Z</time>
      </trkpt>
      <trkpt lat="42.8824770" lon="-8.5355830">
        <ele>310.0</ele>
        <time>2021-10-06T11:16:07Z</time>
      </trkpt>
      <trkpt lat="42.8823400" lon="-8.5358970">
        <ele>310.2</ele>
        <time>2021-10-06T11:16:14Z</time>
      </trkpt>
      <trkpt lat="42.8822960" lon="-8.5359970">
        <ele>310.0</ele>
        <time>2021-10-06T11:16:16Z</time>
      </trkpt>
      <trkpt lat="42.8822180" lon="-8.5361520">
        <ele>310.2</ele>
        <time>2021-10-06T11:16:19Z</time>
      </trkpt>
      <trkpt lat="42.8821660" lon="-8.5362500">
        <ele>310.0</ele>
        <time>2021-10-06T11:16:22Z</time>
      </trkpt>
      <trkpt lat="42.8821520" lon="-8.5362570">
        <ele>310.0</ele>
        <time>2021-10-06T11:16:23Z</time>
      </trkpt>
      <trkpt lat="42.8820840" lon="-8.5362710">
        <ele>309.4</ele>
        <time>2021-10-06T11:16:27Z</time>
      </trkpt>
      <trkpt lat="42.8820630" lon="-8.5362880">
        <ele>309.6</ele>
        <time>2021-10-06T11:16:28Z</time>
      </trkpt>
      <trkpt lat="42.8820230" lon="-8.5363540">
        <ele>309.4</ele>
        <time>2021-10-06T11:16:30Z</time>
      </trkpt>
      <trkpt lat="42.8819540" lon="-8.5365200">
        <ele>308.8</ele>
        <time>2021-10-06T11:16:34Z</time>
      </trkpt>
      <trkpt lat="42.8819440" lon="-8.5365730">
        <ele>308.4</ele>
        <time>2021-10-06T11:16:35Z</time>
      </trkpt>
      <trkpt lat="42.8819350" lon="-8.5366320">
        <ele>308.2</ele>
        <time>2021-10-06T11:16:36Z</time>
      </trkpt>
      <trkpt lat="42.8819100" lon="-8.5367550">
        <ele>307.6</ele>
        <time>2021-10-06T11:16:38Z</time>
      </trkpt>
      <trkpt lat="42.8818960" lon="-8.5368150">
        <ele>307.4</ele>
        <time>2021-10-06T11:16:39Z</time>
      </trkpt>
      <trkpt lat="42.8818730" lon="-8.5369340">
        <ele>307.2</ele>
        <time>2021-10-06T11:16:41Z</time>
      </trkpt>
      <trkpt lat="42.8818460" lon="-8.5370530">
        <ele>306.6</ele>
        <time>2021-10-06T11:16:43Z</time>
      </trkpt>
      <trkpt lat="42.8818160" lon="-8.5371860">
        <ele>305.8</ele>
        <time>2021-10-06T11:16:45Z</time>
      </trkpt>
      <trkpt lat="42.8817600" lon="-8.5373880">
        <ele>304.8</ele>
        <time>2021-10-06T11:16:48Z</time>
      </trkpt>
      <trkpt lat="42.8816880" lon="-8.5376710">
        <ele>303.6</ele>
        <time>2021-10-06T11:16:52Z</time>
      </trkpt>
      <trkpt lat="42.8816470" lon="-8.5378680">
        <ele>302.4</ele>
        <time>2021-10-06T11:16:55Z</time>
      </trkpt>
      <trkpt lat="42.8816100" lon="-8.5380810">
        <ele>301.0</ele>
        <time>2021-10-06T11:16:59Z</time>
      </trkpt>
      <trkpt lat="42.8815770" lon="-8.5381380">
        <ele>300.2</ele>
        <time>2021-10-06T11:17:01Z</time>
      </trkpt>
      <trkpt lat="42.8815240" lon="-8.5381460">
        <ele>299.0</ele>
        <time>2021-10-06T11:17:03Z</time>
      </trkpt>
      <trkpt lat="42.8814600" lon="-8.5381460">
        <ele>298.0</ele>
        <time>2021-10-06T11:17:05Z</time>
      </trkpt>
      <trkpt lat="42.8813960" lon="-8.5381350">
        <ele>296.8</ele>
        <time>2021-10-06T11:17:07Z</time>
      </trkpt>
      <trkpt lat="42.8813590" lon="-8.5381350">
        <ele>296.6</ele>
        <time>2021-10-06T11:17:09Z</time>
      </trkpt>
      <trkpt lat="42.8813510" lon="-8.5381440">
        <ele>296.4</ele>
        <time>2021-10-06T11:17:10Z</time>
      </trkpt>
      <trkpt lat="42.8813500" lon="-8.5382000">
        <ele>295.4</ele>
        <time>2021-10-06T11:17:13Z</time>
      </trkpt>
      <trkpt lat="42.8813540" lon="-8.5382690">
        <ele>294.4</ele>
        <time>2021-10-06T11:17:15Z</time>
      </trkpt>
      <trkpt lat="42.8813590" lon="-8.5383100">
        <ele>294.2</ele>
        <time>2021-10-06T11:17:16Z</time>
      </trkpt>
      <trkpt lat="42.8813810" lon="-8.5384050">
        <ele>293.6</ele>
        <time>2021-10-06T11:17:18Z</time>
      </trkpt>
      <trkpt lat="42.8814210" lon="-8.5385170">
        <ele>293.2</ele>
        <time>2021-10-06T11:17:20Z</time>
      </trkpt>
      <trkpt lat="42.8814760" lon="-8.5386350">
        <ele>293.0</ele>
        <time>2021-10-06T11:17:22Z</time>
      </trkpt>
      <trkpt lat="42.8815050" lon="-8.5387000">
        <ele>292.6</ele>
        <time>2021-10-06T11:17:23Z</time>
      </trkpt>
      <trkpt lat="42.8815380" lon="-8.5387670">
        <ele>292.4</ele>
        <time>2021-10-06T11:17:24Z</time>
      </trkpt>
      <trkpt lat="42.8815980" lon="-8.5389010">
        <ele>292.0</ele>
        <time>2021-10-06T11:17:26Z</time>
      </trkpt>
      <trkpt lat="42.8817240" lon="-8.5391790">
        <ele>290.6</ele>
        <time>2021-10-06T11:17:30Z</time>
      </trkpt>
      <trkpt lat="42.8817770" lon="-8.5393300">
        <ele>289.4</ele>
        <time>2021-10-06T11:17:32Z</time>
      </trkpt>
      <trkpt lat="42.8818400" lon="-8.5394740">
        <ele>288.6</ele>
        <time>2021-10-06T11:17:34Z</time>
      </trkpt>
      <trkpt lat="42.8818660" lon="-8.5395450">
        <ele>288.4</ele>
        <time>2021-10-06T11:17:35Z</time>
      </trkpt>
      <trkpt lat="42.8818880" lon="-8.5396180">
        <ele>288.2</ele>
        <time>2021-10-06T11:17:36Z</time>
      </trkpt>
      <trkpt lat="42.8819420" lon="-8.5397990">
        <ele>287.4</ele>
        <time>2021-10-06T11:17:39Z</time>
      </trkpt>
      <trkpt lat="42.8819520" lon="-8.5398460">
        <ele>287.2</ele>
        <time>2021-10-06T11:17:40Z</time>
      </trkpt>
      <trkpt lat="42.8819450" lon="-8.5399500">
        <ele>287.2</ele>
        <time>2021-10-06T11:17:43Z</time>
      </trkpt>
      <trkpt lat="42.8819030" lon="-8.5400840">
        <ele>288.0</ele>
        <time>2021-10-06T11:17:51Z</time>
      </trkpt>
      <trkpt lat="42.8818910" lon="-8.5401260">
        <ele>288.2</ele>
        <time>2021-10-06T11:17:53Z</time>
      </trkpt>
      <trkpt lat="42.8818920" lon="-8.5401550">
        <ele>288.2</ele>
        <time>2021-10-06T11:17:54Z</time>
      </trkpt>
      <trkpt lat="42.8818990" lon="-8.5401900">
        <ele>288.2</ele>
        <time>2021-10-06T11:17:55Z</time>
      </trkpt>
      <trkpt lat="42.8819040" lon="-8.5402290">
        <ele>288.2</ele>
        <time>2021-10-06T11:17:56Z</time>
      </trkpt>
      <trkpt lat="42.8819040" lon="-8.5403170">
        <ele>288.2</ele>
        <time>2021-10-06T11:17:58Z</time>
      </trkpt>
      <trkpt lat="42.8818890" lon="-8.5404000">
        <ele>288.2</ele>
        <time>2021-10-06T11:18:00Z</time>
      </trkpt>
      <trkpt lat="42.8818780" lon="-8.5405560">
        <ele>288.4</ele>
        <time>2021-10-06T11:18:05Z</time>
      </trkpt>
      <trkpt lat="42.8818690" lon="-8.5406790">
        <ele>288.4</ele>
        <time>2021-10-06T11:18:08Z</time>
      </trkpt>
      <trkpt lat="42.8818570" lon="-8.5407680">
        <ele>288.6</ele>
        <time>2021-10-06T11:18:10Z</time>
      </trkpt>
      <trkpt lat="42.8818580" lon="-8.5408880">
        <ele>289.2</ele>
        <time>2021-10-06T11:18:13Z</time>
      </trkpt>
      <trkpt lat="42.8818600" lon="-8.5409710">
        <ele>289.4</ele>
        <time>2021-10-06T11:18:15Z</time>
      </trkpt>
      <trkpt lat="42.8818260" lon="-8.5411280">
        <ele>290.0</ele>
        <time>2021-10-06T11:18:19Z</time>
      </trkpt>
      <trkpt lat="42.8817990" lon="-8.5411990">
        <ele>290.6</ele>
        <time>2021-10-06T11:18:21Z</time>
      </trkpt>
      <trkpt lat="42.8817760" lon="-8.5413300">
        <ele>291.0</ele>
        <time>2021-10-06T11:18:24Z</time>
      </trkpt>
      <trkpt lat="42.8817670" lon="-8.5414610">
        <ele>291.8</ele>
        <time>2021-10-06T11:18:27Z</time>
      </trkpt>
      <trkpt lat="42.8816860" lon="-8.5416180">
        <ele>292.6</ele>
        <time>2021-10-06T11:18:32Z</time>
      </trkpt>
      <trkpt lat="42.8816620" lon="-8.5416510">
        <ele>293.0</ele>
        <time>2021-10-06T11:18:33Z</time>
      </trkpt>
      <trkpt lat="42.8815340" lon="-8.5418240">
        <ele>294.0</ele>
        <time>2021-10-06T11:18:38Z</time>
      </trkpt>
      <trkpt lat="42.8815030" lon="-8.5420170">
        <ele>295.0</ele>
        <time>2021-10-06T11:18:44Z</time>
      </trkpt>
      <trkpt lat="42.8814370" lon="-8.5422100">
        <ele>296.2</ele>
        <time>2021-10-06T11:18:49Z</time>
      </trkpt>
      <trkpt lat="42.8813490" lon="-8.5423110">
        <ele>297.2</ele>
        <time>2021-10-06T11:18:54Z</time>
      </trkpt>
      <trkpt lat="42.8813240" lon="-8.5423220">
        <ele>297.4</ele>
        <time>2021-10-06T11:18:55Z</time>
      </trkpt>
      <trkpt lat="42.8812540" lon="-8.5423680">
        <ele>298.0</ele>
        <time>2021-10-06T11:18:58Z</time>
      </trkpt>
      <trkpt lat="42.8812160" lon="-8.5424300">
        <ele>298.0</ele>
        <time>2021-10-06T11:19:00Z</time>
      </trkpt>
      <trkpt lat="42.8811950" lon="-8.5425140">
        <ele>298.0</ele>
        <time>2021-10-06T11:19:02Z</time>
      </trkpt>
      <trkpt lat="42.8811880" lon="-8.5425980">
        <ele>298.0</ele>
        <time>2021-10-06T11:19:04Z</time>
      </trkpt>
      <trkpt lat="42.8811970" lon="-8.5426700">
        <ele>298.0</ele>
        <time>2021-10-06T11:19:06Z</time>
      </trkpt>
      <trkpt lat="42.8812280" lon="-8.5427680">
        <ele>297.4</ele>
        <time>2021-10-06T11:19:09Z</time>
      </trkpt>
      <trkpt lat="42.8812370" lon="-8.5428480">
        <ele>297.0</ele>
        <time>2021-10-06T11:19:12Z</time>
      </trkpt>
      <trkpt lat="42.8812370" lon="-8.5429100">
        <ele>296.8</ele>
        <time>2021-10-06T11:19:15Z</time>
      </trkpt>
      <trkpt lat="42.8812320" lon="-8.5429640">
        <ele>296.8</ele>
        <time>2021-10-06T11:19:16Z</time>
      </trkpt>
      <trkpt lat="42.8812310" lon="-8.5430490">
        <ele>296.6</ele>
        <time>2021-10-06T11:19:18Z</time>
      </trkpt>
      <trkpt lat="42.8812440" lon="-8.5432730">
        <ele>296.2</ele>
        <time>2021-10-06T11:19:23Z</time>
      </trkpt>
      <trkpt lat="42.8812430" lon="-8.5433130">
        <ele>295.8</ele>
        <time>2021-10-06T11:19:24Z</time>
      </trkpt>
      <trkpt lat="42.8812540" lon="-8.5434310">
        <ele>295.2</ele>
        <time>2021-10-06T11:19:27Z</time>
      </trkpt>
      <trkpt lat="42.8812560" lon="-8.5435180">
        <ele>295.0</ele>
        <time>2021-10-06T11:19:29Z</time>
      </trkpt>
      <trkpt lat="42.8812840" lon="-8.5437030">
        <ele>293.8</ele>
        <time>2021-10-06T11:19:34Z</time>
      </trkpt>
      <trkpt lat="42.8812700" lon="-8.5438190">
        <ele>293.2</ele>
        <time>2021-10-06T11:19:38Z</time>
      </trkpt>
      <trkpt lat="42.8812900" lon="-8.5438430">
        <ele>293.0</ele>
        <time>2021-10-06T11:19:39Z</time>
      </trkpt>
      <trkpt lat="42.8812920" lon="-8.5438980">
        <ele>292.6</ele>
        <time>2021-10-06T11:19:41Z</time>
      </trkpt>
      <trkpt lat="42.8812810" lon="-8.5439350">
        <ele>292.4</ele>
        <time>2021-10-06T11:19:43Z</time>
      </trkpt>
      <trkpt lat="42.8812600" lon="-8.5440050">
        <ele>292.0</ele>
        <time>2021-10-06T11:19:49Z</time>
      </trkpt>
      <trkpt lat="42.8812410" lon="-8.5440450">
        <ele>291.8</ele>
        <time>2021-10-06T11:19:52Z</time>
      </trkpt>
      <trkpt lat="42.8812030" lon="-8.5441750">
        <ele>291.6</ele>
        <time>2021-10-06T11:19:56Z</time>
      </trkpt>
      <trkpt lat="42.8811830" lon="-8.5442480">
        <ele>291.4</ele>
        <time>2021-10-06T11:19:58Z</time>
      </trkpt>
      <trkpt lat="42.8811570" lon="-8.5443930">
        <ele>290.6</ele>
        <time>2021-10-06T11:20:02Z</time>
      </trkpt>
      <trkpt lat="42.8811510" lon="-8.5444580">
        <ele>290.2</ele>
        <time>2021-10-06T11:20:04Z</time>
      </trkpt>
      <trkpt lat="42.8811240" lon="-8.5445910">
        <ele>289.0</ele>
        <time>2021-10-06T11:20:08Z</time>
      </trkpt>
      <trkpt lat="42.8811110" lon="-8.5446360">
        <ele>288.6</ele>
        <time>2021-10-06T11:20:10Z</time>
      </trkpt>
      <trkpt lat="42.8810980" lon="-8.5446850">
        <ele>288.0</ele>
        <time>2021-10-06T11:20:13Z</time>
      </trkpt>
      <trkpt lat="42.8810780" lon="-8.5447890">
        <ele>287.0</ele>
        <time>2021-10-06T11:20:18Z</time>
      </trkpt>
      <trkpt lat="42.8810630" lon="-8.5448250">
        <ele>286.6</ele>
        <time>2021-10-06T11:20:20Z</time>
      </trkpt>
      <trkpt lat="42.8810070" lon="-8.5449270">
        <ele>286.2</ele>
        <time>2021-10-06T11:20:25Z</time>
      </trkpt>
      <trkpt lat="42.8809990" lon="-8.5449400">
        <ele>286.0</ele>
        <time>2021-10-06T11:20:27Z</time>
      </trkpt>
      <trkpt lat="42.8809860" lon="-8.5449780">
        <ele>285.2</ele>
        <time>2021-10-06T11:20:30Z</time>
      </trkpt>
      <trkpt lat="42.8809820" lon="-8.5449880">
        <ele>285.0</ele>
        <time>2021-10-06T11:20:31Z</time>
      </trkpt>
      <trkpt lat="42.8809820" lon="-8.5449880">
        <ele>284.0</ele>
        <time>2021-10-06T11:20:32Z</time>
      </trkpt>
      <trkpt lat="42.8809820" lon="-8.5452100">
        <ele>280.8</ele>
        <time>2021-10-06T11:20:56Z</time>
      </trkpt>
      <trkpt lat="42.8809520" lon="-8.5454960">
        <ele>279.8</ele>
        <time>2021-10-06T11:21:04Z</time>
      </trkpt>
      <trkpt lat="42.8809120" lon="-8.5456120">
        <ele>279.2</ele>
        <time>2021-10-06T11:21:11Z</time>
      </trkpt>
      <trkpt lat="42.8809070" lon="-8.5456460">
        <ele>279.2</ele>
        <time>2021-10-06T11:21:14Z</time>
      </trkpt>
      <trkpt lat="42.8809070" lon="-8.5456520">
        <ele>279.2</ele>
        <time>2021-10-06T11:21:16Z</time>
      </trkpt>
      <trkpt lat="42.8808860" lon="-8.5456610">
        <ele>279.0</ele>
        <time>2021-10-06T11:21:31Z</time>
      </trkpt>
      <trkpt lat="42.8808710" lon="-8.5456710">
        <ele>279.0</ele>
        <time>2021-10-06T11:21:32Z</time>
      </trkpt>
      <trkpt lat="42.8808360" lon="-8.5456910">
        <ele>279.0</ele>
        <time>2021-10-06T11:21:34Z</time>
      </trkpt>
      <trkpt lat="42.8807970" lon="-8.5456940">
        <ele>278.8</ele>
        <time>2021-10-06T11:21:36Z</time>
      </trkpt>
      <trkpt lat="42.8806120" lon="-8.5457530">
        <ele>278.4</ele>
        <time>2021-10-06T11:21:45Z</time>
      </trkpt>
      <trkpt lat="42.8806100" lon="-8.5458090">
        <ele>278.2</ele>
        <time>2021-10-06T11:21:48Z</time>
      </trkpt>
      <trkpt lat="42.8805990" lon="-8.5458150">
        <ele>278.2</ele>
        <time>2021-10-06T11:21:49Z</time>
      </trkpt>
      <trkpt lat="42.8805820" lon="-8.5458130">
        <ele>278.0</ele>
        <time>2021-10-06T11:21:52Z</time>
      </trkpt>
    </trkseg>
  </trk>
</gpx>
